<?xml version="1.0" encoding="UTF-8"?>
<TrainingCenterDatabase xmlns="http://www.garmin.com/xmlschemas/TrainingCenterDatabase/v2" xmlns:xsi="http://www.w3.org/2001/XMLSchema-instance" xsi:schemaLocation="http://www.garmin.com/xmlschemas/TrainingCenterDatabase/v2 http://www.garmin.com/xmlschemas/TrainingCenterDatabasev2.xsd">
  <Activities>
    <Activity Sport="Other">
      <Id>2020-02-15T07:59:54.000Z</Id>
      <Lap StartTime="2020-02-15T07:59:54.000Z">
        <TotalTimeSeconds>14688</TotalTimeSeconds>
        <DistanceMeters>46290</DistanceMeters>
        <Track>
          <Trackpoint>
            <Time>2020-02-15T07:59:54.000Z</Time>
            <Position>
              <LatitudeDegrees>41.99797167442739009857177734375</LatitudeDegrees>
              <LongitudeDegrees>2.8277885913848876953125</LongitudeDegrees>
            </Position>
            <AltitudeMeters>150.1999969482421875</AltitudeMeters>
            <DistanceMeters>0</DistanceMeters>
          </Trackpoint>
          <Trackpoint>
            <Time>2020-02-15T07:59:55.000Z</Time>
            <Position>
              <LatitudeDegrees>41.99795574881136417388916015625</LatitudeDegrees>
              <LongitudeDegrees>2.8278167545795440673828125</LongitudeDegrees>
            </Position>
            <AltitudeMeters>150.8000030517578125</AltitudeMeters>
            <DistanceMeters>2.9258353454815</DistanceMeters>
          </Trackpoint>
          <Trackpoint>
            <Time>2020-02-15T07:59:56.000Z</Time>
            <Position>
              <LatitudeDegrees>41.9979410804808139801025390625</LatitudeDegrees>
              <LongitudeDegrees>2.82783879898488521575927734375</LongitudeDegrees>
            </Position>
            <AltitudeMeters>150.8000030517578125</AltitudeMeters>
            <DistanceMeters>5.3745024847198</DistanceMeters>
          </Trackpoint>
          <Trackpoint>
            <Time>2020-02-15T07:59:58.000Z</Time>
            <Position>
              <LatitudeDegrees>41.9979000091552734375</LatitudeDegrees>
              <LongitudeDegrees>2.827872075140476226806640625</LongitudeDegrees>
            </Position>
            <AltitudeMeters>150.8000030517578125</AltitudeMeters>
            <DistanceMeters>10.709556463017</DistanceMeters>
          </Trackpoint>
          <Trackpoint>
            <Time>2020-02-15T07:59:59.000Z</Time>
            <Position>
              <LatitudeDegrees>41.99787226505577564239501953125</LatitudeDegrees>
              <LongitudeDegrees>2.8278829716145992279052734375</LongitudeDegrees>
            </Position>
            <AltitudeMeters>150.8000030517578125</AltitudeMeters>
            <DistanceMeters>13.926459881644</DistanceMeters>
          </Trackpoint>
          <Trackpoint>
            <Time>2020-02-15T08:00:04.000Z</Time>
            <Position>
              <LatitudeDegrees>41.99769088067114353179931640625</LatitudeDegrees>
              <LongitudeDegrees>2.82792261801660060882568359375</LongitudeDegrees>
            </Position>
            <AltitudeMeters>150.8000030517578125</AltitudeMeters>
            <DistanceMeters>34.379511520531</DistanceMeters>
          </Trackpoint>
          <Trackpoint>
            <Time>2020-02-15T08:00:10.000Z</Time>
            <Position>
              <LatitudeDegrees>41.99741712771356105804443359375</LatitudeDegrees>
              <LongitudeDegrees>2.82797810621559619903564453125</LongitudeDegrees>
            </Position>
            <AltitudeMeters>150.8000030517578125</AltitudeMeters>
            <DistanceMeters>65.192500623701</DistanceMeters>
          </Trackpoint>
          <Trackpoint>
            <Time>2020-02-15T08:00:13.000Z</Time>
            <Position>
              <LatitudeDegrees>41.99725669808685779571533203125</LatitudeDegrees>
              <LongitudeDegrees>2.82801113091409206390380859375</LongitudeDegrees>
            </Position>
            <AltitudeMeters>150.8000030517578125</AltitudeMeters>
            <DistanceMeters>83.256076743231</DistanceMeters>
          </Trackpoint>
          <Trackpoint>
            <Time>2020-02-15T08:00:16.000Z</Time>
            <Position>
              <LatitudeDegrees>41.9970981962978839874267578125</LatitudeDegrees>
              <LongitudeDegrees>2.828043065965175628662109375</LongitudeDegrees>
            </Position>
            <AltitudeMeters>150.600006103515625</AltitudeMeters>
            <DistanceMeters>101.09428948252</DistanceMeters>
          </Trackpoint>
          <Trackpoint>
            <Time>2020-02-15T08:00:19.000Z</Time>
            <Position>
              <LatitudeDegrees>41.99693868868052959442138671875</LatitudeDegrees>
              <LongitudeDegrees>2.82808162271976470947265625</LongitudeDegrees>
            </Position>
            <AltitudeMeters>150.1999969482421875</AltitudeMeters>
            <DistanceMeters>119.13185179776</DistanceMeters>
          </Trackpoint>
          <Trackpoint>
            <Time>2020-02-15T08:00:20.000Z</Time>
            <Position>
              <LatitudeDegrees>41.9968846254050731658935546875</LatitudeDegrees>
              <LongitudeDegrees>2.82809562049806118011474609375</LongitudeDegrees>
            </Position>
            <AltitudeMeters>150</AltitudeMeters>
            <DistanceMeters>125.26015400395</DistanceMeters>
          </Trackpoint>
          <Trackpoint>
            <Time>2020-02-15T08:00:21.000Z</Time>
            <Position>
              <LatitudeDegrees>41.9968303106725215911865234375</LatitudeDegrees>
              <LongitudeDegrees>2.82811087556183338165283203125</LongitudeDegrees>
            </Position>
            <AltitudeMeters>149.8000030517578125</AltitudeMeters>
            <DistanceMeters>131.43615942001</DistanceMeters>
          </Trackpoint>
          <Trackpoint>
            <Time>2020-02-15T08:00:23.000Z</Time>
            <Position>
              <LatitudeDegrees>41.99672344140708446502685546875</LatitudeDegrees>
              <LongitudeDegrees>2.8281404636800289154052734375</LongitudeDegrees>
            </Position>
            <AltitudeMeters>149.600006103515625</AltitudeMeters>
            <DistanceMeters>143.58026121812</DistanceMeters>
          </Trackpoint>
          <Trackpoint>
            <Time>2020-02-15T08:00:24.000Z</Time>
            <Position>
              <LatitudeDegrees>41.996674574911594390869140625</LatitudeDegrees>
              <LongitudeDegrees>2.82815177924931049346923828125</LongitudeDegrees>
            </Position>
            <AltitudeMeters>149.600006103515625</AltitudeMeters>
            <DistanceMeters>149.09999653078</DistanceMeters>
          </Trackpoint>
          <Trackpoint>
            <Time>2020-02-15T08:00:25.000Z</Time>
            <Position>
              <LatitudeDegrees>41.9966261275112628936767578125</LatitudeDegrees>
              <LongitudeDegrees>2.82815831713378429412841796875</LongitudeDegrees>
            </Position>
            <AltitudeMeters>149.600006103515625</AltitudeMeters>
            <DistanceMeters>154.52068548595</DistanceMeters>
          </Trackpoint>
          <Trackpoint>
            <Time>2020-02-15T08:00:28.000Z</Time>
            <Position>
              <LatitudeDegrees>41.99647097848355770111083984375</LatitudeDegrees>
              <LongitudeDegrees>2.82818832434713840484619140625</LongitudeDegrees>
            </Position>
            <AltitudeMeters>149.399993896484375</AltitudeMeters>
            <DistanceMeters>171.96656541628</DistanceMeters>
          </Trackpoint>
          <Trackpoint>
            <Time>2020-02-15T08:00:29.000Z</Time>
            <Position>
              <LatitudeDegrees>41.99641699902713298797607421875</LatitudeDegrees>
              <LongitudeDegrees>2.8281934373080730438232421875</LongitudeDegrees>
            </Position>
            <AltitudeMeters>149.600006103515625</AltitudeMeters>
            <DistanceMeters>177.99008989551</DistanceMeters>
          </Trackpoint>
          <Trackpoint>
            <Time>2020-02-15T08:00:30.000Z</Time>
            <Position>
              <LatitudeDegrees>41.99635849334299564361572265625</LatitudeDegrees>
              <LongitudeDegrees>2.82819771207869052886962890625</LongitudeDegrees>
            </Position>
            <AltitudeMeters>149.399993896484375</AltitudeMeters>
            <DistanceMeters>184.51172006373</DistanceMeters>
          </Trackpoint>
          <Trackpoint>
            <Time>2020-02-15T08:00:33.000Z</Time>
            <Position>
              <LatitudeDegrees>41.9961741752922534942626953125</LatitudeDegrees>
              <LongitudeDegrees>2.82824884168803691864013671875</LongitudeDegrees>
            </Position>
            <AltitudeMeters>149.600006103515625</AltitudeMeters>
            <DistanceMeters>205.45816019706</DistanceMeters>
          </Trackpoint>
          <Trackpoint>
            <Time>2020-02-15T08:00:34.000Z</Time>
            <Position>
              <LatitudeDegrees>41.99611189775168895721435546875</LatitudeDegrees>
              <LongitudeDegrees>2.8282658569514751434326171875</LongitudeDegrees>
            </Position>
            <AltitudeMeters>149.399993896484375</AltitudeMeters>
            <DistanceMeters>212.53111032409</DistanceMeters>
          </Trackpoint>
          <Trackpoint>
            <Time>2020-02-15T08:00:35.000Z</Time>
            <Position>
              <LatitudeDegrees>41.9960481114685535430908203125</LatitudeDegrees>
              <LongitudeDegrees>2.8282802738249301910400390625</LongitudeDegrees>
            </Position>
            <AltitudeMeters>149.399993896484375</AltitudeMeters>
            <DistanceMeters>219.73059911069</DistanceMeters>
          </Trackpoint>
          <Trackpoint>
            <Time>2020-02-15T08:00:36.000Z</Time>
            <Position>
              <LatitudeDegrees>41.9959834031760692596435546875</LatitudeDegrees>
              <LongitudeDegrees>2.828295864164829254150390625</LongitudeDegrees>
            </Position>
            <AltitudeMeters>149.600006103515625</AltitudeMeters>
            <DistanceMeters>227.04703903457</DistanceMeters>
          </Trackpoint>
          <Trackpoint>
            <Time>2020-02-15T08:00:38.000Z</Time>
            <Position>
              <LatitudeDegrees>41.9958516396582126617431640625</LatitudeDegrees>
              <LongitudeDegrees>2.82833601348102092742919921875</LongitudeDegrees>
            </Position>
            <AltitudeMeters>148.8000030517578125</AltitudeMeters>
            <DistanceMeters>242.08349652973</DistanceMeters>
          </Trackpoint>
          <Trackpoint>
            <Time>2020-02-15T08:00:39.000Z</Time>
            <Position>
              <LatitudeDegrees>41.99578349478542804718017578125</LatitudeDegrees>
              <LongitudeDegrees>2.8283500112593173980712890625</LongitudeDegrees>
            </Position>
            <AltitudeMeters>148.8000030517578125</AltitudeMeters>
            <DistanceMeters>249.75657273257</DistanceMeters>
          </Trackpoint>
          <Trackpoint>
            <Time>2020-02-15T08:00:43.000Z</Time>
            <Position>
              <LatitudeDegrees>41.99551058001816272735595703125</LatitudeDegrees>
              <LongitudeDegrees>2.82840793021023273468017578125</LongitudeDegrees>
            </Position>
            <AltitudeMeters>147.8000030517578125</AltitudeMeters>
            <DistanceMeters>280.50795750408</DistanceMeters>
          </Trackpoint>
          <Trackpoint>
            <Time>2020-02-15T08:00:45.000Z</Time>
            <Position>
              <LatitudeDegrees>41.995374374091625213623046875</LatitudeDegrees>
              <LongitudeDegrees>2.8284318186342716217041015625</LongitudeDegrees>
            </Position>
            <AltitudeMeters>147.1999969482421875</AltitudeMeters>
            <DistanceMeters>295.79604007185</DistanceMeters>
          </Trackpoint>
          <Trackpoint>
            <Time>2020-02-15T08:00:49.000Z</Time>
            <Position>
              <LatitudeDegrees>41.99509047903120517730712890625</LatitudeDegrees>
              <LongitudeDegrees>2.82848169095814228057861328125</LongitudeDegrees>
            </Position>
            <AltitudeMeters>146</AltitudeMeters>
            <DistanceMeters>327.66245211385</DistanceMeters>
          </Trackpoint>
          <Trackpoint>
            <Time>2020-02-15T08:00:50.000Z</Time>
            <Position>
              <LatitudeDegrees>41.99501738883554935455322265625</LatitudeDegrees>
              <LongitudeDegrees>2.828495688736438751220703125</LongitudeDegrees>
            </Position>
            <AltitudeMeters>146</AltitudeMeters>
            <DistanceMeters>335.88047752902</DistanceMeters>
          </Trackpoint>
          <Trackpoint>
            <Time>2020-02-15T08:00:51.000Z</Time>
            <Position>
              <LatitudeDegrees>41.994943208992481231689453125</LatitudeDegrees>
              <LongitudeDegrees>2.82849895767867565155029296875</LongitudeDegrees>
            </Position>
            <AltitudeMeters>146</AltitudeMeters>
            <DistanceMeters>344.14179205901</DistanceMeters>
          </Trackpoint>
          <Trackpoint>
            <Time>2020-02-15T08:00:53.000Z</Time>
            <Position>
              <LatitudeDegrees>41.99478797614574432373046875</LatitudeDegrees>
              <LongitudeDegrees>2.82847314141690731048583984375</LongitudeDegrees>
            </Position>
            <AltitudeMeters>145.399993896484375</AltitudeMeters>
            <DistanceMeters>361.55114258581</DistanceMeters>
          </Trackpoint>
          <Trackpoint>
            <Time>2020-02-15T08:00:54.000Z</Time>
            <Position>
              <LatitudeDegrees>41.9947117008268833160400390625</LatitudeDegrees>
              <LongitudeDegrees>2.828443050384521484375</LongitudeDegrees>
            </Position>
            <AltitudeMeters>145.1999969482421875</AltitudeMeters>
            <DistanceMeters>370.39832872697</DistanceMeters>
          </Trackpoint>
          <Trackpoint>
            <Time>2020-02-15T08:00:57.000Z</Time>
            <Position>
              <LatitudeDegrees>41.99449553154408931732177734375</LatitudeDegrees>
              <LongitudeDegrees>2.82832075841724872589111328125</LongitudeDegrees>
            </Position>
            <AltitudeMeters>144.399993896484375</AltitudeMeters>
            <DistanceMeters>396.49851908751</DistanceMeters>
          </Trackpoint>
          <Trackpoint>
            <Time>2020-02-15T08:00:58.000Z</Time>
            <Position>
              <LatitudeDegrees>41.994424872100353240966796875</LatitudeDegrees>
              <LongitudeDegrees>2.8282806091010570526123046875</LongitudeDegrees>
            </Position>
            <AltitudeMeters>144.399993896484375</AltitudeMeters>
            <DistanceMeters>405.03612865082</DistanceMeters>
          </Trackpoint>
          <Trackpoint>
            <Time>2020-02-15T08:00:59.000Z</Time>
            <Position>
              <LatitudeDegrees>41.9943519495427608489990234375</LatitudeDegrees>
              <LongitudeDegrees>2.8282460756599903106689453125</LongitudeDegrees>
            </Position>
            <AltitudeMeters>144</AltitudeMeters>
            <DistanceMeters>413.64116362114</DistanceMeters>
          </Trackpoint>
          <Trackpoint>
            <Time>2020-02-15T08:01:00.000Z</Time>
            <Position>
              <LatitudeDegrees>41.9942798651754856109619140625</LatitudeDegrees>
              <LongitudeDegrees>2.82821296714246273040771484375</LongitudeDegrees>
            </Position>
            <AltitudeMeters>143.600006103515625</AltitudeMeters>
            <DistanceMeters>422.1188035296</DistanceMeters>
          </Trackpoint>
          <Trackpoint>
            <Time>2020-02-15T08:01:01.000Z</Time>
            <Position>
              <LatitudeDegrees>41.9942081160843372344970703125</LatitudeDegrees>
              <LongitudeDegrees>2.82818027772009372711181640625</LongitudeDegrees>
            </Position>
            <AltitudeMeters>143.399993896484375</AltitudeMeters>
            <DistanceMeters>430.55051698792</DistanceMeters>
          </Trackpoint>
          <Trackpoint>
            <Time>2020-02-15T08:01:03.000Z</Time>
            <Position>
              <LatitudeDegrees>41.99406269006431102752685546875</LatitudeDegrees>
              <LongitudeDegrees>2.8281176649034023284912109375</LongitudeDegrees>
            </Position>
            <AltitudeMeters>142.8000030517578125</AltitudeMeters>
            <DistanceMeters>447.5451621735</DistanceMeters>
          </Trackpoint>
          <Trackpoint>
            <Time>2020-02-15T08:01:04.000Z</Time>
            <Position>
              <LatitudeDegrees>41.9939905218780040740966796875</LatitudeDegrees>
              <LongitudeDegrees>2.82808832824230194091796875</LongitudeDegrees>
            </Position>
            <AltitudeMeters>142.399993896484375</AltitudeMeters>
            <DistanceMeters>455.93608024207</DistanceMeters>
          </Trackpoint>
          <Trackpoint>
            <Time>2020-02-15T08:01:05.000Z</Time>
            <Position>
              <LatitudeDegrees>41.9939170964062213897705078125</LatitudeDegrees>
              <LongitudeDegrees>2.82806410454213619232177734375</LongitudeDegrees>
            </Position>
            <AltitudeMeters>142</AltitudeMeters>
            <DistanceMeters>464.35064080083</DistanceMeters>
          </Trackpoint>
          <Trackpoint>
            <Time>2020-02-15T08:01:06.000Z</Time>
            <Position>
              <LatitudeDegrees>41.9938433356583118438720703125</LatitudeDegrees>
              <LongitudeDegrees>2.82804809510707855224609375</LongitudeDegrees>
            </Position>
            <AltitudeMeters>141.8000030517578125</AltitudeMeters>
            <DistanceMeters>472.66642852105</DistanceMeters>
          </Trackpoint>
          <Trackpoint>
            <Time>2020-02-15T08:01:07.000Z</Time>
            <Position>
              <LatitudeDegrees>41.9937695749104022979736328125</LatitudeDegrees>
              <LongitudeDegrees>2.82804247923195362091064453125</LongitudeDegrees>
            </Position>
            <AltitudeMeters>141.8000030517578125</AltitudeMeters>
            <DistanceMeters>480.88939710985</DistanceMeters>
          </Trackpoint>
          <Trackpoint>
            <Time>2020-02-15T08:01:08.000Z</Time>
            <Position>
              <LatitudeDegrees>41.99369338341057300567626953125</LatitudeDegrees>
              <LongitudeDegrees>2.82804633490741252899169921875</LongitudeDegrees>
            </Position>
            <AltitudeMeters>141.399993896484375</AltitudeMeters>
            <DistanceMeters>489.37608608241</DistanceMeters>
          </Trackpoint>
          <Trackpoint>
            <Time>2020-02-15T08:01:10.000Z</Time>
            <Position>
              <LatitudeDegrees>41.9935358874499797821044921875</LatitudeDegrees>
              <LongitudeDegrees>2.82807064242660999298095703125</LongitudeDegrees>
            </Position>
            <AltitudeMeters>141.1999969482421875</AltitudeMeters>
            <DistanceMeters>507.02088632596</DistanceMeters>
          </Trackpoint>
          <Trackpoint>
            <Time>2020-02-15T08:01:11.000Z</Time>
            <Position>
              <LatitudeDegrees>41.9934554211795330047607421875</LatitudeDegrees>
              <LongitudeDegrees>2.82808572985231876373291015625</LongitudeDegrees>
            </Position>
            <AltitudeMeters>140.8000030517578125</AltitudeMeters>
            <DistanceMeters>516.06341596097</DistanceMeters>
          </Trackpoint>
          <Trackpoint>
            <Time>2020-02-15T08:01:14.000Z</Time>
            <Position>
              <LatitudeDegrees>41.9932096637785434722900390625</LatitudeDegrees>
              <LongitudeDegrees>2.8281317465007305145263671875</LongitudeDegrees>
            </Position>
            <AltitudeMeters>140.600006103515625</AltitudeMeters>
            <DistanceMeters>543.68040921894</DistanceMeters>
          </Trackpoint>
          <Trackpoint>
            <Time>2020-02-15T08:01:17.000Z</Time>
            <Position>
              <LatitudeDegrees>41.99295879341661930084228515625</LatitudeDegrees>
              <LongitudeDegrees>2.8281729854643344879150390625</LongitudeDegrees>
            </Position>
            <AltitudeMeters>139.600006103515625</AltitudeMeters>
            <DistanceMeters>571.81040333036</DistanceMeters>
          </Trackpoint>
          <Trackpoint>
            <Time>2020-02-15T08:01:18.000Z</Time>
            <Position>
              <LatitudeDegrees>41.99287698604166507720947265625</LatitudeDegrees>
              <LongitudeDegrees>2.82818631269037723541259765625</LongitudeDegrees>
            </Position>
            <AltitudeMeters>139.1999969482421875</AltitudeMeters>
            <DistanceMeters>580.9823274552</DistanceMeters>
          </Trackpoint>
          <Trackpoint>
            <Time>2020-02-15T08:01:19.000Z</Time>
            <Position>
              <LatitudeDegrees>41.99279651977121829986572265625</LatitudeDegrees>
              <LongitudeDegrees>2.828200645744800567626953125</LongitudeDegrees>
            </Position>
            <AltitudeMeters>139</AltitudeMeters>
            <DistanceMeters>590.01636480848</DistanceMeters>
          </Trackpoint>
          <Trackpoint>
            <Time>2020-02-15T08:01:20.000Z</Time>
            <Position>
              <LatitudeDegrees>41.99271957390010356903076171875</LatitudeDegrees>
              <LongitudeDegrees>2.82821564935147762298583984375</LongitudeDegrees>
            </Position>
            <AltitudeMeters>138.600006103515625</AltitudeMeters>
            <DistanceMeters>598.67058077679</DistanceMeters>
          </Trackpoint>
          <Trackpoint>
            <Time>2020-02-15T08:01:21.000Z</Time>
            <Position>
              <LatitudeDegrees>41.99264162220060825347900390625</LatitudeDegrees>
              <LongitudeDegrees>2.82822906039655208587646484375</LongitudeDegrees>
            </Position>
            <AltitudeMeters>138.1999969482421875</AltitudeMeters>
            <DistanceMeters>607.4171691193</DistanceMeters>
          </Trackpoint>
          <Trackpoint>
            <Time>2020-02-15T08:01:22.000Z</Time>
            <Position>
              <LatitudeDegrees>41.99256668798625469207763671875</LatitudeDegrees>
              <LongitudeDegrees>2.82824532128870487213134765625</LongitudeDegrees>
            </Position>
            <AltitudeMeters>137.600006103515625</AltitudeMeters>
            <DistanceMeters>615.86546623842</DistanceMeters>
          </Trackpoint>
          <Trackpoint>
            <Time>2020-02-15T08:01:23.000Z</Time>
            <Position>
              <LatitudeDegrees>41.99249879457056522369384765625</LatitudeDegrees>
              <LongitudeDegrees>2.828270383179187774658203125</LongitudeDegrees>
            </Position>
            <AltitudeMeters>137.1999969482421875</AltitudeMeters>
            <DistanceMeters>623.70156985048</DistanceMeters>
          </Trackpoint>
          <Trackpoint>
            <Time>2020-02-15T08:01:24.000Z</Time>
            <Position>
              <LatitudeDegrees>41.992442049086093902587890625</LatitudeDegrees>
              <LongitudeDegrees>2.8283047489821910858154296875</LongitudeDegrees>
            </Position>
            <AltitudeMeters>136.8000030517578125</AltitudeMeters>
            <DistanceMeters>630.62744640658</DistanceMeters>
          </Trackpoint>
          <Trackpoint>
            <Time>2020-02-15T08:01:25.000Z</Time>
            <Position>
              <LatitudeDegrees>41.9923986308276653289794921875</LatitudeDegrees>
              <LongitudeDegrees>2.828343808650970458984375</LongitudeDegrees>
            </Position>
            <AltitudeMeters>136.8000030517578125</AltitudeMeters>
            <DistanceMeters>636.43963325636</DistanceMeters>
          </Trackpoint>
          <Trackpoint>
            <Time>2020-02-15T08:01:26.000Z</Time>
            <Position>
              <LatitudeDegrees>41.9923701323568820953369140625</LatitudeDegrees>
              <LongitudeDegrees>2.8283838741481304168701171875</LongitudeDegrees>
            </Position>
            <AltitudeMeters>136.600006103515625</AltitudeMeters>
            <DistanceMeters>641.0265797477</DistanceMeters>
          </Trackpoint>
          <Trackpoint>
            <Time>2020-02-15T08:01:27.000Z</Time>
            <Position>
              <LatitudeDegrees>41.99236032553017139434814453125</LatitudeDegrees>
              <LongitudeDegrees>2.828425280749797821044921875</LongitudeDegrees>
            </Position>
            <AltitudeMeters>136.600006103515625</AltitudeMeters>
            <DistanceMeters>644.62130357455</DistanceMeters>
          </Trackpoint>
          <Trackpoint>
            <Time>2020-02-15T08:01:28.000Z</Time>
            <Position>
              <LatitudeDegrees>41.99235043488442897796630859375</LatitudeDegrees>
              <LongitudeDegrees>2.82846693880856037139892578125</LongitudeDegrees>
            </Position>
            <AltitudeMeters>136.600006103515625</AltitudeMeters>
            <DistanceMeters>648.23856507564</DistanceMeters>
          </Trackpoint>
          <Trackpoint>
            <Time>2020-02-15T08:01:29.000Z</Time>
            <Position>
              <LatitudeDegrees>41.99234305880963802337646484375</LatitudeDegrees>
              <LongitudeDegrees>2.828509770333766937255859375</LongitudeDegrees>
            </Position>
            <AltitudeMeters>136.600006103515625</AltitudeMeters>
            <DistanceMeters>651.87450125687</DistanceMeters>
          </Trackpoint>
          <Trackpoint>
            <Time>2020-02-15T08:01:30.000Z</Time>
            <Position>
              <LatitudeDegrees>41.99233417399227619171142578125</LatitudeDegrees>
              <LongitudeDegrees>2.828556038439273834228515625</LongitudeDegrees>
            </Position>
            <AltitudeMeters>136.600006103515625</AltitudeMeters>
            <DistanceMeters>655.82697292002</DistanceMeters>
          </Trackpoint>
          <Trackpoint>
            <Time>2020-02-15T08:01:31.000Z</Time>
            <Position>
              <LatitudeDegrees>41.9923205114901065826416015625</LatitudeDegrees>
              <LongitudeDegrees>2.8286101855337619781494140625</LongitudeDegrees>
            </Position>
            <AltitudeMeters>136.8000030517578125</AltitudeMeters>
            <DistanceMeters>660.55831094479</DistanceMeters>
          </Trackpoint>
          <Trackpoint>
            <Time>2020-02-15T08:01:32.000Z</Time>
            <Position>
              <LatitudeDegrees>41.99230047874152660369873046875</LatitudeDegrees>
              <LongitudeDegrees>2.82867263071238994598388671875</LongitudeDegrees>
            </Position>
            <AltitudeMeters>136.600006103515625</AltitudeMeters>
            <DistanceMeters>666.18498385269</DistanceMeters>
          </Trackpoint>
          <Trackpoint>
            <Time>2020-02-15T08:01:33.000Z</Time>
            <Position>
              <LatitudeDegrees>41.9922765903174877166748046875</LatitudeDegrees>
              <LongitudeDegrees>2.82873851247131824493408203125</LongitudeDegrees>
            </Position>
            <AltitudeMeters>137</AltitudeMeters>
            <DistanceMeters>672.24884988681</DistanceMeters>
          </Trackpoint>
          <Trackpoint>
            <Time>2020-02-15T08:01:34.000Z</Time>
            <Position>
              <LatitudeDegrees>41.99224465526640415191650390625</LatitudeDegrees>
              <LongitudeDegrees>2.82881026156246662139892578125</LongitudeDegrees>
            </Position>
            <AltitudeMeters>137.399993896484375</AltitudeMeters>
            <DistanceMeters>679.16689911712</DistanceMeters>
          </Trackpoint>
          <Trackpoint>
            <Time>2020-02-15T08:01:36.000Z</Time>
            <Position>
              <LatitudeDegrees>41.99216611683368682861328125</LatitudeDegrees>
              <LongitudeDegrees>2.82895979471504688262939453125</LongitudeDegrees>
            </Position>
            <AltitudeMeters>137.399993896484375</AltitudeMeters>
            <DistanceMeters>694.31345391137</DistanceMeters>
          </Trackpoint>
          <Trackpoint>
            <Time>2020-02-15T08:01:39.000Z</Time>
            <Position>
              <LatitudeDegrees>41.9920288212597370147705078125</LatitudeDegrees>
              <LongitudeDegrees>2.82921343110501766204833984375</LongitudeDegrees>
            </Position>
            <AltitudeMeters>137.600006103515625</AltitudeMeters>
            <DistanceMeters>720.27018836771</DistanceMeters>
          </Trackpoint>
          <Trackpoint>
            <Time>2020-02-15T08:01:42.000Z</Time>
            <Position>
              <LatitudeDegrees>41.99187937192618846893310546875</LatitudeDegrees>
              <LongitudeDegrees>2.82948684878647327423095703125</LongitudeDegrees>
            </Position>
            <AltitudeMeters>137.600006103515625</AltitudeMeters>
            <DistanceMeters>748.34636141711</DistanceMeters>
          </Trackpoint>
          <Trackpoint>
            <Time>2020-02-15T08:01:43.000Z</Time>
            <Position>
              <LatitudeDegrees>41.991830505430698394775390625</LatitudeDegrees>
              <LongitudeDegrees>2.829577624797821044921875</LongitudeDegrees>
            </Position>
            <AltitudeMeters>137.600006103515625</AltitudeMeters>
            <DistanceMeters>757.61913812635</DistanceMeters>
          </Trackpoint>
          <Trackpoint>
            <Time>2020-02-15T08:01:44.000Z</Time>
            <Position>
              <LatitudeDegrees>41.9917807169258594512939453125</LatitudeDegrees>
              <LongitudeDegrees>2.829665802419185638427734375</LongitudeDegrees>
            </Position>
            <AltitudeMeters>137.600006103515625</AltitudeMeters>
            <DistanceMeters>766.78022596951</DistanceMeters>
          </Trackpoint>
          <Trackpoint>
            <Time>2020-02-15T08:01:45.000Z</Time>
            <Position>
              <LatitudeDegrees>41.99172623455524444580078125</LatitudeDegrees>
              <LongitudeDegrees>2.82974735833704471588134765625</LongitudeDegrees>
            </Position>
            <AltitudeMeters>137.1999969482421875</AltitudeMeters>
            <DistanceMeters>775.85166943975</DistanceMeters>
          </Trackpoint>
          <Trackpoint>
            <Time>2020-02-15T08:01:46.000Z</Time>
            <Position>
              <LatitudeDegrees>41.99166320264339447021484375</LatitudeDegrees>
              <LongitudeDegrees>2.82981525175273418426513671875</LongitudeDegrees>
            </Position>
            <AltitudeMeters>136.8000030517578125</AltitudeMeters>
            <DistanceMeters>784.83810219353</DistanceMeters>
          </Trackpoint>
          <Trackpoint>
            <Time>2020-02-15T08:01:47.000Z</Time>
            <Position>
              <LatitudeDegrees>41.99159287847578525543212890625</LatitudeDegrees>
              <LongitudeDegrees>2.82986185513436794281005859375</LongitudeDegrees>
            </Position>
            <AltitudeMeters>136.1999969482421875</AltitudeMeters>
            <DistanceMeters>793.56401788047</DistanceMeters>
          </Trackpoint>
          <Trackpoint>
            <Time>2020-02-15T08:01:48.000Z</Time>
            <Position>
              <LatitudeDegrees>41.9915175251662731170654296875</LatitudeDegrees>
              <LongitudeDegrees>2.829887755215167999267578125</LongitudeDegrees>
            </Position>
            <AltitudeMeters>135.8000030517578125</AltitudeMeters>
            <DistanceMeters>802.22032045905</DistanceMeters>
          </Trackpoint>
          <Trackpoint>
            <Time>2020-02-15T08:01:49.000Z</Time>
            <Position>
              <LatitudeDegrees>41.99143798090517520904541015625</LatitudeDegrees>
              <LongitudeDegrees>2.82989680767059326171875</LongitudeDegrees>
            </Position>
            <AltitudeMeters>135.1999969482421875</AltitudeMeters>
            <DistanceMeters>811.10519121067</DistanceMeters>
          </Trackpoint>
          <Trackpoint>
            <Time>2020-02-15T08:01:50.000Z</Time>
            <Position>
              <LatitudeDegrees>41.99135835282504558563232421875</LatitudeDegrees>
              <LongitudeDegrees>2.82989152707159519195556640625</LongitudeDegrees>
            </Position>
            <AltitudeMeters>134.8000030517578125</AltitudeMeters>
            <DistanceMeters>819.97785746374</DistanceMeters>
          </Trackpoint>
          <Trackpoint>
            <Time>2020-02-15T08:01:51.000Z</Time>
            <Position>
              <LatitudeDegrees>41.99128040112555027008056640625</LatitudeDegrees>
              <LongitudeDegrees>2.82987442798912525177001953125</LongitudeDegrees>
            </Position>
            <AltitudeMeters>134.399993896484375</AltitudeMeters>
            <DistanceMeters>828.76872739836</DistanceMeters>
          </Trackpoint>
          <Trackpoint>
            <Time>2020-02-15T08:01:52.000Z</Time>
            <Position>
              <LatitudeDegrees>41.99119918048381805419921875</LatitudeDegrees>
              <LongitudeDegrees>2.82984928227961063385009765625</LongitudeDegrees>
            </Position>
            <AltitudeMeters>134.399993896484375</AltitudeMeters>
            <DistanceMeters>838.0453985961</DistanceMeters>
          </Trackpoint>
          <Trackpoint>
            <Time>2020-02-15T08:01:53.000Z</Time>
            <Position>
              <LatitudeDegrees>41.9911145232617855072021484375</LatitudeDegrees>
              <LongitudeDegrees>2.82982639968395233154296875</LongitudeDegrees>
            </Position>
            <AltitudeMeters>134.1999969482421875</AltitudeMeters>
            <DistanceMeters>847.65672951443</DistanceMeters>
          </Trackpoint>
          <Trackpoint>
            <Time>2020-02-15T08:01:54.000Z</Time>
            <Position>
              <LatitudeDegrees>41.99102760292589664459228515625</LatitudeDegrees>
              <LongitudeDegrees>2.82981072552502155303955078125</LongitudeDegrees>
            </Position>
            <AltitudeMeters>133.8000030517578125</AltitudeMeters>
            <DistanceMeters>857.41722676015</DistanceMeters>
          </Trackpoint>
          <Trackpoint>
            <Time>2020-02-15T08:01:55.000Z</Time>
            <Position>
              <LatitudeDegrees>41.9909388385713100433349609375</LatitudeDegrees>
              <LongitudeDegrees>2.8298041038215160369873046875</LongitudeDegrees>
            </Position>
            <AltitudeMeters>133.600006103515625</AltitudeMeters>
            <DistanceMeters>867.31233256463</DistanceMeters>
          </Trackpoint>
          <Trackpoint>
            <Time>2020-02-15T08:01:56.000Z</Time>
            <Position>
              <LatitudeDegrees>41.99085024185478687286376953125</LatitudeDegrees>
              <LongitudeDegrees>2.82982095144689083099365234375</LongitudeDegrees>
            </Position>
            <AltitudeMeters>133.1999969482421875</AltitudeMeters>
            <DistanceMeters>877.27156745795</DistanceMeters>
          </Trackpoint>
          <Trackpoint>
            <Time>2020-02-15T08:01:57.000Z</Time>
            <Position>
              <LatitudeDegrees>41.99076407589018344879150390625</LatitudeDegrees>
              <LongitudeDegrees>2.82986302860081195831298828125</LongitudeDegrees>
            </Position>
            <AltitudeMeters>133.1999969482421875</AltitudeMeters>
            <DistanceMeters>887.47444554435</DistanceMeters>
          </Trackpoint>
          <Trackpoint>
            <Time>2020-02-15T08:01:58.000Z</Time>
            <Position>
              <LatitudeDegrees>41.99069090187549591064453125</LatitudeDegrees>
              <LongitudeDegrees>2.8299271501600742340087890625</LongitudeDegrees>
            </Position>
            <AltitudeMeters>133.1999969482421875</AltitudeMeters>
            <DistanceMeters>897.19415025986</DistanceMeters>
          </Trackpoint>
          <Trackpoint>
            <Time>2020-02-15T08:01:59.000Z</Time>
            <Position>
              <LatitudeDegrees>41.99061789549887180328369140625</LatitudeDegrees>
              <LongitudeDegrees>2.82999671995639801025390625</LongitudeDegrees>
            </Position>
            <AltitudeMeters>133</AltitudeMeters>
            <DistanceMeters>907.15157158039</DistanceMeters>
          </Trackpoint>
          <Trackpoint>
            <Time>2020-02-15T08:02:00.000Z</Time>
            <Position>
              <LatitudeDegrees>41.9905469007790088653564453125</LatitudeDegrees>
              <LongitudeDegrees>2.8300693072378635406494140625</LongitudeDegrees>
            </Position>
            <AltitudeMeters>132.600006103515625</AltitudeMeters>
            <DistanceMeters>917.07583698264</DistanceMeters>
          </Trackpoint>
          <Trackpoint>
            <Time>2020-02-15T08:02:01.000Z</Time>
            <Position>
              <LatitudeDegrees>41.99047758243978023529052734375</LatitudeDegrees>
              <LongitudeDegrees>2.83014516346156597137451171875</LongitudeDegrees>
            </Position>
            <AltitudeMeters>132.1999969482421875</AltitudeMeters>
            <DistanceMeters>927.02146201916</DistanceMeters>
          </Trackpoint>
          <Trackpoint>
            <Time>2020-02-15T08:02:02.000Z</Time>
            <Position>
              <LatitudeDegrees>41.99040591716766357421875</LatitudeDegrees>
              <LongitudeDegrees>2.83022227697074413299560546875</LongitudeDegrees>
            </Position>
            <AltitudeMeters>131.8000030517578125</AltitudeMeters>
            <DistanceMeters>937.23539726259</DistanceMeters>
          </Trackpoint>
          <Trackpoint>
            <Time>2020-02-15T08:02:04.000Z</Time>
            <Position>
              <LatitudeDegrees>41.9902558811008930206298828125</LatitudeDegrees>
              <LongitudeDegrees>2.83035621978342533111572265625</LongitudeDegrees>
            </Position>
            <AltitudeMeters>130.8000030517578125</AltitudeMeters>
            <DistanceMeters>957.27634883867</DistanceMeters>
          </Trackpoint>
          <Trackpoint>
            <Time>2020-02-15T08:02:05.000Z</Time>
            <Position>
              <LatitudeDegrees>41.9901643507182598114013671875</LatitudeDegrees>
              <LongitudeDegrees>2.8303514420986175537109375</LongitudeDegrees>
            </Position>
            <AltitudeMeters>130.399993896484375</AltitudeMeters>
            <DistanceMeters>967.47170120857</DistanceMeters>
          </Trackpoint>
          <Trackpoint>
            <Time>2020-02-15T08:02:06.000Z</Time>
            <Position>
              <LatitudeDegrees>41.990077011287212371826171875</LatitudeDegrees>
              <LongitudeDegrees>2.83031724393367767333984375</LongitudeDegrees>
            </Position>
            <AltitudeMeters>129.8000030517578125</AltitudeMeters>
            <DistanceMeters>977.59550324332</DistanceMeters>
          </Trackpoint>
          <Trackpoint>
            <Time>2020-02-15T08:02:07.000Z</Time>
            <Position>
              <LatitudeDegrees>41.98999880813062191009521484375</LatitudeDegrees>
              <LongitudeDegrees>2.83024876378476619720458984375</LongitudeDegrees>
            </Position>
            <AltitudeMeters>129.399993896484375</AltitudeMeters>
            <DistanceMeters>987.98084064981</DistanceMeters>
          </Trackpoint>
          <Trackpoint>
            <Time>2020-02-15T08:02:08.000Z</Time>
            <Position>
              <LatitudeDegrees>41.98993443511426448822021484375</LatitudeDegrees>
              <LongitudeDegrees>2.83015589229762554168701171875</LongitudeDegrees>
            </Position>
            <AltitudeMeters>129</AltitudeMeters>
            <DistanceMeters>998.48591391093</DistanceMeters>
          </Trackpoint>
          <Trackpoint>
            <Time>2020-02-15T08:02:09.000Z</Time>
            <Position>
              <LatitudeDegrees>41.98988716118037700653076171875</LatitudeDegrees>
              <LongitudeDegrees>2.83004675991833209991455078125</LongitudeDegrees>
            </Position>
            <AltitudeMeters>128.600006103515625</AltitudeMeters>
            <DistanceMeters>1008.9353964034</DistanceMeters>
          </Trackpoint>
          <Trackpoint>
            <Time>2020-02-15T08:02:10.000Z</Time>
            <Position>
              <LatitudeDegrees>41.98986033909022808074951171875</LatitudeDegrees>
              <LongitudeDegrees>2.829933352768421173095703125</LongitudeDegrees>
            </Position>
            <AltitudeMeters>128</AltitudeMeters>
            <DistanceMeters>1018.780182357</DistanceMeters>
          </Trackpoint>
          <Trackpoint>
            <Time>2020-02-15T08:02:11.000Z</Time>
            <Position>
              <LatitudeDegrees>41.98985807597637176513671875</LatitudeDegrees>
              <LongitudeDegrees>2.82981793396174907684326171875</LongitudeDegrees>
            </Position>
            <AltitudeMeters>127.40000152587890625</AltitudeMeters>
            <DistanceMeters>1028.3316671795</DistanceMeters>
          </Trackpoint>
          <Trackpoint>
            <Time>2020-02-15T08:02:12.000Z</Time>
            <Position>
              <LatitudeDegrees>41.98988732881844043731689453125</LatitudeDegrees>
              <LongitudeDegrees>2.8297025151550769805908203125</LongitudeDegrees>
            </Position>
            <AltitudeMeters>126.59999847412109375</AltitudeMeters>
            <DistanceMeters>1038.4197275244</DistanceMeters>
          </Trackpoint>
          <Trackpoint>
            <Time>2020-02-15T08:02:13.000Z</Time>
            <Position>
              <LatitudeDegrees>41.98993879370391368865966796875</LatitudeDegrees>
              <LongitudeDegrees>2.82960620708763599395751953125</LongitudeDegrees>
            </Position>
            <AltitudeMeters>125.59999847412109375</AltitudeMeters>
            <DistanceMeters>1048.2318972664</DistanceMeters>
          </Trackpoint>
          <Trackpoint>
            <Time>2020-02-15T08:02:14.000Z</Time>
            <Position>
              <LatitudeDegrees>41.99000869877636432647705078125</LatitudeDegrees>
              <LongitudeDegrees>2.82952465116977691650390625</LongitudeDegrees>
            </Position>
            <AltitudeMeters>124.8000030517578125</AltitudeMeters>
            <DistanceMeters>1058.5303557838</DistanceMeters>
          </Trackpoint>
          <Trackpoint>
            <Time>2020-02-15T08:02:15.000Z</Time>
            <Position>
              <LatitudeDegrees>41.99008480645716190338134765625</LatitudeDegrees>
              <LongitudeDegrees>2.82946572639048099517822265625</LongitudeDegrees>
            </Position>
            <AltitudeMeters>123.8000030517578125</AltitudeMeters>
            <DistanceMeters>1068.3037967656</DistanceMeters>
          </Trackpoint>
          <Trackpoint>
            <Time>2020-02-15T08:02:16.000Z</Time>
            <Position>
              <LatitudeDegrees>41.9901673682034015655517578125</LatitudeDegrees>
              <LongitudeDegrees>2.82942247577011585235595703125</LongitudeDegrees>
            </Position>
            <AltitudeMeters>123</AltitudeMeters>
            <DistanceMeters>1078.1655371445</DistanceMeters>
          </Trackpoint>
          <Trackpoint>
            <Time>2020-02-15T08:02:17.000Z</Time>
            <Position>
              <LatitudeDegrees>41.99025311507284641265869140625</LatitudeDegrees>
              <LongitudeDegrees>2.82938526012003421783447265625</LongitudeDegrees>
            </Position>
            <AltitudeMeters>122.1999969482421875</AltitudeMeters>
            <DistanceMeters>1088.1943452209</DistanceMeters>
          </Trackpoint>
          <Trackpoint>
            <Time>2020-02-15T08:02:18.000Z</Time>
            <Position>
              <LatitudeDegrees>41.99033550918102264404296875</LatitudeDegrees>
              <LongitudeDegrees>2.82935030758380889892578125</LongitudeDegrees>
            </Position>
            <AltitudeMeters>121.1999969482421875</AltitudeMeters>
            <DistanceMeters>1097.810372612</DistanceMeters>
          </Trackpoint>
          <Trackpoint>
            <Time>2020-02-15T08:02:19.000Z</Time>
            <Position>
              <LatitudeDegrees>41.9904148019850254058837890625</LatitudeDegrees>
              <LongitudeDegrees>2.82931099645793437957763671875</LongitudeDegrees>
            </Position>
            <AltitudeMeters>121.1999969482421875</AltitudeMeters>
            <DistanceMeters>1107.215617364</DistanceMeters>
          </Trackpoint>
          <Trackpoint>
            <Time>2020-02-15T08:02:21.000Z</Time>
            <Position>
              <LatitudeDegrees>41.9905743934214115142822265625</LatitudeDegrees>
              <LongitudeDegrees>2.82922918908298015594482421875</LongitudeDegrees>
            </Position>
            <AltitudeMeters>120</AltitudeMeters>
            <DistanceMeters>1126.2238108256</DistanceMeters>
          </Trackpoint>
          <Trackpoint>
            <Time>2020-02-15T08:02:24.000Z</Time>
            <Position>
              <LatitudeDegrees>41.99081520549952983856201171875</LatitudeDegrees>
              <LongitudeDegrees>2.8290919773280620574951171875</LongitudeDegrees>
            </Position>
            <AltitudeMeters>118.1999969482421875</AltitudeMeters>
            <DistanceMeters>1155.3311619981</DistanceMeters>
          </Trackpoint>
          <Trackpoint>
            <Time>2020-02-15T08:02:25.000Z</Time>
            <Position>
              <LatitudeDegrees>41.99088678695261478424072265625</LatitudeDegrees>
              <LongitudeDegrees>2.82901947386562824249267578125</LongitudeDegrees>
            </Position>
            <AltitudeMeters>117.8000030517578125</AltitudeMeters>
            <DistanceMeters>1165.3030826657</DistanceMeters>
          </Trackpoint>
          <Trackpoint>
            <Time>2020-02-15T08:02:26.000Z</Time>
            <Position>
              <LatitudeDegrees>41.99095115996897220611572265625</LatitudeDegrees>
              <LongitudeDegrees>2.82892744056880474090576171875</LongitudeDegrees>
            </Position>
            <AltitudeMeters>117.40000152587890625</AltitudeMeters>
            <DistanceMeters>1175.7577488621</DistanceMeters>
          </Trackpoint>
          <Trackpoint>
            <Time>2020-02-15T08:02:27.000Z</Time>
            <Position>
              <LatitudeDegrees>41.99100195430219173431396484375</LatitudeDegrees>
              <LongitudeDegrees>2.8288250975310802459716796875</LongitudeDegrees>
            </Position>
            <AltitudeMeters>117</AltitudeMeters>
            <DistanceMeters>1185.9384766074</DistanceMeters>
          </Trackpoint>
          <Trackpoint>
            <Time>2020-02-15T08:02:28.000Z</Time>
            <Position>
              <LatitudeDegrees>41.9910375773906707763671875</LatitudeDegrees>
              <LongitudeDegrees>2.82871521078050136566162109375</LongitudeDegrees>
            </Position>
            <AltitudeMeters>116.8000030517578125</AltitudeMeters>
            <DistanceMeters>1195.8559154213</DistanceMeters>
          </Trackpoint>
          <Trackpoint>
            <Time>2020-02-15T08:02:29.000Z</Time>
            <Position>
              <LatitudeDegrees>41.99105777777731418609619140625</LatitudeDegrees>
              <LongitudeDegrees>2.82859861850738525390625</LongitudeDegrees>
            </Position>
            <AltitudeMeters>116.40000152587890625</AltitudeMeters>
            <DistanceMeters>1205.759686942</DistanceMeters>
          </Trackpoint>
          <Trackpoint>
            <Time>2020-02-15T08:02:30.000Z</Time>
            <Position>
              <LatitudeDegrees>41.99106699787080287933349609375</LatitudeDegrees>
              <LongitudeDegrees>2.82847565598785877227783203125</LongitudeDegrees>
            </Position>
            <AltitudeMeters>116.1999969482421875</AltitudeMeters>
            <DistanceMeters>1215.9833425914</DistanceMeters>
          </Trackpoint>
          <Trackpoint>
            <Time>2020-02-15T08:02:31.000Z</Time>
            <Position>
              <LatitudeDegrees>41.991065405309200286865234375</LatitudeDegrees>
              <LongitudeDegrees>2.82835386693477630615234375</LongitudeDegrees>
            </Position>
            <AltitudeMeters>116</AltitudeMeters>
            <DistanceMeters>1226.0602076601</DistanceMeters>
          </Trackpoint>
          <Trackpoint>
            <Time>2020-02-15T08:02:32.000Z</Time>
            <Position>
              <LatitudeDegrees>41.99105434119701385498046875</LatitudeDegrees>
              <LongitudeDegrees>2.8282336704432964324951171875</LongitudeDegrees>
            </Position>
            <AltitudeMeters>115.8000030517578125</AltitudeMeters>
            <DistanceMeters>1236.0800075535</DistanceMeters>
          </Trackpoint>
          <Trackpoint>
            <Time>2020-02-15T08:02:33.000Z</Time>
            <Position>
              <LatitudeDegrees>41.9910216517746448516845703125</LatitudeDegrees>
              <LongitudeDegrees>2.82812185585498809814453125</LongitudeDegrees>
            </Position>
            <AltitudeMeters>115.40000152587890625</AltitudeMeters>
            <DistanceMeters>1246.0197291982</DistanceMeters>
          </Trackpoint>
          <Trackpoint>
            <Time>2020-02-15T08:02:34.000Z</Time>
            <Position>
              <LatitudeDegrees>41.9909727014601230621337890625</LatitudeDegrees>
              <LongitudeDegrees>2.828020267188549041748046875</LongitudeDegrees>
            </Position>
            <AltitudeMeters>115.1999969482421875</AltitudeMeters>
            <DistanceMeters>1256.0350219617</DistanceMeters>
          </Trackpoint>
          <Trackpoint>
            <Time>2020-02-15T08:02:35.000Z</Time>
            <Position>
              <LatitudeDegrees>41.9909140281379222869873046875</LatitudeDegrees>
              <LongitudeDegrees>2.8279272280633449554443359375</LongitudeDegrees>
            </Position>
            <AltitudeMeters>114.8000030517578125</AltitudeMeters>
            <DistanceMeters>1266.1284516286</DistanceMeters>
          </Trackpoint>
          <Trackpoint>
            <Time>2020-02-15T08:02:36.000Z</Time>
            <Position>
              <LatitudeDegrees>41.99084487743675708770751953125</LatitudeDegrees>
              <LongitudeDegrees>2.82784634269773960113525390625</LongitudeDegrees>
            </Position>
            <AltitudeMeters>114.40000152587890625</AltitudeMeters>
            <DistanceMeters>1276.3269034955</DistanceMeters>
          </Trackpoint>
          <Trackpoint>
            <Time>2020-02-15T08:02:37.000Z</Time>
            <Position>
              <LatitudeDegrees>41.9907527603209018707275390625</LatitudeDegrees>
              <LongitudeDegrees>2.82779739238321781158447265625</LongitudeDegrees>
            </Position>
            <AltitudeMeters>113.8000030517578125</AltitudeMeters>
            <DistanceMeters>1287.3508215278</DistanceMeters>
          </Trackpoint>
          <Trackpoint>
            <Time>2020-02-15T08:02:38.000Z</Time>
            <Position>
              <LatitudeDegrees>41.99065125547349452972412109375</LatitudeDegrees>
              <LongitudeDegrees>2.8277639485895633697509765625</LongitudeDegrees>
            </Position>
            <AltitudeMeters>113.1999969482421875</AltitudeMeters>
            <DistanceMeters>1298.9821845298</DistanceMeters>
          </Trackpoint>
          <Trackpoint>
            <Time>2020-02-15T08:02:39.000Z</Time>
            <Position>
              <LatitudeDegrees>41.9905385188758373260498046875</LatitudeDegrees>
              <LongitudeDegrees>2.827747352421283721923828125</LongitudeDegrees>
            </Position>
            <AltitudeMeters>112.8000030517578125</AltitudeMeters>
            <DistanceMeters>1311.6046513559</DistanceMeters>
          </Trackpoint>
          <Trackpoint>
            <Time>2020-02-15T08:02:40.000Z</Time>
            <Position>
              <LatitudeDegrees>41.99042259715497493743896484375</LatitudeDegrees>
              <LongitudeDegrees>2.827735282480716705322265625</LongitudeDegrees>
            </Position>
            <AltitudeMeters>112</AltitudeMeters>
            <DistanceMeters>1324.5457408668</DistanceMeters>
          </Trackpoint>
          <Trackpoint>
            <Time>2020-02-15T08:02:41.000Z</Time>
            <Position>
              <LatitudeDegrees>41.99031136929988861083984375</LatitudeDegrees>
              <LongitudeDegrees>2.82772514037787914276123046875</LongitudeDegrees>
            </Position>
            <AltitudeMeters>112</AltitudeMeters>
            <DistanceMeters>1336.9542795981</DistanceMeters>
          </Trackpoint>
          <Trackpoint>
            <Time>2020-02-15T08:02:42.000Z</Time>
            <Position>
              <LatitudeDegrees>41.99020014144480228424072265625</LatitudeDegrees>
              <LongitudeDegrees>2.82771642319858074188232421875</LongitudeDegrees>
            </Position>
            <AltitudeMeters>111.1999969482421875</AltitudeMeters>
            <DistanceMeters>1349.3548107063</DistanceMeters>
          </Trackpoint>
          <Trackpoint>
            <Time>2020-02-15T08:02:43.000Z</Time>
            <Position>
              <LatitudeDegrees>41.99008899740874767303466796875</LatitudeDegrees>
              <LongitudeDegrees>2.8277109749615192413330078125</LongitudeDegrees>
            </Position>
            <AltitudeMeters>110.40000152587890625</AltitudeMeters>
            <DistanceMeters>1361.7334765139</DistanceMeters>
          </Trackpoint>
          <Trackpoint>
            <Time>2020-02-15T08:02:44.000Z</Time>
            <Position>
              <LatitudeDegrees>41.98998942039906978607177734375</LatitudeDegrees>
              <LongitudeDegrees>2.82770686782896518707275390625</LongitudeDegrees>
            </Position>
            <AltitudeMeters>109</AltitudeMeters>
            <DistanceMeters>1372.8219173809</DistanceMeters>
          </Trackpoint>
          <Trackpoint>
            <Time>2020-02-15T08:02:45.000Z</Time>
            <Position>
              <LatitudeDegrees>41.9899014942348003387451171875</LatitudeDegrees>
              <LongitudeDegrees>2.82770720310509204864501953125</LongitudeDegrees>
            </Position>
            <AltitudeMeters>108</AltitudeMeters>
            <DistanceMeters>1382.608284979</DistanceMeters>
          </Trackpoint>
          <Trackpoint>
            <Time>2020-02-15T08:02:46.000Z</Time>
            <Position>
              <LatitudeDegrees>41.989826224744319915771484375</LatitudeDegrees>
              <LongitudeDegrees>2.8276895172894001007080078125</LongitudeDegrees>
            </Position>
            <AltitudeMeters>106.59999847412109375</AltitudeMeters>
            <DistanceMeters>1391.1125122949</DistanceMeters>
          </Trackpoint>
          <Trackpoint>
            <Time>2020-02-15T08:02:47.000Z</Time>
            <Position>
              <LatitudeDegrees>41.9897579960525035858154296875</LatitudeDegrees>
              <LongitudeDegrees>2.82766177318990230560302734375</LongitudeDegrees>
            </Position>
            <AltitudeMeters>105.40000152587890625</AltitudeMeters>
            <DistanceMeters>1399.0459625414</DistanceMeters>
          </Trackpoint>
          <Trackpoint>
            <Time>2020-02-15T08:02:48.000Z</Time>
            <Position>
              <LatitudeDegrees>41.98971633799374103546142578125</LatitudeDegrees>
              <LongitudeDegrees>2.8276040218770503997802734375</LongitudeDegrees>
            </Position>
            <AltitudeMeters>103.8000030517578125</AltitudeMeters>
            <DistanceMeters>1405.7032604307</DistanceMeters>
          </Trackpoint>
          <Trackpoint>
            <Time>2020-02-15T08:02:49.000Z</Time>
            <Position>
              <LatitudeDegrees>41.98970208875834941864013671875</LatitudeDegrees>
              <LongitudeDegrees>2.82752280123531818389892578125</LongitudeDegrees>
            </Position>
            <AltitudeMeters>102.40000152587890625</AltitudeMeters>
            <DistanceMeters>1412.6082444006</DistanceMeters>
          </Trackpoint>
          <Trackpoint>
            <Time>2020-02-15T08:02:50.000Z</Time>
            <Position>
              <LatitudeDegrees>41.98971818201243877410888671875</LatitudeDegrees>
              <LongitudeDegrees>2.827436886727809906005859375</LongitudeDegrees>
            </Position>
            <AltitudeMeters>101.1999969482421875</AltitudeMeters>
            <DistanceMeters>1419.9382481415</DistanceMeters>
          </Trackpoint>
          <Trackpoint>
            <Time>2020-02-15T08:02:51.000Z</Time>
            <Position>
              <LatitudeDegrees>41.989762522280216217041015625</LatitudeDegrees>
              <LongitudeDegrees>2.8273522295057773590087890625</LongitudeDegrees>
            </Position>
            <AltitudeMeters>100</AltitudeMeters>
            <DistanceMeters>1428.506475583</DistanceMeters>
          </Trackpoint>
          <Trackpoint>
            <Time>2020-02-15T08:02:52.000Z</Time>
            <Position>
              <LatitudeDegrees>41.98982463218271732330322265625</LatitudeDegrees>
              <LongitudeDegrees>2.82727897167205810546875</LongitudeDegrees>
            </Position>
            <AltitudeMeters>98.8000030517578125</AltitudeMeters>
            <DistanceMeters>1437.7000339537</DistanceMeters>
          </Trackpoint>
          <Trackpoint>
            <Time>2020-02-15T08:02:53.000Z</Time>
            <Position>
              <LatitudeDegrees>41.9898981414735317230224609375</LatitudeDegrees>
              <LongitudeDegrees>2.82721250317990779876708984375</LongitudeDegrees>
            </Position>
            <AltitudeMeters>97.1999969482421875</AltitudeMeters>
            <DistanceMeters>1447.5576529671</DistanceMeters>
          </Trackpoint>
          <Trackpoint>
            <Time>2020-02-15T08:02:54.000Z</Time>
            <Position>
              <LatitudeDegrees>41.98997869156301021575927734375</LatitudeDegrees>
              <LongitudeDegrees>2.827146537601947784423828125</LongitudeDegrees>
            </Position>
            <AltitudeMeters>96</AltitudeMeters>
            <DistanceMeters>1458.0528362653</DistanceMeters>
          </Trackpoint>
          <Trackpoint>
            <Time>2020-02-15T08:02:55.000Z</Time>
            <Position>
              <LatitudeDegrees>41.99006435461342334747314453125</LatitudeDegrees>
              <LongitudeDegrees>2.82707923091948032379150390625</LongitudeDegrees>
            </Position>
            <AltitudeMeters>94.59999847412109375</AltitudeMeters>
            <DistanceMeters>1469.0939427313</DistanceMeters>
          </Trackpoint>
          <Trackpoint>
            <Time>2020-02-15T08:02:57.000Z</Time>
            <Position>
              <LatitudeDegrees>41.99023953638970851898193359375</LatitudeDegrees>
              <LongitudeDegrees>2.82694998197257518768310546875</LongitudeDegrees>
            </Position>
            <AltitudeMeters>91.40000152587890625</AltitudeMeters>
            <DistanceMeters>1491.3314121517</DistanceMeters>
          </Trackpoint>
          <Trackpoint>
            <Time>2020-02-15T08:02:58.000Z</Time>
            <Position>
              <LatitudeDegrees>41.9903293065726757049560546875</LatitudeDegrees>
              <LongitudeDegrees>2.82691243104636669158935546875</LongitudeDegrees>
            </Position>
            <AltitudeMeters>90.1999969482421875</AltitudeMeters>
            <DistanceMeters>1501.7947121477</DistanceMeters>
          </Trackpoint>
          <Trackpoint>
            <Time>2020-02-15T08:02:59.000Z</Time>
            <Position>
              <LatitudeDegrees>41.99042209424078464508056640625</LatitudeDegrees>
              <LongitudeDegrees>2.82689382322132587432861328125</LongitudeDegrees>
            </Position>
            <AltitudeMeters>89.1999969482421875</AltitudeMeters>
            <DistanceMeters>1512.2359818458</DistanceMeters>
          </Trackpoint>
          <Trackpoint>
            <Time>2020-02-15T08:03:00.000Z</Time>
            <Position>
              <LatitudeDegrees>41.99050960130989551544189453125</LatitudeDegrees>
              <LongitudeDegrees>2.82689516432583332061767578125</LongitudeDegrees>
            </Position>
            <AltitudeMeters>88.1999969482421875</AltitudeMeters>
            <DistanceMeters>1521.9761041818</DistanceMeters>
          </Trackpoint>
          <Trackpoint>
            <Time>2020-02-15T08:03:01.000Z</Time>
            <Position>
              <LatitudeDegrees>41.99058763682842254638671875</LatitudeDegrees>
              <LongitudeDegrees>2.82691159285604953765869140625</LongitudeDegrees>
            </Position>
            <AltitudeMeters>87.1999969482421875</AltitudeMeters>
            <DistanceMeters>1530.7669741164</DistanceMeters>
          </Trackpoint>
          <Trackpoint>
            <Time>2020-02-15T08:03:02.000Z</Time>
            <Position>
              <LatitudeDegrees>41.99065276421606540679931640625</LatitudeDegrees>
              <LongitudeDegrees>2.82692366279661655426025390625</LongitudeDegrees>
            </Position>
            <AltitudeMeters>87.1999969482421875</AltitudeMeters>
            <DistanceMeters>1538.0846481535</DistanceMeters>
          </Trackpoint>
          <Trackpoint>
            <Time>2020-02-15T08:03:03.000Z</Time>
            <Position>
              <LatitudeDegrees>41.99069224298000335693359375</LatitudeDegrees>
              <LongitudeDegrees>2.82689231447875499725341796875</LongitudeDegrees>
            </Position>
            <AltitudeMeters>86.40000152587890625</AltitudeMeters>
            <DistanceMeters>1543.1878569934</DistanceMeters>
          </Trackpoint>
          <Trackpoint>
            <Time>2020-02-15T08:03:04.000Z</Time>
            <Position>
              <LatitudeDegrees>41.99071998707950115203857421875</LatitudeDegrees>
              <LongitudeDegrees>2.8268560208380222320556640625</LongitudeDegrees>
            </Position>
            <AltitudeMeters>85.59999847412109375</AltitudeMeters>
            <DistanceMeters>1547.494570011</DistanceMeters>
          </Trackpoint>
          <Trackpoint>
            <Time>2020-02-15T08:03:05.000Z</Time>
            <Position>
              <LatitudeDegrees>41.9907318055629730224609375</LatitudeDegrees>
              <LongitudeDegrees>2.8268238343298435211181640625</LongitudeDegrees>
            </Position>
            <AltitudeMeters>84.40000152587890625</AltitudeMeters>
            <DistanceMeters>1550.4648199476</DistanceMeters>
          </Trackpoint>
          <Trackpoint>
            <Time>2020-02-15T08:03:06.000Z</Time>
            <Position>
              <LatitudeDegrees>41.99063482694327831268310546875</LatitudeDegrees>
              <LongitudeDegrees>2.82681000418961048126220703125</LongitudeDegrees>
            </Position>
            <AltitudeMeters>83.40000152587890625</AltitudeMeters>
            <DistanceMeters>1561.319516509</DistanceMeters>
          </Trackpoint>
          <Trackpoint>
            <Time>2020-02-15T08:03:07.000Z</Time>
            <Position>
              <LatitudeDegrees>41.9905931688845157623291015625</LatitudeDegrees>
              <LongitudeDegrees>2.8267799131572246551513671875</LongitudeDegrees>
            </Position>
            <AltitudeMeters>82.40000152587890625</AltitudeMeters>
            <DistanceMeters>1566.5830015266</DistanceMeters>
          </Trackpoint>
          <Trackpoint>
            <Time>2020-02-15T08:03:08.000Z</Time>
            <Position>
              <LatitudeDegrees>41.99053994379937648773193359375</LatitudeDegrees>
              <LongitudeDegrees>2.8267626464366912841796875</LongitudeDegrees>
            </Position>
            <AltitudeMeters>81.40000152587890625</AltitudeMeters>
            <DistanceMeters>1572.6765780082</DistanceMeters>
          </Trackpoint>
          <Trackpoint>
            <Time>2020-02-15T08:03:09.000Z</Time>
            <Position>
              <LatitudeDegrees>41.990466602146625518798828125</LatitudeDegrees>
              <LongitudeDegrees>2.82676558010280132293701171875</LongitudeDegrees>
            </Position>
            <AltitudeMeters>80.40000152587890625</AltitudeMeters>
            <DistanceMeters>1580.8433487663</DistanceMeters>
          </Trackpoint>
          <Trackpoint>
            <Time>2020-02-15T08:03:10.000Z</Time>
            <Position>
              <LatitudeDegrees>41.990376412868499755859375</LatitudeDegrees>
              <LongitudeDegrees>2.82677681185305118560791015625</LongitudeDegrees>
            </Position>
            <AltitudeMeters>79.59999847412109375</AltitudeMeters>
            <DistanceMeters>1590.9242455667</DistanceMeters>
          </Trackpoint>
          <Trackpoint>
            <Time>2020-02-15T08:03:11.000Z</Time>
            <Position>
              <LatitudeDegrees>41.99030307121574878692626953125</LatitudeDegrees>
              <LongitudeDegrees>2.82677848823368549346923828125</LongitudeDegrees>
            </Position>
            <AltitudeMeters>78.8000030517578125</AltitudeMeters>
            <DistanceMeters>1599.0876985222</DistanceMeters>
          </Trackpoint>
          <Trackpoint>
            <Time>2020-02-15T08:03:12.000Z</Time>
            <Position>
              <LatitudeDegrees>41.99023718945682048797607421875</LatitudeDegrees>
              <LongitudeDegrees>2.82674412243068218231201171875</LongitudeDegrees>
            </Position>
            <AltitudeMeters>78.1999969482421875</AltitudeMeters>
            <DistanceMeters>1606.9519844761</DistanceMeters>
          </Trackpoint>
          <Trackpoint>
            <Time>2020-02-15T08:03:13.000Z</Time>
            <Position>
              <LatitudeDegrees>41.99019201099872589111328125</LatitudeDegrees>
              <LongitudeDegrees>2.82668360508978366851806640625</LongitudeDegrees>
            </Position>
            <AltitudeMeters>77.59999847412109375</AltitudeMeters>
            <DistanceMeters>1614.0478780951</DistanceMeters>
          </Trackpoint>
          <Trackpoint>
            <Time>2020-02-15T08:03:14.000Z</Time>
            <Position>
              <LatitudeDegrees>41.9901894964277744293212890625</LatitudeDegrees>
              <LongitudeDegrees>2.82660330645740032196044921875</LongitudeDegrees>
            </Position>
            <AltitudeMeters>77</AltitudeMeters>
            <DistanceMeters>1620.6970324977</DistanceMeters>
          </Trackpoint>
          <Trackpoint>
            <Time>2020-02-15T08:03:15.000Z</Time>
            <Position>
              <LatitudeDegrees>41.99022109620273113250732421875</LatitudeDegrees>
              <LongitudeDegrees>2.82653088681399822235107421875</LongitudeDegrees>
            </Position>
            <AltitudeMeters>76.8000030517578125</AltitudeMeters>
            <DistanceMeters>1627.6443887281</DistanceMeters>
          </Trackpoint>
          <Trackpoint>
            <Time>2020-02-15T08:03:16.000Z</Time>
            <Position>
              <LatitudeDegrees>41.99027121998369693756103515625</LatitudeDegrees>
              <LongitudeDegrees>2.82648126594722270965576171875</LongitudeDegrees>
            </Position>
            <AltitudeMeters>76</AltitudeMeters>
            <DistanceMeters>1634.5709171621</DistanceMeters>
          </Trackpoint>
          <Trackpoint>
            <Time>2020-02-15T08:03:17.000Z</Time>
            <Position>
              <LatitudeDegrees>41.9903413765132427215576171875</LatitudeDegrees>
              <LongitudeDegrees>2.82644019462168216705322265625</LongitudeDegrees>
            </Position>
            <AltitudeMeters>75.40000152587890625</AltitudeMeters>
            <DistanceMeters>1643.0862864345</DistanceMeters>
          </Trackpoint>
          <Trackpoint>
            <Time>2020-02-15T08:03:18.000Z</Time>
            <Position>
              <LatitudeDegrees>41.99041136540472507476806640625</LatitudeDegrees>
              <LongitudeDegrees>2.82639962621033191680908203125</LongitudeDegrees>
            </Position>
            <AltitudeMeters>74.8000030517578125</AltitudeMeters>
            <DistanceMeters>1651.5687182264</DistanceMeters>
          </Trackpoint>
          <Trackpoint>
            <Time>2020-02-15T08:03:19.000Z</Time>
            <Position>
              <LatitudeDegrees>41.9904796779155731201171875</LatitudeDegrees>
              <LongitudeDegrees>2.82635486684739589691162109375</LongitudeDegrees>
            </Position>
            <AltitudeMeters>74</AltitudeMeters>
            <DistanceMeters>1660.0260958054</DistanceMeters>
          </Trackpoint>
          <Trackpoint>
            <Time>2020-02-15T08:03:20.000Z</Time>
            <Position>
              <LatitudeDegrees>41.99053960852324962615966796875</LatitudeDegrees>
              <LongitudeDegrees>2.8263081796467304229736328125</LongitudeDegrees>
            </Position>
            <AltitudeMeters>72.8000030517578125</AltitudeMeters>
            <DistanceMeters>1667.7343967207</DistanceMeters>
          </Trackpoint>
          <Trackpoint>
            <Time>2020-02-15T08:03:21.000Z</Time>
            <Position>
              <LatitudeDegrees>41.990585625171661376953125</LatitudeDegrees>
              <LongitudeDegrees>2.82625797204673290252685546875</LongitudeDegrees>
            </Position>
            <AltitudeMeters>72</AltitudeMeters>
            <DistanceMeters>1674.3290042264</DistanceMeters>
          </Trackpoint>
          <Trackpoint>
            <Time>2020-02-15T08:03:22.000Z</Time>
            <Position>
              <LatitudeDegrees>41.9905945099890232086181640625</LatitudeDegrees>
              <LongitudeDegrees>2.826211787760257720947265625</LongitudeDegrees>
            </Position>
            <AltitudeMeters>70.8000030517578125</AltitudeMeters>
            <DistanceMeters>1678.2757600924</DistanceMeters>
          </Trackpoint>
          <Trackpoint>
            <Time>2020-02-15T08:03:23.000Z</Time>
            <Position>
              <LatitudeDegrees>41.99058830738067626953125</LatitudeDegrees>
              <LongitudeDegrees>2.826162837445735931396484375</LongitudeDegrees>
            </Position>
            <AltitudeMeters>69.8000030517578125</AltitudeMeters>
            <DistanceMeters>1682.3828494264</DistanceMeters>
          </Trackpoint>
          <Trackpoint>
            <Time>2020-02-15T08:03:24.000Z</Time>
            <Position>
              <LatitudeDegrees>41.99057179503142833709716796875</LatitudeDegrees>
              <LongitudeDegrees>2.82611900009214878082275390625</LongitudeDegrees>
            </Position>
            <AltitudeMeters>69.8000030517578125</AltitudeMeters>
            <DistanceMeters>1686.4479496579</DistanceMeters>
          </Trackpoint>
          <Trackpoint>
            <Time>2020-02-15T08:03:25.000Z</Time>
            <Position>
              <LatitudeDegrees>41.99053357355296611785888671875</LatitudeDegrees>
              <LongitudeDegrees>2.8260932676494121551513671875</LongitudeDegrees>
            </Position>
            <AltitudeMeters>68.40000152587890625</AltitudeMeters>
            <DistanceMeters>1691.2049835624</DistanceMeters>
          </Trackpoint>
          <Trackpoint>
            <Time>2020-02-15T08:03:26.000Z</Time>
            <Position>
              <LatitudeDegrees>41.99048931710422039031982421875</LatitudeDegrees>
              <LongitudeDegrees>2.8260751627385616302490234375</LongitudeDegrees>
            </Position>
            <AltitudeMeters>67.1999969482421875</AltitudeMeters>
            <DistanceMeters>1696.3548704074</DistanceMeters>
          </Trackpoint>
          <Trackpoint>
            <Time>2020-02-15T08:03:27.000Z</Time>
            <Position>
              <LatitudeDegrees>41.99044791050255298614501953125</LatitudeDegrees>
              <LongitudeDegrees>2.82604926265776157379150390625</LongitudeDegrees>
            </Position>
            <AltitudeMeters>65.8000030517578125</AltitudeMeters>
            <DistanceMeters>1701.436801008</DistanceMeters>
          </Trackpoint>
          <Trackpoint>
            <Time>2020-02-15T08:03:29.000Z</Time>
            <Position>
              <LatitudeDegrees>41.99036233127117156982421875</LatitudeDegrees>
              <LongitudeDegrees>2.82598740421235561370849609375</LongitudeDegrees>
            </Position>
            <AltitudeMeters>63.200000762939453125</AltitudeMeters>
            <DistanceMeters>1712.2494047518</DistanceMeters>
          </Trackpoint>
          <Trackpoint>
            <Time>2020-02-15T08:03:30.000Z</Time>
            <Position>
              <LatitudeDegrees>41.99031698517501354217529296875</LatitudeDegrees>
              <LongitudeDegrees>2.825955636799335479736328125</LongitudeDegrees>
            </Position>
            <AltitudeMeters>62.59999847412109375</AltitudeMeters>
            <DistanceMeters>1717.9399103645</DistanceMeters>
          </Trackpoint>
          <Trackpoint>
            <Time>2020-02-15T08:03:32.000Z</Time>
            <Position>
              <LatitudeDegrees>41.99023333378136157989501953125</LatitudeDegrees>
              <LongitudeDegrees>2.825901992619037628173828125</LongitudeDegrees>
            </Position>
            <AltitudeMeters>61.59999847412109375</AltitudeMeters>
            <DistanceMeters>1728.2537021265</DistanceMeters>
          </Trackpoint>
          <Trackpoint>
            <Time>2020-02-15T08:03:34.000Z</Time>
            <Position>
              <LatitudeDegrees>41.9901459105312824249267578125</LatitudeDegrees>
              <LongitudeDegrees>2.82584642060101032257080078125</LongitudeDegrees>
            </Position>
            <AltitudeMeters>61.200000762939453125</AltitudeMeters>
            <DistanceMeters>1739.0156610778</DistanceMeters>
          </Trackpoint>
          <Trackpoint>
            <Time>2020-02-15T08:03:35.000Z</Time>
            <Position>
              <LatitudeDegrees>41.990105174481868743896484375</LatitudeDegrees>
              <LongitudeDegrees>2.82580132596194744110107421875</LongitudeDegrees>
            </Position>
            <AltitudeMeters>61.200000762939453125</AltitudeMeters>
            <DistanceMeters>1744.8865896063</DistanceMeters>
          </Trackpoint>
          <Trackpoint>
            <Time>2020-02-15T08:03:36.000Z</Time>
            <Position>
              <LatitudeDegrees>41.99007139541208744049072265625</LatitudeDegrees>
              <LongitudeDegrees>2.82575136981904506683349609375</LongitudeDegrees>
            </Position>
            <AltitudeMeters>61</AltitudeMeters>
            <DistanceMeters>1750.4738048578</DistanceMeters>
          </Trackpoint>
          <Trackpoint>
            <Time>2020-02-15T08:03:37.000Z</Time>
            <Position>
              <LatitudeDegrees>41.9900446571409702301025390625</LatitudeDegrees>
              <LongitudeDegrees>2.825704514980316162109375</LongitudeDegrees>
            </Position>
            <AltitudeMeters>61</AltitudeMeters>
            <DistanceMeters>1755.360987297</DistanceMeters>
          </Trackpoint>
          <Trackpoint>
            <Time>2020-02-15T08:03:38.000Z</Time>
            <Position>
              <LatitudeDegrees>41.99001498520374298095703125</LatitudeDegrees>
              <LongitudeDegrees>2.82566361129283905029296875</LongitudeDegrees>
            </Position>
            <AltitudeMeters>60.799999237060546875</AltitudeMeters>
            <DistanceMeters>1760.0894616044</DistanceMeters>
          </Trackpoint>
          <Trackpoint>
            <Time>2020-02-15T08:03:39.000Z</Time>
            <Position>
              <LatitudeDegrees>41.9899809546768665313720703125</LatitudeDegrees>
              <LongitudeDegrees>2.8256320953369140625</LongitudeDegrees>
            </Position>
            <AltitudeMeters>60.799999237060546875</AltitudeMeters>
            <DistanceMeters>1764.6882048057</DistanceMeters>
          </Trackpoint>
          <Trackpoint>
            <Time>2020-02-15T08:03:40.000Z</Time>
            <Position>
              <LatitudeDegrees>41.98995999991893768310546875</LatitudeDegrees>
              <LongitudeDegrees>2.82558758743107318878173828125</LongitudeDegrees>
            </Position>
            <AltitudeMeters>60.799999237060546875</AltitudeMeters>
            <DistanceMeters>1769.0470212549</DistanceMeters>
          </Trackpoint>
          <Trackpoint>
            <Time>2020-02-15T08:03:41.000Z</Time>
            <Position>
              <LatitudeDegrees>41.98994985781610012054443359375</LatitudeDegrees>
              <LongitudeDegrees>2.82553142867982387542724609375</LongitudeDegrees>
            </Position>
            <AltitudeMeters>60.59999847412109375</AltitudeMeters>
            <DistanceMeters>1773.826779973</DistanceMeters>
          </Trackpoint>
          <Trackpoint>
            <Time>2020-02-15T08:03:42.000Z</Time>
            <Position>
              <LatitudeDegrees>41.989935524761676788330078125</LatitudeDegrees>
              <LongitudeDegrees>2.825470156967639923095703125</LongitudeDegrees>
            </Position>
            <AltitudeMeters>60.59999847412109375</AltitudeMeters>
            <DistanceMeters>1779.139784675</DistanceMeters>
          </Trackpoint>
          <Trackpoint>
            <Time>2020-02-15T08:03:43.000Z</Time>
            <Position>
              <LatitudeDegrees>41.989924125373363494873046875</LatitudeDegrees>
              <LongitudeDegrees>2.825408466160297393798828125</LongitudeDegrees>
            </Position>
            <AltitudeMeters>60.59999847412109375</AltitudeMeters>
            <DistanceMeters>1784.398978924</DistanceMeters>
          </Trackpoint>
          <Trackpoint>
            <Time>2020-02-15T08:03:44.000Z</Time>
            <Position>
              <LatitudeDegrees>41.9899108819663524627685546875</LatitudeDegrees>
              <LongitudeDegrees>2.8253464400768280029296875</LongitudeDegrees>
            </Position>
            <AltitudeMeters>60.59999847412109375</AltitudeMeters>
            <DistanceMeters>1789.7391082679</DistanceMeters>
          </Trackpoint>
          <Trackpoint>
            <Time>2020-02-15T08:03:46.000Z</Time>
            <Position>
              <LatitudeDegrees>41.9898703135550022125244140625</LatitudeDegrees>
              <LongitudeDegrees>2.825224064290523529052734375</LongitudeDegrees>
            </Position>
            <AltitudeMeters>60.59999847412109375</AltitudeMeters>
            <DistanceMeters>1800.8242911825</DistanceMeters>
          </Trackpoint>
          <Trackpoint>
            <Time>2020-02-15T08:03:47.000Z</Time>
            <Position>
              <LatitudeDegrees>41.98983795940876007080078125</LatitudeDegrees>
              <LongitudeDegrees>2.825158350169658660888671875</LongitudeDegrees>
            </Position>
            <AltitudeMeters>60.59999847412109375</AltitudeMeters>
            <DistanceMeters>1807.3452289965</DistanceMeters>
          </Trackpoint>
          <Trackpoint>
            <Time>2020-02-15T08:03:48.000Z</Time>
            <Position>
              <LatitudeDegrees>41.98980786837637424468994140625</LatitudeDegrees>
              <LongitudeDegrees>2.825098000466823577880859375</LongitudeDegrees>
            </Position>
            <AltitudeMeters>60.59999847412109375</AltitudeMeters>
            <DistanceMeters>1813.3567484325</DistanceMeters>
          </Trackpoint>
          <Trackpoint>
            <Time>2020-02-15T08:03:50.000Z</Time>
            <Position>
              <LatitudeDegrees>41.989746429026126861572265625</LatitudeDegrees>
              <LongitudeDegrees>2.82497964799404144287109375</LongitudeDegrees>
            </Position>
            <AltitudeMeters>60.59999847412109375</AltitudeMeters>
            <DistanceMeters>1825.2999091326</DistanceMeters>
          </Trackpoint>
          <Trackpoint>
            <Time>2020-02-15T08:03:52.000Z</Time>
            <Position>
              <LatitudeDegrees>41.9896869175136089324951171875</LatitudeDegrees>
              <LongitudeDegrees>2.82486003823578357696533203125</LongitudeDegrees>
            </Position>
            <AltitudeMeters>61</AltitudeMeters>
            <DistanceMeters>1837.2078598546</DistanceMeters>
          </Trackpoint>
          <Trackpoint>
            <Time>2020-02-15T08:03:53.000Z</Time>
            <Position>
              <LatitudeDegrees>41.9896616041660308837890625</LatitudeDegrees>
              <LongitudeDegrees>2.82480019144713878631591796875</LongitudeDegrees>
            </Position>
            <AltitudeMeters>61</AltitudeMeters>
            <DistanceMeters>1842.9047093998</DistanceMeters>
          </Trackpoint>
          <Trackpoint>
            <Time>2020-02-15T08:03:54.000Z</Time>
            <Position>
              <LatitudeDegrees>41.989634446799755096435546875</LatitudeDegrees>
              <LongitudeDegrees>2.82474361360073089599609375</LongitudeDegrees>
            </Position>
            <AltitudeMeters>61</AltitudeMeters>
            <DistanceMeters>1848.4765495639</DistanceMeters>
          </Trackpoint>
          <Trackpoint>
            <Time>2020-02-15T08:03:55.000Z</Time>
            <Position>
              <LatitudeDegrees>41.98960284702479839324951171875</LatitudeDegrees>
              <LongitudeDegrees>2.82469189725816249847412109375</LongitudeDegrees>
            </Position>
            <AltitudeMeters>61.200000762939453125</AltitudeMeters>
            <DistanceMeters>1854.0150664845</DistanceMeters>
          </Trackpoint>
          <Trackpoint>
            <Time>2020-02-15T08:03:56.000Z</Time>
            <Position>
              <LatitudeDegrees>41.9895705766975879669189453125</LatitudeDegrees>
              <LongitudeDegrees>2.82464093528687953948974609375</LongitudeDegrees>
            </Position>
            <AltitudeMeters>61</AltitudeMeters>
            <DistanceMeters>1859.552768138</DistanceMeters>
          </Trackpoint>
          <Trackpoint>
            <Time>2020-02-15T08:03:57.000Z</Time>
            <Position>
              <LatitudeDegrees>41.98954467661678791046142578125</LatitudeDegrees>
              <LongitudeDegrees>2.8245845250785350799560546875</LongitudeDegrees>
            </Position>
            <AltitudeMeters>61</AltitudeMeters>
            <DistanceMeters>1865.0363941791</DistanceMeters>
          </Trackpoint>
          <Trackpoint>
            <Time>2020-02-15T08:03:58.000Z</Time>
            <Position>
              <LatitudeDegrees>41.98953059501945972442626953125</LatitudeDegrees>
              <LongitudeDegrees>2.8245295397937297821044921875</LongitudeDegrees>
            </Position>
            <AltitudeMeters>61.200000762939453125</AltitudeMeters>
            <DistanceMeters>1869.8472242453</DistanceMeters>
          </Trackpoint>
          <Trackpoint>
            <Time>2020-02-15T08:03:59.000Z</Time>
            <Position>
              <LatitudeDegrees>41.98952414095401763916015625</LatitudeDegrees>
              <LongitudeDegrees>2.82448436133563518524169921875</LongitudeDegrees>
            </Position>
            <AltitudeMeters>61</AltitudeMeters>
            <DistanceMeters>1873.6518546531</DistanceMeters>
          </Trackpoint>
          <Trackpoint>
            <Time>2020-02-15T08:04:00.000Z</Time>
            <Position>
              <LatitudeDegrees>41.989532522857189178466796875</LatitudeDegrees>
              <LongitudeDegrees>2.82444479875266551971435546875</LongitudeDegrees>
            </Position>
            <AltitudeMeters>61.200000762939453125</AltitudeMeters>
            <DistanceMeters>1877.0542887819</DistanceMeters>
          </Trackpoint>
          <Trackpoint>
            <Time>2020-02-15T08:04:01.000Z</Time>
            <Position>
              <LatitudeDegrees>41.98954920284450054168701171875</LatitudeDegrees>
              <LongitudeDegrees>2.82440892420709133148193359375</LongitudeDegrees>
            </Position>
            <AltitudeMeters>61</AltitudeMeters>
            <DistanceMeters>1880.5561231314</DistanceMeters>
          </Trackpoint>
          <Trackpoint>
            <Time>2020-02-15T08:04:03.000Z</Time>
            <Position>
              <LatitudeDegrees>41.98959027417004108428955078125</LatitudeDegrees>
              <LongitudeDegrees>2.82432124949991703033447265625</LongitudeDegrees>
            </Position>
            <AltitudeMeters>61</AltitudeMeters>
            <DistanceMeters>1889.129618466</DistanceMeters>
          </Trackpoint>
          <Trackpoint>
            <Time>2020-02-15T08:04:04.000Z</Time>
            <Position>
              <LatitudeDegrees>41.9896067865192890167236328125</LatitudeDegrees>
              <LongitudeDegrees>2.8242653422057628631591796875</LongitudeDegrees>
            </Position>
            <AltitudeMeters>61</AltitudeMeters>
            <DistanceMeters>1894.1065150579</DistanceMeters>
          </Trackpoint>
          <Trackpoint>
            <Time>2020-02-15T08:04:05.000Z</Time>
            <Position>
              <LatitudeDegrees>41.9896181859076023101806640625</LatitudeDegrees>
              <LongitudeDegrees>2.8242039866745471954345703125</LongitudeDegrees>
            </Position>
            <AltitudeMeters>60.799999237060546875</AltitudeMeters>
            <DistanceMeters>1899.3390280084</DistanceMeters>
          </Trackpoint>
          <Trackpoint>
            <Time>2020-02-15T08:04:06.000Z</Time>
            <Position>
              <LatitudeDegrees>41.9896240532398223876953125</LatitudeDegrees>
              <LongitudeDegrees>2.82413735054433345794677734375</LongitudeDegrees>
            </Position>
            <AltitudeMeters>60.799999237060546875</AltitudeMeters>
            <DistanceMeters>1904.8897595663</DistanceMeters>
          </Trackpoint>
          <Trackpoint>
            <Time>2020-02-15T08:04:07.000Z</Time>
            <Position>
              <LatitudeDegrees>41.9896225444972515106201171875</LatitudeDegrees>
              <LongitudeDegrees>2.8240697085857391357421875</LongitudeDegrees>
            </Position>
            <AltitudeMeters>60.799999237060546875</AltitudeMeters>
            <DistanceMeters>1910.4874702823</DistanceMeters>
          </Trackpoint>
          <Trackpoint>
            <Time>2020-02-15T08:04:08.000Z</Time>
            <Position>
              <LatitudeDegrees>41.989614665508270263671875</LatitudeDegrees>
              <LongitudeDegrees>2.82400039024651050567626953125</LongitudeDegrees>
            </Position>
            <AltitudeMeters>60.799999237060546875</AltitudeMeters>
            <DistanceMeters>1916.2879930889</DistanceMeters>
          </Trackpoint>
          <Trackpoint>
            <Time>2020-02-15T08:04:09.000Z</Time>
            <Position>
              <LatitudeDegrees>41.98959815315902233123779296875</LatitudeDegrees>
              <LongitudeDegrees>2.82392696477472782135009765625</LongitudeDegrees>
            </Position>
            <AltitudeMeters>60.799999237060546875</AltitudeMeters>
            <DistanceMeters>1922.6341841466</DistanceMeters>
          </Trackpoint>
          <Trackpoint>
            <Time>2020-02-15T08:04:12.000Z</Time>
            <Position>
              <LatitudeDegrees>41.98954819701611995697021484375</LatitudeDegrees>
              <LongitudeDegrees>2.82371121458709239959716796875</LongitudeDegrees>
            </Position>
            <AltitudeMeters>60.59999847412109375</AltitudeMeters>
            <DistanceMeters>1941.3286223177</DistanceMeters>
          </Trackpoint>
          <Trackpoint>
            <Time>2020-02-15T08:04:15.000Z</Time>
            <Position>
              <LatitudeDegrees>41.98953109793365001678466796875</LatitudeDegrees>
              <LongitudeDegrees>2.82349328510463237762451171875</LongitudeDegrees>
            </Position>
            <AltitudeMeters>60.40000152587890625</AltitudeMeters>
            <DistanceMeters>1959.4575677436</DistanceMeters>
          </Trackpoint>
          <Trackpoint>
            <Time>2020-02-15T08:04:16.000Z</Time>
            <Position>
              <LatitudeDegrees>41.989528834819793701171875</LatitudeDegrees>
              <LongitudeDegrees>2.82342396676540374755859375</LongitudeDegrees>
            </Position>
            <AltitudeMeters>60.59999847412109375</AltitudeMeters>
            <DistanceMeters>1965.1986285358</DistanceMeters>
          </Trackpoint>
          <Trackpoint>
            <Time>2020-02-15T08:04:17.000Z</Time>
            <Position>
              <LatitudeDegrees>41.98952615261077880859375</LatitudeDegrees>
              <LongitudeDegrees>2.8233589231967926025390625</LongitudeDegrees>
            </Position>
            <AltitudeMeters>60.59999847412109375</AltitudeMeters>
            <DistanceMeters>1970.587573316</DistanceMeters>
          </Trackpoint>
          <Trackpoint>
            <Time>2020-02-15T08:04:18.000Z</Time>
            <Position>
              <LatitudeDegrees>41.98952355422079563140869140625</LatitudeDegrees>
              <LongitudeDegrees>2.8232974000275135040283203125</LongitudeDegrees>
            </Position>
            <AltitudeMeters>60.59999847412109375</AltitudeMeters>
            <DistanceMeters>1975.6863565122</DistanceMeters>
          </Trackpoint>
          <Trackpoint>
            <Time>2020-02-15T08:04:19.000Z</Time>
            <Position>
              <LatitudeDegrees>41.98952171020209789276123046875</LatitudeDegrees>
              <LongitudeDegrees>2.82323663122951984405517578125</LongitudeDegrees>
            </Position>
            <AltitudeMeters>60.40000152587890625</AltitudeMeters>
            <DistanceMeters>1980.7182879852</DistanceMeters>
          </Trackpoint>
          <Trackpoint>
            <Time>2020-02-15T08:04:20.000Z</Time>
            <Position>
              <LatitudeDegrees>41.989521794021129608154296875</LatitudeDegrees>
              <LongitudeDegrees>2.82317644916474819183349609375</LongitudeDegrees>
            </Position>
            <AltitudeMeters>60.40000152587890625</AltitudeMeters>
            <DistanceMeters>1985.6979054319</DistanceMeters>
          </Trackpoint>
          <Trackpoint>
            <Time>2020-02-15T08:04:21.000Z</Time>
            <Position>
              <LatitudeDegrees>41.9895219616591930389404296875</LatitudeDegrees>
              <LongitudeDegrees>2.823116518557071685791015625</LongitudeDegrees>
            </Position>
            <AltitudeMeters>60.59999847412109375</AltitudeMeters>
            <DistanceMeters>1990.6557142302</DistanceMeters>
          </Trackpoint>
          <Trackpoint>
            <Time>2020-02-15T08:04:23.000Z</Time>
            <Position>
              <LatitudeDegrees>41.98951986618340015411376953125</LatitudeDegrees>
              <LongitudeDegrees>2.822993136942386627197265625</LongitudeDegrees>
            </Position>
            <AltitudeMeters>60.59999847412109375</AltitudeMeters>
            <DistanceMeters>2000.8647857999</DistanceMeters>
          </Trackpoint>
          <Trackpoint>
            <Time>2020-02-15T08:04:24.000Z</Time>
            <Position>
              <LatitudeDegrees>41.98951818980276584625244140625</LatitudeDegrees>
              <LongitudeDegrees>2.82293454743921756744384765625</LongitudeDegrees>
            </Position>
            <AltitudeMeters>60.40000152587890625</AltitudeMeters>
            <DistanceMeters>2005.714873339</DistanceMeters>
          </Trackpoint>
          <Trackpoint>
            <Time>2020-02-15T08:04:25.000Z</Time>
            <Position>
              <LatitudeDegrees>41.98951533995568752288818359375</LatitudeDegrees>
              <LongitudeDegrees>2.8228836692869663238525390625</LongitudeDegrees>
            </Position>
            <AltitudeMeters>60.799999237060546875</AltitudeMeters>
            <DistanceMeters>2009.9368836303</DistanceMeters>
          </Trackpoint>
          <Trackpoint>
            <Time>2020-02-15T08:04:26.000Z</Time>
            <Position>
              <LatitudeDegrees>41.98950796388089656829833984375</LatitudeDegrees>
              <LongitudeDegrees>2.82284670509397983551025390625</LongitudeDegrees>
            </Position>
            <AltitudeMeters>60.59999847412109375</AltitudeMeters>
            <DistanceMeters>2013.1028566013</DistanceMeters>
          </Trackpoint>
          <Trackpoint>
            <Time>2020-02-15T08:04:27.000Z</Time>
            <Position>
              <LatitudeDegrees>41.9894978217780590057373046875</LatitudeDegrees>
              <LongitudeDegrees>2.8228219784796237945556640625</LongitudeDegrees>
            </Position>
            <AltitudeMeters>60.59999847412109375</AltitudeMeters>
            <DistanceMeters>2015.4382722328</DistanceMeters>
          </Trackpoint>
          <Trackpoint>
            <Time>2020-02-15T08:04:28.000Z</Time>
            <Position>
              <LatitudeDegrees>41.98947678320109844207763671875</LatitudeDegrees>
              <LongitudeDegrees>2.82281921245157718658447265625</LongitudeDegrees>
            </Position>
            <AltitudeMeters>60.59999847412109375</AltitudeMeters>
            <DistanceMeters>2017.7891033165</DistanceMeters>
          </Trackpoint>
          <Trackpoint>
            <Time>2020-02-15T08:04:29.000Z</Time>
            <Position>
              <LatitudeDegrees>41.9894471950829029083251953125</LatitudeDegrees>
              <LongitudeDegrees>2.82282323576509952545166015625</LongitudeDegrees>
            </Position>
            <AltitudeMeters>60.59999847412109375</AltitudeMeters>
            <DistanceMeters>2021.0973434302</DistanceMeters>
          </Trackpoint>
          <Trackpoint>
            <Time>2020-02-15T08:04:30.000Z</Time>
            <Position>
              <LatitudeDegrees>41.98941140435636043548583984375</LatitudeDegrees>
              <LongitudeDegrees>2.82282658852636814117431640625</LongitudeDegrees>
            </Position>
            <AltitudeMeters>60.59999847412109375</AltitudeMeters>
            <DistanceMeters>2025.0907273336</DistanceMeters>
          </Trackpoint>
          <Trackpoint>
            <Time>2020-02-15T08:04:31.000Z</Time>
            <Position>
              <LatitudeDegrees>41.98937335051596164703369140625</LatitudeDegrees>
              <LongitudeDegrees>2.822824157774448394775390625</LongitudeDegrees>
            </Position>
            <AltitudeMeters>60.59999847412109375</AltitudeMeters>
            <DistanceMeters>2029.3298135705</DistanceMeters>
          </Trackpoint>
          <Trackpoint>
            <Time>2020-02-15T08:04:32.000Z</Time>
            <Position>
              <LatitudeDegrees>41.98933236300945281982421875</LatitudeDegrees>
              <LongitudeDegrees>2.82280647195875644683837890625</LongitudeDegrees>
            </Position>
            <AltitudeMeters>60.59999847412109375</AltitudeMeters>
            <DistanceMeters>2034.1199517985</DistanceMeters>
          </Trackpoint>
          <Trackpoint>
            <Time>2020-02-15T08:04:34.000Z</Time>
            <Position>
              <LatitudeDegrees>41.98925323784351348876953125</LatitudeDegrees>
              <LongitudeDegrees>2.822751738131046295166015625</LongitudeDegrees>
            </Position>
            <AltitudeMeters>60.59999847412109375</AltitudeMeters>
            <DistanceMeters>2044.0228114957</DistanceMeters>
          </Trackpoint>
          <Trackpoint>
            <Time>2020-02-15T08:04:36.000Z</Time>
            <Position>
              <LatitudeDegrees>41.9891726039350032806396484375</LatitudeDegrees>
              <LongitudeDegrees>2.82270303927361965179443359375</LongitudeDegrees>
            </Position>
            <AltitudeMeters>60.799999237060546875</AltitudeMeters>
            <DistanceMeters>2053.860256756</DistanceMeters>
          </Trackpoint>
          <Trackpoint>
            <Time>2020-02-15T08:04:37.000Z</Time>
            <Position>
              <LatitudeDegrees>41.98912574909627437591552734375</LatitudeDegrees>
              <LongitudeDegrees>2.8226972557604312896728515625</LongitudeDegrees>
            </Position>
            <AltitudeMeters>60.59999847412109375</AltitudeMeters>
            <DistanceMeters>2059.0962200947</DistanceMeters>
          </Trackpoint>
          <Trackpoint>
            <Time>2020-02-15T08:04:38.000Z</Time>
            <Position>
              <LatitudeDegrees>41.9890773855149745941162109375</LatitudeDegrees>
              <LongitudeDegrees>2.82270471565425395965576171875</LongitudeDegrees>
            </Position>
            <AltitudeMeters>60.59999847412109375</AltitudeMeters>
            <DistanceMeters>2064.5152429398</DistanceMeters>
          </Trackpoint>
          <Trackpoint>
            <Time>2020-02-15T08:04:40.000Z</Time>
            <Position>
              <LatitudeDegrees>41.98897856287658214569091796875</LatitudeDegrees>
              <LongitudeDegrees>2.82273137010633945465087890625</LongitudeDegrees>
            </Position>
            <AltitudeMeters>60.40000152587890625</AltitudeMeters>
            <DistanceMeters>2075.7340309971</DistanceMeters>
          </Trackpoint>
          <Trackpoint>
            <Time>2020-02-15T08:04:44.000Z</Time>
            <Position>
              <LatitudeDegrees>41.9887791574001312255859375</LatitudeDegrees>
              <LongitudeDegrees>2.82277244143187999725341796875</LongitudeDegrees>
            </Position>
            <AltitudeMeters>60.40000152587890625</AltitudeMeters>
            <DistanceMeters>2098.1868951288</DistanceMeters>
          </Trackpoint>
          <Trackpoint>
            <Time>2020-02-15T08:04:45.000Z</Time>
            <Position>
              <LatitudeDegrees>41.98872962035238742828369140625</LatitudeDegrees>
              <LongitudeDegrees>2.82278216443955898284912109375</LongitudeDegrees>
            </Position>
            <AltitudeMeters>60.200000762939453125</AltitudeMeters>
            <DistanceMeters>2103.7595455656</DistanceMeters>
          </Trackpoint>
          <Trackpoint>
            <Time>2020-02-15T08:04:46.000Z</Time>
            <Position>
              <LatitudeDegrees>41.98868067003786563873291015625</LatitudeDegrees>
              <LongitudeDegrees>2.82279339618980884552001953125</LongitudeDegrees>
            </Position>
            <AltitudeMeters>60.200000762939453125</AltitudeMeters>
            <DistanceMeters>2109.2874546356</DistanceMeters>
          </Trackpoint>
          <Trackpoint>
            <Time>2020-02-15T08:04:47.000Z</Time>
            <Position>
              <LatitudeDegrees>41.98863155208528041839599609375</LatitudeDegrees>
              <LongitudeDegrees>2.8228052146732807159423828125</LongitudeDegrees>
            </Position>
            <AltitudeMeters>60.200000762939453125</AltitudeMeters>
            <DistanceMeters>2114.8406258968</DistanceMeters>
          </Trackpoint>
          <Trackpoint>
            <Time>2020-02-15T08:04:48.000Z</Time>
            <Position>
              <LatitudeDegrees>41.98858293704688549041748046875</LatitudeDegrees>
              <LongitudeDegrees>2.82281653024256229400634765625</LongitudeDegrees>
            </Position>
            <AltitudeMeters>60.200000762939453125</AltitudeMeters>
            <DistanceMeters>2120.3316572431</DistanceMeters>
          </Trackpoint>
          <Trackpoint>
            <Time>2020-02-15T08:04:50.000Z</Time>
            <Position>
              <LatitudeDegrees>41.988485120236873626708984375</LatitudeDegrees>
              <LongitudeDegrees>2.82283614389598369598388671875</LongitudeDegrees>
            </Position>
            <AltitudeMeters>60</AltitudeMeters>
            <DistanceMeters>2131.3391803852</DistanceMeters>
          </Trackpoint>
          <Trackpoint>
            <Time>2020-02-15T08:04:51.000Z</Time>
            <Position>
              <LatitudeDegrees>41.9884373433887958526611328125</LatitudeDegrees>
              <LongitudeDegrees>2.82284838147461414337158203125</LongitudeDegrees>
            </Position>
            <AltitudeMeters>60.200000762939453125</AltitudeMeters>
            <DistanceMeters>2136.7515336612</DistanceMeters>
          </Trackpoint>
          <Trackpoint>
            <Time>2020-02-15T08:04:52.000Z</Time>
            <Position>
              <LatitudeDegrees>41.98838998563587665557861328125</LatitudeDegrees>
              <LongitudeDegrees>2.822861708700656890869140625</LongitudeDegrees>
            </Position>
            <AltitudeMeters>60.200000762939453125</AltitudeMeters>
            <DistanceMeters>2142.1371260649</DistanceMeters>
          </Trackpoint>
          <Trackpoint>
            <Time>2020-02-15T08:04:53.000Z</Time>
            <Position>
              <LatitudeDegrees>41.98834321461617946624755859375</LatitudeDegrees>
              <LongitudeDegrees>2.8228759579360485076904296875</LongitudeDegrees>
            </Position>
            <AltitudeMeters>60.200000762939453125</AltitudeMeters>
            <DistanceMeters>2147.4747183292</DistanceMeters>
          </Trackpoint>
          <Trackpoint>
            <Time>2020-02-15T08:04:54.000Z</Time>
            <Position>
              <LatitudeDegrees>41.98829594068229198455810546875</LatitudeDegrees>
              <LongitudeDegrees>2.82288861460983753204345703125</LongitudeDegrees>
            </Position>
            <AltitudeMeters>60.200000762939453125</AltitudeMeters>
            <DistanceMeters>2152.8401524872</DistanceMeters>
          </Trackpoint>
          <Trackpoint>
            <Time>2020-02-15T08:04:55.000Z</Time>
            <Position>
              <LatitudeDegrees>41.988248415291309356689453125</LatitudeDegrees>
              <LongitudeDegrees>2.82289691269397735595703125</LongitudeDegrees>
            </Position>
            <AltitudeMeters>60</AltitudeMeters>
            <DistanceMeters>2158.1735136036</DistanceMeters>
          </Trackpoint>
          <Trackpoint>
            <Time>2020-02-15T08:04:56.000Z</Time>
            <Position>
              <LatitudeDegrees>41.9882009737193584442138671875</LatitudeDegrees>
              <LongitudeDegrees>2.8229044564068317413330078125</LongitudeDegrees>
            </Position>
            <AltitudeMeters>60.200000762939453125</AltitudeMeters>
            <DistanceMeters>2163.490765652</DistanceMeters>
          </Trackpoint>
          <Trackpoint>
            <Time>2020-02-15T08:04:59.000Z</Time>
            <Position>
              <LatitudeDegrees>41.988059319555759429931640625</LatitudeDegrees>
              <LongitudeDegrees>2.82295013777911663055419921875</LongitudeDegrees>
            </Position>
            <AltitudeMeters>60.200000762939453125</AltitudeMeters>
            <DistanceMeters>2179.703893829</DistanceMeters>
          </Trackpoint>
          <Trackpoint>
            <Time>2020-02-15T08:05:00.000Z</Time>
            <Position>
              <LatitudeDegrees>41.98801548220217227935791015625</LatitudeDegrees>
              <LongitudeDegrees>2.82297612167894840240478515625</LongitudeDegrees>
            </Position>
            <AltitudeMeters>60.200000762939453125</AltitudeMeters>
            <DistanceMeters>2185.0355615461</DistanceMeters>
          </Trackpoint>
          <Trackpoint>
            <Time>2020-02-15T08:05:01.000Z</Time>
            <Position>
              <LatitudeDegrees>41.9879719801247119903564453125</LatitudeDegrees>
              <LongitudeDegrees>2.82300579361617565155029296875</LongitudeDegrees>
            </Position>
            <AltitudeMeters>60.200000762939453125</AltitudeMeters>
            <DistanceMeters>2190.4645733819</DistanceMeters>
          </Trackpoint>
          <Trackpoint>
            <Time>2020-02-15T08:05:03.000Z</Time>
            <Position>
              <LatitudeDegrees>41.98788053356111049652099609375</LatitudeDegrees>
              <LongitudeDegrees>2.82306455075740814208984375</LongitudeDegrees>
            </Position>
            <AltitudeMeters>60.200000762939453125</AltitudeMeters>
            <DistanceMeters>2201.744368464</DistanceMeters>
          </Trackpoint>
          <Trackpoint>
            <Time>2020-02-15T08:05:05.000Z</Time>
            <Position>
              <LatitudeDegrees>41.9877805374562740325927734375</LatitudeDegrees>
              <LongitudeDegrees>2.8231160156428813934326171875</LongitudeDegrees>
            </Position>
            <AltitudeMeters>60.200000762939453125</AltitudeMeters>
            <DistanceMeters>2213.6610367131</DistanceMeters>
          </Trackpoint>
          <Trackpoint>
            <Time>2020-02-15T08:05:06.000Z</Time>
            <Position>
              <LatitudeDegrees>41.98773619718849658966064453125</LatitudeDegrees>
              <LongitudeDegrees>2.82314258627593517303466796875</LongitudeDegrees>
            </Position>
            <AltitudeMeters>60.200000762939453125</AltitudeMeters>
            <DistanceMeters>2219.0625343749</DistanceMeters>
          </Trackpoint>
          <Trackpoint>
            <Time>2020-02-15T08:05:07.000Z</Time>
            <Position>
              <LatitudeDegrees>41.98769076727330684661865234375</LatitudeDegrees>
              <LongitudeDegrees>2.82316639088094234466552734375</LongitudeDegrees>
            </Position>
            <AltitudeMeters>60.200000762939453125</AltitudeMeters>
            <DistanceMeters>2224.4882185905</DistanceMeters>
          </Trackpoint>
          <Trackpoint>
            <Time>2020-02-15T08:05:08.000Z</Time>
            <Position>
              <LatitudeDegrees>41.9876419007778167724609375</LatitudeDegrees>
              <LongitudeDegrees>2.82318600453436374664306640625</LongitudeDegrees>
            </Position>
            <AltitudeMeters>60.200000762939453125</AltitudeMeters>
            <DistanceMeters>2230.1644244317</DistanceMeters>
          </Trackpoint>
          <Trackpoint>
            <Time>2020-02-15T08:05:09.000Z</Time>
            <Position>
              <LatitudeDegrees>41.98759655468165874481201171875</LatitudeDegrees>
              <LongitudeDegrees>2.82320125959813594818115234375</LongitudeDegrees>
            </Position>
            <AltitudeMeters>60.200000762939453125</AltitudeMeters>
            <DistanceMeters>2235.3666488696</DistanceMeters>
          </Trackpoint>
          <Trackpoint>
            <Time>2020-02-15T08:05:10.000Z</Time>
            <Position>
              <LatitudeDegrees>41.987554728984832763671875</LatitudeDegrees>
              <LongitudeDegrees>2.82321366481482982635498046875</LongitudeDegrees>
            </Position>
            <AltitudeMeters>60.40000152587890625</AltitudeMeters>
            <DistanceMeters>2240.1341117598</DistanceMeters>
          </Trackpoint>
          <Trackpoint>
            <Time>2020-02-15T08:05:11.000Z</Time>
            <Position>
              <LatitudeDegrees>41.98751474730670452117919921875</LatitudeDegrees>
              <LongitudeDegrees>2.82322322018444538116455078125</LongitudeDegrees>
            </Position>
            <AltitudeMeters>60.200000762939453125</AltitudeMeters>
            <DistanceMeters>2244.6536286495</DistanceMeters>
          </Trackpoint>
          <Trackpoint>
            <Time>2020-02-15T08:05:13.000Z</Time>
            <Position>
              <LatitudeDegrees>41.98742397129535675048828125</LatitudeDegrees>
              <LongitudeDegrees>2.82324233092367649078369140625</LongitudeDegrees>
            </Position>
            <AltitudeMeters>60.200000762939453125</AltitudeMeters>
            <DistanceMeters>2254.8803752179</DistanceMeters>
          </Trackpoint>
          <Trackpoint>
            <Time>2020-02-15T08:05:14.000Z</Time>
            <Position>
              <LatitudeDegrees>41.98738046921789646148681640625</LatitudeDegrees>
              <LongitudeDegrees>2.82325305975973606109619140625</LongitudeDegrees>
            </Position>
            <AltitudeMeters>60.200000762939453125</AltitudeMeters>
            <DistanceMeters>2259.8034560801</DistanceMeters>
          </Trackpoint>
          <Trackpoint>
            <Time>2020-02-15T08:05:15.000Z</Time>
            <Position>
              <LatitudeDegrees>41.98733034543693065643310546875</LatitudeDegrees>
              <LongitudeDegrees>2.82327636145055294036865234375</LongitudeDegrees>
            </Position>
            <AltitudeMeters>60.200000762939453125</AltitudeMeters>
            <DistanceMeters>2265.7058314427</DistanceMeters>
          </Trackpoint>
          <Trackpoint>
            <Time>2020-02-15T08:05:16.000Z</Time>
            <Position>
              <LatitudeDegrees>41.9872860051691532135009765625</LatitudeDegrees>
              <LongitudeDegrees>2.82328994013369083404541015625</LongitudeDegrees>
            </Position>
            <AltitudeMeters>60.200000762939453125</AltitudeMeters>
            <DistanceMeters>2270.7681784229</DistanceMeters>
          </Trackpoint>
          <Trackpoint>
            <Time>2020-02-15T08:05:17.000Z</Time>
            <Position>
              <LatitudeDegrees>41.987246610224246978759765625</LatitudeDegrees>
              <LongitudeDegrees>2.82331131398677825927734375</LongitudeDegrees>
            </Position>
            <AltitudeMeters>60.40000152587890625</AltitudeMeters>
            <DistanceMeters>2275.4956977723</DistanceMeters>
          </Trackpoint>
          <Trackpoint>
            <Time>2020-02-15T08:05:18.000Z</Time>
            <Position>
              <LatitudeDegrees>41.98720025829970836639404296875</LatitudeDegrees>
              <LongitudeDegrees>2.82332967035472393035888671875</LongitudeDegrees>
            </Position>
            <AltitudeMeters>60.40000152587890625</AltitudeMeters>
            <DistanceMeters>2280.8729000907</DistanceMeters>
          </Trackpoint>
          <Trackpoint>
            <Time>2020-02-15T08:05:19.000Z</Time>
            <Position>
              <LatitudeDegrees>41.9871472008526325225830078125</LatitudeDegrees>
              <LongitudeDegrees>2.82335313968360424041748046875</LongitudeDegrees>
            </Position>
            <AltitudeMeters>60.200000762939453125</AltitudeMeters>
            <DistanceMeters>2287.0897101393</DistanceMeters>
          </Trackpoint>
          <Trackpoint>
            <Time>2020-02-15T08:05:20.000Z</Time>
            <Position>
              <LatitudeDegrees>41.98709808290004730224609375</LatitudeDegrees>
              <LongitudeDegrees>2.82337694428861141204833984375</LongitudeDegrees>
            </Position>
            <AltitudeMeters>60.200000762939453125</AltitudeMeters>
            <DistanceMeters>2292.9003431361</DistanceMeters>
          </Trackpoint>
          <Trackpoint>
            <Time>2020-02-15T08:05:21.000Z</Time>
            <Position>
              <LatitudeDegrees>41.98704846203327178955078125</LatitudeDegrees>
              <LongitudeDegrees>2.82340158708393573760986328125</LongitudeDegrees>
            </Position>
            <AltitudeMeters>60.200000762939453125</AltitudeMeters>
            <DistanceMeters>2298.7873995646</DistanceMeters>
          </Trackpoint>
          <Trackpoint>
            <Time>2020-02-15T08:05:22.000Z</Time>
            <Position>
              <LatitudeDegrees>41.98700613342225551605224609375</LatitudeDegrees>
              <LongitudeDegrees>2.8234179317951202392578125</LongitudeDegrees>
            </Position>
            <AltitudeMeters>60.200000762939453125</AltitudeMeters>
            <DistanceMeters>2303.6884202074</DistanceMeters>
          </Trackpoint>
          <Trackpoint>
            <Time>2020-02-15T08:05:23.000Z</Time>
            <Position>
              <LatitudeDegrees>41.986960284411907196044921875</LatitudeDegrees>
              <LongitudeDegrees>2.8234388865530490875244140625</LongitudeDegrees>
            </Position>
            <AltitudeMeters>60.200000762939453125</AltitudeMeters>
            <DistanceMeters>2309.0782027559</DistanceMeters>
          </Trackpoint>
          <Trackpoint>
            <Time>2020-02-15T08:05:24.000Z</Time>
            <Position>
              <LatitudeDegrees>41.98691057972609996795654296875</LatitudeDegrees>
              <LongitudeDegrees>2.82346596010029315948486328125</LongitudeDegrees>
            </Position>
            <AltitudeMeters>60.200000762939453125</AltitudeMeters>
            <DistanceMeters>2315.047514412</DistanceMeters>
          </Trackpoint>
          <Trackpoint>
            <Time>2020-02-15T08:05:25.000Z</Time>
            <Position>
              <LatitudeDegrees>41.986862383782863616943359375</LatitudeDegrees>
              <LongitudeDegrees>2.82348792068660259246826171875</LongitudeDegrees>
            </Position>
            <AltitudeMeters>60.200000762939453125</AltitudeMeters>
            <DistanceMeters>2320.7117762002</DistanceMeters>
          </Trackpoint>
          <Trackpoint>
            <Time>2020-02-15T08:05:27.000Z</Time>
            <Position>
              <LatitudeDegrees>41.98676909320056438446044921875</LatitudeDegrees>
              <LongitudeDegrees>2.8235225379467010498046875</LongitudeDegrees>
            </Position>
            <AltitudeMeters>60.200000762939453125</AltitudeMeters>
            <DistanceMeters>2331.4829610074</DistanceMeters>
          </Trackpoint>
          <Trackpoint>
            <Time>2020-02-15T08:05:28.000Z</Time>
            <Position>
              <LatitudeDegrees>41.98672936297953128814697265625</LatitudeDegrees>
              <LongitudeDegrees>2.82353527843952178955078125</LongitudeDegrees>
            </Position>
            <AltitudeMeters>60</AltitudeMeters>
            <DistanceMeters>2336.0283779194</DistanceMeters>
          </Trackpoint>
          <Trackpoint>
            <Time>2020-02-15T08:05:29.000Z</Time>
            <Position>
              <LatitudeDegrees>41.98668896220624446868896484375</LatitudeDegrees>
              <LongitudeDegrees>2.82355011440813541412353515625</LongitudeDegrees>
            </Position>
            <AltitudeMeters>60.200000762939453125</AltitudeMeters>
            <DistanceMeters>2340.6895327038</DistanceMeters>
          </Trackpoint>
          <Trackpoint>
            <Time>2020-02-15T08:05:30.000Z</Time>
            <Position>
              <LatitudeDegrees>41.98664906434714794158935546875</LatitudeDegrees>
              <LongitudeDegrees>2.8235693089663982391357421875</LongitudeDegrees>
            </Position>
            <AltitudeMeters>60.200000762939453125</AltitudeMeters>
            <DistanceMeters>2345.4046199994</DistanceMeters>
          </Trackpoint>
          <Trackpoint>
            <Time>2020-02-15T08:05:31.000Z</Time>
            <Position>
              <LatitudeDegrees>41.98661134578287601470947265625</LatitudeDegrees>
              <LongitudeDegrees>2.8235773555934429168701171875</LongitudeDegrees>
            </Position>
            <AltitudeMeters>60.200000762939453125</AltitudeMeters>
            <DistanceMeters>2349.6543438596</DistanceMeters>
          </Trackpoint>
          <Trackpoint>
            <Time>2020-02-15T08:05:32.000Z</Time>
            <Position>
              <LatitudeDegrees>41.98657102882862091064453125</LatitudeDegrees>
              <LongitudeDegrees>2.82358900643885135650634765625</LongitudeDegrees>
            </Position>
            <AltitudeMeters>60.200000762939453125</AltitudeMeters>
            <DistanceMeters>2354.2452259557</DistanceMeters>
          </Trackpoint>
          <Trackpoint>
            <Time>2020-02-15T08:05:33.000Z</Time>
            <Position>
              <LatitudeDegrees>41.98652568273246288299560546875</LatitudeDegrees>
              <LongitudeDegrees>2.8236048482358455657958984375</LongitudeDegrees>
            </Position>
            <AltitudeMeters>60.200000762939453125</AltitudeMeters>
            <DistanceMeters>2359.4604527244</DistanceMeters>
          </Trackpoint>
          <Trackpoint>
            <Time>2020-02-15T08:05:34.000Z</Time>
            <Position>
              <LatitudeDegrees>41.986481510102748870849609375</LatitudeDegrees>
              <LongitudeDegrees>2.823622114956378936767578125</LongitudeDegrees>
            </Position>
            <AltitudeMeters>60.200000762939453125</AltitudeMeters>
            <DistanceMeters>2364.5804441225</DistanceMeters>
          </Trackpoint>
          <Trackpoint>
            <Time>2020-02-15T08:05:35.000Z</Time>
            <Position>
              <LatitudeDegrees>41.9864488206803798675537109375</LatitudeDegrees>
              <LongitudeDegrees>2.82362152822315692901611328125</LongitudeDegrees>
            </Position>
            <AltitudeMeters>60.200000762939453125</AltitudeMeters>
            <DistanceMeters>2368.2188630191</DistanceMeters>
          </Trackpoint>
          <Trackpoint>
            <Time>2020-02-15T08:05:36.000Z</Time>
            <Position>
              <LatitudeDegrees>41.9864214956760406494140625</LatitudeDegrees>
              <LongitudeDegrees>2.8236132301390171051025390625</LongitudeDegrees>
            </Position>
            <AltitudeMeters>60.200000762939453125</AltitudeMeters>
            <DistanceMeters>2371.3374191482</DistanceMeters>
          </Trackpoint>
          <Trackpoint>
            <Time>2020-02-15T08:05:37.000Z</Time>
            <Position>
              <LatitudeDegrees>41.98639408685266971588134765625</LatitudeDegrees>
              <LongitudeDegrees>2.82358749769628047943115234375</LongitudeDegrees>
            </Position>
            <AltitudeMeters>60.200000762939453125</AltitudeMeters>
            <DistanceMeters>2375.058051781</DistanceMeters>
          </Trackpoint>
          <Trackpoint>
            <Time>2020-02-15T08:05:38.000Z</Time>
            <Position>
              <LatitudeDegrees>41.98636055923998355865478515625</LatitudeDegrees>
              <LongitudeDegrees>2.82356000505387783050537109375</LongitudeDegrees>
            </Position>
            <AltitudeMeters>60.200000762939453125</AltitudeMeters>
            <DistanceMeters>2379.429280642</DistanceMeters>
          </Trackpoint>
          <Trackpoint>
            <Time>2020-02-15T08:05:39.000Z</Time>
            <Position>
              <LatitudeDegrees>41.986322589218616485595703125</LatitudeDegrees>
              <LongitudeDegrees>2.8235448338091373443603515625</LongitudeDegrees>
            </Position>
            <AltitudeMeters>60.40000152587890625</AltitudeMeters>
            <DistanceMeters>2383.8385611484</DistanceMeters>
          </Trackpoint>
          <Trackpoint>
            <Time>2020-02-15T08:05:40.000Z</Time>
            <Position>
              <LatitudeDegrees>41.98626366443932056427001953125</LatitudeDegrees>
              <LongitudeDegrees>2.8235572390258312225341796875</LongitudeDegrees>
            </Position>
            <AltitudeMeters>60.200000762939453125</AltitudeMeters>
            <DistanceMeters>2390.4768420288</DistanceMeters>
          </Trackpoint>
          <Trackpoint>
            <Time>2020-02-15T08:05:41.000Z</Time>
            <Position>
              <LatitudeDegrees>41.98621706105768680572509765625</LatitudeDegrees>
              <LongitudeDegrees>2.823545001447200775146484375</LongitudeDegrees>
            </Position>
            <AltitudeMeters>60.40000152587890625</AltitudeMeters>
            <DistanceMeters>2395.7608742358</DistanceMeters>
          </Trackpoint>
          <Trackpoint>
            <Time>2020-02-15T08:05:42.000Z</Time>
            <Position>
              <LatitudeDegrees>41.9861752353608608245849609375</LatitudeDegrees>
              <LongitudeDegrees>2.82352295704185962677001953125</LongitudeDegrees>
            </Position>
            <AltitudeMeters>60.40000152587890625</AltitudeMeters>
            <DistanceMeters>2400.7622052336</DistanceMeters>
          </Trackpoint>
          <Trackpoint>
            <Time>2020-02-15T08:05:43.000Z</Time>
            <Position>
              <LatitudeDegrees>41.986141540110111236572265625</LatitudeDegrees>
              <LongitudeDegrees>2.8234948776662349700927734375</LongitudeDegrees>
            </Position>
            <AltitudeMeters>60.59999847412109375</AltitudeMeters>
            <DistanceMeters>2405.1745566263</DistanceMeters>
          </Trackpoint>
          <Trackpoint>
            <Time>2020-02-15T08:05:44.000Z</Time>
            <Position>
              <LatitudeDegrees>41.98610675521194934844970703125</LatitudeDegrees>
              <LongitudeDegrees>2.8234740905463695526123046875</LongitudeDegrees>
            </Position>
            <AltitudeMeters>60.40000152587890625</AltitudeMeters>
            <DistanceMeters>2409.4115121336</DistanceMeters>
          </Trackpoint>
          <Trackpoint>
            <Time>2020-02-15T08:05:45.000Z</Time>
            <Position>
              <LatitudeDegrees>41.9860605709254741668701171875</LatitudeDegrees>
              <LongitudeDegrees>2.82346277497708797454833984375</LongitudeDegrees>
            </Position>
            <AltitudeMeters>60.59999847412109375</AltitudeMeters>
            <DistanceMeters>2414.6371174733</DistanceMeters>
          </Trackpoint>
          <Trackpoint>
            <Time>2020-02-15T08:05:46.000Z</Time>
            <Position>
              <LatitudeDegrees>41.98600717820227146148681640625</LatitudeDegrees>
              <LongitudeDegrees>2.82346243970096111297607421875</LongitudeDegrees>
            </Position>
            <AltitudeMeters>60.40000152587890625</AltitudeMeters>
            <DistanceMeters>2420.5798970395</DistanceMeters>
          </Trackpoint>
          <Trackpoint>
            <Time>2020-02-15T08:05:47.000Z</Time>
            <Position>
              <LatitudeDegrees>41.985953785479068756103515625</LatitudeDegrees>
              <LongitudeDegrees>2.82347082160413265228271484375</LongitudeDegrees>
            </Position>
            <AltitudeMeters>60.40000152587890625</AltitudeMeters>
            <DistanceMeters>2426.5628079551</DistanceMeters>
          </Trackpoint>
          <Trackpoint>
            <Time>2020-02-15T08:05:50.000Z</Time>
            <Position>
              <LatitudeDegrees>41.9858007319271564483642578125</LatitudeDegrees>
              <LongitudeDegrees>2.8235079534351825714111328125</LongitudeDegrees>
            </Position>
            <AltitudeMeters>60.59999847412109375</AltitudeMeters>
            <DistanceMeters>2443.8728049673</DistanceMeters>
          </Trackpoint>
          <Trackpoint>
            <Time>2020-02-15T08:05:51.000Z</Time>
            <Position>
              <LatitudeDegrees>41.98574666865170001983642578125</LatitudeDegrees>
              <LongitudeDegrees>2.82351625151932239532470703125</LongitudeDegrees>
            </Position>
            <AltitudeMeters>60.40000152587890625</AltitudeMeters>
            <DistanceMeters>2449.9292206165</DistanceMeters>
          </Trackpoint>
          <Trackpoint>
            <Time>2020-02-15T08:05:52.000Z</Time>
            <Position>
              <LatitudeDegrees>41.9856972992420196533203125</LatitudeDegrees>
              <LongitudeDegrees>2.823522202670574188232421875</LongitudeDegrees>
            </Position>
            <AltitudeMeters>60.59999847412109375</AltitudeMeters>
            <DistanceMeters>2455.4456830351</DistanceMeters>
          </Trackpoint>
          <Trackpoint>
            <Time>2020-02-15T08:05:53.000Z</Time>
            <Position>
              <LatitudeDegrees>41.9856508634984493255615234375</LatitudeDegrees>
              <LongitudeDegrees>2.823523543775081634521484375</LongitudeDegrees>
            </Position>
            <AltitudeMeters>60.59999847412109375</AltitudeMeters>
            <DistanceMeters>2460.6148218607</DistanceMeters>
          </Trackpoint>
          <Trackpoint>
            <Time>2020-02-15T08:05:54.000Z</Time>
            <Position>
              <LatitudeDegrees>41.985605098307132720947265625</LatitudeDegrees>
              <LongitudeDegrees>2.82351725734770298004150390625</LongitudeDegrees>
            </Position>
            <AltitudeMeters>60.59999847412109375</AltitudeMeters>
            <DistanceMeters>2465.7356950277</DistanceMeters>
          </Trackpoint>
          <Trackpoint>
            <Time>2020-02-15T08:05:55.000Z</Time>
            <Position>
              <LatitudeDegrees>41.98555975221097469329833984375</LatitudeDegrees>
              <LongitudeDegrees>2.82350636087357997894287109375</LongitudeDegrees>
            </Position>
            <AltitudeMeters>60.40000152587890625</AltitudeMeters>
            <DistanceMeters>2470.8627363313</DistanceMeters>
          </Trackpoint>
          <Trackpoint>
            <Time>2020-02-15T08:05:56.000Z</Time>
            <Position>
              <LatitudeDegrees>41.98551901616156101226806640625</LatitudeDegrees>
              <LongitudeDegrees>2.82350040972232818603515625</LongitudeDegrees>
            </Position>
            <AltitudeMeters>60.40000152587890625</AltitudeMeters>
            <DistanceMeters>2475.423028652</DistanceMeters>
          </Trackpoint>
          <Trackpoint>
            <Time>2020-02-15T08:05:57.000Z</Time>
            <Position>
              <LatitudeDegrees>41.98548138141632080078125</LatitudeDegrees>
              <LongitudeDegrees>2.82349630258977413177490234375</LongitudeDegrees>
            </Position>
            <AltitudeMeters>60.40000152587890625</AltitudeMeters>
            <DistanceMeters>2479.6257455738</DistanceMeters>
          </Trackpoint>
          <Trackpoint>
            <Time>2020-02-15T08:05:58.000Z</Time>
            <Position>
              <LatitudeDegrees>41.98543913662433624267578125</LatitudeDegrees>
              <LongitudeDegrees>2.82350309193134307861328125</LongitudeDegrees>
            </Position>
            <AltitudeMeters>60.40000152587890625</AltitudeMeters>
            <DistanceMeters>2484.361852613</DistanceMeters>
          </Trackpoint>
          <Trackpoint>
            <Time>2020-02-15T08:05:59.000Z</Time>
            <Position>
              <LatitudeDegrees>41.98539764620363712310791015625</LatitudeDegrees>
              <LongitudeDegrees>2.8235113061964511871337890625</LongitudeDegrees>
            </Position>
            <AltitudeMeters>60.40000152587890625</AltitudeMeters>
            <DistanceMeters>2489.0288156922</DistanceMeters>
          </Trackpoint>
          <Trackpoint>
            <Time>2020-02-15T08:06:00.000Z</Time>
            <Position>
              <LatitudeDegrees>41.9853571616113185882568359375</LatitudeDegrees>
              <LongitudeDegrees>2.823517508804798126220703125</LongitudeDegrees>
            </Position>
            <AltitudeMeters>60.40000152587890625</AltitudeMeters>
            <DistanceMeters>2493.5642885605</DistanceMeters>
          </Trackpoint>
          <Trackpoint>
            <Time>2020-02-15T08:06:01.000Z</Time>
            <Position>
              <LatitudeDegrees>41.9853110611438751220703125</LatitudeDegrees>
              <LongitudeDegrees>2.8235213644802570343017578125</LongitudeDegrees>
            </Position>
            <AltitudeMeters>60.40000152587890625</AltitudeMeters>
            <DistanceMeters>2498.7045223757</DistanceMeters>
          </Trackpoint>
          <Trackpoint>
            <Time>2020-02-15T08:06:03.000Z</Time>
            <Position>
              <LatitudeDegrees>41.98522648774087429046630859375</LatitudeDegrees>
              <LongitudeDegrees>2.82352178357541561126708984375</LongitudeDegrees>
            </Position>
            <AltitudeMeters>60.40000152587890625</AltitudeMeters>
            <DistanceMeters>2508.1174448798</DistanceMeters>
          </Trackpoint>
          <Trackpoint>
            <Time>2020-02-15T08:06:04.000Z</Time>
            <Position>
              <LatitudeDegrees>41.98518457822501659393310546875</LatitudeDegrees>
              <LongitudeDegrees>2.8235173411667346954345703125</LongitudeDegrees>
            </Position>
            <AltitudeMeters>60.40000152587890625</AltitudeMeters>
            <DistanceMeters>2512.7960029162</DistanceMeters>
          </Trackpoint>
          <Trackpoint>
            <Time>2020-02-15T08:06:05.000Z</Time>
            <Position>
              <LatitudeDegrees>41.98514048941433429718017578125</LatitudeDegrees>
              <LongitudeDegrees>2.82352052628993988037109375</LongitudeDegrees>
            </Position>
            <AltitudeMeters>60.40000152587890625</AltitudeMeters>
            <DistanceMeters>2517.709904056</DistanceMeters>
          </Trackpoint>
          <Trackpoint>
            <Time>2020-02-15T08:06:06.000Z</Time>
            <Position>
              <LatitudeDegrees>41.9850966520607471466064453125</LatitudeDegrees>
              <LongitudeDegrees>2.8235160000622272491455078125</LongitudeDegrees>
            </Position>
            <AltitudeMeters>60.200000762939453125</AltitudeMeters>
            <DistanceMeters>2522.6035491932</DistanceMeters>
          </Trackpoint>
          <Trackpoint>
            <Time>2020-02-15T08:06:07.000Z</Time>
            <Position>
              <LatitudeDegrees>41.98505021631717681884765625</LatitudeDegrees>
              <LongitudeDegrees>2.82351382076740264892578125</LongitudeDegrees>
            </Position>
            <AltitudeMeters>60.40000152587890625</AltitudeMeters>
            <DistanceMeters>2527.7753077362</DistanceMeters>
          </Trackpoint>
          <Trackpoint>
            <Time>2020-02-15T08:06:08.000Z</Time>
            <Position>
              <LatitudeDegrees>41.98499363847076892852783203125</LatitudeDegrees>
              <LongitudeDegrees>2.82351784408092498779296875</LongitudeDegrees>
            </Position>
            <AltitudeMeters>60.59999847412109375</AltitudeMeters>
            <DistanceMeters>2534.0815313811</DistanceMeters>
          </Trackpoint>
          <Trackpoint>
            <Time>2020-02-15T08:06:09.000Z</Time>
            <Position>
              <LatitudeDegrees>41.98495097458362579345703125</LatitudeDegrees>
              <LongitudeDegrees>2.82351591624319553375244140625</LongitudeDegrees>
            </Position>
            <AltitudeMeters>60.40000152587890625</AltitudeMeters>
            <DistanceMeters>2538.8328670996</DistanceMeters>
          </Trackpoint>
          <Trackpoint>
            <Time>2020-02-15T08:06:10.000Z</Time>
            <Position>
              <LatitudeDegrees>41.98490244336426258087158203125</LatitudeDegrees>
              <LongitudeDegrees>2.82350619323551654815673828125</LongitudeDegrees>
            </Position>
            <AltitudeMeters>60.59999847412109375</AltitudeMeters>
            <DistanceMeters>2544.294216978</DistanceMeters>
          </Trackpoint>
          <Trackpoint>
            <Time>2020-02-15T08:06:11.000Z</Time>
            <Position>
              <LatitudeDegrees>41.9848659820854663848876953125</LatitudeDegrees>
              <LongitudeDegrees>2.823502086102962493896484375</LongitudeDegrees>
            </Position>
            <AltitudeMeters>60.59999847412109375</AltitudeMeters>
            <DistanceMeters>2548.3659758548</DistanceMeters>
          </Trackpoint>
          <Trackpoint>
            <Time>2020-02-15T08:06:12.000Z</Time>
            <Position>
              <LatitudeDegrees>41.9848223961889743804931640625</LatitudeDegrees>
              <LongitudeDegrees>2.82346076332032680511474609375</LongitudeDegrees>
            </Position>
            <AltitudeMeters>60.799999237060546875</AltitudeMeters>
            <DistanceMeters>2554.3003922652</DistanceMeters>
          </Trackpoint>
          <Trackpoint>
            <Time>2020-02-15T08:06:13.000Z</Time>
            <Position>
              <LatitudeDegrees>41.98478400707244873046875</LatitudeDegrees>
              <LongitudeDegrees>2.82344114966690540313720703125</LongitudeDegrees>
            </Position>
            <AltitudeMeters>60.799999237060546875</AltitudeMeters>
            <DistanceMeters>2558.8715624536</DistanceMeters>
          </Trackpoint>
          <Trackpoint>
            <Time>2020-02-15T08:06:14.000Z</Time>
            <Position>
              <LatitudeDegrees>41.98474352248013019561767578125</LatitudeDegrees>
              <LongitudeDegrees>2.82342991791665554046630859375</LongitudeDegrees>
            </Position>
            <AltitudeMeters>60.59999847412109375</AltitudeMeters>
            <DistanceMeters>2563.4722688325</DistanceMeters>
          </Trackpoint>
          <Trackpoint>
            <Time>2020-02-15T08:06:16.000Z</Time>
            <Position>
              <LatitudeDegrees>41.9846644811332225799560546875</LatitudeDegrees>
              <LongitudeDegrees>2.823411561548709869384765625</LongitudeDegrees>
            </Position>
            <AltitudeMeters>60.59999847412109375</AltitudeMeters>
            <DistanceMeters>2572.3997239398</DistanceMeters>
          </Trackpoint>
          <Trackpoint>
            <Time>2020-02-15T08:06:17.000Z</Time>
            <Position>
              <LatitudeDegrees>41.984614692628383636474609375</LatitudeDegrees>
              <LongitudeDegrees>2.82340041361749172210693359375</LongitudeDegrees>
            </Position>
            <AltitudeMeters>60.799999237060546875</AltitudeMeters>
            <DistanceMeters>2578.0175631305</DistanceMeters>
          </Trackpoint>
          <Trackpoint>
            <Time>2020-02-15T08:06:20.000Z</Time>
            <Position>
              <LatitudeDegrees>41.9844602979719638824462890625</LatitudeDegrees>
              <LongitudeDegrees>2.823357246816158294677734375</LongitudeDegrees>
            </Position>
            <AltitudeMeters>60.799999237060546875</AltitudeMeters>
            <DistanceMeters>2595.5689741224</DistanceMeters>
          </Trackpoint>
          <Trackpoint>
            <Time>2020-02-15T08:06:21.000Z</Time>
            <Position>
              <LatitudeDegrees>41.9844043068587779998779296875</LatitudeDegrees>
              <LongitudeDegrees>2.823350541293621063232421875</LongitudeDegrees>
            </Position>
            <AltitudeMeters>60.59999847412109375</AltitudeMeters>
            <DistanceMeters>2601.8256011198</DistanceMeters>
          </Trackpoint>
          <Trackpoint>
            <Time>2020-02-15T08:06:22.000Z</Time>
            <Position>
              <LatitudeDegrees>41.9843508303165435791015625</LatitudeDegrees>
              <LongitudeDegrees>2.82333654351532459259033203125</LongitudeDegrees>
            </Position>
            <AltitudeMeters>60.59999847412109375</AltitudeMeters>
            <DistanceMeters>2607.889467154</DistanceMeters>
          </Trackpoint>
          <Trackpoint>
            <Time>2020-02-15T08:06:23.000Z</Time>
            <Position>
              <LatitudeDegrees>41.98429509066045284271240234375</LatitudeDegrees>
              <LongitudeDegrees>2.8233144991099834442138671875</LongitudeDegrees>
            </Position>
            <AltitudeMeters>60.799999237060546875</AltitudeMeters>
            <DistanceMeters>2614.3561729623</DistanceMeters>
          </Trackpoint>
          <Trackpoint>
            <Time>2020-02-15T08:06:27.000Z</Time>
            <Position>
              <LatitudeDegrees>41.9840200804173946380615234375</LatitudeDegrees>
              <LongitudeDegrees>2.823211066424846649169921875</LongitudeDegrees>
            </Position>
            <AltitudeMeters>60.59999847412109375</AltitudeMeters>
            <DistanceMeters>2646.1391641916</DistanceMeters>
          </Trackpoint>
          <Trackpoint>
            <Time>2020-02-15T08:06:28.000Z</Time>
            <Position>
              <LatitudeDegrees>41.98395813815295696258544921875</LatitudeDegrees>
              <LongitudeDegrees>2.8232098929584026336669921875</LongitudeDegrees>
            </Position>
            <AltitudeMeters>60.59999847412109375</AltitudeMeters>
            <DistanceMeters>2653.0343329696</DistanceMeters>
          </Trackpoint>
          <Trackpoint>
            <Time>2020-02-15T08:06:30.000Z</Time>
            <Position>
              <LatitudeDegrees>41.98383919894695281982421875</LatitudeDegrees>
              <LongitudeDegrees>2.82320000231266021728515625</LongitudeDegrees>
            </Position>
            <AltitudeMeters>60.40000152587890625</AltitudeMeters>
            <DistanceMeters>2666.2972847198</DistanceMeters>
          </Trackpoint>
          <Trackpoint>
            <Time>2020-02-15T08:06:31.000Z</Time>
            <Position>
              <LatitudeDegrees>41.98377893306314945220947265625</LatitudeDegrees>
              <LongitudeDegrees>2.8231904469430446624755859375</LongitudeDegrees>
            </Position>
            <AltitudeMeters>60.40000152587890625</AltitudeMeters>
            <DistanceMeters>2673.0515386531</DistanceMeters>
          </Trackpoint>
          <Trackpoint>
            <Time>2020-02-15T08:06:32.000Z</Time>
            <Position>
              <LatitudeDegrees>41.9837176613509654998779296875</LatitudeDegrees>
              <LongitudeDegrees>2.8231730125844478607177734375</LongitudeDegrees>
            </Position>
            <AltitudeMeters>60.200000762939453125</AltitudeMeters>
            <DistanceMeters>2680.0216040236</DistanceMeters>
          </Trackpoint>
          <Trackpoint>
            <Time>2020-02-15T08:06:33.000Z</Time>
            <Position>
              <LatitudeDegrees>41.98365555144846439361572265625</LatitudeDegrees>
              <LongitudeDegrees>2.8231589309871196746826171875</LongitudeDegrees>
            </Position>
            <AltitudeMeters>60.200000762939453125</AltitudeMeters>
            <DistanceMeters>2687.0317164341</DistanceMeters>
          </Trackpoint>
          <Trackpoint>
            <Time>2020-02-15T08:06:34.000Z</Time>
            <Position>
              <LatitudeDegrees>41.983595788478851318359375</LatitudeDegrees>
              <LongitudeDegrees>2.8231528960168361663818359375</LongitudeDegrees>
            </Position>
            <AltitudeMeters>60.200000762939453125</AltitudeMeters>
            <DistanceMeters>2693.7018878441</DistanceMeters>
          </Trackpoint>
          <Trackpoint>
            <Time>2020-02-15T08:06:35.000Z</Time>
            <Position>
              <LatitudeDegrees>41.98354524560272693634033203125</LatitudeDegrees>
              <LongitudeDegrees>2.82314208336174488067626953125</LongitudeDegrees>
            </Position>
            <AltitudeMeters>60</AltitudeMeters>
            <DistanceMeters>2699.3971520686</DistanceMeters>
          </Trackpoint>
          <Trackpoint>
            <Time>2020-02-15T08:06:37.000Z</Time>
            <Position>
              <LatitudeDegrees>41.98343091644346714019775390625</LatitudeDegrees>
              <LongitudeDegrees>2.823110483586788177490234375</LongitudeDegrees>
            </Position>
            <AltitudeMeters>60</AltitudeMeters>
            <DistanceMeters>2712.3880372833</DistanceMeters>
          </Trackpoint>
          <Trackpoint>
            <Time>2020-02-15T08:06:38.000Z</Time>
            <Position>
              <LatitudeDegrees>41.98337308131158351898193359375</LatitudeDegrees>
              <LongitudeDegrees>2.82309346832334995269775390625</LongitudeDegrees>
            </Position>
            <AltitudeMeters>60</AltitudeMeters>
            <DistanceMeters>2718.9771652637</DistanceMeters>
          </Trackpoint>
          <Trackpoint>
            <Time>2020-02-15T08:06:39.000Z</Time>
            <Position>
              <LatitudeDegrees>41.98331415653228759765625</LatitudeDegrees>
              <LongitudeDegrees>2.8230694122612476348876953125</LongitudeDegrees>
            </Position>
            <AltitudeMeters>59.799999237060546875</AltitudeMeters>
            <DistanceMeters>2725.8309567445</DistanceMeters>
          </Trackpoint>
          <Trackpoint>
            <Time>2020-02-15T08:06:40.000Z</Time>
            <Position>
              <LatitudeDegrees>41.98325405828654766082763671875</LatitudeDegrees>
              <LongitudeDegrees>2.82303730957210063934326171875</LongitudeDegrees>
            </Position>
            <AltitudeMeters>59.799999237060546875</AltitudeMeters>
            <DistanceMeters>2733.0279365612</DistanceMeters>
          </Trackpoint>
          <Trackpoint>
            <Time>2020-02-15T08:06:41.000Z</Time>
            <Position>
              <LatitudeDegrees>41.98320091702044010162353515625</LatitudeDegrees>
              <LongitudeDegrees>2.82300696708261966705322265625</LongitudeDegrees>
            </Position>
            <AltitudeMeters>59.799999237060546875</AltitudeMeters>
            <DistanceMeters>2739.4533166668</DistanceMeters>
          </Trackpoint>
          <Trackpoint>
            <Time>2020-02-15T08:06:42.000Z</Time>
            <Position>
              <LatitudeDegrees>41.98314760811626911163330078125</LatitudeDegrees>
              <LongitudeDegrees>2.82297679223120212554931640625</LongitudeDegrees>
            </Position>
            <AltitudeMeters>60</AltitudeMeters>
            <DistanceMeters>2745.8906313866</DistanceMeters>
          </Trackpoint>
          <Trackpoint>
            <Time>2020-02-15T08:06:43.000Z</Time>
            <Position>
              <LatitudeDegrees>41.98310083709657192230224609375</LatitudeDegrees>
              <LongitudeDegrees>2.82294829376041889190673828125</LongitudeDegrees>
            </Position>
            <AltitudeMeters>60</AltitudeMeters>
            <DistanceMeters>2751.6064704828</DistanceMeters>
          </Trackpoint>
          <Trackpoint>
            <Time>2020-02-15T08:06:44.000Z</Time>
            <Position>
              <LatitudeDegrees>41.9830405712127685546875</LatitudeDegrees>
              <LongitudeDegrees>2.82293152995407581329345703125</LongitudeDegrees>
            </Position>
            <AltitudeMeters>60</AltitudeMeters>
            <DistanceMeters>2758.4563082329</DistanceMeters>
          </Trackpoint>
          <Trackpoint>
            <Time>2020-02-15T08:06:45.000Z</Time>
            <Position>
              <LatitudeDegrees>41.98298919014632701873779296875</LatitudeDegrees>
              <LongitudeDegrees>2.8229104913771152496337890625</LongitudeDegrees>
            </Position>
            <AltitudeMeters>60</AltitudeMeters>
            <DistanceMeters>2764.433934224</DistanceMeters>
          </Trackpoint>
          <Trackpoint>
            <Time>2020-02-15T08:06:46.000Z</Time>
            <Position>
              <LatitudeDegrees>41.982936300337314605712890625</LatitudeDegrees>
              <LongitudeDegrees>2.82289565540850162506103515625</LongitudeDegrees>
            </Position>
            <AltitudeMeters>60</AltitudeMeters>
            <DistanceMeters>2770.447706431</DistanceMeters>
          </Trackpoint>
          <Trackpoint>
            <Time>2020-02-15T08:06:47.000Z</Time>
            <Position>
              <LatitudeDegrees>41.9828855060040950775146484375</LatitudeDegrees>
              <LongitudeDegrees>2.822881825268268585205078125</LongitudeDegrees>
            </Position>
            <AltitudeMeters>60</AltitudeMeters>
            <DistanceMeters>2776.2170098354</DistanceMeters>
          </Trackpoint>
          <Trackpoint>
            <Time>2020-02-15T08:06:48.000Z</Time>
            <Position>
              <LatitudeDegrees>41.98284384794533252716064453125</LatitudeDegrees>
              <LongitudeDegrees>2.82286749221384525299072265625</LongitudeDegrees>
            </Position>
            <AltitudeMeters>60.200000762939453125</AltitudeMeters>
            <DistanceMeters>2781.0033763005</DistanceMeters>
          </Trackpoint>
          <Trackpoint>
            <Time>2020-02-15T08:06:49.000Z</Time>
            <Position>
              <LatitudeDegrees>41.98279841803014278411865234375</LatitudeDegrees>
              <LongitudeDegrees>2.8228541649878025054931640625</LongitudeDegrees>
            </Position>
            <AltitudeMeters>60.40000152587890625</AltitudeMeters>
            <DistanceMeters>2786.1786257373</DistanceMeters>
          </Trackpoint>
          <Trackpoint>
            <Time>2020-02-15T08:06:50.000Z</Time>
            <Position>
              <LatitudeDegrees>41.982754580676555633544921875</LatitudeDegrees>
              <LongitudeDegrees>2.8228358924388885498046875</LongitudeDegrees>
            </Position>
            <AltitudeMeters>60.59999847412109375</AltitudeMeters>
            <DistanceMeters>2791.2871402888</DistanceMeters>
          </Trackpoint>
          <Trackpoint>
            <Time>2020-02-15T08:06:51.000Z</Time>
            <Position>
              <LatitudeDegrees>41.98271258734166622161865234375</LatitudeDegrees>
              <LongitudeDegrees>2.82281418330967426300048828125</LongitudeDegrees>
            </Position>
            <AltitudeMeters>60.799999237060546875</AltitudeMeters>
            <DistanceMeters>2796.2956882183</DistanceMeters>
          </Trackpoint>
          <Trackpoint>
            <Time>2020-02-15T08:06:52.000Z</Time>
            <Position>
              <LatitudeDegrees>41.98266548104584217071533203125</LatitudeDegrees>
              <LongitudeDegrees>2.82280093990266323089599609375</LongitudeDegrees>
            </Position>
            <AltitudeMeters>60.799999237060546875</AltitudeMeters>
            <DistanceMeters>2801.6518578256</DistanceMeters>
          </Trackpoint>
          <Trackpoint>
            <Time>2020-02-15T08:06:55.000Z</Time>
            <Position>
              <LatitudeDegrees>41.9825230725109577178955078125</LatitudeDegrees>
              <LongitudeDegrees>2.8227877803146839141845703125</LongitudeDegrees>
            </Position>
            <AltitudeMeters>61.200000762939453125</AltitudeMeters>
            <DistanceMeters>2817.5398015854</DistanceMeters>
          </Trackpoint>
          <Trackpoint>
            <Time>2020-02-15T08:06:56.000Z</Time>
            <Position>
              <LatitudeDegrees>41.98248459957540035247802734375</LatitudeDegrees>
              <LongitudeDegrees>2.82278685830533504486083984375</LongitudeDegrees>
            </Position>
            <AltitudeMeters>61.40000152587890625</AltitudeMeters>
            <DistanceMeters>2821.8233883225</DistanceMeters>
          </Trackpoint>
          <Trackpoint>
            <Time>2020-02-15T08:06:57.000Z</Time>
            <Position>
              <LatitudeDegrees>41.9824452884495258331298828125</LatitudeDegrees>
              <LongitudeDegrees>2.82279423438012599945068359375</LongitudeDegrees>
            </Position>
            <AltitudeMeters>61.40000152587890625</AltitudeMeters>
            <DistanceMeters>2826.2418750851</DistanceMeters>
          </Trackpoint>
          <Trackpoint>
            <Time>2020-02-15T08:06:58.000Z</Time>
            <Position>
              <LatitudeDegrees>41.98241762816905975341796875</LatitudeDegrees>
              <LongitudeDegrees>2.8227901272475719451904296875</LongitudeDegrees>
            </Position>
            <AltitudeMeters>61.40000152587890625</AltitudeMeters>
            <DistanceMeters>2829.3400957454</DistanceMeters>
          </Trackpoint>
          <Trackpoint>
            <Time>2020-02-15T08:06:59.000Z</Time>
            <Position>
              <LatitudeDegrees>41.9823953323066234588623046875</LatitudeDegrees>
              <LongitudeDegrees>2.82279708422720432281494140625</LongitudeDegrees>
            </Position>
            <AltitudeMeters>61.40000152587890625</AltitudeMeters>
            <DistanceMeters>2831.8863861622</DistanceMeters>
          </Trackpoint>
          <Trackpoint>
            <Time>2020-02-15T08:07:00.000Z</Time>
            <Position>
              <LatitudeDegrees>41.98237680830061435699462890625</LatitudeDegrees>
              <LongitudeDegrees>2.8228038735687732696533203125</LongitudeDegrees>
            </Position>
            <AltitudeMeters>61.59999847412109375</AltitudeMeters>
            <DistanceMeters>2834.0218459732</DistanceMeters>
          </Trackpoint>
          <Trackpoint>
            <Time>2020-02-15T08:07:01.000Z</Time>
            <Position>
              <LatitudeDegrees>41.98235333897173404693603515625</LatitudeDegrees>
              <LongitudeDegrees>2.82282390631735324859619140625</LongitudeDegrees>
            </Position>
            <AltitudeMeters>61.59999847412109375</AltitudeMeters>
            <DistanceMeters>2837.1156916433</DistanceMeters>
          </Trackpoint>
          <Trackpoint>
            <Time>2020-02-15T08:07:02.000Z</Time>
            <Position>
              <LatitudeDegrees>41.9823299534618854522705078125</LatitudeDegrees>
              <LongitudeDegrees>2.8228548355400562286376953125</LongitudeDegrees>
            </Position>
            <AltitudeMeters>61.40000152587890625</AltitudeMeters>
            <DistanceMeters>2840.7664987912</DistanceMeters>
          </Trackpoint>
          <Trackpoint>
            <Time>2020-02-15T08:07:03.000Z</Time>
            <Position>
              <LatitudeDegrees>41.98231142945587635040283203125</LatitudeDegrees>
              <LongitudeDegrees>2.82289423048496246337890625</LongitudeDegrees>
            </Position>
            <AltitudeMeters>61.40000152587890625</AltitudeMeters>
            <DistanceMeters>2844.6218205452</DistanceMeters>
          </Trackpoint>
          <Trackpoint>
            <Time>2020-02-15T08:07:04.000Z</Time>
            <Position>
              <LatitudeDegrees>41.98228754103183746337890625</LatitudeDegrees>
              <LongitudeDegrees>2.82293178141117095947265625</LongitudeDegrees>
            </Position>
            <AltitudeMeters>61.59999847412109375</AltitudeMeters>
            <DistanceMeters>2848.711282805</DistanceMeters>
          </Trackpoint>
          <Trackpoint>
            <Time>2020-02-15T08:07:05.000Z</Time>
            <Position>
              <LatitudeDegrees>41.982244290411472320556640625</LatitudeDegrees>
              <LongitudeDegrees>2.82296002842485904693603515625</LongitudeDegrees>
            </Position>
            <AltitudeMeters>61.40000152587890625</AltitudeMeters>
            <DistanceMeters>2854.0632359513</DistanceMeters>
          </Trackpoint>
          <Trackpoint>
            <Time>2020-02-15T08:07:06.000Z</Time>
            <Position>
              <LatitudeDegrees>41.98220062069594860076904296875</LatitudeDegrees>
              <LongitudeDegrees>2.82298115082085132598876953125</LongitudeDegrees>
            </Position>
            <AltitudeMeters>61.40000152587890625</AltitudeMeters>
            <DistanceMeters>2859.2280056282</DistanceMeters>
          </Trackpoint>
          <Trackpoint>
            <Time>2020-02-15T08:07:07.000Z</Time>
            <Position>
              <LatitudeDegrees>41.98215418495237827301025390625</LatitudeDegrees>
              <LongitudeDegrees>2.82300394959747791290283203125</LongitudeDegrees>
            </Position>
            <AltitudeMeters>61.40000152587890625</AltitudeMeters>
            <DistanceMeters>2864.7297159296</DistanceMeters>
          </Trackpoint>
          <Trackpoint>
            <Time>2020-02-15T08:07:08.000Z</Time>
            <Position>
              <LatitudeDegrees>41.9821069948375225067138671875</LatitudeDegrees>
              <LongitudeDegrees>2.8230278380215167999267578125</LongitudeDegrees>
            </Position>
            <AltitudeMeters>61.200000762939453125</AltitudeMeters>
            <DistanceMeters>2870.3419264242</DistanceMeters>
          </Trackpoint>
          <Trackpoint>
            <Time>2020-02-15T08:07:10.000Z</Time>
            <Position>
              <LatitudeDegrees>41.98202074505388736724853515625</LatitudeDegrees>
              <LongitudeDegrees>2.823062203824520111083984375</LongitudeDegrees>
            </Position>
            <AltitudeMeters>61.200000762939453125</AltitudeMeters>
            <DistanceMeters>2880.3540629897</DistanceMeters>
          </Trackpoint>
          <Trackpoint>
            <Time>2020-02-15T08:07:11.000Z</Time>
            <Position>
              <LatitudeDegrees>41.98197179473936557769775390625</LatitudeDegrees>
              <LongitudeDegrees>2.82307620160281658172607421875</LongitudeDegrees>
            </Position>
            <AltitudeMeters>61.200000762939453125</AltitudeMeters>
            <DistanceMeters>2885.9242822548</DistanceMeters>
          </Trackpoint>
          <Trackpoint>
            <Time>2020-02-15T08:07:12.000Z</Time>
            <Position>
              <LatitudeDegrees>41.98193055577576160430908203125</LatitudeDegrees>
              <LongitudeDegrees>2.82308776862919330596923828125</LongitudeDegrees>
            </Position>
            <AltitudeMeters>61.200000762939453125</AltitudeMeters>
            <DistanceMeters>2890.6134438153</DistanceMeters>
          </Trackpoint>
          <Trackpoint>
            <Time>2020-02-15T08:07:13.000Z</Time>
            <Position>
              <LatitudeDegrees>41.98188814334571361541748046875</LatitudeDegrees>
              <LongitudeDegrees>2.82309682108461856842041015625</LongitudeDegrees>
            </Position>
            <AltitudeMeters>61.200000762939453125</AltitudeMeters>
            <DistanceMeters>2895.3932025334</DistanceMeters>
          </Trackpoint>
          <Trackpoint>
            <Time>2020-02-15T08:07:14.000Z</Time>
            <Position>
              <LatitudeDegrees>41.98184573091566562652587890625</LatitudeDegrees>
              <LongitudeDegrees>2.82310352660715579986572265625</LongitudeDegrees>
            </Position>
            <AltitudeMeters>61.200000762939453125</AltitudeMeters>
            <DistanceMeters>2900.1464384063</DistanceMeters>
          </Trackpoint>
          <Trackpoint>
            <Time>2020-02-15T08:07:15.000Z</Time>
            <Position>
              <LatitudeDegrees>41.98179694823920726776123046875</LatitudeDegrees>
              <LongitudeDegrees>2.82311526127159595489501953125</LongitudeDegrees>
            </Position>
            <AltitudeMeters>61.40000152587890625</AltitudeMeters>
            <DistanceMeters>2905.6620822979</DistanceMeters>
          </Trackpoint>
          <Trackpoint>
            <Time>2020-02-15T08:07:17.000Z</Time>
            <Position>
              <LatitudeDegrees>41.98170684278011322021484375</LatitudeDegrees>
              <LongitudeDegrees>2.82314023934304714202880859375</LongitudeDegrees>
            </Position>
            <AltitudeMeters>61.40000152587890625</AltitudeMeters>
            <DistanceMeters>2915.9016241622</DistanceMeters>
          </Trackpoint>
          <Trackpoint>
            <Time>2020-02-15T08:07:18.000Z</Time>
            <Position>
              <LatitudeDegrees>41.9816651009023189544677734375</LatitudeDegrees>
              <LongitudeDegrees>2.82314795069396495819091796875</LongitudeDegrees>
            </Position>
            <AltitudeMeters>61.40000152587890625</AltitudeMeters>
            <DistanceMeters>2920.5907857228</DistanceMeters>
          </Trackpoint>
          <Trackpoint>
            <Time>2020-02-15T08:07:21.000Z</Time>
            <Position>
              <LatitudeDegrees>41.9815202616155147552490234375</LatitudeDegrees>
              <LongitudeDegrees>2.823161445558071136474609375</LongitudeDegrees>
            </Position>
            <AltitudeMeters>61.59999847412109375</AltitudeMeters>
            <DistanceMeters>2936.7503572086</DistanceMeters>
          </Trackpoint>
          <Trackpoint>
            <Time>2020-02-15T08:07:23.000Z</Time>
            <Position>
              <LatitudeDegrees>41.98140584863722324371337890625</LatitudeDegrees>
              <LongitudeDegrees>2.82316035591065883636474609375</LongitudeDegrees>
            </Position>
            <AltitudeMeters>61.799999237060546875</AltitudeMeters>
            <DistanceMeters>2949.4853551644</DistanceMeters>
          </Trackpoint>
          <Trackpoint>
            <Time>2020-02-15T08:07:26.000Z</Time>
            <Position>
              <LatitudeDegrees>41.98124776594340801239013671875</LatitudeDegrees>
              <LongitudeDegrees>2.82318516634404659271240234375</LongitudeDegrees>
            </Position>
            <AltitudeMeters>61.799999237060546875</AltitudeMeters>
            <DistanceMeters>2967.199364489</DistanceMeters>
          </Trackpoint>
          <Trackpoint>
            <Time>2020-02-15T08:07:27.000Z</Time>
            <Position>
              <LatitudeDegrees>41.98119797743856906890869140625</LatitudeDegrees>
              <LongitudeDegrees>2.82319874502718448638916015625</LongitudeDegrees>
            </Position>
            <AltitudeMeters>61.799999237060546875</AltitudeMeters>
            <DistanceMeters>2972.8532543545</DistanceMeters>
          </Trackpoint>
          <Trackpoint>
            <Time>2020-02-15T08:07:28.000Z</Time>
            <Position>
              <LatitudeDegrees>41.98115087114274501800537109375</LatitudeDegrees>
              <LongitudeDegrees>2.82321299426257610321044921875</LongitudeDegrees>
            </Position>
            <AltitudeMeters>61.799999237060546875</AltitudeMeters>
            <DistanceMeters>2978.2262567174</DistanceMeters>
          </Trackpoint>
          <Trackpoint>
            <Time>2020-02-15T08:07:29.000Z</Time>
            <Position>
              <LatitudeDegrees>41.98110359720885753631591796875</LatitudeDegrees>
              <LongitudeDegrees>2.8232212923467159271240234375</LongitudeDegrees>
            </Position>
            <AltitudeMeters>62</AltitudeMeters>
            <DistanceMeters>2983.5324585937</DistanceMeters>
          </Trackpoint>
          <Trackpoint>
            <Time>2020-02-15T08:07:30.000Z</Time>
            <Position>
              <LatitudeDegrees>41.981054730713367462158203125</LatitudeDegrees>
              <LongitudeDegrees>2.82322950661182403564453125</LongitudeDegrees>
            </Position>
            <AltitudeMeters>61.799999237060546875</AltitudeMeters>
            <DistanceMeters>2989.0136139764</DistanceMeters>
          </Trackpoint>
          <Trackpoint>
            <Time>2020-02-15T08:07:31.000Z</Time>
            <Position>
              <LatitudeDegrees>41.98100469075143337249755859375</LatitudeDegrees>
              <LongitudeDegrees>2.82324492931365966796875</LongitudeDegrees>
            </Position>
            <AltitudeMeters>62</AltitudeMeters>
            <DistanceMeters>2994.7278730203</DistanceMeters>
          </Trackpoint>
          <Trackpoint>
            <Time>2020-02-15T08:07:32.000Z</Time>
            <Position>
              <LatitudeDegrees>41.9809533096849918365478515625</LatitudeDegrees>
              <LongitudeDegrees>2.823264710605144500732421875</LongitudeDegrees>
            </Position>
            <AltitudeMeters>61.799999237060546875</AltitudeMeters>
            <DistanceMeters>3000.6767274969</DistanceMeters>
          </Trackpoint>
          <Trackpoint>
            <Time>2020-02-15T08:07:33.000Z</Time>
            <Position>
              <LatitudeDegrees>41.98090461082756519317626953125</LatitudeDegrees>
              <LongitudeDegrees>2.8232819773256778717041015625</LongitudeDegrees>
            </Position>
            <AltitudeMeters>62</AltitudeMeters>
            <DistanceMeters>3006.2824982758</DistanceMeters>
          </Trackpoint>
          <Trackpoint>
            <Time>2020-02-15T08:07:34.000Z</Time>
            <Position>
              <LatitudeDegrees>41.98085549287497997283935546875</LatitudeDegrees>
              <LongitudeDegrees>2.82329966314136981964111328125</LongitudeDegrees>
            </Position>
            <AltitudeMeters>61.799999237060546875</AltitudeMeters>
            <DistanceMeters>3011.9419753847</DistanceMeters>
          </Trackpoint>
          <Trackpoint>
            <Time>2020-02-15T08:07:36.000Z</Time>
            <Position>
              <LatitudeDegrees>41.9807528145611286163330078125</LatitudeDegrees>
              <LongitudeDegrees>2.82333805225789546966552734375</LongitudeDegrees>
            </Position>
            <AltitudeMeters>61.799999237060546875</AltitudeMeters>
            <DistanceMeters>3023.8031975392</DistanceMeters>
          </Trackpoint>
          <Trackpoint>
            <Time>2020-02-15T08:07:37.000Z</Time>
            <Position>
              <LatitudeDegrees>41.98069833219051361083984375</LatitudeDegrees>
              <LongitudeDegrees>2.8233557380735874176025390625</LongitudeDegrees>
            </Position>
            <AltitudeMeters>61.799999237060546875</AltitudeMeters>
            <DistanceMeters>3030.0417574269</DistanceMeters>
          </Trackpoint>
          <Trackpoint>
            <Time>2020-02-15T08:07:38.000Z</Time>
            <Position>
              <LatitudeDegrees>41.98064443655312061309814453125</LatitudeDegrees>
              <LongitudeDegrees>2.82337778247892856597900390625</LongitudeDegrees>
            </Position>
            <AltitudeMeters>61.799999237060546875</AltitudeMeters>
            <DistanceMeters>3036.3120806114</DistanceMeters>
          </Trackpoint>
          <Trackpoint>
            <Time>2020-02-15T08:07:41.000Z</Time>
            <Position>
              <LatitudeDegrees>41.98048383928835391998291015625</LatitudeDegrees>
              <LongitudeDegrees>2.823441065847873687744140625</LongitudeDegrees>
            </Position>
            <AltitudeMeters>61.799999237060546875</AltitudeMeters>
            <DistanceMeters>3054.938286263</DistanceMeters>
          </Trackpoint>
          <Trackpoint>
            <Time>2020-02-15T08:07:42.000Z</Time>
            <Position>
              <LatitudeDegrees>41.980433128774166107177734375</LatitudeDegrees>
              <LongitudeDegrees>2.82345749437808990478515625</LongitudeDegrees>
            </Position>
            <AltitudeMeters>61.799999237060546875</AltitudeMeters>
            <DistanceMeters>3060.7434774992</DistanceMeters>
          </Trackpoint>
          <Trackpoint>
            <Time>2020-02-15T08:07:43.000Z</Time>
            <Position>
              <LatitudeDegrees>41.98037856258451938629150390625</LatitudeDegrees>
              <LongitudeDegrees>2.8234697319567203521728515625</LongitudeDegrees>
            </Position>
            <AltitudeMeters>61.799999237060546875</AltitudeMeters>
            <DistanceMeters>3066.9004459831</DistanceMeters>
          </Trackpoint>
          <Trackpoint>
            <Time>2020-02-15T08:07:44.000Z</Time>
            <Position>
              <LatitudeDegrees>41.9803250022232532501220703125</LatitudeDegrees>
              <LongitudeDegrees>2.82348104752600193023681640625</LongitudeDegrees>
            </Position>
            <AltitudeMeters>61.799999237060546875</AltitudeMeters>
            <DistanceMeters>3072.9344552822</DistanceMeters>
          </Trackpoint>
          <Trackpoint>
            <Time>2020-02-15T08:07:45.000Z</Time>
            <Position>
              <LatitudeDegrees>41.9802696816623210906982421875</LatitudeDegrees>
              <LongitudeDegrees>2.82348993234336376190185546875</LongitudeDegrees>
            </Position>
            <AltitudeMeters>61.799999237060546875</AltitudeMeters>
            <DistanceMeters>3079.1352669628</DistanceMeters>
          </Trackpoint>
          <Trackpoint>
            <Time>2020-02-15T08:07:47.000Z</Time>
            <Position>
              <LatitudeDegrees>41.98015510104596614837646484375</LatitudeDegrees>
              <LongitudeDegrees>2.823506109416484832763671875</LongitudeDegrees>
            </Position>
            <AltitudeMeters>61.799999237060546875</AltitudeMeters>
            <DistanceMeters>3091.9585930541</DistanceMeters>
          </Trackpoint>
          <Trackpoint>
            <Time>2020-02-15T08:07:48.000Z</Time>
            <Position>
              <LatitudeDegrees>41.98009324260056018829345703125</LatitudeDegrees>
              <LongitudeDegrees>2.82351516187191009521484375</LongitudeDegrees>
            </Position>
            <AltitudeMeters>61.799999237060546875</AltitudeMeters>
            <DistanceMeters>3098.8844696102</DistanceMeters>
          </Trackpoint>
          <Trackpoint>
            <Time>2020-02-15T08:07:49.000Z</Time>
            <Position>
              <LatitudeDegrees>41.98003448545932769775390625</LatitudeDegrees>
              <LongitudeDegrees>2.82352320849895477294921875</LongitudeDegrees>
            </Position>
            <AltitudeMeters>62</AltitudeMeters>
            <DistanceMeters>3105.4571316058</DistanceMeters>
          </Trackpoint>
          <Trackpoint>
            <Time>2020-02-15T08:07:50.000Z</Time>
            <Position>
              <LatitudeDegrees>41.979978494346141815185546875</LatitudeDegrees>
              <LongitudeDegrees>2.82353167422115802764892578125</LongitudeDegrees>
            </Position>
            <AltitudeMeters>61.799999237060546875</AltitudeMeters>
            <DistanceMeters>3111.7281748136</DistanceMeters>
          </Trackpoint>
          <Trackpoint>
            <Time>2020-02-15T08:07:53.000Z</Time>
            <Position>
              <LatitudeDegrees>41.9798076711595058441162109375</LatitudeDegrees>
              <LongitudeDegrees>2.8235592506825923919677734375</LongitudeDegrees>
            </Position>
            <AltitudeMeters>61.799999237060546875</AltitudeMeters>
            <DistanceMeters>3130.8774135513</DistanceMeters>
          </Trackpoint>
          <Trackpoint>
            <Time>2020-02-15T08:07:54.000Z</Time>
            <Position>
              <LatitudeDegrees>41.97975394316017627716064453125</LatitudeDegrees>
              <LongitudeDegrees>2.82356654293835163116455078125</LongitudeDegrees>
            </Position>
            <AltitudeMeters>61.799999237060546875</AltitudeMeters>
            <DistanceMeters>3136.8859279786</DistanceMeters>
          </Trackpoint>
          <Trackpoint>
            <Time>2020-02-15T08:07:55.000Z</Time>
            <Position>
              <LatitudeDegrees>41.97969979606568813323974609375</LatitudeDegrees>
              <LongitudeDegrees>2.82357442192733287811279296875</LongitudeDegrees>
            </Position>
            <AltitudeMeters>61.799999237060546875</AltitudeMeters>
            <DistanceMeters>3142.9468149578</DistanceMeters>
          </Trackpoint>
          <Trackpoint>
            <Time>2020-02-15T08:07:56.000Z</Time>
            <Position>
              <LatitudeDegrees>41.9796462357044219970703125</LatitudeDegrees>
              <LongitudeDegrees>2.8235828876495361328125</LongitudeDegrees>
            </Position>
            <AltitudeMeters>61.799999237060546875</AltitudeMeters>
            <DistanceMeters>3148.9478102801</DistanceMeters>
          </Trackpoint>
          <Trackpoint>
            <Time>2020-02-15T08:07:57.000Z</Time>
            <Position>
              <LatitudeDegrees>41.97959326207637786865234375</LatitudeDegrees>
              <LongitudeDegrees>2.823590934276580810546875</LongitudeDegrees>
            </Position>
            <AltitudeMeters>61.799999237060546875</AltitudeMeters>
            <DistanceMeters>3154.8807048501</DistanceMeters>
          </Trackpoint>
          <Trackpoint>
            <Time>2020-02-15T08:07:58.000Z</Time>
            <Position>
              <LatitudeDegrees>41.97954137809574604034423828125</LatitudeDegrees>
              <LongitudeDegrees>2.82360040582716464996337890625</LongitudeDegrees>
            </Position>
            <AltitudeMeters>61.799999237060546875</AltitudeMeters>
            <DistanceMeters>3160.7084074425</DistanceMeters>
          </Trackpoint>
          <Trackpoint>
            <Time>2020-02-15T08:08:00.000Z</Time>
            <Position>
              <LatitudeDegrees>41.9794392026960849761962890625</LatitudeDegrees>
              <LongitudeDegrees>2.82362001948058605194091796875</LongitudeDegrees>
            </Position>
            <AltitudeMeters>61.799999237060546875</AltitudeMeters>
            <DistanceMeters>3172.1964258629</DistanceMeters>
          </Trackpoint>
          <Trackpoint>
            <Time>2020-02-15T08:08:02.000Z</Time>
            <Position>
              <LatitudeDegrees>41.9793295674026012420654296875</LatitudeDegrees>
              <LongitudeDegrees>2.82364466227591037750244140625</LongitudeDegrees>
            </Position>
            <AltitudeMeters>62</AltitudeMeters>
            <DistanceMeters>3184.5681596026</DistanceMeters>
          </Trackpoint>
          <Trackpoint>
            <Time>2020-02-15T08:08:04.000Z</Time>
            <Position>
              <LatitudeDegrees>41.979223787784576416015625</LatitudeDegrees>
              <LongitudeDegrees>2.82367098145186901092529296875</LongitudeDegrees>
            </Position>
            <AltitudeMeters>61.799999237060546875</AltitudeMeters>
            <DistanceMeters>3196.5415256132</DistanceMeters>
          </Trackpoint>
          <Trackpoint>
            <Time>2020-02-15T08:08:05.000Z</Time>
            <Position>
              <LatitudeDegrees>41.97917307727038860321044921875</LatitudeDegrees>
              <LongitudeDegrees>2.82367969863116741180419921875</LongitudeDegrees>
            </Position>
            <AltitudeMeters>61.799999237060546875</AltitudeMeters>
            <DistanceMeters>3202.231237737</DistanceMeters>
          </Trackpoint>
          <Trackpoint>
            <Time>2020-02-15T08:08:06.000Z</Time>
            <Position>
              <LatitudeDegrees>41.979120858013629913330078125</LatitudeDegrees>
              <LongitudeDegrees>2.82368757762014865875244140625</LongitudeDegrees>
            </Position>
            <AltitudeMeters>61.799999237060546875</AltitudeMeters>
            <DistanceMeters>3208.0798212894</DistanceMeters>
          </Trackpoint>
          <Trackpoint>
            <Time>2020-02-15T08:08:08.000Z</Time>
            <Position>
              <LatitudeDegrees>41.979016922414302825927734375</LatitudeDegrees>
              <LongitudeDegrees>2.82370115630328655242919921875</LongitudeDegrees>
            </Position>
            <AltitudeMeters>61.799999237060546875</AltitudeMeters>
            <DistanceMeters>3219.7026412399</DistanceMeters>
          </Trackpoint>
          <Trackpoint>
            <Time>2020-02-15T08:08:09.000Z</Time>
            <Position>
              <LatitudeDegrees>41.97897660546004772186279296875</LatitudeDegrees>
              <LongitudeDegrees>2.823673076927661895751953125</LongitudeDegrees>
            </Position>
            <AltitudeMeters>61.799999237060546875</AltitudeMeters>
            <DistanceMeters>3224.756061486</DistanceMeters>
          </Trackpoint>
          <Trackpoint>
            <Time>2020-02-15T08:08:10.000Z</Time>
            <Position>
              <LatitudeDegrees>41.97894014418125152587890625</LatitudeDegrees>
              <LongitudeDegrees>2.82362991012632846832275390625</LongitudeDegrees>
            </Position>
            <AltitudeMeters>62</AltitudeMeters>
            <DistanceMeters>3230.1625721397</DistanceMeters>
          </Trackpoint>
          <Trackpoint>
            <Time>2020-02-15T08:08:11.000Z</Time>
            <Position>
              <LatitudeDegrees>41.9789235480129718780517578125</LatitudeDegrees>
              <LongitudeDegrees>2.8235626034438610076904296875</LongitudeDegrees>
            </Position>
            <AltitudeMeters>62</AltitudeMeters>
            <DistanceMeters>3236.0311930644</DistanceMeters>
          </Trackpoint>
          <Trackpoint>
            <Time>2020-02-15T08:08:12.000Z</Time>
            <Position>
              <LatitudeDegrees>41.97891776449978351593017578125</LatitudeDegrees>
              <LongitudeDegrees>2.8234868310391902923583984375</LongitudeDegrees>
            </Position>
            <AltitudeMeters>61.799999237060546875</AltitudeMeters>
            <DistanceMeters>3242.3338358654</DistanceMeters>
          </Trackpoint>
          <Trackpoint>
            <Time>2020-02-15T08:08:14.000Z</Time>
            <Position>
              <LatitudeDegrees>41.978909969329833984375</LatitudeDegrees>
              <LongitudeDegrees>2.8233386389911174774169921875</LongitudeDegrees>
            </Position>
            <AltitudeMeters>62</AltitudeMeters>
            <DistanceMeters>3254.6264881103</DistanceMeters>
          </Trackpoint>
          <Trackpoint>
            <Time>2020-02-15T08:08:15.000Z</Time>
            <Position>
              <LatitudeDegrees>41.97890535928308963775634765625</LatitudeDegrees>
              <LongitudeDegrees>2.8232662193477153778076171875</LongitudeDegrees>
            </Position>
            <AltitudeMeters>61.799999237060546875</AltitudeMeters>
            <DistanceMeters>3260.6410110535</DistanceMeters>
          </Trackpoint>
          <Trackpoint>
            <Time>2020-02-15T08:08:16.000Z</Time>
            <Position>
              <LatitudeDegrees>41.9789000786840915679931640625</LatitudeDegrees>
              <LongitudeDegrees>2.82319706864655017852783203125</LongitudeDegrees>
            </Position>
            <AltitudeMeters>62</AltitudeMeters>
            <DistanceMeters>3266.3930715617</DistanceMeters>
          </Trackpoint>
          <Trackpoint>
            <Time>2020-02-15T08:08:17.000Z</Time>
            <Position>
              <LatitudeDegrees>41.97889194823801517486572265625</LatitudeDegrees>
              <LongitudeDegrees>2.8231344558298587799072265625</LongitudeDegrees>
            </Position>
            <AltitudeMeters>62.200000762939453125</AltitudeMeters>
            <DistanceMeters>3271.6514072368</DistanceMeters>
          </Trackpoint>
          <Trackpoint>
            <Time>2020-02-15T08:08:18.000Z</Time>
            <Position>
              <LatitudeDegrees>41.97888591326773166656494140625</LatitudeDegrees>
              <LongitudeDegrees>2.823070250451564788818359375</LongitudeDegrees>
            </Position>
            <AltitudeMeters>62</AltitudeMeters>
            <DistanceMeters>3277.0058906581</DistanceMeters>
          </Trackpoint>
          <Trackpoint>
            <Time>2020-02-15T08:08:19.000Z</Time>
            <Position>
              <LatitudeDegrees>41.97888650000095367431640625</LatitudeDegrees>
              <LongitudeDegrees>2.8230040334165096282958984375</LongitudeDegrees>
            </Position>
            <AltitudeMeters>62.200000762939453125</AltitudeMeters>
            <DistanceMeters>3282.4845742682</DistanceMeters>
          </Trackpoint>
          <Trackpoint>
            <Time>2020-02-15T08:08:20.000Z</Time>
            <Position>
              <LatitudeDegrees>41.97889748029410839080810546875</LatitudeDegrees>
              <LongitudeDegrees>2.82293622381985187530517578125</LongitudeDegrees>
            </Position>
            <AltitudeMeters>62.200000762939453125</AltitudeMeters>
            <DistanceMeters>3288.2264214533</DistanceMeters>
          </Trackpoint>
          <Trackpoint>
            <Time>2020-02-15T08:08:21.000Z</Time>
            <Position>
              <LatitudeDegrees>41.97891826741397380828857421875</LatitudeDegrees>
              <LongitudeDegrees>2.822866402566432952880859375</LongitudeDegrees>
            </Position>
            <AltitudeMeters>62.200000762939453125</AltitudeMeters>
            <DistanceMeters>3294.4490388923</DistanceMeters>
          </Trackpoint>
          <Trackpoint>
            <Time>2020-02-15T08:08:22.000Z</Time>
            <Position>
              <LatitudeDegrees>41.9789362885057926177978515625</LatitudeDegrees>
              <LongitudeDegrees>2.822800017893314361572265625</LongitudeDegrees>
            </Position>
            <AltitudeMeters>62.40000152587890625</AltitudeMeters>
            <DistanceMeters>3300.2960782642</DistanceMeters>
          </Trackpoint>
          <Trackpoint>
            <Time>2020-02-15T08:08:23.000Z</Time>
            <Position>
              <LatitudeDegrees>41.9789515435695648193359375</LatitudeDegrees>
              <LongitudeDegrees>2.822730280458927154541015625</LongitudeDegrees>
            </Position>
            <AltitudeMeters>62.59999847412109375</AltitudeMeters>
            <DistanceMeters>3306.3106012074</DistanceMeters>
          </Trackpoint>
          <Trackpoint>
            <Time>2020-02-15T08:08:24.000Z</Time>
            <Position>
              <LatitudeDegrees>41.97895715944468975067138671875</LatitudeDegrees>
              <LongitudeDegrees>2.82265685498714447021484375</LongitudeDegrees>
            </Position>
            <AltitudeMeters>62.59999847412109375</AltitudeMeters>
            <DistanceMeters>3312.4175002334</DistanceMeters>
          </Trackpoint>
          <Trackpoint>
            <Time>2020-02-15T08:08:25.000Z</Time>
            <Position>
              <LatitudeDegrees>41.978941820561885833740234375</LatitudeDegrees>
              <LongitudeDegrees>2.82259105704724788665771484375</LongitudeDegrees>
            </Position>
            <AltitudeMeters>62.799999237060546875</AltitudeMeters>
            <DistanceMeters>3318.1230611682</DistanceMeters>
          </Trackpoint>
          <Trackpoint>
            <Time>2020-02-15T08:08:26.000Z</Time>
            <Position>
              <LatitudeDegrees>41.9789141602814197540283203125</LatitudeDegrees>
              <LongitudeDegrees>2.8225366584956645965576171875</LongitudeDegrees>
            </Position>
            <AltitudeMeters>62.799999237060546875</AltitudeMeters>
            <DistanceMeters>3323.57696544</DistanceMeters>
          </Trackpoint>
          <Trackpoint>
            <Time>2020-02-15T08:08:27.000Z</Time>
            <Position>
              <LatitudeDegrees>41.9788853265345096588134765625</LatitudeDegrees>
              <LongitudeDegrees>2.82248930074274539947509765625</LongitudeDegrees>
            </Position>
            <AltitudeMeters>62.799999237060546875</AltitudeMeters>
            <DistanceMeters>3328.6410958788</DistanceMeters>
          </Trackpoint>
          <Trackpoint>
            <Time>2020-02-15T08:08:29.000Z</Time>
            <Position>
              <LatitudeDegrees>41.97882874868810176849365234375</LatitudeDegrees>
              <LongitudeDegrees>2.8223814256489276885986328125</LongitudeDegrees>
            </Position>
            <AltitudeMeters>63.200000762939453125</AltitudeMeters>
            <DistanceMeters>3339.56462233</DistanceMeters>
          </Trackpoint>
          <Trackpoint>
            <Time>2020-02-15T08:08:31.000Z</Time>
            <Position>
              <LatitudeDegrees>41.9787797145545482635498046875</LatitudeDegrees>
              <LongitudeDegrees>2.82226449809968471527099609375</LongitudeDegrees>
            </Position>
            <AltitudeMeters>63.200000762939453125</AltitudeMeters>
            <DistanceMeters>3350.6721843692</DistanceMeters>
          </Trackpoint>
          <Trackpoint>
            <Time>2020-02-15T08:08:32.000Z</Time>
            <Position>
              <LatitudeDegrees>41.978743337094783782958984375</LatitudeDegrees>
              <LongitudeDegrees>2.822216637432575225830078125</LongitudeDegrees>
            </Position>
            <AltitudeMeters>63.200000762939453125</AltitudeMeters>
            <DistanceMeters>3356.3340543232</DistanceMeters>
          </Trackpoint>
          <Trackpoint>
            <Time>2020-02-15T08:08:33.000Z</Time>
            <Position>
              <LatitudeDegrees>41.97870452888309955596923828125</LatitudeDegrees>
              <LongitudeDegrees>2.82217137515544891357421875</LongitudeDegrees>
            </Position>
            <AltitudeMeters>63.40000152587890625</AltitudeMeters>
            <DistanceMeters>3362.0514730351</DistanceMeters>
          </Trackpoint>
          <Trackpoint>
            <Time>2020-02-15T08:08:34.000Z</Time>
            <Position>
              <LatitudeDegrees>41.978667564690113067626953125</LatitudeDegrees>
              <LongitudeDegrees>2.82212175428867340087890625</LongitudeDegrees>
            </Position>
            <AltitudeMeters>63.40000152587890625</AltitudeMeters>
            <DistanceMeters>3367.8644366556</DistanceMeters>
          </Trackpoint>
          <Trackpoint>
            <Time>2020-02-15T08:08:35.000Z</Time>
            <Position>
              <LatitudeDegrees>41.97863261215388774871826171875</LatitudeDegrees>
              <LongitudeDegrees>2.82207012176513671875</LongitudeDegrees>
            </Position>
            <AltitudeMeters>63.40000152587890625</AltitudeMeters>
            <DistanceMeters>3373.641560727</DistanceMeters>
          </Trackpoint>
          <Trackpoint>
            <Time>2020-02-15T08:08:36.000Z</Time>
            <Position>
              <LatitudeDegrees>41.9785996712744235992431640625</LatitudeDegrees>
              <LongitudeDegrees>2.8220173157751560211181640625</LongitudeDegrees>
            </Position>
            <AltitudeMeters>63.40000152587890625</AltitudeMeters>
            <DistanceMeters>3379.3455387623</DistanceMeters>
          </Trackpoint>
          <Trackpoint>
            <Time>2020-02-15T08:08:37.000Z</Time>
            <Position>
              <LatitudeDegrees>41.9785617850720882415771484375</LatitudeDegrees>
              <LongitudeDegrees>2.8219749033451080322265625</LongitudeDegrees>
            </Position>
            <AltitudeMeters>63.59999847412109375</AltitudeMeters>
            <DistanceMeters>3384.8316343492</DistanceMeters>
          </Trackpoint>
          <Trackpoint>
            <Time>2020-02-15T08:08:38.000Z</Time>
            <Position>
              <LatitudeDegrees>41.9785259105265140533447265625</LatitudeDegrees>
              <LongitudeDegrees>2.82193928025662899017333984375</LongitudeDegrees>
            </Position>
            <AltitudeMeters>63.799999237060546875</AltitudeMeters>
            <DistanceMeters>3389.7939945198</DistanceMeters>
          </Trackpoint>
          <Trackpoint>
            <Time>2020-02-15T08:08:39.000Z</Time>
            <Position>
              <LatitudeDegrees>41.978485174477100372314453125</LatitudeDegrees>
              <LongitudeDegrees>2.82190239988267421722412109375</LongitudeDegrees>
            </Position>
            <AltitudeMeters>63.799999237060546875</AltitudeMeters>
            <DistanceMeters>3395.2594764634</DistanceMeters>
          </Trackpoint>
          <Trackpoint>
            <Time>2020-02-15T08:08:41.000Z</Time>
            <Position>
              <LatitudeDegrees>41.97840102016925811767578125</LatitudeDegrees>
              <LongitudeDegrees>2.82183182425796985626220703125</LongitudeDegrees>
            </Position>
            <AltitudeMeters>64</AltitudeMeters>
            <DistanceMeters>3406.2973110057</DistanceMeters>
          </Trackpoint>
          <Trackpoint>
            <Time>2020-02-15T08:08:42.000Z</Time>
            <Position>
              <LatitudeDegrees>41.97836522944271564483642578125</LatitudeDegrees>
              <LongitudeDegrees>2.8217951953411102294921875</LongitudeDegrees>
            </Position>
            <AltitudeMeters>64</AltitudeMeters>
            <DistanceMeters>3411.3022517701</DistanceMeters>
          </Trackpoint>
          <Trackpoint>
            <Time>2020-02-15T08:08:43.000Z</Time>
            <Position>
              <LatitudeDegrees>41.97833321057260036468505859375</LatitudeDegrees>
              <LongitudeDegrees>2.82175135798752307891845703125</LongitudeDegrees>
            </Position>
            <AltitudeMeters>64</AltitudeMeters>
            <DistanceMeters>3416.3877349266</DistanceMeters>
          </Trackpoint>
          <Trackpoint>
            <Time>2020-02-15T08:08:44.000Z</Time>
            <Position>
              <LatitudeDegrees>41.97829867713153362274169921875</LatitudeDegrees>
              <LongitudeDegrees>2.8217095322906970977783203125</LongitudeDegrees>
            </Position>
            <AltitudeMeters>64.1999969482421875</AltitudeMeters>
            <DistanceMeters>3421.5594934696</DistanceMeters>
          </Trackpoint>
          <Trackpoint>
            <Time>2020-02-15T08:08:45.000Z</Time>
            <Position>
              <LatitudeDegrees>41.97825693525373935699462890625</LatitudeDegrees>
              <LongitudeDegrees>2.821670137345790863037109375</LongitudeDegrees>
            </Position>
            <AltitudeMeters>64.1999969482421875</AltitudeMeters>
            <DistanceMeters>3427.2356993109</DistanceMeters>
          </Trackpoint>
          <Trackpoint>
            <Time>2020-02-15T08:08:47.000Z</Time>
            <Position>
              <LatitudeDegrees>41.97817060165107250213623046875</LatitudeDegrees>
              <LongitudeDegrees>2.82161238603293895721435546875</LongitudeDegrees>
            </Position>
            <AltitudeMeters>64.59999847412109375</AltitudeMeters>
            <DistanceMeters>3437.9674090985</DistanceMeters>
          </Trackpoint>
          <Trackpoint>
            <Time>2020-02-15T08:08:49.000Z</Time>
            <Position>
              <LatitudeDegrees>41.97808158583939075469970703125</LatitudeDegrees>
              <LongitudeDegrees>2.82155840657651424407958984375</LongitudeDegrees>
            </Position>
            <AltitudeMeters>64.59999847412109375</AltitudeMeters>
            <DistanceMeters>3448.8354079892</DistanceMeters>
          </Trackpoint>
          <Trackpoint>
            <Time>2020-02-15T08:08:51.000Z</Time>
            <Position>
              <LatitudeDegrees>41.97798737324774265289306640625</LatitudeDegrees>
              <LongitudeDegrees>2.82150057144463062286376953125</LongitudeDegrees>
            </Position>
            <AltitudeMeters>64.59999847412109375</AltitudeMeters>
            <DistanceMeters>3460.3618781652</DistanceMeters>
          </Trackpoint>
          <Trackpoint>
            <Time>2020-02-15T08:08:52.000Z</Time>
            <Position>
              <LatitudeDegrees>41.97793942876160144805908203125</LatitudeDegrees>
              <LongitudeDegrees>2.8214714862406253814697265625</LongitudeDegrees>
            </Position>
            <AltitudeMeters>64.59999847412109375</AltitudeMeters>
            <DistanceMeters>3466.2158631417</DistanceMeters>
          </Trackpoint>
          <Trackpoint>
            <Time>2020-02-15T08:08:53.000Z</Time>
            <Position>
              <LatitudeDegrees>41.9778932444751262664794921875</LatitudeDegrees>
              <LongitudeDegrees>2.821449525654315948486328125</LongitudeDegrees>
            </Position>
            <AltitudeMeters>64.59999847412109375</AltitudeMeters>
            <DistanceMeters>3471.6681114535</DistanceMeters>
          </Trackpoint>
          <Trackpoint>
            <Time>2020-02-15T08:08:54.000Z</Time>
            <Position>
              <LatitudeDegrees>41.97784991003572940826416015625</LatitudeDegrees>
              <LongitudeDegrees>2.8214289061725139617919921875</LongitudeDegrees>
            </Position>
            <AltitudeMeters>64.59999847412109375</AltitudeMeters>
            <DistanceMeters>3476.7845742562</DistanceMeters>
          </Trackpoint>
          <Trackpoint>
            <Time>2020-02-15T08:08:55.000Z</Time>
            <Position>
              <LatitudeDegrees>41.9778114371001720428466796875</LatitudeDegrees>
              <LongitudeDegrees>2.82140669412910938262939453125</LongitudeDegrees>
            </Position>
            <AltitudeMeters>64.8000030517578125</AltitudeMeters>
            <DistanceMeters>3481.4437913332</DistanceMeters>
          </Trackpoint>
          <Trackpoint>
            <Time>2020-02-15T08:08:56.000Z</Time>
            <Position>
              <LatitudeDegrees>41.977776400744915008544921875</LatitudeDegrees>
              <LongitudeDegrees>2.8213848173618316650390625</LongitudeDegrees>
            </Position>
            <AltitudeMeters>64.59999847412109375</AltitudeMeters>
            <DistanceMeters>3485.7442095172</DistanceMeters>
          </Trackpoint>
          <Trackpoint>
            <Time>2020-02-15T08:08:57.000Z</Time>
            <Position>
              <LatitudeDegrees>41.9777393527328968048095703125</LatitudeDegrees>
              <LongitudeDegrees>2.82136864028871059417724609375</LongitudeDegrees>
            </Position>
            <AltitudeMeters>64.59999847412109375</AltitudeMeters>
            <DistanceMeters>3490.0791361694</DistanceMeters>
          </Trackpoint>
          <Trackpoint>
            <Time>2020-02-15T08:08:58.000Z</Time>
            <Position>
              <LatitudeDegrees>41.97770297527313232421875</LatitudeDegrees>
              <LongitudeDegrees>2.8213541395962238311767578125</LongitudeDegrees>
            </Position>
            <AltitudeMeters>64.8000030517578125</AltitudeMeters>
            <DistanceMeters>3494.3011464608</DistanceMeters>
          </Trackpoint>
          <Trackpoint>
            <Time>2020-02-15T08:08:59.000Z</Time>
            <Position>
              <LatitudeDegrees>41.977673806250095367431640625</LatitudeDegrees>
              <LongitudeDegrees>2.82133662141859531402587890625</LongitudeDegrees>
            </Position>
            <AltitudeMeters>64.8000030517578125</AltitudeMeters>
            <DistanceMeters>3497.8567205384</DistanceMeters>
          </Trackpoint>
          <Trackpoint>
            <Time>2020-02-15T08:09:00.000Z</Time>
            <Position>
              <LatitudeDegrees>41.9776481576263904571533203125</LatitudeDegrees>
              <LongitudeDegrees>2.8213263116776943206787109375</LongitudeDegrees>
            </Position>
            <AltitudeMeters>64.8000030517578125</AltitudeMeters>
            <DistanceMeters>3500.8360770368</DistanceMeters>
          </Trackpoint>
          <Trackpoint>
            <Time>2020-02-15T08:09:01.000Z</Time>
            <Position>
              <LatitudeDegrees>41.977635584771633148193359375</LatitudeDegrees>
              <LongitudeDegrees>2.82131373882293701171875</LongitudeDegrees>
            </Position>
            <AltitudeMeters>64.8000030517578125</AltitudeMeters>
            <DistanceMeters>3502.5779454834</DistanceMeters>
          </Trackpoint>
          <Trackpoint>
            <Time>2020-02-15T08:09:02.000Z</Time>
            <Position>
              <LatitudeDegrees>41.97762460447847843170166015625</LatitudeDegrees>
              <LongitudeDegrees>2.8213041834533214569091796875</LongitudeDegrees>
            </Position>
            <AltitudeMeters>64.8000030517578125</AltitudeMeters>
            <DistanceMeters>3504.031574696</DistanceMeters>
          </Trackpoint>
          <Trackpoint>
            <Time>2020-02-15T08:09:03.000Z</Time>
            <Position>
              <LatitudeDegrees>41.97761286981403827667236328125</LatitudeDegrees>
              <LongitudeDegrees>2.82129839994013309478759765625</LongitudeDegrees>
            </Position>
            <AltitudeMeters>64.8000030517578125</AltitudeMeters>
            <DistanceMeters>3505.4184439337</DistanceMeters>
          </Trackpoint>
          <Trackpoint>
            <Time>2020-02-15T08:09:04.000Z</Time>
            <Position>
              <LatitudeDegrees>41.97760700248181819915771484375</LatitudeDegrees>
              <LongitudeDegrees>2.82129404135048389434814453125</LongitudeDegrees>
            </Position>
            <AltitudeMeters>64.8000030517578125</AltitudeMeters>
            <DistanceMeters>3506.1545176981</DistanceMeters>
          </Trackpoint>
          <Trackpoint>
            <Time>2020-02-15T08:09:05.000Z</Time>
            <Position>
              <LatitudeDegrees>41.97759694419801235198974609375</LatitudeDegrees>
              <LongitudeDegrees>2.8213008306920528411865234375</LongitudeDegrees>
            </Position>
            <AltitudeMeters>64.8000030517578125</AltitudeMeters>
            <DistanceMeters>3507.4007813734</DistanceMeters>
          </Trackpoint>
          <Trackpoint>
            <Time>2020-02-15T08:09:14.000Z</Time>
            <Position>
              <LatitudeDegrees>41.97755319066345691680908203125</LatitudeDegrees>
              <LongitudeDegrees>2.82133175991475582122802734375</LongitudeDegrees>
            </Position>
            <AltitudeMeters>64.59999847412109375</AltitudeMeters>
            <DistanceMeters>3512.9008501082</DistanceMeters>
          </Trackpoint>
          <Trackpoint>
            <Time>2020-02-15T08:09:18.000Z</Time>
            <Position>
              <LatitudeDegrees>41.977551095187664031982421875</LatitudeDegrees>
              <LongitudeDegrees>2.8213276527822017669677734375</LongitudeDegrees>
            </Position>
            <AltitudeMeters>64.59999847412109375</AltitudeMeters>
            <DistanceMeters>3513.3150619531</DistanceMeters>
          </Trackpoint>
          <Trackpoint>
            <Time>2020-02-15T08:09:24.000Z</Time>
            <Position>
              <LatitudeDegrees>41.9775432161986827850341796875</LatitudeDegrees>
              <LongitudeDegrees>2.8213338553905487060546875</LongitudeDegrees>
            </Position>
            <AltitudeMeters>64.59999847412109375</AltitudeMeters>
            <DistanceMeters>3514.3296696185</DistanceMeters>
          </Trackpoint>
          <Trackpoint>
            <Time>2020-02-15T08:09:28.000Z</Time>
            <Position>
              <LatitudeDegrees>41.97752972133457660675048828125</LatitudeDegrees>
              <LongitudeDegrees>2.8213511221110820770263671875</LongitudeDegrees>
            </Position>
            <AltitudeMeters>64.59999847412109375</AltitudeMeters>
            <DistanceMeters>3516.4007288428</DistanceMeters>
          </Trackpoint>
          <Trackpoint>
            <Time>2020-02-15T08:09:33.000Z</Time>
            <Position>
              <LatitudeDegrees>41.977518908679485321044921875</LatitudeDegrees>
              <LongitudeDegrees>2.82134936191141605377197265625</LongitudeDegrees>
            </Position>
            <AltitudeMeters>64.59999847412109375</AltitudeMeters>
            <DistanceMeters>3517.6139487159</DistanceMeters>
          </Trackpoint>
          <Trackpoint>
            <Time>2020-02-15T08:09:34.000Z</Time>
            <Position>
              <LatitudeDegrees>41.97750994004309177398681640625</LatitudeDegrees>
              <LongitudeDegrees>2.821343578398227691650390625</LongitudeDegrees>
            </Position>
            <AltitudeMeters>64.59999847412109375</AltitudeMeters>
            <DistanceMeters>3518.7221411163</DistanceMeters>
          </Trackpoint>
          <Trackpoint>
            <Time>2020-02-15T08:09:35.000Z</Time>
            <Position>
              <LatitudeDegrees>41.9775016419589519500732421875</LatitudeDegrees>
              <LongitudeDegrees>2.82133980654180049896240234375</LongitudeDegrees>
            </Position>
            <AltitudeMeters>64.59999847412109375</AltitudeMeters>
            <DistanceMeters>3519.700501021</DistanceMeters>
          </Trackpoint>
          <Trackpoint>
            <Time>2020-02-15T08:09:37.000Z</Time>
            <Position>
              <LatitudeDegrees>41.97747440077364444732666015625</LatitudeDegrees>
              <LongitudeDegrees>2.82133159227669239044189453125</LongitudeDegrees>
            </Position>
            <AltitudeMeters>64.59999847412109375</AltitudeMeters>
            <DistanceMeters>3522.8089060453</DistanceMeters>
          </Trackpoint>
          <Trackpoint>
            <Time>2020-02-15T08:09:38.000Z</Time>
            <Position>
              <LatitudeDegrees>41.97746132500469684600830078125</LatitudeDegrees>
              <LongitudeDegrees>2.82131549902260303497314453125</LongitudeDegrees>
            </Position>
            <AltitudeMeters>64.59999847412109375</AltitudeMeters>
            <DistanceMeters>3524.7839992137</DistanceMeters>
          </Trackpoint>
          <Trackpoint>
            <Time>2020-02-15T08:09:39.000Z</Time>
            <Position>
              <LatitudeDegrees>41.97744548320770263671875</LatitudeDegrees>
              <LongitudeDegrees>2.8212978132069110870361328125</LongitudeDegrees>
            </Position>
            <AltitudeMeters>64.59999847412109375</AltitudeMeters>
            <DistanceMeters>3527.0764879247</DistanceMeters>
          </Trackpoint>
          <Trackpoint>
            <Time>2020-02-15T08:09:41.000Z</Time>
            <Position>
              <LatitudeDegrees>41.97741623036563396453857421875</LatitudeDegrees>
              <LongitudeDegrees>2.82126487232744693756103515625</LongitudeDegrees>
            </Position>
            <AltitudeMeters>64.59999847412109375</AltitudeMeters>
            <DistanceMeters>3531.3219599341</DistanceMeters>
          </Trackpoint>
          <Trackpoint>
            <Time>2020-02-15T08:09:42.000Z</Time>
            <Position>
              <LatitudeDegrees>41.9773973710834980010986328125</LatitudeDegrees>
              <LongitudeDegrees>2.82125146128237247467041015625</LongitudeDegrees>
            </Position>
            <AltitudeMeters>64.59999847412109375</AltitudeMeters>
            <DistanceMeters>3533.6976277933</DistanceMeters>
          </Trackpoint>
          <Trackpoint>
            <Time>2020-02-15T08:09:43.000Z</Time>
            <Position>
              <LatitudeDegrees>41.97737934999167919158935546875</LatitudeDegrees>
              <LongitudeDegrees>2.82123821787536144256591796875</LongitudeDegrees>
            </Position>
            <AltitudeMeters>64.59999847412109375</AltitudeMeters>
            <DistanceMeters>3535.9822249536</DistanceMeters>
          </Trackpoint>
          <Trackpoint>
            <Time>2020-02-15T08:09:45.000Z</Time>
            <Position>
              <LatitudeDegrees>41.97732402943074703216552734375</LatitudeDegrees>
              <LongitudeDegrees>2.82120351679623126983642578125</LongitudeDegrees>
            </Position>
            <AltitudeMeters>64.59999847412109375</AltitudeMeters>
            <DistanceMeters>3542.7764688984</DistanceMeters>
          </Trackpoint>
          <Trackpoint>
            <Time>2020-02-15T08:09:46.000Z</Time>
            <Position>
              <LatitudeDegrees>41.97729100473225116729736328125</LatitudeDegrees>
              <LongitudeDegrees>2.82118340022861957550048828125</LongitudeDegrees>
            </Position>
            <AltitudeMeters>64.59999847412109375</AltitudeMeters>
            <DistanceMeters>3546.8125880622</DistanceMeters>
          </Trackpoint>
          <Trackpoint>
            <Time>2020-02-15T08:09:48.000Z</Time>
            <Position>
              <LatitudeDegrees>41.97722244076430797576904296875</LatitudeDegrees>
              <LongitudeDegrees>2.82114014960825443267822265625</LongitudeDegrees>
            </Position>
            <AltitudeMeters>64.8000030517578125</AltitudeMeters>
            <DistanceMeters>3555.2416236809</DistanceMeters>
          </Trackpoint>
          <Trackpoint>
            <Time>2020-02-15T08:09:49.000Z</Time>
            <Position>
              <LatitudeDegrees>41.97718690149486064910888671875</LatitudeDegrees>
              <LongitudeDegrees>2.82111885957419872283935546875</LongitudeDegrees>
            </Position>
            <AltitudeMeters>64.8000030517578125</AltitudeMeters>
            <DistanceMeters>3559.5723821334</DistanceMeters>
          </Trackpoint>
          <Trackpoint>
            <Time>2020-02-15T08:09:51.000Z</Time>
            <Position>
              <LatitudeDegrees>41.9771143980324268341064453125</LatitudeDegrees>
              <LongitudeDegrees>2.82107929699122905731201171875</LongitudeDegrees>
            </Position>
            <AltitudeMeters>65</AltitudeMeters>
            <DistanceMeters>3568.2812059376</DistanceMeters>
          </Trackpoint>
          <Trackpoint>
            <Time>2020-02-15T08:09:52.000Z</Time>
            <Position>
              <LatitudeDegrees>41.97708061896264553070068359375</LatitudeDegrees>
              <LongitudeDegrees>2.82106186263263225555419921875</LongitudeDegrees>
            </Position>
            <AltitudeMeters>65</AltitudeMeters>
            <DistanceMeters>3572.3083658914</DistanceMeters>
          </Trackpoint>
          <Trackpoint>
            <Time>2020-02-15T08:09:53.000Z</Time>
            <Position>
              <LatitudeDegrees>41.97704876773059368133544921875</LatitudeDegrees>
              <LongitudeDegrees>2.8210414946079254150390625</LongitudeDegrees>
            </Position>
            <AltitudeMeters>65</AltitudeMeters>
            <DistanceMeters>3576.2333258165</DistanceMeters>
          </Trackpoint>
          <Trackpoint>
            <Time>2020-02-15T08:09:54.000Z</Time>
            <Position>
              <LatitudeDegrees>41.97702236473560333251953125</LatitudeDegrees>
              <LongitudeDegrees>2.82100050710141658782958984375</LongitudeDegrees>
            </Position>
            <AltitudeMeters>65</AltitudeMeters>
            <DistanceMeters>3580.7207605481</DistanceMeters>
          </Trackpoint>
          <Trackpoint>
            <Time>2020-02-15T08:09:55.000Z</Time>
            <Position>
              <LatitudeDegrees>41.97702370584011077880859375</LatitudeDegrees>
              <LongitudeDegrees>2.82098122872412204742431640625</LongitudeDegrees>
            </Position>
            <AltitudeMeters>65.1999969482421875</AltitudeMeters>
            <DistanceMeters>3582.3221792035</DistanceMeters>
          </Trackpoint>
          <Trackpoint>
            <Time>2020-02-15T08:09:56.000Z</Time>
            <Position>
              <LatitudeDegrees>41.97703217156231403350830078125</LatitudeDegrees>
              <LongitudeDegrees>2.82097100280225276947021484375</LongitudeDegrees>
            </Position>
            <AltitudeMeters>65.1999969482421875</AltitudeMeters>
            <DistanceMeters>3583.5899937038</DistanceMeters>
          </Trackpoint>
          <Trackpoint>
            <Time>2020-02-15T08:09:57.000Z</Time>
            <Position>
              <LatitudeDegrees>41.97703577578067779541015625</LatitudeDegrees>
              <LongitudeDegrees>2.82095943577587604522705078125</LongitudeDegrees>
            </Position>
            <AltitudeMeters>65.1999969482421875</AltitudeMeters>
            <DistanceMeters>3584.6309592043</DistanceMeters>
          </Trackpoint>
          <Trackpoint>
            <Time>2020-02-15T08:09:58.000Z</Time>
            <Position>
              <LatitudeDegrees>41.97701725177466869354248046875</LatitudeDegrees>
              <LongitudeDegrees>2.82095725648105144500732421875</LongitudeDegrees>
            </Position>
            <AltitudeMeters>65.1999969482421875</AltitudeMeters>
            <DistanceMeters>3586.7020184287</DistanceMeters>
          </Trackpoint>
          <Trackpoint>
            <Time>2020-02-15T08:09:59.000Z</Time>
            <Position>
              <LatitudeDegrees>41.9769943691790103912353515625</LatitudeDegrees>
              <LongitudeDegrees>2.8209541551768779754638671875</LongitudeDegrees>
            </Position>
            <AltitudeMeters>65.1999969482421875</AltitudeMeters>
            <DistanceMeters>3589.2606910185</DistanceMeters>
          </Trackpoint>
          <Trackpoint>
            <Time>2020-02-15T08:10:00.000Z</Time>
            <Position>
              <LatitudeDegrees>41.97697567753493785858154296875</LatitudeDegrees>
              <LongitudeDegrees>2.82095289789140224456787109375</LongitudeDegrees>
            </Position>
            <AltitudeMeters>65.40000152587890625</AltitudeMeters>
            <DistanceMeters>3591.3426220195</DistanceMeters>
          </Trackpoint>
          <Trackpoint>
            <Time>2020-02-15T08:30:42.000Z</Time>
            <Position>
              <LatitudeDegrees>41.9765953905880451202392578125</LatitudeDegrees>
              <LongitudeDegrees>2.820763550698757171630859375</LongitudeDegrees>
            </Position>
            <AltitudeMeters>83.8000030517578125</AltitudeMeters>
            <DistanceMeters>3636.4760099312</DistanceMeters>
          </Trackpoint>
          <Trackpoint>
            <Time>2020-02-15T08:30:44.000Z</Time>
            <Position>
              <LatitudeDegrees>41.9765603542327880859375</LatitudeDegrees>
              <LongitudeDegrees>2.8207539953291416168212890625</LongitudeDegrees>
            </Position>
            <AltitudeMeters>84</AltitudeMeters>
            <DistanceMeters>3640.4558031523</DistanceMeters>
          </Trackpoint>
          <Trackpoint>
            <Time>2020-02-15T08:30:45.000Z</Time>
            <Position>
              <LatitudeDegrees>41.97654752992093563079833984375</LatitudeDegrees>
              <LongitudeDegrees>2.82074737362563610076904296875</LongitudeDegrees>
            </Position>
            <AltitudeMeters>84</AltitudeMeters>
            <DistanceMeters>3641.9880628808</DistanceMeters>
          </Trackpoint>
          <Trackpoint>
            <Time>2020-02-15T08:30:46.000Z</Time>
            <Position>
              <LatitudeDegrees>41.976531185209751129150390625</LatitudeDegrees>
              <LongitudeDegrees>2.8207410871982574462890625</LongitudeDegrees>
            </Position>
            <AltitudeMeters>83.8000030517578125</AltitudeMeters>
            <DistanceMeters>3643.8814567511</DistanceMeters>
          </Trackpoint>
          <Trackpoint>
            <Time>2020-02-15T08:30:47.000Z</Time>
            <Position>
              <LatitudeDegrees>41.97651601396501064300537109375</LatitudeDegrees>
              <LongitudeDegrees>2.820732705295085906982421875</LongitudeDegrees>
            </Position>
            <AltitudeMeters>83.8000030517578125</AltitudeMeters>
            <DistanceMeters>3645.7068603251</DistanceMeters>
          </Trackpoint>
          <Trackpoint>
            <Time>2020-02-15T08:30:48.000Z</Time>
            <Position>
              <LatitudeDegrees>41.97650612331926822662353515625</LatitudeDegrees>
              <LongitudeDegrees>2.82072172500193119049072265625</LongitudeDegrees>
            </Position>
            <AltitudeMeters>84</AltitudeMeters>
            <DistanceMeters>3647.1354250861</DistanceMeters>
          </Trackpoint>
          <Trackpoint>
            <Time>2020-02-15T08:30:49.000Z</Time>
            <Position>
              <LatitudeDegrees>41.97649103589355945587158203125</LatitudeDegrees>
              <LongitudeDegrees>2.8207147680222988128662109375</LongitudeDegrees>
            </Position>
            <AltitudeMeters>84</AltitudeMeters>
            <DistanceMeters>3648.9081254563</DistanceMeters>
          </Trackpoint>
          <Trackpoint>
            <Time>2020-02-15T08:30:50.000Z</Time>
            <Position>
              <LatitudeDegrees>41.97647058404982089996337890625</LatitudeDegrees>
              <LongitudeDegrees>2.82071267254650592803955078125</LongitudeDegrees>
            </Position>
            <AltitudeMeters>84</AltitudeMeters>
            <DistanceMeters>3651.1887666011</DistanceMeters>
          </Trackpoint>
          <Trackpoint>
            <Time>2020-02-15T08:30:53.000Z</Time>
            <Position>
              <LatitudeDegrees>41.976395733654499053955078125</LatitudeDegrees>
              <LongitudeDegrees>2.82069456763565540313720703125</LongitudeDegrees>
            </Position>
            <AltitudeMeters>84</AltitudeMeters>
            <DistanceMeters>3659.6530814881</DistanceMeters>
          </Trackpoint>
          <Trackpoint>
            <Time>2020-02-15T08:30:55.000Z</Time>
            <Position>
              <LatitudeDegrees>41.97635072283446788787841796875</LatitudeDegrees>
              <LongitudeDegrees>2.8206728585064411163330078125</LongitudeDegrees>
            </Position>
            <AltitudeMeters>84</AltitudeMeters>
            <DistanceMeters>3664.9745774929</DistanceMeters>
          </Trackpoint>
          <Trackpoint>
            <Time>2020-02-15T08:30:56.000Z</Time>
            <Position>
              <LatitudeDegrees>41.97632364928722381591796875</LatitudeDegrees>
              <LongitudeDegrees>2.820663638412952423095703125</LongitudeDegrees>
            </Position>
            <AltitudeMeters>84.1999969482421875</AltitudeMeters>
            <DistanceMeters>3668.0829825171</DistanceMeters>
          </Trackpoint>
          <Trackpoint>
            <Time>2020-02-15T08:30:58.000Z</Time>
            <Position>
              <LatitudeDegrees>41.97628182359039783477783203125</LatitudeDegrees>
              <LongitudeDegrees>2.82064519822597503662109375</LongitudeDegrees>
            </Position>
            <AltitudeMeters>84.1999969482421875</AltitudeMeters>
            <DistanceMeters>3672.9821603245</DistanceMeters>
          </Trackpoint>
          <Trackpoint>
            <Time>2020-02-15T08:30:59.000Z</Time>
            <Position>
              <LatitudeDegrees>41.97627536952495574951171875</LatitudeDegrees>
              <LongitudeDegrees>2.82063874416053295135498046875</LongitudeDegrees>
            </Position>
            <AltitudeMeters>84.1999969482421875</AltitudeMeters>
            <DistanceMeters>3673.8786405549</DistanceMeters>
          </Trackpoint>
          <Trackpoint>
            <Time>2020-02-15T08:31:00.000Z</Time>
            <Position>
              <LatitudeDegrees>41.9762611202895641326904296875</LatitudeDegrees>
              <LongitudeDegrees>2.82063405029475688934326171875</LongitudeDegrees>
            </Position>
            <AltitudeMeters>84.1999969482421875</AltitudeMeters>
            <DistanceMeters>3675.513541967</DistanceMeters>
          </Trackpoint>
          <Trackpoint>
            <Time>2020-02-15T08:31:02.000Z</Time>
            <Position>
              <LatitudeDegrees>41.97623337619006633758544921875</LatitudeDegrees>
              <LongitudeDegrees>2.82063044607639312744140625</LongitudeDegrees>
            </Position>
            <AltitudeMeters>84</AltitudeMeters>
            <DistanceMeters>3678.6146758585</DistanceMeters>
          </Trackpoint>
          <Trackpoint>
            <Time>2020-02-15T08:31:03.000Z</Time>
            <Position>
              <LatitudeDegrees>41.976224072277545928955078125</LatitudeDegrees>
              <LongitudeDegrees>2.82063170336186885833740234375</LongitudeDegrees>
            </Position>
            <AltitudeMeters>84.1999969482421875</AltitudeMeters>
            <DistanceMeters>3679.655641359</DistanceMeters>
          </Trackpoint>
          <Trackpoint>
            <Time>2020-02-15T08:31:04.000Z</Time>
            <Position>
              <LatitudeDegrees>41.97621158324182033538818359375</LatitudeDegrees>
              <LongitudeDegrees>2.82063388265669345855712890625</LongitudeDegrees>
            </Position>
            <AltitudeMeters>84.1999969482421875</AltitudeMeters>
            <DistanceMeters>3681.0586939827</DistanceMeters>
          </Trackpoint>
          <Trackpoint>
            <Time>2020-02-15T08:31:06.000Z</Time>
            <Position>
              <LatitudeDegrees>41.97619020938873291015625</LatitudeDegrees>
              <LongitudeDegrees>2.82062801532447338104248046875</LongitudeDegrees>
            </Position>
            <AltitudeMeters>84</AltitudeMeters>
            <DistanceMeters>3683.4869937825</DistanceMeters>
          </Trackpoint>
          <Trackpoint>
            <Time>2020-02-15T08:31:07.000Z</Time>
            <Position>
              <LatitudeDegrees>41.97618073783814907073974609375</LatitudeDegrees>
              <LongitudeDegrees>2.82062013633549213409423828125</LongitudeDegrees>
            </Position>
            <AltitudeMeters>84.1999969482421875</AltitudeMeters>
            <DistanceMeters>3684.7259905523</DistanceMeters>
          </Trackpoint>
          <Trackpoint>
            <Time>2020-02-15T08:31:08.000Z</Time>
            <Position>
              <LatitudeDegrees>41.97617000900208950042724609375</LatitudeDegrees>
              <LongitudeDegrees>2.82061711885035037994384765625</LongitudeDegrees>
            </Position>
            <AltitudeMeters>84.1999969482421875</AltitudeMeters>
            <DistanceMeters>3685.9466307996</DistanceMeters>
          </Trackpoint>
          <Trackpoint>
            <Time>2020-02-15T08:31:09.000Z</Time>
            <Position>
              <LatitudeDegrees>41.9761575199663639068603515625</LatitudeDegrees>
              <LongitudeDegrees>2.8206123411655426025390625</LongitudeDegrees>
            </Position>
            <AltitudeMeters>84</AltitudeMeters>
            <DistanceMeters>3687.3940345908</DistanceMeters>
          </Trackpoint>
          <Trackpoint>
            <Time>2020-02-15T08:31:10.000Z</Time>
            <Position>
              <LatitudeDegrees>41.97615073062479496002197265625</LatitudeDegrees>
              <LongitudeDegrees>2.82061032950878143310546875</LongitudeDegrees>
            </Position>
            <AltitudeMeters>84.1999969482421875</AltitudeMeters>
            <DistanceMeters>3688.1660352679</DistanceMeters>
          </Trackpoint>
          <Trackpoint>
            <Time>2020-02-15T08:31:15.000Z</Time>
            <Position>
              <LatitudeDegrees>41.97613455355167388916015625</LatitudeDegrees>
              <LongitudeDegrees>2.8205816633999347686767578125</LongitudeDegrees>
            </Position>
            <AltitudeMeters>84.1999969482421875</AltitudeMeters>
            <DistanceMeters>3691.1438759399</DistanceMeters>
          </Trackpoint>
          <Trackpoint>
            <Time>2020-02-15T08:31:18.000Z</Time>
            <Position>
              <LatitudeDegrees>41.97612860240042209625244140625</LatitudeDegrees>
              <LongitudeDegrees>2.82054671086370944976806640625</LongitudeDegrees>
            </Position>
            <AltitudeMeters>84</AltitudeMeters>
            <DistanceMeters>3694.1126054003</DistanceMeters>
          </Trackpoint>
          <Trackpoint>
            <Time>2020-02-15T08:31:24.000Z</Time>
            <Position>
              <LatitudeDegrees>41.97610010392963886260986328125</LatitudeDegrees>
              <LongitudeDegrees>2.8204643167555332183837890625</LongitudeDegrees>
            </Position>
            <AltitudeMeters>84</AltitudeMeters>
            <DistanceMeters>3701.6323353617</DistanceMeters>
          </Trackpoint>
          <Trackpoint>
            <Time>2020-02-15T08:31:32.000Z</Time>
            <Position>
              <LatitudeDegrees>41.97607152163982391357421875</LatitudeDegrees>
              <LongitudeDegrees>2.82037404365837574005126953125</LongitudeDegrees>
            </Position>
            <AltitudeMeters>84</AltitudeMeters>
            <DistanceMeters>3709.7508652757</DistanceMeters>
          </Trackpoint>
          <Trackpoint>
            <Time>2020-02-15T08:31:36.000Z</Time>
            <Position>
              <LatitudeDegrees>41.97603070177137851715087890625</LatitudeDegrees>
              <LongitudeDegrees>2.820333056151866912841796875</LongitudeDegrees>
            </Position>
            <AltitudeMeters>84.1999969482421875</AltitudeMeters>
            <DistanceMeters>3715.4207040865</DistanceMeters>
          </Trackpoint>
          <Trackpoint>
            <Time>2020-02-15T08:31:41.000Z</Time>
            <Position>
              <LatitudeDegrees>41.97593472898006439208984375</LatitudeDegrees>
              <LongitudeDegrees>2.820451073348522186279296875</LongitudeDegrees>
            </Position>
            <AltitudeMeters>84.1999969482421875</AltitudeMeters>
            <DistanceMeters>3729.8938061476</DistanceMeters>
          </Trackpoint>
          <Trackpoint>
            <Time>2020-02-15T08:31:42.000Z</Time>
            <Position>
              <LatitudeDegrees>41.9759166240692138671875</LatitudeDegrees>
              <LongitudeDegrees>2.8204680047929286956787109375</LongitudeDegrees>
            </Position>
            <AltitudeMeters>84.1999969482421875</AltitudeMeters>
            <DistanceMeters>3732.3461582658</DistanceMeters>
          </Trackpoint>
          <Trackpoint>
            <Time>2020-02-15T08:31:44.000Z</Time>
            <Position>
              <LatitudeDegrees>41.97587647475302219390869140625</LatitudeDegrees>
              <LongitudeDegrees>2.8205535002052783966064453125</LongitudeDegrees>
            </Position>
            <AltitudeMeters>84.1999969482421875</AltitudeMeters>
            <DistanceMeters>3740.7139066336</DistanceMeters>
          </Trackpoint>
          <Trackpoint>
            <Time>2020-02-15T08:31:45.000Z</Time>
            <Position>
              <LatitudeDegrees>41.975860297679901123046875</LatitudeDegrees>
              <LongitudeDegrees>2.82060370780527591705322265625</LongitudeDegrees>
            </Position>
            <AltitudeMeters>84.40000152587890625</AltitudeMeters>
            <DistanceMeters>3745.2414085417</DistanceMeters>
          </Trackpoint>
          <Trackpoint>
            <Time>2020-02-15T08:31:47.000Z</Time>
            <Position>
              <LatitudeDegrees>41.97581109590828418731689453125</LatitudeDegrees>
              <LongitudeDegrees>2.82070362009108066558837890625</LongitudeDegrees>
            </Position>
            <AltitudeMeters>84.40000152587890625</AltitudeMeters>
            <DistanceMeters>3755.1579367887</DistanceMeters>
          </Trackpoint>
          <Trackpoint>
            <Time>2020-02-15T08:31:50.000Z</Time>
            <Position>
              <LatitudeDegrees>41.97576130740344524383544921875</LatitudeDegrees>
              <LongitudeDegrees>2.8208669833838939666748046875</LongitudeDegrees>
            </Position>
            <AltitudeMeters>84.40000152587890625</AltitudeMeters>
            <DistanceMeters>3769.7673476882</DistanceMeters>
          </Trackpoint>
          <Trackpoint>
            <Time>2020-02-15T08:31:53.000Z</Time>
            <Position>
              <LatitudeDegrees>41.9757293723523616790771484375</LatitudeDegrees>
              <LongitudeDegrees>2.8210292570292949676513671875</LongitudeDegrees>
            </Position>
            <AltitudeMeters>84.59999847412109375</AltitudeMeters>
            <DistanceMeters>3783.6575101531</DistanceMeters>
          </Trackpoint>
          <Trackpoint>
            <Time>2020-02-15T08:31:54.000Z</Time>
            <Position>
              <LatitudeDegrees>41.9757152907550334930419921875</LatitudeDegrees>
              <LongitudeDegrees>2.8210808895528316497802734375</LongitudeDegrees>
            </Position>
            <AltitudeMeters>84.59999847412109375</AltitudeMeters>
            <DistanceMeters>3788.2088830627</DistanceMeters>
          </Trackpoint>
          <Trackpoint>
            <Time>2020-02-15T08:31:55.000Z</Time>
            <Position>
              <LatitudeDegrees>41.975700370967388153076171875</LatitudeDegrees>
              <LongitudeDegrees>2.8211308456957340240478515625</LongitudeDegrees>
            </Position>
            <AltitudeMeters>84.59999847412109375</AltitudeMeters>
            <DistanceMeters>3792.6640046125</DistanceMeters>
          </Trackpoint>
          <Trackpoint>
            <Time>2020-02-15T08:31:58.000Z</Time>
            <Position>
              <LatitudeDegrees>41.97565636597573757171630859375</LatitudeDegrees>
              <LongitudeDegrees>2.82129035331308841705322265625</LongitudeDegrees>
            </Position>
            <AltitudeMeters>84.59999847412109375</AltitudeMeters>
            <DistanceMeters>3806.7420768453</DistanceMeters>
          </Trackpoint>
          <Trackpoint>
            <Time>2020-02-15T08:31:59.000Z</Time>
            <Position>
              <LatitudeDegrees>41.97563893161714076995849609375</LatitudeDegrees>
              <LongitudeDegrees>2.821337543427944183349609375</LongitudeDegrees>
            </Position>
            <AltitudeMeters>84.8000030517578125</AltitudeMeters>
            <DistanceMeters>3811.1019290119</DistanceMeters>
          </Trackpoint>
          <Trackpoint>
            <Time>2020-02-15T08:32:00.000Z</Time>
            <Position>
              <LatitudeDegrees>41.97561596520245075225830078125</LatitudeDegrees>
              <LongitudeDegrees>2.8213826380670070648193359375</LongitudeDegrees>
            </Position>
            <AltitudeMeters>84.59999847412109375</AltitudeMeters>
            <DistanceMeters>3815.6244419357</DistanceMeters>
          </Trackpoint>
          <Trackpoint>
            <Time>2020-02-15T08:32:01.000Z</Time>
            <Position>
              <LatitudeDegrees>41.97561529465019702911376953125</LatitudeDegrees>
              <LongitudeDegrees>2.8214285708963871002197265625</LongitudeDegrees>
            </Position>
            <AltitudeMeters>84.8000030517578125</AltitudeMeters>
            <DistanceMeters>3819.4243224909</DistanceMeters>
          </Trackpoint>
          <Trackpoint>
            <Time>2020-02-15T08:32:02.000Z</Time>
            <Position>
              <LatitudeDegrees>41.9756147079169750213623046875</LatitudeDegrees>
              <LongitudeDegrees>2.82147534191608428955078125</LongitudeDegrees>
            </Position>
            <AltitudeMeters>84.59999847412109375</AltitudeMeters>
            <DistanceMeters>3823.2948388415</DistanceMeters>
          </Trackpoint>
          <Trackpoint>
            <Time>2020-02-15T08:32:03.000Z</Time>
            <Position>
              <LatitudeDegrees>41.9756336510181427001953125</LatitudeDegrees>
              <LongitudeDegrees>2.82151959836483001708984375</LongitudeDegrees>
            </Position>
            <AltitudeMeters>84.8000030517578125</AltitudeMeters>
            <DistanceMeters>3827.5211245875</DistanceMeters>
          </Trackpoint>
          <Trackpoint>
            <Time>2020-02-15T08:32:04.000Z</Time>
            <Position>
              <LatitudeDegrees>41.97565636597573757171630859375</LatitudeDegrees>
              <LongitudeDegrees>2.8215529583394527435302734375</LongitudeDegrees>
            </Position>
            <AltitudeMeters>84.59999847412109375</AltitudeMeters>
            <DistanceMeters>3831.2647429763</DistanceMeters>
          </Trackpoint>
          <Trackpoint>
            <Time>2020-02-15T08:32:05.000Z</Time>
            <Position>
              <LatitudeDegrees>41.97569425217807292938232421875</LatitudeDegrees>
              <LongitudeDegrees>2.821575589478015899658203125</LongitudeDegrees>
            </Position>
            <AltitudeMeters>84.8000030517578125</AltitudeMeters>
            <DistanceMeters>3835.8791682119</DistanceMeters>
          </Trackpoint>
          <Trackpoint>
            <Time>2020-02-15T08:32:06.000Z</Time>
            <Position>
              <LatitudeDegrees>41.9757300429046154022216796875</LatitudeDegrees>
              <LongitudeDegrees>2.82159327529370784759521484375</LongitudeDegrees>
            </Position>
            <AltitudeMeters>84.59999847412109375</AltitudeMeters>
            <DistanceMeters>3840.123576593</DistanceMeters>
          </Trackpoint>
          <Trackpoint>
            <Time>2020-02-15T08:32:07.000Z</Time>
            <Position>
              <LatitudeDegrees>41.975765414535999298095703125</LatitudeDegrees>
              <LongitudeDegrees>2.8216087818145751953125</LongitudeDegrees>
            </Position>
            <AltitudeMeters>84.59999847412109375</AltitudeMeters>
            <DistanceMeters>3844.2635144054</DistanceMeters>
          </Trackpoint>
          <Trackpoint>
            <Time>2020-02-15T08:32:08.000Z</Time>
            <Position>
              <LatitudeDegrees>41.97579936124384403228759765625</LatitudeDegrees>
              <LongitudeDegrees>2.82161414623260498046875</LongitudeDegrees>
            </Position>
            <AltitudeMeters>84.59999847412109375</AltitudeMeters>
            <DistanceMeters>3848.0669579061</DistanceMeters>
          </Trackpoint>
          <Trackpoint>
            <Time>2020-02-15T08:32:09.000Z</Time>
            <Position>
              <LatitudeDegrees>41.97583422996103763580322265625</LatitudeDegrees>
              <LongitudeDegrees>2.8216237016022205352783203125</LongitudeDegrees>
            </Position>
            <AltitudeMeters>84.59999847412109375</AltitudeMeters>
            <DistanceMeters>3852.0274178268</DistanceMeters>
          </Trackpoint>
          <Trackpoint>
            <Time>2020-02-15T08:32:10.000Z</Time>
            <Position>
              <LatitudeDegrees>41.97587513364851474761962890625</LatitudeDegrees>
              <LongitudeDegrees>2.821642644703388214111328125</LongitudeDegrees>
            </Position>
            <AltitudeMeters>84.59999847412109375</AltitudeMeters>
            <DistanceMeters>3856.8429381837</DistanceMeters>
          </Trackpoint>
          <Trackpoint>
            <Time>2020-02-15T08:32:11.000Z</Time>
            <Position>
              <LatitudeDegrees>41.9759057275950908660888671875</LatitudeDegrees>
              <LongitudeDegrees>2.82165504992008209228515625</LongitudeDegrees>
            </Position>
            <AltitudeMeters>84.59999847412109375</AltitudeMeters>
            <DistanceMeters>3860.3997818825</DistanceMeters>
          </Trackpoint>
          <Trackpoint>
            <Time>2020-02-15T08:32:12.000Z</Time>
            <Position>
              <LatitudeDegrees>41.97593481279909610748291015625</LatitudeDegrees>
              <LongitudeDegrees>2.82166401855647563934326171875</LongitudeDegrees>
            </Position>
            <AltitudeMeters>84.40000152587890625</AltitudeMeters>
            <DistanceMeters>3863.7216418155</DistanceMeters>
          </Trackpoint>
          <Trackpoint>
            <Time>2020-02-15T08:32:13.000Z</Time>
            <Position>
              <LatitudeDegrees>41.975962221622467041015625</LatitudeDegrees>
              <LongitudeDegrees>2.82166854478418827056884765625</LongitudeDegrees>
            </Position>
            <AltitudeMeters>84.1999969482421875</AltitudeMeters>
            <DistanceMeters>3866.7935190729</DistanceMeters>
          </Trackpoint>
          <Trackpoint>
            <Time>2020-02-15T08:32:14.000Z</Time>
            <Position>
              <LatitudeDegrees>41.97599063627421855926513671875</LatitudeDegrees>
              <LongitudeDegrees>2.821665443480014801025390625</LongitudeDegrees>
            </Position>
            <AltitudeMeters>84.1999969482421875</AltitudeMeters>
            <DistanceMeters>3869.9651913697</DistanceMeters>
          </Trackpoint>
          <Trackpoint>
            <Time>2020-02-15T08:32:15.000Z</Time>
            <Position>
              <LatitudeDegrees>41.97603003121912479400634765625</LatitudeDegrees>
              <LongitudeDegrees>2.821677513420581817626953125</LongitudeDegrees>
            </Position>
            <AltitudeMeters>84</AltitudeMeters>
            <DistanceMeters>3874.4626763596</DistanceMeters>
          </Trackpoint>
          <Trackpoint>
            <Time>2020-02-15T08:32:16.000Z</Time>
            <Position>
              <LatitudeDegrees>41.9760609604418277740478515625</LatitudeDegrees>
              <LongitudeDegrees>2.8216857276856899261474609375</LongitudeDegrees>
            </Position>
            <AltitudeMeters>84</AltitudeMeters>
            <DistanceMeters>3877.9709514619</DistanceMeters>
          </Trackpoint>
          <Trackpoint>
            <Time>2020-02-15T08:32:17.000Z</Time>
            <Position>
              <LatitudeDegrees>41.97608761489391326904296875</LatitudeDegrees>
              <LongitudeDegrees>2.8216874040663242340087890625</LongitudeDegrees>
            </Position>
            <AltitudeMeters>84</AltitudeMeters>
            <DistanceMeters>3880.9427210966</DistanceMeters>
          </Trackpoint>
          <Trackpoint>
            <Time>2020-02-15T08:32:18.000Z</Time>
            <Position>
              <LatitudeDegrees>41.976114772260189056396484375</LatitudeDegrees>
              <LongitudeDegrees>2.82168631441891193389892578125</LongitudeDegrees>
            </Position>
            <AltitudeMeters>84.1999969482421875</AltitudeMeters>
            <DistanceMeters>3883.9671991405</DistanceMeters>
          </Trackpoint>
          <Trackpoint>
            <Time>2020-02-15T08:32:19.000Z</Time>
            <Position>
              <LatitudeDegrees>41.9761380739510059356689453125</LatitudeDegrees>
              <LongitudeDegrees>2.82168095000088214874267578125</LongitudeDegrees>
            </Position>
            <AltitudeMeters>84</AltitudeMeters>
            <DistanceMeters>3886.5989416493</DistanceMeters>
          </Trackpoint>
          <Trackpoint>
            <Time>2020-02-15T08:32:20.000Z</Time>
            <Position>
              <LatitudeDegrees>41.9761602021753787994384765625</LatitudeDegrees>
              <LongitudeDegrees>2.82167893834412097930908203125</LongitudeDegrees>
            </Position>
            <AltitudeMeters>84</AltitudeMeters>
            <DistanceMeters>3889.0696362229</DistanceMeters>
          </Trackpoint>
          <Trackpoint>
            <Time>2020-02-15T08:32:21.000Z</Time>
            <Position>
              <LatitudeDegrees>41.97618459351360797882080078125</LatitudeDegrees>
              <LongitudeDegrees>2.8216810338199138641357421875</LongitudeDegrees>
            </Position>
            <AltitudeMeters>84</AltitudeMeters>
            <DistanceMeters>3891.7891274635</DistanceMeters>
          </Trackpoint>
          <Trackpoint>
            <Time>2020-02-15T08:32:22.000Z</Time>
            <Position>
              <LatitudeDegrees>41.97620655409991741180419921875</LatitudeDegrees>
              <LongitudeDegrees>2.82168681733310222625732421875</LongitudeDegrees>
            </Position>
            <AltitudeMeters>84</AltitudeMeters>
            <DistanceMeters>3894.2780293178</DistanceMeters>
          </Trackpoint>
          <Trackpoint>
            <Time>2020-02-15T08:32:26.000Z</Time>
            <Position>
              <LatitudeDegrees>41.97634242475032806396484375</LatitudeDegrees>
              <LongitudeDegrees>2.82173057086765766143798828125</LongitudeDegrees>
            </Position>
            <AltitudeMeters>83.8000030517578125</AltitudeMeters>
            <DistanceMeters>3909.8281864558</DistanceMeters>
          </Trackpoint>
          <Trackpoint>
            <Time>2020-02-15T08:32:27.000Z</Time>
            <Position>
              <LatitudeDegrees>41.9763898663222789764404296875</LatitudeDegrees>
              <LongitudeDegrees>2.82175437547266483306884765625</LongitudeDegrees>
            </Position>
            <AltitudeMeters>83.59999847412109375</AltitudeMeters>
            <DistanceMeters>3915.463679234</DistanceMeters>
          </Trackpoint>
          <Trackpoint>
            <Time>2020-02-15T08:32:29.000Z</Time>
            <Position>
              <LatitudeDegrees>41.97645197622478008270263671875</LatitudeDegrees>
              <LongitudeDegrees>2.8218007273972034454345703125</LongitudeDegrees>
            </Position>
            <AltitudeMeters>83.59999847412109375</AltitudeMeters>
            <DistanceMeters>3923.3691937061</DistanceMeters>
          </Trackpoint>
          <Trackpoint>
            <Time>2020-02-15T08:32:30.000Z</Time>
            <Position>
              <LatitudeDegrees>41.97647519409656524658203125</LatitudeDegrees>
              <LongitudeDegrees>2.821831405162811279296875</LongitudeDegrees>
            </Position>
            <AltitudeMeters>83.59999847412109375</AltitudeMeters>
            <DistanceMeters>3926.9926907945</DistanceMeters>
          </Trackpoint>
          <Trackpoint>
            <Time>2020-02-15T08:32:31.000Z</Time>
            <Position>
              <LatitudeDegrees>41.97648382745683193206787109375</LatitudeDegrees>
              <LongitudeDegrees>2.82186283729970455169677734375</LongitudeDegrees>
            </Position>
            <AltitudeMeters>83.59999847412109375</AltitudeMeters>
            <DistanceMeters>3929.76642927</DistanceMeters>
          </Trackpoint>
          <Trackpoint>
            <Time>2020-02-15T08:32:32.000Z</Time>
            <Position>
              <LatitudeDegrees>41.97649338282644748687744140625</LatitudeDegrees>
              <LongitudeDegrees>2.82191446982324123382568359375</LongitudeDegrees>
            </Position>
            <AltitudeMeters>83.40000152587890625</AltitudeMeters>
            <DistanceMeters>3934.1685360439</DistanceMeters>
          </Trackpoint>
          <Trackpoint>
            <Time>2020-02-15T08:32:34.000Z</Time>
            <Position>
              <LatitudeDegrees>41.976488940417766571044921875</LatitudeDegrees>
              <LongitudeDegrees>2.82202142290771007537841796875</LongitudeDegrees>
            </Position>
            <AltitudeMeters>83.40000152587890625</AltitudeMeters>
            <DistanceMeters>3943.0320378948</DistanceMeters>
          </Trackpoint>
          <Trackpoint>
            <Time>2020-02-15T08:32:36.000Z</Time>
            <Position>
              <LatitudeDegrees>41.97648013941943645477294921875</LatitudeDegrees>
              <LongitudeDegrees>2.82212820835411548614501953125</LongitudeDegrees>
            </Position>
            <AltitudeMeters>83.40000152587890625</AltitudeMeters>
            <DistanceMeters>3951.9230046134</DistanceMeters>
          </Trackpoint>
          <Trackpoint>
            <Time>2020-02-15T08:32:37.000Z</Time>
            <Position>
              <LatitudeDegrees>41.97647108696401119232177734375</LatitudeDegrees>
              <LongitudeDegrees>2.82217883504927158355712890625</LongitudeDegrees>
            </Position>
            <AltitudeMeters>83.40000152587890625</AltitudeMeters>
            <DistanceMeters>3956.2318138652</DistanceMeters>
          </Trackpoint>
          <Trackpoint>
            <Time>2020-02-15T08:32:38.000Z</Time>
            <Position>
              <LatitudeDegrees>41.976458095014095306396484375</LatitudeDegrees>
              <LongitudeDegrees>2.82223147340118885040283203125</LongitudeDegrees>
            </Position>
            <AltitudeMeters>83.40000152587890625</AltitudeMeters>
            <DistanceMeters>3960.8207285809</DistanceMeters>
          </Trackpoint>
          <Trackpoint>
            <Time>2020-02-15T08:32:39.000Z</Time>
            <Position>
              <LatitudeDegrees>41.976447366178035736083984375</LatitudeDegrees>
              <LongitudeDegrees>2.82228528521955013275146484375</LongitudeDegrees>
            </Position>
            <AltitudeMeters>83.59999847412109375</AltitudeMeters>
            <DistanceMeters>3965.4312383086</DistanceMeters>
          </Trackpoint>
          <Trackpoint>
            <Time>2020-02-15T08:32:40.000Z</Time>
            <Position>
              <LatitudeDegrees>41.976444013416767120361328125</LatitudeDegrees>
              <LongitudeDegrees>2.82233230769634246826171875</LongitudeDegrees>
            </Position>
            <AltitudeMeters>83.40000152587890625</AltitudeMeters>
            <DistanceMeters>3969.3400602977</DistanceMeters>
          </Trackpoint>
          <Trackpoint>
            <Time>2020-02-15T08:32:41.000Z</Time>
            <Position>
              <LatitudeDegrees>41.97644040919840335845947265625</LatitudeDegrees>
              <LongitudeDegrees>2.8223814256489276885986328125</LongitudeDegrees>
            </Position>
            <AltitudeMeters>83.40000152587890625</AltitudeMeters>
            <DistanceMeters>3973.4228927846</DistanceMeters>
          </Trackpoint>
          <Trackpoint>
            <Time>2020-02-15T08:32:42.000Z</Time>
            <Position>
              <LatitudeDegrees>41.9764347933232784271240234375</LatitudeDegrees>
              <LongitudeDegrees>2.82242794521152973175048828125</LongitudeDegrees>
            </Position>
            <AltitudeMeters>83.40000152587890625</AltitudeMeters>
            <DistanceMeters>3977.3224631111</DistanceMeters>
          </Trackpoint>
          <Trackpoint>
            <Time>2020-02-15T08:32:43.000Z</Time>
            <Position>
              <LatitudeDegrees>41.97642800398170948028564453125</LatitudeDegrees>
              <LongitudeDegrees>2.822475135326385498046875</LongitudeDegrees>
            </Position>
            <AltitudeMeters>83.40000152587890625</AltitudeMeters>
            <DistanceMeters>3981.2988514037</DistanceMeters>
          </Trackpoint>
          <Trackpoint>
            <Time>2020-02-15T08:32:44.000Z</Time>
            <Position>
              <LatitudeDegrees>41.9764217175543308258056640625</LatitudeDegrees>
              <LongitudeDegrees>2.82251779921352863311767578125</LongitudeDegrees>
            </Position>
            <AltitudeMeters>83.40000152587890625</AltitudeMeters>
            <DistanceMeters>3984.8973413121</DistanceMeters>
          </Trackpoint>
          <Trackpoint>
            <Time>2020-02-15T08:32:45.000Z</Time>
            <Position>
              <LatitudeDegrees>41.9764187000691890716552734375</LatitudeDegrees>
              <LongitudeDegrees>2.82256138511002063751220703125</LongitudeDegrees>
            </Position>
            <AltitudeMeters>83.40000152587890625</AltitudeMeters>
            <DistanceMeters>3988.5195921417</DistanceMeters>
          </Trackpoint>
          <Trackpoint>
            <Time>2020-02-15T08:32:46.000Z</Time>
            <Position>
              <LatitudeDegrees>41.97642280720174312591552734375</LatitudeDegrees>
              <LongitudeDegrees>2.822606228291988372802734375</LongitudeDegrees>
            </Position>
            <AltitudeMeters>83.59999847412109375</AltitudeMeters>
            <DistanceMeters>3992.2583831676</DistanceMeters>
          </Trackpoint>
          <Trackpoint>
            <Time>2020-02-15T08:32:47.000Z</Time>
            <Position>
              <LatitudeDegrees>41.97641777805984020233154296875</LatitudeDegrees>
              <LongitudeDegrees>2.82263732515275478363037109375</LongitudeDegrees>
            </Position>
            <AltitudeMeters>83.40000152587890625</AltitudeMeters>
            <DistanceMeters>3994.8918407255</DistanceMeters>
          </Trackpoint>
          <Trackpoint>
            <Time>2020-02-15T08:32:48.000Z</Time>
            <Position>
              <LatitudeDegrees>41.97640285827219486236572265625</LatitudeDegrees>
              <LongitudeDegrees>2.8226623870432376861572265625</LongitudeDegrees>
            </Position>
            <AltitudeMeters>83.40000152587890625</AltitudeMeters>
            <DistanceMeters>3997.5491927494</DistanceMeters>
          </Trackpoint>
          <Trackpoint>
            <Time>2020-02-15T08:32:49.000Z</Time>
            <Position>
              <LatitudeDegrees>41.97638609446585178375244140625</LatitudeDegrees>
              <LongitudeDegrees>2.82268141396343708038330078125</LongitudeDegrees>
            </Position>
            <AltitudeMeters>83.40000152587890625</AltitudeMeters>
            <DistanceMeters>3999.9941693558</DistanceMeters>
          </Trackpoint>
          <Trackpoint>
            <Time>2020-02-15T08:32:50.000Z</Time>
            <Position>
              <LatitudeDegrees>41.97636631317436695098876953125</LatitudeDegrees>
              <LongitudeDegrees>2.822689712047576904296875</LongitudeDegrees>
            </Position>
            <AltitudeMeters>83.40000152587890625</AltitudeMeters>
            <DistanceMeters>4002.3004033044</DistanceMeters>
          </Trackpoint>
          <Trackpoint>
            <Time>2020-02-15T08:32:51.000Z</Time>
            <Position>
              <LatitudeDegrees>41.97634787298738956451416015625</LatitudeDegrees>
              <LongitudeDegrees>2.82268904149532318115234375</LongitudeDegrees>
            </Position>
            <AltitudeMeters>83.1999969482421875</AltitudeMeters>
            <DistanceMeters>4004.3517481371</DistanceMeters>
          </Trackpoint>
          <Trackpoint>
            <Time>2020-02-15T08:32:52.000Z</Time>
            <Position>
              <LatitudeDegrees>41.9763295166194438934326171875</LatitudeDegrees>
              <LongitudeDegrees>2.82268560491502285003662109375</LongitudeDegrees>
            </Position>
            <AltitudeMeters>83.1999969482421875</AltitudeMeters>
            <DistanceMeters>4006.414068676</DistanceMeters>
          </Trackpoint>
          <Trackpoint>
            <Time>2020-02-15T08:32:53.000Z</Time>
            <Position>
              <LatitudeDegrees>41.97631283663213253021240234375</LatitudeDegrees>
              <LongitudeDegrees>2.82268594019114971160888671875</LongitudeDegrees>
            </Position>
            <AltitudeMeters>83.1999969482421875</AltitudeMeters>
            <DistanceMeters>4008.2689161428</DistanceMeters>
          </Trackpoint>
          <Trackpoint>
            <Time>2020-02-15T08:32:54.000Z</Time>
            <Position>
              <LatitudeDegrees>41.9762993417680263519287109375</LatitudeDegrees>
              <LongitudeDegrees>2.822689376771450042724609375</LongitudeDegrees>
            </Position>
            <AltitudeMeters>83.40000152587890625</AltitudeMeters>
            <DistanceMeters>4009.7952711876</DistanceMeters>
          </Trackpoint>
          <Trackpoint>
            <Time>2020-02-15T08:32:55.000Z</Time>
            <Position>
              <LatitudeDegrees>41.9762862659990787506103515625</LatitudeDegrees>
              <LongitudeDegrees>2.8227017819881439208984375</LongitudeDegrees>
            </Position>
            <AltitudeMeters>83.40000152587890625</AltitudeMeters>
            <DistanceMeters>4011.5781303823</DistanceMeters>
          </Trackpoint>
          <Trackpoint>
            <Time>2020-02-15T08:32:56.000Z</Time>
            <Position>
              <LatitudeDegrees>41.97627662681043148040771484375</LatitudeDegrees>
              <LongitudeDegrees>2.8227232396602630615234375</LongitudeDegrees>
            </Position>
            <AltitudeMeters>83.1999969482421875</AltitudeMeters>
            <DistanceMeters>4013.6535451514</DistanceMeters>
          </Trackpoint>
          <Trackpoint>
            <Time>2020-02-15T08:32:57.000Z</Time>
            <Position>
              <LatitudeDegrees>41.97627042420208454132080078125</LatitudeDegrees>
              <LongitudeDegrees>2.8227606229484081268310546875</LongitudeDegrees>
            </Position>
            <AltitudeMeters>83.1999969482421875</AltitudeMeters>
            <DistanceMeters>4016.8223690666</DistanceMeters>
          </Trackpoint>
          <Trackpoint>
            <Time>2020-02-15T08:32:58.000Z</Time>
            <Position>
              <LatitudeDegrees>41.97626061737537384033203125</LatitudeDegrees>
              <LongitudeDegrees>2.8228216432034969329833984375</LongitudeDegrees>
            </Position>
            <AltitudeMeters>83.1999969482421875</AltitudeMeters>
            <DistanceMeters>4021.9888868463</DistanceMeters>
          </Trackpoint>
          <Trackpoint>
            <Time>2020-02-15T08:32:59.000Z</Time>
            <Position>
              <LatitudeDegrees>41.9762440212070941925048828125</LatitudeDegrees>
              <LongitudeDegrees>2.8228856809437274932861328125</LongitudeDegrees>
            </Position>
            <AltitudeMeters>83.1999969482421875</AltitudeMeters>
            <DistanceMeters>4027.599488105</DistanceMeters>
          </Trackpoint>
          <Trackpoint>
            <Time>2020-02-15T08:33:00.000Z</Time>
            <Position>
              <LatitudeDegrees>41.97622977197170257568359375</LatitudeDegrees>
              <LongitudeDegrees>2.8229594416916370391845703125</LongitudeDegrees>
            </Position>
            <AltitudeMeters>83.1999969482421875</AltitudeMeters>
            <DistanceMeters>4033.9049957438</DistanceMeters>
          </Trackpoint>
          <Trackpoint>
            <Time>2020-02-15T08:33:01.000Z</Time>
            <Position>
              <LatitudeDegrees>41.97621309198439121246337890625</LatitudeDegrees>
              <LongitudeDegrees>2.82303714193403720855712890625</LongitudeDegrees>
            </Position>
            <AltitudeMeters>83.1999969482421875</AltitudeMeters>
            <DistanceMeters>4040.5961181466</DistanceMeters>
          </Trackpoint>
          <Trackpoint>
            <Time>2020-02-15T08:33:02.000Z</Time>
            <Position>
              <LatitudeDegrees>41.976186521351337432861328125</LatitudeDegrees>
              <LongitudeDegrees>2.82311551272869110107421875</LongitudeDegrees>
            </Position>
            <AltitudeMeters>83.1999969482421875</AltitudeMeters>
            <DistanceMeters>4047.7224881847</DistanceMeters>
          </Trackpoint>
          <Trackpoint>
            <Time>2020-02-15T08:33:03.000Z</Time>
            <Position>
              <LatitudeDegrees>41.97614687494933605194091796875</LatitudeDegrees>
              <LongitudeDegrees>2.823176197707653045654296875</LongitudeDegrees>
            </Position>
            <AltitudeMeters>83.1999969482421875</AltitudeMeters>
            <DistanceMeters>4054.4068593777</DistanceMeters>
          </Trackpoint>
          <Trackpoint>
            <Time>2020-02-15T08:33:04.000Z</Time>
            <Position>
              <LatitudeDegrees>41.9760951586067676544189453125</LatitudeDegrees>
              <LongitudeDegrees>2.823215760290622711181640625</LongitudeDegrees>
            </Position>
            <AltitudeMeters>83.1999969482421875</AltitudeMeters>
            <DistanceMeters>4061.0287964969</DistanceMeters>
          </Trackpoint>
          <Trackpoint>
            <Time>2020-02-15T08:33:05.000Z</Time>
            <Position>
              <LatitudeDegrees>41.97604327462613582611083984375</LatitudeDegrees>
              <LongitudeDegrees>2.82324467785656452178955078125</LongitudeDegrees>
            </Position>
            <AltitudeMeters>83.1999969482421875</AltitudeMeters>
            <DistanceMeters>4067.2803699668</DistanceMeters>
          </Trackpoint>
          <Trackpoint>
            <Time>2020-02-15T08:33:06.000Z</Time>
            <Position>
              <LatitudeDegrees>41.9759922288358211517333984375</LatitudeDegrees>
              <LongitudeDegrees>2.8232746012508869171142578125</LongitudeDegrees>
            </Position>
            <AltitudeMeters>83.1999969482421875</AltitudeMeters>
            <DistanceMeters>4073.4782684165</DistanceMeters>
          </Trackpoint>
          <Trackpoint>
            <Time>2020-02-15T08:33:08.000Z</Time>
            <Position>
              <LatitudeDegrees>41.9758938252925872802734375</LatitudeDegrees>
              <LongitudeDegrees>2.8233336098492145538330078125</LongitudeDegrees>
            </Position>
            <AltitudeMeters>82.40000152587890625</AltitudeMeters>
            <DistanceMeters>4085.4697210931</DistanceMeters>
          </Trackpoint>
          <Trackpoint>
            <Time>2020-02-15T08:33:09.000Z</Time>
            <Position>
              <LatitudeDegrees>41.97584412060678005218505859375</LatitudeDegrees>
              <LongitudeDegrees>2.82335758209228515625</LongitudeDegrees>
            </Position>
            <AltitudeMeters>82</AltitudeMeters>
            <DistanceMeters>4091.3475669973</DistanceMeters>
          </Trackpoint>
          <Trackpoint>
            <Time>2020-02-15T08:33:10.000Z</Time>
            <Position>
              <LatitudeDegrees>41.9757937453687191009521484375</LatitudeDegrees>
              <LongitudeDegrees>2.8233782015740871429443359375</LongitudeDegrees>
            </Position>
            <AltitudeMeters>81.8000030517578125</AltitudeMeters>
            <DistanceMeters>4097.2084893473</DistanceMeters>
          </Trackpoint>
          <Trackpoint>
            <Time>2020-02-15T08:33:11.000Z</Time>
            <Position>
              <LatitudeDegrees>41.9757463037967681884765625</LatitudeDegrees>
              <LongitudeDegrees>2.8234053589403629302978515625</LongitudeDegrees>
            </Position>
            <AltitudeMeters>81.59999847412109375</AltitudeMeters>
            <DistanceMeters>4102.9464034905</DistanceMeters>
          </Trackpoint>
          <Trackpoint>
            <Time>2020-02-15T08:33:12.000Z</Time>
            <Position>
              <LatitudeDegrees>41.97570296935737133026123046875</LatitudeDegrees>
              <LongitudeDegrees>2.8234311752021312713623046875</LongitudeDegrees>
            </Position>
            <AltitudeMeters>81.59999847412109375</AltitudeMeters>
            <DistanceMeters>4108.2201721096</DistanceMeters>
          </Trackpoint>
          <Trackpoint>
            <Time>2020-02-15T08:33:13.000Z</Time>
            <Position>
              <LatitudeDegrees>41.97565988637506961822509765625</LatitudeDegrees>
              <LongitudeDegrees>2.82345749437808990478515625</LongitudeDegrees>
            </Position>
            <AltitudeMeters>81.40000152587890625</AltitudeMeters>
            <DistanceMeters>4113.4862299102</DistanceMeters>
          </Trackpoint>
          <Trackpoint>
            <Time>2020-02-15T08:33:14.000Z</Time>
            <Position>
              <LatitudeDegrees>41.97561688721179962158203125</LatitudeDegrees>
              <LongitudeDegrees>2.82348473556339740753173828125</LongitudeDegrees>
            </Position>
            <AltitudeMeters>81.1999969482421875</AltitudeMeters>
            <DistanceMeters>4118.7770934481</DistanceMeters>
          </Trackpoint>
          <Trackpoint>
            <Time>2020-02-15T08:33:15.000Z</Time>
            <Position>
              <LatitudeDegrees>41.9755714572966098785400390625</LatitudeDegrees>
              <LongitudeDegrees>2.823507785797119140625</LongitudeDegrees>
            </Position>
            <AltitudeMeters>81.40000152587890625</AltitudeMeters>
            <DistanceMeters>4124.1810981871</DistanceMeters>
          </Trackpoint>
          <Trackpoint>
            <Time>2020-02-15T08:33:16.000Z</Time>
            <Position>
              <LatitudeDegrees>41.97552342899143695831298828125</LatitudeDegrees>
              <LongitudeDegrees>2.8235196880996227264404296875</LongitudeDegrees>
            </Position>
            <AltitudeMeters>81.40000152587890625</AltitudeMeters>
            <DistanceMeters>4129.616759152</DistanceMeters>
          </Trackpoint>
          <Trackpoint>
            <Time>2020-02-15T08:33:17.000Z</Time>
            <Position>
              <LatitudeDegrees>41.97547749616205692291259765625</LatitudeDegrees>
              <LongitudeDegrees>2.8235149942338466644287109375</LongitudeDegrees>
            </Position>
            <AltitudeMeters>81.40000152587890625</AltitudeMeters>
            <DistanceMeters>4134.7446810122</DistanceMeters>
          </Trackpoint>
          <Trackpoint>
            <Time>2020-02-15T08:33:18.000Z</Time>
            <Position>
              <LatitudeDegrees>41.97543290443718433380126953125</LatitudeDegrees>
              <LongitudeDegrees>2.82350384630262851715087890625</LongitudeDegrees>
            </Position>
            <AltitudeMeters>81.40000152587890625</AltitudeMeters>
            <DistanceMeters>4139.7927376407</DistanceMeters>
          </Trackpoint>
          <Trackpoint>
            <Time>2020-02-15T08:33:19.000Z</Time>
            <Position>
              <LatitudeDegrees>41.975393928587436676025390625</LatitudeDegrees>
              <LongitudeDegrees>2.82348758541047573089599609375</LongitudeDegrees>
            </Position>
            <AltitudeMeters>81.40000152587890625</AltitudeMeters>
            <DistanceMeters>4144.3341795481</DistanceMeters>
          </Trackpoint>
          <Trackpoint>
            <Time>2020-02-15T08:33:20.000Z</Time>
            <Position>
              <LatitudeDegrees>41.975356042385101318359375</LatitudeDegrees>
              <LongitudeDegrees>2.8234797902405261993408203125</LongitudeDegrees>
            </Position>
            <AltitudeMeters>81.40000152587890625</AltitudeMeters>
            <DistanceMeters>4148.5998101034</DistanceMeters>
          </Trackpoint>
          <Trackpoint>
            <Time>2020-02-15T08:33:21.000Z</Time>
            <Position>
              <LatitudeDegrees>41.97531287558376789093017578125</LatitudeDegrees>
              <LongitudeDegrees>2.8234868310391902923583984375</LongitudeDegrees>
            </Position>
            <AltitudeMeters>81.40000152587890625</AltitudeMeters>
            <DistanceMeters>4153.4396467015</DistanceMeters>
          </Trackpoint>
          <Trackpoint>
            <Time>2020-02-15T08:33:22.000Z</Time>
            <Position>
              <LatitudeDegrees>41.97527247481048107147216796875</LatitudeDegrees>
              <LongitudeDegrees>2.8234935365617275238037109375</LongitudeDegrees>
            </Position>
            <AltitudeMeters>81.40000152587890625</AltitudeMeters>
            <DistanceMeters>4157.9711358423</DistanceMeters>
          </Trackpoint>
          <Trackpoint>
            <Time>2020-02-15T08:33:23.000Z</Time>
            <Position>
              <LatitudeDegrees>41.97523760609328746795654296875</LatitudeDegrees>
              <LongitudeDegrees>2.823515497148036956787109375</LongitudeDegrees>
            </Position>
            <AltitudeMeters>81.40000152587890625</AltitudeMeters>
            <DistanceMeters>4162.2568301253</DistanceMeters>
          </Trackpoint>
          <Trackpoint>
            <Time>2020-02-15T08:33:24.000Z</Time>
            <Position>
              <LatitudeDegrees>41.97520642541348934173583984375</LatitudeDegrees>
              <LongitudeDegrees>2.82355606555938720703125</LongitudeDegrees>
            </Position>
            <AltitudeMeters>81.1999969482421875</AltitudeMeters>
            <DistanceMeters>4167.0854590589</DistanceMeters>
          </Trackpoint>
          <Trackpoint>
            <Time>2020-02-15T08:33:25.000Z</Time>
            <Position>
              <LatitudeDegrees>41.975182034075260162353515625</LatitudeDegrees>
              <LongitudeDegrees>2.82360124401748180389404296875</LongitudeDegrees>
            </Position>
            <AltitudeMeters>81.1999969482421875</AltitudeMeters>
            <DistanceMeters>4171.7057513346</DistanceMeters>
          </Trackpoint>
          <Trackpoint>
            <Time>2020-02-15T08:33:26.000Z</Time>
            <Position>
              <LatitudeDegrees>41.97515680454671382904052734375</LatitudeDegrees>
              <LongitudeDegrees>2.8236512839794158935546875</LongitudeDegrees>
            </Position>
            <AltitudeMeters>81.40000152587890625</AltitudeMeters>
            <DistanceMeters>4176.7097899015</DistanceMeters>
          </Trackpoint>
          <Trackpoint>
            <Time>2020-02-15T08:33:27.000Z</Time>
            <Position>
              <LatitudeDegrees>41.97512880899012088775634765625</LatitudeDegrees>
              <LongitudeDegrees>2.82370652072131633758544921875</LongitudeDegrees>
            </Position>
            <AltitudeMeters>81.40000152587890625</AltitudeMeters>
            <DistanceMeters>4182.2417813213</DistanceMeters>
          </Trackpoint>
          <Trackpoint>
            <Time>2020-02-15T08:33:30.000Z</Time>
            <Position>
              <LatitudeDegrees>41.97502789087593555450439453125</LatitudeDegrees>
              <LongitudeDegrees>2.823869884014129638671875</LongitudeDegrees>
            </Position>
            <AltitudeMeters>81.40000152587890625</AltitudeMeters>
            <DistanceMeters>4199.8168430521</DistanceMeters>
          </Trackpoint>
          <Trackpoint>
            <Time>2020-02-15T08:33:31.000Z</Time>
            <Position>
              <LatitudeDegrees>41.9749927707016468048095703125</LatitudeDegrees>
              <LongitudeDegrees>2.82392042689025402069091796875</LongitudeDegrees>
            </Position>
            <AltitudeMeters>81.40000152587890625</AltitudeMeters>
            <DistanceMeters>4205.5413646404</DistanceMeters>
          </Trackpoint>
          <Trackpoint>
            <Time>2020-02-15T08:33:32.000Z</Time>
            <Position>
              <LatitudeDegrees>41.97495765052735805511474609375</LatitudeDegrees>
              <LongitudeDegrees>2.82396920956671237945556640625</LongitudeDegrees>
            </Position>
            <AltitudeMeters>81.40000152587890625</AltitudeMeters>
            <DistanceMeters>4211.1616144037</DistanceMeters>
          </Trackpoint>
          <Trackpoint>
            <Time>2020-02-15T08:33:33.000Z</Time>
            <Position>
              <LatitudeDegrees>41.97491951286792755126953125</LatitudeDegrees>
              <LongitudeDegrees>2.82401748932898044586181640625</LongitudeDegrees>
            </Position>
            <AltitudeMeters>81.59999847412109375</AltitudeMeters>
            <DistanceMeters>4216.991640796</DistanceMeters>
          </Trackpoint>
          <Trackpoint>
            <Time>2020-02-15T08:33:34.000Z</Time>
            <Position>
              <LatitudeDegrees>41.97488087229430675506591796875</LatitudeDegrees>
              <LongitudeDegrees>2.8240621648728847503662109375</LongitudeDegrees>
            </Position>
            <AltitudeMeters>81.40000152587890625</AltitudeMeters>
            <DistanceMeters>4222.6622758765</DistanceMeters>
          </Trackpoint>
          <Trackpoint>
            <Time>2020-02-15T08:33:36.000Z</Time>
            <Position>
              <LatitudeDegrees>41.97480308823287487030029296875</LatitudeDegrees>
              <LongitudeDegrees>2.8241422958672046661376953125</LongitudeDegrees>
            </Position>
            <AltitudeMeters>81.59999847412109375</AltitudeMeters>
            <DistanceMeters>4233.5667725001</DistanceMeters>
          </Trackpoint>
          <Trackpoint>
            <Time>2020-02-15T08:33:37.000Z</Time>
            <Position>
              <LatitudeDegrees>41.9747614301741123199462890625</LatitudeDegrees>
              <LongitudeDegrees>2.82417825423181056976318359375</LongitudeDegrees>
            </Position>
            <AltitudeMeters>81.59999847412109375</AltitudeMeters>
            <DistanceMeters>4239.0750441757</DistanceMeters>
          </Trackpoint>
          <Trackpoint>
            <Time>2020-02-15T08:33:38.000Z</Time>
            <Position>
              <LatitudeDegrees>41.97472102940082550048828125</LatitudeDegrees>
              <LongitudeDegrees>2.82421077601611614227294921875</LongitudeDegrees>
            </Position>
            <AltitudeMeters>81.59999847412109375</AltitudeMeters>
            <DistanceMeters>4244.3161788374</DistanceMeters>
          </Trackpoint>
          <Trackpoint>
            <Time>2020-02-15T08:33:39.000Z</Time>
            <Position>
              <LatitudeDegrees>41.97468305937945842742919921875</LatitudeDegrees>
              <LongitudeDegrees>2.82423826865851879119873046875</LongitudeDegrees>
            </Position>
            <AltitudeMeters>81.8000030517578125</AltitudeMeters>
            <DistanceMeters>4249.1157335052</DistanceMeters>
          </Trackpoint>
          <Trackpoint>
            <Time>2020-02-15T08:33:40.000Z</Time>
            <Position>
              <LatitudeDegrees>41.97464634664356708526611328125</LatitudeDegrees>
              <LongitudeDegrees>2.82426358200609683990478515625</LongitudeDegrees>
            </Position>
            <AltitudeMeters>81.8000030517578125</AltitudeMeters>
            <DistanceMeters>4253.708582139</DistanceMeters>
          </Trackpoint>
          <Trackpoint>
            <Time>2020-02-15T08:33:41.000Z</Time>
            <Position>
              <LatitudeDegrees>41.97461650706827640533447265625</LatitudeDegrees>
              <LongitudeDegrees>2.82428503967821598052978515625</LongitudeDegrees>
            </Position>
            <AltitudeMeters>81.8000030517578125</AltitudeMeters>
            <DistanceMeters>4257.4762445668</DistanceMeters>
          </Trackpoint>
          <Trackpoint>
            <Time>2020-02-15T08:33:42.000Z</Time>
            <Position>
              <LatitudeDegrees>41.97459085844457149505615234375</LatitudeDegrees>
              <LongitudeDegrees>2.82430096529424190521240234375</LongitudeDegrees>
            </Position>
            <AltitudeMeters>81.59999847412109375</AltitudeMeters>
            <DistanceMeters>4260.6221885877</DistanceMeters>
          </Trackpoint>
          <Trackpoint>
            <Time>2020-02-15T08:33:43.000Z</Time>
            <Position>
              <LatitudeDegrees>41.9745740108191967010498046875</LatitudeDegrees>
              <LongitudeDegrees>2.82431186176836490631103515625</LongitudeDegrees>
            </Position>
            <AltitudeMeters>81.8000030517578125</AltitudeMeters>
            <DistanceMeters>4262.7019497799</DistanceMeters>
          </Trackpoint>
          <Trackpoint>
            <Time>2020-02-15T08:33:44.000Z</Time>
            <Position>
              <LatitudeDegrees>41.97456143796443939208984375</LatitudeDegrees>
              <LongitudeDegrees>2.82432192005217075347900390625</LongitudeDegrees>
            </Position>
            <AltitudeMeters>81.59999847412109375</AltitudeMeters>
            <DistanceMeters>4264.3313185149</DistanceMeters>
          </Trackpoint>
          <Trackpoint>
            <Time>2020-02-15T08:33:45.000Z</Time>
            <Position>
              <LatitudeDegrees>41.97455339133739471435546875</LatitudeDegrees>
              <LongitudeDegrees>2.82432812266051769256591796875</LongitudeDegrees>
            </Position>
            <AltitudeMeters>81.8000030517578125</AltitudeMeters>
            <DistanceMeters>4265.3635728539</DistanceMeters>
          </Trackpoint>
          <Trackpoint>
            <Time>2020-02-15T08:33:46.000Z</Time>
            <Position>
              <LatitudeDegrees>41.9745411537587642669677734375</LatitudeDegrees>
              <LongitudeDegrees>2.8243379294872283935546875</LongitudeDegrees>
            </Position>
            <AltitudeMeters>81.59999847412109375</AltitudeMeters>
            <DistanceMeters>4266.9479848115</DistanceMeters>
          </Trackpoint>
          <Trackpoint>
            <Time>2020-02-15T08:33:47.000Z</Time>
            <Position>
              <LatitudeDegrees>41.97453302331268787384033203125</LatitudeDegrees>
              <LongitudeDegrees>2.82434798777103424072265625</LongitudeDegrees>
            </Position>
            <AltitudeMeters>81.8000030517578125</AltitudeMeters>
            <DistanceMeters>4268.179671802</DistanceMeters>
          </Trackpoint>
          <Trackpoint>
            <Time>2020-02-15T08:33:48.000Z</Time>
            <Position>
              <LatitudeDegrees>41.9745294190943241119384765625</LatitudeDegrees>
              <LongitudeDegrees>2.824365086853504180908203125</LongitudeDegrees>
            </Position>
            <AltitudeMeters>81.8000030517578125</AltitudeMeters>
            <DistanceMeters>4269.6518193308</DistanceMeters>
          </Trackpoint>
          <Trackpoint>
            <Time>2020-02-15T08:33:49.000Z</Time>
            <Position>
              <LatitudeDegrees>41.9745314307510852813720703125</LatitudeDegrees>
              <LongitudeDegrees>2.82439249567687511444091796875</LongitudeDegrees>
            </Position>
            <AltitudeMeters>81.8000030517578125</AltitudeMeters>
            <DistanceMeters>4271.9324604757</DistanceMeters>
          </Trackpoint>
          <Trackpoint>
            <Time>2020-02-15T08:33:50.000Z</Time>
            <Position>
              <LatitudeDegrees>41.97453369386494159698486328125</LatitudeDegrees>
              <LongitudeDegrees>2.82442652620375156402587890625</LongitudeDegrees>
            </Position>
            <AltitudeMeters>81.8000030517578125</AltitudeMeters>
            <DistanceMeters>4274.757807813</DistanceMeters>
          </Trackpoint>
          <Trackpoint>
            <Time>2020-02-15T08:33:51.000Z</Time>
            <Position>
              <LatitudeDegrees>41.97454056702554225921630859375</LatitudeDegrees>
              <LongitudeDegrees>2.8244613111019134521484375</LongitudeDegrees>
            </Position>
            <AltitudeMeters>81.8000030517578125</AltitudeMeters>
            <DistanceMeters>4277.7341318866</DistanceMeters>
          </Trackpoint>
          <Trackpoint>
            <Time>2020-02-15T08:33:52.000Z</Time>
            <Position>
              <LatitudeDegrees>41.97454744018614292144775390625</LatitudeDegrees>
              <LongitudeDegrees>2.824497520923614501953125</LongitudeDegrees>
            </Position>
            <AltitudeMeters>81.8000030517578125</AltitudeMeters>
            <DistanceMeters>4280.8250574564</DistanceMeters>
          </Trackpoint>
          <Trackpoint>
            <Time>2020-02-15T08:33:53.000Z</Time>
            <Position>
              <LatitudeDegrees>41.9745488651096820831298828125</LatitudeDegrees>
              <LongitudeDegrees>2.8245379216969013214111328125</LongitudeDegrees>
            </Position>
            <AltitudeMeters>81.8000030517578125</AltitudeMeters>
            <DistanceMeters>4284.1739908602</DistanceMeters>
          </Trackpoint>
          <Trackpoint>
            <Time>2020-02-15T08:33:54.000Z</Time>
            <Position>
              <LatitudeDegrees>41.97454475797712802886962890625</LatitudeDegrees>
              <LongitudeDegrees>2.82458092086017131805419921875</LongitudeDegrees>
            </Position>
            <AltitudeMeters>81.8000030517578125</AltitudeMeters>
            <DistanceMeters>4287.7611706623</DistanceMeters>
          </Trackpoint>
          <Trackpoint>
            <Time>2020-02-15T08:33:55.000Z</Time>
            <Position>
              <LatitudeDegrees>41.97453729808330535888671875</LatitudeDegrees>
              <LongitudeDegrees>2.8246264345943927764892578125</LongitudeDegrees>
            </Position>
            <AltitudeMeters>81.8000030517578125</AltitudeMeters>
            <DistanceMeters>4291.6188339421</DistanceMeters>
          </Trackpoint>
          <Trackpoint>
            <Time>2020-02-15T08:33:57.000Z</Time>
            <Position>
              <LatitudeDegrees>41.9745205342769622802734375</LatitudeDegrees>
              <LongitudeDegrees>2.824726514518260955810546875</LongitudeDegrees>
            </Position>
            <AltitudeMeters>81.8000030517578125</AltitudeMeters>
            <DistanceMeters>4300.1076507043</DistanceMeters>
          </Trackpoint>
          <Trackpoint>
            <Time>2020-02-15T08:33:58.000Z</Time>
            <Position>
              <LatitudeDegrees>41.97450486011803150177001953125</LatitudeDegrees>
              <LongitudeDegrees>2.82477739267051219940185546875</LongitudeDegrees>
            </Position>
            <AltitudeMeters>81.8000030517578125</AltitudeMeters>
            <DistanceMeters>4304.6649718276</DistanceMeters>
          </Trackpoint>
          <Trackpoint>
            <Time>2020-02-15T08:33:59.000Z</Time>
            <Position>
              <LatitudeDegrees>41.97448725812137126922607421875</LatitudeDegrees>
              <LongitudeDegrees>2.82482550479471683502197265625</LongitudeDegrees>
            </Position>
            <AltitudeMeters>81.8000030517578125</AltitudeMeters>
            <DistanceMeters>4309.1018137955</DistanceMeters>
          </Trackpoint>
          <Trackpoint>
            <Time>2020-02-15T08:34:02.000Z</Time>
            <Position>
              <LatitudeDegrees>41.974404864013195037841796875</LatitudeDegrees>
              <LongitudeDegrees>2.8249452821910381317138671875</LongitudeDegrees>
            </Position>
            <AltitudeMeters>81.8000030517578125</AltitudeMeters>
            <DistanceMeters>4322.6049728168</DistanceMeters>
          </Trackpoint>
          <Trackpoint>
            <Time>2020-02-15T08:34:03.000Z</Time>
            <Position>
              <LatitudeDegrees>41.97437410242855548858642578125</LatitudeDegrees>
              <LongitudeDegrees>2.82496950589120388031005859375</LongitudeDegrees>
            </Position>
            <AltitudeMeters>81.8000030517578125</AltitudeMeters>
            <DistanceMeters>4326.5734049151</DistanceMeters>
          </Trackpoint>
          <Trackpoint>
            <Time>2020-02-15T08:34:04.000Z</Time>
            <Position>
              <LatitudeDegrees>41.974339149892330169677734375</LatitudeDegrees>
              <LongitudeDegrees>2.82499247230589389801025390625</LongitudeDegrees>
            </Position>
            <AltitudeMeters>82</AltitudeMeters>
            <DistanceMeters>4330.9031206907</DistanceMeters>
          </Trackpoint>
          <Trackpoint>
            <Time>2020-02-15T08:34:06.000Z</Time>
            <Position>
              <LatitudeDegrees>41.97426564060151576995849609375</LatitudeDegrees>
              <LongitudeDegrees>2.825030274689197540283203125</LongitudeDegrees>
            </Position>
            <AltitudeMeters>82</AltitudeMeters>
            <DistanceMeters>4339.6620892069</DistanceMeters>
          </Trackpoint>
          <Trackpoint>
            <Time>2020-02-15T08:34:09.000Z</Time>
            <Position>
              <LatitudeDegrees>41.97414443828165531158447265625</LatitudeDegrees>
              <LongitudeDegrees>2.82506883144378662109375</LongitudeDegrees>
            </Position>
            <AltitudeMeters>82.1999969482421875</AltitudeMeters>
            <DistanceMeters>4353.5242689319</DistanceMeters>
          </Trackpoint>
          <Trackpoint>
            <Time>2020-02-15T08:34:10.000Z</Time>
            <Position>
              <LatitudeDegrees>41.97410621680319309234619140625</LatitudeDegrees>
              <LongitudeDegrees>2.8250917978584766387939453125</LongitudeDegrees>
            </Position>
            <AltitudeMeters>82.1999969482421875</AltitudeMeters>
            <DistanceMeters>4358.1844549633</DistanceMeters>
          </Trackpoint>
          <Trackpoint>
            <Time>2020-02-15T08:34:11.000Z</Time>
            <Position>
              <LatitudeDegrees>41.974071599543094635009765625</LatitudeDegrees>
              <LongitudeDegrees>2.8251283429563045501708984375</LongitudeDegrees>
            </Position>
            <AltitudeMeters>82.1999969482421875</AltitudeMeters>
            <DistanceMeters>4363.0836327707</DistanceMeters>
          </Trackpoint>
          <Trackpoint>
            <Time>2020-02-15T08:34:12.000Z</Time>
            <Position>
              <LatitudeDegrees>41.97404670529067516326904296875</LatitudeDegrees>
              <LongitudeDegrees>2.82517368905246257781982421875</LongitudeDegrees>
            </Position>
            <AltitudeMeters>82.1999969482421875</AltitudeMeters>
            <DistanceMeters>4367.7486605551</DistanceMeters>
          </Trackpoint>
          <Trackpoint>
            <Time>2020-02-15T08:34:13.000Z</Time>
            <Position>
              <LatitudeDegrees>41.97402843274176120758056640625</LatitudeDegrees>
              <LongitudeDegrees>2.8252284228801727294921875</LongitudeDegrees>
            </Position>
            <AltitudeMeters>82.40000152587890625</AltitudeMeters>
            <DistanceMeters>4372.7137495465</DistanceMeters>
          </Trackpoint>
          <Trackpoint>
            <Time>2020-02-15T08:34:16.000Z</Time>
            <Position>
              <LatitudeDegrees>41.97398367337882518768310546875</LatitudeDegrees>
              <LongitudeDegrees>2.82541793771088123321533203125</LongitudeDegrees>
            </Position>
            <AltitudeMeters>82.1999969482421875</AltitudeMeters>
            <DistanceMeters>4389.1673719984</DistanceMeters>
          </Trackpoint>
          <Trackpoint>
            <Time>2020-02-15T08:34:17.000Z</Time>
            <Position>
              <LatitudeDegrees>41.9739711843430995941162109375</LatitudeDegrees>
              <LongitudeDegrees>2.82548231072723865509033203125</LongitudeDegrees>
            </Position>
            <AltitudeMeters>82.40000152587890625</AltitudeMeters>
            <DistanceMeters>4394.6723639644</DistanceMeters>
          </Trackpoint>
          <Trackpoint>
            <Time>2020-02-15T08:34:18.000Z</Time>
            <Position>
              <LatitudeDegrees>41.97395534254610538482666015625</LatitudeDegrees>
              <LongitudeDegrees>2.82554735429584980010986328125</LongitudeDegrees>
            </Position>
            <AltitudeMeters>82.40000152587890625</AltitudeMeters>
            <DistanceMeters>4400.3358285868</DistanceMeters>
          </Trackpoint>
          <Trackpoint>
            <Time>2020-02-15T08:34:20.000Z</Time>
            <Position>
              <LatitudeDegrees>41.9739235751330852508544921875</LatitudeDegrees>
              <LongitudeDegrees>2.82567660324275493621826171875</LongitudeDegrees>
            </Position>
            <AltitudeMeters>82.40000152587890625</AltitudeMeters>
            <DistanceMeters>4411.6004028881</DistanceMeters>
          </Trackpoint>
          <Trackpoint>
            <Time>2020-02-15T08:34:25.000Z</Time>
            <Position>
              <LatitudeDegrees>41.9738499820232391357421875</LatitudeDegrees>
              <LongitudeDegrees>2.82601489685475826263427734375</LongitudeDegrees>
            </Position>
            <AltitudeMeters>82.59999847412109375</AltitudeMeters>
            <DistanceMeters>4440.7669484752</DistanceMeters>
          </Trackpoint>
          <Trackpoint>
            <Time>2020-02-15T08:34:29.000Z</Time>
            <Position>
              <LatitudeDegrees>41.9737921468913555145263671875</LatitudeDegrees>
              <LongitudeDegrees>2.8262947686016559600830078125</LongitudeDegrees>
            </Position>
            <AltitudeMeters>82.40000152587890625</AltitudeMeters>
            <DistanceMeters>4464.8036360805</DistanceMeters>
          </Trackpoint>
          <Trackpoint>
            <Time>2020-02-15T08:34:32.000Z</Time>
            <Position>
              <LatitudeDegrees>41.97374814189970493316650390625</LatitudeDegrees>
              <LongitudeDegrees>2.82650439999997615814208984375</LongitudeDegrees>
            </Position>
            <AltitudeMeters>82.40000152587890625</AltitudeMeters>
            <DistanceMeters>4482.8284279067</DistanceMeters>
          </Trackpoint>
          <Trackpoint>
            <Time>2020-02-15T08:34:33.000Z</Time>
            <Position>
              <LatitudeDegrees>41.97373188100755214691162109375</LatitudeDegrees>
              <LongitudeDegrees>2.82657396979629993438720703125</LongitudeDegrees>
            </Position>
            <AltitudeMeters>82.1999969482421875</AltitudeMeters>
            <DistanceMeters>4488.8624372059</DistanceMeters>
          </Trackpoint>
          <Trackpoint>
            <Time>2020-02-15T08:34:37.000Z</Time>
            <Position>
              <LatitudeDegrees>41.97367723099887371063232421875</LatitudeDegrees>
              <LongitudeDegrees>2.8268573619425296783447265625</LongitudeDegrees>
            </Position>
            <AltitudeMeters>82.1999969482421875</AltitudeMeters>
            <DistanceMeters>4513.088472548</DistanceMeters>
          </Trackpoint>
          <Trackpoint>
            <Time>2020-02-15T08:34:38.000Z</Time>
            <Position>
              <LatitudeDegrees>41.97366516105830669403076171875</LatitudeDegrees>
              <LongitudeDegrees>2.82692651264369487762451171875</LongitudeDegrees>
            </Position>
            <AltitudeMeters>82.1999969482421875</AltitudeMeters>
            <DistanceMeters>4518.9663184523</DistanceMeters>
          </Trackpoint>
          <Trackpoint>
            <Time>2020-02-15T08:34:39.000Z</Time>
            <Position>
              <LatitudeDegrees>41.97365426458418369293212890625</LatitudeDegrees>
              <LongitudeDegrees>2.82699507661163806915283203125</LongitudeDegrees>
            </Position>
            <AltitudeMeters>82.1999969482421875</AltitudeMeters>
            <DistanceMeters>4524.7683978195</DistanceMeters>
          </Trackpoint>
          <Trackpoint>
            <Time>2020-02-15T08:34:40.000Z</Time>
            <Position>
              <LatitudeDegrees>41.97364336811006069183349609375</LatitudeDegrees>
              <LongitudeDegrees>2.82706062309443950653076171875</LongitudeDegrees>
            </Position>
            <AltitudeMeters>82.1999969482421875</AltitudeMeters>
            <DistanceMeters>4530.3264452747</DistanceMeters>
          </Trackpoint>
          <Trackpoint>
            <Time>2020-02-15T08:34:41.000Z</Time>
            <Position>
              <LatitudeDegrees>41.9736325554549694061279296875</LatitudeDegrees>
              <LongitudeDegrees>2.82712407410144805908203125</LongitudeDegrees>
            </Position>
            <AltitudeMeters>82.1999969482421875</AltitudeMeters>
            <DistanceMeters>4535.7128759681</DistanceMeters>
          </Trackpoint>
          <Trackpoint>
            <Time>2020-02-15T08:34:42.000Z</Time>
            <Position>
              <LatitudeDegrees>41.97362191043794155120849609375</LatitudeDegrees>
              <LongitudeDegrees>2.82719037495553493499755859375</LongitudeDegrees>
            </Position>
            <AltitudeMeters>82.40000152587890625</AltitudeMeters>
            <DistanceMeters>4541.3250864628</DistanceMeters>
          </Trackpoint>
          <Trackpoint>
            <Time>2020-02-15T08:34:43.000Z</Time>
            <Position>
              <LatitudeDegrees>41.9736121036112308502197265625</LatitudeDegrees>
              <LongitudeDegrees>2.8272556699812412261962890625</LongitudeDegrees>
            </Position>
            <AltitudeMeters>82.1999969482421875</AltitudeMeters>
            <DistanceMeters>4546.8374550312</DistanceMeters>
          </Trackpoint>
          <Trackpoint>
            <Time>2020-02-15T08:34:44.000Z</Time>
            <Position>
              <LatitudeDegrees>41.9736040569841861724853515625</LatitudeDegrees>
              <LongitudeDegrees>2.82732121646404266357421875</LongitudeDegrees>
            </Position>
            <AltitudeMeters>82.1999969482421875</AltitudeMeters>
            <DistanceMeters>4552.334239162</DistanceMeters>
          </Trackpoint>
          <Trackpoint>
            <Time>2020-02-15T08:34:45.000Z</Time>
            <Position>
              <LatitudeDegrees>41.97359391488134860992431640625</LatitudeDegrees>
              <LongitudeDegrees>2.82738558948040008544921875</LongitudeDegrees>
            </Position>
            <AltitudeMeters>82.40000152587890625</AltitudeMeters>
            <DistanceMeters>4557.7790294211</DistanceMeters>
          </Trackpoint>
          <Trackpoint>
            <Time>2020-02-15T08:34:46.000Z</Time>
            <Position>
              <LatitudeDegrees>41.97358268313109874725341796875</LatitudeDegrees>
              <LongitudeDegrees>2.82744904048740863800048828125</LongitudeDegrees>
            </Position>
            <AltitudeMeters>82.40000152587890625</AltitudeMeters>
            <DistanceMeters>4563.177182502</DistanceMeters>
          </Trackpoint>
          <Trackpoint>
            <Time>2020-02-15T08:34:47.000Z</Time>
            <Position>
              <LatitudeDegrees>41.9735742174088954925537109375</LatitudeDegrees>
              <LongitudeDegrees>2.8275155089795589447021484375</LongitudeDegrees>
            </Position>
            <AltitudeMeters>82.40000152587890625</AltitudeMeters>
            <DistanceMeters>4568.7579291953</DistanceMeters>
          </Trackpoint>
          <Trackpoint>
            <Time>2020-02-15T08:34:48.000Z</Time>
            <Position>
              <LatitudeDegrees>41.97356591932475566864013671875</LatitudeDegrees>
              <LongitudeDegrees>2.82758197747170925140380859375</LongitudeDegrees>
            </Position>
            <AltitudeMeters>82.40000152587890625</AltitudeMeters>
            <DistanceMeters>4574.3354387964</DistanceMeters>
          </Trackpoint>
          <Trackpoint>
            <Time>2020-02-15T08:34:49.000Z</Time>
            <Position>
              <LatitudeDegrees>41.9735554419457912445068359375</LatitudeDegrees>
              <LongitudeDegrees>2.82764869742095470428466796875</LongitudeDegrees>
            </Position>
            <AltitudeMeters>82.59999847412109375</AltitudeMeters>
            <DistanceMeters>4579.9781375781</DistanceMeters>
          </Trackpoint>
          <Trackpoint>
            <Time>2020-02-15T08:34:53.000Z</Time>
            <Position>
              <LatitudeDegrees>41.97351160459220409393310546875</LatitudeDegrees>
              <LongitudeDegrees>2.827924378216266632080078125</LongitudeDegrees>
            </Position>
            <AltitudeMeters>83</AltitudeMeters>
            <DistanceMeters>4603.3059863177</DistanceMeters>
          </Trackpoint>
          <Trackpoint>
            <Time>2020-02-15T08:34:57.000Z</Time>
            <Position>
              <LatitudeDegrees>41.973486877977848052978515625</LatitudeDegrees>
              <LongitudeDegrees>2.8282192535698413848876953125</LongitudeDegrees>
            </Position>
            <AltitudeMeters>83.40000152587890625</AltitudeMeters>
            <DistanceMeters>4627.8611540898</DistanceMeters>
          </Trackpoint>
          <Trackpoint>
            <Time>2020-02-15T08:34:58.000Z</Time>
            <Position>
              <LatitudeDegrees>41.973480843007564544677734375</LatitudeDegrees>
              <LongitudeDegrees>2.82829192467033863067626953125</LongitudeDegrees>
            </Position>
            <AltitudeMeters>83.40000152587890625</AltitudeMeters>
            <DistanceMeters>4633.9116028256</DistanceMeters>
          </Trackpoint>
          <Trackpoint>
            <Time>2020-02-15T08:35:01.000Z</Time>
            <Position>
              <LatitudeDegrees>41.97346835397183895111083984375</LatitudeDegrees>
              <LongitudeDegrees>2.8285092674195766448974609375</LongitudeDegrees>
            </Position>
            <AltitudeMeters>83.40000152587890625</AltitudeMeters>
            <DistanceMeters>4651.9501663654</DistanceMeters>
          </Trackpoint>
          <Trackpoint>
            <Time>2020-02-15T08:35:02.000Z</Time>
            <Position>
              <LatitudeDegrees>41.97346516884863376617431640625</LatitudeDegrees>
              <LongitudeDegrees>2.82858042977750301361083984375</LongitudeDegrees>
            </Position>
            <AltitudeMeters>83.59999847412109375</AltitudeMeters>
            <DistanceMeters>4657.8494811235</DistanceMeters>
          </Trackpoint>
          <Trackpoint>
            <Time>2020-02-15T08:35:03.000Z</Time>
            <Position>
              <LatitudeDegrees>41.97346131317317485809326171875</LatitudeDegrees>
              <LongitudeDegrees>2.82865251414477825164794921875</LongitudeDegrees>
            </Position>
            <AltitudeMeters>83.8000030517578125</AltitudeMeters>
            <DistanceMeters>4663.8293726542</DistanceMeters>
          </Trackpoint>
          <Trackpoint>
            <Time>2020-02-15T08:35:04.000Z</Time>
            <Position>
              <LatitudeDegrees>41.97345745749771595001220703125</LatitudeDegrees>
              <LongitudeDegrees>2.82872426323592662811279296875</LongitudeDegrees>
            </Position>
            <AltitudeMeters>83.59999847412109375</AltitudeMeters>
            <DistanceMeters>4669.7820208015</DistanceMeters>
          </Trackpoint>
          <Trackpoint>
            <Time>2020-02-15T08:35:05.000Z</Time>
            <Position>
              <LatitudeDegrees>41.9734555296599864959716796875</LatitudeDegrees>
              <LongitudeDegrees>2.8287969343364238739013671875</LongitudeDegrees>
            </Position>
            <AltitudeMeters>83.59999847412109375</AltitudeMeters>
            <DistanceMeters>4675.7987953912</DistanceMeters>
          </Trackpoint>
          <Trackpoint>
            <Time>2020-02-15T08:35:06.000Z</Time>
            <Position>
              <LatitudeDegrees>41.97345460765063762664794921875</LatitudeDegrees>
              <LongitudeDegrees>2.82886876724660396575927734375</LongitudeDegrees>
            </Position>
            <AltitudeMeters>83.8000030517578125</AltitudeMeters>
            <DistanceMeters>4681.7438537763</DistanceMeters>
          </Trackpoint>
          <Trackpoint>
            <Time>2020-02-15T08:35:07.000Z</Time>
            <Position>
              <LatitudeDegrees>41.97345343418419361114501953125</LatitudeDegrees>
              <LongitudeDegrees>2.82894127070903778076171875</LongitudeDegrees>
            </Position>
            <AltitudeMeters>84</AltitudeMeters>
            <DistanceMeters>4687.7448490986</DistanceMeters>
          </Trackpoint>
          <Trackpoint>
            <Time>2020-02-15T08:35:08.000Z</Time>
            <Position>
              <LatitudeDegrees>41.973451338708400726318359375</LatitudeDegrees>
              <LongitudeDegrees>2.8290130198001861572265625</LongitudeDegrees>
            </Position>
            <AltitudeMeters>84</AltitudeMeters>
            <DistanceMeters>4693.6861089666</DistanceMeters>
          </Trackpoint>
          <Trackpoint>
            <Time>2020-02-15T08:35:09.000Z</Time>
            <Position>
              <LatitudeDegrees>41.9734498299658298492431640625</LatitudeDegrees>
              <LongitudeDegrees>2.82908384688198566436767578125</LongitudeDegrees>
            </Position>
            <AltitudeMeters>84.1999969482421875</AltitudeMeters>
            <DistanceMeters>4699.5485718404</DistanceMeters>
          </Trackpoint>
          <Trackpoint>
            <Time>2020-02-15T08:35:10.000Z</Time>
            <Position>
              <LatitudeDegrees>41.97344924323260784149169921875</LatitudeDegrees>
              <LongitudeDegrees>2.8291536681354045867919921875</LongitudeDegrees>
            </Position>
            <AltitudeMeters>84.1999969482421875</AltitudeMeters>
            <DistanceMeters>4705.3272587751</DistanceMeters>
          </Trackpoint>
          <Trackpoint>
            <Time>2020-02-15T08:35:11.000Z</Time>
            <Position>
              <LatitudeDegrees>41.97344832122325897216796875</LatitudeDegrees>
              <LongitudeDegrees>2.82922298647463321685791015625</LongitudeDegrees>
            </Position>
            <AltitudeMeters>84.40000152587890625</AltitudeMeters>
            <DistanceMeters>4711.0651729183</DistanceMeters>
          </Trackpoint>
          <Trackpoint>
            <Time>2020-02-15T08:35:12.000Z</Time>
            <Position>
              <LatitudeDegrees>41.97344689629971981048583984375</LatitudeDegrees>
              <LongitudeDegrees>2.82929222099483013153076171875</LongitudeDegrees>
            </Position>
            <AltitudeMeters>84.59999847412109375</AltitudeMeters>
            <DistanceMeters>4716.7967885808</DistanceMeters>
          </Trackpoint>
          <Trackpoint>
            <Time>2020-02-15T08:35:13.000Z</Time>
            <Position>
              <LatitudeDegrees>41.9734448008239269256591796875</LatitudeDegrees>
              <LongitudeDegrees>2.8293605335056781768798828125</LongitudeDegrees>
            </Position>
            <AltitudeMeters>84.8000030517578125</AltitudeMeters>
            <DistanceMeters>4722.4554678499</DistanceMeters>
          </Trackpoint>
          <Trackpoint>
            <Time>2020-02-15T08:35:14.000Z</Time>
            <Position>
              <LatitudeDegrees>41.97344304062426090240478515625</LatitudeDegrees>
              <LongitudeDegrees>2.8294292651116847991943359375</LongitudeDegrees>
            </Position>
            <AltitudeMeters>85</AltitudeMeters>
            <DistanceMeters>4728.1459734626</DistanceMeters>
          </Trackpoint>
          <Trackpoint>
            <Time>2020-02-15T08:35:15.000Z</Time>
            <Position>
              <LatitudeDegrees>41.97343985550105571746826171875</LatitudeDegrees>
              <LongitudeDegrees>2.82949942164123058319091796875</LongitudeDegrees>
            </Position>
            <AltitudeMeters>85.1999969482421875</AltitudeMeters>
            <DistanceMeters>4733.9620431285</DistanceMeters>
          </Trackpoint>
          <Trackpoint>
            <Time>2020-02-15T08:35:16.000Z</Time>
            <Position>
              <LatitudeDegrees>41.9734391011297702789306640625</LatitudeDegrees>
              <LongitudeDegrees>2.82956647686660289764404296875</LongitudeDegrees>
            </Position>
            <AltitudeMeters>85</AltitudeMeters>
            <DistanceMeters>4739.5111476215</DistanceMeters>
          </Trackpoint>
          <Trackpoint>
            <Time>2020-02-15T08:35:17.000Z</Time>
            <Position>
              <LatitudeDegrees>41.973438262939453125</LatitudeDegrees>
              <LongitudeDegrees>2.8296331129968166351318359375</LongitudeDegrees>
            </Position>
            <AltitudeMeters>85.40000152587890625</AltitudeMeters>
            <DistanceMeters>4745.0259728647</DistanceMeters>
          </Trackpoint>
          <Trackpoint>
            <Time>2020-02-15T08:35:18.000Z</Time>
            <Position>
              <LatitudeDegrees>41.97343667037785053253173828125</LatitudeDegrees>
              <LongitudeDegrees>2.829697988927364349365234375</LongitudeDegrees>
            </Position>
            <AltitudeMeters>85.59999847412109375</AltitudeMeters>
            <DistanceMeters>4750.3972943258</DistanceMeters>
          </Trackpoint>
          <Trackpoint>
            <Time>2020-02-15T08:35:19.000Z</Time>
            <Position>
              <LatitudeDegrees>41.973435916006565093994140625</LatitudeDegrees>
              <LongitudeDegrees>2.82976563088595867156982421875</LongitudeDegrees>
            </Position>
            <AltitudeMeters>85.8000030517578125</AltitudeMeters>
            <DistanceMeters>4755.9950050419</DistanceMeters>
          </Trackpoint>
          <Trackpoint>
            <Time>2020-02-15T08:35:20.000Z</Time>
            <Position>
              <LatitudeDegrees>41.97343314997851848602294921875</LatitudeDegrees>
              <LongitudeDegrees>2.82983402721583843231201171875</LongitudeDegrees>
            </Position>
            <AltitudeMeters>85.8000030517578125</AltitudeMeters>
            <DistanceMeters>4761.6624543721</DistanceMeters>
          </Trackpoint>
          <Trackpoint>
            <Time>2020-02-15T08:35:21.000Z</Time>
            <Position>
              <LatitudeDegrees>41.97342954576015472412109375</LatitudeDegrees>
              <LongitudeDegrees>2.82990225590765476226806640625</LongitudeDegrees>
            </Position>
            <AltitudeMeters>86.1999969482421875</AltitudeMeters>
            <DistanceMeters>4767.3227292085</DistanceMeters>
          </Trackpoint>
          <Trackpoint>
            <Time>2020-02-15T08:35:22.000Z</Time>
            <Position>
              <LatitudeDegrees>41.97342728264629840850830078125</LatitudeDegrees>
              <LongitudeDegrees>2.8299710713326930999755859375</LongitudeDegrees>
            </Position>
            <AltitudeMeters>86.1999969482421875</AltitudeMeters>
            <DistanceMeters>4773.0227480721</DistanceMeters>
          </Trackpoint>
          <Trackpoint>
            <Time>2020-02-15T08:35:23.000Z</Time>
            <Position>
              <LatitudeDegrees>41.97342577390372753143310546875</LatitudeDegrees>
              <LongitudeDegrees>2.83003787510097026824951171875</LongitudeDegrees>
            </Position>
            <AltitudeMeters>86.59999847412109375</AltitudeMeters>
            <DistanceMeters>4778.5531069136</DistanceMeters>
          </Trackpoint>
          <Trackpoint>
            <Time>2020-02-15T08:35:24.000Z</Time>
            <Position>
              <LatitudeDegrees>41.97342493571341037750244140625</LatitudeDegrees>
              <LongitudeDegrees>2.83010627143085002899169921875</LongitudeDegrees>
            </Position>
            <AltitudeMeters>86.59999847412109375</AltitudeMeters>
            <DistanceMeters>4784.2133817499</DistanceMeters>
          </Trackpoint>
          <Trackpoint>
            <Time>2020-02-15T08:35:25.000Z</Time>
            <Position>
              <LatitudeDegrees>41.9734240137040615081787109375</LatitudeDegrees>
              <LongitudeDegrees>2.83017382957041263580322265625</LongitudeDegrees>
            </Position>
            <AltitudeMeters>86.8000030517578125</AltitudeMeters>
            <DistanceMeters>4789.8046360501</DistanceMeters>
          </Trackpoint>
          <Trackpoint>
            <Time>2020-02-15T08:35:26.000Z</Time>
            <Position>
              <LatitudeDegrees>41.97342108003795146942138671875</LatitudeDegrees>
              <LongitudeDegrees>2.83024172298610210418701171875</LongitudeDegrees>
            </Position>
            <AltitudeMeters>86.8000030517578125</AltitudeMeters>
            <DistanceMeters>4795.431308958</DistanceMeters>
          </Trackpoint>
          <Trackpoint>
            <Time>2020-02-15T08:35:27.000Z</Time>
            <Position>
              <LatitudeDegrees>41.973417811095714569091796875</LatitudeDegrees>
              <LongitudeDegrees>2.83030986785888671875</LongitudeDegrees>
            </Position>
            <AltitudeMeters>86.8000030517578125</AltitudeMeters>
            <DistanceMeters>4801.0820036326</DistanceMeters>
          </Trackpoint>
          <Trackpoint>
            <Time>2020-02-15T08:35:28.000Z</Time>
            <Position>
              <LatitudeDegrees>41.973414458334445953369140625</LatitudeDegrees>
              <LongitudeDegrees>2.8303782641887664794921875</LongitudeDegrees>
            </Position>
            <AltitudeMeters>87</AltitudeMeters>
            <DistanceMeters>4806.7542309174</DistanceMeters>
          </Trackpoint>
          <Trackpoint>
            <Time>2020-02-15T08:35:29.000Z</Time>
            <Position>
              <LatitudeDegrees>41.9734109379351139068603515625</LatitudeDegrees>
              <LongitudeDegrees>2.8304464928805828094482421875</LongitudeDegrees>
            </Position>
            <AltitudeMeters>87</AltitudeMeters>
            <DistanceMeters>4812.4145057537</DistanceMeters>
          </Trackpoint>
          <Trackpoint>
            <Time>2020-02-15T08:35:30.000Z</Time>
            <Position>
              <LatitudeDegrees>41.97340783663094043731689453125</LatitudeDegrees>
              <LongitudeDegrees>2.83051832579076290130615234375</LongitudeDegrees>
            </Position>
            <AltitudeMeters>87.1999969482421875</AltitudeMeters>
            <DistanceMeters>4818.3694289434</DistanceMeters>
          </Trackpoint>
          <Trackpoint>
            <Time>2020-02-15T08:35:31.000Z</Time>
            <Position>
              <LatitudeDegrees>41.97340414859354496002197265625</LatitudeDegrees>
              <LongitudeDegrees>2.8305896557867527008056640625</LongitudeDegrees>
            </Position>
            <AltitudeMeters>87.40000152587890625</AltitudeMeters>
            <DistanceMeters>4824.2855574323</DistanceMeters>
          </Trackpoint>
          <Trackpoint>
            <Time>2020-02-15T08:35:32.000Z</Time>
            <Position>
              <LatitudeDegrees>41.97340079583227634429931640625</LatitudeDegrees>
              <LongitudeDegrees>2.830661237239837646484375</LongitudeDegrees>
            </Position>
            <AltitudeMeters>87.40000152587890625</AltitudeMeters>
            <DistanceMeters>4830.2207346165</DistanceMeters>
          </Trackpoint>
          <Trackpoint>
            <Time>2020-02-15T08:35:35.000Z</Time>
            <Position>
              <LatitudeDegrees>41.9733770750463008880615234375</LatitudeDegrees>
              <LongitudeDegrees>2.83091864548623561859130859375</LongitudeDegrees>
            </Position>
            <AltitudeMeters>87.8000030517578125</AltitudeMeters>
            <DistanceMeters>4851.6837334683</DistanceMeters>
          </Trackpoint>
          <Trackpoint>
            <Time>2020-02-15T08:35:37.000Z</Time>
            <Position>
              <LatitudeDegrees>41.97334966622292995452880859375</LatitudeDegrees>
              <LongitudeDegrees>2.83109768293797969818115234375</LongitudeDegrees>
            </Position>
            <AltitudeMeters>87.59999847412109375</AltitudeMeters>
            <DistanceMeters>4866.8100045533</DistanceMeters>
          </Trackpoint>
          <Trackpoint>
            <Time>2020-02-15T08:35:38.000Z</Time>
            <Position>
              <LatitudeDegrees>41.973329968750476837158203125</LatitudeDegrees>
              <LongitudeDegrees>2.83118762075901031494140625</LongitudeDegrees>
            </Position>
            <AltitudeMeters>87.59999847412109375</AltitudeMeters>
            <DistanceMeters>4874.5696791424</DistanceMeters>
          </Trackpoint>
          <Trackpoint>
            <Time>2020-02-15T08:35:39.000Z</Time>
            <Position>
              <LatitudeDegrees>41.97330825962126255035400390625</LatitudeDegrees>
              <LongitudeDegrees>2.831275127828121185302734375</LongitudeDegrees>
            </Position>
            <AltitudeMeters>87.59999847412109375</AltitudeMeters>
            <DistanceMeters>4882.2038204411</DistanceMeters>
          </Trackpoint>
          <Trackpoint>
            <Time>2020-02-15T08:35:40.000Z</Time>
            <Position>
              <LatitudeDegrees>41.97328470647335052490234375</LatitudeDegrees>
              <LongitudeDegrees>2.8313638083636760711669921875</LongitudeDegrees>
            </Position>
            <AltitudeMeters>87.59999847412109375</AltitudeMeters>
            <DistanceMeters>4889.9965904291</DistanceMeters>
          </Trackpoint>
          <Trackpoint>
            <Time>2020-02-15T08:35:43.000Z</Time>
            <Position>
              <LatitudeDegrees>41.9732035696506500244140625</LatitudeDegrees>
              <LongitudeDegrees>2.831621803343296051025390625</LongitudeDegrees>
            </Position>
            <AltitudeMeters>87.40000152587890625</AltitudeMeters>
            <DistanceMeters>4913.1768766379</DistanceMeters>
          </Trackpoint>
          <Trackpoint>
            <Time>2020-02-15T08:35:46.000Z</Time>
            <Position>
              <LatitudeDegrees>41.97311145253479480743408203125</LatitudeDegrees>
              <LongitudeDegrees>2.8318727575242519378662109375</LongitudeDegrees>
            </Position>
            <AltitudeMeters>86.8000030517578125</AltitudeMeters>
            <DistanceMeters>4936.3361171364</DistanceMeters>
          </Trackpoint>
          <Trackpoint>
            <Time>2020-02-15T08:35:47.000Z</Time>
            <Position>
              <LatitudeDegrees>41.9730803556740283966064453125</LatitudeDegrees>
              <LongitudeDegrees>2.83195096068084239959716796875</LongitudeDegrees>
            </Position>
            <AltitudeMeters>86.40000152587890625</AltitudeMeters>
            <DistanceMeters>4943.6747393444</DistanceMeters>
          </Trackpoint>
          <Trackpoint>
            <Time>2020-02-15T08:35:48.000Z</Time>
            <Position>
              <LatitudeDegrees>41.97304590605199337005615234375</LatitudeDegrees>
              <LongitudeDegrees>2.83202715218067169189453125</LongitudeDegrees>
            </Position>
            <AltitudeMeters>86</AltitudeMeters>
            <DistanceMeters>4951.0538558875</DistanceMeters>
          </Trackpoint>
          <Trackpoint>
            <Time>2020-02-15T08:35:49.000Z</Time>
            <Position>
              <LatitudeDegrees>41.97301019914448261260986328125</LatitudeDegrees>
              <LongitudeDegrees>2.832101918756961822509765625</LongitudeDegrees>
            </Position>
            <AltitudeMeters>86</AltitudeMeters>
            <DistanceMeters>4958.4072291098</DistanceMeters>
          </Trackpoint>
          <Trackpoint>
            <Time>2020-02-15T08:35:50.000Z</Time>
            <Position>
              <LatitudeDegrees>41.9729750789701938629150390625</LatitudeDegrees>
              <LongitudeDegrees>2.8321780264377593994140625</LongitudeDegrees>
            </Position>
            <AltitudeMeters>85.59999847412109375</AltitudeMeters>
            <DistanceMeters>4965.8199219512</DistanceMeters>
          </Trackpoint>
          <Trackpoint>
            <Time>2020-02-15T08:35:52.000Z</Time>
            <Position>
              <LatitudeDegrees>41.97290140204131603240966796875</LatitudeDegrees>
              <LongitudeDegrees>2.83232890069484710693359375</LongitudeDegrees>
            </Position>
            <AltitudeMeters>85.40000152587890625</AltitudeMeters>
            <DistanceMeters>4980.7569607735</DistanceMeters>
          </Trackpoint>
          <Trackpoint>
            <Time>2020-02-15T08:35:53.000Z</Time>
            <Position>
              <LatitudeDegrees>41.97286519221961498260498046875</LatitudeDegrees>
              <LongitudeDegrees>2.83239905722439289093017578125</LongitudeDegrees>
            </Position>
            <AltitudeMeters>85.1999969482421875</AltitudeMeters>
            <DistanceMeters>4987.8235244883</DistanceMeters>
          </Trackpoint>
          <Trackpoint>
            <Time>2020-02-15T08:35:54.000Z</Time>
            <Position>
              <LatitudeDegrees>41.9728305749595165252685546875</LatitudeDegrees>
              <LongitudeDegrees>2.8324663639068603515625</LongitudeDegrees>
            </Position>
            <AltitudeMeters>85.40000152587890625</AltitudeMeters>
            <DistanceMeters>4994.595803149</DistanceMeters>
          </Trackpoint>
          <Trackpoint>
            <Time>2020-02-15T08:35:55.000Z</Time>
            <Position>
              <LatitudeDegrees>41.97279696352779865264892578125</LatitudeDegrees>
              <LongitudeDegrees>2.83253249712288379669189453125</LongitudeDegrees>
            </Position>
            <AltitudeMeters>85.1999969482421875</AltitudeMeters>
            <DistanceMeters>5001.224555066</DistanceMeters>
          </Trackpoint>
          <Trackpoint>
            <Time>2020-02-15T08:35:56.000Z</Time>
            <Position>
              <LatitudeDegrees>41.972762010991573333740234375</LatitudeDegrees>
              <LongitudeDegrees>2.83259837888181209564208984375</LongitudeDegrees>
            </Position>
            <AltitudeMeters>85.1999969482421875</AltitudeMeters>
            <DistanceMeters>5007.9210735361</DistanceMeters>
          </Trackpoint>
          <Trackpoint>
            <Time>2020-02-15T08:35:57.000Z</Time>
            <Position>
              <LatitudeDegrees>41.97272789664566516876220703125</LatitudeDegrees>
              <LongitudeDegrees>2.83266291953623294830322265625</LongitudeDegrees>
            </Position>
            <AltitudeMeters>85.1999969482421875</AltitudeMeters>
            <DistanceMeters>5014.4737839288</DistanceMeters>
          </Trackpoint>
          <Trackpoint>
            <Time>2020-02-15T08:35:58.000Z</Time>
            <Position>
              <LatitudeDegrees>41.9726967997848987579345703125</LatitudeDegrees>
              <LongitudeDegrees>2.8327267058193683624267578125</LongitudeDegrees>
            </Position>
            <AltitudeMeters>85.1999969482421875</AltitudeMeters>
            <DistanceMeters>5020.7857326985</DistanceMeters>
          </Trackpoint>
          <Trackpoint>
            <Time>2020-02-15T08:35:59.000Z</Time>
            <Position>
              <LatitudeDegrees>41.9726657867431640625</LatitudeDegrees>
              <LongitudeDegrees>2.83278948627412319183349609375</LongitudeDegrees>
            </Position>
            <AltitudeMeters>85.1999969482421875</AltitudeMeters>
            <DistanceMeters>5027.0242925862</DistanceMeters>
          </Trackpoint>
          <Trackpoint>
            <Time>2020-02-15T08:36:00.000Z</Time>
            <Position>
              <LatitudeDegrees>41.9726324267685413360595703125</LatitudeDegrees>
              <LongitudeDegrees>2.83285100944340229034423828125</LongitudeDegrees>
            </Position>
            <AltitudeMeters>85.1999969482421875</AltitudeMeters>
            <DistanceMeters>5033.324785904</DistanceMeters>
          </Trackpoint>
          <Trackpoint>
            <Time>2020-02-15T08:36:01.000Z</Time>
            <Position>
              <LatitudeDegrees>41.9726022519171237945556640625</LatitudeDegrees>
              <LongitudeDegrees>2.83291454426944255828857421875</LongitudeDegrees>
            </Position>
            <AltitudeMeters>85.1999969482421875</AltitudeMeters>
            <DistanceMeters>5039.562622019</DistanceMeters>
          </Trackpoint>
          <Trackpoint>
            <Time>2020-02-15T08:36:03.000Z</Time>
            <Position>
              <LatitudeDegrees>41.97253628633916378021240234375</LatitudeDegrees>
              <LongitudeDegrees>2.83303960226476192474365234375</LongitudeDegrees>
            </Position>
            <AltitudeMeters>85.40000152587890625</AltitudeMeters>
            <DistanceMeters>5052.2510905207</DistanceMeters>
          </Trackpoint>
          <Trackpoint>
            <Time>2020-02-15T08:36:04.000Z</Time>
            <Position>
              <LatitudeDegrees>41.97250728495419025421142578125</LatitudeDegrees>
              <LongitudeDegrees>2.8330995328724384307861328125</LongitudeDegrees>
            </Position>
            <AltitudeMeters>85.8000030517578125</AltitudeMeters>
            <DistanceMeters>5058.1679821348</DistanceMeters>
          </Trackpoint>
          <Trackpoint>
            <Time>2020-02-15T08:36:05.000Z</Time>
            <Position>
              <LatitudeDegrees>41.97248096577823162078857421875</LatitudeDegrees>
              <LongitudeDegrees>2.8331612236797809600830078125</LongitudeDegrees>
            </Position>
            <AltitudeMeters>85.8000030517578125</AltitudeMeters>
            <DistanceMeters>5064.0542715701</DistanceMeters>
          </Trackpoint>
          <Trackpoint>
            <Time>2020-02-15T08:36:06.000Z</Time>
            <Position>
              <LatitudeDegrees>41.9724547304213047027587890625</LatitudeDegrees>
              <LongitudeDegrees>2.833223752677440643310546875</LongitudeDegrees>
            </Position>
            <AltitudeMeters>86</AltitudeMeters>
            <DistanceMeters>5069.9962913358</DistanceMeters>
          </Trackpoint>
          <Trackpoint>
            <Time>2020-02-15T08:36:07.000Z</Time>
            <Position>
              <LatitudeDegrees>41.972428075969219207763671875</LatitudeDegrees>
              <LongitudeDegrees>2.83328888006508350372314453125</LongitudeDegrees>
            </Position>
            <AltitudeMeters>86.1999969482421875</AltitudeMeters>
            <DistanceMeters>5076.1481244265</DistanceMeters>
          </Trackpoint>
          <Trackpoint>
            <Time>2020-02-15T08:36:08.000Z</Time>
            <Position>
              <LatitudeDegrees>41.97240184061229228973388671875</LatitudeDegrees>
              <LongitudeDegrees>2.83335593529045581817626953125</LongitudeDegrees>
            </Position>
            <AltitudeMeters>86</AltitudeMeters>
            <DistanceMeters>5082.4177275049</DistanceMeters>
          </Trackpoint>
          <Trackpoint>
            <Time>2020-02-15T08:36:11.000Z</Time>
            <Position>
              <LatitudeDegrees>41.972329504787921905517578125</LatitudeDegrees>
              <LongitudeDegrees>2.83355860970914363861083984375</LongitudeDegrees>
            </Position>
            <AltitudeMeters>86.40000152587890625</AltitudeMeters>
            <DistanceMeters>5101.0211333703</DistanceMeters>
          </Trackpoint>
          <Trackpoint>
            <Time>2020-02-15T08:36:12.000Z</Time>
            <Position>
              <LatitudeDegrees>41.97230880148708820343017578125</LatitudeDegrees>
              <LongitudeDegrees>2.833625413477420806884765625</LongitudeDegrees>
            </Position>
            <AltitudeMeters>86.40000152587890625</AltitudeMeters>
            <DistanceMeters>5107.010078489</DistanceMeters>
          </Trackpoint>
          <Trackpoint>
            <Time>2020-02-15T08:36:13.000Z</Time>
            <Position>
              <LatitudeDegrees>41.972287930548191070556640625</LatitudeDegrees>
              <LongitudeDegrees>2.8336923010647296905517578125</LongitudeDegrees>
            </Position>
            <AltitudeMeters>86.40000152587890625</AltitudeMeters>
            <DistanceMeters>5113.0125783859</DistanceMeters>
          </Trackpoint>
          <Trackpoint>
            <Time>2020-02-15T08:36:16.000Z</Time>
            <Position>
              <LatitudeDegrees>41.9722153432667255401611328125</LatitudeDegrees>
              <LongitudeDegrees>2.83389086835086345672607421875</LongitudeDegrees>
            </Position>
            <AltitudeMeters>86.59999847412109375</AltitudeMeters>
            <DistanceMeters>5131.3229218619</DistanceMeters>
          </Trackpoint>
          <Trackpoint>
            <Time>2020-02-15T08:36:17.000Z</Time>
            <Position>
              <LatitudeDegrees>41.97219346649944782257080078125</LatitudeDegrees>
              <LongitudeDegrees>2.83395566046237945556640625</LongitudeDegrees>
            </Position>
            <AltitudeMeters>86.8000030517578125</AltitudeMeters>
            <DistanceMeters>5137.2115119771</DistanceMeters>
          </Trackpoint>
          <Trackpoint>
            <Time>2020-02-15T08:36:18.000Z</Time>
            <Position>
              <LatitudeDegrees>41.97217158973217010498046875</LatitudeDegrees>
              <LongitudeDegrees>2.83402045257389545440673828125</LongitudeDegrees>
            </Position>
            <AltitudeMeters>86.8000030517578125</AltitudeMeters>
            <DistanceMeters>5143.1001020923</DistanceMeters>
          </Trackpoint>
          <Trackpoint>
            <Time>2020-02-15T08:36:19.000Z</Time>
            <Position>
              <LatitudeDegrees>41.9721513055264949798583984375</LatitudeDegrees>
              <LongitudeDegrees>2.83408666960895061492919921875</LongitudeDegrees>
            </Position>
            <AltitudeMeters>86.8000030517578125</AltitudeMeters>
            <DistanceMeters>5149.0269053932</DistanceMeters>
          </Trackpoint>
          <Trackpoint>
            <Time>2020-02-15T08:36:20.000Z</Time>
            <Position>
              <LatitudeDegrees>41.9721321947872638702392578125</LatitudeDegrees>
              <LongitudeDegrees>2.83415389247238636016845703125</LongitudeDegrees>
            </Position>
            <AltitudeMeters>87</AltitudeMeters>
            <DistanceMeters>5154.9818285829</DistanceMeters>
          </Trackpoint>
          <Trackpoint>
            <Time>2020-02-15T08:36:22.000Z</Time>
            <Position>
              <LatitudeDegrees>41.97209858335554599761962890625</LatitudeDegrees>
              <LongitudeDegrees>2.83428817056119441986083984375</LongitudeDegrees>
            </Position>
            <AltitudeMeters>86.8000030517578125</AltitudeMeters>
            <DistanceMeters>5166.7067543303</DistanceMeters>
          </Trackpoint>
          <Trackpoint>
            <Time>2020-02-15T08:36:23.000Z</Time>
            <Position>
              <LatitudeDegrees>41.97207964025437831878662109375</LatitudeDegrees>
              <LongitudeDegrees>2.8343534655869007110595703125</LongitudeDegrees>
            </Position>
            <AltitudeMeters>87</AltitudeMeters>
            <DistanceMeters>5172.5072771369</DistanceMeters>
          </Trackpoint>
          <Trackpoint>
            <Time>2020-02-15T08:36:25.000Z</Time>
            <Position>
              <LatitudeDegrees>41.9720423407852649688720703125</LatitudeDegrees>
              <LongitudeDegrees>2.8344865702092647552490234375</LongitudeDegrees>
            </Position>
            <AltitudeMeters>87.1999969482421875</AltitudeMeters>
            <DistanceMeters>5184.2783218211</DistanceMeters>
          </Trackpoint>
          <Trackpoint>
            <Time>2020-02-15T08:36:28.000Z</Time>
            <Position>
              <LatitudeDegrees>41.97199716232717037200927734375</LatitudeDegrees>
              <LongitudeDegrees>2.8346860595047473907470703125</LongitudeDegrees>
            </Position>
            <AltitudeMeters>87.40000152587890625</AltitudeMeters>
            <DistanceMeters>5201.5350266331</DistanceMeters>
          </Trackpoint>
          <Trackpoint>
            <Time>2020-02-15T08:36:29.000Z</Time>
            <Position>
              <LatitudeDegrees>41.971976794302463531494140625</LatitudeDegrees>
              <LongitudeDegrees>2.83475135453045368194580078125</LongitudeDegrees>
            </Position>
            <AltitudeMeters>87.40000152587890625</AltitudeMeters>
            <DistanceMeters>5207.3944080544</DistanceMeters>
          </Trackpoint>
          <Trackpoint>
            <Time>2020-02-15T08:36:30.000Z</Time>
            <Position>
              <LatitudeDegrees>41.97195474989712238311767578125</LatitudeDegrees>
              <LongitudeDegrees>2.83481606282293796539306640625</LongitudeDegrees>
            </Position>
            <AltitudeMeters>87.40000152587890625</AltitudeMeters>
            <DistanceMeters>5213.2845314569</DistanceMeters>
          </Trackpoint>
          <Trackpoint>
            <Time>2020-02-15T08:36:31.000Z</Time>
            <Position>
              <LatitudeDegrees>41.9719320349395275115966796875</LatitudeDegrees>
              <LongitudeDegrees>2.8348798491060733795166015625</LongitudeDegrees>
            </Position>
            <AltitudeMeters>87.59999847412109375</AltitudeMeters>
            <DistanceMeters>5219.1362021479</DistanceMeters>
          </Trackpoint>
          <Trackpoint>
            <Time>2020-02-15T08:36:32.000Z</Time>
            <Position>
              <LatitudeDegrees>41.9719075597822666168212890625</LatitudeDegrees>
              <LongitudeDegrees>2.834942042827606201171875</LongitudeDegrees>
            </Position>
            <AltitudeMeters>87.59999847412109375</AltitudeMeters>
            <DistanceMeters>5224.9584789337</DistanceMeters>
          </Trackpoint>
          <Trackpoint>
            <Time>2020-02-15T08:36:33.000Z</Time>
            <Position>
              <LatitudeDegrees>41.97188283316791057586669921875</LatitudeDegrees>
              <LongitudeDegrees>2.8350039012730121612548828125</LongitudeDegrees>
            </Position>
            <AltitudeMeters>87.8000030517578125</AltitudeMeters>
            <DistanceMeters>5230.7691119306</DistanceMeters>
          </Trackpoint>
          <Trackpoint>
            <Time>2020-02-15T08:36:34.000Z</Time>
            <Position>
              <LatitudeDegrees>41.97185550816357135772705078125</LatitudeDegrees>
              <LongitudeDegrees>2.8350655920803546905517578125</LongitudeDegrees>
            </Position>
            <AltitudeMeters>87.8000030517578125</AltitudeMeters>
            <DistanceMeters>5236.7111316963</DistanceMeters>
          </Trackpoint>
          <Trackpoint>
            <Time>2020-02-15T08:36:36.000Z</Time>
            <Position>
              <LatitudeDegrees>41.9717972539365291595458984375</LatitudeDegrees>
              <LongitudeDegrees>2.83518369309604167938232421875</LongitudeDegrees>
            </Position>
            <AltitudeMeters>88</AltitudeMeters>
            <DistanceMeters>5248.4391376817</DistanceMeters>
          </Trackpoint>
          <Trackpoint>
            <Time>2020-02-15T08:36:38.000Z</Time>
            <Position>
              <LatitudeDegrees>41.9717305339872837066650390625</LatitudeDegrees>
              <LongitudeDegrees>2.835294418036937713623046875</LongitudeDegrees>
            </Position>
            <AltitudeMeters>88.1999969482421875</AltitudeMeters>
            <DistanceMeters>5260.2331742062</DistanceMeters>
          </Trackpoint>
          <Trackpoint>
            <Time>2020-02-15T08:36:39.000Z</Time>
            <Position>
              <LatitudeDegrees>41.971697509288787841796875</LatitudeDegrees>
              <LongitudeDegrees>2.835345380008220672607421875</LongitudeDegrees>
            </Position>
            <AltitudeMeters>88.40000152587890625</AltitudeMeters>
            <DistanceMeters>5265.8268505357</DistanceMeters>
          </Trackpoint>
          <Trackpoint>
            <Time>2020-02-15T08:36:40.000Z</Time>
            <Position>
              <LatitudeDegrees>41.97166197001934051513671875</LatitudeDegrees>
              <LongitudeDegrees>2.83539391122758388519287109375</LongitudeDegrees>
            </Position>
            <AltitudeMeters>88.40000152587890625</AltitudeMeters>
            <DistanceMeters>5271.4647463384</DistanceMeters>
          </Trackpoint>
          <Trackpoint>
            <Time>2020-02-15T08:36:41.000Z</Time>
            <Position>
              <LatitudeDegrees>41.9716279394924640655517578125</LatitudeDegrees>
              <LongitudeDegrees>2.8354397602379322052001953125</LongitudeDegrees>
            </Position>
            <AltitudeMeters>88.59999847412109375</AltitudeMeters>
            <DistanceMeters>5276.8268134209</DistanceMeters>
          </Trackpoint>
          <Trackpoint>
            <Time>2020-02-15T08:36:42.000Z</Time>
            <Position>
              <LatitudeDegrees>41.9715937413275241851806640625</LatitudeDegrees>
              <LongitudeDegrees>2.8354851901531219482421875</LongitudeDegrees>
            </Position>
            <AltitudeMeters>88.59999847412109375</AltitudeMeters>
            <DistanceMeters>5282.1770790524</DistanceMeters>
          </Trackpoint>
          <Trackpoint>
            <Time>2020-02-15T08:36:44.000Z</Time>
            <Position>
              <LatitudeDegrees>41.97151335887610912322998046875</LatitudeDegrees>
              <LongitudeDegrees>2.835571356117725372314453125</LongitudeDegrees>
            </Position>
            <AltitudeMeters>88.59999847412109375</AltitudeMeters>
            <DistanceMeters>5293.6174430317</DistanceMeters>
          </Trackpoint>
          <Trackpoint>
            <Time>2020-02-15T08:36:47.000Z</Time>
            <Position>
              <LatitudeDegrees>41.97138302028179168701171875</LatitudeDegrees>
              <LongitudeDegrees>2.83569565974175930023193359375</LongitudeDegrees>
            </Position>
            <AltitudeMeters>88.8000030517578125</AltitudeMeters>
            <DistanceMeters>5311.4011537608</DistanceMeters>
          </Trackpoint>
          <Trackpoint>
            <Time>2020-02-15T08:36:48.000Z</Time>
            <Position>
              <LatitudeDegrees>41.97133742272853851318359375</LatitudeDegrees>
              <LongitudeDegrees>2.83573304302990436553955078125</LongitudeDegrees>
            </Position>
            <AltitudeMeters>88.8000030517578125</AltitudeMeters>
            <DistanceMeters>5317.3446930304</DistanceMeters>
          </Trackpoint>
          <Trackpoint>
            <Time>2020-02-15T08:36:49.000Z</Time>
            <Position>
              <LatitudeDegrees>41.97128989733755588531494140625</LatitudeDegrees>
              <LongitudeDegrees>2.8357668220996856689453125</LongitudeDegrees>
            </Position>
            <AltitudeMeters>89</AltitudeMeters>
            <DistanceMeters>5323.327603946</DistanceMeters>
          </Trackpoint>
          <Trackpoint>
            <Time>2020-02-15T08:36:50.000Z</Time>
            <Position>
              <LatitudeDegrees>41.97123910300433635711669921875</LatitudeDegrees>
              <LongitudeDegrees>2.8357961587607860565185546875</LongitudeDegrees>
            </Position>
            <AltitudeMeters>89</AltitudeMeters>
            <DistanceMeters>5329.4809047293</DistanceMeters>
          </Trackpoint>
          <Trackpoint>
            <Time>2020-02-15T08:36:51.000Z</Time>
            <Position>
              <LatitudeDegrees>41.9711897335946559906005859375</LatitudeDegrees>
              <LongitudeDegrees>2.83582272939383983612060546875</LongitudeDegrees>
            </Position>
            <AltitudeMeters>89.1999969482421875</AltitudeMeters>
            <DistanceMeters>5335.4000851288</DistanceMeters>
          </Trackpoint>
          <Trackpoint>
            <Time>2020-02-15T08:36:52.000Z</Time>
            <Position>
              <LatitudeDegrees>41.9711407832801342010498046875</LatitudeDegrees>
              <LongitudeDegrees>2.83584720455110073089599609375</LongitudeDegrees>
            </Position>
            <AltitudeMeters>89.1999969482421875</AltitudeMeters>
            <DistanceMeters>5341.2114951041</DistanceMeters>
          </Trackpoint>
          <Trackpoint>
            <Time>2020-02-15T08:36:53.000Z</Time>
            <Position>
              <LatitudeDegrees>41.97108990512788295745849609375</LatitudeDegrees>
              <LongitudeDegrees>2.83587067387998104095458984375</LongitudeDegrees>
            </Position>
            <AltitudeMeters>89.1999969482421875</AltitudeMeters>
            <DistanceMeters>5347.1974238816</DistanceMeters>
          </Trackpoint>
          <Trackpoint>
            <Time>2020-02-15T08:36:54.000Z</Time>
            <Position>
              <LatitudeDegrees>41.9710388593375682830810546875</LatitudeDegrees>
              <LongitudeDegrees>2.83589330501854419708251953125</LongitudeDegrees>
            </Position>
            <AltitudeMeters>89.40000152587890625</AltitudeMeters>
            <DistanceMeters>5353.1803347972</DistanceMeters>
          </Trackpoint>
          <Trackpoint>
            <Time>2020-02-15T08:36:55.000Z</Time>
            <Position>
              <LatitudeDegrees>41.97098731063306331634521484375</LatitudeDegrees>
              <LongitudeDegrees>2.83591358922421932220458984375</LongitudeDegrees>
            </Position>
            <AltitudeMeters>89.59999847412109375</AltitudeMeters>
            <DistanceMeters>5359.1587160635</DistanceMeters>
          </Trackpoint>
          <Trackpoint>
            <Time>2020-02-15T08:36:56.000Z</Time>
            <Position>
              <LatitudeDegrees>41.970938779413700103759765625</LatitudeDegrees>
              <LongitudeDegrees>2.83592867664992809295654296875</LongitudeDegrees>
            </Position>
            <AltitudeMeters>89.59999847412109375</AltitudeMeters>
            <DistanceMeters>5364.702936497</DistanceMeters>
          </Trackpoint>
          <Trackpoint>
            <Time>2020-02-15T08:36:57.000Z</Time>
            <Position>
              <LatitudeDegrees>41.970887482166290283203125</LatitudeDegrees>
              <LongitudeDegrees>2.835937477648258209228515625</LongitudeDegrees>
            </Position>
            <AltitudeMeters>89.8000030517578125</AltitudeMeters>
            <DistanceMeters>5370.4597047352</DistanceMeters>
          </Trackpoint>
          <Trackpoint>
            <Time>2020-02-15T08:36:58.000Z</Time>
            <Position>
              <LatitudeDegrees>41.9708366878330707550048828125</LatitudeDegrees>
              <LongitudeDegrees>2.83594259060919284820556640625</LongitudeDegrees>
            </Position>
            <AltitudeMeters>89.8000030517578125</AltitudeMeters>
            <DistanceMeters>5376.129543546</DistanceMeters>
          </Trackpoint>
          <Trackpoint>
            <Time>2020-02-15T08:36:59.000Z</Time>
            <Position>
              <LatitudeDegrees>41.9707847200334072113037109375</LatitudeDegrees>
              <LongitudeDegrees>2.8359460271894931793212890625</LongitudeDegrees>
            </Position>
            <AltitudeMeters>89.8000030517578125</AltitudeMeters>
            <DistanceMeters>5381.9207182035</DistanceMeters>
          </Trackpoint>
          <Trackpoint>
            <Time>2020-02-15T08:37:02.000Z</Time>
            <Position>
              <LatitudeDegrees>41.970613896846771240234375</LatitudeDegrees>
              <LongitudeDegrees>2.8359591029584407806396484375</LongitudeDegrees>
            </Position>
            <AltitudeMeters>90</AltitudeMeters>
            <DistanceMeters>5400.9645080086</DistanceMeters>
          </Trackpoint>
          <Trackpoint>
            <Time>2020-02-15T08:37:06.000Z</Time>
            <Position>
              <LatitudeDegrees>41.97037182748317718505859375</LatitudeDegrees>
              <LongitudeDegrees>2.83596270717680454254150390625</LongitudeDegrees>
            </Position>
            <AltitudeMeters>90</AltitudeMeters>
            <DistanceMeters>5427.9092319095</DistanceMeters>
          </Trackpoint>
          <Trackpoint>
            <Time>2020-02-15T08:37:10.000Z</Time>
            <Position>
              <LatitudeDegrees>41.9701054506003856658935546875</LatitudeDegrees>
              <LongitudeDegrees>2.83596823923289775848388671875</LongitudeDegrees>
            </Position>
            <AltitudeMeters>90</AltitudeMeters>
            <DistanceMeters>5457.5609169045</DistanceMeters>
          </Trackpoint>
          <Trackpoint>
            <Time>2020-02-15T08:37:13.000Z</Time>
            <Position>
              <LatitudeDegrees>41.96990084834396839141845703125</LatitudeDegrees>
              <LongitudeDegrees>2.83597159199416637420654296875</LongitudeDegrees>
            </Position>
            <AltitudeMeters>89.59999847412109375</AltitudeMeters>
            <DistanceMeters>5480.335036003</DistanceMeters>
          </Trackpoint>
          <Trackpoint>
            <Time>2020-02-15T08:37:16.000Z</Time>
            <Position>
              <LatitudeDegrees>41.96969012729823589324951171875</LatitudeDegrees>
              <LongitudeDegrees>2.8359751962125301361083984375</LongitudeDegrees>
            </Position>
            <AltitudeMeters>89</AltitudeMeters>
            <DistanceMeters>5503.7906629915</DistanceMeters>
          </Trackpoint>
          <Trackpoint>
            <Time>2020-02-15T08:37:19.000Z</Time>
            <Position>
              <LatitudeDegrees>41.9694778136909008026123046875</LatitudeDegrees>
              <LongitudeDegrees>2.835982739925384521484375</LongitudeDegrees>
            </Position>
            <AltitudeMeters>88.8000030517578125</AltitudeMeters>
            <DistanceMeters>5527.4299787739</DistanceMeters>
          </Trackpoint>
          <Trackpoint>
            <Time>2020-02-15T08:37:21.000Z</Time>
            <Position>
              <LatitudeDegrees>41.9693390093743801116943359375</LatitudeDegrees>
              <LongitudeDegrees>2.83600260503590106964111328125</LongitudeDegrees>
            </Position>
            <AltitudeMeters>88.40000152587890625</AltitudeMeters>
            <DistanceMeters>5542.9661927061</DistanceMeters>
          </Trackpoint>
          <Trackpoint>
            <Time>2020-02-15T08:37:22.000Z</Time>
            <Position>
              <LatitudeDegrees>41.96927203796803951263427734375</LatitudeDegrees>
              <LongitudeDegrees>2.83602322451770305633544921875</LongitudeDegrees>
            </Position>
            <AltitudeMeters>88.1999969482421875</AltitudeMeters>
            <DistanceMeters>5550.6121533977</DistanceMeters>
          </Trackpoint>
          <Trackpoint>
            <Time>2020-02-15T08:37:23.000Z</Time>
            <Position>
              <LatitudeDegrees>41.969206742942333221435546875</LatitudeDegrees>
              <LongitudeDegrees>2.83605105243623256683349609375</LongitudeDegrees>
            </Position>
            <AltitudeMeters>88</AltitudeMeters>
            <DistanceMeters>5558.2356415753</DistanceMeters>
          </Trackpoint>
          <Trackpoint>
            <Time>2020-02-15T08:37:24.000Z</Time>
            <Position>
              <LatitudeDegrees>41.96914312429726123809814453125</LatitudeDegrees>
              <LongitudeDegrees>2.83608608879148960113525390625</LongitudeDegrees>
            </Position>
            <AltitudeMeters>87.8000030517578125</AltitudeMeters>
            <DistanceMeters>5565.886915037</DistanceMeters>
          </Trackpoint>
          <Trackpoint>
            <Time>2020-02-15T08:37:25.000Z</Time>
            <Position>
              <LatitudeDegrees>41.9690828584134578704833984375</LatitudeDegrees>
              <LongitudeDegrees>2.836129926145076751708984375</LongitudeDegrees>
            </Position>
            <AltitudeMeters>87.8000030517578125</AltitudeMeters>
            <DistanceMeters>5573.5115876297</DistanceMeters>
          </Trackpoint>
          <Trackpoint>
            <Time>2020-02-15T08:37:26.000Z</Time>
            <Position>
              <LatitudeDegrees>41.9690258614718914031982421875</LatitudeDegrees>
              <LongitudeDegrees>2.8361807204782962799072265625</LongitudeDegrees>
            </Position>
            <AltitudeMeters>87.40000152587890625</AltitudeMeters>
            <DistanceMeters>5581.1220350746</DistanceMeters>
          </Trackpoint>
          <Trackpoint>
            <Time>2020-02-15T08:37:27.000Z</Time>
            <Position>
              <LatitudeDegrees>41.96896961890161037445068359375</LatitudeDegrees>
              <LongitudeDegrees>2.83622941933572292327880859375</LongitudeDegrees>
            </Position>
            <AltitudeMeters>87.1999969482421875</AltitudeMeters>
            <DistanceMeters>5588.566939991</DistanceMeters>
          </Trackpoint>
          <Trackpoint>
            <Time>2020-02-15T08:37:28.000Z</Time>
            <Position>
              <LatitudeDegrees>41.9689095206558704376220703125</LatitudeDegrees>
              <LongitudeDegrees>2.8362675569951534271240234375</LongitudeDegrees>
            </Position>
            <AltitudeMeters>87.1999969482421875</AltitudeMeters>
            <DistanceMeters>5595.9631689691</DistanceMeters>
          </Trackpoint>
          <Trackpoint>
            <Time>2020-02-15T08:37:29.000Z</Time>
            <Position>
              <LatitudeDegrees>41.968845985829830169677734375</LatitudeDegrees>
              <LongitudeDegrees>2.8362863324582576751708984375</LongitudeDegrees>
            </Position>
            <AltitudeMeters>87</AltitudeMeters>
            <DistanceMeters>5603.2039302436</DistanceMeters>
          </Trackpoint>
          <Trackpoint>
            <Time>2020-02-15T08:37:30.000Z</Time>
            <Position>
              <LatitudeDegrees>41.96878119371831417083740234375</LatitudeDegrees>
              <LongitudeDegrees>2.83628423698246479034423828125</LongitudeDegrees>
            </Position>
            <AltitudeMeters>87</AltitudeMeters>
            <DistanceMeters>5610.4172027651</DistanceMeters>
          </Trackpoint>
          <Trackpoint>
            <Time>2020-02-15T08:37:31.000Z</Time>
            <Position>
              <LatitudeDegrees>41.9687215983867645263671875</LatitudeDegrees>
              <LongitudeDegrees>2.836265377700328826904296875</LongitudeDegrees>
            </Position>
            <AltitudeMeters>87</AltitudeMeters>
            <DistanceMeters>5617.2320162733</DistanceMeters>
          </Trackpoint>
          <Trackpoint>
            <Time>2020-02-15T08:37:32.000Z</Time>
            <Position>
              <LatitudeDegrees>41.9686620868742465972900390625</LatitudeDegrees>
              <LongitudeDegrees>2.8362387232482433319091796875</LongitudeDegrees>
            </Position>
            <AltitudeMeters>87</AltitudeMeters>
            <DistanceMeters>5624.2137318679</DistanceMeters>
          </Trackpoint>
          <Trackpoint>
            <Time>2020-02-15T08:37:33.000Z</Time>
            <Position>
              <LatitudeDegrees>41.96860031224787235260009765625</LatitudeDegrees>
              <LongitudeDegrees>2.83621273934841156005859375</LongitudeDegrees>
            </Position>
            <AltitudeMeters>87</AltitudeMeters>
            <DistanceMeters>5631.4176092491</DistanceMeters>
          </Trackpoint>
          <Trackpoint>
            <Time>2020-02-15T08:37:35.000Z</Time>
            <Position>
              <LatitudeDegrees>41.96848447434604167938232421875</LatitudeDegrees>
              <LongitudeDegrees>2.8361790440976619720458984375</LongitudeDegrees>
            </Position>
            <AltitudeMeters>87</AltitudeMeters>
            <DistanceMeters>5644.6085357897</DistanceMeters>
          </Trackpoint>
          <Trackpoint>
            <Time>2020-02-15T08:37:36.000Z</Time>
            <Position>
              <LatitudeDegrees>41.9684357754886150360107421875</LatitudeDegrees>
              <LongitudeDegrees>2.83617661334574222564697265625</LongitudeDegrees>
            </Position>
            <AltitudeMeters>86.8000030517578125</AltitudeMeters>
            <DistanceMeters>5650.0325554296</DistanceMeters>
          </Trackpoint>
          <Trackpoint>
            <Time>2020-02-15T08:37:37.000Z</Time>
            <Position>
              <LatitudeDegrees>41.96838489733636379241943359375</LatitudeDegrees>
              <LongitudeDegrees>2.83618725836277008056640625</LongitudeDegrees>
            </Position>
            <AltitudeMeters>87</AltitudeMeters>
            <DistanceMeters>5655.7633832954</DistanceMeters>
          </Trackpoint>
          <Trackpoint>
            <Time>2020-02-15T08:37:38.000Z</Time>
            <Position>
              <LatitudeDegrees>41.96834349073469638824462890625</LatitudeDegrees>
              <LongitudeDegrees>2.836209721863269805908203125</LongitudeDegrees>
            </Position>
            <AltitudeMeters>87</AltitudeMeters>
            <DistanceMeters>5660.7321083831</DistanceMeters>
          </Trackpoint>
          <Trackpoint>
            <Time>2020-02-15T08:37:39.000Z</Time>
            <Position>
              <LatitudeDegrees>41.9683066941797733306884765625</LatitudeDegrees>
              <LongitudeDegrees>2.83624048344790935516357421875</LongitudeDegrees>
            </Position>
            <AltitudeMeters>87</AltitudeMeters>
            <DistanceMeters>5665.5551237179</DistanceMeters>
          </Trackpoint>
          <Trackpoint>
            <Time>2020-02-15T08:37:40.000Z</Time>
            <Position>
              <LatitudeDegrees>41.96827006526291370391845703125</LatitudeDegrees>
              <LongitudeDegrees>2.836276106536388397216796875</LongitudeDegrees>
            </Position>
            <AltitudeMeters>87</AltitudeMeters>
            <DistanceMeters>5670.5852603161</DistanceMeters>
          </Trackpoint>
          <Trackpoint>
            <Time>2020-02-15T08:37:41.000Z</Time>
            <Position>
              <LatitudeDegrees>41.9682352803647518157958984375</LatitudeDegrees>
              <LongitudeDegrees>2.83631457947194576263427734375</LongitudeDegrees>
            </Position>
            <AltitudeMeters>87</AltitudeMeters>
            <DistanceMeters>5675.5974128145</DistanceMeters>
          </Trackpoint>
          <Trackpoint>
            <Time>2020-02-15T08:37:42.000Z</Time>
            <Position>
              <LatitudeDegrees>41.96819831617176532745361328125</LatitudeDegrees>
              <LongitudeDegrees>2.8363574109971523284912109375</LongitudeDegrees>
            </Position>
            <AltitudeMeters>87</AltitudeMeters>
            <DistanceMeters>5681.0272562367</DistanceMeters>
          </Trackpoint>
          <Trackpoint>
            <Time>2020-02-15T08:37:43.000Z</Time>
            <Position>
              <LatitudeDegrees>41.96816260926425457000732421875</LatitudeDegrees>
              <LongitudeDegrees>2.836404182016849517822265625</LongitudeDegrees>
            </Position>
            <AltitudeMeters>87.1999969482421875</AltitudeMeters>
            <DistanceMeters>5686.5747331876</DistanceMeters>
          </Trackpoint>
          <Trackpoint>
            <Time>2020-02-15T08:37:44.000Z</Time>
            <Position>
              <LatitudeDegrees>41.9681261479854583740234375</LatitudeDegrees>
              <LongitudeDegrees>2.83645170740783214569091796875</LongitudeDegrees>
            </Position>
            <AltitudeMeters>87.1999969482421875</AltitudeMeters>
            <DistanceMeters>5692.2254278622</DistanceMeters>
          </Trackpoint>
          <Trackpoint>
            <Time>2020-02-15T08:37:45.000Z</Time>
            <Position>
              <LatitudeDegrees>41.96808926761150360107421875</LatitudeDegrees>
              <LongitudeDegrees>2.83650065772235393524169921875</LongitudeDegrees>
            </Position>
            <AltitudeMeters>87.59999847412109375</AltitudeMeters>
            <DistanceMeters>5697.9916000298</DistanceMeters>
          </Trackpoint>
          <Trackpoint>
            <Time>2020-02-15T08:37:46.000Z</Time>
            <Position>
              <LatitudeDegrees>41.9680522195994853973388671875</LatitudeDegrees>
              <LongitudeDegrees>2.836552374064922332763671875</LongitudeDegrees>
            </Position>
            <AltitudeMeters>88.1999969482421875</AltitudeMeters>
            <DistanceMeters>5703.9351392994</DistanceMeters>
          </Trackpoint>
          <Trackpoint>
            <Time>2020-02-15T08:37:47.000Z</Time>
            <Position>
              <LatitudeDegrees>41.96801659651100635528564453125</LatitudeDegrees>
              <LongitudeDegrees>2.83660325221717357635498046875</LongitudeDegrees>
            </Position>
            <AltitudeMeters>88.59999847412109375</AltitudeMeters>
            <DistanceMeters>5709.71851229</DistanceMeters>
          </Trackpoint>
          <Trackpoint>
            <Time>2020-02-15T08:37:48.000Z</Time>
            <Position>
              <LatitudeDegrees>41.96798466145992279052734375</LatitudeDegrees>
              <LongitudeDegrees>2.83665203489363193511962890625</LongitudeDegrees>
            </Position>
            <AltitudeMeters>88.8000030517578125</AltitudeMeters>
            <DistanceMeters>5715.0973936724</DistanceMeters>
          </Trackpoint>
          <Trackpoint>
            <Time>2020-02-15T08:37:49.000Z</Time>
            <Position>
              <LatitudeDegrees>41.96795574389398097991943359375</LatitudeDegrees>
              <LongitudeDegrees>2.83669981174170970916748046875</LongitudeDegrees>
            </Position>
            <AltitudeMeters>89.1999969482421875</AltitudeMeters>
            <DistanceMeters>5720.1952912789</DistanceMeters>
          </Trackpoint>
          <Trackpoint>
            <Time>2020-02-15T08:37:50.000Z</Time>
            <Position>
              <LatitudeDegrees>41.96792422793805599212646484375</LatitudeDegrees>
              <LongitudeDegrees>2.836749851703643798828125</LongitudeDegrees>
            </Position>
            <AltitudeMeters>89.8000030517578125</AltitudeMeters>
            <DistanceMeters>5725.6226395596</DistanceMeters>
          </Trackpoint>
          <Trackpoint>
            <Time>2020-02-15T08:37:51.000Z</Time>
            <Position>
              <LatitudeDegrees>41.967889107763767242431640625</LatitudeDegrees>
              <LongitudeDegrees>2.83680240623652935028076171875</LongitudeDegrees>
            </Position>
            <AltitudeMeters>90</AltitudeMeters>
            <DistanceMeters>5731.471223112</DistanceMeters>
          </Trackpoint>
          <Trackpoint>
            <Time>2020-02-15T08:37:52.000Z</Time>
            <Position>
              <LatitudeDegrees>41.96785851381719112396240234375</LatitudeDegrees>
              <LongitudeDegrees>2.8368576429784297943115234375</LongitudeDegrees>
            </Position>
            <AltitudeMeters>90.1999969482421875</AltitudeMeters>
            <DistanceMeters>5737.1712419756</DistanceMeters>
          </Trackpoint>
          <Trackpoint>
            <Time>2020-02-15T08:37:53.000Z</Time>
            <Position>
              <LatitudeDegrees>41.967826746404170989990234375</LatitudeDegrees>
              <LongitudeDegrees>2.83691279590129852294921875</LongitudeDegrees>
            </Position>
            <AltitudeMeters>90.59999847412109375</AltitudeMeters>
            <DistanceMeters>5742.9452390514</DistanceMeters>
          </Trackpoint>
          <Trackpoint>
            <Time>2020-02-15T08:37:54.000Z</Time>
            <Position>
              <LatitudeDegrees>41.96779288351535797119140625</LatitudeDegrees>
              <LongitudeDegrees>2.83696836791932582855224609375</LongitudeDegrees>
            </Position>
            <AltitudeMeters>90.8000030517578125</AltitudeMeters>
            <DistanceMeters>5748.8918161638</DistanceMeters>
          </Trackpoint>
          <Trackpoint>
            <Time>2020-02-15T08:37:55.000Z</Time>
            <Position>
              <LatitudeDegrees>41.96775675751268863677978515625</LatitudeDegrees>
              <LongitudeDegrees>2.83701865933835506439208984375</LongitudeDegrees>
            </Position>
            <AltitudeMeters>91</AltitudeMeters>
            <DistanceMeters>5754.6783110834</DistanceMeters>
          </Trackpoint>
          <Trackpoint>
            <Time>2020-02-15T08:37:56.000Z</Time>
            <Position>
              <LatitudeDegrees>41.96771509945392608642578125</LatitudeDegrees>
              <LongitudeDegrees>2.8370692022144794464111328125</LongitudeDegrees>
            </Position>
            <AltitudeMeters>91</AltitudeMeters>
            <DistanceMeters>5760.9226581337</DistanceMeters>
          </Trackpoint>
          <Trackpoint>
            <Time>2020-02-15T08:37:59.000Z</Time>
            <Position>
              <LatitudeDegrees>41.967586688697338104248046875</LatitudeDegrees>
              <LongitudeDegrees>2.837220914661884307861328125</LongitudeDegrees>
            </Position>
            <AltitudeMeters>91.40000152587890625</AltitudeMeters>
            <DistanceMeters>5779.9465221924</DistanceMeters>
          </Trackpoint>
          <Trackpoint>
            <Time>2020-02-15T08:38:02.000Z</Time>
            <Position>
              <LatitudeDegrees>41.96746221743524074554443359375</LatitudeDegrees>
              <LongitudeDegrees>2.83737120218575000762939453125</LongitudeDegrees>
            </Position>
            <AltitudeMeters>91.8000030517578125</AltitudeMeters>
            <DistanceMeters>5798.5642418245</DistanceMeters>
          </Trackpoint>
          <Trackpoint>
            <Time>2020-02-15T08:38:03.000Z</Time>
            <Position>
              <LatitudeDegrees>41.96741779334843158721923828125</LatitudeDegrees>
              <LongitudeDegrees>2.837420739233493804931640625</LongitudeDegrees>
            </Position>
            <AltitudeMeters>91.8000030517578125</AltitudeMeters>
            <DistanceMeters>5804.9868105626</DistanceMeters>
          </Trackpoint>
          <Trackpoint>
            <Time>2020-02-15T08:38:06.000Z</Time>
            <Position>
              <LatitudeDegrees>41.967282593250274658203125</LatitudeDegrees>
              <LongitudeDegrees>2.837558872997760772705078125</LongitudeDegrees>
            </Position>
            <AltitudeMeters>92.1999969482421875</AltitudeMeters>
            <DistanceMeters>5823.8844681743</DistanceMeters>
          </Trackpoint>
          <Trackpoint>
            <Time>2020-02-15T08:38:08.000Z</Time>
            <Position>
              <LatitudeDegrees>41.96718812920153141021728515625</LatitudeDegrees>
              <LongitudeDegrees>2.83765015192329883575439453125</LongitudeDegrees>
            </Position>
            <AltitudeMeters>92.1999969482421875</AltitudeMeters>
            <DistanceMeters>5836.830441247</DistanceMeters>
          </Trackpoint>
          <Trackpoint>
            <Time>2020-02-15T08:38:10.000Z</Time>
            <Position>
              <LatitudeDegrees>41.96709148585796356201171875</LatitudeDegrees>
              <LongitudeDegrees>2.83773933537304401397705078125</LongitudeDegrees>
            </Position>
            <AltitudeMeters>92.1999969482421875</AltitudeMeters>
            <DistanceMeters>5849.8757783704</DistanceMeters>
          </Trackpoint>
          <Trackpoint>
            <Time>2020-02-15T08:38:11.000Z</Time>
            <Position>
              <LatitudeDegrees>41.9670425355434417724609375</LatitudeDegrees>
              <LongitudeDegrees>2.837784178555011749267578125</LongitudeDegrees>
            </Position>
            <AltitudeMeters>92.1999969482421875</AltitudeMeters>
            <DistanceMeters>5856.4676466828</DistanceMeters>
          </Trackpoint>
          <Trackpoint>
            <Time>2020-02-15T08:38:13.000Z</Time>
            <Position>
              <LatitudeDegrees>41.966931559145450592041015625</LatitudeDegrees>
              <LongitudeDegrees>2.83788098953664302825927734375</LongitudeDegrees>
            </Position>
            <AltitudeMeters>92.40000152587890625</AltitudeMeters>
            <DistanceMeters>5871.1900420342</DistanceMeters>
          </Trackpoint>
          <Trackpoint>
            <Time>2020-02-15T08:38:14.000Z</Time>
            <Position>
              <LatitudeDegrees>41.9668735563755035400390625</LatitudeDegrees>
              <LongitudeDegrees>2.83792910166084766387939453125</LongitudeDegrees>
            </Position>
            <AltitudeMeters>92.40000152587890625</AltitudeMeters>
            <DistanceMeters>5878.7749360364</DistanceMeters>
          </Trackpoint>
          <Trackpoint>
            <Time>2020-02-15T08:38:16.000Z</Time>
            <Position>
              <LatitudeDegrees>41.966755203902721405029296875</LatitudeDegrees>
              <LongitudeDegrees>2.83801694400608539581298828125</LongitudeDegrees>
            </Position>
            <AltitudeMeters>92.40000152587890625</AltitudeMeters>
            <DistanceMeters>5893.8203990169</DistanceMeters>
          </Trackpoint>
          <Trackpoint>
            <Time>2020-02-15T08:38:19.000Z</Time>
            <Position>
              <LatitudeDegrees>41.9666061736643314361572265625</LatitudeDegrees>
              <LongitudeDegrees>2.8381424210965633392333984375</LongitudeDegrees>
            </Position>
            <AltitudeMeters>92.40000152587890625</AltitudeMeters>
            <DistanceMeters>5913.3899044268</DistanceMeters>
          </Trackpoint>
          <Trackpoint>
            <Time>2020-02-15T08:38:20.000Z</Time>
            <Position>
              <LatitudeDegrees>41.96655504405498504638671875</LatitudeDegrees>
              <LongitudeDegrees>2.838178463280200958251953125</LongitudeDegrees>
            </Position>
            <AltitudeMeters>92.40000152587890625</AltitudeMeters>
            <DistanceMeters>5919.8138790025</DistanceMeters>
          </Trackpoint>
          <Trackpoint>
            <Time>2020-02-15T08:38:21.000Z</Time>
            <Position>
              <LatitudeDegrees>41.9664967060089111328125</LatitudeDegrees>
              <LongitudeDegrees>2.83821475692093372344970703125</LongitudeDegrees>
            </Position>
            <AltitudeMeters>92.40000152587890625</AltitudeMeters>
            <DistanceMeters>5926.9680717092</DistanceMeters>
          </Trackpoint>
          <Trackpoint>
            <Time>2020-02-15T08:38:22.000Z</Time>
            <Position>
              <LatitudeDegrees>41.966440379619598388671875</LatitudeDegrees>
              <LongitudeDegrees>2.83825582824647426605224609375</LongitudeDegrees>
            </Position>
            <AltitudeMeters>92.40000152587890625</AltitudeMeters>
            <DistanceMeters>5934.0995084881</DistanceMeters>
          </Trackpoint>
          <Trackpoint>
            <Time>2020-02-15T08:38:23.000Z</Time>
            <Position>
              <LatitudeDegrees>41.966391094028949737548828125</LatitudeDegrees>
              <LongitudeDegrees>2.83829949796199798583984375</LongitudeDegrees>
            </Position>
            <AltitudeMeters>92.40000152587890625</AltitudeMeters>
            <DistanceMeters>5940.668047538</DistanceMeters>
          </Trackpoint>
          <Trackpoint>
            <Time>2020-02-15T08:38:24.000Z</Time>
            <Position>
              <LatitudeDegrees>41.9663436524569988250732421875</LatitudeDegrees>
              <LongitudeDegrees>2.83833528868854045867919921875</LongitudeDegrees>
            </Position>
            <AltitudeMeters>92.40000152587890625</AltitudeMeters>
            <DistanceMeters>5946.7214804656</DistanceMeters>
          </Trackpoint>
          <Trackpoint>
            <Time>2020-02-15T08:38:25.000Z</Time>
            <Position>
              <LatitudeDegrees>41.96629847399890422821044921875</LatitudeDegrees>
              <LongitudeDegrees>2.83836915157735347747802734375</LongitudeDegrees>
            </Position>
            <AltitudeMeters>92.40000152587890625</AltitudeMeters>
            <DistanceMeters>5952.4782487039</DistanceMeters>
          </Trackpoint>
          <Trackpoint>
            <Time>2020-02-15T08:38:26.000Z</Time>
            <Position>
              <LatitudeDegrees>41.96625337935984134674072265625</LatitudeDegrees>
              <LongitudeDegrees>2.8384019248187541961669921875</LongitudeDegrees>
            </Position>
            <AltitudeMeters>92.40000152587890625</AltitudeMeters>
            <DistanceMeters>5958.1830182439</DistanceMeters>
          </Trackpoint>
          <Trackpoint>
            <Time>2020-02-15T08:38:27.000Z</Time>
            <Position>
              <LatitudeDegrees>41.96621297858655452728271484375</LatitudeDegrees>
              <LongitudeDegrees>2.83843897283077239990234375</LongitudeDegrees>
            </Position>
            <AltitudeMeters>92.59999847412109375</AltitudeMeters>
            <DistanceMeters>5963.6253202142</DistanceMeters>
          </Trackpoint>
          <Trackpoint>
            <Time>2020-02-15T08:38:28.000Z</Time>
            <Position>
              <LatitudeDegrees>41.96617123670876026153564453125</LatitudeDegrees>
              <LongitudeDegrees>2.8384750150144100189208984375</LongitudeDegrees>
            </Position>
            <AltitudeMeters>92.59999847412109375</AltitudeMeters>
            <DistanceMeters>5969.1466912464</DistanceMeters>
          </Trackpoint>
          <Trackpoint>
            <Time>2020-02-15T08:38:29.000Z</Time>
            <Position>
              <LatitudeDegrees>41.96613150648772716522216796875</LatitudeDegrees>
              <LongitudeDegrees>2.83850946463644504547119140625</LongitudeDegrees>
            </Position>
            <AltitudeMeters>92.59999847412109375</AltitudeMeters>
            <DistanceMeters>5974.4084603763</DistanceMeters>
          </Trackpoint>
          <Trackpoint>
            <Time>2020-02-15T08:38:30.000Z</Time>
            <Position>
              <LatitudeDegrees>41.966090686619281768798828125</LatitudeDegrees>
              <LongitudeDegrees>2.83854383043944835662841796875</LongitudeDegrees>
            </Position>
            <AltitudeMeters>92.8000030517578125</AltitudeMeters>
            <DistanceMeters>5979.7696853596</DistanceMeters>
          </Trackpoint>
          <Trackpoint>
            <Time>2020-02-15T08:38:31.000Z</Time>
            <Position>
              <LatitudeDegrees>41.966046430170536041259765625</LatitudeDegrees>
              <LongitudeDegrees>2.83858171664178371429443359375</LongitudeDegrees>
            </Position>
            <AltitudeMeters>93.1999969482421875</AltitudeMeters>
            <DistanceMeters>5985.6089977037</DistanceMeters>
          </Trackpoint>
          <Trackpoint>
            <Time>2020-02-15T08:38:32.000Z</Time>
            <Position>
              <LatitudeDegrees>41.9659979827702045440673828125</LatitudeDegrees>
              <LongitudeDegrees>2.838620357215404510498046875</LongitudeDegrees>
            </Position>
            <AltitudeMeters>93.8000030517578125</AltitudeMeters>
            <DistanceMeters>5991.8778805934</DistanceMeters>
          </Trackpoint>
          <Trackpoint>
            <Time>2020-02-15T08:38:33.000Z</Time>
            <Position>
              <LatitudeDegrees>41.9659517146646976470947265625</LatitudeDegrees>
              <LongitudeDegrees>2.83866084180772304534912109375</LongitudeDegrees>
            </Position>
            <AltitudeMeters>94.40000152587890625</AltitudeMeters>
            <DistanceMeters>5998.021635108</DistanceMeters>
          </Trackpoint>
          <Trackpoint>
            <Time>2020-02-15T08:38:36.000Z</Time>
            <Position>
              <LatitudeDegrees>41.9657998345792293548583984375</LatitudeDegrees>
              <LongitudeDegrees>2.838785983622074127197265625</LongitudeDegrees>
            </Position>
            <AltitudeMeters>95</AltitudeMeters>
            <DistanceMeters>6017.8462666826</DistanceMeters>
          </Trackpoint>
          <Trackpoint>
            <Time>2020-02-15T08:38:39.000Z</Time>
            <Position>
              <LatitudeDegrees>41.9656157679855823516845703125</LatitudeDegrees>
              <LongitudeDegrees>2.83890693448483943939208984375</LongitudeDegrees>
            </Position>
            <AltitudeMeters>95</AltitudeMeters>
            <DistanceMeters>6040.6477282862</DistanceMeters>
          </Trackpoint>
          <Trackpoint>
            <Time>2020-02-15T08:38:40.000Z</Time>
            <Position>
              <LatitudeDegrees>41.96554913185536861419677734375</LatitudeDegrees>
              <LongitudeDegrees>2.83893777988851070404052734375</LongitudeDegrees>
            </Position>
            <AltitudeMeters>95</AltitudeMeters>
            <DistanceMeters>6048.4907430597</DistanceMeters>
          </Trackpoint>
          <Trackpoint>
            <Time>2020-02-15T08:38:41.000Z</Time>
            <Position>
              <LatitudeDegrees>41.9654813222587108612060546875</LatitudeDegrees>
              <LongitudeDegrees>2.83897080458700656890869140625</LongitudeDegrees>
            </Position>
            <AltitudeMeters>95.1999969482421875</AltitudeMeters>
            <DistanceMeters>6056.516985353</DistanceMeters>
          </Trackpoint>
          <Trackpoint>
            <Time>2020-02-15T08:38:42.000Z</Time>
            <Position>
              <LatitudeDegrees>41.96541368030011653900146484375</LatitudeDegrees>
              <LongitudeDegrees>2.83900517039000988006591796875</LongitudeDegrees>
            </Position>
            <AltitudeMeters>95.1999969482421875</AltitudeMeters>
            <DistanceMeters>6064.5651365899</DistanceMeters>
          </Trackpoint>
          <Trackpoint>
            <Time>2020-02-15T08:38:45.000Z</Time>
            <Position>
              <LatitudeDegrees>41.96520245634019374847412109375</LatitudeDegrees>
              <LongitudeDegrees>2.8390882350504398345947265625</LongitudeDegrees>
            </Position>
            <AltitudeMeters>94.8000030517578125</AltitudeMeters>
            <DistanceMeters>6089.0591823753</DistanceMeters>
          </Trackpoint>
          <Trackpoint>
            <Time>2020-02-15T08:38:46.000Z</Time>
            <Position>
              <LatitudeDegrees>41.9651299528777599334716796875</LatitudeDegrees>
              <LongitudeDegrees>2.8391049988567829132080078125</LongitudeDegrees>
            </Position>
            <AltitudeMeters>94.8000030517578125</AltitudeMeters>
            <DistanceMeters>6097.2480374646</DistanceMeters>
          </Trackpoint>
          <Trackpoint>
            <Time>2020-02-15T08:38:47.000Z</Time>
            <Position>
              <LatitudeDegrees>41.965065412223339080810546875</LatitudeDegrees>
              <LongitudeDegrees>2.8391402028501033782958984375</LongitudeDegrees>
            </Position>
            <AltitudeMeters>94.8000030517578125</AltitudeMeters>
            <DistanceMeters>6105.0001441934</DistanceMeters>
          </Trackpoint>
          <Trackpoint>
            <Time>2020-02-15T08:38:48.000Z</Time>
            <Position>
              <LatitudeDegrees>41.9650069065392017364501953125</LatitudeDegrees>
              <LongitudeDegrees>2.839202396571636199951171875</LongitudeDegrees>
            </Position>
            <AltitudeMeters>94.59999847412109375</AltitudeMeters>
            <DistanceMeters>6113.3007154549</DistanceMeters>
          </Trackpoint>
          <Trackpoint>
            <Time>2020-02-15T08:38:49.000Z</Time>
            <Position>
              <LatitudeDegrees>41.9649623148143291473388671875</LatitudeDegrees>
              <LongitudeDegrees>2.839266769587993621826171875</LongitudeDegrees>
            </Position>
            <AltitudeMeters>94.40000152587890625</AltitudeMeters>
            <DistanceMeters>6120.5818952221</DistanceMeters>
          </Trackpoint>
          <Trackpoint>
            <Time>2020-02-15T08:38:50.000Z</Time>
            <Position>
              <LatitudeDegrees>41.9649173878133296966552734375</LatitudeDegrees>
              <LongitudeDegrees>2.83930775709450244903564453125</LongitudeDegrees>
            </Position>
            <AltitudeMeters>93.8000030517578125</AltitudeMeters>
            <DistanceMeters>6126.6233825378</DistanceMeters>
          </Trackpoint>
          <Trackpoint>
            <Time>2020-02-15T08:38:51.000Z</Time>
            <Position>
              <LatitudeDegrees>41.9648640789091587066650390625</LatitudeDegrees>
              <LongitudeDegrees>2.8393225930631160736083984375</LongitudeDegrees>
            </Position>
            <AltitudeMeters>93.59999847412109375</AltitudeMeters>
            <DistanceMeters>6132.681288997</DistanceMeters>
          </Trackpoint>
          <Trackpoint>
            <Time>2020-02-15T08:38:52.000Z</Time>
            <Position>
              <LatitudeDegrees>41.96480800397694110870361328125</LatitudeDegrees>
              <LongitudeDegrees>2.8393145464360713958740234375</LongitudeDegrees>
            </Position>
            <AltitudeMeters>93</AltitudeMeters>
            <DistanceMeters>6138.9573700552</DistanceMeters>
          </Trackpoint>
          <Trackpoint>
            <Time>2020-02-15T08:38:53.000Z</Time>
            <Position>
              <LatitudeDegrees>41.9647510908544063568115234375</LatitudeDegrees>
              <LongitudeDegrees>2.83929526805877685546875</LongitudeDegrees>
            </Position>
            <AltitudeMeters>92.59999847412109375</AltitudeMeters>
            <DistanceMeters>6145.4900679109</DistanceMeters>
          </Trackpoint>
          <Trackpoint>
            <Time>2020-02-15T08:38:54.000Z</Time>
            <Position>
              <LatitudeDegrees>41.96469468064606189727783203125</LatitudeDegrees>
              <LongitudeDegrees>2.83927573822438716888427734375</LongitudeDegrees>
            </Position>
            <AltitudeMeters>92.40000152587890625</AltitudeMeters>
            <DistanceMeters>6151.9728123737</DistanceMeters>
          </Trackpoint>
          <Trackpoint>
            <Time>2020-02-15T08:38:55.000Z</Time>
            <Position>
              <LatitudeDegrees>41.9646407850086688995361328125</LatitudeDegrees>
              <LongitudeDegrees>2.839257381856441497802734375</LongitudeDegrees>
            </Position>
            <AltitudeMeters>91.59999847412109375</AltitudeMeters>
            <DistanceMeters>6158.160503714</DistanceMeters>
          </Trackpoint>
          <Trackpoint>
            <Time>2020-02-15T08:38:56.000Z</Time>
            <Position>
              <LatitudeDegrees>41.96458471007645130157470703125</LatitudeDegrees>
              <LongitudeDegrees>2.83923768438398838043212890625</LongitudeDegrees>
            </Position>
            <AltitudeMeters>91.40000152587890625</AltitudeMeters>
            <DistanceMeters>6164.6097309623</DistanceMeters>
          </Trackpoint>
          <Trackpoint>
            <Time>2020-02-15T08:38:57.000Z</Time>
            <Position>
              <LatitudeDegrees>41.96453056298196315765380859375</LatitudeDegrees>
              <LongitudeDegrees>2.83921823836863040924072265625</LongitudeDegrees>
            </Position>
            <AltitudeMeters>91.1999969482421875</AltitudeMeters>
            <DistanceMeters>6170.8468432205</DistanceMeters>
          </Trackpoint>
          <Trackpoint>
            <Time>2020-02-15T08:38:58.000Z</Time>
            <Position>
              <LatitudeDegrees>41.96447557769715785980224609375</LatitudeDegrees>
              <LongitudeDegrees>2.8391998820006847381591796875</LongitudeDegrees>
            </Position>
            <AltitudeMeters>91</AltitudeMeters>
            <DistanceMeters>6177.1523508592</DistanceMeters>
          </Trackpoint>
          <Trackpoint>
            <Time>2020-02-15T08:39:00.000Z</Time>
            <Position>
              <LatitudeDegrees>41.964364685118198394775390625</LatitudeDegrees>
              <LongitudeDegrees>2.83914783038198947906494140625</LongitudeDegrees>
            </Position>
            <AltitudeMeters>91</AltitudeMeters>
            <DistanceMeters>6190.2253469496</DistanceMeters>
          </Trackpoint>
          <Trackpoint>
            <Time>2020-02-15T08:39:01.000Z</Time>
            <Position>
              <LatitudeDegrees>41.96430827490985393524169921875</LatitudeDegrees>
              <LongitudeDegrees>2.83911363221704959869384765625</LongitudeDegrees>
            </Position>
            <AltitudeMeters>91</AltitudeMeters>
            <DistanceMeters>6197.1119979124</DistanceMeters>
          </Trackpoint>
          <Trackpoint>
            <Time>2020-02-15T08:39:04.000Z</Time>
            <Position>
              <LatitudeDegrees>41.96415035985410213470458984375</LatitudeDegrees>
              <LongitudeDegrees>2.83900081180036067962646484375</LongitudeDegrees>
            </Position>
            <AltitudeMeters>91</AltitudeMeters>
            <DistanceMeters>6217.0143671989</DistanceMeters>
          </Trackpoint>
          <Trackpoint>
            <Time>2020-02-15T08:39:05.000Z</Time>
            <Position>
              <LatitudeDegrees>41.964099816977977752685546875</LatitudeDegrees>
              <LongitudeDegrees>2.83896460197865962982177734375</LongitudeDegrees>
            </Position>
            <AltitudeMeters>91</AltitudeMeters>
            <DistanceMeters>6223.3889529892</DistanceMeters>
          </Trackpoint>
          <Trackpoint>
            <Time>2020-02-15T08:39:06.000Z</Time>
            <Position>
              <LatitudeDegrees>41.96404986083507537841796875</LatitudeDegrees>
              <LongitudeDegrees>2.8389266319572925567626953125</LongitudeDegrees>
            </Position>
            <AltitudeMeters>91</AltitudeMeters>
            <DistanceMeters>6229.7762752273</DistanceMeters>
          </Trackpoint>
          <Trackpoint>
            <Time>2020-02-15T08:39:07.000Z</Time>
            <Position>
              <LatitudeDegrees>41.9640009105205535888671875</LatitudeDegrees>
              <LongitudeDegrees>2.838889248669147491455078125</LongitudeDegrees>
            </Position>
            <AltitudeMeters>91</AltitudeMeters>
            <DistanceMeters>6236.0422765342</DistanceMeters>
          </Trackpoint>
          <Trackpoint>
            <Time>2020-02-15T08:39:08.000Z</Time>
            <Position>
              <LatitudeDegrees>41.9639527983963489532470703125</LatitudeDegrees>
              <LongitudeDegrees>2.83885463140904903411865234375</LongitudeDegrees>
            </Position>
            <AltitudeMeters>90.8000030517578125</AltitudeMeters>
            <DistanceMeters>6242.1150709649</DistanceMeters>
          </Trackpoint>
          <Trackpoint>
            <Time>2020-02-15T08:39:09.000Z</Time>
            <Position>
              <LatitudeDegrees>41.963906697928905487060546875</LatitudeDegrees>
              <LongitudeDegrees>2.8388230316340923309326171875</LongitudeDegrees>
            </Position>
            <AltitudeMeters>91</AltitudeMeters>
            <DistanceMeters>6247.8734075912</DistanceMeters>
          </Trackpoint>
          <Trackpoint>
            <Time>2020-02-15T08:39:10.000Z</Time>
            <Position>
              <LatitudeDegrees>41.9638614356517791748046875</LatitudeDegrees>
              <LongitudeDegrees>2.83879227004945278167724609375</LongitudeDegrees>
            </Position>
            <AltitudeMeters>91.1999969482421875</AltitudeMeters>
            <DistanceMeters>6253.5177064577</DistanceMeters>
          </Trackpoint>
          <Trackpoint>
            <Time>2020-02-15T08:39:11.000Z</Time>
            <Position>
              <LatitudeDegrees>41.96381893940269947052001953125</LatitudeDegrees>
              <LongitudeDegrees>2.83876058645546436309814453125</LongitudeDegrees>
            </Position>
            <AltitudeMeters>91.1999969482421875</AltitudeMeters>
            <DistanceMeters>6258.9267218652</DistanceMeters>
          </Trackpoint>
          <Trackpoint>
            <Time>2020-02-15T08:39:12.000Z</Time>
            <Position>
              <LatitudeDegrees>41.96378088556230068206787109375</LatitudeDegrees>
              <LongitudeDegrees>2.83872999250888824462890625</LongitudeDegrees>
            </Position>
            <AltitudeMeters>91.1999969482421875</AltitudeMeters>
            <DistanceMeters>6263.8617108388</DistanceMeters>
          </Trackpoint>
          <Trackpoint>
            <Time>2020-02-15T08:39:13.000Z</Time>
            <Position>
              <LatitudeDegrees>41.96374450810253620147705078125</LatitudeDegrees>
              <LongitudeDegrees>2.83870141021907329559326171875</LongitudeDegrees>
            </Position>
            <AltitudeMeters>91.40000152587890625</AltitudeMeters>
            <DistanceMeters>6268.5518351673</DistanceMeters>
          </Trackpoint>
          <Trackpoint>
            <Time>2020-02-15T08:39:14.000Z</Time>
            <Position>
              <LatitudeDegrees>41.9637063704431056976318359375</LatitudeDegrees>
              <LongitudeDegrees>2.8386743366718292236328125</LongitudeDegrees>
            </Position>
            <AltitudeMeters>91.40000152587890625</AltitudeMeters>
            <DistanceMeters>6273.3513898351</DistanceMeters>
          </Trackpoint>
          <Trackpoint>
            <Time>2020-02-15T08:39:15.000Z</Time>
            <Position>
              <LatitudeDegrees>41.96366890333592891693115234375</LatitudeDegrees>
              <LongitudeDegrees>2.83864944241940975189208984375</LongitudeDegrees>
            </Position>
            <AltitudeMeters>91.59999847412109375</AltitudeMeters>
            <DistanceMeters>6278.0028480107</DistanceMeters>
          </Trackpoint>
          <Trackpoint>
            <Time>2020-02-15T08:39:16.000Z</Time>
            <Position>
              <LatitudeDegrees>41.96362967602908611297607421875</LatitudeDegrees>
              <LongitudeDegrees>2.83862396143376827239990234375</LongitudeDegrees>
            </Position>
            <AltitudeMeters>91.59999847412109375</AltitudeMeters>
            <DistanceMeters>6282.8510733544</DistanceMeters>
          </Trackpoint>
          <Trackpoint>
            <Time>2020-02-15T08:39:18.000Z</Time>
            <Position>
              <LatitudeDegrees>41.963539235293865203857421875</LatitudeDegrees>
              <LongitudeDegrees>2.83858004026114940643310546875</LongitudeDegrees>
            </Position>
            <AltitudeMeters>91.59999847412109375</AltitudeMeters>
            <DistanceMeters>6293.5532922653</DistanceMeters>
          </Trackpoint>
          <Trackpoint>
            <Time>2020-02-15T08:39:19.000Z</Time>
            <Position>
              <LatitudeDegrees>41.9634926319122314453125</LatitudeDegrees>
              <LongitudeDegrees>2.8385853208601474761962890625</LongitudeDegrees>
            </Position>
            <AltitudeMeters>91.59999847412109375</AltitudeMeters>
            <DistanceMeters>6298.7598544213</DistanceMeters>
          </Trackpoint>
          <Trackpoint>
            <Time>2020-02-15T08:39:20.000Z</Time>
            <Position>
              <LatitudeDegrees>41.9634518958628177642822265625</LatitudeDegrees>
              <LongitudeDegrees>2.83860987983644008636474609375</LongitudeDegrees>
            </Position>
            <AltitudeMeters>91.59999847412109375</AltitudeMeters>
            <DistanceMeters>6303.7285795091</DistanceMeters>
          </Trackpoint>
          <Trackpoint>
            <Time>2020-02-15T08:39:21.000Z</Time>
            <Position>
              <LatitudeDegrees>41.9634130038321018218994140625</LatitudeDegrees>
              <LongitudeDegrees>2.8386486880481243133544921875</LongitudeDegrees>
            </Position>
            <AltitudeMeters>91.59999847412109375</AltitudeMeters>
            <DistanceMeters>6309.1183620576</DistanceMeters>
          </Trackpoint>
          <Trackpoint>
            <Time>2020-02-15T08:39:22.000Z</Time>
            <Position>
              <LatitudeDegrees>41.9633721001446247100830078125</LatitudeDegrees>
              <LongitudeDegrees>2.83870895393192768096923828125</LongitudeDegrees>
            </Position>
            <AltitudeMeters>91.59999847412109375</AltitudeMeters>
            <DistanceMeters>6315.8719474845</DistanceMeters>
          </Trackpoint>
          <Trackpoint>
            <Time>2020-02-15T08:39:23.000Z</Time>
            <Position>
              <LatitudeDegrees>41.9633322022855281829833984375</LatitudeDegrees>
              <LongitudeDegrees>2.83879495225846767425537109375</LongitudeDegrees>
            </Position>
            <AltitudeMeters>91.59999847412109375</AltitudeMeters>
            <DistanceMeters>6324.2612511388</DistanceMeters>
          </Trackpoint>
          <Trackpoint>
            <Time>2020-02-15T08:39:24.000Z</Time>
            <Position>
              <LatitudeDegrees>41.96329750120639801025390625</LatitudeDegrees>
              <LongitudeDegrees>2.83888866193592548370361328125</LongitudeDegrees>
            </Position>
            <AltitudeMeters>91.59999847412109375</AltitudeMeters>
            <DistanceMeters>6332.9253740303</DistanceMeters>
          </Trackpoint>
          <Trackpoint>
            <Time>2020-02-15T08:39:25.000Z</Time>
            <Position>
              <LatitudeDegrees>41.9632651470601558685302734375</LatitudeDegrees>
              <LongitudeDegrees>2.8389842994511127471923828125</LongitudeDegrees>
            </Position>
            <AltitudeMeters>91.59999847412109375</AltitudeMeters>
            <DistanceMeters>6341.621227073</DistanceMeters>
          </Trackpoint>
          <Trackpoint>
            <Time>2020-02-15T08:39:28.000Z</Time>
            <Position>
              <LatitudeDegrees>41.96315928362309932708740234375</LatitudeDegrees>
              <LongitudeDegrees>2.8392424620687961578369140625</LongitudeDegrees>
            </Position>
            <AltitudeMeters>91.1999969482421875</AltitudeMeters>
            <DistanceMeters>6366.0208973551</DistanceMeters>
          </Trackpoint>
          <Trackpoint>
            <Time>2020-02-15T08:39:29.000Z</Time>
            <Position>
              <LatitudeDegrees>41.96312718093395233154296875</LatitudeDegrees>
              <LongitudeDegrees>2.83930758945643901824951171875</LongitudeDegrees>
            </Position>
            <AltitudeMeters>91.1999969482421875</AltitudeMeters>
            <DistanceMeters>6372.4876031635</DistanceMeters>
          </Trackpoint>
          <Trackpoint>
            <Time>2020-02-15T08:39:30.000Z</Time>
            <Position>
              <LatitudeDegrees>41.963106058537960052490234375</LatitudeDegrees>
              <LongitudeDegrees>2.839366011321544647216796875</LongitudeDegrees>
            </Position>
            <AltitudeMeters>90.59999847412109375</AltitudeMeters>
            <DistanceMeters>6377.8648054819</DistanceMeters>
          </Trackpoint>
          <Trackpoint>
            <Time>2020-02-15T08:39:31.000Z</Time>
            <Position>
              <LatitudeDegrees>41.963087953627109527587890625</LatitudeDegrees>
              <LongitudeDegrees>2.8394228406250476837158203125</LongitudeDegrees>
            </Position>
            <AltitudeMeters>90</AltitudeMeters>
            <DistanceMeters>6382.9821506616</DistanceMeters>
          </Trackpoint>
          <Trackpoint>
            <Time>2020-02-15T08:39:32.000Z</Time>
            <Position>
              <LatitudeDegrees>41.96306808851659297943115234375</LatitudeDegrees>
              <LongitudeDegrees>2.8394744731485843658447265625</LongitudeDegrees>
            </Position>
            <AltitudeMeters>89.40000152587890625</AltitudeMeters>
            <DistanceMeters>6387.7939191517</DistanceMeters>
          </Trackpoint>
          <Trackpoint>
            <Time>2020-02-15T08:39:33.000Z</Time>
            <Position>
              <LatitudeDegrees>41.96304495446383953094482421875</LatitudeDegrees>
              <LongitudeDegrees>2.83952434547245502471923828125</LongitudeDegrees>
            </Position>
            <AltitudeMeters>88.59999847412109375</AltitudeMeters>
            <DistanceMeters>6392.659806577</DistanceMeters>
          </Trackpoint>
          <Trackpoint>
            <Time>2020-02-15T08:39:34.000Z</Time>
            <Position>
              <LatitudeDegrees>41.96301545016467571258544921875</LatitudeDegrees>
              <LongitudeDegrees>2.8395720385015010833740234375</LongitudeDegrees>
            </Position>
            <AltitudeMeters>88</AltitudeMeters>
            <DistanceMeters>6397.7947674548</DistanceMeters>
          </Trackpoint>
          <Trackpoint>
            <Time>2020-02-15T08:39:35.000Z</Time>
            <Position>
              <LatitudeDegrees>41.96298041380941867828369140625</LatitudeDegrees>
              <LongitudeDegrees>2.8396104276180267333984375</LongitudeDegrees>
            </Position>
            <AltitudeMeters>87.8000030517578125</AltitudeMeters>
            <DistanceMeters>6402.8249040529</DistanceMeters>
          </Trackpoint>
          <Trackpoint>
            <Time>2020-02-15T08:39:36.000Z</Time>
            <Position>
              <LatitudeDegrees>41.9629375822842121124267578125</LatitudeDegrees>
              <LongitudeDegrees>2.839634232223033905029296875</LongitudeDegrees>
            </Position>
            <AltitudeMeters>87.40000152587890625</AltitudeMeters>
            <DistanceMeters>6407.9835507049</DistanceMeters>
          </Trackpoint>
          <Trackpoint>
            <Time>2020-02-15T08:39:37.000Z</Time>
            <Position>
              <LatitudeDegrees>41.96289106272161006927490234375</LatitudeDegrees>
              <LongitudeDegrees>2.83964487724006175994873046875</LongitudeDegrees>
            </Position>
            <AltitudeMeters>87.1999969482421875</AltitudeMeters>
            <DistanceMeters>6413.2367319899</DistanceMeters>
          </Trackpoint>
          <Trackpoint>
            <Time>2020-02-15T08:39:38.000Z</Time>
            <Position>
              <LatitudeDegrees>41.9628416933119297027587890625</LatitudeDegrees>
              <LongitudeDegrees>2.83964705653488636016845703125</LongitudeDegrees>
            </Position>
            <AltitudeMeters>87</AltitudeMeters>
            <DistanceMeters>6418.735158668</DistanceMeters>
          </Trackpoint>
          <Trackpoint>
            <Time>2020-02-15T08:39:40.000Z</Time>
            <Position>
              <LatitudeDegrees>41.9627427868545055389404296875</LatitudeDegrees>
              <LongitudeDegrees>2.83963331021368503570556640625</LongitudeDegrees>
            </Position>
            <AltitudeMeters>86.8000030517578125</AltitudeMeters>
            <DistanceMeters>6429.8024057008</DistanceMeters>
          </Trackpoint>
          <Trackpoint>
            <Time>2020-02-15T08:39:42.000Z</Time>
            <Position>
              <LatitudeDegrees>41.96263927035033702850341796875</LatitudeDegrees>
              <LongitudeDegrees>2.8396089188754558563232421875</LongitudeDegrees>
            </Position>
            <AltitudeMeters>86.59999847412109375</AltitudeMeters>
            <DistanceMeters>6441.4995728057</DistanceMeters>
          </Trackpoint>
          <Trackpoint>
            <Time>2020-02-15T08:39:43.000Z</Time>
            <Position>
              <LatitudeDegrees>41.96258805692195892333984375</LatitudeDegrees>
              <LongitudeDegrees>2.83960062079131603240966796875</LongitudeDegrees>
            </Position>
            <AltitudeMeters>86.8000030517578125</AltitudeMeters>
            <DistanceMeters>6447.2406335979</DistanceMeters>
          </Trackpoint>
          <Trackpoint>
            <Time>2020-02-15T08:39:44.000Z</Time>
            <Position>
              <LatitudeDegrees>41.9625345803797245025634765625</LatitudeDegrees>
              <LongitudeDegrees>2.83960212953388690948486328125</LongitudeDegrees>
            </Position>
            <AltitudeMeters>86.59999847412109375</AltitudeMeters>
            <DistanceMeters>6453.1947985368</DistanceMeters>
          </Trackpoint>
          <Trackpoint>
            <Time>2020-02-15T08:39:45.000Z</Time>
            <Position>
              <LatitudeDegrees>41.9624800980091094970703125</LatitudeDegrees>
              <LongitudeDegrees>2.8396122716367244720458984375</LongitudeDegrees>
            </Position>
            <AltitudeMeters>86.59999847412109375</AltitudeMeters>
            <DistanceMeters>6459.3164663849</DistanceMeters>
          </Trackpoint>
          <Trackpoint>
            <Time>2020-02-15T08:39:46.000Z</Time>
            <Position>
              <LatitudeDegrees>41.96242771111428737640380859375</LatitudeDegrees>
              <LongitudeDegrees>2.83962392248213291168212890625</LongitudeDegrees>
            </Position>
            <AltitudeMeters>86.59999847412109375</AltitudeMeters>
            <DistanceMeters>6465.2264863244</DistanceMeters>
          </Trackpoint>
          <Trackpoint>
            <Time>2020-02-15T08:39:48.000Z</Time>
            <Position>
              <LatitudeDegrees>41.96232176385819911956787109375</LatitudeDegrees>
              <LongitudeDegrees>2.8396400995552539825439453125</LongitudeDegrees>
            </Position>
            <AltitudeMeters>86.59999847412109375</AltitudeMeters>
            <DistanceMeters>6477.0937974023</DistanceMeters>
          </Trackpoint>
          <Trackpoint>
            <Time>2020-02-15T08:39:49.000Z</Time>
            <Position>
              <LatitudeDegrees>41.962269209325313568115234375</LatitudeDegrees>
              <LongitudeDegrees>2.8396424464881420135498046875</LongitudeDegrees>
            </Position>
            <AltitudeMeters>86.40000152587890625</AltitudeMeters>
            <DistanceMeters>6482.9462396234</DistanceMeters>
          </Trackpoint>
          <Trackpoint>
            <Time>2020-02-15T08:39:50.000Z</Time>
            <Position>
              <LatitudeDegrees>41.962218247354030609130859375</LatitudeDegrees>
              <LongitudeDegrees>2.83964202739298343658447265625</LongitudeDegrees>
            </Position>
            <AltitudeMeters>86.59999847412109375</AltitudeMeters>
            <DistanceMeters>6488.6184669082</DistanceMeters>
          </Trackpoint>
          <Trackpoint>
            <Time>2020-02-15T08:39:51.000Z</Time>
            <Position>
              <LatitudeDegrees>41.962165273725986480712890625</LatitudeDegrees>
              <LongitudeDegrees>2.8396431170403957366943359375</LongitudeDegrees>
            </Position>
            <AltitudeMeters>86.59999847412109375</AltitudeMeters>
            <DistanceMeters>6494.5147194731</DistanceMeters>
          </Trackpoint>
          <Trackpoint>
            <Time>2020-02-15T08:39:53.000Z</Time>
            <Position>
              <LatitudeDegrees>41.96206879802048206329345703125</LatitudeDegrees>
              <LongitudeDegrees>2.83964269794523715972900390625</LongitudeDegrees>
            </Position>
            <AltitudeMeters>86.59999847412109375</AltitudeMeters>
            <DistanceMeters>6505.2523177165</DistanceMeters>
          </Trackpoint>
          <Trackpoint>
            <Time>2020-02-15T08:39:54.000Z</Time>
            <Position>
              <LatitudeDegrees>41.96201850660145282745361328125</LatitudeDegrees>
              <LongitudeDegrees>2.83963850699365139007568359375</LongitudeDegrees>
            </Position>
            <AltitudeMeters>86.59999847412109375</AltitudeMeters>
            <DistanceMeters>6510.8605042553</DistanceMeters>
          </Trackpoint>
          <Trackpoint>
            <Time>2020-02-15T08:39:55.000Z</Time>
            <Position>
              <LatitudeDegrees>41.96196704171597957611083984375</LatitudeDegrees>
              <LongitudeDegrees>2.83963884226977825164794921875</LongitudeDegrees>
            </Position>
            <AltitudeMeters>86.59999847412109375</AltitudeMeters>
            <DistanceMeters>6516.5881798503</DistanceMeters>
          </Trackpoint>
          <Trackpoint>
            <Time>2020-02-15T08:39:56.000Z</Time>
            <Position>
              <LatitudeDegrees>41.96191356517374515533447265625</LatitudeDegrees>
              <LongitudeDegrees>2.83964152447879314422607421875</LongitudeDegrees>
            </Position>
            <AltitudeMeters>86.59999847412109375</AltitudeMeters>
            <DistanceMeters>6522.5446192521</DistanceMeters>
          </Trackpoint>
          <Trackpoint>
            <Time>2020-02-15T08:39:59.000Z</Time>
            <Position>
              <LatitudeDegrees>41.9617540575563907623291015625</LatitudeDegrees>
              <LongitudeDegrees>2.83965610899031162261962890625</LongitudeDegrees>
            </Position>
            <AltitudeMeters>86.59999847412109375</AltitudeMeters>
            <DistanceMeters>6540.3392437378</DistanceMeters>
          </Trackpoint>
          <Trackpoint>
            <Time>2020-02-15T08:40:01.000Z</Time>
            <Position>
              <LatitudeDegrees>41.9616467691957950592041015625</LatitudeDegrees>
              <LongitudeDegrees>2.83966164104640483856201171875</LongitudeDegrees>
            </Position>
            <AltitudeMeters>86.8000030517578125</AltitudeMeters>
            <DistanceMeters>6552.2892072894</DistanceMeters>
          </Trackpoint>
          <Trackpoint>
            <Time>2020-02-15T08:40:02.000Z</Time>
            <Position>
              <LatitudeDegrees>41.96159304119646549224853515625</LatitudeDegrees>
              <LongitudeDegrees>2.83966281451284885406494140625</LongitudeDegrees>
            </Position>
            <AltitudeMeters>86.59999847412109375</AltitudeMeters>
            <DistanceMeters>6558.26909882</DistanceMeters>
          </Trackpoint>
          <Trackpoint>
            <Time>2020-02-15T08:40:05.000Z</Time>
            <Position>
              <LatitudeDegrees>41.9614251516759395599365234375</LatitudeDegrees>
              <LongitudeDegrees>2.83967815339565277099609375</LongitudeDegrees>
            </Position>
            <AltitudeMeters>86.59999847412109375</AltitudeMeters>
            <DistanceMeters>6576.9987653866</DistanceMeters>
          </Trackpoint>
          <Trackpoint>
            <Time>2020-02-15T08:40:07.000Z</Time>
            <Position>
              <LatitudeDegrees>41.96131492964923381805419921875</LatitudeDegrees>
              <LongitudeDegrees>2.83968075178563594818115234375</LongitudeDegrees>
            </Position>
            <AltitudeMeters>86.59999847412109375</AltitudeMeters>
            <DistanceMeters>6589.2686241663</DistanceMeters>
          </Trackpoint>
          <Trackpoint>
            <Time>2020-02-15T08:40:08.000Z</Time>
            <Position>
              <LatitudeDegrees>41.96125944145023822784423828125</LatitudeDegrees>
              <LongitudeDegrees>2.8396789915859699249267578125</LongitudeDegrees>
            </Position>
            <AltitudeMeters>86.8000030517578125</AltitudeMeters>
            <DistanceMeters>6595.4460915318</DistanceMeters>
          </Trackpoint>
          <Trackpoint>
            <Time>2020-02-15T08:40:10.000Z</Time>
            <Position>
              <LatitudeDegrees>41.9611524045467376708984375</LatitudeDegrees>
              <LongitudeDegrees>2.8396712802350521087646484375</LongitudeDegrees>
            </Position>
            <AltitudeMeters>86.8000030517578125</AltitudeMeters>
            <DistanceMeters>6607.3767702629</DistanceMeters>
          </Trackpoint>
          <Trackpoint>
            <Time>2020-02-15T08:40:11.000Z</Time>
            <Position>
              <LatitudeDegrees>41.961099095642566680908203125</LatitudeDegrees>
              <LongitudeDegrees>2.8396642394363880157470703125</LongitudeDegrees>
            </Position>
            <AltitudeMeters>86.8000030517578125</AltitudeMeters>
            <DistanceMeters>6613.3385133707</DistanceMeters>
          </Trackpoint>
          <Trackpoint>
            <Time>2020-02-15T08:40:12.000Z</Time>
            <Position>
              <LatitudeDegrees>41.96104578673839569091796875</LatitudeDegrees>
              <LongitudeDegrees>2.8396588750183582305908203125</LongitudeDegrees>
            </Position>
            <AltitudeMeters>86.8000030517578125</AltitudeMeters>
            <DistanceMeters>6619.28964434</DistanceMeters>
          </Trackpoint>
          <Trackpoint>
            <Time>2020-02-15T08:40:13.000Z</Time>
            <Position>
              <LatitudeDegrees>41.96099306456744670867919921875</LatitudeDegrees>
              <LongitudeDegrees>2.8396598808467388153076171875</LongitudeDegrees>
            </Position>
            <AltitudeMeters>86.59999847412109375</AltitudeMeters>
            <DistanceMeters>6625.1590345667</DistanceMeters>
          </Trackpoint>
          <Trackpoint>
            <Time>2020-02-15T08:40:14.000Z</Time>
            <Position>
              <LatitudeDegrees>41.9609405100345611572265625</LatitudeDegrees>
              <LongitudeDegrees>2.83966918475925922393798828125</LongitudeDegrees>
            </Position>
            <AltitudeMeters>86.59999847412109375</AltitudeMeters>
            <DistanceMeters>6631.0583493248</DistanceMeters>
          </Trackpoint>
          <Trackpoint>
            <Time>2020-02-15T08:40:15.000Z</Time>
            <Position>
              <LatitudeDegrees>41.9608897157013416290283203125</LatitudeDegrees>
              <LongitudeDegrees>2.83967924304306507110595703125</LongitudeDegrees>
            </Position>
            <AltitudeMeters>86.59999847412109375</AltitudeMeters>
            <DistanceMeters>6636.7726083688</DistanceMeters>
          </Trackpoint>
          <Trackpoint>
            <Time>2020-02-15T08:40:16.000Z</Time>
            <Position>
              <LatitudeDegrees>41.96083866991102695465087890625</LatitudeDegrees>
              <LongitudeDegrees>2.83968578092753887176513671875</LongitudeDegrees>
            </Position>
            <AltitudeMeters>86.59999847412109375</AltitudeMeters>
            <DistanceMeters>6642.4805428297</DistanceMeters>
          </Trackpoint>
          <Trackpoint>
            <Time>2020-02-15T08:40:18.000Z</Time>
            <Position>
              <LatitudeDegrees>41.9607405178248882293701171875</LatitudeDegrees>
              <LongitudeDegrees>2.83969399519264698028564453125</LongitudeDegrees>
            </Position>
            <AltitudeMeters>86.59999847412109375</AltitudeMeters>
            <DistanceMeters>6653.4263664286</DistanceMeters>
          </Trackpoint>
          <Trackpoint>
            <Time>2020-02-15T08:40:19.000Z</Time>
            <Position>
              <LatitudeDegrees>41.96069240570068359375</LatitudeDegrees>
              <LongitudeDegrees>2.83969399519264698028564453125</LongitudeDegrees>
            </Position>
            <AltitudeMeters>86.8000030517578125</AltitudeMeters>
            <DistanceMeters>6658.7816930093</DistanceMeters>
          </Trackpoint>
          <Trackpoint>
            <Time>2020-02-15T08:40:20.000Z</Time>
            <Position>
              <LatitudeDegrees>41.96064353920519351959228515625</LatitudeDegrees>
              <LongitudeDegrees>2.8396964259445667266845703125</LongitudeDegrees>
            </Position>
            <AltitudeMeters>86.59999847412109375</AltitudeMeters>
            <DistanceMeters>6664.2239949796</DistanceMeters>
          </Trackpoint>
          <Trackpoint>
            <Time>2020-02-15T08:40:21.000Z</Time>
            <Position>
              <LatitudeDegrees>41.96059509180486202239990234375</LatitudeDegrees>
              <LongitudeDegrees>2.839697934687137603759765625</LongitudeDegrees>
            </Position>
            <AltitudeMeters>86.59999847412109375</AltitudeMeters>
            <DistanceMeters>6669.617964418</DistanceMeters>
          </Trackpoint>
          <Trackpoint>
            <Time>2020-02-15T08:40:22.000Z</Time>
            <Position>
              <LatitudeDegrees>41.96054915897548198699951171875</LatitudeDegrees>
              <LongitudeDegrees>2.83969692885875701904296875</LongitudeDegrees>
            </Position>
            <AltitudeMeters>86.8000030517578125</AltitudeMeters>
            <DistanceMeters>6674.7317791762</DistanceMeters>
          </Trackpoint>
          <Trackpoint>
            <Time>2020-02-15T08:40:23.000Z</Time>
            <Position>
              <LatitudeDegrees>41.96050465106964111328125</LatitudeDegrees>
              <LongitudeDegrees>2.83970095217227935791015625</LongitudeDegrees>
            </Position>
            <AltitudeMeters>86.59999847412109375</AltitudeMeters>
            <DistanceMeters>6679.6968681676</DistanceMeters>
          </Trackpoint>
          <Trackpoint>
            <Time>2020-02-15T08:40:24.000Z</Time>
            <Position>
              <LatitudeDegrees>41.9604625739157199859619140625</LatitudeDegrees>
              <LongitudeDegrees>2.83970455639064311981201171875</LongitudeDegrees>
            </Position>
            <AltitudeMeters>86.59999847412109375</AltitudeMeters>
            <DistanceMeters>6684.3889174395</DistanceMeters>
          </Trackpoint>
          <Trackpoint>
            <Time>2020-02-15T08:40:25.000Z</Time>
            <Position>
              <LatitudeDegrees>41.96042091585695743560791015625</LatitudeDegrees>
              <LongitudeDegrees>2.83970363438129425048828125</LongitudeDegrees>
            </Position>
            <AltitudeMeters>86.8000030517578125</AltitudeMeters>
            <DistanceMeters>6689.0248188553</DistanceMeters>
          </Trackpoint>
          <Trackpoint>
            <Time>2020-02-15T08:40:26.000Z</Time>
            <Position>
              <LatitudeDegrees>41.9603772461414337158203125</LatitudeDegrees>
              <LongitudeDegrees>2.839704640209674835205078125</LongitudeDegrees>
            </Position>
            <AltitudeMeters>86.40000152587890625</AltitudeMeters>
            <DistanceMeters>6693.8851357151</DistanceMeters>
          </Trackpoint>
          <Trackpoint>
            <Time>2020-02-15T08:40:27.000Z</Time>
            <Position>
              <LatitudeDegrees>41.96033273823559284210205078125</LatitudeDegrees>
              <LongitudeDegrees>2.83971008844673633575439453125</LongitudeDegrees>
            </Position>
            <AltitudeMeters>86.59999847412109375</AltitudeMeters>
            <DistanceMeters>6698.8593099638</DistanceMeters>
          </Trackpoint>
          <Trackpoint>
            <Time>2020-02-15T08:40:29.000Z</Time>
            <Position>
              <LatitudeDegrees>41.96024036966264247894287109375</LatitudeDegrees>
              <LongitudeDegrees>2.839721404016017913818359375</LongitudeDegrees>
            </Position>
            <AltitudeMeters>86.59999847412109375</AltitudeMeters>
            <DistanceMeters>6709.1827281085</DistanceMeters>
          </Trackpoint>
          <Trackpoint>
            <Time>2020-02-15T08:40:30.000Z</Time>
            <Position>
              <LatitudeDegrees>41.96019108407199382781982421875</LatitudeDegrees>
              <LongitudeDegrees>2.8397202305495738983154296875</LongitudeDegrees>
            </Position>
            <AltitudeMeters>86.40000152587890625</AltitudeMeters>
            <DistanceMeters>6714.6688236953</DistanceMeters>
          </Trackpoint>
          <Trackpoint>
            <Time>2020-02-15T08:40:32.000Z</Time>
            <Position>
              <LatitudeDegrees>41.96008957922458648681640625</LatitudeDegrees>
              <LongitudeDegrees>2.8397262655198574066162109375</LongitudeDegrees>
            </Position>
            <AltitudeMeters>86.40000152587890625</AltitudeMeters>
            <DistanceMeters>6725.977801221</DistanceMeters>
          </Trackpoint>
          <Trackpoint>
            <Time>2020-02-15T08:40:33.000Z</Time>
            <Position>
              <LatitudeDegrees>41.96003995835781097412109375</LatitudeDegrees>
              <LongitudeDegrees>2.83973288722336292266845703125</LongitudeDegrees>
            </Position>
            <AltitudeMeters>86.59999847412109375</AltitudeMeters>
            <DistanceMeters>6731.527719306</DistanceMeters>
          </Trackpoint>
          <Trackpoint>
            <Time>2020-02-15T08:40:34.000Z</Time>
            <Position>
              <LatitudeDegrees>41.9599898345768451690673828125</LatitudeDegrees>
              <LongitudeDegrees>2.83973942510783672332763671875</LongitudeDegrees>
            </Position>
            <AltitudeMeters>86.59999847412109375</AltitudeMeters>
            <DistanceMeters>6737.1334900849</DistanceMeters>
          </Trackpoint>
          <Trackpoint>
            <Time>2020-02-15T08:40:35.000Z</Time>
            <Position>
              <LatitudeDegrees>41.95994029752910137176513671875</LatitudeDegrees>
              <LongitudeDegrees>2.8397470526397228240966796875</LongitudeDegrees>
            </Position>
            <AltitudeMeters>86.8000030517578125</AltitudeMeters>
            <DistanceMeters>6742.6825945778</DistanceMeters>
          </Trackpoint>
          <Trackpoint>
            <Time>2020-02-15T08:40:36.000Z</Time>
            <Position>
              <LatitudeDegrees>41.9598917663097381591796875</LatitudeDegrees>
              <LongitudeDegrees>2.839757613837718963623046875</LongitudeDegrees>
            </Position>
            <AltitudeMeters>86.8000030517578125</AltitudeMeters>
            <DistanceMeters>6748.1546813359</DistanceMeters>
          </Trackpoint>
          <Trackpoint>
            <Time>2020-02-15T08:40:37.000Z</Time>
            <Position>
              <LatitudeDegrees>41.95984440855681896209716796875</LatitudeDegrees>
              <LongitudeDegrees>2.8397740423679351806640625</LongitudeDegrees>
            </Position>
            <AltitudeMeters>86.8000030517578125</AltitudeMeters>
            <DistanceMeters>6753.5986422918</DistanceMeters>
          </Trackpoint>
          <Trackpoint>
            <Time>2020-02-15T08:40:38.000Z</Time>
            <Position>
              <LatitudeDegrees>41.9598027504980564117431640625</LatitudeDegrees>
              <LongitudeDegrees>2.8398010320961475372314453125</LongitudeDegrees>
            </Position>
            <AltitudeMeters>86.8000030517578125</AltitudeMeters>
            <DistanceMeters>6758.7458982876</DistanceMeters>
          </Trackpoint>
          <Trackpoint>
            <Time>2020-02-15T08:40:39.000Z</Time>
            <Position>
              <LatitudeDegrees>41.9597685523331165313720703125</LatitudeDegrees>
              <LongitudeDegrees>2.83983908593654632568359375</LongitudeDegrees>
            </Position>
            <AltitudeMeters>87</AltitudeMeters>
            <DistanceMeters>6763.6872874349</DistanceMeters>
          </Trackpoint>
          <Trackpoint>
            <Time>2020-02-15T08:40:40.000Z</Time>
            <Position>
              <LatitudeDegrees>41.95974047295749187469482421875</LatitudeDegrees>
              <LongitudeDegrees>2.83988929353654384613037109375</LongitudeDegrees>
            </Position>
            <AltitudeMeters>87</AltitudeMeters>
            <DistanceMeters>6768.8869075049</DistanceMeters>
          </Trackpoint>
          <Trackpoint>
            <Time>2020-02-15T08:40:41.000Z</Time>
            <Position>
              <LatitudeDegrees>41.95972270332276821136474609375</LatitudeDegrees>
              <LongitudeDegrees>2.8399462066590785980224609375</LongitudeDegrees>
            </Position>
            <AltitudeMeters>87</AltitudeMeters>
            <DistanceMeters>6773.9954220565</DistanceMeters>
          </Trackpoint>
          <Trackpoint>
            <Time>2020-02-15T08:40:42.000Z</Time>
            <Position>
              <LatitudeDegrees>41.95971080102026462554931640625</LatitudeDegrees>
              <LongitudeDegrees>2.84000479616224765777587890625</LongitudeDegrees>
            </Position>
            <AltitudeMeters>87.1999969482421875</AltitudeMeters>
            <DistanceMeters>6779.0219669822</DistanceMeters>
          </Trackpoint>
          <Trackpoint>
            <Time>2020-02-15T08:40:43.000Z</Time>
            <Position>
              <LatitudeDegrees>41.959701664745807647705078125</LatitudeDegrees>
              <LongitudeDegrees>2.8400645591318607330322265625</LongitudeDegrees>
            </Position>
            <AltitudeMeters>87.1999969482421875</AltitudeMeters>
            <DistanceMeters>6784.0727061315</DistanceMeters>
          </Trackpoint>
          <Trackpoint>
            <Time>2020-02-15T08:40:44.000Z</Time>
            <Position>
              <LatitudeDegrees>41.959696970880031585693359375</LatitudeDegrees>
              <LongitudeDegrees>2.840124070644378662109375</LongitudeDegrees>
            </Position>
            <AltitudeMeters>87.1999969482421875</AltitudeMeters>
            <DistanceMeters>6789.0268708214</DistanceMeters>
          </Trackpoint>
          <Trackpoint>
            <Time>2020-02-15T08:40:45.000Z</Time>
            <Position>
              <LatitudeDegrees>41.95969571359455585479736328125</LatitudeDegrees>
              <LongitudeDegrees>2.8401852585375308990478515625</LongitudeDegrees>
            </Position>
            <AltitudeMeters>87</AltitudeMeters>
            <DistanceMeters>6794.0927840908</DistanceMeters>
          </Trackpoint>
          <Trackpoint>
            <Time>2020-02-15T08:40:46.000Z</Time>
            <Position>
              <LatitudeDegrees>41.95969420485198497772216796875</LatitudeDegrees>
              <LongitudeDegrees>2.84024678170680999755859375</LongitudeDegrees>
            </Position>
            <AltitudeMeters>87.1999969482421875</AltitudeMeters>
            <DistanceMeters>6799.1871377986</DistanceMeters>
          </Trackpoint>
          <Trackpoint>
            <Time>2020-02-15T08:40:48.000Z</Time>
            <Position>
              <LatitudeDegrees>41.95969068445265293121337890625</LatitudeDegrees>
              <LongitudeDegrees>2.84036354161798954010009765625</LongitudeDegrees>
            </Position>
            <AltitudeMeters>87.1999969482421875</AltitudeMeters>
            <DistanceMeters>6808.8588781737</DistanceMeters>
          </Trackpoint>
          <Trackpoint>
            <Time>2020-02-15T08:40:49.000Z</Time>
            <Position>
              <LatitudeDegrees>41.9596837274730205535888671875</LatitudeDegrees>
              <LongitudeDegrees>2.84042238257825374603271484375</LongitudeDegrees>
            </Position>
            <AltitudeMeters>87.1999969482421875</AltitudeMeters>
            <DistanceMeters>6813.7902061757</DistanceMeters>
          </Trackpoint>
          <Trackpoint>
            <Time>2020-02-15T08:40:50.000Z</Time>
            <Position>
              <LatitudeDegrees>41.95966989733278751373291015625</LatitudeDegrees>
              <LongitudeDegrees>2.8404766134917736053466796875</LongitudeDegrees>
            </Position>
            <AltitudeMeters>87.1999969482421875</AltitudeMeters>
            <DistanceMeters>6818.5348853614</DistanceMeters>
          </Trackpoint>
          <Trackpoint>
            <Time>2020-02-15T08:40:51.000Z</Time>
            <Position>
              <LatitudeDegrees>41.95964911021292209625244140625</LatitudeDegrees>
              <LongitudeDegrees>2.84051978029310703277587890625</LongitudeDegrees>
            </Position>
            <AltitudeMeters>87.1999969482421875</AltitudeMeters>
            <DistanceMeters>6822.7909790336</DistanceMeters>
          </Trackpoint>
          <Trackpoint>
            <Time>2020-02-15T08:40:52.000Z</Time>
            <Position>
              <LatitudeDegrees>41.95962379686534404754638671875</LatitudeDegrees>
              <LongitudeDegrees>2.84055548720061779022216796875</LongitudeDegrees>
            </Position>
            <AltitudeMeters>87.1999969482421875</AltitudeMeters>
            <DistanceMeters>6826.8738115204</DistanceMeters>
          </Trackpoint>
          <Trackpoint>
            <Time>2020-02-15T08:40:53.000Z</Time>
            <Position>
              <LatitudeDegrees>41.95959563367068767547607421875</LatitudeDegrees>
              <LongitudeDegrees>2.84058205783367156982421875</LongitudeDegrees>
            </Position>
            <AltitudeMeters>87.1999969482421875</AltitudeMeters>
            <DistanceMeters>6830.7032819988</DistanceMeters>
          </Trackpoint>
          <Trackpoint>
            <Time>2020-02-15T08:40:54.000Z</Time>
            <Position>
              <LatitudeDegrees>41.95956260897219181060791015625</LatitudeDegrees>
              <LongitudeDegrees>2.840593792498111724853515625</LongitudeDegrees>
            </Position>
            <AltitudeMeters>87.1999969482421875</AltitudeMeters>
            <DistanceMeters>6834.505538222</DistanceMeters>
          </Trackpoint>
          <Trackpoint>
            <Time>2020-02-15T08:40:55.000Z</Time>
            <Position>
              <LatitudeDegrees>41.9595268182456493377685546875</LatitudeDegrees>
              <LongitudeDegrees>2.84059287048876285552978515625</LongitudeDegrees>
            </Position>
            <AltitudeMeters>87.1999969482421875</AltitudeMeters>
            <DistanceMeters>6838.4898668214</DistanceMeters>
          </Trackpoint>
          <Trackpoint>
            <Time>2020-02-15T08:40:56.000Z</Time>
            <Position>
              <LatitudeDegrees>41.9594885967671871185302734375</LatitudeDegrees>
              <LongitudeDegrees>2.8405855782330036163330078125</LongitudeDegrees>
            </Position>
            <AltitudeMeters>87</AltitudeMeters>
            <DistanceMeters>6842.7860833257</DistanceMeters>
          </Trackpoint>
          <Trackpoint>
            <Time>2020-02-15T08:40:58.000Z</Time>
            <Position>
              <LatitudeDegrees>41.9594121538102626800537109375</LatitudeDegrees>
              <LongitudeDegrees>2.840550206601619720458984375</LongitudeDegrees>
            </Position>
            <AltitudeMeters>87.1999969482421875</AltitudeMeters>
            <DistanceMeters>6851.7840645102</DistanceMeters>
          </Trackpoint>
          <Trackpoint>
            <Time>2020-02-15T08:41:00.000Z</Time>
            <Position>
              <LatitudeDegrees>41.95933747105300426483154296875</LatitudeDegrees>
              <LongitudeDegrees>2.84048549830913543701171875</LongitudeDegrees>
            </Position>
            <AltitudeMeters>87.1999969482421875</AltitudeMeters>
            <DistanceMeters>6861.6723235954</DistanceMeters>
          </Trackpoint>
          <Trackpoint>
            <Time>2020-02-15T08:41:01.000Z</Time>
            <Position>
              <LatitudeDegrees>41.9592961482703685760498046875</LatitudeDegrees>
              <LongitudeDegrees>2.8404568322002887725830078125</LongitudeDegrees>
            </Position>
            <AltitudeMeters>87.1999969482421875</AltitudeMeters>
            <DistanceMeters>6866.8484453877</DistanceMeters>
          </Trackpoint>
          <Trackpoint>
            <Time>2020-02-15T08:41:02.000Z</Time>
            <Position>
              <LatitudeDegrees>41.95925180800259113311767578125</LatitudeDegrees>
              <LongitudeDegrees>2.8404365479946136474609375</LongitudeDegrees>
            </Position>
            <AltitudeMeters>87.1999969482421875</AltitudeMeters>
            <DistanceMeters>6872.0610742849</DistanceMeters>
          </Trackpoint>
          <Trackpoint>
            <Time>2020-02-15T08:41:03.000Z</Time>
            <Position>
              <LatitudeDegrees>41.959207467734813690185546875</LatitudeDegrees>
              <LongitudeDegrees>2.8404196165502071380615234375</LongitudeDegrees>
            </Position>
            <AltitudeMeters>87.1999969482421875</AltitudeMeters>
            <DistanceMeters>6877.1907568051</DistanceMeters>
          </Trackpoint>
          <Trackpoint>
            <Time>2020-02-15T08:41:04.000Z</Time>
            <Position>
              <LatitudeDegrees>41.95916430093348026275634765625</LatitudeDegrees>
              <LongitudeDegrees>2.8404025174677371978759765625</LongitudeDegrees>
            </Position>
            <AltitudeMeters>87.1999969482421875</AltitudeMeters>
            <DistanceMeters>6882.2011073431</DistanceMeters>
          </Trackpoint>
          <Trackpoint>
            <Time>2020-02-15T08:41:05.000Z</Time>
            <Position>
              <LatitudeDegrees>41.95912155322730541229248046875</LatitudeDegrees>
              <LongitudeDegrees>2.84038684330880641937255859375</LongitudeDegrees>
            </Position>
            <AltitudeMeters>87.1999969482421875</AltitudeMeters>
            <DistanceMeters>6887.1324353451</DistanceMeters>
          </Trackpoint>
          <Trackpoint>
            <Time>2020-02-15T08:41:06.000Z</Time>
            <Position>
              <LatitudeDegrees>41.95907964371144771575927734375</LatitudeDegrees>
              <LongitudeDegrees>2.84037024714052677154541015625</LongitudeDegrees>
            </Position>
            <AltitudeMeters>87.1999969482421875</AltitudeMeters>
            <DistanceMeters>6891.9955382853</DistanceMeters>
          </Trackpoint>
          <Trackpoint>
            <Time>2020-02-15T08:41:07.000Z</Time>
            <Position>
              <LatitudeDegrees>41.95903815329074859619140625</LatitudeDegrees>
              <LongitudeDegrees>2.8403508849442005157470703125</LongitudeDegrees>
            </Position>
            <AltitudeMeters>87.1999969482421875</AltitudeMeters>
            <DistanceMeters>6896.8836444902</DistanceMeters>
          </Trackpoint>
          <Trackpoint>
            <Time>2020-02-15T08:41:08.000Z</Time>
            <Position>
              <LatitudeDegrees>41.9589970819652080535888671875</LatitudeDegrees>
              <LongitudeDegrees>2.8403321094810962677001953125</LongitudeDegrees>
            </Position>
            <AltitudeMeters>87.1999969482421875</AltitudeMeters>
            <DistanceMeters>6901.7132083893</DistanceMeters>
          </Trackpoint>
          <Trackpoint>
            <Time>2020-02-15T08:41:09.000Z</Time>
            <Position>
              <LatitudeDegrees>41.9589568488299846649169921875</LatitudeDegrees>
              <LongitudeDegrees>2.8403176926076412200927734375</LongitudeDegrees>
            </Position>
            <AltitudeMeters>87</AltitudeMeters>
            <DistanceMeters>6906.3481357738</DistanceMeters>
          </Trackpoint>
          <Trackpoint>
            <Time>2020-02-15T08:41:10.000Z</Time>
            <Position>
              <LatitudeDegrees>41.95891468785703182220458984375</LatitudeDegrees>
              <LongitudeDegrees>2.84030671231448650360107421875</LongitudeDegrees>
            </Position>
            <AltitudeMeters>87</AltitudeMeters>
            <DistanceMeters>6911.1278944919</DistanceMeters>
          </Trackpoint>
          <Trackpoint>
            <Time>2020-02-15T08:41:11.000Z</Time>
            <Position>
              <LatitudeDegrees>41.95887462235987186431884765625</LatitudeDegrees>
              <LongitudeDegrees>2.84029028378427028656005859375</LongitudeDegrees>
            </Position>
            <AltitudeMeters>87.1999969482421875</AltitudeMeters>
            <DistanceMeters>6915.790017828</DistanceMeters>
          </Trackpoint>
          <Trackpoint>
            <Time>2020-02-15T08:41:12.000Z</Time>
            <Position>
              <LatitudeDegrees>41.95883606560528278350830078125</LatitudeDegrees>
              <LongitudeDegrees>2.84026555716991424560546875</LongitudeDegrees>
            </Position>
            <AltitudeMeters>87</AltitudeMeters>
            <DistanceMeters>6920.5451530958</DistanceMeters>
          </Trackpoint>
          <Trackpoint>
            <Time>2020-02-15T08:41:13.000Z</Time>
            <Position>
              <LatitudeDegrees>41.9587962515652179718017578125</LatitudeDegrees>
              <LongitudeDegrees>2.84024166874587535858154296875</LongitudeDegrees>
            </Position>
            <AltitudeMeters>87</AltitudeMeters>
            <DistanceMeters>6925.3971021155</DistanceMeters>
          </Trackpoint>
          <Trackpoint>
            <Time>2020-02-15T08:41:14.000Z</Time>
            <Position>
              <LatitudeDegrees>41.958757527172565460205078125</LatitudeDegrees>
              <LongitudeDegrees>2.84021727740764617919921875</LongitudeDegrees>
            </Position>
            <AltitudeMeters>87</AltitudeMeters>
            <DistanceMeters>6930.1550850542</DistanceMeters>
          </Trackpoint>
          <Trackpoint>
            <Time>2020-02-15T08:41:15.000Z</Time>
            <Position>
              <LatitudeDegrees>41.958718635141849517822265625</LatitudeDegrees>
              <LongitudeDegrees>2.84019171260297298431396484375</LongitudeDegrees>
            </Position>
            <AltitudeMeters>87</AltitudeMeters>
            <DistanceMeters>6934.9734173941</DistanceMeters>
          </Trackpoint>
          <Trackpoint>
            <Time>2020-02-15T08:41:16.000Z</Time>
            <Position>
              <LatitudeDegrees>41.9586794078350067138671875</LatitudeDegrees>
              <LongitudeDegrees>2.84016723744571208953857421875</LongitudeDegrees>
            </Position>
            <AltitudeMeters>87.1999969482421875</AltitudeMeters>
            <DistanceMeters>6939.7870621831</DistanceMeters>
          </Trackpoint>
          <Trackpoint>
            <Time>2020-02-15T08:41:17.000Z</Time>
            <Position>
              <LatitudeDegrees>41.95864395238459110260009765625</LatitudeDegrees>
              <LongitudeDegrees>2.840137816965579986572265625</LongitudeDegrees>
            </Position>
            <AltitudeMeters>87</AltitudeMeters>
            <DistanceMeters>6944.4229635989</DistanceMeters>
          </Trackpoint>
          <Trackpoint>
            <Time>2020-02-15T08:41:18.000Z</Time>
            <Position>
              <LatitudeDegrees>41.9586115144193172454833984375</LatitudeDegrees>
              <LongitudeDegrees>2.8401054628193378448486328125</LongitudeDegrees>
            </Position>
            <AltitudeMeters>87</AltitudeMeters>
            <DistanceMeters>6948.9184403346</DistanceMeters>
          </Trackpoint>
          <Trackpoint>
            <Time>2020-02-15T08:41:19.000Z</Time>
            <Position>
              <LatitudeDegrees>41.9585806690156459808349609375</LatitudeDegrees>
              <LongitudeDegrees>2.84007436595857143402099609375</LongitudeDegrees>
            </Position>
            <AltitudeMeters>87</AltitudeMeters>
            <DistanceMeters>6953.2093989535</DistanceMeters>
          </Trackpoint>
          <Trackpoint>
            <Time>2020-02-15T08:41:20.000Z</Time>
            <Position>
              <LatitudeDegrees>41.95854973979294300079345703125</LatitudeDegrees>
              <LongitudeDegrees>2.84004368819296360015869140625</LongitudeDegrees>
            </Position>
            <AltitudeMeters>86.8000030517578125</AltitudeMeters>
            <DistanceMeters>6957.4866568222</DistanceMeters>
          </Trackpoint>
          <Trackpoint>
            <Time>2020-02-15T08:41:21.000Z</Time>
            <Position>
              <LatitudeDegrees>41.9585186429321765899658203125</LatitudeDegrees>
              <LongitudeDegrees>2.8400149382650852203369140625</LongitudeDegrees>
            </Position>
            <AltitudeMeters>86.8000030517578125</AltitudeMeters>
            <DistanceMeters>6961.6872245662</DistanceMeters>
          </Trackpoint>
          <Trackpoint>
            <Time>2020-02-15T08:41:22.000Z</Time>
            <Position>
              <LatitudeDegrees>41.95848771370947360992431640625</LatitudeDegrees>
              <LongitudeDegrees>2.83998928964138031005859375</LongitudeDegrees>
            </Position>
            <AltitudeMeters>87</AltitudeMeters>
            <DistanceMeters>6965.7322830969</DistanceMeters>
          </Trackpoint>
          <Trackpoint>
            <Time>2020-02-15T08:41:23.000Z</Time>
            <Position>
              <LatitudeDegrees>41.9584566168487071990966796875</LatitudeDegrees>
              <LongitudeDegrees>2.83996514976024627685546875</LongitudeDegrees>
            </Position>
            <AltitudeMeters>87</AltitudeMeters>
            <DistanceMeters>6969.7279276197</DistanceMeters>
          </Trackpoint>
          <Trackpoint>
            <Time>2020-02-15T08:41:24.000Z</Time>
            <Position>
              <LatitudeDegrees>41.9584244303405284881591796875</LatitudeDegrees>
              <LongitudeDegrees>2.83994461409747600555419921875</LongitudeDegrees>
            </Position>
            <AltitudeMeters>87</AltitudeMeters>
            <DistanceMeters>6973.6918061512</DistanceMeters>
          </Trackpoint>
          <Trackpoint>
            <Time>2020-02-15T08:41:25.000Z</Time>
            <Position>
              <LatitudeDegrees>41.9583898968994617462158203125</LatitudeDegrees>
              <LongitudeDegrees>2.83992826938629150390625</LongitudeDegrees>
            </Position>
            <AltitudeMeters>87.1999969482421875</AltitudeMeters>
            <DistanceMeters>6977.765782158</DistanceMeters>
          </Trackpoint>
          <Trackpoint>
            <Time>2020-02-15T08:41:26.000Z</Time>
            <Position>
              <LatitudeDegrees>41.9583530165255069732666015625</LatitudeDegrees>
              <LongitudeDegrees>2.8399120084941387176513671875</LongitudeDegrees>
            </Position>
            <AltitudeMeters>87</AltitudeMeters>
            <DistanceMeters>6982.0871474615</DistanceMeters>
          </Trackpoint>
          <Trackpoint>
            <Time>2020-02-15T08:41:27.000Z</Time>
            <Position>
              <LatitudeDegrees>41.95831504650413990020751953125</LatitudeDegrees>
              <LongitudeDegrees>2.83990086056292057037353515625</LongitudeDegrees>
            </Position>
            <AltitudeMeters>87</AltitudeMeters>
            <DistanceMeters>6986.4126900161</DistanceMeters>
          </Trackpoint>
          <Trackpoint>
            <Time>2020-02-15T08:41:28.000Z</Time>
            <Position>
              <LatitudeDegrees>41.95827632211148738861083984375</LatitudeDegrees>
              <LongitudeDegrees>2.83988879062235355377197265625</LongitudeDegrees>
            </Position>
            <AltitudeMeters>87.1999969482421875</AltitudeMeters>
            <DistanceMeters>6990.8373036411</DistanceMeters>
          </Trackpoint>
          <Trackpoint>
            <Time>2020-02-15T08:41:29.000Z</Time>
            <Position>
              <LatitudeDegrees>41.95823893882334232330322265625</LatitudeDegrees>
              <LongitudeDegrees>2.8398717753589153289794921875</LongitudeDegrees>
            </Position>
            <AltitudeMeters>87</AltitudeMeters>
            <DistanceMeters>6995.2311975221</DistanceMeters>
          </Trackpoint>
          <Trackpoint>
            <Time>2020-02-15T08:41:31.000Z</Time>
            <Position>
              <LatitudeDegrees>41.95816400460898876190185546875</LatitudeDegrees>
              <LongitudeDegrees>2.839838080108165740966796875</LongitudeDegrees>
            </Position>
            <AltitudeMeters>87.40000152587890625</AltitudeMeters>
            <DistanceMeters>7004.02617534</DistanceMeters>
          </Trackpoint>
          <Trackpoint>
            <Time>2020-02-15T08:41:33.000Z</Time>
            <Position>
              <LatitudeDegrees>41.958090327680110931396484375</LatitudeDegrees>
              <LongitudeDegrees>2.8398134373128414154052734375</LongitudeDegrees>
            </Position>
            <AltitudeMeters>87.59999847412109375</AltitudeMeters>
            <DistanceMeters>7012.4766099158</DistanceMeters>
          </Trackpoint>
          <Trackpoint>
            <Time>2020-02-15T08:41:34.000Z</Time>
            <Position>
              <LatitudeDegrees>41.95805286057293415069580078125</LatitudeDegrees>
              <LongitudeDegrees>2.83980044536292552947998046875</LongitudeDegrees>
            </Position>
            <AltitudeMeters>87.8000030517578125</AltitudeMeters>
            <DistanceMeters>7016.7833229334</DistanceMeters>
          </Trackpoint>
          <Trackpoint>
            <Time>2020-02-15T08:41:35.000Z</Time>
            <Position>
              <LatitudeDegrees>41.958013884723186492919921875</LatitudeDegrees>
              <LongitudeDegrees>2.83978401683270931243896484375</LongitudeDegrees>
            </Position>
            <AltitudeMeters>87.8000030517578125</AltitudeMeters>
            <DistanceMeters>7021.3287398454</DistanceMeters>
          </Trackpoint>
          <Trackpoint>
            <Time>2020-02-15T08:41:36.000Z</Time>
            <Position>
              <LatitudeDegrees>41.957973651587963104248046875</LatitudeDegrees>
              <LongitudeDegrees>2.8397638164460659027099609375</LongitudeDegrees>
            </Position>
            <AltitudeMeters>87.8000030517578125</AltitudeMeters>
            <DistanceMeters>7026.1084985635</DistanceMeters>
          </Trackpoint>
          <Trackpoint>
            <Time>2020-02-15T08:41:37.000Z</Time>
            <Position>
              <LatitudeDegrees>41.9579352624714374542236328125</LatitudeDegrees>
              <LongitudeDegrees>2.839737832546234130859375</LongitudeDegrees>
            </Position>
            <AltitudeMeters>87.8000030517578125</AltitudeMeters>
            <DistanceMeters>7030.8920342547</DistanceMeters>
          </Trackpoint>
          <Trackpoint>
            <Time>2020-02-15T08:41:38.000Z</Time>
            <Position>
              <LatitudeDegrees>41.9578977115452289581298828125</LatitudeDegrees>
              <LongitudeDegrees>2.83970790915191173553466796875</LongitudeDegrees>
            </Position>
            <AltitudeMeters>87.8000030517578125</AltitudeMeters>
            <DistanceMeters>7035.7504928399</DistanceMeters>
          </Trackpoint>
          <Trackpoint>
            <Time>2020-02-15T08:41:45.000Z</Time>
            <Position>
              <LatitudeDegrees>41.95763133466243743896484375</LatitudeDegrees>
              <LongitudeDegrees>2.8394288755953311920166015625</LongitudeDegrees>
            </Position>
            <AltitudeMeters>88.40000152587890625</AltitudeMeters>
            <DistanceMeters>7073.3324471089</DistanceMeters>
          </Trackpoint>
          <Trackpoint>
            <Time>2020-02-15T08:41:46.000Z</Time>
            <Position>
              <LatitudeDegrees>41.9575917720794677734375</LatitudeDegrees>
              <LongitudeDegrees>2.83938704989850521087646484375</LongitudeDegrees>
            </Position>
            <AltitudeMeters>88.40000152587890625</AltitudeMeters>
            <DistanceMeters>7078.933383242</DistanceMeters>
          </Trackpoint>
          <Trackpoint>
            <Time>2020-02-15T08:41:49.000Z</Time>
            <Position>
              <LatitudeDegrees>41.95746880955994129180908203125</LatitudeDegrees>
              <LongitudeDegrees>2.83926433883607387542724609375</LongitudeDegrees>
            </Position>
            <AltitudeMeters>88.40000152587890625</AltitudeMeters>
            <DistanceMeters>7095.97684237</DistanceMeters>
          </Trackpoint>
          <Trackpoint>
            <Time>2020-02-15T08:41:50.000Z</Time>
            <Position>
              <LatitudeDegrees>41.95742547512054443359375</LatitudeDegrees>
              <LongitudeDegrees>2.83922645263373851776123046875</LongitudeDegrees>
            </Position>
            <AltitudeMeters>88.59999847412109375</AltitudeMeters>
            <DistanceMeters>7101.7296877675</DistanceMeters>
          </Trackpoint>
          <Trackpoint>
            <Time>2020-02-15T08:41:51.000Z</Time>
            <Position>
              <LatitudeDegrees>41.95738054811954498291015625</LatitudeDegrees>
              <LongitudeDegrees>2.839190661907196044921875</LongitudeDegrees>
            </Position>
            <AltitudeMeters>88.40000152587890625</AltitudeMeters>
            <DistanceMeters>7107.542651388</DistanceMeters>
          </Trackpoint>
          <Trackpoint>
            <Time>2020-02-15T08:41:52.000Z</Time>
            <Position>
              <LatitudeDegrees>41.95733604021370410919189453125</LatitudeDegrees>
              <LongitudeDegrees>2.8391526080667972564697265625</LongitudeDegrees>
            </Position>
            <AltitudeMeters>88.1999969482421875</AltitudeMeters>
            <DistanceMeters>7113.4143489162</DistanceMeters>
          </Trackpoint>
          <Trackpoint>
            <Time>2020-02-15T08:41:57.000Z</Time>
            <Position>
              <LatitudeDegrees>41.95709950290620326995849609375</LatitudeDegrees>
              <LongitudeDegrees>2.83897700719535350799560546875</LongitudeDegrees>
            </Position>
            <AltitudeMeters>88.1999969482421875</AltitudeMeters>
            <DistanceMeters>7143.4869636323</DistanceMeters>
          </Trackpoint>
          <Trackpoint>
            <Time>2020-02-15T08:41:58.000Z</Time>
            <Position>
              <LatitudeDegrees>41.9570524804294109344482421875</LatitudeDegrees>
              <LongitudeDegrees>2.83894591033458709716796875</LongitudeDegrees>
            </Position>
            <AltitudeMeters>88.1999969482421875</AltitudeMeters>
            <DistanceMeters>7149.3193128986</DistanceMeters>
          </Trackpoint>
          <Trackpoint>
            <Time>2020-02-15T08:41:59.000Z</Time>
            <Position>
              <LatitudeDegrees>41.9570058770477771759033203125</LatitudeDegrees>
              <LongitudeDegrees>2.83891296945512294769287109375</LongitudeDegrees>
            </Position>
            <AltitudeMeters>88.1999969482421875</AltitudeMeters>
            <DistanceMeters>7155.1794648349</DistanceMeters>
          </Trackpoint>
          <Trackpoint>
            <Time>2020-02-15T08:42:00.000Z</Time>
            <Position>
              <LatitudeDegrees>41.956959776580333709716796875</LatitudeDegrees>
              <LongitudeDegrees>2.83887776546180248260498046875</LongitudeDegrees>
            </Position>
            <AltitudeMeters>88</AltitudeMeters>
            <DistanceMeters>7161.0803100937</DistanceMeters>
          </Trackpoint>
          <Trackpoint>
            <Time>2020-02-15T08:42:02.000Z</Time>
            <Position>
              <LatitudeDegrees>41.95686958730220794677734375</LatitudeDegrees>
              <LongitudeDegrees>2.8388055972754955291748046875</LongitudeDegrees>
            </Position>
            <AltitudeMeters>88.1999969482421875</AltitudeMeters>
            <DistanceMeters>7172.7608676571</DistanceMeters>
          </Trackpoint>
          <Trackpoint>
            <Time>2020-02-15T08:42:03.000Z</Time>
            <Position>
              <LatitudeDegrees>41.9568258337676525115966796875</LatitudeDegrees>
              <LongitudeDegrees>2.83876888453960418701171875</LongitudeDegrees>
            </Position>
            <AltitudeMeters>88.1999969482421875</AltitudeMeters>
            <DistanceMeters>7178.5019284493</DistanceMeters>
          </Trackpoint>
          <Trackpoint>
            <Time>2020-02-15T08:42:04.000Z</Time>
            <Position>
              <LatitudeDegrees>41.956781409680843353271484375</LatitudeDegrees>
              <LongitudeDegrees>2.83873259089887142181396484375</LongitudeDegrees>
            </Position>
            <AltitudeMeters>88.1999969482421875</AltitudeMeters>
            <DistanceMeters>7184.286862615</DistanceMeters>
          </Trackpoint>
          <Trackpoint>
            <Time>2020-02-15T08:42:08.000Z</Time>
            <Position>
              <LatitudeDegrees>41.9566015340387821197509765625</LatitudeDegrees>
              <LongitudeDegrees>2.83858875744044780731201171875</LongitudeDegrees>
            </Position>
            <AltitudeMeters>88.1999969482421875</AltitudeMeters>
            <DistanceMeters>7207.5794591407</DistanceMeters>
          </Trackpoint>
          <Trackpoint>
            <Time>2020-02-15T08:42:11.000Z</Time>
            <Position>
              <LatitudeDegrees>41.95646457374095916748046875</LatitudeDegrees>
              <LongitudeDegrees>2.83849068917334079742431640625</LongitudeDegrees>
            </Position>
            <AltitudeMeters>88</AltitudeMeters>
            <DistanceMeters>7224.8502867148</DistanceMeters>
          </Trackpoint>
          <Trackpoint>
            <Time>2020-02-15T08:42:12.000Z</Time>
            <Position>
              <LatitudeDegrees>41.9564174674451351165771484375</LatitudeDegrees>
              <LongitudeDegrees>2.83846135251224040985107421875</LongitudeDegrees>
            </Position>
            <AltitudeMeters>88</AltitudeMeters>
            <DistanceMeters>7230.6289736496</DistanceMeters>
          </Trackpoint>
          <Trackpoint>
            <Time>2020-02-15T08:42:15.000Z</Time>
            <Position>
              <LatitudeDegrees>41.95627857930958271026611328125</LatitudeDegrees>
              <LongitudeDegrees>2.83836915157735347747802734375</LongitudeDegrees>
            </Position>
            <AltitudeMeters>88</AltitudeMeters>
            <DistanceMeters>7247.8684015961</DistanceMeters>
          </Trackpoint>
          <Trackpoint>
            <Time>2020-02-15T08:42:16.000Z</Time>
            <Position>
              <LatitudeDegrees>41.95623381994664669036865234375</LatitudeDegrees>
              <LongitudeDegrees>2.83833579160273075103759765625</LongitudeDegrees>
            </Position>
            <AltitudeMeters>88.1999969482421875</AltitudeMeters>
            <DistanceMeters>7253.5636658206</DistanceMeters>
          </Trackpoint>
          <Trackpoint>
            <Time>2020-02-15T08:42:17.000Z</Time>
            <Position>
              <LatitudeDegrees>41.95619241334497928619384765625</LatitudeDegrees>
              <LongitudeDegrees>2.83830326981842517852783203125</LongitudeDegrees>
            </Position>
            <AltitudeMeters>88.1999969482421875</AltitudeMeters>
            <DistanceMeters>7258.9004121237</DistanceMeters>
          </Trackpoint>
          <Trackpoint>
            <Time>2020-02-15T08:42:18.000Z</Time>
            <Position>
              <LatitudeDegrees>41.956149749457836151123046875</LatitudeDegrees>
              <LongitudeDegrees>2.83826957456767559051513671875</LongitudeDegrees>
            </Position>
            <AltitudeMeters>88.1999969482421875</AltitudeMeters>
            <DistanceMeters>7264.4070441887</DistanceMeters>
          </Trackpoint>
          <Trackpoint>
            <Time>2020-02-15T08:42:19.000Z</Time>
            <Position>
              <LatitudeDegrees>41.9561086781322956085205078125</LatitudeDegrees>
              <LongitudeDegrees>2.83823403529822826385498046875</LongitudeDegrees>
            </Position>
            <AltitudeMeters>88.1999969482421875</AltitudeMeters>
            <DistanceMeters>7269.8427051535</DistanceMeters>
          </Trackpoint>
          <Trackpoint>
            <Time>2020-02-15T08:42:23.000Z</Time>
            <Position>
              <LatitudeDegrees>41.9559396989643573760986328125</LatitudeDegrees>
              <LongitudeDegrees>2.8380814008414745330810546875</LongitudeDegrees>
            </Position>
            <AltitudeMeters>88.1999969482421875</AltitudeMeters>
            <DistanceMeters>7292.4997523064</DistanceMeters>
          </Trackpoint>
          <Trackpoint>
            <Time>2020-02-15T08:42:29.000Z</Time>
            <Position>
              <LatitudeDegrees>41.955689080059528350830078125</LatitudeDegrees>
              <LongitudeDegrees>2.8378369845449924468994140625</LongitudeDegrees>
            </Position>
            <AltitudeMeters>88.59999847412109375</AltitudeMeters>
            <DistanceMeters>7326.9581737991</DistanceMeters>
          </Trackpoint>
          <Trackpoint>
            <Time>2020-02-15T08:42:30.000Z</Time>
            <Position>
              <LatitudeDegrees>41.95564608089625835418701171875</LatitudeDegrees>
              <LongitudeDegrees>2.83779717050492763519287109375</LongitudeDegrees>
            </Position>
            <AltitudeMeters>88.59999847412109375</AltitudeMeters>
            <DistanceMeters>7332.7695837744</DistanceMeters>
          </Trackpoint>
          <Trackpoint>
            <Time>2020-02-15T08:42:32.000Z</Time>
            <Position>
              <LatitudeDegrees>41.9555615074932575225830078125</LatitudeDegrees>
              <LongitudeDegrees>2.83771938644349575042724609375</LongitudeDegrees>
            </Position>
            <AltitudeMeters>88.59999847412109375</AltitudeMeters>
            <DistanceMeters>7344.1735813606</DistanceMeters>
          </Trackpoint>
          <Trackpoint>
            <Time>2020-02-15T08:42:33.000Z</Time>
            <Position>
              <LatitudeDegrees>41.9555209390819072723388671875</LatitudeDegrees>
              <LongitudeDegrees>2.8376783989369869232177734375</LongitudeDegrees>
            </Position>
            <AltitudeMeters>88.59999847412109375</AltitudeMeters>
            <DistanceMeters>7349.8210790365</DistanceMeters>
          </Trackpoint>
          <Trackpoint>
            <Time>2020-02-15T08:42:34.000Z</Time>
            <Position>
              <LatitudeDegrees>41.955480538308620452880859375</LatitudeDegrees>
              <LongitudeDegrees>2.83763699233531951904296875</LongitudeDegrees>
            </Position>
            <AltitudeMeters>88.8000030517578125</AltitudeMeters>
            <DistanceMeters>7355.4749689021</DistanceMeters>
          </Trackpoint>
          <Trackpoint>
            <Time>2020-02-15T08:42:35.000Z</Time>
            <Position>
              <LatitudeDegrees>41.95544105954468250274658203125</LatitudeDegrees>
              <LongitudeDegrees>2.837595082819461822509765625</LongitudeDegrees>
            </Position>
            <AltitudeMeters>88.59999847412109375</AltitudeMeters>
            <DistanceMeters>7361.0742925588</DistanceMeters>
          </Trackpoint>
          <Trackpoint>
            <Time>2020-02-15T08:42:36.000Z</Time>
            <Position>
              <LatitudeDegrees>41.9554030895233154296875</LatitudeDegrees>
              <LongitudeDegrees>2.837550155818462371826171875</LongitudeDegrees>
            </Position>
            <AltitudeMeters>88.8000030517578125</AltitudeMeters>
            <DistanceMeters>7366.7025701076</DistanceMeters>
          </Trackpoint>
          <Trackpoint>
            <Time>2020-02-15T08:42:41.000Z</Time>
            <Position>
              <LatitudeDegrees>41.95521072484552860260009765625</LatitudeDegrees>
              <LongitudeDegrees>2.8373206593096256256103515625</LongitudeDegrees>
            </Position>
            <AltitudeMeters>88.59999847412109375</AltitudeMeters>
            <DistanceMeters>7395.325020305</DistanceMeters>
          </Trackpoint>
          <Trackpoint>
            <Time>2020-02-15T08:42:42.000Z</Time>
            <Position>
              <LatitudeDegrees>41.9551665522158145904541015625</LatitudeDegrees>
              <LongitudeDegrees>2.83728771843016147613525390625</LongitudeDegrees>
            </Position>
            <AltitudeMeters>88.8000030517578125</AltitudeMeters>
            <DistanceMeters>7400.9468765423</DistanceMeters>
          </Trackpoint>
          <Trackpoint>
            <Time>2020-02-15T08:42:43.000Z</Time>
            <Position>
              <LatitudeDegrees>41.9551212899386882781982421875</LatitudeDegrees>
              <LongitudeDegrees>2.83726039342582225799560546875</LongitudeDegrees>
            </Position>
            <AltitudeMeters>89</AltitudeMeters>
            <DistanceMeters>7406.4682475745</DistanceMeters>
          </Trackpoint>
          <Trackpoint>
            <Time>2020-02-15T08:42:44.000Z</Time>
            <Position>
              <LatitudeDegrees>41.9550753571093082427978515625</LatitudeDegrees>
              <LongitudeDegrees>2.837240695953369140625</LongitudeDegrees>
            </Position>
            <AltitudeMeters>88.8000030517578125</AltitudeMeters>
            <DistanceMeters>7411.8345231712</DistanceMeters>
          </Trackpoint>
          <Trackpoint>
            <Time>2020-02-15T08:42:45.000Z</Time>
            <Position>
              <LatitudeDegrees>41.9550290890038013458251953125</LatitudeDegrees>
              <LongitudeDegrees>2.8372321464121341705322265625</LongitudeDegrees>
            </Position>
            <AltitudeMeters>89</AltitudeMeters>
            <DistanceMeters>7417.0324062711</DistanceMeters>
          </Trackpoint>
          <Trackpoint>
            <Time>2020-02-15T08:42:46.000Z</Time>
            <Position>
              <LatitudeDegrees>41.95498374290764331817626953125</LatitudeDegrees>
              <LongitudeDegrees>2.83722887746989727020263671875</LongitudeDegrees>
            </Position>
            <AltitudeMeters>89</AltitudeMeters>
            <DistanceMeters>7422.0876131251</DistanceMeters>
          </Trackpoint>
          <Trackpoint>
            <Time>2020-02-15T08:42:47.000Z</Time>
            <Position>
              <LatitudeDegrees>41.9549375586211681365966796875</LatitudeDegrees>
              <LongitudeDegrees>2.837226949632167816162109375</LongitudeDegrees>
            </Position>
            <AltitudeMeters>89.1999969482421875</AltitudeMeters>
            <DistanceMeters>7427.2304813816</DistanceMeters>
          </Trackpoint>
          <Trackpoint>
            <Time>2020-02-15T08:42:48.000Z</Time>
            <Position>
              <LatitudeDegrees>41.9548894464969635009765625</LatitudeDegrees>
              <LongitudeDegrees>2.837226949632167816162109375</LongitudeDegrees>
            </Position>
            <AltitudeMeters>89</AltitudeMeters>
            <DistanceMeters>7432.584964803</DistanceMeters>
          </Trackpoint>
          <Trackpoint>
            <Time>2020-02-15T08:42:51.000Z</Time>
            <Position>
              <LatitudeDegrees>41.954738907516002655029296875</LatitudeDegrees>
              <LongitudeDegrees>2.83722451888024806976318359375</LongitudeDegrees>
            </Position>
            <AltitudeMeters>89.40000152587890625</AltitudeMeters>
            <DistanceMeters>7449.3409528907</DistanceMeters>
          </Trackpoint>
          <Trackpoint>
            <Time>2020-02-15T08:42:52.000Z</Time>
            <Position>
              <LatitudeDegrees>41.95469205267727375030517578125</LatitudeDegrees>
              <LongitudeDegrees>2.83721915446221828460693359375</LongitudeDegrees>
            </Position>
            <AltitudeMeters>89.59999847412109375</AltitudeMeters>
            <DistanceMeters>7454.5743286516</DistanceMeters>
          </Trackpoint>
          <Trackpoint>
            <Time>2020-02-15T08:42:53.000Z</Time>
            <Position>
              <LatitudeDegrees>41.9546472094953060150146484375</LatitudeDegrees>
              <LongitudeDegrees>2.83721454441547393798828125</LongitudeDegrees>
            </Position>
            <AltitudeMeters>89.8000030517578125</AltitudeMeters>
            <DistanceMeters>7459.580171451</DistanceMeters>
          </Trackpoint>
          <Trackpoint>
            <Time>2020-02-15T08:42:54.000Z</Time>
            <Position>
              <LatitudeDegrees>41.95460605435073375701904296875</LatitudeDegrees>
              <LongitudeDegrees>2.83721060492098331451416015625</LongitudeDegrees>
            </Position>
            <AltitudeMeters>89.8000030517578125</AltitudeMeters>
            <DistanceMeters>7464.1730200848</DistanceMeters>
          </Trackpoint>
          <Trackpoint>
            <Time>2020-02-15T08:42:55.000Z</Time>
            <Position>
              <LatitudeDegrees>41.9545680843293666839599609375</LatitudeDegrees>
              <LongitudeDegrees>2.837208844721317291259765625</LongitudeDegrees>
            </Position>
            <AltitudeMeters>90</AltitudeMeters>
            <DistanceMeters>7468.4025095853</DistanceMeters>
          </Trackpoint>
          <Trackpoint>
            <Time>2020-02-15T08:42:56.000Z</Time>
            <Position>
              <LatitudeDegrees>41.95453145541250705718994140625</LatitudeDegrees>
              <LongitudeDegrees>2.83720775507390499114990234375</LongitudeDegrees>
            </Position>
            <AltitudeMeters>90</AltitudeMeters>
            <DistanceMeters>7472.4809162362</DistanceMeters>
          </Trackpoint>
          <Trackpoint>
            <Time>2020-02-15T08:42:57.000Z</Time>
            <Position>
              <LatitudeDegrees>41.9544949941337108612060546875</LatitudeDegrees>
              <LongitudeDegrees>2.8372071683406829833984375</LongitudeDegrees>
            </Position>
            <AltitudeMeters>90</AltitudeMeters>
            <DistanceMeters>7476.5393468976</DistanceMeters>
          </Trackpoint>
          <Trackpoint>
            <Time>2020-02-15T08:42:58.000Z</Time>
            <Position>
              <LatitudeDegrees>41.9544604606926441192626953125</LatitudeDegrees>
              <LongitudeDegrees>2.83720741979777812957763671875</LongitudeDegrees>
            </Position>
            <AltitudeMeters>90</AltitudeMeters>
            <DistanceMeters>7480.3829396261</DistanceMeters>
          </Trackpoint>
          <Trackpoint>
            <Time>2020-02-15T08:42:59.000Z</Time>
            <Position>
              <LatitudeDegrees>41.9544222392141819000244140625</LatitudeDegrees>
              <LongitudeDegrees>2.8372063301503658294677734375</LongitudeDegrees>
            </Position>
            <AltitudeMeters>90.1999969482421875</AltitudeMeters>
            <DistanceMeters>7484.6390332983</DistanceMeters>
          </Trackpoint>
          <Trackpoint>
            <Time>2020-02-15T08:43:02.000Z</Time>
            <Position>
              <LatitudeDegrees>41.9543035514652729034423828125</LatitudeDegrees>
              <LongitudeDegrees>2.83720314502716064453125</LongitudeDegrees>
            </Position>
            <AltitudeMeters>90.59999847412109375</AltitudeMeters>
            <DistanceMeters>7497.8521895438</DistanceMeters>
          </Trackpoint>
          <Trackpoint>
            <Time>2020-02-15T08:43:03.000Z</Time>
            <Position>
              <LatitudeDegrees>41.95426248013973236083984375</LatitudeDegrees>
              <LongitudeDegrees>2.8372026421129703521728515625</LongitudeDegrees>
            </Position>
            <AltitudeMeters>91</AltitudeMeters>
            <DistanceMeters>7502.4243473459</DistanceMeters>
          </Trackpoint>
          <Trackpoint>
            <Time>2020-02-15T08:43:04.000Z</Time>
            <Position>
              <LatitudeDegrees>41.95422031916677951812744140625</LatitudeDegrees>
              <LongitudeDegrees>2.83720021136105060577392578125</LongitudeDegrees>
            </Position>
            <AltitudeMeters>91.1999969482421875</AltitudeMeters>
            <DistanceMeters>7507.1212055248</DistanceMeters>
          </Trackpoint>
          <Trackpoint>
            <Time>2020-02-15T08:43:06.000Z</Time>
            <Position>
              <LatitudeDegrees>41.95413733832538127899169921875</LatitudeDegrees>
              <LongitudeDegrees>2.83719199709594249725341796875</LongitudeDegrees>
            </Position>
            <AltitudeMeters>91.1999969482421875</AltitudeMeters>
            <DistanceMeters>7516.3822889423</DistanceMeters>
          </Trackpoint>
          <Trackpoint>
            <Time>2020-02-15T08:43:10.000Z</Time>
            <Position>
              <LatitudeDegrees>41.9539414532482624053955078125</LatitudeDegrees>
              <LongitudeDegrees>2.83717188052833080291748046875</LongitudeDegrees>
            </Position>
            <AltitudeMeters>91.40000152587890625</AltitudeMeters>
            <DistanceMeters>7538.2483468301</DistanceMeters>
          </Trackpoint>
          <Trackpoint>
            <Time>2020-02-15T08:43:14.000Z</Time>
            <Position>
              <LatitudeDegrees>41.9537298940122127532958984375</LatitudeDegrees>
              <LongitudeDegrees>2.83715159632265567779541015625</LongitudeDegrees>
            </Position>
            <AltitudeMeters>91.40000152587890625</AltitudeMeters>
            <DistanceMeters>7561.855170794</DistanceMeters>
          </Trackpoint>
          <Trackpoint>
            <Time>2020-02-15T08:43:17.000Z</Time>
            <Position>
              <LatitudeDegrees>41.95355026982724666595458984375</LatitudeDegrees>
              <LongitudeDegrees>2.8371318988502025604248046875</LongitudeDegrees>
            </Position>
            <AltitudeMeters>91.40000152587890625</AltitudeMeters>
            <DistanceMeters>7581.9141375219</DistanceMeters>
          </Trackpoint>
          <Trackpoint>
            <Time>2020-02-15T08:43:19.000Z</Time>
            <Position>
              <LatitudeDegrees>41.95343225263059139251708984375</LatitudeDegrees>
              <LongitudeDegrees>2.83712192438542842864990234375</LongitudeDegrees>
            </Position>
            <AltitudeMeters>91.40000152587890625</AltitudeMeters>
            <DistanceMeters>7595.0755947522</DistanceMeters>
          </Trackpoint>
          <Trackpoint>
            <Time>2020-02-15T08:43:20.000Z</Time>
            <Position>
              <LatitudeDegrees>41.953375004231929779052734375</LatitudeDegrees>
              <LongitudeDegrees>2.83711932599544525146484375</LongitudeDegrees>
            </Position>
            <AltitudeMeters>91.1999969482421875</AltitudeMeters>
            <DistanceMeters>7601.4515969597</DistanceMeters>
          </Trackpoint>
          <Trackpoint>
            <Time>2020-02-15T08:43:21.000Z</Time>
            <Position>
              <LatitudeDegrees>41.9533176720142364501953125</LatitudeDegrees>
              <LongitudeDegrees>2.837116979062557220458984375</LongitudeDegrees>
            </Position>
            <AltitudeMeters>91.1999969482421875</AltitudeMeters>
            <DistanceMeters>7607.8360910719</DistanceMeters>
          </Trackpoint>
          <Trackpoint>
            <Time>2020-02-15T08:43:22.000Z</Time>
            <Position>
              <LatitudeDegrees>41.95326109416782855987548828125</LatitudeDegrees>
              <LongitudeDegrees>2.83711454831063747406005859375</LongitudeDegrees>
            </Position>
            <AltitudeMeters>91</AltitudeMeters>
            <DistanceMeters>7614.1365843897</DistanceMeters>
          </Trackpoint>
          <Trackpoint>
            <Time>2020-02-15T08:43:23.000Z</Time>
            <Position>
              <LatitudeDegrees>41.953205354511737823486328125</LatitudeDegrees>
              <LongitudeDegrees>2.83711220137774944305419921875</LongitudeDegrees>
            </Position>
            <AltitudeMeters>90.8000030517578125</AltitudeMeters>
            <DistanceMeters>7620.3432184299</DistanceMeters>
          </Trackpoint>
          <Trackpoint>
            <Time>2020-02-15T08:43:24.000Z</Time>
            <Position>
              <LatitudeDegrees>41.95315062068402767181396484375</LatitudeDegrees>
              <LongitudeDegrees>2.8371084295213222503662109375</LongitudeDegrees>
            </Position>
            <AltitudeMeters>90.59999847412109375</AltitudeMeters>
            <DistanceMeters>7626.4427196349</DistanceMeters>
          </Trackpoint>
          <Trackpoint>
            <Time>2020-02-15T08:43:25.000Z</Time>
            <Position>
              <LatitudeDegrees>41.953096054494380950927734375</LatitudeDegrees>
              <LongitudeDegrees>2.837104909121990203857421875</LongitudeDegrees>
            </Position>
            <AltitudeMeters>90.40000152587890625</AltitudeMeters>
            <DistanceMeters>7632.5229443809</DistanceMeters>
          </Trackpoint>
          <Trackpoint>
            <Time>2020-02-15T08:43:26.000Z</Time>
            <Position>
              <LatitudeDegrees>41.95304148830473423004150390625</LatitudeDegrees>
              <LongitudeDegrees>2.83710130490362644195556640625</LongitudeDegrees>
            </Position>
            <AltitudeMeters>90.40000152587890625</AltitudeMeters>
            <DistanceMeters>7638.6031691268</DistanceMeters>
          </Trackpoint>
          <Trackpoint>
            <Time>2020-02-15T08:43:27.000Z</Time>
            <Position>
              <LatitudeDegrees>41.952987425029277801513671875</LatitudeDegrees>
              <LongitudeDegrees>2.8370997123420238494873046875</LongitudeDegrees>
            </Position>
            <AltitudeMeters>90.1999969482421875</AltitudeMeters>
            <DistanceMeters>7644.6221945208</DistanceMeters>
          </Trackpoint>
          <Trackpoint>
            <Time>2020-02-15T08:43:28.000Z</Time>
            <Position>
              <LatitudeDegrees>41.95293470285832881927490234375</LatitudeDegrees>
              <LongitudeDegrees>2.8370970301330089569091796875</LongitudeDegrees>
            </Position>
            <AltitudeMeters>90.40000152587890625</AltitudeMeters>
            <DistanceMeters>7650.4946609481</DistanceMeters>
          </Trackpoint>
          <Trackpoint>
            <Time>2020-02-15T08:43:29.000Z</Time>
            <Position>
              <LatitudeDegrees>41.95288248360157012939453125</LatitudeDegrees>
              <LongitudeDegrees>2.83709359355270862579345703125</LongitudeDegrees>
            </Position>
            <AltitudeMeters>90.40000152587890625</AltitudeMeters>
            <DistanceMeters>7656.3138350016</DistanceMeters>
          </Trackpoint>
          <Trackpoint>
            <Time>2020-02-15T08:43:30.000Z</Time>
            <Position>
              <LatitudeDegrees>41.9528310187160968780517578125</LatitudeDegrees>
              <LongitudeDegrees>2.83708973787724971771240234375</LongitudeDegrees>
            </Position>
            <AltitudeMeters>90.1999969482421875</AltitudeMeters>
            <DistanceMeters>7662.0501751729</DistanceMeters>
          </Trackpoint>
          <Trackpoint>
            <Time>2020-02-15T08:43:31.000Z</Time>
            <Position>
              <LatitudeDegrees>41.95278047583997249603271484375</LatitudeDegrees>
              <LongitudeDegrees>2.8370863012969493865966796875</LongitudeDegrees>
            </Position>
            <AltitudeMeters>90.1999969482421875</AltitudeMeters>
            <DistanceMeters>7667.6832639015</DistanceMeters>
          </Trackpoint>
          <Trackpoint>
            <Time>2020-02-15T08:43:32.000Z</Time>
            <Position>
              <LatitudeDegrees>41.95273085497319698333740234375</LatitudeDegrees>
              <LongitudeDegrees>2.8370829485356807708740234375</LongitudeDegrees>
            </Position>
            <AltitudeMeters>90.1999969482421875</AltitudeMeters>
            <DistanceMeters>7673.2128062731</DistanceMeters>
          </Trackpoint>
          <Trackpoint>
            <Time>2020-02-15T08:43:33.000Z</Time>
            <Position>
              <LatitudeDegrees>41.95268240757286548614501953125</LatitudeDegrees>
              <LongitudeDegrees>2.83707783557474613189697265625</LongitudeDegrees>
            </Position>
            <AltitudeMeters>90.40000152587890625</AltitudeMeters>
            <DistanceMeters>7678.6218216806</DistanceMeters>
          </Trackpoint>
          <Trackpoint>
            <Time>2020-02-15T08:43:34.000Z</Time>
            <Position>
              <LatitudeDegrees>41.95263429544866085052490234375</LatitudeDegrees>
              <LongitudeDegrees>2.8370715491473674774169921875</LongitudeDegrees>
            </Position>
            <AltitudeMeters>90.40000152587890625</AltitudeMeters>
            <DistanceMeters>7684.0023816031</DistanceMeters>
          </Trackpoint>
          <Trackpoint>
            <Time>2020-02-15T08:43:35.000Z</Time>
            <Position>
              <LatitudeDegrees>41.9525854289531707763671875</LatitudeDegrees>
              <LongitudeDegrees>2.837066017091274261474609375</LongitudeDegrees>
            </Position>
            <AltitudeMeters>90.40000152587890625</AltitudeMeters>
            <DistanceMeters>7689.461250741</DistanceMeters>
          </Trackpoint>
          <Trackpoint>
            <Time>2020-02-15T08:43:39.000Z</Time>
            <Position>
              <LatitudeDegrees>41.95238225162029266357421875</LatitudeDegrees>
              <LongitudeDegrees>2.83704447560012340545654296875</LongitudeDegrees>
            </Position>
            <AltitudeMeters>90.40000152587890625</AltitudeMeters>
            <DistanceMeters>7712.1453834351</DistanceMeters>
          </Trackpoint>
          <Trackpoint>
            <Time>2020-02-15T08:43:42.000Z</Time>
            <Position>
              <LatitudeDegrees>41.9522273540496826171875</LatitudeDegrees>
              <LongitudeDegrees>2.8370303101837635040283203125</LongitudeDegrees>
            </Position>
            <AltitudeMeters>90.59999847412109375</AltitudeMeters>
            <DistanceMeters>7729.4256197717</DistanceMeters>
          </Trackpoint>
          <Trackpoint>
            <Time>2020-02-15T08:43:43.000Z</Time>
            <Position>
              <LatitudeDegrees>41.952175386250019073486328125</LatitudeDegrees>
              <LongitudeDegrees>2.83702586777508258819580078125</LongitudeDegrees>
            </Position>
            <AltitudeMeters>90.59999847412109375</AltitudeMeters>
            <DistanceMeters>7735.2214703884</DistanceMeters>
          </Trackpoint>
          <Trackpoint>
            <Time>2020-02-15T08:43:51.000Z</Time>
            <Position>
              <LatitudeDegrees>41.95174765773117542266845703125</LatitudeDegrees>
              <LongitudeDegrees>2.83698546700179576873779296875</LongitudeDegrees>
            </Position>
            <AltitudeMeters>91.1999969482421875</AltitudeMeters>
            <DistanceMeters>7782.9456990465</DistanceMeters>
          </Trackpoint>
          <Trackpoint>
            <Time>2020-02-15T08:43:52.000Z</Time>
            <Position>
              <LatitudeDegrees>41.95169451646506786346435546875</LatitudeDegrees>
              <LongitudeDegrees>2.83697943203151226043701171875</LongitudeDegrees>
            </Position>
            <AltitudeMeters>91.1999969482421875</AltitudeMeters>
            <DistanceMeters>7788.8816369071</DistanceMeters>
          </Trackpoint>
          <Trackpoint>
            <Time>2020-02-15T08:43:53.000Z</Time>
            <Position>
              <LatitudeDegrees>41.95164171047508716583251953125</LatitudeDegrees>
              <LongitudeDegrees>2.83697507344186305999755859375</LongitudeDegrees>
            </Position>
            <AltitudeMeters>91.40000152587890625</AltitudeMeters>
            <DistanceMeters>7794.7694602288</DistanceMeters>
          </Trackpoint>
          <Trackpoint>
            <Time>2020-02-15T08:43:54.000Z</Time>
            <Position>
              <LatitudeDegrees>41.951589323580265045166015625</LatitudeDegrees>
              <LongitudeDegrees>2.836972139775753021240234375</LongitudeDegrees>
            </Position>
            <AltitudeMeters>91.40000152587890625</AltitudeMeters>
            <DistanceMeters>7800.6056788973</DistanceMeters>
          </Trackpoint>
          <Trackpoint>
            <Time>2020-02-15T08:43:55.000Z</Time>
            <Position>
              <LatitudeDegrees>41.95153794251382350921630859375</LatitudeDegrees>
              <LongitudeDegrees>2.836968787014484405517578125</LongitudeDegrees>
            </Position>
            <AltitudeMeters>91.59999847412109375</AltitudeMeters>
            <DistanceMeters>7806.3309891502</DistanceMeters>
          </Trackpoint>
          <Trackpoint>
            <Time>2020-02-15T08:43:56.000Z</Time>
            <Position>
              <LatitudeDegrees>41.9514879025518894195556640625</LatitudeDegrees>
              <LongitudeDegrees>2.83696509897708892822265625</LongitudeDegrees>
            </Position>
            <AltitudeMeters>91.8000030517578125</AltitudeMeters>
            <DistanceMeters>7811.9093082004</DistanceMeters>
          </Trackpoint>
          <Trackpoint>
            <Time>2020-02-15T08:43:57.000Z</Time>
            <Position>
              <LatitudeDegrees>41.951438449323177337646484375</LatitudeDegrees>
              <LongitudeDegrees>2.836961410939693450927734375</LongitudeDegrees>
            </Position>
            <AltitudeMeters>91.8000030517578125</AltitudeMeters>
            <DistanceMeters>7817.4224957821</DistanceMeters>
          </Trackpoint>
          <Trackpoint>
            <Time>2020-02-15T08:43:58.000Z</Time>
            <Position>
              <LatitudeDegrees>41.9513889960944652557373046875</LatitudeDegrees>
              <LongitudeDegrees>2.83695705235004425048828125</LongitudeDegrees>
            </Position>
            <AltitudeMeters>91.8000030517578125</AltitudeMeters>
            <DistanceMeters>7822.9381396737</DistanceMeters>
          </Trackpoint>
          <Trackpoint>
            <Time>2020-02-15T08:43:59.000Z</Time>
            <Position>
              <LatitudeDegrees>41.95134080015122890472412109375</LatitudeDegrees>
              <LongitudeDegrees>2.83695093356072902679443359375</LongitudeDegrees>
            </Position>
            <AltitudeMeters>92</AltitudeMeters>
            <DistanceMeters>7828.3254085264</DistanceMeters>
          </Trackpoint>
          <Trackpoint>
            <Time>2020-02-15T08:44:00.000Z</Time>
            <Position>
              <LatitudeDegrees>41.95129302330315113067626953125</LatitudeDegrees>
              <LongitudeDegrees>2.8369444794952869415283203125</LongitudeDegrees>
            </Position>
            <AltitudeMeters>92</AltitudeMeters>
            <DistanceMeters>7833.6689187693</DistanceMeters>
          </Trackpoint>
          <Trackpoint>
            <Time>2020-02-15T08:44:01.000Z</Time>
            <Position>
              <LatitudeDegrees>41.95124507881700992584228515625</LatitudeDegrees>
              <LongitudeDegrees>2.8369401209056377410888671875</LongitudeDegrees>
            </Position>
            <AltitudeMeters>92.1999969482421875</AltitudeMeters>
            <DistanceMeters>7839.0174963535</DistanceMeters>
          </Trackpoint>
          <Trackpoint>
            <Time>2020-02-15T08:44:02.000Z</Time>
            <Position>
              <LatitudeDegrees>41.95119663141667842864990234375</LatitudeDegrees>
              <LongitudeDegrees>2.83693601377308368682861328125</LongitudeDegrees>
            </Position>
            <AltitudeMeters>92.40000152587890625</AltitudeMeters>
            <DistanceMeters>7844.4215010925</DistanceMeters>
          </Trackpoint>
          <Trackpoint>
            <Time>2020-02-15T08:44:03.000Z</Time>
            <Position>
              <LatitudeDegrees>41.95114835165441036224365234375</LatitudeDegrees>
              <LongitudeDegrees>2.83693282864987850189208984375</LongitudeDegrees>
            </Position>
            <AltitudeMeters>92.40000152587890625</AltitudeMeters>
            <DistanceMeters>7849.802061015</DistanceMeters>
          </Trackpoint>
          <Trackpoint>
            <Time>2020-02-15T08:44:04.000Z</Time>
            <Position>
              <LatitudeDegrees>41.95109973661601543426513671875</LatitudeDegrees>
              <LongitudeDegrees>2.83693031407892704010009765625</LongitudeDegrees>
            </Position>
            <AltitudeMeters>92.40000152587890625</AltitudeMeters>
            <DistanceMeters>7855.2169163421</DistanceMeters>
          </Trackpoint>
          <Trackpoint>
            <Time>2020-02-15T08:44:09.000Z</Time>
            <Position>
              <LatitudeDegrees>41.95085481740534305572509765625</LatitudeDegrees>
              <LongitudeDegrees>2.83690877258777618408203125</LongitudeDegrees>
            </Position>
            <AltitudeMeters>92.8000030517578125</AltitudeMeters>
            <DistanceMeters>7882.5350721663</DistanceMeters>
          </Trackpoint>
          <Trackpoint>
            <Time>2020-02-15T08:44:10.000Z</Time>
            <Position>
              <LatitudeDegrees>41.95080653764307498931884765625</LatitudeDegrees>
              <LongitudeDegrees>2.8369065932929515838623046875</LongitudeDegrees>
            </Position>
            <AltitudeMeters>93</AltitudeMeters>
            <DistanceMeters>7887.9122744848</DistanceMeters>
          </Trackpoint>
          <Trackpoint>
            <Time>2020-02-15T08:44:11.000Z</Time>
            <Position>
              <LatitudeDegrees>41.95075876079499721527099609375</LatitudeDegrees>
              <LongitudeDegrees>2.8369032405316829681396484375</LongitudeDegrees>
            </Position>
            <AltitudeMeters>93</AltitudeMeters>
            <DistanceMeters>7893.2371632192</DistanceMeters>
          </Trackpoint>
          <Trackpoint>
            <Time>2020-02-15T08:44:12.000Z</Time>
            <Position>
              <LatitudeDegrees>41.95071123540401458740234375</LatitudeDegrees>
              <LongitudeDegrees>2.836898379027843475341796875</LongitudeDegrees>
            </Position>
            <AltitudeMeters>93</AltitudeMeters>
            <DistanceMeters>7898.542514129</DistanceMeters>
          </Trackpoint>
          <Trackpoint>
            <Time>2020-02-15T08:44:13.000Z</Time>
            <Position>
              <LatitudeDegrees>41.95066555403172969818115234375</LatitudeDegrees>
              <LongitudeDegrees>2.83689360134303569793701171875</LongitudeDegrees>
            </Position>
            <AltitudeMeters>93.40000152587890625</AltitudeMeters>
            <DistanceMeters>7903.6421827612</DistanceMeters>
          </Trackpoint>
          <Trackpoint>
            <Time>2020-02-15T08:44:14.000Z</Time>
            <Position>
              <LatitudeDegrees>41.9506212137639522552490234375</LatitudeDegrees>
              <LongitudeDegrees>2.836890332400798797607421875</LongitudeDegrees>
            </Position>
            <AltitudeMeters>93.59999847412109375</AltitudeMeters>
            <DistanceMeters>7908.5835719084</DistanceMeters>
          </Trackpoint>
          <Trackpoint>
            <Time>2020-02-15T08:44:15.000Z</Time>
            <Position>
              <LatitudeDegrees>41.95057519711554050445556640625</LatitudeDegrees>
              <LongitudeDegrees>2.83688823692500591278076171875</LongitudeDegrees>
            </Position>
            <AltitudeMeters>93.8000030517578125</AltitudeMeters>
            <DistanceMeters>7913.7079706341</DistanceMeters>
          </Trackpoint>
          <Trackpoint>
            <Time>2020-02-15T08:44:17.000Z</Time>
            <Position>
              <LatitudeDegrees>41.95048131980001926422119140625</LatitudeDegrees>
              <LongitudeDegrees>2.8368827886879444122314453125</LongitudeDegrees>
            </Position>
            <AltitudeMeters>93.8000030517578125</AltitudeMeters>
            <DistanceMeters>7924.1660912056</DistanceMeters>
          </Trackpoint>
          <Trackpoint>
            <Time>2020-02-15T08:44:18.000Z</Time>
            <Position>
              <LatitudeDegrees>41.95043622516095638275146484375</LatitudeDegrees>
              <LongitudeDegrees>2.83687801100313663482666015625</LongitudeDegrees>
            </Position>
            <AltitudeMeters>94</AltitudeMeters>
            <DistanceMeters>7929.1998169134</DistanceMeters>
          </Trackpoint>
          <Trackpoint>
            <Time>2020-02-15T08:44:19.000Z</Time>
            <Position>
              <LatitudeDegrees>41.95038878358900547027587890625</LatitudeDegrees>
              <LongitudeDegrees>2.83687415532767772674560546875</LongitudeDegrees>
            </Position>
            <AltitudeMeters>94.1999969482421875</AltitudeMeters>
            <DistanceMeters>7934.4889734458</DistanceMeters>
          </Trackpoint>
          <Trackpoint>
            <Time>2020-02-15T08:44:20.000Z</Time>
            <Position>
              <LatitudeDegrees>41.9503395818173885345458984375</LatitudeDegrees>
              <LongitudeDegrees>2.8368692100048065185546875</LongitudeDegrees>
            </Position>
            <AltitudeMeters>94.1999969482421875</AltitudeMeters>
            <DistanceMeters>7939.9808269874</DistanceMeters>
          </Trackpoint>
          <Trackpoint>
            <Time>2020-02-15T08:44:21.000Z</Time>
            <Position>
              <LatitudeDegrees>41.9502923078835010528564453125</LatitudeDegrees>
              <LongitudeDegrees>2.83686409704387187957763671875</LongitudeDegrees>
            </Position>
            <AltitudeMeters>94.1999969482421875</AltitudeMeters>
            <DistanceMeters>7945.2597298948</DistanceMeters>
          </Trackpoint>
          <Trackpoint>
            <Time>2020-02-15T08:44:22.000Z</Time>
            <Position>
              <LatitudeDegrees>41.95024578832089900970458984375</LatitudeDegrees>
              <LongitudeDegrees>2.83686057664453983306884765625</LongitudeDegrees>
            </Position>
            <AltitudeMeters>94.40000152587890625</AltitudeMeters>
            <DistanceMeters>7950.445437913</DistanceMeters>
          </Trackpoint>
          <Trackpoint>
            <Time>2020-02-15T08:44:23.000Z</Time>
            <Position>
              <LatitudeDegrees>41.95019901730120182037353515625</LatitudeDegrees>
              <LongitudeDegrees>2.83685755915939807891845703125</LongitudeDegrees>
            </Position>
            <AltitudeMeters>94.40000152587890625</AltitudeMeters>
            <DistanceMeters>7955.6572005653</DistanceMeters>
          </Trackpoint>
          <Trackpoint>
            <Time>2020-02-15T08:44:25.000Z</Time>
            <Position>
              <LatitudeDegrees>41.95010312832891941070556640625</LatitudeDegrees>
              <LongitudeDegrees>2.83684766851365566253662109375</LongitudeDegrees>
            </Position>
            <AltitudeMeters>94.40000152587890625</AltitudeMeters>
            <DistanceMeters>7966.3615286618</DistanceMeters>
          </Trackpoint>
          <Trackpoint>
            <Time>2020-02-15T08:44:26.000Z</Time>
            <Position>
              <LatitudeDegrees>41.9500549323856830596923828125</LatitudeDegrees>
              <LongitudeDegrees>2.83684381283819675445556640625</LongitudeDegrees>
            </Position>
            <AltitudeMeters>94.59999847412109375</AltitudeMeters>
            <DistanceMeters>7971.7362114007</DistanceMeters>
          </Trackpoint>
          <Trackpoint>
            <Time>2020-02-15T08:44:27.000Z</Time>
            <Position>
              <LatitudeDegrees>41.9500069878995418548583984375</LatitudeDegrees>
              <LongitudeDegrees>2.8368398733437061309814453125</LongitudeDegrees>
            </Position>
            <AltitudeMeters>94.8000030517578125</AltitudeMeters>
            <DistanceMeters>7977.0831004048</DistanceMeters>
          </Trackpoint>
          <Trackpoint>
            <Time>2020-02-15T08:44:28.000Z</Time>
            <Position>
              <LatitudeDegrees>41.94996030069887638092041015625</LatitudeDegrees>
              <LongitudeDegrees>2.83683509565889835357666015625</LongitudeDegrees>
            </Position>
            <AltitudeMeters>95</AltitudeMeters>
            <DistanceMeters>7982.2931301351</DistanceMeters>
          </Trackpoint>
          <Trackpoint>
            <Time>2020-02-15T08:44:29.000Z</Time>
            <Position>
              <LatitudeDegrees>41.949914284050464630126953125</LatitudeDegrees>
              <LongitudeDegrees>2.8368318267166614532470703125</LongitudeDegrees>
            </Position>
            <AltitudeMeters>95</AltitudeMeters>
            <DistanceMeters>7987.4210519953</DistanceMeters>
          </Trackpoint>
          <Trackpoint>
            <Time>2020-02-15T08:44:30.000Z</Time>
            <Position>
              <LatitudeDegrees>41.94986977614462375640869140625</LatitudeDegrees>
              <LongitudeDegrees>2.8368301503360271453857421875</LongitudeDegrees>
            </Position>
            <AltitudeMeters>95.1999969482421875</AltitudeMeters>
            <DistanceMeters>7992.3770390743</DistanceMeters>
          </Trackpoint>
          <Trackpoint>
            <Time>2020-02-15T08:44:31.000Z</Time>
            <Position>
              <LatitudeDegrees>41.9498235918581485748291015625</LatitudeDegrees>
              <LongitudeDegrees>2.836827300488948822021484375</LongitudeDegrees>
            </Position>
            <AltitudeMeters>95.1999969482421875</AltitudeMeters>
            <DistanceMeters>7997.5225404234</DistanceMeters>
          </Trackpoint>
          <Trackpoint>
            <Time>2020-02-15T08:44:32.000Z</Time>
            <Position>
              <LatitudeDegrees>41.94977648556232452392578125</LatitudeDegrees>
              <LongitudeDegrees>2.83682319335639476776123046875</LongitudeDegrees>
            </Position>
            <AltitudeMeters>95.1999969482421875</AltitudeMeters>
            <DistanceMeters>8002.7765811246</DistanceMeters>
          </Trackpoint>
          <Trackpoint>
            <Time>2020-02-15T08:44:34.000Z</Time>
            <Position>
              <LatitudeDegrees>41.9496797583997249603271484375</LatitudeDegrees>
              <LongitudeDegrees>2.83681330271065235137939453125</LongitudeDegrees>
            </Position>
            <AltitudeMeters>95.1999969482421875</AltitudeMeters>
            <DistanceMeters>8013.5737236582</DistanceMeters>
          </Trackpoint>
          <Trackpoint>
            <Time>2020-02-15T08:44:35.000Z</Time>
            <Position>
              <LatitudeDegrees>41.949631981551647186279296875</LatitudeDegrees>
              <LongitudeDegrees>2.83680961467325687408447265625</LongitudeDegrees>
            </Position>
            <AltitudeMeters>95.59999847412109375</AltitudeMeters>
            <DistanceMeters>8018.9003079471</DistanceMeters>
          </Trackpoint>
          <Trackpoint>
            <Time>2020-02-15T08:44:36.000Z</Time>
            <Position>
              <LatitudeDegrees>41.9495835341513156890869140625</LatitudeDegrees>
              <LongitudeDegrees>2.83680710010230541229248046875</LongitudeDegrees>
            </Position>
            <AltitudeMeters>95.59999847412109375</AltitudeMeters>
            <DistanceMeters>8024.2967879602</DistanceMeters>
          </Trackpoint>
          <Trackpoint>
            <Time>2020-02-15T08:44:37.000Z</Time>
            <Position>
              <LatitudeDegrees>41.949534751474857330322265625</LatitudeDegrees>
              <LongitudeDegrees>2.8368043340742588043212890625</LongitudeDegrees>
            </Position>
            <AltitudeMeters>95.8000030517578125</AltitudeMeters>
            <DistanceMeters>8029.7316182288</DistanceMeters>
          </Trackpoint>
          <Trackpoint>
            <Time>2020-02-15T08:44:38.000Z</Time>
            <Position>
              <LatitudeDegrees>41.9494866393506526947021484375</LatitudeDegrees>
              <LongitudeDegrees>2.83680056221783161163330078125</LongitudeDegrees>
            </Position>
            <AltitudeMeters>95.8000030517578125</AltitudeMeters>
            <DistanceMeters>8035.0953691132</DistanceMeters>
          </Trackpoint>
          <Trackpoint>
            <Time>2020-02-15T08:44:39.000Z</Time>
            <Position>
              <LatitudeDegrees>41.94943961687386035919189453125</LatitudeDegrees>
              <LongitudeDegrees>2.8367959521710872650146484375</LongitudeDegrees>
            </Position>
            <AltitudeMeters>96</AltitudeMeters>
            <DistanceMeters>8040.3433909457</DistanceMeters>
          </Trackpoint>
          <Trackpoint>
            <Time>2020-02-15T08:44:40.000Z</Time>
            <Position>
              <LatitudeDegrees>41.94939301349222660064697265625</LatitudeDegrees>
              <LongitudeDegrees>2.8367919288575649261474609375</LongitudeDegrees>
            </Position>
            <AltitudeMeters>96</AltitudeMeters>
            <DistanceMeters>8045.5412740456</DistanceMeters>
          </Trackpoint>
          <Trackpoint>
            <Time>2020-02-15T08:44:42.000Z</Time>
            <Position>
              <LatitudeDegrees>41.94929762743413448333740234375</LatitudeDegrees>
              <LongitudeDegrees>2.83678681589663028717041015625</LongitudeDegrees>
            </Position>
            <AltitudeMeters>96</AltitudeMeters>
            <DistanceMeters>8056.1664336069</DistanceMeters>
          </Trackpoint>
          <Trackpoint>
            <Time>2020-02-15T08:44:45.000Z</Time>
            <Position>
              <LatitudeDegrees>41.9491530396044254302978515625</LatitudeDegrees>
              <LongitudeDegrees>2.83677600324153900146484375</LongitudeDegrees>
            </Position>
            <AltitudeMeters>96.40000152587890625</AltitudeMeters>
            <DistanceMeters>8072.2846003541</DistanceMeters>
          </Trackpoint>
          <Trackpoint>
            <Time>2020-02-15T08:44:46.000Z</Time>
            <Position>
              <LatitudeDegrees>41.94910417310893535614013671875</LatitudeDegrees>
              <LongitudeDegrees>2.8367711417376995086669921875</LongitudeDegrees>
            </Position>
            <AltitudeMeters>96.40000152587890625</AltitudeMeters>
            <DistanceMeters>8077.738504626</DistanceMeters>
          </Trackpoint>
          <Trackpoint>
            <Time>2020-02-15T08:44:51.000Z</Time>
            <Position>
              <LatitudeDegrees>41.94885808043181896209716796875</LatitudeDegrees>
              <LongitudeDegrees>2.83674825914204120635986328125</LongitudeDegrees>
            </Position>
            <AltitudeMeters>96.59999847412109375</AltitudeMeters>
            <DistanceMeters>8105.1944836022</DistanceMeters>
          </Trackpoint>
          <Trackpoint>
            <Time>2020-02-15T08:44:52.000Z</Time>
            <Position>
              <LatitudeDegrees>41.9488093815743923187255859375</LatitudeDegrees>
              <LongitudeDegrees>2.8367433138191699981689453125</LongitudeDegrees>
            </Position>
            <AltitudeMeters>96.59999847412109375</AltitudeMeters>
            <DistanceMeters>8110.6309751364</DistanceMeters>
          </Trackpoint>
          <Trackpoint>
            <Time>2020-02-15T08:44:53.000Z</Time>
            <Position>
              <LatitudeDegrees>41.9487627781927585601806640625</LatitudeDegrees>
              <LongitudeDegrees>2.83674054779112339019775390625</LongitudeDegrees>
            </Position>
            <AltitudeMeters>97</AltitudeMeters>
            <DistanceMeters>8115.8236438396</DistanceMeters>
          </Trackpoint>
          <Trackpoint>
            <Time>2020-02-15T08:44:54.000Z</Time>
            <Position>
              <LatitudeDegrees>41.9487158395349979400634765625</LatitudeDegrees>
              <LongitudeDegrees>2.8367396257817745208740234375</LongitudeDegrees>
            </Position>
            <AltitudeMeters>97</AltitudeMeters>
            <DistanceMeters>8121.0492491793</DistanceMeters>
          </Trackpoint>
          <Trackpoint>
            <Time>2020-02-15T08:44:55.000Z</Time>
            <Position>
              <LatitudeDegrees>41.9486694037914276123046875</LatitudeDegrees>
              <LongitudeDegrees>2.83673786558210849761962890625</LongitudeDegrees>
            </Position>
            <AltitudeMeters>97.1999969482421875</AltitudeMeters>
            <DistanceMeters>8126.2192613915</DistanceMeters>
          </Trackpoint>
          <Trackpoint>
            <Time>2020-02-15T08:44:56.000Z</Time>
            <Position>
              <LatitudeDegrees>41.94862254895269870758056640625</LatitudeDegrees>
              <LongitudeDegrees>2.83673602156341075897216796875</LongitudeDegrees>
            </Position>
            <AltitudeMeters>97.1999969482421875</AltitudeMeters>
            <DistanceMeters>8131.4379499773</DistanceMeters>
          </Trackpoint>
          <Trackpoint>
            <Time>2020-02-15T08:44:57.000Z</Time>
            <Position>
              <LatitudeDegrees>41.948576532304286956787109375</LatitudeDegrees>
              <LongitudeDegrees>2.83673535101115703582763671875</LongitudeDegrees>
            </Position>
            <AltitudeMeters>97.1999969482421875</AltitudeMeters>
            <DistanceMeters>8136.5605862269</DistanceMeters>
          </Trackpoint>
          <Trackpoint>
            <Time>2020-02-15T08:44:58.000Z</Time>
            <Position>
              <LatitudeDegrees>41.9485304318368434906005859375</LatitudeDegrees>
              <LongitudeDegrees>2.83673468045890331268310546875</LongitudeDegrees>
            </Position>
            <AltitudeMeters>97.40000152587890625</AltitudeMeters>
            <DistanceMeters>8141.6920288029</DistanceMeters>
          </Trackpoint>
          <Trackpoint>
            <Time>2020-02-15T08:44:59.000Z</Time>
            <Position>
              <LatitudeDegrees>41.94848407991230487823486328125</LatitudeDegrees>
              <LongitudeDegrees>2.83673308789730072021484375</LongitudeDegrees>
            </Position>
            <AltitudeMeters>97.1999969482421875</AltitudeMeters>
            <DistanceMeters>8146.8533004979</DistanceMeters>
          </Trackpoint>
          <Trackpoint>
            <Time>2020-02-15T08:45:00.000Z</Time>
            <Position>
              <LatitudeDegrees>41.94843881763517856597900390625</LatitudeDegrees>
              <LongitudeDegrees>2.83672914840281009674072265625</LongitudeDegrees>
            </Position>
            <AltitudeMeters>97.40000152587890625</AltitudeMeters>
            <DistanceMeters>8151.9013571264</DistanceMeters>
          </Trackpoint>
          <Trackpoint>
            <Time>2020-02-15T08:45:01.000Z</Time>
            <Position>
              <LatitudeDegrees>41.9483929686248302459716796875</LatitudeDegrees>
              <LongitudeDegrees>2.836722694337368011474609375</LongitudeDegrees>
            </Position>
            <AltitudeMeters>97.59999847412109375</AltitudeMeters>
            <DistanceMeters>8157.0327997024</DistanceMeters>
          </Trackpoint>
          <Trackpoint>
            <Time>2020-02-15T08:45:02.000Z</Time>
            <Position>
              <LatitudeDegrees>41.94834862835705280303955078125</LatitudeDegrees>
              <LongitudeDegrees>2.83671640790998935699462890625</LongitudeDegrees>
            </Position>
            <AltitudeMeters>97.8000030517578125</AltitudeMeters>
            <DistanceMeters>8161.995159873</DistanceMeters>
          </Trackpoint>
          <Trackpoint>
            <Time>2020-02-15T08:45:03.000Z</Time>
            <Position>
              <LatitudeDegrees>41.948303617537021636962890625</LatitudeDegrees>
              <LongitudeDegrees>2.83671104349195957183837890625</LongitudeDegrees>
            </Position>
            <AltitudeMeters>97.8000030517578125</AltitudeMeters>
            <DistanceMeters>8167.0252964711</DistanceMeters>
          </Trackpoint>
          <Trackpoint>
            <Time>2020-02-15T08:45:04.000Z</Time>
            <Position>
              <LatitudeDegrees>41.94825894199311733245849609375</LatitudeDegrees>
              <LongitudeDegrees>2.8367064334452152252197265625</LongitudeDegrees>
            </Position>
            <AltitudeMeters>97.8000030517578125</AltitudeMeters>
            <DistanceMeters>8172.0121622731</DistanceMeters>
          </Trackpoint>
          <Trackpoint>
            <Time>2020-02-15T08:45:06.000Z</Time>
            <Position>
              <LatitudeDegrees>41.94816674105823040008544921875</LatitudeDegrees>
              <LongitudeDegrees>2.836701571941375732421875</LongitudeDegrees>
            </Position>
            <AltitudeMeters>98.1999969482421875</AltitudeMeters>
            <DistanceMeters>8182.2825236563</DistanceMeters>
          </Trackpoint>
          <Trackpoint>
            <Time>2020-02-15T08:45:11.000Z</Time>
            <Position>
              <LatitudeDegrees>41.94793171249330043792724609375</LatitudeDegrees>
              <LongitudeDegrees>2.83667801879346370697021484375</LongitudeDegrees>
            </Position>
            <AltitudeMeters>98.40000152587890625</AltitudeMeters>
            <DistanceMeters>8208.5143723365</DistanceMeters>
          </Trackpoint>
          <Trackpoint>
            <Time>2020-02-15T08:45:13.000Z</Time>
            <Position>
              <LatitudeDegrees>41.9478374160826206207275390625</LatitudeDegrees>
              <LongitudeDegrees>2.83666896633803844451904296875</LongitudeDegrees>
            </Position>
            <AltitudeMeters>98.59999847412109375</AltitudeMeters>
            <DistanceMeters>8219.0370524778</DistanceMeters>
          </Trackpoint>
          <Trackpoint>
            <Time>2020-02-15T08:45:15.000Z</Time>
            <Position>
              <LatitudeDegrees>41.9477445445954799652099609375</LatitudeDegrees>
              <LongitudeDegrees>2.83666544593870639801025390625</LongitudeDegrees>
            </Position>
            <AltitudeMeters>98.59999847412109375</AltitudeMeters>
            <DistanceMeters>8229.3779501782</DistanceMeters>
          </Trackpoint>
          <Trackpoint>
            <Time>2020-02-15T08:45:16.000Z</Time>
            <Position>
              <LatitudeDegrees>41.94769919849932193756103515625</LatitudeDegrees>
              <LongitudeDegrees>2.8366605006158351898193359375</LongitudeDegrees>
            </Position>
            <AltitudeMeters>98.59999847412109375</AltitudeMeters>
            <DistanceMeters>8234.442080617</DistanceMeters>
          </Trackpoint>
          <Trackpoint>
            <Time>2020-02-15T08:45:17.000Z</Time>
            <Position>
              <LatitudeDegrees>41.94765376858413219451904296875</LatitudeDegrees>
              <LongitudeDegrees>2.8366537950932979583740234375</LongitudeDegrees>
            </Position>
            <AltitudeMeters>98.8000030517578125</AltitudeMeters>
            <DistanceMeters>8239.5293391211</DistanceMeters>
          </Trackpoint>
          <Trackpoint>
            <Time>2020-02-15T08:45:18.000Z</Time>
            <Position>
              <LatitudeDegrees>41.9476084224879741668701171875</LatitudeDegrees>
              <LongitudeDegrees>2.83664817921817302703857421875</LongitudeDegrees>
            </Position>
            <AltitudeMeters>99</AltitudeMeters>
            <DistanceMeters>8244.598816171</DistanceMeters>
          </Trackpoint>
          <Trackpoint>
            <Time>2020-02-15T08:45:19.000Z</Time>
            <Position>
              <LatitudeDegrees>41.9475634954869747161865234375</LatitudeDegrees>
              <LongitudeDegrees>2.83664432354271411895751953125</LongitudeDegrees>
            </Position>
            <AltitudeMeters>98.8000030517578125</AltitudeMeters>
            <DistanceMeters>8249.6091667091</DistanceMeters>
          </Trackpoint>
          <Trackpoint>
            <Time>2020-02-15T08:45:20.000Z</Time>
            <Position>
              <LatitudeDegrees>41.94751764647662639617919921875</LatitudeDegrees>
              <LongitudeDegrees>2.8366412222385406494140625</LongitudeDegrees>
            </Position>
            <AltitudeMeters>98.8000030517578125</AltitudeMeters>
            <DistanceMeters>8254.7185650102</DistanceMeters>
          </Trackpoint>
          <Trackpoint>
            <Time>2020-02-15T08:45:25.000Z</Time>
            <Position>
              <LatitudeDegrees>41.9472825340926647186279296875</LatitudeDegrees>
              <LongitudeDegrees>2.8366179205477237701416015625</LongitudeDegrees>
            </Position>
            <AltitudeMeters>99</AltitudeMeters>
            <DistanceMeters>8280.9579858984</DistanceMeters>
          </Trackpoint>
          <Trackpoint>
            <Time>2020-02-15T08:45:26.000Z</Time>
            <Position>
              <LatitudeDegrees>41.9472344219684600830078125</LatitudeDegrees>
              <LongitudeDegrees>2.83661163412034511566162109375</LongitudeDegrees>
            </Position>
            <AltitudeMeters>99</AltitudeMeters>
            <DistanceMeters>8286.3385458209</DistanceMeters>
          </Trackpoint>
          <Trackpoint>
            <Time>2020-02-15T08:45:27.000Z</Time>
            <Position>
              <LatitudeDegrees>41.9471863098442554473876953125</LatitudeDegrees>
              <LongitudeDegrees>2.8366081975400447845458984375</LongitudeDegrees>
            </Position>
            <AltitudeMeters>99.1999969482421875</AltitudeMeters>
            <DistanceMeters>8291.7006129034</DistanceMeters>
          </Trackpoint>
          <Trackpoint>
            <Time>2020-02-15T08:45:30.000Z</Time>
            <Position>
              <LatitudeDegrees>41.94703996181488037109375</LatitudeDegrees>
              <LongitudeDegrees>2.83659503795206546783447265625</LongitudeDegrees>
            </Position>
            <AltitudeMeters>99.1999969482421875</AltitudeMeters>
            <DistanceMeters>8308.0258594916</DistanceMeters>
          </Trackpoint>
          <Trackpoint>
            <Time>2020-02-15T08:45:35.000Z</Time>
            <Position>
              <LatitudeDegrees>41.94679194130003452301025390625</LatitudeDegrees>
              <LongitudeDegrees>2.83657190389931201934814453125</LongitudeDegrees>
            </Position>
            <AltitudeMeters>99.40000152587890625</AltitudeMeters>
            <DistanceMeters>8335.697403759</DistanceMeters>
          </Trackpoint>
          <Trackpoint>
            <Time>2020-02-15T08:45:37.000Z</Time>
            <Position>
              <LatitudeDegrees>41.9466921128332614898681640625</LatitudeDegrees>
              <LongitudeDegrees>2.83656067214906215667724609375</LongitudeDegrees>
            </Position>
            <AltitudeMeters>99.8000030517578125</AltitudeMeters>
            <DistanceMeters>8346.8475648556</DistanceMeters>
          </Trackpoint>
          <Trackpoint>
            <Time>2020-02-15T08:45:38.000Z</Time>
            <Position>
              <LatitudeDegrees>41.946642659604549407958984375</LatitudeDegrees>
              <LongitudeDegrees>2.8365555591881275177001953125</LongitudeDegrees>
            </Position>
            <AltitudeMeters>99.8000030517578125</AltitudeMeters>
            <DistanceMeters>8352.3689358878</DistanceMeters>
          </Trackpoint>
          <Trackpoint>
            <Time>2020-02-15T08:45:39.000Z</Time>
            <Position>
              <LatitudeDegrees>41.946593038737773895263671875</LatitudeDegrees>
              <LongitudeDegrees>2.83655161969363689422607421875</LongitudeDegrees>
            </Position>
            <AltitudeMeters>100</AltitudeMeters>
            <DistanceMeters>8357.9017434161</DistanceMeters>
          </Trackpoint>
          <Trackpoint>
            <Time>2020-02-15T08:45:40.000Z</Time>
            <Position>
              <LatitudeDegrees>41.9465435855090618133544921875</LatitudeDegrees>
              <LongitudeDegrees>2.83654801547527313232421875</LongitudeDegrees>
            </Position>
            <AltitudeMeters>100</AltitudeMeters>
            <DistanceMeters>8363.4132928495</DistanceMeters>
          </Trackpoint>
          <Trackpoint>
            <Time>2020-02-15T08:45:41.000Z</Time>
            <Position>
              <LatitudeDegrees>41.94649346172809600830078125</LatitudeDegrees>
              <LongitudeDegrees>2.83654407598078250885009765625</LongitudeDegrees>
            </Position>
            <AltitudeMeters>100</AltitudeMeters>
            <DistanceMeters>8369.0013161443</DistanceMeters>
          </Trackpoint>
          <Trackpoint>
            <Time>2020-02-15T08:45:42.000Z</Time>
            <Position>
              <LatitudeDegrees>41.946443505585193634033203125</LatitudeDegrees>
              <LongitudeDegrees>2.83654038794338703155517578125</LongitudeDegrees>
            </Position>
            <AltitudeMeters>100.1999969482421875</AltitudeMeters>
            <DistanceMeters>8374.5707247831</DistanceMeters>
          </Trackpoint>
          <Trackpoint>
            <Time>2020-02-15T08:45:46.000Z</Time>
            <Position>
              <LatitudeDegrees>41.94623940624296665191650390625</LatitudeDegrees>
              <LongitudeDegrees>2.83652664162218570709228515625</LongitudeDegrees>
            </Position>
            <AltitudeMeters>100.40000152587890625</AltitudeMeters>
            <DistanceMeters>8397.3156820148</DistanceMeters>
          </Trackpoint>
          <Trackpoint>
            <Time>2020-02-15T08:45:47.000Z</Time>
            <Position>
              <LatitudeDegrees>41.946189366281032562255859375</LatitudeDegrees>
              <LongitudeDegrees>2.83652379177510738372802734375</LongitudeDegrees>
            </Position>
            <AltitudeMeters>100.8000030517578125</AltitudeMeters>
            <DistanceMeters>8402.8907625631</DistanceMeters>
          </Trackpoint>
          <Trackpoint>
            <Time>2020-02-15T08:45:48.000Z</Time>
            <Position>
              <LatitudeDegrees>41.94613949395716190338134765625</LatitudeDegrees>
              <LongitudeDegrees>2.83651842735707759857177734375</LongitudeDegrees>
            </Position>
            <AltitudeMeters>100.8000030517578125</AltitudeMeters>
            <DistanceMeters>8408.4593604574</DistanceMeters>
          </Trackpoint>
          <Trackpoint>
            <Time>2020-02-15T08:45:49.000Z</Time>
            <Position>
              <LatitudeDegrees>41.946089453995227813720703125</LatitudeDegrees>
              <LongitudeDegrees>2.8365123085677623748779296875</LongitudeDegrees>
            </Position>
            <AltitudeMeters>100.8000030517578125</AltitudeMeters>
            <DistanceMeters>8414.0514222172</DistanceMeters>
          </Trackpoint>
          <Trackpoint>
            <Time>2020-02-15T08:45:52.000Z</Time>
            <Position>
              <LatitudeDegrees>41.94593749009072780609130859375</LatitudeDegrees>
              <LongitudeDegrees>2.83649596385657787322998046875</LongitudeDegrees>
            </Position>
            <AltitudeMeters>101</AltitudeMeters>
            <DistanceMeters>8431.018946998</DistanceMeters>
          </Trackpoint>
          <Trackpoint>
            <Time>2020-02-15T08:45:55.000Z</Time>
            <Position>
              <LatitudeDegrees>41.945783011615276336669921875</LatitudeDegrees>
              <LongitudeDegrees>2.83648674376308917999267578125</LongitudeDegrees>
            </Position>
            <AltitudeMeters>101.1999969482421875</AltitudeMeters>
            <DistanceMeters>8448.2298039665</DistanceMeters>
          </Trackpoint>
          <Trackpoint>
            <Time>2020-02-15T08:45:57.000Z</Time>
            <Position>
              <LatitudeDegrees>41.945679746568202972412109375</LatitudeDegrees>
              <LongitudeDegrees>2.83647936768829822540283203125</LongitudeDegrees>
            </Position>
            <AltitudeMeters>101.1999969482421875</AltitudeMeters>
            <DistanceMeters>8459.7398105482</DistanceMeters>
          </Trackpoint>
          <Trackpoint>
            <Time>2020-02-15T08:45:58.000Z</Time>
            <Position>
              <LatitudeDegrees>41.94562886841595172882080078125</LatitudeDegrees>
              <LongitudeDegrees>2.8364760987460613250732421875</LongitudeDegrees>
            </Position>
            <AltitudeMeters>101.40000152587890625</AltitudeMeters>
            <DistanceMeters>8465.4080564839</DistanceMeters>
          </Trackpoint>
          <Trackpoint>
            <Time>2020-02-15T08:45:59.000Z</Time>
            <Position>
              <LatitudeDegrees>41.94557706825435161590576171875</LatitudeDegrees>
              <LongitudeDegrees>2.836473248898983001708984375</LongitudeDegrees>
            </Position>
            <AltitudeMeters>101.59999847412109375</AltitudeMeters>
            <DistanceMeters>8471.178142432</DistanceMeters>
          </Trackpoint>
          <Trackpoint>
            <Time>2020-02-15T08:46:02.000Z</Time>
            <Position>
              <LatitudeDegrees>41.94542250595986843109130859375</LatitudeDegrees>
              <LongitudeDegrees>2.8364593349397182464599609375</LongitudeDegrees>
            </Position>
            <AltitudeMeters>101.8000030517578125</AltitudeMeters>
            <DistanceMeters>8488.4196654661</DistanceMeters>
          </Trackpoint>
          <Trackpoint>
            <Time>2020-02-15T08:46:03.000Z</Time>
            <Position>
              <LatitudeDegrees>41.9453711248934268951416015625</LatitudeDegrees>
              <LongitudeDegrees>2.8364543057978153228759765625</LongitudeDegrees>
            </Position>
            <AltitudeMeters>102</AltitudeMeters>
            <DistanceMeters>8494.1536438697</DistanceMeters>
          </Trackpoint>
          <Trackpoint>
            <Time>2020-02-15T08:46:04.000Z</Time>
            <Position>
              <LatitudeDegrees>41.94531957618892192840576171875</LatitudeDegrees>
              <LongitudeDegrees>2.8364499472081661224365234375</LongitudeDegrees>
            </Position>
            <AltitudeMeters>102</AltitudeMeters>
            <DistanceMeters>8499.9017783243</DistanceMeters>
          </Trackpoint>
          <Trackpoint>
            <Time>2020-02-15T08:46:05.000Z</Time>
            <Position>
              <LatitudeDegrees>41.94526894949376583099365234375</LatitudeDegrees>
              <LongitudeDegrees>2.83644617535173892974853515625</LongitudeDegrees>
            </Position>
            <AltitudeMeters>102</AltitudeMeters>
            <DistanceMeters>8505.5452772051</DistanceMeters>
          </Trackpoint>
          <Trackpoint>
            <Time>2020-02-15T08:46:06.000Z</Time>
            <Position>
              <LatitudeDegrees>41.945218741893768310546875</LatitudeDegrees>
              <LongitudeDegrees>2.83644265495240688323974609375</LongitudeDegrees>
            </Position>
            <AltitudeMeters>102</AltitudeMeters>
            <DistanceMeters>8511.1405676382</DistanceMeters>
          </Trackpoint>
          <Trackpoint>
            <Time>2020-02-15T08:46:07.000Z</Time>
            <Position>
              <LatitudeDegrees>41.94516836665570735931396484375</LatitudeDegrees>
              <LongitudeDegrees>2.836438715457916259765625</LongitudeDegrees>
            </Position>
            <AltitudeMeters>102.1999969482421875</AltitudeMeters>
            <DistanceMeters>8516.7576030748</DistanceMeters>
          </Trackpoint>
          <Trackpoint>
            <Time>2020-02-15T08:46:08.000Z</Time>
            <Position>
              <LatitudeDegrees>41.94511790759861469268798828125</LatitudeDegrees>
              <LongitudeDegrees>2.8364338539540767669677734375</LongitudeDegrees>
            </Position>
            <AltitudeMeters>102.40000152587890625</AltitudeMeters>
            <DistanceMeters>8522.3874848069</DistanceMeters>
          </Trackpoint>
          <Trackpoint>
            <Time>2020-02-15T08:46:09.000Z</Time>
            <Position>
              <LatitudeDegrees>41.9450663588941097259521484375</LatitudeDegrees>
              <LongitudeDegrees>2.83642865717411041259765625</LongitudeDegrees>
            </Position>
            <AltitudeMeters>102.40000152587890625</AltitudeMeters>
            <DistanceMeters>8528.1411149865</DistanceMeters>
          </Trackpoint>
          <Trackpoint>
            <Time>2020-02-15T08:46:12.000Z</Time>
            <Position>
              <LatitudeDegrees>41.9449111260473728179931640625</LatitudeDegrees>
              <LongitudeDegrees>2.83641750924289226531982421875</LongitudeDegrees>
            </Position>
            <AltitudeMeters>102.59999847412109375</AltitudeMeters>
            <DistanceMeters>8545.4432852051</DistanceMeters>
          </Trackpoint>
          <Trackpoint>
            <Time>2020-02-15T08:46:15.000Z</Time>
            <Position>
              <LatitudeDegrees>41.94475413300096988677978515625</LatitudeDegrees>
              <LongitudeDegrees>2.83640208654105663299560546875</LongitudeDegrees>
            </Position>
            <AltitudeMeters>102.8000030517578125</AltitudeMeters>
            <DistanceMeters>8562.9632840202</DistanceMeters>
          </Trackpoint>
          <Trackpoint>
            <Time>2020-02-15T08:46:18.000Z</Time>
            <Position>
              <LatitudeDegrees>41.944596469402313232421875</LatitudeDegrees>
              <LongitudeDegrees>2.836390770971775054931640625</LongitudeDegrees>
            </Position>
            <AltitudeMeters>103.1999969482421875</AltitudeMeters>
            <DistanceMeters>8580.5365473571</DistanceMeters>
          </Trackpoint>
          <Trackpoint>
            <Time>2020-02-15T08:46:20.000Z</Time>
            <Position>
              <LatitudeDegrees>41.94449211470782756805419921875</LatitudeDegrees>
              <LongitudeDegrees>2.8363808803260326385498046875</LongitudeDegrees>
            </Position>
            <AltitudeMeters>103.1999969482421875</AltitudeMeters>
            <DistanceMeters>8592.1803254265</DistanceMeters>
          </Trackpoint>
          <Trackpoint>
            <Time>2020-02-15T08:46:21.000Z</Time>
            <Position>
              <LatitudeDegrees>41.94444023072719573974609375</LatitudeDegrees>
              <LongitudeDegrees>2.83637794665992259979248046875</LongitudeDegrees>
            </Position>
            <AltitudeMeters>103.1999969482421875</AltitudeMeters>
            <DistanceMeters>8597.960574802</DistanceMeters>
          </Trackpoint>
          <Trackpoint>
            <Time>2020-02-15T08:46:22.000Z</Time>
            <Position>
              <LatitudeDegrees>41.9443884305655956268310546875</LatitudeDegrees>
              <LongitudeDegrees>2.83637492917478084564208984375</LongitudeDegrees>
            </Position>
            <AltitudeMeters>103.59999847412109375</AltitudeMeters>
            <DistanceMeters>8603.7314431877</DistanceMeters>
          </Trackpoint>
          <Trackpoint>
            <Time>2020-02-15T08:46:24.000Z</Time>
            <Position>
              <LatitudeDegrees>41.944287009537220001220703125</LatitudeDegrees>
              <LongitudeDegrees>2.83636428415775299072265625</LongitudeDegrees>
            </Position>
            <AltitudeMeters>103.59999847412109375</AltitudeMeters>
            <DistanceMeters>8615.0543856211</DistanceMeters>
          </Trackpoint>
          <Trackpoint>
            <Time>2020-02-15T08:46:25.000Z</Time>
            <Position>
              <LatitudeDegrees>41.94423646666109561920166015625</LatitudeDegrees>
              <LongitudeDegrees>2.83635933883488178253173828125</LongitudeDegrees>
            </Position>
            <AltitudeMeters>103.59999847412109375</AltitudeMeters>
            <DistanceMeters>8620.6946834246</DistanceMeters>
          </Trackpoint>
          <Trackpoint>
            <Time>2020-02-15T08:46:26.000Z</Time>
            <Position>
              <LatitudeDegrees>41.94418533705174922943115234375</LatitudeDegrees>
              <LongitudeDegrees>2.83635447733104228973388671875</LongitudeDegrees>
            </Position>
            <AltitudeMeters>103.59999847412109375</AltitudeMeters>
            <DistanceMeters>8626.3994529646</DistanceMeters>
          </Trackpoint>
          <Trackpoint>
            <Time>2020-02-15T08:46:28.000Z</Time>
            <Position>
              <LatitudeDegrees>41.9440836645662784576416015625</LatitudeDegrees>
              <LongitudeDegrees>2.83634576015174388885498046875</LongitudeDegrees>
            </Position>
            <AltitudeMeters>103.8000030517578125</AltitudeMeters>
            <DistanceMeters>8637.7391305862</DistanceMeters>
          </Trackpoint>
          <Trackpoint>
            <Time>2020-02-15T08:46:29.000Z</Time>
            <Position>
              <LatitudeDegrees>41.94403328932821750640869140625</LatitudeDegrees>
              <LongitudeDegrees>2.8363409824669361114501953125</LongitudeDegrees>
            </Position>
            <AltitudeMeters>104</AltitudeMeters>
            <DistanceMeters>8643.3609868236</DistanceMeters>
          </Trackpoint>
          <Trackpoint>
            <Time>2020-02-15T08:46:30.000Z</Time>
            <Position>
              <LatitudeDegrees>41.943983249366283416748046875</LatitudeDegrees>
              <LongitudeDegrees>2.8363369591534137725830078125</LongitudeDegrees>
            </Position>
            <AltitudeMeters>104</AltitudeMeters>
            <DistanceMeters>8648.9401152055</DistanceMeters>
          </Trackpoint>
          <Trackpoint>
            <Time>2020-02-15T08:46:31.000Z</Time>
            <Position>
              <LatitudeDegrees>41.94393320940434932708740234375</LatitudeDegrees>
              <LongitudeDegrees>2.83633218146860599517822265625</LongitudeDegrees>
            </Position>
            <AltitudeMeters>104</AltitudeMeters>
            <DistanceMeters>8654.5232884864</DistanceMeters>
          </Trackpoint>
          <Trackpoint>
            <Time>2020-02-15T08:46:32.000Z</Time>
            <Position>
              <LatitudeDegrees>41.9438843429088592529296875</LatitudeDegrees>
              <LongitudeDegrees>2.836327068507671356201171875</LongitudeDegrees>
            </Position>
            <AltitudeMeters>104</AltitudeMeters>
            <DistanceMeters>8659.9788482157</DistanceMeters>
          </Trackpoint>
          <Trackpoint>
            <Time>2020-02-15T08:46:33.000Z</Time>
            <Position>
              <LatitudeDegrees>41.94383539259433746337890625</LatitudeDegrees>
              <LongitudeDegrees>2.83632396720349788665771484375</LongitudeDegrees>
            </Position>
            <AltitudeMeters>104</AltitudeMeters>
            <DistanceMeters>8665.4327524875</DistanceMeters>
          </Trackpoint>
          <Trackpoint>
            <Time>2020-02-15T08:46:34.000Z</Time>
            <Position>
              <LatitudeDegrees>41.94378920830786228179931640625</LatitudeDegrees>
              <LongitudeDegrees>2.83632128499448299407958984375</LongitudeDegrees>
            </Position>
            <AltitudeMeters>104</AltitudeMeters>
            <DistanceMeters>8670.5782538366</DistanceMeters>
          </Trackpoint>
          <Trackpoint>
            <Time>2020-02-15T08:46:35.000Z</Time>
            <Position>
              <LatitudeDegrees>41.94374595768749713897705078125</LatitudeDegrees>
              <LongitudeDegrees>2.83631910569965839385986328125</LongitudeDegrees>
            </Position>
            <AltitudeMeters>104.1999969482421875</AltitudeMeters>
            <DistanceMeters>8675.3947117036</DistanceMeters>
          </Trackpoint>
          <Trackpoint>
            <Time>2020-02-15T08:46:36.000Z</Time>
            <Position>
              <LatitudeDegrees>41.94370530545711517333984375</LatitudeDegrees>
              <LongitudeDegrees>2.83631675876677036285400390625</LongitudeDegrees>
            </Position>
            <AltitudeMeters>104.1999969482421875</AltitudeMeters>
            <DistanceMeters>8679.9222136117</DistanceMeters>
          </Trackpoint>
          <Trackpoint>
            <Time>2020-02-15T08:46:37.000Z</Time>
            <Position>
              <LatitudeDegrees>41.94366498850286006927490234375</LatitudeDegrees>
              <LongitudeDegrees>2.83631457947194576263427734375</LongitudeDegrees>
            </Position>
            <AltitudeMeters>104.40000152587890625</AltitudeMeters>
            <DistanceMeters>8684.4126657826</DistanceMeters>
          </Trackpoint>
          <Trackpoint>
            <Time>2020-02-15T08:46:38.000Z</Time>
            <Position>
              <LatitudeDegrees>41.9436286948621273040771484375</LatitudeDegrees>
              <LongitudeDegrees>2.8363141603767871856689453125</LongitudeDegrees>
            </Position>
            <AltitudeMeters>104.40000152587890625</AltitudeMeters>
            <DistanceMeters>8688.453257102</DistanceMeters>
          </Trackpoint>
          <Trackpoint>
            <Time>2020-02-15T08:46:39.000Z</Time>
            <Position>
              <LatitudeDegrees>41.9435985200107097625732421875</LatitudeDegrees>
              <LongitudeDegrees>2.836313657462596893310546875</LongitudeDegrees>
            </Position>
            <AltitudeMeters>104.40000152587890625</AltitudeMeters>
            <DistanceMeters>8691.8129588083</DistanceMeters>
          </Trackpoint>
          <Trackpoint>
            <Time>2020-02-15T08:46:40.000Z</Time>
            <Position>
              <LatitudeDegrees>41.94357396103441715240478515625</LatitudeDegrees>
              <LongitudeDegrees>2.836314328014850616455078125</LongitudeDegrees>
            </Position>
            <AltitudeMeters>104.40000152587890625</AltitudeMeters>
            <DistanceMeters>8694.5506518971</DistanceMeters>
          </Trackpoint>
          <Trackpoint>
            <Time>2020-02-15T08:46:41.000Z</Time>
            <Position>
              <LatitudeDegrees>41.94354965351521968841552734375</LatitudeDegrees>
              <LongitudeDegrees>2.83631575293838977813720703125</LongitudeDegrees>
            </Position>
            <AltitudeMeters>104.40000152587890625</AltitudeMeters>
            <DistanceMeters>8697.2601633196</DistanceMeters>
          </Trackpoint>
          <Trackpoint>
            <Time>2020-02-15T08:46:42.000Z</Time>
            <Position>
              <LatitudeDegrees>41.94352434016764163970947265625</LatitudeDegrees>
              <LongitudeDegrees>2.83631525002419948577880859375</LongitudeDegrees>
            </Position>
            <AltitudeMeters>104.40000152587890625</AltitudeMeters>
            <DistanceMeters>8700.079111221</DistanceMeters>
          </Trackpoint>
          <Trackpoint>
            <Time>2020-02-15T08:46:45.000Z</Time>
            <Position>
              <LatitudeDegrees>41.94342476315796375274658203125</LatitudeDegrees>
              <LongitudeDegrees>2.83629546873271465301513671875</LongitudeDegrees>
            </Position>
            <AltitudeMeters>104.59999847412109375</AltitudeMeters>
            <DistanceMeters>8711.2825956152</DistanceMeters>
          </Trackpoint>
          <Trackpoint>
            <Time>2020-02-15T08:46:46.000Z</Time>
            <Position>
              <LatitudeDegrees>41.943382434546947479248046875</LatitudeDegrees>
              <LongitudeDegrees>2.83627577126026153564453125</LongitudeDegrees>
            </Position>
            <AltitudeMeters>104.40000152587890625</AltitudeMeters>
            <DistanceMeters>8716.2676503164</DistanceMeters>
          </Trackpoint>
          <Trackpoint>
            <Time>2020-02-15T08:46:47.000Z</Time>
            <Position>
              <LatitudeDegrees>41.94333557970821857452392578125</LatitudeDegrees>
              <LongitudeDegrees>2.83625892363488674163818359375</LongitudeDegrees>
            </Position>
            <AltitudeMeters>104.40000152587890625</AltitudeMeters>
            <DistanceMeters>8721.6658033973</DistanceMeters>
          </Trackpoint>
          <Trackpoint>
            <Time>2020-02-15T08:46:48.000Z</Time>
            <Position>
              <LatitudeDegrees>41.94328746758401393890380859375</LatitudeDegrees>
              <LongitudeDegrees>2.83624618314206600189208984375</LongitudeDegrees>
            </Position>
            <AltitudeMeters>104.40000152587890625</AltitudeMeters>
            <DistanceMeters>8727.1230180817</DistanceMeters>
          </Trackpoint>
          <Trackpoint>
            <Time>2020-02-15T08:46:49.000Z</Time>
            <Position>
              <LatitudeDegrees>41.94323860108852386474609375</LatitudeDegrees>
              <LongitudeDegrees>2.836233191192150115966796875</LongitudeDegrees>
            </Position>
            <AltitudeMeters>104.59999847412109375</AltitudeMeters>
            <DistanceMeters>8732.666424087</DistanceMeters>
          </Trackpoint>
          <Trackpoint>
            <Time>2020-02-15T08:46:57.000Z</Time>
            <Position>
              <LatitudeDegrees>41.94282151758670806884765625</LatitudeDegrees>
              <LongitudeDegrees>2.83617518842220306396484375</LongitudeDegrees>
            </Position>
            <AltitudeMeters>104.8000030517578125</AltitudeMeters>
            <DistanceMeters>8779.3362483682</DistanceMeters>
          </Trackpoint>
          <Trackpoint>
            <Time>2020-02-15T08:46:59.000Z</Time>
            <Position>
              <LatitudeDegrees>41.94271682761609554290771484375</LatitudeDegrees>
              <LongitudeDegrees>2.83616336993873119354248046875</LongitudeDegrees>
            </Position>
            <AltitudeMeters>104.8000030517578125</AltitudeMeters>
            <DistanceMeters>8791.0295548944</DistanceMeters>
          </Trackpoint>
          <Trackpoint>
            <Time>2020-02-15T08:47:01.000Z</Time>
            <Position>
              <LatitudeDegrees>41.9426138140261173248291015625</LatitudeDegrees>
              <LongitudeDegrees>2.836155407130718231201171875</LongitudeDegrees>
            </Position>
            <AltitudeMeters>104.8000030517578125</AltitudeMeters>
            <DistanceMeters>8802.5144287124</DistanceMeters>
          </Trackpoint>
          <Trackpoint>
            <Time>2020-02-15T08:47:02.000Z</Time>
            <Position>
              <LatitudeDegrees>41.94256260059773921966552734375</LatitudeDegrees>
              <LongitudeDegrees>2.836152724921703338623046875</LongitudeDegrees>
            </Position>
            <AltitudeMeters>105</AltitudeMeters>
            <DistanceMeters>8808.2191982524</DistanceMeters>
          </Trackpoint>
          <Trackpoint>
            <Time>2020-02-15T08:47:04.000Z</Time>
            <Position>
              <LatitudeDegrees>41.942460425198078155517578125</LatitudeDegrees>
              <LongitudeDegrees>2.83614677377045154571533203125</LongitudeDegrees>
            </Position>
            <AltitudeMeters>105</AltitudeMeters>
            <DistanceMeters>8819.6025895296</DistanceMeters>
          </Trackpoint>
          <Trackpoint>
            <Time>2020-02-15T08:47:05.000Z</Time>
            <Position>
              <LatitudeDegrees>41.94240971468389034271240234375</LatitudeDegrees>
              <LongitudeDegrees>2.83614325337111949920654296875</LongitudeDegrees>
            </Position>
            <AltitudeMeters>104.8000030517578125</AltitudeMeters>
            <DistanceMeters>8825.2532842043</DistanceMeters>
          </Trackpoint>
          <Trackpoint>
            <Time>2020-02-15T08:47:06.000Z</Time>
            <Position>
              <LatitudeDegrees>41.942359171807765960693359375</LatitudeDegrees>
              <LongitudeDegrees>2.8361414931714534759521484375</LongitudeDegrees>
            </Position>
            <AltitudeMeters>104.8000030517578125</AltitudeMeters>
            <DistanceMeters>8830.8807594898</DistanceMeters>
          </Trackpoint>
          <Trackpoint>
            <Time>2020-02-15T08:47:07.000Z</Time>
            <Position>
              <LatitudeDegrees>41.94230929948389530181884765625</LatitudeDegrees>
              <LongitudeDegrees>2.83613990060985088348388671875</LongitudeDegrees>
            </Position>
            <AltitudeMeters>104.8000030517578125</AltitudeMeters>
            <DistanceMeters>8836.4331176356</DistanceMeters>
          </Trackpoint>
          <Trackpoint>
            <Time>2020-02-15T08:47:08.000Z</Time>
            <Position>
              <LatitudeDegrees>41.94225850515067577362060546875</LatitudeDegrees>
              <LongitudeDegrees>2.83613772131502628326416015625</LongitudeDegrees>
            </Position>
            <AltitudeMeters>104.8000030517578125</AltitudeMeters>
            <DistanceMeters>8842.0894027098</DistanceMeters>
          </Trackpoint>
          <Trackpoint>
            <Time>2020-02-15T08:47:09.000Z</Time>
            <Position>
              <LatitudeDegrees>41.9422081299126148223876953125</LatitudeDegrees>
              <LongitudeDegrees>2.8361356258392333984375</LongitudeDegrees>
            </Position>
            <AltitudeMeters>104.8000030517578125</AltitudeMeters>
            <DistanceMeters>8847.6983942708</DistanceMeters>
          </Trackpoint>
          <Trackpoint>
            <Time>2020-02-15T08:47:13.000Z</Time>
            <Position>
              <LatitudeDegrees>41.9420079700648784637451171875</LatitudeDegrees>
              <LongitudeDegrees>2.836129926145076751708984375</LongitudeDegrees>
            </Position>
            <AltitudeMeters>104.8000030517578125</AltitudeMeters>
            <DistanceMeters>8869.9817029008</DistanceMeters>
          </Trackpoint>
          <Trackpoint>
            <Time>2020-02-15T08:47:14.000Z</Time>
            <Position>
              <LatitudeDegrees>41.941958852112293243408203125</LatitudeDegrees>
              <LongitudeDegrees>2.83613319508731365203857421875</LongitudeDegrees>
            </Position>
            <AltitudeMeters>104.8000030517578125</AltitudeMeters>
            <DistanceMeters>8875.4554396172</DistanceMeters>
          </Trackpoint>
          <Trackpoint>
            <Time>2020-02-15T08:47:15.000Z</Time>
            <Position>
              <LatitudeDegrees>41.9419110752642154693603515625</LatitudeDegrees>
              <LongitudeDegrees>2.83613654784858226776123046875</LongitudeDegrees>
            </Position>
            <AltitudeMeters>104.8000030517578125</AltitudeMeters>
            <DistanceMeters>8880.7803283517</DistanceMeters>
          </Trackpoint>
          <Trackpoint>
            <Time>2020-02-15T08:47:16.000Z</Time>
            <Position>
              <LatitudeDegrees>41.941862292587757110595703125</LatitudeDegrees>
              <LongitudeDegrees>2.836137302219867706298828125</LongitudeDegrees>
            </Position>
            <AltitudeMeters>104.8000030517578125</AltitudeMeters>
            <DistanceMeters>8886.2110032329</DistanceMeters>
          </Trackpoint>
          <Trackpoint>
            <Time>2020-02-15T08:47:17.000Z</Time>
            <Position>
              <LatitudeDegrees>41.9418131746351718902587890625</LatitudeDegrees>
              <LongitudeDegrees>2.83613520674407482147216796875</LongitudeDegrees>
            </Position>
            <AltitudeMeters>104.8000030517578125</AltitudeMeters>
            <DistanceMeters>8891.6797885809</DistanceMeters>
          </Trackpoint>
          <Trackpoint>
            <Time>2020-02-15T08:47:18.000Z</Time>
            <Position>
              <LatitudeDegrees>41.94176464341580867767333984375</LatitudeDegrees>
              <LongitudeDegrees>2.83613403327763080596923828125</LongitudeDegrees>
            </Position>
            <AltitudeMeters>104.59999847412109375</AltitudeMeters>
            <DistanceMeters>8897.0812862427</DistanceMeters>
          </Trackpoint>
          <Trackpoint>
            <Time>2020-02-15T08:47:19.000Z</Time>
            <Position>
              <LatitudeDegrees>41.941716782748699188232421875</LatitudeDegrees>
              <LongitudeDegrees>2.83613026142120361328125</LongitudeDegrees>
            </Position>
            <AltitudeMeters>104.59999847412109375</AltitudeMeters>
            <DistanceMeters>8902.4171864505</DistanceMeters>
          </Trackpoint>
          <Trackpoint>
            <Time>2020-02-15T08:47:20.000Z</Time>
            <Position>
              <LatitudeDegrees>41.9416686706244945526123046875</LatitudeDegrees>
              <LongitudeDegrees>2.836122214794158935546875</LongitudeDegrees>
            </Position>
            <AltitudeMeters>104.59999847412109375</AltitudeMeters>
            <DistanceMeters>8907.8128297352</DistanceMeters>
          </Trackpoint>
          <Trackpoint>
            <Time>2020-02-15T08:47:22.000Z</Time>
            <Position>
              <LatitudeDegrees>41.9415734522044658660888671875</LatitudeDegrees>
              <LongitudeDegrees>2.83610654063522815704345703125</LongitudeDegrees>
            </Position>
            <AltitudeMeters>104.59999847412109375</AltitudeMeters>
            <DistanceMeters>8918.4897059183</DistanceMeters>
          </Trackpoint>
          <Trackpoint>
            <Time>2020-02-15T08:47:23.000Z</Time>
            <Position>
              <LatitudeDegrees>41.9415265135467052459716796875</LatitudeDegrees>
              <LongitudeDegrees>2.8361002542078495025634765625</LongitudeDegrees>
            </Position>
            <AltitudeMeters>104.8000030517578125</AltitudeMeters>
            <DistanceMeters>8923.7394481316</DistanceMeters>
          </Trackpoint>
          <Trackpoint>
            <Time>2020-02-15T08:47:24.000Z</Time>
            <Position>
              <LatitudeDegrees>41.941480077803134918212890625</LatitudeDegrees>
              <LongitudeDegrees>2.83609472215175628662109375</LongitudeDegrees>
            </Position>
            <AltitudeMeters>104.8000030517578125</AltitudeMeters>
            <DistanceMeters>8928.9268971967</DistanceMeters>
          </Trackpoint>
          <Trackpoint>
            <Time>2020-02-15T08:47:25.000Z</Time>
            <Position>
              <LatitudeDegrees>41.94143372587859630584716796875</LatitudeDegrees>
              <LongitudeDegrees>2.836087010800838470458984375</LongitudeDegrees>
            </Position>
            <AltitudeMeters>104.59999847412109375</AltitudeMeters>
            <DistanceMeters>8934.1247802967</DistanceMeters>
          </Trackpoint>
          <Trackpoint>
            <Time>2020-02-15T08:47:26.000Z</Time>
            <Position>
              <LatitudeDegrees>41.9413870386779308319091796875</LatitudeDegrees>
              <LongitudeDegrees>2.83607871271669864654541015625</LongitudeDegrees>
            </Position>
            <AltitudeMeters>104.59999847412109375</AltitudeMeters>
            <DistanceMeters>8939.3659149584</DistanceMeters>
          </Trackpoint>
          <Trackpoint>
            <Time>2020-02-15T08:47:31.000Z</Time>
            <Position>
              <LatitudeDegrees>41.9411526806652545928955078125</LatitudeDegrees>
              <LongitudeDegrees>2.83605960197746753692626953125</LongitudeDegrees>
            </Position>
            <AltitudeMeters>104.8000030517578125</AltitudeMeters>
            <DistanceMeters>8965.4984341854</DistanceMeters>
          </Trackpoint>
          <Trackpoint>
            <Time>2020-02-15T08:47:32.000Z</Time>
            <Position>
              <LatitudeDegrees>41.9411057420074939727783203125</LatitudeDegrees>
              <LongitudeDegrees>2.836060188710689544677734375</LongitudeDegrees>
            </Position>
            <AltitudeMeters>104.8000030517578125</AltitudeMeters>
            <DistanceMeters>8970.7223111952</DistanceMeters>
          </Trackpoint>
          <Trackpoint>
            <Time>2020-02-15T08:47:33.000Z</Time>
            <Position>
              <LatitudeDegrees>41.94105855189263820648193359375</LatitudeDegrees>
              <LongitudeDegrees>2.83606261946260929107666015625</LongitudeDegrees>
            </Position>
            <AltitudeMeters>104.59999847412109375</AltitudeMeters>
            <DistanceMeters>8975.977211172</DistanceMeters>
          </Trackpoint>
          <Trackpoint>
            <Time>2020-02-15T08:47:38.000Z</Time>
            <Position>
              <LatitudeDegrees>41.9408137165009975433349609375</LatitudeDegrees>
              <LongitudeDegrees>2.83607636578381061553955078125</LongitudeDegrees>
            </Position>
            <AltitudeMeters>104.8000030517578125</AltitudeMeters>
            <DistanceMeters>9003.2513681214</DistanceMeters>
          </Trackpoint>
          <Trackpoint>
            <Time>2020-02-15T08:47:40.000Z</Time>
            <Position>
              <LatitudeDegrees>41.94071640260517597198486328125</LatitudeDegrees>
              <LongitudeDegrees>2.83609715290367603302001953125</LongitudeDegrees>
            </Position>
            <AltitudeMeters>104.8000030517578125</AltitudeMeters>
            <DistanceMeters>9014.2186202036</DistanceMeters>
          </Trackpoint>
          <Trackpoint>
            <Time>2020-02-15T08:47:41.000Z</Time>
            <Position>
              <LatitudeDegrees>41.94066812284290790557861328125</LatitudeDegrees>
              <LongitudeDegrees>2.8361101448535919189453125</LongitudeDegrees>
            </Position>
            <AltitudeMeters>104.8000030517578125</AltitudeMeters>
            <DistanceMeters>9019.6981278617</DistanceMeters>
          </Trackpoint>
          <Trackpoint>
            <Time>2020-02-15T08:47:42.000Z</Time>
            <Position>
              <LatitudeDegrees>41.94062001071870326995849609375</LatitudeDegrees>
              <LongitudeDegrees>2.83612280152738094329833984375</LongitudeDegrees>
            </Position>
            <AltitudeMeters>104.8000030517578125</AltitudeMeters>
            <DistanceMeters>9025.1553425462</DistanceMeters>
          </Trackpoint>
          <Trackpoint>
            <Time>2020-02-15T08:47:43.000Z</Time>
            <Position>
              <LatitudeDegrees>41.94057248532772064208984375</LatitudeDegrees>
              <LongitudeDegrees>2.83613629639148712158203125</LongitudeDegrees>
            </Position>
            <AltitudeMeters>104.59999847412109375</AltitudeMeters>
            <DistanceMeters>9030.5618531999</DistanceMeters>
          </Trackpoint>
          <Trackpoint>
            <Time>2020-02-15T08:47:44.000Z</Time>
            <Position>
              <LatitudeDegrees>41.94052613340318202972412109375</LatitudeDegrees>
              <LongitudeDegrees>2.8361512161791324615478515625</LongitudeDegrees>
            </Position>
            <AltitudeMeters>104.8000030517578125</AltitudeMeters>
            <DistanceMeters>9035.8663530066</DistanceMeters>
          </Trackpoint>
          <Trackpoint>
            <Time>2020-02-15T08:47:45.000Z</Time>
            <Position>
              <LatitudeDegrees>41.940479613840579986572265625</LatitudeDegrees>
              <LongitudeDegrees>2.83616856671869754791259765625</LongitudeDegrees>
            </Position>
            <AltitudeMeters>104.59999847412109375</AltitudeMeters>
            <DistanceMeters>9041.2401956232</DistanceMeters>
          </Trackpoint>
          <Trackpoint>
            <Time>2020-02-15T08:47:47.000Z</Time>
            <Position>
              <LatitudeDegrees>41.94038682617247104644775390625</LatitudeDegrees>
              <LongitudeDegrees>2.83620603382587432861328125</LongitudeDegrees>
            </Position>
            <AltitudeMeters>104.8000030517578125</AltitudeMeters>
            <DistanceMeters>9052.0235297259</DistanceMeters>
          </Trackpoint>
          <Trackpoint>
            <Time>2020-02-15T08:47:48.000Z</Time>
            <Position>
              <LatitudeDegrees>41.94034039042890071868896484375</LatitudeDegrees>
              <LongitudeDegrees>2.83622606657445430755615234375</LongitudeDegrees>
            </Position>
            <AltitudeMeters>104.8000030517578125</AltitudeMeters>
            <DistanceMeters>9057.4517098478</DistanceMeters>
          </Trackpoint>
          <Trackpoint>
            <Time>2020-02-15T08:47:51.000Z</Time>
            <Position>
              <LatitudeDegrees>41.94020225666463375091552734375</LatitudeDegrees>
              <LongitudeDegrees>2.83629077486693859100341796875</LongitudeDegrees>
            </Position>
            <AltitudeMeters>104.8000030517578125</AltitudeMeters>
            <DistanceMeters>9073.7326454455</DistanceMeters>
          </Trackpoint>
          <Trackpoint>
            <Time>2020-02-15T08:47:54.000Z</Time>
            <Position>
              <LatitudeDegrees>41.940068565309047698974609375</LatitudeDegrees>
              <LongitudeDegrees>2.83636688254773616790771484375</LongitudeDegrees>
            </Position>
            <AltitudeMeters>104.8000030517578125</AltitudeMeters>
            <DistanceMeters>9089.8922169314</DistanceMeters>
          </Trackpoint>
          <Trackpoint>
            <Time>2020-02-15T08:47:55.000Z</Time>
            <Position>
              <LatitudeDegrees>41.94002657197415828704833984375</LatitudeDegrees>
              <LongitudeDegrees>2.83639554865658283233642578125</LongitudeDegrees>
            </Position>
            <AltitudeMeters>104.8000030517578125</AltitudeMeters>
            <DistanceMeters>9095.1342129843</DistanceMeters>
          </Trackpoint>
          <Trackpoint>
            <Time>2020-02-15T08:47:56.000Z</Time>
            <Position>
              <LatitudeDegrees>41.9399845786392688751220703125</LatitudeDegrees>
              <LongitudeDegrees>2.83642597496509552001953125</LongitudeDegrees>
            </Position>
            <AltitudeMeters>104.8000030517578125</AltitudeMeters>
            <DistanceMeters>9100.443817363</DistanceMeters>
          </Trackpoint>
          <Trackpoint>
            <Time>2020-02-15T08:47:57.000Z</Time>
            <Position>
              <LatitudeDegrees>41.9399430043995380401611328125</LatitudeDegrees>
              <LongitudeDegrees>2.83645757474005222320556640625</LongitudeDegrees>
            </Position>
            <AltitudeMeters>104.8000030517578125</AltitudeMeters>
            <DistanceMeters>9105.7602202135</DistanceMeters>
          </Trackpoint>
          <Trackpoint>
            <Time>2020-02-15T08:47:58.000Z</Time>
            <Position>
              <LatitudeDegrees>41.93990168161690235137939453125</LatitudeDegrees>
              <LongitudeDegrees>2.8364905156195163726806640625</LongitudeDegrees>
            </Position>
            <AltitudeMeters>104.8000030517578125</AltitudeMeters>
            <DistanceMeters>9111.1087977978</DistanceMeters>
          </Trackpoint>
          <Trackpoint>
            <Time>2020-02-15T08:47:59.000Z</Time>
            <Position>
              <LatitudeDegrees>41.93986438214778900146484375</LatitudeDegrees>
              <LongitudeDegrees>2.83652479760348796844482421875</LongitudeDegrees>
            </Position>
            <AltitudeMeters>104.8000030517578125</AltitudeMeters>
            <DistanceMeters>9116.1389343959</DistanceMeters>
          </Trackpoint>
          <Trackpoint>
            <Time>2020-02-15T08:48:00.000Z</Time>
            <Position>
              <LatitudeDegrees>41.93982557393610477447509765625</LatitudeDegrees>
              <LongitudeDegrees>2.83656067214906215667724609375</LongitudeDegrees>
            </Position>
            <AltitudeMeters>104.8000030517578125</AltitudeMeters>
            <DistanceMeters>9121.3809304488</DistanceMeters>
          </Trackpoint>
          <Trackpoint>
            <Time>2020-02-15T08:48:01.000Z</Time>
            <Position>
              <LatitudeDegrees>41.939787603914737701416015625</LatitudeDegrees>
              <LongitudeDegrees>2.83659763634204864501953125</LongitudeDegrees>
            </Position>
            <AltitudeMeters>104.8000030517578125</AltitudeMeters>
            <DistanceMeters>9126.5987537957</DistanceMeters>
          </Trackpoint>
          <Trackpoint>
            <Time>2020-02-15T08:48:02.000Z</Time>
            <Position>
              <LatitudeDegrees>41.9397488795220851898193359375</LatitudeDegrees>
              <LongitudeDegrees>2.83663451671600341796875</LongitudeDegrees>
            </Position>
            <AltitudeMeters>104.8000030517578125</AltitudeMeters>
            <DistanceMeters>9131.8810767895</DistanceMeters>
          </Trackpoint>
          <Trackpoint>
            <Time>2020-02-15T08:48:04.000Z</Time>
            <Position>
              <LatitudeDegrees>41.9396764598786830902099609375</LatitudeDegrees>
              <LongitudeDegrees>2.83671406097710132598876953125</LongitudeDegrees>
            </Position>
            <AltitudeMeters>104.8000030517578125</AltitudeMeters>
            <DistanceMeters>9142.2907317948</DistanceMeters>
          </Trackpoint>
          <Trackpoint>
            <Time>2020-02-15T08:48:05.000Z</Time>
            <Position>
              <LatitudeDegrees>41.93964100442826747894287109375</LatitudeDegrees>
              <LongitudeDegrees>2.8367570601403713226318359375</LongitudeDegrees>
            </Position>
            <AltitudeMeters>104.8000030517578125</AltitudeMeters>
            <DistanceMeters>9147.6054358426</DistanceMeters>
          </Trackpoint>
          <Trackpoint>
            <Time>2020-02-15T08:48:06.000Z</Time>
            <Position>
              <LatitudeDegrees>41.93960563279688358306884765625</LatitudeDegrees>
              <LongitudeDegrees>2.83680014312267303466796875</LongitudeDegrees>
            </Position>
            <AltitudeMeters>104.8000030517578125</AltitudeMeters>
            <DistanceMeters>9152.9184405447</DistanceMeters>
          </Trackpoint>
          <Trackpoint>
            <Time>2020-02-15T08:48:11.000Z</Time>
            <Position>
              <LatitudeDegrees>41.93941569887101650238037109375</LatitudeDegrees>
              <LongitudeDegrees>2.83701798878610134124755859375</LongitudeDegrees>
            </Position>
            <AltitudeMeters>104.59999847412109375</AltitudeMeters>
            <DistanceMeters>9180.7068906099</DistanceMeters>
          </Trackpoint>
          <Trackpoint>
            <Time>2020-02-15T08:48:12.000Z</Time>
            <Position>
              <LatitudeDegrees>41.93937948904931545257568359375</LatitudeDegrees>
              <LongitudeDegrees>2.83706367015838623046875</LongitudeDegrees>
            </Position>
            <AltitudeMeters>104.59999847412109375</AltitudeMeters>
            <DistanceMeters>9186.2331658957</DistanceMeters>
          </Trackpoint>
          <Trackpoint>
            <Time>2020-02-15T08:48:13.000Z</Time>
            <Position>
              <LatitudeDegrees>41.93934462033212184906005859375</LatitudeDegrees>
              <LongitudeDegrees>2.83710985444486141204833984375</LongitudeDegrees>
            </Position>
            <AltitudeMeters>104.59999847412109375</AltitudeMeters>
            <DistanceMeters>9191.6804433069</DistanceMeters>
          </Trackpoint>
          <Trackpoint>
            <Time>2020-02-15T08:48:20.000Z</Time>
            <Position>
              <LatitudeDegrees>41.93909014575183391571044921875</LatitudeDegrees>
              <LongitudeDegrees>2.83746139146387577056884765625</LongitudeDegrees>
            </Position>
            <AltitudeMeters>104.59999847412109375</AltitudeMeters>
            <DistanceMeters>9232.2919972307</DistanceMeters>
          </Trackpoint>
          <Trackpoint>
            <Time>2020-02-15T08:48:23.000Z</Time>
            <Position>
              <LatitudeDegrees>41.93899241276085376739501953125</LatitudeDegrees>
              <LongitudeDegrees>2.83762349747121334075927734375</LongitudeDegrees>
            </Position>
            <AltitudeMeters>104.40000152587890625</AltitudeMeters>
            <DistanceMeters>9249.5680525278</DistanceMeters>
          </Trackpoint>
          <Trackpoint>
            <Time>2020-02-15T08:48:26.000Z</Time>
            <Position>
              <LatitudeDegrees>41.9388986192643642425537109375</LatitudeDegrees>
              <LongitudeDegrees>2.8377876989543437957763671875</LongitudeDegrees>
            </Position>
            <AltitudeMeters>104.59999847412109375</AltitudeMeters>
            <DistanceMeters>9266.7087225024</DistanceMeters>
          </Trackpoint>
          <Trackpoint>
            <Time>2020-02-15T08:48:27.000Z</Time>
            <Position>
              <LatitudeDegrees>41.93886869587004184722900390625</LatitudeDegrees>
              <LongitudeDegrees>2.837843857705593109130859375</LongitudeDegrees>
            </Position>
            <AltitudeMeters>104.40000152587890625</AltitudeMeters>
            <DistanceMeters>9272.4277203937</DistanceMeters>
          </Trackpoint>
          <Trackpoint>
            <Time>2020-02-15T08:48:28.000Z</Time>
            <Position>
              <LatitudeDegrees>41.938838772475719451904296875</LatitudeDegrees>
              <LongitudeDegrees>2.8379018604755401611328125</LongitudeDegrees>
            </Position>
            <AltitudeMeters>104.59999847412109375</AltitudeMeters>
            <DistanceMeters>9278.2716701805</DistanceMeters>
          </Trackpoint>
          <Trackpoint>
            <Time>2020-02-15T08:48:29.000Z</Time>
            <Position>
              <LatitudeDegrees>41.93881119601428508758544921875</LatitudeDegrees>
              <LongitudeDegrees>2.83795910887420177459716796875</LongitudeDegrees>
            </Position>
            <AltitudeMeters>104.59999847412109375</AltitudeMeters>
            <DistanceMeters>9283.9175686783</DistanceMeters>
          </Trackpoint>
          <Trackpoint>
            <Time>2020-02-15T08:48:32.000Z</Time>
            <Position>
              <LatitudeDegrees>41.93872251547873020172119140625</LatitudeDegrees>
              <LongitudeDegrees>2.83813596703112125396728515625</LongitudeDegrees>
            </Position>
            <AltitudeMeters>104.40000152587890625</AltitudeMeters>
            <DistanceMeters>9301.5761813011</DistanceMeters>
          </Trackpoint>
          <Trackpoint>
            <Time>2020-02-15T08:48:33.000Z</Time>
            <Position>
              <LatitudeDegrees>41.9386942684650421142578125</LatitudeDegrees>
              <LongitudeDegrees>2.83819396980106830596923828125</LongitudeDegrees>
            </Position>
            <AltitudeMeters>104.1999969482421875</AltitudeMeters>
            <DistanceMeters>9307.3156689845</DistanceMeters>
          </Trackpoint>
          <Trackpoint>
            <Time>2020-02-15T08:48:34.000Z</Time>
            <Position>
              <LatitudeDegrees>41.93867071531713008880615234375</LatitudeDegrees>
              <LongitudeDegrees>2.838249541819095611572265625</LongitudeDegrees>
            </Position>
            <AltitudeMeters>104.1999969482421875</AltitudeMeters>
            <DistanceMeters>9312.6116502377</DistanceMeters>
          </Trackpoint>
          <Trackpoint>
            <Time>2020-02-15T08:48:35.000Z</Time>
            <Position>
              <LatitudeDegrees>41.9386454857885837554931640625</LatitudeDegrees>
              <LongitudeDegrees>2.83830494619905948638916015625</LongitudeDegrees>
            </Position>
            <AltitudeMeters>104.1999969482421875</AltitudeMeters>
            <DistanceMeters>9317.9905316202</DistanceMeters>
          </Trackpoint>
          <Trackpoint>
            <Time>2020-02-15T08:48:36.000Z</Time>
            <Position>
              <LatitudeDegrees>41.93861925043165683746337890625</LatitudeDegrees>
              <LongitudeDegrees>2.8383596800267696380615234375</LongitudeDegrees>
            </Position>
            <AltitudeMeters>104</AltitudeMeters>
            <DistanceMeters>9323.3811518068</DistanceMeters>
          </Trackpoint>
          <Trackpoint>
            <Time>2020-02-15T08:48:38.000Z</Time>
            <Position>
              <LatitudeDegrees>41.93856510333716869354248046875</LatitudeDegrees>
              <LongitudeDegrees>2.83846805803477764129638671875</LongitudeDegrees>
            </Position>
            <AltitudeMeters>104</AltitudeMeters>
            <DistanceMeters>9334.1899967512</DistanceMeters>
          </Trackpoint>
          <Trackpoint>
            <Time>2020-02-15T08:48:39.000Z</Time>
            <Position>
              <LatitudeDegrees>41.9385388679802417755126953125</LatitudeDegrees>
              <LongitudeDegrees>2.83852212131023406982421875</LongitudeDegrees>
            </Position>
            <AltitudeMeters>104</AltitudeMeters>
            <DistanceMeters>9339.5351966417</DistanceMeters>
          </Trackpoint>
          <Trackpoint>
            <Time>2020-02-15T08:48:41.000Z</Time>
            <Position>
              <LatitudeDegrees>41.93848312832415103912353515625</LatitudeDegrees>
              <LongitudeDegrees>2.83863033168017864227294921875</LongitudeDegrees>
            </Position>
            <AltitudeMeters>104</AltitudeMeters>
            <DistanceMeters>9350.4330664056</DistanceMeters>
          </Trackpoint>
          <Trackpoint>
            <Time>2020-02-15T08:48:42.000Z</Time>
            <Position>
              <LatitudeDegrees>41.93845697678625583648681640625</LatitudeDegrees>
              <LongitudeDegrees>2.8386848978698253631591796875</LongitudeDegrees>
            </Position>
            <AltitudeMeters>104</AltitudeMeters>
            <DistanceMeters>9355.8069090221</DistanceMeters>
          </Trackpoint>
          <Trackpoint>
            <Time>2020-02-15T08:48:43.000Z</Time>
            <Position>
              <LatitudeDegrees>41.93843300454318523406982421875</LatitudeDegrees>
              <LongitudeDegrees>2.83874264918267726898193359375</LongitudeDegrees>
            </Position>
            <AltitudeMeters>104</AltitudeMeters>
            <DistanceMeters>9361.2822951997</DistanceMeters>
          </Trackpoint>
          <Trackpoint>
            <Time>2020-02-15T08:48:44.000Z</Time>
            <Position>
              <LatitudeDegrees>41.93840752355754375457763671875</LatitudeDegrees>
              <LongitudeDegrees>2.83880107104778289794921875</LongitudeDegrees>
            </Position>
            <AltitudeMeters>104</AltitudeMeters>
            <DistanceMeters>9366.8896766009</DistanceMeters>
          </Trackpoint>
          <Trackpoint>
            <Time>2020-02-15T08:48:45.000Z</Time>
            <Position>
              <LatitudeDegrees>41.93838539533317089080810546875</LatitudeDegrees>
              <LongitudeDegrees>2.838855721056461334228515625</LongitudeDegrees>
            </Position>
            <AltitudeMeters>104</AltitudeMeters>
            <DistanceMeters>9372.0413165989</DistanceMeters>
          </Trackpoint>
          <Trackpoint>
            <Time>2020-02-15T08:48:47.000Z</Time>
            <Position>
              <LatitudeDegrees>41.938337199389934539794921875</LatitudeDegrees>
              <LongitudeDegrees>2.83896644599735736846923828125</LongitudeDegrees>
            </Position>
            <AltitudeMeters>104</AltitudeMeters>
            <DistanceMeters>9382.663076109</DistanceMeters>
          </Trackpoint>
          <Trackpoint>
            <Time>2020-02-15T08:48:48.000Z</Time>
            <Position>
              <LatitudeDegrees>41.93831398151814937591552734375</LatitudeDegrees>
              <LongitudeDegrees>2.8390211798250675201416015625</LongitudeDegrees>
            </Position>
            <AltitudeMeters>104</AltitudeMeters>
            <DistanceMeters>9387.8800340734</DistanceMeters>
          </Trackpoint>
          <Trackpoint>
            <Time>2020-02-15T08:48:49.000Z</Time>
            <Position>
              <LatitudeDegrees>41.9382944516837596893310546875</LatitudeDegrees>
              <LongitudeDegrees>2.83907406963407993316650390625</LongitudeDegrees>
            </Position>
            <AltitudeMeters>104.1999969482421875</AltitudeMeters>
            <DistanceMeters>9392.7681402783</DistanceMeters>
          </Trackpoint>
          <Trackpoint>
            <Time>2020-02-15T08:48:50.000Z</Time>
            <Position>
              <LatitudeDegrees>41.93828179500997066497802734375</LatitudeDegrees>
              <LongitudeDegrees>2.8391249477863311767578125</LongitudeDegrees>
            </Position>
            <AltitudeMeters>104.1999969482421875</AltitudeMeters>
            <DistanceMeters>9397.2090508779</DistanceMeters>
          </Trackpoint>
          <Trackpoint>
            <Time>2020-02-15T08:48:51.000Z</Time>
            <Position>
              <LatitudeDegrees>41.938275508582592010498046875</LatitudeDegrees>
              <LongitudeDegrees>2.8391760773956775665283203125</LongitudeDegrees>
            </Position>
            <AltitudeMeters>104.1999969482421875</AltitudeMeters>
            <DistanceMeters>9401.4989571464</DistanceMeters>
          </Trackpoint>
          <Trackpoint>
            <Time>2020-02-15T08:48:52.000Z</Time>
            <Position>
              <LatitudeDegrees>41.93826536647975444793701171875</LatitudeDegrees>
              <LongitudeDegrees>2.83922460861504077911376953125</LongitudeDegrees>
            </Position>
            <AltitudeMeters>104.1999969482421875</AltitudeMeters>
            <DistanceMeters>9405.6736484568</DistanceMeters>
          </Trackpoint>
          <Trackpoint>
            <Time>2020-02-15T08:48:53.000Z</Time>
            <Position>
              <LatitudeDegrees>41.93825229071080684661865234375</LatitudeDegrees>
              <LongitudeDegrees>2.839264757931232452392578125</LongitudeDegrees>
            </Position>
            <AltitudeMeters>104.1999969482421875</AltitudeMeters>
            <DistanceMeters>9409.3008817521</DistanceMeters>
          </Trackpoint>
          <Trackpoint>
            <Time>2020-02-15T08:48:54.000Z</Time>
            <Position>
              <LatitudeDegrees>41.938237287104129791259765625</LatitudeDegrees>
              <LongitudeDegrees>2.83929719589650630950927734375</LongitudeDegrees>
            </Position>
            <AltitudeMeters>104.1999969482421875</AltitudeMeters>
            <DistanceMeters>9412.4640012092</DistanceMeters>
          </Trackpoint>
          <Trackpoint>
            <Time>2020-02-15T08:48:55.000Z</Time>
            <Position>
              <LatitudeDegrees>41.93822077475488185882568359375</LatitudeDegrees>
              <LongitudeDegrees>2.83932636491954326629638671875</LongitudeDegrees>
            </Position>
            <AltitudeMeters>104.1999969482421875</AltitudeMeters>
            <DistanceMeters>9415.4989110881</DistanceMeters>
          </Trackpoint>
          <Trackpoint>
            <Time>2020-02-15T08:59:58.000Z</Time>
            <Position>
              <LatitudeDegrees>41.93811960518360137939453125</LatitudeDegrees>
              <LongitudeDegrees>2.839425690472126007080078125</LongitudeDegrees>
            </Position>
            <AltitudeMeters>103</AltitudeMeters>
            <DistanceMeters>9429.4422803308</DistanceMeters>
          </Trackpoint>
          <Trackpoint>
            <Time>2020-02-15T08:59:59.000Z</Time>
            <Position>
              <LatitudeDegrees>41.93811960518360137939453125</LatitudeDegrees>
              <LongitudeDegrees>2.83942577429115772247314453125</LongitudeDegrees>
            </Position>
            <AltitudeMeters>103</AltitudeMeters>
            <DistanceMeters>9429.4422803308</DistanceMeters>
          </Trackpoint>
          <Trackpoint>
            <Time>2020-02-15T09:00:03.000Z</Time>
            <Position>
              <LatitudeDegrees>41.93811960518360137939453125</LatitudeDegrees>
              <LongitudeDegrees>2.839426696300506591796875</LongitudeDegrees>
            </Position>
            <AltitudeMeters>103</AltitudeMeters>
            <DistanceMeters>9429.4422803308</DistanceMeters>
          </Trackpoint>
          <Trackpoint>
            <Time>2020-02-15T09:00:09.000Z</Time>
            <Position>
              <LatitudeDegrees>41.9381197728216648101806640625</LatitudeDegrees>
              <LongitudeDegrees>2.8394261933863162994384765625</LongitudeDegrees>
            </Position>
            <AltitudeMeters>103</AltitudeMeters>
            <DistanceMeters>9429.4422803308</DistanceMeters>
          </Trackpoint>
          <Trackpoint>
            <Time>2020-02-15T09:00:14.000Z</Time>
            <Position>
              <LatitudeDegrees>41.93811692297458648681640625</LatitudeDegrees>
              <LongitudeDegrees>2.83943809568881988525390625</LongitudeDegrees>
            </Position>
            <AltitudeMeters>103.1999969482421875</AltitudeMeters>
            <DistanceMeters>9430.4788994011</DistanceMeters>
          </Trackpoint>
          <Trackpoint>
            <Time>2020-02-15T09:00:15.000Z</Time>
            <Position>
              <LatitudeDegrees>41.93811315111815929412841796875</LatitudeDegrees>
              <LongitudeDegrees>2.83944807015359401702880859375</LongitudeDegrees>
            </Position>
            <AltitudeMeters>103.40000152587890625</AltitudeMeters>
            <DistanceMeters>9431.4002175794</DistanceMeters>
          </Trackpoint>
          <Trackpoint>
            <Time>2020-02-15T09:00:16.000Z</Time>
            <Position>
              <LatitudeDegrees>41.93810929544270038604736328125</LatitudeDegrees>
              <LongitudeDegrees>2.8394603915512561798095703125</LongitudeDegrees>
            </Position>
            <AltitudeMeters>103.1999969482421875</AltitudeMeters>
            <DistanceMeters>9432.5002313264</DistanceMeters>
          </Trackpoint>
          <Trackpoint>
            <Time>2020-02-15T09:00:17.000Z</Time>
            <Position>
              <LatitudeDegrees>41.9381036795675754547119140625</LatitudeDegrees>
              <LongitudeDegrees>2.839479334652423858642578125</LongitudeDegrees>
            </Position>
            <AltitudeMeters>103.1999969482421875</AltitudeMeters>
            <DistanceMeters>9434.1841089951</DistanceMeters>
          </Trackpoint>
          <Trackpoint>
            <Time>2020-02-15T09:00:18.000Z</Time>
            <Position>
              <LatitudeDegrees>41.938094459474086761474609375</LatitudeDegrees>
              <LongitudeDegrees>2.83949970267713069915771484375</LongitudeDegrees>
            </Position>
            <AltitudeMeters>103.1999969482421875</AltitudeMeters>
            <DistanceMeters>9436.1592021635</DistanceMeters>
          </Trackpoint>
          <Trackpoint>
            <Time>2020-02-15T09:00:21.000Z</Time>
            <Position>
              <LatitudeDegrees>41.93806772120296955108642578125</LatitudeDegrees>
              <LongitudeDegrees>2.83956876955926418304443359375</LongitudeDegrees>
            </Position>
            <AltitudeMeters>103.1999969482421875</AltitudeMeters>
            <DistanceMeters>9442.6056284444</DistanceMeters>
          </Trackpoint>
          <Trackpoint>
            <Time>2020-02-15T09:00:22.000Z</Time>
            <Position>
              <LatitudeDegrees>41.93807375617325305938720703125</LatitudeDegrees>
              <LongitudeDegrees>2.8395938314497470855712890625</LongitudeDegrees>
            </Position>
            <AltitudeMeters>103.1999969482421875</AltitudeMeters>
            <DistanceMeters>9444.7871073661</DistanceMeters>
          </Trackpoint>
          <Trackpoint>
            <Time>2020-02-15T09:00:23.000Z</Time>
            <Position>
              <LatitudeDegrees>41.93808666430413722991943359375</LatitudeDegrees>
              <LongitudeDegrees>2.83961436711251735687255859375</LongitudeDegrees>
            </Position>
            <AltitudeMeters>103.1999969482421875</AltitudeMeters>
            <DistanceMeters>9447.0136544615</DistanceMeters>
          </Trackpoint>
          <Trackpoint>
            <Time>2020-02-15T09:00:24.000Z</Time>
            <Position>
              <LatitudeDegrees>41.9381026737391948699951171875</LatitudeDegrees>
              <LongitudeDegrees>2.83963180147111415863037109375</LongitudeDegrees>
            </Position>
            <AltitudeMeters>103.1999969482421875</AltitudeMeters>
            <DistanceMeters>9449.3081118193</DistanceMeters>
          </Trackpoint>
          <Trackpoint>
            <Time>2020-02-15T09:00:25.000Z</Time>
            <Position>
              <LatitudeDegrees>41.93811968900263309478759765625</LatitudeDegrees>
              <LongitudeDegrees>2.83964638598263263702392578125</LongitudeDegrees>
            </Position>
            <AltitudeMeters>103.40000152587890625</AltitudeMeters>
            <DistanceMeters>9451.5528351109</DistanceMeters>
          </Trackpoint>
          <Trackpoint>
            <Time>2020-02-15T09:00:26.000Z</Time>
            <Position>
              <LatitudeDegrees>41.938137374818325042724609375</LatitudeDegrees>
              <LongitudeDegrees>2.839658372104167938232421875</LongitudeDegrees>
            </Position>
            <AltitudeMeters>103.1999969482421875</AltitudeMeters>
            <DistanceMeters>9453.7569633119</DistanceMeters>
          </Trackpoint>
          <Trackpoint>
            <Time>2020-02-15T09:00:27.000Z</Time>
            <Position>
              <LatitudeDegrees>41.938156820833683013916015625</LatitudeDegrees>
              <LongitudeDegrees>2.83966935239732265472412109375</LongitudeDegrees>
            </Position>
            <AltitudeMeters>103.1999969482421875</AltitudeMeters>
            <DistanceMeters>9456.1000993468</DistanceMeters>
          </Trackpoint>
          <Trackpoint>
            <Time>2020-02-15T09:00:29.000Z</Time>
            <Position>
              <LatitudeDegrees>41.9381985627114772796630859375</LatitudeDegrees>
              <LongitudeDegrees>2.8396989405155181884765625</LongitudeDegrees>
            </Position>
            <AltitudeMeters>103.1999969482421875</AltitudeMeters>
            <DistanceMeters>9461.3532806318</DistanceMeters>
          </Trackpoint>
          <Trackpoint>
            <Time>2020-02-15T09:00:31.000Z</Time>
            <Position>
              <LatitudeDegrees>41.9382307492196559906005859375</LatitudeDegrees>
              <LongitudeDegrees>2.83974763937294483184814453125</LongitudeDegrees>
            </Position>
            <AltitudeMeters>103.1999969482421875</AltitudeMeters>
            <DistanceMeters>9466.7472500702</DistanceMeters>
          </Trackpoint>
          <Trackpoint>
            <Time>2020-02-15T09:00:34.000Z</Time>
            <Position>
              <LatitudeDegrees>41.93827257491648197174072265625</LatitudeDegrees>
              <LongitudeDegrees>2.83983464352786540985107421875</LongitudeDegrees>
            </Position>
            <AltitudeMeters>103</AltitudeMeters>
            <DistanceMeters>9475.3239045877</DistanceMeters>
          </Trackpoint>
          <Trackpoint>
            <Time>2020-02-15T09:00:35.000Z</Time>
            <Position>
              <LatitudeDegrees>41.9382785260677337646484375</LatitudeDegrees>
              <LongitudeDegrees>2.83986548893153667449951171875</LongitudeDegrees>
            </Position>
            <AltitudeMeters>103</AltitudeMeters>
            <DistanceMeters>9477.9607888972</DistanceMeters>
          </Trackpoint>
          <Trackpoint>
            <Time>2020-02-15T09:00:36.000Z</Time>
            <Position>
              <LatitudeDegrees>41.93828045390546321868896484375</LatitudeDegrees>
              <LongitudeDegrees>2.83989683724939823150634765625</LongitudeDegrees>
            </Position>
            <AltitudeMeters>103</AltitudeMeters>
            <DistanceMeters>9480.5632026485</DistanceMeters>
          </Trackpoint>
          <Trackpoint>
            <Time>2020-02-15T09:00:38.000Z</Time>
            <Position>
              <LatitudeDegrees>41.93828447721898555755615234375</LatitudeDegrees>
              <LongitudeDegrees>2.839964143931865692138671875</LongitudeDegrees>
            </Position>
            <AltitudeMeters>103</AltitudeMeters>
            <DistanceMeters>9486.1544569487</DistanceMeters>
          </Trackpoint>
          <Trackpoint>
            <Time>2020-02-15T09:00:39.000Z</Time>
            <Position>
              <LatitudeDegrees>41.93828514777123928070068359375</LatitudeDegrees>
              <LongitudeDegrees>2.83999775536358356475830078125</LongitudeDegrees>
            </Position>
            <AltitudeMeters>103</AltitudeMeters>
            <DistanceMeters>9488.9411872445</DistanceMeters>
          </Trackpoint>
          <Trackpoint>
            <Time>2020-02-15T09:00:40.000Z</Time>
            <Position>
              <LatitudeDegrees>41.9382830522954463958740234375</LatitudeDegrees>
              <LongitudeDegrees>2.84003044478595256805419921875</LongitudeDegrees>
            </Position>
            <AltitudeMeters>102.8000030517578125</AltitudeMeters>
            <DistanceMeters>9491.6590177269</DistanceMeters>
          </Trackpoint>
          <Trackpoint>
            <Time>2020-02-15T09:00:41.000Z</Time>
            <Position>
              <LatitudeDegrees>41.938282884657382965087890625</LatitudeDegrees>
              <LongitudeDegrees>2.8400635533034801483154296875</LongitudeDegrees>
            </Position>
            <AltitudeMeters>102.8000030517578125</AltitudeMeters>
            <DistanceMeters>9494.4000072565</DistanceMeters>
          </Trackpoint>
          <Trackpoint>
            <Time>2020-02-15T09:00:42.000Z</Time>
            <Position>
              <LatitudeDegrees>41.93828380666673183441162109375</LatitudeDegrees>
              <LongitudeDegrees>2.84009817056357860565185546875</LongitudeDegrees>
            </Position>
            <AltitudeMeters>102.8000030517578125</AltitudeMeters>
            <DistanceMeters>9497.2666027222</DistanceMeters>
          </Trackpoint>
          <Trackpoint>
            <Time>2020-02-15T09:00:43.000Z</Time>
            <Position>
              <LatitudeDegrees>41.93828414194285869598388671875</LatitudeDegrees>
              <LongitudeDegrees>2.84013438038527965545654296875</LongitudeDegrees>
            </Position>
            <AltitudeMeters>102.8000030517578125</AltitudeMeters>
            <DistanceMeters>9500.2640893464</DistanceMeters>
          </Trackpoint>
          <Trackpoint>
            <Time>2020-02-15T09:00:44.000Z</Time>
            <Position>
              <LatitudeDegrees>41.938285566866397857666015625</LatitudeDegrees>
              <LongitudeDegrees>2.8401728533208370208740234375</LongitudeDegrees>
            </Position>
            <AltitudeMeters>102.8000030517578125</AltitudeMeters>
            <DistanceMeters>9503.4527985015</DistanceMeters>
          </Trackpoint>
          <Trackpoint>
            <Time>2020-02-15T09:00:45.000Z</Time>
            <Position>
              <LatitudeDegrees>41.93828933872282505035400390625</LatitudeDegrees>
              <LongitudeDegrees>2.8402117453515529632568359375</LongitudeDegrees>
            </Position>
            <AltitudeMeters>102.8000030517578125</AltitudeMeters>
            <DistanceMeters>9506.7004329154</DistanceMeters>
          </Trackpoint>
          <Trackpoint>
            <Time>2020-02-15T09:00:50.000Z</Time>
            <Position>
              <LatitudeDegrees>41.93829721771180629730224609375</LatitudeDegrees>
              <LongitudeDegrees>2.84043109975755214691162109375</LongitudeDegrees>
            </Position>
            <AltitudeMeters>102.8000030517578125</AltitudeMeters>
            <DistanceMeters>9524.8830938528</DistanceMeters>
          </Trackpoint>
          <Trackpoint>
            <Time>2020-02-15T09:00:51.000Z</Time>
            <Position>
              <LatitudeDegrees>41.9382978044450283050537109375</LatitudeDegrees>
              <LongitudeDegrees>2.8404756076633930206298828125</LongitudeDegrees>
            </Position>
            <AltitudeMeters>102.8000030517578125</AltitudeMeters>
            <DistanceMeters>9528.5695915198</DistanceMeters>
          </Trackpoint>
          <Trackpoint>
            <Time>2020-02-15T09:00:52.000Z</Time>
            <Position>
              <LatitudeDegrees>41.938298642635345458984375</LatitudeDegrees>
              <LongitudeDegrees>2.840521372854709625244140625</LongitudeDegrees>
            </Position>
            <AltitudeMeters>102.8000030517578125</AltitudeMeters>
            <DistanceMeters>9532.3599545132</DistanceMeters>
          </Trackpoint>
          <Trackpoint>
            <Time>2020-02-15T09:00:54.000Z</Time>
            <Position>
              <LatitudeDegrees>41.93829654715955257415771484375</LatitudeDegrees>
              <LongitudeDegrees>2.840611897408962249755859375</LongitudeDegrees>
            </Position>
            <AltitudeMeters>102.8000030517578125</AltitudeMeters>
            <DistanceMeters>9539.8580379977</DistanceMeters>
          </Trackpoint>
          <Trackpoint>
            <Time>2020-02-15T09:00:55.000Z</Time>
            <Position>
              <LatitudeDegrees>41.9382994808256626129150390625</LatitudeDegrees>
              <LongitudeDegrees>2.840652801096439361572265625</LongitudeDegrees>
            </Position>
            <AltitudeMeters>102.8000030517578125</AltitudeMeters>
            <DistanceMeters>9543.2604721266</DistanceMeters>
          </Trackpoint>
          <Trackpoint>
            <Time>2020-02-15T09:00:56.000Z</Time>
            <Position>
              <LatitudeDegrees>41.93830274976789951324462890625</LatitudeDegrees>
              <LongitudeDegrees>2.840692363679409027099609375</LongitudeDegrees>
            </Position>
            <AltitudeMeters>103</AltitudeMeters>
            <DistanceMeters>9546.5577758794</DistanceMeters>
          </Trackpoint>
          <Trackpoint>
            <Time>2020-02-15T09:00:57.000Z</Time>
            <Position>
              <LatitudeDegrees>41.93830593489110469818115234375</LatitudeDegrees>
              <LongitudeDegrees>2.84072815440595149993896484375</LongitudeDegrees>
            </Position>
            <AltitudeMeters>102.8000030517578125</AltitudeMeters>
            <DistanceMeters>9549.5416752366</DistanceMeters>
          </Trackpoint>
          <Trackpoint>
            <Time>2020-02-15T09:00:58.000Z</Time>
            <Position>
              <LatitudeDegrees>41.93830928765237331390380859375</LatitudeDegrees>
              <LongitudeDegrees>2.84076578915119171142578125</LongitudeDegrees>
            </Position>
            <AltitudeMeters>103</AltitudeMeters>
            <DistanceMeters>9552.6804350873</DistanceMeters>
          </Trackpoint>
          <Trackpoint>
            <Time>2020-02-15T09:00:59.000Z</Time>
            <Position>
              <LatitudeDegrees>41.938311718404293060302734375</LatitudeDegrees>
              <LongitudeDegrees>2.8408014960587024688720703125</LongitudeDegrees>
            </Position>
            <AltitudeMeters>103</AltitudeMeters>
            <DistanceMeters>9555.6491645477</DistanceMeters>
          </Trackpoint>
          <Trackpoint>
            <Time>2020-02-15T09:01:00.000Z</Time>
            <Position>
              <LatitudeDegrees>41.93831347860395908355712890625</LatitudeDegrees>
              <LongitudeDegrees>2.840833179652690887451171875</LongitudeDegrees>
            </Position>
            <AltitudeMeters>103</AltitudeMeters>
            <DistanceMeters>9558.2809070565</DistanceMeters>
          </Trackpoint>
          <Trackpoint>
            <Time>2020-02-15T09:01:01.000Z</Time>
            <Position>
              <LatitudeDegrees>41.938318423926830291748046875</LatitudeDegrees>
              <LongitudeDegrees>2.84086494706571102142333984375</LongitudeDegrees>
            </Position>
            <AltitudeMeters>103</AltitudeMeters>
            <DistanceMeters>9560.9669880454</DistanceMeters>
          </Trackpoint>
          <Trackpoint>
            <Time>2020-02-15T09:01:02.000Z</Time>
            <Position>
              <LatitudeDegrees>41.938320100307464599609375</LatitudeDegrees>
              <LongitudeDegrees>2.84089160151779651641845703125</LongitudeDegrees>
            </Position>
            <AltitudeMeters>103</AltitudeMeters>
            <DistanceMeters>9563.1833728462</DistanceMeters>
          </Trackpoint>
          <Trackpoint>
            <Time>2020-02-15T09:01:03.000Z</Time>
            <Position>
              <LatitudeDegrees>41.9383219443261623382568359375</LatitudeDegrees>
              <LongitudeDegrees>2.84091733396053314208984375</LongitudeDegrees>
            </Position>
            <AltitudeMeters>103</AltitudeMeters>
            <DistanceMeters>9565.3209459282</DistanceMeters>
          </Trackpoint>
          <Trackpoint>
            <Time>2020-02-15T09:01:04.000Z</Time>
            <Position>
              <LatitudeDegrees>41.9383222796022891998291015625</LatitudeDegrees>
              <LongitudeDegrees>2.8409413062036037445068359375</LongitudeDegrees>
            </Position>
            <AltitudeMeters>103</AltitudeMeters>
            <DistanceMeters>9567.3028851939</DistanceMeters>
          </Trackpoint>
          <Trackpoint>
            <Time>2020-02-15T09:01:05.000Z</Time>
            <Position>
              <LatitudeDegrees>41.938323117792606353759765625</LatitudeDegrees>
              <LongitudeDegrees>2.84096217714250087738037109375</LongitudeDegrees>
            </Position>
            <AltitudeMeters>103.1999969482421875</AltitudeMeters>
            <DistanceMeters>9569.0343543329</DistanceMeters>
          </Trackpoint>
          <Trackpoint>
            <Time>2020-02-15T09:01:06.000Z</Time>
            <Position>
              <LatitudeDegrees>41.93832504563033580780029296875</LatitudeDegrees>
              <LongitudeDegrees>2.84098346717655658721923828125</LongitudeDegrees>
            </Position>
            <AltitudeMeters>103</AltitudeMeters>
            <DistanceMeters>9570.8121413718</DistanceMeters>
          </Trackpoint>
          <Trackpoint>
            <Time>2020-02-15T09:01:07.000Z</Time>
            <Position>
              <LatitudeDegrees>41.9383293204009532928466796875</LatitudeDegrees>
              <LongitudeDegrees>2.84100509248673915863037109375</LongitudeDegrees>
            </Position>
            <AltitudeMeters>103</AltitudeMeters>
            <DistanceMeters>9572.6645530562</DistanceMeters>
          </Trackpoint>
          <Trackpoint>
            <Time>2020-02-15T09:01:08.000Z</Time>
            <Position>
              <LatitudeDegrees>41.93833678029477596282958984375</LatitudeDegrees>
              <LongitudeDegrees>2.84102596342563629150390625</LongitudeDegrees>
            </Position>
            <AltitudeMeters>103</AltitudeMeters>
            <DistanceMeters>9574.5792882954</DistanceMeters>
          </Trackpoint>
          <Trackpoint>
            <Time>2020-02-15T09:01:09.000Z</Time>
            <Position>
              <LatitudeDegrees>41.93834113888442516326904296875</LatitudeDegrees>
              <LongitudeDegrees>2.841043062508106231689453125</LongitudeDegrees>
            </Position>
            <AltitudeMeters>103</AltitudeMeters>
            <DistanceMeters>9576.0757704898</DistanceMeters>
          </Trackpoint>
          <Trackpoint>
            <Time>2020-02-15T09:01:10.000Z</Time>
            <Position>
              <LatitudeDegrees>41.9383454136550426483154296875</LatitudeDegrees>
              <LongitudeDegrees>2.841055132448673248291015625</LongitudeDegrees>
            </Position>
            <AltitudeMeters>103</AltitudeMeters>
            <DistanceMeters>9577.1839628902</DistanceMeters>
          </Trackpoint>
          <Trackpoint>
            <Time>2020-02-15T09:01:11.000Z</Time>
            <Position>
              <LatitudeDegrees>41.93834935314953327178955078125</LatitudeDegrees>
              <LongitudeDegrees>2.8410586528480052947998046875</LongitudeDegrees>
            </Position>
            <AltitudeMeters>103</AltitudeMeters>
            <DistanceMeters>9577.7044456405</DistanceMeters>
          </Trackpoint>
          <Trackpoint>
            <Time>2020-02-15T09:01:14.000Z</Time>
            <Position>
              <LatitudeDegrees>41.938355974853038787841796875</LatitudeDegrees>
              <LongitudeDegrees>2.8410603292286396026611328125</LongitudeDegrees>
            </Position>
            <AltitudeMeters>103</AltitudeMeters>
            <DistanceMeters>9578.4586968029</DistanceMeters>
          </Trackpoint>
          <Trackpoint>
            <Time>2020-02-15T09:01:25.000Z</Time>
            <Position>
              <LatitudeDegrees>41.9383551366627216339111328125</LatitudeDegrees>
              <LongitudeDegrees>2.84106225706636905670166015625</LongitudeDegrees>
            </Position>
            <AltitudeMeters>102.8000030517578125</AltitudeMeters>
            <DistanceMeters>9578.6487502316</DistanceMeters>
          </Trackpoint>
          <Trackpoint>
            <Time>2020-02-15T09:01:32.000Z</Time>
            <Position>
              <LatitudeDegrees>41.93835563957691192626953125</LatitudeDegrees>
              <LongitudeDegrees>2.84106208942830562591552734375</LongitudeDegrees>
            </Position>
            <AltitudeMeters>102.40000152587890625</AltitudeMeters>
            <DistanceMeters>9578.6487502316</DistanceMeters>
          </Trackpoint>
          <Trackpoint>
            <Time>2020-02-15T09:01:39.000Z</Time>
            <Position>
              <LatitudeDegrees>41.93835605867207050323486328125</LatitudeDegrees>
              <LongitudeDegrees>2.84106275998055934906005859375</LongitudeDegrees>
            </Position>
            <AltitudeMeters>102.59999847412109375</AltitudeMeters>
            <DistanceMeters>9578.7831382999</DistanceMeters>
          </Trackpoint>
          <Trackpoint>
            <Time>2020-02-15T09:01:50.000Z</Time>
            <Position>
              <LatitudeDegrees>41.938353963196277618408203125</LatitudeDegrees>
              <LongitudeDegrees>2.84107424318790435791015625</LongitudeDegrees>
            </Position>
            <AltitudeMeters>102.40000152587890625</AltitudeMeters>
            <DistanceMeters>9579.7614982045</DistanceMeters>
          </Trackpoint>
          <Trackpoint>
            <Time>2020-02-15T09:01:51.000Z</Time>
            <Position>
              <LatitudeDegrees>41.9383494369685649871826171875</LatitudeDegrees>
              <LongitudeDegrees>2.8410905040800571441650390625</LongitudeDegrees>
            </Position>
            <AltitudeMeters>102.40000152587890625</AltitudeMeters>
            <DistanceMeters>9581.2026496824</DistanceMeters>
          </Trackpoint>
          <Trackpoint>
            <Time>2020-02-15T09:01:52.000Z</Time>
            <Position>
              <LatitudeDegrees>41.9383494369685649871826171875</LatitudeDegrees>
              <LongitudeDegrees>2.84110886044800281524658203125</LongitudeDegrees>
            </Position>
            <AltitudeMeters>102.40000152587890625</AltitudeMeters>
            <DistanceMeters>9582.7230771123</DistanceMeters>
          </Trackpoint>
          <Trackpoint>
            <Time>2020-02-15T09:01:53.000Z</Time>
            <Position>
              <LatitudeDegrees>41.9383521191775798797607421875</LatitudeDegrees>
              <LongitudeDegrees>2.84112830646336078643798828125</LongitudeDegrees>
            </Position>
            <AltitudeMeters>102.40000152587890625</AltitudeMeters>
            <DistanceMeters>9584.3607378537</DistanceMeters>
          </Trackpoint>
          <Trackpoint>
            <Time>2020-02-15T09:01:54.000Z</Time>
            <Position>
              <LatitudeDegrees>41.93836075253784656524658203125</LatitudeDegrees>
              <LongitudeDegrees>2.84115144051611423492431640625</LongitudeDegrees>
            </Position>
            <AltitudeMeters>102.40000152587890625</AltitudeMeters>
            <DistanceMeters>9586.5025312222</DistanceMeters>
          </Trackpoint>
          <Trackpoint>
            <Time>2020-02-15T09:01:55.000Z</Time>
            <Position>
              <LatitudeDegrees>41.93837567232549190521240234375</LatitudeDegrees>
              <LongitudeDegrees>2.84117273055016994476318359375</LongitudeDegrees>
            </Position>
            <AltitudeMeters>102.40000152587890625</AltitudeMeters>
            <DistanceMeters>9588.9252465766</DistanceMeters>
          </Trackpoint>
          <Trackpoint>
            <Time>2020-02-15T09:01:56.000Z</Time>
            <Position>
              <LatitudeDegrees>41.9383930228650569915771484375</LatitudeDegrees>
              <LongitudeDegrees>2.84118563868105411529541015625</LongitudeDegrees>
            </Position>
            <AltitudeMeters>102.40000152587890625</AltitudeMeters>
            <DistanceMeters>9591.1334678698</DistanceMeters>
          </Trackpoint>
          <Trackpoint>
            <Time>2020-02-15T09:01:57.000Z</Time>
            <Position>
              <LatitudeDegrees>41.938416324555873870849609375</LatitudeDegrees>
              <LongitudeDegrees>2.8411900810897350311279296875</LongitudeDegrees>
            </Position>
            <AltitudeMeters>102.40000152587890625</AltitudeMeters>
            <DistanceMeters>9593.7531735971</DistanceMeters>
          </Trackpoint>
          <Trackpoint>
            <Time>2020-02-15T09:01:58.000Z</Time>
            <Position>
              <LatitudeDegrees>41.938446499407291412353515625</LatitudeDegrees>
              <LongitudeDegrees>2.84118597395718097686767578125</LongitudeDegrees>
            </Position>
            <AltitudeMeters>102.40000152587890625</AltitudeMeters>
            <DistanceMeters>9597.1289633524</DistanceMeters>
          </Trackpoint>
          <Trackpoint>
            <Time>2020-02-15T09:01:59.000Z</Time>
            <Position>
              <LatitudeDegrees>41.93848011083900928497314453125</LatitudeDegrees>
              <LongitudeDegrees>2.84117926843464374542236328125</LongitudeDegrees>
            </Position>
            <AltitudeMeters>102.40000152587890625</AltitudeMeters>
            <DistanceMeters>9600.9109788319</DistanceMeters>
          </Trackpoint>
          <Trackpoint>
            <Time>2020-02-15T09:02:01.000Z</Time>
            <Position>
              <LatitudeDegrees>41.93854297511279582977294921875</LatitudeDegrees>
              <LongitudeDegrees>2.84115680493414402008056640625</LongitudeDegrees>
            </Position>
            <AltitudeMeters>102.59999847412109375</AltitudeMeters>
            <DistanceMeters>9608.1511165211</DistanceMeters>
          </Trackpoint>
          <Trackpoint>
            <Time>2020-02-15T09:02:03.000Z</Time>
            <Position>
              <LatitudeDegrees>41.93859326653182506561279296875</LatitudeDegrees>
              <LongitudeDegrees>2.841142304241657257080078125</LongitudeDegrees>
            </Position>
            <AltitudeMeters>102.40000152587890625</AltitudeMeters>
            <DistanceMeters>9613.8748493362</DistanceMeters>
          </Trackpoint>
          <Trackpoint>
            <Time>2020-02-15T09:02:04.000Z</Time>
            <Position>
              <LatitudeDegrees>41.93861857987940311431884765625</LatitudeDegrees>
              <LongitudeDegrees>2.8411352634429931640625</LongitudeDegrees>
            </Position>
            <AltitudeMeters>102.40000152587890625</AltitudeMeters>
            <DistanceMeters>9616.7540176493</DistanceMeters>
          </Trackpoint>
          <Trackpoint>
            <Time>2020-02-15T09:02:05.000Z</Time>
            <Position>
              <LatitudeDegrees>41.93864489905536174774169921875</LatitudeDegrees>
              <LongitudeDegrees>2.84112646244466304779052734375</LongitudeDegrees>
            </Position>
            <AltitudeMeters>102.59999847412109375</AltitudeMeters>
            <DistanceMeters>9619.772518458</DistanceMeters>
          </Trackpoint>
          <Trackpoint>
            <Time>2020-02-15T09:02:09.000Z</Time>
            <Position>
              <LatitudeDegrees>41.93876040168106555938720703125</LatitudeDegrees>
              <LongitudeDegrees>2.841078601777553558349609375</LongitudeDegrees>
            </Position>
            <AltitudeMeters>102.59999847412109375</AltitudeMeters>
            <DistanceMeters>9633.2250930076</DistanceMeters>
          </Trackpoint>
          <Trackpoint>
            <Time>2020-02-15T09:02:10.000Z</Time>
            <Position>
              <LatitudeDegrees>41.93878672085702419281005859375</LatitudeDegrees>
              <LongitudeDegrees>2.84106376580893993377685546875</LongitudeDegrees>
            </Position>
            <AltitudeMeters>102.59999847412109375</AltitudeMeters>
            <DistanceMeters>9636.3996111303</DistanceMeters>
          </Trackpoint>
          <Trackpoint>
            <Time>2020-02-15T09:02:11.000Z</Time>
            <Position>
              <LatitudeDegrees>41.9388158060610294342041015625</LatitudeDegrees>
              <LongitudeDegrees>2.8410519473254680633544921875</LongitudeDegrees>
            </Position>
            <AltitudeMeters>102.40000152587890625</AltitudeMeters>
            <DistanceMeters>9639.7807465577</DistanceMeters>
          </Trackpoint>
          <Trackpoint>
            <Time>2020-02-15T09:02:12.000Z</Time>
            <Position>
              <LatitudeDegrees>41.93884589709341526031494140625</LatitudeDegrees>
              <LongitudeDegrees>2.8410418890416622161865234375</LongitudeDegrees>
            </Position>
            <AltitudeMeters>102.59999847412109375</AltitudeMeters>
            <DistanceMeters>9643.2306220269</DistanceMeters>
          </Trackpoint>
          <Trackpoint>
            <Time>2020-02-15T09:02:15.000Z</Time>
            <Position>
              <LatitudeDegrees>41.9389348290860652923583984375</LatitudeDegrees>
              <LongitudeDegrees>2.8410123847424983978271484375</LongitudeDegrees>
            </Position>
            <AltitudeMeters>102.59999847412109375</AltitudeMeters>
            <DistanceMeters>9653.4255315346</DistanceMeters>
          </Trackpoint>
          <Trackpoint>
            <Time>2020-02-15T09:02:16.000Z</Time>
            <Position>
              <LatitudeDegrees>41.9389633275568485260009765625</LatitudeDegrees>
              <LongitudeDegrees>2.84100140444934368133544921875</LongitudeDegrees>
            </Position>
            <AltitudeMeters>102.59999847412109375</AltitudeMeters>
            <DistanceMeters>9656.7242043154</DistanceMeters>
          </Trackpoint>
          <Trackpoint>
            <Time>2020-02-15T09:02:17.000Z</Time>
            <Position>
              <LatitudeDegrees>41.938990652561187744140625</LatitudeDegrees>
              <LongitudeDegrees>2.840990088880062103271484375</LongitudeDegrees>
            </Position>
            <AltitudeMeters>102.59999847412109375</AltitudeMeters>
            <DistanceMeters>9659.9058258664</DistanceMeters>
          </Trackpoint>
          <Trackpoint>
            <Time>2020-02-15T09:02:18.000Z</Time>
            <Position>
              <LatitudeDegrees>41.9390186481177806854248046875</LatitudeDegrees>
              <LongitudeDegrees>2.84097977913916110992431640625</LongitudeDegrees>
            </Position>
            <AltitudeMeters>102.59999847412109375</AltitudeMeters>
            <DistanceMeters>9663.1381313046</DistanceMeters>
          </Trackpoint>
          <Trackpoint>
            <Time>2020-02-15T09:02:19.000Z</Time>
            <Position>
              <LatitudeDegrees>41.93904672749340534210205078125</LatitudeDegrees>
              <LongitudeDegrees>2.8409691341221332550048828125</LongitudeDegrees>
            </Position>
            <AltitudeMeters>102.59999847412109375</AltitudeMeters>
            <DistanceMeters>9666.3857657185</DistanceMeters>
          </Trackpoint>
          <Trackpoint>
            <Time>2020-02-15T09:02:20.000Z</Time>
            <Position>
              <LatitudeDegrees>41.9390756450593471527099609375</LatitudeDegrees>
              <LongitudeDegrees>2.8409594111144542694091796875</LongitudeDegrees>
            </Position>
            <AltitudeMeters>102.40000152587890625</AltitudeMeters>
            <DistanceMeters>9669.7049061587</DistanceMeters>
          </Trackpoint>
          <Trackpoint>
            <Time>2020-02-15T09:02:24.000Z</Time>
            <Position>
              <LatitudeDegrees>41.939195506274700164794921875</LatitudeDegrees>
              <LongitudeDegrees>2.84091993235051631927490234375</LongitudeDegrees>
            </Position>
            <AltitudeMeters>102.40000152587890625</AltitudeMeters>
            <DistanceMeters>9683.4401293846</DistanceMeters>
          </Trackpoint>
          <Trackpoint>
            <Time>2020-02-15T09:02:25.000Z</Time>
            <Position>
              <LatitudeDegrees>41.93922459147870540618896484375</LatitudeDegrees>
              <LongitudeDegrees>2.8409107960760593414306640625</LongitudeDegrees>
            </Position>
            <AltitudeMeters>102.59999847412109375</AltitudeMeters>
            <DistanceMeters>9686.7660643876</DistanceMeters>
          </Trackpoint>
          <Trackpoint>
            <Time>2020-02-15T09:02:28.000Z</Time>
            <Position>
              <LatitudeDegrees>41.9393200613558292388916015625</LatitudeDegrees>
              <LongitudeDegrees>2.840880118310451507568359375</LongitudeDegrees>
            </Position>
            <AltitudeMeters>102.59999847412109375</AltitudeMeters>
            <DistanceMeters>9697.69124404</DistanceMeters>
          </Trackpoint>
          <Trackpoint>
            <Time>2020-02-15T09:02:29.000Z</Time>
            <Position>
              <LatitudeDegrees>41.939352415502071380615234375</LatitudeDegrees>
              <LongitudeDegrees>2.84087014384567737579345703125</LongitudeDegrees>
            </Position>
            <AltitudeMeters>102.59999847412109375</AltitudeMeters>
            <DistanceMeters>9701.3838603794</DistanceMeters>
          </Trackpoint>
          <Trackpoint>
            <Time>2020-02-15T09:02:30.000Z</Time>
            <Position>
              <LatitudeDegrees>41.939383931457996368408203125</LatitudeDegrees>
              <LongitudeDegrees>2.84085975028574466705322265625</LongitudeDegrees>
            </Position>
            <AltitudeMeters>102.59999847412109375</AltitudeMeters>
            <DistanceMeters>9704.9948755255</DistanceMeters>
          </Trackpoint>
          <Trackpoint>
            <Time>2020-02-15T09:02:31.000Z</Time>
            <Position>
              <LatitudeDegrees>41.93941519595682621002197265625</LatitudeDegrees>
              <LongitudeDegrees>2.84085002727806568145751953125</LongitudeDegrees>
            </Position>
            <AltitudeMeters>102.40000152587890625</AltitudeMeters>
            <DistanceMeters>9708.5669194803</DistanceMeters>
          </Trackpoint>
          <Trackpoint>
            <Time>2020-02-15T09:02:32.000Z</Time>
            <Position>
              <LatitudeDegrees>41.93944352678954601287841796875</LatitudeDegrees>
              <LongitudeDegrees>2.84084089100360870361328125</LongitudeDegrees>
            </Position>
            <AltitudeMeters>102.40000152587890625</AltitudeMeters>
            <DistanceMeters>9711.8089881071</DistanceMeters>
          </Trackpoint>
          <Trackpoint>
            <Time>2020-02-15T09:02:33.000Z</Time>
            <Position>
              <LatitudeDegrees>41.939471103250980377197265625</LatitudeDegrees>
              <LongitudeDegrees>2.840830497443675994873046875</LongitudeDegrees>
            </Position>
            <AltitudeMeters>102.59999847412109375</AltitudeMeters>
            <DistanceMeters>9714.9976972622</DistanceMeters>
          </Trackpoint>
          <Trackpoint>
            <Time>2020-02-15T09:02:34.000Z</Time>
            <Position>
              <LatitudeDegrees>41.93949599750339984893798828125</LatitudeDegrees>
              <LongitudeDegrees>2.8408206067979335784912109375</LongitudeDegrees>
            </Position>
            <AltitudeMeters>102.40000152587890625</AltitudeMeters>
            <DistanceMeters>9717.8878219499</DistanceMeters>
          </Trackpoint>
          <Trackpoint>
            <Time>2020-02-15T09:02:35.000Z</Time>
            <Position>
              <LatitudeDegrees>41.93952332250773906707763671875</LatitudeDegrees>
              <LongitudeDegrees>2.840811051428318023681640625</LongitudeDegrees>
            </Position>
            <AltitudeMeters>102.59999847412109375</AltitudeMeters>
            <DistanceMeters>9721.0308942733</DistanceMeters>
          </Trackpoint>
          <Trackpoint>
            <Time>2020-02-15T09:02:37.000Z</Time>
            <Position>
              <LatitudeDegrees>41.9395748712122440338134765625</LatitudeDegrees>
              <LongitudeDegrees>2.84079571254551410675048828125</LongitudeDegrees>
            </Position>
            <AltitudeMeters>102.59999847412109375</AltitudeMeters>
            <DistanceMeters>9726.9079719823</DistanceMeters>
          </Trackpoint>
          <Trackpoint>
            <Time>2020-02-15T09:02:38.000Z</Time>
            <Position>
              <LatitudeDegrees>41.93959674797952175140380859375</LatitudeDegrees>
              <LongitudeDegrees>2.8407905995845794677734375</LongitudeDegrees>
            </Position>
            <AltitudeMeters>102.59999847412109375</AltitudeMeters>
            <DistanceMeters>9729.3786665559</DistanceMeters>
          </Trackpoint>
          <Trackpoint>
            <Time>2020-02-15T09:02:39.000Z</Time>
            <Position>
              <LatitudeDegrees>41.93961401470005512237548828125</LatitudeDegrees>
              <LongitudeDegrees>2.84078498370945453643798828125</LongitudeDegrees>
            </Position>
            <AltitudeMeters>102.59999847412109375</AltitudeMeters>
            <DistanceMeters>9731.3560443904</DistanceMeters>
          </Trackpoint>
          <Trackpoint>
            <Time>2020-02-15T09:02:40.000Z</Time>
            <Position>
              <LatitudeDegrees>41.93962977267801761627197265625</LatitudeDegrees>
              <LongitudeDegrees>2.84078045748174190521240234375</LongitudeDegrees>
            </Position>
            <AltitudeMeters>102.59999847412109375</AltitudeMeters>
            <DistanceMeters>9733.1490048512</DistanceMeters>
          </Trackpoint>
          <Trackpoint>
            <Time>2020-02-15T09:02:41.000Z</Time>
            <Position>
              <LatitudeDegrees>41.93964569829404354095458984375</LatitudeDegrees>
              <LongitudeDegrees>2.84077743999660015106201171875</LongitudeDegrees>
            </Position>
            <AltitudeMeters>102.59999847412109375</AltitudeMeters>
            <DistanceMeters>9734.9369218127</DistanceMeters>
          </Trackpoint>
          <Trackpoint>
            <Time>2020-02-15T09:02:42.000Z</Time>
            <Position>
              <LatitudeDegrees>41.93966732360422611236572265625</LatitudeDegrees>
              <LongitudeDegrees>2.84077291376888751983642578125</LongitudeDegrees>
            </Position>
            <AltitudeMeters>102.59999847412109375</AltitudeMeters>
            <DistanceMeters>9737.3707932446</DistanceMeters>
          </Trackpoint>
          <Trackpoint>
            <Time>2020-02-15T09:02:45.000Z</Time>
            <Position>
              <LatitudeDegrees>41.9397411681711673736572265625</LatitudeDegrees>
              <LongitudeDegrees>2.8407691419124603271484375</LongitudeDegrees>
            </Position>
            <AltitudeMeters>102.59999847412109375</AltitudeMeters>
            <DistanceMeters>9745.5959578459</DistanceMeters>
          </Trackpoint>
          <Trackpoint>
            <Time>2020-02-15T09:02:46.000Z</Time>
            <Position>
              <LatitudeDegrees>41.93976111710071563720703125</LatitudeDegrees>
              <LongitudeDegrees>2.84077559597790241241455078125</LongitudeDegrees>
            </Position>
            <AltitudeMeters>102.8000030517578125</AltitudeMeters>
            <DistanceMeters>9747.8805550062</DistanceMeters>
          </Trackpoint>
          <Trackpoint>
            <Time>2020-02-15T09:02:47.000Z</Time>
            <Position>
              <LatitudeDegrees>41.93978634662926197052001953125</LatitudeDegrees>
              <LongitudeDegrees>2.84077391959726810455322265625</LongitudeDegrees>
            </Position>
            <AltitudeMeters>102.59999847412109375</AltitudeMeters>
            <DistanceMeters>9750.6914831248</DistanceMeters>
          </Trackpoint>
          <Trackpoint>
            <Time>2020-02-15T09:02:48.000Z</Time>
            <Position>
              <LatitudeDegrees>41.9398154318332672119140625</LatitudeDegrees>
              <LongitudeDegrees>2.84076939336955547332763671875</LongitudeDegrees>
            </Position>
            <AltitudeMeters>102.59999847412109375</AltitudeMeters>
            <DistanceMeters>9753.9502205948</DistanceMeters>
          </Trackpoint>
          <Trackpoint>
            <Time>2020-02-15T09:02:49.000Z</Time>
            <Position>
              <LatitudeDegrees>41.93984166719019412994384765625</LatitudeDegrees>
              <LongitudeDegrees>2.8407666273415088653564453125</LongitudeDegrees>
            </Position>
            <AltitudeMeters>102.59999847412109375</AltitudeMeters>
            <DistanceMeters>9756.8791406384</DistanceMeters>
          </Trackpoint>
          <Trackpoint>
            <Time>2020-02-15T09:02:50.000Z</Time>
            <Position>
              <LatitudeDegrees>41.93986698053777217864990234375</LatitudeDegrees>
              <LongitudeDegrees>2.840760760009288787841796875</LongitudeDegrees>
            </Position>
            <AltitudeMeters>102.59999847412109375</AltitudeMeters>
            <DistanceMeters>9759.7378499943</DistanceMeters>
          </Trackpoint>
          <Trackpoint>
            <Time>2020-02-15T09:02:51.000Z</Time>
            <Position>
              <LatitudeDegrees>41.93989179097115993499755859375</LatitudeDegrees>
              <LongitudeDegrees>2.8407602570950984954833984375</LongitudeDegrees>
            </Position>
            <AltitudeMeters>102.59999847412109375</AltitudeMeters>
            <DistanceMeters>9762.4985355104</DistanceMeters>
          </Trackpoint>
          <Trackpoint>
            <Time>2020-02-15T09:02:52.000Z</Time>
            <Position>
              <LatitudeDegrees>41.93991526030004024505615234375</LatitudeDegrees>
              <LongitudeDegrees>2.84077425487339496612548828125</LongitudeDegrees>
            </Position>
            <AltitudeMeters>102.59999847412109375</AltitudeMeters>
            <DistanceMeters>9765.3556650324</DistanceMeters>
          </Trackpoint>
          <Trackpoint>
            <Time>2020-02-15T09:02:53.000Z</Time>
            <Position>
              <LatitudeDegrees>41.93993277847766876220703125</LatitudeDegrees>
              <LongitudeDegrees>2.84080074168741703033447265625</LongitudeDegrees>
            </Position>
            <AltitudeMeters>102.59999847412109375</AltitudeMeters>
            <DistanceMeters>9768.2876665288</DistanceMeters>
          </Trackpoint>
          <Trackpoint>
            <Time>2020-02-15T09:02:54.000Z</Time>
            <Position>
              <LatitudeDegrees>41.9399441778659820556640625</LatitudeDegrees>
              <LongitudeDegrees>2.84083276055753231048583984375</LongitudeDegrees>
            </Position>
            <AltitudeMeters>102.8000030517578125</AltitudeMeters>
            <DistanceMeters>9771.2258212354</DistanceMeters>
          </Trackpoint>
          <Trackpoint>
            <Time>2020-02-15T09:02:55.000Z</Time>
            <Position>
              <LatitudeDegrees>41.9399540685117244720458984375</LatitudeDegrees>
              <LongitudeDegrees>2.84086595289409160614013671875</LongitudeDegrees>
            </Position>
            <AltitudeMeters>102.59999847412109375</AltitudeMeters>
            <DistanceMeters>9774.1854114352</DistanceMeters>
          </Trackpoint>
          <Trackpoint>
            <Time>2020-02-15T09:02:56.000Z</Time>
            <Position>
              <LatitudeDegrees>41.93995767273008823394775390625</LatitudeDegrees>
              <LongitudeDegrees>2.840900234878063201904296875</LongitudeDegrees>
            </Position>
            <AltitudeMeters>102.8000030517578125</AltitudeMeters>
            <DistanceMeters>9777.0520069009</DistanceMeters>
          </Trackpoint>
          <Trackpoint>
            <Time>2020-02-15T09:02:57.000Z</Time>
            <Position>
              <LatitudeDegrees>41.93995918147265911102294921875</LatitudeDegrees>
              <LongitudeDegrees>2.8409332595765590667724609375</LongitudeDegrees>
            </Position>
            <AltitudeMeters>102.8000030517578125</AltitudeMeters>
            <DistanceMeters>9779.7929964305</DistanceMeters>
          </Trackpoint>
          <Trackpoint>
            <Time>2020-02-15T09:02:58.000Z</Time>
            <Position>
              <LatitudeDegrees>41.93996421061456203460693359375</LatitudeDegrees>
              <LongitudeDegrees>2.8409620933234691619873046875</LongitudeDegrees>
            </Position>
            <AltitudeMeters>102.8000030517578125</AltitudeMeters>
            <DistanceMeters>9782.2453485487</DistanceMeters>
          </Trackpoint>
          <Trackpoint>
            <Time>2020-02-15T09:02:59.000Z</Time>
            <Position>
              <LatitudeDegrees>41.9399694912135601043701171875</LatitudeDegrees>
              <LongitudeDegrees>2.84098975360393524169921875</LongitudeDegrees>
            </Position>
            <AltitudeMeters>102.8000030517578125</AltitudeMeters>
            <DistanceMeters>9784.6076752074</DistanceMeters>
          </Trackpoint>
          <Trackpoint>
            <Time>2020-02-15T09:03:00.000Z</Time>
            <Position>
              <LatitudeDegrees>41.9399736821651458740234375</LatitudeDegrees>
              <LongitudeDegrees>2.84101515077054500579833984375</LongitudeDegrees>
            </Position>
            <AltitudeMeters>102.8000030517578125</AltitudeMeters>
            <DistanceMeters>9786.7620798333</DistanceMeters>
          </Trackpoint>
          <Trackpoint>
            <Time>2020-02-15T09:03:01.000Z</Time>
            <Position>
              <LatitudeDegrees>41.93997946567833423614501953125</LatitudeDegrees>
              <LongitudeDegrees>2.84104448743164539337158203125</LongitudeDegrees>
            </Position>
            <AltitudeMeters>102.8000030517578125</AltitudeMeters>
            <DistanceMeters>9789.2762503746</DistanceMeters>
          </Trackpoint>
          <Trackpoint>
            <Time>2020-02-15T09:03:02.000Z</Time>
            <Position>
              <LatitudeDegrees>41.93998533301055431365966796875</LatitudeDegrees>
              <LongitudeDegrees>2.84107424318790435791015625</LongitudeDegrees>
            </Position>
            <AltitudeMeters>103</AltitudeMeters>
            <DistanceMeters>9791.8260846908</DistanceMeters>
          </Trackpoint>
          <Trackpoint>
            <Time>2020-02-15T09:03:03.000Z</Time>
            <Position>
              <LatitudeDegrees>41.93999111652374267578125</LatitudeDegrees>
              <LongitudeDegrees>2.8410968743264675140380859375</LongitudeDegrees>
            </Position>
            <AltitudeMeters>103</AltitudeMeters>
            <DistanceMeters>9793.8080239565</DistanceMeters>
          </Trackpoint>
          <Trackpoint>
            <Time>2020-02-15T09:03:04.000Z</Time>
            <Position>
              <LatitudeDegrees>41.93999203853309154510498046875</LatitudeDegrees>
              <LongitudeDegrees>2.8411193378269672393798828125</LongitudeDegrees>
            </Position>
            <AltitudeMeters>103</AltitudeMeters>
            <DistanceMeters>9795.6701596536</DistanceMeters>
          </Trackpoint>
          <Trackpoint>
            <Time>2020-02-15T09:03:05.000Z</Time>
            <Position>
              <LatitudeDegrees>41.939996145665645599365234375</LatitudeDegrees>
              <LongitudeDegrees>2.84114691428840160369873046875</LongitudeDegrees>
            </Position>
            <AltitudeMeters>103.1999969482421875</AltitudeMeters>
            <DistanceMeters>9797.997829275</DistanceMeters>
          </Trackpoint>
          <Trackpoint>
            <Time>2020-02-15T09:03:06.000Z</Time>
            <Position>
              <LatitudeDegrees>41.9400063715875148773193359375</LatitudeDegrees>
              <LongitudeDegrees>2.8411716409027576446533203125</LongitudeDegrees>
            </Position>
            <AltitudeMeters>103.40000152587890625</AltitudeMeters>
            <DistanceMeters>9800.3390375958</DistanceMeters>
          </Trackpoint>
          <Trackpoint>
            <Time>2020-02-15T09:03:07.000Z</Time>
            <Position>
              <LatitudeDegrees>41.94000863470137119293212890625</LatitudeDegrees>
              <LongitudeDegrees>2.84119050018489360809326171875</LongitudeDegrees>
            </Position>
            <AltitudeMeters>103.1999969482421875</AltitudeMeters>
            <DistanceMeters>9801.9177399422</DistanceMeters>
          </Trackpoint>
          <Trackpoint>
            <Time>2020-02-15T09:03:08.000Z</Time>
            <Position>
              <LatitudeDegrees>41.94001031108200550079345703125</LatitudeDegrees>
              <LongitudeDegrees>2.841211371123790740966796875</LongitudeDegrees>
            </Position>
            <AltitudeMeters>103.59999847412109375</AltitudeMeters>
            <DistanceMeters>9803.6596083888</DistanceMeters>
          </Trackpoint>
          <Trackpoint>
            <Time>2020-02-15T09:03:09.000Z</Time>
            <Position>
              <LatitudeDegrees>41.94001517258584499359130859375</LatitudeDegrees>
              <LongitudeDegrees>2.8412358462810516357421875</LongitudeDegrees>
            </Position>
            <AltitudeMeters>103.59999847412109375</AltitudeMeters>
            <DistanceMeters>9805.7588171218</DistanceMeters>
          </Trackpoint>
          <Trackpoint>
            <Time>2020-02-15T09:03:10.000Z</Time>
            <Position>
              <LatitudeDegrees>41.94001550786197185516357421875</LatitudeDegrees>
              <LongitudeDegrees>2.84125956706702709197998046875</LongitudeDegrees>
            </Position>
            <AltitudeMeters>103.8000030517578125</AltitudeMeters>
            <DistanceMeters>9807.7224470873</DistanceMeters>
          </Trackpoint>
          <Trackpoint>
            <Time>2020-02-15T09:03:11.000Z</Time>
            <Position>
              <LatitudeDegrees>41.94001324474811553955078125</LatitudeDegrees>
              <LongitudeDegrees>2.84128286875784397125244140625</LongitudeDegrees>
            </Position>
            <AltitudeMeters>104.1999969482421875</AltitudeMeters>
            <DistanceMeters>9809.6652728525</DistanceMeters>
          </Trackpoint>
          <Trackpoint>
            <Time>2020-02-15T09:03:12.000Z</Time>
            <Position>
              <LatitudeDegrees>41.9400070421397686004638671875</LatitudeDegrees>
              <LongitudeDegrees>2.8413121215999126434326171875</LongitudeDegrees>
            </Position>
            <AltitudeMeters>104.1999969482421875</AltitudeMeters>
            <DistanceMeters>9812.1848251421</DistanceMeters>
          </Trackpoint>
          <Trackpoint>
            <Time>2020-02-15T09:03:13.000Z</Time>
            <Position>
              <LatitudeDegrees>41.93999807350337505340576171875</LatitudeDegrees>
              <LongitudeDegrees>2.8413458168506622314453125</LongitudeDegrees>
            </Position>
            <AltitudeMeters>104.59999847412109375</AltitudeMeters>
            <DistanceMeters>9815.1474648946</DistanceMeters>
          </Trackpoint>
          <Trackpoint>
            <Time>2020-02-15T09:03:14.000Z</Time>
            <Position>
              <LatitudeDegrees>41.93998910486698150634765625</LatitudeDegrees>
              <LongitudeDegrees>2.84137808717787265777587890625</LongitudeDegrees>
            </Position>
            <AltitudeMeters>105</AltitudeMeters>
            <DistanceMeters>9818.0014321251</DistanceMeters>
          </Trackpoint>
          <Trackpoint>
            <Time>2020-02-15T09:03:15.000Z</Time>
            <Position>
              <LatitudeDegrees>41.93997963331639766693115234375</LatitudeDegrees>
              <LongitudeDegrees>2.84140884876251220703125</LongitudeDegrees>
            </Position>
            <AltitudeMeters>105.1999969482421875</AltitudeMeters>
            <DistanceMeters>9820.7588447467</DistanceMeters>
          </Trackpoint>
          <Trackpoint>
            <Time>2020-02-15T09:03:16.000Z</Time>
            <Position>
              <LatitudeDegrees>41.9399683177471160888671875</LatitudeDegrees>
              <LongitudeDegrees>2.84143927507102489471435546875</LongitudeDegrees>
            </Position>
            <AltitudeMeters>106.1999969482421875</AltitudeMeters>
            <DistanceMeters>9823.5761905179</DistanceMeters>
          </Trackpoint>
          <Trackpoint>
            <Time>2020-02-15T09:03:17.000Z</Time>
            <Position>
              <LatitudeDegrees>41.93995515815913677215576171875</LatitudeDegrees>
              <LongitudeDegrees>2.84146810881793498992919921875</LongitudeDegrees>
            </Position>
            <AltitudeMeters>106.40000152587890625</AltitudeMeters>
            <DistanceMeters>9826.3758523462</DistanceMeters>
          </Trackpoint>
          <Trackpoint>
            <Time>2020-02-15T09:03:18.000Z</Time>
            <Position>
              <LatitudeDegrees>41.939942501485347747802734375</LatitudeDegrees>
              <LongitudeDegrees>2.84149669110774993896484375</LongitudeDegrees>
            </Position>
            <AltitudeMeters>106.59999847412109375</AltitudeMeters>
            <DistanceMeters>9829.129988184</DistanceMeters>
          </Trackpoint>
          <Trackpoint>
            <Time>2020-02-15T09:03:19.000Z</Time>
            <Position>
              <LatitudeDegrees>41.93993143737316131591796875</LatitudeDegrees>
              <LongitudeDegrees>2.84152309410274028778076171875</LongitudeDegrees>
            </Position>
            <AltitudeMeters>107</AltitudeMeters>
            <DistanceMeters>9831.640564484</DistanceMeters>
          </Trackpoint>
          <Trackpoint>
            <Time>2020-02-15T09:03:20.000Z</Time>
            <Position>
              <LatitudeDegrees>41.93991827778518199920654296875</LatitudeDegrees>
              <LongitudeDegrees>2.84155301749706268310546875</LongitudeDegrees>
            </Position>
            <AltitudeMeters>107.1999969482421875</AltitudeMeters>
            <DistanceMeters>9834.5181641954</DistanceMeters>
          </Trackpoint>
          <Trackpoint>
            <Time>2020-02-15T09:03:21.000Z</Time>
            <Position>
              <LatitudeDegrees>41.93990503437817096710205078125</LatitudeDegrees>
              <LongitudeDegrees>2.84158277325332164764404296875</LongitudeDegrees>
            </Position>
            <AltitudeMeters>107.40000152587890625</AltitudeMeters>
            <DistanceMeters>9837.3879080371</DistanceMeters>
          </Trackpoint>
          <Trackpoint>
            <Time>2020-02-15T09:03:22.000Z</Time>
            <Position>
              <LatitudeDegrees>41.939893551170825958251953125</LatitudeDegrees>
              <LongitudeDegrees>2.841613702476024627685546875</LongitudeDegrees>
            </Position>
            <AltitudeMeters>107.59999847412109375</AltitudeMeters>
            <DistanceMeters>9840.2497744446</DistanceMeters>
          </Trackpoint>
          <Trackpoint>
            <Time>2020-02-15T09:03:23.000Z</Time>
            <Position>
              <LatitudeDegrees>41.9398824870586395263671875</LatitudeDegrees>
              <LongitudeDegrees>2.841646559536457061767578125</LongitudeDegrees>
            </Position>
            <AltitudeMeters>107.8000030517578125</AltitudeMeters>
            <DistanceMeters>9843.2366985358</DistanceMeters>
          </Trackpoint>
          <Trackpoint>
            <Time>2020-02-15T09:03:24.000Z</Time>
            <Position>
              <LatitudeDegrees>41.93987301550805568695068359375</LatitudeDegrees>
              <LongitudeDegrees>2.84167815931141376495361328125</LongitudeDegrees>
            </Position>
            <AltitudeMeters>108</AltitudeMeters>
            <DistanceMeters>9846.0588479691</DistanceMeters>
          </Trackpoint>
          <Trackpoint>
            <Time>2020-02-15T09:03:25.000Z</Time>
            <Position>
              <LatitudeDegrees>41.93986211903393268585205078125</LatitudeDegrees>
              <LongitudeDegrees>2.841710262000560760498046875</LongitudeDegrees>
            </Position>
            <AltitudeMeters>108.40000152587890625</AltitudeMeters>
            <DistanceMeters>9848.9785041411</DistanceMeters>
          </Trackpoint>
          <Trackpoint>
            <Time>2020-02-15T09:03:26.000Z</Time>
            <Position>
              <LatitudeDegrees>41.93985155783593654632568359375</LatitudeDegrees>
              <LongitudeDegrees>2.84174085594713687896728515625</LongitudeDegrees>
            </Position>
            <AltitudeMeters>108.40000152587890625</AltitudeMeters>
            <DistanceMeters>9851.7684729393</DistanceMeters>
          </Trackpoint>
          <Trackpoint>
            <Time>2020-02-15T09:03:27.000Z</Time>
            <Position>
              <LatitudeDegrees>41.93984183482825756072998046875</LatitudeDegrees>
              <LongitudeDegrees>2.84177069552242755889892578125</LongitudeDegrees>
            </Position>
            <AltitudeMeters>108.8000030517578125</AltitudeMeters>
            <DistanceMeters>9854.4662945816</DistanceMeters>
          </Trackpoint>
          <Trackpoint>
            <Time>2020-02-15T09:03:28.000Z</Time>
            <Position>
              <LatitudeDegrees>41.93983144126832485198974609375</LatitudeDegrees>
              <LongitudeDegrees>2.84180003218352794647216796875</LongitudeDegrees>
            </Position>
            <AltitudeMeters>108.8000030517578125</AltitudeMeters>
            <DistanceMeters>9857.1574135511</DistanceMeters>
          </Trackpoint>
          <Trackpoint>
            <Time>2020-02-15T09:03:29.000Z</Time>
            <Position>
              <LatitudeDegrees>41.93982146680355072021484375</LatitudeDegrees>
              <LongitudeDegrees>2.84183020703494548797607421875</LongitudeDegrees>
            </Position>
            <AltitudeMeters>109</AltitudeMeters>
            <DistanceMeters>9859.8885018219</DistanceMeters>
          </Trackpoint>
          <Trackpoint>
            <Time>2020-02-15T09:03:30.000Z</Time>
            <Position>
              <LatitudeDegrees>41.93981098942458629608154296875</LatitudeDegrees>
              <LongitudeDegrees>2.84186189062893390655517578125</LongitudeDegrees>
            </Position>
            <AltitudeMeters>109.1999969482421875</AltitudeMeters>
            <DistanceMeters>9862.7582456636</DistanceMeters>
          </Trackpoint>
          <Trackpoint>
            <Time>2020-02-15T09:03:31.000Z</Time>
            <Position>
              <LatitudeDegrees>41.93980294279754161834716796875</LatitudeDegrees>
              <LongitudeDegrees>2.84189357422292232513427734375</LongitudeDegrees>
            </Position>
            <AltitudeMeters>109.59999847412109375</AltitudeMeters>
            <DistanceMeters>9865.5303558803</DistanceMeters>
          </Trackpoint>
          <Trackpoint>
            <Time>2020-02-15T09:03:32.000Z</Time>
            <Position>
              <LatitudeDegrees>41.93979389034211635589599609375</LatitudeDegrees>
              <LongitudeDegrees>2.84192676655948162078857421875</LongitudeDegrees>
            </Position>
            <AltitudeMeters>109.8000030517578125</AltitudeMeters>
            <DistanceMeters>9868.4561912258</DistanceMeters>
          </Trackpoint>
          <Trackpoint>
            <Time>2020-02-15T09:03:33.000Z</Time>
            <Position>
              <LatitudeDegrees>41.9397884421050548553466796875</LatitudeDegrees>
              <LongitudeDegrees>2.841961383819580078125</LongitudeDegrees>
            </Position>
            <AltitudeMeters>109.8000030517578125</AltitudeMeters>
            <DistanceMeters>9871.3866524008</DistanceMeters>
          </Trackpoint>
          <Trackpoint>
            <Time>2020-02-15T09:03:34.000Z</Time>
            <Position>
              <LatitudeDegrees>41.939782239496707916259765625</LatitudeDegrees>
              <LongitudeDegrees>2.84199851565062999725341796875</LongitudeDegrees>
            </Position>
            <AltitudeMeters>110</AltitudeMeters>
            <DistanceMeters>9874.5383319671</DistanceMeters>
          </Trackpoint>
          <Trackpoint>
            <Time>2020-02-15T09:03:35.000Z</Time>
            <Position>
              <LatitudeDegrees>41.93977855145931243896484375</LatitudeDegrees>
              <LongitudeDegrees>2.8420373238623142242431640625</LongitudeDegrees>
            </Position>
            <AltitudeMeters>110.40000152587890625</AltitudeMeters>
            <DistanceMeters>9877.7776141141</DistanceMeters>
          </Trackpoint>
          <Trackpoint>
            <Time>2020-02-15T09:03:36.000Z</Time>
            <Position>
              <LatitudeDegrees>41.93977947346866130828857421875</LatitudeDegrees>
              <LongitudeDegrees>2.8420735336840152740478515625</LongitudeDegrees>
            </Position>
            <AltitudeMeters>110.59999847412109375</AltitudeMeters>
            <DistanceMeters>9880.7766066346</DistanceMeters>
          </Trackpoint>
          <Trackpoint>
            <Time>2020-02-15T09:03:37.000Z</Time>
            <Position>
              <LatitudeDegrees>41.93978433497250080108642578125</LatitudeDegrees>
              <LongitudeDegrees>2.8421102464199066162109375</LongitudeDegrees>
            </Position>
            <AltitudeMeters>110.8000030517578125</AltitudeMeters>
            <DistanceMeters>9883.8631468738</DistanceMeters>
          </Trackpoint>
          <Trackpoint>
            <Time>2020-02-15T09:03:38.000Z</Time>
            <Position>
              <LatitudeDegrees>41.9397914595901966094970703125</LatitudeDegrees>
              <LongitudeDegrees>2.84214704297482967376708984375</LongitudeDegrees>
            </Position>
            <AltitudeMeters>111</AltitudeMeters>
            <DistanceMeters>9887.0105257609</DistanceMeters>
          </Trackpoint>
          <Trackpoint>
            <Time>2020-02-15T09:03:39.000Z</Time>
            <Position>
              <LatitudeDegrees>41.9398001767694950103759765625</LatitudeDegrees>
              <LongitudeDegrees>2.8421828337013721466064453125</LongitudeDegrees>
            </Position>
            <AltitudeMeters>111</AltitudeMeters>
            <DistanceMeters>9890.1276337561</DistanceMeters>
          </Trackpoint>
          <Trackpoint>
            <Time>2020-02-15T09:03:40.000Z</Time>
            <Position>
              <LatitudeDegrees>41.93980914540588855743408203125</LatitudeDegrees>
              <LongitudeDegrees>2.8422180376946926116943359375</LongitudeDegrees>
            </Position>
            <AltitudeMeters>111.1999969482421875</AltitudeMeters>
            <DistanceMeters>9893.2097824253</DistanceMeters>
          </Trackpoint>
          <Trackpoint>
            <Time>2020-02-15T09:03:41.000Z</Time>
            <Position>
              <LatitudeDegrees>41.93982020951807498931884765625</LatitudeDegrees>
              <LongitudeDegrees>2.842253744602203369140625</LongitudeDegrees>
            </Position>
            <AltitudeMeters>111.40000152587890625</AltitudeMeters>
            <DistanceMeters>9896.4126197363</DistanceMeters>
          </Trackpoint>
          <Trackpoint>
            <Time>2020-02-15T09:03:42.000Z</Time>
            <Position>
              <LatitudeDegrees>41.93983127363026142120361328125</LatitudeDegrees>
              <LongitudeDegrees>2.842288278043270111083984375</LongitudeDegrees>
            </Position>
            <AltitudeMeters>111.59999847412109375</AltitudeMeters>
            <DistanceMeters>9899.5239284557</DistanceMeters>
          </Trackpoint>
          <Trackpoint>
            <Time>2020-02-15T09:03:43.000Z</Time>
            <Position>
              <LatitudeDegrees>41.93984200246632099151611328125</LatitudeDegrees>
              <LongitudeDegrees>2.8423233143985271453857421875</LongitudeDegrees>
            </Position>
            <AltitudeMeters>111.8000030517578125</AltitudeMeters>
            <DistanceMeters>9902.6612494983</DistanceMeters>
          </Trackpoint>
          <Trackpoint>
            <Time>2020-02-15T09:03:44.000Z</Time>
            <Position>
              <LatitudeDegrees>41.93985273130238056182861328125</LatitudeDegrees>
              <LongitudeDegrees>2.8423575125634670257568359375</LongitudeDegrees>
            </Position>
            <AltitudeMeters>111.8000030517578125</AltitudeMeters>
            <DistanceMeters>9905.7331267556</DistanceMeters>
          </Trackpoint>
          <Trackpoint>
            <Time>2020-02-15T09:03:45.000Z</Time>
            <Position>
              <LatitudeDegrees>41.93986295722424983978271484375</LatitudeDegrees>
              <LongitudeDegrees>2.84239129163324832916259765625</LongitudeDegrees>
            </Position>
            <AltitudeMeters>112</AltitudeMeters>
            <DistanceMeters>9908.7531229821</DistanceMeters>
          </Trackpoint>
          <Trackpoint>
            <Time>2020-02-15T09:03:46.000Z</Time>
            <Position>
              <LatitudeDegrees>41.93987066857516765594482421875</LatitudeDegrees>
              <LongitudeDegrees>2.84242548979818820953369140625</LongitudeDegrees>
            </Position>
            <AltitudeMeters>112.1999969482421875</AltitudeMeters>
            <DistanceMeters>9911.7127131819</DistanceMeters>
          </Trackpoint>
          <Trackpoint>
            <Time>2020-02-15T09:03:47.000Z</Time>
            <Position>
              <LatitudeDegrees>41.93987703882157802581787109375</LatitudeDegrees>
              <LongitudeDegrees>2.84246086142957210540771484375</LongitudeDegrees>
            </Position>
            <AltitudeMeters>112.40000152587890625</AltitudeMeters>
            <DistanceMeters>9914.7267232852</DistanceMeters>
          </Trackpoint>
          <Trackpoint>
            <Time>2020-02-15T09:03:48.000Z</Time>
            <Position>
              <LatitudeDegrees>41.9398826546967029571533203125</LatitudeDegrees>
              <LongitudeDegrees>2.84249522723257541656494140625</LongitudeDegrees>
            </Position>
            <AltitudeMeters>112.59999847412109375</AltitudeMeters>
            <DistanceMeters>9917.6401871784</DistanceMeters>
          </Trackpoint>
          <Trackpoint>
            <Time>2020-02-15T09:03:49.000Z</Time>
            <Position>
              <LatitudeDegrees>41.93988852202892303466796875</LatitudeDegrees>
              <LongitudeDegrees>2.84252976067364215850830078125</LongitudeDegrees>
            </Position>
            <AltitudeMeters>112.8000030517578125</AltitudeMeters>
            <DistanceMeters>9920.5721886748</DistanceMeters>
          </Trackpoint>
          <Trackpoint>
            <Time>2020-02-15T09:03:50.000Z</Time>
            <Position>
              <LatitudeDegrees>41.9398923777043819427490234375</LatitudeDegrees>
              <LongitudeDegrees>2.8425663895905017852783203125</LongitudeDegrees>
            </Position>
            <AltitudeMeters>112.59999847412109375</AltitudeMeters>
            <DistanceMeters>9923.6337600603</DistanceMeters>
          </Trackpoint>
          <Trackpoint>
            <Time>2020-02-15T09:03:51.000Z</Time>
            <Position>
              <LatitudeDegrees>41.9398967362940311431884765625</LatitudeDegrees>
              <LongitudeDegrees>2.842602431774139404296875</LongitudeDegrees>
            </Position>
            <AltitudeMeters>112.8000030517578125</AltitudeMeters>
            <DistanceMeters>9926.6567449034</DistanceMeters>
          </Trackpoint>
          <Trackpoint>
            <Time>2020-02-15T09:03:52.000Z</Time>
            <Position>
              <LatitudeDegrees>41.93989966996014118194580078125</LatitudeDegrees>
              <LongitudeDegrees>2.8426388092339038848876953125</LongitudeDegrees>
            </Position>
            <AltitudeMeters>112.8000030517578125</AltitudeMeters>
            <DistanceMeters>9929.687188393</DistanceMeters>
          </Trackpoint>
          <Trackpoint>
            <Time>2020-02-15T09:03:53.000Z</Time>
            <Position>
              <LatitudeDegrees>41.93989832885563373565673828125</LatitudeDegrees>
              <LongitudeDegrees>2.8426740132272243499755859375</LongitudeDegrees>
            </Position>
            <AltitudeMeters>113</AltitudeMeters>
            <DistanceMeters>9932.606844565</DistanceMeters>
          </Trackpoint>
          <Trackpoint>
            <Time>2020-02-15T09:03:54.000Z</Time>
            <Position>
              <LatitudeDegrees>41.93989816121757030487060546875</LatitudeDegrees>
              <LongitudeDegrees>2.8427078761160373687744140625</LongitudeDegrees>
            </Position>
            <AltitudeMeters>113.40000152587890625</AltitudeMeters>
            <DistanceMeters>9935.4097299545</DistanceMeters>
          </Trackpoint>
          <Trackpoint>
            <Time>2020-02-15T09:03:55.000Z</Time>
            <Position>
              <LatitudeDegrees>41.93989849649369716644287109375</LatitudeDegrees>
              <LongitudeDegrees>2.8427414037287235260009765625</LongitudeDegrees>
            </Position>
            <AltitudeMeters>113.40000152587890625</AltitudeMeters>
            <DistanceMeters>9938.1867220832</DistanceMeters>
          </Trackpoint>
          <Trackpoint>
            <Time>2020-02-15T09:03:56.000Z</Time>
            <Position>
              <LatitudeDegrees>41.93989983759820461273193359375</LatitudeDegrees>
              <LongitudeDegrees>2.84277618862688541412353515625</LongitudeDegrees>
            </Position>
            <AltitudeMeters>113.59999847412109375</AltitudeMeters>
            <DistanceMeters>9941.0690250389</DistanceMeters>
          </Trackpoint>
          <Trackpoint>
            <Time>2020-02-15T09:03:57.000Z</Time>
            <Position>
              <LatitudeDegrees>41.93989790976047515869140625</LatitudeDegrees>
              <LongitudeDegrees>2.84281206317245960235595703125</LongitudeDegrees>
            </Position>
            <AltitudeMeters>113.8000030517578125</AltitudeMeters>
            <DistanceMeters>9944.0483815373</DistanceMeters>
          </Trackpoint>
          <Trackpoint>
            <Time>2020-02-15T09:03:58.000Z</Time>
            <Position>
              <LatitudeDegrees>41.93989665247499942779541015625</LatitudeDegrees>
              <LongitudeDegrees>2.84284827299416065216064453125</LongitudeDegrees>
            </Position>
            <AltitudeMeters>114</AltitudeMeters>
            <DistanceMeters>9947.0488791984</DistanceMeters>
          </Trackpoint>
          <Trackpoint>
            <Time>2020-02-15T09:03:59.000Z</Time>
            <Position>
              <LatitudeDegrees>41.9398933835327625274658203125</LatitudeDegrees>
              <LongitudeDegrees>2.8428842313587665557861328125</LongitudeDegrees>
            </Position>
            <AltitudeMeters>114.1999969482421875</AltitudeMeters>
            <DistanceMeters>9950.047871719</DistanceMeters>
          </Trackpoint>
          <Trackpoint>
            <Time>2020-02-15T09:04:00.000Z</Time>
            <Position>
              <LatitudeDegrees>41.9398937188088893890380859375</LatitudeDegrees>
              <LongitudeDegrees>2.84291717223823070526123046875</LongitudeDegrees>
            </Position>
            <AltitudeMeters>114.1999969482421875</AltitudeMeters>
            <DistanceMeters>9952.7756515836</DistanceMeters>
          </Trackpoint>
          <Trackpoint>
            <Time>2020-02-15T09:04:01.000Z</Time>
            <Position>
              <LatitudeDegrees>41.93989598192274570465087890625</LatitudeDegrees>
              <LongitudeDegrees>2.842948436737060546875</LongitudeDegrees>
            </Position>
            <AltitudeMeters>114.59999847412109375</AltitudeMeters>
            <DistanceMeters>9955.3745931335</DistanceMeters>
          </Trackpoint>
          <Trackpoint>
            <Time>2020-02-15T09:04:02.000Z</Time>
            <Position>
              <LatitudeDegrees>41.93989782594144344329833984375</LatitudeDegrees>
              <LongitudeDegrees>2.8429792821407318115234375</LongitudeDegrees>
            </Position>
            <AltitudeMeters>115</AltitudeMeters>
            <DistanceMeters>9957.9367924963</DistanceMeters>
          </Trackpoint>
          <Trackpoint>
            <Time>2020-02-15T09:04:03.000Z</Time>
            <Position>
              <LatitudeDegrees>41.93989832885563373565673828125</LatitudeDegrees>
              <LongitudeDegrees>2.8430113010108470916748046875</LongitudeDegrees>
            </Position>
            <AltitudeMeters>115</AltitudeMeters>
            <DistanceMeters>9960.5890423997</DistanceMeters>
          </Trackpoint>
          <Trackpoint>
            <Time>2020-02-15T09:04:04.000Z</Time>
            <Position>
              <LatitudeDegrees>41.939898915588855743408203125</LatitudeDegrees>
              <LongitudeDegrees>2.84304256550967693328857421875</LongitudeDegrees>
            </Position>
            <AltitudeMeters>115.40000152587890625</AltitudeMeters>
            <DistanceMeters>9963.1792830831</DistanceMeters>
          </Trackpoint>
          <Trackpoint>
            <Time>2020-02-15T09:04:05.000Z</Time>
            <Position>
              <LatitudeDegrees>41.9399012625217437744140625</LatitudeDegrees>
              <LongitudeDegrees>2.84307181835174560546875</LongitudeDegrees>
            </Position>
            <AltitudeMeters>115.40000152587890625</AltitudeMeters>
            <DistanceMeters>9965.6150088935</DistanceMeters>
          </Trackpoint>
          <Trackpoint>
            <Time>2020-02-15T09:04:06.000Z</Time>
            <Position>
              <LatitudeDegrees>41.93990168161690235137939453125</LatitudeDegrees>
              <LongitudeDegrees>2.84310241229832172393798828125</LongitudeDegrees>
            </Position>
            <AltitudeMeters>115.59999847412109375</AltitudeMeters>
            <DistanceMeters>9968.14885663</DistanceMeters>
          </Trackpoint>
          <Trackpoint>
            <Time>2020-02-15T09:04:07.000Z</Time>
            <Position>
              <LatitudeDegrees>41.93990084342658519744873046875</LatitudeDegrees>
              <LongitudeDegrees>2.8431340120732784271240234375</LongitudeDegrees>
            </Position>
            <AltitudeMeters>115.8000030517578125</AltitudeMeters>
            <DistanceMeters>9970.7685623573</DistanceMeters>
          </Trackpoint>
          <Trackpoint>
            <Time>2020-02-15T09:04:08.000Z</Time>
            <Position>
              <LatitudeDegrees>41.93989698775112628936767578125</LatitudeDegrees>
              <LongitudeDegrees>2.84316502511501312255859375</LongitudeDegrees>
            </Position>
            <AltitudeMeters>116</AltitudeMeters>
            <DistanceMeters>9973.3709761086</DistanceMeters>
          </Trackpoint>
          <Trackpoint>
            <Time>2020-02-15T09:04:09.000Z</Time>
            <Position>
              <LatitudeDegrees>41.93989162333309650421142578125</LatitudeDegrees>
              <LongitudeDegrees>2.8431965410709381103515625</LongitudeDegrees>
            </Position>
            <AltitudeMeters>116.40000152587890625</AltitudeMeters>
            <DistanceMeters>9976.0469526817</DistanceMeters>
          </Trackpoint>
          <Trackpoint>
            <Time>2020-02-15T09:04:10.000Z</Time>
            <Position>
              <LatitudeDegrees>41.9398880191147327423095703125</LatitudeDegrees>
              <LongitudeDegrees>2.8432260453701019287109375</LongitudeDegrees>
            </Position>
            <AltitudeMeters>116.40000152587890625</AltitudeMeters>
            <DistanceMeters>9978.5212994296</DistanceMeters>
          </Trackpoint>
          <Trackpoint>
            <Time>2020-02-15T09:04:11.000Z</Time>
            <Position>
              <LatitudeDegrees>41.9398829899728298187255859375</LatitudeDegrees>
              <LongitudeDegrees>2.84325563348829746246337890625</LongitudeDegrees>
            </Position>
            <AltitudeMeters>116.40000152587890625</AltitudeMeters>
            <DistanceMeters>9981.035469971</DistanceMeters>
          </Trackpoint>
          <Trackpoint>
            <Time>2020-02-15T09:04:12.000Z</Time>
            <Position>
              <LatitudeDegrees>41.939876116812229156494140625</LatitudeDegrees>
              <LongitudeDegrees>2.843283377587795257568359375</LongitudeDegrees>
            </Position>
            <AltitudeMeters>116.59999847412109375</AltitudeMeters>
            <DistanceMeters>9983.4563209809</DistanceMeters>
          </Trackpoint>
          <Trackpoint>
            <Time>2020-02-15T09:04:13.000Z</Time>
            <Position>
              <LatitudeDegrees>41.93987108767032623291015625</LatitudeDegrees>
              <LongitudeDegrees>2.8433123789727687835693359375</LongitudeDegrees>
            </Position>
            <AltitudeMeters>116.8000030517578125</AltitudeMeters>
            <DistanceMeters>9985.9233579735</DistanceMeters>
          </Trackpoint>
          <Trackpoint>
            <Time>2020-02-15T09:04:14.000Z</Time>
            <Position>
              <LatitudeDegrees>41.9398662261664867401123046875</LatitudeDegrees>
              <LongitudeDegrees>2.8433402068912982940673828125</LongitudeDegrees>
            </Position>
            <AltitudeMeters>116.8000030517578125</AltitudeMeters>
            <DistanceMeters>9988.2914114931</DistanceMeters>
          </Trackpoint>
          <Trackpoint>
            <Time>2020-02-15T09:04:15.000Z</Time>
            <Position>
              <LatitudeDegrees>41.93985977210104465484619140625</LatitudeDegrees>
              <LongitudeDegrees>2.8433690406382083892822265625</LongitudeDegrees>
            </Position>
            <AltitudeMeters>117.1999969482421875</AltitudeMeters>
            <DistanceMeters>9990.7857496157</DistanceMeters>
          </Trackpoint>
          <Trackpoint>
            <Time>2020-02-15T09:04:16.000Z</Time>
            <Position>
              <LatitudeDegrees>41.93985231220722198486328125</LatitudeDegrees>
              <LongitudeDegrees>2.8433978743851184844970703125</LongitudeDegrees>
            </Position>
            <AltitudeMeters>117.1999969482421875</AltitudeMeters>
            <DistanceMeters>9993.3142460311</DistanceMeters>
          </Trackpoint>
          <Trackpoint>
            <Time>2020-02-15T09:04:17.000Z</Time>
            <Position>
              <LatitudeDegrees>41.939845941960811614990234375</LatitudeDegrees>
              <LongitudeDegrees>2.8434270434081554412841796875</LongitudeDegrees>
            </Position>
            <AltitudeMeters>117.40000152587890625</AltitudeMeters>
            <DistanceMeters>9995.8284165724</DistanceMeters>
          </Trackpoint>
          <Trackpoint>
            <Time>2020-02-15T09:04:18.000Z</Time>
            <Position>
              <LatitudeDegrees>41.93983965553343296051025390625</LatitudeDegrees>
              <LongitudeDegrees>2.84345629625022411346435546875</LongitudeDegrees>
            </Position>
            <AltitudeMeters>117.59999847412109375</AltitudeMeters>
            <DistanceMeters>9998.3497602254</DistanceMeters>
          </Trackpoint>
          <Trackpoint>
            <Time>2020-02-15T09:04:19.000Z</Time>
            <Position>
              <LatitudeDegrees>41.93983445875346660614013671875</LatitudeDegrees>
              <LongitudeDegrees>2.84348496235907077789306640625</LongitudeDegrees>
            </Position>
            <AltitudeMeters>118</AltitudeMeters>
            <DistanceMeters>10000.792889475</DistanceMeters>
          </Trackpoint>
          <Trackpoint>
            <Time>2020-02-15T09:04:20.000Z</Time>
            <Position>
              <LatitudeDegrees>41.93982951343059539794921875</LatitudeDegrees>
              <LongitudeDegrees>2.8435108624398708343505859375</LongitudeDegrees>
            </Position>
            <AltitudeMeters>118.1999969482421875</AltitudeMeters>
            <DistanceMeters>10003.005196287</DistanceMeters>
          </Trackpoint>
          <Trackpoint>
            <Time>2020-02-15T09:04:21.000Z</Time>
            <Position>
              <LatitudeDegrees>41.9398236460983753204345703125</LatitudeDegrees>
              <LongitudeDegrees>2.84353651106357574462890625</LongitudeDegrees>
            </Position>
            <AltitudeMeters>118.40000152587890625</AltitudeMeters>
            <DistanceMeters>10005.225651587</DistanceMeters>
          </Trackpoint>
          <Trackpoint>
            <Time>2020-02-15T09:04:22.000Z</Time>
            <Position>
              <LatitudeDegrees>41.93981878459453582763671875</LatitudeDegrees>
              <LongitudeDegrees>2.843562997877597808837890625</LongitudeDegrees>
            </Position>
            <AltitudeMeters>118.59999847412109375</AltitudeMeters>
            <DistanceMeters>10007.482411015</DistanceMeters>
          </Trackpoint>
          <Trackpoint>
            <Time>2020-02-15T09:04:23.000Z</Time>
            <Position>
              <LatitudeDegrees>41.9398132525384426116943359375</LatitudeDegrees>
              <LongitudeDegrees>2.8435903228819370269775390625</LongitudeDegrees>
            </Position>
            <AltitudeMeters>118.8000030517578125</AltitudeMeters>
            <DistanceMeters>10009.82554705</DistanceMeters>
          </Trackpoint>
          <Trackpoint>
            <Time>2020-02-15T09:04:24.000Z</Time>
            <Position>
              <LatitudeDegrees>41.93980797193944454193115234375</LatitudeDegrees>
              <LongitudeDegrees>2.8436178155243396759033203125</LongitudeDegrees>
            </Position>
            <AltitudeMeters>119</AltitudeMeters>
            <DistanceMeters>10012.176378133</DistanceMeters>
          </Trackpoint>
          <Trackpoint>
            <Time>2020-02-15T09:04:25.000Z</Time>
            <Position>
              <LatitudeDegrees>41.9398042000830173492431640625</LatitudeDegrees>
              <LongitudeDegrees>2.84364514052867889404296875</LongitudeDegrees>
            </Position>
            <AltitudeMeters>119.1999969482421875</AltitudeMeters>
            <DistanceMeters>10014.476731323</DistanceMeters>
          </Trackpoint>
          <Trackpoint>
            <Time>2020-02-15T09:04:26.000Z</Time>
            <Position>
              <LatitudeDegrees>41.9397995062172412872314453125</LatitudeDegrees>
              <LongitudeDegrees>2.84367330372333526611328125</LongitudeDegrees>
            </Position>
            <AltitudeMeters>119.40000152587890625</AltitudeMeters>
            <DistanceMeters>10016.865665879</DistanceMeters>
          </Trackpoint>
          <Trackpoint>
            <Time>2020-02-15T09:04:27.000Z</Time>
            <Position>
              <LatitudeDegrees>41.93979372270405292510986328125</LatitudeDegrees>
              <LongitudeDegrees>2.843698449432849884033203125</LongitudeDegrees>
            </Position>
            <AltitudeMeters>119.8000030517578125</AltitudeMeters>
            <DistanceMeters>10019.045074103</DistanceMeters>
          </Trackpoint>
          <Trackpoint>
            <Time>2020-02-15T09:04:28.000Z</Time>
            <Position>
              <LatitudeDegrees>41.939789950847625732421875</LatitudeDegrees>
              <LongitudeDegrees>2.84372158348560333251953125</LongitudeDegrees>
            </Position>
            <AltitudeMeters>119.8000030517578125</AltitudeMeters>
            <DistanceMeters>10021.006403388</DistanceMeters>
          </Trackpoint>
          <Trackpoint>
            <Time>2020-02-15T09:04:29.000Z</Time>
            <Position>
              <LatitudeDegrees>41.9397886097431182861328125</LatitudeDegrees>
              <LongitudeDegrees>2.8437485732138156890869140625</LongitudeDegrees>
            </Position>
            <AltitudeMeters>120.1999969482421875</AltitudeMeters>
            <DistanceMeters>10023.247100267</DistanceMeters>
          </Trackpoint>
          <Trackpoint>
            <Time>2020-02-15T09:04:30.000Z</Time>
            <Position>
              <LatitudeDegrees>41.93978500552475452423095703125</LatitudeDegrees>
              <LongitudeDegrees>2.84377564676105976104736328125</LongitudeDegrees>
            </Position>
            <AltitudeMeters>120.1999969482421875</AltitudeMeters>
            <DistanceMeters>10025.525760829</DistanceMeters>
          </Trackpoint>
          <Trackpoint>
            <Time>2020-02-15T09:04:31.000Z</Time>
            <Position>
              <LatitudeDegrees>41.93978249095380306243896484375</LatitudeDegrees>
              <LongitudeDegrees>2.843801714479923248291015625</LongitudeDegrees>
            </Position>
            <AltitudeMeters>120.59999847412109375</AltitudeMeters>
            <DistanceMeters>10027.703096387</DistanceMeters>
          </Trackpoint>
          <Trackpoint>
            <Time>2020-02-15T09:04:32.000Z</Time>
            <Position>
              <LatitudeDegrees>41.93978123366832733154296875</LatitudeDegrees>
              <LongitudeDegrees>2.8438287042081356048583984375</LongitudeDegrees>
            </Position>
            <AltitudeMeters>120.8000030517578125</AltitudeMeters>
            <DistanceMeters>10029.939759605</DistanceMeters>
          </Trackpoint>
          <Trackpoint>
            <Time>2020-02-15T09:04:33.000Z</Time>
            <Position>
              <LatitudeDegrees>41.9397773779928684234619140625</LatitudeDegrees>
              <LongitudeDegrees>2.84385762177407741546630859375</LongitudeDegrees>
            </Position>
            <AltitudeMeters>121.1999969482421875</AltitudeMeters>
            <DistanceMeters>10032.369918035</DistanceMeters>
          </Trackpoint>
          <Trackpoint>
            <Time>2020-02-15T09:04:34.000Z</Time>
            <Position>
              <LatitudeDegrees>41.93977343849837779998779296875</LatitudeDegrees>
              <LongitudeDegrees>2.84388410858809947967529296875</LongitudeDegrees>
            </Position>
            <AltitudeMeters>121.40000152587890625</AltitudeMeters>
            <DistanceMeters>10034.602540304</DistanceMeters>
          </Trackpoint>
          <Trackpoint>
            <Time>2020-02-15T09:04:35.000Z</Time>
            <Position>
              <LatitudeDegrees>41.93976991809904575347900390625</LatitudeDegrees>
              <LongitudeDegrees>2.84391143359243869781494140625</LongitudeDegrees>
            </Position>
            <AltitudeMeters>121.59999847412109375</AltitudeMeters>
            <DistanceMeters>10036.898964621</DistanceMeters>
          </Trackpoint>
          <Trackpoint>
            <Time>2020-02-15T09:04:36.000Z</Time>
            <Position>
              <LatitudeDegrees>41.93976606242358684539794921875</LatitudeDegrees>
              <LongitudeDegrees>2.84394060261547565460205078125</LongitudeDegrees>
            </Position>
            <AltitudeMeters>122</AltitudeMeters>
            <DistanceMeters>10039.351316739</DistanceMeters>
          </Trackpoint>
          <Trackpoint>
            <Time>2020-02-15T09:04:37.000Z</Time>
            <Position>
              <LatitudeDegrees>41.93976321257650852203369140625</LatitudeDegrees>
              <LongitudeDegrees>2.8439676761627197265625</LongitudeDegrees>
            </Position>
            <AltitudeMeters>122</AltitudeMeters>
            <DistanceMeters>10041.616064721</DistanceMeters>
          </Trackpoint>
          <Trackpoint>
            <Time>2020-02-15T09:04:38.000Z</Time>
            <Position>
              <LatitudeDegrees>41.939762122929096221923828125</LatitudeDegrees>
              <LongitudeDegrees>2.84399676136672496795654296875</LongitudeDegrees>
            </Position>
            <AltitudeMeters>122.1999969482421875</AltitudeMeters>
            <DistanceMeters>10044.027572388</DistanceMeters>
          </Trackpoint>
          <Trackpoint>
            <Time>2020-02-15T09:04:39.000Z</Time>
            <Position>
              <LatitudeDegrees>41.9397591054439544677734375</LatitudeDegrees>
              <LongitudeDegrees>2.8440231643617153167724609375</LongitudeDegrees>
            </Position>
            <AltitudeMeters>122.40000152587890625</AltitudeMeters>
            <DistanceMeters>10046.235793681</DistanceMeters>
          </Trackpoint>
          <Trackpoint>
            <Time>2020-02-15T09:04:40.000Z</Time>
            <Position>
              <LatitudeDegrees>41.93975717760622501373291015625</LatitudeDegrees>
              <LongitudeDegrees>2.8440503217279911041259765625</LongitudeDegrees>
            </Position>
            <AltitudeMeters>122.59999847412109375</AltitudeMeters>
            <DistanceMeters>10048.492553109</DistanceMeters>
          </Trackpoint>
          <Trackpoint>
            <Time>2020-02-15T09:04:41.000Z</Time>
            <Position>
              <LatitudeDegrees>41.9397542439401149749755859375</LatitudeDegrees>
              <LongitudeDegrees>2.8440794907510280609130859375</LongitudeDegrees>
            </Position>
            <AltitudeMeters>123.1999969482421875</AltitudeMeters>
            <DistanceMeters>10050.930131887</DistanceMeters>
          </Trackpoint>
          <Trackpoint>
            <Time>2020-02-15T09:04:42.000Z</Time>
            <Position>
              <LatitudeDegrees>41.93974913097918033599853515625</LatitudeDegrees>
              <LongitudeDegrees>2.84410958178341388702392578125</LongitudeDegrees>
            </Position>
            <AltitudeMeters>123.40000152587890625</AltitudeMeters>
            <DistanceMeters>10053.483505184</DistanceMeters>
          </Trackpoint>
          <Trackpoint>
            <Time>2020-02-15T09:04:43.000Z</Time>
            <Position>
              <LatitudeDegrees>41.93974494002759456634521484375</LatitudeDegrees>
              <LongitudeDegrees>2.84414059482514858245849609375</LongitudeDegrees>
            </Position>
            <AltitudeMeters>123.40000152587890625</AltitudeMeters>
            <DistanceMeters>10056.08938651</DistanceMeters>
          </Trackpoint>
          <Trackpoint>
            <Time>2020-02-15T09:04:44.000Z</Time>
            <Position>
              <LatitudeDegrees>41.93974242545664310455322265625</LatitudeDegrees>
              <LongitudeDegrees>2.8441710211336612701416015625</LongitudeDegrees>
            </Position>
            <AltitudeMeters>123.59999847412109375</AltitudeMeters>
            <DistanceMeters>10058.623234247</DistanceMeters>
          </Trackpoint>
          <Trackpoint>
            <Time>2020-02-15T09:04:45.000Z</Time>
            <Position>
              <LatitudeDegrees>41.93973831832408905029296875</LatitudeDegrees>
              <LongitudeDegrees>2.8442037105560302734375</LongitudeDegrees>
            </Position>
            <AltitudeMeters>124</AltitudeMeters>
            <DistanceMeters>10061.367516257</DistanceMeters>
          </Trackpoint>
          <Trackpoint>
            <Time>2020-02-15T09:04:46.000Z</Time>
            <Position>
              <LatitudeDegrees>41.9397321157157421112060546875</LatitudeDegrees>
              <LongitudeDegrees>2.84423698671162128448486328125</LongitudeDegrees>
            </Position>
            <AltitudeMeters>124.40000152587890625</AltitudeMeters>
            <DistanceMeters>10064.205619178</DistanceMeters>
          </Trackpoint>
          <Trackpoint>
            <Time>2020-02-15T09:04:47.000Z</Time>
            <Position>
              <LatitudeDegrees>41.939725577831268310546875</LatitudeDegrees>
              <LongitudeDegrees>2.84427009522914886474609375</LongitudeDegrees>
            </Position>
            <AltitudeMeters>124.8000030517578125</AltitudeMeters>
            <DistanceMeters>10067.040538583</DistanceMeters>
          </Trackpoint>
          <Trackpoint>
            <Time>2020-02-15T09:04:48.000Z</Time>
            <Position>
              <LatitudeDegrees>41.93972113542258739471435546875</LatitudeDegrees>
              <LongitudeDegrees>2.8443037904798984527587890625</LongitudeDegrees>
            </Position>
            <AltitudeMeters>125</AltitudeMeters>
            <DistanceMeters>10069.872270895</DistanceMeters>
          </Trackpoint>
          <Trackpoint>
            <Time>2020-02-15T09:04:49.000Z</Time>
            <Position>
              <LatitudeDegrees>41.93971686065196990966796875</LatitudeDegrees>
              <LongitudeDegrees>2.84433740191161632537841796875</LongitudeDegrees>
            </Position>
            <AltitudeMeters>125</AltitudeMeters>
            <DistanceMeters>10072.694420328</DistanceMeters>
          </Trackpoint>
          <Trackpoint>
            <Time>2020-02-15T09:04:50.000Z</Time>
            <Position>
              <LatitudeDegrees>41.93971074186265468597412109375</LatitudeDegrees>
              <LongitudeDegrees>2.84436992369592189788818359375</LongitudeDegrees>
            </Position>
            <AltitudeMeters>125.1999969482421875</AltitudeMeters>
            <DistanceMeters>10075.471412457</DistanceMeters>
          </Trackpoint>
          <Trackpoint>
            <Time>2020-02-15T09:04:51.000Z</Time>
            <Position>
              <LatitudeDegrees>41.9397029466927051544189453125</LatitudeDegrees>
              <LongitudeDegrees>2.844404876232147216796875</LongitudeDegrees>
            </Position>
            <AltitudeMeters>125.59999847412109375</AltitudeMeters>
            <DistanceMeters>10078.491408683</DistanceMeters>
          </Trackpoint>
          <Trackpoint>
            <Time>2020-02-15T09:04:52.000Z</Time>
            <Position>
              <LatitudeDegrees>41.9396972469985485076904296875</LatitudeDegrees>
              <LongitudeDegrees>2.84443907439708709716796875</LongitudeDegrees>
            </Position>
            <AltitudeMeters>125.59999847412109375</AltitudeMeters>
            <DistanceMeters>10081.395559402</DistanceMeters>
          </Trackpoint>
          <Trackpoint>
            <Time>2020-02-15T09:04:53.000Z</Time>
            <Position>
              <LatitudeDegrees>41.9396938942372798919677734375</LatitudeDegrees>
              <LongitudeDegrees>2.84447218291461467742919921875</LongitudeDegrees>
            </Position>
            <AltitudeMeters>125.8000030517578125</AltitudeMeters>
            <DistanceMeters>10084.161146998</DistanceMeters>
          </Trackpoint>
          <Trackpoint>
            <Time>2020-02-15T09:04:54.000Z</Time>
            <Position>
              <LatitudeDegrees>41.9396895356476306915283203125</LatitudeDegrees>
              <LongitudeDegrees>2.84450587816536426544189453125</LongitudeDegrees>
            </Position>
            <AltitudeMeters>126</AltitudeMeters>
            <DistanceMeters>10086.994473304</DistanceMeters>
          </Trackpoint>
          <Trackpoint>
            <Time>2020-02-15T09:04:55.000Z</Time>
            <Position>
              <LatitudeDegrees>41.93968459032475948333740234375</LatitudeDegrees>
              <LongitudeDegrees>2.8445403277873992919921875</LongitudeDegrees>
            </Position>
            <AltitudeMeters>126.1999969482421875</AltitudeMeters>
            <DistanceMeters>10089.898624023</DistanceMeters>
          </Trackpoint>
          <Trackpoint>
            <Time>2020-02-15T09:04:56.000Z</Time>
            <Position>
              <LatitudeDegrees>41.93968224339187145233154296875</LatitudeDegrees>
              <LongitudeDegrees>2.84457343630492687225341796875</LongitudeDegrees>
            </Position>
            <AltitudeMeters>126.40000152587890625</AltitudeMeters>
            <DistanceMeters>10092.652759861</DistanceMeters>
          </Trackpoint>
          <Trackpoint>
            <Time>2020-02-15T09:04:57.000Z</Time>
            <Position>
              <LatitudeDegrees>41.939680315554141998291015625</LatitudeDegrees>
              <LongitudeDegrees>2.84460646100342273712158203125</LongitudeDegrees>
            </Position>
            <AltitudeMeters>126.40000152587890625</AltitudeMeters>
            <DistanceMeters>10095.395396125</DistanceMeters>
          </Trackpoint>
          <Trackpoint>
            <Time>2020-02-15T09:04:58.000Z</Time>
            <Position>
              <LatitudeDegrees>41.93967822007834911346435546875</LatitudeDegrees>
              <LongitudeDegrees>2.8446397371590137481689453125</LongitudeDegrees>
            </Position>
            <AltitudeMeters>126.59999847412109375</AltitudeMeters>
            <DistanceMeters>10098.15935066</DistanceMeters>
          </Trackpoint>
          <Trackpoint>
            <Time>2020-02-15T09:04:59.000Z</Time>
            <Position>
              <LatitudeDegrees>41.9396767951548099517822265625</LatitudeDegrees>
              <LongitudeDegrees>2.8446736000478267669677734375</LongitudeDegrees>
            </Position>
            <AltitudeMeters>126.59999847412109375</AltitudeMeters>
            <DistanceMeters>10100.968672075</DistanceMeters>
          </Trackpoint>
          <Trackpoint>
            <Time>2020-02-15T09:05:00.000Z</Time>
            <Position>
              <LatitudeDegrees>41.93967503495514392852783203125</LatitudeDegrees>
              <LongitudeDegrees>2.84470972605049610137939453125</LongitudeDegrees>
            </Position>
            <AltitudeMeters>126.8000030517578125</AltitudeMeters>
            <DistanceMeters>10103.966158699</DistanceMeters>
          </Trackpoint>
          <Trackpoint>
            <Time>2020-02-15T09:05:01.000Z</Time>
            <Position>
              <LatitudeDegrees>41.939673610031604766845703125</LatitudeDegrees>
              <LongitudeDegrees>2.8447456844151020050048828125</LongitudeDegrees>
            </Position>
            <AltitudeMeters>127</AltitudeMeters>
            <DistanceMeters>10106.948544539</DistanceMeters>
          </Trackpoint>
          <Trackpoint>
            <Time>2020-02-15T09:05:02.000Z</Time>
            <Position>
              <LatitudeDegrees>41.93967184983193874359130859375</LatitudeDegrees>
              <LongitudeDegrees>2.84478197805583477020263671875</LongitudeDegrees>
            </Position>
            <AltitudeMeters>127</AltitudeMeters>
            <DistanceMeters>10109.959557118</DistanceMeters>
          </Trackpoint>
          <Trackpoint>
            <Time>2020-02-15T09:05:03.000Z</Time>
            <Position>
              <LatitudeDegrees>41.93967084400355815887451171875</LatitudeDegrees>
              <LongitudeDegrees>2.8448191098868846893310546875</LongitudeDegrees>
            </Position>
            <AltitudeMeters>127</AltitudeMeters>
            <DistanceMeters>10113.035840608</DistanceMeters>
          </Trackpoint>
          <Trackpoint>
            <Time>2020-02-15T09:05:04.000Z</Time>
            <Position>
              <LatitudeDegrees>41.93967352621257305145263671875</LatitudeDegrees>
              <LongitudeDegrees>2.8448541462421417236328125</LongitudeDegrees>
            </Position>
            <AltitudeMeters>127.1999969482421875</AltitudeMeters>
            <DistanceMeters>10115.952402284</DistanceMeters>
          </Trackpoint>
          <Trackpoint>
            <Time>2020-02-15T09:05:05.000Z</Time>
            <Position>
              <LatitudeDegrees>41.939674951136112213134765625</LatitudeDegrees>
              <LongitudeDegrees>2.8448875062167644500732421875</LongitudeDegrees>
            </Position>
            <AltitudeMeters>127.1999969482421875</AltitudeMeters>
            <DistanceMeters>10118.717989879</DistanceMeters>
          </Trackpoint>
          <Trackpoint>
            <Time>2020-02-15T09:05:06.000Z</Time>
            <Position>
              <LatitudeDegrees>41.93967520259320735931396484375</LatitudeDegrees>
              <LongitudeDegrees>2.8449203632771968841552734375</LongitudeDegrees>
            </Position>
            <AltitudeMeters>127.40000152587890625</AltitudeMeters>
            <DistanceMeters>10121.435820362</DistanceMeters>
          </Trackpoint>
          <Trackpoint>
            <Time>2020-02-15T09:05:07.000Z</Time>
            <Position>
              <LatitudeDegrees>41.9396731071174144744873046875</LatitudeDegrees>
              <LongitudeDegrees>2.8449525497853755950927734375</LongitudeDegrees>
            </Position>
            <AltitudeMeters>127.40000152587890625</AltitudeMeters>
            <DistanceMeters>10124.110109154</DistanceMeters>
          </Trackpoint>
          <Trackpoint>
            <Time>2020-02-15T09:05:08.000Z</Time>
            <Position>
              <LatitudeDegrees>41.9396705925464630126953125</LatitudeDegrees>
              <LongitudeDegrees>2.84498180262744426727294921875</LongitudeDegrees>
            </Position>
            <AltitudeMeters>127.40000152587890625</AltitudeMeters>
            <DistanceMeters>10126.547687932</DistanceMeters>
          </Trackpoint>
          <Trackpoint>
            <Time>2020-02-15T09:05:09.000Z</Time>
            <Position>
              <LatitudeDegrees>41.93966799415647983551025390625</LatitudeDegrees>
              <LongitudeDegrees>2.84500912763178348541259765625</LongitudeDegrees>
            </Position>
            <AltitudeMeters>127.59999847412109375</AltitudeMeters>
            <DistanceMeters>10128.828329077</DistanceMeters>
          </Trackpoint>
          <Trackpoint>
            <Time>2020-02-15T09:05:10.000Z</Time>
            <Position>
              <LatitudeDegrees>41.939662881195545196533203125</LatitudeDegrees>
              <LongitudeDegrees>2.84503712318837642669677734375</LongitudeDegrees>
            </Position>
            <AltitudeMeters>127.59999847412109375</AltitudeMeters>
            <DistanceMeters>10131.213480678</DistanceMeters>
          </Trackpoint>
          <Trackpoint>
            <Time>2020-02-15T09:05:11.000Z</Time>
            <Position>
              <LatitudeDegrees>41.9396600313484668731689453125</LatitudeDegrees>
              <LongitudeDegrees>2.84506411291658878326416015625</LongitudeDegrees>
            </Position>
            <AltitudeMeters>128</AltitudeMeters>
            <DistanceMeters>10133.472239893</DistanceMeters>
          </Trackpoint>
          <Trackpoint>
            <Time>2020-02-15T09:05:12.000Z</Time>
            <Position>
              <LatitudeDegrees>41.9396598637104034423828125</LatitudeDegrees>
              <LongitudeDegrees>2.8450937010347843170166015625</LongitudeDegrees>
            </Position>
            <AltitudeMeters>128.1999969482421875</AltitudeMeters>
            <DistanceMeters>10135.924592011</DistanceMeters>
          </Trackpoint>
          <Trackpoint>
            <Time>2020-02-15T09:05:13.000Z</Time>
            <Position>
              <LatitudeDegrees>41.9396586902439594268798828125</LatitudeDegrees>
              <LongitudeDegrees>2.845123708248138427734375</LongitudeDegrees>
            </Position>
            <AltitudeMeters>128.399993896484375</AltitudeMeters>
            <DistanceMeters>10138.40986308</DistanceMeters>
          </Trackpoint>
          <Trackpoint>
            <Time>2020-02-15T09:05:14.000Z</Time>
            <Position>
              <LatitudeDegrees>41.939656846225261688232421875</LatitudeDegrees>
              <LongitudeDegrees>2.8451545536518096923828125</LongitudeDegrees>
            </Position>
            <AltitudeMeters>128.8000030517578125</AltitudeMeters>
            <DistanceMeters>10140.970299664</DistanceMeters>
          </Trackpoint>
          <Trackpoint>
            <Time>2020-02-15T09:05:15.000Z</Time>
            <Position>
              <LatitudeDegrees>41.93965542130172252655029296875</LatitudeDegrees>
              <LongitudeDegrees>2.84518497996032238006591796875</LongitudeDegrees>
            </Position>
            <AltitudeMeters>128.8000030517578125</AltitudeMeters>
            <DistanceMeters>10143.495222231</DistanceMeters>
          </Trackpoint>
          <Trackpoint>
            <Time>2020-02-15T09:05:16.000Z</Time>
            <Position>
              <LatitudeDegrees>41.93965382874011993408203125</LatitudeDegrees>
              <LongitudeDegrees>2.8452162444591522216796875</LongitudeDegrees>
            </Position>
            <AltitudeMeters>129.1999969482421875</AltitudeMeters>
            <DistanceMeters>10146.088946764</DistanceMeters>
          </Trackpoint>
          <Trackpoint>
            <Time>2020-02-15T09:05:17.000Z</Time>
            <Position>
              <LatitudeDegrees>41.93965307436883449554443359375</LatitudeDegrees>
              <LongitudeDegrees>2.845247425138950347900390625</LongitudeDegrees>
            </Position>
            <AltitudeMeters>129.399993896484375</AltitudeMeters>
            <DistanceMeters>10148.670457255</DistanceMeters>
          </Trackpoint>
          <Trackpoint>
            <Time>2020-02-15T09:05:18.000Z</Time>
            <Position>
              <LatitudeDegrees>41.93965106271207332611083984375</LatitudeDegrees>
              <LongitudeDegrees>2.84527801908552646636962890625</LongitudeDegrees>
            </Position>
            <AltitudeMeters>129.600006103515625</AltitudeMeters>
            <DistanceMeters>10151.211422555</DistanceMeters>
          </Trackpoint>
          <Trackpoint>
            <Time>2020-02-15T09:05:19.000Z</Time>
            <Position>
              <LatitudeDegrees>41.93964712321758270263671875</LatitudeDegrees>
              <LongitudeDegrees>2.84530811011791229248046875</LongitudeDegrees>
            </Position>
            <AltitudeMeters>130</AltitudeMeters>
            <DistanceMeters>10153.73991897</DistanceMeters>
          </Trackpoint>
          <Trackpoint>
            <Time>2020-02-15T09:05:20.000Z</Time>
            <Position>
              <LatitudeDegrees>41.93964368663728237152099609375</LatitudeDegrees>
              <LongitudeDegrees>2.8453394584357738494873046875</LongitudeDegrees>
            </Position>
            <AltitudeMeters>130</AltitudeMeters>
            <DistanceMeters>10156.363069414</DistanceMeters>
          </Trackpoint>
          <Trackpoint>
            <Time>2020-02-15T09:05:21.000Z</Time>
            <Position>
              <LatitudeDegrees>41.93963932804763317108154296875</LatitudeDegrees>
              <LongitudeDegrees>2.8453706391155719757080078125</LongitudeDegrees>
            </Position>
            <AltitudeMeters>130.1999969482421875</AltitudeMeters>
            <DistanceMeters>10158.989660056</DistanceMeters>
          </Trackpoint>
          <Trackpoint>
            <Time>2020-02-15T09:05:22.000Z</Time>
            <Position>
              <LatitudeDegrees>41.93963362835347652435302734375</LatitudeDegrees>
              <LongitudeDegrees>2.845397628843784332275390625</LongitudeDegrees>
            </Position>
            <AltitudeMeters>130.399993896484375</AltitudeMeters>
            <DistanceMeters>10161.31344699</DistanceMeters>
          </Trackpoint>
          <Trackpoint>
            <Time>2020-02-15T09:05:23.000Z</Time>
            <Position>
              <LatitudeDegrees>41.939626671373844146728515625</LatitudeDegrees>
              <LongitudeDegrees>2.84542302601039409637451171875</LongitudeDegrees>
            </Position>
            <AltitudeMeters>130.399993896484375</AltitudeMeters>
            <DistanceMeters>10163.554143869</DistanceMeters>
          </Trackpoint>
          <Trackpoint>
            <Time>2020-02-15T09:05:24.000Z</Time>
            <Position>
              <LatitudeDegrees>41.9396171160042285919189453125</LatitudeDegrees>
              <LongitudeDegrees>2.84544984810054302215576171875</LongitudeDegrees>
            </Position>
            <AltitudeMeters>131</AltitudeMeters>
            <DistanceMeters>10166.0156843</DistanceMeters>
          </Trackpoint>
          <Trackpoint>
            <Time>2020-02-15T09:05:25.000Z</Time>
            <Position>
              <LatitudeDegrees>41.93960689008235931396484375</LatitudeDegrees>
              <LongitudeDegrees>2.8454759158194065093994140625</LongitudeDegrees>
            </Position>
            <AltitudeMeters>131.1999969482421875</AltitudeMeters>
            <DistanceMeters>10168.456964795</DistanceMeters>
          </Trackpoint>
          <Trackpoint>
            <Time>2020-02-15T09:05:26.000Z</Time>
            <Position>
              <LatitudeDegrees>41.9395959936082363128662109375</LatitudeDegrees>
              <LongitudeDegrees>2.84550257027149200439453125</LongitudeDegrees>
            </Position>
            <AltitudeMeters>131.600006103515625</AltitudeMeters>
            <DistanceMeters>10170.976517084</DistanceMeters>
          </Trackpoint>
          <Trackpoint>
            <Time>2020-02-15T09:05:27.000Z</Time>
            <Position>
              <LatitudeDegrees>41.93958417512476444244384765625</LatitudeDegrees>
              <LongitudeDegrees>2.84553031437098979949951171875</LongitudeDegrees>
            </Position>
            <AltitudeMeters>131.8000030517578125</AltitudeMeters>
            <DistanceMeters>10173.620241572</DistanceMeters>
          </Trackpoint>
          <Trackpoint>
            <Time>2020-02-15T09:05:28.000Z</Time>
            <Position>
              <LatitudeDegrees>41.93957143463194370269775390625</LatitudeDegrees>
              <LongitudeDegrees>2.8455595672130584716796875</LongitudeDegrees>
            </Position>
            <AltitudeMeters>132</AltitudeMeters>
            <DistanceMeters>10176.426346819</DistanceMeters>
          </Trackpoint>
          <Trackpoint>
            <Time>2020-02-15T09:05:29.000Z</Time>
            <Position>
              <LatitudeDegrees>41.9395574368536472320556640625</LatitudeDegrees>
              <LongitudeDegrees>2.84558982588350772857666015625</LongitudeDegrees>
            </Position>
            <AltitudeMeters>132.399993896484375</AltitudeMeters>
            <DistanceMeters>10179.376769449</DistanceMeters>
          </Trackpoint>
          <Trackpoint>
            <Time>2020-02-15T09:05:30.000Z</Time>
            <Position>
              <LatitudeDegrees>41.9395443610846996307373046875</LatitudeDegrees>
              <LongitudeDegrees>2.84562218002974987030029296875</LongitudeDegrees>
            </Position>
            <AltitudeMeters>132.8000030517578125</AltitudeMeters>
            <DistanceMeters>10182.426520051</DistanceMeters>
          </Trackpoint>
          <Trackpoint>
            <Time>2020-02-15T09:05:31.000Z</Time>
            <Position>
              <LatitudeDegrees>41.939532123506069183349609375</LatitudeDegrees>
              <LongitudeDegrees>2.84565621055662631988525390625</LongitudeDegrees>
            </Position>
            <AltitudeMeters>133.1999969482421875</AltitudeMeters>
            <DistanceMeters>10185.55519435</DistanceMeters>
          </Trackpoint>
          <Trackpoint>
            <Time>2020-02-15T09:05:32.000Z</Time>
            <Position>
              <LatitudeDegrees>41.93952064029872417449951171875</LatitudeDegrees>
              <LongitudeDegrees>2.84568923525512218475341796875</LongitudeDegrees>
            </Position>
            <AltitudeMeters>133.399993896484375</AltitudeMeters>
            <DistanceMeters>10188.573695158</DistanceMeters>
          </Trackpoint>
          <Trackpoint>
            <Time>2020-02-15T09:05:35.000Z</Time>
            <Position>
              <LatitudeDegrees>41.93949935026466846466064453125</LatitudeDegrees>
              <LongitudeDegrees>2.845793254673480987548828125</LongitudeDegrees>
            </Position>
            <AltitudeMeters>134</AltitudeMeters>
            <DistanceMeters>10197.506206309</DistanceMeters>
          </Trackpoint>
          <Trackpoint>
            <Time>2020-02-15T09:05:37.000Z</Time>
            <Position>
              <LatitudeDegrees>41.9395068101584911346435546875</LatitudeDegrees>
              <LongitudeDegrees>2.8458641655743122100830078125</LongitudeDegrees>
            </Position>
            <AltitudeMeters>134.399993896484375</AltitudeMeters>
            <DistanceMeters>10203.435294569</DistanceMeters>
          </Trackpoint>
          <Trackpoint>
            <Time>2020-02-15T09:05:38.000Z</Time>
            <Position>
              <LatitudeDegrees>41.9395178742706775665283203125</LatitudeDegrees>
              <LongitudeDegrees>2.84589819610118865966796875</LongitudeDegrees>
            </Position>
            <AltitudeMeters>134.399993896484375</AltitudeMeters>
            <DistanceMeters>10206.510110017</DistanceMeters>
          </Trackpoint>
          <Trackpoint>
            <Time>2020-02-15T09:05:39.000Z</Time>
            <Position>
              <LatitudeDegrees>41.93953338079154491424560546875</LatitudeDegrees>
              <LongitudeDegrees>2.84593038260936737060546875</LongitudeDegrees>
            </Position>
            <AltitudeMeters>134.399993896484375</AltitudeMeters>
            <DistanceMeters>10209.68462814</DistanceMeters>
          </Trackpoint>
          <Trackpoint>
            <Time>2020-02-15T09:05:40.000Z</Time>
            <Position>
              <LatitudeDegrees>41.939551569521427154541015625</LatitudeDegrees>
              <LongitudeDegrees>2.84596080891788005828857421875</LongitudeDegrees>
            </Position>
            <AltitudeMeters>134.600006103515625</AltitudeMeters>
            <DistanceMeters>10212.915536428</DistanceMeters>
          </Trackpoint>
          <Trackpoint>
            <Time>2020-02-15T09:05:42.000Z</Time>
            <Position>
              <LatitudeDegrees>41.93959188647568225860595703125</LatitudeDegrees>
              <LongitudeDegrees>2.84601881168782711029052734375</LongitudeDegrees>
            </Position>
            <AltitudeMeters>134.600006103515625</AltitudeMeters>
            <DistanceMeters>10219.488198424</DistanceMeters>
          </Trackpoint>
          <Trackpoint>
            <Time>2020-02-15T09:05:44.000Z</Time>
            <Position>
              <LatitudeDegrees>41.93963396362960338592529296875</LatitudeDegrees>
              <LongitudeDegrees>2.84607949666678905487060546875</LongitudeDegrees>
            </Position>
            <AltitudeMeters>134.600006103515625</AltitudeMeters>
            <DistanceMeters>10226.356467445</DistanceMeters>
          </Trackpoint>
          <Trackpoint>
            <Time>2020-02-15T09:05:46.000Z</Time>
            <Position>
              <LatitudeDegrees>41.9396741129457950592041015625</LatitudeDegrees>
              <LongitudeDegrees>2.846138589084148406982421875</LongitudeDegrees>
            </Position>
            <AltitudeMeters>134.8000030517578125</AltitudeMeters>
            <DistanceMeters>10232.981812839</DistanceMeters>
          </Trackpoint>
          <Trackpoint>
            <Time>2020-02-15T09:05:47.000Z</Time>
            <Position>
              <LatitudeDegrees>41.93969070911407470703125</LatitudeDegrees>
              <LongitudeDegrees>2.846171446144580841064453125</LongitudeDegrees>
            </Position>
            <AltitudeMeters>134.8000030517578125</AltitudeMeters>
            <DistanceMeters>10236.269517434</DistanceMeters>
          </Trackpoint>
          <Trackpoint>
            <Time>2020-02-15T09:05:48.000Z</Time>
            <Position>
              <LatitudeDegrees>41.93970470689237117767333984375</LatitudeDegrees>
              <LongitudeDegrees>2.8462058119475841522216796875</LongitudeDegrees>
            </Position>
            <AltitudeMeters>134.8000030517578125</AltitudeMeters>
            <DistanceMeters>10239.512978403</DistanceMeters>
          </Trackpoint>
          <Trackpoint>
            <Time>2020-02-15T09:05:49.000Z</Time>
            <Position>
              <LatitudeDegrees>41.93971795029938220977783203125</LatitudeDegrees>
              <LongitudeDegrees>2.84624076448380947113037109375</LongitudeDegrees>
            </Position>
            <AltitudeMeters>134.600006103515625</AltitudeMeters>
            <DistanceMeters>10242.760612817</DistanceMeters>
          </Trackpoint>
          <Trackpoint>
            <Time>2020-02-15T09:05:50.000Z</Time>
            <Position>
              <LatitudeDegrees>41.93973169662058353424072265625</LatitudeDegrees>
              <LongitudeDegrees>2.8462762199342250823974609375</LongitudeDegrees>
            </Position>
            <AltitudeMeters>134.8000030517578125</AltitudeMeters>
            <DistanceMeters>10246.071581376</DistanceMeters>
          </Trackpoint>
          <Trackpoint>
            <Time>2020-02-15T09:05:51.000Z</Time>
            <Position>
              <LatitudeDegrees>41.93974376656115055084228515625</LatitudeDegrees>
              <LongitudeDegrees>2.84631201066076755523681640625</LongitudeDegrees>
            </Position>
            <AltitudeMeters>135</AltitudeMeters>
            <DistanceMeters>10249.324772055</DistanceMeters>
          </Trackpoint>
          <Trackpoint>
            <Time>2020-02-15T09:05:52.000Z</Time>
            <Position>
              <LatitudeDegrees>41.93975432775914669036865234375</LatitudeDegrees>
              <LongitudeDegrees>2.84634872339665889739990234375</LongitudeDegrees>
            </Position>
            <AltitudeMeters>135</AltitudeMeters>
            <DistanceMeters>10252.583509525</DistanceMeters>
          </Trackpoint>
          <Trackpoint>
            <Time>2020-02-15T09:05:53.000Z</Time>
            <Position>
              <LatitudeDegrees>41.93976354785263538360595703125</LatitudeDegrees>
              <LongitudeDegrees>2.84638728015124797821044921875</LongitudeDegrees>
            </Position>
            <AltitudeMeters>135.1999969482421875</AltitudeMeters>
            <DistanceMeters>10255.935138248</DistanceMeters>
          </Trackpoint>
          <Trackpoint>
            <Time>2020-02-15T09:05:54.000Z</Time>
            <Position>
              <LatitudeDegrees>41.93977226503193378448486328125</LatitudeDegrees>
              <LongitudeDegrees>2.846427261829376220703125</LongitudeDegrees>
            </Position>
            <AltitudeMeters>135.1999969482421875</AltitudeMeters>
            <DistanceMeters>10259.385013717</DistanceMeters>
          </Trackpoint>
          <Trackpoint>
            <Time>2020-02-15T09:05:55.000Z</Time>
            <Position>
              <LatitudeDegrees>41.93977980874478816986083984375</LatitudeDegrees>
              <LongitudeDegrees>2.84646556712687015533447265625</LongitudeDegrees>
            </Position>
            <AltitudeMeters>135.1999969482421875</AltitudeMeters>
            <DistanceMeters>10262.667220475</DistanceMeters>
          </Trackpoint>
          <Trackpoint>
            <Time>2020-02-15T09:05:56.000Z</Time>
            <Position>
              <LatitudeDegrees>41.9397867657244205474853515625</LatitudeDegrees>
              <LongitudeDegrees>2.84650395624339580535888671875</LongitudeDegrees>
            </Position>
            <AltitudeMeters>135.600006103515625</AltitudeMeters>
            <DistanceMeters>10265.939783791</DistanceMeters>
          </Trackpoint>
          <Trackpoint>
            <Time>2020-02-15T09:05:57.000Z</Time>
            <Position>
              <LatitudeDegrees>41.93979321978986263275146484375</LatitudeDegrees>
              <LongitudeDegrees>2.84654234535992145538330078125</LongitudeDegrees>
            </Position>
            <AltitudeMeters>135.600006103515625</AltitudeMeters>
            <DistanceMeters>10269.198521261</DistanceMeters>
          </Trackpoint>
          <Trackpoint>
            <Time>2020-02-15T09:05:58.000Z</Time>
            <Position>
              <LatitudeDegrees>41.939801014959812164306640625</LatitudeDegrees>
              <LongitudeDegrees>2.8465786390006542205810546875</LongitudeDegrees>
            </Position>
            <AltitudeMeters>135.8000030517578125</AltitudeMeters>
            <DistanceMeters>10272.32719556</DistanceMeters>
          </Trackpoint>
          <Trackpoint>
            <Time>2020-02-15T09:05:59.000Z</Time>
            <Position>
              <LatitudeDegrees>41.93981132470071315765380859375</LatitudeDegrees>
              <LongitudeDegrees>2.84660956822335720062255859375</LongitudeDegrees>
            </Position>
            <AltitudeMeters>136</AltitudeMeters>
            <DistanceMeters>10275.133300807</DistanceMeters>
          </Trackpoint>
          <Trackpoint>
            <Time>2020-02-15T09:06:00.000Z</Time>
            <Position>
              <LatitudeDegrees>41.93982389755547046661376953125</LatitudeDegrees>
              <LongitudeDegrees>2.846636138856410980224609375</LongitudeDegrees>
            </Position>
            <AltitudeMeters>136.1999969482421875</AltitudeMeters>
            <DistanceMeters>10277.739182133</DistanceMeters>
          </Trackpoint>
          <Trackpoint>
            <Time>2020-02-15T09:06:01.000Z</Time>
            <Position>
              <LatitudeDegrees>41.9398333691060543060302734375</LatitudeDegrees>
              <LongitudeDegrees>2.84665885381400585174560546875</LongitudeDegrees>
            </Position>
            <AltitudeMeters>136.399993896484375</AltitudeMeters>
            <DistanceMeters>10279.893586759</DistanceMeters>
          </Trackpoint>
          <Trackpoint>
            <Time>2020-02-15T09:06:02.000Z</Time>
            <Position>
              <LatitudeDegrees>41.93983814679086208343505859375</LatitudeDegrees>
              <LongitudeDegrees>2.84667662344872951507568359375</LongitudeDegrees>
            </Position>
            <AltitudeMeters>136.399993896484375</AltitudeMeters>
            <DistanceMeters>10281.460807481</DistanceMeters>
          </Trackpoint>
          <Trackpoint>
            <Time>2020-02-15T09:06:03.000Z</Time>
            <Position>
              <LatitudeDegrees>41.9398437626659870147705078125</LatitudeDegrees>
              <LongitudeDegrees>2.84669171087443828582763671875</LongitudeDegrees>
            </Position>
            <AltitudeMeters>136.399993896484375</AltitudeMeters>
            <DistanceMeters>10282.857409254</DistanceMeters>
          </Trackpoint>
          <Trackpoint>
            <Time>2020-02-15T09:06:04.000Z</Time>
            <Position>
              <LatitudeDegrees>41.93985038436949253082275390625</LatitudeDegrees>
              <LongitudeDegrees>2.84670361317694187164306640625</LongitudeDegrees>
            </Position>
            <AltitudeMeters>136.600006103515625</AltitudeMeters>
            <DistanceMeters>10284.085425038</DistanceMeters>
          </Trackpoint>
          <Trackpoint>
            <Time>2020-02-15T09:06:05.000Z</Time>
            <Position>
              <LatitudeDegrees>41.9398558326065540313720703125</LatitudeDegrees>
              <LongitudeDegrees>2.8467164374887943267822265625</LongitudeDegrees>
            </Position>
            <AltitudeMeters>136.8000030517578125</AltitudeMeters>
            <DistanceMeters>10285.306065286</DistanceMeters>
          </Trackpoint>
          <Trackpoint>
            <Time>2020-02-15T09:06:06.000Z</Time>
            <Position>
              <LatitudeDegrees>41.93985993973910808563232421875</LatitudeDegrees>
              <LongitudeDegrees>2.846729345619678497314453125</LongitudeDegrees>
            </Position>
            <AltitudeMeters>136.8000030517578125</AltitudeMeters>
            <DistanceMeters>10286.469900096</DistanceMeters>
          </Trackpoint>
          <Trackpoint>
            <Time>2020-02-15T09:06:07.000Z</Time>
            <Position>
              <LatitudeDegrees>41.9398663938045501708984375</LatitudeDegrees>
              <LongitudeDegrees>2.84673915244638919830322265625</LongitudeDegrees>
            </Position>
            <AltitudeMeters>137.1999969482421875</AltitudeMeters>
            <DistanceMeters>10287.553371341</DistanceMeters>
          </Trackpoint>
          <Trackpoint>
            <Time>2020-02-15T09:06:08.000Z</Time>
            <Position>
              <LatitudeDegrees>41.93987670354545116424560546875</LatitudeDegrees>
              <LongitudeDegrees>2.8467477858066558837890625</LongitudeDegrees>
            </Position>
            <AltitudeMeters>137.399993896484375</AltitudeMeters>
            <DistanceMeters>10288.903954712</DistanceMeters>
          </Trackpoint>
          <Trackpoint>
            <Time>2020-02-15T09:06:09.000Z</Time>
            <Position>
              <LatitudeDegrees>41.93988609127700328826904296875</LatitudeDegrees>
              <LongitudeDegrees>2.846759855747222900390625</LongitudeDegrees>
            </Position>
            <AltitudeMeters>137.600006103515625</AltitudeMeters>
            <DistanceMeters>10290.351358503</DistanceMeters>
          </Trackpoint>
          <Trackpoint>
            <Time>2020-02-15T09:06:10.000Z</Time>
            <Position>
              <LatitudeDegrees>41.93989313207566738128662109375</LatitudeDegrees>
              <LongitudeDegrees>2.84677385352551937103271484375</LongitudeDegrees>
            </Position>
            <AltitudeMeters>137.8000030517578125</AltitudeMeters>
            <DistanceMeters>10291.751189417</DistanceMeters>
          </Trackpoint>
          <Trackpoint>
            <Time>2020-02-15T09:06:11.000Z</Time>
            <Position>
              <LatitudeDegrees>41.93990101106464862823486328125</LatitudeDegrees>
              <LongitudeDegrees>2.84678860567510128021240234375</LongitudeDegrees>
            </Position>
            <AltitudeMeters>138</AltitudeMeters>
            <DistanceMeters>10293.256695707</DistanceMeters>
          </Trackpoint>
          <Trackpoint>
            <Time>2020-02-15T09:06:12.000Z</Time>
            <Position>
              <LatitudeDegrees>41.93990805186331272125244140625</LatitudeDegrees>
              <LongitudeDegrees>2.8468039445579051971435546875</LongitudeDegrees>
            </Position>
            <AltitudeMeters>138.1999969482421875</AltitudeMeters>
            <DistanceMeters>10294.753177901</DistanceMeters>
          </Trackpoint>
          <Trackpoint>
            <Time>2020-02-15T09:06:13.000Z</Time>
            <Position>
              <LatitudeDegrees>41.9399148412048816680908203125</LatitudeDegrees>
              <LongitudeDegrees>2.84682112745940685272216796875</LongitudeDegrees>
            </Position>
            <AltitudeMeters>138.1999969482421875</AltitudeMeters>
            <DistanceMeters>10296.36583472</DistanceMeters>
          </Trackpoint>
          <Trackpoint>
            <Time>2020-02-15T09:06:14.000Z</Time>
            <Position>
              <LatitudeDegrees>41.93992196582257747650146484375</LatitudeDegrees>
              <LongitudeDegrees>2.84683755598962306976318359375</LongitudeDegrees>
            </Position>
            <AltitudeMeters>138.1999969482421875</AltitudeMeters>
            <DistanceMeters>10297.941674503</DistanceMeters>
          </Trackpoint>
          <Trackpoint>
            <Time>2020-02-15T09:06:15.000Z</Time>
            <Position>
              <LatitudeDegrees>41.939929760992527008056640625</LatitudeDegrees>
              <LongitudeDegrees>2.84685314632952213287353515625</LongitudeDegrees>
            </Position>
            <AltitudeMeters>138.600006103515625</AltitudeMeters>
            <DistanceMeters>10299.497328863</DistanceMeters>
          </Trackpoint>
          <Trackpoint>
            <Time>2020-02-15T09:06:16.000Z</Time>
            <Position>
              <LatitudeDegrees>41.93993889726698398590087890625</LatitudeDegrees>
              <LongitudeDegrees>2.84686773084104061126708984375</LongitudeDegrees>
            </Position>
            <AltitudeMeters>138.600006103515625</AltitudeMeters>
            <DistanceMeters>10301.076031209</DistanceMeters>
          </Trackpoint>
          <Trackpoint>
            <Time>2020-02-15T09:06:17.000Z</Time>
            <Position>
              <LatitudeDegrees>41.93995113484561443328857421875</LatitudeDegrees>
              <LongitudeDegrees>2.8468834049999713897705078125</LongitudeDegrees>
            </Position>
            <AltitudeMeters>138.8000030517578125</AltitudeMeters>
            <DistanceMeters>10302.955062845</DistanceMeters>
          </Trackpoint>
          <Trackpoint>
            <Time>2020-02-15T09:06:18.000Z</Time>
            <Position>
              <LatitudeDegrees>41.9399629533290863037109375</LatitudeDegrees>
              <LongitudeDegrees>2.8468991629779338836669921875</LongitudeDegrees>
            </Position>
            <AltitudeMeters>139</AltitudeMeters>
            <DistanceMeters>10304.809910312</DistanceMeters>
          </Trackpoint>
          <Trackpoint>
            <Time>2020-02-15T09:06:19.000Z</Time>
            <Position>
              <LatitudeDegrees>41.93997812457382678985595703125</LatitudeDegrees>
              <LongitudeDegrees>2.8469162620604038238525390625</LongitudeDegrees>
            </Position>
            <AltitudeMeters>139</AltitudeMeters>
            <DistanceMeters>10307.014038513</DistanceMeters>
          </Trackpoint>
          <Trackpoint>
            <Time>2020-02-15T09:06:20.000Z</Time>
            <Position>
              <LatitudeDegrees>41.93999304436147212982177734375</LatitudeDegrees>
              <LongitudeDegrees>2.8469355404376983642578125</LongitudeDegrees>
            </Position>
            <AltitudeMeters>139.1999969482421875</AltitudeMeters>
            <DistanceMeters>10309.318313877</DistanceMeters>
          </Trackpoint>
          <Trackpoint>
            <Time>2020-02-15T09:06:21.000Z</Time>
            <Position>
              <LatitudeDegrees>41.94000922143459320068359375</LatitudeDegrees>
              <LongitudeDegrees>2.84695523791015148162841796875</LongitudeDegrees>
            </Position>
            <AltitudeMeters>139.399993896484375</AltitudeMeters>
            <DistanceMeters>10311.748472306</DistanceMeters>
          </Trackpoint>
          <Trackpoint>
            <Time>2020-02-15T09:06:22.000Z</Time>
            <Position>
              <LatitudeDegrees>41.94002397358417510986328125</LatitudeDegrees>
              <LongitudeDegrees>2.84697351045906543731689453125</LongitudeDegrees>
            </Position>
            <AltitudeMeters>139.600006103515625</AltitudeMeters>
            <DistanceMeters>10313.981094576</DistanceMeters>
          </Trackpoint>
          <Trackpoint>
            <Time>2020-02-15T09:06:23.000Z</Time>
            <Position>
              <LatitudeDegrees>41.94003880955278873443603515625</LatitudeDegrees>
              <LongitudeDegrees>2.84699178300797939300537109375</LongitudeDegrees>
            </Position>
            <AltitudeMeters>139.8000030517578125</AltitudeMeters>
            <DistanceMeters>10316.217757793</DistanceMeters>
          </Trackpoint>
          <Trackpoint>
            <Time>2020-02-15T09:06:24.000Z</Time>
            <Position>
              <LatitudeDegrees>41.94005339406430721282958984375</LatitudeDegrees>
              <LongitudeDegrees>2.8470087982714176177978515625</LongitudeDegrees>
            </Position>
            <AltitudeMeters>139.8000030517578125</AltitudeMeters>
            <DistanceMeters>10318.367966885</DistanceMeters>
          </Trackpoint>
          <Trackpoint>
            <Time>2020-02-15T09:06:25.000Z</Time>
            <Position>
              <LatitudeDegrees>41.940064541995525360107421875</LatitudeDegrees>
              <LongitudeDegrees>2.847028076648712158203125</LongitudeDegrees>
            </Position>
            <AltitudeMeters>140.1999969482421875</AltitudeMeters>
            <DistanceMeters>10320.388262545</DistanceMeters>
          </Trackpoint>
          <Trackpoint>
            <Time>2020-02-15T09:06:26.000Z</Time>
            <Position>
              <LatitudeDegrees>41.9400670565664768218994140625</LatitudeDegrees>
              <LongitudeDegrees>2.84704693593084812164306640625</LongitudeDegrees>
            </Position>
            <AltitudeMeters>140.399993896484375</AltitudeMeters>
            <DistanceMeters>10321.972674503</DistanceMeters>
          </Trackpoint>
          <Trackpoint>
            <Time>2020-02-15T09:06:27.000Z</Time>
            <Position>
              <LatitudeDegrees>41.940063200891017913818359375</LatitudeDegrees>
              <LongitudeDegrees>2.847062610089778900146484375</LongitudeDegrees>
            </Position>
            <AltitudeMeters>140.600006103515625</AltitudeMeters>
            <DistanceMeters>10323.336564435</DistanceMeters>
          </Trackpoint>
          <Trackpoint>
            <Time>2020-02-15T09:06:28.000Z</Time>
            <Position>
              <LatitudeDegrees>41.9400568306446075439453125</LatitudeDegrees>
              <LongitudeDegrees>2.84707040525972843170166015625</LongitudeDegrees>
            </Position>
            <AltitudeMeters>140.8000030517578125</AltitudeMeters>
            <DistanceMeters>10324.296287206</DistanceMeters>
          </Trackpoint>
          <Trackpoint>
            <Time>2020-02-15T09:06:29.000Z</Time>
            <Position>
              <LatitudeDegrees>41.94005004130303859710693359375</LatitudeDegrees>
              <LongitudeDegrees>2.84706495702266693115234375</LongitudeDegrees>
            </Position>
            <AltitudeMeters>141.1999969482421875</AltitudeMeters>
            <DistanceMeters>10325.177528702</DistanceMeters>
          </Trackpoint>
          <Trackpoint>
            <Time>2020-02-15T09:06:30.000Z</Time>
            <Position>
              <LatitudeDegrees>41.94004601798951625823974609375</LatitudeDegrees>
              <LongitudeDegrees>2.84705582074820995330810546875</LongitudeDegrees>
            </Position>
            <AltitudeMeters>141.600006103515625</AltitudeMeters>
            <DistanceMeters>10326.058770198</DistanceMeters>
          </Trackpoint>
          <Trackpoint>
            <Time>2020-02-15T09:06:31.000Z</Time>
            <Position>
              <LatitudeDegrees>41.94004383869469165802001953125</LatitudeDegrees>
              <LongitudeDegrees>2.8470473550260066986083984375</LongitudeDegrees>
            </Position>
            <AltitudeMeters>142</AltitudeMeters>
            <DistanceMeters>10326.794843962</DistanceMeters>
          </Trackpoint>
          <Trackpoint>
            <Time>2020-02-15T09:06:32.000Z</Time>
            <Position>
              <LatitudeDegrees>41.94004434160888195037841796875</LatitudeDegrees>
              <LongitudeDegrees>2.84704978577792644500732421875</LongitudeDegrees>
            </Position>
            <AltitudeMeters>142.399993896484375</AltitudeMeters>
            <DistanceMeters>10326.984897391</DistanceMeters>
          </Trackpoint>
          <Trackpoint>
            <Time>2020-02-15T09:06:35.000Z</Time>
            <Position>
              <LatitudeDegrees>41.94004300050437450408935546875</LatitudeDegrees>
              <LongitudeDegrees>2.84704861231148242950439453125</LongitudeDegrees>
            </Position>
            <AltitudeMeters>143.1999969482421875</AltitudeMeters>
            <DistanceMeters>10327.17495082</DistanceMeters>
          </Trackpoint>
          <Trackpoint>
            <Time>2020-02-15T09:06:41.000Z</Time>
            <Position>
              <LatitudeDegrees>41.9400419108569622039794921875</LatitudeDegrees>
              <LongitudeDegrees>2.8470490314066410064697265625</LongitudeDegrees>
            </Position>
            <AltitudeMeters>143.1999969482421875</AltitudeMeters>
            <DistanceMeters>10327.309338888</DistanceMeters>
          </Trackpoint>
          <Trackpoint>
            <Time>2020-02-15T09:06:43.000Z</Time>
            <Position>
              <LatitudeDegrees>41.94004199467599391937255859375</LatitudeDegrees>
              <LongitudeDegrees>2.847049199044704437255859375</LongitudeDegrees>
            </Position>
            <AltitudeMeters>143.1999969482421875</AltitudeMeters>
            <DistanceMeters>10327.309338888</DistanceMeters>
          </Trackpoint>
          <Trackpoint>
            <Time>2020-02-15T09:06:48.000Z</Time>
            <Position>
              <LatitudeDegrees>41.94004232995212078094482421875</LatitudeDegrees>
              <LongitudeDegrees>2.847049534320831298828125</LongitudeDegrees>
            </Position>
            <AltitudeMeters>143.1999969482421875</AltitudeMeters>
            <DistanceMeters>10327.309338888</DistanceMeters>
          </Trackpoint>
          <Trackpoint>
            <Time>2020-02-15T09:06:49.000Z</Time>
            <Position>
              <LatitudeDegrees>41.94004249759018421173095703125</LatitudeDegrees>
              <LongitudeDegrees>2.8470497019588947296142578125</LongitudeDegrees>
            </Position>
            <AltitudeMeters>143.1999969482421875</AltitudeMeters>
            <DistanceMeters>10327.309338888</DistanceMeters>
          </Trackpoint>
          <Trackpoint>
            <Time>2020-02-15T09:06:51.000Z</Time>
            <Position>
              <LatitudeDegrees>41.94004266522824764251708984375</LatitudeDegrees>
              <LongitudeDegrees>2.84704961813986301422119140625</LongitudeDegrees>
            </Position>
            <AltitudeMeters>143.399993896484375</AltitudeMeters>
            <DistanceMeters>10327.309338888</DistanceMeters>
          </Trackpoint>
          <Trackpoint>
            <Time>2020-02-15T09:06:56.000Z</Time>
            <Position>
              <LatitudeDegrees>41.94004283286631107330322265625</LatitudeDegrees>
              <LongitudeDegrees>2.8470500372350215911865234375</LongitudeDegrees>
            </Position>
            <AltitudeMeters>143.1999969482421875</AltitudeMeters>
            <DistanceMeters>10327.309338888</DistanceMeters>
          </Trackpoint>
          <Trackpoint>
            <Time>2020-02-15T09:07:00.000Z</Time>
            <Position>
              <LatitudeDegrees>41.9400425814092159271240234375</LatitudeDegrees>
              <LongitudeDegrees>2.84705020487308502197265625</LongitudeDegrees>
            </Position>
            <AltitudeMeters>143.1999969482421875</AltitudeMeters>
            <DistanceMeters>10327.309338888</DistanceMeters>
          </Trackpoint>
          <Trackpoint>
            <Time>2020-02-15T09:07:02.000Z</Time>
            <Position>
              <LatitudeDegrees>41.940042413771152496337890625</LatitudeDegrees>
              <LongitudeDegrees>2.84705012105405330657958984375</LongitudeDegrees>
            </Position>
            <AltitudeMeters>143.1999969482421875</AltitudeMeters>
            <DistanceMeters>10327.404365603</DistanceMeters>
          </Trackpoint>
          <Trackpoint>
            <Time>2020-02-15T09:07:12.000Z</Time>
            <Position>
              <LatitudeDegrees>41.940042413771152496337890625</LatitudeDegrees>
              <LongitudeDegrees>2.84705020487308502197265625</LongitudeDegrees>
            </Position>
            <AltitudeMeters>143.1999969482421875</AltitudeMeters>
            <DistanceMeters>10327.499392317</DistanceMeters>
          </Trackpoint>
          <Trackpoint>
            <Time>2020-02-15T09:07:13.000Z</Time>
            <Position>
              <LatitudeDegrees>41.940042413771152496337890625</LatitudeDegrees>
              <LongitudeDegrees>2.84705012105405330657958984375</LongitudeDegrees>
            </Position>
            <AltitudeMeters>143.399993896484375</AltitudeMeters>
            <DistanceMeters>10327.594419031</DistanceMeters>
          </Trackpoint>
          <Trackpoint>
            <Time>2020-02-15T09:07:16.000Z</Time>
            <Position>
              <LatitudeDegrees>41.94004232995212078094482421875</LatitudeDegrees>
              <LongitudeDegrees>2.84705012105405330657958984375</LongitudeDegrees>
            </Position>
            <AltitudeMeters>143.399993896484375</AltitudeMeters>
            <DistanceMeters>10327.689445746</DistanceMeters>
          </Trackpoint>
          <Trackpoint>
            <Time>2020-02-15T09:07:18.000Z</Time>
            <Position>
              <LatitudeDegrees>41.9400422461330890655517578125</LatitudeDegrees>
              <LongitudeDegrees>2.8470500372350215911865234375</LongitudeDegrees>
            </Position>
            <AltitudeMeters>143.399993896484375</AltitudeMeters>
            <DistanceMeters>10327.689445746</DistanceMeters>
          </Trackpoint>
          <Trackpoint>
            <Time>2020-02-15T09:07:21.000Z</Time>
            <Position>
              <LatitudeDegrees>41.94004216231405735015869140625</LatitudeDegrees>
              <LongitudeDegrees>2.84705020487308502197265625</LongitudeDegrees>
            </Position>
            <AltitudeMeters>143.1999969482421875</AltitudeMeters>
            <DistanceMeters>10327.689445746</DistanceMeters>
          </Trackpoint>
          <Trackpoint>
            <Time>2020-02-15T09:07:36.000Z</Time>
            <Position>
              <LatitudeDegrees>41.94004216231405735015869140625</LatitudeDegrees>
              <LongitudeDegrees>2.84705112688243389129638671875</LongitudeDegrees>
            </Position>
            <AltitudeMeters>143</AltitudeMeters>
            <DistanceMeters>10327.78447246</DistanceMeters>
          </Trackpoint>
          <Trackpoint>
            <Time>2020-02-15T09:07:42.000Z</Time>
            <Position>
              <LatitudeDegrees>41.94002757780253887176513671875</LatitudeDegrees>
              <LongitudeDegrees>2.84702246077358722686767578125</LongitudeDegrees>
            </Position>
            <AltitudeMeters>143</AltitudeMeters>
            <DistanceMeters>10330.660502714</DistanceMeters>
          </Trackpoint>
          <Trackpoint>
            <Time>2020-02-15T09:07:43.000Z</Time>
            <Position>
              <LatitudeDegrees>41.9400130771100521087646484375</LatitudeDegrees>
              <LongitudeDegrees>2.846999578177928924560546875</LongitudeDegrees>
            </Position>
            <AltitudeMeters>143</AltitudeMeters>
            <DistanceMeters>10333.149404568</DistanceMeters>
          </Trackpoint>
          <Trackpoint>
            <Time>2020-02-15T09:07:44.000Z</Time>
            <Position>
              <LatitudeDegrees>41.939993798732757568359375</LatitudeDegrees>
              <LongitudeDegrees>2.84696881659328937530517578125</LongitudeDegrees>
            </Position>
            <AltitudeMeters>143</AltitudeMeters>
            <DistanceMeters>10336.478053513</DistanceMeters>
          </Trackpoint>
          <Trackpoint>
            <Time>2020-02-15T09:07:45.000Z</Time>
            <Position>
              <LatitudeDegrees>41.93996756337583065032958984375</LatitudeDegrees>
              <LongitudeDegrees>2.84692950546741485595703125</LongitudeDegrees>
            </Position>
            <AltitudeMeters>143</AltitudeMeters>
            <DistanceMeters>10340.851347684</DistanceMeters>
          </Trackpoint>
          <Trackpoint>
            <Time>2020-02-15T09:07:46.000Z</Time>
            <Position>
              <LatitudeDegrees>41.93993487395346164703369140625</LatitudeDegrees>
              <LongitudeDegrees>2.84688164480030536651611328125</LongitudeDegrees>
            </Position>
            <AltitudeMeters>143</AltitudeMeters>
            <DistanceMeters>10346.230229067</DistanceMeters>
          </Trackpoint>
          <Trackpoint>
            <Time>2020-02-15T09:07:47.000Z</Time>
            <Position>
              <LatitudeDegrees>41.9399021007120609283447265625</LatitudeDegrees>
              <LongitudeDegrees>2.8468257375061511993408203125</LongitudeDegrees>
            </Position>
            <AltitudeMeters>143</AltitudeMeters>
            <DistanceMeters>10352.123417847</DistanceMeters>
          </Trackpoint>
          <Trackpoint>
            <Time>2020-02-15T09:07:48.000Z</Time>
            <Position>
              <LatitudeDegrees>41.93987452425062656402587890625</LatitudeDegrees>
              <LongitudeDegrees>2.84676714800298213958740234375</LongitudeDegrees>
            </Position>
            <AltitudeMeters>143</AltitudeMeters>
            <DistanceMeters>10357.86447864</DistanceMeters>
          </Trackpoint>
          <Trackpoint>
            <Time>2020-02-15T09:07:49.000Z</Time>
            <Position>
              <LatitudeDegrees>41.9398494623601436614990234375</LatitudeDegrees>
              <LongitudeDegrees>2.84671601839363574981689453125</LongitudeDegrees>
            </Position>
            <AltitudeMeters>143</AltitudeMeters>
            <DistanceMeters>10362.93395569</DistanceMeters>
          </Trackpoint>
          <Trackpoint>
            <Time>2020-02-15T09:07:50.000Z</Time>
            <Position>
              <LatitudeDegrees>41.93982775323092937469482421875</LatitudeDegrees>
              <LongitudeDegrees>2.8466741926968097686767578125</LongitudeDegrees>
            </Position>
            <AltitudeMeters>143</AltitudeMeters>
            <DistanceMeters>10367.155965981</DistanceMeters>
          </Trackpoint>
          <Trackpoint>
            <Time>2020-02-15T09:07:51.000Z</Time>
            <Position>
              <LatitudeDegrees>41.93981367163360118865966796875</LatitudeDegrees>
              <LongitudeDegrees>2.84664309583604335784912109375</LongitudeDegrees>
            </Position>
            <AltitudeMeters>143</AltitudeMeters>
            <DistanceMeters>10370.169976084</DistanceMeters>
          </Trackpoint>
          <Trackpoint>
            <Time>2020-02-15T09:07:52.000Z</Time>
            <Position>
              <LatitudeDegrees>41.93980805575847625732421875</LatitudeDegrees>
              <LongitudeDegrees>2.84662549383938312530517578125</LongitudeDegrees>
            </Position>
            <AltitudeMeters>143</AltitudeMeters>
            <DistanceMeters>10371.754388042</DistanceMeters>
          </Trackpoint>
          <Trackpoint>
            <Time>2020-02-15T09:07:53.000Z</Time>
            <Position>
              <LatitudeDegrees>41.9398072175681591033935546875</LatitudeDegrees>
              <LongitudeDegrees>2.84661828540265560150146484375</LongitudeDegrees>
            </Position>
            <AltitudeMeters>143</AltitudeMeters>
            <DistanceMeters>10372.355389754</DistanceMeters>
          </Trackpoint>
          <Trackpoint>
            <Time>2020-02-15T09:07:55.000Z</Time>
            <Position>
              <LatitudeDegrees>41.9398073852062225341796875</LatitudeDegrees>
              <LongitudeDegrees>2.846618704497814178466796875</LongitudeDegrees>
            </Position>
            <AltitudeMeters>142.1999969482421875</AltitudeMeters>
            <DistanceMeters>10372.355389754</DistanceMeters>
          </Trackpoint>
          <Trackpoint>
            <Time>2020-02-15T09:07:58.000Z</Time>
            <Position>
              <LatitudeDegrees>41.9398139230906963348388671875</LatitudeDegrees>
              <LongitudeDegrees>2.84662105143070220947265625</LongitudeDegrees>
            </Position>
            <AltitudeMeters>140</AltitudeMeters>
            <DistanceMeters>10373.103630851</DistanceMeters>
          </Trackpoint>
          <Trackpoint>
            <Time>2020-02-15T09:08:02.000Z</Time>
            <Position>
              <LatitudeDegrees>41.9398166052997112274169921875</LatitudeDegrees>
              <LongitudeDegrees>2.8466198779642581939697265625</LongitudeDegrees>
            </Position>
            <AltitudeMeters>137.8000030517578125</AltitudeMeters>
            <DistanceMeters>10373.404131707</DistanceMeters>
          </Trackpoint>
          <Trackpoint>
            <Time>2020-02-15T09:08:11.000Z</Time>
            <Position>
              <LatitudeDegrees>41.93981233052909374237060546875</LatitudeDegrees>
              <LongitudeDegrees>2.84662130288779735565185546875</LongitudeDegrees>
            </Position>
            <AltitudeMeters>137.600006103515625</AltitudeMeters>
            <DistanceMeters>10373.906965815</DistanceMeters>
          </Trackpoint>
          <Trackpoint>
            <Time>2020-02-15T09:08:12.000Z</Time>
            <Position>
              <LatitudeDegrees>41.93981207907199859619140625</LatitudeDegrees>
              <LongitudeDegrees>2.84662063233554363250732421875</LongitudeDegrees>
            </Position>
            <AltitudeMeters>137.600006103515625</AltitudeMeters>
            <DistanceMeters>10373.906965815</DistanceMeters>
          </Trackpoint>
          <Trackpoint>
            <Time>2020-02-15T09:08:13.000Z</Time>
            <Position>
              <LatitudeDegrees>41.9398119114339351654052734375</LatitudeDegrees>
              <LongitudeDegrees>2.84662029705941677093505859375</LongitudeDegrees>
            </Position>
            <AltitudeMeters>137.399993896484375</AltitudeMeters>
            <DistanceMeters>10373.906965815</DistanceMeters>
          </Trackpoint>
          <Trackpoint>
            <Time>2020-02-15T09:08:14.000Z</Time>
            <Position>
              <LatitudeDegrees>41.93981182761490345001220703125</LatitudeDegrees>
              <LongitudeDegrees>2.84661962650716304779052734375</LongitudeDegrees>
            </Position>
            <AltitudeMeters>137.399993896484375</AltitudeMeters>
            <DistanceMeters>10374.041353883</DistanceMeters>
          </Trackpoint>
          <Trackpoint>
            <Time>2020-02-15T09:08:15.000Z</Time>
            <Position>
              <LatitudeDegrees>41.93981149233877658843994140625</LatitudeDegrees>
              <LongitudeDegrees>2.84661828540265560150146484375</LongitudeDegrees>
            </Position>
            <AltitudeMeters>137.399993896484375</AltitudeMeters>
            <DistanceMeters>10374.175741952</DistanceMeters>
          </Trackpoint>
          <Trackpoint>
            <Time>2020-02-15T09:08:18.000Z</Time>
            <Position>
              <LatitudeDegrees>41.9398129172623157501220703125</LatitudeDegrees>
              <LongitudeDegrees>2.846617363393306732177734375</LongitudeDegrees>
            </Position>
            <AltitudeMeters>137.600006103515625</AltitudeMeters>
            <DistanceMeters>10374.36579538</DistanceMeters>
          </Trackpoint>
          <Trackpoint>
            <Time>2020-02-15T09:08:19.000Z</Time>
            <Position>
              <LatitudeDegrees>41.93981266580522060394287109375</LatitudeDegrees>
              <LongitudeDegrees>2.84661761485040187835693359375</LongitudeDegrees>
            </Position>
            <AltitudeMeters>137.399993896484375</AltitudeMeters>
            <DistanceMeters>10374.36579538</DistanceMeters>
          </Trackpoint>
          <Trackpoint>
            <Time>2020-02-15T09:08:20.000Z</Time>
            <Position>
              <LatitudeDegrees>41.93981199525296688079833984375</LatitudeDegrees>
              <LongitudeDegrees>2.846617363393306732177734375</LongitudeDegrees>
            </Position>
            <AltitudeMeters>137.600006103515625</AltitudeMeters>
            <DistanceMeters>10374.36579538</DistanceMeters>
          </Trackpoint>
          <Trackpoint>
            <Time>2020-02-15T09:08:21.000Z</Time>
            <Position>
              <LatitudeDegrees>41.93981015123426914215087890625</LatitudeDegrees>
              <LongitudeDegrees>2.8466168604791164398193359375</LongitudeDegrees>
            </Position>
            <AltitudeMeters>137.600006103515625</AltitudeMeters>
            <DistanceMeters>10374.555848809</DistanceMeters>
          </Trackpoint>
          <Trackpoint>
            <Time>2020-02-15T09:08:22.000Z</Time>
            <Position>
              <LatitudeDegrees>41.93980964832007884979248046875</LatitudeDegrees>
              <LongitudeDegrees>2.84661694429814815521240234375</LongitudeDegrees>
            </Position>
            <AltitudeMeters>137.399993896484375</AltitudeMeters>
            <DistanceMeters>10374.650875524</DistanceMeters>
          </Trackpoint>
          <Trackpoint>
            <Time>2020-02-15T09:08:23.000Z</Time>
            <Position>
              <LatitudeDegrees>41.9398100674152374267578125</LatitudeDegrees>
              <LongitudeDegrees>2.84661962650716304779052734375</LongitudeDegrees>
            </Position>
            <AltitudeMeters>137.600006103515625</AltitudeMeters>
            <DistanceMeters>10374.883642486</DistanceMeters>
          </Trackpoint>
          <Trackpoint>
            <Time>2020-02-15T09:08:30.000Z</Time>
            <Position>
              <LatitudeDegrees>41.93980671465396881103515625</LatitudeDegrees>
              <LongitudeDegrees>2.84661971032619476318359375</LongitudeDegrees>
            </Position>
            <AltitudeMeters>137.1999969482421875</AltitudeMeters>
            <DistanceMeters>10375.239199893</DistanceMeters>
          </Trackpoint>
          <Trackpoint>
            <Time>2020-02-15T09:08:50.000Z</Time>
            <Position>
              <LatitudeDegrees>41.9398068822920322418212890625</LatitudeDegrees>
              <LongitudeDegrees>2.846620380878448486328125</LongitudeDegrees>
            </Position>
            <AltitudeMeters>137.399993896484375</AltitudeMeters>
            <DistanceMeters>10375.239199893</DistanceMeters>
          </Trackpoint>
          <Trackpoint>
            <Time>2020-02-15T09:08:56.000Z</Time>
            <Position>
              <LatitudeDegrees>41.93980872631072998046875</LatitudeDegrees>
              <LongitudeDegrees>2.84661610610783100128173828125</LongitudeDegrees>
            </Position>
            <AltitudeMeters>137.399993896484375</AltitudeMeters>
            <DistanceMeters>10375.653411738</DistanceMeters>
          </Trackpoint>
          <Trackpoint>
            <Time>2020-02-15T09:09:00.000Z</Time>
            <Position>
              <LatitudeDegrees>41.93980805575847625732421875</LatitudeDegrees>
              <LongitudeDegrees>2.84661409445106983184814453125</LongitudeDegrees>
            </Position>
            <AltitudeMeters>137.399993896484375</AltitudeMeters>
            <DistanceMeters>10375.843465167</DistanceMeters>
          </Trackpoint>
          <Trackpoint>
            <Time>2020-02-15T09:09:09.000Z</Time>
            <Position>
              <LatitudeDegrees>41.93979774601757526397705078125</LatitudeDegrees>
              <LongitudeDegrees>2.84661300480365753173828125</LongitudeDegrees>
            </Position>
            <AltitudeMeters>137.600006103515625</AltitudeMeters>
            <DistanceMeters>10376.995602849</DistanceMeters>
          </Trackpoint>
          <Trackpoint>
            <Time>2020-02-15T09:09:20.000Z</Time>
            <Position>
              <LatitudeDegrees>41.93979640491306781768798828125</LatitudeDegrees>
              <LongitudeDegrees>2.84661694429814815521240234375</LongitudeDegrees>
            </Position>
            <AltitudeMeters>137.600006103515625</AltitudeMeters>
            <DistanceMeters>10377.363639731</DistanceMeters>
          </Trackpoint>
          <Trackpoint>
            <Time>2020-02-15T09:09:27.000Z</Time>
            <Position>
              <LatitudeDegrees>41.939797662198543548583984375</LatitudeDegrees>
              <LongitudeDegrees>2.8466182015836238861083984375</LongitudeDegrees>
            </Position>
            <AltitudeMeters>137.600006103515625</AltitudeMeters>
            <DistanceMeters>10377.498027799</DistanceMeters>
          </Trackpoint>
          <Trackpoint>
            <Time>2020-02-15T09:09:34.000Z</Time>
            <Position>
              <LatitudeDegrees>41.93979808129370212554931640625</LatitudeDegrees>
              <LongitudeDegrees>2.84661811776459217071533203125</LongitudeDegrees>
            </Position>
            <AltitudeMeters>137.399993896484375</AltitudeMeters>
            <DistanceMeters>10377.498027799</DistanceMeters>
          </Trackpoint>
          <Trackpoint>
            <Time>2020-02-15T09:09:47.000Z</Time>
            <Position>
              <LatitudeDegrees>41.9397974945604801177978515625</LatitudeDegrees>
              <LongitudeDegrees>2.84661971032619476318359375</LongitudeDegrees>
            </Position>
            <AltitudeMeters>137.399993896484375</AltitudeMeters>
            <DistanceMeters>10377.632415867</DistanceMeters>
          </Trackpoint>
          <Trackpoint>
            <Time>2020-02-15T09:09:49.000Z</Time>
            <Position>
              <LatitudeDegrees>41.939797662198543548583984375</LatitudeDegrees>
              <LongitudeDegrees>2.84661979414522647857666015625</LongitudeDegrees>
            </Position>
            <AltitudeMeters>137.600006103515625</AltitudeMeters>
            <DistanceMeters>10377.632415867</DistanceMeters>
          </Trackpoint>
          <Trackpoint>
            <Time>2020-02-15T09:09:58.000Z</Time>
            <Position>
              <LatitudeDegrees>41.939797662198543548583984375</LatitudeDegrees>
              <LongitudeDegrees>2.84662012942135334014892578125</LongitudeDegrees>
            </Position>
            <AltitudeMeters>137.399993896484375</AltitudeMeters>
            <DistanceMeters>10377.632415867</DistanceMeters>
          </Trackpoint>
          <Trackpoint>
            <Time>2020-02-15T09:10:01.000Z</Time>
            <Position>
              <LatitudeDegrees>41.93979757837951183319091796875</LatitudeDegrees>
              <LongitudeDegrees>2.84662029705941677093505859375</LongitudeDegrees>
            </Position>
            <AltitudeMeters>137.600006103515625</AltitudeMeters>
            <DistanceMeters>10377.632415867</DistanceMeters>
          </Trackpoint>
          <Trackpoint>
            <Time>2020-02-15T09:10:04.000Z</Time>
            <Position>
              <LatitudeDegrees>41.939799003303050994873046875</LatitudeDegrees>
              <LongitudeDegrees>2.8466212190687656402587890625</LongitudeDegrees>
            </Position>
            <AltitudeMeters>137.399993896484375</AltitudeMeters>
            <DistanceMeters>10377.84490206</DistanceMeters>
          </Trackpoint>
          <Trackpoint>
            <Time>2020-02-15T09:10:06.000Z</Time>
            <Position>
              <LatitudeDegrees>41.93979590199887752532958984375</LatitudeDegrees>
              <LongitudeDegrees>2.8466218896210193634033203125</LongitudeDegrees>
            </Position>
            <AltitudeMeters>137.399993896484375</AltitudeMeters>
            <DistanceMeters>10378.200459468</DistanceMeters>
          </Trackpoint>
          <Trackpoint>
            <Time>2020-02-15T09:10:12.000Z</Time>
            <Position>
              <LatitudeDegrees>41.9397939741611480712890625</LatitudeDegrees>
              <LongitudeDegrees>2.84662482328712940216064453125</LongitudeDegrees>
            </Position>
            <AltitudeMeters>137.399993896484375</AltitudeMeters>
            <DistanceMeters>10378.529641663</DistanceMeters>
          </Trackpoint>
          <Trackpoint>
            <Time>2020-02-15T09:10:23.000Z</Time>
            <Position>
              <LatitudeDegrees>41.9397944770753383636474609375</LatitudeDegrees>
              <LongitudeDegrees>2.84662432037293910980224609375</LongitudeDegrees>
            </Position>
            <AltitudeMeters>137.600006103515625</AltitudeMeters>
            <DistanceMeters>10378.624668377</DistanceMeters>
          </Trackpoint>
          <Trackpoint>
            <Time>2020-02-15T09:10:28.000Z</Time>
            <Position>
              <LatitudeDegrees>41.93979464471340179443359375</LatitudeDegrees>
              <LongitudeDegrees>2.84662432037293910980224609375</LongitudeDegrees>
            </Position>
            <AltitudeMeters>137.8000030517578125</AltitudeMeters>
            <DistanceMeters>10378.624668377</DistanceMeters>
          </Trackpoint>
          <Trackpoint>
            <Time>2020-02-15T09:10:31.000Z</Time>
            <Position>
              <LatitudeDegrees>41.93979439325630664825439453125</LatitudeDegrees>
              <LongitudeDegrees>2.846624739468097686767578125</LongitudeDegrees>
            </Position>
            <AltitudeMeters>137.8000030517578125</AltitudeMeters>
            <DistanceMeters>10378.719695092</DistanceMeters>
          </Trackpoint>
          <Trackpoint>
            <Time>2020-02-15T09:10:35.000Z</Time>
            <Position>
              <LatitudeDegrees>41.93979472853243350982666015625</LatitudeDegrees>
              <LongitudeDegrees>2.8466249071061611175537109375</LongitudeDegrees>
            </Position>
            <AltitudeMeters>137.8000030517578125</AltitudeMeters>
            <DistanceMeters>10378.814721806</DistanceMeters>
          </Trackpoint>
          <Trackpoint>
            <Time>2020-02-15T09:10:37.000Z</Time>
            <Position>
              <LatitudeDegrees>41.93979464471340179443359375</LatitudeDegrees>
              <LongitudeDegrees>2.84662482328712940216064453125</LongitudeDegrees>
            </Position>
            <AltitudeMeters>137.600006103515625</AltitudeMeters>
            <DistanceMeters>10378.814721806</DistanceMeters>
          </Trackpoint>
          <Trackpoint>
            <Time>2020-02-15T09:10:44.000Z</Time>
            <Position>
              <LatitudeDegrees>41.93979456089437007904052734375</LatitudeDegrees>
              <LongitudeDegrees>2.84662532620131969451904296875</LongitudeDegrees>
            </Position>
            <AltitudeMeters>137.600006103515625</AltitudeMeters>
            <DistanceMeters>10378.814721806</DistanceMeters>
          </Trackpoint>
          <Trackpoint>
            <Time>2020-02-15T09:10:53.000Z</Time>
            <Position>
              <LatitudeDegrees>41.939794979989528656005859375</LatitudeDegrees>
              <LongitudeDegrees>2.8466349653899669647216796875</LongitudeDegrees>
            </Position>
            <AltitudeMeters>137.8000030517578125</AltitudeMeters>
            <DistanceMeters>10379.615431134</DistanceMeters>
          </Trackpoint>
          <Trackpoint>
            <Time>2020-02-15T09:10:57.000Z</Time>
            <Position>
              <LatitudeDegrees>41.9397948123514652252197265625</LatitudeDegrees>
              <LongitudeDegrees>2.84663538448512554168701171875</LongitudeDegrees>
            </Position>
            <AltitudeMeters>137.8000030517578125</AltitudeMeters>
            <DistanceMeters>10379.615431134</DistanceMeters>
          </Trackpoint>
          <Trackpoint>
            <Time>2020-02-15T09:11:00.000Z</Time>
            <Position>
              <LatitudeDegrees>41.9397951476275920867919921875</LatitudeDegrees>
              <LongitudeDegrees>2.84663622267544269561767578125</LongitudeDegrees>
            </Position>
            <AltitudeMeters>137.8000030517578125</AltitudeMeters>
            <DistanceMeters>10379.615431134</DistanceMeters>
          </Trackpoint>
          <Trackpoint>
            <Time>2020-02-15T09:11:04.000Z</Time>
            <Position>
              <LatitudeDegrees>41.93981132470071315765380859375</LatitudeDegrees>
              <LongitudeDegrees>2.846671007573604583740234375</LongitudeDegrees>
            </Position>
            <AltitudeMeters>138</AltitudeMeters>
            <DistanceMeters>10383.011223768</DistanceMeters>
          </Trackpoint>
          <Trackpoint>
            <Time>2020-02-15T09:11:05.000Z</Time>
            <Position>
              <LatitudeDegrees>41.9398155994713306427001953125</LatitudeDegrees>
              <LongitudeDegrees>2.846687100827693939208984375</LongitudeDegrees>
            </Position>
            <AltitudeMeters>137.8000030517578125</AltitudeMeters>
            <DistanceMeters>10384.427089924</DistanceMeters>
          </Trackpoint>
          <Trackpoint>
            <Time>2020-02-15T09:11:06.000Z</Time>
            <Position>
              <LatitudeDegrees>41.93981870077550411224365234375</LatitudeDegrees>
              <LongitudeDegrees>2.84670663066208362579345703125</LongitudeDegrees>
            </Position>
            <AltitudeMeters>138</AltitudeMeters>
            <DistanceMeters>10386.078478154</DistanceMeters>
          </Trackpoint>
          <Trackpoint>
            <Time>2020-02-15T09:11:07.000Z</Time>
            <Position>
              <LatitudeDegrees>41.939823813736438751220703125</LatitudeDegrees>
              <LongitudeDegrees>2.8467244841158390045166015625</LongitudeDegrees>
            </Position>
            <AltitudeMeters>138</AltitudeMeters>
            <DistanceMeters>10387.662890112</DistanceMeters>
          </Trackpoint>
          <Trackpoint>
            <Time>2020-02-15T09:11:08.000Z</Time>
            <Position>
              <LatitudeDegrees>41.939832866191864013671875</LatitudeDegrees>
              <LongitudeDegrees>2.84674183465540409088134765625</LongitudeDegrees>
            </Position>
            <AltitudeMeters>138</AltitudeMeters>
            <DistanceMeters>10389.420242138</DistanceMeters>
          </Trackpoint>
          <Trackpoint>
            <Time>2020-02-15T09:11:09.000Z</Time>
            <Position>
              <LatitudeDegrees>41.9398430921137332916259765625</LatitudeDegrees>
              <LongitudeDegrees>2.84676111303269863128662109375</LongitudeDegrees>
            </Position>
            <AltitudeMeters>138</AltitudeMeters>
            <DistanceMeters>10391.381571423</DistanceMeters>
          </Trackpoint>
          <Trackpoint>
            <Time>2020-02-15T09:11:10.000Z</Time>
            <Position>
              <LatitudeDegrees>41.9398538209497928619384765625</LatitudeDegrees>
              <LongitudeDegrees>2.84678173251450061798095703125</LongitudeDegrees>
            </Position>
            <AltitudeMeters>138</AltitudeMeters>
            <DistanceMeters>10393.467835272</DistanceMeters>
          </Trackpoint>
          <Trackpoint>
            <Time>2020-02-15T09:11:11.000Z</Time>
            <Position>
              <LatitudeDegrees>41.93986580707132816314697265625</LatitudeDegrees>
              <LongitudeDegrees>2.84680386073887348175048828125</LongitudeDegrees>
            </Position>
            <AltitudeMeters>138</AltitudeMeters>
            <DistanceMeters>10395.736566982</DistanceMeters>
          </Trackpoint>
          <Trackpoint>
            <Time>2020-02-15T09:11:12.000Z</Time>
            <Position>
              <LatitudeDegrees>41.93987821228802204132080078125</LatitudeDegrees>
              <LongitudeDegrees>2.8468250669538974761962890625</LongitudeDegrees>
            </Position>
            <AltitudeMeters>138</AltitudeMeters>
            <DistanceMeters>10397.969189251</DistanceMeters>
          </Trackpoint>
          <Trackpoint>
            <Time>2020-02-15T09:11:13.000Z</Time>
            <Position>
              <LatitudeDegrees>41.939890198409557342529296875</LatitudeDegrees>
              <LongitudeDegrees>2.84684526734054088592529296875</LongitudeDegrees>
            </Position>
            <AltitudeMeters>138</AltitudeMeters>
            <DistanceMeters>10400.106762333</DistanceMeters>
          </Trackpoint>
          <Trackpoint>
            <Time>2020-02-15T09:11:14.000Z</Time>
            <Position>
              <LatitudeDegrees>41.93990268744528293609619140625</LatitudeDegrees>
              <LongitudeDegrees>2.846864126622676849365234375</LongitudeDegrees>
            </Position>
            <AltitudeMeters>138.1999969482421875</AltitudeMeters>
            <DistanceMeters>10402.197350049</DistanceMeters>
          </Trackpoint>
          <Trackpoint>
            <Time>2020-02-15T09:11:15.000Z</Time>
            <Position>
              <LatitudeDegrees>41.939912997186183929443359375</LatitudeDegrees>
              <LongitudeDegrees>2.84687988460063934326171875</LongitudeDegrees>
            </Position>
            <AltitudeMeters>138.399993896484375</AltitudeMeters>
            <DistanceMeters>10403.934026626</DistanceMeters>
          </Trackpoint>
          <Trackpoint>
            <Time>2020-02-15T09:11:16.000Z</Time>
            <Position>
              <LatitudeDegrees>41.9399227201938629150390625</LatitudeDegrees>
              <LongitudeDegrees>2.8468941338360309600830078125</LongitudeDegrees>
            </Position>
            <AltitudeMeters>138.399993896484375</AltitudeMeters>
            <DistanceMeters>10405.538262203</DistanceMeters>
          </Trackpoint>
          <Trackpoint>
            <Time>2020-02-15T09:11:17.000Z</Time>
            <Position>
              <LatitudeDegrees>41.939933113753795623779296875</LatitudeDegrees>
              <LongitudeDegrees>2.84690796397626399993896484375</LongitudeDegrees>
            </Position>
            <AltitudeMeters>138.600006103515625</AltitudeMeters>
            <DistanceMeters>10407.167630938</DistanceMeters>
          </Trackpoint>
          <Trackpoint>
            <Time>2020-02-15T09:11:18.000Z</Time>
            <Position>
              <LatitudeDegrees>41.93994375877082347869873046875</LatitudeDegrees>
              <LongitudeDegrees>2.8469222970306873321533203125</LongitudeDegrees>
            </Position>
            <AltitudeMeters>138.600006103515625</AltitudeMeters>
            <DistanceMeters>10408.846137372</DistanceMeters>
          </Trackpoint>
          <Trackpoint>
            <Time>2020-02-15T09:11:19.000Z</Time>
            <Position>
              <LatitudeDegrees>41.93995289504528045654296875</LatitudeDegrees>
              <LongitudeDegrees>2.84693780355155467987060546875</LongitudeDegrees>
            </Position>
            <AltitudeMeters>139</AltitudeMeters>
            <DistanceMeters>10410.483798114</DistanceMeters>
          </Trackpoint>
          <Trackpoint>
            <Time>2020-02-15T09:11:20.000Z</Time>
            <Position>
              <LatitudeDegrees>41.93996219895780086517333984375</LatitudeDegrees>
              <LongitudeDegrees>2.84695356152951717376708984375</LongitudeDegrees>
            </Position>
            <AltitudeMeters>139.1999969482421875</AltitudeMeters>
            <DistanceMeters>10412.148800657</DistanceMeters>
          </Trackpoint>
          <Trackpoint>
            <Time>2020-02-15T09:11:21.000Z</Time>
            <Position>
              <LatitudeDegrees>41.93997410126030445098876953125</LatitudeDegrees>
              <LongitudeDegrees>2.84696714021265506744384765625</LongitudeDegrees>
            </Position>
            <AltitudeMeters>139.600006103515625</AltitudeMeters>
            <DistanceMeters>10413.885477234</DistanceMeters>
          </Trackpoint>
          <Trackpoint>
            <Time>2020-02-15T09:11:22.000Z</Time>
            <Position>
              <LatitudeDegrees>41.93998633883893489837646484375</LatitudeDegrees>
              <LongitudeDegrees>2.84697921015322208404541015625</LongitudeDegrees>
            </Position>
            <AltitudeMeters>139.600006103515625</AltitudeMeters>
            <DistanceMeters>10415.574709058</DistanceMeters>
          </Trackpoint>
          <Trackpoint>
            <Time>2020-02-15T09:11:23.000Z</Time>
            <Position>
              <LatitudeDegrees>41.9399993307888507843017578125</LatitudeDegrees>
              <LongitudeDegrees>2.846992202103137969970703125</LongitudeDegrees>
            </Position>
            <AltitudeMeters>140</AltitudeMeters>
            <DistanceMeters>10417.377714194</DistanceMeters>
          </Trackpoint>
          <Trackpoint>
            <Time>2020-02-15T09:11:24.000Z</Time>
            <Position>
              <LatitudeDegrees>41.94001316092908382415771484375</LatitudeDegrees>
              <LongitudeDegrees>2.847006283700466156005859375</LongitudeDegrees>
            </Position>
            <AltitudeMeters>140</AltitudeMeters>
            <DistanceMeters>10419.306545834</DistanceMeters>
          </Trackpoint>
          <Trackpoint>
            <Time>2020-02-15T09:11:25.000Z</Time>
            <Position>
              <LatitudeDegrees>41.94002623669803142547607421875</LatitudeDegrees>
              <LongitudeDegrees>2.847021035850048065185546875</LongitudeDegrees>
            </Position>
            <AltitudeMeters>140.8000030517578125</AltitudeMeters>
            <DistanceMeters>10421.204702966</DistanceMeters>
          </Trackpoint>
          <Trackpoint>
            <Time>2020-02-15T09:11:26.000Z</Time>
            <Position>
              <LatitudeDegrees>41.9400375522673130035400390625</LatitudeDegrees>
              <LongitudeDegrees>2.8470359556376934051513671875</LongitudeDegrees>
            </Position>
            <AltitudeMeters>141</AltitudeMeters>
            <DistanceMeters>10422.967185958</DistanceMeters>
          </Trackpoint>
          <Trackpoint>
            <Time>2020-02-15T09:11:27.000Z</Time>
            <Position>
              <LatitudeDegrees>41.9400439225137233734130859375</LatitudeDegrees>
              <LongitudeDegrees>2.84705800004303455352783203125</LongitudeDegrees>
            </Position>
            <AltitudeMeters>141.399993896484375</AltitudeMeters>
            <DistanceMeters>10424.926211861</DistanceMeters>
          </Trackpoint>
          <Trackpoint>
            <Time>2020-02-15T09:11:28.000Z</Time>
            <Position>
              <LatitudeDegrees>41.94004383869469165802001953125</LatitudeDegrees>
              <LongitudeDegrees>2.847079373896121978759765625</LongitudeDegrees>
            </Position>
            <AltitudeMeters>141.8000030517578125</AltitudeMeters>
            <DistanceMeters>10426.693810925</DistanceMeters>
          </Trackpoint>
          <Trackpoint>
            <Time>2020-02-15T09:11:29.000Z</Time>
            <Position>
              <LatitudeDegrees>41.94003813900053501129150390625</LatitudeDegrees>
              <LongitudeDegrees>2.84709722734987735748291015625</LongitudeDegrees>
            </Position>
            <AltitudeMeters>142</AltitudeMeters>
            <DistanceMeters>10428.300858486</DistanceMeters>
          </Trackpoint>
          <Trackpoint>
            <Time>2020-02-15T09:11:30.000Z</Time>
            <Position>
              <LatitudeDegrees>41.940029002726078033447265625</LatitudeDegrees>
              <LongitudeDegrees>2.84711658954620361328125</LongitudeDegrees>
            </Position>
            <AltitudeMeters>142.1999969482421875</AltitudeMeters>
            <DistanceMeters>10430.196635483</DistanceMeters>
          </Trackpoint>
          <Trackpoint>
            <Time>2020-02-15T09:11:31.000Z</Time>
            <Position>
              <LatitudeDegrees>41.94001860916614532470703125</LatitudeDegrees>
              <LongitudeDegrees>2.84714131616055965423583984375</LongitudeDegrees>
            </Position>
            <AltitudeMeters>142.399993896484375</AltitudeMeters>
            <DistanceMeters>10432.547466567</DistanceMeters>
          </Trackpoint>
          <Trackpoint>
            <Time>2020-02-15T09:11:33.000Z</Time>
            <Position>
              <LatitudeDegrees>41.9399922899901866912841796875</LatitudeDegrees>
              <LongitudeDegrees>2.84719194285571575164794921875</LongitudeDegrees>
            </Position>
            <AltitudeMeters>142.8000030517578125</AltitudeMeters>
            <DistanceMeters>10437.6595152</DistanceMeters>
          </Trackpoint>
          <Trackpoint>
            <Time>2020-02-15T09:11:36.000Z</Time>
            <Position>
              <LatitudeDegrees>41.939940489828586578369140625</LatitudeDegrees>
              <LongitudeDegrees>2.847280539572238922119140625</LongitudeDegrees>
            </Position>
            <AltitudeMeters>143.1999969482421875</AltitudeMeters>
            <DistanceMeters>10446.988602871</DistanceMeters>
          </Trackpoint>
          <Trackpoint>
            <Time>2020-02-15T09:11:37.000Z</Time>
            <Position>
              <LatitudeDegrees>41.93992674350738525390625</LatitudeDegrees>
              <LongitudeDegrees>2.84731985069811344146728515625</LongitudeDegrees>
            </Position>
            <AltitudeMeters>143</AltitudeMeters>
            <DistanceMeters>10450.584582497</DistanceMeters>
          </Trackpoint>
          <Trackpoint>
            <Time>2020-02-15T09:11:38.000Z</Time>
            <Position>
              <LatitudeDegrees>41.939919032156467437744140625</LatitudeDegrees>
              <LongitudeDegrees>2.847361005842685699462890625</LongitudeDegrees>
            </Position>
            <AltitudeMeters>143</AltitudeMeters>
            <DistanceMeters>10454.099286549</DistanceMeters>
          </Trackpoint>
          <Trackpoint>
            <Time>2020-02-15T09:11:39.000Z</Time>
            <Position>
              <LatitudeDegrees>41.93991073407232761383056640625</LatitudeDegrees>
              <LongitudeDegrees>2.8474030829966068267822265625</LongitudeDegrees>
            </Position>
            <AltitudeMeters>143</AltitudeMeters>
            <DistanceMeters>10457.702791777</DistanceMeters>
          </Trackpoint>
          <Trackpoint>
            <Time>2020-02-15T09:11:40.000Z</Time>
            <Position>
              <LatitudeDegrees>41.93990235216915607452392578125</LatitudeDegrees>
              <LongitudeDegrees>2.847448848187923431396484375</LongitudeDegrees>
            </Position>
            <AltitudeMeters>143</AltitudeMeters>
            <DistanceMeters>10461.604677075</DistanceMeters>
          </Trackpoint>
          <Trackpoint>
            <Time>2020-02-15T09:11:41.000Z</Time>
            <Position>
              <LatitudeDegrees>41.93989212624728679656982421875</LatitudeDegrees>
              <LongitudeDegrees>2.8474946133792400360107421875</LongitudeDegrees>
            </Position>
            <AltitudeMeters>143.1999969482421875</AltitudeMeters>
            <DistanceMeters>10465.561715432</DistanceMeters>
          </Trackpoint>
          <Trackpoint>
            <Time>2020-02-15T09:11:42.000Z</Time>
            <Position>
              <LatitudeDegrees>41.93988324142992496490478515625</LatitudeDegrees>
              <LongitudeDegrees>2.8475398756563663482666015625</LongitudeDegrees>
            </Position>
            <AltitudeMeters>143</AltitudeMeters>
            <DistanceMeters>10469.438059999</DistanceMeters>
          </Trackpoint>
          <Trackpoint>
            <Time>2020-02-15T09:11:43.000Z</Time>
            <Position>
              <LatitudeDegrees>41.93987754173576831817626953125</LatitudeDegrees>
              <LongitudeDegrees>2.847586311399936676025390625</LongitudeDegrees>
            </Position>
            <AltitudeMeters>143</AltitudeMeters>
            <DistanceMeters>10473.335313978</DistanceMeters>
          </Trackpoint>
          <Trackpoint>
            <Time>2020-02-15T09:11:44.000Z</Time>
            <Position>
              <LatitudeDegrees>41.93987251259386539459228515625</LatitudeDegrees>
              <LongitudeDegrees>2.84763400442898273468017578125</LongitudeDegrees>
            </Position>
            <AltitudeMeters>143</AltitudeMeters>
            <DistanceMeters>10477.324172799</DistanceMeters>
          </Trackpoint>
          <Trackpoint>
            <Time>2020-02-15T09:11:46.000Z</Time>
            <Position>
              <LatitudeDegrees>41.93986932747066020965576171875</LatitudeDegrees>
              <LongitudeDegrees>2.8477239422500133514404296875</LongitudeDegrees>
            </Position>
            <AltitudeMeters>142.399993896484375</AltitudeMeters>
            <DistanceMeters>10484.778774763</DistanceMeters>
          </Trackpoint>
          <Trackpoint>
            <Time>2020-02-15T09:11:47.000Z</Time>
            <Position>
              <LatitudeDegrees>41.93987251259386539459228515625</LatitudeDegrees>
              <LongitudeDegrees>2.8477725572884082794189453125</LongitudeDegrees>
            </Position>
            <AltitudeMeters>142.399993896484375</AltitudeMeters>
            <DistanceMeters>10488.819366082</DistanceMeters>
          </Trackpoint>
          <Trackpoint>
            <Time>2020-02-15T09:11:49.000Z</Time>
            <Position>
              <LatitudeDegrees>41.93988810293376445770263671875</LatitudeDegrees>
              <LongitudeDegrees>2.8478721342980861663818359375</LongitudeDegrees>
            </Position>
            <AltitudeMeters>141.8000030517578125</AltitudeMeters>
            <DistanceMeters>10497.244115387</DistanceMeters>
          </Trackpoint>
          <Trackpoint>
            <Time>2020-02-15T09:11:50.000Z</Time>
            <Position>
              <LatitudeDegrees>41.93989254534244537353515625</LatitudeDegrees>
              <LongitudeDegrees>2.84792787395417690277099609375</LongitudeDegrees>
            </Position>
            <AltitudeMeters>141.600006103515625</AltitudeMeters>
            <DistanceMeters>10501.883910883</DistanceMeters>
          </Trackpoint>
          <Trackpoint>
            <Time>2020-02-15T09:11:51.000Z</Time>
            <Position>
              <LatitudeDegrees>41.939892880618572235107421875</LatitudeDegrees>
              <LongitudeDegrees>2.8479854576289653778076171875</LongitudeDegrees>
            </Position>
            <AltitudeMeters>141</AltitudeMeters>
            <DistanceMeters>10506.650426626</DistanceMeters>
          </Trackpoint>
          <Trackpoint>
            <Time>2020-02-15T09:11:52.000Z</Time>
            <Position>
              <LatitudeDegrees>41.939887516200542449951171875</LatitudeDegrees>
              <LongitudeDegrees>2.84804086200892925262451171875</LongitudeDegrees>
            </Position>
            <AltitudeMeters>140.399993896484375</AltitudeMeters>
            <DistanceMeters>10511.276578501</DistanceMeters>
          </Trackpoint>
          <Trackpoint>
            <Time>2020-02-15T09:11:53.000Z</Time>
            <Position>
              <LatitudeDegrees>41.9398793019354343414306640625</LatitudeDegrees>
              <LongitudeDegrees>2.8480888903141021728515625</LongitudeDegrees>
            </Position>
            <AltitudeMeters>140.399993896484375</AltitudeMeters>
            <DistanceMeters>10515.356092061</DistanceMeters>
          </Trackpoint>
          <Trackpoint>
            <Time>2020-02-15T09:11:54.000Z</Time>
            <Position>
              <LatitudeDegrees>41.93987150676548480987548828125</LatitudeDegrees>
              <LongitudeDegrees>2.8481209091842174530029296875</LongitudeDegrees>
            </Position>
            <AltitudeMeters>139.8000030517578125</AltitudeMeters>
            <DistanceMeters>10518.14606086</DistanceMeters>
          </Trackpoint>
          <Trackpoint>
            <Time>2020-02-15T09:11:55.000Z</Time>
            <Position>
              <LatitudeDegrees>41.9398655556142330169677734375</LatitudeDegrees>
              <LongitudeDegrees>2.8481460548937320709228515625</LongitudeDegrees>
            </Position>
            <AltitudeMeters>139.8000030517578125</AltitudeMeters>
            <DistanceMeters>10520.329608515</DistanceMeters>
          </Trackpoint>
          <Trackpoint>
            <Time>2020-02-15T09:11:56.000Z</Time>
            <Position>
              <LatitudeDegrees>41.93985767662525177001953125</LatitudeDegrees>
              <LongitudeDegrees>2.84816801548004150390625</LongitudeDegrees>
            </Position>
            <AltitudeMeters>139.8000030517578125</AltitudeMeters>
            <DistanceMeters>10522.345429539</DistanceMeters>
          </Trackpoint>
          <Trackpoint>
            <Time>2020-02-15T09:11:57.000Z</Time>
            <Position>
              <LatitudeDegrees>41.93985038436949253082275390625</LatitudeDegrees>
              <LongitudeDegrees>2.84819492138922214508056640625</LongitudeDegrees>
            </Position>
            <AltitudeMeters>139.399993896484375</AltitudeMeters>
            <DistanceMeters>10524.715388937</DistanceMeters>
          </Trackpoint>
          <Trackpoint>
            <Time>2020-02-15T09:11:58.000Z</Time>
            <Position>
              <LatitudeDegrees>41.939842589199542999267578125</LatitudeDegrees>
              <LongitudeDegrees>2.84822727553546428680419921875</LongitudeDegrees>
            </Position>
            <AltitudeMeters>139.399993896484375</AltitudeMeters>
            <DistanceMeters>10527.531131666</DistanceMeters>
          </Trackpoint>
          <Trackpoint>
            <Time>2020-02-15T09:12:00.000Z</Time>
            <Position>
              <LatitudeDegrees>41.93982549011707305908203125</LatitudeDegrees>
              <LongitudeDegrees>2.84828544594347476959228515625</LongitudeDegrees>
            </Position>
            <AltitudeMeters>139.399993896484375</AltitudeMeters>
            <DistanceMeters>10532.708997728</DistanceMeters>
          </Trackpoint>
          <Trackpoint>
            <Time>2020-02-15T09:12:01.000Z</Time>
            <Position>
              <LatitudeDegrees>41.93981870077550411224365234375</LatitudeDegrees>
              <LongitudeDegrees>2.84830807708203792572021484375</LongitudeDegrees>
            </Position>
            <AltitudeMeters>139.399993896484375</AltitudeMeters>
            <DistanceMeters>10534.729293388</DistanceMeters>
          </Trackpoint>
          <Trackpoint>
            <Time>2020-02-15T09:12:02.000Z</Time>
            <Position>
              <LatitudeDegrees>41.93980679847300052642822265625</LatitudeDegrees>
              <LongitudeDegrees>2.84833221696317195892333984375</LongitudeDegrees>
            </Position>
            <AltitudeMeters>139</AltitudeMeters>
            <DistanceMeters>10537.125775939</DistanceMeters>
          </Trackpoint>
          <Trackpoint>
            <Time>2020-02-15T09:12:05.000Z</Time>
            <Position>
              <LatitudeDegrees>41.93976245820522308349609375</LatitudeDegrees>
              <LongitudeDegrees>2.8484266810119152069091796875</LongitudeDegrees>
            </Position>
            <AltitudeMeters>139</AltitudeMeters>
            <DistanceMeters>10546.37417494</DistanceMeters>
          </Trackpoint>
          <Trackpoint>
            <Time>2020-02-15T09:12:06.000Z</Time>
            <Position>
              <LatitudeDegrees>41.9397510588169097900390625</LatitudeDegrees>
              <LongitudeDegrees>2.84846046008169651031494140625</LongitudeDegrees>
            </Position>
            <AltitudeMeters>139</AltitudeMeters>
            <DistanceMeters>10549.446052197</DistanceMeters>
          </Trackpoint>
          <Trackpoint>
            <Time>2020-02-15T09:12:07.000Z</Time>
            <Position>
              <LatitudeDegrees>41.9397388212382793426513671875</LatitudeDegrees>
              <LongitudeDegrees>2.84849147312343120574951171875</LongitudeDegrees>
            </Position>
            <AltitudeMeters>139</AltitudeMeters>
            <DistanceMeters>10552.353310623</DistanceMeters>
          </Trackpoint>
          <Trackpoint>
            <Time>2020-02-15T09:12:08.000Z</Time>
            <Position>
              <LatitudeDegrees>41.9397254101932048797607421875</LatitudeDegrees>
              <LongitudeDegrees>2.84852298907935619354248046875</LongitudeDegrees>
            </Position>
            <AltitudeMeters>139</AltitudeMeters>
            <DistanceMeters>10555.359821311</DistanceMeters>
          </Trackpoint>
          <Trackpoint>
            <Time>2020-02-15T09:12:11.000Z</Time>
            <Position>
              <LatitudeDegrees>41.93968643434345722198486328125</LatitudeDegrees>
              <LongitudeDegrees>2.848621308803558349609375</LongitudeDegrees>
            </Position>
            <AltitudeMeters>139</AltitudeMeters>
            <DistanceMeters>10564.583778177</DistanceMeters>
          </Trackpoint>
          <Trackpoint>
            <Time>2020-02-15T09:12:12.000Z</Time>
            <Position>
              <LatitudeDegrees>41.939676962792873382568359375</LatitudeDegrees>
              <LongitudeDegrees>2.848655171692371368408203125</LongitudeDegrees>
            </Position>
            <AltitudeMeters>139</AltitudeMeters>
            <DistanceMeters>10567.579758148</DistanceMeters>
          </Trackpoint>
          <Trackpoint>
            <Time>2020-02-15T09:12:13.000Z</Time>
            <Position>
              <LatitudeDegrees>41.93966858088970184326171875</LatitudeDegrees>
              <LongitudeDegrees>2.84868895076215267181396484375</LongitudeDegrees>
            </Position>
            <AltitudeMeters>139</AltitudeMeters>
            <DistanceMeters>10570.527118583</DistanceMeters>
          </Trackpoint>
          <Trackpoint>
            <Time>2020-02-15T09:12:14.000Z</Time>
            <Position>
              <LatitudeDegrees>41.93966095335781574249267578125</LatitudeDegrees>
              <LongitudeDegrees>2.84872214309871196746826171875</LongitudeDegrees>
            </Position>
            <AltitudeMeters>139.1999969482421875</AltitudeMeters>
            <DistanceMeters>10573.403148838</DistanceMeters>
          </Trackpoint>
          <Trackpoint>
            <Time>2020-02-15T09:12:15.000Z</Time>
            <Position>
              <LatitudeDegrees>41.93965055979788303375244140625</LatitudeDegrees>
              <LongitudeDegrees>2.84875483252108097076416015625</LongitudeDegrees>
            </Position>
            <AltitudeMeters>139</AltitudeMeters>
            <DistanceMeters>10576.347443895</DistanceMeters>
          </Trackpoint>
          <Trackpoint>
            <Time>2020-02-15T09:12:16.000Z</Time>
            <Position>
              <LatitudeDegrees>41.9396399147808551788330078125</LatitudeDegrees>
              <LongitudeDegrees>2.84878836013376712799072265625</LongitudeDegrees>
            </Position>
            <AltitudeMeters>139.1999969482421875</AltitudeMeters>
            <DistanceMeters>10579.365944704</DistanceMeters>
          </Trackpoint>
          <Trackpoint>
            <Time>2020-02-15T09:12:17.000Z</Time>
            <Position>
              <LatitudeDegrees>41.93963010795414447784423828125</LatitudeDegrees>
              <LongitudeDegrees>2.84882607869803905487060546875</LongitudeDegrees>
            </Position>
            <AltitudeMeters>139.1999969482421875</AltitudeMeters>
            <DistanceMeters>10582.674184818</DistanceMeters>
          </Trackpoint>
          <Trackpoint>
            <Time>2020-02-15T09:12:20.000Z</Time>
            <Position>
              <LatitudeDegrees>41.93960647098720073699951171875</LatitudeDegrees>
              <LongitudeDegrees>2.84893655218183994293212890625</LongitudeDegrees>
            </Position>
            <AltitudeMeters>139.399993896484375</AltitudeMeters>
            <DistanceMeters>10592.191573998</DistanceMeters>
          </Trackpoint>
          <Trackpoint>
            <Time>2020-02-15T09:12:21.000Z</Time>
            <Position>
              <LatitudeDegrees>41.93959825672209262847900390625</LatitudeDegrees>
              <LongitudeDegrees>2.8489767014980316162109375</LongitudeDegrees>
            </Position>
            <AltitudeMeters>139</AltitudeMeters>
            <DistanceMeters>10595.637520968</DistanceMeters>
          </Trackpoint>
          <Trackpoint>
            <Time>2020-02-15T09:12:22.000Z</Time>
            <Position>
              <LatitudeDegrees>41.93958601914346218109130859375</LatitudeDegrees>
              <LongitudeDegrees>2.84901282750070095062255859375</LongitudeDegrees>
            </Position>
            <AltitudeMeters>139</AltitudeMeters>
            <DistanceMeters>10598.923851966</DistanceMeters>
          </Trackpoint>
          <Trackpoint>
            <Time>2020-02-15T09:12:23.000Z</Time>
            <Position>
              <LatitudeDegrees>41.9395762123167514801025390625</LatitudeDegrees>
              <LongitudeDegrees>2.84904451109468936920166015625</LongitudeDegrees>
            </Position>
            <AltitudeMeters>139.1999969482421875</AltitudeMeters>
            <DistanceMeters>10601.765134835</DistanceMeters>
          </Trackpoint>
          <Trackpoint>
            <Time>2020-02-15T09:12:24.000Z</Time>
            <Position>
              <LatitudeDegrees>41.93956690840423107147216796875</LatitudeDegrees>
              <LongitudeDegrees>2.84907393157482147216796875</LongitudeDegrees>
            </Position>
            <AltitudeMeters>139.1999969482421875</AltitudeMeters>
            <DistanceMeters>10604.412272784</DistanceMeters>
          </Trackpoint>
          <Trackpoint>
            <Time>2020-02-15T09:12:25.000Z</Time>
            <Position>
              <LatitudeDegrees>41.9395552575588226318359375</LatitudeDegrees>
              <LongitudeDegrees>2.8491049446165561676025390625</LongitudeDegrees>
            </Position>
            <AltitudeMeters>139.399993896484375</AltitudeMeters>
            <DistanceMeters>10607.288303038</DistanceMeters>
          </Trackpoint>
          <Trackpoint>
            <Time>2020-02-15T09:12:27.000Z</Time>
            <Position>
              <LatitudeDegrees>41.93953019566833972930908203125</LatitudeDegrees>
              <LongitudeDegrees>2.8491663001477718353271484375</LongitudeDegrees>
            </Position>
            <AltitudeMeters>139.1999969482421875</AltitudeMeters>
            <DistanceMeters>10613.084153655</DistanceMeters>
          </Trackpoint>
          <Trackpoint>
            <Time>2020-02-15T09:12:28.000Z</Time>
            <Position>
              <LatitudeDegrees>41.93952114321291446685791015625</LatitudeDegrees>
              <LongitudeDegrees>2.84920041449368000030517578125</LongitudeDegrees>
            </Position>
            <AltitudeMeters>139.399993896484375</AltitudeMeters>
            <DistanceMeters>10616.084651316</DistanceMeters>
          </Trackpoint>
          <Trackpoint>
            <Time>2020-02-15T09:12:29.000Z</Time>
            <Position>
              <LatitudeDegrees>41.93951142020523548126220703125</LatitudeDegrees>
              <LongitudeDegrees>2.84923595376312732696533203125</LongitudeDegrees>
            </Position>
            <AltitudeMeters>139.399993896484375</AltitudeMeters>
            <DistanceMeters>10619.221972359</DistanceMeters>
          </Trackpoint>
          <Trackpoint>
            <Time>2020-02-15T09:12:31.000Z</Time>
            <Position>
              <LatitudeDegrees>41.93949113599956035614013671875</LatitudeDegrees>
              <LongitudeDegrees>2.84931273199617862701416015625</LongitudeDegrees>
            </Position>
            <AltitudeMeters>139.399993896484375</AltitudeMeters>
            <DistanceMeters>10625.968199843</DistanceMeters>
          </Trackpoint>
          <Trackpoint>
            <Time>2020-02-15T09:12:32.000Z</Time>
            <Position>
              <LatitudeDegrees>41.93947873078286647796630859375</LatitudeDegrees>
              <LongitudeDegrees>2.84935112111270427703857421875</LongitudeDegrees>
            </Position>
            <AltitudeMeters>139.600006103515625</AltitudeMeters>
            <DistanceMeters>10629.433744775</DistanceMeters>
          </Trackpoint>
          <Trackpoint>
            <Time>2020-02-15T09:12:34.000Z</Time>
            <Position>
              <LatitudeDegrees>41.9394508190453052520751953125</LatitudeDegrees>
              <LongitudeDegrees>2.8494281508028507232666015625</LongitudeDegrees>
            </Position>
            <AltitudeMeters>139.8000030517578125</AltitudeMeters>
            <DistanceMeters>10636.52772927</DistanceMeters>
          </Trackpoint>
          <Trackpoint>
            <Time>2020-02-15T09:12:35.000Z</Time>
            <Position>
              <LatitudeDegrees>41.9394372403621673583984375</LatitudeDegrees>
              <LongitudeDegrees>2.84946612082421779632568359375</LongitudeDegrees>
            </Position>
            <AltitudeMeters>140</AltitudeMeters>
            <DistanceMeters>10640.015352095</DistanceMeters>
          </Trackpoint>
          <Trackpoint>
            <Time>2020-02-15T09:12:36.000Z</Time>
            <Position>
              <LatitudeDegrees>41.93942558951675891876220703125</LatitudeDegrees>
              <LongitudeDegrees>2.84950082190334796905517578125</LongitudeDegrees>
            </Position>
            <AltitudeMeters>140.1999969482421875</AltitudeMeters>
            <DistanceMeters>10643.167031661</DistanceMeters>
          </Trackpoint>
          <Trackpoint>
            <Time>2020-02-15T09:12:37.000Z</Time>
            <Position>
              <LatitudeDegrees>41.93941687233746051788330078125</LatitudeDegrees>
              <LongitudeDegrees>2.8495364449918270111083984375</LongitudeDegrees>
            </Position>
            <AltitudeMeters>140.1999969482421875</AltitudeMeters>
            <DistanceMeters>10646.272530276</DistanceMeters>
          </Trackpoint>
          <Trackpoint>
            <Time>2020-02-15T09:12:38.000Z</Time>
            <Position>
              <LatitudeDegrees>41.9394065625965595245361328125</LatitudeDegrees>
              <LongitudeDegrees>2.84957148134708404541015625</LongitudeDegrees>
            </Position>
            <AltitudeMeters>140.399993896484375</AltitudeMeters>
            <DistanceMeters>10649.392533866</DistanceMeters>
          </Trackpoint>
          <Trackpoint>
            <Time>2020-02-15T09:12:39.000Z</Time>
            <Position>
              <LatitudeDegrees>41.9393991865217685699462890625</LatitudeDegrees>
              <LongitudeDegrees>2.84960358403623104095458984375</LongitudeDegrees>
            </Position>
            <AltitudeMeters>140.399993896484375</AltitudeMeters>
            <DistanceMeters>10652.172775841</DistanceMeters>
          </Trackpoint>
          <Trackpoint>
            <Time>2020-02-15T09:12:40.000Z</Time>
            <Position>
              <LatitudeDegrees>41.93939457647502422332763671875</LatitudeDegrees>
              <LongitudeDegrees>2.84963476471602916717529296875</LongitudeDegrees>
            </Position>
            <AltitudeMeters>140.600006103515625</AltitudeMeters>
            <DistanceMeters>10654.802802182</DistanceMeters>
          </Trackpoint>
          <Trackpoint>
            <Time>2020-02-15T09:12:41.000Z</Time>
            <Position>
              <LatitudeDegrees>41.9393921457231044769287109375</LatitudeDegrees>
              <LongitudeDegrees>2.8496628440916538238525390625</LongitudeDegrees>
            </Position>
            <AltitudeMeters>140.600006103515625</AltitudeMeters>
            <DistanceMeters>10657.1420812</DistanceMeters>
          </Trackpoint>
          <Trackpoint>
            <Time>2020-02-15T09:12:42.000Z</Time>
            <Position>
              <LatitudeDegrees>41.93939474411308765411376953125</LatitudeDegrees>
              <LongitudeDegrees>2.84969025291502475738525390625</LongitudeDegrees>
            </Position>
            <AltitudeMeters>140.8000030517578125</AltitudeMeters>
            <DistanceMeters>10659.430627537</DistanceMeters>
          </Trackpoint>
          <Trackpoint>
            <Time>2020-02-15T09:12:43.000Z</Time>
            <Position>
              <LatitudeDegrees>41.939400695264339447021484375</LatitudeDegrees>
              <LongitudeDegrees>2.84971741028130054473876953125</LongitudeDegrees>
            </Position>
            <AltitudeMeters>140.8000030517578125</AltitudeMeters>
            <DistanceMeters>10661.773763572</DistanceMeters>
          </Trackpoint>
          <Trackpoint>
            <Time>2020-02-15T09:12:44.000Z</Time>
            <Position>
              <LatitudeDegrees>41.93941636942327022552490234375</LatitudeDegrees>
              <LongitudeDegrees>2.849742136895656585693359375</LongitudeDegrees>
            </Position>
            <AltitudeMeters>141</AltitudeMeters>
            <DistanceMeters>10664.463204264</DistanceMeters>
          </Trackpoint>
          <Trackpoint>
            <Time>2020-02-15T09:12:45.000Z</Time>
            <Position>
              <LatitudeDegrees>41.93943816237151622772216796875</LatitudeDegrees>
              <LongitudeDegrees>2.84976099617779254913330078125</LongitudeDegrees>
            </Position>
            <AltitudeMeters>141</AltitudeMeters>
            <DistanceMeters>10667.347073263</DistanceMeters>
          </Trackpoint>
          <Trackpoint>
            <Time>2020-02-15T09:12:46.000Z</Time>
            <Position>
              <LatitudeDegrees>41.9394602067768573760986328125</LatitudeDegrees>
              <LongitudeDegrees>2.84977859817445278167724609375</LongitudeDegrees>
            </Position>
            <AltitudeMeters>141.399993896484375</AltitudeMeters>
            <DistanceMeters>10670.199458033</DistanceMeters>
          </Trackpoint>
          <Trackpoint>
            <Time>2020-02-15T09:12:47.000Z</Time>
            <Position>
              <LatitudeDegrees>41.9394809938967227935791015625</LatitudeDegrees>
              <LongitudeDegrees>2.849795781075954437255859375</LongitudeDegrees>
            </Position>
            <AltitudeMeters>141.399993896484375</AltitudeMeters>
            <DistanceMeters>10672.913963951</DistanceMeters>
          </Trackpoint>
          <Trackpoint>
            <Time>2020-02-15T09:12:48.000Z</Time>
            <Position>
              <LatitudeDegrees>41.93950018845498561859130859375</LatitudeDegrees>
              <LongitudeDegrees>2.849812544882297515869140625</LongitudeDegrees>
            </Position>
            <AltitudeMeters>141.8000030517578125</AltitudeMeters>
            <DistanceMeters>10675.462026933</DistanceMeters>
          </Trackpoint>
          <Trackpoint>
            <Time>2020-02-15T09:12:49.000Z</Time>
            <Position>
              <LatitudeDegrees>41.939518041908740997314453125</LatitudeDegrees>
              <LongitudeDegrees>2.84982956014573574066162109375</LongitudeDegrees>
            </Position>
            <AltitudeMeters>142</AltitudeMeters>
            <DistanceMeters>10677.897752744</DistanceMeters>
          </Trackpoint>
          <Trackpoint>
            <Time>2020-02-15T09:12:50.000Z</Time>
            <Position>
              <LatitudeDegrees>41.9395379908382892608642578125</LatitudeDegrees>
              <LongitudeDegrees>2.849845401942729949951171875</LongitudeDegrees>
            </Position>
            <AltitudeMeters>142.1999969482421875</AltitudeMeters>
            <DistanceMeters>10680.47576288</DistanceMeters>
          </Trackpoint>
          <Trackpoint>
            <Time>2020-02-15T09:12:51.000Z</Time>
            <Position>
              <LatitudeDegrees>41.9395581074059009552001953125</LatitudeDegrees>
              <LongitudeDegrees>2.84986359067261219024658203125</LongitudeDegrees>
            </Position>
            <AltitudeMeters>142.399993896484375</AltitudeMeters>
            <DistanceMeters>10683.173584522</DistanceMeters>
          </Trackpoint>
          <Trackpoint>
            <Time>2020-02-15T09:12:52.000Z</Time>
            <Position>
              <LatitudeDegrees>41.93957445211708545684814453125</LatitudeDegrees>
              <LongitudeDegrees>2.849882282316684722900390625</LongitudeDegrees>
            </Position>
            <AltitudeMeters>142.600006103515625</AltitudeMeters>
            <DistanceMeters>10685.56062835</DistanceMeters>
          </Trackpoint>
          <Trackpoint>
            <Time>2020-02-15T09:12:53.000Z</Time>
            <Position>
              <LatitudeDegrees>41.9395901262760162353515625</LatitudeDegrees>
              <LongitudeDegrees>2.849900387227535247802734375</LongitudeDegrees>
            </Position>
            <AltitudeMeters>142.8000030517578125</AltitudeMeters>
            <DistanceMeters>10687.86098154</DistanceMeters>
          </Trackpoint>
          <Trackpoint>
            <Time>2020-02-15T09:12:54.000Z</Time>
            <Position>
              <LatitudeDegrees>41.9396090693771839141845703125</LatitudeDegrees>
              <LongitudeDegrees>2.8499179892241954803466796875</LongitudeDegrees>
            </Position>
            <AltitudeMeters>143</AltitudeMeters>
            <DistanceMeters>10690.421418123</DistanceMeters>
          </Trackpoint>
          <Trackpoint>
            <Time>2020-02-15T09:12:55.000Z</Time>
            <Position>
              <LatitudeDegrees>41.93963094614446163177490234375</LatitudeDegrees>
              <LongitudeDegrees>2.84993399865925312042236328125</LongitudeDegrees>
            </Position>
            <AltitudeMeters>143.1999969482421875</AltitudeMeters>
            <DistanceMeters>10693.195156599</DistanceMeters>
          </Trackpoint>
          <Trackpoint>
            <Time>2020-02-15T09:12:56.000Z</Time>
            <Position>
              <LatitudeDegrees>41.939653493463993072509765625</LatitudeDegrees>
              <LongitudeDegrees>2.8499498404562473297119140625</LongitudeDegrees>
            </Position>
            <AltitudeMeters>143.600006103515625</AltitudeMeters>
            <DistanceMeters>10696.02688891</DistanceMeters>
          </Trackpoint>
          <Trackpoint>
            <Time>2020-02-15T09:12:57.000Z</Time>
            <Position>
              <LatitudeDegrees>41.9396757893264293670654296875</LatitudeDegrees>
              <LongitudeDegrees>2.8499676100909709930419921875</LongitudeDegrees>
            </Position>
            <AltitudeMeters>143.600006103515625</AltitudeMeters>
            <DistanceMeters>10698.912323103</DistanceMeters>
          </Trackpoint>
          <Trackpoint>
            <Time>2020-02-15T09:12:58.000Z</Time>
            <Position>
              <LatitudeDegrees>41.9396975822746753692626953125</LatitudeDegrees>
              <LongitudeDegrees>2.8499860502779483795166015625</LongitudeDegrees>
            </Position>
            <AltitudeMeters>144</AltitudeMeters>
            <DistanceMeters>10701.778918568</DistanceMeters>
          </Trackpoint>
          <Trackpoint>
            <Time>2020-02-15T09:12:59.000Z</Time>
            <Position>
              <LatitudeDegrees>41.93971878848969936370849609375</LatitudeDegrees>
              <LongitudeDegrees>2.85000558011233806610107421875</LongitudeDegrees>
            </Position>
            <AltitudeMeters>144.399993896484375</AltitudeMeters>
            <DistanceMeters>10704.639206886</DistanceMeters>
          </Trackpoint>
          <Trackpoint>
            <Time>2020-02-15T09:13:00.000Z</Time>
            <Position>
              <LatitudeDegrees>41.9397388212382793426513671875</LatitudeDegrees>
              <LongitudeDegrees>2.8500259481370449066162109375</LongitudeDegrees>
            </Position>
            <AltitudeMeters>144.600006103515625</AltitudeMeters>
            <DistanceMeters>10707.435641437</DistanceMeters>
          </Trackpoint>
          <Trackpoint>
            <Time>2020-02-15T09:13:01.000Z</Time>
            <Position>
              <LatitudeDegrees>41.939757429063320159912109375</LatitudeDegrees>
              <LongitudeDegrees>2.85004916600883007049560546875</LongitudeDegrees>
            </Position>
            <AltitudeMeters>145</AltitudeMeters>
            <DistanceMeters>10710.260988774</DistanceMeters>
          </Trackpoint>
          <Trackpoint>
            <Time>2020-02-15T09:13:02.000Z</Time>
            <Position>
              <LatitudeDegrees>41.93977645598351955413818359375</LatitudeDegrees>
              <LongitudeDegrees>2.85007171332836151123046875</LongitudeDegrees>
            </Position>
            <AltitudeMeters>145.1999969482421875</AltitudeMeters>
            <DistanceMeters>10713.083138208</DistanceMeters>
          </Trackpoint>
          <Trackpoint>
            <Time>2020-02-15T09:13:03.000Z</Time>
            <Position>
              <LatitudeDegrees>41.93979674018919467926025390625</LatitudeDegrees>
              <LongitudeDegrees>2.850094847381114959716796875</LongitudeDegrees>
            </Position>
            <AltitudeMeters>145.8000030517578125</AltitudeMeters>
            <DistanceMeters>10716.042728407</DistanceMeters>
          </Trackpoint>
          <Trackpoint>
            <Time>2020-02-15T09:13:04.000Z</Time>
            <Position>
              <LatitudeDegrees>41.93981367163360118865966796875</LatitudeDegrees>
              <LongitudeDegrees>2.85012041218578815460205078125</LongitudeDegrees>
            </Position>
            <AltitudeMeters>146</AltitudeMeters>
            <DistanceMeters>10718.877647813</DistanceMeters>
          </Trackpoint>
          <Trackpoint>
            <Time>2020-02-15T09:13:05.000Z</Time>
            <Position>
              <LatitudeDegrees>41.93982942961156368255615234375</LatitudeDegrees>
              <LongitudeDegrees>2.85014807246625423431396484375</LongitudeDegrees>
            </Position>
            <AltitudeMeters>146</AltitudeMeters>
            <DistanceMeters>10721.763082006</DistanceMeters>
          </Trackpoint>
          <Trackpoint>
            <Time>2020-02-15T09:13:06.000Z</Time>
            <Position>
              <LatitudeDegrees>41.93984384648501873016357421875</LatitudeDegrees>
              <LongitudeDegrees>2.85017631947994232177734375</LongitudeDegrees>
            </Position>
            <AltitudeMeters>146.1999969482421875</AltitudeMeters>
            <DistanceMeters>10724.601184926</DistanceMeters>
          </Trackpoint>
          <Trackpoint>
            <Time>2020-02-15T09:13:07.000Z</Time>
            <Position>
              <LatitudeDegrees>41.93985608406364917755126953125</LatitudeDegrees>
              <LongitudeDegrees>2.850202806293964385986328125</LongitudeDegrees>
            </Position>
            <AltitudeMeters>146.399993896484375</AltitudeMeters>
            <DistanceMeters>10727.180945834</DistanceMeters>
          </Trackpoint>
          <Trackpoint>
            <Time>2020-02-15T09:13:08.000Z</Time>
            <Position>
              <LatitudeDegrees>41.93986547179520130157470703125</LatitudeDegrees>
              <LongitudeDegrees>2.85022485069930553436279296875</LongitudeDegrees>
            </Position>
            <AltitudeMeters>146.8000030517578125</AltitudeMeters>
            <DistanceMeters>10729.284451825</DistanceMeters>
          </Trackpoint>
          <Trackpoint>
            <Time>2020-02-15T09:13:09.000Z</Time>
            <Position>
              <LatitudeDegrees>41.93986949510872364044189453125</LatitudeDegrees>
              <LongitudeDegrees>2.850239686667919158935546875</LongitudeDegrees>
            </Position>
            <AltitudeMeters>147</AltitudeMeters>
            <DistanceMeters>10730.594304689</DistanceMeters>
          </Trackpoint>
          <Trackpoint>
            <Time>2020-02-15T09:13:10.000Z</Time>
            <Position>
              <LatitudeDegrees>41.93986949510872364044189453125</LatitudeDegrees>
              <LongitudeDegrees>2.85024940967559814453125</LongitudeDegrees>
            </Position>
            <AltitudeMeters>147.1999969482421875</AltitudeMeters>
            <DistanceMeters>10731.400633099</DistanceMeters>
          </Trackpoint>
          <Trackpoint>
            <Time>2020-02-15T09:13:11.000Z</Time>
            <Position>
              <LatitudeDegrees>41.93986915983259677886962890625</LatitudeDegrees>
              <LongitudeDegrees>2.8502559475600719451904296875</LongitudeDegrees>
            </Position>
            <AltitudeMeters>147.600006103515625</AltitudeMeters>
            <DistanceMeters>10731.954729299</DistanceMeters>
          </Trackpoint>
          <Trackpoint>
            <Time>2020-02-15T09:13:15.000Z</Time>
            <Position>
              <LatitudeDegrees>41.93986027501523494720458984375</LatitudeDegrees>
              <LongitudeDegrees>2.85026608966290950775146484375</LongitudeDegrees>
            </Position>
            <AltitudeMeters>148.399993896484375</AltitudeMeters>
            <DistanceMeters>10733.250720895</DistanceMeters>
          </Trackpoint>
          <Trackpoint>
            <Time>2020-02-15T09:13:17.000Z</Time>
            <Position>
              <LatitudeDegrees>41.939852647483348846435546875</LatitudeDegrees>
              <LongitudeDegrees>2.8502562828361988067626953125</LongitudeDegrees>
            </Position>
            <AltitudeMeters>148.600006103515625</AltitudeMeters>
            <DistanceMeters>10734.422288913</DistanceMeters>
          </Trackpoint>
          <Trackpoint>
            <Time>2020-02-15T09:13:18.000Z</Time>
            <Position>
              <LatitudeDegrees>41.9398531503975391387939453125</LatitudeDegrees>
              <LongitudeDegrees>2.8502427041530609130859375</LongitudeDegrees>
            </Position>
            <AltitudeMeters>148.600006103515625</AltitudeMeters>
            <DistanceMeters>10735.54666016</DistanceMeters>
          </Trackpoint>
          <Trackpoint>
            <Time>2020-02-15T09:13:20.000Z</Time>
            <Position>
              <LatitudeDegrees>41.93986848928034305572509765625</LatitudeDegrees>
              <LongitudeDegrees>2.8502173908054828643798828125</LongitudeDegrees>
            </Position>
            <AltitudeMeters>148.600006103515625</AltitudeMeters>
            <DistanceMeters>10738.249497899</DistanceMeters>
          </Trackpoint>
          <Trackpoint>
            <Time>2020-02-15T09:13:21.000Z</Time>
            <Position>
              <LatitudeDegrees>41.9398907013237476348876953125</LatitudeDegrees>
              <LongitudeDegrees>2.85020850598812103271484375</LongitudeDegrees>
            </Position>
            <AltitudeMeters>148.600006103515625</AltitudeMeters>
            <DistanceMeters>10740.827508036</DistanceMeters>
          </Trackpoint>
          <Trackpoint>
            <Time>2020-02-15T09:13:22.000Z</Time>
            <Position>
              <LatitudeDegrees>41.93991576321423053741455078125</LatitudeDegrees>
              <LongitudeDegrees>2.85020691342651844024658203125</LongitudeDegrees>
            </Position>
            <AltitudeMeters>148.600006103515625</AltitudeMeters>
            <DistanceMeters>10743.620711581</DistanceMeters>
          </Trackpoint>
          <Trackpoint>
            <Time>2020-02-15T09:13:23.000Z</Time>
            <Position>
              <LatitudeDegrees>41.9399393163621425628662109375</LatitudeDegrees>
              <LongitudeDegrees>2.850209511816501617431640625</LongitudeDegrees>
            </Position>
            <AltitudeMeters>148.600006103515625</AltitudeMeters>
            <DistanceMeters>10746.250737923</DistanceMeters>
          </Trackpoint>
          <Trackpoint>
            <Time>2020-02-15T09:13:24.000Z</Time>
            <Position>
              <LatitudeDegrees>41.93996270187199115753173828125</LatitudeDegrees>
              <LongitudeDegrees>2.8502143733203411102294921875</LongitudeDegrees>
            </Position>
            <AltitudeMeters>148.8000030517578125</AltitudeMeters>
            <DistanceMeters>10748.885909413</DistanceMeters>
          </Trackpoint>
          <Trackpoint>
            <Time>2020-02-15T09:13:25.000Z</Time>
            <Position>
              <LatitudeDegrees>41.9399852491915225982666015625</LatitudeDegrees>
              <LongitudeDegrees>2.8502220846712589263916015625</LongitudeDegrees>
            </Position>
            <AltitudeMeters>148.8000030517578125</AltitudeMeters>
            <DistanceMeters>10751.476150097</DistanceMeters>
          </Trackpoint>
          <Trackpoint>
            <Time>2020-02-15T09:13:26.000Z</Time>
            <Position>
              <LatitudeDegrees>41.94000595249235630035400390625</LatitudeDegrees>
              <LongitudeDegrees>2.85023130476474761962890625</LongitudeDegrees>
            </Position>
            <AltitudeMeters>148.8000030517578125</AltitudeMeters>
            <DistanceMeters>10753.904449897</DistanceMeters>
          </Trackpoint>
          <Trackpoint>
            <Time>2020-02-15T09:13:27.000Z</Time>
            <Position>
              <LatitudeDegrees>41.94002623669803142547607421875</LatitudeDegrees>
              <LongitudeDegrees>2.8502388484776020050048828125</LongitudeDegrees>
            </Position>
            <AltitudeMeters>148.8000030517578125</AltitudeMeters>
            <DistanceMeters>10756.245658217</DistanceMeters>
          </Trackpoint>
          <Trackpoint>
            <Time>2020-02-15T09:13:28.000Z</Time>
            <Position>
              <LatitudeDegrees>41.94004677236080169677734375</LatitudeDegrees>
              <LongitudeDegrees>2.8502462245523929595947265625</LongitudeDegrees>
            </Position>
            <AltitudeMeters>148.8000030517578125</AltitudeMeters>
            <DistanceMeters>10758.609895371</DistanceMeters>
          </Trackpoint>
          <Trackpoint>
            <Time>2020-02-15T09:13:29.000Z</Time>
            <Position>
              <LatitudeDegrees>41.9400650449097156524658203125</LatitudeDegrees>
              <LongitudeDegrees>2.850251086056232452392578125</LongitudeDegrees>
            </Position>
            <AltitudeMeters>148.8000030517578125</AltitudeMeters>
            <DistanceMeters>10760.683133512</DistanceMeters>
          </Trackpoint>
          <Trackpoint>
            <Time>2020-02-15T09:13:30.000Z</Time>
            <Position>
              <LatitudeDegrees>41.94008298218250274658203125</LatitudeDegrees>
              <LongitudeDegrees>2.8502542711794376373291015625</LongitudeDegrees>
            </Position>
            <AltitudeMeters>148.8000030517578125</AltitudeMeters>
            <DistanceMeters>10762.696713488</DistanceMeters>
          </Trackpoint>
          <Trackpoint>
            <Time>2020-02-15T09:13:31.000Z</Time>
            <Position>
              <LatitudeDegrees>41.940100751817226409912109375</LatitudeDegrees>
              <LongitudeDegrees>2.850257456302642822265625</LongitudeDegrees>
            </Position>
            <AltitudeMeters>149.1999969482421875</AltitudeMeters>
            <DistanceMeters>10764.69453575</DistanceMeters>
          </Trackpoint>
          <Trackpoint>
            <Time>2020-02-15T09:13:32.000Z</Time>
            <Position>
              <LatitudeDegrees>41.94011810235679149627685546875</LatitudeDegrees>
              <LongitudeDegrees>2.8502576239407062530517578125</LongitudeDegrees>
            </Position>
            <AltitudeMeters>149.1999969482421875</AltitudeMeters>
            <DistanceMeters>10766.625706786</DistanceMeters>
          </Trackpoint>
          <Trackpoint>
            <Time>2020-02-15T09:13:33.000Z</Time>
            <Position>
              <LatitudeDegrees>41.9401344470679759979248046875</LatitudeDegrees>
              <LongitudeDegrees>2.8502579592168331146240234375</LongitudeDegrees>
            </Position>
            <AltitudeMeters>149.399993896484375</AltitudeMeters>
            <DistanceMeters>10768.443674877</DistanceMeters>
          </Trackpoint>
          <Trackpoint>
            <Time>2020-02-15T09:13:34.000Z</Time>
            <Position>
              <LatitudeDegrees>41.9401507079601287841796875</LatitudeDegrees>
              <LongitudeDegrees>2.85025904886424541473388671875</LongitudeDegrees>
            </Position>
            <AltitudeMeters>150</AltitudeMeters>
            <DistanceMeters>10770.256669037</DistanceMeters>
          </Trackpoint>
          <Trackpoint>
            <Time>2020-02-15T09:13:35.000Z</Time>
            <Position>
              <LatitudeDegrees>41.94016554392874240875244140625</LatitudeDegrees>
              <LongitudeDegrees>2.850257456302642822265625</LongitudeDegrees>
            </Position>
            <AltitudeMeters>150.399993896484375</AltitudeMeters>
            <DistanceMeters>10771.910789094</DistanceMeters>
          </Trackpoint>
          <Trackpoint>
            <Time>2020-02-15T09:13:36.000Z</Time>
            <Position>
              <LatitudeDegrees>41.940177865326404571533203125</LatitudeDegrees>
              <LongitudeDegrees>2.8502556122839450836181640625</LongitudeDegrees>
            </Position>
            <AltitudeMeters>150.399993896484375</AltitudeMeters>
            <DistanceMeters>10773.287857013</DistanceMeters>
          </Trackpoint>
          <Trackpoint>
            <Time>2020-02-15T09:13:37.000Z</Time>
            <Position>
              <LatitudeDegrees>41.94018532522022724151611328125</LatitudeDegrees>
              <LongitudeDegrees>2.85026391036808490753173828125</LongitudeDegrees>
            </Position>
            <AltitudeMeters>150.600006103515625</AltitudeMeters>
            <DistanceMeters>10774.367153016</DistanceMeters>
          </Trackpoint>
          <Trackpoint>
            <Time>2020-02-15T09:13:38.000Z</Time>
            <Position>
              <LatitudeDegrees>41.9401937909424304962158203125</LatitudeDegrees>
              <LongitudeDegrees>2.8502717055380344390869140625</LongitudeDegrees>
            </Position>
            <AltitudeMeters>150.8000030517578125</AltitudeMeters>
            <DistanceMeters>10775.511426184</DistanceMeters>
          </Trackpoint>
          <Trackpoint>
            <Time>2020-02-15T09:13:39.000Z</Time>
            <Position>
              <LatitudeDegrees>41.94020158611238002777099609375</LatitudeDegrees>
              <LongitudeDegrees>2.85027614794671535491943359375</LongitudeDegrees>
            </Position>
            <AltitudeMeters>151</AltitudeMeters>
            <DistanceMeters>10776.452142662</DistanceMeters>
          </Trackpoint>
          <Trackpoint>
            <Time>2020-02-15T09:13:40.000Z</Time>
            <Position>
              <LatitudeDegrees>41.9402145780622959136962890625</LatitudeDegrees>
              <LongitudeDegrees>2.85028151236474514007568359375</LongitudeDegrees>
            </Position>
            <AltitudeMeters>151.1999969482421875</AltitudeMeters>
            <DistanceMeters>10777.966619277</DistanceMeters>
          </Trackpoint>
          <Trackpoint>
            <Time>2020-02-15T09:13:41.000Z</Time>
            <Position>
              <LatitudeDegrees>41.94022740237414836883544921875</LatitudeDegrees>
              <LongitudeDegrees>2.85028620623052120208740234375</LongitudeDegrees>
            </Position>
            <AltitudeMeters>151.600006103515625</AltitudeMeters>
            <DistanceMeters>10779.447939153</DistanceMeters>
          </Trackpoint>
          <Trackpoint>
            <Time>2020-02-15T09:13:42.000Z</Time>
            <Position>
              <LatitudeDegrees>41.94023880176246166229248046875</LatitudeDegrees>
              <LongitudeDegrees>2.85029257647693157196044921875</LongitudeDegrees>
            </Position>
            <AltitudeMeters>152</AltitudeMeters>
            <DistanceMeters>10780.825007072</DistanceMeters>
          </Trackpoint>
          <Trackpoint>
            <Time>2020-02-15T09:13:43.000Z</Time>
            <Position>
              <LatitudeDegrees>41.94025238044559955596923828125</LatitudeDegrees>
              <LongitudeDegrees>2.8502985276281833648681640625</LongitudeDegrees>
            </Position>
            <AltitudeMeters>152</AltitudeMeters>
            <DistanceMeters>10782.417945075</DistanceMeters>
          </Trackpoint>
          <Trackpoint>
            <Time>2020-02-15T09:13:44.000Z</Time>
            <Position>
              <LatitudeDegrees>41.940267048776149749755859375</LatitudeDegrees>
              <LongitudeDegrees>2.85030431114137172698974609375</LongitudeDegrees>
            </Position>
            <AltitudeMeters>152.399993896484375</AltitudeMeters>
            <DistanceMeters>10784.117834619</DistanceMeters>
          </Trackpoint>
          <Trackpoint>
            <Time>2020-02-15T09:13:45.000Z</Time>
            <Position>
              <LatitudeDegrees>41.94028154946863651275634765625</LatitudeDegrees>
              <LongitudeDegrees>2.8503095917403697967529296875</LongitudeDegrees>
            </Position>
            <AltitudeMeters>152.399993896484375</AltitudeMeters>
            <DistanceMeters>10785.785546688</DistanceMeters>
          </Trackpoint>
          <Trackpoint>
            <Time>2020-02-15T09:13:46.000Z</Time>
            <Position>
              <LatitudeDegrees>41.94029487669467926025390625</LatitudeDegrees>
              <LongitudeDegrees>2.85031319595873355865478515625</LongitudeDegrees>
            </Position>
            <AltitudeMeters>152.8000030517578125</AltitudeMeters>
            <DistanceMeters>10787.297039109</DistanceMeters>
          </Trackpoint>
          <Trackpoint>
            <Time>2020-02-15T09:13:47.000Z</Time>
            <Position>
              <LatitudeDegrees>41.94030535407364368438720703125</LatitudeDegrees>
              <LongitudeDegrees>2.85031713545322418212890625</LongitudeDegrees>
            </Position>
            <AltitudeMeters>153</AltitudeMeters>
            <DistanceMeters>10788.506531723</DistanceMeters>
          </Trackpoint>
          <Trackpoint>
            <Time>2020-02-15T09:13:48.000Z</Time>
            <Position>
              <LatitudeDegrees>41.9403185136616230010986328125</LatitudeDegrees>
              <LongitudeDegrees>2.850321494042873382568359375</LongitudeDegrees>
            </Position>
            <AltitudeMeters>153</AltitudeMeters>
            <DistanceMeters>10790.015034048</DistanceMeters>
          </Trackpoint>
          <Trackpoint>
            <Time>2020-02-15T09:13:49.000Z</Time>
            <Position>
              <LatitudeDegrees>41.94033133797347545623779296875</LatitudeDegrees>
              <LongitudeDegrees>2.8503231704235076904296875</LongitudeDegrees>
            </Position>
            <AltitudeMeters>153</AltitudeMeters>
            <DistanceMeters>10791.446755862</DistanceMeters>
          </Trackpoint>
          <Trackpoint>
            <Time>2020-02-15T09:13:50.000Z</Time>
            <Position>
              <LatitudeDegrees>41.94034424610435962677001953125</LatitudeDegrees>
              <LongitudeDegrees>2.8503290377557277679443359375</LongitudeDegrees>
            </Position>
            <AltitudeMeters>153.1999969482421875</AltitudeMeters>
            <DistanceMeters>10792.958248284</DistanceMeters>
          </Trackpoint>
          <Trackpoint>
            <Time>2020-02-15T09:13:51.000Z</Time>
            <Position>
              <LatitudeDegrees>41.940355561673641204833984375</LatitudeDegrees>
              <LongitudeDegrees>2.85033498890697956085205078125</LongitudeDegrees>
            </Position>
            <AltitudeMeters>153.8000030517578125</AltitudeMeters>
            <DistanceMeters>10794.308831655</DistanceMeters>
          </Trackpoint>
          <Trackpoint>
            <Time>2020-02-15T09:13:52.000Z</Time>
            <Position>
              <LatitudeDegrees>41.94036654196679592132568359375</LatitudeDegrees>
              <LongitudeDegrees>2.8503447957336902618408203125</LongitudeDegrees>
            </Position>
            <AltitudeMeters>153.8000030517578125</AltitudeMeters>
            <DistanceMeters>10795.774832403</DistanceMeters>
          </Trackpoint>
          <Trackpoint>
            <Time>2020-02-15T09:13:53.000Z</Time>
            <Position>
              <LatitudeDegrees>41.94037626497447490692138671875</LatitudeDegrees>
              <LongitudeDegrees>2.85035309381783008575439453125</LongitudeDegrees>
            </Position>
            <AltitudeMeters>154.399993896484375</AltitudeMeters>
            <DistanceMeters>10797.053286092</DistanceMeters>
          </Trackpoint>
          <Trackpoint>
            <Time>2020-02-15T09:13:54.000Z</Time>
            <Position>
              <LatitudeDegrees>41.94038649089634418487548828125</LatitudeDegrees>
              <LongitudeDegrees>2.850359715521335601806640625</LongitudeDegrees>
            </Position>
            <AltitudeMeters>154.600006103515625</AltitudeMeters>
            <DistanceMeters>10798.313957919</DistanceMeters>
          </Trackpoint>
          <Trackpoint>
            <Time>2020-02-15T09:13:55.000Z</Time>
            <Position>
              <LatitudeDegrees>41.9403969682753086090087890625</LatitudeDegrees>
              <LongitudeDegrees>2.85037019290030002593994140625</LongitudeDegrees>
            </Position>
            <AltitudeMeters>154.8000030517578125</AltitudeMeters>
            <DistanceMeters>10799.767587131</DistanceMeters>
          </Trackpoint>
          <Trackpoint>
            <Time>2020-02-15T09:13:56.000Z</Time>
            <Position>
              <LatitudeDegrees>41.9404080323874950408935546875</LatitudeDegrees>
              <LongitudeDegrees>2.850381843745708465576171875</LongitudeDegrees>
            </Position>
            <AltitudeMeters>154.8000030517578125</AltitudeMeters>
            <DistanceMeters>10801.329035382</DistanceMeters>
          </Trackpoint>
          <Trackpoint>
            <Time>2020-02-15T09:13:57.000Z</Time>
            <Position>
              <LatitudeDegrees>41.940421275794506072998046875</LatitudeDegrees>
              <LongitudeDegrees>2.85038829781115055084228515625</LongitudeDegrees>
            </Position>
            <AltitudeMeters>155</AltitudeMeters>
            <DistanceMeters>10802.902007393</DistanceMeters>
          </Trackpoint>
          <Trackpoint>
            <Time>2020-02-15T09:13:58.000Z</Time>
            <Position>
              <LatitudeDegrees>41.9404325075447559356689453125</LatitudeDegrees>
              <LongitudeDegrees>2.85039667971432209014892578125</LongitudeDegrees>
            </Position>
            <AltitudeMeters>155.600006103515625</AltitudeMeters>
            <DistanceMeters>10804.330572154</DistanceMeters>
          </Trackpoint>
          <Trackpoint>
            <Time>2020-02-15T09:13:59.000Z</Time>
            <Position>
              <LatitudeDegrees>41.94044684059917926788330078125</LatitudeDegrees>
              <LongitudeDegrees>2.85040606744587421417236328125</LongitudeDegrees>
            </Position>
            <AltitudeMeters>155.8000030517578125</AltitudeMeters>
            <DistanceMeters>10806.103272524</DistanceMeters>
          </Trackpoint>
          <Trackpoint>
            <Time>2020-02-15T09:14:00.000Z</Time>
            <Position>
              <LatitudeDegrees>41.940463520586490631103515625</LatitudeDegrees>
              <LongitudeDegrees>2.85040506161749362945556640625</LongitudeDegrees>
            </Position>
            <AltitudeMeters>156.1999969482421875</AltitudeMeters>
            <DistanceMeters>10807.962981985</DistanceMeters>
          </Trackpoint>
          <Trackpoint>
            <Time>2020-02-15T09:14:01.000Z</Time>
            <Position>
              <LatitudeDegrees>41.94047450087964534759521484375</LatitudeDegrees>
              <LongitudeDegrees>2.85040103830397129058837890625</LongitudeDegrees>
            </Position>
            <AltitudeMeters>156.399993896484375</AltitudeMeters>
            <DistanceMeters>10809.227230192</DistanceMeters>
          </Trackpoint>
          <Trackpoint>
            <Time>2020-02-15T09:14:02.000Z</Time>
            <Position>
              <LatitudeDegrees>41.94048799574375152587890625</LatitudeDegrees>
              <LongitudeDegrees>2.85039424896240234375</LongitudeDegrees>
            </Position>
            <AltitudeMeters>156.600006103515625</AltitudeMeters>
            <DistanceMeters>10810.828648848</DistanceMeters>
          </Trackpoint>
          <Trackpoint>
            <Time>2020-02-15T09:14:03.000Z</Time>
            <Position>
              <LatitudeDegrees>41.9405029155313968658447265625</LatitudeDegrees>
              <LongitudeDegrees>2.85038963891565799713134765625</LongitudeDegrees>
            </Position>
            <AltitudeMeters>156.600006103515625</AltitudeMeters>
            <DistanceMeters>10812.533842272</DistanceMeters>
          </Trackpoint>
          <Trackpoint>
            <Time>2020-02-15T09:14:04.000Z</Time>
            <Position>
              <LatitudeDegrees>41.9405190087854862213134765625</LatitudeDegrees>
              <LongitudeDegrees>2.8503873758018016815185546875</LongitudeDegrees>
            </Position>
            <AltitudeMeters>156.600006103515625</AltitudeMeters>
            <DistanceMeters>10814.334341493</DistanceMeters>
          </Trackpoint>
          <Trackpoint>
            <Time>2020-02-15T09:14:05.000Z</Time>
            <Position>
              <LatitudeDegrees>41.94053761661052703857421875</LatitudeDegrees>
              <LongitudeDegrees>2.85038712434470653533935546875</LongitudeDegrees>
            </Position>
            <AltitudeMeters>156.8000030517578125</AltitudeMeters>
            <DistanceMeters>10816.407579633</DistanceMeters>
          </Trackpoint>
          <Trackpoint>
            <Time>2020-02-15T09:14:06.000Z</Time>
            <Position>
              <LatitudeDegrees>41.9405558891594409942626953125</LatitudeDegrees>
              <LongitudeDegrees>2.85038947127759456634521484375</LongitudeDegrees>
            </Position>
            <AltitudeMeters>157</AltitudeMeters>
            <DistanceMeters>10818.450101437</DistanceMeters>
          </Trackpoint>
          <Trackpoint>
            <Time>2020-02-15T09:14:07.000Z</Time>
            <Position>
              <LatitudeDegrees>41.94057323969900608062744140625</LatitudeDegrees>
              <LongitudeDegrees>2.85039248876273632049560546875</LongitudeDegrees>
            </Position>
            <AltitudeMeters>157.1999969482421875</AltitudeMeters>
            <DistanceMeters>10820.3998866</DistanceMeters>
          </Trackpoint>
          <Trackpoint>
            <Time>2020-02-15T09:14:08.000Z</Time>
            <Position>
              <LatitudeDegrees>41.9405905902385711669921875</LatitudeDegrees>
              <LongitudeDegrees>2.8503913991153240203857421875</LongitudeDegrees>
            </Position>
            <AltitudeMeters>157.399993896484375</AltitudeMeters>
            <DistanceMeters>10822.338058883</DistanceMeters>
          </Trackpoint>
          <Trackpoint>
            <Time>2020-02-15T09:14:09.000Z</Time>
            <Position>
              <LatitudeDegrees>41.94060374982655048370361328125</LatitudeDegrees>
              <LongitudeDegrees>2.85038611851632595062255859375</LongitudeDegrees>
            </Position>
            <AltitudeMeters>157.399993896484375</AltitudeMeters>
            <DistanceMeters>10823.86736912</DistanceMeters>
          </Trackpoint>
          <Trackpoint>
            <Time>2020-02-15T09:14:10.000Z</Time>
            <Position>
              <LatitudeDegrees>41.94061548449099063873291015625</LatitudeDegrees>
              <LongitudeDegrees>2.85038175992667675018310546875</LongitudeDegrees>
            </Position>
            <AltitudeMeters>157.600006103515625</AltitudeMeters>
            <DistanceMeters>10825.217952491</DistanceMeters>
          </Trackpoint>
          <Trackpoint>
            <Time>2020-02-15T09:14:11.000Z</Time>
            <Position>
              <LatitudeDegrees>41.94062923081219196319580078125</LatitudeDegrees>
              <LongitudeDegrees>2.85038209520280361175537109375</LongitudeDegrees>
            </Position>
            <AltitudeMeters>157.8000030517578125</AltitudeMeters>
            <DistanceMeters>10826.744307535</DistanceMeters>
          </Trackpoint>
          <Trackpoint>
            <Time>2020-02-15T09:14:12.000Z</Time>
            <Position>
              <LatitudeDegrees>41.9406402111053466796875</LatitudeDegrees>
              <LongitudeDegrees>2.8503856994211673736572265625</LongitudeDegrees>
            </Position>
            <AltitudeMeters>158</AltitudeMeters>
            <DistanceMeters>10828.004979362</DistanceMeters>
          </Trackpoint>
          <Trackpoint>
            <Time>2020-02-15T09:14:13.000Z</Time>
            <Position>
              <LatitudeDegrees>41.9406504370272159576416015625</LatitudeDegrees>
              <LongitudeDegrees>2.85038963891565799713134765625</LongitudeDegrees>
            </Position>
            <AltitudeMeters>158</AltitudeMeters>
            <DistanceMeters>10829.191862644</DistanceMeters>
          </Trackpoint>
          <Trackpoint>
            <Time>2020-02-15T09:14:14.000Z</Time>
            <Position>
              <LatitudeDegrees>41.9406554661691188812255859375</LatitudeDegrees>
              <LongitudeDegrees>2.85038980655372142791748046875</LongitudeDegrees>
            </Position>
            <AltitudeMeters>158.1999969482421875</AltitudeMeters>
            <DistanceMeters>10829.754048268</DistanceMeters>
          </Trackpoint>
          <Trackpoint>
            <Time>2020-02-15T09:14:16.000Z</Time>
            <Position>
              <LatitudeDegrees>41.9406685419380664825439453125</LatitudeDegrees>
              <LongitudeDegrees>2.85039600916206836700439453125</LongitudeDegrees>
            </Position>
            <AltitudeMeters>158.8000030517578125</AltitudeMeters>
            <DistanceMeters>10831.298049622</DistanceMeters>
          </Trackpoint>
          <Trackpoint>
            <Time>2020-02-15T09:14:25.000Z</Time>
            <Position>
              <LatitudeDegrees>41.9406913407146930694580078125</LatitudeDegrees>
              <LongitudeDegrees>2.85040271468460559844970703125</LongitudeDegrees>
            </Position>
            <AltitudeMeters>161.600006103515625</AltitudeMeters>
            <DistanceMeters>10833.896991172</DistanceMeters>
          </Trackpoint>
          <Trackpoint>
            <Time>2020-02-15T09:14:30.000Z</Time>
            <Position>
              <LatitudeDegrees>41.94069226272404193878173828125</LatitudeDegrees>
              <LongitudeDegrees>2.85040992312133312225341796875</LongitudeDegrees>
            </Position>
            <AltitudeMeters>161.600006103515625</AltitudeMeters>
            <DistanceMeters>10834.497992884</DistanceMeters>
          </Trackpoint>
          <Trackpoint>
            <Time>2020-02-15T09:14:34.000Z</Time>
            <Position>
              <LatitudeDegrees>41.940696202218532562255859375</LatitudeDegrees>
              <LongitudeDegrees>2.850410006940364837646484375</LongitudeDegrees>
            </Position>
            <AltitudeMeters>161.8000030517578125</AltitudeMeters>
            <DistanceMeters>10834.943707682</DistanceMeters>
          </Trackpoint>
          <Trackpoint>
            <Time>2020-02-15T09:14:41.000Z</Time>
            <Position>
              <LatitudeDegrees>41.9406695477664470672607421875</LatitudeDegrees>
              <LongitudeDegrees>2.85040589980781078338623046875</LongitudeDegrees>
            </Position>
            <AltitudeMeters>161.600006103515625</AltitudeMeters>
            <DistanceMeters>10837.930631773</DistanceMeters>
          </Trackpoint>
          <Trackpoint>
            <Time>2020-02-15T09:14:42.000Z</Time>
            <Position>
              <LatitudeDegrees>41.9406524486839771270751953125</LatitudeDegrees>
              <LongitudeDegrees>2.85041277296841144561767578125</LongitudeDegrees>
            </Position>
            <AltitudeMeters>161.8000030517578125</AltitudeMeters>
            <DistanceMeters>10839.914847823</DistanceMeters>
          </Trackpoint>
          <Trackpoint>
            <Time>2020-02-15T09:14:43.000Z</Time>
            <Position>
              <LatitudeDegrees>41.94064063020050525665283203125</LatitudeDegrees>
              <LongitudeDegrees>2.85041729919612407684326171875</LongitudeDegrees>
            </Position>
            <AltitudeMeters>161.600006103515625</AltitudeMeters>
            <DistanceMeters>10841.278737755</DistanceMeters>
          </Trackpoint>
          <Trackpoint>
            <Time>2020-02-15T09:14:45.000Z</Time>
            <Position>
              <LatitudeDegrees>41.940615735948085784912109375</LatitudeDegrees>
              <LongitudeDegrees>2.85043272189795970916748046875</LongitudeDegrees>
            </Position>
            <AltitudeMeters>161.600006103515625</AltitudeMeters>
            <DistanceMeters>10844.328488357</DistanceMeters>
          </Trackpoint>
          <Trackpoint>
            <Time>2020-02-15T09:14:46.000Z</Time>
            <Position>
              <LatitudeDegrees>41.9406018219888210296630859375</LatitudeDegrees>
              <LongitudeDegrees>2.85044076852500438690185546875</LongitudeDegrees>
            </Position>
            <AltitudeMeters>161.399993896484375</AltitudeMeters>
            <DistanceMeters>10846.012366026</DistanceMeters>
          </Trackpoint>
          <Trackpoint>
            <Time>2020-02-15T09:14:47.000Z</Time>
            <Position>
              <LatitudeDegrees>41.94058723747730255126953125</LatitudeDegrees>
              <LongitudeDegrees>2.85044881515204906463623046875</LongitudeDegrees>
            </Position>
            <AltitudeMeters>161.399993896484375</AltitudeMeters>
            <DistanceMeters>10847.767146943</DistanceMeters>
          </Trackpoint>
          <Trackpoint>
            <Time>2020-02-15T09:14:48.000Z</Time>
            <Position>
              <LatitudeDegrees>41.94057391025125980377197265625</LatitudeDegrees>
              <LongitudeDegrees>2.85045686177909374237060546875</LongitudeDegrees>
            </Position>
            <AltitudeMeters>161.399993896484375</AltitudeMeters>
            <DistanceMeters>10849.396515678</DistanceMeters>
          </Trackpoint>
          <Trackpoint>
            <Time>2020-02-15T09:14:49.000Z</Time>
            <Position>
              <LatitudeDegrees>41.940563432872295379638671875</LatitudeDegrees>
              <LongitudeDegrees>2.85046407021582126617431640625</LongitudeDegrees>
            </Position>
            <AltitudeMeters>161.399993896484375</AltitudeMeters>
            <DistanceMeters>10850.706368542</DistanceMeters>
          </Trackpoint>
          <Trackpoint>
            <Time>2020-02-15T09:14:50.000Z</Time>
            <Position>
              <LatitudeDegrees>41.94055396132171154022216796875</LatitudeDegrees>
              <LongitudeDegrees>2.85046893171966075897216796875</LongitudeDegrees>
            </Position>
            <AltitudeMeters>160.600006103515625</AltitudeMeters>
            <DistanceMeters>10851.830739789</DistanceMeters>
          </Trackpoint>
          <Trackpoint>
            <Time>2020-02-15T09:14:51.000Z</Time>
            <Position>
              <LatitudeDegrees>41.94054960273206233978271484375</LatitudeDegrees>
              <LongitudeDegrees>2.85047312267124652862548828125</LongitudeDegrees>
            </Position>
            <AltitudeMeters>160.399993896484375</AltitudeMeters>
            <DistanceMeters>10852.431741501</DistanceMeters>
          </Trackpoint>
          <Trackpoint>
            <Time>2020-02-15T09:14:52.000Z</Time>
            <Position>
              <LatitudeDegrees>41.9405501894652843475341796875</LatitudeDegrees>
              <LongitudeDegrees>2.85047672688961029052734375</LongitudeDegrees>
            </Position>
            <AltitudeMeters>160.399993896484375</AltitudeMeters>
            <DistanceMeters>10852.746909458</DistanceMeters>
          </Trackpoint>
          <Trackpoint>
            <Time>2020-02-15T09:14:56.000Z</Time>
            <Position>
              <LatitudeDegrees>41.94054507650434970855712890625</LatitudeDegrees>
              <LongitudeDegrees>2.85046457313001155853271484375</LongitudeDegrees>
            </Position>
            <AltitudeMeters>159.1999969482421875</AltitudeMeters>
            <DistanceMeters>10853.902959333</DistanceMeters>
          </Trackpoint>
          <Trackpoint>
            <Time>2020-02-15T09:14:57.000Z</Time>
            <Position>
              <LatitudeDegrees>41.94052864797413349151611328125</LatitudeDegrees>
              <LongitudeDegrees>2.85045552067458629608154296875</LongitudeDegrees>
            </Position>
            <AltitudeMeters>158.600006103515625</AltitudeMeters>
            <DistanceMeters>10855.880337168</DistanceMeters>
          </Trackpoint>
          <Trackpoint>
            <Time>2020-02-15T09:14:58.000Z</Time>
            <Position>
              <LatitudeDegrees>41.94051540456712245941162109375</LatitudeDegrees>
              <LongitudeDegrees>2.85044730640947818756103515625</LongitudeDegrees>
            </Position>
            <AltitudeMeters>158.1999969482421875</AltitudeMeters>
            <DistanceMeters>10857.504154375</DistanceMeters>
          </Trackpoint>
          <Trackpoint>
            <Time>2020-02-15T09:14:59.000Z</Time>
            <Position>
              <LatitudeDegrees>41.940492354333400726318359375</LatitudeDegrees>
              <LongitudeDegrees>2.85043037496507167816162109375</LongitudeDegrees>
            </Position>
            <AltitudeMeters>157.600006103515625</AltitudeMeters>
            <DistanceMeters>10860.426901766</DistanceMeters>
          </Trackpoint>
          <Trackpoint>
            <Time>2020-02-15T09:15:01.000Z</Time>
            <Position>
              <LatitudeDegrees>41.940433345735073089599609375</LatitudeDegrees>
              <LongitudeDegrees>2.85041227005422115325927734375</LongitudeDegrees>
            </Position>
            <AltitudeMeters>157.399993896484375</AltitudeMeters>
            <DistanceMeters>10867.163752975</DistanceMeters>
          </Trackpoint>
          <Trackpoint>
            <Time>2020-02-15T09:15:02.000Z</Time>
            <Position>
              <LatitudeDegrees>41.940402500331401824951171875</LatitudeDegrees>
              <LongitudeDegrees>2.8504009544849395751953125</LongitudeDegrees>
            </Position>
            <AltitudeMeters>157.399993896484375</AltitudeMeters>
            <DistanceMeters>10870.723134558</DistanceMeters>
          </Trackpoint>
          <Trackpoint>
            <Time>2020-02-15T09:15:03.000Z</Time>
            <Position>
              <LatitudeDegrees>41.9403681345283985137939453125</LatitudeDegrees>
              <LongitudeDegrees>2.85038712434470653533935546875</LongitudeDegrees>
            </Position>
            <AltitudeMeters>157.399993896484375</AltitudeMeters>
            <DistanceMeters>10874.716518461</DistanceMeters>
          </Trackpoint>
          <Trackpoint>
            <Time>2020-02-15T09:15:05.000Z</Time>
            <Position>
              <LatitudeDegrees>41.9403161667287349700927734375</LatitudeDegrees>
              <LongitudeDegrees>2.85036650486290454864501953125</LongitudeDegrees>
            </Position>
            <AltitudeMeters>157.399993896484375</AltitudeMeters>
            <DistanceMeters>10880.747533957</DistanceMeters>
          </Trackpoint>
          <Trackpoint>
            <Time>2020-02-15T09:15:06.000Z</Time>
            <Position>
              <LatitudeDegrees>41.94030468352138996124267578125</LatitudeDegrees>
              <LongitudeDegrees>2.850365079939365386962890625</LongitudeDegrees>
            </Position>
            <AltitudeMeters>157.1999969482421875</AltitudeMeters>
            <DistanceMeters>10882.033031522</DistanceMeters>
          </Trackpoint>
          <Trackpoint>
            <Time>2020-02-15T09:15:07.000Z</Time>
            <Position>
              <LatitudeDegrees>41.94030149839818477630615234375</LatitudeDegrees>
              <LongitudeDegrees>2.85036834888160228729248046875</LongitudeDegrees>
            </Position>
            <AltitudeMeters>157</AltitudeMeters>
            <DistanceMeters>10882.478746321</DistanceMeters>
          </Trackpoint>
          <Trackpoint>
            <Time>2020-02-15T09:15:08.000Z</Time>
            <Position>
              <LatitudeDegrees>41.940300576388835906982421875</LatitudeDegrees>
              <LongitudeDegrees>2.85037622787058353424072265625</LongitudeDegrees>
            </Position>
            <AltitudeMeters>156.600006103515625</AltitudeMeters>
            <DistanceMeters>10883.13711071</DistanceMeters>
          </Trackpoint>
          <Trackpoint>
            <Time>2020-02-15T09:15:09.000Z</Time>
            <Position>
              <LatitudeDegrees>41.94030560553073883056640625</LatitudeDegrees>
              <LongitudeDegrees>2.85038444213569164276123046875</LongitudeDegrees>
            </Position>
            <AltitudeMeters>156.1999969482421875</AltitudeMeters>
            <DistanceMeters>10884.018352206</DistanceMeters>
          </Trackpoint>
          <Trackpoint>
            <Time>2020-02-15T09:15:11.000Z</Time>
            <Position>
              <LatitudeDegrees>41.94031591527163982391357421875</LatitudeDegrees>
              <LongitudeDegrees>2.850400619208812713623046875</LongitudeDegrees>
            </Position>
            <AltitudeMeters>155.1999969482421875</AltitudeMeters>
            <DistanceMeters>10885.780835198</DistanceMeters>
          </Trackpoint>
          <Trackpoint>
            <Time>2020-02-15T09:15:12.000Z</Time>
            <Position>
              <LatitudeDegrees>41.940323375165462493896484375</LatitudeDegrees>
              <LongitudeDegrees>2.850403301417827606201171875</LongitudeDegrees>
            </Position>
            <AltitudeMeters>154.600006103515625</AltitudeMeters>
            <DistanceMeters>10886.641338695</DistanceMeters>
          </Trackpoint>
          <Trackpoint>
            <Time>2020-02-15T09:15:13.000Z</Time>
            <Position>
              <LatitudeDegrees>41.9403305836021900177001953125</LatitudeDegrees>
              <LongitudeDegrees>2.8504048101603984832763671875</LongitudeDegrees>
            </Position>
            <AltitudeMeters>154.600006103515625</AltitudeMeters>
            <DistanceMeters>10887.458789401</DistanceMeters>
          </Trackpoint>
          <Trackpoint>
            <Time>2020-02-15T09:15:14.000Z</Time>
            <Position>
              <LatitudeDegrees>41.94033217616379261016845703125</LatitudeDegrees>
              <LongitudeDegrees>2.850409336388111114501953125</LongitudeDegrees>
            </Position>
            <AltitudeMeters>154.399993896484375</AltitudeMeters>
            <DistanceMeters>10887.873001246</DistanceMeters>
          </Trackpoint>
          <Trackpoint>
            <Time>2020-02-15T09:15:15.000Z</Time>
            <Position>
              <LatitudeDegrees>41.9403359480202198028564453125</LatitudeDegrees>
              <LongitudeDegrees>2.8504165448248386383056640625</LongitudeDegrees>
            </Position>
            <AltitudeMeters>154.1999969482421875</AltitudeMeters>
            <DistanceMeters>10888.596703142</DistanceMeters>
          </Trackpoint>
          <Trackpoint>
            <Time>2020-02-15T09:15:16.000Z</Time>
            <Position>
              <LatitudeDegrees>41.94034273736178874969482421875</LatitudeDegrees>
              <LongitudeDegrees>2.8504250943660736083984375</LongitudeDegrees>
            </Position>
            <AltitudeMeters>154.1999969482421875</AltitudeMeters>
            <DistanceMeters>10889.628957481</DistanceMeters>
          </Trackpoint>
          <Trackpoint>
            <Time>2020-02-15T09:15:17.000Z</Time>
            <Position>
              <LatitudeDegrees>41.9403507001698017120361328125</LatitudeDegrees>
              <LongitudeDegrees>2.850435487926006317138671875</LongitudeDegrees>
            </Position>
            <AltitudeMeters>154.1999969482421875</AltitudeMeters>
            <DistanceMeters>10890.86795425</DistanceMeters>
          </Trackpoint>
          <Trackpoint>
            <Time>2020-02-15T09:15:18.000Z</Time>
            <Position>
              <LatitudeDegrees>41.9403584115207195281982421875</LatitudeDegrees>
              <LongitudeDegrees>2.85044856369495391845703125</LongitudeDegrees>
            </Position>
            <AltitudeMeters>154.1999969482421875</AltitudeMeters>
            <DistanceMeters>10892.251564097</DistanceMeters>
          </Trackpoint>
          <Trackpoint>
            <Time>2020-02-15T09:15:19.000Z</Time>
            <Position>
              <LatitudeDegrees>41.9403671287000179290771484375</LatitudeDegrees>
              <LongitudeDegrees>2.85046289674937725067138671875</LongitudeDegrees>
            </Position>
            <AltitudeMeters>154.1999969482421875</AltitudeMeters>
            <DistanceMeters>10893.78676765</DistanceMeters>
          </Trackpoint>
          <Trackpoint>
            <Time>2020-02-15T09:15:20.000Z</Time>
            <Position>
              <LatitudeDegrees>41.940376348793506622314453125</LatitudeDegrees>
              <LongitudeDegrees>2.85047681070864200592041015625</LongitudeDegrees>
            </Position>
            <AltitudeMeters>154.1999969482421875</AltitudeMeters>
            <DistanceMeters>10895.330769004</DistanceMeters>
          </Trackpoint>
          <Trackpoint>
            <Time>2020-02-15T09:15:21.000Z</Time>
            <Position>
              <LatitudeDegrees>41.940384395420551300048828125</LatitudeDegrees>
              <LongitudeDegrees>2.8504896350204944610595703125</LongitudeDegrees>
            </Position>
            <AltitudeMeters>154.1999969482421875</AltitudeMeters>
            <DistanceMeters>10896.720889992</DistanceMeters>
          </Trackpoint>
          <Trackpoint>
            <Time>2020-02-15T09:15:22.000Z</Time>
            <Position>
              <LatitudeDegrees>41.940393112599849700927734375</LatitudeDegrees>
              <LongitudeDegrees>2.8505055606365203857421875</LongitudeDegrees>
            </Position>
            <AltitudeMeters>154.1999969482421875</AltitudeMeters>
            <DistanceMeters>10898.358550733</DistanceMeters>
          </Trackpoint>
          <Trackpoint>
            <Time>2020-02-15T09:15:23.000Z</Time>
            <Position>
              <LatitudeDegrees>41.9404001533985137939453125</LatitudeDegrees>
              <LongitudeDegrees>2.8505234979093074798583984375</LongitudeDegrees>
            </Position>
            <AltitudeMeters>154.1999969482421875</AltitudeMeters>
            <DistanceMeters>10900.037057167</DistanceMeters>
          </Trackpoint>
          <Trackpoint>
            <Time>2020-02-15T09:15:24.000Z</Time>
            <Position>
              <LatitudeDegrees>41.9404073618352413177490234375</LatitudeDegrees>
              <LongitudeDegrees>2.85053866915404796600341796875</LongitudeDegrees>
            </Position>
            <AltitudeMeters>154.399993896484375</AltitudeMeters>
            <DistanceMeters>10901.527492944</DistanceMeters>
          </Trackpoint>
          <Trackpoint>
            <Time>2020-02-15T09:15:25.000Z</Time>
            <Position>
              <LatitudeDegrees>41.94041557610034942626953125</LatitudeDegrees>
              <LongitudeDegrees>2.8505533374845981597900390625</LongitudeDegrees>
            </Position>
            <AltitudeMeters>154.600006103515625</AltitudeMeters>
            <DistanceMeters>10903.047920374</DistanceMeters>
          </Trackpoint>
          <Trackpoint>
            <Time>2020-02-15T09:15:26.000Z</Time>
            <Position>
              <LatitudeDegrees>41.94042404182255268096923828125</LatitudeDegrees>
              <LongitudeDegrees>2.85056750290095806121826171875</LongitudeDegrees>
            </Position>
            <AltitudeMeters>154.8000030517578125</AltitudeMeters>
            <DistanceMeters>10904.550424654</DistanceMeters>
          </Trackpoint>
          <Trackpoint>
            <Time>2020-02-15T09:15:27.000Z</Time>
            <Position>
              <LatitudeDegrees>41.9404321722686290740966796875</LatitudeDegrees>
              <LongitudeDegrees>2.85058292560279369354248046875</LongitudeDegrees>
            </Position>
            <AltitudeMeters>155</AltitudeMeters>
            <DistanceMeters>10906.117645377</DistanceMeters>
          </Trackpoint>
          <Trackpoint>
            <Time>2020-02-15T09:15:28.000Z</Time>
            <Position>
              <LatitudeDegrees>41.94044248200953006744384765625</LatitudeDegrees>
              <LongitudeDegrees>2.85059952177107334136962890625</LongitudeDegrees>
            </Position>
            <AltitudeMeters>155.1999969482421875</AltitudeMeters>
            <DistanceMeters>10907.910605837</DistanceMeters>
          </Trackpoint>
          <Trackpoint>
            <Time>2020-02-15T09:15:29.000Z</Time>
            <Position>
              <LatitudeDegrees>41.94045136682689189910888671875</LatitudeDegrees>
              <LongitudeDegrees>2.8506146930158138275146484375</LongitudeDegrees>
            </Position>
            <AltitudeMeters>155.399993896484375</AltitudeMeters>
            <DistanceMeters>10909.512024493</DistanceMeters>
          </Trackpoint>
          <Trackpoint>
            <Time>2020-02-15T09:15:30.000Z</Time>
            <Position>
              <LatitudeDegrees>41.9404610060155391693115234375</LatitudeDegrees>
              <LongitudeDegrees>2.8506316244602203369140625</LongitudeDegrees>
            </Position>
            <AltitudeMeters>155.600006103515625</AltitudeMeters>
            <DistanceMeters>10911.274507485</DistanceMeters>
          </Trackpoint>
          <Trackpoint>
            <Time>2020-02-15T09:15:31.000Z</Time>
            <Position>
              <LatitudeDegrees>41.9404697231948375701904296875</LatitudeDegrees>
              <LongitudeDegrees>2.85064880736172199249267578125</LongitudeDegrees>
            </Position>
            <AltitudeMeters>155.8000030517578125</AltitudeMeters>
            <DistanceMeters>10912.995514479</DistanceMeters>
          </Trackpoint>
          <Trackpoint>
            <Time>2020-02-15T09:15:32.000Z</Time>
            <Position>
              <LatitudeDegrees>41.94047684781253337860107421875</LatitudeDegrees>
              <LongitudeDegrees>2.8506626375019550323486328125</LongitudeDegrees>
            </Position>
            <AltitudeMeters>155.8000030517578125</AltitudeMeters>
            <DistanceMeters>10914.385635466</DistanceMeters>
          </Trackpoint>
          <Trackpoint>
            <Time>2020-02-15T09:15:33.000Z</Time>
            <Position>
              <LatitudeDegrees>41.94048221223056316375732421875</LatitudeDegrees>
              <LongitudeDegrees>2.8506716899573802947998046875</LongitudeDegrees>
            </Position>
            <AltitudeMeters>155.8000030517578125</AltitudeMeters>
            <DistanceMeters>10915.33590261</DistanceMeters>
          </Trackpoint>
          <Trackpoint>
            <Time>2020-02-15T09:15:34.000Z</Time>
            <Position>
              <LatitudeDegrees>41.94048640318214893341064453125</LatitudeDegrees>
              <LongitudeDegrees>2.8506737016141414642333984375</LongitudeDegrees>
            </Position>
            <AltitudeMeters>156</AltitudeMeters>
            <DistanceMeters>10915.838736718</DistanceMeters>
          </Trackpoint>
          <Trackpoint>
            <Time>2020-02-15T09:15:35.000Z</Time>
            <Position>
              <LatitudeDegrees>41.94048841483891010284423828125</LatitudeDegrees>
              <LongitudeDegrees>2.85067730583250522613525390625</LongitudeDegrees>
            </Position>
            <AltitudeMeters>156</AltitudeMeters>
            <DistanceMeters>10916.218843575</DistanceMeters>
          </Trackpoint>
          <Trackpoint>
            <Time>2020-02-15T09:15:40.000Z</Time>
            <Position>
              <LatitudeDegrees>41.9404992274940013885498046875</LatitudeDegrees>
              <LongitudeDegrees>2.850684933364391326904296875</LongitudeDegrees>
            </Position>
            <AltitudeMeters>156.1999969482421875</AltitudeMeters>
            <DistanceMeters>10917.579419068</DistanceMeters>
          </Trackpoint>
          <Trackpoint>
            <Time>2020-02-15T09:15:41.000Z</Time>
            <Position>
              <LatitudeDegrees>41.940508447587490081787109375</LatitudeDegrees>
              <LongitudeDegrees>2.85069800913333892822265625</LongitudeDegrees>
            </Position>
            <AltitudeMeters>156.1999969482421875</AltitudeMeters>
            <DistanceMeters>10919.069854845</DistanceMeters>
          </Trackpoint>
          <Trackpoint>
            <Time>2020-02-15T09:15:42.000Z</Time>
            <Position>
              <LatitudeDegrees>41.94051741622388362884521484375</LatitudeDegrees>
              <LongitudeDegrees>2.8507068939507007598876953125</LongitudeDegrees>
            </Position>
            <AltitudeMeters>156.1999969482421875</AltitudeMeters>
            <DistanceMeters>10920.308851615</DistanceMeters>
          </Trackpoint>
          <Trackpoint>
            <Time>2020-02-15T09:15:43.000Z</Time>
            <Position>
              <LatitudeDegrees>41.94052864797413349151611328125</LatitudeDegrees>
              <LongitudeDegrees>2.8507186286151409149169921875</LongitudeDegrees>
            </Position>
            <AltitudeMeters>156.399993896484375</AltitudeMeters>
            <DistanceMeters>10921.893263572</DistanceMeters>
          </Trackpoint>
          <Trackpoint>
            <Time>2020-02-15T09:15:44.000Z</Time>
            <Position>
              <LatitudeDegrees>41.9405369460582733154296875</LatitudeDegrees>
              <LongitudeDegrees>2.8507273457944393157958984375</LongitudeDegrees>
            </Position>
            <AltitudeMeters>156.1999969482421875</AltitudeMeters>
            <DistanceMeters>10923.068679114</DistanceMeters>
          </Trackpoint>
          <Trackpoint>
            <Time>2020-02-15T09:15:45.000Z</Time>
            <Position>
              <LatitudeDegrees>41.9405438192188739776611328125</LatitudeDegrees>
              <LongitudeDegrees>2.85073564387857913970947265625</LongitudeDegrees>
            </Position>
            <AltitudeMeters>156.1999969482421875</AltitudeMeters>
            <DistanceMeters>10924.09214815</DistanceMeters>
          </Trackpoint>
          <Trackpoint>
            <Time>2020-02-15T09:15:46.000Z</Time>
            <Position>
              <LatitudeDegrees>41.9405525363981723785400390625</LatitudeDegrees>
              <LongitudeDegrees>2.85074486397206783294677734375</LongitudeDegrees>
            </Position>
            <AltitudeMeters>156.399993896484375</AltitudeMeters>
            <DistanceMeters>10925.323835141</DistanceMeters>
          </Trackpoint>
          <Trackpoint>
            <Time>2020-02-15T09:15:47.000Z</Time>
            <Position>
              <LatitudeDegrees>41.9405612535774707794189453125</LatitudeDegrees>
              <LongitudeDegrees>2.85075391642749309539794921875</LongitudeDegrees>
            </Position>
            <AltitudeMeters>156.399993896484375</AltitudeMeters>
            <DistanceMeters>10926.54816871</DistanceMeters>
          </Trackpoint>
          <Trackpoint>
            <Time>2020-02-15T09:15:48.000Z</Time>
            <Position>
              <LatitudeDegrees>41.94056980311870574951171875</LatitudeDegrees>
              <LongitudeDegrees>2.85076246596872806549072265625</LongitudeDegrees>
            </Position>
            <AltitudeMeters>156.399993896484375</AltitudeMeters>
            <DistanceMeters>10927.731241763</DistanceMeters>
          </Trackpoint>
          <Trackpoint>
            <Time>2020-02-15T09:15:49.000Z</Time>
            <Position>
              <LatitudeDegrees>41.94058044813573360443115234375</LatitudeDegrees>
              <LongitudeDegrees>2.85077176988124847412109375</LongitudeDegrees>
            </Position>
            <AltitudeMeters>156.399993896484375</AltitudeMeters>
            <DistanceMeters>10929.147107919</DistanceMeters>
          </Trackpoint>
          <Trackpoint>
            <Time>2020-02-15T09:15:50.000Z</Time>
            <Position>
              <LatitudeDegrees>41.9405905902385711669921875</LatitudeDegrees>
              <LongitudeDegrees>2.8507799841463565826416015625</LongitudeDegrees>
            </Position>
            <AltitudeMeters>156.600006103515625</AltitudeMeters>
            <DistanceMeters>10930.463836698</DistanceMeters>
          </Trackpoint>
          <Trackpoint>
            <Time>2020-02-15T09:15:51.000Z</Time>
            <Position>
              <LatitudeDegrees>41.940600313246250152587890625</LatitudeDegrees>
              <LongitudeDegrees>2.85078744404017925262451171875</LongitudeDegrees>
            </Position>
            <AltitudeMeters>156.600006103515625</AltitudeMeters>
            <DistanceMeters>10931.710100373</DistanceMeters>
          </Trackpoint>
          <Trackpoint>
            <Time>2020-02-15T09:15:52.000Z</Time>
            <Position>
              <LatitudeDegrees>41.9406102038919925689697265625</LatitudeDegrees>
              <LongitudeDegrees>2.85078979097306728363037109375</LongitudeDegrees>
            </Position>
            <AltitudeMeters>157</AltitudeMeters>
            <DistanceMeters>10932.826411508</DistanceMeters>
          </Trackpoint>
          <Trackpoint>
            <Time>2020-02-15T09:15:53.000Z</Time>
            <Position>
              <LatitudeDegrees>41.94062470458447933197021484375</LatitudeDegrees>
              <LongitudeDegrees>2.850798927247524261474609375</LongitudeDegrees>
            </Position>
            <AltitudeMeters>157</AltitudeMeters>
            <DistanceMeters>10934.609270702</DistanceMeters>
          </Trackpoint>
          <Trackpoint>
            <Time>2020-02-15T09:15:54.000Z</Time>
            <Position>
              <LatitudeDegrees>41.940637528896331787109375</LatitudeDegrees>
              <LongitudeDegrees>2.85080873407423496246337890625</LongitudeDegrees>
            </Position>
            <AltitudeMeters>157.1999969482421875</AltitudeMeters>
            <DistanceMeters>10936.249686132</DistanceMeters>
          </Trackpoint>
          <Trackpoint>
            <Time>2020-02-15T09:15:55.000Z</Time>
            <Position>
              <LatitudeDegrees>41.94065202958881855010986328125</LatitudeDegrees>
              <LongitudeDegrees>2.85082080401480197906494140625</LongitudeDegrees>
            </Position>
            <AltitudeMeters>157.1999969482421875</AltitudeMeters>
            <DistanceMeters>10938.150220419</DistanceMeters>
          </Trackpoint>
          <Trackpoint>
            <Time>2020-02-15T09:15:56.000Z</Time>
            <Position>
              <LatitudeDegrees>41.9406675361096858978271484375</LatitudeDegrees>
              <LongitudeDegrees>2.8508332930505275726318359375</LongitudeDegrees>
            </Position>
            <AltitudeMeters>157.1999969482421875</AltitudeMeters>
            <DistanceMeters>10940.161556852</DistanceMeters>
          </Trackpoint>
          <Trackpoint>
            <Time>2020-02-15T09:15:57.000Z</Time>
            <Position>
              <LatitudeDegrees>41.94067952223122119903564453125</LatitudeDegrees>
              <LongitudeDegrees>2.85083941183984279632568359375</LongitudeDegrees>
            </Position>
            <AltitudeMeters>157.1999969482421875</AltitudeMeters>
            <DistanceMeters>10941.586957568</DistanceMeters>
          </Trackpoint>
          <Trackpoint>
            <Time>2020-02-15T09:15:58.000Z</Time>
            <Position>
              <LatitudeDegrees>41.94068907760083675384521484375</LatitudeDegrees>
              <LongitudeDegrees>2.85084175877273082733154296875</LongitudeDegrees>
            </Position>
            <AltitudeMeters>157.1999969482421875</AltitudeMeters>
            <DistanceMeters>10942.66625357</DistanceMeters>
          </Trackpoint>
          <Trackpoint>
            <Time>2020-02-15T09:15:59.000Z</Time>
            <Position>
              <LatitudeDegrees>41.94069025106728076934814453125</LatitudeDegrees>
              <LongitudeDegrees>2.85083941183984279632568359375</LongitudeDegrees>
            </Position>
            <AltitudeMeters>157.8000030517578125</AltitudeMeters>
            <DistanceMeters>10942.899020532</DistanceMeters>
          </Trackpoint>
          <Trackpoint>
            <Time>2020-02-15T09:16:02.000Z</Time>
            <Position>
              <LatitudeDegrees>41.94069460965692996978759765625</LatitudeDegrees>
              <LongitudeDegrees>2.85084913484752178192138671875</LongitudeDegrees>
            </Position>
            <AltitudeMeters>159</AltitudeMeters>
            <DistanceMeters>10943.83973701</DistanceMeters>
          </Trackpoint>
          <Trackpoint>
            <Time>2020-02-15T09:16:05.000Z</Time>
            <Position>
              <LatitudeDegrees>41.94069997407495975494384765625</LatitudeDegrees>
              <LongitudeDegrees>2.8508554212749004364013671875</LongitudeDegrees>
            </Position>
            <AltitudeMeters>160.1999969482421875</AltitudeMeters>
            <DistanceMeters>10944.629088183</DistanceMeters>
          </Trackpoint>
          <Trackpoint>
            <Time>2020-02-15T09:16:12.000Z</Time>
            <Position>
              <LatitudeDegrees>41.9406946934759616851806640625</LatitudeDegrees>
              <LongitudeDegrees>2.8508711792528629302978515625</LongitudeDegrees>
            </Position>
            <AltitudeMeters>161.399993896484375</AltitudeMeters>
            <DistanceMeters>10946.057652944</DistanceMeters>
          </Trackpoint>
          <Trackpoint>
            <Time>2020-02-15T09:16:14.000Z</Time>
            <Position>
              <LatitudeDegrees>41.94069410674273967742919921875</LatitudeDegrees>
              <LongitudeDegrees>2.85087746568024158477783203125</LongitudeDegrees>
            </Position>
            <AltitudeMeters>161.399993896484375</AltitudeMeters>
            <DistanceMeters>10946.578135695</DistanceMeters>
          </Trackpoint>
          <Trackpoint>
            <Time>2020-02-15T09:16:21.000Z</Time>
            <Position>
              <LatitudeDegrees>41.9406826235353946685791015625</LatitudeDegrees>
              <LongitudeDegrees>2.85087092779576778411865234375</LongitudeDegrees>
            </Position>
            <AltitudeMeters>161.399993896484375</AltitudeMeters>
            <DistanceMeters>10947.968256682</DistanceMeters>
          </Trackpoint>
          <Trackpoint>
            <Time>2020-02-15T09:16:23.000Z</Time>
            <Position>
              <LatitudeDegrees>41.9406737387180328369140625</LatitudeDegrees>
              <LongitudeDegrees>2.85086698830127716064453125</LongitudeDegrees>
            </Position>
            <AltitudeMeters>161.399993896484375</AltitudeMeters>
            <DistanceMeters>10949.009222182</DistanceMeters>
          </Trackpoint>
          <Trackpoint>
            <Time>2020-02-15T09:16:24.000Z</Time>
            <Position>
              <LatitudeDegrees>41.940658651292324066162109375</LatitudeDegrees>
              <LongitudeDegrees>2.8508540801703929901123046875</LongitudeDegrees>
            </Position>
            <AltitudeMeters>161.399993896484375</AltitudeMeters>
            <DistanceMeters>10951.00025296</DistanceMeters>
          </Trackpoint>
          <Trackpoint>
            <Time>2020-02-15T09:16:25.000Z</Time>
            <Position>
              <LatitudeDegrees>41.94064565934240818023681640625</LatitudeDegrees>
              <LongitudeDegrees>2.85084762610495090484619140625</LongitudeDegrees>
            </Position>
            <AltitudeMeters>161.399993896484375</AltitudeMeters>
            <DistanceMeters>10952.541327295</DistanceMeters>
          </Trackpoint>
          <Trackpoint>
            <Time>2020-02-15T09:16:26.000Z</Time>
            <Position>
              <LatitudeDegrees>41.94063124246895313262939453125</LatitudeDegrees>
              <LongitudeDegrees>2.85084025003015995025634765625</LongitudeDegrees>
            </Position>
            <AltitudeMeters>161.1999969482421875</AltitudeMeters>
            <DistanceMeters>10954.257079293</DistanceMeters>
          </Trackpoint>
          <Trackpoint>
            <Time>2020-02-15T09:16:27.000Z</Time>
            <Position>
              <LatitudeDegrees>41.94061146117746829986572265625</LatitudeDegrees>
              <LongitudeDegrees>2.85082851536571979522705078125</LongitudeDegrees>
            </Position>
            <AltitudeMeters>161</AltitudeMeters>
            <DistanceMeters>10956.662963539</DistanceMeters>
          </Trackpoint>
          <Trackpoint>
            <Time>2020-02-15T09:16:28.000Z</Time>
            <Position>
              <LatitudeDegrees>41.94058916531503200531005859375</LatitudeDegrees>
              <LongitudeDegrees>2.8508128412067890167236328125</LongitudeDegrees>
            </Position>
            <AltitudeMeters>161</AltitudeMeters>
            <DistanceMeters>10959.462625367</DistanceMeters>
          </Trackpoint>
          <Trackpoint>
            <Time>2020-02-15T09:16:29.000Z</Time>
            <Position>
              <LatitudeDegrees>41.9405649416148662567138671875</LatitudeDegrees>
              <LongitudeDegrees>2.85079012624919414520263671875</LongitudeDegrees>
            </Position>
            <AltitudeMeters>161</AltitudeMeters>
            <DistanceMeters>10962.748956365</DistanceMeters>
          </Trackpoint>
          <Trackpoint>
            <Time>2020-02-15T09:16:32.000Z</Time>
            <Position>
              <LatitudeDegrees>41.94048254750669002532958984375</LatitudeDegrees>
              <LongitudeDegrees>2.85069859586656093597412109375</LongitudeDegrees>
            </Position>
            <AltitudeMeters>160.600006103515625</AltitudeMeters>
            <DistanceMeters>10974.645147269</DistanceMeters>
          </Trackpoint>
          <Trackpoint>
            <Time>2020-02-15T09:16:34.000Z</Time>
            <Position>
              <LatitudeDegrees>41.94042362272739410400390625</LatitudeDegrees>
              <LongitudeDegrees>2.850607819855213165283203125</LongitudeDegrees>
            </Position>
            <AltitudeMeters>160.1999969482421875</AltitudeMeters>
            <DistanceMeters>10984.619784218</DistanceMeters>
          </Trackpoint>
          <Trackpoint>
            <Time>2020-02-15T09:16:37.000Z</Time>
            <Position>
              <LatitudeDegrees>41.94034977816045284271240234375</LatitudeDegrees>
              <LongitudeDegrees>2.85047932527959346771240234375</LongitudeDegrees>
            </Position>
            <AltitudeMeters>158.8000030517578125</AltitudeMeters>
            <DistanceMeters>10998.063293802</DistanceMeters>
          </Trackpoint>
          <Trackpoint>
            <Time>2020-02-15T09:16:38.000Z</Time>
            <Position>
              <LatitudeDegrees>41.940322704613208770751953125</LatitudeDegrees>
              <LongitudeDegrees>2.85045183263719081878662109375</LongitudeDegrees>
            </Position>
            <AltitudeMeters>158</AltitudeMeters>
            <DistanceMeters>11001.840530991</DistanceMeters>
          </Trackpoint>
          <Trackpoint>
            <Time>2020-02-15T09:16:39.000Z</Time>
            <Position>
              <LatitudeDegrees>41.94029395468533039093017578125</LatitudeDegrees>
              <LongitudeDegrees>2.8504266031086444854736328125</LongitudeDegrees>
            </Position>
            <AltitudeMeters>158</AltitudeMeters>
            <DistanceMeters>11005.661739388</DistanceMeters>
          </Trackpoint>
          <Trackpoint>
            <Time>2020-02-15T09:16:40.000Z</Time>
            <Position>
              <LatitudeDegrees>41.9402759335935115814208984375</LatitudeDegrees>
              <LongitudeDegrees>2.85040103830397129058837890625</LongitudeDegrees>
            </Position>
            <AltitudeMeters>157.399993896484375</AltitudeMeters>
            <DistanceMeters>11008.578301064</DistanceMeters>
          </Trackpoint>
          <Trackpoint>
            <Time>2020-02-15T09:16:41.000Z</Time>
            <Position>
              <LatitudeDegrees>41.94026227109134197235107421875</LatitudeDegrees>
              <LongitudeDegrees>2.8503696061670780181884765625</LongitudeDegrees>
            </Position>
            <AltitudeMeters>157</AltitudeMeters>
            <DistanceMeters>11011.592311167</DistanceMeters>
          </Trackpoint>
          <Trackpoint>
            <Time>2020-02-15T09:16:42.000Z</Time>
            <Position>
              <LatitudeDegrees>41.94024793803691864013671875</LatitudeDegrees>
              <LongitudeDegrees>2.85034596920013427734375</LongitudeDegrees>
            </Position>
            <AltitudeMeters>156.399993896484375</AltitudeMeters>
            <DistanceMeters>11014.11365482</DistanceMeters>
          </Trackpoint>
          <Trackpoint>
            <Time>2020-02-15T09:16:43.000Z</Time>
            <Position>
              <LatitudeDegrees>41.9402313418686389923095703125</LatitudeDegrees>
              <LongitudeDegrees>2.850330881774425506591796875</LongitudeDegrees>
            </Position>
            <AltitudeMeters>156.1999969482421875</AltitudeMeters>
            <DistanceMeters>11016.342228813</DistanceMeters>
          </Trackpoint>
          <Trackpoint>
            <Time>2020-02-15T09:16:44.000Z</Time>
            <Position>
              <LatitudeDegrees>41.94021834991872310638427734375</LatitudeDegrees>
              <LongitudeDegrees>2.85032627172768115997314453125</LongitudeDegrees>
            </Position>
            <AltitudeMeters>156.1999969482421875</AltitudeMeters>
            <DistanceMeters>11017.835690859</DistanceMeters>
          </Trackpoint>
          <Trackpoint>
            <Time>2020-02-15T09:16:45.000Z</Time>
            <Position>
              <LatitudeDegrees>41.9402075372636318206787109375</LatitudeDegrees>
              <LongitudeDegrees>2.8503246791660785675048828125</LongitudeDegrees>
            </Position>
            <AltitudeMeters>155.399993896484375</AltitudeMeters>
            <DistanceMeters>11019.045183473</DistanceMeters>
          </Trackpoint>
          <Trackpoint>
            <Time>2020-02-15T09:16:46.000Z</Time>
            <Position>
              <LatitudeDegrees>41.94020208902657032012939453125</LatitudeDegrees>
              <LongitudeDegrees>2.8503199853003025054931640625</LongitudeDegrees>
            </Position>
            <AltitudeMeters>155.1999969482421875</AltitudeMeters>
            <DistanceMeters>11019.762619434</DistanceMeters>
          </Trackpoint>
          <Trackpoint>
            <Time>2020-02-15T09:16:52.000Z</Time>
            <Position>
              <LatitudeDegrees>41.9401931203901767730712890625</LatitudeDegrees>
              <LongitudeDegrees>2.85031219013035297393798828125</LongitudeDegrees>
            </Position>
            <AltitudeMeters>152.600006103515625</AltitudeMeters>
            <DistanceMeters>11020.953300752</DistanceMeters>
          </Trackpoint>
          <Trackpoint>
            <Time>2020-02-15T09:16:55.000Z</Time>
            <Position>
              <LatitudeDegrees>41.94019521586596965789794921875</LatitudeDegrees>
              <LongitudeDegrees>2.8503129445016384124755859375</LongitudeDegrees>
            </Position>
            <AltitudeMeters>152</AltitudeMeters>
            <DistanceMeters>11021.222076888</DistanceMeters>
          </Trackpoint>
          <Trackpoint>
            <Time>2020-02-15T09:16:58.000Z</Time>
            <Position>
              <LatitudeDegrees>41.94019270129501819610595703125</LatitudeDegrees>
              <LongitudeDegrees>2.85031311213970184326171875</LongitudeDegrees>
            </Position>
            <AltitudeMeters>151.8000030517578125</AltitudeMeters>
            <DistanceMeters>11021.490853025</DistanceMeters>
          </Trackpoint>
          <Trackpoint>
            <Time>2020-02-15T09:17:03.000Z</Time>
            <Position>
              <LatitudeDegrees>41.9401605986058712005615234375</LatitudeDegrees>
              <LongitudeDegrees>2.85030850209295749664306640625</LongitudeDegrees>
            </Position>
            <AltitudeMeters>151.8000030517578125</AltitudeMeters>
            <DistanceMeters>11025.084320614</DistanceMeters>
          </Trackpoint>
          <Trackpoint>
            <Time>2020-02-15T09:17:04.000Z</Time>
            <Position>
              <LatitudeDegrees>41.94014207459986209869384765625</LatitudeDegrees>
              <LongitudeDegrees>2.8503043949604034423828125</LongitudeDegrees>
            </Position>
            <AltitudeMeters>151.600006103515625</AltitudeMeters>
            <DistanceMeters>11027.17490833</DistanceMeters>
          </Trackpoint>
          <Trackpoint>
            <Time>2020-02-15T09:17:05.000Z</Time>
            <Position>
              <LatitudeDegrees>41.94011407904326915740966796875</LatitudeDegrees>
              <LongitudeDegrees>2.85029567778110504150390625</LongitudeDegrees>
            </Position>
            <AltitudeMeters>151.8000030517578125</AltitudeMeters>
            <DistanceMeters>11030.373513747</DistanceMeters>
          </Trackpoint>
          <Trackpoint>
            <Time>2020-02-15T09:17:06.000Z</Time>
            <Position>
              <LatitudeDegrees>41.9400831498205661773681640625</LatitudeDegrees>
              <LongitudeDegrees>2.850287966430187225341796875</LongitudeDegrees>
            </Position>
            <AltitudeMeters>151.8000030517578125</AltitudeMeters>
            <DistanceMeters>11033.875348096</DistanceMeters>
          </Trackpoint>
          <Trackpoint>
            <Time>2020-02-15T09:17:07.000Z</Time>
            <Position>
              <LatitudeDegrees>41.94005104713141918182373046875</LatitudeDegrees>
              <LongitudeDegrees>2.85027849487960338592529296875</LongitudeDegrees>
            </Position>
            <AltitudeMeters>151.8000030517578125</AltitudeMeters>
            <DistanceMeters>11037.533568058</DistanceMeters>
          </Trackpoint>
          <Trackpoint>
            <Time>2020-02-15T09:17:08.000Z</Time>
            <Position>
              <LatitudeDegrees>41.940020620822906494140625</LatitudeDegrees>
              <LongitudeDegrees>2.85026474855840206146240234375</LongitudeDegrees>
            </Position>
            <AltitudeMeters>151.8000030517578125</AltitudeMeters>
            <DistanceMeters>11041.104347797</DistanceMeters>
          </Trackpoint>
          <Trackpoint>
            <Time>2020-02-15T09:17:09.000Z</Time>
            <Position>
              <LatitudeDegrees>41.9399936310946941375732421875</LatitudeDegrees>
              <LongitudeDegrees>2.85025502555072307586669921875</LongitudeDegrees>
            </Position>
            <AltitudeMeters>151.600006103515625</AltitudeMeters>
            <DistanceMeters>11044.214205007</DistanceMeters>
          </Trackpoint>
          <Trackpoint>
            <Time>2020-02-15T09:17:10.000Z</Time>
            <Position>
              <LatitudeDegrees>41.939967982470989227294921875</LatitudeDegrees>
              <LongitudeDegrees>2.85025008022785186767578125</LongitudeDegrees>
            </Position>
            <AltitudeMeters>151.600006103515625</AltitudeMeters>
            <DistanceMeters>11047.0996392</DistanceMeters>
          </Trackpoint>
          <Trackpoint>
            <Time>2020-02-15T09:17:11.000Z</Time>
            <Position>
              <LatitudeDegrees>41.93994694389402866363525390625</LatitudeDegrees>
              <LongitudeDegrees>2.85024966113269329071044921875</LongitudeDegrees>
            </Position>
            <AltitudeMeters>151.600006103515625</AltitudeMeters>
            <DistanceMeters>11049.440847521</DistanceMeters>
          </Trackpoint>
          <Trackpoint>
            <Time>2020-02-15T09:17:12.000Z</Time>
            <Position>
              <LatitudeDegrees>41.93993554450571537017822265625</LatitudeDegrees>
              <LongitudeDegrees>2.850258462131023406982421875</LongitudeDegrees>
            </Position>
            <AltitudeMeters>151.600006103515625</AltitudeMeters>
            <DistanceMeters>11050.900675607</DistanceMeters>
          </Trackpoint>
          <Trackpoint>
            <Time>2020-02-15T09:17:13.000Z</Time>
            <Position>
              <LatitudeDegrees>41.93993336521089076995849609375</LatitudeDegrees>
              <LongitudeDegrees>2.850273214280605316162109375</LongitudeDegrees>
            </Position>
            <AltitudeMeters>151.399993896484375</AltitudeMeters>
            <DistanceMeters>11052.146939282</DistanceMeters>
          </Trackpoint>
          <Trackpoint>
            <Time>2020-02-15T09:17:14.000Z</Time>
            <Position>
              <LatitudeDegrees>41.93993889726698398590087890625</LatitudeDegrees>
              <LongitudeDegrees>2.85028754733502864837646484375</LongitudeDegrees>
            </Position>
            <AltitudeMeters>150.8000030517578125</AltitudeMeters>
            <DistanceMeters>11053.480702777</DistanceMeters>
          </Trackpoint>
          <Trackpoint>
            <Time>2020-02-15T09:17:15.000Z</Time>
            <Position>
              <LatitudeDegrees>41.9399468600749969482421875</LatitudeDegrees>
              <LongitudeDegrees>2.850300706923007965087890625</LongitudeDegrees>
            </Position>
            <AltitudeMeters>150.600006103515625</AltitudeMeters>
            <DistanceMeters>11054.890176728</DistanceMeters>
          </Trackpoint>
          <Trackpoint>
            <Time>2020-02-15T09:17:16.000Z</Time>
            <Position>
              <LatitudeDegrees>41.9399544037878513336181640625</LatitudeDegrees>
              <LongitudeDegrees>2.8503124415874481201171875</LongitudeDegrees>
            </Position>
            <AltitudeMeters>150.1999969482421875</AltitudeMeters>
            <DistanceMeters>11056.179181796</DistanceMeters>
          </Trackpoint>
          <Trackpoint>
            <Time>2020-02-15T09:17:17.000Z</Time>
            <Position>
              <LatitudeDegrees>41.9399637915194034576416015625</LatitudeDegrees>
              <LongitudeDegrees>2.85032652318477630615234375</LongitudeDegrees>
            </Position>
            <AltitudeMeters>149.399993896484375</AltitudeMeters>
            <DistanceMeters>11057.746402518</DistanceMeters>
          </Trackpoint>
          <Trackpoint>
            <Time>2020-02-15T09:17:19.000Z</Time>
            <Position>
              <LatitudeDegrees>41.93997569382190704345703125</LatitudeDegrees>
              <LongitudeDegrees>2.85034907050430774688720703125</LongitudeDegrees>
            </Position>
            <AltitudeMeters>148.8000030517578125</AltitudeMeters>
            <DistanceMeters>11060.034948855</DistanceMeters>
          </Trackpoint>
          <Trackpoint>
            <Time>2020-02-15T09:17:20.000Z</Time>
            <Position>
              <LatitudeDegrees>41.9399802200496196746826171875</LatitudeDegrees>
              <LongitudeDegrees>2.85035812295973300933837890625</LongitudeDegrees>
            </Position>
            <AltitudeMeters>148.8000030517578125</AltitudeMeters>
            <DistanceMeters>11060.931429086</DistanceMeters>
          </Trackpoint>
          <Trackpoint>
            <Time>2020-02-15T09:17:21.000Z</Time>
            <Position>
              <LatitudeDegrees>41.9399839080870151519775390625</LatitudeDegrees>
              <LongitudeDegrees>2.85036809742450714111328125</LongitudeDegrees>
            </Position>
            <AltitudeMeters>148.8000030517578125</AltitudeMeters>
            <DistanceMeters>11061.852747264</DistanceMeters>
          </Trackpoint>
          <Trackpoint>
            <Time>2020-02-15T09:17:22.000Z</Time>
            <Position>
              <LatitudeDegrees>41.93998784758150577545166015625</LatitudeDegrees>
              <LongitudeDegrees>2.8503766469657421112060546875</LongitudeDegrees>
            </Position>
            <AltitudeMeters>148.8000030517578125</AltitudeMeters>
            <DistanceMeters>11062.686603299</DistanceMeters>
          </Trackpoint>
          <Trackpoint>
            <Time>2020-02-15T09:17:23.000Z</Time>
            <Position>
              <LatitudeDegrees>41.9399946369230747222900390625</LatitudeDegrees>
              <LongitudeDegrees>2.85038687288761138916015625</LongitudeDegrees>
            </Position>
            <AltitudeMeters>148.600006103515625</AltitudeMeters>
            <DistanceMeters>11063.818977289</DistanceMeters>
          </Trackpoint>
          <Trackpoint>
            <Time>2020-02-15T09:17:24.000Z</Time>
            <Position>
              <LatitudeDegrees>41.94000377319753170013427734375</LatitudeDegrees>
              <LongitudeDegrees>2.85039852373301982879638671875</LongitudeDegrees>
            </Position>
            <AltitudeMeters>148.8000030517578125</AltitudeMeters>
            <DistanceMeters>11065.215579062</DistanceMeters>
          </Trackpoint>
          <Trackpoint>
            <Time>2020-02-15T09:17:25.000Z</Time>
            <Position>
              <LatitudeDegrees>41.9400120712816715240478515625</LatitudeDegrees>
              <LongitudeDegrees>2.85041478462517261505126953125</LongitudeDegrees>
            </Position>
            <AltitudeMeters>148.8000030517578125</AltitudeMeters>
            <DistanceMeters>11066.84771648</DistanceMeters>
          </Trackpoint>
          <Trackpoint>
            <Time>2020-02-15T09:17:26.000Z</Time>
            <Position>
              <LatitudeDegrees>41.9400217942893505096435546875</LatitudeDegrees>
              <LongitudeDegrees>2.85043406300246715545654296875</LongitudeDegrees>
            </Position>
            <AltitudeMeters>148.600006103515625</AltitudeMeters>
            <DistanceMeters>11068.774205883</DistanceMeters>
          </Trackpoint>
          <Trackpoint>
            <Time>2020-02-15T09:17:27.000Z</Time>
            <Position>
              <LatitudeDegrees>41.940034367144107818603515625</LatitudeDegrees>
              <LongitudeDegrees>2.850454933941364288330078125</LongitudeDegrees>
            </Position>
            <AltitudeMeters>148.8000030517578125</AltitudeMeters>
            <DistanceMeters>11070.998724233</DistanceMeters>
          </Trackpoint>
          <Trackpoint>
            <Time>2020-02-15T09:17:28.000Z</Time>
            <Position>
              <LatitudeDegrees>41.94004886783659458160400390625</LatitudeDegrees>
              <LongitudeDegrees>2.85047614015638828277587890625</LongitudeDegrees>
            </Position>
            <AltitudeMeters>148.600006103515625</AltitudeMeters>
            <DistanceMeters>11073.383875834</DistanceMeters>
          </Trackpoint>
          <Trackpoint>
            <Time>2020-02-15T09:17:29.000Z</Time>
            <Position>
              <LatitudeDegrees>41.94006529636681079864501953125</LatitudeDegrees>
              <LongitudeDegrees>2.85049910657107830047607421875</LongitudeDegrees>
            </Position>
            <AltitudeMeters>148.8000030517578125</AltitudeMeters>
            <DistanceMeters>11076.024182448</DistanceMeters>
          </Trackpoint>
          <Trackpoint>
            <Time>2020-02-15T09:17:30.000Z</Time>
            <Position>
              <LatitudeDegrees>41.94008189253509044647216796875</LatitudeDegrees>
              <LongitudeDegrees>2.85051989369094371795654296875</LongitudeDegrees>
            </Position>
            <AltitudeMeters>148.8000030517578125</AltitudeMeters>
            <DistanceMeters>11078.550892571</DistanceMeters>
          </Trackpoint>
          <Trackpoint>
            <Time>2020-02-15T09:17:34.000Z</Time>
            <Position>
              <LatitudeDegrees>41.94014894776046276092529296875</LatitudeDegrees>
              <LongitudeDegrees>2.85061393864452838897705078125</LongitudeDegrees>
            </Position>
            <AltitudeMeters>148.600006103515625</AltitudeMeters>
            <DistanceMeters>11089.336319996</DistanceMeters>
          </Trackpoint>
          <Trackpoint>
            <Time>2020-02-15T09:17:35.000Z</Time>
            <Position>
              <LatitudeDegrees>41.94016453810036182403564453125</LatitudeDegrees>
              <LongitudeDegrees>2.85063673742115497589111328125</LongitudeDegrees>
            </Position>
            <AltitudeMeters>148.600006103515625</AltitudeMeters>
            <DistanceMeters>11091.902041284</DistanceMeters>
          </Trackpoint>
          <Trackpoint>
            <Time>2020-02-15T09:17:36.000Z</Time>
            <Position>
              <LatitudeDegrees>41.94018096663057804107666015625</LatitudeDegrees>
              <LongitudeDegrees>2.85065735690295696258544921875</LongitudeDegrees>
            </Position>
            <AltitudeMeters>148.8000030517578125</AltitudeMeters>
            <DistanceMeters>11094.40541362</DistanceMeters>
          </Trackpoint>
          <Trackpoint>
            <Time>2020-02-15T09:17:37.000Z</Time>
            <Position>
              <LatitudeDegrees>41.94019907154142856597900390625</LatitudeDegrees>
              <LongitudeDegrees>2.8506783954799175262451171875</LongitudeDegrees>
            </Position>
            <AltitudeMeters>148.600006103515625</AltitudeMeters>
            <DistanceMeters>11097.069553272</DistanceMeters>
          </Trackpoint>
          <Trackpoint>
            <Time>2020-02-15T09:17:38.000Z</Time>
            <Position>
              <LatitudeDegrees>41.9402155838906764984130859375</LatitudeDegrees>
              <LongitudeDegrees>2.8507013618946075439453125</LongitudeDegrees>
            </Position>
            <AltitudeMeters>148.8000030517578125</AltitudeMeters>
            <DistanceMeters>11099.71327776</DistanceMeters>
          </Trackpoint>
          <Trackpoint>
            <Time>2020-02-15T09:17:39.000Z</Time>
            <Position>
              <LatitudeDegrees>41.9402313418686389923095703125</LatitudeDegrees>
              <LongitudeDegrees>2.8507239930331707000732421875</LongitudeDegrees>
            </Position>
            <AltitudeMeters>148.8000030517578125</AltitudeMeters>
            <DistanceMeters>11102.278999048</DistanceMeters>
          </Trackpoint>
          <Trackpoint>
            <Time>2020-02-15T09:17:40.000Z</Time>
            <Position>
              <LatitudeDegrees>41.94024886004626750946044921875</LatitudeDegrees>
              <LongitudeDegrees>2.85074486397206783294677734375</LongitudeDegrees>
            </Position>
            <AltitudeMeters>148.8000030517578125</AltitudeMeters>
            <DistanceMeters>11104.883147164</DistanceMeters>
          </Trackpoint>
          <Trackpoint>
            <Time>2020-02-15T09:17:41.000Z</Time>
            <Position>
              <LatitudeDegrees>41.9402660429477691650390625</LatitudeDegrees>
              <LongitudeDegrees>2.8507662378251552581787109375</LongitudeDegrees>
            </Position>
            <AltitudeMeters>148.8000030517578125</AltitudeMeters>
            <DistanceMeters>11107.48902849</DistanceMeters>
          </Trackpoint>
          <Trackpoint>
            <Time>2020-02-15T09:17:42.000Z</Time>
            <Position>
              <LatitudeDegrees>41.94028406403958797454833984375</LatitudeDegrees>
              <LongitudeDegrees>2.85078652203083038330078125</LongitudeDegrees>
            </Position>
            <AltitudeMeters>148.8000030517578125</AltitudeMeters>
            <DistanceMeters>11110.103558633</DistanceMeters>
          </Trackpoint>
          <Trackpoint>
            <Time>2020-02-15T09:17:43.000Z</Time>
            <Position>
              <LatitudeDegrees>41.9403035938739776611328125</LatitudeDegrees>
              <LongitudeDegrees>2.8508054651319980621337890625</LongitudeDegrees>
            </Position>
            <AltitudeMeters>148.8000030517578125</AltitudeMeters>
            <DistanceMeters>11112.782907579</DistanceMeters>
          </Trackpoint>
          <Trackpoint>
            <Time>2020-02-15T09:17:44.000Z</Time>
            <Position>
              <LatitudeDegrees>41.94032371044158935546875</LatitudeDegrees>
              <LongitudeDegrees>2.85082315094769001007080078125</LongitudeDegrees>
            </Position>
            <AltitudeMeters>148.8000030517578125</AltitudeMeters>
            <DistanceMeters>11115.458884152</DistanceMeters>
          </Trackpoint>
          <Trackpoint>
            <Time>2020-02-15T09:17:45.000Z</Time>
            <Position>
              <LatitudeDegrees>41.94034374319016933441162109375</LatitudeDegrees>
              <LongitudeDegrees>2.85083748400211334228515625</LongitudeDegrees>
            </Position>
            <AltitudeMeters>149.1999969482421875</AltitudeMeters>
            <DistanceMeters>11117.987380567</DistanceMeters>
          </Trackpoint>
          <Trackpoint>
            <Time>2020-02-15T09:17:46.000Z</Time>
            <Position>
              <LatitudeDegrees>41.9403624348342418670654296875</LatitudeDegrees>
              <LongitudeDegrees>2.85085265524685382843017578125</LongitudeDegrees>
            </Position>
            <AltitudeMeters>149.600006103515625</AltitudeMeters>
            <DistanceMeters>11120.421251999</DistanceMeters>
          </Trackpoint>
          <Trackpoint>
            <Time>2020-02-15T09:17:47.000Z</Time>
            <Position>
              <LatitudeDegrees>41.9403812102973461151123046875</LatitudeDegrees>
              <LongitudeDegrees>2.8508703410625457763671875</LongitudeDegrees>
            </Position>
            <AltitudeMeters>149.600006103515625</AltitudeMeters>
            <DistanceMeters>11122.974625296</DistanceMeters>
          </Trackpoint>
          <Trackpoint>
            <Time>2020-02-15T09:17:48.000Z</Time>
            <Position>
              <LatitudeDegrees>41.94040216505527496337890625</LatitudeDegrees>
              <LongitudeDegrees>2.85088618285953998565673828125</LongitudeDegrees>
            </Position>
            <AltitudeMeters>149.8000030517578125</AltitudeMeters>
            <DistanceMeters>11125.648914088</DistanceMeters>
          </Trackpoint>
          <Trackpoint>
            <Time>2020-02-15T09:17:49.000Z</Time>
            <Position>
              <LatitudeDegrees>41.94042454473674297332763671875</LatitudeDegrees>
              <LongitudeDegrees>2.8509013541042804718017578125</LongitudeDegrees>
            </Position>
            <AltitudeMeters>150.1999969482421875</AltitudeMeters>
            <DistanceMeters>11128.438882886</DistanceMeters>
          </Trackpoint>
          <Trackpoint>
            <Time>2020-02-15T09:17:50.000Z</Time>
            <Position>
              <LatitudeDegrees>41.94044650532305240631103515625</LatitudeDegrees>
              <LongitudeDegrees>2.85092323087155818939208984375</LongitudeDegrees>
            </Position>
            <AltitudeMeters>150.399993896484375</AltitudeMeters>
            <DistanceMeters>11131.481222176</DistanceMeters>
          </Trackpoint>
          <Trackpoint>
            <Time>2020-02-15T09:17:51.000Z</Time>
            <Position>
              <LatitudeDegrees>41.9404663704335689544677734375</LatitudeDegrees>
              <LongitudeDegrees>2.85094619728624820709228515625</LongitudeDegrees>
            </Position>
            <AltitudeMeters>150.600006103515625</AltitudeMeters>
            <DistanceMeters>11134.397783852</DistanceMeters>
          </Trackpoint>
          <Trackpoint>
            <Time>2020-02-15T09:17:52.000Z</Time>
            <Position>
              <LatitudeDegrees>41.94048657082021236419677734375</LatitudeDegrees>
              <LongitudeDegrees>2.85097025334835052490234375</LongitudeDegrees>
            </Position>
            <AltitudeMeters>151</AltitudeMeters>
            <DistanceMeters>11137.399785899</DistanceMeters>
          </Trackpoint>
          <Trackpoint>
            <Time>2020-02-15T09:17:53.000Z</Time>
            <Position>
              <LatitudeDegrees>41.94050517864525318145751953125</LatitudeDegrees>
              <LongitudeDegrees>2.8509942255914211273193359375</LongitudeDegrees>
            </Position>
            <AltitudeMeters>151.1999969482421875</AltitudeMeters>
            <DistanceMeters>11140.267955985</DistanceMeters>
          </Trackpoint>
          <Trackpoint>
            <Time>2020-02-15T09:17:54.000Z</Time>
            <Position>
              <LatitudeDegrees>41.94052227772772312164306640625</LatitudeDegrees>
              <LongitudeDegrees>2.85101777873933315277099609375</LongitudeDegrees>
            </Position>
            <AltitudeMeters>151.600006103515625</AltitudeMeters>
            <DistanceMeters>11142.992423426</DistanceMeters>
          </Trackpoint>
          <Trackpoint>
            <Time>2020-02-15T09:17:55.000Z</Time>
            <Position>
              <LatitudeDegrees>41.94053853861987590789794921875</LatitudeDegrees>
              <LongitudeDegrees>2.8510401584208011627197265625</LongitudeDegrees>
            </Position>
            <AltitudeMeters>151.600006103515625</AltitudeMeters>
            <DistanceMeters>11145.582664109</DistanceMeters>
          </Trackpoint>
          <Trackpoint>
            <Time>2020-02-15T09:17:56.000Z</Time>
            <Position>
              <LatitudeDegrees>41.94055396132171154022216796875</LatitudeDegrees>
              <LongitudeDegrees>2.85106203518807888031005859375</LongitudeDegrees>
            </Position>
            <AltitudeMeters>152</AltitudeMeters>
            <DistanceMeters>11148.080619838</DistanceMeters>
          </Trackpoint>
          <Trackpoint>
            <Time>2020-02-15T09:17:57.000Z</Time>
            <Position>
              <LatitudeDegrees>41.94056871347129344940185546875</LatitudeDegrees>
              <LongitudeDegrees>2.85108483396470546722412109375</LongitudeDegrees>
            </Position>
            <AltitudeMeters>152</AltitudeMeters>
            <DistanceMeters>11150.583992174</DistanceMeters>
          </Trackpoint>
          <Trackpoint>
            <Time>2020-02-15T09:17:58.000Z</Time>
            <Position>
              <LatitudeDegrees>41.94058279506862163543701171875</LatitudeDegrees>
              <LongitudeDegrees>2.8511105664074420928955078125</LongitudeDegrees>
            </Position>
            <AltitudeMeters>152</AltitudeMeters>
            <DistanceMeters>11153.227716662</DistanceMeters>
          </Trackpoint>
          <Trackpoint>
            <Time>2020-02-15T09:17:59.000Z</Time>
            <Position>
              <LatitudeDegrees>41.94059637375175952911376953125</LatitudeDegrees>
              <LongitudeDegrees>2.8511367179453372955322265625</LongitudeDegrees>
            </Position>
            <AltitudeMeters>152.1999969482421875</AltitudeMeters>
            <DistanceMeters>11155.868023276</DistanceMeters>
          </Trackpoint>
          <Trackpoint>
            <Time>2020-02-15T09:18:00.000Z</Time>
            <Position>
              <LatitudeDegrees>41.94061162881553173065185546875</LatitudeDegrees>
              <LongitudeDegrees>2.85116395913064479827880859375</LongitudeDegrees>
            </Position>
            <AltitudeMeters>152.1999969482421875</AltitudeMeters>
            <DistanceMeters>11158.691772114</DistanceMeters>
          </Trackpoint>
          <Trackpoint>
            <Time>2020-02-15T09:18:01.000Z</Time>
            <Position>
              <LatitudeDegrees>41.9406273029744625091552734375</LatitudeDegrees>
              <LongitudeDegrees>2.85119111649692058563232421875</LongitudeDegrees>
            </Position>
            <AltitudeMeters>152.600006103515625</AltitudeMeters>
            <DistanceMeters>11161.537818243</DistanceMeters>
          </Trackpoint>
          <Trackpoint>
            <Time>2020-02-15T09:18:02.000Z</Time>
            <Position>
              <LatitudeDegrees>41.94064088165760040283203125</LatitudeDegrees>
              <LongitudeDegrees>2.85121659748256206512451171875</LongitudeDegrees>
            </Position>
            <AltitudeMeters>152.8000030517578125</AltitudeMeters>
            <DistanceMeters>11164.133282946</DistanceMeters>
          </Trackpoint>
          <Trackpoint>
            <Time>2020-02-15T09:18:03.000Z</Time>
            <Position>
              <LatitudeDegrees>41.940655298531055450439453125</LatitudeDegrees>
              <LongitudeDegrees>2.851242162287235260009765625</LongitudeDegrees>
            </Position>
            <AltitudeMeters>153.1999969482421875</AltitudeMeters>
            <DistanceMeters>11166.79063497</DistanceMeters>
          </Trackpoint>
          <Trackpoint>
            <Time>2020-02-15T09:18:04.000Z</Time>
            <Position>
              <LatitudeDegrees>41.940672397613525390625</LatitudeDegrees>
              <LongitudeDegrees>2.8512678109109401702880859375</LongitudeDegrees>
            </Position>
            <AltitudeMeters>153.1999969482421875</AltitudeMeters>
            <DistanceMeters>11169.64301974</DistanceMeters>
          </Trackpoint>
          <Trackpoint>
            <Time>2020-02-15T09:18:05.000Z</Time>
            <Position>
              <LatitudeDegrees>41.9406899996101856231689453125</LatitudeDegrees>
              <LongitudeDegrees>2.8512929566204547882080078125</LongitudeDegrees>
            </Position>
            <AltitudeMeters>153.399993896484375</AltitudeMeters>
            <DistanceMeters>11172.503308058</DistanceMeters>
          </Trackpoint>
          <Trackpoint>
            <Time>2020-02-15T09:18:06.000Z</Time>
            <Position>
              <LatitudeDegrees>41.9407086074352264404296875</LatitudeDegrees>
              <LongitudeDegrees>2.85131868906319141387939453125</LongitudeDegrees>
            </Position>
            <AltitudeMeters>153.399993896484375</AltitudeMeters>
            <DistanceMeters>11175.475077692</DistanceMeters>
          </Trackpoint>
          <Trackpoint>
            <Time>2020-02-15T09:18:07.000Z</Time>
            <Position>
              <LatitudeDegrees>41.94072671234607696533203125</LatitudeDegrees>
              <LongitudeDegrees>2.85134584642946720123291015625</LongitudeDegrees>
            </Position>
            <AltitudeMeters>153.8000030517578125</AltitudeMeters>
            <DistanceMeters>11178.495073919</DistanceMeters>
          </Trackpoint>
          <Trackpoint>
            <Time>2020-02-15T09:18:08.000Z</Time>
            <Position>
              <LatitudeDegrees>41.94074657745659351348876953125</LatitudeDegrees>
              <LongitudeDegrees>2.85137392580509185791015625</LongitudeDegrees>
            </Position>
            <AltitudeMeters>154</AltitudeMeters>
            <DistanceMeters>11181.703545073</DistanceMeters>
          </Trackpoint>
          <Trackpoint>
            <Time>2020-02-15T09:18:09.000Z</Time>
            <Position>
              <LatitudeDegrees>41.94076786749064922332763671875</LatitudeDegrees>
              <LongitudeDegrees>2.8514069505035877227783203125</LongitudeDegrees>
            </Position>
            <AltitudeMeters>154</AltitudeMeters>
            <DistanceMeters>11185.322054551</DistanceMeters>
          </Trackpoint>
          <Trackpoint>
            <Time>2020-02-15T09:18:10.000Z</Time>
            <Position>
              <LatitudeDegrees>41.940787397325038909912109375</LatitudeDegrees>
              <LongitudeDegrees>2.85144634544849395751953125</LongitudeDegrees>
            </Position>
            <AltitudeMeters>154.1999969482421875</AltitudeMeters>
            <DistanceMeters>11189.241258556</DistanceMeters>
          </Trackpoint>
          <Trackpoint>
            <Time>2020-02-15T09:18:11.000Z</Time>
            <Position>
              <LatitudeDegrees>41.9408053345978260040283203125</LatitudeDegrees>
              <LongitudeDegrees>2.851489596068859100341796875</LongitudeDegrees>
            </Position>
            <AltitudeMeters>154.399993896484375</AltitudeMeters>
            <DistanceMeters>11193.341746617</DistanceMeters>
          </Trackpoint>
          <Trackpoint>
            <Time>2020-02-15T09:18:14.000Z</Time>
            <Position>
              <LatitudeDegrees>41.9408552907407283782958984375</LatitudeDegrees>
              <LongitudeDegrees>2.85161130130290985107421875</LongitudeDegrees>
            </Position>
            <AltitudeMeters>154.600006103515625</AltitudeMeters>
            <DistanceMeters>11204.849791678</DistanceMeters>
          </Trackpoint>
          <Trackpoint>
            <Time>2020-02-15T09:18:15.000Z</Time>
            <Position>
              <LatitudeDegrees>41.94086845032870769500732421875</LatitudeDegrees>
              <LongitudeDegrees>2.8516500256955623626708984375</LongitudeDegrees>
            </Position>
            <AltitudeMeters>154.600006103515625</AltitudeMeters>
            <DistanceMeters>11208.372194982</DistanceMeters>
          </Trackpoint>
          <Trackpoint>
            <Time>2020-02-15T09:18:16.000Z</Time>
            <Position>
              <LatitudeDegrees>41.94088228046894073486328125</LatitudeDegrees>
              <LongitudeDegrees>2.851690091192722320556640625</LongitudeDegrees>
            </Position>
            <AltitudeMeters>154.600006103515625</AltitudeMeters>
            <DistanceMeters>11212.027945676</DistanceMeters>
          </Trackpoint>
          <Trackpoint>
            <Time>2020-02-15T09:18:17.000Z</Time>
            <Position>
              <LatitudeDegrees>41.9408955238759517669677734375</LatitudeDegrees>
              <LongitudeDegrees>2.8517321683466434478759765625</LongitudeDegrees>
            </Position>
            <AltitudeMeters>154.600006103515625</AltitudeMeters>
            <DistanceMeters>11215.811154785</DistanceMeters>
          </Trackpoint>
          <Trackpoint>
            <Time>2020-02-15T09:18:19.000Z</Time>
            <Position>
              <LatitudeDegrees>41.9409324042499065399169921875</LatitudeDegrees>
              <LongitudeDegrees>2.85181917250156402587890625</LongitudeDegrees>
            </Position>
            <AltitudeMeters>154.600006103515625</AltitudeMeters>
            <DistanceMeters>11224.10192929</DistanceMeters>
          </Trackpoint>
          <Trackpoint>
            <Time>2020-02-15T09:18:21.000Z</Time>
            <Position>
              <LatitudeDegrees>41.9409709610044956207275390625</LatitudeDegrees>
              <LongitudeDegrees>2.8519182465970516204833984375</LongitudeDegrees>
            </Position>
            <AltitudeMeters>154.8000030517578125</AltitudeMeters>
            <DistanceMeters>11233.359599382</DistanceMeters>
          </Trackpoint>
          <Trackpoint>
            <Time>2020-02-15T09:18:22.000Z</Time>
            <Position>
              <LatitudeDegrees>41.94099183194339275360107421875</LatitudeDegrees>
              <LongitudeDegrees>2.85197608172893524169921875</LongitudeDegrees>
            </Position>
            <AltitudeMeters>154.600006103515625</AltitudeMeters>
            <DistanceMeters>11238.681095386</DistanceMeters>
          </Trackpoint>
          <Trackpoint>
            <Time>2020-02-15T09:18:23.000Z</Time>
            <Position>
              <LatitudeDegrees>41.94101035594940185546875</LatitudeDegrees>
              <LongitudeDegrees>2.85203567706048488616943359375</LongitudeDegrees>
            </Position>
            <AltitudeMeters>154.600006103515625</AltitudeMeters>
            <DistanceMeters>11244.028828747</DistanceMeters>
          </Trackpoint>
          <Trackpoint>
            <Time>2020-02-15T09:18:24.000Z</Time>
            <Position>
              <LatitudeDegrees>41.94103156216442584991455078125</LatitudeDegrees>
              <LongitudeDegrees>2.85209812223911285400390625</LongitudeDegrees>
            </Position>
            <AltitudeMeters>154.600006103515625</AltitudeMeters>
            <DistanceMeters>11249.712188972</DistanceMeters>
          </Trackpoint>
          <Trackpoint>
            <Time>2020-02-15T09:18:25.000Z</Time>
            <Position>
              <LatitudeDegrees>41.9410520978271961212158203125</LatitudeDegrees>
              <LongitudeDegrees>2.85216090269386768341064453125</LongitudeDegrees>
            </Position>
            <AltitudeMeters>154.600006103515625</AltitudeMeters>
            <DistanceMeters>11255.389985455</DistanceMeters>
          </Trackpoint>
          <Trackpoint>
            <Time>2020-02-15T09:18:26.000Z</Time>
            <Position>
              <LatitudeDegrees>41.94107472896575927734375</LatitudeDegrees>
              <LongitudeDegrees>2.8522240184247493743896484375</LongitudeDegrees>
            </Position>
            <AltitudeMeters>154.600006103515625</AltitudeMeters>
            <DistanceMeters>11261.190508261</DistanceMeters>
          </Trackpoint>
          <Trackpoint>
            <Time>2020-02-15T09:18:29.000Z</Time>
            <Position>
              <LatitudeDegrees>41.9411453045904636383056640625</LatitudeDegrees>
              <LongitudeDegrees>2.85241194069385528564453125</LongitudeDegrees>
            </Position>
            <AltitudeMeters>154</AltitudeMeters>
            <DistanceMeters>11278.619039795</DistanceMeters>
          </Trackpoint>
          <Trackpoint>
            <Time>2020-02-15T09:18:30.000Z</Time>
            <Position>
              <LatitudeDegrees>41.94116231985390186309814453125</LatitudeDegrees>
              <LongitudeDegrees>2.85246734507381916046142578125</LongitudeDegrees>
            </Position>
            <AltitudeMeters>153.8000030517578125</AltitudeMeters>
            <DistanceMeters>11283.580490025</DistanceMeters>
          </Trackpoint>
          <Trackpoint>
            <Time>2020-02-15T09:18:31.000Z</Time>
            <Position>
              <LatitudeDegrees>41.9411754794418811798095703125</LatitudeDegrees>
              <LongitudeDegrees>2.852516211569309234619140625</LongitudeDegrees>
            </Position>
            <AltitudeMeters>153.600006103515625</AltitudeMeters>
            <DistanceMeters>11287.884056777</DistanceMeters>
          </Trackpoint>
          <Trackpoint>
            <Time>2020-02-15T09:18:32.000Z</Time>
            <Position>
              <LatitudeDegrees>41.94118193350732326507568359375</LatitudeDegrees>
              <LongitudeDegrees>2.8525643236935138702392578125</LongitudeDegrees>
            </Position>
            <AltitudeMeters>153.600006103515625</AltitudeMeters>
            <DistanceMeters>11291.933577591</DistanceMeters>
          </Trackpoint>
          <Trackpoint>
            <Time>2020-02-15T09:18:33.000Z</Time>
            <Position>
              <LatitudeDegrees>41.9411872141063213348388671875</LatitudeDegrees>
              <LongitudeDegrees>2.85260564647614955902099609375</LongitudeDegrees>
            </Position>
            <AltitudeMeters>153.600006103515625</AltitudeMeters>
            <DistanceMeters>11295.404329955</DistanceMeters>
          </Trackpoint>
          <Trackpoint>
            <Time>2020-02-15T09:18:34.000Z</Time>
            <Position>
              <LatitudeDegrees>41.94119450636208057403564453125</LatitudeDegrees>
              <LongitudeDegrees>2.852642945945262908935546875</LongitudeDegrees>
            </Position>
            <AltitudeMeters>153.399993896484375</AltitudeMeters>
            <DistanceMeters>11298.595869745</DistanceMeters>
          </Trackpoint>
          <Trackpoint>
            <Time>2020-02-15T09:18:35.000Z</Time>
            <Position>
              <LatitudeDegrees>41.94120171479880809783935546875</LatitudeDegrees>
              <LongitudeDegrees>2.8526789881289005279541015625</LongitudeDegrees>
            </Position>
            <AltitudeMeters>153.399993896484375</AltitudeMeters>
            <DistanceMeters>11301.68533423</DistanceMeters>
          </Trackpoint>
          <Trackpoint>
            <Time>2020-02-15T09:18:36.000Z</Time>
            <Position>
              <LatitudeDegrees>41.94120976142585277557373046875</LatitudeDegrees>
              <LongitudeDegrees>2.852714359760284423828125</LongitudeDegrees>
            </Position>
            <AltitudeMeters>153.600006103515625</AltitudeMeters>
            <DistanceMeters>11304.746905615</DistanceMeters>
          </Trackpoint>
          <Trackpoint>
            <Time>2020-02-15T09:18:37.000Z</Time>
            <Position>
              <LatitudeDegrees>41.9412167184054851531982421875</LatitudeDegrees>
              <LongitudeDegrees>2.85274797119200229644775390625</LongitudeDegrees>
            </Position>
            <AltitudeMeters>153.600006103515625</AltitudeMeters>
            <DistanceMeters>11307.637030303</DistanceMeters>
          </Trackpoint>
          <Trackpoint>
            <Time>2020-02-15T09:18:38.000Z</Time>
            <Position>
              <LatitudeDegrees>41.94122602231800556182861328125</LatitudeDegrees>
              <LongitudeDegrees>2.85278015770018100738525390625</LongitudeDegrees>
            </Position>
            <AltitudeMeters>153.399993896484375</AltitudeMeters>
            <DistanceMeters>11310.494159825</DistanceMeters>
          </Trackpoint>
          <Trackpoint>
            <Time>2020-02-15T09:18:39.000Z</Time>
            <Position>
              <LatitudeDegrees>41.9412368349730968475341796875</LatitudeDegrees>
              <LongitudeDegrees>2.8528077341616153717041015625</LongitudeDegrees>
            </Position>
            <AltitudeMeters>153.399993896484375</AltitudeMeters>
            <DistanceMeters>11313.073920732</DistanceMeters>
          </Trackpoint>
          <Trackpoint>
            <Time>2020-02-15T09:18:40.000Z</Time>
            <Position>
              <LatitudeDegrees>41.9412532635033130645751953125</LatitudeDegrees>
              <LongitudeDegrees>2.8528338856995105743408203125</LongitudeDegrees>
            </Position>
            <AltitudeMeters>153.600006103515625</AltitudeMeters>
            <DistanceMeters>11315.905653043</DistanceMeters>
          </Trackpoint>
          <Trackpoint>
            <Time>2020-02-15T09:18:41.000Z</Time>
            <Position>
              <LatitudeDegrees>41.94127245806157588958740234375</LatitudeDegrees>
              <LongitudeDegrees>2.85285718739032745361328125</LongitudeDegrees>
            </Position>
            <AltitudeMeters>153.600006103515625</AltitudeMeters>
            <DistanceMeters>11318.784821357</DistanceMeters>
          </Trackpoint>
          <Trackpoint>
            <Time>2020-02-15T09:18:42.000Z</Time>
            <Position>
              <LatitudeDegrees>41.94129408337175846099853515625</LatitudeDegrees>
              <LongitudeDegrees>2.85287462174892425537109375</LongitudeDegrees>
            </Position>
            <AltitudeMeters>153.399993896484375</AltitudeMeters>
            <DistanceMeters>11321.592535148</DistanceMeters>
          </Trackpoint>
          <Trackpoint>
            <Time>2020-02-15T09:18:43.000Z</Time>
            <Position>
              <LatitudeDegrees>41.9413174688816070556640625</LatitudeDegrees>
              <LongitudeDegrees>2.85288526676595211029052734375</LongitudeDegrees>
            </Position>
            <AltitudeMeters>153.8000030517578125</AltitudeMeters>
            <DistanceMeters>11324.340105695</DistanceMeters>
          </Trackpoint>
          <Trackpoint>
            <Time>2020-02-15T09:18:44.000Z</Time>
            <Position>
              <LatitudeDegrees>41.9413431175053119659423828125</LatitudeDegrees>
              <LongitudeDegrees>2.8528918884694576263427734375</LongitudeDegrees>
            </Position>
            <AltitudeMeters>154</AltitudeMeters>
            <DistanceMeters>11327.24736412</DistanceMeters>
          </Trackpoint>
          <Trackpoint>
            <Time>2020-02-15T09:18:45.000Z</Time>
            <Position>
              <LatitudeDegrees>41.9413699395954608917236328125</LatitudeDegrees>
              <LongitudeDegrees>2.8528954088687896728515625</LongitudeDegrees>
            </Position>
            <AltitudeMeters>154</AltitudeMeters>
            <DistanceMeters>11330.24635664</DistanceMeters>
          </Trackpoint>
          <Trackpoint>
            <Time>2020-02-15T09:18:46.000Z</Time>
            <Position>
              <LatitudeDegrees>41.9413970969617366790771484375</LatitudeDegrees>
              <LongitudeDegrees>2.85289599560201168060302734375</LongitudeDegrees>
            </Position>
            <AltitudeMeters>154</AltitudeMeters>
            <DistanceMeters>11333.269341483</DistanceMeters>
          </Trackpoint>
          <Trackpoint>
            <Time>2020-02-15T09:18:47.000Z</Time>
            <Position>
              <LatitudeDegrees>41.94142417050898075103759765625</LatitudeDegrees>
              <LongitudeDegrees>2.85289498977363109588623046875</LongitudeDegrees>
            </Position>
            <AltitudeMeters>154.399993896484375</AltitudeMeters>
            <DistanceMeters>11336.283351587</DistanceMeters>
          </Trackpoint>
          <Trackpoint>
            <Time>2020-02-15T09:18:48.000Z</Time>
            <Position>
              <LatitudeDegrees>41.9414507411420345306396484375</LatitudeDegrees>
              <LongitudeDegrees>2.852891720831394195556640625</LongitudeDegrees>
            </Position>
            <AltitudeMeters>154.399993896484375</AltitudeMeters>
            <DistanceMeters>11339.252081047</DistanceMeters>
          </Trackpoint>
          <Trackpoint>
            <Time>2020-02-15T09:18:49.000Z</Time>
            <Position>
              <LatitudeDegrees>41.94147638976573944091796875</LatitudeDegrees>
              <LongitudeDegrees>2.85289046354591846466064453125</LongitudeDegrees>
            </Position>
            <AltitudeMeters>154.8000030517578125</AltitudeMeters>
            <DistanceMeters>11342.109210569</DistanceMeters>
          </Trackpoint>
          <Trackpoint>
            <Time>2020-02-15T09:18:50.000Z</Time>
            <Position>
              <LatitudeDegrees>41.94150078110396862030029296875</LatitudeDegrees>
              <LongitudeDegrees>2.8528878651559352874755859375</LongitudeDegrees>
            </Position>
            <AltitudeMeters>155</AltitudeMeters>
            <DistanceMeters>11344.83367801</DistanceMeters>
          </Trackpoint>
          <Trackpoint>
            <Time>2020-02-15T09:18:51.000Z</Time>
            <Position>
              <LatitudeDegrees>41.9415251724421977996826171875</LatitudeDegrees>
              <LongitudeDegrees>2.85288392566144466400146484375</LongitudeDegrees>
            </Position>
            <AltitudeMeters>155</AltitudeMeters>
            <DistanceMeters>11347.568070684</DistanceMeters>
          </Trackpoint>
          <Trackpoint>
            <Time>2020-02-15T09:18:52.000Z</Time>
            <Position>
              <LatitudeDegrees>41.9415489770472049713134765625</LatitudeDegrees>
              <LongitudeDegrees>2.8528804890811443328857421875</LongitudeDegrees>
            </Position>
            <AltitudeMeters>155.399993896484375</AltitudeMeters>
            <DistanceMeters>11350.232210336</DistanceMeters>
          </Trackpoint>
          <Trackpoint>
            <Time>2020-02-15T09:18:53.000Z</Time>
            <Position>
              <LatitudeDegrees>41.9415711052715778350830078125</LatitudeDegrees>
              <LongitudeDegrees>2.85287872888147830963134765625</LongitudeDegrees>
            </Position>
            <AltitudeMeters>155.399993896484375</AltitudeMeters>
            <DistanceMeters>11352.697416503</DistanceMeters>
          </Trackpoint>
          <Trackpoint>
            <Time>2020-02-15T09:18:54.000Z</Time>
            <Position>
              <LatitudeDegrees>41.941594742238521575927734375</LatitudeDegrees>
              <LongitudeDegrees>2.85287537612020969390869140625</LongitudeDegrees>
            </Position>
            <AltitudeMeters>155.600006103515625</AltitudeMeters>
            <DistanceMeters>11355.341140991</DistanceMeters>
          </Trackpoint>
          <Trackpoint>
            <Time>2020-02-15T09:18:55.000Z</Time>
            <Position>
              <LatitudeDegrees>41.94161997176706790924072265625</LatitudeDegrees>
              <LongitudeDegrees>2.85287193953990936279296875</LongitudeDegrees>
            </Position>
            <AltitudeMeters>155.600006103515625</AltitudeMeters>
            <DistanceMeters>11358.163290424</DistanceMeters>
          </Trackpoint>
          <Trackpoint>
            <Time>2020-02-15T09:18:56.000Z</Time>
            <Position>
              <LatitudeDegrees>41.94164645858108997344970703125</LatitudeDegrees>
              <LongitudeDegrees>2.85286749713122844696044921875</LongitudeDegrees>
            </Position>
            <AltitudeMeters>155.8000030517578125</AltitudeMeters>
            <DistanceMeters>11361.133540361</DistanceMeters>
          </Trackpoint>
          <Trackpoint>
            <Time>2020-02-15T09:18:57.000Z</Time>
            <Position>
              <LatitudeDegrees>41.9416743703186511993408203125</LatitudeDegrees>
              <LongitudeDegrees>2.85286028869450092315673828125</LongitudeDegrees>
            </Position>
            <AltitudeMeters>156.1999969482421875</AltitudeMeters>
            <DistanceMeters>11364.295232095</DistanceMeters>
          </Trackpoint>
          <Trackpoint>
            <Time>2020-02-15T09:18:58.000Z</Time>
            <Position>
              <LatitudeDegrees>41.94170328788459300994873046875</LatitudeDegrees>
              <LongitudeDegrees>2.85285056568682193756103515625</LongitudeDegrees>
            </Position>
            <AltitudeMeters>156.399993896484375</AltitudeMeters>
            <DistanceMeters>11367.613011953</DistanceMeters>
          </Trackpoint>
          <Trackpoint>
            <Time>2020-02-15T09:18:59.000Z</Time>
            <Position>
              <LatitudeDegrees>41.9417333789169788360595703125</LatitudeDegrees>
              <LongitudeDegrees>2.85284017212688922882080078125</LongitudeDegrees>
            </Position>
            <AltitudeMeters>156.8000030517578125</AltitudeMeters>
            <DistanceMeters>11371.07073103</DistanceMeters>
          </Trackpoint>
          <Trackpoint>
            <Time>2020-02-15T09:19:00.000Z</Time>
            <Position>
              <LatitudeDegrees>41.94176414050161838531494140625</LatitudeDegrees>
              <LongitudeDegrees>2.85283044911921024322509765625</LongitudeDegrees>
            </Position>
            <AltitudeMeters>157.399993896484375</AltitudeMeters>
            <DistanceMeters>11374.588003372</DistanceMeters>
          </Trackpoint>
          <Trackpoint>
            <Time>2020-02-15T09:19:04.000Z</Time>
            <Position>
              <LatitudeDegrees>41.9418834149837493896484375</LatitudeDegrees>
              <LongitudeDegrees>2.85277999006211757659912109375</LongitudeDegrees>
            </Position>
            <AltitudeMeters>157.8000030517578125</AltitudeMeters>
            <DistanceMeters>11388.5054435</DistanceMeters>
          </Trackpoint>
          <Trackpoint>
            <Time>2020-02-15T09:19:05.000Z</Time>
            <Position>
              <LatitudeDegrees>41.9419110752642154693603515625</LatitudeDegrees>
              <LongitudeDegrees>2.85276733338832855224609375</LongitudeDegrees>
            </Position>
            <AltitudeMeters>158.1999969482421875</AltitudeMeters>
            <DistanceMeters>11391.758634179</DistanceMeters>
          </Trackpoint>
          <Trackpoint>
            <Time>2020-02-15T09:19:06.000Z</Time>
            <Position>
              <LatitudeDegrees>41.9419372268021106719970703125</LatitudeDegrees>
              <LongitudeDegrees>2.8527561016380786895751953125</LongitudeDegrees>
            </Position>
            <AltitudeMeters>158.1999969482421875</AltitudeMeters>
            <DistanceMeters>11394.815778127</DistanceMeters>
          </Trackpoint>
          <Trackpoint>
            <Time>2020-02-15T09:19:07.000Z</Time>
            <Position>
              <LatitudeDegrees>41.94196396507322788238525390625</LatitudeDegrees>
              <LongitudeDegrees>2.85274461843073368072509765625</LongitudeDegrees>
            </Position>
            <AltitudeMeters>158.1999969482421875</AltitudeMeters>
            <DistanceMeters>11397.940120079</DistanceMeters>
          </Trackpoint>
          <Trackpoint>
            <Time>2020-02-15T09:19:08.000Z</Time>
            <Position>
              <LatitudeDegrees>41.94198994897305965423583984375</LatitudeDegrees>
              <LongitudeDegrees>2.852734141051769256591796875</LongitudeDegrees>
            </Position>
            <AltitudeMeters>158.399993896484375</AltitudeMeters>
            <DistanceMeters>11400.960116306</DistanceMeters>
          </Trackpoint>
          <Trackpoint>
            <Time>2020-02-15T09:19:09.000Z</Time>
            <Position>
              <LatitudeDegrees>41.94201593287289142608642578125</LatitudeDegrees>
              <LongitudeDegrees>2.8527232445776462554931640625</LongitudeDegrees>
            </Position>
            <AltitudeMeters>158.1999969482421875</AltitudeMeters>
            <DistanceMeters>11403.989069535</DistanceMeters>
          </Trackpoint>
          <Trackpoint>
            <Time>2020-02-15T09:19:10.000Z</Time>
            <Position>
              <LatitudeDegrees>41.9420411624014377593994140625</LatitudeDegrees>
              <LongitudeDegrees>2.85271058790385723114013671875</LongitudeDegrees>
            </Position>
            <AltitudeMeters>158.399993896484375</AltitudeMeters>
            <DistanceMeters>11406.988062056</DistanceMeters>
          </Trackpoint>
          <Trackpoint>
            <Time>2020-02-15T09:19:11.000Z</Time>
            <Position>
              <LatitudeDegrees>41.94206488318741321563720703125</LatitudeDegrees>
              <LongitudeDegrees>2.8526967577636241912841796875</LongitudeDegrees>
            </Position>
            <AltitudeMeters>158.399993896484375</AltitudeMeters>
            <DistanceMeters>11409.865661767</DistanceMeters>
          </Trackpoint>
          <Trackpoint>
            <Time>2020-02-15T09:19:12.000Z</Time>
            <Position>
              <LatitudeDegrees>41.942088603973388671875</LatitudeDegrees>
              <LongitudeDegrees>2.85268443636596202850341796875</LongitudeDegrees>
            </Position>
            <AltitudeMeters>158.399993896484375</AltitudeMeters>
            <DistanceMeters>11412.694203393</DistanceMeters>
          </Trackpoint>
          <Trackpoint>
            <Time>2020-02-15T09:19:13.000Z</Time>
            <Position>
              <LatitudeDegrees>41.9421125762164592742919921875</LatitudeDegrees>
              <LongitudeDegrees>2.852673120796680450439453125</LongitudeDegrees>
            </Position>
            <AltitudeMeters>158.399993896484375</AltitudeMeters>
            <DistanceMeters>11415.522745019</DistanceMeters>
          </Trackpoint>
          <Trackpoint>
            <Time>2020-02-15T09:19:14.000Z</Time>
            <Position>
              <LatitudeDegrees>41.94213621318340301513671875</LatitudeDegrees>
              <LongitudeDegrees>2.85265996120870113372802734375</LongitudeDegrees>
            </Position>
            <AltitudeMeters>158.399993896484375</AltitudeMeters>
            <DistanceMeters>11418.370377131</DistanceMeters>
          </Trackpoint>
          <Trackpoint>
            <Time>2020-02-15T09:19:15.000Z</Time>
            <Position>
              <LatitudeDegrees>41.9421581737697124481201171875</LatitudeDegrees>
              <LongitudeDegrees>2.85264470614492893218994140625</LongitudeDegrees>
            </Position>
            <AltitudeMeters>158.8000030517578125</AltitudeMeters>
            <DistanceMeters>11421.121232282</DistanceMeters>
          </Trackpoint>
          <Trackpoint>
            <Time>2020-02-15T09:19:16.000Z</Time>
            <Position>
              <LatitudeDegrees>41.94218046963214874267578125</LatitudeDegrees>
              <LongitudeDegrees>2.85262693651020526885986328125</LongitudeDegrees>
            </Position>
            <AltitudeMeters>158.8000030517578125</AltitudeMeters>
            <DistanceMeters>11424.006666475</DistanceMeters>
          </Trackpoint>
          <Trackpoint>
            <Time>2020-02-15T09:19:17.000Z</Time>
            <Position>
              <LatitudeDegrees>41.9422025978565216064453125</LatitudeDegrees>
              <LongitudeDegrees>2.85260975360870361328125</LongitudeDegrees>
            </Position>
            <AltitudeMeters>159</AltitudeMeters>
            <DistanceMeters>11426.851125737</DistanceMeters>
          </Trackpoint>
          <Trackpoint>
            <Time>2020-02-15T09:19:18.000Z</Time>
            <Position>
              <LatitudeDegrees>41.942223720252513885498046875</LatitudeDegrees>
              <LongitudeDegrees>2.85259072668850421905517578125</LongitudeDegrees>
            </Position>
            <AltitudeMeters>159</AltitudeMeters>
            <DistanceMeters>11429.681263155</DistanceMeters>
          </Trackpoint>
          <Trackpoint>
            <Time>2020-02-15T09:19:19.000Z</Time>
            <Position>
              <LatitudeDegrees>41.9422450102865695953369140625</LatitudeDegrees>
              <LongitudeDegrees>2.85257329232990741729736328125</LongitudeDegrees>
            </Position>
            <AltitudeMeters>159.1999969482421875</AltitudeMeters>
            <DistanceMeters>11432.458255284</DistanceMeters>
          </Trackpoint>
          <Trackpoint>
            <Time>2020-02-15T09:19:20.000Z</Time>
            <Position>
              <LatitudeDegrees>41.9422668032348155975341796875</LatitudeDegrees>
              <LongitudeDegrees>2.8525562770664691925048828125</LongitudeDegrees>
            </Position>
            <AltitudeMeters>159.399993896484375</AltitudeMeters>
            <DistanceMeters>11435.264360531</DistanceMeters>
          </Trackpoint>
          <Trackpoint>
            <Time>2020-02-15T09:19:21.000Z</Time>
            <Position>
              <LatitudeDegrees>41.94228968583047389984130859375</LatitudeDegrees>
              <LongitudeDegrees>2.852537669241428375244140625</LongitudeDegrees>
            </Position>
            <AltitudeMeters>159.600006103515625</AltitudeMeters>
            <DistanceMeters>11438.240684605</DistanceMeters>
          </Trackpoint>
          <Trackpoint>
            <Time>2020-02-15T09:19:22.000Z</Time>
            <Position>
              <LatitudeDegrees>41.94231214933097362518310546875</LatitudeDegrees>
              <LongitudeDegrees>2.85251696594059467315673828125</LongitudeDegrees>
            </Position>
            <AltitudeMeters>159.8000030517578125</AltitudeMeters>
            <DistanceMeters>11441.269637835</DistanceMeters>
          </Trackpoint>
          <Trackpoint>
            <Time>2020-02-15T09:19:23.000Z</Time>
            <Position>
              <LatitudeDegrees>41.94233494810760021209716796875</LatitudeDegrees>
              <LongitudeDegrees>2.85249332897365093231201171875</LongitudeDegrees>
            </Position>
            <AltitudeMeters>159.8000030517578125</AltitudeMeters>
            <DistanceMeters>11444.473884535</DistanceMeters>
          </Trackpoint>
          <Trackpoint>
            <Time>2020-02-15T09:19:24.000Z</Time>
            <Position>
              <LatitudeDegrees>41.94236193783581256866455078125</LatitudeDegrees>
              <LongitudeDegrees>2.85247153602540493011474609375</LongitudeDegrees>
            </Position>
            <AltitudeMeters>160</AltitudeMeters>
            <DistanceMeters>11447.979584756</DistanceMeters>
          </Trackpoint>
          <Trackpoint>
            <Time>2020-02-15T09:19:25.000Z</Time>
            <Position>
              <LatitudeDegrees>41.94238909520208835601806640625</LatitudeDegrees>
              <LongitudeDegrees>2.85245125181972980499267578125</LongitudeDegrees>
            </Position>
            <AltitudeMeters>160.399993896484375</AltitudeMeters>
            <DistanceMeters>11451.437303832</DistanceMeters>
          </Trackpoint>
          <Trackpoint>
            <Time>2020-02-15T09:19:26.000Z</Time>
            <Position>
              <LatitudeDegrees>41.94241524673998355865478515625</LatitudeDegrees>
              <LongitudeDegrees>2.85243063233792781829833984375</LongitudeDegrees>
            </Position>
            <AltitudeMeters>160.399993896484375</AltitudeMeters>
            <DistanceMeters>11454.813093588</DistanceMeters>
          </Trackpoint>
          <Trackpoint>
            <Time>2020-02-15T09:19:27.000Z</Time>
            <Position>
              <LatitudeDegrees>41.94244273938238620758056640625</LatitudeDegrees>
              <LongitudeDegrees>2.8524090908467769622802734375</LongitudeDegrees>
            </Position>
            <AltitudeMeters>160.600006103515625</AltitudeMeters>
            <DistanceMeters>11458.354671793</DistanceMeters>
          </Trackpoint>
          <Trackpoint>
            <Time>2020-02-15T09:19:29.000Z</Time>
            <Position>
              <LatitudeDegrees>41.94250090979039669036865234375</LatitudeDegrees>
              <LongitudeDegrees>2.852364666759967803955078125</LongitudeDegrees>
            </Position>
            <AltitudeMeters>160.600006103515625</AltitudeMeters>
            <DistanceMeters>11465.80078953</DistanceMeters>
          </Trackpoint>
          <Trackpoint>
            <Time>2020-02-15T09:19:30.000Z</Time>
            <Position>
              <LatitudeDegrees>41.942530162632465362548828125</LatitudeDegrees>
              <LongitudeDegrees>2.85234094597399234771728515625</LongitudeDegrees>
            </Position>
            <AltitudeMeters>160.8000030517578125</AltitudeMeters>
            <DistanceMeters>11469.601858105</DistanceMeters>
          </Trackpoint>
          <Trackpoint>
            <Time>2020-02-15T09:19:31.000Z</Time>
            <Position>
              <LatitudeDegrees>41.94256042130291461944580078125</LatitudeDegrees>
              <LongitudeDegrees>2.85231764428317546844482421875</LongitudeDegrees>
            </Position>
            <AltitudeMeters>160.8000030517578125</AltitudeMeters>
            <DistanceMeters>11473.482858944</DistanceMeters>
          </Trackpoint>
          <Trackpoint>
            <Time>2020-02-15T09:19:32.000Z</Time>
            <Position>
              <LatitudeDegrees>41.9425915181636810302734375</LatitudeDegrees>
              <LongitudeDegrees>2.85229803062975406646728515625</LongitudeDegrees>
            </Position>
            <AltitudeMeters>161</AltitudeMeters>
            <DistanceMeters>11477.305248731</DistanceMeters>
          </Trackpoint>
          <Trackpoint>
            <Time>2020-02-15T09:19:33.000Z</Time>
            <Position>
              <LatitudeDegrees>41.94261968135833740234375</LatitudeDegrees>
              <LongitudeDegrees>2.8522786684334278106689453125</LongitudeDegrees>
            </Position>
            <AltitudeMeters>161.1999969482421875</AltitudeMeters>
            <DistanceMeters>11480.825087489</DistanceMeters>
          </Trackpoint>
          <Trackpoint>
            <Time>2020-02-15T09:19:34.000Z</Time>
            <Position>
              <LatitudeDegrees>41.9426409713923931121826171875</LatitudeDegrees>
              <LongitudeDegrees>2.85225897096097469329833984375</LongitudeDegrees>
            </Position>
            <AltitudeMeters>161.1999969482421875</AltitudeMeters>
            <DistanceMeters>11483.701117743</DistanceMeters>
          </Trackpoint>
          <Trackpoint>
            <Time>2020-02-15T09:19:35.000Z</Time>
            <Position>
              <LatitudeDegrees>41.94265924394130706787109375</LatitudeDegrees>
              <LongitudeDegrees>2.85223633982241153717041015625</LongitudeDegrees>
            </Position>
            <AltitudeMeters>161.1999969482421875</AltitudeMeters>
            <DistanceMeters>11486.465072278</DistanceMeters>
          </Trackpoint>
          <Trackpoint>
            <Time>2020-02-15T09:19:36.000Z</Time>
            <Position>
              <LatitudeDegrees>41.9426795281469821929931640625</LatitudeDegrees>
              <LongitudeDegrees>2.8522119484841823577880859375</LongitudeDegrees>
            </Position>
            <AltitudeMeters>161.1999969482421875</AltitudeMeters>
            <DistanceMeters>11489.492534514</DistanceMeters>
          </Trackpoint>
          <Trackpoint>
            <Time>2020-02-15T09:19:38.000Z</Time>
            <Position>
              <LatitudeDegrees>41.94272093474864959716796875</LatitudeDegrees>
              <LongitudeDegrees>2.852156125009059906005859375</LongitudeDegrees>
            </Position>
            <AltitudeMeters>161.1999969482421875</AltitudeMeters>
            <DistanceMeters>11496.019700872</DistanceMeters>
          </Trackpoint>
          <Trackpoint>
            <Time>2020-02-15T09:19:39.000Z</Time>
            <Position>
              <LatitudeDegrees>41.94274297915399074554443359375</LatitudeDegrees>
              <LongitudeDegrees>2.852135002613067626953125</LongitudeDegrees>
            </Position>
            <AltitudeMeters>161</AltitudeMeters>
            <DistanceMeters>11499.033710975</DistanceMeters>
          </Trackpoint>
          <Trackpoint>
            <Time>2020-02-15T09:19:40.000Z</Time>
            <Position>
              <LatitudeDegrees>41.94277147762477397918701171875</LatitudeDegrees>
              <LongitudeDegrees>2.85210885107517242431640625</LongitudeDegrees>
            </Position>
            <AltitudeMeters>161</AltitudeMeters>
            <DistanceMeters>11502.874953601</DistanceMeters>
          </Trackpoint>
          <Trackpoint>
            <Time>2020-02-15T09:19:43.000Z</Time>
            <Position>
              <LatitudeDegrees>41.94286602549254894256591796875</LatitudeDegrees>
              <LongitudeDegrees>2.85203835926949977874755859375</LongitudeDegrees>
            </Position>
            <AltitudeMeters>161.399993896484375</AltitudeMeters>
            <DistanceMeters>11514.90850278</DistanceMeters>
          </Trackpoint>
          <Trackpoint>
            <Time>2020-02-15T09:19:46.000Z</Time>
            <Position>
              <LatitudeDegrees>41.94296861998736858367919921875</LatitudeDegrees>
              <LongitudeDegrees>2.8519861400127410888671875</LongitudeDegrees>
            </Position>
            <AltitudeMeters>161.1999969482421875</AltitudeMeters>
            <DistanceMeters>11527.118603603</DistanceMeters>
          </Trackpoint>
          <Trackpoint>
            <Time>2020-02-15T09:19:47.000Z</Time>
            <Position>
              <LatitudeDegrees>41.9430027343332767486572265625</LatitudeDegrees>
              <LongitudeDegrees>2.851974070072174072265625</LongitudeDegrees>
            </Position>
            <AltitudeMeters>161.1999969482421875</AltitudeMeters>
            <DistanceMeters>11531.044713699</DistanceMeters>
          </Trackpoint>
          <Trackpoint>
            <Time>2020-02-15T09:19:49.000Z</Time>
            <Position>
              <LatitudeDegrees>41.9430707953870296478271484375</LatitudeDegrees>
              <LongitudeDegrees>2.85195529460906982421875</LongitudeDegrees>
            </Position>
            <AltitudeMeters>161.1999969482421875</AltitudeMeters>
            <DistanceMeters>11538.777576443</DistanceMeters>
          </Trackpoint>
          <Trackpoint>
            <Time>2020-02-15T09:19:50.000Z</Time>
            <Position>
              <LatitudeDegrees>41.9431056641042232513427734375</LatitudeDegrees>
              <LongitudeDegrees>2.85195051692426204681396484375</LongitudeDegrees>
            </Position>
            <AltitudeMeters>161.1999969482421875</AltitudeMeters>
            <DistanceMeters>11542.678304427</DistanceMeters>
          </Trackpoint>
          <Trackpoint>
            <Time>2020-02-15T09:19:52.000Z</Time>
            <Position>
              <LatitudeDegrees>41.94318118505179882049560546875</LatitudeDegrees>
              <LongitudeDegrees>2.85194079391658306121826171875</LongitudeDegrees>
            </Position>
            <AltitudeMeters>161.1999969482421875</AltitudeMeters>
            <DistanceMeters>11551.12232501</DistanceMeters>
          </Trackpoint>
          <Trackpoint>
            <Time>2020-02-15T09:19:53.000Z</Time>
            <Position>
              <LatitudeDegrees>41.94321622140705585479736328125</LatitudeDegrees>
              <LongitudeDegrees>2.85193911753594875335693359375</LongitudeDegrees>
            </Position>
            <AltitudeMeters>161.1999969482421875</AltitudeMeters>
            <DistanceMeters>11555.024210309</DistanceMeters>
          </Trackpoint>
          <Trackpoint>
            <Time>2020-02-15T09:19:54.000Z</Time>
            <Position>
              <LatitudeDegrees>41.94324438460171222686767578125</LatitudeDegrees>
              <LongitudeDegrees>2.85193450748920440673828125</LongitudeDegrees>
            </Position>
            <AltitudeMeters>161.399993896484375</AltitudeMeters>
            <DistanceMeters>11558.181615001</DistanceMeters>
          </Trackpoint>
          <Trackpoint>
            <Time>2020-02-15T09:19:55.000Z</Time>
            <Position>
              <LatitudeDegrees>41.94327204488217830657958984375</LatitudeDegrees>
              <LongitudeDegrees>2.85193023271858692169189453125</LongitudeDegrees>
            </Position>
            <AltitudeMeters>161.1999969482421875</AltitudeMeters>
            <DistanceMeters>11561.28129262</DistanceMeters>
          </Trackpoint>
          <Trackpoint>
            <Time>2020-02-15T09:19:56.000Z</Time>
            <Position>
              <LatitudeDegrees>41.94330054335296154022216796875</LatitudeDegrees>
              <LongitudeDegrees>2.8519269637763500213623046875</LongitudeDegrees>
            </Position>
            <AltitudeMeters>161.399993896484375</AltitudeMeters>
            <DistanceMeters>11564.462914171</DistanceMeters>
          </Trackpoint>
          <Trackpoint>
            <Time>2020-02-15T09:19:57.000Z</Time>
            <Position>
              <LatitudeDegrees>41.9433272816240787506103515625</LatitudeDegrees>
              <LongitudeDegrees>2.851925455033779144287109375</LongitudeDegrees>
            </Position>
            <AltitudeMeters>161.399993896484375</AltitudeMeters>
            <DistanceMeters>11567.440754843</DistanceMeters>
          </Trackpoint>
          <Trackpoint>
            <Time>2020-02-15T09:19:58.000Z</Time>
            <Position>
              <LatitudeDegrees>41.943354271352291107177734375</LatitudeDegrees>
              <LongitudeDegrees>2.85192377865314483642578125</LongitudeDegrees>
            </Position>
            <AltitudeMeters>161.399993896484375</AltitudeMeters>
            <DistanceMeters>11570.44876691</DistanceMeters>
          </Trackpoint>
          <Trackpoint>
            <Time>2020-02-15T09:19:59.000Z</Time>
            <Position>
              <LatitudeDegrees>41.94338352419435977935791015625</LatitudeDegrees>
              <LongitudeDegrees>2.85192017443478107452392578125</LongitudeDegrees>
            </Position>
            <AltitudeMeters>161.1999969482421875</AltitudeMeters>
            <DistanceMeters>11573.719950272</DistanceMeters>
          </Trackpoint>
          <Trackpoint>
            <Time>2020-02-15T09:20:00.000Z</Time>
            <Position>
              <LatitudeDegrees>41.94341571070253849029541015625</LatitudeDegrees>
              <LongitudeDegrees>2.851912714540958404541015625</LongitudeDegrees>
            </Position>
            <AltitudeMeters>161.1999969482421875</AltitudeMeters>
            <DistanceMeters>11577.355886453</DistanceMeters>
          </Trackpoint>
          <Trackpoint>
            <Time>2020-02-15T09:20:02.000Z</Time>
            <Position>
              <LatitudeDegrees>41.943487040698528289794921875</LatitudeDegrees>
              <LongitudeDegrees>2.85188354551792144775390625</LongitudeDegrees>
            </Position>
            <AltitudeMeters>161.399993896484375</AltitudeMeters>
            <DistanceMeters>11585.654281657</DistanceMeters>
          </Trackpoint>
          <Trackpoint>
            <Time>2020-02-15T09:20:03.000Z</Time>
            <Position>
              <LatitudeDegrees>41.9435264356434345245361328125</LatitudeDegrees>
              <LongitudeDegrees>2.85185831598937511444091796875</LongitudeDegrees>
            </Position>
            <AltitudeMeters>161.1999969482421875</AltitudeMeters>
            <DistanceMeters>11590.509951497</DistanceMeters>
          </Trackpoint>
          <Trackpoint>
            <Time>2020-02-15T09:20:04.000Z</Time>
            <Position>
              <LatitudeDegrees>41.94356038235127925872802734375</LatitudeDegrees>
              <LongitudeDegrees>2.85182462073862552642822265625</LongitudeDegrees>
            </Position>
            <AltitudeMeters>161.1999969482421875</AltitudeMeters>
            <DistanceMeters>11595.205848288</DistanceMeters>
          </Trackpoint>
          <Trackpoint>
            <Time>2020-02-15T09:20:05.000Z</Time>
            <Position>
              <LatitudeDegrees>41.94359491579234600067138671875</LatitudeDegrees>
              <LongitudeDegrees>2.8517797775566577911376953125</LongitudeDegrees>
            </Position>
            <AltitudeMeters>161</AltitudeMeters>
            <DistanceMeters>11600.549358531</DistanceMeters>
          </Trackpoint>
          <Trackpoint>
            <Time>2020-02-15T09:20:07.000Z</Time>
            <Position>
              <LatitudeDegrees>41.94365124218165874481201171875</LatitudeDegrees>
              <LongitudeDegrees>2.85167542286217212677001953125</LongitudeDegrees>
            </Position>
            <AltitudeMeters>161</AltitudeMeters>
            <DistanceMeters>11611.223697132</DistanceMeters>
          </Trackpoint>
          <Trackpoint>
            <Time>2020-02-15T09:20:08.000Z</Time>
            <Position>
              <LatitudeDegrees>41.94366062991321086883544921875</LatitudeDegrees>
              <LongitudeDegrees>2.8516087867319583892822265625</LongitudeDegrees>
            </Position>
            <AltitudeMeters>161</AltitudeMeters>
            <DistanceMeters>11616.838320616</DistanceMeters>
          </Trackpoint>
          <Trackpoint>
            <Time>2020-02-15T09:20:09.000Z</Time>
            <Position>
              <LatitudeDegrees>41.943666748702526092529296875</LatitudeDegrees>
              <LongitudeDegrees>2.851528823375701904296875</LongitudeDegrees>
            </Position>
            <AltitudeMeters>160.8000030517578125</AltitudeMeters>
            <DistanceMeters>11623.492905117</DistanceMeters>
          </Trackpoint>
          <Trackpoint>
            <Time>2020-02-15T09:20:10.000Z</Time>
            <Position>
              <LatitudeDegrees>41.9436856918036937713623046875</LatitudeDegrees>
              <LongitudeDegrees>2.85145196132361888885498046875</LongitudeDegrees>
            </Position>
            <AltitudeMeters>160.8000030517578125</AltitudeMeters>
            <DistanceMeters>11630.196162563</DistanceMeters>
          </Trackpoint>
          <Trackpoint>
            <Time>2020-02-15T09:20:11.000Z</Time>
            <Position>
              <LatitudeDegrees>41.943716369569301605224609375</LatitudeDegrees>
              <LongitudeDegrees>2.8513875044882297515869140625</LongitudeDegrees>
            </Position>
            <AltitudeMeters>160.600006103515625</AltitudeMeters>
            <DistanceMeters>11636.530960091</DistanceMeters>
          </Trackpoint>
          <Trackpoint>
            <Time>2020-02-15T09:20:12.000Z</Time>
            <Position>
              <LatitudeDegrees>41.9437581114470958709716796875</LatitudeDegrees>
              <LongitudeDegrees>2.85134551115334033966064453125</LongitudeDegrees>
            </Position>
            <AltitudeMeters>160.600006103515625</AltitudeMeters>
            <DistanceMeters>11642.333039458</DistanceMeters>
          </Trackpoint>
          <Trackpoint>
            <Time>2020-02-15T09:20:13.000Z</Time>
            <Position>
              <LatitudeDegrees>41.94380479864776134490966796875</LatitudeDegrees>
              <LongitudeDegrees>2.8513316810131072998046875</LongitudeDegrees>
            </Position>
            <AltitudeMeters>160.399993896484375</AltitudeMeters>
            <DistanceMeters>11647.654535463</DistanceMeters>
          </Trackpoint>
          <Trackpoint>
            <Time>2020-02-15T09:20:14.000Z</Time>
            <Position>
              <LatitudeDegrees>41.9438553415238857269287109375</LatitudeDegrees>
              <LongitudeDegrees>2.85133847035467624664306640625</LongitudeDegrees>
            </Position>
            <AltitudeMeters>160</AltitudeMeters>
            <DistanceMeters>11653.308425328</DistanceMeters>
          </Trackpoint>
          <Trackpoint>
            <Time>2020-02-15T09:20:15.000Z</Time>
            <Position>
              <LatitudeDegrees>41.9439049623906612396240234375</LatitudeDegrees>
              <LongitudeDegrees>2.85134383477270603179931640625</LongitudeDegrees>
            </Position>
            <AltitudeMeters>159.399993896484375</AltitudeMeters>
            <DistanceMeters>11658.84938733</DistanceMeters>
          </Trackpoint>
          <Trackpoint>
            <Time>2020-02-15T09:20:16.000Z</Time>
            <Position>
              <LatitudeDegrees>41.94394863210618495941162109375</LatitudeDegrees>
              <LongitudeDegrees>2.85133008845150470733642578125</LongitudeDegrees>
            </Position>
            <AltitudeMeters>158.8000030517578125</AltitudeMeters>
            <DistanceMeters>11663.841682492</DistanceMeters>
          </Trackpoint>
          <Trackpoint>
            <Time>2020-02-15T09:20:17.000Z</Time>
            <Position>
              <LatitudeDegrees>41.9439850933849811553955078125</LatitudeDegrees>
              <LongitudeDegrees>2.85129605792462825775146484375</LongitudeDegrees>
            </Position>
            <AltitudeMeters>158.399993896484375</AltitudeMeters>
            <DistanceMeters>11668.781243865</DistanceMeters>
          </Trackpoint>
          <Trackpoint>
            <Time>2020-02-15T09:20:18.000Z</Time>
            <Position>
              <LatitudeDegrees>41.94401443004608154296875</LatitudeDegrees>
              <LongitudeDegrees>2.8512543998658657073974609375</LongitudeDegrees>
            </Position>
            <AltitudeMeters>158</AltitudeMeters>
            <DistanceMeters>11673.530678669</DistanceMeters>
          </Trackpoint>
          <Trackpoint>
            <Time>2020-02-15T09:20:19.000Z</Time>
            <Position>
              <LatitudeDegrees>41.944038905203342437744140625</LatitudeDegrees>
              <LongitudeDegrees>2.85120821557939052581787109375</LongitudeDegrees>
            </Position>
            <AltitudeMeters>157.600006103515625</AltitudeMeters>
            <DistanceMeters>11678.225613876</DistanceMeters>
          </Trackpoint>
          <Trackpoint>
            <Time>2020-02-15T09:20:20.000Z</Time>
            <Position>
              <LatitudeDegrees>41.944062374532222747802734375</LatitudeDegrees>
              <LongitudeDegrees>2.85116027109324932098388671875</LongitudeDegrees>
            </Position>
            <AltitudeMeters>157.399993896484375</AltitudeMeters>
            <DistanceMeters>11682.976949594</DistanceMeters>
          </Trackpoint>
          <Trackpoint>
            <Time>2020-02-15T09:20:22.000Z</Time>
            <Position>
              <LatitudeDegrees>41.94410369731485843658447265625</LatitudeDegrees>
              <LongitudeDegrees>2.85106035880744457244873046875</LongitudeDegrees>
            </Position>
            <AltitudeMeters>155.600006103515625</AltitudeMeters>
            <DistanceMeters>11692.441534019</DistanceMeters>
          </Trackpoint>
          <Trackpoint>
            <Time>2020-02-15T09:20:23.000Z</Time>
            <Position>
              <LatitudeDegrees>41.94412012584507465362548828125</LatitudeDegrees>
              <LongitudeDegrees>2.8510103188455104827880859375</LongitudeDegrees>
            </Position>
            <AltitudeMeters>155</AltitudeMeters>
            <DistanceMeters>11696.969035927</DistanceMeters>
          </Trackpoint>
          <Trackpoint>
            <Time>2020-02-15T09:20:24.000Z</Time>
            <Position>
              <LatitudeDegrees>41.94413454271852970123291015625</LatitudeDegrees>
              <LongitudeDegrees>2.85096312873065471649169921875</LongitudeDegrees>
            </Position>
            <AltitudeMeters>154.600006103515625</AltitudeMeters>
            <DistanceMeters>11701.193184486</DistanceMeters>
          </Trackpoint>
          <Trackpoint>
            <Time>2020-02-15T09:20:25.000Z</Time>
            <Position>
              <LatitudeDegrees>41.94414577446877956390380859375</LatitudeDegrees>
              <LongitudeDegrees>2.85091216675937175750732421875</LongitudeDegrees>
            </Position>
            <AltitudeMeters>154.1999969482421875</AltitudeMeters>
            <DistanceMeters>11705.593239474</DistanceMeters>
          </Trackpoint>
          <Trackpoint>
            <Time>2020-02-15T09:20:26.000Z</Time>
            <Position>
              <LatitudeDegrees>41.9441606104373931884765625</LatitudeDegrees>
              <LongitudeDegrees>2.8508547507226467132568359375</LongitudeDegrees>
            </Position>
            <AltitudeMeters>154.1999969482421875</AltitudeMeters>
            <DistanceMeters>11710.62427359</DistanceMeters>
          </Trackpoint>
          <Trackpoint>
            <Time>2020-02-15T09:20:27.000Z</Time>
            <Position>
              <LatitudeDegrees>41.94417980499565601348876953125</LatitudeDegrees>
              <LongitudeDegrees>2.8507870249450206756591796875</LongitudeDegrees>
            </Position>
            <AltitudeMeters>154</AltitudeMeters>
            <DistanceMeters>11716.62376396</DistanceMeters>
          </Trackpoint>
          <Trackpoint>
            <Time>2020-02-15T09:20:29.000Z</Time>
            <Position>
              <LatitudeDegrees>41.94422565400600433349609375</LatitudeDegrees>
              <LongitudeDegrees>2.85063221119344234466552734375</LongitudeDegrees>
            </Position>
            <AltitudeMeters>153.600006103515625</AltitudeMeters>
            <DistanceMeters>11730.418684438</DistanceMeters>
          </Trackpoint>
          <Trackpoint>
            <Time>2020-02-15T09:20:30.000Z</Time>
            <Position>
              <LatitudeDegrees>41.9442570023238658905029296875</LatitudeDegrees>
              <LongitudeDegrees>2.850557863712310791015625</LongitudeDegrees>
            </Position>
            <AltitudeMeters>153.399993896484375</AltitudeMeters>
            <DistanceMeters>11737.494187516</DistanceMeters>
          </Trackpoint>
          <Trackpoint>
            <Time>2020-02-15T09:20:31.000Z</Time>
            <Position>
              <LatitudeDegrees>41.94429681636393070220947265625</LatitudeDegrees>
              <LongitudeDegrees>2.850495837628841400146484375</LongitudeDegrees>
            </Position>
            <AltitudeMeters>153.399993896484375</AltitudeMeters>
            <DistanceMeters>11744.277124894</DistanceMeters>
          </Trackpoint>
          <Trackpoint>
            <Time>2020-02-15T09:20:32.000Z</Time>
            <Position>
              <LatitudeDegrees>41.94434107281267642974853515625</LatitudeDegrees>
              <LongitudeDegrees>2.8504331409931182861328125</LongitudeDegrees>
            </Position>
            <AltitudeMeters>153</AltitudeMeters>
            <DistanceMeters>11751.433841571</DistanceMeters>
          </Trackpoint>
          <Trackpoint>
            <Time>2020-02-15T09:20:33.000Z</Time>
            <Position>
              <LatitudeDegrees>41.94439195096492767333984375</LatitudeDegrees>
              <LongitudeDegrees>2.8503739647567272186279296875</LongitudeDegrees>
            </Position>
            <AltitudeMeters>153</AltitudeMeters>
            <DistanceMeters>11758.921681355</DistanceMeters>
          </Trackpoint>
          <Trackpoint>
            <Time>2020-02-15T09:20:34.000Z</Time>
            <Position>
              <LatitudeDegrees>41.94444852881133556365966796875</LatitudeDegrees>
              <LongitudeDegrees>2.85032744519412517547607421875</LongitudeDegrees>
            </Position>
            <AltitudeMeters>152.600006103515625</AltitudeMeters>
            <DistanceMeters>11766.303244961</DistanceMeters>
          </Trackpoint>
          <Trackpoint>
            <Time>2020-02-15T09:20:35.000Z</Time>
            <Position>
              <LatitudeDegrees>41.94450326263904571533203125</LatitudeDegrees>
              <LongitudeDegrees>2.8502988629043102264404296875</LongitudeDegrees>
            </Position>
            <AltitudeMeters>152.399993896484375</AltitudeMeters>
            <DistanceMeters>11772.83870681</DistanceMeters>
          </Trackpoint>
          <Trackpoint>
            <Time>2020-02-15T09:20:36.000Z</Time>
            <Position>
              <LatitudeDegrees>41.94455279968678951263427734375</LatitudeDegrees>
              <LongitudeDegrees>2.85027958452701568603515625</LongitudeDegrees>
            </Position>
            <AltitudeMeters>151.600006103515625</AltitudeMeters>
            <DistanceMeters>11778.578194493</DistanceMeters>
          </Trackpoint>
          <Trackpoint>
            <Time>2020-02-15T09:20:37.000Z</Time>
            <Position>
              <LatitudeDegrees>41.94460107944905757904052734375</LatitudeDegrees>
              <LongitudeDegrees>2.85027162171900272369384765625</LongitudeDegrees>
            </Position>
            <AltitudeMeters>150.600006103515625</AltitudeMeters>
            <DistanceMeters>11783.991381915</DistanceMeters>
          </Trackpoint>
          <Trackpoint>
            <Time>2020-02-15T09:20:38.000Z</Time>
            <Position>
              <LatitudeDegrees>41.944650113582611083984375</LatitudeDegrees>
              <LongitudeDegrees>2.85027916543185710906982421875</LongitudeDegrees>
            </Position>
            <AltitudeMeters>150</AltitudeMeters>
            <DistanceMeters>11789.484879478</DistanceMeters>
          </Trackpoint>
          <Trackpoint>
            <Time>2020-02-15T09:20:39.000Z</Time>
            <Position>
              <LatitudeDegrees>41.94468774832785129547119140625</LatitudeDegrees>
              <LongitudeDegrees>2.8502981923520565032958984375</LongitudeDegrees>
            </Position>
            <AltitudeMeters>149.1999969482421875</AltitudeMeters>
            <DistanceMeters>11793.960224107</DistanceMeters>
          </Trackpoint>
          <Trackpoint>
            <Time>2020-02-15T09:20:40.000Z</Time>
            <Position>
              <LatitudeDegrees>41.9447149895131587982177734375</LatitudeDegrees>
              <LongitudeDegrees>2.85032945685088634490966796875</LongitudeDegrees>
            </Position>
            <AltitudeMeters>148.600006103515625</AltitudeMeters>
            <DistanceMeters>11797.946818461</DistanceMeters>
          </Trackpoint>
          <Trackpoint>
            <Time>2020-02-15T09:20:41.000Z</Time>
            <Position>
              <LatitudeDegrees>41.94473569281399250030517578125</LatitudeDegrees>
              <LongitudeDegrees>2.8503612242639064788818359375</LongitudeDegrees>
            </Position>
            <AltitudeMeters>147.1999969482421875</AltitudeMeters>
            <DistanceMeters>11801.443491667</DistanceMeters>
          </Trackpoint>
          <Trackpoint>
            <Time>2020-02-15T09:20:42.000Z</Time>
            <Position>
              <LatitudeDegrees>41.94475279189646244049072265625</LatitudeDegrees>
              <LongitudeDegrees>2.85039265640079975128173828125</LongitudeDegrees>
            </Position>
            <AltitudeMeters>146.399993896484375</AltitudeMeters>
            <DistanceMeters>11804.666004337</DistanceMeters>
          </Trackpoint>
          <Trackpoint>
            <Time>2020-02-15T09:20:43.000Z</Time>
            <Position>
              <LatitudeDegrees>41.944759078323841094970703125</LatitudeDegrees>
              <LongitudeDegrees>2.850423417985439300537109375</LongitudeDegrees>
            </Position>
            <AltitudeMeters>145.8000030517578125</AltitudeMeters>
            <DistanceMeters>11807.306310951</DistanceMeters>
          </Trackpoint>
          <Trackpoint>
            <Time>2020-02-15T09:20:44.000Z</Time>
            <Position>
              <LatitudeDegrees>41.9447562284767627716064453125</LatitudeDegrees>
              <LongitudeDegrees>2.85045166499912738800048828125</LongitudeDegrees>
            </Position>
            <AltitudeMeters>145.1999969482421875</AltitudeMeters>
            <DistanceMeters>11809.666725568</DistanceMeters>
          </Trackpoint>
          <Trackpoint>
            <Time>2020-02-15T09:20:45.000Z</Time>
            <Position>
              <LatitudeDegrees>41.9447485171258449554443359375</LatitudeDegrees>
              <LongitudeDegrees>2.85047798417508602142333984375</LongitudeDegrees>
            </Position>
            <AltitudeMeters>144.600006103515625</AltitudeMeters>
            <DistanceMeters>11812.007933889</DistanceMeters>
          </Trackpoint>
          <Trackpoint>
            <Time>2020-02-15T09:20:46.000Z</Time>
            <Position>
              <LatitudeDegrees>41.9447408057749271392822265625</LatitudeDegrees>
              <LongitudeDegrees>2.8505006991326808929443359375</LongitudeDegrees>
            </Position>
            <AltitudeMeters>144</AltitudeMeters>
            <DistanceMeters>11814.074628389</DistanceMeters>
          </Trackpoint>
          <Trackpoint>
            <Time>2020-02-15T09:20:47.000Z</Time>
            <Position>
              <LatitudeDegrees>41.94473267532885074615478515625</LatitudeDegrees>
              <LongitudeDegrees>2.85052006132900714874267578125</LongitudeDegrees>
            </Position>
            <AltitudeMeters>143.600006103515625</AltitudeMeters>
            <DistanceMeters>11815.917264746</DistanceMeters>
          </Trackpoint>
          <Trackpoint>
            <Time>2020-02-15T09:20:48.000Z</Time>
            <Position>
              <LatitudeDegrees>41.9447270594537258148193359375</LatitudeDegrees>
              <LongitudeDegrees>2.85054101608693599700927734375</LongitudeDegrees>
            </Position>
            <AltitudeMeters>143.399993896484375</AltitudeMeters>
            <DistanceMeters>11817.76234979</DistanceMeters>
          </Trackpoint>
          <Trackpoint>
            <Time>2020-02-15T09:20:49.000Z</Time>
            <Position>
              <LatitudeDegrees>41.94472278468310832977294921875</LatitudeDegrees>
              <LongitudeDegrees>2.850563563406467437744140625</LongitudeDegrees>
            </Position>
            <AltitudeMeters>143.1999969482421875</AltitudeMeters>
            <DistanceMeters>11819.688839193</DistanceMeters>
          </Trackpoint>
          <Trackpoint>
            <Time>2020-02-15T09:20:50.000Z</Time>
            <Position>
              <LatitudeDegrees>41.94471842609345912933349609375</LatitudeDegrees>
              <LongitudeDegrees>2.85058510489761829376220703125</LongitudeDegrees>
            </Position>
            <AltitudeMeters>143.1999969482421875</AltitudeMeters>
            <DistanceMeters>11821.536369678</DistanceMeters>
          </Trackpoint>
          <Trackpoint>
            <Time>2020-02-15T09:20:51.000Z</Time>
            <Position>
              <LatitudeDegrees>41.944712810218334197998046875</LatitudeDegrees>
              <LongitudeDegrees>2.8506073169410228729248046875</LongitudeDegrees>
            </Position>
            <AltitudeMeters>143.1999969482421875</AltitudeMeters>
            <DistanceMeters>11823.479195443</DistanceMeters>
          </Trackpoint>
          <Trackpoint>
            <Time>2020-02-15T09:20:52.000Z</Time>
            <Position>
              <LatitudeDegrees>41.94470501504838466644287109375</LatitudeDegrees>
              <LongitudeDegrees>2.85063053481280803680419921875</LongitudeDegrees>
            </Position>
            <AltitudeMeters>143.1999969482421875</AltitudeMeters>
            <DistanceMeters>11825.586989933</DistanceMeters>
          </Trackpoint>
          <Trackpoint>
            <Time>2020-02-15T09:20:53.000Z</Time>
            <Position>
              <LatitudeDegrees>41.94470065645873546600341796875</LatitudeDegrees>
              <LongitudeDegrees>2.8506515733897686004638671875</LongitudeDegrees>
            </Position>
            <AltitudeMeters>143.1999969482421875</AltitudeMeters>
            <DistanceMeters>11827.39499648</DistanceMeters>
          </Trackpoint>
          <Trackpoint>
            <Time>2020-02-15T09:20:54.000Z</Time>
            <Position>
              <LatitudeDegrees>41.9447045959532260894775390625</LatitudeDegrees>
              <LongitudeDegrees>2.85067680291831493377685546875</LongitudeDegrees>
            </Position>
            <AltitudeMeters>143.1999969482421875</AltitudeMeters>
            <DistanceMeters>11829.528340926</DistanceMeters>
          </Trackpoint>
          <Trackpoint>
            <Time>2020-02-15T09:20:55.000Z</Time>
            <Position>
              <LatitudeDegrees>41.9447042606770992279052734375</LatitudeDegrees>
              <LongitudeDegrees>2.85069976933300495147705078125</LongitudeDegrees>
            </Position>
            <AltitudeMeters>143.1999969482421875</AltitudeMeters>
            <DistanceMeters>11831.433620625</DistanceMeters>
          </Trackpoint>
          <Trackpoint>
            <Time>2020-02-15T09:20:56.000Z</Time>
            <Position>
              <LatitudeDegrees>41.9447059370577335357666015625</LatitudeDegrees>
              <LongitudeDegrees>2.850721143186092376708984375</LongitudeDegrees>
            </Position>
            <AltitudeMeters>143.1999969482421875</AltitudeMeters>
            <DistanceMeters>11833.21647982</DistanceMeters>
          </Trackpoint>
          <Trackpoint>
            <Time>2020-02-15T09:20:57.000Z</Time>
            <Position>
              <LatitudeDegrees>41.944710128009319305419921875</LatitudeDegrees>
              <LongitudeDegrees>2.85074352286756038665771484375</LongitudeDegrees>
            </Position>
            <AltitudeMeters>143.399993896484375</AltitudeMeters>
            <DistanceMeters>11835.12649314</DistanceMeters>
          </Trackpoint>
          <Trackpoint>
            <Time>2020-02-15T09:20:58.000Z</Time>
            <Position>
              <LatitudeDegrees>41.944715492427349090576171875</LatitudeDegrees>
              <LongitudeDegrees>2.850766070187091827392578125</LongitudeDegrees>
            </Position>
            <AltitudeMeters>143.399993896484375</AltitudeMeters>
            <DistanceMeters>11837.087822425</DistanceMeters>
          </Trackpoint>
          <Trackpoint>
            <Time>2020-02-15T09:20:59.000Z</Time>
            <Position>
              <LatitudeDegrees>41.9447220303118228912353515625</LatitudeDegrees>
              <LongitudeDegrees>2.85078811459243297576904296875</LongitudeDegrees>
            </Position>
            <AltitudeMeters>143.600006103515625</AltitudeMeters>
            <DistanceMeters>11839.053750379</DistanceMeters>
          </Trackpoint>
          <Trackpoint>
            <Time>2020-02-15T09:21:00.000Z</Time>
            <Position>
              <LatitudeDegrees>41.944730579853057861328125</LatitudeDegrees>
              <LongitudeDegrees>2.85081200301647186279296875</LongitudeDegrees>
            </Position>
            <AltitudeMeters>143.8000030517578125</AltitudeMeters>
            <DistanceMeters>11841.249669508</DistanceMeters>
          </Trackpoint>
          <Trackpoint>
            <Time>2020-02-15T09:21:01.000Z</Time>
            <Position>
              <LatitudeDegrees>41.944741308689117431640625</LatitudeDegrees>
              <LongitudeDegrees>2.85083270631730556488037109375</LongitudeDegrees>
            </Position>
            <AltitudeMeters>144</AltitudeMeters>
            <DistanceMeters>11843.338096409</DistanceMeters>
          </Trackpoint>
          <Trackpoint>
            <Time>2020-02-15T09:21:02.000Z</Time>
            <Position>
              <LatitudeDegrees>41.9447538815438747406005859375</LatitudeDegrees>
              <LongitudeDegrees>2.8508550859987735748291015625</LongitudeDegrees>
            </Position>
            <AltitudeMeters>144.399993896484375</AltitudeMeters>
            <DistanceMeters>11845.657994157</DistanceMeters>
          </Trackpoint>
          <Trackpoint>
            <Time>2020-02-15T09:21:03.000Z</Time>
            <Position>
              <LatitudeDegrees>41.94476603530347347259521484375</LatitudeDegrees>
              <LongitudeDegrees>2.85087763331830501556396484375</LongitudeDegrees>
            </Position>
            <AltitudeMeters>144.600006103515625</AltitudeMeters>
            <DistanceMeters>11847.964228105</DistanceMeters>
          </Trackpoint>
          <Trackpoint>
            <Time>2020-02-15T09:21:04.000Z</Time>
            <Position>
              <LatitudeDegrees>41.9447780214250087738037109375</LatitudeDegrees>
              <LongitudeDegrees>2.85090127028524875640869140625</LongitudeDegrees>
            </Position>
            <AltitudeMeters>144.8000030517578125</AltitudeMeters>
            <DistanceMeters>11850.330374211</DistanceMeters>
          </Trackpoint>
          <Trackpoint>
            <Time>2020-02-15T09:21:05.000Z</Time>
            <Position>
              <LatitudeDegrees>41.94478983990848064422607421875</LatitudeDegrees>
              <LongitudeDegrees>2.8509239852428436279296875</LongitudeDegrees>
            </Position>
            <AltitudeMeters>145</AltitudeMeters>
            <DistanceMeters>11852.626798528</DistanceMeters>
          </Trackpoint>
          <Trackpoint>
            <Time>2020-02-15T09:21:06.000Z</Time>
            <Position>
              <LatitudeDegrees>41.9448018260300159454345703125</LatitudeDegrees>
              <LongitudeDegrees>2.8509481251239776611328125</LongitudeDegrees>
            </Position>
            <AltitudeMeters>145.399993896484375</AltitudeMeters>
            <DistanceMeters>11855.028926512</DistanceMeters>
          </Trackpoint>
          <Trackpoint>
            <Time>2020-02-15T09:21:07.000Z</Time>
            <Position>
              <LatitudeDegrees>41.94481465034186840057373046875</LatitudeDegrees>
              <LongitudeDegrees>2.850973270833492279052734375</LongitudeDegrees>
            </Position>
            <AltitudeMeters>145.600006103515625</AltitudeMeters>
            <DistanceMeters>11857.553849079</DistanceMeters>
          </Trackpoint>
          <Trackpoint>
            <Time>2020-02-15T09:21:08.000Z</Time>
            <Position>
              <LatitudeDegrees>41.94482923485338687896728515625</LatitudeDegrees>
              <LongitudeDegrees>2.85099833272397518157958984375</LongitudeDegrees>
            </Position>
            <AltitudeMeters>146</AltitudeMeters>
            <DistanceMeters>11860.189020569</DistanceMeters>
          </Trackpoint>
          <Trackpoint>
            <Time>2020-02-15T09:21:09.000Z</Time>
            <Position>
              <LatitudeDegrees>41.94484390318393707275390625</LatitudeDegrees>
              <LongitudeDegrees>2.85101911984384059906005859375</LongitudeDegrees>
            </Position>
            <AltitudeMeters>146.399993896484375</AltitudeMeters>
            <DistanceMeters>11862.562787133</DistanceMeters>
          </Trackpoint>
          <Trackpoint>
            <Time>2020-02-15T09:21:10.000Z</Time>
            <Position>
              <LatitudeDegrees>41.9448553025722503662109375</LatitudeDegrees>
              <LongitudeDegrees>2.85104074515402317047119140625</LongitudeDegrees>
            </Position>
            <AltitudeMeters>146.600006103515625</AltitudeMeters>
            <DistanceMeters>11864.758706262</DistanceMeters>
          </Trackpoint>
          <Trackpoint>
            <Time>2020-02-15T09:21:11.000Z</Time>
            <Position>
              <LatitudeDegrees>41.94486527703702449798583984375</LatitudeDegrees>
              <LongitudeDegrees>2.8510669805109500885009765625</LongitudeDegrees>
            </Position>
            <AltitudeMeters>146.600006103515625</AltitudeMeters>
            <DistanceMeters>11867.198136601</DistanceMeters>
          </Trackpoint>
          <Trackpoint>
            <Time>2020-02-15T09:21:12.000Z</Time>
            <Position>
              <LatitudeDegrees>41.94487634114921092987060546875</LatitudeDegrees>
              <LongitudeDegrees>2.85108919255435466766357421875</LongitudeDegrees>
            </Position>
            <AltitudeMeters>146.8000030517578125</AltitudeMeters>
            <DistanceMeters>11869.412483346</DistanceMeters>
          </Trackpoint>
          <Trackpoint>
            <Time>2020-02-15T09:21:13.000Z</Time>
            <Position>
              <LatitudeDegrees>41.94488547742366790771484375</LatitudeDegrees>
              <LongitudeDegrees>2.851111404597759246826171875</LongitudeDegrees>
            </Position>
            <AltitudeMeters>147.399993896484375</AltitudeMeters>
            <DistanceMeters>11871.515989338</DistanceMeters>
          </Trackpoint>
          <Trackpoint>
            <Time>2020-02-15T09:21:14.000Z</Time>
            <Position>
              <LatitudeDegrees>41.94489209912717342376708984375</LatitudeDegrees>
              <LongitudeDegrees>2.85113294608891010284423828125</LongitudeDegrees>
            </Position>
            <AltitudeMeters>147.600006103515625</AltitudeMeters>
            <DistanceMeters>11873.447160375</DistanceMeters>
          </Trackpoint>
          <Trackpoint>
            <Time>2020-02-15T09:21:15.000Z</Time>
            <Position>
              <LatitudeDegrees>41.94489997811615467071533203125</LatitudeDegrees>
              <LongitudeDegrees>2.8511534817516803741455078125</LongitudeDegrees>
            </Position>
            <AltitudeMeters>147.8000030517578125</AltitudeMeters>
            <DistanceMeters>11875.361895614</DistanceMeters>
          </Trackpoint>
          <Trackpoint>
            <Time>2020-02-15T09:21:16.000Z</Time>
            <Position>
              <LatitudeDegrees>41.94490701891481876373291015625</LatitudeDegrees>
              <LongitudeDegrees>2.85117384977638721466064453125</LongitudeDegrees>
            </Position>
            <AltitudeMeters>147.8000030517578125</AltitudeMeters>
            <DistanceMeters>11877.219175668</DistanceMeters>
          </Trackpoint>
          <Trackpoint>
            <Time>2020-02-15T09:21:17.000Z</Time>
            <Position>
              <LatitudeDegrees>41.94491372443735599517822265625</LatitudeDegrees>
              <LongitudeDegrees>2.8511948883533477783203125</LongitudeDegrees>
            </Position>
            <AltitudeMeters>148</AltitudeMeters>
            <DistanceMeters>11879.112569539</DistanceMeters>
          </Trackpoint>
          <Trackpoint>
            <Time>2020-02-15T09:21:18.000Z</Time>
            <Position>
              <LatitudeDegrees>41.94491841830313205718994140625</LatitudeDegrees>
              <LongitudeDegrees>2.851217687129974365234375</LongitudeDegrees>
            </Position>
            <AltitudeMeters>148</AltitudeMeters>
            <DistanceMeters>11881.069289348</DistanceMeters>
          </Trackpoint>
          <Trackpoint>
            <Time>2020-02-15T09:21:19.000Z</Time>
            <Position>
              <LatitudeDegrees>41.9449228607118129730224609375</LatitudeDegrees>
              <LongitudeDegrees>2.85123906098306179046630859375</LongitudeDegrees>
            </Position>
            <AltitudeMeters>148.1999969482421875</AltitudeMeters>
            <DistanceMeters>11882.907018542</DistanceMeters>
          </Trackpoint>
          <Trackpoint>
            <Time>2020-02-15T09:21:20.000Z</Time>
            <Position>
              <LatitudeDegrees>41.94492780603468418121337890625</LatitudeDegrees>
              <LongitudeDegrees>2.851262278854846954345703125</LongitudeDegrees>
            </Position>
            <AltitudeMeters>148.600006103515625</AltitudeMeters>
            <DistanceMeters>11884.904840803</DistanceMeters>
          </Trackpoint>
          <Trackpoint>
            <Time>2020-02-15T09:21:21.000Z</Time>
            <Position>
              <LatitudeDegrees>41.94493300281465053558349609375</LatitudeDegrees>
              <LongitudeDegrees>2.8512859158217906951904296875</LongitudeDegrees>
            </Position>
            <AltitudeMeters>148.8000030517578125</AltitudeMeters>
            <DistanceMeters>11886.945150888</DistanceMeters>
          </Trackpoint>
          <Trackpoint>
            <Time>2020-02-15T09:21:22.000Z</Time>
            <Position>
              <LatitudeDegrees>41.94493803195655345916748046875</LatitudeDegrees>
              <LongitudeDegrees>2.85130745731294155120849609375</LongitudeDegrees>
            </Position>
            <AltitudeMeters>148.8000030517578125</AltitudeMeters>
            <DistanceMeters>11888.816960082</DistanceMeters>
          </Trackpoint>
          <Trackpoint>
            <Time>2020-02-15T09:21:23.000Z</Time>
            <Position>
              <LatitudeDegrees>41.94494021125137805938720703125</LatitudeDegrees>
              <LongitudeDegrees>2.85133176483213901519775390625</LongitudeDegrees>
            </Position>
            <AltitudeMeters>148.8000030517578125</AltitudeMeters>
            <DistanceMeters>11890.846175413</DistanceMeters>
          </Trackpoint>
          <Trackpoint>
            <Time>2020-02-15T09:21:24.000Z</Time>
            <Position>
              <LatitudeDegrees>41.94494180381298065185546875</LatitudeDegrees>
              <LongitudeDegrees>2.85135976038873195648193359375</LongitudeDegrees>
            </Position>
            <AltitudeMeters>149</AltitudeMeters>
            <DistanceMeters>11893.171904501</DistanceMeters>
          </Trackpoint>
          <Trackpoint>
            <Time>2020-02-15T09:21:25.000Z</Time>
            <Position>
              <LatitudeDegrees>41.94494691677391529083251953125</LatitudeDegrees>
              <LongitudeDegrees>2.8513880074024200439453125</LongitudeDegrees>
            </Position>
            <AltitudeMeters>149.600006103515625</AltitudeMeters>
            <DistanceMeters>11895.579664679</DistanceMeters>
          </Trackpoint>
          <Trackpoint>
            <Time>2020-02-15T09:21:26.000Z</Time>
            <Position>
              <LatitudeDegrees>41.94495521485805511474609375</LatitudeDegrees>
              <LongitudeDegrees>2.8514149971306324005126953125</LongitudeDegrees>
            </Position>
            <AltitudeMeters>150</AltitudeMeters>
            <DistanceMeters>11897.994914021</DistanceMeters>
          </Trackpoint>
          <Trackpoint>
            <Time>2020-02-15T09:21:27.000Z</Time>
            <Position>
              <LatitudeDegrees>41.94496016018092632293701171875</LatitudeDegrees>
              <LongitudeDegrees>2.85144324414432048797607421875</LongitudeDegrees>
            </Position>
            <AltitudeMeters>150.1999969482421875</AltitudeMeters>
            <DistanceMeters>11900.398920869</DistanceMeters>
          </Trackpoint>
          <Trackpoint>
            <Time>2020-02-15T09:21:28.000Z</Time>
            <Position>
              <LatitudeDegrees>41.944961249828338623046875</LatitudeDegrees>
              <LongitudeDegrees>2.85147258080542087554931640625</LongitudeDegrees>
            </Position>
            <AltitudeMeters>150.1999969482421875</AltitudeMeters>
            <DistanceMeters>11902.832792301</DistanceMeters>
          </Trackpoint>
          <Trackpoint>
            <Time>2020-02-15T09:21:30.000Z</Time>
            <Position>
              <LatitudeDegrees>41.94496686570346355438232421875</LatitudeDegrees>
              <LongitudeDegrees>2.85153276287019252777099609375</LongitudeDegrees>
            </Position>
            <AltitudeMeters>150.399993896484375</AltitudeMeters>
            <DistanceMeters>11907.854844024</DistanceMeters>
          </Trackpoint>
          <Trackpoint>
            <Time>2020-02-15T09:21:31.000Z</Time>
            <Position>
              <LatitudeDegrees>41.94497264921665191650390625</LatitudeDegrees>
              <LongitudeDegrees>2.85156578756868839263916015625</LongitudeDegrees>
            </Position>
            <AltitudeMeters>150.600006103515625</AltitudeMeters>
            <DistanceMeters>11910.664165439</DistanceMeters>
          </Trackpoint>
          <Trackpoint>
            <Time>2020-02-15T09:21:32.000Z</Time>
            <Position>
              <LatitudeDegrees>41.94497860036790370941162109375</LatitudeDegrees>
              <LongitudeDegrees>2.85159428603947162628173828125</LongitudeDegrees>
            </Position>
            <AltitudeMeters>150.600006103515625</AltitudeMeters>
            <DistanceMeters>11913.112832578</DistanceMeters>
          </Trackpoint>
          <Trackpoint>
            <Time>2020-02-15T09:21:33.000Z</Time>
            <Position>
              <LatitudeDegrees>41.94498337805271148681640625</LatitudeDegrees>
              <LongitudeDegrees>2.8516185097396373748779296875</LongitudeDegrees>
            </Position>
            <AltitudeMeters>150.8000030517578125</AltitudeMeters>
            <DistanceMeters>11915.188247347</DistanceMeters>
          </Trackpoint>
          <Trackpoint>
            <Time>2020-02-15T09:21:34.000Z</Time>
            <Position>
              <LatitudeDegrees>41.94498874247074127197265625</LatitudeDegrees>
              <LongitudeDegrees>2.8516449965536594390869140625</LongitudeDegrees>
            </Position>
            <AltitudeMeters>150.8000030517578125</AltitudeMeters>
            <DistanceMeters>11917.460955803</DistanceMeters>
          </Trackpoint>
          <Trackpoint>
            <Time>2020-02-15T09:21:35.000Z</Time>
            <Position>
              <LatitudeDegrees>41.9449929334223270416259765625</LatitudeDegrees>
              <LongitudeDegrees>2.8516709804534912109375</LongitudeDegrees>
            </Position>
            <AltitudeMeters>151.1999969482421875</AltitudeMeters>
            <DistanceMeters>11919.660983297</DistanceMeters>
          </Trackpoint>
          <Trackpoint>
            <Time>2020-02-15T09:21:36.000Z</Time>
            <Position>
              <LatitudeDegrees>41.94499544799327850341796875</LatitudeDegrees>
              <LongitudeDegrees>2.8517023287713527679443359375</LongitudeDegrees>
            </Position>
            <AltitudeMeters>151.1999969482421875</AltitudeMeters>
            <DistanceMeters>11922.272057351</DistanceMeters>
          </Trackpoint>
          <Trackpoint>
            <Time>2020-02-15T09:21:37.000Z</Time>
            <Position>
              <LatitudeDegrees>41.94500123150646686553955078125</LatitudeDegrees>
              <LongitudeDegrees>2.8517366945743560791015625</LongitudeDegrees>
            </Position>
            <AltitudeMeters>151.1999969482421875</AltitudeMeters>
            <DistanceMeters>11925.188619027</DistanceMeters>
          </Trackpoint>
          <Trackpoint>
            <Time>2020-02-15T09:21:38.000Z</Time>
            <Position>
              <LatitudeDegrees>41.94500491954386234283447265625</LatitudeDegrees>
              <LongitudeDegrees>2.85176494158804416656494140625</LongitudeDegrees>
            </Position>
            <AltitudeMeters>151.1999969482421875</AltitudeMeters>
            <DistanceMeters>11927.562385591</DistanceMeters>
          </Trackpoint>
          <Trackpoint>
            <Time>2020-02-15T09:21:39.000Z</Time>
            <Position>
              <LatitudeDegrees>41.94500751793384552001953125</LatitudeDegrees>
              <LongitudeDegrees>2.851798720657825469970703125</LongitudeDegrees>
            </Position>
            <AltitudeMeters>151.399993896484375</AltitudeMeters>
            <DistanceMeters>11930.374919496</DistanceMeters>
          </Trackpoint>
          <Trackpoint>
            <Time>2020-02-15T09:21:40.000Z</Time>
            <Position>
              <LatitudeDegrees>41.94500961340963840484619140625</LatitudeDegrees>
              <LongitudeDegrees>2.85183283500373363494873046875</LongitudeDegrees>
            </Position>
            <AltitudeMeters>151.600006103515625</AltitudeMeters>
            <DistanceMeters>11933.206651807</DistanceMeters>
          </Trackpoint>
          <Trackpoint>
            <Time>2020-02-15T09:21:41.000Z</Time>
            <Position>
              <LatitudeDegrees>41.94501296617090702056884765625</LatitudeDegrees>
              <LongitudeDegrees>2.8518654406070709228515625</LongitudeDegrees>
            </Position>
            <AltitudeMeters>151.600006103515625</AltitudeMeters>
            <DistanceMeters>11935.931119248</DistanceMeters>
          </Trackpoint>
          <Trackpoint>
            <Time>2020-02-15T09:21:42.000Z</Time>
            <Position>
              <LatitudeDegrees>41.9450157321989536285400390625</LatitudeDegrees>
              <LongitudeDegrees>2.8518977947533130645751953125</LongitudeDegrees>
            </Position>
            <AltitudeMeters>151.8000030517578125</AltitudeMeters>
            <DistanceMeters>11938.625591638</DistanceMeters>
          </Trackpoint>
          <Trackpoint>
            <Time>2020-02-15T09:21:43.000Z</Time>
            <Position>
              <LatitudeDegrees>41.94501648657023906707763671875</LatitudeDegrees>
              <LongitudeDegrees>2.851928807795047760009765625</LongitudeDegrees>
            </Position>
            <AltitudeMeters>152</AltitudeMeters>
            <DistanceMeters>11941.193072077</DistanceMeters>
          </Trackpoint>
          <Trackpoint>
            <Time>2020-02-15T09:21:44.000Z</Time>
            <Position>
              <LatitudeDegrees>41.9450147263705730438232421875</LatitudeDegrees>
              <LongitudeDegrees>2.85195956937968730926513671875</LongitudeDegrees>
            </Position>
            <AltitudeMeters>152.1999969482421875</AltitudeMeters>
            <DistanceMeters>11943.746445373</DistanceMeters>
          </Trackpoint>
          <Trackpoint>
            <Time>2020-02-15T09:21:45.000Z</Time>
            <Position>
              <LatitudeDegrees>41.94501279853284358978271484375</LatitudeDegrees>
              <LongitudeDegrees>2.85199209116399288177490234375</LongitudeDegrees>
            </Position>
            <AltitudeMeters>152.399993896484375</AltitudeMeters>
            <DistanceMeters>11946.447612115</DistanceMeters>
          </Trackpoint>
          <Trackpoint>
            <Time>2020-02-15T09:21:46.000Z</Time>
            <Position>
              <LatitudeDegrees>41.9450103677809238433837890625</LatitudeDegrees>
              <LongitudeDegrees>2.85202176310122013092041015625</LongitudeDegrees>
            </Position>
            <AltitudeMeters>152.399993896484375</AltitudeMeters>
            <DistanceMeters>11948.918306689</DistanceMeters>
          </Trackpoint>
          <Trackpoint>
            <Time>2020-02-15T09:21:47.000Z</Time>
            <Position>
              <LatitudeDegrees>41.94500885903835296630859375</LatitudeDegrees>
              <LongitudeDegrees>2.85205260850489139556884765625</LongitudeDegrees>
            </Position>
            <AltitudeMeters>152.8000030517578125</AltitudeMeters>
            <DistanceMeters>11951.476979279</DistanceMeters>
          </Trackpoint>
          <Trackpoint>
            <Time>2020-02-15T09:21:48.000Z</Time>
            <Position>
              <LatitudeDegrees>41.94500793702900409698486328125</LatitudeDegrees>
              <LongitudeDegrees>2.85207934677600860595703125</LongitudeDegrees>
            </Position>
            <AltitudeMeters>153</AltitudeMeters>
            <DistanceMeters>11953.693364079</DistanceMeters>
          </Trackpoint>
          <Trackpoint>
            <Time>2020-02-15T09:21:49.000Z</Time>
            <Position>
              <LatitudeDegrees>41.94500885903835296630859375</LatitudeDegrees>
              <LongitudeDegrees>2.85211128182709217071533203125</LongitudeDegrees>
            </Position>
            <AltitudeMeters>153</AltitudeMeters>
            <DistanceMeters>11956.337088567</DistanceMeters>
          </Trackpoint>
          <Trackpoint>
            <Time>2020-02-15T09:21:50.000Z</Time>
            <Position>
              <LatitudeDegrees>41.94500726647675037384033203125</LatitudeDegrees>
              <LongitudeDegrees>2.8521408699452877044677734375</LongitudeDegrees>
            </Position>
            <AltitudeMeters>153.1999969482421875</AltitudeMeters>
            <DistanceMeters>11958.793120136</DistanceMeters>
          </Trackpoint>
          <Trackpoint>
            <Time>2020-02-15T09:21:51.000Z</Time>
            <Position>
              <LatitudeDegrees>41.945007182657718658447265625</LatitudeDegrees>
              <LongitudeDegrees>2.85217397846281528472900390625</LongitudeDegrees>
            </Position>
            <AltitudeMeters>153.399993896484375</AltitudeMeters>
            <DistanceMeters>11961.534109665</DistanceMeters>
          </Trackpoint>
          <Trackpoint>
            <Time>2020-02-15T09:21:52.000Z</Time>
            <Position>
              <LatitudeDegrees>41.9450093619525432586669921875</LatitudeDegrees>
              <LongitudeDegrees>2.852209098637104034423828125</LongitudeDegrees>
            </Position>
            <AltitudeMeters>153.8000030517578125</AltitudeMeters>
            <DistanceMeters>11964.450671341</DistanceMeters>
          </Trackpoint>
          <Trackpoint>
            <Time>2020-02-15T09:21:53.000Z</Time>
            <Position>
              <LatitudeDegrees>41.9450100325047969818115234375</LatitudeDegrees>
              <LongitudeDegrees>2.85224572755396366119384765625</LongitudeDegrees>
            </Position>
            <AltitudeMeters>153.8000030517578125</AltitudeMeters>
            <DistanceMeters>11967.482604358</DistanceMeters>
          </Trackpoint>
          <Trackpoint>
            <Time>2020-02-15T09:21:54.000Z</Time>
            <Position>
              <LatitudeDegrees>41.945007853209972381591796875</LatitudeDegrees>
              <LongitudeDegrees>2.852278836071491241455078125</LongitudeDegrees>
            </Position>
            <AltitudeMeters>154</AltitudeMeters>
            <DistanceMeters>11970.233459509</DistanceMeters>
          </Trackpoint>
          <Trackpoint>
            <Time>2020-02-15T09:21:55.000Z</Time>
            <Position>
              <LatitudeDegrees>41.94500760175287723541259765625</LatitudeDegrees>
              <LongitudeDegrees>2.85231211222708225250244140625</LongitudeDegrees>
            </Position>
            <AltitudeMeters>154.1999969482421875</AltitudeMeters>
            <DistanceMeters>11972.987595347</DistanceMeters>
          </Trackpoint>
          <Trackpoint>
            <Time>2020-02-15T09:21:56.000Z</Time>
            <Position>
              <LatitudeDegrees>41.94501112215220928192138671875</LatitudeDegrees>
              <LongitudeDegrees>2.8523410297930240631103515625</LongitudeDegrees>
            </Position>
            <AltitudeMeters>154.1999969482421875</AltitudeMeters>
            <DistanceMeters>11975.412173612</DistanceMeters>
          </Trackpoint>
          <Trackpoint>
            <Time>2020-02-15T09:21:57.000Z</Time>
            <Position>
              <LatitudeDegrees>41.9450123794376850128173828125</LatitudeDegrees>
              <LongitudeDegrees>2.85237036645412445068359375</LongitudeDegrees>
            </Position>
            <AltitudeMeters>154.399993896484375</AltitudeMeters>
            <DistanceMeters>11977.842332042</DistanceMeters>
          </Trackpoint>
          <Trackpoint>
            <Time>2020-02-15T09:21:58.000Z</Time>
            <Position>
              <LatitudeDegrees>41.94501162506639957427978515625</LatitudeDegrees>
              <LongitudeDegrees>2.85240096040070056915283203125</LongitudeDegrees>
            </Position>
            <AltitudeMeters>154.600006103515625</AltitudeMeters>
            <DistanceMeters>11980.374397261</DistanceMeters>
          </Trackpoint>
          <Trackpoint>
            <Time>2020-02-15T09:21:59.000Z</Time>
            <Position>
              <LatitudeDegrees>41.94501212798058986663818359375</LatitudeDegrees>
              <LongitudeDegrees>2.85243364982306957244873046875</LongitudeDegrees>
            </Position>
            <AltitudeMeters>154.600006103515625</AltitudeMeters>
            <DistanceMeters>11983.078904965</DistanceMeters>
          </Trackpoint>
          <Trackpoint>
            <Time>2020-02-15T09:22:00.000Z</Time>
            <Position>
              <LatitudeDegrees>41.945017240941524505615234375</LatitudeDegrees>
              <LongitudeDegrees>2.8524680994451045989990234375</LongitudeDegrees>
            </Position>
            <AltitudeMeters>154.8000030517578125</AltitudeMeters>
            <DistanceMeters>11985.987715999</DistanceMeters>
          </Trackpoint>
          <Trackpoint>
            <Time>2020-02-15T09:22:01.000Z</Time>
            <Position>
              <LatitudeDegrees>41.94502201862633228302001953125</LatitudeDegrees>
              <LongitudeDegrees>2.8525029681622982025146484375</LongitudeDegrees>
            </Position>
            <AltitudeMeters>155</AltitudeMeters>
            <DistanceMeters>11988.922795713</DistanceMeters>
          </Trackpoint>
          <Trackpoint>
            <Time>2020-02-15T09:22:04.000Z</Time>
            <Position>
              <LatitudeDegrees>41.9450479187071323394775390625</LatitudeDegrees>
              <LongitudeDegrees>2.8526263497769832611083984375</LongitudeDegrees>
            </Position>
            <AltitudeMeters>155.399993896484375</AltitudeMeters>
            <DistanceMeters>11999.536050329</DistanceMeters>
          </Trackpoint>
          <Trackpoint>
            <Time>2020-02-15T09:22:05.000Z</Time>
            <Position>
              <LatitudeDegrees>41.94505822844803333282470703125</LatitudeDegrees>
              <LongitudeDegrees>2.8526652418076992034912109375</LongitudeDegrees>
            </Position>
            <AltitudeMeters>155.600006103515625</AltitudeMeters>
            <DistanceMeters>12002.954371397</DistanceMeters>
          </Trackpoint>
          <Trackpoint>
            <Time>2020-02-15T09:22:08.000Z</Time>
            <Position>
              <LatitudeDegrees>41.945090331137180328369140625</LatitudeDegrees>
              <LongitudeDegrees>2.85277747549116611480712890625</LongitudeDegrees>
            </Position>
            <AltitudeMeters>156</AltitudeMeters>
            <DistanceMeters>12012.909071738</DistanceMeters>
          </Trackpoint>
          <Trackpoint>
            <Time>2020-02-15T09:22:09.000Z</Time>
            <Position>
              <LatitudeDegrees>41.9451002217829227447509765625</LatitudeDegrees>
              <LongitudeDegrees>2.852810584008693695068359375</LongitudeDegrees>
            </Position>
            <AltitudeMeters>156</AltitudeMeters>
            <DistanceMeters>12015.862553386</DistanceMeters>
          </Trackpoint>
          <Trackpoint>
            <Time>2020-02-15T09:22:10.000Z</Time>
            <Position>
              <LatitudeDegrees>41.94511136971414089202880859375</LatitudeDegrees>
              <LongitudeDegrees>2.852837406098842620849609375</LongitudeDegrees>
            </Position>
            <AltitudeMeters>156</AltitudeMeters>
            <DistanceMeters>12018.405294965</DistanceMeters>
          </Trackpoint>
          <Trackpoint>
            <Time>2020-02-15T09:22:11.000Z</Time>
            <Position>
              <LatitudeDegrees>41.9451267085969448089599609375</LatitudeDegrees>
              <LongitudeDegrees>2.85285827703773975372314453125</LongitudeDegrees>
            </Position>
            <AltitudeMeters>156.1999969482421875</AltitudeMeters>
            <DistanceMeters>12020.833594765</DistanceMeters>
          </Trackpoint>
          <Trackpoint>
            <Time>2020-02-15T09:22:12.000Z</Time>
            <Position>
              <LatitudeDegrees>41.94514573551714420318603515625</LatitudeDegrees>
              <LongitudeDegrees>2.8528804890811443328857421875</LongitudeDegrees>
            </Position>
            <AltitudeMeters>156.1999969482421875</AltitudeMeters>
            <DistanceMeters>12023.639700012</DistanceMeters>
          </Trackpoint>
          <Trackpoint>
            <Time>2020-02-15T09:22:13.000Z</Time>
            <Position>
              <LatitudeDegrees>41.9451635889708995819091796875</LatitudeDegrees>
              <LongitudeDegrees>2.85290085710585117340087890625</LongitudeDegrees>
            </Position>
            <AltitudeMeters>156.1999969482421875</AltitudeMeters>
            <DistanceMeters>12026.245581338</DistanceMeters>
          </Trackpoint>
          <Trackpoint>
            <Time>2020-02-15T09:22:14.000Z</Time>
            <Position>
              <LatitudeDegrees>41.94518052041530609130859375</LatitudeDegrees>
              <LongitudeDegrees>2.85291845910251140594482421875</LongitudeDegrees>
            </Position>
            <AltitudeMeters>156.399993896484375</AltitudeMeters>
            <DistanceMeters>12028.626943975</DistanceMeters>
          </Trackpoint>
          <Trackpoint>
            <Time>2020-02-15T09:22:15.000Z</Time>
            <Position>
              <LatitudeDegrees>41.94519736804068088531494140625</LatitudeDegrees>
              <LongitudeDegrees>2.8529356420040130615234375</LongitudeDegrees>
            </Position>
            <AltitudeMeters>156.399993896484375</AltitudeMeters>
            <DistanceMeters>12030.981613152</DistanceMeters>
          </Trackpoint>
          <Trackpoint>
            <Time>2020-02-15T09:22:16.000Z</Time>
            <Position>
              <LatitudeDegrees>41.94521605968475341796875</LatitudeDegrees>
              <LongitudeDegrees>2.85295399837195873260498046875</LongitudeDegrees>
            </Position>
            <AltitudeMeters>156.399993896484375</AltitudeMeters>
            <DistanceMeters>12033.557871328</DistanceMeters>
          </Trackpoint>
          <Trackpoint>
            <Time>2020-02-15T09:22:17.000Z</Time>
            <Position>
              <LatitudeDegrees>41.94523550570011138916015625</LatitudeDegrees>
              <LongitudeDegrees>2.85297126509249210357666015625</LongitudeDegrees>
            </Position>
            <AltitudeMeters>156.8000030517578125</AltitudeMeters>
            <DistanceMeters>12036.153336031</DistanceMeters>
          </Trackpoint>
          <Trackpoint>
            <Time>2020-02-15T09:22:18.000Z</Time>
            <Position>
              <LatitudeDegrees>41.94525268860161304473876953125</LatitudeDegrees>
              <LongitudeDegrees>2.85298618488013744354248046875</LongitudeDegrees>
            </Position>
            <AltitudeMeters>156.8000030517578125</AltitudeMeters>
            <DistanceMeters>12038.430014287</DistanceMeters>
          </Trackpoint>
          <Trackpoint>
            <Time>2020-02-15T09:22:19.000Z</Time>
            <Position>
              <LatitudeDegrees>41.94526903331279754638671875</LatitudeDegrees>
              <LongitudeDegrees>2.8529998473823070526123046875</LongitudeDegrees>
            </Position>
            <AltitudeMeters>157</AltitudeMeters>
            <DistanceMeters>12040.573914683</DistanceMeters>
          </Trackpoint>
          <Trackpoint>
            <Time>2020-02-15T09:22:20.000Z</Time>
            <Position>
              <LatitudeDegrees>41.945284120738506317138671875</LatitudeDegrees>
              <LongitudeDegrees>2.853013090789318084716796875</LongitudeDegrees>
            </Position>
            <AltitudeMeters>157</AltitudeMeters>
            <DistanceMeters>12042.576251803</DistanceMeters>
          </Trackpoint>
          <Trackpoint>
            <Time>2020-02-15T09:22:21.000Z</Time>
            <Position>
              <LatitudeDegrees>41.94529987871646881103515625</LatitudeDegrees>
              <LongitudeDegrees>2.8530213050544261932373046875</LongitudeDegrees>
            </Position>
            <AltitudeMeters>157</AltitudeMeters>
            <DistanceMeters>12044.455283439</DistanceMeters>
          </Trackpoint>
          <Trackpoint>
            <Time>2020-02-15T09:22:22.000Z</Time>
            <Position>
              <LatitudeDegrees>41.945318318903446197509765625</LatitudeDegrees>
              <LongitudeDegrees>2.853026501834392547607421875</LongitudeDegrees>
            </Position>
            <AltitudeMeters>157.1999969482421875</AltitudeMeters>
            <DistanceMeters>12046.550186098</DistanceMeters>
          </Trackpoint>
          <Trackpoint>
            <Time>2020-02-15T09:22:23.000Z</Time>
            <Position>
              <LatitudeDegrees>41.945336423814296722412109375</LatitudeDegrees>
              <LongitudeDegrees>2.85303379409015178680419921875</LongitudeDegrees>
            </Position>
            <AltitudeMeters>157.1999969482421875</AltitudeMeters>
            <DistanceMeters>12048.65369209</DistanceMeters>
          </Trackpoint>
          <Trackpoint>
            <Time>2020-02-15T09:22:24.000Z</Time>
            <Position>
              <LatitudeDegrees>41.94535176269710063934326171875</LatitudeDegrees>
              <LongitudeDegrees>2.8530417568981647491455078125</LongitudeDegrees>
            </Position>
            <AltitudeMeters>157.600006103515625</AltitudeMeters>
            <DistanceMeters>12050.481567437</DistanceMeters>
          </Trackpoint>
          <Trackpoint>
            <Time>2020-02-15T09:22:25.000Z</Time>
            <Position>
              <LatitudeDegrees>41.9453667663037776947021484375</LatitudeDegrees>
              <LongitudeDegrees>2.85304804332554340362548828125</LongitudeDegrees>
            </Position>
            <AltitudeMeters>157.600006103515625</AltitudeMeters>
            <DistanceMeters>12052.231194802</DistanceMeters>
          </Trackpoint>
          <Trackpoint>
            <Time>2020-02-15T09:22:26.000Z</Time>
            <Position>
              <LatitudeDegrees>41.94537757895886898040771484375</LatitudeDegrees>
              <LongitudeDegrees>2.85305525176227092742919921875</LongitudeDegrees>
            </Position>
            <AltitudeMeters>158</AltitudeMeters>
            <DistanceMeters>12053.575075484</DistanceMeters>
          </Trackpoint>
          <Trackpoint>
            <Time>2020-02-15T09:22:27.000Z</Time>
            <Position>
              <LatitudeDegrees>41.945387385785579681396484375</LatitudeDegrees>
              <LongitudeDegrees>2.8530588559806346893310546875</LongitudeDegrees>
            </Position>
            <AltitudeMeters>158</AltitudeMeters>
            <DistanceMeters>12054.703455198</DistanceMeters>
          </Trackpoint>
          <Trackpoint>
            <Time>2020-02-15T09:22:28.000Z</Time>
            <Position>
              <LatitudeDegrees>41.9454026408493518829345703125</LatitudeDegrees>
              <LongitudeDegrees>2.85306547768414020538330078125</LongitudeDegrees>
            </Position>
            <AltitudeMeters>158.1999969482421875</AltitudeMeters>
            <DistanceMeters>12056.486314393</DistanceMeters>
          </Trackpoint>
          <Trackpoint>
            <Time>2020-02-15T09:22:29.000Z</Time>
            <Position>
              <LatitudeDegrees>41.945418901741504669189453125</LatitudeDegrees>
              <LongitudeDegrees>2.85307737998664379119873046875</LongitudeDegrees>
            </Position>
            <AltitudeMeters>158.399993896484375</AltitudeMeters>
            <DistanceMeters>12058.546444468</DistanceMeters>
          </Trackpoint>
          <Trackpoint>
            <Time>2020-02-15T09:22:30.000Z</Time>
            <Position>
              <LatitudeDegrees>41.94543474353849887847900390625</LatitudeDegrees>
              <LongitudeDegrees>2.853089869022369384765625</LongitudeDegrees>
            </Position>
            <AltitudeMeters>158.600006103515625</AltitudeMeters>
            <DistanceMeters>12060.588966272</DistanceMeters>
          </Trackpoint>
          <Trackpoint>
            <Time>2020-02-15T09:22:31.000Z</Time>
            <Position>
              <LatitudeDegrees>41.94544983096420764923095703125</LatitudeDegrees>
              <LongitudeDegrees>2.85310286097228527069091796875</LongitudeDegrees>
            </Position>
            <AltitudeMeters>158.8000030517578125</AltitudeMeters>
            <DistanceMeters>12062.582263449</DistanceMeters>
          </Trackpoint>
          <Trackpoint>
            <Time>2020-02-15T09:22:32.000Z</Time>
            <Position>
              <LatitudeDegrees>41.94546575658023357391357421875</LatitudeDegrees>
              <LongitudeDegrees>2.853116355836391448974609375</LongitudeDegrees>
            </Position>
            <AltitudeMeters>159.1999969482421875</AltitudeMeters>
            <DistanceMeters>12064.677166108</DistanceMeters>
          </Trackpoint>
          <Trackpoint>
            <Time>2020-02-15T09:22:33.000Z</Time>
            <Position>
              <LatitudeDegrees>41.9454800896346569061279296875</LatitudeDegrees>
              <LongitudeDegrees>2.8531292639672756195068359375</LongitudeDegrees>
            </Position>
            <AltitudeMeters>159.1999969482421875</AltitudeMeters>
            <DistanceMeters>12066.601310422</DistanceMeters>
          </Trackpoint>
          <Trackpoint>
            <Time>2020-02-15T09:22:34.000Z</Time>
            <Position>
              <LatitudeDegrees>41.94549391977488994598388671875</LatitudeDegrees>
              <LongitudeDegrees>2.8531409986317157745361328125</LongitudeDegrees>
            </Position>
            <AltitudeMeters>159.600006103515625</AltitudeMeters>
            <DistanceMeters>12068.424238871</DistanceMeters>
          </Trackpoint>
          <Trackpoint>
            <Time>2020-02-15T09:22:35.000Z</Time>
            <Position>
              <LatitudeDegrees>41.945508085191249847412109375</LatitudeDegrees>
              <LongitudeDegrees>2.85315549932420253753662109375</LongitudeDegrees>
            </Position>
            <AltitudeMeters>160</AltitudeMeters>
            <DistanceMeters>12070.403898735</DistanceMeters>
          </Trackpoint>
          <Trackpoint>
            <Time>2020-02-15T09:22:36.000Z</Time>
            <Position>
              <LatitudeDegrees>41.94552359171211719512939453125</LatitudeDegrees>
              <LongitudeDegrees>2.853172682225704193115234375</LongitudeDegrees>
            </Position>
            <AltitudeMeters>160</AltitudeMeters>
            <DistanceMeters>12072.640561953</DistanceMeters>
          </Trackpoint>
          <Trackpoint>
            <Time>2020-02-15T09:22:37.000Z</Time>
            <Position>
              <LatitudeDegrees>41.94554018788039684295654296875</LatitudeDegrees>
              <LongitudeDegrees>2.85318835638463497161865234375</LongitudeDegrees>
            </Position>
            <AltitudeMeters>160.600006103515625</AltitudeMeters>
            <DistanceMeters>12074.897321381</DistanceMeters>
          </Trackpoint>
          <Trackpoint>
            <Time>2020-02-15T09:22:38.000Z</Time>
            <Position>
              <LatitudeDegrees>41.945557706058025360107421875</LatitudeDegrees>
              <LongitudeDegrees>2.85320227034389972686767578125</LongitudeDegrees>
            </Position>
            <AltitudeMeters>161</AltitudeMeters>
            <DistanceMeters>12077.160074868</DistanceMeters>
          </Trackpoint>
          <Trackpoint>
            <Time>2020-02-15T09:22:39.000Z</Time>
            <Position>
              <LatitudeDegrees>41.9455729611217975616455078125</LatitudeDegrees>
              <LongitudeDegrees>2.85321601666510105133056640625</LongitudeDegrees>
            </Position>
            <AltitudeMeters>161.1999969482421875</AltitudeMeters>
            <DistanceMeters>12079.202596671</DistanceMeters>
          </Trackpoint>
          <Trackpoint>
            <Time>2020-02-15T09:22:40.000Z</Time>
            <Position>
              <LatitudeDegrees>41.9455867074429988861083984375</LatitudeDegrees>
              <LongitudeDegrees>2.85323001444339752197265625</LongitudeDegrees>
            </Position>
            <AltitudeMeters>161.8000030517578125</AltitudeMeters>
            <DistanceMeters>12081.122042213</DistanceMeters>
          </Trackpoint>
          <Trackpoint>
            <Time>2020-02-15T09:22:41.000Z</Time>
            <Position>
              <LatitudeDegrees>41.9456009566783905029296875</LatitudeDegrees>
              <LongitudeDegrees>2.8532435931265354156494140625</LongitudeDegrees>
            </Position>
            <AltitudeMeters>161.8000030517578125</AltitudeMeters>
            <DistanceMeters>12083.064867978</DistanceMeters>
          </Trackpoint>
          <Trackpoint>
            <Time>2020-02-15T09:22:42.000Z</Time>
            <Position>
              <LatitudeDegrees>41.94561369717121124267578125</LatitudeDegrees>
              <LongitudeDegrees>2.85325742326676845550537109375</LongitudeDegrees>
            </Position>
            <AltitudeMeters>162.399993896484375</AltitudeMeters>
            <DistanceMeters>12084.887796428</DistanceMeters>
          </Trackpoint>
          <Trackpoint>
            <Time>2020-02-15T09:22:43.000Z</Time>
            <Position>
              <LatitudeDegrees>41.945624761283397674560546875</LatitudeDegrees>
              <LongitudeDegrees>2.8532727621495723724365234375</LongitudeDegrees>
            </Position>
            <AltitudeMeters>162.8000030517578125</AltitudeMeters>
            <DistanceMeters>12086.657947982</DistanceMeters>
          </Trackpoint>
          <Trackpoint>
            <Time>2020-02-15T09:22:44.000Z</Time>
            <Position>
              <LatitudeDegrees>41.945636160671710968017578125</LatitudeDegrees>
              <LongitudeDegrees>2.85328768193721771240234375</LongitudeDegrees>
            </Position>
            <AltitudeMeters>163</AltitudeMeters>
            <DistanceMeters>12088.430648353</DistanceMeters>
          </Trackpoint>
          <Trackpoint>
            <Time>2020-02-15T09:22:45.000Z</Time>
            <Position>
              <LatitudeDegrees>41.945648901164531707763671875</LatitudeDegrees>
              <LongitudeDegrees>2.85330184735357761383056640625</LongitudeDegrees>
            </Position>
            <AltitudeMeters>163.1999969482421875</AltitudeMeters>
            <DistanceMeters>12090.268377546</DistanceMeters>
          </Trackpoint>
          <Trackpoint>
            <Time>2020-02-15T09:22:46.000Z</Time>
            <Position>
              <LatitudeDegrees>41.94566440768539905548095703125</LatitudeDegrees>
              <LongitudeDegrees>2.85331794060766696929931640625</LongitudeDegrees>
            </Position>
            <AltitudeMeters>163.600006103515625</AltitudeMeters>
            <DistanceMeters>12092.445713105</DistanceMeters>
          </Trackpoint>
          <Trackpoint>
            <Time>2020-02-15T09:22:47.000Z</Time>
            <Position>
              <LatitudeDegrees>41.94568050093948841094970703125</LatitudeDegrees>
              <LongitudeDegrees>2.8533344529569149017333984375</LongitudeDegrees>
            </Position>
            <AltitudeMeters>164</AltitudeMeters>
            <DistanceMeters>12094.700470971</DistanceMeters>
          </Trackpoint>
          <Trackpoint>
            <Time>2020-02-15T09:22:48.000Z</Time>
            <Position>
              <LatitudeDegrees>41.945696510374546051025390625</LatitudeDegrees>
              <LongitudeDegrees>2.853349037468433380126953125</LongitudeDegrees>
            </Position>
            <AltitudeMeters>164.399993896484375</AltitudeMeters>
            <DistanceMeters>12096.852778853</DistanceMeters>
          </Trackpoint>
          <Trackpoint>
            <Time>2020-02-15T09:22:49.000Z</Time>
            <Position>
              <LatitudeDegrees>41.945711933076381683349609375</LatitudeDegrees>
              <LongitudeDegrees>2.8533619455993175506591796875</LongitudeDegrees>
            </Position>
            <AltitudeMeters>164.600006103515625</AltitudeMeters>
            <DistanceMeters>12098.873074512</DistanceMeters>
          </Trackpoint>
          <Trackpoint>
            <Time>2020-02-15T09:22:50.000Z</Time>
            <Position>
              <LatitudeDegrees>41.9457265175879001617431640625</LatitudeDegrees>
              <LongitudeDegrees>2.8533755242824554443359375</LongitudeDegrees>
            </Position>
            <AltitudeMeters>165.1999969482421875</AltitudeMeters>
            <DistanceMeters>12100.843590402</DistanceMeters>
          </Trackpoint>
          <Trackpoint>
            <Time>2020-02-15T09:22:51.000Z</Time>
            <Position>
              <LatitudeDegrees>41.945740766823291778564453125</LatitudeDegrees>
              <LongitudeDegrees>2.85338901914656162261962890625</LongitudeDegrees>
            </Position>
            <AltitudeMeters>165.399993896484375</AltitudeMeters>
            <DistanceMeters>12102.781762686</DistanceMeters>
          </Trackpoint>
          <Trackpoint>
            <Time>2020-02-15T09:22:52.000Z</Time>
            <Position>
              <LatitudeDegrees>41.94575526751577854156494140625</LatitudeDegrees>
              <LongitudeDegrees>2.853403352200984954833984375</LongitudeDegrees>
            </Position>
            <AltitudeMeters>165.600006103515625</AltitudeMeters>
            <DistanceMeters>12104.784099805</DistanceMeters>
          </Trackpoint>
          <Trackpoint>
            <Time>2020-02-15T09:22:53.000Z</Time>
            <Position>
              <LatitudeDegrees>41.94576918147504329681396484375</LatitudeDegrees>
              <LongitudeDegrees>2.853414081037044525146484375</LongitudeDegrees>
            </Position>
            <AltitudeMeters>165.600006103515625</AltitudeMeters>
            <DistanceMeters>12106.566959</DistanceMeters>
          </Trackpoint>
          <Trackpoint>
            <Time>2020-02-15T09:22:54.000Z</Time>
            <Position>
              <LatitudeDegrees>41.945785693824291229248046875</LatitudeDegrees>
              <LongitudeDegrees>2.85342573188245296478271484375</LongitudeDegrees>
            </Position>
            <AltitudeMeters>166</AltitudeMeters>
            <DistanceMeters>12108.640197141</DistanceMeters>
          </Trackpoint>
          <Trackpoint>
            <Time>2020-02-15T09:22:55.000Z</Time>
            <Position>
              <LatitudeDegrees>41.9458021223545074462890625</LatitudeDegrees>
              <LongitudeDegrees>2.85343696363270282745361328125</LongitudeDegrees>
            </Position>
            <AltitudeMeters>166.600006103515625</AltitudeMeters>
            <DistanceMeters>12110.691541973</DistanceMeters>
          </Trackpoint>
          <Trackpoint>
            <Time>2020-02-15T09:22:56.000Z</Time>
            <Position>
              <LatitudeDegrees>41.9458167068660259246826171875</LatitudeDegrees>
              <LongitudeDegrees>2.85344995558261871337890625</LongitudeDegrees>
            </Position>
            <AltitudeMeters>166.8000030517578125</AltitudeMeters>
            <DistanceMeters>12112.6390101</DistanceMeters>
          </Trackpoint>
          <Trackpoint>
            <Time>2020-02-15T09:22:57.000Z</Time>
            <Position>
              <LatitudeDegrees>41.94582961499691009521484375</LatitudeDegrees>
              <LongitudeDegrees>2.85346328280866146087646484375</LongitudeDegrees>
            </Position>
            <AltitudeMeters>167.1999969482421875</AltitudeMeters>
            <DistanceMeters>12114.452004261</DistanceMeters>
          </Trackpoint>
          <Trackpoint>
            <Time>2020-02-15T09:22:58.000Z</Time>
            <Position>
              <LatitudeDegrees>41.94584344513714313507080078125</LatitudeDegrees>
              <LongitudeDegrees>2.8534749336540699005126953125</LongitudeDegrees>
            </Position>
            <AltitudeMeters>167.8000030517578125</AltitudeMeters>
            <DistanceMeters>12116.269972351</DistanceMeters>
          </Trackpoint>
          <Trackpoint>
            <Time>2020-02-15T09:22:59.000Z</Time>
            <Position>
              <LatitudeDegrees>41.94585970602929592132568359375</LatitudeDegrees>
              <LongitudeDegrees>2.853487171232700347900390625</LongitudeDegrees>
            </Position>
            <AltitudeMeters>168.1999969482421875</AltitudeMeters>
            <DistanceMeters>12118.345387121</DistanceMeters>
          </Trackpoint>
          <Trackpoint>
            <Time>2020-02-15T09:23:00.000Z</Time>
            <Position>
              <LatitudeDegrees>41.94587613455951213836669921875</LatitudeDegrees>
              <LongitudeDegrees>2.85349999554455280303955078125</LongitudeDegrees>
            </Position>
            <AltitudeMeters>168.1999969482421875</AltitudeMeters>
            <DistanceMeters>12120.461732536</DistanceMeters>
          </Trackpoint>
          <Trackpoint>
            <Time>2020-02-15T09:23:01.000Z</Time>
            <Position>
              <LatitudeDegrees>41.94589390419423580169677734375</LatitudeDegrees>
              <LongitudeDegrees>2.8535084612667560577392578125</LongitudeDegrees>
            </Position>
            <AltitudeMeters>168.8000030517578125</AltitudeMeters>
            <DistanceMeters>12122.560941269</DistanceMeters>
          </Trackpoint>
          <Trackpoint>
            <Time>2020-02-15T09:23:02.000Z</Time>
            <Position>
              <LatitudeDegrees>41.94591083563864231109619140625</LatitudeDegrees>
              <LongitudeDegrees>2.853516004979610443115234375</LongitudeDegrees>
            </Position>
            <AltitudeMeters>168.8000030517578125</AltitudeMeters>
            <DistanceMeters>12124.547431492</DistanceMeters>
          </Trackpoint>
          <Trackpoint>
            <Time>2020-02-15T09:23:03.000Z</Time>
            <Position>
              <LatitudeDegrees>41.94592483341693878173828125</LatitudeDegrees>
              <LongitudeDegrees>2.85352371633052825927734375</LongitudeDegrees>
            </Position>
            <AltitudeMeters>169.1999969482421875</AltitudeMeters>
            <DistanceMeters>12126.23130916</DistanceMeters>
          </Trackpoint>
          <Trackpoint>
            <Time>2020-02-15T09:23:04.000Z</Time>
            <Position>
              <LatitudeDegrees>41.9459397532045841217041015625</LatitudeDegrees>
              <LongitudeDegrees>2.853530086576938629150390625</LongitudeDegrees>
            </Position>
            <AltitudeMeters>169.8000030517578125</AltitudeMeters>
            <DistanceMeters>12127.973177607</DistanceMeters>
          </Trackpoint>
          <Trackpoint>
            <Time>2020-02-15T09:23:05.000Z</Time>
            <Position>
              <LatitudeDegrees>41.945957355201244354248046875</LatitudeDegrees>
              <LongitudeDegrees>2.8535393066704273223876953125</LongitudeDegrees>
            </Position>
            <AltitudeMeters>169.8000030517578125</AltitudeMeters>
            <DistanceMeters>12130.076683599</DistanceMeters>
          </Trackpoint>
          <Trackpoint>
            <Time>2020-02-15T09:23:06.000Z</Time>
            <Position>
              <LatitudeDegrees>41.94597579538822174072265625</LatitudeDegrees>
              <LongitudeDegrees>2.8535503707826137542724609375</LongitudeDegrees>
            </Position>
            <AltitudeMeters>170</AltitudeMeters>
            <DistanceMeters>12132.323417391</DistanceMeters>
          </Trackpoint>
          <Trackpoint>
            <Time>2020-02-15T09:23:07.000Z</Time>
            <Position>
              <LatitudeDegrees>41.94599448703229427337646484375</LatitudeDegrees>
              <LongitudeDegrees>2.8535590879619121551513671875</LongitudeDegrees>
            </Position>
            <AltitudeMeters>170.399993896484375</AltitudeMeters>
            <DistanceMeters>12134.527545592</DistanceMeters>
          </Trackpoint>
          <Trackpoint>
            <Time>2020-02-15T09:23:08.000Z</Time>
            <Position>
              <LatitudeDegrees>41.94601225666701793670654296875</LatitudeDegrees>
              <LongitudeDegrees>2.85356663167476654052734375</LongitudeDegrees>
            </Position>
            <AltitudeMeters>170.8000030517578125</AltitudeMeters>
            <DistanceMeters>12136.600783732</DistanceMeters>
          </Trackpoint>
          <Trackpoint>
            <Time>2020-02-15T09:23:09.000Z</Time>
            <Position>
              <LatitudeDegrees>41.94603220559656620025634765625</LatitudeDegrees>
              <LongitudeDegrees>2.85357308574020862579345703125</LongitudeDegrees>
            </Position>
            <AltitudeMeters>171.1999969482421875</AltitudeMeters>
            <DistanceMeters>12138.885380893</DistanceMeters>
          </Trackpoint>
          <Trackpoint>
            <Time>2020-02-15T09:23:10.000Z</Time>
            <Position>
              <LatitudeDegrees>41.94605265744030475616455078125</LatitudeDegrees>
              <LongitudeDegrees>2.85358096472918987274169921875</LongitudeDegrees>
            </Position>
            <AltitudeMeters>171.399993896484375</AltitudeMeters>
            <DistanceMeters>12141.251526999</DistanceMeters>
          </Trackpoint>
          <Trackpoint>
            <Time>2020-02-15T09:23:11.000Z</Time>
            <Position>
              <LatitudeDegrees>41.94607160054147243499755859375</LatitudeDegrees>
              <LongitudeDegrees>2.85359068773686885833740234375</LongitudeDegrees>
            </Position>
            <AltitudeMeters>172</AltitudeMeters>
            <DistanceMeters>12143.508286426</DistanceMeters>
          </Trackpoint>
          <Trackpoint>
            <Time>2020-02-15T09:23:12.000Z</Time>
            <Position>
              <LatitudeDegrees>41.9460909627377986907958984375</LatitudeDegrees>
              <LongitudeDegrees>2.85359856672585010528564453125</LongitudeDegrees>
            </Position>
            <AltitudeMeters>172.1999969482421875</AltitudeMeters>
            <DistanceMeters>12145.761040954</DistanceMeters>
          </Trackpoint>
          <Trackpoint>
            <Time>2020-02-15T09:23:13.000Z</Time>
            <Position>
              <LatitudeDegrees>41.94610948674380779266357421875</LatitudeDegrees>
              <LongitudeDegrees>2.8536070324480533599853515625</LongitudeDegrees>
            </Position>
            <AltitudeMeters>172.399993896484375</AltitudeMeters>
            <DistanceMeters>12147.938376512</DistanceMeters>
          </Trackpoint>
          <Trackpoint>
            <Time>2020-02-15T09:23:14.000Z</Time>
            <Position>
              <LatitudeDegrees>41.946127004921436309814453125</LatitudeDegrees>
              <LongitudeDegrees>2.8536169230937957763671875</LongitudeDegrees>
            </Position>
            <AltitudeMeters>172.8000030517578125</AltitudeMeters>
            <DistanceMeters>12150.050450792</DistanceMeters>
          </Trackpoint>
          <Trackpoint>
            <Time>2020-02-15T09:23:15.000Z</Time>
            <Position>
              <LatitudeDegrees>41.94614619947969913482666015625</LatitudeDegrees>
              <LongitudeDegrees>2.8536222875118255615234375</LongitudeDegrees>
            </Position>
            <AltitudeMeters>173.1999969482421875</AltitudeMeters>
            <DistanceMeters>12152.229859017</DistanceMeters>
          </Trackpoint>
          <Trackpoint>
            <Time>2020-02-15T09:23:16.000Z</Time>
            <Position>
              <LatitudeDegrees>41.946165896952152252197265625</LatitudeDegrees>
              <LongitudeDegrees>2.85362706519663333892822265625</LongitudeDegrees>
            </Position>
            <AltitudeMeters>173.399993896484375</AltitudeMeters>
            <DistanceMeters>12154.456406112</DistanceMeters>
          </Trackpoint>
          <Trackpoint>
            <Time>2020-02-15T09:23:17.000Z</Time>
            <Position>
              <LatitudeDegrees>41.94618509151041507720947265625</LatitudeDegrees>
              <LongitudeDegrees>2.85363259725272655487060546875</LongitudeDegrees>
            </Position>
            <AltitudeMeters>173.399993896484375</AltitudeMeters>
            <DistanceMeters>12156.642020542</DistanceMeters>
          </Trackpoint>
          <Trackpoint>
            <Time>2020-02-15T09:23:18.000Z</Time>
            <Position>
              <LatitudeDegrees>41.94620487280189990997314453125</LatitudeDegrees>
              <LongitudeDegrees>2.85363896749913692474365234375</LongitudeDegrees>
            </Position>
            <AltitudeMeters>173.8000030517578125</AltitudeMeters>
            <DistanceMeters>12158.906768524</DistanceMeters>
          </Trackpoint>
          <Trackpoint>
            <Time>2020-02-15T09:23:19.000Z</Time>
            <Position>
              <LatitudeDegrees>41.94622448645532131195068359375</LatitudeDegrees>
              <LongitudeDegrees>2.85364701412618160247802734375</LongitudeDegrees>
            </Position>
            <AltitudeMeters>174.399993896484375</AltitudeMeters>
            <DistanceMeters>12161.187409669</DistanceMeters>
          </Trackpoint>
          <Trackpoint>
            <Time>2020-02-15T09:23:20.000Z</Time>
            <Position>
              <LatitudeDegrees>41.94624242372810840606689453125</LatitudeDegrees>
              <LongitudeDegrees>2.85365422256290912628173828125</LongitudeDegrees>
            </Position>
            <AltitudeMeters>175</AltitudeMeters>
            <DistanceMeters>12163.26934067</DistanceMeters>
          </Trackpoint>
          <Trackpoint>
            <Time>2020-02-15T09:23:21.000Z</Time>
            <Position>
              <LatitudeDegrees>41.94625935517251491546630859375</LatitudeDegrees>
              <LongitudeDegrees>2.85366109572350978851318359375</LongitudeDegrees>
            </Position>
            <AltitudeMeters>175</AltitudeMeters>
            <DistanceMeters>12165.237563928</DistanceMeters>
          </Trackpoint>
          <Trackpoint>
            <Time>2020-02-15T09:23:22.000Z</Time>
            <Position>
              <LatitudeDegrees>41.94627561606466770172119140625</LatitudeDegrees>
              <LongitudeDegrees>2.853669226169586181640625</LongitudeDegrees>
            </Position>
            <AltitudeMeters>175.399993896484375</AltitudeMeters>
            <DistanceMeters>12167.166395568</DistanceMeters>
          </Trackpoint>
          <Trackpoint>
            <Time>2020-02-15T09:23:23.000Z</Time>
            <Position>
              <LatitudeDegrees>41.94629305042326450347900390625</LatitudeDegrees>
              <LongitudeDegrees>2.85367660224437713623046875</LongitudeDegrees>
            </Position>
            <AltitudeMeters>175.399993896484375</AltitudeMeters>
            <DistanceMeters>12169.200056064</DistanceMeters>
          </Trackpoint>
          <Trackpoint>
            <Time>2020-02-15T09:23:24.000Z</Time>
            <Position>
              <LatitudeDegrees>41.94631165824830532073974609375</LatitudeDegrees>
              <LongitudeDegrees>2.85368590615689754486083984375</LongitudeDegrees>
            </Position>
            <AltitudeMeters>176</AltitudeMeters>
            <DistanceMeters>12171.408277357</DistanceMeters>
          </Trackpoint>
          <Trackpoint>
            <Time>2020-02-15T09:23:25.000Z</Time>
            <Position>
              <LatitudeDegrees>41.94633160717785358428955078125</LatitudeDegrees>
              <LongitudeDegrees>2.8536952100694179534912109375</LongitudeDegrees>
            </Position>
            <AltitudeMeters>176</AltitudeMeters>
            <DistanceMeters>12173.757187042</DistanceMeters>
          </Trackpoint>
          <Trackpoint>
            <Time>2020-02-15T09:23:26.000Z</Time>
            <Position>
              <LatitudeDegrees>41.946351639926433563232421875</LatitudeDegrees>
              <LongitudeDegrees>2.85369998775422573089599609375</LongitudeDegrees>
            </Position>
            <AltitudeMeters>176.399993896484375</AltitudeMeters>
            <DistanceMeters>12176.019940529</DistanceMeters>
          </Trackpoint>
          <Trackpoint>
            <Time>2020-02-15T09:23:27.000Z</Time>
            <Position>
              <LatitudeDegrees>41.94637016393244266510009765625</LatitudeDegrees>
              <LongitudeDegrees>2.85370417870581150054931640625</LongitudeDegrees>
            </Position>
            <AltitudeMeters>177</AltitudeMeters>
            <DistanceMeters>12178.110528245</DistanceMeters>
          </Trackpoint>
          <Trackpoint>
            <Time>2020-02-15T09:23:28.000Z</Time>
            <Position>
              <LatitudeDegrees>41.94638877175748348236083984375</LatitudeDegrees>
              <LongitudeDegrees>2.8537081182003021240234375</LongitudeDegrees>
            </Position>
            <AltitudeMeters>177.1999969482421875</AltitudeMeters>
            <DistanceMeters>12180.209736978</DistanceMeters>
          </Trackpoint>
          <Trackpoint>
            <Time>2020-02-15T09:23:29.000Z</Time>
            <Position>
              <LatitudeDegrees>41.94640628993511199951171875</LatitudeDegrees>
              <LongitudeDegrees>2.8537126444280147552490234375</LongitudeDegrees>
            </Position>
            <AltitudeMeters>177.8000030517578125</AltitudeMeters>
            <DistanceMeters>12182.193953027</DistanceMeters>
          </Trackpoint>
          <Trackpoint>
            <Time>2020-02-15T09:23:30.000Z</Time>
            <Position>
              <LatitudeDegrees>41.94642498157918453216552734375</LatitudeDegrees>
              <LongitudeDegrees>2.853719852864742279052734375</LongitudeDegrees>
            </Position>
            <AltitudeMeters>178.1999969482421875</AltitudeMeters>
            <DistanceMeters>12184.356724304</DistanceMeters>
          </Trackpoint>
          <Trackpoint>
            <Time>2020-02-15T09:23:31.000Z</Time>
            <Position>
              <LatitudeDegrees>41.94644576869904994964599609375</LatitudeDegrees>
              <LongitudeDegrees>2.853727228939533233642578125</LongitudeDegrees>
            </Position>
            <AltitudeMeters>178.399993896484375</AltitudeMeters>
            <DistanceMeters>12186.749435834</DistanceMeters>
          </Trackpoint>
          <Trackpoint>
            <Time>2020-02-15T09:23:32.000Z</Time>
            <Position>
              <LatitudeDegrees>41.94646705873310565948486328125</LatitudeDegrees>
              <LongitudeDegrees>2.8537344373762607574462890625</LongitudeDegrees>
            </Position>
            <AltitudeMeters>178.600006103515625</AltitudeMeters>
            <DistanceMeters>12189.192565084</DistanceMeters>
          </Trackpoint>
          <Trackpoint>
            <Time>2020-02-15T09:23:33.000Z</Time>
            <Position>
              <LatitudeDegrees>41.94648801349103450775146484375</LatitudeDegrees>
              <LongitudeDegrees>2.8537421487271785736083984375</LongitudeDegrees>
            </Position>
            <AltitudeMeters>178.8000030517578125</AltitudeMeters>
            <DistanceMeters>12191.611550312</DistanceMeters>
          </Trackpoint>
          <Trackpoint>
            <Time>2020-02-15T09:23:34.000Z</Time>
            <Position>
              <LatitudeDegrees>41.9465075433254241943359375</LatitudeDegrees>
              <LongitudeDegrees>2.85374960862100124359130859375</LongitudeDegrees>
            </Position>
            <AltitudeMeters>179.1999969482421875</AltitudeMeters>
            <DistanceMeters>12193.872307545</DistanceMeters>
          </Trackpoint>
          <Trackpoint>
            <Time>2020-02-15T09:23:35.000Z</Time>
            <Position>
              <LatitudeDegrees>41.94652539677917957305908203125</LatitudeDegrees>
              <LongitudeDegrees>2.85375413484871387481689453125</LongitudeDegrees>
            </Position>
            <AltitudeMeters>179.399993896484375</AltitudeMeters>
            <DistanceMeters>12195.894836811</DistanceMeters>
          </Trackpoint>
          <Trackpoint>
            <Time>2020-02-15T09:23:36.000Z</Time>
            <Position>
              <LatitudeDegrees>41.94654433988034725189208984375</LatitudeDegrees>
              <LongitudeDegrees>2.85375731997191905975341796875</LongitudeDegrees>
            </Position>
            <AltitudeMeters>179.600006103515625</AltitudeMeters>
            <DistanceMeters>12198.019698741</DistanceMeters>
          </Trackpoint>
          <Trackpoint>
            <Time>2020-02-15T09:23:37.000Z</Time>
            <Position>
              <LatitudeDegrees>41.94656529463827610015869140625</LatitudeDegrees>
              <LongitudeDegrees>2.85376285202801227569580078125</LongitudeDegrees>
            </Position>
            <AltitudeMeters>179.8000030517578125</AltitudeMeters>
            <DistanceMeters>12200.397266375</DistanceMeters>
          </Trackpoint>
          <Trackpoint>
            <Time>2020-02-15T09:23:38.000Z</Time>
            <Position>
              <LatitudeDegrees>41.94658457301557064056396484375</LatitudeDegrees>
              <LongitudeDegrees>2.85376586951315402984619140625</LongitudeDegrees>
            </Position>
            <AltitudeMeters>180</AltitudeMeters>
            <DistanceMeters>12202.557949027</DistanceMeters>
          </Trackpoint>
          <Trackpoint>
            <Time>2020-02-15T09:23:39.000Z</Time>
            <Position>
              <LatitudeDegrees>41.9466022588312625885009765625</LatitudeDegrees>
              <LongitudeDegrees>2.85376670770347118377685546875</LongitudeDegrees>
            </Position>
            <AltitudeMeters>180</AltitudeMeters>
            <DistanceMeters>12204.530754883</DistanceMeters>
          </Trackpoint>
          <Trackpoint>
            <Time>2020-02-15T09:23:40.000Z</Time>
            <Position>
              <LatitudeDegrees>41.94662027992308139801025390625</LatitudeDegrees>
              <LongitudeDegrees>2.85377039574086666107177734375</LongitudeDegrees>
            </Position>
            <AltitudeMeters>180.399993896484375</AltitudeMeters>
            <DistanceMeters>12206.559970214</DistanceMeters>
          </Trackpoint>
          <Trackpoint>
            <Time>2020-02-15T09:23:41.000Z</Time>
            <Position>
              <LatitudeDegrees>41.94664039649069309234619140625</LatitudeDegrees>
              <LongitudeDegrees>2.853775508701801300048828125</LongitudeDegrees>
            </Position>
            <AltitudeMeters>180.399993896484375</AltitudeMeters>
            <DistanceMeters>12208.836648469</DistanceMeters>
          </Trackpoint>
          <Trackpoint>
            <Time>2020-02-15T09:23:42.000Z</Time>
            <Position>
              <LatitudeDegrees>41.9466604292392730712890625</LatitudeDegrees>
              <LongitudeDegrees>2.85378120839595794677734375</LongitudeDegrees>
            </Position>
            <AltitudeMeters>180.600006103515625</AltitudeMeters>
            <DistanceMeters>12211.117289614</DistanceMeters>
          </Trackpoint>
          <Trackpoint>
            <Time>2020-02-15T09:23:43.000Z</Time>
            <Position>
              <LatitudeDegrees>41.9466830603778362274169921875</LatitudeDegrees>
              <LongitudeDegrees>2.85378632135689258575439453125</LongitudeDegrees>
            </Position>
            <AltitudeMeters>180.600006103515625</AltitudeMeters>
            <DistanceMeters>12213.670662911</DistanceMeters>
          </Trackpoint>
          <Trackpoint>
            <Time>2020-02-15T09:23:44.000Z</Time>
            <Position>
              <LatitudeDegrees>41.94670611061155796051025390625</LatitudeDegrees>
              <LongitudeDegrees>2.85379420034587383270263671875</LongitudeDegrees>
            </Position>
            <AltitudeMeters>180.600006103515625</AltitudeMeters>
            <DistanceMeters>12216.31780086</DistanceMeters>
          </Trackpoint>
          <Trackpoint>
            <Time>2020-02-15T09:23:45.000Z</Time>
            <Position>
              <LatitudeDegrees>41.9467274844646453857421875</LatitudeDegrees>
              <LongitudeDegrees>2.853800319135189056396484375</LongitudeDegrees>
            </Position>
            <AltitudeMeters>180.8000030517578125</AltitudeMeters>
            <DistanceMeters>12218.749816499</DistanceMeters>
          </Trackpoint>
          <Trackpoint>
            <Time>2020-02-15T09:23:46.000Z</Time>
            <Position>
              <LatitudeDegrees>41.946747265756130218505859375</LatitudeDegrees>
              <LongitudeDegrees>2.85380559973418712615966796875</LongitudeDegrees>
            </Position>
            <AltitudeMeters>181.1999969482421875</AltitudeMeters>
            <DistanceMeters>12220.994539791</DistanceMeters>
          </Trackpoint>
          <Trackpoint>
            <Time>2020-02-15T09:23:47.000Z</Time>
            <Position>
              <LatitudeDegrees>41.94676713086664676666259765625</LatitudeDegrees>
              <LongitudeDegrees>2.85381129942834377288818359375</LongitudeDegrees>
            </Position>
            <AltitudeMeters>181.1999969482421875</AltitudeMeters>
            <DistanceMeters>12223.255297024</DistanceMeters>
          </Trackpoint>
          <Trackpoint>
            <Time>2020-02-15T09:23:48.000Z</Time>
            <Position>
              <LatitudeDegrees>41.94678640924394130706787109375</LatitudeDegrees>
              <LongitudeDegrees>2.853817082941532135009765625</LongitudeDegrees>
            </Position>
            <AltitudeMeters>181.1999969482421875</AltitudeMeters>
            <DistanceMeters>12225.453271295</DistanceMeters>
          </Trackpoint>
          <Trackpoint>
            <Time>2020-02-15T09:23:49.000Z</Time>
            <Position>
              <LatitudeDegrees>41.94680593907833099365234375</LatitudeDegrees>
              <LongitudeDegrees>2.85382387228310108184814453125</LongitudeDegrees>
            </Position>
            <AltitudeMeters>181.600006103515625</AltitudeMeters>
            <DistanceMeters>12227.697994587</DistanceMeters>
          </Trackpoint>
          <Trackpoint>
            <Time>2020-02-15T09:23:50.000Z</Time>
            <Position>
              <LatitudeDegrees>41.9468245469033718109130859375</LatitudeDegrees>
              <LongitudeDegrees>2.8538341820240020751953125</LongitudeDegrees>
            </Position>
            <AltitudeMeters>182</AltitudeMeters>
            <DistanceMeters>12229.938691466</DistanceMeters>
          </Trackpoint>
          <Trackpoint>
            <Time>2020-02-15T09:23:51.000Z</Time>
            <Position>
              <LatitudeDegrees>41.9468428194522857666015625</LatitudeDegrees>
              <LongitudeDegrees>2.8538464196026325225830078125</LongitudeDegrees>
            </Position>
            <AltitudeMeters>182</AltitudeMeters>
            <DistanceMeters>12232.209412419</DistanceMeters>
          </Trackpoint>
          <Trackpoint>
            <Time>2020-02-15T09:23:52.000Z</Time>
            <Position>
              <LatitudeDegrees>41.946860589087009429931640625</LatitudeDegrees>
              <LongitudeDegrees>2.8538574837148189544677734375</LongitudeDegrees>
            </Position>
            <AltitudeMeters>182.1999969482421875</AltitudeMeters>
            <DistanceMeters>12234.388820644</DistanceMeters>
          </Trackpoint>
          <Trackpoint>
            <Time>2020-02-15T09:23:53.000Z</Time>
            <Position>
              <LatitudeDegrees>41.94687835872173309326171875</LatitudeDegrees>
              <LongitudeDegrees>2.853866033256053924560546875</LongitudeDegrees>
            </Position>
            <AltitudeMeters>182.600006103515625</AltitudeMeters>
            <DistanceMeters>12236.488029377</DistanceMeters>
          </Trackpoint>
          <Trackpoint>
            <Time>2020-02-15T09:23:54.000Z</Time>
            <Position>
              <LatitudeDegrees>41.94689487107098102569580078125</LatitudeDegrees>
              <LongitudeDegrees>2.85386997275054454803466796875</LongitudeDegrees>
            </Position>
            <AltitudeMeters>182.600006103515625</AltitudeMeters>
            <DistanceMeters>12238.355008088</DistanceMeters>
          </Trackpoint>
          <Trackpoint>
            <Time>2020-02-15T09:23:55.000Z</Time>
            <Position>
              <LatitudeDegrees>41.94691381417214870452880859375</LatitudeDegrees>
              <LongitudeDegrees>2.85387382842600345611572265625</LongitudeDegrees>
            </Position>
            <AltitudeMeters>182.8000030517578125</AltitudeMeters>
            <DistanceMeters>12240.486235071</DistanceMeters>
          </Trackpoint>
          <Trackpoint>
            <Time>2020-02-15T09:23:56.000Z</Time>
            <Position>
              <LatitudeDegrees>41.94693342782557010650634765625</LatitudeDegrees>
              <LongitudeDegrees>2.8538809530436992645263671875</LongitudeDegrees>
            </Position>
            <AltitudeMeters>183.1999969482421875</AltitudeMeters>
            <DistanceMeters>12242.746992304</DistanceMeters>
          </Trackpoint>
          <Trackpoint>
            <Time>2020-02-15T09:23:57.000Z</Time>
            <Position>
              <LatitudeDegrees>41.94695387966930866241455078125</LatitudeDegrees>
              <LongitudeDegrees>2.8538876585662364959716796875</LongitudeDegrees>
            </Position>
            <AltitudeMeters>183.600006103515625</AltitudeMeters>
            <DistanceMeters>12245.090128339</DistanceMeters>
          </Trackpoint>
          <Trackpoint>
            <Time>2020-02-15T09:23:58.000Z</Time>
            <Position>
              <LatitudeDegrees>41.9469754211604595184326171875</LatitudeDegrees>
              <LongitudeDegrees>2.85389428026974201202392578125</LongitudeDegrees>
            </Position>
            <AltitudeMeters>183.8000030517578125</AltitudeMeters>
            <DistanceMeters>12247.549833853</DistanceMeters>
          </Trackpoint>
          <Trackpoint>
            <Time>2020-02-15T09:23:59.000Z</Time>
            <Position>
              <LatitudeDegrees>41.9469957053661346435546875</LatitudeDegrees>
              <LongitudeDegrees>2.85390215925872325897216796875</LongitudeDegrees>
            </Position>
            <AltitudeMeters>183.8000030517578125</AltitudeMeters>
            <DistanceMeters>12249.896820566</DistanceMeters>
          </Trackpoint>
          <Trackpoint>
            <Time>2020-02-15T09:24:00.000Z</Time>
            <Position>
              <LatitudeDegrees>41.9470176659524440765380859375</LatitudeDegrees>
              <LongitudeDegrees>2.853910960257053375244140625</LongitudeDegrees>
            </Position>
            <AltitudeMeters>184</AltitudeMeters>
            <DistanceMeters>12252.446654882</DistanceMeters>
          </Trackpoint>
          <Trackpoint>
            <Time>2020-02-15T09:24:01.000Z</Time>
            <Position>
              <LatitudeDegrees>41.94704172201454639434814453125</LatitudeDegrees>
              <LongitudeDegrees>2.85392076708376407623291015625</LongitudeDegrees>
            </Position>
            <AltitudeMeters>184.1999969482421875</AltitudeMeters>
            <DistanceMeters>12255.24631671</DistanceMeters>
          </Trackpoint>
          <Trackpoint>
            <Time>2020-02-15T09:24:02.000Z</Time>
            <Position>
              <LatitudeDegrees>41.94706468842923641204833984375</LatitudeDegrees>
              <LongitudeDegrees>2.85393141210079193115234375</LongitudeDegrees>
            </Position>
            <AltitudeMeters>184.399993896484375</AltitudeMeters>
            <DistanceMeters>12257.950824414</DistanceMeters>
          </Trackpoint>
          <Trackpoint>
            <Time>2020-02-15T09:24:03.000Z</Time>
            <Position>
              <LatitudeDegrees>41.94708681665360927581787109375</LatitudeDegrees>
              <LongitudeDegrees>2.853942811489105224609375</LongitudeDegrees>
            </Position>
            <AltitudeMeters>184.8000030517578125</AltitudeMeters>
            <DistanceMeters>12260.584281972</DistanceMeters>
          </Trackpoint>
          <Trackpoint>
            <Time>2020-02-15T09:24:04.000Z</Time>
            <Position>
              <LatitudeDegrees>41.9471081905066967010498046875</LatitudeDegrees>
              <LongitudeDegrees>2.85395144484937191009521484375</LongitudeDegrees>
            </Position>
            <AltitudeMeters>185</AltitudeMeters>
            <DistanceMeters>12263.065916944</DistanceMeters>
          </Trackpoint>
          <Trackpoint>
            <Time>2020-02-15T09:24:05.000Z</Time>
            <Position>
              <LatitudeDegrees>41.9471299834549427032470703125</LatitudeDegrees>
              <LongitudeDegrees>2.8539602458477020263671875</LongitudeDegrees>
            </Position>
            <AltitudeMeters>185.1999969482421875</AltitudeMeters>
            <DistanceMeters>12265.601545945</DistanceMeters>
          </Trackpoint>
          <Trackpoint>
            <Time>2020-02-15T09:24:06.000Z</Time>
            <Position>
              <LatitudeDegrees>41.94715118966996669769287109375</LatitudeDegrees>
              <LongitudeDegrees>2.8539664484560489654541015625</LongitudeDegrees>
            </Position>
            <AltitudeMeters>185.1999969482421875</AltitudeMeters>
            <DistanceMeters>12268.016795286</DistanceMeters>
          </Trackpoint>
          <Trackpoint>
            <Time>2020-02-15T09:24:07.000Z</Time>
            <Position>
              <LatitudeDegrees>41.94717231206595897674560546875</LatitudeDegrees>
              <LongitudeDegrees>2.8539738245308399200439453125</LongitudeDegrees>
            </Position>
            <AltitudeMeters>185.600006103515625</AltitudeMeters>
            <DistanceMeters>12270.443235032</DistanceMeters>
          </Trackpoint>
          <Trackpoint>
            <Time>2020-02-15T09:24:08.000Z</Time>
            <Position>
              <LatitudeDegrees>41.94719393737614154815673828125</LatitudeDegrees>
              <LongitudeDegrees>2.85398304462432861328125</LongitudeDegrees>
            </Position>
            <AltitudeMeters>185.8000030517578125</AltitudeMeters>
            <DistanceMeters>12272.969945156</DistanceMeters>
          </Trackpoint>
          <Trackpoint>
            <Time>2020-02-15T09:24:09.000Z</Time>
            <Position>
              <LatitudeDegrees>41.947216652333736419677734375</LatitudeDegrees>
              <LongitudeDegrees>2.85399117507040500640869140625</LongitudeDegrees>
            </Position>
            <AltitudeMeters>186</AltitudeMeters>
            <DistanceMeters>12275.586201631</DistanceMeters>
          </Trackpoint>
          <Trackpoint>
            <Time>2020-02-15T09:24:10.000Z</Time>
            <Position>
              <LatitudeDegrees>41.94723970256745815277099609375</LatitudeDegrees>
              <LongitudeDegrees>2.85400005988776683807373046875</LongitudeDegrees>
            </Position>
            <AltitudeMeters>186</AltitudeMeters>
            <DistanceMeters>12278.25372862</DistanceMeters>
          </Trackpoint>
          <Trackpoint>
            <Time>2020-02-15T09:24:11.000Z</Time>
            <Position>
              <LatitudeDegrees>41.94726526737213134765625</LatitudeDegrees>
              <LongitudeDegrees>2.85400961525738239288330078125</LongitudeDegrees>
            </Position>
            <AltitudeMeters>186.1999969482421875</AltitudeMeters>
            <DistanceMeters>12281.207210268</DistanceMeters>
          </Trackpoint>
          <Trackpoint>
            <Time>2020-02-15T09:24:13.000Z</Time>
            <Position>
              <LatitudeDegrees>41.94732285104691982269287109375</LatitudeDegrees>
              <LongitudeDegrees>2.85403643734753131866455078125</LongitudeDegrees>
            </Position>
            <AltitudeMeters>186.399993896484375</AltitudeMeters>
            <DistanceMeters>12287.990147647</DistanceMeters>
          </Trackpoint>
          <Trackpoint>
            <Time>2020-02-15T09:24:14.000Z</Time>
            <Position>
              <LatitudeDegrees>41.9473497569561004638671875</LatitudeDegrees>
              <LongitudeDegrees>2.85405211150646209716796875</LongitudeDegrees>
            </Position>
            <AltitudeMeters>186.8000030517578125</AltitudeMeters>
            <DistanceMeters>12291.254422482</DistanceMeters>
          </Trackpoint>
          <Trackpoint>
            <Time>2020-02-15T09:24:16.000Z</Time>
            <Position>
              <LatitudeDegrees>41.947404406964778900146484375</LatitudeDegrees>
              <LongitudeDegrees>2.8540814481675624847412109375</LongitudeDegrees>
            </Position>
            <AltitudeMeters>187</AltitudeMeters>
            <DistanceMeters>12297.803686801</DistanceMeters>
          </Trackpoint>
          <Trackpoint>
            <Time>2020-02-15T09:24:17.000Z</Time>
            <Position>
              <LatitudeDegrees>41.947429217398166656494140625</LatitudeDegrees>
              <LongitudeDegrees>2.8540965355932712554931640625</LongitudeDegrees>
            </Position>
            <AltitudeMeters>187</AltitudeMeters>
            <DistanceMeters>12300.835619818</DistanceMeters>
          </Trackpoint>
          <Trackpoint>
            <Time>2020-02-15T09:24:18.000Z</Time>
            <Position>
              <LatitudeDegrees>41.94745260290801525115966796875</LatitudeDegrees>
              <LongitudeDegrees>2.854112796485424041748046875</LongitudeDegrees>
            </Position>
            <AltitudeMeters>187</AltitudeMeters>
            <DistanceMeters>12303.767621314</DistanceMeters>
          </Trackpoint>
          <Trackpoint>
            <Time>2020-02-15T09:24:19.000Z</Time>
            <Position>
              <LatitudeDegrees>41.94747623987495899200439453125</LatitudeDegrees>
              <LongitudeDegrees>2.85412989556789398193359375</LongitudeDegrees>
            </Position>
            <AltitudeMeters>187.1999969482421875</AltitudeMeters>
            <DistanceMeters>12306.754545405</DistanceMeters>
          </Trackpoint>
          <Trackpoint>
            <Time>2020-02-15T09:24:20.000Z</Time>
            <Position>
              <LatitudeDegrees>41.94749736227095127105712890625</LatitudeDegrees>
              <LongitudeDegrees>2.85414657555520534515380859375</LongitudeDegrees>
            </Position>
            <AltitudeMeters>187.1999969482421875</AltitudeMeters>
            <DistanceMeters>12309.48232527</DistanceMeters>
          </Trackpoint>
          <Trackpoint>
            <Time>2020-02-15T09:24:21.000Z</Time>
            <Position>
              <LatitudeDegrees>41.947516389191150665283203125</LatitudeDegrees>
              <LongitudeDegrees>2.8541642613708972930908203125</LongitudeDegrees>
            </Position>
            <AltitudeMeters>187.399993896484375</AltitudeMeters>
            <DistanceMeters>12312.056830292</DistanceMeters>
          </Trackpoint>
          <Trackpoint>
            <Time>2020-02-15T09:24:22.000Z</Time>
            <Position>
              <LatitudeDegrees>41.94753357209265232086181640625</LatitudeDegrees>
              <LongitudeDegrees>2.85418362356722354888916015625</LongitudeDegrees>
            </Position>
            <AltitudeMeters>187.399993896484375</AltitudeMeters>
            <DistanceMeters>12314.551168415</DistanceMeters>
          </Trackpoint>
          <Trackpoint>
            <Time>2020-02-15T09:24:23.000Z</Time>
            <Position>
              <LatitudeDegrees>41.94755150936543941497802734375</LatitudeDegrees>
              <LongitudeDegrees>2.8542034886777400970458984375</LongitudeDegrees>
            </Position>
            <AltitudeMeters>187.399993896484375</AltitudeMeters>
            <DistanceMeters>12317.137920557</DistanceMeters>
          </Trackpoint>
          <Trackpoint>
            <Time>2020-02-15T09:24:24.000Z</Time>
            <Position>
              <LatitudeDegrees>41.94757078774273395538330078125</LatitudeDegrees>
              <LongitudeDegrees>2.85422285087406635284423828125</LongitudeDegrees>
            </Position>
            <AltitudeMeters>187.399993896484375</AltitudeMeters>
            <DistanceMeters>12319.815583847</DistanceMeters>
          </Trackpoint>
          <Trackpoint>
            <Time>2020-02-15T09:24:25.000Z</Time>
            <Position>
              <LatitudeDegrees>41.94759040139615535736083984375</LatitudeDegrees>
              <LongitudeDegrees>2.85424414090812206268310546875</LongitudeDegrees>
            </Position>
            <AltitudeMeters>187.399993896484375</AltitudeMeters>
            <DistanceMeters>12322.621689095</DistanceMeters>
          </Trackpoint>
          <Trackpoint>
            <Time>2020-02-15T09:24:26.000Z</Time>
            <Position>
              <LatitudeDegrees>41.9476100988686084747314453125</LatitudeDegrees>
              <LongitudeDegrees>2.85426727496087551116943359375</LongitudeDegrees>
            </Position>
            <AltitudeMeters>187.399993896484375</AltitudeMeters>
            <DistanceMeters>12325.532051908</DistanceMeters>
          </Trackpoint>
          <Trackpoint>
            <Time>2020-02-15T09:24:27.000Z</Time>
            <Position>
              <LatitudeDegrees>41.94763063453137874603271484375</LatitudeDegrees>
              <LongitudeDegrees>2.85429057665169239044189453125</LongitudeDegrees>
            </Position>
            <AltitudeMeters>187.399993896484375</AltitudeMeters>
            <DistanceMeters>12328.521997673</DistanceMeters>
          </Trackpoint>
          <Trackpoint>
            <Time>2020-02-15T09:24:28.000Z</Time>
            <Position>
              <LatitudeDegrees>41.94765158928930759429931640625</LatitudeDegrees>
              <LongitudeDegrees>2.85431354306638240814208984375</LongitudeDegrees>
            </Position>
            <AltitudeMeters>187.600006103515625</AltitudeMeters>
            <DistanceMeters>12331.53000974</DistanceMeters>
          </Trackpoint>
          <Trackpoint>
            <Time>2020-02-15T09:24:29.000Z</Time>
            <Position>
              <LatitudeDegrees>41.94767220877110958099365234375</LatitudeDegrees>
              <LongitudeDegrees>2.8543355874717235565185546875</LongitudeDegrees>
            </Position>
            <AltitudeMeters>188</AltitudeMeters>
            <DistanceMeters>12334.462011237</DistanceMeters>
          </Trackpoint>
          <Trackpoint>
            <Time>2020-02-15T09:24:30.000Z</Time>
            <Position>
              <LatitudeDegrees>41.94768964312970638275146484375</LatitudeDegrees>
              <LongitudeDegrees>2.8543550334870815277099609375</LongitudeDegrees>
            </Position>
            <AltitudeMeters>188.1999969482421875</AltitudeMeters>
            <DistanceMeters>12336.98335489</DistanceMeters>
          </Trackpoint>
          <Trackpoint>
            <Time>2020-02-15T09:24:31.000Z</Time>
            <Position>
              <LatitudeDegrees>41.9477063231170177459716796875</LatitudeDegrees>
              <LongitudeDegrees>2.854371629655361175537109375</LongitudeDegrees>
            </Position>
            <AltitudeMeters>188.399993896484375</AltitudeMeters>
            <DistanceMeters>12339.291545762</DistanceMeters>
          </Trackpoint>
          <Trackpoint>
            <Time>2020-02-15T09:24:32.000Z</Time>
            <Position>
              <LatitudeDegrees>41.9477214105427265167236328125</LatitudeDegrees>
              <LongitudeDegrees>2.85438948310911655426025390625</LongitudeDegrees>
            </Position>
            <AltitudeMeters>188.600006103515625</AltitudeMeters>
            <DistanceMeters>12341.530226719</DistanceMeters>
          </Trackpoint>
          <Trackpoint>
            <Time>2020-02-15T09:24:33.000Z</Time>
            <Position>
              <LatitudeDegrees>41.947739012539386749267578125</LatitudeDegrees>
              <LongitudeDegrees>2.85440406762063503265380859375</LongitudeDegrees>
            </Position>
            <AltitudeMeters>188.8000030517578125</AltitudeMeters>
            <DistanceMeters>12343.83254183</DistanceMeters>
          </Trackpoint>
          <Trackpoint>
            <Time>2020-02-15T09:24:34.000Z</Time>
            <Position>
              <LatitudeDegrees>41.94775837473571300506591796875</LatitudeDegrees>
              <LongitudeDegrees>2.854413874447345733642578125</LongitudeDegrees>
            </Position>
            <AltitudeMeters>189</AltitudeMeters>
            <DistanceMeters>12346.134856942</DistanceMeters>
          </Trackpoint>
          <Trackpoint>
            <Time>2020-02-15T09:24:35.000Z</Time>
            <Position>
              <LatitudeDegrees>41.94777396507561206817626953125</LatitudeDegrees>
              <LongitudeDegrees>2.8544224239885807037353515625</LongitudeDegrees>
            </Position>
            <AltitudeMeters>189.1999969482421875</AltitudeMeters>
            <DistanceMeters>12348.006666136</DistanceMeters>
          </Trackpoint>
          <Trackpoint>
            <Time>2020-02-15T09:24:36.000Z</Time>
            <Position>
              <LatitudeDegrees>41.94778628647327423095703125</LatitudeDegrees>
              <LongitudeDegrees>2.85443239845335483551025390625</LongitudeDegrees>
            </Position>
            <AltitudeMeters>189.1999969482421875</AltitudeMeters>
            <DistanceMeters>12349.608084791</DistanceMeters>
          </Trackpoint>
          <Trackpoint>
            <Time>2020-02-15T09:24:37.000Z</Time>
            <Position>
              <LatitudeDegrees>41.94779810495674610137939453125</LatitudeDegrees>
              <LongitudeDegrees>2.8544458933174610137939453125</LongitudeDegrees>
            </Position>
            <AltitudeMeters>189.399993896484375</AltitudeMeters>
            <DistanceMeters>12351.334330784</DistanceMeters>
          </Trackpoint>
          <Trackpoint>
            <Time>2020-02-15T09:24:38.000Z</Time>
            <Position>
              <LatitudeDegrees>41.94781336002051830291748046875</LatitudeDegrees>
              <LongitudeDegrees>2.8544646687805652618408203125</LongitudeDegrees>
            </Position>
            <AltitudeMeters>189.600006103515625</AltitudeMeters>
            <DistanceMeters>12353.636645895</DistanceMeters>
          </Trackpoint>
          <Trackpoint>
            <Time>2020-02-15T09:24:39.000Z</Time>
            <Position>
              <LatitudeDegrees>41.947832219302654266357421875</LatitudeDegrees>
              <LongitudeDegrees>2.8544864617288112640380859375</LongitudeDegrees>
            </Position>
            <AltitudeMeters>189.600006103515625</AltitudeMeters>
            <DistanceMeters>12356.403865587</DistanceMeters>
          </Trackpoint>
          <Trackpoint>
            <Time>2020-02-15T09:24:41.000Z</Time>
            <Position>
              <LatitudeDegrees>41.9478799961507320404052734375</LatitudeDegrees>
              <LongitudeDegrees>2.85453650169074535369873046875</LongitudeDegrees>
            </Position>
            <AltitudeMeters>189.600006103515625</AltitudeMeters>
            <DistanceMeters>12363.143397063</DistanceMeters>
          </Trackpoint>
          <Trackpoint>
            <Time>2020-02-15T09:24:42.000Z</Time>
            <Position>
              <LatitudeDegrees>41.94789852015674114227294921875</LatitudeDegrees>
              <LongitudeDegrees>2.8545655868947505950927734375</LongitudeDegrees>
            </Position>
            <AltitudeMeters>189.8000030517578125</AltitudeMeters>
            <DistanceMeters>12366.312220978</DistanceMeters>
          </Trackpoint>
          <Trackpoint>
            <Time>2020-02-15T09:24:43.000Z</Time>
            <Position>
              <LatitudeDegrees>41.94791478104889392852783203125</LatitudeDegrees>
              <LongitudeDegrees>2.85459752194583415985107421875</LongitudeDegrees>
            </Position>
            <AltitudeMeters>189.600006103515625</AltitudeMeters>
            <DistanceMeters>12369.517876449</DistanceMeters>
          </Trackpoint>
          <Trackpoint>
            <Time>2020-02-15T09:24:45.000Z</Time>
            <Position>
              <LatitudeDegrees>41.94793405942618846893310546875</LatitudeDegrees>
              <LongitudeDegrees>2.85466357134282588958740234375</LongitudeDegrees>
            </Position>
            <AltitudeMeters>189.600006103515625</AltitudeMeters>
            <DistanceMeters>12375.392648969</DistanceMeters>
          </Trackpoint>
          <Trackpoint>
            <Time>2020-02-15T09:24:46.000Z</Time>
            <Position>
              <LatitudeDegrees>41.94793070666491985321044921875</LatitudeDegrees>
              <LongitudeDegrees>2.85469626076519489288330078125</LongitudeDegrees>
            </Position>
            <AltitudeMeters>189.8000030517578125</AltitudeMeters>
            <DistanceMeters>12378.125389941</DistanceMeters>
          </Trackpoint>
          <Trackpoint>
            <Time>2020-02-15T09:24:47.000Z</Time>
            <Position>
              <LatitudeDegrees>41.94792618043720722198486328125</LatitudeDegrees>
              <LongitudeDegrees>2.85472593270242214202880859375</LongitudeDegrees>
            </Position>
            <AltitudeMeters>189.600006103515625</AltitudeMeters>
            <DistanceMeters>12380.632366847</DistanceMeters>
          </Trackpoint>
          <Trackpoint>
            <Time>2020-02-15T09:24:48.000Z</Time>
            <Position>
              <LatitudeDegrees>41.94792266003787517547607421875</LatitudeDegrees>
              <LongitudeDegrees>2.8547541797161102294921875</LongitudeDegrees>
            </Position>
            <AltitudeMeters>189.600006103515625</AltitudeMeters>
            <DistanceMeters>12383.004230592</DistanceMeters>
          </Trackpoint>
          <Trackpoint>
            <Time>2020-02-15T09:24:49.000Z</Time>
            <Position>
              <LatitudeDegrees>41.94791796617209911346435546875</LatitudeDegrees>
              <LongitudeDegrees>2.85478058271110057830810546875</LongitudeDegrees>
            </Position>
            <AltitudeMeters>189.600006103515625</AltitudeMeters>
            <DistanceMeters>12385.252973087</DistanceMeters>
          </Trackpoint>
          <Trackpoint>
            <Time>2020-02-15T09:24:50.000Z</Time>
            <Position>
              <LatitudeDegrees>41.94791193120181560516357421875</LatitudeDegrees>
              <LongitudeDegrees>2.8548024594783782958984375</LongitudeDegrees>
            </Position>
            <AltitudeMeters>189.1999969482421875</AltitudeMeters>
            <DistanceMeters>12387.184144123</DistanceMeters>
          </Trackpoint>
          <Trackpoint>
            <Time>2020-02-15T09:24:51.000Z</Time>
            <Position>
              <LatitudeDegrees>41.947905980050563812255859375</LatitudeDegrees>
              <LongitudeDegrees>2.85482634790241718292236328125</LongitudeDegrees>
            </Position>
            <AltitudeMeters>188.600006103515625</AltitudeMeters>
            <DistanceMeters>12389.266075124</DistanceMeters>
          </Trackpoint>
          <Trackpoint>
            <Time>2020-02-15T09:24:52.000Z</Time>
            <Position>
              <LatitudeDegrees>41.947900615632534027099609375</LatitudeDegrees>
              <LongitudeDegrees>2.8548529185354709625244140625</LongitudeDegrees>
            </Position>
            <AltitudeMeters>188.399993896484375</AltitudeMeters>
            <DistanceMeters>12391.546716269</DistanceMeters>
          </Trackpoint>
          <Trackpoint>
            <Time>2020-02-15T09:24:53.000Z</Time>
            <Position>
              <LatitudeDegrees>41.94789282046258449554443359375</LatitudeDegrees>
              <LongitudeDegrees>2.85488166846334934234619140625</LongitudeDegrees>
            </Position>
            <AltitudeMeters>188</AltitudeMeters>
            <DistanceMeters>12394.078781488</DistanceMeters>
          </Trackpoint>
          <Trackpoint>
            <Time>2020-02-15T09:24:56.000Z</Time>
            <Position>
              <LatitudeDegrees>41.94786943495273590087890625</LatitudeDegrees>
              <LongitudeDegrees>2.85498552024364471435546875</LongitudeDegrees>
            </Position>
            <AltitudeMeters>187.600006103515625</AltitudeMeters>
            <DistanceMeters>12403.061193916</DistanceMeters>
          </Trackpoint>
          <Trackpoint>
            <Time>2020-02-15T09:24:58.000Z</Time>
            <Position>
              <LatitudeDegrees>41.94786197505891323089599609375</LatitudeDegrees>
              <LongitudeDegrees>2.8550572693347930908203125</LongitudeDegrees>
            </Position>
            <AltitudeMeters>187.399993896484375</AltitudeMeters>
            <DistanceMeters>12409.058426151</DistanceMeters>
          </Trackpoint>
          <Trackpoint>
            <Time>2020-02-15T09:24:59.000Z</Time>
            <Position>
              <LatitudeDegrees>41.94786180742084980010986328125</LatitudeDegrees>
              <LongitudeDegrees>2.85509389825165271759033203125</LongitudeDegrees>
            </Position>
            <AltitudeMeters>187.399993896484375</AltitudeMeters>
            <DistanceMeters>12412.090359168</DistanceMeters>
          </Trackpoint>
          <Trackpoint>
            <Time>2020-02-15T09:25:00.000Z</Time>
            <Position>
              <LatitudeDegrees>41.9478645734488964080810546875</LatitudeDegrees>
              <LongitudeDegrees>2.8551298566162586212158203125</LongitudeDegrees>
            </Position>
            <AltitudeMeters>187.399993896484375</AltitudeMeters>
            <DistanceMeters>12415.083323557</DistanceMeters>
          </Trackpoint>
          <Trackpoint>
            <Time>2020-02-15T09:25:01.000Z</Time>
            <Position>
              <LatitudeDegrees>41.9478732906281948089599609375</LatitudeDegrees>
              <LongitudeDegrees>2.85516564734280109405517578125</LongitudeDegrees>
            </Position>
            <AltitudeMeters>187.600006103515625</AltitudeMeters>
            <DistanceMeters>12418.200431552</DistanceMeters>
          </Trackpoint>
          <Trackpoint>
            <Time>2020-02-15T09:25:02.000Z</Time>
            <Position>
              <LatitudeDegrees>41.94788728840649127960205078125</LatitudeDegrees>
              <LongitudeDegrees>2.85520168952643871307373046875</LongitudeDegrees>
            </Position>
            <AltitudeMeters>187.399993896484375</AltitudeMeters>
            <DistanceMeters>12421.565504487</DistanceMeters>
          </Trackpoint>
          <Trackpoint>
            <Time>2020-02-15T09:25:03.000Z</Time>
            <Position>
              <LatitudeDegrees>41.9479011185467243194580078125</LatitudeDegrees>
              <LongitudeDegrees>2.85523898899555206298828125</LongitudeDegrees>
            </Position>
            <AltitudeMeters>187.600006103515625</AltitudeMeters>
            <DistanceMeters>12425.015379956</DistanceMeters>
          </Trackpoint>
          <Trackpoint>
            <Time>2020-02-15T09:25:04.000Z</Time>
            <Position>
              <LatitudeDegrees>41.94791913963854312896728515625</LatitudeDegrees>
              <LongitudeDegrees>2.85527695901691913604736328125</LongitudeDegrees>
            </Position>
            <AltitudeMeters>187.600006103515625</AltitudeMeters>
            <DistanceMeters>12428.742075218</DistanceMeters>
          </Trackpoint>
          <Trackpoint>
            <Time>2020-02-15T09:25:05.000Z</Time>
            <Position>
              <LatitudeDegrees>41.94793674163520336151123046875</LatitudeDegrees>
              <LongitudeDegrees>2.855311743915081024169921875</LongitudeDegrees>
            </Position>
            <AltitudeMeters>187.600006103515625</AltitudeMeters>
            <DistanceMeters>12432.22321908</DistanceMeters>
          </Trackpoint>
          <Trackpoint>
            <Time>2020-02-15T09:25:06.000Z</Time>
            <Position>
              <LatitudeDegrees>41.947954259812831878662109375</LatitudeDegrees>
              <LongitudeDegrees>2.855341918766498565673828125</LongitudeDegrees>
            </Position>
            <AltitudeMeters>187.600006103515625</AltitudeMeters>
            <DistanceMeters>12435.392042995</DistanceMeters>
          </Trackpoint>
          <Trackpoint>
            <Time>2020-02-15T09:25:07.000Z</Time>
            <Position>
              <LatitudeDegrees>41.947975717484951019287109375</LatitudeDegrees>
              <LongitudeDegrees>2.85537083633244037628173828125</LongitudeDegrees>
            </Position>
            <AltitudeMeters>187.8000030517578125</AltitudeMeters>
            <DistanceMeters>12438.773178422</DistanceMeters>
          </Trackpoint>
          <Trackpoint>
            <Time>2020-02-15T09:25:08.000Z</Time>
            <Position>
              <LatitudeDegrees>41.94799952208995819091796875</LatitudeDegrees>
              <LongitudeDegrees>2.8553960658609867095947265625</LongitudeDegrees>
            </Position>
            <AltitudeMeters>188</AltitudeMeters>
            <DistanceMeters>12442.148968178</DistanceMeters>
          </Trackpoint>
          <Trackpoint>
            <Time>2020-02-15T09:25:09.000Z</Time>
            <Position>
              <LatitudeDegrees>41.948024667799472808837890625</LatitudeDegrees>
              <LongitudeDegrees>2.85541743971407413482666015625</LongitudeDegrees>
            </Position>
            <AltitudeMeters>188</AltitudeMeters>
            <DistanceMeters>12445.461300117</DistanceMeters>
          </Trackpoint>
          <Trackpoint>
            <Time>2020-02-15T09:25:10.000Z</Time>
            <Position>
              <LatitudeDegrees>41.948049478232860565185546875</LatitudeDegrees>
              <LongitudeDegrees>2.85543772391974925994873046875</LongitudeDegrees>
            </Position>
            <AltitudeMeters>188</AltitudeMeters>
            <DistanceMeters>12448.692208406</DistanceMeters>
          </Trackpoint>
          <Trackpoint>
            <Time>2020-02-15T09:25:11.000Z</Time>
            <Position>
              <LatitudeDegrees>41.9480737857520580291748046875</LatitudeDegrees>
              <LongitudeDegrees>2.85545867867767810821533203125</LongitudeDegrees>
            </Position>
            <AltitudeMeters>188.1999969482421875</AltitudeMeters>
            <DistanceMeters>12451.906303528</DistanceMeters>
          </Trackpoint>
          <Trackpoint>
            <Time>2020-02-15T09:25:12.000Z</Time>
            <Position>
              <LatitudeDegrees>41.9480945728719234466552734375</LatitudeDegrees>
              <LongitudeDegrees>2.8554798848927021026611328125</LongitudeDegrees>
            </Position>
            <AltitudeMeters>188.1999969482421875</AltitudeMeters>
            <DistanceMeters>12454.810454247</DistanceMeters>
          </Trackpoint>
          <Trackpoint>
            <Time>2020-02-15T09:25:13.000Z</Time>
            <Position>
              <LatitudeDegrees>41.9481136836111545562744140625</LatitudeDegrees>
              <LongitudeDegrees>2.85550159402191638946533203125</LongitudeDegrees>
            </Position>
            <AltitudeMeters>188.1999969482421875</AltitudeMeters>
            <DistanceMeters>12457.597184543</DistanceMeters>
          </Trackpoint>
          <Trackpoint>
            <Time>2020-02-15T09:25:14.000Z</Time>
            <Position>
              <LatitudeDegrees>41.94813120178878307342529296875</LatitudeDegrees>
              <LongitudeDegrees>2.8555212914943695068359375</LongitudeDegrees>
            </Position>
            <AltitudeMeters>188.1999969482421875</AltitudeMeters>
            <DistanceMeters>12460.138149843</DistanceMeters>
          </Trackpoint>
          <Trackpoint>
            <Time>2020-02-15T09:25:15.000Z</Time>
            <Position>
              <LatitudeDegrees>41.94814863614737987518310546875</LatitudeDegrees>
              <LongitudeDegrees>2.8555392287671566009521484375</LongitudeDegrees>
            </Position>
            <AltitudeMeters>188.399993896484375</AltitudeMeters>
            <DistanceMeters>12462.579430337</DistanceMeters>
          </Trackpoint>
          <Trackpoint>
            <Time>2020-02-15T09:25:16.000Z</Time>
            <Position>
              <LatitudeDegrees>41.9481693394482135772705078125</LatitudeDegrees>
              <LongitudeDegrees>2.8555623628199100494384765625</LongitudeDegrees>
            </Position>
            <AltitudeMeters>188.600006103515625</AltitudeMeters>
            <DistanceMeters>12465.575410308</DistanceMeters>
          </Trackpoint>
          <Trackpoint>
            <Time>2020-02-15T09:25:17.000Z</Time>
            <Position>
              <LatitudeDegrees>41.9481891207396984100341796875</LatitudeDegrees>
              <LongitudeDegrees>2.85558692179620265960693359375</LongitudeDegrees>
            </Position>
            <AltitudeMeters>188.399993896484375</AltitudeMeters>
            <DistanceMeters>12468.571390279</DistanceMeters>
          </Trackpoint>
          <Trackpoint>
            <Time>2020-02-15T09:25:18.000Z</Time>
            <Position>
              <LatitudeDegrees>41.9482089020311832427978515625</LatitudeDegrees>
              <LongitudeDegrees>2.8556119836866855621337890625</LongitudeDegrees>
            </Position>
            <AltitudeMeters>188.8000030517578125</AltitudeMeters>
            <DistanceMeters>12471.597360787</DistanceMeters>
          </Trackpoint>
          <Trackpoint>
            <Time>2020-02-15T09:25:19.000Z</Time>
            <Position>
              <LatitudeDegrees>41.94822675548493862152099609375</LatitudeDegrees>
              <LongitudeDegrees>2.85563268698751926422119140625</LongitudeDegrees>
            </Position>
            <AltitudeMeters>188.600006103515625</AltitudeMeters>
            <DistanceMeters>12474.220511231</DistanceMeters>
          </Trackpoint>
          <Trackpoint>
            <Time>2020-02-15T09:25:20.000Z</Time>
            <Position>
              <LatitudeDegrees>41.94824502803385257720947265625</LatitudeDegrees>
              <LongitudeDegrees>2.855651043355464935302734375</LongitudeDegrees>
            </Position>
            <AltitudeMeters>188.8000030517578125</AltitudeMeters>
            <DistanceMeters>12476.75969901</DistanceMeters>
          </Trackpoint>
          <Trackpoint>
            <Time>2020-02-15T09:25:21.000Z</Time>
            <Position>
              <LatitudeDegrees>41.948259361088275909423828125</LatitudeDegrees>
              <LongitudeDegrees>2.85567308776080608367919921875</LongitudeDegrees>
            </Position>
            <AltitudeMeters>189</AltitudeMeters>
            <DistanceMeters>12479.184277276</DistanceMeters>
          </Trackpoint>
          <Trackpoint>
            <Time>2020-02-15T09:25:22.000Z</Time>
            <Position>
              <LatitudeDegrees>41.94827201776206493377685546875</LatitudeDegrees>
              <LongitudeDegrees>2.8556988202035427093505859375</LongitudeDegrees>
            </Position>
            <AltitudeMeters>188.8000030517578125</AltitudeMeters>
            <DistanceMeters>12481.737650572</DistanceMeters>
          </Trackpoint>
          <Trackpoint>
            <Time>2020-02-15T09:25:23.000Z</Time>
            <Position>
              <LatitudeDegrees>41.94828777574002742767333984375</LatitudeDegrees>
              <LongitudeDegrees>2.85572622902691364288330078125</LongitudeDegrees>
            </Position>
            <AltitudeMeters>189.1999969482421875</AltitudeMeters>
            <DistanceMeters>12484.604246038</DistanceMeters>
          </Trackpoint>
          <Trackpoint>
            <Time>2020-02-15T09:25:24.000Z</Time>
            <Position>
              <LatitudeDegrees>41.9483044557273387908935546875</LatitudeDegrees>
              <LongitudeDegrees>2.85575523041188716888427734375</LongitudeDegrees>
            </Position>
            <AltitudeMeters>189.399993896484375</AltitudeMeters>
            <DistanceMeters>12487.639155917</DistanceMeters>
          </Trackpoint>
          <Trackpoint>
            <Time>2020-02-15T09:25:25.000Z</Time>
            <Position>
              <LatitudeDegrees>41.9483218900859355926513671875</LatitudeDegrees>
              <LongitudeDegrees>2.855785824358463287353515625</LongitudeDegrees>
            </Position>
            <AltitudeMeters>189.600006103515625</AltitudeMeters>
            <DistanceMeters>12490.827865072</DistanceMeters>
          </Trackpoint>
          <Trackpoint>
            <Time>2020-02-15T09:25:26.000Z</Time>
            <Position>
              <LatitudeDegrees>41.94833823479712009429931640625</LatitudeDegrees>
              <LongitudeDegrees>2.85581842996180057525634765625</LongitudeDegrees>
            </Position>
            <AltitudeMeters>190.1999969482421875</AltitudeMeters>
            <DistanceMeters>12494.083830328</DistanceMeters>
          </Trackpoint>
          <Trackpoint>
            <Time>2020-02-15T09:25:27.000Z</Time>
            <Position>
              <LatitudeDegrees>41.9483507238328456878662109375</LatitudeDegrees>
              <LongitudeDegrees>2.8558512032032012939453125</LongitudeDegrees>
            </Position>
            <AltitudeMeters>190.600006103515625</AltitudeMeters>
            <DistanceMeters>12497.13358093</DistanceMeters>
          </Trackpoint>
          <Trackpoint>
            <Time>2020-02-15T09:25:32.000Z</Time>
            <Position>
              <LatitudeDegrees>41.948416940867900848388671875</LatitudeDegrees>
              <LongitudeDegrees>2.8560196794569492340087890625</LongitudeDegrees>
            </Position>
            <AltitudeMeters>191</AltitudeMeters>
            <DistanceMeters>12512.908015516</DistanceMeters>
          </Trackpoint>
          <Trackpoint>
            <Time>2020-02-15T09:25:34.000Z</Time>
            <Position>
              <LatitudeDegrees>41.9484509713947772979736328125</LatitudeDegrees>
              <LongitudeDegrees>2.85608849488198757171630859375</LongitudeDegrees>
            </Position>
            <AltitudeMeters>191.399993896484375</AltitudeMeters>
            <DistanceMeters>12519.749279011</DistanceMeters>
          </Trackpoint>
          <Trackpoint>
            <Time>2020-02-15T09:25:36.000Z</Time>
            <Position>
              <LatitudeDegrees>41.94848768413066864013671875</LatitudeDegrees>
              <LongitudeDegrees>2.85615622065961360931396484375</LongitudeDegrees>
            </Position>
            <AltitudeMeters>191.399993896484375</AltitudeMeters>
            <DistanceMeters>12526.686879997</DistanceMeters>
          </Trackpoint>
          <Trackpoint>
            <Time>2020-02-15T09:25:37.000Z</Time>
            <Position>
              <LatitudeDegrees>41.9485089741647243499755859375</LatitudeDegrees>
              <LongitudeDegrees>2.85618991591036319732666015625</LongitudeDegrees>
            </Position>
            <AltitudeMeters>191.399993896484375</AltitudeMeters>
            <DistanceMeters>12530.347567561</DistanceMeters>
          </Trackpoint>
          <Trackpoint>
            <Time>2020-02-15T09:25:39.000Z</Time>
            <Position>
              <LatitudeDegrees>41.94854845292866230010986328125</LatitudeDegrees>
              <LongitudeDegrees>2.85625982098281383514404296875</LongitudeDegrees>
            </Position>
            <AltitudeMeters>191.399993896484375</AltitudeMeters>
            <DistanceMeters>12537.613228363</DistanceMeters>
          </Trackpoint>
          <Trackpoint>
            <Time>2020-02-15T09:25:41.000Z</Time>
            <Position>
              <LatitudeDegrees>41.94858147762715816497802734375</LatitudeDegrees>
              <LongitudeDegrees>2.85632000304758548736572265625</LongitudeDegrees>
            </Position>
            <AltitudeMeters>191.399993896484375</AltitudeMeters>
            <DistanceMeters>12543.805296239</DistanceMeters>
          </Trackpoint>
          <Trackpoint>
            <Time>2020-02-15T09:25:42.000Z</Time>
            <Position>
              <LatitudeDegrees>41.94859472103416919708251953125</LatitudeDegrees>
              <LongitudeDegrees>2.856348417699337005615234375</LongitudeDegrees>
            </Position>
            <AltitudeMeters>191.399993896484375</AltitudeMeters>
            <DistanceMeters>12546.580662018</DistanceMeters>
          </Trackpoint>
          <Trackpoint>
            <Time>2020-02-15T09:25:43.000Z</Time>
            <Position>
              <LatitudeDegrees>41.94860645569860935211181640625</LatitudeDegrees>
              <LongitudeDegrees>2.85637616179883480072021484375</LongitudeDegrees>
            </Position>
            <AltitudeMeters>191.399993896484375</AltitudeMeters>
            <DistanceMeters>12549.224386506</DistanceMeters>
          </Trackpoint>
          <Trackpoint>
            <Time>2020-02-15T09:25:44.000Z</Time>
            <Position>
              <LatitudeDegrees>41.94861785508692264556884765625</LatitudeDegrees>
              <LongitudeDegrees>2.85640365444123744964599609375</LongitudeDegrees>
            </Position>
            <AltitudeMeters>191.600006103515625</AltitudeMeters>
            <DistanceMeters>12551.83199989</DistanceMeters>
          </Trackpoint>
          <Trackpoint>
            <Time>2020-02-15T09:25:45.000Z</Time>
            <Position>
              <LatitudeDegrees>41.94862925447523593902587890625</LatitudeDegrees>
              <LongitudeDegrees>2.85642913542687892913818359375</LongitudeDegrees>
            </Position>
            <AltitudeMeters>191.399993896484375</AltitudeMeters>
            <DistanceMeters>12554.293540322</DistanceMeters>
          </Trackpoint>
          <Trackpoint>
            <Time>2020-02-15T09:25:46.000Z</Time>
            <Position>
              <LatitudeDegrees>41.94863813929259777069091796875</LatitudeDegrees>
              <LongitudeDegrees>2.85645461641252040863037109375</LongitudeDegrees>
            </Position>
            <AltitudeMeters>191.399993896484375</AltitudeMeters>
            <DistanceMeters>12556.621209943</DistanceMeters>
          </Trackpoint>
          <Trackpoint>
            <Time>2020-02-15T09:25:47.000Z</Time>
            <Position>
              <LatitudeDegrees>41.94864668883383274078369140625</LatitudeDegrees>
              <LongitudeDegrees>2.85648026503622531890869140625</LongitudeDegrees>
            </Position>
            <AltitudeMeters>191.600006103515625</AltitudeMeters>
            <DistanceMeters>12558.944996877</DistanceMeters>
          </Trackpoint>
          <Trackpoint>
            <Time>2020-02-15T09:25:48.000Z</Time>
            <Position>
              <LatitudeDegrees>41.94865456782281398773193359375</LatitudeDegrees>
              <LongitudeDegrees>2.8565065003931522369384765625</LongitudeDegrees>
            </Position>
            <AltitudeMeters>191.8000030517578125</AltitudeMeters>
            <DistanceMeters>12561.286205198</DistanceMeters>
          </Trackpoint>
          <Trackpoint>
            <Time>2020-02-15T09:25:49.000Z</Time>
            <Position>
              <LatitudeDegrees>41.94866177625954151153564453125</LatitudeDegrees>
              <LongitudeDegrees>2.85653139464557170867919921875</LongitudeDegrees>
            </Position>
            <AltitudeMeters>192</AltitudeMeters>
            <DistanceMeters>12563.49851201</DistanceMeters>
          </Trackpoint>
          <Trackpoint>
            <Time>2020-02-15T09:25:50.000Z</Time>
            <Position>
              <LatitudeDegrees>41.948671750724315643310546875</LatitudeDegrees>
              <LongitudeDegrees>2.85655570216476917266845703125</LongitudeDegrees>
            </Position>
            <AltitudeMeters>192.1999969482421875</AltitudeMeters>
            <DistanceMeters>12565.798865199</DistanceMeters>
          </Trackpoint>
          <Trackpoint>
            <Time>2020-02-15T09:25:51.000Z</Time>
            <Position>
              <LatitudeDegrees>41.94868273101747035980224609375</LatitudeDegrees>
              <LongitudeDegrees>2.85658017732203006744384765625</LongitudeDegrees>
            </Position>
            <AltitudeMeters>192.1999969482421875</AltitudeMeters>
            <DistanceMeters>12568.165011306</DistanceMeters>
          </Trackpoint>
          <Trackpoint>
            <Time>2020-02-15T09:25:52.000Z</Time>
            <Position>
              <LatitudeDegrees>41.948695890605449676513671875</LatitudeDegrees>
              <LongitudeDegrees>2.85660884343087673187255859375</LongitudeDegrees>
            </Position>
            <AltitudeMeters>192.399993896484375</AltitudeMeters>
            <DistanceMeters>12570.953361323</DistanceMeters>
          </Trackpoint>
          <Trackpoint>
            <Time>2020-02-15T09:25:53.000Z</Time>
            <Position>
              <LatitudeDegrees>41.9487096369266510009765625</LatitudeDegrees>
              <LongitudeDegrees>2.856638766825199127197265625</LongitudeDegrees>
            </Position>
            <AltitudeMeters>193</AltitudeMeters>
            <DistanceMeters>12573.863724136</DistanceMeters>
          </Trackpoint>
          <Trackpoint>
            <Time>2020-02-15T09:25:54.000Z</Time>
            <Position>
              <LatitudeDegrees>41.94872413761913776397705078125</LatitudeDegrees>
              <LongitudeDegrees>2.85666701383888721466064453125</LongitudeDegrees>
            </Position>
            <AltitudeMeters>193.399993896484375</AltitudeMeters>
            <DistanceMeters>12576.705007005</DistanceMeters>
          </Trackpoint>
          <Trackpoint>
            <Time>2020-02-15T09:25:55.000Z</Time>
            <Position>
              <LatitudeDegrees>41.9487393088638782501220703125</LatitudeDegrees>
              <LongitudeDegrees>2.856691740453243255615234375</LongitudeDegrees>
            </Position>
            <AltitudeMeters>193.600006103515625</AltitudeMeters>
            <DistanceMeters>12579.358958705</DistanceMeters>
          </Trackpoint>
          <Trackpoint>
            <Time>2020-02-15T09:25:56.000Z</Time>
            <Position>
              <LatitudeDegrees>41.94875615648925304412841796875</LatitudeDegrees>
              <LongitudeDegrees>2.85671680234372615814208984375</LongitudeDegrees>
            </Position>
            <AltitudeMeters>194</AltitudeMeters>
            <DistanceMeters>12582.155393256</DistanceMeters>
          </Trackpoint>
          <Trackpoint>
            <Time>2020-02-15T09:25:57.000Z</Time>
            <Position>
              <LatitudeDegrees>41.9487738423049449920654296875</LatitudeDegrees>
              <LongitudeDegrees>2.85674102604389190673828125</LongitudeDegrees>
            </Position>
            <AltitudeMeters>194.1999969482421875</AltitudeMeters>
            <DistanceMeters>12584.966321375</DistanceMeters>
          </Trackpoint>
          <Trackpoint>
            <Time>2020-02-15T09:25:58.000Z</Time>
            <Position>
              <LatitudeDegrees>41.948791444301605224609375</LatitudeDegrees>
              <LongitudeDegrees>2.8567613102495670318603515625</LongitudeDegrees>
            </Position>
            <AltitudeMeters>194.8000030517578125</AltitudeMeters>
            <DistanceMeters>12587.547831866</DistanceMeters>
          </Trackpoint>
          <Trackpoint>
            <Time>2020-02-15T09:25:59.000Z</Time>
            <Position>
              <LatitudeDegrees>41.9488093815743923187255859375</LatitudeDegrees>
              <LongitudeDegrees>2.85677916370332241058349609375</LongitudeDegrees>
            </Position>
            <AltitudeMeters>195</AltitudeMeters>
            <DistanceMeters>12590.033102935</DistanceMeters>
          </Trackpoint>
          <Trackpoint>
            <Time>2020-02-15T09:26:00.000Z</Time>
            <Position>
              <LatitudeDegrees>41.94883042015135288238525390625</LatitudeDegrees>
              <LongitudeDegrees>2.8567965142428874969482421875</LongitudeDegrees>
            </Position>
            <AltitudeMeters>195.600006103515625</AltitudeMeters>
            <DistanceMeters>12592.780673482</DistanceMeters>
          </Trackpoint>
          <Trackpoint>
            <Time>2020-02-15T09:26:01.000Z</Time>
            <Position>
              <LatitudeDegrees>41.94885137490928173065185546875</LatitudeDegrees>
              <LongitudeDegrees>2.856812439858913421630859375</LongitudeDegrees>
            </Position>
            <AltitudeMeters>195.8000030517578125</AltitudeMeters>
            <DistanceMeters>12595.458336772</DistanceMeters>
          </Trackpoint>
          <Trackpoint>
            <Time>2020-02-15T09:26:02.000Z</Time>
            <Position>
              <LatitudeDegrees>41.948871910572052001953125</LatitudeDegrees>
              <LongitudeDegrees>2.85682861693203449249267578125</LongitudeDegrees>
            </Position>
            <AltitudeMeters>196.399993896484375</AltitudeMeters>
            <DistanceMeters>12598.108883786</DistanceMeters>
          </Trackpoint>
          <Trackpoint>
            <Time>2020-02-15T09:26:03.000Z</Time>
            <Position>
              <LatitudeDegrees>41.9488908536732196807861328125</LatitudeDegrees>
              <LongitudeDegrees>2.8568424470722675323486328125</LongitudeDegrees>
            </Position>
            <AltitudeMeters>196.8000030517578125</AltitudeMeters>
            <DistanceMeters>12600.509131434</DistanceMeters>
          </Trackpoint>
          <Trackpoint>
            <Time>2020-02-15T09:26:04.000Z</Time>
            <Position>
              <LatitudeDegrees>41.948908455669879913330078125</LatitudeDegrees>
              <LongitudeDegrees>2.85685309208929538726806640625</LongitudeDegrees>
            </Position>
            <AltitudeMeters>197</AltitudeMeters>
            <DistanceMeters>12602.65513679</DistanceMeters>
          </Trackpoint>
          <Trackpoint>
            <Time>2020-02-15T09:26:05.000Z</Time>
            <Position>
              <LatitudeDegrees>41.9489267282187938690185546875</LatitudeDegrees>
              <LongitudeDegrees>2.85686231218278408050537109375</LongitudeDegrees>
            </Position>
            <AltitudeMeters>197</AltitudeMeters>
            <DistanceMeters>12604.830397706</DistanceMeters>
          </Trackpoint>
          <Trackpoint>
            <Time>2020-02-15T09:26:06.000Z</Time>
            <Position>
              <LatitudeDegrees>41.94894709624350070953369140625</LatitudeDegrees>
              <LongitudeDegrees>2.856874801218509674072265625</LongitudeDegrees>
            </Position>
            <AltitudeMeters>197.1999969482421875</AltitudeMeters>
            <DistanceMeters>12607.321112969</DistanceMeters>
          </Trackpoint>
          <Trackpoint>
            <Time>2020-02-15T09:26:07.000Z</Time>
            <Position>
              <LatitudeDegrees>41.94896779954433441162109375</LatitudeDegrees>
              <LongitudeDegrees>2.8568877093493938446044921875</LongitudeDegrees>
            </Position>
            <AltitudeMeters>197.600006103515625</AltitudeMeters>
            <DistanceMeters>12609.862078269</DistanceMeters>
          </Trackpoint>
          <Trackpoint>
            <Time>2020-02-15T09:26:08.000Z</Time>
            <Position>
              <LatitudeDegrees>41.94898791611194610595703125</LatitudeDegrees>
              <LongitudeDegrees>2.85690036602318286895751953125</LongitudeDegrees>
            </Position>
            <AltitudeMeters>197.8000030517578125</AltitudeMeters>
            <DistanceMeters>12612.334599604</DistanceMeters>
          </Trackpoint>
          <Trackpoint>
            <Time>2020-02-15T09:26:09.000Z</Time>
            <Position>
              <LatitudeDegrees>41.9490085355937480926513671875</LatitudeDegrees>
              <LongitudeDegrees>2.8569125197827816009521484375</LongitudeDegrees>
            </Position>
            <AltitudeMeters>198.1999969482421875</AltitudeMeters>
            <DistanceMeters>12614.839774873</DistanceMeters>
          </Trackpoint>
          <Trackpoint>
            <Time>2020-02-15T09:26:10.000Z</Time>
            <Position>
              <LatitudeDegrees>41.949029155075550079345703125</LatitudeDegrees>
              <LongitudeDegrees>2.8569205664098262786865234375</LongitudeDegrees>
            </Position>
            <AltitudeMeters>198.1999969482421875</AltitudeMeters>
            <DistanceMeters>12617.228709429</DistanceMeters>
          </Trackpoint>
          <Trackpoint>
            <Time>2020-02-15T09:26:11.000Z</Time>
            <Position>
              <LatitudeDegrees>41.94904885254800319671630859375</LatitudeDegrees>
              <LongitudeDegrees>2.8569269366562366485595703125</LongitudeDegrees>
            </Position>
            <AltitudeMeters>198.600006103515625</AltitudeMeters>
            <DistanceMeters>12619.485468857</DistanceMeters>
          </Trackpoint>
          <Trackpoint>
            <Time>2020-02-15T09:26:12.000Z</Time>
            <Position>
              <LatitudeDegrees>41.94906829856336116790771484375</LatitudeDegrees>
              <LongitudeDegrees>2.85693087615072727203369140625</LongitudeDegrees>
            </Position>
            <AltitudeMeters>198.600006103515625</AltitudeMeters>
            <DistanceMeters>12621.675210986</DistanceMeters>
          </Trackpoint>
          <Trackpoint>
            <Time>2020-02-15T09:26:13.000Z</Time>
            <Position>
              <LatitudeDegrees>41.9490863196551799774169921875</LatitudeDegrees>
              <LongitudeDegrees>2.85693573765456676483154296875</LongitudeDegrees>
            </Position>
            <AltitudeMeters>198.600006103515625</AltitudeMeters>
            <DistanceMeters>12623.722149058</DistanceMeters>
          </Trackpoint>
          <Trackpoint>
            <Time>2020-02-15T09:26:14.000Z</Time>
            <Position>
              <LatitudeDegrees>41.94910316728055477142333984375</LatitudeDegrees>
              <LongitudeDegrees>2.8569383360445499420166015625</LongitudeDegrees>
            </Position>
            <AltitudeMeters>199</AltitudeMeters>
            <DistanceMeters>12625.608375481</DistanceMeters>
          </Trackpoint>
          <Trackpoint>
            <Time>2020-02-15T09:26:15.000Z</Time>
            <Position>
              <LatitudeDegrees>41.94912009872496128082275390625</LatitudeDegrees>
              <LongitudeDegrees>2.8569386713206768035888671875</LongitudeDegrees>
            </Position>
            <AltitudeMeters>199.399993896484375</AltitudeMeters>
            <DistanceMeters>12627.494601904</DistanceMeters>
          </Trackpoint>
          <Trackpoint>
            <Time>2020-02-15T09:26:16.000Z</Time>
            <Position>
              <LatitudeDegrees>41.949137113988399505615234375</LatitudeDegrees>
              <LongitudeDegrees>2.8569386713206768035888671875</LongitudeDegrees>
            </Position>
            <AltitudeMeters>199.600006103515625</AltitudeMeters>
            <DistanceMeters>12629.390378901</DistanceMeters>
          </Trackpoint>
          <Trackpoint>
            <Time>2020-02-15T09:26:17.000Z</Time>
            <Position>
              <LatitudeDegrees>41.9491530396044254302978515625</LatitudeDegrees>
              <LongitudeDegrees>2.85693758167326450347900390625</LongitudeDegrees>
            </Position>
            <AltitudeMeters>199.8000030517578125</AltitudeMeters>
            <DistanceMeters>12631.16816594</DistanceMeters>
          </Trackpoint>
          <Trackpoint>
            <Time>2020-02-15T09:26:18.000Z</Time>
            <Position>
              <LatitudeDegrees>41.9491691328585147857666015625</LatitudeDegrees>
              <LongitudeDegrees>2.85693389363586902618408203125</LongitudeDegrees>
            </Position>
            <AltitudeMeters>200.1999969482421875</AltitudeMeters>
            <DistanceMeters>12632.988615899</DistanceMeters>
          </Trackpoint>
          <Trackpoint>
            <Time>2020-02-15T09:26:19.000Z</Time>
            <Position>
              <LatitudeDegrees>41.94918665103614330291748046875</LatitudeDegrees>
              <LongitudeDegrees>2.85693020559847354888916015625</LongitudeDegrees>
            </Position>
            <AltitudeMeters>200.399993896484375</AltitudeMeters>
            <DistanceMeters>12634.963709068</DistanceMeters>
          </Trackpoint>
          <Trackpoint>
            <Time>2020-02-15T09:26:20.000Z</Time>
            <Position>
              <LatitudeDegrees>41.949204504489898681640625</LatitudeDegrees>
              <LongitudeDegrees>2.8569267690181732177734375</LongitudeDegrees>
            </Position>
            <AltitudeMeters>200.8000030517578125</AltitudeMeters>
            <DistanceMeters>12636.970550889</DistanceMeters>
          </Trackpoint>
          <Trackpoint>
            <Time>2020-02-15T09:26:21.000Z</Time>
            <Position>
              <LatitudeDegrees>41.949222274124622344970703125</LatitudeDegrees>
              <LongitudeDegrees>2.85692366771399974822998046875</LongitudeDegrees>
            </Position>
            <AltitudeMeters>201</AltitudeMeters>
            <DistanceMeters>12638.963848066</DistanceMeters>
          </Trackpoint>
          <Trackpoint>
            <Time>2020-02-15T09:26:22.000Z</Time>
            <Position>
              <LatitudeDegrees>41.94923928938806056976318359375</LatitudeDegrees>
              <LongitudeDegrees>2.85691796801984310150146484375</LongitudeDegrees>
            </Position>
            <AltitudeMeters>201.399993896484375</AltitudeMeters>
            <DistanceMeters>12640.915947515</DistanceMeters>
          </Trackpoint>
          <Trackpoint>
            <Time>2020-02-15T09:26:23.000Z</Time>
            <Position>
              <LatitudeDegrees>41.94925521500408649444580078125</LatitudeDegrees>
              <LongitudeDegrees>2.85691176541149616241455078125</LongitudeDegrees>
            </Position>
            <AltitudeMeters>201.8000030517578125</AltitudeMeters>
            <DistanceMeters>12642.761032559</DistanceMeters>
          </Trackpoint>
          <Trackpoint>
            <Time>2020-02-15T09:26:24.000Z</Time>
            <Position>
              <LatitudeDegrees>41.94927080534398555755615234375</LatitudeDegrees>
              <LongitudeDegrees>2.85690740682184696197509765625</LongitudeDegrees>
            </Position>
            <AltitudeMeters>202</AltitudeMeters>
            <DistanceMeters>12644.531184113</DistanceMeters>
          </Trackpoint>
          <Trackpoint>
            <Time>2020-02-15T09:26:25.000Z</Time>
            <Position>
              <LatitudeDegrees>41.94928564131259918212890625</LatitudeDegrees>
              <LongitudeDegrees>2.85690405406057834625244140625</LongitudeDegrees>
            </Position>
            <AltitudeMeters>202.600006103515625</AltitudeMeters>
            <DistanceMeters>12646.20430207</DistanceMeters>
          </Trackpoint>
          <Trackpoint>
            <Time>2020-02-15T09:26:26.000Z</Time>
            <Position>
              <LatitudeDegrees>41.94930131547152996063232421875</LatitudeDegrees>
              <LongitudeDegrees>2.85690338350832462310791015625</LongitudeDegrees>
            </Position>
            <AltitudeMeters>202.8000030517578125</AltitudeMeters>
            <DistanceMeters>12647.951346957</DistanceMeters>
          </Trackpoint>
          <Trackpoint>
            <Time>2020-02-15T09:26:27.000Z</Time>
            <Position>
              <LatitudeDegrees>41.9493149779736995697021484375</LatitudeDegrees>
              <LongitudeDegrees>2.85690237767994403839111328125</LongitudeDegrees>
            </Position>
            <AltitudeMeters>203.1999969482421875</AltitudeMeters>
            <DistanceMeters>12649.474741078</DistanceMeters>
          </Trackpoint>
          <Trackpoint>
            <Time>2020-02-15T09:26:28.000Z</Time>
            <Position>
              <LatitudeDegrees>41.949327550828456878662109375</LatitudeDegrees>
              <LongitudeDegrees>2.8569026291370391845703125</LongitudeDegrees>
            </Position>
            <AltitudeMeters>203.600006103515625</AltitudeMeters>
            <DistanceMeters>12650.874571992</DistanceMeters>
          </Trackpoint>
          <Trackpoint>
            <Time>2020-02-15T09:26:29.000Z</Time>
            <Position>
              <LatitudeDegrees>41.94933970458805561065673828125</LatitudeDegrees>
              <LongitudeDegrees>2.85690573044121265411376953125</LongitudeDegrees>
            </Position>
            <AltitudeMeters>204</AltitudeMeters>
            <DistanceMeters>12652.251639911</DistanceMeters>
          </Trackpoint>
          <Trackpoint>
            <Time>2020-02-15T09:26:30.000Z</Time>
            <Position>
              <LatitudeDegrees>41.94935244508087635040283203125</LatitudeDegrees>
              <LongitudeDegrees>2.8569081611931324005126953125</LongitudeDegrees>
            </Position>
            <AltitudeMeters>204.600006103515625</AltitudeMeters>
            <DistanceMeters>12653.683361725</DistanceMeters>
          </Trackpoint>
          <Trackpoint>
            <Time>2020-02-15T09:26:31.000Z</Time>
            <Position>
              <LatitudeDegrees>41.94936417974531650543212890625</LatitudeDegrees>
              <LongitudeDegrees>2.85691293887794017791748046875</LongitudeDegrees>
            </Position>
            <AltitudeMeters>204.8000030517578125</AltitudeMeters>
            <DistanceMeters>12655.047251657</DistanceMeters>
          </Trackpoint>
          <Trackpoint>
            <Time>2020-02-15T09:26:32.000Z</Time>
            <Position>
              <LatitudeDegrees>41.94937826134264469146728515625</LatitudeDegrees>
              <LongitudeDegrees>2.8569202311336994171142578125</LongitudeDegrees>
            </Position>
            <AltitudeMeters>205</AltitudeMeters>
            <DistanceMeters>12656.725758092</DistanceMeters>
          </Trackpoint>
          <Trackpoint>
            <Time>2020-02-15T09:26:33.000Z</Time>
            <Position>
              <LatitudeDegrees>41.9493927620351314544677734375</LatitudeDegrees>
              <LongitudeDegrees>2.856926433742046356201171875</LongitudeDegrees>
            </Position>
            <AltitudeMeters>205.399993896484375</AltitudeMeters>
            <DistanceMeters>12658.420327155</DistanceMeters>
          </Trackpoint>
          <Trackpoint>
            <Time>2020-02-15T09:26:34.000Z</Time>
            <Position>
              <LatitudeDegrees>41.94940474815666675567626953125</LatitudeDegrees>
              <LongitudeDegrees>2.85693355835974216461181640625</LongitudeDegrees>
            </Position>
            <AltitudeMeters>205.399993896484375</AltitudeMeters>
            <DistanceMeters>12659.883244827</DistanceMeters>
          </Trackpoint>
          <Trackpoint>
            <Time>2020-02-15T09:26:35.000Z</Time>
            <Position>
              <LatitudeDegrees>41.9494150578975677490234375</LatitudeDegrees>
              <LongitudeDegrees>2.8569400124251842498779296875</LongitudeDegrees>
            </Position>
            <AltitudeMeters>205.8000030517578125</AltitudeMeters>
            <DistanceMeters>12661.151059328</DistanceMeters>
          </Trackpoint>
          <Trackpoint>
            <Time>2020-02-15T09:26:36.000Z</Time>
            <Position>
              <LatitudeDegrees>41.9494256190955638885498046875</LatitudeDegrees>
              <LongitudeDegrees>2.85694755613803863525390625</LongitudeDegrees>
            </Position>
            <AltitudeMeters>206.1999969482421875</AltitudeMeters>
            <DistanceMeters>12662.481433329</DistanceMeters>
          </Trackpoint>
          <Trackpoint>
            <Time>2020-02-15T09:26:37.000Z</Time>
            <Position>
              <LatitudeDegrees>41.9494380243122577667236328125</LatitudeDegrees>
              <LongitudeDegrees>2.8569562733173370361328125</LongitudeDegrees>
            </Position>
            <AltitudeMeters>206.600006103515625</AltitudeMeters>
            <DistanceMeters>12664.039987326</DistanceMeters>
          </Trackpoint>
          <Trackpoint>
            <Time>2020-02-15T09:26:38.000Z</Time>
            <Position>
              <LatitudeDegrees>41.94945193827152252197265625</LatitudeDegrees>
              <LongitudeDegrees>2.8569654934108257293701171875</LongitudeDegrees>
            </Position>
            <AltitudeMeters>207</AltitudeMeters>
            <DistanceMeters>12665.768846865</DistanceMeters>
          </Trackpoint>
          <Trackpoint>
            <Time>2020-02-15T09:26:39.000Z</Time>
            <Position>
              <LatitudeDegrees>41.9494661875069141387939453125</LatitudeDegrees>
              <LongitudeDegrees>2.85697395913302898406982421875</LongitudeDegrees>
            </Position>
            <AltitudeMeters>207.600006103515625</AltitudeMeters>
            <DistanceMeters>12667.502921677</DistanceMeters>
          </Trackpoint>
          <Trackpoint>
            <Time>2020-02-15T09:26:40.000Z</Time>
            <Position>
              <LatitudeDegrees>41.94947867654263973236083984375</LatitudeDegrees>
              <LongitudeDegrees>2.85697882063686847686767578125</LongitudeDegrees>
            </Position>
            <AltitudeMeters>207.8000030517578125</AltitudeMeters>
            <DistanceMeters>12668.950325469</DistanceMeters>
          </Trackpoint>
          <Trackpoint>
            <Time>2020-02-15T09:26:41.000Z</Time>
            <Position>
              <LatitudeDegrees>41.94949309341609477996826171875</LatitudeDegrees>
              <LongitudeDegrees>2.8569825924932956695556640625</LongitudeDegrees>
            </Position>
            <AltitudeMeters>208.1999969482421875</AltitudeMeters>
            <DistanceMeters>12670.585226881</DistanceMeters>
          </Trackpoint>
          <Trackpoint>
            <Time>2020-02-15T09:26:42.000Z</Time>
            <Position>
              <LatitudeDegrees>41.94950784556567668914794921875</LatitudeDegrees>
              <LongitudeDegrees>2.85698854364454746246337890625</LongitudeDegrees>
            </Position>
            <AltitudeMeters>208.600006103515625</AltitudeMeters>
            <DistanceMeters>12672.300978879</DistanceMeters>
          </Trackpoint>
          <Trackpoint>
            <Time>2020-02-15T09:26:43.000Z</Time>
            <Position>
              <LatitudeDegrees>41.94952310062944889068603515625</LatitudeDegrees>
              <LongitudeDegrees>2.85699709318578243255615234375</LongitudeDegrees>
            </Position>
            <AltitudeMeters>209</AltitudeMeters>
            <DistanceMeters>12674.138708073</DistanceMeters>
          </Trackpoint>
          <Trackpoint>
            <Time>2020-02-15T09:26:44.000Z</Time>
            <Position>
              <LatitudeDegrees>41.9495386071503162384033203125</LatitudeDegrees>
              <LongitudeDegrees>2.857005894184112548828125</LongitudeDegrees>
            </Position>
            <AltitudeMeters>209.399993896484375</AltitudeMeters>
            <DistanceMeters>12676.010517268</DistanceMeters>
          </Trackpoint>
          <Trackpoint>
            <Time>2020-02-15T09:26:45.000Z</Time>
            <Position>
              <LatitudeDegrees>41.94955386221408843994140625</LatitudeDegrees>
              <LongitudeDegrees>2.85701553337275981903076171875</LongitudeDegrees>
            </Position>
            <AltitudeMeters>209.8000030517578125</AltitudeMeters>
            <DistanceMeters>12677.887144512</DistanceMeters>
          </Trackpoint>
          <Trackpoint>
            <Time>2020-02-15T09:26:46.000Z</Time>
            <Position>
              <LatitudeDegrees>41.94956668652594089508056640625</LatitudeDegrees>
              <LongitudeDegrees>2.8570238314568996429443359375</LongitudeDegrees>
            </Position>
            <AltitudeMeters>210.399993896484375</AltitudeMeters>
            <DistanceMeters>12679.471556469</DistanceMeters>
          </Trackpoint>
          <Trackpoint>
            <Time>2020-02-15T09:26:47.000Z</Time>
            <Position>
              <LatitudeDegrees>41.9495791755616664886474609375</LatitudeDegrees>
              <LongitudeDegrees>2.85702995024621486663818359375</LongitudeDegrees>
            </Position>
            <AltitudeMeters>210.600006103515625</AltitudeMeters>
            <DistanceMeters>12680.94982522</DistanceMeters>
          </Trackpoint>
          <Trackpoint>
            <Time>2020-02-15T09:26:48.000Z</Time>
            <Position>
              <LatitudeDegrees>41.94959283806383609771728515625</LatitudeDegrees>
              <LongitudeDegrees>2.85703632049262523651123046875</LongitudeDegrees>
            </Position>
            <AltitudeMeters>211</AltitudeMeters>
            <DistanceMeters>12682.559679853</DistanceMeters>
          </Trackpoint>
          <Trackpoint>
            <Time>2020-02-15T09:26:49.000Z</Time>
            <Position>
              <LatitudeDegrees>41.949605830013751983642578125</LatitudeDegrees>
              <LongitudeDegrees>2.85704386420547962188720703125</LongitudeDegrees>
            </Position>
            <AltitudeMeters>211.399993896484375</AltitudeMeters>
            <DistanceMeters>12684.132651863</DistanceMeters>
          </Trackpoint>
          <Trackpoint>
            <Time>2020-02-15T09:26:50.000Z</Time>
            <Position>
              <LatitudeDegrees>41.949617229402065277099609375</LatitudeDegrees>
              <LongitudeDegrees>2.8570528328418731689453125</LongitudeDegrees>
            </Position>
            <AltitudeMeters>211.600006103515625</AltitudeMeters>
            <DistanceMeters>12685.604799392</DistanceMeters>
          </Trackpoint>
          <Trackpoint>
            <Time>2020-02-15T09:26:51.000Z</Time>
            <Position>
              <LatitudeDegrees>41.94962762296199798583984375</LatitudeDegrees>
              <LongitudeDegrees>2.8570640645921230316162109375</LongitudeDegrees>
            </Position>
            <AltitudeMeters>212</AltitudeMeters>
            <DistanceMeters>12687.089164122</DistanceMeters>
          </Trackpoint>
          <Trackpoint>
            <Time>2020-02-15T09:26:52.000Z</Time>
            <Position>
              <LatitudeDegrees>41.94963944144546985626220703125</LatitudeDegrees>
              <LongitudeDegrees>2.857075296342372894287109375</LongitudeDegrees>
            </Position>
            <AltitudeMeters>212.1999969482421875</AltitudeMeters>
            <DistanceMeters>12688.701820941</DistanceMeters>
          </Trackpoint>
          <Trackpoint>
            <Time>2020-02-15T09:26:53.000Z</Time>
            <Position>
              <LatitudeDegrees>41.94964966736733913421630859375</LatitudeDegrees>
              <LongitudeDegrees>2.8570868633687496185302734375</LongitudeDegrees>
            </Position>
            <AltitudeMeters>212.600006103515625</AltitudeMeters>
            <DistanceMeters>12690.192256718</DistanceMeters>
          </Trackpoint>
          <Trackpoint>
            <Time>2020-02-15T09:26:54.000Z</Time>
            <Position>
              <LatitudeDegrees>41.949660815298557281494140625</LatitudeDegrees>
              <LongitudeDegrees>2.8570996038615703582763671875</LongitudeDegrees>
            </Position>
            <AltitudeMeters>213</AltitudeMeters>
            <DistanceMeters>12691.821625453</DistanceMeters>
          </Trackpoint>
          <Trackpoint>
            <Time>2020-02-15T09:26:55.000Z</Time>
            <Position>
              <LatitudeDegrees>41.9496740587055683135986328125</LatitudeDegrees>
              <LongitudeDegrees>2.85711192525923252105712890625</LongitudeDegrees>
            </Position>
            <AltitudeMeters>213</AltitudeMeters>
            <DistanceMeters>12693.614585914</DistanceMeters>
          </Trackpoint>
          <Trackpoint>
            <Time>2020-02-15T09:26:56.000Z</Time>
            <Position>
              <LatitudeDegrees>41.94968688301742076873779296875</LatitudeDegrees>
              <LongitudeDegrees>2.857120223343372344970703125</LongitudeDegrees>
            </Position>
            <AltitudeMeters>213.1999969482421875</AltitudeMeters>
            <DistanceMeters>12695.201844976</DistanceMeters>
          </Trackpoint>
          <Trackpoint>
            <Time>2020-02-15T09:26:57.000Z</Time>
            <Position>
              <LatitudeDegrees>41.9496995396912097930908203125</LatitudeDegrees>
              <LongitudeDegrees>2.8571294434368610382080078125</LongitudeDegrees>
            </Position>
            <AltitudeMeters>213.600006103515625</AltitudeMeters>
            <DistanceMeters>12696.803263631</DistanceMeters>
          </Trackpoint>
          <Trackpoint>
            <Time>2020-02-15T09:26:58.000Z</Time>
            <Position>
              <LatitudeDegrees>41.9497095979750156402587890625</LatitudeDegrees>
              <LongitudeDegrees>2.857141681015491485595703125</LongitudeDegrees>
            </Position>
            <AltitudeMeters>214.1999969482421875</AltitudeMeters>
            <DistanceMeters>12698.30876992</DistanceMeters>
          </Trackpoint>
          <Trackpoint>
            <Time>2020-02-15T09:26:59.000Z</Time>
            <Position>
              <LatitudeDegrees>41.9497168064117431640625</LatitudeDegrees>
              <LongitudeDegrees>2.85715299658477306365966796875</LongitudeDegrees>
            </Position>
            <AltitudeMeters>214.399993896484375</AltitudeMeters>
            <DistanceMeters>12699.540456911</DistanceMeters>
          </Trackpoint>
          <Trackpoint>
            <Time>2020-02-15T09:27:00.000Z</Time>
            <Position>
              <LatitudeDegrees>41.9497256912291049957275390625</LatitudeDegrees>
              <LongitudeDegrees>2.857163138687610626220703125</LongitudeDegrees>
            </Position>
            <AltitudeMeters>214.8000030517578125</AltitudeMeters>
            <DistanceMeters>12700.836448508</DistanceMeters>
          </Trackpoint>
          <Trackpoint>
            <Time>2020-02-15T09:27:01.000Z</Time>
            <Position>
              <LatitudeDegrees>41.94973750971257686614990234375</LatitudeDegrees>
              <LongitudeDegrees>2.857173196971416473388671875</LongitudeDegrees>
            </Position>
            <AltitudeMeters>215</AltitudeMeters>
            <DistanceMeters>12702.392102867</DistanceMeters>
          </Trackpoint>
          <Trackpoint>
            <Time>2020-02-15T09:27:02.000Z</Time>
            <Position>
              <LatitudeDegrees>41.94975075311958789825439453125</LatitudeDegrees>
              <LongitudeDegrees>2.85718250088393688201904296875</LongitudeDegrees>
            </Position>
            <AltitudeMeters>215.399993896484375</AltitudeMeters>
            <DistanceMeters>12704.054391468</DistanceMeters>
          </Trackpoint>
          <Trackpoint>
            <Time>2020-02-15T09:27:03.000Z</Time>
            <Position>
              <LatitudeDegrees>41.94976181723177433013916015625</LatitudeDegrees>
              <LongitudeDegrees>2.8571934811770915985107421875</LongitudeDegrees>
            </Position>
            <AltitudeMeters>215.8000030517578125</AltitudeMeters>
            <DistanceMeters>12705.583701704</DistanceMeters>
          </Trackpoint>
          <Trackpoint>
            <Time>2020-02-15T09:27:04.000Z</Time>
            <Position>
              <LatitudeDegrees>41.94977254606783390045166015625</LatitudeDegrees>
              <LongitudeDegrees>2.85720630548894405364990234375</LongitudeDegrees>
            </Position>
            <AltitudeMeters>216.1999969482421875</AltitudeMeters>
            <DistanceMeters>12707.179471599</DistanceMeters>
          </Trackpoint>
          <Trackpoint>
            <Time>2020-02-15T09:27:05.000Z</Time>
            <Position>
              <LatitudeDegrees>41.949784196913242340087890625</LatitudeDegrees>
              <LongitudeDegrees>2.857218123972415924072265625</LongitudeDegrees>
            </Position>
            <AltitudeMeters>216.399993896484375</AltitudeMeters>
            <DistanceMeters>12708.803288806</DistanceMeters>
          </Trackpoint>
          <Trackpoint>
            <Time>2020-02-15T09:27:06.000Z</Time>
            <Position>
              <LatitudeDegrees>41.94979794323444366455078125</LatitudeDegrees>
              <LongitudeDegrees>2.857229523360729217529296875</LongitudeDegrees>
            </Position>
            <AltitudeMeters>216.600006103515625</AltitudeMeters>
            <DistanceMeters>12710.601278619</DistanceMeters>
          </Trackpoint>
          <Trackpoint>
            <Time>2020-02-15T09:27:07.000Z</Time>
            <Position>
              <LatitudeDegrees>41.94981160573661327362060546875</LatitudeDegrees>
              <LongitudeDegrees>2.85724100656807422637939453125</LongitudeDegrees>
            </Position>
            <AltitudeMeters>217.1999969482421875</AltitudeMeters>
            <DistanceMeters>12712.39423908</DistanceMeters>
          </Trackpoint>
          <Trackpoint>
            <Time>2020-02-15T09:27:08.000Z</Time>
            <Position>
              <LatitudeDegrees>41.9498252682387828826904296875</LatitudeDegrees>
              <LongitudeDegrees>2.85725374706089496612548828125</LongitudeDegrees>
            </Position>
            <AltitudeMeters>217.399993896484375</AltitudeMeters>
            <DistanceMeters>12714.246650764</DistanceMeters>
          </Trackpoint>
          <Trackpoint>
            <Time>2020-02-15T09:27:09.000Z</Time>
            <Position>
              <LatitudeDegrees>41.94983826018869876861572265625</LatitudeDegrees>
              <LongitudeDegrees>2.85726581700146198272705078125</LongitudeDegrees>
            </Position>
            <AltitudeMeters>217.8000030517578125</AltitudeMeters>
            <DistanceMeters>12716.00400279</DistanceMeters>
          </Trackpoint>
          <Trackpoint>
            <Time>2020-02-15T09:27:10.000Z</Time>
            <Position>
              <LatitudeDegrees>41.949849240481853485107421875</LatitudeDegrees>
              <LongitudeDegrees>2.8572759591042995452880859375</LongitudeDegrees>
            </Position>
            <AltitudeMeters>218</AltitudeMeters>
            <DistanceMeters>12717.482271541</DistanceMeters>
          </Trackpoint>
          <Trackpoint>
            <Time>2020-02-15T09:27:11.000Z</Time>
            <Position>
              <LatitudeDegrees>41.94985904730856418609619140625</LatitudeDegrees>
              <LongitudeDegrees>2.8572870232164859771728515625</LongitudeDegrees>
            </Position>
            <AltitudeMeters>218.1999969482421875</AltitudeMeters>
            <DistanceMeters>12718.904501172</DistanceMeters>
          </Trackpoint>
          <Trackpoint>
            <Time>2020-02-15T09:27:12.000Z</Time>
            <Position>
              <LatitudeDegrees>41.94986960850656032562255859375</LatitudeDegrees>
              <LongitudeDegrees>2.85729967989027500152587890625</LongitudeDegrees>
            </Position>
            <AltitudeMeters>218.399993896484375</AltitudeMeters>
            <DistanceMeters>12720.483203519</DistanceMeters>
          </Trackpoint>
          <Trackpoint>
            <Time>2020-02-15T09:27:13.000Z</Time>
            <Position>
              <LatitudeDegrees>41.9498812593519687652587890625</LatitudeDegrees>
              <LongitudeDegrees>2.8573088161647319793701171875</LongitudeDegrees>
            </Position>
            <AltitudeMeters>218.8000030517578125</AltitudeMeters>
            <DistanceMeters>12721.985707798</DistanceMeters>
          </Trackpoint>
          <Trackpoint>
            <Time>2020-02-15T09:27:14.000Z</Time>
            <Position>
              <LatitudeDegrees>41.94989156909286975860595703125</LatitudeDegrees>
              <LongitudeDegrees>2.85731845535337924957275390625</LongitudeDegrees>
            </Position>
            <AltitudeMeters>219</AltitudeMeters>
            <DistanceMeters>12723.382309571</DistanceMeters>
          </Trackpoint>
          <Trackpoint>
            <Time>2020-02-15T09:27:15.000Z</Time>
            <Position>
              <LatitudeDegrees>41.9499017111957073211669921875</LatitudeDegrees>
              <LongitudeDegrees>2.8573292680084705352783203125</LongitudeDegrees>
            </Position>
            <AltitudeMeters>219.399993896484375</AltitudeMeters>
            <DistanceMeters>12724.823461049</DistanceMeters>
          </Trackpoint>
          <Trackpoint>
            <Time>2020-02-15T09:27:16.000Z</Time>
            <Position>
              <LatitudeDegrees>41.949912942945957183837890625</LatitudeDegrees>
              <LongitudeDegrees>2.857339493930339813232421875</LongitudeDegrees>
            </Position>
            <AltitudeMeters>219.399993896484375</AltitudeMeters>
            <DistanceMeters>12726.331963374</DistanceMeters>
          </Trackpoint>
          <Trackpoint>
            <Time>2020-02-15T09:27:17.000Z</Time>
            <Position>
              <LatitudeDegrees>41.94992476142942905426025390625</LatitudeDegrees>
              <LongitudeDegrees>2.85734997130930423736572265625</LongitudeDegrees>
            </Position>
            <AltitudeMeters>219.600006103515625</AltitudeMeters>
            <DistanceMeters>12727.91066572</DistanceMeters>
          </Trackpoint>
          <Trackpoint>
            <Time>2020-02-15T09:27:18.000Z</Time>
            <Position>
              <LatitudeDegrees>41.94993565790355205535888671875</LatitudeDegrees>
              <LongitudeDegrees>2.85735885612666606903076171875</LongitudeDegrees>
            </Position>
            <AltitudeMeters>219.8000030517578125</AltitudeMeters>
            <DistanceMeters>12729.326531876</DistanceMeters>
          </Trackpoint>
          <Trackpoint>
            <Time>2020-02-15T09:27:19.000Z</Time>
            <Position>
              <LatitudeDegrees>41.949946470558643341064453125</LatitudeDegrees>
              <LongitudeDegrees>2.85736723802983760833740234375</LongitudeDegrees>
            </Position>
            <AltitudeMeters>220</AltitudeMeters>
            <DistanceMeters>12730.716652863</DistanceMeters>
          </Trackpoint>
          <Trackpoint>
            <Time>2020-02-15T09:27:20.000Z</Time>
            <Position>
              <LatitudeDegrees>41.949958540499210357666015625</LatitudeDegrees>
              <LongitudeDegrees>2.857378385961055755615234375</LongitudeDegrees>
            </Position>
            <AltitudeMeters>220.399993896484375</AltitudeMeters>
            <DistanceMeters>12732.346021598</DistanceMeters>
          </Trackpoint>
          <Trackpoint>
            <Time>2020-02-15T09:27:21.000Z</Time>
            <Position>
              <LatitudeDegrees>41.94997069425880908966064453125</LatitudeDegrees>
              <LongitudeDegrees>2.8573922999203205108642578125</LongitudeDegrees>
            </Position>
            <AltitudeMeters>220.8000030517578125</AltitudeMeters>
            <DistanceMeters>12734.123808637</DistanceMeters>
          </Trackpoint>
          <Trackpoint>
            <Time>2020-02-15T09:27:22.000Z</Time>
            <Position>
              <LatitudeDegrees>41.94998142309486865997314453125</LatitudeDegrees>
              <LongitudeDegrees>2.85740613006055355072021484375</LongitudeDegrees>
            </Position>
            <AltitudeMeters>221</AltitudeMeters>
            <DistanceMeters>12735.777928694</DistanceMeters>
          </Trackpoint>
          <Trackpoint>
            <Time>2020-02-15T09:27:23.000Z</Time>
            <Position>
              <LatitudeDegrees>41.9499942474067211151123046875</LatitudeDegrees>
              <LongitudeDegrees>2.8574181161820888519287109375</LongitudeDegrees>
            </Position>
            <AltitudeMeters>221.399993896484375</AltitudeMeters>
            <DistanceMeters>12737.517203143</DistanceMeters>
          </Trackpoint>
          <Trackpoint>
            <Time>2020-02-15T09:27:24.000Z</Time>
            <Position>
              <LatitudeDegrees>41.95000807754695415496826171875</LatitudeDegrees>
              <LongitudeDegrees>2.85742926411330699920654296875</LongitudeDegrees>
            </Position>
            <AltitudeMeters>221.600006103515625</AltitudeMeters>
            <DistanceMeters>12739.310163603</DistanceMeters>
          </Trackpoint>
          <Trackpoint>
            <Time>2020-02-15T09:27:25.000Z</Time>
            <Position>
              <LatitudeDegrees>41.9500207342207431793212890625</LatitudeDegrees>
              <LongitudeDegrees>2.85744116641581058502197265625</LongitudeDegrees>
            </Position>
            <AltitudeMeters>222</AltitudeMeters>
            <DistanceMeters>12741.031170598</DistanceMeters>
          </Trackpoint>
          <Trackpoint>
            <Time>2020-02-15T09:27:26.000Z</Time>
            <Position>
              <LatitudeDegrees>41.95003339089453220367431640625</LatitudeDegrees>
              <LongitudeDegrees>2.857454828917980194091796875</LongitudeDegrees>
            </Position>
            <AltitudeMeters>222.1999969482421875</AltitudeMeters>
            <DistanceMeters>12742.839177144</DistanceMeters>
          </Trackpoint>
          <Trackpoint>
            <Time>2020-02-15T09:27:27.000Z</Time>
            <Position>
              <LatitudeDegrees>41.95004495792090892791748046875</LatitudeDegrees>
              <LongitudeDegrees>2.8574670664966106414794921875</LongitudeDegrees>
            </Position>
            <AltitudeMeters>222.399993896484375</AltitudeMeters>
            <DistanceMeters>12744.474078556</DistanceMeters>
          </Trackpoint>
          <Trackpoint>
            <Time>2020-02-15T09:27:28.000Z</Time>
            <Position>
              <LatitudeDegrees>41.95005602203309535980224609375</LatitudeDegrees>
              <LongitudeDegrees>2.85747670568525791168212890625</LongitudeDegrees>
            </Position>
            <AltitudeMeters>222.600006103515625</AltitudeMeters>
            <DistanceMeters>12745.940079304</DistanceMeters>
          </Trackpoint>
          <Trackpoint>
            <Time>2020-02-15T09:27:29.000Z</Time>
            <Position>
              <LatitudeDegrees>41.9500670023262500762939453125</LatitudeDegrees>
              <LongitudeDegrees>2.8574858419597148895263671875</LongitudeDegrees>
            </Position>
            <AltitudeMeters>222.8000030517578125</AltitudeMeters>
            <DistanceMeters>12747.381230782</DistanceMeters>
          </Trackpoint>
          <Trackpoint>
            <Time>2020-02-15T09:27:30.000Z</Time>
            <Position>
              <LatitudeDegrees>41.95007714442908763885498046875</LatitudeDegrees>
              <LongitudeDegrees>2.85749414004385471343994140625</LongitudeDegrees>
            </Position>
            <AltitudeMeters>223.1999969482421875</AltitudeMeters>
            <DistanceMeters>12748.704799757</DistanceMeters>
          </Trackpoint>
          <Trackpoint>
            <Time>2020-02-15T09:27:31.000Z</Time>
            <Position>
              <LatitudeDegrees>41.9500882923603057861328125</LatitudeDegrees>
              <LongitudeDegrees>2.85750486887991428375244140625</LongitudeDegrees>
            </Position>
            <AltitudeMeters>223.399993896484375</AltitudeMeters>
            <DistanceMeters>12750.231154801</DistanceMeters>
          </Trackpoint>
          <Trackpoint>
            <Time>2020-02-15T09:27:32.000Z</Time>
            <Position>
              <LatitudeDegrees>41.95009960792958736419677734375</LatitudeDegrees>
              <LongitudeDegrees>2.8575166873633861541748046875</LongitudeDegrees>
            </Position>
            <AltitudeMeters>223.600006103515625</AltitudeMeters>
            <DistanceMeters>12751.826924696</DistanceMeters>
          </Trackpoint>
          <Trackpoint>
            <Time>2020-02-15T09:27:33.000Z</Time>
            <Position>
              <LatitudeDegrees>41.9501102529466152191162109375</LatitudeDegrees>
              <LongitudeDegrees>2.8575300984084606170654296875</LongitudeDegrees>
            </Position>
            <AltitudeMeters>224</AltitudeMeters>
            <DistanceMeters>12753.456293431</DistanceMeters>
          </Trackpoint>
          <Trackpoint>
            <Time>2020-02-15T09:27:34.000Z</Time>
            <Position>
              <LatitudeDegrees>41.9501231610774993896484375</LatitudeDegrees>
              <LongitudeDegrees>2.85754392854869365692138671875</LongitudeDegrees>
            </Position>
            <AltitudeMeters>224.1999969482421875</AltitudeMeters>
            <DistanceMeters>12755.294022625</DistanceMeters>
          </Trackpoint>
          <Trackpoint>
            <Time>2020-02-15T09:27:35.000Z</Time>
            <Position>
              <LatitudeDegrees>41.95013648830354213714599609375</LatitudeDegrees>
              <LongitudeDegrees>2.85755884833633899688720703125</LongitudeDegrees>
            </Position>
            <AltitudeMeters>224.399993896484375</AltitudeMeters>
            <DistanceMeters>12757.225193661</DistanceMeters>
          </Trackpoint>
          <Trackpoint>
            <Time>2020-02-15T09:27:36.000Z</Time>
            <Position>
              <LatitudeDegrees>41.95014637894928455352783203125</LatitudeDegrees>
              <LongitudeDegrees>2.85757661797106266021728515625</LongitudeDegrees>
            </Position>
            <AltitudeMeters>224.600006103515625</AltitudeMeters>
            <DistanceMeters>12759.062922855</DistanceMeters>
          </Trackpoint>
          <Trackpoint>
            <Time>2020-02-15T09:27:37.000Z</Time>
            <Position>
              <LatitudeDegrees>41.95015442557632923126220703125</LatitudeDegrees>
              <LongitudeDegrees>2.857594303786754608154296875</LongitudeDegrees>
            </Position>
            <AltitudeMeters>224.8000030517578125</AltitudeMeters>
            <DistanceMeters>12760.778674854</DistanceMeters>
          </Trackpoint>
          <Trackpoint>
            <Time>2020-02-15T09:27:38.000Z</Time>
            <Position>
              <LatitudeDegrees>41.950161717832088470458984375</LatitudeDegrees>
              <LongitudeDegrees>2.8576108999550342559814453125</LongitudeDegrees>
            </Position>
            <AltitudeMeters>224.8000030517578125</AltitudeMeters>
            <DistanceMeters>12762.371612857</DistanceMeters>
          </Trackpoint>
          <Trackpoint>
            <Time>2020-02-15T09:27:39.000Z</Time>
            <Position>
              <LatitudeDegrees>41.95017051883041858673095703125</LatitudeDegrees>
              <LongitudeDegrees>2.85762707702815532684326171875</LongitudeDegrees>
            </Position>
            <AltitudeMeters>225</AltitudeMeters>
            <DistanceMeters>12764.033901457</DistanceMeters>
          </Trackpoint>
          <Trackpoint>
            <Time>2020-02-15T09:27:40.000Z</Time>
            <Position>
              <LatitudeDegrees>41.95017990656197071075439453125</LatitudeDegrees>
              <LongitudeDegrees>2.85764493048191070556640625</LongitudeDegrees>
            </Position>
            <AltitudeMeters>225.1999969482421875</AltitudeMeters>
            <DistanceMeters>12765.846895618</DistanceMeters>
          </Trackpoint>
          <Trackpoint>
            <Time>2020-02-15T09:27:41.000Z</Time>
            <Position>
              <LatitudeDegrees>41.95018820464611053466796875</LatitudeDegrees>
              <LongitudeDegrees>2.85766177810728549957275390625</LongitudeDegrees>
            </Position>
            <AltitudeMeters>225.600006103515625</AltitudeMeters>
            <DistanceMeters>12767.520013575</DistanceMeters>
          </Trackpoint>
          <Trackpoint>
            <Time>2020-02-15T09:27:42.000Z</Time>
            <Position>
              <LatitudeDegrees>41.95019750855863094329833984375</LatitudeDegrees>
              <LongitudeDegrees>2.85767711699008941650390625</LongitudeDegrees>
            </Position>
            <AltitudeMeters>225.8000030517578125</AltitudeMeters>
            <DistanceMeters>12769.157674316</DistanceMeters>
          </Trackpoint>
          <Trackpoint>
            <Time>2020-02-15T09:27:43.000Z</Time>
            <Position>
              <LatitudeDegrees>41.95020941086113452911376953125</LatitudeDegrees>
              <LongitudeDegrees>2.85769429989159107208251953125</LongitudeDegrees>
            </Position>
            <AltitudeMeters>226</AltitudeMeters>
            <DistanceMeters>12771.100500081</DistanceMeters>
          </Trackpoint>
          <Trackpoint>
            <Time>2020-02-15T09:27:44.000Z</Time>
            <Position>
              <LatitudeDegrees>41.95022248663008213043212890625</LatitudeDegrees>
              <LongitudeDegrees>2.8577126562595367431640625</LongitudeDegrees>
            </Position>
            <AltitudeMeters>226.1999969482421875</AltitudeMeters>
            <DistanceMeters>12773.204006073</DistanceMeters>
          </Trackpoint>
          <Trackpoint>
            <Time>2020-02-15T09:27:45.000Z</Time>
            <Position>
              <LatitudeDegrees>41.9502346403896808624267578125</LatitudeDegrees>
              <LongitudeDegrees>2.8577269054949283599853515625</LongitudeDegrees>
            </Position>
            <AltitudeMeters>226.399993896484375</AltitudeMeters>
            <DistanceMeters>12774.999482971</DistanceMeters>
          </Trackpoint>
          <Trackpoint>
            <Time>2020-02-15T09:27:46.000Z</Time>
            <Position>
              <LatitudeDegrees>41.9502473808825016021728515625</LatitudeDegrees>
              <LongitudeDegrees>2.85773939453065395355224609375</LongitudeDegrees>
            </Position>
            <AltitudeMeters>226.399993896484375</AltitudeMeters>
            <DistanceMeters>12776.756834997</DistanceMeters>
          </Trackpoint>
          <Trackpoint>
            <Time>2020-02-15T09:27:47.000Z</Time>
            <Position>
              <LatitudeDegrees>41.950260959565639495849609375</LatitudeDegrees>
              <LongitudeDegrees>2.85775179974734783172607421875</LongitudeDegrees>
            </Position>
            <AltitudeMeters>226.8000030517578125</AltitudeMeters>
            <DistanceMeters>12778.584710344</DistanceMeters>
          </Trackpoint>
          <Trackpoint>
            <Time>2020-02-15T09:27:48.000Z</Time>
            <Position>
              <LatitudeDegrees>41.9502778910100460052490234375</LatitudeDegrees>
              <LongitudeDegrees>2.85776252858340740203857421875</LongitudeDegrees>
            </Position>
            <AltitudeMeters>226.8000030517578125</AltitudeMeters>
            <DistanceMeters>12780.666641345</DistanceMeters>
          </Trackpoint>
          <Trackpoint>
            <Time>2020-02-15T09:27:49.000Z</Time>
            <Position>
              <LatitudeDegrees>41.9502939842641353607177734375</LatitudeDegrees>
              <LongitudeDegrees>2.85776965320110321044921875</LongitudeDegrees>
            </Position>
            <AltitudeMeters>227</AltitudeMeters>
            <DistanceMeters>12782.552867768</DistanceMeters>
          </Trackpoint>
          <Trackpoint>
            <Time>2020-02-15T09:27:50.000Z</Time>
            <Position>
              <LatitudeDegrees>41.9503097422420978546142578125</LatitudeDegrees>
              <LongitudeDegrees>2.8577812202274799346923828125</LongitudeDegrees>
            </Position>
            <AltitudeMeters>227.1999969482421875</AltitudeMeters>
            <DistanceMeters>12784.552948732</DistanceMeters>
          </Trackpoint>
          <Trackpoint>
            <Time>2020-02-15T09:27:51.000Z</Time>
            <Position>
              <LatitudeDegrees>41.95032223127782344818115234375</LatitudeDegrees>
              <LongitudeDegrees>2.85779588855803012847900390625</LongitudeDegrees>
            </Position>
            <AltitudeMeters>227.600006103515625</AltitudeMeters>
            <DistanceMeters>12786.398033776</DistanceMeters>
          </Trackpoint>
          <Trackpoint>
            <Time>2020-02-15T09:27:52.000Z</Time>
            <Position>
              <LatitudeDegrees>41.95033430121839046478271484375</LatitudeDegrees>
              <LongitudeDegrees>2.85780846141278743743896484375</LongitudeDegrees>
            </Position>
            <AltitudeMeters>227.8000030517578125</AltitudeMeters>
            <DistanceMeters>12788.097923321</DistanceMeters>
          </Trackpoint>
          <Trackpoint>
            <Time>2020-02-15T09:27:53.000Z</Time>
            <Position>
              <LatitudeDegrees>41.95034737698733806610107421875</LatitudeDegrees>
              <LongitudeDegrees>2.85782069899141788482666015625</LongitudeDegrees>
            </Position>
            <AltitudeMeters>227.8000030517578125</AltitudeMeters>
            <DistanceMeters>12789.870623691</DistanceMeters>
          </Trackpoint>
          <Trackpoint>
            <Time>2020-02-15T09:27:55.000Z</Time>
            <Position>
              <LatitudeDegrees>41.9503724388778209686279296875</LatitudeDegrees>
              <LongitudeDegrees>2.8578442521393299102783203125</LongitudeDegrees>
            </Position>
            <AltitudeMeters>228</AltitudeMeters>
            <DistanceMeters>12793.27571079</DistanceMeters>
          </Trackpoint>
          <Trackpoint>
            <Time>2020-02-15T09:27:56.000Z</Time>
            <Position>
              <LatitudeDegrees>41.95038375444710254669189453125</LatitudeDegrees>
              <LongitudeDegrees>2.85785556770861148834228515625</LongitudeDegrees>
            </Position>
            <AltitudeMeters>228</AltitudeMeters>
            <DistanceMeters>12794.84580979</DistanceMeters>
          </Trackpoint>
          <Trackpoint>
            <Time>2020-02-15T09:27:57.000Z</Time>
            <Position>
              <LatitudeDegrees>41.95039615966379642486572265625</LatitudeDegrees>
              <LongitudeDegrees>2.85786688327789306640625</LongitudeDegrees>
            </Position>
            <AltitudeMeters>228.1999969482421875</AltitudeMeters>
            <DistanceMeters>12796.513521859</DistanceMeters>
          </Trackpoint>
          <Trackpoint>
            <Time>2020-02-15T09:27:59.000Z</Time>
            <Position>
              <LatitudeDegrees>41.95042046718299388885498046875</LatitudeDegrees>
              <LongitudeDegrees>2.85788691602647304534912109375</LongitudeDegrees>
            </Position>
            <AltitudeMeters>228.1999969482421875</AltitudeMeters>
            <DistanceMeters>12799.688039981</DistanceMeters>
          </Trackpoint>
          <Trackpoint>
            <Time>2020-02-15T09:28:00.000Z</Time>
            <Position>
              <LatitudeDegrees>41.95043471641838550567626953125</LatitudeDegrees>
              <LongitudeDegrees>2.85789798013865947723388671875</LongitudeDegrees>
            </Position>
            <AltitudeMeters>228.399993896484375</AltitudeMeters>
            <DistanceMeters>12801.520848874</DistanceMeters>
          </Trackpoint>
          <Trackpoint>
            <Time>2020-02-15T09:28:01.000Z</Time>
            <Position>
              <LatitudeDegrees>41.95044863037765026092529296875</LatitudeDegrees>
              <LongitudeDegrees>2.8579082898795604705810546875</LongitudeDegrees>
            </Position>
            <AltitudeMeters>228.1999969482421875</AltitudeMeters>
            <DistanceMeters>12803.288447938</DistanceMeters>
          </Trackpoint>
          <Trackpoint>
            <Time>2020-02-15T09:28:02.000Z</Time>
            <Position>
              <LatitudeDegrees>41.9504622928798198699951171875</LatitudeDegrees>
              <LongitudeDegrees>2.8579176776111125946044921875</LongitudeDegrees>
            </Position>
            <AltitudeMeters>228.1999969482421875</AltitudeMeters>
            <DistanceMeters>12804.996287126</DistanceMeters>
          </Trackpoint>
          <Trackpoint>
            <Time>2020-02-15T09:28:03.000Z</Time>
            <Position>
              <LatitudeDegrees>41.9504753686487674713134765625</LatitudeDegrees>
              <LongitudeDegrees>2.85792790353298187255859375</LongitudeDegrees>
            </Position>
            <AltitudeMeters>228.399993896484375</AltitudeMeters>
            <DistanceMeters>12806.680164794</DistanceMeters>
          </Trackpoint>
          <Trackpoint>
            <Time>2020-02-15T09:28:04.000Z</Time>
            <Position>
              <LatitudeDegrees>41.95048651657998561859130859375</LatitudeDegrees>
              <LongitudeDegrees>2.85793972201645374298095703125</LongitudeDegrees>
            </Position>
            <AltitudeMeters>228.399993896484375</AltitudeMeters>
            <DistanceMeters>12808.258867141</DistanceMeters>
          </Trackpoint>
          <Trackpoint>
            <Time>2020-02-15T09:28:05.000Z</Time>
            <Position>
              <LatitudeDegrees>41.95049908943474292755126953125</LatitudeDegrees>
              <LongitudeDegrees>2.85794802010059356689453125</LongitudeDegrees>
            </Position>
            <AltitudeMeters>228.399993896484375</AltitudeMeters>
            <DistanceMeters>12809.8145215</DistanceMeters>
          </Trackpoint>
          <Trackpoint>
            <Time>2020-02-15T09:28:06.000Z</Time>
            <Position>
              <LatitudeDegrees>41.9505142606794834136962890625</LatitudeDegrees>
              <LongitudeDegrees>2.8579580783843994140625</LongitudeDegrees>
            </Position>
            <AltitudeMeters>228.600006103515625</AltitudeMeters>
            <DistanceMeters>12811.695954456</DistanceMeters>
          </Trackpoint>
          <Trackpoint>
            <Time>2020-02-15T09:28:07.000Z</Time>
            <Position>
              <LatitudeDegrees>41.95053010247647762298583984375</LatitudeDegrees>
              <LongitudeDegrees>2.85796972922980785369873046875</LongitudeDegrees>
            </Position>
            <AltitudeMeters>228.8000030517578125</AltitudeMeters>
            <DistanceMeters>12813.70504484</DistanceMeters>
          </Trackpoint>
          <Trackpoint>
            <Time>2020-02-15T09:28:08.000Z</Time>
            <Position>
              <LatitudeDegrees>41.95054502226412296295166015625</LatitudeDegrees>
              <LongitudeDegrees>2.85797727294266223907470703125</LongitudeDegrees>
            </Position>
            <AltitudeMeters>228.8000030517578125</AltitudeMeters>
            <DistanceMeters>12815.47774521</DistanceMeters>
          </Trackpoint>
          <Trackpoint>
            <Time>2020-02-15T09:28:09.000Z</Time>
            <Position>
              <LatitudeDegrees>41.95055927149951457977294921875</LatitudeDegrees>
              <LongitudeDegrees>2.85798448137938976287841796875</LongitudeDegrees>
            </Position>
            <AltitudeMeters>229.1999969482421875</AltitudeMeters>
            <DistanceMeters>12817.169647758</DistanceMeters>
          </Trackpoint>
          <Trackpoint>
            <Time>2020-02-15T09:28:10.000Z</Time>
            <Position>
              <LatitudeDegrees>41.9505729340016841888427734375</LatitudeDegrees>
              <LongitudeDegrees>2.8579904325306415557861328125</LongitudeDegrees>
            </Position>
            <AltitudeMeters>229.1999969482421875</AltitudeMeters>
            <DistanceMeters>12818.768244528</DistanceMeters>
          </Trackpoint>
          <Trackpoint>
            <Time>2020-02-15T09:28:11.000Z</Time>
            <Position>
              <LatitudeDegrees>41.95058726705610752105712890625</LatitudeDegrees>
              <LongitudeDegrees>2.85799755714833736419677734375</LongitudeDegrees>
            </Position>
            <AltitudeMeters>229.600006103515625</AltitudeMeters>
            <DistanceMeters>12820.468134072</DistanceMeters>
          </Trackpoint>
          <Trackpoint>
            <Time>2020-02-15T09:28:12.000Z</Time>
            <Position>
              <LatitudeDegrees>41.950601600110530853271484375</LatitudeDegrees>
              <LongitudeDegrees>2.858008034527301788330078125</LongitudeDegrees>
            </Position>
            <AltitudeMeters>229.600006103515625</AltitudeMeters>
            <DistanceMeters>12822.286102163</DistanceMeters>
          </Trackpoint>
          <Trackpoint>
            <Time>2020-02-15T09:28:13.000Z</Time>
            <Position>
              <LatitudeDegrees>41.950617022812366485595703125</LatitudeDegrees>
              <LongitudeDegrees>2.858018763363361358642578125</LongitudeDegrees>
            </Position>
            <AltitudeMeters>229.8000030517578125</AltitudeMeters>
            <DistanceMeters>12824.217273199</DistanceMeters>
          </Trackpoint>
          <Trackpoint>
            <Time>2020-02-15T09:28:14.000Z</Time>
            <Position>
              <LatitudeDegrees>41.9506319426000118255615234375</LatitudeDegrees>
              <LongitudeDegrees>2.85802924074232578277587890625</LongitudeDegrees>
            </Position>
            <AltitudeMeters>230</AltitudeMeters>
            <DistanceMeters>12826.089082394</DistanceMeters>
          </Trackpoint>
          <Trackpoint>
            <Time>2020-02-15T09:28:15.000Z</Time>
            <Position>
              <LatitudeDegrees>41.95064644329249858856201171875</LatitudeDegrees>
              <LongitudeDegrees>2.85804080776870250701904296875</LongitudeDegrees>
            </Position>
            <AltitudeMeters>230.1999969482421875</AltitudeMeters>
            <DistanceMeters>12827.965709638</DistanceMeters>
          </Trackpoint>
          <Trackpoint>
            <Time>2020-02-15T09:28:16.000Z</Time>
            <Position>
              <LatitudeDegrees>41.950661949813365936279296875</LatitudeDegrees>
              <LongitudeDegrees>2.8580514527857303619384765625</LongitudeDegrees>
            </Position>
            <AltitudeMeters>230.399993896484375</AltitudeMeters>
            <DistanceMeters>12829.903881921</DistanceMeters>
          </Trackpoint>
          <Trackpoint>
            <Time>2020-02-15T09:28:17.000Z</Time>
            <Position>
              <LatitudeDegrees>41.95067829452455043792724609375</LatitudeDegrees>
              <LongitudeDegrees>2.85805840976536273956298828125</LongitudeDegrees>
            </Position>
            <AltitudeMeters>230.600006103515625</AltitudeMeters>
            <DistanceMeters>12831.811529899</DistanceMeters>
          </Trackpoint>
          <Trackpoint>
            <Time>2020-02-15T09:28:18.000Z</Time>
            <Position>
              <LatitudeDegrees>41.95069489069283008575439453125</LatitudeDegrees>
              <LongitudeDegrees>2.858063690364360809326171875</LongitudeDegrees>
            </Position>
            <AltitudeMeters>230.8000030517578125</AltitudeMeters>
            <DistanceMeters>12833.707306897</DistanceMeters>
          </Trackpoint>
          <Trackpoint>
            <Time>2020-02-15T09:28:19.000Z</Time>
            <Position>
              <LatitudeDegrees>41.9507110677659511566162109375</LatitudeDegrees>
              <LongitudeDegrees>2.85806930623948574066162109375</LongitudeDegrees>
            </Position>
            <AltitudeMeters>231</AltitudeMeters>
            <DistanceMeters>12835.567016357</DistanceMeters>
          </Trackpoint>
          <Trackpoint>
            <Time>2020-02-15T09:28:20.000Z</Time>
            <Position>
              <LatitudeDegrees>41.95072690956294536590576171875</LatitudeDegrees>
              <LongitudeDegrees>2.8580725751817226409912109375</LongitudeDegrees>
            </Position>
            <AltitudeMeters>231</AltitudeMeters>
            <DistanceMeters>12837.349875552</DistanceMeters>
          </Trackpoint>
          <Trackpoint>
            <Time>2020-02-15T09:28:21.000Z</Time>
            <Position>
              <LatitudeDegrees>41.95074208080768585205078125</LatitudeDegrees>
              <LongitudeDegrees>2.85807483829557895660400390625</LongitudeDegrees>
            </Position>
            <AltitudeMeters>231</AltitudeMeters>
            <DistanceMeters>12839.049765096</DistanceMeters>
          </Trackpoint>
          <Trackpoint>
            <Time>2020-02-15T09:28:22.000Z</Time>
            <Position>
              <LatitudeDegrees>41.95075557567179203033447265625</LatitudeDegrees>
              <LongitudeDegrees>2.85808070562779903411865234375</LongitudeDegrees>
            </Position>
            <AltitudeMeters>231.1999969482421875</AltitudeMeters>
            <DistanceMeters>12840.628467443</DistanceMeters>
          </Trackpoint>
          <Trackpoint>
            <Time>2020-02-15T09:28:23.000Z</Time>
            <Position>
              <LatitudeDegrees>41.95076580159366130828857421875</LatitudeDegrees>
              <LongitudeDegrees>2.85808615386486053466796875</LongitudeDegrees>
            </Position>
            <AltitudeMeters>231.1999969482421875</AltitudeMeters>
            <DistanceMeters>12841.856483227</DistanceMeters>
          </Trackpoint>
          <Trackpoint>
            <Time>2020-02-15T09:28:24.000Z</Time>
            <Position>
              <LatitudeDegrees>41.95077770389616489410400390625</LatitudeDegrees>
              <LongitudeDegrees>2.85808992572128772735595703125</LongitudeDegrees>
            </Position>
            <AltitudeMeters>231.600006103515625</AltitudeMeters>
            <DistanceMeters>12843.220373159</DistanceMeters>
          </Trackpoint>
          <Trackpoint>
            <Time>2020-02-15T09:28:26.000Z</Time>
            <Position>
              <LatitudeDegrees>41.9508079625666141510009765625</LatitudeDegrees>
              <LongitudeDegrees>2.8580940328538417816162109375</LongitudeDegrees>
            </Position>
            <AltitudeMeters>231.600006103515625</AltitudeMeters>
            <DistanceMeters>12846.604178256</DistanceMeters>
          </Trackpoint>
          <Trackpoint>
            <Time>2020-02-15T09:28:27.000Z</Time>
            <Position>
              <LatitudeDegrees>41.95082447491586208343505859375</LatitudeDegrees>
              <LongitudeDegrees>2.85809847526252269744873046875</LongitudeDegrees>
            </Position>
            <AltitudeMeters>231.600006103515625</AltitudeMeters>
            <DistanceMeters>12848.47598745</DistanceMeters>
          </Trackpoint>
          <Trackpoint>
            <Time>2020-02-15T09:28:29.000Z</Time>
            <Position>
              <LatitudeDegrees>41.95085934363305568695068359375</LatitudeDegrees>
              <LongitudeDegrees>2.85810652188956737518310546875</LongitudeDegrees>
            </Position>
            <AltitudeMeters>231.600006103515625</AltitudeMeters>
            <DistanceMeters>12852.413580783</DistanceMeters>
          </Trackpoint>
          <Trackpoint>
            <Time>2020-02-15T09:28:31.000Z</Time>
            <Position>
              <LatitudeDegrees>41.9508927874267101287841796875</LatitudeDegrees>
              <LongitudeDegrees>2.858105264604091644287109375</LongitudeDegrees>
            </Position>
            <AltitudeMeters>231.600006103515625</AltitudeMeters>
            <DistanceMeters>12856.136639652</DistanceMeters>
          </Trackpoint>
          <Trackpoint>
            <Time>2020-02-15T09:28:32.000Z</Time>
            <Position>
              <LatitudeDegrees>41.95090661756694316864013671875</LatitudeDegrees>
              <LongitudeDegrees>2.85810333676636219024658203125</LongitudeDegrees>
            </Position>
            <AltitudeMeters>231.8000030517578125</AltitudeMeters>
            <DistanceMeters>12857.680641006</DistanceMeters>
          </Trackpoint>
          <Trackpoint>
            <Time>2020-02-15T09:28:33.000Z</Time>
            <Position>
              <LatitudeDegrees>41.95092120207846164703369140625</LatitudeDegrees>
              <LongitudeDegrees>2.85810115747153759002685546875</LongitudeDegrees>
            </Position>
            <AltitudeMeters>231.8000030517578125</AltitudeMeters>
            <DistanceMeters>12859.315542418</DistanceMeters>
          </Trackpoint>
          <Trackpoint>
            <Time>2020-02-15T09:28:34.000Z</Time>
            <Position>
              <LatitudeDegrees>41.95093746297061443328857421875</LatitudeDegrees>
              <LongitudeDegrees>2.8581007383763790130615234375</LongitudeDegrees>
            </Position>
            <AltitudeMeters>231.8000030517578125</AltitudeMeters>
            <DistanceMeters>12861.123548964</DistanceMeters>
          </Trackpoint>
          <Trackpoint>
            <Time>2020-02-15T09:28:35.000Z</Time>
            <Position>
              <LatitudeDegrees>41.95095489732921123504638671875</LatitudeDegrees>
              <LongitudeDegrees>2.85810048691928386688232421875</LongitudeDegrees>
            </Position>
            <AltitudeMeters>232</AltitudeMeters>
            <DistanceMeters>12863.061721248</DistanceMeters>
          </Trackpoint>
          <Trackpoint>
            <Time>2020-02-15T09:28:36.000Z</Time>
            <Position>
              <LatitudeDegrees>41.950971744954586029052734375</LatitudeDegrees>
              <LongitudeDegrees>2.8580997325479984283447265625</LongitudeDegrees>
            </Position>
            <AltitudeMeters>231.8000030517578125</AltitudeMeters>
            <DistanceMeters>12864.938348492</DistanceMeters>
          </Trackpoint>
          <Trackpoint>
            <Time>2020-02-15T09:28:37.000Z</Time>
            <Position>
              <LatitudeDegrees>41.95098775438964366912841796875</LatitudeDegrees>
              <LongitudeDegrees>2.8581015765666961669921875</LongitudeDegrees>
            </Position>
            <AltitudeMeters>232</AltitudeMeters>
            <DistanceMeters>12866.728788979</DistanceMeters>
          </Trackpoint>
          <Trackpoint>
            <Time>2020-02-15T09:28:38.000Z</Time>
            <Position>
              <LatitudeDegrees>41.95100300945341587066650390625</LatitudeDegrees>
              <LongitudeDegrees>2.85810216329991817474365234375</LongitudeDegrees>
            </Position>
            <AltitudeMeters>232.1999969482421875</AltitudeMeters>
            <DistanceMeters>12868.428678523</DistanceMeters>
          </Trackpoint>
          <Trackpoint>
            <Time>2020-02-15T09:28:39.000Z</Time>
            <Position>
              <LatitudeDegrees>41.9510178454220294952392578125</LatitudeDegrees>
              <LongitudeDegrees>2.85810098983347415924072265625</LongitudeDegrees>
            </Position>
            <AltitudeMeters>232.399993896484375</AltitudeMeters>
            <DistanceMeters>12870.085525903</DistanceMeters>
          </Trackpoint>
          <Trackpoint>
            <Time>2020-02-15T09:28:40.000Z</Time>
            <Position>
              <LatitudeDegrees>41.9510325975716114044189453125</LatitudeDegrees>
              <LongitudeDegrees>2.85810098983347415924072265625</LongitudeDegrees>
            </Position>
            <AltitudeMeters>232.399993896484375</AltitudeMeters>
            <DistanceMeters>12871.725941332</DistanceMeters>
          </Trackpoint>
          <Trackpoint>
            <Time>2020-02-15T09:28:41.000Z</Time>
            <Position>
              <LatitudeDegrees>41.95104944519698619842529296875</LatitudeDegrees>
              <LongitudeDegrees>2.8581004031002521514892578125</LongitudeDegrees>
            </Position>
            <AltitudeMeters>232.600006103515625</AltitudeMeters>
            <DistanceMeters>12873.602568576</DistanceMeters>
          </Trackpoint>
          <Trackpoint>
            <Time>2020-02-15T09:28:42.000Z</Time>
            <Position>
              <LatitudeDegrees>41.951067633926868438720703125</LatitudeDegrees>
              <LongitudeDegrees>2.858101241290569305419921875</LongitudeDegrees>
            </Position>
            <AltitudeMeters>232.600006103515625</AltitudeMeters>
            <DistanceMeters>12875.631783907</DistanceMeters>
          </Trackpoint>
          <Trackpoint>
            <Time>2020-02-15T09:28:43.000Z</Time>
            <Position>
              <LatitudeDegrees>41.95108540356159210205078125</LatitudeDegrees>
              <LongitudeDegrees>2.8581024147570133209228515625</LongitudeDegrees>
            </Position>
            <AltitudeMeters>232.8000030517578125</AltitudeMeters>
            <DistanceMeters>12877.61144377</DistanceMeters>
          </Trackpoint>
          <Trackpoint>
            <Time>2020-02-15T09:28:44.000Z</Time>
            <Position>
              <LatitudeDegrees>41.95110225118696689605712890625</LatitudeDegrees>
              <LongitudeDegrees>2.85810283385217189788818359375</LongitudeDegrees>
            </Position>
            <AltitudeMeters>232.8000030517578125</AltitudeMeters>
            <DistanceMeters>12879.488071015</DistanceMeters>
          </Trackpoint>
          <Trackpoint>
            <Time>2020-02-15T09:28:45.000Z</Time>
            <Position>
              <LatitudeDegrees>41.95111666806042194366455078125</LatitudeDegrees>
              <LongitudeDegrees>2.8581040911376476287841796875</LongitudeDegrees>
            </Position>
            <AltitudeMeters>233.1999969482421875</AltitudeMeters>
            <DistanceMeters>12881.095118575</DistanceMeters>
          </Trackpoint>
          <Trackpoint>
            <Time>2020-02-15T09:28:46.000Z</Time>
            <Position>
              <LatitudeDegrees>41.95113158784806728363037109375</LatitudeDegrees>
              <LongitudeDegrees>2.8581040911376476287841796875</LongitudeDegrees>
            </Position>
            <AltitudeMeters>233.1999969482421875</AltitudeMeters>
            <DistanceMeters>12882.757407176</DistanceMeters>
          </Trackpoint>
          <Trackpoint>
            <Time>2020-02-15T09:28:47.000Z</Time>
            <Position>
              <LatitudeDegrees>41.95114910602569580078125</LatitudeDegrees>
              <LongitudeDegrees>2.8581037558615207672119140625</LongitudeDegrees>
            </Position>
            <AltitudeMeters>233.600006103515625</AltitudeMeters>
            <DistanceMeters>12884.709506625</DistanceMeters>
          </Trackpoint>
          <Trackpoint>
            <Time>2020-02-15T09:28:48.000Z</Time>
            <Position>
              <LatitudeDegrees>41.951166205108165740966796875</LatitudeDegrees>
              <LongitudeDegrees>2.85810249857604503631591796875</LongitudeDegrees>
            </Position>
            <AltitudeMeters>233.8000030517578125</AltitudeMeters>
            <DistanceMeters>12886.617154603</DistanceMeters>
          </Trackpoint>
          <Trackpoint>
            <Time>2020-02-15T09:28:49.000Z</Time>
            <Position>
              <LatitudeDegrees>41.9511824660003185272216796875</LatitudeDegrees>
              <LongitudeDegrees>2.85810224711894989013671875</LongitudeDegrees>
            </Position>
            <AltitudeMeters>234</AltitudeMeters>
            <DistanceMeters>12888.42516115</DistanceMeters>
          </Trackpoint>
          <Trackpoint>
            <Time>2020-02-15T09:28:50.000Z</Time>
            <Position>
              <LatitudeDegrees>41.95119981653988361358642578125</LatitudeDegrees>
              <LongitudeDegrees>2.85810048691928386688232421875</LongitudeDegrees>
            </Position>
            <AltitudeMeters>234.1999969482421875</AltitudeMeters>
            <DistanceMeters>12890.363333433</DistanceMeters>
          </Trackpoint>
          <Trackpoint>
            <Time>2020-02-15T09:28:51.000Z</Time>
            <Position>
              <LatitudeDegrees>41.95121758617460727691650390625</LatitudeDegrees>
              <LongitudeDegrees>2.85809797234833240509033203125</LongitudeDegrees>
            </Position>
            <AltitudeMeters>234.399993896484375</AltitudeMeters>
            <DistanceMeters>12892.352095229</DistanceMeters>
          </Trackpoint>
          <Trackpoint>
            <Time>2020-02-15T09:28:52.000Z</Time>
            <Position>
              <LatitudeDegrees>41.951235271990299224853515625</LatitudeDegrees>
              <LongitudeDegrees>2.858095876872539520263671875</LongitudeDegrees>
            </Position>
            <AltitudeMeters>234.8000030517578125</AltitudeMeters>
            <DistanceMeters>12894.327188398</DistanceMeters>
          </Trackpoint>
          <Trackpoint>
            <Time>2020-02-15T09:28:53.000Z</Time>
            <Position>
              <LatitudeDegrees>41.95125547237694263458251953125</LatitudeDegrees>
              <LongitudeDegrees>2.8580906800925731658935546875</LongitudeDegrees>
            </Position>
            <AltitudeMeters>235</AltitudeMeters>
            <DistanceMeters>12896.615734735</DistanceMeters>
          </Trackpoint>
          <Trackpoint>
            <Time>2020-02-15T09:28:54.000Z</Time>
            <Position>
              <LatitudeDegrees>41.95127718150615692138671875</LatitudeDegrees>
              <LongitudeDegrees>2.85808405838906764984130859375</LongitudeDegrees>
            </Position>
            <AltitudeMeters>235</AltitudeMeters>
            <DistanceMeters>12899.093728275</DistanceMeters>
          </Trackpoint>
          <Trackpoint>
            <Time>2020-02-15T09:28:55.000Z</Time>
            <Position>
              <LatitudeDegrees>41.95129905827343463897705078125</LatitudeDegrees>
              <LongitudeDegrees>2.858078442513942718505859375</LongitudeDegrees>
            </Position>
            <AltitudeMeters>235.399993896484375</AltitudeMeters>
            <DistanceMeters>12901.571721814</DistanceMeters>
          </Trackpoint>
          <Trackpoint>
            <Time>2020-02-15T09:28:56.000Z</Time>
            <Position>
              <LatitudeDegrees>41.95132085122168064117431640625</LatitudeDegrees>
              <LongitudeDegrees>2.85807542502880096435546875</LongitudeDegrees>
            </Position>
            <AltitudeMeters>235.600006103515625</AltitudeMeters>
            <DistanceMeters>12904.009300592</DistanceMeters>
          </Trackpoint>
          <Trackpoint>
            <Time>2020-02-15T09:28:57.000Z</Time>
            <Position>
              <LatitudeDegrees>41.95134398527443408966064453125</LatitudeDegrees>
              <LongitudeDegrees>2.858075089752674102783203125</LongitudeDegrees>
            </Position>
            <AltitudeMeters>235.600006103515625</AltitudeMeters>
            <DistanceMeters>12906.583805615</DistanceMeters>
          </Trackpoint>
          <Trackpoint>
            <Time>2020-02-15T09:28:59.000Z</Time>
            <Position>
              <LatitudeDegrees>41.95139209739863872528076171875</LatitudeDegrees>
              <LongitudeDegrees>2.85808674059808254241943359375</LongitudeDegrees>
            </Position>
            <AltitudeMeters>235.8000030517578125</AltitudeMeters>
            <DistanceMeters>12912.024448094</DistanceMeters>
          </Trackpoint>
          <Trackpoint>
            <Time>2020-02-15T09:29:00.000Z</Time>
            <Position>
              <LatitudeDegrees>41.95141799747943878173828125</LatitudeDegrees>
              <LongitudeDegrees>2.85808615386486053466796875</LongitudeDegrees>
            </Position>
            <AltitudeMeters>235.8000030517578125</AltitudeMeters>
            <DistanceMeters>12914.906751049</DistanceMeters>
          </Trackpoint>
          <Trackpoint>
            <Time>2020-02-15T09:29:01.000Z</Time>
            <Position>
              <LatitudeDegrees>41.95144507102668285369873046875</LatitudeDegrees>
              <LongitudeDegrees>2.8580779395997524261474609375</LongitudeDegrees>
            </Position>
            <AltitudeMeters>236</AltitudeMeters>
            <DistanceMeters>12917.994753757</DistanceMeters>
          </Trackpoint>
          <Trackpoint>
            <Time>2020-02-15T09:29:02.000Z</Time>
            <Position>
              <LatitudeDegrees>41.95147440768778324127197265625</LatitudeDegrees>
              <LongitudeDegrees>2.85806746222078800201416015625</LongitudeDegrees>
            </Position>
            <AltitudeMeters>236</AltitudeMeters>
            <DistanceMeters>12921.374553559</DistanceMeters>
          </Trackpoint>
          <Trackpoint>
            <Time>2020-02-15T09:29:03.000Z</Time>
            <Position>
              <LatitudeDegrees>41.95150726474821567535400390625</LatitudeDegrees>
              <LongitudeDegrees>2.8580548055469989776611328125</LongitudeDegrees>
            </Position>
            <AltitudeMeters>236</AltitudeMeters>
            <DistanceMeters>12925.180370504</DistanceMeters>
          </Trackpoint>
          <Trackpoint>
            <Time>2020-02-15T09:29:04.000Z</Time>
            <Position>
              <LatitudeDegrees>41.951541043817996978759765625</LatitudeDegrees>
              <LongitudeDegrees>2.8580393828451633453369140625</LongitudeDegrees>
            </Position>
            <AltitudeMeters>235.8000030517578125</AltitudeMeters>
            <DistanceMeters>12929.149940178</DistanceMeters>
          </Trackpoint>
          <Trackpoint>
            <Time>2020-02-15T09:29:05.000Z</Time>
            <Position>
              <LatitudeDegrees>41.95157825946807861328125</LatitudeDegrees>
              <LongitudeDegrees>2.858021445572376251220703125</LongitudeDegrees>
            </Position>
            <AltitudeMeters>236</AltitudeMeters>
            <DistanceMeters>12933.549995165</DistanceMeters>
          </Trackpoint>
          <Trackpoint>
            <Time>2020-02-15T09:29:06.000Z</Time>
            <Position>
              <LatitudeDegrees>41.9516206718981266021728515625</LatitudeDegrees>
              <LongitudeDegrees>2.85800493322312831878662109375</LongitudeDegrees>
            </Position>
            <AltitudeMeters>236</AltitudeMeters>
            <DistanceMeters>12938.463896305</DistanceMeters>
          </Trackpoint>
          <Trackpoint>
            <Time>2020-02-15T09:29:07.000Z</Time>
            <Position>
              <LatitudeDegrees>41.9516681134700775146484375</LatitudeDegrees>
              <LongitudeDegrees>2.857989929616451263427734375</LongitudeDegrees>
            </Position>
            <AltitudeMeters>236</AltitudeMeters>
            <DistanceMeters>12943.887915945</DistanceMeters>
          </Trackpoint>
          <Trackpoint>
            <Time>2020-02-15T09:29:09.000Z</Time>
            <Position>
              <LatitudeDegrees>41.95177280344069004058837890625</LatitudeDegrees>
              <LongitudeDegrees>2.8579605929553508758544921875</LongitudeDegrees>
            </Position>
            <AltitudeMeters>236</AltitudeMeters>
            <DistanceMeters>12955.79055722</DistanceMeters>
          </Trackpoint>
          <Trackpoint>
            <Time>2020-02-15T09:29:11.000Z</Time>
            <Position>
              <LatitudeDegrees>41.95188964717090129852294921875</LatitudeDegrees>
              <LongitudeDegrees>2.85793988965451717376708984375</LongitudeDegrees>
            </Position>
            <AltitudeMeters>235.8000030517578125</AltitudeMeters>
            <DistanceMeters>12968.907686349</DistanceMeters>
          </Trackpoint>
          <Trackpoint>
            <Time>2020-02-15T09:29:12.000Z</Time>
            <Position>
              <LatitudeDegrees>41.9519497454166412353515625</LatitudeDegrees>
              <LongitudeDegrees>2.85793217830359935760498046875</LongitudeDegrees>
            </Position>
            <AltitudeMeters>235.600006103515625</AltitudeMeters>
            <DistanceMeters>12975.627089761</DistanceMeters>
          </Trackpoint>
          <Trackpoint>
            <Time>2020-02-15T09:29:14.000Z</Time>
            <Position>
              <LatitudeDegrees>41.95206231437623500823974609375</LatitudeDegrees>
              <LongitudeDegrees>2.85791876725852489471435546875</LongitudeDegrees>
            </Position>
            <AltitudeMeters>235</AltitudeMeters>
            <DistanceMeters>12988.205482718</DistanceMeters>
          </Trackpoint>
          <Trackpoint>
            <Time>2020-02-15T09:29:15.000Z</Time>
            <Position>
              <LatitudeDegrees>41.95211327634751796722412109375</LatitudeDegrees>
              <LongitudeDegrees>2.85791583359241485595703125</LongitudeDegrees>
            </Position>
            <AltitudeMeters>234.8000030517578125</AltitudeMeters>
            <DistanceMeters>12993.883279201</DistanceMeters>
          </Trackpoint>
          <Trackpoint>
            <Time>2020-02-15T09:29:16.000Z</Time>
            <Position>
              <LatitudeDegrees>41.95215971209108829498291015625</LatitudeDegrees>
              <LongitudeDegrees>2.8579136542975902557373046875</LongitudeDegrees>
            </Position>
            <AltitudeMeters>234.8000030517578125</AltitudeMeters>
            <DistanceMeters>12999.055037744</DistanceMeters>
          </Trackpoint>
          <Trackpoint>
            <Time>2020-02-15T09:29:17.000Z</Time>
            <Position>
              <LatitudeDegrees>41.952197849750518798828125</LatitudeDegrees>
              <LongitudeDegrees>2.85791256465017795562744140625</LongitudeDegrees>
            </Position>
            <AltitudeMeters>234.399993896484375</AltitudeMeters>
            <DistanceMeters>13003.300509753</DistanceMeters>
          </Trackpoint>
          <Trackpoint>
            <Time>2020-02-15T09:29:18.000Z</Time>
            <Position>
              <LatitudeDegrees>41.95223179645836353302001953125</LatitudeDegrees>
              <LongitudeDegrees>2.85791105590760707855224609375</LongitudeDegrees>
            </Position>
            <AltitudeMeters>234</AltitudeMeters>
            <DistanceMeters>13007.082525233</DistanceMeters>
          </Trackpoint>
          <Trackpoint>
            <Time>2020-02-15T09:29:19.000Z</Time>
            <Position>
              <LatitudeDegrees>41.95226498879492282867431640625</LatitudeDegrees>
              <LongitudeDegrees>2.857909463346004486083984375</LongitudeDegrees>
            </Position>
            <AltitudeMeters>233.8000030517578125</AltitudeMeters>
            <DistanceMeters>13010.78002922</DistanceMeters>
          </Trackpoint>
          <Trackpoint>
            <Time>2020-02-15T09:29:20.000Z</Time>
            <Position>
              <LatitudeDegrees>41.9522962532937526702880859375</LatitudeDegrees>
              <LongitudeDegrees>2.8579099662601947784423828125</LongitudeDegrees>
            </Position>
            <AltitudeMeters>233.8000030517578125</AltitudeMeters>
            <DistanceMeters>13014.261173082</DistanceMeters>
          </Trackpoint>
          <Trackpoint>
            <Time>2020-02-15T09:29:21.000Z</Time>
            <Position>
              <LatitudeDegrees>41.95232600905001163482666015625</LatitudeDegrees>
              <LongitudeDegrees>2.85791088826954364776611328125</LongitudeDegrees>
            </Position>
            <AltitudeMeters>233.8000030517578125</AltitudeMeters>
            <DistanceMeters>13017.574867841</DistanceMeters>
          </Trackpoint>
          <Trackpoint>
            <Time>2020-02-15T09:29:22.000Z</Time>
            <Position>
              <LatitudeDegrees>41.95235299877822399139404296875</LatitudeDegrees>
              <LongitudeDegrees>2.85791172645986080169677734375</LongitudeDegrees>
            </Position>
            <AltitudeMeters>233.600006103515625</AltitudeMeters>
            <DistanceMeters>13020.579876401</DistanceMeters>
          </Trackpoint>
          <Trackpoint>
            <Time>2020-02-15T09:29:23.000Z</Time>
            <Position>
              <LatitudeDegrees>41.9523804076015949249267578125</LatitudeDegrees>
              <LongitudeDegrees>2.8579163365066051483154296875</LongitudeDegrees>
            </Position>
            <AltitudeMeters>233.8000030517578125</AltitudeMeters>
            <DistanceMeters>13023.654691848</DistanceMeters>
          </Trackpoint>
          <Trackpoint>
            <Time>2020-02-15T09:29:24.000Z</Time>
            <Position>
              <LatitudeDegrees>41.95240773260593414306640625</LatitudeDegrees>
              <LongitudeDegrees>2.857920192182064056396484375</LongitudeDegrees>
            </Position>
            <AltitudeMeters>233.8000030517578125</AltitudeMeters>
            <DistanceMeters>13026.713312321</DistanceMeters>
          </Trackpoint>
          <Trackpoint>
            <Time>2020-02-15T09:29:25.000Z</Time>
            <Position>
              <LatitudeDegrees>41.95243463851511478424072265625</LatitudeDegrees>
              <LongitudeDegrees>2.8579240478575229644775390625</LongitudeDegrees>
            </Position>
            <AltitudeMeters>233.600006103515625</AltitudeMeters>
            <DistanceMeters>13029.7243249</DistanceMeters>
          </Trackpoint>
          <Trackpoint>
            <Time>2020-02-15T09:29:26.000Z</Time>
            <Position>
              <LatitudeDegrees>41.95246246643364429473876953125</LatitudeDegrees>
              <LongitudeDegrees>2.85792547278106212615966796875</LongitudeDegrees>
            </Position>
            <AltitudeMeters>233.8000030517578125</AltitudeMeters>
            <DistanceMeters>13032.824002518</DistanceMeters>
          </Trackpoint>
          <Trackpoint>
            <Time>2020-02-15T09:29:27.000Z</Time>
            <Position>
              <LatitudeDegrees>41.9524863548576831817626953125</LatitudeDegrees>
              <LongitudeDegrees>2.8579260595142841339111328125</LongitudeDegrees>
            </Position>
            <AltitudeMeters>233.600006103515625</AltitudeMeters>
            <DistanceMeters>13035.481354542</DistanceMeters>
          </Trackpoint>
          <Trackpoint>
            <Time>2020-02-15T09:29:28.000Z</Time>
            <Position>
              <LatitudeDegrees>41.9525084830820560455322265625</LatitudeDegrees>
              <LongitudeDegrees>2.85792480222880840301513671875</LongitudeDegrees>
            </Position>
            <AltitudeMeters>233.600006103515625</AltitudeMeters>
            <DistanceMeters>13037.944728523</DistanceMeters>
          </Trackpoint>
          <Trackpoint>
            <Time>2020-02-15T09:29:29.000Z</Time>
            <Position>
              <LatitudeDegrees>41.9525312818586826324462890625</LatitudeDegrees>
              <LongitudeDegrees>2.857922874391078948974609375</LongitudeDegrees>
            </Position>
            <AltitudeMeters>233.8000030517578125</AltitudeMeters>
            <DistanceMeters>13040.487470101</DistanceMeters>
          </Trackpoint>
          <Trackpoint>
            <Time>2020-02-15T09:29:30.000Z</Time>
            <Position>
              <LatitudeDegrees>41.95255433209240436553955078125</LatitudeDegrees>
              <LongitudeDegrees>2.857920862734317779541015625</LongitudeDegrees>
            </Position>
            <AltitudeMeters>234</AltitudeMeters>
            <DistanceMeters>13043.058465231</DistanceMeters>
          </Trackpoint>
          <Trackpoint>
            <Time>2020-02-15T09:29:31.000Z</Time>
            <Position>
              <LatitudeDegrees>41.9525765441358089447021484375</LatitudeDegrees>
              <LongitudeDegrees>2.85792077891528606414794921875</LongitudeDegrees>
            </Position>
            <AltitudeMeters>234</AltitudeMeters>
            <DistanceMeters>13045.530986566</DistanceMeters>
          </Trackpoint>
          <Trackpoint>
            <Time>2020-02-15T09:29:32.000Z</Time>
            <Position>
              <LatitudeDegrees>41.95259892381727695465087890625</LatitudeDegrees>
              <LongitudeDegrees>2.85791927017271518707275390625</LongitudeDegrees>
            </Position>
            <AltitudeMeters>234.1999969482421875</AltitudeMeters>
            <DistanceMeters>13048.025324689</DistanceMeters>
          </Trackpoint>
          <Trackpoint>
            <Time>2020-02-15T09:29:33.000Z</Time>
            <Position>
              <LatitudeDegrees>41.9526187889277935028076171875</LatitudeDegrees>
              <LongitudeDegrees>2.85791524685919284820556640625</LongitudeDegrees>
            </Position>
            <AltitudeMeters>234.399993896484375</AltitudeMeters>
            <DistanceMeters>13050.261987907</DistanceMeters>
          </Trackpoint>
          <Trackpoint>
            <Time>2020-02-15T09:29:34.000Z</Time>
            <Position>
              <LatitudeDegrees>41.95263731293380260467529296875</LatitudeDegrees>
              <LongitudeDegrees>2.85791181027889251708984375</LongitudeDegrees>
            </Position>
            <AltitudeMeters>234.600006103515625</AltitudeMeters>
            <DistanceMeters>13052.343918908</DistanceMeters>
          </Trackpoint>
          <Trackpoint>
            <Time>2020-02-15T09:29:35.000Z</Time>
            <Position>
              <LatitudeDegrees>41.95265583693981170654296875</LatitudeDegrees>
              <LongitudeDegrees>2.85790820606052875518798828125</LongitudeDegrees>
            </Position>
            <AltitudeMeters>235</AltitudeMeters>
            <DistanceMeters>13054.428017458</DistanceMeters>
          </Trackpoint>
          <Trackpoint>
            <Time>2020-02-15T09:29:36.000Z</Time>
            <Position>
              <LatitudeDegrees>41.95267553441226482391357421875</LatitudeDegrees>
              <LongitudeDegrees>2.857903428375720977783203125</LongitudeDegrees>
            </Position>
            <AltitudeMeters>235.1999969482421875</AltitudeMeters>
            <DistanceMeters>13056.654564554</DistanceMeters>
          </Trackpoint>
          <Trackpoint>
            <Time>2020-02-15T09:29:37.000Z</Time>
            <Position>
              <LatitudeDegrees>41.95269607007503509521484375</LatitudeDegrees>
              <LongitudeDegrees>2.85790099762380123138427734375</LongitudeDegrees>
            </Position>
            <AltitudeMeters>235.399993896484375</AltitudeMeters>
            <DistanceMeters>13058.947053265</DistanceMeters>
          </Trackpoint>
          <Trackpoint>
            <Time>2020-02-15T09:29:38.000Z</Time>
            <Position>
              <LatitudeDegrees>41.952718198299407958984375</LatitudeDegrees>
              <LongitudeDegrees>2.85789831541478633880615234375</LongitudeDegrees>
            </Position>
            <AltitudeMeters>235.8000030517578125</AltitudeMeters>
            <DistanceMeters>13061.4195746</DistanceMeters>
          </Trackpoint>
          <Trackpoint>
            <Time>2020-02-15T09:29:39.000Z</Time>
            <Position>
              <LatitudeDegrees>41.9527408294379711151123046875</LatitudeDegrees>
              <LongitudeDegrees>2.85789110697805881500244140625</LongitudeDegrees>
            </Position>
            <AltitudeMeters>236.1999969482421875</AltitudeMeters>
            <DistanceMeters>13064.0080716</DistanceMeters>
          </Trackpoint>
          <Trackpoint>
            <Time>2020-02-15T09:29:40.000Z</Time>
            <Position>
              <LatitudeDegrees>41.95276371203362941741943359375</LatitudeDegrees>
              <LongitudeDegrees>2.85788725130259990692138671875</LongitudeDegrees>
            </Position>
            <AltitudeMeters>236.399993896484375</AltitudeMeters>
            <DistanceMeters>13066.575552039</DistanceMeters>
          </Trackpoint>
          <Trackpoint>
            <Time>2020-02-15T09:29:41.000Z</Time>
            <Position>
              <LatitudeDegrees>41.9527865946292877197265625</LatitudeDegrees>
              <LongitudeDegrees>2.85788440145552158355712890625</LongitudeDegrees>
            </Position>
            <AltitudeMeters>236.600006103515625</AltitudeMeters>
            <DistanceMeters>13069.132459418</DistanceMeters>
          </Trackpoint>
          <Trackpoint>
            <Time>2020-02-15T09:29:42.000Z</Time>
            <Position>
              <LatitudeDegrees>41.95281014777719974517822265625</LatitudeDegrees>
              <LongitudeDegrees>2.85788155160844326019287109375</LongitudeDegrees>
            </Position>
            <AltitudeMeters>236.600006103515625</AltitudeMeters>
            <DistanceMeters>13071.764201927</DistanceMeters>
          </Trackpoint>
          <Trackpoint>
            <Time>2020-02-15T09:29:43.000Z</Time>
            <Position>
              <LatitudeDegrees>41.95283428765833377838134765625</LatitudeDegrees>
              <LongitudeDegrees>2.8578801266849040985107421875</LongitudeDegrees>
            </Position>
            <AltitudeMeters>237</AltitudeMeters>
            <DistanceMeters>13074.453642618</DistanceMeters>
          </Trackpoint>
          <Trackpoint>
            <Time>2020-02-15T09:29:44.000Z</Time>
            <Position>
              <LatitudeDegrees>41.95285725407302379608154296875</LatitudeDegrees>
              <LongitudeDegrees>2.857879288494586944580078125</LongitudeDegrees>
            </Position>
            <AltitudeMeters>237.1999969482421875</AltitudeMeters>
            <DistanceMeters>13077.010549998</DistanceMeters>
          </Trackpoint>
          <Trackpoint>
            <Time>2020-02-15T09:29:45.000Z</Time>
            <Position>
              <LatitudeDegrees>41.95287854410707950592041015625</LatitudeDegrees>
              <LongitudeDegrees>2.857880294322967529296875</LongitudeDegrees>
            </Position>
            <AltitudeMeters>237.1999969482421875</AltitudeMeters>
            <DistanceMeters>13079.382413743</DistanceMeters>
          </Trackpoint>
          <Trackpoint>
            <Time>2020-02-15T09:29:46.000Z</Time>
            <Position>
              <LatitudeDegrees>41.95289899595081806182861328125</LatitudeDegrees>
              <LongitudeDegrees>2.85788037814199924468994140625</LongitudeDegrees>
            </Position>
            <AltitudeMeters>237.399993896484375</AltitudeMeters>
            <DistanceMeters>13081.659091998</DistanceMeters>
          </Trackpoint>
          <Trackpoint>
            <Time>2020-02-15T09:29:47.000Z</Time>
            <Position>
              <LatitudeDegrees>41.95291961543262004852294921875</LatitudeDegrees>
              <LongitudeDegrees>2.8578757680952548980712890625</LongitudeDegrees>
            </Position>
            <AltitudeMeters>237.600006103515625</AltitudeMeters>
            <DistanceMeters>13083.982878932</DistanceMeters>
          </Trackpoint>
          <Trackpoint>
            <Time>2020-02-15T09:29:48.000Z</Time>
            <Position>
              <LatitudeDegrees>41.95294015109539031982421875</LatitudeDegrees>
              <LongitudeDegrees>2.85786881111562252044677734375</LongitudeDegrees>
            </Position>
            <AltitudeMeters>237.8000030517578125</AltitudeMeters>
            <DistanceMeters>13086.341379958</DistanceMeters>
          </Trackpoint>
          <Trackpoint>
            <Time>2020-02-15T09:29:49.000Z</Time>
            <Position>
              <LatitudeDegrees>41.95296051912009716033935546875</LatitudeDegrees>
              <LongitudeDegrees>2.85785992629826068878173828125</LongitudeDegrees>
            </Position>
            <AltitudeMeters>237.8000030517578125</AltitudeMeters>
            <DistanceMeters>13088.724637829</DistanceMeters>
          </Trackpoint>
          <Trackpoint>
            <Time>2020-02-15T09:29:50.000Z</Time>
            <Position>
              <LatitudeDegrees>41.9529822282493114471435546875</LatitudeDegrees>
              <LongitudeDegrees>2.85785171203315258026123046875</LongitudeDegrees>
            </Position>
            <AltitudeMeters>238.1999969482421875</AltitudeMeters>
            <DistanceMeters>13091.233415078</DistanceMeters>
          </Trackpoint>
          <Trackpoint>
            <Time>2020-02-15T09:29:51.000Z</Time>
            <Position>
              <LatitudeDegrees>41.95300410501658916473388671875</LatitudeDegrees>
              <LongitudeDegrees>2.8578432463109493255615234375</LongitudeDegrees>
            </Position>
            <AltitudeMeters>238.399993896484375</AltitudeMeters>
            <DistanceMeters>13093.767262814</DistanceMeters>
          </Trackpoint>
          <Trackpoint>
            <Time>2020-02-15T09:29:53.000Z</Time>
            <Position>
              <LatitudeDegrees>41.95304400287568569183349609375</LatitudeDegrees>
              <LongitudeDegrees>2.8578184358775615692138671875</LongitudeDegrees>
            </Position>
            <AltitudeMeters>238.600006103515625</AltitudeMeters>
            <DistanceMeters>13098.659985231</DistanceMeters>
          </Trackpoint>
          <Trackpoint>
            <Time>2020-02-15T09:29:54.000Z</Time>
            <Position>
              <LatitudeDegrees>41.95306143723428249359130859375</LatitudeDegrees>
              <LongitudeDegrees>2.85780251026153564453125</LongitudeDegrees>
            </Position>
            <AltitudeMeters>238.8000030517578125</AltitudeMeters>
            <DistanceMeters>13101.005047396</DistanceMeters>
          </Trackpoint>
          <Trackpoint>
            <Time>2020-02-15T09:29:55.000Z</Time>
            <Position>
              <LatitudeDegrees>41.9530774466693401336669921875</LatitudeDegrees>
              <LongitudeDegrees>2.85778566263616085052490234375</LongitudeDegrees>
            </Position>
            <AltitudeMeters>239</AltitudeMeters>
            <DistanceMeters>13103.265804629</DistanceMeters>
          </Trackpoint>
          <Trackpoint>
            <Time>2020-02-15T09:29:56.000Z</Time>
            <Position>
              <LatitudeDegrees>41.95309437811374664306640625</LatitudeDegrees>
              <LongitudeDegrees>2.85776789300143718719482421875</LongitudeDegrees>
            </Position>
            <AltitudeMeters>239.1999969482421875</AltitudeMeters>
            <DistanceMeters>13105.654739185</DistanceMeters>
          </Trackpoint>
          <Trackpoint>
            <Time>2020-02-15T09:29:57.000Z</Time>
            <Position>
              <LatitudeDegrees>41.95311449468135833740234375</LatitudeDegrees>
              <LongitudeDegrees>2.8577513806521892547607421875</LongitudeDegrees>
            </Position>
            <AltitudeMeters>239.399993896484375</AltitudeMeters>
            <DistanceMeters>13108.277889629</DistanceMeters>
          </Trackpoint>
          <Trackpoint>
            <Time>2020-02-15T09:29:58.000Z</Time>
            <Position>
              <LatitudeDegrees>41.9531401433050632476806640625</LatitudeDegrees>
              <LongitudeDegrees>2.85773620940744876861572265625</LongitudeDegrees>
            </Position>
            <AltitudeMeters>239.1999969482421875</AltitudeMeters>
            <DistanceMeters>13111.396445758</DistanceMeters>
          </Trackpoint>
          <Trackpoint>
            <Time>2020-02-15T09:30:01.000Z</Time>
            <Position>
              <LatitudeDegrees>41.95324902422726154327392578125</LatitudeDegrees>
              <LongitudeDegrees>2.85770016722381114959716796875</LongitudeDegrees>
            </Position>
            <AltitudeMeters>239.399993896484375</AltitudeMeters>
            <DistanceMeters>13123.877183663</DistanceMeters>
          </Trackpoint>
          <Trackpoint>
            <Time>2020-02-15T09:30:02.000Z</Time>
            <Position>
              <LatitudeDegrees>41.9532960467040538787841796875</LatitudeDegrees>
              <LongitudeDegrees>2.85769731737673282623291015625</LongitudeDegrees>
            </Position>
            <AltitudeMeters>239.399993896484375</AltitudeMeters>
            <DistanceMeters>13129.115733301</DistanceMeters>
          </Trackpoint>
          <Trackpoint>
            <Time>2020-02-15T09:30:03.000Z</Time>
            <Position>
              <LatitudeDegrees>41.95334759540855884552001953125</LatitudeDegrees>
              <LongitudeDegrees>2.85769698210060596466064453125</LongitudeDegrees>
            </Position>
            <AltitudeMeters>239.399993896484375</AltitudeMeters>
            <DistanceMeters>13134.852860512</DistanceMeters>
          </Trackpoint>
          <Trackpoint>
            <Time>2020-02-15T09:30:04.000Z</Time>
            <Position>
              <LatitudeDegrees>41.95340191014111042022705078125</LatitudeDegrees>
              <LongitudeDegrees>2.85769010894000530242919921875</LongitudeDegrees>
            </Position>
            <AltitudeMeters>239.399993896484375</AltitudeMeters>
            <DistanceMeters>13140.924911411</DistanceMeters>
          </Trackpoint>
          <Trackpoint>
            <Time>2020-02-15T09:30:05.000Z</Time>
            <Position>
              <LatitudeDegrees>41.95345957763493061065673828125</LatitudeDegrees>
              <LongitudeDegrees>2.85766781307756900787353515625</LongitudeDegrees>
            </Position>
            <AltitudeMeters>239.600006103515625</AltitudeMeters>
            <DistanceMeters>13147.603876723</DistanceMeters>
          </Trackpoint>
          <Trackpoint>
            <Time>2020-02-15T09:30:06.000Z</Time>
            <Position>
              <LatitudeDegrees>41.953520514070987701416015625</LatitudeDegrees>
              <LongitudeDegrees>2.85763143561780452728271484375</LongitudeDegrees>
            </Position>
            <AltitudeMeters>239.600006103515625</AltitudeMeters>
            <DistanceMeters>13155.024483582</DistanceMeters>
          </Trackpoint>
          <Trackpoint>
            <Time>2020-02-15T09:30:09.000Z</Time>
            <Position>
              <LatitudeDegrees>41.95372025482356548309326171875</LatitudeDegrees>
              <LongitudeDegrees>2.85748542286455631256103515625</LongitudeDegrees>
            </Position>
            <AltitudeMeters>239.399993896484375</AltitudeMeters>
            <DistanceMeters>13180.328903958</DistanceMeters>
          </Trackpoint>
          <Trackpoint>
            <Time>2020-02-15T09:30:10.000Z</Time>
            <Position>
              <LatitudeDegrees>41.9537912495434284210205078125</LatitudeDegrees>
              <LongitudeDegrees>2.85744233988225460052490234375</LongitudeDegrees>
            </Position>
            <AltitudeMeters>239</AltitudeMeters>
            <DistanceMeters>13188.998236472</DistanceMeters>
          </Trackpoint>
          <Trackpoint>
            <Time>2020-02-15T09:30:11.000Z</Time>
            <Position>
              <LatitudeDegrees>41.95386643521487712860107421875</LatitudeDegrees>
              <LongitudeDegrees>2.8574174456298351287841796875</LongitudeDegrees>
            </Position>
            <AltitudeMeters>238.399993896484375</AltitudeMeters>
            <DistanceMeters>13197.616378891</DistanceMeters>
          </Trackpoint>
          <Trackpoint>
            <Time>2020-02-15T09:30:12.000Z</Time>
            <Position>
              <LatitudeDegrees>41.95394941605627536773681640625</LatitudeDegrees>
              <LongitudeDegrees>2.8573969937860965728759765625</LongitudeDegrees>
            </Position>
            <AltitudeMeters>238</AltitudeMeters>
            <DistanceMeters>13207.005287573</DistanceMeters>
          </Trackpoint>
          <Trackpoint>
            <Time>2020-02-15T09:30:13.000Z</Time>
            <Position>
              <LatitudeDegrees>41.954037509858608245849609375</LatitudeDegrees>
              <LongitudeDegrees>2.85737662576138973236083984375</LongitudeDegrees>
            </Position>
            <AltitudeMeters>237.1999969482421875</AltitudeMeters>
            <DistanceMeters>13216.953636071</DistanceMeters>
          </Trackpoint>
          <Trackpoint>
            <Time>2020-02-15T09:30:14.000Z</Time>
            <Position>
              <LatitudeDegrees>41.9541312195360660552978515625</LatitudeDegrees>
              <LongitudeDegrees>2.85735935904085636138916015625</LongitudeDegrees>
            </Position>
            <AltitudeMeters>236.8000030517578125</AltitudeMeters>
            <DistanceMeters>13227.481034999</DistanceMeters>
          </Trackpoint>
          <Trackpoint>
            <Time>2020-02-15T09:30:15.000Z</Time>
            <Position>
              <LatitudeDegrees>41.95422652177512645721435546875</LatitudeDegrees>
              <LongitudeDegrees>2.85734988749027252197265625</LongitudeDegrees>
            </Position>
            <AltitudeMeters>236</AltitudeMeters>
            <DistanceMeters>13238.117661709</DistanceMeters>
          </Trackpoint>
          <Trackpoint>
            <Time>2020-02-15T09:30:16.000Z</Time>
            <Position>
              <LatitudeDegrees>41.95432391948997974395751953125</LatitudeDegrees>
              <LongitudeDegrees>2.8573507256805896759033203125</LongitudeDegrees>
            </Position>
            <AltitudeMeters>235.399993896484375</AltitudeMeters>
            <DistanceMeters>13248.958623148</DistanceMeters>
          </Trackpoint>
          <Trackpoint>
            <Time>2020-02-15T09:30:17.000Z</Time>
            <Position>
              <LatitudeDegrees>41.9544195570051670074462890625</LatitudeDegrees>
              <LongitudeDegrees>2.8573604486882686614990234375</LongitudeDegrees>
            </Position>
            <AltitudeMeters>235</AltitudeMeters>
            <DistanceMeters>13259.633807677</DistanceMeters>
          </Trackpoint>
          <Trackpoint>
            <Time>2020-02-15T09:30:18.000Z</Time>
            <Position>
              <LatitudeDegrees>41.9545147754251956939697265625</LatitudeDegrees>
              <LongitudeDegrees>2.85737830214202404022216796875</LongitudeDegrees>
            </Position>
            <AltitudeMeters>234.600006103515625</AltitudeMeters>
            <DistanceMeters>13270.33433894</DistanceMeters>
          </Trackpoint>
          <Trackpoint>
            <Time>2020-02-15T09:30:19.000Z</Time>
            <Position>
              <LatitudeDegrees>41.95460722781717777252197265625</LatitudeDegrees>
              <LongitudeDegrees>2.85739020444452762603759765625</LongitudeDegrees>
            </Position>
            <AltitudeMeters>234.399993896484375</AltitudeMeters>
            <DistanceMeters>13280.671306317</DistanceMeters>
          </Trackpoint>
          <Trackpoint>
            <Time>2020-02-15T09:30:20.000Z</Time>
            <Position>
              <LatitudeDegrees>41.95470009930431842803955078125</LatitudeDegrees>
              <LongitudeDegrees>2.85738819278776645660400390625</LongitudeDegrees>
            </Position>
            <AltitudeMeters>233.399993896484375</AltitudeMeters>
            <DistanceMeters>13291.009583968</DistanceMeters>
          </Trackpoint>
          <Trackpoint>
            <Time>2020-02-15T09:30:21.000Z</Time>
            <Position>
              <LatitudeDegrees>41.95479196496307849884033203125</LatitudeDegrees>
              <LongitudeDegrees>2.857379727065563201904296875</LongitudeDegrees>
            </Position>
            <AltitudeMeters>232.399993896484375</AltitudeMeters>
            <DistanceMeters>13301.258381419</DistanceMeters>
          </Trackpoint>
          <Trackpoint>
            <Time>2020-02-15T09:30:22.000Z</Time>
            <Position>
              <LatitudeDegrees>41.9548819027841091156005859375</LatitudeDegrees>
              <LongitudeDegrees>2.85737000405788421630859375</LongitudeDegrees>
            </Position>
            <AltitudeMeters>231.1999969482421875</AltitudeMeters>
            <DistanceMeters>13311.301136211</DistanceMeters>
          </Trackpoint>
          <Trackpoint>
            <Time>2020-02-15T09:30:23.000Z</Time>
            <Position>
              <LatitudeDegrees>41.95496857166290283203125</LatitudeDegrees>
              <LongitudeDegrees>2.85736438818275928497314453125</LongitudeDegrees>
            </Position>
            <AltitudeMeters>230.1999969482421875</AltitudeMeters>
            <DistanceMeters>13320.958861595</DistanceMeters>
          </Trackpoint>
          <Trackpoint>
            <Time>2020-02-15T09:30:24.000Z</Time>
            <Position>
              <LatitudeDegrees>41.9550518877804279327392578125</LatitudeDegrees>
              <LongitudeDegrees>2.85736137069761753082275390625</LongitudeDegrees>
            </Position>
            <AltitudeMeters>229.399993896484375</AltitudeMeters>
            <DistanceMeters>13330.235532792</DistanceMeters>
          </Trackpoint>
          <Trackpoint>
            <Time>2020-02-15T09:30:25.000Z</Time>
            <Position>
              <LatitudeDegrees>41.95513042621314525604248046875</LatitudeDegrees>
              <LongitudeDegrees>2.85736857913434505462646484375</LongitudeDegrees>
            </Position>
            <AltitudeMeters>228.600006103515625</AltitudeMeters>
            <DistanceMeters>13338.997593619</DistanceMeters>
          </Trackpoint>
          <Trackpoint>
            <Time>2020-02-15T09:30:26.000Z</Time>
            <Position>
              <LatitudeDegrees>41.9552017562091350555419921875</LatitudeDegrees>
              <LongitudeDegrees>2.85738316364586353302001953125</LongitudeDegrees>
            </Position>
            <AltitudeMeters>228</AltitudeMeters>
            <DistanceMeters>13347.028334927</DistanceMeters>
          </Trackpoint>
          <Trackpoint>
            <Time>2020-02-15T09:30:27.000Z</Time>
            <Position>
              <LatitudeDegrees>41.95526638068258762359619140625</LatitudeDegrees>
              <LongitudeDegrees>2.85740696825087070465087890625</LongitudeDegrees>
            </Position>
            <AltitudeMeters>228</AltitudeMeters>
            <DistanceMeters>13354.485964632</DistanceMeters>
          </Trackpoint>
          <Trackpoint>
            <Time>2020-02-15T09:30:28.000Z</Time>
            <Position>
              <LatitudeDegrees>41.955320276319980621337890625</LatitudeDegrees>
              <LongitudeDegrees>2.85742708481848239898681640625</LongitudeDegrees>
            </Position>
            <AltitudeMeters>227.600006103515625</AltitudeMeters>
            <DistanceMeters>13360.711483735</DistanceMeters>
          </Trackpoint>
          <Trackpoint>
            <Time>2020-02-15T09:30:29.000Z</Time>
            <Position>
              <LatitudeDegrees>41.9553641974925994873046875</LatitudeDegrees>
              <LongitudeDegrees>2.85743781365454196929931640625</LongitudeDegrees>
            </Position>
            <AltitudeMeters>227</AltitudeMeters>
            <DistanceMeters>13365.680208823</DistanceMeters>
          </Trackpoint>
          <Trackpoint>
            <Time>2020-02-15T09:30:30.000Z</Time>
            <Position>
              <LatitudeDegrees>41.955396719276905059814453125</LatitudeDegrees>
              <LongitudeDegrees>2.85743932239711284637451171875</LongitudeDegrees>
            </Position>
            <AltitudeMeters>226.8000030517578125</AltitudeMeters>
            <DistanceMeters>13369.302459653</DistanceMeters>
          </Trackpoint>
          <Trackpoint>
            <Time>2020-02-15T09:30:31.000Z</Time>
            <Position>
              <LatitudeDegrees>41.95541985332965850830078125</LatitudeDegrees>
              <LongitudeDegrees>2.857440747320652008056640625</LongitudeDegrees>
            </Position>
            <AltitudeMeters>226.1999969482421875</AltitudeMeters>
            <DistanceMeters>13371.883970144</DistanceMeters>
          </Trackpoint>
          <Trackpoint>
            <Time>2020-02-15T09:30:32.000Z</Time>
            <Position>
              <LatitudeDegrees>41.95544156245887279510498046875</LatitudeDegrees>
              <LongitudeDegrees>2.857444100081920623779296875</LongitudeDegrees>
            </Position>
            <AltitudeMeters>226</AltitudeMeters>
            <DistanceMeters>13374.317841576</DistanceMeters>
          </Trackpoint>
          <Trackpoint>
            <Time>2020-02-15T09:30:33.000Z</Time>
            <Position>
              <LatitudeDegrees>41.9554656185209751129150390625</LatitudeDegrees>
              <LongitudeDegrees>2.8574492968618869781494140625</LongitudeDegrees>
            </Position>
            <AltitudeMeters>225.8000030517578125</AltitudeMeters>
            <DistanceMeters>13377.029018852</DistanceMeters>
          </Trackpoint>
          <Trackpoint>
            <Time>2020-02-15T09:30:35.000Z</Time>
            <Position>
              <LatitudeDegrees>41.9555286504328250885009765625</LatitudeDegrees>
              <LongitudeDegrees>2.857457511126995086669921875</LongitudeDegrees>
            </Position>
            <AltitudeMeters>224</AltitudeMeters>
            <DistanceMeters>13384.077029247</DistanceMeters>
          </Trackpoint>
          <Trackpoint>
            <Time>2020-02-15T09:30:36.000Z</Time>
            <Position>
              <LatitudeDegrees>41.955565027892589569091796875</LatitudeDegrees>
              <LongitudeDegrees>2.85746254026889801025390625</LongitudeDegrees>
            </Position>
            <AltitudeMeters>223.600006103515625</AltitudeMeters>
            <DistanceMeters>13388.146569785</DistanceMeters>
          </Trackpoint>
          <Trackpoint>
            <Time>2020-02-15T09:30:37.000Z</Time>
            <Position>
              <LatitudeDegrees>41.95560584776103496551513671875</LatitudeDegrees>
              <LongitudeDegrees>2.85746681503951549530029296875</LongitudeDegrees>
            </Position>
            <AltitudeMeters>222.8000030517578125</AltitudeMeters>
            <DistanceMeters>13392.703890909</DistanceMeters>
          </Trackpoint>
          <Trackpoint>
            <Time>2020-02-15T09:30:38.000Z</Time>
            <Position>
              <LatitudeDegrees>41.955646835267543792724609375</LatitudeDegrees>
              <LongitudeDegrees>2.8574717603623867034912109375</LongitudeDegrees>
            </Position>
            <AltitudeMeters>222.1999969482421875</AltitudeMeters>
            <DistanceMeters>13397.284927653</DistanceMeters>
          </Trackpoint>
          <Trackpoint>
            <Time>2020-02-15T09:30:39.000Z</Time>
            <Position>
              <LatitudeDegrees>41.9556860625743865966796875</LatitudeDegrees>
              <LongitudeDegrees>2.85748022608458995819091796875</LongitudeDegrees>
            </Position>
            <AltitudeMeters>221.8000030517578125</AltitudeMeters>
            <DistanceMeters>13401.706478908</DistanceMeters>
          </Trackpoint>
          <Trackpoint>
            <Time>2020-02-15T09:30:40.000Z</Time>
            <Position>
              <LatitudeDegrees>41.955719925463199615478515625</LatitudeDegrees>
              <LongitudeDegrees>2.8574871830642223358154296875</LongitudeDegrees>
            </Position>
            <AltitudeMeters>221.8000030517578125</AltitudeMeters>
            <DistanceMeters>13405.51940732</DistanceMeters>
          </Trackpoint>
          <Trackpoint>
            <Time>2020-02-15T09:30:41.000Z</Time>
            <Position>
              <LatitudeDegrees>41.95575118996202945709228515625</LatitudeDegrees>
              <LongitudeDegrees>2.857489027082920074462890625</LongitudeDegrees>
            </Position>
            <AltitudeMeters>221.8000030517578125</AltitudeMeters>
            <DistanceMeters>13409.003144214</DistanceMeters>
          </Trackpoint>
          <Trackpoint>
            <Time>2020-02-15T09:30:42.000Z</Time>
            <Position>
              <LatitudeDegrees>41.95578186772763729095458984375</LatitudeDegrees>
              <LongitudeDegrees>2.85748927854001522064208984375</LongitudeDegrees>
            </Position>
            <AltitudeMeters>221.8000030517578125</AltitudeMeters>
            <DistanceMeters>13412.417500476</DistanceMeters>
          </Trackpoint>
          <Trackpoint>
            <Time>2020-02-15T09:30:43.000Z</Time>
            <Position>
              <LatitudeDegrees>41.9558116234838962554931640625</LatitudeDegrees>
              <LongitudeDegrees>2.85748743452131748199462890625</LongitudeDegrees>
            </Position>
            <AltitudeMeters>221.8000030517578125</AltitudeMeters>
            <DistanceMeters>13415.732557494</DistanceMeters>
          </Trackpoint>
          <Trackpoint>
            <Time>2020-02-15T09:30:44.000Z</Time>
            <Position>
              <LatitudeDegrees>41.95584054104983806610107421875</LatitudeDegrees>
              <LongitudeDegrees>2.85748693160712718963623046875</LongitudeDegrees>
            </Position>
            <AltitudeMeters>221.600006103515625</AltitudeMeters>
            <DistanceMeters>13418.95226676</DistanceMeters>
          </Trackpoint>
          <Trackpoint>
            <Time>2020-02-15T09:30:45.000Z</Time>
            <Position>
              <LatitudeDegrees>41.9558684527873992919921875</LatitudeDegrees>
              <LongitudeDegrees>2.8574881888926029205322265625</LongitudeDegrees>
            </Position>
            <AltitudeMeters>221.600006103515625</AltitudeMeters>
            <DistanceMeters>13422.060671785</DistanceMeters>
          </Trackpoint>
          <Trackpoint>
            <Time>2020-02-15T09:30:46.000Z</Time>
            <Position>
              <LatitudeDegrees>41.955896951258182525634765625</LatitudeDegrees>
              <LongitudeDegrees>2.85748994909226894378662109375</LongitudeDegrees>
            </Position>
            <AltitudeMeters>221.600006103515625</AltitudeMeters>
            <DistanceMeters>13425.233767313</DistanceMeters>
          </Trackpoint>
          <Trackpoint>
            <Time>2020-02-15T09:30:47.000Z</Time>
            <Position>
              <LatitudeDegrees>41.95592469535768032073974609375</LatitudeDegrees>
              <LongitudeDegrees>2.8574972413480281829833984375</LongitudeDegrees>
            </Position>
            <AltitudeMeters>221.600006103515625</AltitudeMeters>
            <DistanceMeters>13428.378275813</DistanceMeters>
          </Trackpoint>
          <Trackpoint>
            <Time>2020-02-15T09:30:48.000Z</Time>
            <Position>
              <LatitudeDegrees>41.95594958961009979248046875</LatitudeDegrees>
              <LongitudeDegrees>2.85750503651797771453857421875</LongitudeDegrees>
            </Position>
            <AltitudeMeters>221.8000030517578125</AltitudeMeters>
            <DistanceMeters>13431.221147322</DistanceMeters>
          </Trackpoint>
          <Trackpoint>
            <Time>2020-02-15T09:30:49.000Z</Time>
            <Position>
              <LatitudeDegrees>41.95597431622445583343505859375</LatitudeDegrees>
              <LongitudeDegrees>2.85752012394368648529052734375</LongitudeDegrees>
            </Position>
            <AltitudeMeters>221.8000030517578125</AltitudeMeters>
            <DistanceMeters>13434.244132166</DistanceMeters>
          </Trackpoint>
          <Trackpoint>
            <Time>2020-02-15T09:30:50.000Z</Time>
            <Position>
              <LatitudeDegrees>41.9559987075626850128173828125</LatitudeDegrees>
              <LongitudeDegrees>2.85753504373133182525634765625</LongitudeDegrees>
            </Position>
            <AltitudeMeters>221.8000030517578125</AltitudeMeters>
            <DistanceMeters>13437.228031523</DistanceMeters>
          </Trackpoint>
          <Trackpoint>
            <Time>2020-02-15T09:30:51.000Z</Time>
            <Position>
              <LatitudeDegrees>41.95602041669189929962158203125</LatitudeDegrees>
              <LongitudeDegrees>2.85754761658608913421630859375</LongitudeDegrees>
            </Position>
            <AltitudeMeters>222.1999969482421875</AltitudeMeters>
            <DistanceMeters>13439.858057864</DistanceMeters>
          </Trackpoint>
          <Trackpoint>
            <Time>2020-02-15T09:30:52.000Z</Time>
            <Position>
              <LatitudeDegrees>41.9560406170785427093505859375</LatitudeDegrees>
              <LongitudeDegrees>2.8575596027076244354248046875</LongitudeDegrees>
            </Position>
            <AltitudeMeters>222.1999969482421875</AltitudeMeters>
            <DistanceMeters>13442.315927092</DistanceMeters>
          </Trackpoint>
          <Trackpoint>
            <Time>2020-02-15T09:30:53.000Z</Time>
            <Position>
              <LatitudeDegrees>41.9560603983700275421142578125</LatitudeDegrees>
              <LongitudeDegrees>2.8575696609914302825927734375</LongitudeDegrees>
            </Position>
            <AltitudeMeters>222.399993896484375</AltitudeMeters>
            <DistanceMeters>13444.67059627</DistanceMeters>
          </Trackpoint>
          <Trackpoint>
            <Time>2020-02-15T09:30:54.000Z</Time>
            <Position>
              <LatitudeDegrees>41.95608110167086124420166015625</LatitudeDegrees>
              <LongitudeDegrees>2.85757829435169696807861328125</LongitudeDegrees>
            </Position>
            <AltitudeMeters>222.600006103515625</AltitudeMeters>
            <DistanceMeters>13447.082103937</DistanceMeters>
          </Trackpoint>
          <Trackpoint>
            <Time>2020-02-15T09:30:55.000Z</Time>
            <Position>
              <LatitudeDegrees>41.95610239170491695404052734375</LatitudeDegrees>
              <LongitudeDegrees>2.85758533515036106109619140625</LongitudeDegrees>
            </Position>
            <AltitudeMeters>223</AltitudeMeters>
            <DistanceMeters>13449.521534276</DistanceMeters>
          </Trackpoint>
          <Trackpoint>
            <Time>2020-02-15T09:30:56.000Z</Time>
            <Position>
              <LatitudeDegrees>41.9561237655580043792724609375</LatitudeDegrees>
              <LongitudeDegrees>2.8575938008725643157958984375</LongitudeDegrees>
            </Position>
            <AltitudeMeters>223.399993896484375</AltitudeMeters>
            <DistanceMeters>13452.0013492</DistanceMeters>
          </Trackpoint>
          <Trackpoint>
            <Time>2020-02-15T09:30:57.000Z</Time>
            <Position>
              <LatitudeDegrees>41.95614480413496494293212890625</LatitudeDegrees>
              <LongitudeDegrees>2.8576000034809112548828125</LongitudeDegrees>
            </Position>
            <AltitudeMeters>223.600006103515625</AltitudeMeters>
            <DistanceMeters>13454.397831751</DistanceMeters>
          </Trackpoint>
          <Trackpoint>
            <Time>2020-02-15T09:30:58.000Z</Time>
            <Position>
              <LatitudeDegrees>41.95616676472127437591552734375</LatitudeDegrees>
              <LongitudeDegrees>2.85760394297540187835693359375</LongitudeDegrees>
            </Position>
            <AltitudeMeters>223.8000030517578125</AltitudeMeters>
            <DistanceMeters>13456.863037918</DistanceMeters>
          </Trackpoint>
          <Trackpoint>
            <Time>2020-02-15T09:30:59.000Z</Time>
            <Position>
              <LatitudeDegrees>41.956189982593059539794921875</LatitudeDegrees>
              <LongitudeDegrees>2.85760746337473392486572265625</LongitudeDegrees>
            </Position>
            <AltitudeMeters>223.8000030517578125</AltitudeMeters>
            <DistanceMeters>13459.461979468</DistanceMeters>
          </Trackpoint>
          <Trackpoint>
            <Time>2020-02-15T09:31:00.000Z</Time>
            <Position>
              <LatitudeDegrees>41.95621454156935214996337890625</LatitudeDegrees>
              <LongitudeDegrees>2.8576152585446834564208984375</LongitudeDegrees>
            </Position>
            <AltitudeMeters>224</AltitudeMeters>
            <DistanceMeters>13462.26969326</DistanceMeters>
          </Trackpoint>
          <Trackpoint>
            <Time>2020-02-15T09:31:01.000Z</Time>
            <Position>
              <LatitudeDegrees>41.95623851381242275238037109375</LatitudeDegrees>
              <LongitudeDegrees>2.85762255080044269561767578125</LongitudeDegrees>
            </Position>
            <AltitudeMeters>224.1999969482421875</AltitudeMeters>
            <DistanceMeters>13465.007386349</DistanceMeters>
          </Trackpoint>
          <Trackpoint>
            <Time>2020-02-15T09:31:02.000Z</Time>
            <Position>
              <LatitudeDegrees>41.95625946857035160064697265625</LatitudeDegrees>
              <LongitudeDegrees>2.857629843056201934814453125</LongitudeDegrees>
            </Position>
            <AltitudeMeters>224.600006103515625</AltitudeMeters>
            <DistanceMeters>13467.417021</DistanceMeters>
          </Trackpoint>
          <Trackpoint>
            <Time>2020-02-15T09:31:03.000Z</Time>
            <Position>
              <LatitudeDegrees>41.9562776573002338409423828125</LatitudeDegrees>
              <LongitudeDegrees>2.8576360456645488739013671875</LongitudeDegrees>
            </Position>
            <AltitudeMeters>224.8000030517578125</AltitudeMeters>
            <DistanceMeters>13469.505447901</DistanceMeters>
          </Trackpoint>
          <Trackpoint>
            <Time>2020-02-15T09:31:04.000Z</Time>
            <Position>
              <LatitudeDegrees>41.9562934152781963348388671875</LatitudeDegrees>
              <LongitudeDegrees>2.85763956606388092041015625</LongitudeDegrees>
            </Position>
            <AltitudeMeters>225.1999969482421875</AltitudeMeters>
            <DistanceMeters>13471.28323494</DistanceMeters>
          </Trackpoint>
          <Trackpoint>
            <Time>2020-02-15T09:31:05.000Z</Time>
            <Position>
              <LatitudeDegrees>41.95630942471325397491455078125</LatitudeDegrees>
              <LongitudeDegrees>2.8576444275677204132080078125</LongitudeDegrees>
            </Position>
            <AltitudeMeters>225.399993896484375</AltitudeMeters>
            <DistanceMeters>13473.111110287</DistanceMeters>
          </Trackpoint>
          <Trackpoint>
            <Time>2020-02-15T09:31:06.000Z</Time>
            <Position>
              <LatitudeDegrees>41.95632585324347019195556640625</LatitudeDegrees>
              <LongitudeDegrees>2.85764786414802074432373046875</LongitudeDegrees>
            </Position>
            <AltitudeMeters>225.8000030517578125</AltitudeMeters>
            <DistanceMeters>13474.963521972</DistanceMeters>
          </Trackpoint>
          <Trackpoint>
            <Time>2020-02-15T09:31:07.000Z</Time>
            <Position>
              <LatitudeDegrees>41.9563427008688449859619140625</LatitudeDegrees>
              <LongitudeDegrees>2.857651971280574798583984375</LongitudeDegrees>
            </Position>
            <AltitudeMeters>226</AltitudeMeters>
            <DistanceMeters>13476.86880167</DistanceMeters>
          </Trackpoint>
          <Trackpoint>
            <Time>2020-02-15T09:31:08.000Z</Time>
            <Position>
              <LatitudeDegrees>41.95636005140841007232666015625</LatitudeDegrees>
              <LongitudeDegrees>2.8576538152992725372314453125</LongitudeDegrees>
            </Position>
            <AltitudeMeters>226.399993896484375</AltitudeMeters>
            <DistanceMeters>13478.806973954</DistanceMeters>
          </Trackpoint>
          <Trackpoint>
            <Time>2020-02-15T09:31:09.000Z</Time>
            <Position>
              <LatitudeDegrees>41.95637631230056285858154296875</LatitudeDegrees>
              <LongitudeDegrees>2.85765641368925571441650390625</LongitudeDegrees>
            </Position>
            <AltitudeMeters>226.8000030517578125</AltitudeMeters>
            <DistanceMeters>13480.627423913</DistanceMeters>
          </Trackpoint>
          <Trackpoint>
            <Time>2020-02-15T09:31:10.000Z</Time>
            <Position>
              <LatitudeDegrees>41.9563941657543182373046875</LatitudeDegrees>
              <LongitudeDegrees>2.857660353183746337890625</LongitudeDegrees>
            </Position>
            <AltitudeMeters>226.8000030517578125</AltitudeMeters>
            <DistanceMeters>13482.64100389</DistanceMeters>
          </Trackpoint>
          <Trackpoint>
            <Time>2020-02-15T09:31:11.000Z</Time>
            <Position>
              <LatitudeDegrees>41.95641252212226390838623046875</LatitudeDegrees>
              <LongitudeDegrees>2.8576658852398395538330078125</LongitudeDegrees>
            </Position>
            <AltitudeMeters>226.8000030517578125</AltitudeMeters>
            <DistanceMeters>13484.73590655</DistanceMeters>
          </Trackpoint>
          <Trackpoint>
            <Time>2020-02-15T09:31:12.000Z</Time>
            <Position>
              <LatitudeDegrees>41.95642928592860698699951171875</LatitudeDegrees>
              <LongitudeDegrees>2.85766948945820331573486328125</LongitudeDegrees>
            </Position>
            <AltitudeMeters>227</AltitudeMeters>
            <DistanceMeters>13486.626914289</DistanceMeters>
          </Trackpoint>
          <Trackpoint>
            <Time>2020-02-15T09:31:13.000Z</Time>
            <Position>
              <LatitudeDegrees>41.956446468830108642578125</LatitudeDegrees>
              <LongitudeDegrees>2.85767300985753536224365234375</LongitudeDegrees>
            </Position>
            <AltitudeMeters>227.1999969482421875</AltitudeMeters>
            <DistanceMeters>13488.560421892</DistanceMeters>
          </Trackpoint>
          <Trackpoint>
            <Time>2020-02-15T09:31:14.000Z</Time>
            <Position>
              <LatitudeDegrees>41.956465579569339752197265625</LatitudeDegrees>
              <LongitudeDegrees>2.857676781713962554931640625</LongitudeDegrees>
            </Position>
            <AltitudeMeters>227.8000030517578125</AltitudeMeters>
            <DistanceMeters>13490.708530144</DistanceMeters>
          </Trackpoint>
          <Trackpoint>
            <Time>2020-02-15T09:31:15.000Z</Time>
            <Position>
              <LatitudeDegrees>41.95648611523211002349853515625</LatitudeDegrees>
              <LongitudeDegrees>2.85768248140811920166015625</LongitudeDegrees>
            </Position>
            <AltitudeMeters>227.8000030517578125</AltitudeMeters>
            <DistanceMeters>13493.043945775</DistanceMeters>
          </Trackpoint>
          <Trackpoint>
            <Time>2020-02-15T09:31:16.000Z</Time>
            <Position>
              <LatitudeDegrees>41.9565056450664997100830078125</LatitudeDegrees>
              <LongitudeDegrees>2.85769010894000530242919921875</LongitudeDegrees>
            </Position>
            <AltitudeMeters>228.1999969482421875</AltitudeMeters>
            <DistanceMeters>13495.306699262</DistanceMeters>
          </Trackpoint>
          <Trackpoint>
            <Time>2020-02-15T09:31:17.000Z</Time>
            <Position>
              <LatitudeDegrees>41.956523917615413665771484375</LatitudeDegrees>
              <LongitudeDegrees>2.8576984070241451263427734375</LongitudeDegrees>
            </Position>
            <AltitudeMeters>228.8000030517578125</AltitudeMeters>
            <DistanceMeters>13497.452704618</DistanceMeters>
          </Trackpoint>
          <Trackpoint>
            <Time>2020-02-15T09:31:18.000Z</Time>
            <Position>
              <LatitudeDegrees>41.956543028354644775390625</LatitudeDegrees>
              <LongitudeDegrees>2.857708632946014404296875</LongitudeDegrees>
            </Position>
            <AltitudeMeters>229</AltitudeMeters>
            <DistanceMeters>13499.741250955</DistanceMeters>
          </Trackpoint>
          <Trackpoint>
            <Time>2020-02-15T09:31:19.000Z</Time>
            <Position>
              <LatitudeDegrees>41.95656138472259044647216796875</LatitudeDegrees>
              <LongitudeDegrees>2.85771827213466167449951171875</LongitudeDegrees>
            </Position>
            <AltitudeMeters>229.399993896484375</AltitudeMeters>
            <DistanceMeters>13501.935113017</DistanceMeters>
          </Trackpoint>
          <Trackpoint>
            <Time>2020-02-15T09:31:20.000Z</Time>
            <Position>
              <LatitudeDegrees>41.9565810821950435638427734375</LatitudeDegrees>
              <LongitudeDegrees>2.8577285818755626678466796875</LongitudeDegrees>
            </Position>
            <AltitudeMeters>229.8000030517578125</AltitudeMeters>
            <DistanceMeters>13504.289782194</DistanceMeters>
          </Trackpoint>
          <Trackpoint>
            <Time>2020-02-15T09:31:21.000Z</Time>
            <Position>
              <LatitudeDegrees>41.956602036952972412109375</LatitudeDegrees>
              <LongitudeDegrees>2.85773788578808307647705078125</LongitudeDegrees>
            </Position>
            <AltitudeMeters>230</AltitudeMeters>
            <DistanceMeters>13506.745813763</DistanceMeters>
          </Trackpoint>
          <Trackpoint>
            <Time>2020-02-15T09:31:22.000Z</Time>
            <Position>
              <LatitudeDegrees>41.9566209800541400909423828125</LatitudeDegrees>
              <LongitudeDegrees>2.85774727351963520050048828125</LongitudeDegrees>
            </Position>
            <AltitudeMeters>230.399993896484375</AltitudeMeters>
            <DistanceMeters>13508.992547555</DistanceMeters>
          </Trackpoint>
          <Trackpoint>
            <Time>2020-02-15T09:31:23.000Z</Time>
            <Position>
              <LatitudeDegrees>41.95664084516465663909912109375</LatitudeDegrees>
              <LongitudeDegrees>2.857755906879901885986328125</LongitudeDegrees>
            </Position>
            <AltitudeMeters>230.600006103515625</AltitudeMeters>
            <DistanceMeters>13511.316334488</DistanceMeters>
          </Trackpoint>
          <Trackpoint>
            <Time>2020-02-15T09:31:24.000Z</Time>
            <Position>
              <LatitudeDegrees>41.9566618837416172027587890625</LatitudeDegrees>
              <LongitudeDegrees>2.85776269622147083282470703125</LongitudeDegrees>
            </Position>
            <AltitudeMeters>230.8000030517578125</AltitudeMeters>
            <DistanceMeters>13513.72596914</DistanceMeters>
          </Trackpoint>
          <Trackpoint>
            <Time>2020-02-15T09:31:25.000Z</Time>
            <Position>
              <LatitudeDegrees>41.95668443106114864349365234375</LatitudeDegrees>
              <LongitudeDegrees>2.857774682343006134033203125</LongitudeDegrees>
            </Position>
            <AltitudeMeters>231</AltitudeMeters>
            <DistanceMeters>13516.42546385</DistanceMeters>
          </Trackpoint>
          <Trackpoint>
            <Time>2020-02-15T09:31:26.000Z</Time>
            <Position>
              <LatitudeDegrees>41.95670706219971179962158203125</LatitudeDegrees>
              <LongitudeDegrees>2.85778901539742946624755859375</LongitudeDegrees>
            </Position>
            <AltitudeMeters>231.1999969482421875</AltitudeMeters>
            <DistanceMeters>13519.208951876</DistanceMeters>
          </Trackpoint>
          <Trackpoint>
            <Time>2020-02-15T09:31:27.000Z</Time>
            <Position>
              <LatitudeDegrees>41.95672902278602123260498046875</LatitudeDegrees>
              <LongitudeDegrees>2.8578030131757259368896484375</LongitudeDegrees>
            </Position>
            <AltitudeMeters>231.399993896484375</AltitudeMeters>
            <DistanceMeters>13521.913459579</DistanceMeters>
          </Trackpoint>
          <Trackpoint>
            <Time>2020-02-15T09:31:28.000Z</Time>
            <Position>
              <LatitudeDegrees>41.95674846880137920379638671875</LatitudeDegrees>
              <LongitudeDegrees>2.8578160889446735382080078125</LongitudeDegrees>
            </Position>
            <AltitudeMeters>231.8000030517578125</AltitudeMeters>
            <DistanceMeters>13524.334310589</DistanceMeters>
          </Trackpoint>
          <Trackpoint>
            <Time>2020-02-15T09:31:29.000Z</Time>
            <Position>
              <LatitudeDegrees>41.95676540024578571319580078125</LatitudeDegrees>
              <LongitudeDegrees>2.85782732069492340087890625</LongitudeDegrees>
            </Position>
            <AltitudeMeters>232</AltitudeMeters>
            <DistanceMeters>13526.437816581</DistanceMeters>
          </Trackpoint>
          <Trackpoint>
            <Time>2020-02-15T09:31:30.000Z</Time>
            <Position>
              <LatitudeDegrees>41.956782080233097076416015625</LatitudeDegrees>
              <LongitudeDegrees>2.8578382171690464019775390625</LongitudeDegrees>
            </Position>
            <AltitudeMeters>232.1999969482421875</AltitudeMeters>
            <DistanceMeters>13528.502325259</DistanceMeters>
          </Trackpoint>
          <Trackpoint>
            <Time>2020-02-15T09:31:31.000Z</Time>
            <Position>
              <LatitudeDegrees>41.9567963294684886932373046875</LatitudeDegrees>
              <LongitudeDegrees>2.85784877836704254150390625</LongitudeDegrees>
            </Position>
            <AltitudeMeters>232.600006103515625</AltitudeMeters>
            <DistanceMeters>13530.31282733</DistanceMeters>
          </Trackpoint>
          <Trackpoint>
            <Time>2020-02-15T09:31:32.000Z</Time>
            <Position>
              <LatitudeDegrees>41.956810913980007171630859375</LatitudeDegrees>
              <LongitudeDegrees>2.85785791464149951934814453125</LongitudeDegrees>
            </Position>
            <AltitudeMeters>232.600006103515625</AltitudeMeters>
            <DistanceMeters>13532.105787791</DistanceMeters>
          </Trackpoint>
          <Trackpoint>
            <Time>2020-02-15T09:31:33.000Z</Time>
            <Position>
              <LatitudeDegrees>41.95682466030120849609375</LatitudeDegrees>
              <LongitudeDegrees>2.8578647039830684661865234375</LongitudeDegrees>
            </Position>
            <AltitudeMeters>232.8000030517578125</AltitudeMeters>
            <DistanceMeters>13533.737925209</DistanceMeters>
          </Trackpoint>
          <Trackpoint>
            <Time>2020-02-15T09:31:34.000Z</Time>
            <Position>
              <LatitudeDegrees>41.956837065517902374267578125</LatitudeDegrees>
              <LongitudeDegrees>2.8578700684010982513427734375</LongitudeDegrees>
            </Position>
            <AltitudeMeters>232.8000030517578125</AltitudeMeters>
            <DistanceMeters>13535.191554422</DistanceMeters>
          </Trackpoint>
          <Trackpoint>
            <Time>2020-02-15T09:31:35.000Z</Time>
            <Position>
              <LatitudeDegrees>41.9568516500294208526611328125</LatitudeDegrees>
              <LongitudeDegrees>2.85787819884717464447021484375</LongitudeDegrees>
            </Position>
            <AltitudeMeters>233</AltitudeMeters>
            <DistanceMeters>13536.948906448</DistanceMeters>
          </Trackpoint>
          <Trackpoint>
            <Time>2020-02-15T09:31:36.000Z</Time>
            <Position>
              <LatitudeDegrees>41.9568690843880176544189453125</LatitudeDegrees>
              <LongitudeDegrees>2.85788574256002902984619140625</LongitudeDegrees>
            </Position>
            <AltitudeMeters>233.1999969482421875</AltitudeMeters>
            <DistanceMeters>13538.987002413</DistanceMeters>
          </Trackpoint>
          <Trackpoint>
            <Time>2020-02-15T09:31:37.000Z</Time>
            <Position>
              <LatitudeDegrees>41.9568855129182338714599609375</LatitudeDegrees>
              <LongitudeDegrees>2.8578938730061054229736328125</LongitudeDegrees>
            </Position>
            <AltitudeMeters>233.399993896484375</AltitudeMeters>
            <DistanceMeters>13540.93447054</DistanceMeters>
          </Trackpoint>
          <Trackpoint>
            <Time>2020-02-15T09:31:38.000Z</Time>
            <Position>
              <LatitudeDegrees>41.95690269581973552703857421875</LatitudeDegrees>
              <LongitudeDegrees>2.85790250636637210845947265625</LongitudeDegrees>
            </Position>
            <AltitudeMeters>233.399993896484375</AltitudeMeters>
            <DistanceMeters>13542.976992344</DistanceMeters>
          </Trackpoint>
          <Trackpoint>
            <Time>2020-02-15T09:31:39.000Z</Time>
            <Position>
              <LatitudeDegrees>41.95692096836864948272705078125</LatitudeDegrees>
              <LongitudeDegrees>2.857912480831146240234375</LongitudeDegrees>
            </Position>
            <AltitudeMeters>233.600006103515625</AltitudeMeters>
            <DistanceMeters>13545.170854405</DistanceMeters>
          </Trackpoint>
          <Trackpoint>
            <Time>2020-02-15T09:31:40.000Z</Time>
            <Position>
              <LatitudeDegrees>41.95693857036530971527099609375</LatitudeDegrees>
              <LongitudeDegrees>2.85792027600109577178955078125</LongitudeDegrees>
            </Position>
            <AltitudeMeters>233.600006103515625</AltitudeMeters>
            <DistanceMeters>13547.230984481</DistanceMeters>
          </Trackpoint>
          <Trackpoint>
            <Time>2020-02-15T09:31:41.000Z</Time>
            <Position>
              <LatitudeDegrees>41.95695784874260425567626953125</LatitudeDegrees>
              <LongitudeDegrees>2.857928238809108734130859375</LongitudeDegrees>
            </Position>
            <AltitudeMeters>233.8000030517578125</AltitudeMeters>
            <DistanceMeters>13549.475707772</DistanceMeters>
          </Trackpoint>
          <Trackpoint>
            <Time>2020-02-15T09:31:42.000Z</Time>
            <Position>
              <LatitudeDegrees>41.95697645656764507293701171875</LatitudeDegrees>
              <LongitudeDegrees>2.85793586634099483489990234375</LongitudeDegrees>
            </Position>
            <AltitudeMeters>234.399993896484375</AltitudeMeters>
            <DistanceMeters>13551.63847905</DistanceMeters>
          </Trackpoint>
          <Trackpoint>
            <Time>2020-02-15T09:31:43.000Z</Time>
            <Position>
              <LatitudeDegrees>41.95699221454560756683349609375</LatitudeDegrees>
              <LongitudeDegrees>2.857945002615451812744140625</LongitudeDegrees>
            </Position>
            <AltitudeMeters>234.600006103515625</AltitudeMeters>
            <DistanceMeters>13553.54849237</DistanceMeters>
          </Trackpoint>
          <Trackpoint>
            <Time>2020-02-15T09:31:44.000Z</Time>
            <Position>
              <LatitudeDegrees>41.9570088945329189300537109375</LatitudeDegrees>
              <LongitudeDegrees>2.85795279778540134429931640625</LongitudeDegrees>
            </Position>
            <AltitudeMeters>235</AltitudeMeters>
            <DistanceMeters>13555.512122335</DistanceMeters>
          </Trackpoint>
          <Trackpoint>
            <Time>2020-02-15T09:31:45.000Z</Time>
            <Position>
              <LatitudeDegrees>41.9570256583392620086669921875</LatitudeDegrees>
              <LongitudeDegrees>2.85795732401311397552490234375</LongitudeDegrees>
            </Position>
            <AltitudeMeters>235.1999969482421875</AltitudeMeters>
            <DistanceMeters>13557.412656623</DistanceMeters>
          </Trackpoint>
          <Trackpoint>
            <Time>2020-02-15T09:31:46.000Z</Time>
            <Position>
              <LatitudeDegrees>41.9570424221456050872802734375</LatitudeDegrees>
              <LongitudeDegrees>2.85796268843114376068115234375</LongitudeDegrees>
            </Position>
            <AltitudeMeters>235.1999969482421875</AltitudeMeters>
            <DistanceMeters>13559.332102165</DistanceMeters>
          </Trackpoint>
          <Trackpoint>
            <Time>2020-02-15T09:31:47.000Z</Time>
            <Position>
              <LatitudeDegrees>41.95705474354326725006103515625</LatitudeDegrees>
              <LongitudeDegrees>2.857968807220458984375</LongitudeDegrees>
            </Position>
            <AltitudeMeters>235.600006103515625</AltitudeMeters>
            <DistanceMeters>13560.791930251</DistanceMeters>
          </Trackpoint>
          <Trackpoint>
            <Time>2020-02-15T09:31:48.000Z</Time>
            <Position>
              <LatitudeDegrees>41.957067735493183135986328125</LatitudeDegrees>
              <LongitudeDegrees>2.857977189123630523681640625</LongitudeDegrees>
            </Position>
            <AltitudeMeters>235.600006103515625</AltitudeMeters>
            <DistanceMeters>13562.398977812</DistanceMeters>
          </Trackpoint>
          <Trackpoint>
            <Time>2020-02-15T09:31:49.000Z</Time>
            <Position>
              <LatitudeDegrees>41.9570808112621307373046875</LatitudeDegrees>
              <LongitudeDegrees>2.8579843975603580474853515625</LongitudeDegrees>
            </Position>
            <AltitudeMeters>235.8000030517578125</AltitudeMeters>
            <DistanceMeters>13563.971949822</DistanceMeters>
          </Trackpoint>
          <Trackpoint>
            <Time>2020-02-15T09:31:50.000Z</Time>
            <Position>
              <LatitudeDegrees>41.95709288120269775390625</LatitudeDegrees>
              <LongitudeDegrees>2.8579904325306415557861328125</LongitudeDegrees>
            </Position>
            <AltitudeMeters>236</AltitudeMeters>
            <DistanceMeters>13565.406821743</DistanceMeters>
          </Trackpoint>
          <Trackpoint>
            <Time>2020-02-15T09:31:51.000Z</Time>
            <Position>
              <LatitudeDegrees>41.9571037776768207550048828125</LatitudeDegrees>
              <LongitudeDegrees>2.85800040699541568756103515625</LongitudeDegrees>
            </Position>
            <AltitudeMeters>236.399993896484375</AltitudeMeters>
            <DistanceMeters>13566.872822491</DistanceMeters>
          </Trackpoint>
          <Trackpoint>
            <Time>2020-02-15T09:31:52.000Z</Time>
            <Position>
              <LatitudeDegrees>41.95711291395127773284912109375</LatitudeDegrees>
              <LongitudeDegrees>2.85801239311695098876953125</LongitudeDegrees>
            </Position>
            <AltitudeMeters>236.600006103515625</AltitudeMeters>
            <DistanceMeters>13568.295052122</DistanceMeters>
          </Trackpoint>
          <Trackpoint>
            <Time>2020-02-15T09:31:53.000Z</Time>
            <Position>
              <LatitudeDegrees>41.9571238942444324493408203125</LatitudeDegrees>
              <LongitudeDegrees>2.85802722908556461334228515625</LongitudeDegrees>
            </Position>
            <AltitudeMeters>236.600006103515625</AltitudeMeters>
            <DistanceMeters>13570.026521261</DistanceMeters>
          </Trackpoint>
          <Trackpoint>
            <Time>2020-02-15T09:31:54.000Z</Time>
            <Position>
              <LatitudeDegrees>41.9571366347372531890869140625</LatitudeDegrees>
              <LongitudeDegrees>2.85803779028356075286865234375</LongitudeDegrees>
            </Position>
            <AltitudeMeters>237</AltitudeMeters>
            <DistanceMeters>13571.69423333</DistanceMeters>
          </Trackpoint>
          <Trackpoint>
            <Time>2020-02-15T09:31:55.000Z</Time>
            <Position>
              <LatitudeDegrees>41.9571510516107082366943359375</LatitudeDegrees>
              <LongitudeDegrees>2.8580481000244617462158203125</LongitudeDegrees>
            </Position>
            <AltitudeMeters>237</AltitudeMeters>
            <DistanceMeters>13573.512201421</DistanceMeters>
          </Trackpoint>
          <Trackpoint>
            <Time>2020-02-15T09:31:56.000Z</Time>
            <Position>
              <LatitudeDegrees>41.95716706104576587677001953125</LatitudeDegrees>
              <LongitudeDegrees>2.85806109197437763214111328125</LongitudeDegrees>
            </Position>
            <AltitudeMeters>237.399993896484375</AltitudeMeters>
            <DistanceMeters>13575.594132422</DistanceMeters>
          </Trackpoint>
          <Trackpoint>
            <Time>2020-02-15T09:31:57.000Z</Time>
            <Position>
              <LatitudeDegrees>41.95718399249017238616943359375</LatitudeDegrees>
              <LongitudeDegrees>2.85807768814265727996826171875</LongitudeDegrees>
            </Position>
            <AltitudeMeters>237.600006103515625</AltitudeMeters>
            <DistanceMeters>13577.925678265</DistanceMeters>
          </Trackpoint>
          <Trackpoint>
            <Time>2020-02-15T09:31:58.000Z</Time>
            <Position>
              <LatitudeDegrees>41.9572006724774837493896484375</LatitudeDegrees>
              <LongitudeDegrees>2.85809688270092010498046875</LongitudeDegrees>
            </Position>
            <AltitudeMeters>237.600006103515625</AltitudeMeters>
            <DistanceMeters>13580.368807515</DistanceMeters>
          </Trackpoint>
          <Trackpoint>
            <Time>2020-02-15T09:31:59.000Z</Time>
            <Position>
              <LatitudeDegrees>41.9572181068360805511474609375</LatitudeDegrees>
              <LongitudeDegrees>2.85811658017337322235107421875</LongitudeDegrees>
            </Position>
            <AltitudeMeters>237.8000030517578125</AltitudeMeters>
            <DistanceMeters>13582.904436515</DistanceMeters>
          </Trackpoint>
          <Trackpoint>
            <Time>2020-02-15T09:32:01.000Z</Time>
            <Position>
              <LatitudeDegrees>41.95725582540035247802734375</LatitudeDegrees>
              <LongitudeDegrees>2.85815111361443996429443359375</LongitudeDegrees>
            </Position>
            <AltitudeMeters>238</AltitudeMeters>
            <DistanceMeters>13587.982812075</DistanceMeters>
          </Trackpoint>
          <Trackpoint>
            <Time>2020-02-15T09:32:03.000Z</Time>
            <Position>
              <LatitudeDegrees>41.9572918675839900970458984375</LatitudeDegrees>
              <LongitudeDegrees>2.85818480886518955230712890625</LongitudeDegrees>
            </Position>
            <AltitudeMeters>238</AltitudeMeters>
            <DistanceMeters>13592.869070574</DistanceMeters>
          </Trackpoint>
          <Trackpoint>
            <Time>2020-02-15T09:32:04.000Z</Time>
            <Position>
              <LatitudeDegrees>41.95730812847614288330078125</LatitudeDegrees>
              <LongitudeDegrees>2.8582035005092620849609375</LongitudeDegrees>
            </Position>
            <AltitudeMeters>238</AltitudeMeters>
            <DistanceMeters>13595.25043321</DistanceMeters>
          </Trackpoint>
          <Trackpoint>
            <Time>2020-02-15T09:32:05.000Z</Time>
            <Position>
              <LatitudeDegrees>41.95732447318732738494873046875</LatitudeDegrees>
              <LongitudeDegrees>2.8582195937633514404296875</LongitudeDegrees>
            </Position>
            <AltitudeMeters>238</AltitudeMeters>
            <DistanceMeters>13597.505191077</DistanceMeters>
          </Trackpoint>
          <Trackpoint>
            <Time>2020-02-15T09:32:06.000Z</Time>
            <Position>
              <LatitudeDegrees>41.9573404826223850250244140625</LatitudeDegrees>
              <LongitudeDegrees>2.858232669532299041748046875</LongitudeDegrees>
            </Position>
            <AltitudeMeters>238</AltitudeMeters>
            <DistanceMeters>13599.591454926</DistanceMeters>
          </Trackpoint>
          <Trackpoint>
            <Time>2020-02-15T09:32:07.000Z</Time>
            <Position>
              <LatitudeDegrees>41.95735364221036434173583984375</LatitudeDegrees>
              <LongitudeDegrees>2.85824633203446865081787109375</LongitudeDegrees>
            </Position>
            <AltitudeMeters>238.1999969482421875</AltitudeMeters>
            <DistanceMeters>13601.441427621</DistanceMeters>
          </Trackpoint>
          <Trackpoint>
            <Time>2020-02-15T09:32:08.000Z</Time>
            <Position>
              <LatitudeDegrees>41.957366801798343658447265625</LatitudeDegrees>
              <LongitudeDegrees>2.85826091654598712921142578125</LongitudeDegrees>
            </Position>
            <AltitudeMeters>238.1999969482421875</AltitudeMeters>
            <DistanceMeters>13603.337204618</DistanceMeters>
          </Trackpoint>
          <Trackpoint>
            <Time>2020-02-15T09:32:09.000Z</Time>
            <Position>
              <LatitudeDegrees>41.95738255977630615234375</LatitudeDegrees>
              <LongitudeDegrees>2.85827315412461757659912109375</LongitudeDegrees>
            </Position>
            <AltitudeMeters>238.1999969482421875</AltitudeMeters>
            <DistanceMeters>13605.361965025</DistanceMeters>
          </Trackpoint>
          <Trackpoint>
            <Time>2020-02-15T09:32:10.000Z</Time>
            <Position>
              <LatitudeDegrees>41.9573978148400783538818359375</LatitudeDegrees>
              <LongitudeDegrees>2.858284302055835723876953125</LongitudeDegrees>
            </Position>
            <AltitudeMeters>238.1999969482421875</AltitudeMeters>
            <DistanceMeters>13607.293136061</DistanceMeters>
          </Trackpoint>
          <Trackpoint>
            <Time>2020-02-15T09:32:11.000Z</Time>
            <Position>
              <LatitudeDegrees>41.95741248317062854766845703125</LatitudeDegrees>
              <LongitudeDegrees>2.8582973778247833251953125</LongitudeDegrees>
            </Position>
            <AltitudeMeters>238.399993896484375</AltitudeMeters>
            <DistanceMeters>13609.254465347</DistanceMeters>
          </Trackpoint>
          <Trackpoint>
            <Time>2020-02-15T09:32:12.000Z</Time>
            <Position>
              <LatitudeDegrees>41.9574259780347347259521484375</LatitudeDegrees>
              <LongitudeDegrees>2.85831254906952381134033203125</LongitudeDegrees>
            </Position>
            <AltitudeMeters>238.399993896484375</AltitudeMeters>
            <DistanceMeters>13611.215794632</DistanceMeters>
          </Trackpoint>
          <Trackpoint>
            <Time>2020-02-15T09:32:13.000Z</Time>
            <Position>
              <LatitudeDegrees>41.95744089782238006591796875</LatitudeDegrees>
              <LongitudeDegrees>2.858328558504581451416015625</LongitudeDegrees>
            </Position>
            <AltitudeMeters>238.399993896484375</AltitudeMeters>
            <DistanceMeters>13613.340656562</DistanceMeters>
          </Trackpoint>
          <Trackpoint>
            <Time>2020-02-15T09:32:17.000Z</Time>
            <Position>
              <LatitudeDegrees>41.95751289837062358856201171875</LatitudeDegrees>
              <LongitudeDegrees>2.85839452408254146575927734375</LongitudeDegrees>
            </Position>
            <AltitudeMeters>238.8000030517578125</AltitudeMeters>
            <DistanceMeters>13623.037107249</DistanceMeters>
          </Trackpoint>
          <Trackpoint>
            <Time>2020-02-15T09:32:18.000Z</Time>
            <Position>
              <LatitudeDegrees>41.957531087100505828857421875</LatitudeDegrees>
              <LongitudeDegrees>2.85840877331793308258056640625</LongitudeDegrees>
            </Position>
            <AltitudeMeters>239.1999969482421875</AltitudeMeters>
            <DistanceMeters>13625.380243284</DistanceMeters>
          </Trackpoint>
          <Trackpoint>
            <Time>2020-02-15T09:32:19.000Z</Time>
            <Position>
              <LatitudeDegrees>41.957548521459102630615234375</LatitudeDegrees>
              <LongitudeDegrees>2.85842101089656352996826171875</LongitudeDegrees>
            </Position>
            <AltitudeMeters>239</AltitudeMeters>
            <DistanceMeters>13627.567922538</DistanceMeters>
          </Trackpoint>
          <Trackpoint>
            <Time>2020-02-15T09:32:20.000Z</Time>
            <Position>
              <LatitudeDegrees>41.95756386034190654754638671875</LatitudeDegrees>
              <LongitudeDegrees>2.85843224264681339263916015625</LongitudeDegrees>
            </Position>
            <AltitudeMeters>239.1999969482421875</AltitudeMeters>
            <DistanceMeters>13629.510748303</DistanceMeters>
          </Trackpoint>
          <Trackpoint>
            <Time>2020-02-15T09:32:21.000Z</Time>
            <Position>
              <LatitudeDegrees>41.9575770199298858642578125</LatitudeDegrees>
              <LongitudeDegrees>2.85844028927385807037353515625</LongitudeDegrees>
            </Position>
            <AltitudeMeters>239.1999969482421875</AltitudeMeters>
            <DistanceMeters>13631.117795864</DistanceMeters>
          </Trackpoint>
          <Trackpoint>
            <Time>2020-02-15T09:32:22.000Z</Time>
            <Position>
              <LatitudeDegrees>41.9575895927846431732177734375</LatitudeDegrees>
              <LongitudeDegrees>2.858444564044475555419921875</LongitudeDegrees>
            </Position>
            <AltitudeMeters>239.399993896484375</AltitudeMeters>
            <DistanceMeters>13632.562076881</DistanceMeters>
          </Trackpoint>
          <Trackpoint>
            <Time>2020-02-15T09:32:23.000Z</Time>
            <Position>
              <LatitudeDegrees>41.9576016627252101898193359375</LatitudeDegrees>
              <LongitudeDegrees>2.85844783298671245574951171875</LongitudeDegrees>
            </Position>
            <AltitudeMeters>239.1999969482421875</AltitudeMeters>
            <DistanceMeters>13633.932571646</DistanceMeters>
          </Trackpoint>
          <Trackpoint>
            <Time>2020-02-15T09:32:24.000Z</Time>
            <Position>
              <LatitudeDegrees>41.9576167501509189605712890625</LatitudeDegrees>
              <LongitudeDegrees>2.85845495760440826416015625</LongitudeDegrees>
            </Position>
            <AltitudeMeters>239.1999969482421875</AltitudeMeters>
            <DistanceMeters>13635.715430841</DistanceMeters>
          </Trackpoint>
          <Trackpoint>
            <Time>2020-02-15T09:32:25.000Z</Time>
            <Position>
              <LatitudeDegrees>41.95763208903372287750244140625</LatitudeDegrees>
              <LongitudeDegrees>2.85846224986016750335693359375</LongitudeDegrees>
            </Position>
            <AltitudeMeters>239.399993896484375</AltitudeMeters>
            <DistanceMeters>13637.523437388</DistanceMeters>
          </Trackpoint>
          <Trackpoint>
            <Time>2020-02-15T09:32:26.000Z</Time>
            <Position>
              <LatitudeDegrees>41.957648098468780517578125</LatitudeDegrees>
              <LongitudeDegrees>2.8584688715636730194091796875</LongitudeDegrees>
            </Position>
            <AltitudeMeters>239.399993896484375</AltitudeMeters>
            <DistanceMeters>13639.385573085</DistanceMeters>
          </Trackpoint>
          <Trackpoint>
            <Time>2020-02-15T09:32:27.000Z</Time>
            <Position>
              <LatitudeDegrees>41.95766486227512359619140625</LatitudeDegrees>
              <LongitudeDegrees>2.85847239196300506591796875</LongitudeDegrees>
            </Position>
            <AltitudeMeters>239.399993896484375</AltitudeMeters>
            <DistanceMeters>13641.271799508</DistanceMeters>
          </Trackpoint>
          <Trackpoint>
            <Time>2020-02-15T09:32:28.000Z</Time>
            <Position>
              <LatitudeDegrees>41.95768053643405437469482421875</LatitudeDegrees>
              <LongitudeDegrees>2.858474738895893096923828125</LongitudeDegrees>
            </Position>
            <AltitudeMeters>239.399993896484375</AltitudeMeters>
            <DistanceMeters>13643.024005543</DistanceMeters>
          </Trackpoint>
          <Trackpoint>
            <Time>2020-02-15T09:32:30.000Z</Time>
            <Position>
              <LatitudeDegrees>41.957642398774623870849609375</LatitudeDegrees>
              <LongitudeDegrees>2.85839737392961978912353515625</LongitudeDegrees>
            </Position>
            <AltitudeMeters>239.399993896484375</AltitudeMeters>
            <DistanceMeters>13650.706490795</DistanceMeters>
          </Trackpoint>
          <Trackpoint>
            <Time>2020-02-15T09:32:31.000Z</Time>
            <Position>
              <LatitudeDegrees>41.957642398774623870849609375</LatitudeDegrees>
              <LongitudeDegrees>2.85839737392961978912353515625</LongitudeDegrees>
            </Position>
            <AltitudeMeters>239.399993896484375</AltitudeMeters>
            <DistanceMeters>13650.706490795</DistanceMeters>
          </Trackpoint>
          <Trackpoint>
            <Time>2020-02-15T09:32:32.000Z</Time>
            <Position>
              <LatitudeDegrees>41.95768908597528934478759765625</LatitudeDegrees>
              <LongitudeDegrees>2.85843157209455966949462890625</LongitudeDegrees>
            </Position>
            <AltitudeMeters>239.399993896484375</AltitudeMeters>
            <DistanceMeters>13656.623382409</DistanceMeters>
          </Trackpoint>
          <Trackpoint>
            <Time>2020-02-15T09:32:33.000Z</Time>
            <Position>
              <LatitudeDegrees>41.95770735852420330047607421875</LatitudeDegrees>
              <LongitudeDegrees>2.8584393672645092010498046875</LongitudeDegrees>
            </Position>
            <AltitudeMeters>239.600006103515625</AltitudeMeters>
            <DistanceMeters>13658.756726855</DistanceMeters>
          </Trackpoint>
          <Trackpoint>
            <Time>2020-02-15T09:32:34.000Z</Time>
            <Position>
              <LatitudeDegrees>41.95773099549114704132080078125</LatitudeDegrees>
              <LongitudeDegrees>2.85843928344547748565673828125</LongitudeDegrees>
            </Position>
            <AltitudeMeters>239.600006103515625</AltitudeMeters>
            <DistanceMeters>13661.386753197</DistanceMeters>
          </Trackpoint>
          <Trackpoint>
            <Time>2020-02-15T09:32:35.000Z</Time>
            <Position>
              <LatitudeDegrees>41.95775245316326618194580078125</LatitudeDegrees>
              <LongitudeDegrees>2.85843928344547748565673828125</LongitudeDegrees>
            </Position>
            <AltitudeMeters>239.600006103515625</AltitudeMeters>
            <DistanceMeters>13663.775687753</DistanceMeters>
          </Trackpoint>
          <Trackpoint>
            <Time>2020-02-15T09:32:36.000Z</Time>
            <Position>
              <LatitudeDegrees>41.95778111927211284637451171875</LatitudeDegrees>
              <LongitudeDegrees>2.85844263620674610137939453125</LongitudeDegrees>
            </Position>
            <AltitudeMeters>239.600006103515625</AltitudeMeters>
            <DistanceMeters>13666.977115054</DistanceMeters>
          </Trackpoint>
          <Trackpoint>
            <Time>2020-02-15T09:32:37.000Z</Time>
            <Position>
              <LatitudeDegrees>41.95781431160867214202880859375</LatitudeDegrees>
              <LongitudeDegrees>2.85845319740474224090576171875</LongitudeDegrees>
            </Position>
            <AltitudeMeters>239.8000030517578125</AltitudeMeters>
            <DistanceMeters>13670.773429319</DistanceMeters>
          </Trackpoint>
          <Trackpoint>
            <Time>2020-02-15T09:32:38.000Z</Time>
            <Position>
              <LatitudeDegrees>41.95783258415758609771728515625</LatitudeDegrees>
              <LongitudeDegrees>2.85845805890858173370361328125</LongitudeDegrees>
            </Position>
            <AltitudeMeters>240.1999969482421875</AltitudeMeters>
            <DistanceMeters>13672.84666746</DistanceMeters>
          </Trackpoint>
          <Trackpoint>
            <Time>2020-02-15T09:32:39.000Z</Time>
            <Position>
              <LatitudeDegrees>41.95785236544907093048095703125</LatitudeDegrees>
              <LongitudeDegrees>2.85846174694597721099853515625</LongitudeDegrees>
            </Position>
            <AltitudeMeters>240.1999969482421875</AltitudeMeters>
            <DistanceMeters>13675.07118581</DistanceMeters>
          </Trackpoint>
          <Trackpoint>
            <Time>2020-02-15T09:32:40.000Z</Time>
            <Position>
              <LatitudeDegrees>41.9578672014176845550537109375</LatitudeDegrees>
              <LongitudeDegrees>2.8584678657352924346923828125</LongitudeDegrees>
            </Position>
            <AltitudeMeters>240.399993896484375</AltitudeMeters>
            <DistanceMeters>13676.800045349</DistanceMeters>
          </Trackpoint>
          <Trackpoint>
            <Time>2020-02-15T09:32:41.000Z</Time>
            <Position>
              <LatitudeDegrees>41.95788371376693248748779296875</LatitudeDegrees>
              <LongitudeDegrees>2.858476750552654266357421875</LongitudeDegrees>
            </Position>
            <AltitudeMeters>240.600006103515625</AltitudeMeters>
            <DistanceMeters>13678.779705213</DistanceMeters>
          </Trackpoint>
          <Trackpoint>
            <Time>2020-02-15T09:32:42.000Z</Time>
            <Position>
              <LatitudeDegrees>41.9579034112393856048583984375</LatitudeDegrees>
              <LongitudeDegrees>2.85848404280841350555419921875</LongitudeDegrees>
            </Position>
            <AltitudeMeters>240.600006103515625</AltitudeMeters>
            <DistanceMeters>13681.052413669</DistanceMeters>
          </Trackpoint>
          <Trackpoint>
            <Time>2020-02-15T09:32:43.000Z</Time>
            <Position>
              <LatitudeDegrees>41.9579235278069972991943359375</LatitudeDegrees>
              <LongitudeDegrees>2.85849259234964847564697265625</LongitudeDegrees>
            </Position>
            <AltitudeMeters>240.399993896484375</AltitudeMeters>
            <DistanceMeters>13683.399400382</DistanceMeters>
          </Trackpoint>
          <Trackpoint>
            <Time>2020-02-15T09:32:44.000Z</Time>
            <Position>
              <LatitudeDegrees>41.95794473402202129364013671875</LatitudeDegrees>
              <LongitudeDegrees>2.85850080661475658416748046875</LongitudeDegrees>
            </Position>
            <AltitudeMeters>240.600006103515625</AltitudeMeters>
            <DistanceMeters>13685.853592914</DistanceMeters>
          </Trackpoint>
          <Trackpoint>
            <Time>2020-02-15T09:32:45.000Z</Time>
            <Position>
              <LatitudeDegrees>41.95796065963804721832275390625</LatitudeDegrees>
              <LongitudeDegrees>2.85850499756634235382080078125</LongitudeDegrees>
            </Position>
            <AltitudeMeters>240.600006103515625</AltitudeMeters>
            <DistanceMeters>13687.659100487</DistanceMeters>
          </Trackpoint>
          <Trackpoint>
            <Time>2020-02-15T09:32:46.000Z</Time>
            <Position>
              <LatitudeDegrees>41.9579771719872951507568359375</LatitudeDegrees>
              <LongitudeDegrees>2.85850985907018184661865234375</LongitudeDegrees>
            </Position>
            <AltitudeMeters>240.600006103515625</AltitudeMeters>
            <DistanceMeters>13689.542931701</DistanceMeters>
          </Trackpoint>
          <Trackpoint>
            <Time>2020-02-15T09:32:47.000Z</Time>
            <Position>
              <LatitudeDegrees>41.95799586363136768341064453125</LatitudeDegrees>
              <LongitudeDegrees>2.85850969143211841583251953125</LongitudeDegrees>
            </Position>
            <AltitudeMeters>240.8000030517578125</AltitudeMeters>
            <DistanceMeters>13691.624862702</DistanceMeters>
          </Trackpoint>
          <Trackpoint>
            <Time>2020-02-15T09:32:48.000Z</Time>
            <Position>
              <LatitudeDegrees>41.9580163992941379547119140625</LatitudeDegrees>
              <LongitudeDegrees>2.8585097752511501312255859375</LongitudeDegrees>
            </Position>
            <AltitudeMeters>241.1999969482421875</AltitudeMeters>
            <DistanceMeters>13693.909459863</DistanceMeters>
          </Trackpoint>
          <Trackpoint>
            <Time>2020-02-15T09:32:49.000Z</Time>
            <Position>
              <LatitudeDegrees>41.95803894661366939544677734375</LatitudeDegrees>
              <LongitudeDegrees>2.8585117869079113006591796875</LongitudeDegrees>
            </Position>
            <AltitudeMeters>241.1999969482421875</AltitudeMeters>
            <DistanceMeters>13696.423630404</DistanceMeters>
          </Trackpoint>
          <Trackpoint>
            <Time>2020-02-15T09:32:50.000Z</Time>
            <Position>
              <LatitudeDegrees>41.9580651819705963134765625</LatitudeDegrees>
              <LongitudeDegrees>2.85851639695465564727783203125</LongitudeDegrees>
            </Position>
            <AltitudeMeters>241.1999969482421875</AltitudeMeters>
            <DistanceMeters>13699.367925461</DistanceMeters>
          </Trackpoint>
          <Trackpoint>
            <Time>2020-02-15T09:32:51.000Z</Time>
            <Position>
              <LatitudeDegrees>41.95809124968945980072021484375</LatitudeDegrees>
              <LongitudeDegrees>2.85852729342877864837646484375</LongitudeDegrees>
            </Position>
            <AltitudeMeters>241.399993896484375</AltitudeMeters>
            <DistanceMeters>13702.405809285</DistanceMeters>
          </Trackpoint>
          <Trackpoint>
            <Time>2020-02-15T09:32:52.000Z</Time>
            <Position>
              <LatitudeDegrees>41.9581169821321964263916015625</LatitudeDegrees>
              <LongitudeDegrees>2.8585406206548213958740234375</LongitudeDegrees>
            </Position>
            <AltitudeMeters>241.399993896484375</AltitudeMeters>
            <DistanceMeters>13705.476216393</DistanceMeters>
          </Trackpoint>
          <Trackpoint>
            <Time>2020-02-15T09:32:53.000Z</Time>
            <Position>
              <LatitudeDegrees>41.9581417925655841827392578125</LatitudeDegrees>
              <LongitudeDegrees>2.858554534614086151123046875</LongitudeDegrees>
            </Position>
            <AltitudeMeters>241.600006103515625</AltitudeMeters>
            <DistanceMeters>13708.469180782</DistanceMeters>
          </Trackpoint>
          <Trackpoint>
            <Time>2020-02-15T09:32:54.000Z</Time>
            <Position>
              <LatitudeDegrees>41.9581669382750988006591796875</LatitudeDegrees>
              <LongitudeDegrees>2.85857498645782470703125</LongitudeDegrees>
            </Position>
            <AltitudeMeters>241.8000030517578125</AltitudeMeters>
            <DistanceMeters>13711.738983606</DistanceMeters>
          </Trackpoint>
          <Trackpoint>
            <Time>2020-02-15T09:32:55.000Z</Time>
            <Position>
              <LatitudeDegrees>41.9581920839846134185791015625</LatitudeDegrees>
              <LongitudeDegrees>2.85859971307218074798583984375</LongitudeDegrees>
            </Position>
            <AltitudeMeters>242</AltitudeMeters>
            <DistanceMeters>13715.207133231</DistanceMeters>
          </Trackpoint>
          <Trackpoint>
            <Time>2020-02-15T09:32:57.000Z</Time>
            <Position>
              <LatitudeDegrees>41.958241201937198638916015625</LatitudeDegrees>
              <LongitudeDegrees>2.858650423586368560791015625</LongitudeDegrees>
            </Position>
            <AltitudeMeters>242.1999969482421875</AltitudeMeters>
            <DistanceMeters>13722.100337294</DistanceMeters>
          </Trackpoint>
          <Trackpoint>
            <Time>2020-02-15T09:32:58.000Z</Time>
            <Position>
              <LatitudeDegrees>41.95826299488544464111328125</LatitudeDegrees>
              <LongitudeDegrees>2.8586784191429615020751953125</LongitudeDegrees>
            </Position>
            <AltitudeMeters>242</AltitudeMeters>
            <DistanceMeters>13725.45465917</DistanceMeters>
          </Trackpoint>
          <Trackpoint>
            <Time>2020-02-15T09:32:59.000Z</Time>
            <Position>
              <LatitudeDegrees>41.95828378200531005859375</LatitudeDegrees>
              <LongitudeDegrees>2.85870716907083988189697265625</LongitudeDegrees>
            </Position>
            <AltitudeMeters>242.1999969482421875</AltitudeMeters>
            <DistanceMeters>13728.77379961</DistanceMeters>
          </Trackpoint>
          <Trackpoint>
            <Time>2020-02-15T09:33:00.000Z</Time>
            <Position>
              <LatitudeDegrees>41.95830549113452434539794921875</LatitudeDegrees>
              <LongitudeDegrees>2.85873122513294219970703125</LongitudeDegrees>
            </Position>
            <AltitudeMeters>242</AltitudeMeters>
            <DistanceMeters>13731.905358809</DistanceMeters>
          </Trackpoint>
          <Trackpoint>
            <Time>2020-02-15T09:33:01.000Z</Time>
            <Position>
              <LatitudeDegrees>41.9583285413682460784912109375</LatitudeDegrees>
              <LongitudeDegrees>2.85875125788152217864990234375</LongitudeDegrees>
            </Position>
            <AltitudeMeters>242.1999969482421875</AltitudeMeters>
            <DistanceMeters>13734.961025519</DistanceMeters>
          </Trackpoint>
          <Trackpoint>
            <Time>2020-02-15T09:33:03.000Z</Time>
            <Position>
              <LatitudeDegrees>41.95838327519595623016357421875</LatitudeDegrees>
              <LongitudeDegrees>2.85878981463611125946044921875</LongitudeDegrees>
            </Position>
            <AltitudeMeters>242.1999969482421875</AltitudeMeters>
            <DistanceMeters>13741.838491653</DistanceMeters>
          </Trackpoint>
          <Trackpoint>
            <Time>2020-02-15T09:33:04.000Z</Time>
            <Position>
              <LatitudeDegrees>41.958412863314151763916015625</LatitudeDegrees>
              <LongitudeDegrees>2.85880926065146923065185546875</LongitudeDegrees>
            </Position>
            <AltitudeMeters>242</AltitudeMeters>
            <DistanceMeters>13745.504109438</DistanceMeters>
          </Trackpoint>
          <Trackpoint>
            <Time>2020-02-15T09:33:05.000Z</Time>
            <Position>
              <LatitudeDegrees>41.95844446308910846710205078125</LatitudeDegrees>
              <LongitudeDegrees>2.85882837139070034027099609375</LongitudeDegrees>
            </Position>
            <AltitudeMeters>242</AltitudeMeters>
            <DistanceMeters>13749.359431192</DistanceMeters>
          </Trackpoint>
          <Trackpoint>
            <Time>2020-02-15T09:33:08.000Z</Time>
            <Position>
              <LatitudeDegrees>41.95854487828910350799560546875</LatitudeDegrees>
              <LongitudeDegrees>2.85889215767383575439453125</LongitudeDegrees>
            </Position>
            <AltitudeMeters>242</AltitudeMeters>
            <DistanceMeters>13761.720211646</DistanceMeters>
          </Trackpoint>
          <Trackpoint>
            <Time>2020-02-15T09:33:09.000Z</Time>
            <Position>
              <LatitudeDegrees>41.95857840590178966522216796875</LatitudeDegrees>
              <LongitudeDegrees>2.85891604609787464141845703125</LongitudeDegrees>
            </Position>
            <AltitudeMeters>241.8000030517578125</AltitudeMeters>
            <DistanceMeters>13765.944360206</DistanceMeters>
          </Trackpoint>
          <Trackpoint>
            <Time>2020-02-15T09:33:10.000Z</Time>
            <Position>
              <LatitudeDegrees>41.95861143060028553009033203125</LatitudeDegrees>
              <LongitudeDegrees>2.85893817432224750518798828125</LongitudeDegrees>
            </Position>
            <AltitudeMeters>241.8000030517578125</AltitudeMeters>
            <DistanceMeters>13770.051449539</DistanceMeters>
          </Trackpoint>
          <Trackpoint>
            <Time>2020-02-15T09:33:11.000Z</Time>
            <Position>
              <LatitudeDegrees>41.95864797569811344146728515625</LatitudeDegrees>
              <LongitudeDegrees>2.85896457731723785400390625</LongitudeDegrees>
            </Position>
            <AltitudeMeters>241.600006103515625</AltitudeMeters>
            <DistanceMeters>13774.668809227</DistanceMeters>
          </Trackpoint>
          <Trackpoint>
            <Time>2020-02-15T09:33:12.000Z</Time>
            <Position>
              <LatitudeDegrees>41.95868720300495624542236328125</LatitudeDegrees>
              <LongitudeDegrees>2.8589905612170696258544921875</LongitudeDegrees>
            </Position>
            <AltitudeMeters>241.8000030517578125</AltitudeMeters>
            <DistanceMeters>13779.53562446</DistanceMeters>
          </Trackpoint>
          <Trackpoint>
            <Time>2020-02-15T09:33:13.000Z</Time>
            <Position>
              <LatitudeDegrees>41.95872877724468708038330078125</LatitudeDegrees>
              <LongitudeDegrees>2.85901780240237712860107421875</LongitudeDegrees>
            </Position>
            <AltitudeMeters>241.600006103515625</AltitudeMeters>
            <DistanceMeters>13784.682880456</DistanceMeters>
          </Trackpoint>
          <Trackpoint>
            <Time>2020-02-15T09:33:14.000Z</Time>
            <Position>
              <LatitudeDegrees>41.9587741233408451080322265625</LatitudeDegrees>
              <LongitudeDegrees>2.85904663614928722381591796875</LongitudeDegrees>
            </Position>
            <AltitudeMeters>241.1999969482421875</AltitudeMeters>
            <DistanceMeters>13790.266053737</DistanceMeters>
          </Trackpoint>
          <Trackpoint>
            <Time>2020-02-15T09:33:15.000Z</Time>
            <Position>
              <LatitudeDegrees>41.9588234089314937591552734375</LatitudeDegrees>
              <LongitudeDegrees>2.8590743802487850189208984375</LongitudeDegrees>
            </Position>
            <AltitudeMeters>241</AltitudeMeters>
            <DistanceMeters>13796.213390068</DistanceMeters>
          </Trackpoint>
          <Trackpoint>
            <Time>2020-02-15T09:33:16.000Z</Time>
            <Position>
              <LatitudeDegrees>41.95887831039726734161376953125</LatitudeDegrees>
              <LongitudeDegrees>2.85910313017666339874267578125</LongitudeDegrees>
            </Position>
            <AltitudeMeters>240.600006103515625</AltitudeMeters>
            <DistanceMeters>13802.770921922</DistanceMeters>
          </Trackpoint>
          <Trackpoint>
            <Time>2020-02-15T09:33:19.000Z</Time>
            <Position>
              <LatitudeDegrees>41.95905935950577259063720703125</LatitudeDegrees>
              <LongitudeDegrees>2.85919734276831150054931640625</LongitudeDegrees>
            </Position>
            <AltitudeMeters>240.1999969482421875</AltitudeMeters>
            <DistanceMeters>13824.378166363</DistanceMeters>
          </Trackpoint>
          <Trackpoint>
            <Time>2020-02-15T09:33:20.000Z</Time>
            <Position>
              <LatitudeDegrees>41.95911954157054424285888671875</LatitudeDegrees>
              <LongitudeDegrees>2.8592306189239025115966796875</LongitudeDegrees>
            </Position>
            <AltitudeMeters>240</AltitudeMeters>
            <DistanceMeters>13831.620174647</DistanceMeters>
          </Trackpoint>
          <Trackpoint>
            <Time>2020-02-15T09:33:22.000Z</Time>
            <Position>
              <LatitudeDegrees>41.95923873223364353179931640625</LatitudeDegrees>
              <LongitudeDegrees>2.85928853787481784820556640625</LongitudeDegrees>
            </Position>
            <AltitudeMeters>239.600006103515625</AltitudeMeters>
            <DistanceMeters>13845.726121423</DistanceMeters>
          </Trackpoint>
          <Trackpoint>
            <Time>2020-02-15T09:33:23.000Z</Time>
            <Position>
              <LatitudeDegrees>41.95929790847003459930419921875</LatitudeDegrees>
              <LongitudeDegrees>2.8593228198587894439697265625</LongitudeDegrees>
            </Position>
            <AltitudeMeters>239.600006103515625</AltitudeMeters>
            <DistanceMeters>13852.897963266</DistanceMeters>
          </Trackpoint>
          <Trackpoint>
            <Time>2020-02-15T09:33:24.000Z</Time>
            <Position>
              <LatitudeDegrees>41.95935758762061595916748046875</LatitudeDegrees>
              <LongitudeDegrees>2.8593620471656322479248046875</LongitudeDegrees>
            </Position>
            <AltitudeMeters>239.399993896484375</AltitudeMeters>
            <DistanceMeters>13860.291139357</DistanceMeters>
          </Trackpoint>
          <Trackpoint>
            <Time>2020-02-15T09:33:25.000Z</Time>
            <Position>
              <LatitudeDegrees>41.9594165123999118804931640625</LatitudeDegrees>
              <LongitudeDegrees>2.8594046272337436676025390625</LongitudeDegrees>
            </Position>
            <AltitudeMeters>239.1999969482421875</AltitudeMeters>
            <DistanceMeters>13867.736044273</DistanceMeters>
          </Trackpoint>
          <Trackpoint>
            <Time>2020-02-15T09:33:26.000Z</Time>
            <Position>
              <LatitudeDegrees>41.9594802148640155792236328125</LatitudeDegrees>
              <LongitudeDegrees>2.8594529069960117340087890625</LongitudeDegrees>
            </Position>
            <AltitudeMeters>238.8000030517578125</AltitudeMeters>
            <DistanceMeters>13875.874570597</DistanceMeters>
          </Trackpoint>
          <Trackpoint>
            <Time>2020-02-15T09:33:27.000Z</Time>
            <Position>
              <LatitudeDegrees>41.95954534225165843963623046875</LatitudeDegrees>
              <LongitudeDegrees>2.85949766635894775390625</LongitudeDegrees>
            </Position>
            <AltitudeMeters>238.8000030517578125</AltitudeMeters>
            <DistanceMeters>13884.015870315</DistanceMeters>
          </Trackpoint>
          <Trackpoint>
            <Time>2020-02-15T09:33:28.000Z</Time>
            <Position>
              <LatitudeDegrees>41.95961424149572849273681640625</LatitudeDegrees>
              <LongitudeDegrees>2.8595377318561077117919921875</LongitudeDegrees>
            </Position>
            <AltitudeMeters>238.1999969482421875</AltitudeMeters>
            <DistanceMeters>13892.370658817</DistanceMeters>
          </Trackpoint>
          <Trackpoint>
            <Time>2020-02-15T09:33:29.000Z</Time>
            <Position>
              <LatitudeDegrees>41.95968599058687686920166015625</LatitudeDegrees>
              <LongitudeDegrees>2.859573103487491607666015625</LongitudeDegrees>
            </Position>
            <AltitudeMeters>238</AltitudeMeters>
            <DistanceMeters>13900.876478734</DistanceMeters>
          </Trackpoint>
          <Trackpoint>
            <Time>2020-02-15T09:33:32.000Z</Time>
            <Position>
              <LatitudeDegrees>41.95990853011608123779296875</LatitudeDegrees>
              <LongitudeDegrees>2.85967058502137660980224609375</LongitudeDegrees>
            </Position>
            <AltitudeMeters>236.600006103515625</AltitudeMeters>
            <DistanceMeters>13926.926454064</DistanceMeters>
          </Trackpoint>
          <Trackpoint>
            <Time>2020-02-15T09:33:34.000Z</Time>
            <Position>
              <LatitudeDegrees>41.96005739271640777587890625</LatitudeDegrees>
              <LongitudeDegrees>2.8597415797412395477294921875</LongitudeDegrees>
            </Position>
            <AltitudeMeters>235</AltitudeMeters>
            <DistanceMeters>13944.506396222</DistanceMeters>
          </Trackpoint>
          <Trackpoint>
            <Time>2020-02-15T09:33:36.000Z</Time>
            <Position>
              <LatitudeDegrees>41.9602023996412754058837890625</LatitudeDegrees>
              <LongitudeDegrees>2.85981349647045135498046875</LongitudeDegrees>
            </Position>
            <AltitudeMeters>233.600006103515625</AltitudeMeters>
            <DistanceMeters>13961.708331433</DistanceMeters>
          </Trackpoint>
          <Trackpoint>
            <Time>2020-02-15T09:33:37.000Z</Time>
            <Position>
              <LatitudeDegrees>41.96027372963726520538330078125</LatitudeDegrees>
              <LongitudeDegrees>2.8598423302173614501953125</LongitudeDegrees>
            </Position>
            <AltitudeMeters>233</AltitudeMeters>
            <DistanceMeters>13969.998016695</DistanceMeters>
          </Trackpoint>
          <Trackpoint>
            <Time>2020-02-15T09:33:38.000Z</Time>
            <Position>
              <LatitudeDegrees>41.9603423774242401123046875</LatitudeDegrees>
              <LongitudeDegrees>2.85987644456326961517333984375</LongitudeDegrees>
            </Position>
            <AltitudeMeters>232.1999969482421875</AltitudeMeters>
            <DistanceMeters>13978.143197579</DistanceMeters>
          </Trackpoint>
          <Trackpoint>
            <Time>2020-02-15T09:33:39.000Z</Time>
            <Position>
              <LatitudeDegrees>41.96041001938283443450927734375</LatitudeDegrees>
              <LongitudeDegrees>2.85991081036627292633056640625</LongitudeDegrees>
            </Position>
            <AltitudeMeters>232.1999969482421875</AltitudeMeters>
            <DistanceMeters>13986.190787793</DistanceMeters>
          </Trackpoint>
          <Trackpoint>
            <Time>2020-02-15T09:33:40.000Z</Time>
            <Position>
              <LatitudeDegrees>41.96047137491405010223388671875</LatitudeDegrees>
              <LongitudeDegrees>2.85993947647511959075927734375</LongitudeDegrees>
            </Position>
            <AltitudeMeters>232</AltitudeMeters>
            <DistanceMeters>13993.420316302</DistanceMeters>
          </Trackpoint>
          <Trackpoint>
            <Time>2020-02-15T09:33:41.000Z</Time>
            <Position>
              <LatitudeDegrees>41.96052921004593372344970703125</LatitudeDegrees>
              <LongitudeDegrees>2.85996931605041027069091796875</LongitudeDegrees>
            </Position>
            <AltitudeMeters>231.399993896484375</AltitudeMeters>
            <DistanceMeters>14000.31548508</DistanceMeters>
          </Trackpoint>
          <Trackpoint>
            <Time>2020-02-15T09:33:42.000Z</Time>
            <Position>
              <LatitudeDegrees>41.96058486588299274444580078125</LatitudeDegrees>
              <LongitudeDegrees>2.85999898798763751983642578125</LongitudeDegrees>
            </Position>
            <AltitudeMeters>230.8000030517578125</AltitudeMeters>
            <DistanceMeters>14006.979561606</DistanceMeters>
          </Trackpoint>
          <Trackpoint>
            <Time>2020-02-15T09:33:43.000Z</Time>
            <Position>
              <LatitudeDegrees>41.9606375880539417266845703125</LatitudeDegrees>
              <LongitudeDegrees>2.860028743743896484375</LongitudeDegrees>
            </Position>
            <AltitudeMeters>230.399993896484375</AltitudeMeters>
            <DistanceMeters>14013.34422365</DistanceMeters>
          </Trackpoint>
          <Trackpoint>
            <Time>2020-02-15T09:33:44.000Z</Time>
            <Position>
              <LatitudeDegrees>41.9606883823871612548828125</LatitudeDegrees>
              <LongitudeDegrees>2.86006034351885318756103515625</LongitudeDegrees>
            </Position>
            <AltitudeMeters>230</AltitudeMeters>
            <DistanceMeters>14019.574092714</DistanceMeters>
          </Trackpoint>
          <Trackpoint>
            <Time>2020-02-15T09:33:45.000Z</Time>
            <Position>
              <LatitudeDegrees>41.96073330938816070556640625</LatitudeDegrees>
              <LongitudeDegrees>2.86009269766509532928466796875</LongitudeDegrees>
            </Position>
            <AltitudeMeters>229.600006103515625</AltitudeMeters>
            <DistanceMeters>14025.245523952</DistanceMeters>
          </Trackpoint>
          <Trackpoint>
            <Time>2020-02-15T09:33:46.000Z</Time>
            <Position>
              <LatitudeDegrees>41.96077664382755756378173828125</LatitudeDegrees>
              <LongitudeDegrees>2.860127650201320648193359375</LongitudeDegrees>
            </Position>
            <AltitudeMeters>229.600006103515625</AltitudeMeters>
            <DistanceMeters>14030.868986205</DistanceMeters>
          </Trackpoint>
          <Trackpoint>
            <Time>2020-02-15T09:33:47.000Z</Time>
            <Position>
              <LatitudeDegrees>41.9608183018863201141357421875</LatitudeDegrees>
              <LongitudeDegrees>2.8601616807281970977783203125</LongitudeDegrees>
            </Position>
            <AltitudeMeters>229.600006103515625</AltitudeMeters>
            <DistanceMeters>14036.294670421</DistanceMeters>
          </Trackpoint>
          <Trackpoint>
            <Time>2020-02-15T09:33:48.000Z</Time>
            <Position>
              <LatitudeDegrees>41.96085870265960693359375</LatitudeDegrees>
              <LongitudeDegrees>2.8601968847215175628662109375</LongitudeDegrees>
            </Position>
            <AltitudeMeters>229.399993896484375</AltitudeMeters>
            <DistanceMeters>14041.653368312</DistanceMeters>
          </Trackpoint>
          <Trackpoint>
            <Time>2020-02-15T09:33:49.000Z</Time>
            <Position>
              <LatitudeDegrees>41.9608974270522594451904296875</LatitudeDegrees>
              <LongitudeDegrees>2.86023502238094806671142578125</LongitudeDegrees>
            </Position>
            <AltitudeMeters>229.399993896484375</AltitudeMeters>
            <DistanceMeters>14046.995188373</DistanceMeters>
          </Trackpoint>
          <Trackpoint>
            <Time>2020-02-15T09:33:50.000Z</Time>
            <Position>
              <LatitudeDegrees>41.96093313395977020263671875</LatitudeDegrees>
              <LongitudeDegrees>2.8602746687829494476318359375</LongitudeDegrees>
            </Position>
            <AltitudeMeters>229.399993896484375</AltitudeMeters>
            <DistanceMeters>14052.148580928</DistanceMeters>
          </Trackpoint>
          <Trackpoint>
            <Time>2020-02-15T09:33:51.000Z</Time>
            <Position>
              <LatitudeDegrees>41.9609646499156951904296875</LatitudeDegrees>
              <LongitudeDegrees>2.86031506955623626708984375</LongitudeDegrees>
            </Position>
            <AltitudeMeters>229.399993896484375</AltitudeMeters>
            <DistanceMeters>14056.995874905</DistanceMeters>
          </Trackpoint>
          <Trackpoint>
            <Time>2020-02-15T09:33:52.000Z</Time>
            <Position>
              <LatitudeDegrees>41.96099205873906612396240234375</LatitudeDegrees>
              <LongitudeDegrees>2.860354296863079071044921875</LongitudeDegrees>
            </Position>
            <AltitudeMeters>229.1999969482421875</AltitudeMeters>
            <DistanceMeters>14061.450996455</DistanceMeters>
          </Trackpoint>
          <Trackpoint>
            <Time>2020-02-15T09:33:53.000Z</Time>
            <Position>
              <LatitudeDegrees>41.96101720444858074188232421875</LatitudeDegrees>
              <LongitudeDegrees>2.86039226688444614410400390625</LongitudeDegrees>
            </Position>
            <AltitudeMeters>229.399993896484375</AltitudeMeters>
            <DistanceMeters>14065.660154326</DistanceMeters>
          </Trackpoint>
          <Trackpoint>
            <Time>2020-02-15T09:33:54.000Z</Time>
            <Position>
              <LatitudeDegrees>41.961038410663604736328125</LatitudeDegrees>
              <LongitudeDegrees>2.86042897962033748626708984375</LongitudeDegrees>
            </Position>
            <AltitudeMeters>229.399993896484375</AltitudeMeters>
            <DistanceMeters>14069.508442955</DistanceMeters>
          </Trackpoint>
          <Trackpoint>
            <Time>2020-02-15T09:33:55.000Z</Time>
            <Position>
              <LatitudeDegrees>41.96105592884123325347900390625</LatitudeDegrees>
              <LongitudeDegrees>2.8604624234139919281005859375</LongitudeDegrees>
            </Position>
            <AltitudeMeters>229.399993896484375</AltitudeMeters>
            <DistanceMeters>14072.894915616</DistanceMeters>
          </Trackpoint>
          <Trackpoint>
            <Time>2020-02-15T09:33:56.000Z</Time>
            <Position>
              <LatitudeDegrees>41.961072273552417755126953125</LatitudeDegrees>
              <LongitudeDegrees>2.86049519665539264678955078125</LongitudeDegrees>
            </Position>
            <AltitudeMeters>229.399993896484375</AltitudeMeters>
            <DistanceMeters>14076.161955615</DistanceMeters>
          </Trackpoint>
          <Trackpoint>
            <Time>2020-02-15T09:33:57.000Z</Time>
            <Position>
              <LatitudeDegrees>41.96108828298747539520263671875</LatitudeDegrees>
              <LongitudeDegrees>2.8605262935161590576171875</LongitudeDegrees>
            </Position>
            <AltitudeMeters>229.399993896484375</AltitudeMeters>
            <DistanceMeters>14079.293514814</DistanceMeters>
          </Trackpoint>
          <Trackpoint>
            <Time>2020-02-15T09:33:58.000Z</Time>
            <Position>
              <LatitudeDegrees>41.96110588498413562774658203125</LatitudeDegrees>
              <LongitudeDegrees>2.86055336706340312957763671875</LongitudeDegrees>
            </Position>
            <AltitudeMeters>229.399993896484375</AltitudeMeters>
            <DistanceMeters>14082.271355486</DistanceMeters>
          </Trackpoint>
          <Trackpoint>
            <Time>2020-02-15T09:33:59.000Z</Time>
            <Position>
              <LatitudeDegrees>41.96112633682787418365478515625</LatitudeDegrees>
              <LongitudeDegrees>2.86057650111615657806396484375</LongitudeDegrees>
            </Position>
            <AltitudeMeters>229.399993896484375</AltitudeMeters>
            <DistanceMeters>14085.246162188</DistanceMeters>
          </Trackpoint>
          <Trackpoint>
            <Time>2020-02-15T09:34:00.000Z</Time>
            <Position>
              <LatitudeDegrees>41.96114444173872470855712890625</LatitudeDegrees>
              <LongitudeDegrees>2.86060114391148090362548828125</LongitudeDegrees>
            </Position>
            <AltitudeMeters>229.399993896484375</AltitudeMeters>
            <DistanceMeters>14088.112757654</DistanceMeters>
          </Trackpoint>
          <Trackpoint>
            <Time>2020-02-15T09:34:01.000Z</Time>
            <Position>
              <LatitudeDegrees>41.9611633010208606719970703125</LatitudeDegrees>
              <LongitudeDegrees>2.86062981002032756805419921875</LongitudeDegrees>
            </Position>
            <AltitudeMeters>229.8000030517578125</AltitudeMeters>
            <DistanceMeters>14091.280156418</DistanceMeters>
          </Trackpoint>
          <Trackpoint>
            <Time>2020-02-15T09:34:02.000Z</Time>
            <Position>
              <LatitudeDegrees>41.96117981337010860443115234375</LatitudeDegrees>
              <LongitudeDegrees>2.860659062862396240234375</LongitudeDegrees>
            </Position>
            <AltitudeMeters>230</AltitudeMeters>
            <DistanceMeters>14094.319526123</DistanceMeters>
          </Trackpoint>
          <Trackpoint>
            <Time>2020-02-15T09:34:03.000Z</Time>
            <Position>
              <LatitudeDegrees>41.9611948169767856597900390625</LatitudeDegrees>
              <LongitudeDegrees>2.86069032736122608184814453125</LongitudeDegrees>
            </Position>
            <AltitudeMeters>230</AltitudeMeters>
            <DistanceMeters>14097.398743599</DistanceMeters>
          </Trackpoint>
          <Trackpoint>
            <Time>2020-02-15T09:34:06.000Z</Time>
            <Position>
              <LatitudeDegrees>41.961235217750072479248046875</LatitudeDegrees>
              <LongitudeDegrees>2.860794179141521453857421875</LongitudeDegrees>
            </Position>
            <AltitudeMeters>230.399993896484375</AltitudeMeters>
            <DistanceMeters>14107.098918677</DistanceMeters>
          </Trackpoint>
          <Trackpoint>
            <Time>2020-02-15T09:34:07.000Z</Time>
            <Position>
              <LatitudeDegrees>41.9612454436719417572021484375</LatitudeDegrees>
              <LongitudeDegrees>2.8608325682580471038818359375</LongitudeDegrees>
            </Position>
            <AltitudeMeters>230.399993896484375</AltitudeMeters>
            <DistanceMeters>14110.474708432</DistanceMeters>
          </Trackpoint>
          <Trackpoint>
            <Time>2020-02-15T09:34:09.000Z</Time>
            <Position>
              <LatitudeDegrees>41.96126463823020458221435546875</LatitudeDegrees>
              <LongitudeDegrees>2.86090406589210033416748046875</LongitudeDegrees>
            </Position>
            <AltitudeMeters>230.399993896484375</AltitudeMeters>
            <DistanceMeters>14116.765878837</DistanceMeters>
          </Trackpoint>
          <Trackpoint>
            <Time>2020-02-15T09:34:10.000Z</Time>
            <Position>
              <LatitudeDegrees>41.9612742774188518524169921875</LatitudeDegrees>
              <LongitudeDegrees>2.86094010807573795318603515625</LongitudeDegrees>
            </Position>
            <AltitudeMeters>230.399993896484375</AltitudeMeters>
            <DistanceMeters>14119.934702752</DistanceMeters>
          </Trackpoint>
          <Trackpoint>
            <Time>2020-02-15T09:34:14.000Z</Time>
            <Position>
              <LatitudeDegrees>41.9613195396959781646728515625</LatitudeDegrees>
              <LongitudeDegrees>2.8611091710627079010009765625</LongitudeDegrees>
            </Position>
            <AltitudeMeters>230.399993896484375</AltitudeMeters>
            <DistanceMeters>14134.806004046</DistanceMeters>
          </Trackpoint>
          <Trackpoint>
            <Time>2020-02-15T09:34:15.000Z</Time>
            <Position>
              <LatitudeDegrees>41.96133010089397430419921875</LatitudeDegrees>
              <LongitudeDegrees>2.86114445887506008148193359375</LongitudeDegrees>
            </Position>
            <AltitudeMeters>230.399993896484375</AltitudeMeters>
            <DistanceMeters>14137.954817146</DistanceMeters>
          </Trackpoint>
          <Trackpoint>
            <Time>2020-02-15T09:34:16.000Z</Time>
            <Position>
              <LatitudeDegrees>41.961341165006160736083984375</LatitudeDegrees>
              <LongitudeDegrees>2.861179076135158538818359375</LongitudeDegrees>
            </Position>
            <AltitudeMeters>230.600006103515625</AltitudeMeters>
            <DistanceMeters>14141.073373275</DistanceMeters>
          </Trackpoint>
          <Trackpoint>
            <Time>2020-02-15T09:34:17.000Z</Time>
            <Position>
              <LatitudeDegrees>41.961351223289966583251953125</LatitudeDegrees>
              <LongitudeDegrees>2.8612144477665424346923828125</LongitudeDegrees>
            </Position>
            <AltitudeMeters>230.600006103515625</AltitudeMeters>
            <DistanceMeters>14144.20781472</DistanceMeters>
          </Trackpoint>
          <Trackpoint>
            <Time>2020-02-15T09:34:18.000Z</Time>
            <Position>
              <LatitudeDegrees>41.96136237122118473052978515625</LatitudeDegrees>
              <LongitudeDegrees>2.86125107668340206146240234375</LongitudeDegrees>
            </Position>
            <AltitudeMeters>230.399993896484375</AltitudeMeters>
            <DistanceMeters>14147.484514415</DistanceMeters>
          </Trackpoint>
          <Trackpoint>
            <Time>2020-02-15T09:34:19.000Z</Time>
            <Position>
              <LatitudeDegrees>41.96137033402919769287109375</LatitudeDegrees>
              <LongitudeDegrees>2.8612878732383251190185546875</LongitudeDegrees>
            </Position>
            <AltitudeMeters>230.600006103515625</AltitudeMeters>
            <DistanceMeters>14150.656186711</DistanceMeters>
          </Trackpoint>
          <Trackpoint>
            <Time>2020-02-15T09:34:20.000Z</Time>
            <Position>
              <LatitudeDegrees>41.96137662045657634735107421875</LatitudeDegrees>
              <LongitudeDegrees>2.86132156848907470703125</LongitudeDegrees>
            </Position>
            <AltitudeMeters>230.399993896484375</AltitudeMeters>
            <DistanceMeters>14153.530646651</DistanceMeters>
          </Trackpoint>
          <Trackpoint>
            <Time>2020-02-15T09:34:21.000Z</Time>
            <Position>
              <LatitudeDegrees>41.9613832421600818634033203125</LatitudeDegrees>
              <LongitudeDegrees>2.861348055303096771240234375</LongitudeDegrees>
            </Position>
            <AltitudeMeters>230.399993896484375</AltitudeMeters>
            <DistanceMeters>14155.842746402</DistanceMeters>
          </Trackpoint>
          <Trackpoint>
            <Time>2020-02-15T09:34:22.000Z</Time>
            <Position>
              <LatitudeDegrees>41.96139447391033172607421875</LatitudeDegrees>
              <LongitudeDegrees>2.86136926151812076568603515625</LongitudeDegrees>
            </Position>
            <AltitudeMeters>230.399993896484375</AltitudeMeters>
            <DistanceMeters>14157.997151028</DistanceMeters>
          </Trackpoint>
          <Trackpoint>
            <Time>2020-02-15T09:34:23.000Z</Time>
            <Position>
              <LatitudeDegrees>41.96140478365123271942138671875</LatitudeDegrees>
              <LongitudeDegrees>2.86137730814516544342041015625</LongitudeDegrees>
            </Position>
            <AltitudeMeters>230.399993896484375</AltitudeMeters>
            <DistanceMeters>14159.320720002</DistanceMeters>
          </Trackpoint>
          <Trackpoint>
            <Time>2020-02-15T09:34:24.000Z</Time>
            <Position>
              <LatitudeDegrees>41.961413584649562835693359375</LatitudeDegrees>
              <LongitudeDegrees>2.86137814633548259735107421875</LongitudeDegrees>
            </Position>
            <AltitudeMeters>230.399993896484375</AltitudeMeters>
            <DistanceMeters>14160.308266586</DistanceMeters>
          </Trackpoint>
          <Trackpoint>
            <Time>2020-02-15T09:34:25.000Z</Time>
            <Position>
              <LatitudeDegrees>41.9614231400191783905029296875</LatitudeDegrees>
              <LongitudeDegrees>2.86137764342129230499267578125</LongitudeDegrees>
            </Position>
            <AltitudeMeters>230.399993896484375</AltitudeMeters>
            <DistanceMeters>14161.374938809</DistanceMeters>
          </Trackpoint>
          <Trackpoint>
            <Time>2020-02-15T09:34:26.000Z</Time>
            <Position>
              <LatitudeDegrees>41.9614286720752716064453125</LatitudeDegrees>
              <LongitudeDegrees>2.86137496121227741241455078125</LongitudeDegrees>
            </Position>
            <AltitudeMeters>230.399993896484375</AltitudeMeters>
            <DistanceMeters>14162.033303199</DistanceMeters>
          </Trackpoint>
          <Trackpoint>
            <Time>2020-02-15T09:34:27.000Z</Time>
            <Position>
              <LatitudeDegrees>41.9614372216165065765380859375</LatitudeDegrees>
              <LongitudeDegrees>2.86137412302196025848388671875</LongitudeDegrees>
            </Position>
            <AltitudeMeters>230.600006103515625</AltitudeMeters>
            <DistanceMeters>14162.99302597</DistanceMeters>
          </Trackpoint>
          <Trackpoint>
            <Time>2020-02-15T09:34:28.000Z</Time>
            <Position>
              <LatitudeDegrees>41.9614466093480587005615234375</LatitudeDegrees>
              <LongitudeDegrees>2.86138124763965606689453125</LongitudeDegrees>
            </Position>
            <AltitudeMeters>230.600006103515625</AltitudeMeters>
            <DistanceMeters>14164.195029394</DistanceMeters>
          </Trackpoint>
          <Trackpoint>
            <Time>2020-02-15T09:34:30.000Z</Time>
            <Position>
              <LatitudeDegrees>41.9614700786769390106201171875</LatitudeDegrees>
              <LongitudeDegrees>2.86141343414783477783203125</LongitudeDegrees>
            </Position>
            <AltitudeMeters>230.399993896484375</AltitudeMeters>
            <DistanceMeters>14167.926567666</DistanceMeters>
          </Trackpoint>
          <Trackpoint>
            <Time>2020-02-15T09:34:31.000Z</Time>
            <Position>
              <LatitudeDegrees>41.96148407645523548126220703125</LatitudeDegrees>
              <LongitudeDegrees>2.8614280186593532562255859375</LongitudeDegrees>
            </Position>
            <AltitudeMeters>230.399993896484375</AltitudeMeters>
            <DistanceMeters>14169.897083556</DistanceMeters>
          </Trackpoint>
          <Trackpoint>
            <Time>2020-02-15T09:34:32.000Z</Time>
            <Position>
              <LatitudeDegrees>41.9614989124238491058349609375</LatitudeDegrees>
              <LongitudeDegrees>2.86144067533314228057861328125</LongitudeDegrees>
            </Position>
            <AltitudeMeters>230.600006103515625</AltitudeMeters>
            <DistanceMeters>14171.85149455</DistanceMeters>
          </Trackpoint>
          <Trackpoint>
            <Time>2020-02-15T09:34:33.000Z</Time>
            <Position>
              <LatitudeDegrees>41.96151492185890674591064453125</LatitudeDegrees>
              <LongitudeDegrees>2.8614602051675319671630859375</LongitudeDegrees>
            </Position>
            <AltitudeMeters>230.399993896484375</AltitudeMeters>
            <DistanceMeters>14174.255501398</DistanceMeters>
          </Trackpoint>
          <Trackpoint>
            <Time>2020-02-15T09:34:34.000Z</Time>
            <Position>
              <LatitudeDegrees>41.96153017692267894744873046875</LatitudeDegrees>
              <LongitudeDegrees>2.861480154097080230712890625</LongitudeDegrees>
            </Position>
            <AltitudeMeters>230.399993896484375</AltitudeMeters>
            <DistanceMeters>14176.625460796</DistanceMeters>
          </Trackpoint>
          <Trackpoint>
            <Time>2020-02-15T09:34:35.000Z</Time>
            <Position>
              <LatitudeDegrees>41.96154861710965633392333984375</LatitudeDegrees>
              <LongitudeDegrees>2.861496247351169586181640625</LongitudeDegrees>
            </Position>
            <AltitudeMeters>230.399993896484375</AltitudeMeters>
            <DistanceMeters>14179.070437402</DistanceMeters>
          </Trackpoint>
          <Trackpoint>
            <Time>2020-02-15T09:34:36.000Z</Time>
            <Position>
              <LatitudeDegrees>41.96156973950564861297607421875</LatitudeDegrees>
              <LongitudeDegrees>2.86150923930108547210693359375</LongitudeDegrees>
            </Position>
            <AltitudeMeters>230.8000030517578125</AltitudeMeters>
            <DistanceMeters>14181.655443508</DistanceMeters>
          </Trackpoint>
          <Trackpoint>
            <Time>2020-02-15T09:34:38.000Z</Time>
            <Position>
              <LatitudeDegrees>41.96161148138344287872314453125</LatitudeDegrees>
              <LongitudeDegrees>2.861540503799915313720703125</LongitudeDegrees>
            </Position>
            <AltitudeMeters>230.8000030517578125</AltitudeMeters>
            <DistanceMeters>14186.972695557</DistanceMeters>
          </Trackpoint>
          <Trackpoint>
            <Time>2020-02-15T09:34:39.000Z</Time>
            <Position>
              <LatitudeDegrees>41.96163126267492771148681640625</LatitudeDegrees>
              <LongitudeDegrees>2.8615560941398143768310546875</LongitudeDegrees>
            </Position>
            <AltitudeMeters>231</AltitudeMeters>
            <DistanceMeters>14189.524299977</DistanceMeters>
          </Trackpoint>
          <Trackpoint>
            <Time>2020-02-15T09:34:41.000Z</Time>
            <Position>
              <LatitudeDegrees>41.9616745971143245697021484375</LatitudeDegrees>
              <LongitudeDegrees>2.86158786155283451080322265625</LongitudeDegrees>
            </Position>
            <AltitudeMeters>231</AltitudeMeters>
            <DistanceMeters>14195.01779754</DistanceMeters>
          </Trackpoint>
          <Trackpoint>
            <Time>2020-02-15T09:34:43.000Z</Time>
            <Position>
              <LatitudeDegrees>41.96172044612467288970947265625</LatitudeDegrees>
              <LongitudeDegrees>2.86161803640425205230712890625</LongitudeDegrees>
            </Position>
            <AltitudeMeters>231.1999969482421875</AltitudeMeters>
            <DistanceMeters>14200.700363278</DistanceMeters>
          </Trackpoint>
          <Trackpoint>
            <Time>2020-02-15T09:34:44.000Z</Time>
            <Position>
              <LatitudeDegrees>41.96174257434904575347900390625</LatitudeDegrees>
              <LongitudeDegrees>2.86162725649774074554443359375</LongitudeDegrees>
            </Position>
            <AltitudeMeters>231.399993896484375</AltitudeMeters>
            <DistanceMeters>14203.280124185</DistanceMeters>
          </Trackpoint>
          <Trackpoint>
            <Time>2020-02-15T09:34:45.000Z</Time>
            <Position>
              <LatitudeDegrees>41.96176403202116489410400390625</LatitudeDegrees>
              <LongitudeDegrees>2.861635722219944000244140625</LongitudeDegrees>
            </Position>
            <AltitudeMeters>231.600006103515625</AltitudeMeters>
            <DistanceMeters>14205.769026039</DistanceMeters>
          </Trackpoint>
          <Trackpoint>
            <Time>2020-02-15T09:34:46.000Z</Time>
            <Position>
              <LatitudeDegrees>41.96178196929395198822021484375</LatitudeDegrees>
              <LongitudeDegrees>2.86164888180792331695556640625</LongitudeDegrees>
            </Position>
            <AltitudeMeters>231.600006103515625</AltitudeMeters>
            <DistanceMeters>14208.045704295</DistanceMeters>
          </Trackpoint>
          <Trackpoint>
            <Time>2020-02-15T09:34:47.000Z</Time>
            <Position>
              <LatitudeDegrees>41.9617988169193267822265625</LatitudeDegrees>
              <LongitudeDegrees>2.8616637177765369415283203125</LongitudeDegrees>
            </Position>
            <AltitudeMeters>231.600006103515625</AltitudeMeters>
            <DistanceMeters>14210.290427586</DistanceMeters>
          </Trackpoint>
          <Trackpoint>
            <Time>2020-02-15T09:34:48.000Z</Time>
            <Position>
              <LatitudeDegrees>41.9618157483637332916259765625</LatitudeDegrees>
              <LongitudeDegrees>2.86167620681226253509521484375</LongitudeDegrees>
            </Position>
            <AltitudeMeters>231.600006103515625</AltitudeMeters>
            <DistanceMeters>14212.440636678</DistanceMeters>
          </Trackpoint>
          <Trackpoint>
            <Time>2020-02-15T09:34:49.000Z</Time>
            <Position>
              <LatitudeDegrees>41.96183376945555210113525390625</LatitudeDegrees>
              <LongitudeDegrees>2.861689366400241851806640625</LongitudeDegrees>
            </Position>
            <AltitudeMeters>231.8000030517578125</AltitudeMeters>
            <DistanceMeters>14214.72720928</DistanceMeters>
          </Trackpoint>
          <Trackpoint>
            <Time>2020-02-15T09:34:50.000Z</Time>
            <Position>
              <LatitudeDegrees>41.96185220964252948760986328125</LatitudeDegrees>
              <LongitudeDegrees>2.86170437000691890716552734375</LongitudeDegrees>
            </Position>
            <AltitudeMeters>231.8000030517578125</AltitudeMeters>
            <DistanceMeters>14217.127456928</DistanceMeters>
          </Trackpoint>
          <Trackpoint>
            <Time>2020-02-15T09:34:51.000Z</Time>
            <Position>
              <LatitudeDegrees>41.96186997927725315093994140625</LatitudeDegrees>
              <LongitudeDegrees>2.86171727813780307769775390625</LongitudeDegrees>
            </Position>
            <AltitudeMeters>232</AltitudeMeters>
            <DistanceMeters>14219.376199422</DistanceMeters>
          </Trackpoint>
          <Trackpoint>
            <Time>2020-02-15T09:34:52.000Z</Time>
            <Position>
              <LatitudeDegrees>41.9618891738355159759521484375</LatitudeDegrees>
              <LongitudeDegrees>2.86173001863062381744384765625</LongitudeDegrees>
            </Position>
            <AltitudeMeters>232.1999969482421875</AltitudeMeters>
            <DistanceMeters>14221.757562059</DistanceMeters>
          </Trackpoint>
          <Trackpoint>
            <Time>2020-02-15T09:34:53.000Z</Time>
            <Position>
              <LatitudeDegrees>41.96190970949828624725341796875</LatitudeDegrees>
              <LongitudeDegrees>2.86174192093312740325927734375</LongitudeDegrees>
            </Position>
            <AltitudeMeters>232.1999969482421875</AltitudeMeters>
            <DistanceMeters>14224.244649183</DistanceMeters>
          </Trackpoint>
          <Trackpoint>
            <Time>2020-02-15T09:34:54.000Z</Time>
            <Position>
              <LatitudeDegrees>41.9619294069707393646240234375</LatitudeDegrees>
              <LongitudeDegrees>2.86175382323563098907470703125</LongitudeDegrees>
            </Position>
            <AltitudeMeters>232.399993896484375</AltitudeMeters>
            <DistanceMeters>14226.648656031</DistanceMeters>
          </Trackpoint>
          <Trackpoint>
            <Time>2020-02-15T09:34:55.000Z</Time>
            <Position>
              <LatitudeDegrees>41.96194893680512905120849609375</LatitudeDegrees>
              <LongitudeDegrees>2.861765138804912567138671875</LongitudeDegrees>
            </Position>
            <AltitudeMeters>232.399993896484375</AltitudeMeters>
            <DistanceMeters>14229.014802137</DistanceMeters>
          </Trackpoint>
          <Trackpoint>
            <Time>2020-02-15T09:34:56.000Z</Time>
            <Position>
              <LatitudeDegrees>41.96197089739143848419189453125</LatitudeDegrees>
              <LongitudeDegrees>2.86177678965032100677490234375</LongitudeDegrees>
            </Position>
            <AltitudeMeters>232.8000030517578125</AltitudeMeters>
            <DistanceMeters>14231.64139278</DistanceMeters>
          </Trackpoint>
          <Trackpoint>
            <Time>2020-02-15T09:34:57.000Z</Time>
            <Position>
              <LatitudeDegrees>41.96199537254869937896728515625</LatitudeDegrees>
              <LongitudeDegrees>2.86179053597152233123779296875</LongitudeDegrees>
            </Position>
            <AltitudeMeters>232.8000030517578125</AltitudeMeters>
            <DistanceMeters>14234.591815409</DistanceMeters>
          </Trackpoint>
          <Trackpoint>
            <Time>2020-02-15T09:34:58.000Z</Time>
            <Position>
              <LatitudeDegrees>41.962021104991436004638671875</LatitudeDegrees>
              <LongitudeDegrees>2.8618003427982330322265625</LongitudeDegrees>
            </Position>
            <AltitudeMeters>233</AltitudeMeters>
            <DistanceMeters>14237.568139483</DistanceMeters>
          </Trackpoint>
          <Trackpoint>
            <Time>2020-02-15T09:34:59.000Z</Time>
            <Position>
              <LatitudeDegrees>41.962049268186092376708984375</LatitudeDegrees>
              <LongitudeDegrees>2.8618088923394680023193359375</LongitudeDegrees>
            </Position>
            <AltitudeMeters>233</AltitudeMeters>
            <DistanceMeters>14240.782234605</DistanceMeters>
          </Trackpoint>
          <Trackpoint>
            <Time>2020-02-15T09:35:00.000Z</Time>
            <Position>
              <LatitudeDegrees>41.9620759226381778717041015625</LatitudeDegrees>
              <LongitudeDegrees>2.86181903444230556488037109375</LongitudeDegrees>
            </Position>
            <AltitudeMeters>233.1999969482421875</AltitudeMeters>
            <DistanceMeters>14243.865847825</DistanceMeters>
          </Trackpoint>
          <Trackpoint>
            <Time>2020-02-15T09:35:01.000Z</Time>
            <Position>
              <LatitudeDegrees>41.96210249327123165130615234375</LatitudeDegrees>
              <LongitudeDegrees>2.86183194257318973541259765625</LongitudeDegrees>
            </Position>
            <AltitudeMeters>233.1999969482421875</AltitudeMeters>
            <DistanceMeters>14247.011791846</DistanceMeters>
          </Trackpoint>
          <Trackpoint>
            <Time>2020-02-15T09:35:03.000Z</Time>
            <Position>
              <LatitudeDegrees>41.9621553830802440643310546875</LatitudeDegrees>
              <LongitudeDegrees>2.86185801029205322265625</LongitudeDegrees>
            </Position>
            <AltitudeMeters>233.399993896484375</AltitudeMeters>
            <DistanceMeters>14253.280674736</DistanceMeters>
          </Trackpoint>
          <Trackpoint>
            <Time>2020-02-15T09:35:06.000Z</Time>
            <Position>
              <LatitudeDegrees>41.96223358623683452606201171875</LatitudeDegrees>
              <LongitudeDegrees>2.8618917055428028106689453125</LongitudeDegrees>
            </Position>
            <AltitudeMeters>233.600006103515625</AltitudeMeters>
            <DistanceMeters>14262.421039458</DistanceMeters>
          </Trackpoint>
          <Trackpoint>
            <Time>2020-02-15T09:35:07.000Z</Time>
            <Position>
              <LatitudeDegrees>41.96225873194634914398193359375</LatitudeDegrees>
              <LongitudeDegrees>2.8618987463414669036865234375</LongitudeDegrees>
            </Position>
            <AltitudeMeters>233.8000030517578125</AltitudeMeters>
            <DistanceMeters>14265.281327776</DistanceMeters>
          </Trackpoint>
          <Trackpoint>
            <Time>2020-02-15T09:35:08.000Z</Time>
            <Position>
              <LatitudeDegrees>41.962282620370388031005859375</LatitudeDegrees>
              <LongitudeDegrees>2.86190553568303585052490234375</LongitudeDegrees>
            </Position>
            <AltitudeMeters>233.8000030517578125</AltitudeMeters>
            <DistanceMeters>14267.999158258</DistanceMeters>
          </Trackpoint>
          <Trackpoint>
            <Time>2020-02-15T09:35:09.000Z</Time>
            <Position>
              <LatitudeDegrees>41.96230784989893436431884765625</LatitudeDegrees>
              <LongitudeDegrees>2.86191525869071483612060546875</LongitudeDegrees>
            </Position>
            <AltitudeMeters>234</AltitudeMeters>
            <DistanceMeters>14270.92190565</DistanceMeters>
          </Trackpoint>
          <Trackpoint>
            <Time>2020-02-15T09:35:13.000Z</Time>
            <Position>
              <LatitudeDegrees>41.96241765283048152923583984375</LatitudeDegrees>
              <LongitudeDegrees>2.8619550727307796478271484375</LongitudeDegrees>
            </Position>
            <AltitudeMeters>234.1999969482421875</AltitudeMeters>
            <DistanceMeters>14283.580091792</DistanceMeters>
          </Trackpoint>
          <Trackpoint>
            <Time>2020-02-15T09:35:14.000Z</Time>
            <Position>
              <LatitudeDegrees>41.962443888187408447265625</LatitudeDegrees>
              <LongitudeDegrees>2.86196555010974407196044921875</LongitudeDegrees>
            </Position>
            <AltitudeMeters>234.399993896484375</AltitudeMeters>
            <DistanceMeters>14286.626880033</DistanceMeters>
          </Trackpoint>
          <Trackpoint>
            <Time>2020-02-15T09:35:16.000Z</Time>
            <Position>
              <LatitudeDegrees>41.96249560452997684478759765625</LatitudeDegrees>
              <LongitudeDegrees>2.8619839064776897430419921875</LongitudeDegrees>
            </Position>
            <AltitudeMeters>234.600006103515625</AltitudeMeters>
            <DistanceMeters>14292.580286625</DistanceMeters>
          </Trackpoint>
          <Trackpoint>
            <Time>2020-02-15T09:35:17.000Z</Time>
            <Position>
              <LatitudeDegrees>41.962522007524967193603515625</LatitudeDegrees>
              <LongitudeDegrees>2.86199589259922504425048828125</LongitudeDegrees>
            </Position>
            <AltitudeMeters>234.600006103515625</AltitudeMeters>
            <DistanceMeters>14295.681420516</DistanceMeters>
          </Trackpoint>
          <Trackpoint>
            <Time>2020-02-15T09:35:18.000Z</Time>
            <Position>
              <LatitudeDegrees>41.9625479914247989654541015625</LatitudeDegrees>
              <LongitudeDegrees>2.86200326867401599884033203125</LongitudeDegrees>
            </Position>
            <AltitudeMeters>234.8000030517578125</AltitudeMeters>
            <DistanceMeters>14298.634902164</DistanceMeters>
          </Trackpoint>
          <Trackpoint>
            <Time>2020-02-15T09:35:19.000Z</Time>
            <Position>
              <LatitudeDegrees>41.96257389150559902191162109375</LatitudeDegrees>
              <LongitudeDegrees>2.8620130755007266998291015625</LongitudeDegrees>
            </Position>
            <AltitudeMeters>234.8000030517578125</AltitudeMeters>
            <DistanceMeters>14301.629374723</DistanceMeters>
          </Trackpoint>
          <Trackpoint>
            <Time>2020-02-15T09:35:20.000Z</Time>
            <Position>
              <LatitudeDegrees>41.9626007974147796630859375</LatitudeDegrees>
              <LongitudeDegrees>2.86202623508870601654052734375</LongitudeDegrees>
            </Position>
            <AltitudeMeters>235</AltitudeMeters>
            <DistanceMeters>14304.818083879</DistanceMeters>
          </Trackpoint>
          <Trackpoint>
            <Time>2020-02-15T09:35:21.000Z</Time>
            <Position>
              <LatitudeDegrees>41.96262552402913570404052734375</LatitudeDegrees>
              <LongitudeDegrees>2.862038724124431610107421875</LongitudeDegrees>
            </Position>
            <AltitudeMeters>235.1999969482421875</AltitudeMeters>
            <DistanceMeters>14307.759310363</DistanceMeters>
          </Trackpoint>
          <Trackpoint>
            <Time>2020-02-15T09:35:22.000Z</Time>
            <Position>
              <LatitudeDegrees>41.96264815516769886016845703125</LatitudeDegrees>
              <LongitudeDegrees>2.86205138079822063446044921875</LongitudeDegrees>
            </Position>
            <AltitudeMeters>235.1999969482421875</AltitudeMeters>
            <DistanceMeters>14310.488744932</DistanceMeters>
          </Trackpoint>
          <Trackpoint>
            <Time>2020-02-15T09:35:23.000Z</Time>
            <Position>
              <LatitudeDegrees>41.96266927756369113922119140625</LatitudeDegrees>
              <LongitudeDegrees>2.86206395365297794342041015625</LongitudeDegrees>
            </Position>
            <AltitudeMeters>235.1999969482421875</AltitudeMeters>
            <DistanceMeters>14313.059740062</DistanceMeters>
          </Trackpoint>
          <Trackpoint>
            <Time>2020-02-15T09:35:24.000Z</Time>
            <Position>
              <LatitudeDegrees>41.96269023232161998748779296875</LatitudeDegrees>
              <LongitudeDegrees>2.8620734252035617828369140625</LongitudeDegrees>
            </Position>
            <AltitudeMeters>235.399993896484375</AltitudeMeters>
            <DistanceMeters>14315.521280493</DistanceMeters>
          </Trackpoint>
          <Trackpoint>
            <Time>2020-02-15T09:35:25.000Z</Time>
            <Position>
              <LatitudeDegrees>41.96271018125116825103759765625</LatitudeDegrees>
              <LongitudeDegrees>2.86208004690706729888916015625</LongitudeDegrees>
            </Position>
            <AltitudeMeters>235.399993896484375</AltitudeMeters>
            <DistanceMeters>14317.80982683</DistanceMeters>
          </Trackpoint>
          <Trackpoint>
            <Time>2020-02-15T09:35:26.000Z</Time>
            <Position>
              <LatitudeDegrees>41.96273155510425567626953125</LatitudeDegrees>
              <LongitudeDegrees>2.8620831482112407684326171875</LongitudeDegrees>
            </Position>
            <AltitudeMeters>235.600006103515625</AltitudeMeters>
            <DistanceMeters>14320.20253836</DistanceMeters>
          </Trackpoint>
          <Trackpoint>
            <Time>2020-02-15T09:35:27.000Z</Time>
            <Position>
              <LatitudeDegrees>41.9627536833286285400390625</LatitudeDegrees>
              <LongitudeDegrees>2.8620871715247631072998046875</LongitudeDegrees>
            </Position>
            <AltitudeMeters>235.600006103515625</AltitudeMeters>
            <DistanceMeters>14322.687809429</DistanceMeters>
          </Trackpoint>
          <Trackpoint>
            <Time>2020-02-15T09:35:28.000Z</Time>
            <Position>
              <LatitudeDegrees>41.962776817381381988525390625</LatitudeDegrees>
              <LongitudeDegrees>2.8620932064950466156005859375</LongitudeDegrees>
            </Position>
            <AltitudeMeters>235.8000030517578125</AltitudeMeters>
            <DistanceMeters>14325.310959873</DistanceMeters>
          </Trackpoint>
          <Trackpoint>
            <Time>2020-02-15T09:35:29.000Z</Time>
            <Position>
              <LatitudeDegrees>41.96280171163380146026611328125</LatitudeDegrees>
              <LongitudeDegrees>2.8620982356369495391845703125</LongitudeDegrees>
            </Position>
            <AltitudeMeters>236</AltitudeMeters>
            <DistanceMeters>14328.113845262</DistanceMeters>
          </Trackpoint>
          <Trackpoint>
            <Time>2020-02-15T09:35:30.000Z</Time>
            <Position>
              <LatitudeDegrees>41.96282668970525264739990234375</LatitudeDegrees>
              <LongitudeDegrees>2.86210267804563045501708984375</LongitudeDegrees>
            </Position>
            <AltitudeMeters>236</AltitudeMeters>
            <DistanceMeters>14330.916730652</DistanceMeters>
          </Trackpoint>
          <Trackpoint>
            <Time>2020-02-15T09:35:32.000Z</Time>
            <Position>
              <LatitudeDegrees>41.962879411876201629638671875</LatitudeDegrees>
              <LongitudeDegrees>2.86212514154613018035888671875</LongitudeDegrees>
            </Position>
            <AltitudeMeters>236.399993896484375</AltitudeMeters>
            <DistanceMeters>14337.072232318</DistanceMeters>
          </Trackpoint>
          <Trackpoint>
            <Time>2020-02-15T09:35:34.000Z</Time>
            <Position>
              <LatitudeDegrees>41.96293674409389495849609375</LatitudeDegrees>
              <LongitudeDegrees>2.8621678054332733154296875</LongitudeDegrees>
            </Position>
            <AltitudeMeters>236.8000030517578125</AltitudeMeters>
            <DistanceMeters>14344.365184412</DistanceMeters>
          </Trackpoint>
          <Trackpoint>
            <Time>2020-02-15T09:35:35.000Z</Time>
            <Position>
              <LatitudeDegrees>41.9629650749266147613525390625</LatitudeDegrees>
              <LongitudeDegrees>2.86219353787600994110107421875</LongitudeDegrees>
            </Position>
            <AltitudeMeters>236.8000030517578125</AltitudeMeters>
            <DistanceMeters>14348.16981482</DistanceMeters>
          </Trackpoint>
          <Trackpoint>
            <Time>2020-02-15T09:35:36.000Z</Time>
            <Position>
              <LatitudeDegrees>41.96299449540674686431884765625</LatitudeDegrees>
              <LongitudeDegrees>2.8622185997664928436279296875</LongitudeDegrees>
            </Position>
            <AltitudeMeters>236.8000030517578125</AltitudeMeters>
            <DistanceMeters>14352.046159387</DistanceMeters>
          </Trackpoint>
          <Trackpoint>
            <Time>2020-02-15T09:35:37.000Z</Time>
            <Position>
              <LatitudeDegrees>41.9630227424204349517822265625</LatitudeDegrees>
              <LongitudeDegrees>2.86224550567567348480224609375</LongitudeDegrees>
            </Position>
            <AltitudeMeters>236.8000030517578125</AltitudeMeters>
            <DistanceMeters>14355.899138192</DistanceMeters>
          </Trackpoint>
          <Trackpoint>
            <Time>2020-02-15T09:35:38.000Z</Time>
            <Position>
              <LatitudeDegrees>41.9630498997867107391357421875</LatitudeDegrees>
              <LongitudeDegrees>2.86227685399353504180908203125</LongitudeDegrees>
            </Position>
            <AltitudeMeters>237</AltitudeMeters>
            <DistanceMeters>14359.881199748</DistanceMeters>
          </Trackpoint>
          <Trackpoint>
            <Time>2020-02-15T09:35:41.000Z</Time>
            <Position>
              <LatitudeDegrees>41.96314050815999507904052734375</LatitudeDegrees>
              <LongitudeDegrees>2.8623761795461177825927734375</LongitudeDegrees>
            </Position>
            <AltitudeMeters>236.8000030517578125</AltitudeMeters>
            <DistanceMeters>14372.891880477</DistanceMeters>
          </Trackpoint>
          <Trackpoint>
            <Time>2020-02-15T09:35:43.000Z</Time>
            <Position>
              <LatitudeDegrees>41.96319867856800556182861328125</LatitudeDegrees>
              <LongitudeDegrees>2.86243326030671596527099609375</LongitudeDegrees>
            </Position>
            <AltitudeMeters>237</AltitudeMeters>
            <DistanceMeters>14380.906300839</DistanceMeters>
          </Trackpoint>
          <Trackpoint>
            <Time>2020-02-15T09:35:44.000Z</Time>
            <Position>
              <LatitudeDegrees>41.96322734467685222625732421875</LatitudeDegrees>
              <LongitudeDegrees>2.862457148730754852294921875</LongitudeDegrees>
            </Position>
            <AltitudeMeters>237</AltitudeMeters>
            <DistanceMeters>14384.659555327</DistanceMeters>
          </Trackpoint>
          <Trackpoint>
            <Time>2020-02-15T09:35:45.000Z</Time>
            <Position>
              <LatitudeDegrees>41.96325299330055713653564453125</LatitudeDegrees>
              <LongitudeDegrees>2.8624770976603031158447265625</LongitudeDegrees>
            </Position>
            <AltitudeMeters>237</AltitudeMeters>
            <DistanceMeters>14387.95685908</DistanceMeters>
          </Trackpoint>
          <Trackpoint>
            <Time>2020-02-15T09:35:46.000Z</Time>
            <Position>
              <LatitudeDegrees>41.9632762111723423004150390625</LatitudeDegrees>
              <LongitudeDegrees>2.862496040761470794677734375</LongitudeDegrees>
            </Position>
            <AltitudeMeters>237.1999969482421875</AltitudeMeters>
            <DistanceMeters>14390.979843923</DistanceMeters>
          </Trackpoint>
          <Trackpoint>
            <Time>2020-02-15T09:35:47.000Z</Time>
            <Position>
              <LatitudeDegrees>41.96330043487250804901123046875</LatitudeDegrees>
              <LongitudeDegrees>2.8625176660716533660888671875</LongitudeDegrees>
            </Position>
            <AltitudeMeters>237</AltitudeMeters>
            <DistanceMeters>14394.216337192</DistanceMeters>
          </Trackpoint>
          <Trackpoint>
            <Time>2020-02-15T09:35:48.000Z</Time>
            <Position>
              <LatitudeDegrees>41.9633241556584835052490234375</LatitudeDegrees>
              <LongitudeDegrees>2.86253727972507476806640625</LongitudeDegrees>
            </Position>
            <AltitudeMeters>237</AltitudeMeters>
            <DistanceMeters>14397.31601481</DistanceMeters>
          </Trackpoint>
          <Trackpoint>
            <Time>2020-02-15T09:35:49.000Z</Time>
            <Position>
              <LatitudeDegrees>41.963344775140285491943359375</LatitudeDegrees>
              <LongitudeDegrees>2.86255479790270328521728515625</LongitudeDegrees>
            </Position>
            <AltitudeMeters>237.1999969482421875</AltitudeMeters>
            <DistanceMeters>14400.030520728</DistanceMeters>
          </Trackpoint>
          <Trackpoint>
            <Time>2020-02-15T09:35:50.000Z</Time>
            <Position>
              <LatitudeDegrees>41.96336648426949977874755859375</LatitudeDegrees>
              <LongitudeDegrees>2.8625714778900146484375</LongitudeDegrees>
            </Position>
            <AltitudeMeters>237.1999969482421875</AltitudeMeters>
            <DistanceMeters>14402.812386201</DistanceMeters>
          </Trackpoint>
          <Trackpoint>
            <Time>2020-02-15T09:35:51.000Z</Time>
            <Position>
              <LatitudeDegrees>41.9633866846561431884765625</LatitudeDegrees>
              <LongitudeDegrees>2.86258581094443798065185546875</LongitudeDegrees>
            </Position>
            <AltitudeMeters>237</AltitudeMeters>
            <DistanceMeters>14405.355127779</DistanceMeters>
          </Trackpoint>
          <Trackpoint>
            <Time>2020-02-15T09:35:52.000Z</Time>
            <Position>
              <LatitudeDegrees>41.96340571157634258270263671875</LatitudeDegrees>
              <LongitudeDegrees>2.86260173656046390533447265625</LongitudeDegrees>
            </Position>
            <AltitudeMeters>237.1999969482421875</AltitudeMeters>
            <DistanceMeters>14407.85127536</DistanceMeters>
          </Trackpoint>
          <Trackpoint>
            <Time>2020-02-15T09:35:53.000Z</Time>
            <Position>
              <LatitudeDegrees>41.96342515759170055389404296875</LatitudeDegrees>
              <LongitudeDegrees>2.86262067966163158416748046875</LongitudeDegrees>
            </Position>
            <AltitudeMeters>237.1999969482421875</AltitudeMeters>
            <DistanceMeters>14410.522185391</DistanceMeters>
          </Trackpoint>
          <Trackpoint>
            <Time>2020-02-15T09:35:54.000Z</Time>
            <Position>
              <LatitudeDegrees>41.9634435139596462249755859375</LatitudeDegrees>
              <LongitudeDegrees>2.8626393713057041168212890625</LongitudeDegrees>
            </Position>
            <AltitudeMeters>237.399993896484375</AltitudeMeters>
            <DistanceMeters>14413.084384754</DistanceMeters>
          </Trackpoint>
          <Trackpoint>
            <Time>2020-02-15T09:35:55.000Z</Time>
            <Position>
              <LatitudeDegrees>41.96346170268952846527099609375</LatitudeDegrees>
              <LongitudeDegrees>2.86265940405428409576416015625</LongitudeDegrees>
            </Position>
            <AltitudeMeters>237.600006103515625</AltitudeMeters>
            <DistanceMeters>14415.700641229</DistanceMeters>
          </Trackpoint>
          <Trackpoint>
            <Time>2020-02-15T09:35:56.000Z</Time>
            <Position>
              <LatitudeDegrees>41.96347896941006183624267578125</LatitudeDegrees>
              <LongitudeDegrees>2.8626809455454349517822265625</LongitudeDegrees>
            </Position>
            <AltitudeMeters>237.600006103515625</AltitudeMeters>
            <DistanceMeters>14418.320346956</DistanceMeters>
          </Trackpoint>
          <Trackpoint>
            <Time>2020-02-15T09:35:57.000Z</Time>
            <Position>
              <LatitudeDegrees>41.96349690668284893035888671875</LatitudeDegrees>
              <LongitudeDegrees>2.86270399577915668487548828125</LongitudeDegrees>
            </Position>
            <AltitudeMeters>238.1999969482421875</AltitudeMeters>
            <DistanceMeters>14421.081032472</DistanceMeters>
          </Trackpoint>
          <Trackpoint>
            <Time>2020-02-15T09:35:58.000Z</Time>
            <Position>
              <LatitudeDegrees>41.9635166041553020477294921875</LatitudeDegrees>
              <LongitudeDegrees>2.8627285547554492950439453125</LongitudeDegrees>
            </Position>
            <AltitudeMeters>238.600006103515625</AltitudeMeters>
            <DistanceMeters>14424.067956563</DistanceMeters>
          </Trackpoint>
          <Trackpoint>
            <Time>2020-02-15T09:35:59.000Z</Time>
            <Position>
              <LatitudeDegrees>41.9635353796184062957763671875</LatitudeDegrees>
              <LongitudeDegrees>2.86275453865528106689453125</LongitudeDegrees>
            </Position>
            <AltitudeMeters>239</AltitudeMeters>
            <DistanceMeters>14427.066949084</DistanceMeters>
          </Trackpoint>
          <Trackpoint>
            <Time>2020-02-15T09:36:00.000Z</Time>
            <Position>
              <LatitudeDegrees>41.963556669652462005615234375</LatitudeDegrees>
              <LongitudeDegrees>2.8627778403460979461669921875</LongitudeDegrees>
            </Position>
            <AltitudeMeters>239.1999969482421875</AltitudeMeters>
            <DistanceMeters>14430.122615794</DistanceMeters>
          </Trackpoint>
          <Trackpoint>
            <Time>2020-02-15T09:36:01.000Z</Time>
            <Position>
              <LatitudeDegrees>41.96358089335262775421142578125</LatitudeDegrees>
              <LongitudeDegrees>2.86279745399951934814453125</LongitudeDegrees>
            </Position>
            <AltitudeMeters>239.399993896484375</AltitudeMeters>
            <DistanceMeters>14433.268559815</DistanceMeters>
          </Trackpoint>
          <Trackpoint>
            <Time>2020-02-15T09:36:02.000Z</Time>
            <Position>
              <LatitudeDegrees>41.963606290519237518310546875</LatitudeDegrees>
              <LongitudeDegrees>2.86281782202422618865966796875</LongitudeDegrees>
            </Position>
            <AltitudeMeters>239.600006103515625</AltitudeMeters>
            <DistanceMeters>14436.560381762</DistanceMeters>
          </Trackpoint>
          <Trackpoint>
            <Time>2020-02-15T09:36:03.000Z</Time>
            <Position>
              <LatitudeDegrees>41.9636292569339275360107421875</LatitudeDegrees>
              <LongitudeDegrees>2.862839363515377044677734375</LongitudeDegrees>
            </Position>
            <AltitudeMeters>239.8000030517578125</AltitudeMeters>
            <DistanceMeters>14439.677489757</DistanceMeters>
          </Trackpoint>
          <Trackpoint>
            <Time>2020-02-15T09:36:04.000Z</Time>
            <Position>
              <LatitudeDegrees>41.96364912204444408416748046875</LatitudeDegrees>
              <LongitudeDegrees>2.8628651797771453857421875</LongitudeDegrees>
            </Position>
            <AltitudeMeters>240</AltitudeMeters>
            <DistanceMeters>14442.750836461</DistanceMeters>
          </Trackpoint>
          <Trackpoint>
            <Time>2020-02-15T09:36:05.000Z</Time>
            <Position>
              <LatitudeDegrees>41.96366689167916774749755859375</LatitudeDegrees>
              <LongitudeDegrees>2.8628920018672943115234375</LongitudeDegrees>
            </Position>
            <AltitudeMeters>240.1999969482421875</AltitudeMeters>
            <DistanceMeters>14445.725643163</DistanceMeters>
          </Trackpoint>
          <Trackpoint>
            <Time>2020-02-15T09:36:06.000Z</Time>
            <Position>
              <LatitudeDegrees>41.96367996744811534881591796875</LatitudeDegrees>
              <LongitudeDegrees>2.86292209289968013763427734375</LongitudeDegrees>
            </Position>
            <AltitudeMeters>240.1999969482421875</AltitudeMeters>
            <DistanceMeters>14448.611077356</DistanceMeters>
          </Trackpoint>
          <Trackpoint>
            <Time>2020-02-15T09:36:07.000Z</Time>
            <Position>
              <LatitudeDegrees>41.96368969045579433441162109375</LatitudeDegrees>
              <LongitudeDegrees>2.8629538603127002716064453125</LongitudeDegrees>
            </Position>
            <AltitudeMeters>240.600006103515625</AltitudeMeters>
            <DistanceMeters>14451.453948865</DistanceMeters>
          </Trackpoint>
          <Trackpoint>
            <Time>2020-02-15T09:36:08.000Z</Time>
            <Position>
              <LatitudeDegrees>41.96369924582540988922119140625</LatitudeDegrees>
              <LongitudeDegrees>2.86298696883022785186767578125</LongitudeDegrees>
            </Position>
            <AltitudeMeters>240.8000030517578125</AltitudeMeters>
            <DistanceMeters>14454.39517535</DistanceMeters>
          </Trackpoint>
          <Trackpoint>
            <Time>2020-02-15T09:36:09.000Z</Time>
            <Position>
              <LatitudeDegrees>41.9637073762714862823486328125</LatitudeDegrees>
              <LongitudeDegrees>2.86301831714808940887451171875</LongitudeDegrees>
            </Position>
            <AltitudeMeters>240.8000030517578125</AltitudeMeters>
            <DistanceMeters>14457.14110212</DistanceMeters>
          </Trackpoint>
          <Trackpoint>
            <Time>2020-02-15T09:36:10.000Z</Time>
            <Position>
              <LatitudeDegrees>41.96370787918567657470703125</LatitudeDegrees>
              <LongitudeDegrees>2.8630531020462512969970703125</LongitudeDegrees>
            </Position>
            <AltitudeMeters>240.8000030517578125</AltitudeMeters>
            <DistanceMeters>14460.020270434</DistanceMeters>
          </Trackpoint>
          <Trackpoint>
            <Time>2020-02-15T09:36:11.000Z</Time>
            <Position>
              <LatitudeDegrees>41.96370343677699565887451171875</LatitudeDegrees>
              <LongitudeDegrees>2.86309308372437953948974609375</LongitudeDegrees>
            </Position>
            <AltitudeMeters>241</AltitudeMeters>
            <DistanceMeters>14463.363806681</DistanceMeters>
          </Trackpoint>
          <Trackpoint>
            <Time>2020-02-15T09:36:12.000Z</Time>
            <Position>
              <LatitudeDegrees>41.9637040235102176666259765625</LatitudeDegrees>
              <LongitudeDegrees>2.86313549615442752838134765625</LongitudeDegrees>
            </Position>
            <AltitudeMeters>241.1999969482421875</AltitudeMeters>
            <DistanceMeters>14466.875940565</DistanceMeters>
          </Trackpoint>
          <Trackpoint>
            <Time>2020-02-15T09:36:13.000Z</Time>
            <Position>
              <LatitudeDegrees>41.96371315978467464447021484375</LatitudeDegrees>
              <LongitudeDegrees>2.8631744720041751861572265625</LongitudeDegrees>
            </Position>
            <AltitudeMeters>241.1999969482421875</AltitudeMeters>
            <DistanceMeters>14470.257075993</DistanceMeters>
          </Trackpoint>
          <Trackpoint>
            <Time>2020-02-15T09:36:14.000Z</Time>
            <Position>
              <LatitudeDegrees>41.96373025886714458465576171875</LatitudeDegrees>
              <LongitudeDegrees>2.8632110171020030975341796875</LongitudeDegrees>
            </Position>
            <AltitudeMeters>241.1999969482421875</AltitudeMeters>
            <DistanceMeters>14473.830383717</DistanceMeters>
          </Trackpoint>
          <Trackpoint>
            <Time>2020-02-15T09:36:15.000Z</Time>
            <Position>
              <LatitudeDegrees>41.963753141462802886962890625</LatitudeDegrees>
              <LongitudeDegrees>2.8632445447146892547607421875</LongitudeDegrees>
            </Position>
            <AltitudeMeters>241.600006103515625</AltitudeMeters>
            <DistanceMeters>14477.598046145</DistanceMeters>
          </Trackpoint>
          <Trackpoint>
            <Time>2020-02-15T09:36:16.000Z</Time>
            <Position>
              <LatitudeDegrees>41.9637791253626346588134765625</LatitudeDegrees>
              <LongitudeDegrees>2.86327815614640712738037109375</LongitudeDegrees>
            </Position>
            <AltitudeMeters>241.600006103515625</AltitudeMeters>
            <DistanceMeters>14481.610604718</DistanceMeters>
          </Trackpoint>
          <Trackpoint>
            <Time>2020-02-15T09:36:19.000Z</Time>
            <Position>
              <LatitudeDegrees>41.963871158659458160400390625</LatitudeDegrees>
              <LongitudeDegrees>2.863348983228206634521484375</LongitudeDegrees>
            </Position>
            <AltitudeMeters>241.8000030517578125</AltitudeMeters>
            <DistanceMeters>14493.412677804</DistanceMeters>
          </Trackpoint>
          <Trackpoint>
            <Time>2020-02-15T09:36:20.000Z</Time>
            <Position>
              <LatitudeDegrees>41.9638994894921779632568359375</LatitudeDegrees>
              <LongitudeDegrees>2.86337169818580150604248046875</LongitudeDegrees>
            </Position>
            <AltitudeMeters>242</AltitudeMeters>
            <DistanceMeters>14497.083219189</DistanceMeters>
          </Trackpoint>
          <Trackpoint>
            <Time>2020-02-15T09:36:21.000Z</Time>
            <Position>
              <LatitudeDegrees>41.96392505429685115814208984375</LatitudeDegrees>
              <LongitudeDegrees>2.863402627408504486083984375</LongitudeDegrees>
            </Position>
            <AltitudeMeters>242</AltitudeMeters>
            <DistanceMeters>14500.910330892</DistanceMeters>
          </Trackpoint>
          <Trackpoint>
            <Time>2020-02-15T09:36:22.000Z</Time>
            <Position>
              <LatitudeDegrees>41.9639517925679683685302734375</LatitudeDegrees>
              <LongitudeDegrees>2.86343255080282688140869140625</LongitudeDegrees>
            </Position>
            <AltitudeMeters>242</AltitudeMeters>
            <DistanceMeters>14504.782013588</DistanceMeters>
          </Trackpoint>
          <Trackpoint>
            <Time>2020-02-15T09:36:23.000Z</Time>
            <Position>
              <LatitudeDegrees>41.96398037485778331756591796875</LatitudeDegrees>
              <LongitudeDegrees>2.86345618776977062225341796875</LongitudeDegrees>
            </Position>
            <AltitudeMeters>242.1999969482421875</AltitudeMeters>
            <DistanceMeters>14508.51597101</DistanceMeters>
          </Trackpoint>
          <Trackpoint>
            <Time>2020-02-15T09:36:24.000Z</Time>
            <Position>
              <LatitudeDegrees>41.96401105262339115142822265625</LatitudeDegrees>
              <LongitudeDegrees>2.8634745441377162933349609375</LongitudeDegrees>
            </Position>
            <AltitudeMeters>242.1999969482421875</AltitudeMeters>
            <DistanceMeters>14512.252346016</DistanceMeters>
          </Trackpoint>
          <Trackpoint>
            <Time>2020-02-15T09:36:26.000Z</Time>
            <Position>
              <LatitudeDegrees>41.964073665440082550048828125</LatitudeDegrees>
              <LongitudeDegrees>2.8635027073323726654052734375</LongitudeDegrees>
            </Position>
            <AltitudeMeters>242.1999969482421875</AltitudeMeters>
            <DistanceMeters>14519.600805523</DistanceMeters>
          </Trackpoint>
          <Trackpoint>
            <Time>2020-02-15T09:36:27.000Z</Time>
            <Position>
              <LatitudeDegrees>41.9641055166721343994140625</LatitudeDegrees>
              <LongitudeDegrees>2.86351067014038562774658203125</LongitudeDegrees>
            </Position>
            <AltitudeMeters>242.1999969482421875</AltitudeMeters>
            <DistanceMeters>14523.206815795</DistanceMeters>
          </Trackpoint>
          <Trackpoint>
            <Time>2020-02-15T09:36:28.000Z</Time>
            <Position>
              <LatitudeDegrees>41.9641385413706302642822265625</LatitudeDegrees>
              <LongitudeDegrees>2.86351905204355716705322265625</LongitudeDegrees>
            </Position>
            <AltitudeMeters>242.1999969482421875</AltitudeMeters>
            <DistanceMeters>14526.946814246</DistanceMeters>
          </Trackpoint>
          <Trackpoint>
            <Time>2020-02-15T09:36:29.000Z</Time>
            <Position>
              <LatitudeDegrees>41.96417181752622127532958984375</LatitudeDegrees>
              <LongitudeDegrees>2.8635285235941410064697265625</LongitudeDegrees>
            </Position>
            <AltitudeMeters>242.1999969482421875</AltitudeMeters>
            <DistanceMeters>14530.733601987</DistanceMeters>
          </Trackpoint>
          <Trackpoint>
            <Time>2020-02-15T09:36:31.000Z</Time>
            <Position>
              <LatitudeDegrees>41.96423686109483242034912109375</LatitudeDegrees>
              <LongitudeDegrees>2.8635442815721035003662109375</LongitudeDegrees>
            </Position>
            <AltitudeMeters>242.399993896484375</AltitudeMeters>
            <DistanceMeters>14538.090044614</DistanceMeters>
          </Trackpoint>
          <Trackpoint>
            <Time>2020-02-15T09:36:32.000Z</Time>
            <Position>
              <LatitudeDegrees>41.9642682932317256927490234375</LatitudeDegrees>
              <LongitudeDegrees>2.86355107091367244720458984375</LongitudeDegrees>
            </Position>
            <AltitudeMeters>242.1999969482421875</AltitudeMeters>
            <DistanceMeters>14541.634171634</DistanceMeters>
          </Trackpoint>
          <Trackpoint>
            <Time>2020-02-15T09:36:33.000Z</Time>
            <Position>
              <LatitudeDegrees>41.96430106647312641143798828125</LatitudeDegrees>
              <LongitudeDegrees>2.86355995573103427886962890625</LongitudeDegrees>
            </Position>
            <AltitudeMeters>242.1999969482421875</AltitudeMeters>
            <DistanceMeters>14545.356017582</DistanceMeters>
          </Trackpoint>
          <Trackpoint>
            <Time>2020-02-15T09:36:34.000Z</Time>
            <Position>
              <LatitudeDegrees>41.964333839714527130126953125</LatitudeDegrees>
              <LongitudeDegrees>2.86357152275741100311279296875</LongitudeDegrees>
            </Position>
            <AltitudeMeters>242.399993896484375</AltitudeMeters>
            <DistanceMeters>14549.128470428</DistanceMeters>
          </Trackpoint>
          <Trackpoint>
            <Time>2020-02-15T09:36:35.000Z</Time>
            <Position>
              <LatitudeDegrees>41.9643655233085155487060546875</LatitudeDegrees>
              <LongitudeDegrees>2.8635821677744388580322265625</LongitudeDegrees>
            </Position>
            <AltitudeMeters>242.399993896484375</AltitudeMeters>
            <DistanceMeters>14552.763164616</DistanceMeters>
          </Trackpoint>
          <Trackpoint>
            <Time>2020-02-15T09:36:36.000Z</Time>
            <Position>
              <LatitudeDegrees>41.96439578197896480560302734375</LatitudeDegrees>
              <LongitudeDegrees>2.86359113641083240509033203125</LongitudeDegrees>
            </Position>
            <AltitudeMeters>242.600006103515625</AltitudeMeters>
            <DistanceMeters>14556.213040085</DistanceMeters>
          </Trackpoint>
          <Trackpoint>
            <Time>2020-02-15T09:36:37.000Z</Time>
            <Position>
              <LatitudeDegrees>41.96442411281168460845947265625</LatitudeDegrees>
              <LongitudeDegrees>2.86359868012368679046630859375</LongitudeDegrees>
            </Position>
            <AltitudeMeters>242.600006103515625</AltitudeMeters>
            <DistanceMeters>14559.427135207</DistanceMeters>
          </Trackpoint>
          <Trackpoint>
            <Time>2020-02-15T09:36:38.000Z</Time>
            <Position>
              <LatitudeDegrees>41.96444825269281864166259765625</LatitudeDegrees>
              <LongitudeDegrees>2.86360572092235088348388671875</LongitudeDegrees>
            </Position>
            <AltitudeMeters>242.8000030517578125</AltitudeMeters>
            <DistanceMeters>14562.176348546</DistanceMeters>
          </Trackpoint>
          <Trackpoint>
            <Time>2020-02-15T09:36:39.000Z</Time>
            <Position>
              <LatitudeDegrees>41.964471973478794097900390625</LatitudeDegrees>
              <LongitudeDegrees>2.86361343227326869964599609375</LongitudeDegrees>
            </Position>
            <AltitudeMeters>242.8000030517578125</AltitudeMeters>
            <DistanceMeters>14564.890854464</DistanceMeters>
          </Trackpoint>
          <Trackpoint>
            <Time>2020-02-15T09:36:40.000Z</Time>
            <Position>
              <LatitudeDegrees>41.9644915871322154998779296875</LatitudeDegrees>
              <LongitudeDegrees>2.863620221614837646484375</LongitudeDegrees>
            </Position>
            <AltitudeMeters>243</AltitudeMeters>
            <DistanceMeters>14567.145612331</DistanceMeters>
          </Trackpoint>
          <Trackpoint>
            <Time>2020-02-15T09:36:41.000Z</Time>
            <Position>
              <LatitudeDegrees>41.96451027877628803253173828125</LatitudeDegrees>
              <LongitudeDegrees>2.8636254183948040008544921875</LongitudeDegrees>
            </Position>
            <AltitudeMeters>243.1999969482421875</AltitudeMeters>
            <DistanceMeters>14569.270474261</DistanceMeters>
          </Trackpoint>
          <Trackpoint>
            <Time>2020-02-15T09:36:42.000Z</Time>
            <Position>
              <LatitudeDegrees>41.9645267911255359649658203125</LatitudeDegrees>
              <LongitudeDegrees>2.8636304475367069244384765625</LongitudeDegrees>
            </Position>
            <AltitudeMeters>243.1999969482421875</AltitudeMeters>
            <DistanceMeters>14571.156700684</DistanceMeters>
          </Trackpoint>
          <Trackpoint>
            <Time>2020-02-15T09:36:43.000Z</Time>
            <Position>
              <LatitudeDegrees>41.96454263292253017425537109375</LatitudeDegrees>
              <LongitudeDegrees>2.86363589577376842498779296875</LongitudeDegrees>
            </Position>
            <AltitudeMeters>243.1999969482421875</AltitudeMeters>
            <DistanceMeters>14572.979629133</DistanceMeters>
          </Trackpoint>
          <Trackpoint>
            <Time>2020-02-15T09:36:44.000Z</Time>
            <Position>
              <LatitudeDegrees>41.9645576365292072296142578125</LatitudeDegrees>
              <LongitudeDegrees>2.8636411763727664947509765625</LongitudeDegrees>
            </Position>
            <AltitudeMeters>243.399993896484375</AltitudeMeters>
            <DistanceMeters>14574.705875126</DistanceMeters>
          </Trackpoint>
          <Trackpoint>
            <Time>2020-02-15T09:36:45.000Z</Time>
            <Position>
              <LatitudeDegrees>41.96457347832620143890380859375</LatitudeDegrees>
              <LongitudeDegrees>2.86363832652568817138671875</LongitudeDegrees>
            </Position>
            <AltitudeMeters>243.399993896484375</AltitudeMeters>
            <DistanceMeters>14576.483662165</DistanceMeters>
          </Trackpoint>
          <Trackpoint>
            <Time>2020-02-15T09:36:46.000Z</Time>
            <Position>
              <LatitudeDegrees>41.96458303369581699371337890625</LatitudeDegrees>
              <LongitudeDegrees>2.86362131126224994659423828125</LongitudeDegrees>
            </Position>
            <AltitudeMeters>243.600006103515625</AltitudeMeters>
            <DistanceMeters>14578.246145156</DistanceMeters>
          </Trackpoint>
          <Trackpoint>
            <Time>2020-02-15T09:36:47.000Z</Time>
            <Position>
              <LatitudeDegrees>41.964580602943897247314453125</LatitudeDegrees>
              <LongitudeDegrees>2.863599099218845367431640625</LongitudeDegrees>
            </Position>
            <AltitudeMeters>243.600006103515625</AltitudeMeters>
            <DistanceMeters>14580.103425211</DistanceMeters>
          </Trackpoint>
          <Trackpoint>
            <Time>2020-02-15T09:36:48.000Z</Time>
            <Position>
              <LatitudeDegrees>41.9645586423575878143310546875</LatitudeDegrees>
              <LongitudeDegrees>2.86358241923153400421142578125</LongitudeDegrees>
            </Position>
            <AltitudeMeters>243.600006103515625</AltitudeMeters>
            <DistanceMeters>14582.909530458</DistanceMeters>
          </Trackpoint>
          <Trackpoint>
            <Time>2020-02-15T09:36:49.000Z</Time>
            <Position>
              <LatitudeDegrees>41.96452603675425052642822265625</LatitudeDegrees>
              <LongitudeDegrees>2.863570936024188995361328125</LongitudeDegrees>
            </Position>
            <AltitudeMeters>243.8000030517578125</AltitudeMeters>
            <DistanceMeters>14586.661581788</DistanceMeters>
          </Trackpoint>
          <Trackpoint>
            <Time>2020-02-15T09:36:50.000Z</Time>
            <Position>
              <LatitudeDegrees>41.96449083276093006134033203125</LatitudeDegrees>
              <LongitudeDegrees>2.863561548292636871337890625</LongitudeDegrees>
            </Position>
            <AltitudeMeters>243.8000030517578125</AltitudeMeters>
            <DistanceMeters>14590.65722631</DistanceMeters>
          </Trackpoint>
          <Trackpoint>
            <Time>2020-02-15T09:36:51.000Z</Time>
            <Position>
              <LatitudeDegrees>41.96445395238697528839111328125</LatitudeDegrees>
              <LongitudeDegrees>2.86354956217110157012939453125</LongitudeDegrees>
            </Position>
            <AltitudeMeters>243.600006103515625</AltitudeMeters>
            <DistanceMeters>14594.879236602</DistanceMeters>
          </Trackpoint>
          <Trackpoint>
            <Time>2020-02-15T09:36:54.000Z</Time>
            <Position>
              <LatitudeDegrees>41.96434247307479381561279296875</LatitudeDegrees>
              <LongitudeDegrees>2.86350094713270664215087890625</LongitudeDegrees>
            </Position>
            <AltitudeMeters>243.8000030517578125</AltitudeMeters>
            <DistanceMeters>14607.923189237</DistanceMeters>
          </Trackpoint>
          <Trackpoint>
            <Time>2020-02-15T09:36:55.000Z</Time>
            <Position>
              <LatitudeDegrees>41.9643045030534267425537109375</LatitudeDegrees>
              <LongitudeDegrees>2.86348585970699787139892578125</LongitudeDegrees>
            </Position>
            <AltitudeMeters>243.8000030517578125</AltitudeMeters>
            <DistanceMeters>14612.329396717</DistanceMeters>
          </Trackpoint>
          <Trackpoint>
            <Time>2020-02-15T09:36:56.000Z</Time>
            <Position>
              <LatitudeDegrees>41.96426804177463054656982421875</LatitudeDegrees>
              <LongitudeDegrees>2.86347202956676483154296875</LongitudeDegrees>
            </Position>
            <AltitudeMeters>243.8000030517578125</AltitudeMeters>
            <DistanceMeters>14616.546056594</DistanceMeters>
          </Trackpoint>
          <Trackpoint>
            <Time>2020-02-15T09:36:57.000Z</Time>
            <Position>
              <LatitudeDegrees>41.964233256876468658447265625</LatitudeDegrees>
              <LongitudeDegrees>2.863459289073944091796875</LongitudeDegrees>
            </Position>
            <AltitudeMeters>243.8000030517578125</AltitudeMeters>
            <DistanceMeters>14620.558615167</DistanceMeters>
          </Trackpoint>
          <Trackpoint>
            <Time>2020-02-15T09:36:58.000Z</Time>
            <Position>
              <LatitudeDegrees>41.96420350112020969390869140625</LatitudeDegrees>
              <LongitudeDegrees>2.86344814114272594451904296875</LongitudeDegrees>
            </Position>
            <AltitudeMeters>243.8000030517578125</AltitudeMeters>
            <DistanceMeters>14623.995378177</DistanceMeters>
          </Trackpoint>
          <Trackpoint>
            <Time>2020-02-15T09:36:59.000Z</Time>
            <Position>
              <LatitudeDegrees>41.96417567320168018341064453125</LatitudeDegrees>
              <LongitudeDegrees>2.8634366579353809356689453125</LongitudeDegrees>
            </Position>
            <AltitudeMeters>243.8000030517578125</AltitudeMeters>
            <DistanceMeters>14627.234660324</DistanceMeters>
          </Trackpoint>
          <Trackpoint>
            <Time>2020-02-15T09:37:00.000Z</Time>
            <Position>
              <LatitudeDegrees>41.96415044367313385009765625</LatitudeDegrees>
              <LongitudeDegrees>2.86342735402286052703857421875</LongitudeDegrees>
            </Position>
            <AltitudeMeters>243.8000030517578125</AltitudeMeters>
            <DistanceMeters>14630.14657409</DistanceMeters>
          </Trackpoint>
          <Trackpoint>
            <Time>2020-02-15T09:37:01.000Z</Time>
            <Position>
              <LatitudeDegrees>41.96412906982004642486572265625</LatitudeDegrees>
              <LongitudeDegrees>2.863420732319355010986328125</LongitudeDegrees>
            </Position>
            <AltitudeMeters>243.8000030517578125</AltitudeMeters>
            <DistanceMeters>14632.586004429</DistanceMeters>
          </Trackpoint>
          <Trackpoint>
            <Time>2020-02-15T09:37:02.000Z</Time>
            <Position>
              <LatitudeDegrees>41.9641090370714664459228515625</LatitudeDegrees>
              <LongitudeDegrees>2.86341369152069091796875</LongitudeDegrees>
            </Position>
            <AltitudeMeters>243.8000030517578125</AltitudeMeters>
            <DistanceMeters>14634.890279792</DistanceMeters>
          </Trackpoint>
          <Trackpoint>
            <Time>2020-02-15T09:37:03.000Z</Time>
            <Position>
              <LatitudeDegrees>41.9640909321606159210205078125</LatitudeDegrees>
              <LongitudeDegrees>2.86340757273137569427490234375</LongitudeDegrees>
            </Position>
            <AltitudeMeters>243.8000030517578125</AltitudeMeters>
            <DistanceMeters>14636.967868909</DistanceMeters>
          </Trackpoint>
          <Trackpoint>
            <Time>2020-02-15T09:37:04.000Z</Time>
            <Position>
              <LatitudeDegrees>41.96407131850719451904296875</LatitudeDegrees>
              <LongitudeDegrees>2.86340405233204364776611328125</LongitudeDegrees>
            </Position>
            <AltitudeMeters>243.8000030517578125</AltitudeMeters>
            <DistanceMeters>14639.17199711</DistanceMeters>
          </Trackpoint>
          <Trackpoint>
            <Time>2020-02-15T09:37:05.000Z</Time>
            <Position>
              <LatitudeDegrees>41.964047513902187347412109375</LatitudeDegrees>
              <LongitudeDegrees>2.86340103484690189361572265625</LongitudeDegrees>
            </Position>
            <AltitudeMeters>243.399993896484375</AltitudeMeters>
            <DistanceMeters>14641.832745112</DistanceMeters>
          </Trackpoint>
          <Trackpoint>
            <Time>2020-02-15T09:37:07.000Z</Time>
            <Position>
              <LatitudeDegrees>41.9639886729419231414794921875</LatitudeDegrees>
              <LongitudeDegrees>2.86338645033538341522216796875</LongitudeDegrees>
            </Position>
            <AltitudeMeters>243</AltitudeMeters>
            <DistanceMeters>14648.491399281</DistanceMeters>
          </Trackpoint>
          <Trackpoint>
            <Time>2020-02-15T09:37:08.000Z</Time>
            <Position>
              <LatitudeDegrees>41.96395196020603179931640625</LatitudeDegrees>
              <LongitudeDegrees>2.863363735377788543701171875</LongitudeDegrees>
            </Position>
            <AltitudeMeters>243</AltitudeMeters>
            <DistanceMeters>14652.988884271</DistanceMeters>
          </Trackpoint>
          <Trackpoint>
            <Time>2020-02-15T09:37:09.000Z</Time>
            <Position>
              <LatitudeDegrees>41.9639129005372524261474609375</LatitudeDegrees>
              <LongitudeDegrees>2.86334403790533542633056640625</LongitudeDegrees>
            </Position>
            <AltitudeMeters>242.8000030517578125</AltitudeMeters>
            <DistanceMeters>14657.631598183</DistanceMeters>
          </Trackpoint>
          <Trackpoint>
            <Time>2020-02-15T09:37:10.000Z</Time>
            <Position>
              <LatitudeDegrees>41.96387845091521739959716796875</LatitudeDegrees>
              <LongitudeDegrees>2.8633439540863037109375</LongitudeDegrees>
            </Position>
            <AltitudeMeters>242.600006103515625</AltitudeMeters>
            <DistanceMeters>14661.465781858</DistanceMeters>
          </Trackpoint>
          <Trackpoint>
            <Time>2020-02-15T09:37:11.000Z</Time>
            <Position>
              <LatitudeDegrees>41.963857077062129974365234375</LatitudeDegrees>
              <LongitudeDegrees>2.863359712064266204833984375</LongitudeDegrees>
            </Position>
            <AltitudeMeters>242.399993896484375</AltitudeMeters>
            <DistanceMeters>14664.180287776</DistanceMeters>
          </Trackpoint>
          <Trackpoint>
            <Time>2020-02-15T09:37:12.000Z</Time>
            <Position>
              <LatitudeDegrees>41.9638508744537830352783203125</LatitudeDegrees>
              <LongitudeDegrees>2.86338846199214458465576171875</LongitudeDegrees>
            </Position>
            <AltitudeMeters>242.1999969482421875</AltitudeMeters>
            <DistanceMeters>14666.658281315</DistanceMeters>
          </Trackpoint>
          <Trackpoint>
            <Time>2020-02-15T09:37:13.000Z</Time>
            <Position>
              <LatitudeDegrees>41.96385682560503482818603515625</LatitudeDegrees>
              <LongitudeDegrees>2.86341570317745208740234375</LongitudeDegrees>
            </Position>
            <AltitudeMeters>242.1999969482421875</AltitudeMeters>
            <DistanceMeters>14669.009112399</DistanceMeters>
          </Trackpoint>
          <Trackpoint>
            <Time>2020-02-15T09:37:14.000Z</Time>
            <Position>
              <LatitudeDegrees>41.96387040428817272186279296875</LatitudeDegrees>
              <LongitudeDegrees>2.8634364902973175048828125</LongitudeDegrees>
            </Position>
            <AltitudeMeters>242.1999969482421875</AltitudeMeters>
            <DistanceMeters>14671.297658736</DistanceMeters>
          </Trackpoint>
          <Trackpoint>
            <Time>2020-02-15T09:37:15.000Z</Time>
            <Position>
              <LatitudeDegrees>41.96388834156095981597900390625</LatitudeDegrees>
              <LongitudeDegrees>2.86345300264656543731689453125</LongitudeDegrees>
            </Position>
            <AltitudeMeters>242</AltitudeMeters>
            <DistanceMeters>14673.716643965</DistanceMeters>
          </Trackpoint>
          <Trackpoint>
            <Time>2020-02-15T09:37:16.000Z</Time>
            <Position>
              <LatitudeDegrees>41.96391130797564983367919921875</LatitudeDegrees>
              <LongitudeDegrees>2.8634661622345447540283203125</LongitudeDegrees>
            </Position>
            <AltitudeMeters>242.1999969482421875</AltitudeMeters>
            <DistanceMeters>14676.495261491</DistanceMeters>
          </Trackpoint>
          <Trackpoint>
            <Time>2020-02-15T09:37:17.000Z</Time>
            <Position>
              <LatitudeDegrees>41.9639373756945133209228515625</LatitudeDegrees>
              <LongitudeDegrees>2.86347848363220691680908203125</LongitudeDegrees>
            </Position>
            <AltitudeMeters>242</AltitudeMeters>
            <DistanceMeters>14679.570076939</DistanceMeters>
          </Trackpoint>
          <Trackpoint>
            <Time>2020-02-15T09:37:18.000Z</Time>
            <Position>
              <LatitudeDegrees>41.963965706527233123779296875</LatitudeDegrees>
              <LongitudeDegrees>2.86349407397210597991943359375</LongitudeDegrees>
            </Position>
            <AltitudeMeters>242</AltitudeMeters>
            <DistanceMeters>14682.975164038</DistanceMeters>
          </Trackpoint>
          <Trackpoint>
            <Time>2020-02-15T09:37:19.000Z</Time>
            <Position>
              <LatitudeDegrees>41.96399713866412639617919921875</LatitudeDegrees>
              <LongitudeDegrees>2.86351452581584453582763671875</LongitudeDegrees>
            </Position>
            <AltitudeMeters>241.8000030517578125</AltitudeMeters>
            <DistanceMeters>14686.860815569</DistanceMeters>
          </Trackpoint>
          <Trackpoint>
            <Time>2020-02-15T09:37:20.000Z</Time>
            <Position>
              <LatitudeDegrees>41.964031420648097991943359375</LatitudeDegrees>
              <LongitudeDegrees>2.86354151554405689239501953125</LongitudeDegrees>
            </Position>
            <AltitudeMeters>242</AltitudeMeters>
            <DistanceMeters>14691.281345562</DistanceMeters>
          </Trackpoint>
          <Trackpoint>
            <Time>2020-02-15T09:37:21.000Z</Time>
            <Position>
              <LatitudeDegrees>41.96406989358365535736083984375</LatitudeDegrees>
              <LongitudeDegrees>2.8635727800428867340087890625</LongitudeDegrees>
            </Position>
            <AltitudeMeters>242</AltitudeMeters>
            <DistanceMeters>14696.283579246</DistanceMeters>
          </Trackpoint>
          <Trackpoint>
            <Time>2020-02-15T09:37:22.000Z</Time>
            <Position>
              <LatitudeDegrees>41.9641081988811492919921875</LatitudeDegrees>
              <LongitudeDegrees>2.86360756494104862213134765625</LongitudeDegrees>
            </Position>
            <AltitudeMeters>242</AltitudeMeters>
            <DistanceMeters>14701.42732535</DistanceMeters>
          </Trackpoint>
          <Trackpoint>
            <Time>2020-02-15T09:37:23.000Z</Time>
            <Position>
              <LatitudeDegrees>41.96414616890251636505126953125</LatitudeDegrees>
              <LongitudeDegrees>2.8636522404849529266357421875</LongitudeDegrees>
            </Position>
            <AltitudeMeters>241.8000030517578125</AltitudeMeters>
            <DistanceMeters>14707.042752933</DistanceMeters>
          </Trackpoint>
          <Trackpoint>
            <Time>2020-02-15T09:37:24.000Z</Time>
            <Position>
              <LatitudeDegrees>41.96418589912354946136474609375</LatitudeDegrees>
              <LongitudeDegrees>2.863711081445217132568359375</LongitudeDegrees>
            </Position>
            <AltitudeMeters>241.600006103515625</AltitudeMeters>
            <DistanceMeters>14713.620221766</DistanceMeters>
          </Trackpoint>
          <Trackpoint>
            <Time>2020-02-15T09:37:27.000Z</Time>
            <Position>
              <LatitudeDegrees>41.9642984680831432342529296875</LatitudeDegrees>
              <LongitudeDegrees>2.86391551606357097625732421875</LongitudeDegrees>
            </Position>
            <AltitudeMeters>241.1999969482421875</AltitudeMeters>
            <DistanceMeters>14734.673304014</DistanceMeters>
          </Trackpoint>
          <Trackpoint>
            <Time>2020-02-15T09:37:28.000Z</Time>
            <Position>
              <LatitudeDegrees>41.96434867568314075469970703125</LatitudeDegrees>
              <LongitudeDegrees>2.863988690078258514404296875</LongitudeDegrees>
            </Position>
            <AltitudeMeters>241.1999969482421875</AltitudeMeters>
            <DistanceMeters>14742.913824317</DistanceMeters>
          </Trackpoint>
          <Trackpoint>
            <Time>2020-02-15T09:37:29.000Z</Time>
            <Position>
              <LatitudeDegrees>41.9644037447869777679443359375</LatitudeDegrees>
              <LongitudeDegrees>2.86405784077942371368408203125</LongitudeDegrees>
            </Position>
            <AltitudeMeters>241.1999969482421875</AltitudeMeters>
            <DistanceMeters>14751.29989821</DistanceMeters>
          </Trackpoint>
          <Trackpoint>
            <Time>2020-02-15T09:37:30.000Z</Time>
            <Position>
              <LatitudeDegrees>41.9644610770046710968017578125</LatitudeDegrees>
              <LongitudeDegrees>2.8641176037490367889404296875</LongitudeDegrees>
            </Position>
            <AltitudeMeters>240.8000030517578125</AltitudeMeters>
            <DistanceMeters>14759.373255119</DistanceMeters>
          </Trackpoint>
          <Trackpoint>
            <Time>2020-02-15T09:37:31.000Z</Time>
            <Position>
              <LatitudeDegrees>41.964514553546905517578125</LatitudeDegrees>
              <LongitudeDegrees>2.86416596733033657073974609375</LongitudeDegrees>
            </Position>
            <AltitudeMeters>240.600006103515625</AltitudeMeters>
            <DistanceMeters>14766.546355953</DistanceMeters>
          </Trackpoint>
          <Trackpoint>
            <Time>2020-02-15T09:37:32.000Z</Time>
            <Position>
              <LatitudeDegrees>41.9645586423575878143310546875</LatitudeDegrees>
              <LongitudeDegrees>2.8642054460942745208740234375</LongitudeDegrees>
            </Position>
            <AltitudeMeters>240.1999969482421875</AltitudeMeters>
            <DistanceMeters>14772.441076825</DistanceMeters>
          </Trackpoint>
          <Trackpoint>
            <Time>2020-02-15T09:37:33.000Z</Time>
            <Position>
              <LatitudeDegrees>41.9645990431308746337890625</LatitudeDegrees>
              <LongitudeDegrees>2.8642357885837554931640625</LongitudeDegrees>
            </Position>
            <AltitudeMeters>240</AltitudeMeters>
            <DistanceMeters>14777.591840321</DistanceMeters>
          </Trackpoint>
          <Trackpoint>
            <Time>2020-02-15T09:37:34.000Z</Time>
            <Position>
              <LatitudeDegrees>41.96463600732386112213134765625</LatitudeDegrees>
              <LongitudeDegrees>2.8642554022371768951416015625</LongitudeDegrees>
            </Position>
            <AltitudeMeters>239.1999969482421875</AltitudeMeters>
            <DistanceMeters>14782.015433392</DistanceMeters>
          </Trackpoint>
          <Trackpoint>
            <Time>2020-02-15T09:37:35.000Z</Time>
            <Position>
              <LatitudeDegrees>41.96466115303337574005126953125</LatitudeDegrees>
              <LongitudeDegrees>2.864266298711299896240234375</LongitudeDegrees>
            </Position>
            <AltitudeMeters>238.600006103515625</AltitudeMeters>
            <DistanceMeters>14784.955124388</DistanceMeters>
          </Trackpoint>
          <Trackpoint>
            <Time>2020-02-15T09:37:36.000Z</Time>
            <Position>
              <LatitudeDegrees>41.96467741392552852630615234375</LatitudeDegrees>
              <LongitudeDegrees>2.86427979357540607452392578125</LongitudeDegrees>
            </Position>
            <AltitudeMeters>238.399993896484375</AltitudeMeters>
            <DistanceMeters>14787.084231801</DistanceMeters>
          </Trackpoint>
          <Trackpoint>
            <Time>2020-02-15T09:37:37.000Z</Time>
            <Position>
              <LatitudeDegrees>41.9646934233605861663818359375</LatitudeDegrees>
              <LongitudeDegrees>2.86430628038942813873291015625</LongitudeDegrees>
            </Position>
            <AltitudeMeters>237.8000030517578125</AltitudeMeters>
            <DistanceMeters>14789.909579138</DistanceMeters>
          </Trackpoint>
          <Trackpoint>
            <Time>2020-02-15T09:37:38.000Z</Time>
            <Position>
              <LatitudeDegrees>41.9647116959095001220703125</LatitudeDegrees>
              <LongitudeDegrees>2.86433327011764049530029296875</LongitudeDegrees>
            </Position>
            <AltitudeMeters>237.399993896484375</AltitudeMeters>
            <DistanceMeters>14792.929575365</DistanceMeters>
          </Trackpoint>
          <Trackpoint>
            <Time>2020-02-15T09:37:39.000Z</Time>
            <Position>
              <LatitudeDegrees>41.96472804062068462371826171875</LatitudeDegrees>
              <LongitudeDegrees>2.864354811608791351318359375</LongitudeDegrees>
            </Position>
            <AltitudeMeters>236.399993896484375</AltitudeMeters>
            <DistanceMeters>14795.477638348</DistanceMeters>
          </Trackpoint>
          <Trackpoint>
            <Time>2020-02-15T09:37:40.000Z</Time>
            <Position>
              <LatitudeDegrees>41.9647370092570781707763671875</LatitudeDegrees>
              <LongitudeDegrees>2.86437501199543476104736328125</LongitudeDegrees>
            </Position>
            <AltitudeMeters>235.399993896484375</AltitudeMeters>
            <DistanceMeters>14797.425106475</DistanceMeters>
          </Trackpoint>
          <Trackpoint>
            <Time>2020-02-15T09:37:41.000Z</Time>
            <Position>
              <LatitudeDegrees>41.964747905731201171875</LatitudeDegrees>
              <LongitudeDegrees>2.8643940389156341552734375</LongitudeDegrees>
            </Position>
            <AltitudeMeters>234.8000030517578125</AltitudeMeters>
            <DistanceMeters>14799.413868271</DistanceMeters>
          </Trackpoint>
          <Trackpoint>
            <Time>2020-02-15T09:37:42.000Z</Time>
            <Position>
              <LatitudeDegrees>41.96476089768111705780029296875</LatitudeDegrees>
              <LongitudeDegrees>2.86440837197005748748779296875</LongitudeDegrees>
            </Position>
            <AltitudeMeters>234.600006103515625</AltitudeMeters>
            <DistanceMeters>14801.285677465</DistanceMeters>
          </Trackpoint>
          <Trackpoint>
            <Time>2020-02-15T09:37:43.000Z</Time>
            <Position>
              <LatitudeDegrees>41.9647748954594135284423828125</LatitudeDegrees>
              <LongitudeDegrees>2.86441524513065814971923828125</LongitudeDegrees>
            </Position>
            <AltitudeMeters>234.1999969482421875</AltitudeMeters>
            <DistanceMeters>14802.942524845</DistanceMeters>
          </Trackpoint>
          <Trackpoint>
            <Time>2020-02-15T09:37:44.000Z</Time>
            <Position>
              <LatitudeDegrees>41.964787803590297698974609375</LatitudeDegrees>
              <LongitudeDegrees>2.864421196281909942626953125</LongitudeDegrees>
            </Position>
            <AltitudeMeters>234</AltitudeMeters>
            <DistanceMeters>14804.459979784</DistanceMeters>
          </Trackpoint>
          <Trackpoint>
            <Time>2020-02-15T09:37:45.000Z</Time>
            <Position>
              <LatitudeDegrees>41.96479911915957927703857421875</LatitudeDegrees>
              <LongitudeDegrees>2.86442815326154232025146484375</LongitudeDegrees>
            </Position>
            <AltitudeMeters>234</AltitudeMeters>
            <DistanceMeters>14805.837047703</DistanceMeters>
          </Trackpoint>
          <Trackpoint>
            <Time>2020-02-15T09:37:46.000Z</Time>
            <Position>
              <LatitudeDegrees>41.9648134522140026092529296875</LatitudeDegrees>
              <LongitudeDegrees>2.8644324280321598052978515625</LongitudeDegrees>
            </Position>
            <AltitudeMeters>233.8000030517578125</AltitudeMeters>
            <DistanceMeters>14807.471949115</DistanceMeters>
          </Trackpoint>
          <Trackpoint>
            <Time>2020-02-15T09:37:48.000Z</Time>
            <Position>
              <LatitudeDegrees>41.96484119631350040435791015625</LatitudeDegrees>
              <LongitudeDegrees>2.8644505329430103302001953125</LongitudeDegrees>
            </Position>
            <AltitudeMeters>233.399993896484375</AltitudeMeters>
            <DistanceMeters>14810.904768621</DistanceMeters>
          </Trackpoint>
          <Trackpoint>
            <Time>2020-02-15T09:37:49.000Z</Time>
            <Position>
              <LatitudeDegrees>41.96485242806375026702880859375</LatitudeDegrees>
              <LongitudeDegrees>2.864462435245513916015625</LongitudeDegrees>
            </Position>
            <AltitudeMeters>233.1999969482421875</AltitudeMeters>
            <DistanceMeters>14812.494869689</DistanceMeters>
          </Trackpoint>
          <Trackpoint>
            <Time>2020-02-15T09:37:50.000Z</Time>
            <Position>
              <LatitudeDegrees>41.96486215107142925262451171875</LatitudeDegrees>
              <LongitudeDegrees>2.86447173915803432464599609375</LongitudeDegrees>
            </Position>
            <AltitudeMeters>233.1999969482421875</AltitudeMeters>
            <DistanceMeters>14813.828633183</DistanceMeters>
          </Trackpoint>
          <Trackpoint>
            <Time>2020-02-15T09:37:51.000Z</Time>
            <Position>
              <LatitudeDegrees>41.96487371809780597686767578125</LatitudeDegrees>
              <LongitudeDegrees>2.86448188126087188720703125</LongitudeDegrees>
            </Position>
            <AltitudeMeters>232.8000030517578125</AltitudeMeters>
            <DistanceMeters>14815.363836737</DistanceMeters>
          </Trackpoint>
          <Trackpoint>
            <Time>2020-02-15T09:37:52.000Z</Time>
            <Position>
              <LatitudeDegrees>41.96488494984805583953857421875</LatitudeDegrees>
              <LongitudeDegrees>2.8644944541156291961669921875</LongitudeDegrees>
            </Position>
            <AltitudeMeters>232.8000030517578125</AltitudeMeters>
            <DistanceMeters>14816.993205472</DistanceMeters>
          </Trackpoint>
          <Trackpoint>
            <Time>2020-02-15T09:37:53.000Z</Time>
            <Position>
              <LatitudeDegrees>41.96489836089313030242919921875</LatitudeDegrees>
              <LongitudeDegrees>2.86451549269258975982666015625</LongitudeDegrees>
            </Position>
            <AltitudeMeters>232.600006103515625</AltitudeMeters>
            <DistanceMeters>14819.285694183</DistanceMeters>
          </Trackpoint>
          <Trackpoint>
            <Time>2020-02-15T09:37:55.000Z</Time>
            <Position>
              <LatitudeDegrees>41.9649294577538967132568359375</LatitudeDegrees>
              <LongitudeDegrees>2.86457441747188568115234375</LongitudeDegrees>
            </Position>
            <AltitudeMeters>232.600006103515625</AltitudeMeters>
            <DistanceMeters>14825.265585714</DistanceMeters>
          </Trackpoint>
          <Trackpoint>
            <Time>2020-02-15T09:37:57.000Z</Time>
            <Position>
              <LatitudeDegrees>41.96496315300464630126953125</LatitudeDegrees>
              <LongitudeDegrees>2.864659912884235382080078125</LongitudeDegrees>
            </Position>
            <AltitudeMeters>232.600006103515625</AltitudeMeters>
            <DistanceMeters>14833.273242851</DistanceMeters>
          </Trackpoint>
          <Trackpoint>
            <Time>2020-02-15T09:37:58.000Z</Time>
            <Position>
              <LatitudeDegrees>41.96497731842100620269775390625</LatitudeDegrees>
              <LongitudeDegrees>2.864709198474884033203125</LongitudeDegrees>
            </Position>
            <AltitudeMeters>232.399993896484375</AltitudeMeters>
            <DistanceMeters>14837.645504489</DistanceMeters>
          </Trackpoint>
          <Trackpoint>
            <Time>2020-02-15T09:37:59.000Z</Time>
            <Position>
              <LatitudeDegrees>41.96499592624604701995849609375</LatitudeDegrees>
              <LongitudeDegrees>2.86476577632129192352294921875</LongitudeDegrees>
            </Position>
            <AltitudeMeters>232.399993896484375</AltitudeMeters>
            <DistanceMeters>14842.764613966</DistanceMeters>
          </Trackpoint>
          <Trackpoint>
            <Time>2020-02-15T09:38:00.000Z</Time>
            <Position>
              <LatitudeDegrees>41.96501838974654674530029296875</LatitudeDegrees>
              <LongitudeDegrees>2.86482579074800014495849609375</LongitudeDegrees>
            </Position>
            <AltitudeMeters>232.399993896484375</AltitudeMeters>
            <DistanceMeters>14848.325097915</DistanceMeters>
          </Trackpoint>
          <Trackpoint>
            <Time>2020-02-15T09:38:01.000Z</Time>
            <Position>
              <LatitudeDegrees>41.96504051797091960906982421875</LatitudeDegrees>
              <LongitudeDegrees>2.8648823685944080352783203125</LongitudeDegrees>
            </Position>
            <AltitudeMeters>232.399993896484375</AltitudeMeters>
            <DistanceMeters>14853.616814749</DistanceMeters>
          </Trackpoint>
          <Trackpoint>
            <Time>2020-02-15T09:38:02.000Z</Time>
            <Position>
              <LatitudeDegrees>41.96506264619529247283935546875</LatitudeDegrees>
              <LongitudeDegrees>2.8649393655359745025634765625</LongitudeDegrees>
            </Position>
            <AltitudeMeters>232.1999969482421875</AltitudeMeters>
            <DistanceMeters>14858.938310754</DistanceMeters>
          </Trackpoint>
          <Trackpoint>
            <Time>2020-02-15T09:38:04.000Z</Time>
            <Position>
              <LatitudeDegrees>41.96511779911816120147705078125</LatitudeDegrees>
              <LongitudeDegrees>2.86507305689156055450439453125</LongitudeDegrees>
            </Position>
            <AltitudeMeters>231.8000030517578125</AltitudeMeters>
            <DistanceMeters>14871.590788582</DistanceMeters>
          </Trackpoint>
          <Trackpoint>
            <Time>2020-02-15T09:38:05.000Z</Time>
            <Position>
              <LatitudeDegrees>41.96515182964503765106201171875</LatitudeDegrees>
              <LongitudeDegrees>2.8651519306004047393798828125</LongitudeDegrees>
            </Position>
            <AltitudeMeters>231.600006103515625</AltitudeMeters>
            <DistanceMeters>14879.137489327</DistanceMeters>
          </Trackpoint>
          <Trackpoint>
            <Time>2020-02-15T09:38:07.000Z</Time>
            <Position>
              <LatitudeDegrees>41.965225674211978912353515625</LatitudeDegrees>
              <LongitudeDegrees>2.8653202392160892486572265625</LongitudeDegrees>
            </Position>
            <AltitudeMeters>230.600006103515625</AltitudeMeters>
            <DistanceMeters>14895.310466613</DistanceMeters>
          </Trackpoint>
          <Trackpoint>
            <Time>2020-02-15T09:38:08.000Z</Time>
            <Position>
              <LatitudeDegrees>41.9652617163956165313720703125</LatitudeDegrees>
              <LongitudeDegrees>2.86541135050356388092041015625</LongitudeDegrees>
            </Position>
            <AltitudeMeters>230.399993896484375</AltitudeMeters>
            <DistanceMeters>14903.851248633</DistanceMeters>
          </Trackpoint>
          <Trackpoint>
            <Time>2020-02-15T09:38:09.000Z</Time>
            <Position>
              <LatitudeDegrees>41.9652871973812580108642578125</LatitudeDegrees>
              <LongitudeDegrees>2.86550958640873432159423828125</LongitudeDegrees>
            </Position>
            <AltitudeMeters>229.600006103515625</AltitudeMeters>
            <DistanceMeters>14912.461528977</DistanceMeters>
          </Trackpoint>
          <Trackpoint>
            <Time>2020-02-15T09:38:10.000Z</Time>
            <Position>
              <LatitudeDegrees>41.9652996025979518890380859375</LatitudeDegrees>
              <LongitudeDegrees>2.86560036242008209228515625</LongitudeDegrees>
            </Position>
            <AltitudeMeters>229.600006103515625</AltitudeMeters>
            <DistanceMeters>14920.100400227</DistanceMeters>
          </Trackpoint>
          <Trackpoint>
            <Time>2020-02-15T09:38:11.000Z</Time>
            <Position>
              <LatitudeDegrees>41.96530907414853572845458984375</LatitudeDegrees>
              <LongitudeDegrees>2.86568778567016124725341796875</LongitudeDegrees>
            </Position>
            <AltitudeMeters>229</AltitudeMeters>
            <DistanceMeters>14927.412519115</DistanceMeters>
          </Trackpoint>
          <Trackpoint>
            <Time>2020-02-15T09:38:12.000Z</Time>
            <Position>
              <LatitudeDegrees>41.9653133489191532135009765625</LatitudeDegrees>
              <LongitudeDegrees>2.86578065715730190277099609375</LongitudeDegrees>
            </Position>
            <AltitudeMeters>228</AltitudeMeters>
            <DistanceMeters>14935.113201682</DistanceMeters>
          </Trackpoint>
          <Trackpoint>
            <Time>2020-02-15T09:38:13.000Z</Time>
            <Position>
              <LatitudeDegrees>41.9653146900236606597900390625</LatitudeDegrees>
              <LongitudeDegrees>2.8658828325569629669189453125</LongitudeDegrees>
            </Position>
            <AltitudeMeters>227.1999969482421875</AltitudeMeters>
            <DistanceMeters>14943.570045387</DistanceMeters>
          </Trackpoint>
          <Trackpoint>
            <Time>2020-02-15T09:38:15.000Z</Time>
            <Position>
              <LatitudeDegrees>41.96531997062265872955322265625</LatitudeDegrees>
              <LongitudeDegrees>2.86609665490686893463134765625</LongitudeDegrees>
            </Position>
            <AltitudeMeters>225</AltitudeMeters>
            <DistanceMeters>14961.275131483</DistanceMeters>
          </Trackpoint>
          <Trackpoint>
            <Time>2020-02-15T09:38:16.000Z</Time>
            <Position>
              <LatitudeDegrees>41.9653213955461978912353515625</LatitudeDegrees>
              <LongitudeDegrees>2.86620779894292354583740234375</LongitudeDegrees>
            </Position>
            <AltitudeMeters>224.1999969482421875</AltitudeMeters>
            <DistanceMeters>14970.474581272</DistanceMeters>
          </Trackpoint>
          <Trackpoint>
            <Time>2020-02-15T09:38:17.000Z</Time>
            <Position>
              <LatitudeDegrees>41.96532391011714935302734375</LatitudeDegrees>
              <LongitudeDegrees>2.86632053554058074951171875</LongitudeDegrees>
            </Position>
            <AltitudeMeters>223</AltitudeMeters>
            <DistanceMeters>14979.808507431</DistanceMeters>
          </Trackpoint>
          <Trackpoint>
            <Time>2020-02-15T09:38:18.000Z</Time>
            <Position>
              <LatitudeDegrees>41.96532952599227428436279296875</LatitudeDegrees>
              <LongitudeDegrees>2.86643922328948974609375</LongitudeDegrees>
            </Position>
            <AltitudeMeters>222</AltitudeMeters>
            <DistanceMeters>14989.651000006</DistanceMeters>
          </Trackpoint>
          <Trackpoint>
            <Time>2020-02-15T09:38:19.000Z</Time>
            <Position>
              <LatitudeDegrees>41.96534612216055393218994140625</LatitudeDegrees>
              <LongitudeDegrees>2.86655866540968418121337890625</LongitudeDegrees>
            </Position>
            <AltitudeMeters>221</AltitudeMeters>
            <DistanceMeters>14999.707682171</DistanceMeters>
          </Trackpoint>
          <Trackpoint>
            <Time>2020-02-15T09:38:20.000Z</Time>
            <Position>
              <LatitudeDegrees>41.96536975912749767303466796875</LatitudeDegrees>
              <LongitudeDegrees>2.8666714020073413848876953125</LongitudeDegrees>
            </Position>
            <AltitudeMeters>220.1999969482421875</AltitudeMeters>
            <DistanceMeters>15009.401338627</DistanceMeters>
          </Trackpoint>
          <Trackpoint>
            <Time>2020-02-15T09:38:21.000Z</Time>
            <Position>
              <LatitudeDegrees>41.9654021970927715301513671875</LatitudeDegrees>
              <LongitudeDegrees>2.86676720716059207916259765625</LongitudeDegrees>
            </Position>
            <AltitudeMeters>219.8000030517578125</AltitudeMeters>
            <DistanceMeters>15018.113790784</DistanceMeters>
          </Trackpoint>
          <Trackpoint>
            <Time>2020-02-15T09:38:22.000Z</Time>
            <Position>
              <LatitudeDegrees>41.9654534943401813507080078125</LatitudeDegrees>
              <LongitudeDegrees>2.8668376989662647247314453125</LongitudeDegrees>
            </Position>
            <AltitudeMeters>219.1999969482421875</AltitudeMeters>
            <DistanceMeters>15026.277243739</DistanceMeters>
          </Trackpoint>
          <Trackpoint>
            <Time>2020-02-15T09:38:23.000Z</Time>
            <Position>
              <LatitudeDegrees>41.9655148498713970184326171875</LatitudeDegrees>
              <LongitudeDegrees>2.866893522441387176513671875</LongitudeDegrees>
            </Position>
            <AltitudeMeters>218.8000030517578125</AltitudeMeters>
            <DistanceMeters>15034.521598498</DistanceMeters>
          </Trackpoint>
          <Trackpoint>
            <Time>2020-02-15T09:38:24.000Z</Time>
            <Position>
              <LatitudeDegrees>41.965577714145183563232421875</LatitudeDegrees>
              <LongitudeDegrees>2.86694356240332126617431640625</LongitudeDegrees>
            </Position>
            <AltitudeMeters>217.8000030517578125</AltitudeMeters>
            <DistanceMeters>15042.651798961</DistanceMeters>
          </Trackpoint>
          <Trackpoint>
            <Time>2020-02-15T09:38:25.000Z</Time>
            <Position>
              <LatitudeDegrees>41.9656311906874179840087890625</LatitudeDegrees>
              <LongitudeDegrees>2.8669922612607479095458984375</LongitudeDegrees>
            </Position>
            <AltitudeMeters>216.8000030517578125</AltitudeMeters>
            <DistanceMeters>15049.840618578</DistanceMeters>
          </Trackpoint>
          <Trackpoint>
            <Time>2020-02-15T09:38:26.000Z</Time>
            <Position>
              <LatitudeDegrees>41.9656657241284847259521484375</LatitudeDegrees>
              <LongitudeDegrees>2.867047078907489776611328125</LongitudeDegrees>
            </Position>
            <AltitudeMeters>215.1999969482421875</AltitudeMeters>
            <DistanceMeters>15055.787195691</DistanceMeters>
          </Trackpoint>
          <Trackpoint>
            <Time>2020-02-15T09:38:27.000Z</Time>
            <Position>
              <LatitudeDegrees>41.96567536331713199615478515625</LatitudeDegrees>
              <LongitudeDegrees>2.867106087505817413330078125</LongitudeDegrees>
            </Position>
            <AltitudeMeters>214.399993896484375</AltitudeMeters>
            <DistanceMeters>15060.786720828</DistanceMeters>
          </Trackpoint>
          <Trackpoint>
            <Time>2020-02-15T09:38:28.000Z</Time>
            <Position>
              <LatitudeDegrees>41.9656710885465145111083984375</LatitudeDegrees>
              <LongitudeDegrees>2.86716735921800136566162109375</LongitudeDegrees>
            </Position>
            <AltitudeMeters>213.600006103515625</AltitudeMeters>
            <DistanceMeters>15065.879301662</DistanceMeters>
          </Trackpoint>
          <Trackpoint>
            <Time>2020-02-15T09:38:29.000Z</Time>
            <Position>
              <LatitudeDegrees>41.96565289981663227081298828125</LatitudeDegrees>
              <LongitudeDegrees>2.867220081388950347900390625</LongitudeDegrees>
            </Position>
            <AltitudeMeters>213</AltitudeMeters>
            <DistanceMeters>15070.689193121</DistanceMeters>
          </Trackpoint>
          <Trackpoint>
            <Time>2020-02-15T09:38:30.000Z</Time>
            <Position>
              <LatitudeDegrees>41.9656348787248134613037109375</LatitudeDegrees>
              <LongitudeDegrees>2.86726844497025012969970703125</LongitudeDegrees>
            </Position>
            <AltitudeMeters>212.1999969482421875</AltitudeMeters>
            <DistanceMeters>15075.166555035</DistanceMeters>
          </Trackpoint>
          <Trackpoint>
            <Time>2020-02-15T09:38:31.000Z</Time>
            <Position>
              <LatitudeDegrees>41.9656164385378360748291015625</LatitudeDegrees>
              <LongitudeDegrees>2.86731504835188388824462890625</LongitudeDegrees>
            </Position>
            <AltitudeMeters>211</AltitudeMeters>
            <DistanceMeters>15079.535717609</DistanceMeters>
          </Trackpoint>
          <Trackpoint>
            <Time>2020-02-15T09:38:32.000Z</Time>
            <Position>
              <LatitudeDegrees>41.9656016863882541656494140625</LatitudeDegrees>
              <LongitudeDegrees>2.8673640824854373931884765625</LongitudeDegrees>
            </Position>
            <AltitudeMeters>211</AltitudeMeters>
            <DistanceMeters>15083.913139477</DistanceMeters>
          </Trackpoint>
          <Trackpoint>
            <Time>2020-02-15T09:38:33.000Z</Time>
            <Position>
              <LatitudeDegrees>41.9655953161418437957763671875</LatitudeDegrees>
              <LongitudeDegrees>2.86741596646606922149658203125</LongitudeDegrees>
            </Position>
            <AltitudeMeters>210.1999969482421875</AltitudeMeters>
            <DistanceMeters>15088.264699003</DistanceMeters>
          </Trackpoint>
          <Trackpoint>
            <Time>2020-02-15T09:38:34.000Z</Time>
            <Position>
              <LatitudeDegrees>41.96559489704668521881103515625</LatitudeDegrees>
              <LongitudeDegrees>2.86746793426573276519775390625</LongitudeDegrees>
            </Position>
            <AltitudeMeters>208.600006103515625</AltitudeMeters>
            <DistanceMeters>15092.565117187</DistanceMeters>
          </Trackpoint>
          <Trackpoint>
            <Time>2020-02-15T09:38:35.000Z</Time>
            <Position>
              <LatitudeDegrees>41.96559925563633441925048828125</LatitudeDegrees>
              <LongitudeDegrees>2.86751939915120601654052734375</LongitudeDegrees>
            </Position>
            <AltitudeMeters>207.600006103515625</AltitudeMeters>
            <DistanceMeters>15096.851864854</DistanceMeters>
          </Trackpoint>
          <Trackpoint>
            <Time>2020-02-15T09:38:36.000Z</Time>
            <Position>
              <LatitudeDegrees>41.9656090624630451202392578125</LatitudeDegrees>
              <LongitudeDegrees>2.867567427456378936767578125</LongitudeDegrees>
            </Position>
            <AltitudeMeters>207</AltitudeMeters>
            <DistanceMeters>15100.974316051</DistanceMeters>
          </Trackpoint>
          <Trackpoint>
            <Time>2020-02-15T09:38:37.000Z</Time>
            <Position>
              <LatitudeDegrees>41.96562356315553188323974609375</LatitudeDegrees>
              <LongitudeDegrees>2.86761126480996608734130859375</LongitudeDegrees>
            </Position>
            <AltitudeMeters>206.8000030517578125</AltitudeMeters>
            <DistanceMeters>15104.945022974</DistanceMeters>
          </Trackpoint>
          <Trackpoint>
            <Time>2020-02-15T09:38:38.000Z</Time>
            <Position>
              <LatitudeDegrees>41.96563848294317722320556640625</LatitudeDegrees>
              <LongitudeDegrees>2.8676582872867584228515625</LongitudeDegrees>
            </Position>
            <AltitudeMeters>206.399993896484375</AltitudeMeters>
            <DistanceMeters>15109.175579854</DistanceMeters>
          </Trackpoint>
          <Trackpoint>
            <Time>2020-02-15T09:38:39.000Z</Time>
            <Position>
              <LatitudeDegrees>41.9656586833298206329345703125</LatitudeDegrees>
              <LongitudeDegrees>2.8677027113735675811767578125</LongitudeDegrees>
            </Position>
            <AltitudeMeters>206.1999969482421875</AltitudeMeters>
            <DistanceMeters>15113.484389106</DistanceMeters>
          </Trackpoint>
          <Trackpoint>
            <Time>2020-02-15T09:38:40.000Z</Time>
            <Position>
              <LatitudeDegrees>41.965685673058032989501953125</LatitudeDegrees>
              <LongitudeDegrees>2.867740429937839508056640625</LongitudeDegrees>
            </Position>
            <AltitudeMeters>206</AltitudeMeters>
            <DistanceMeters>15117.816189984</DistanceMeters>
          </Trackpoint>
          <Trackpoint>
            <Time>2020-02-15T09:38:41.000Z</Time>
            <Position>
              <LatitudeDegrees>41.96571551263332366943359375</LatitudeDegrees>
              <LongitudeDegrees>2.867772281169891357421875</LongitudeDegrees>
            </Position>
            <AltitudeMeters>205.8000030517578125</AltitudeMeters>
            <DistanceMeters>15122.05740588</DistanceMeters>
          </Trackpoint>
          <Trackpoint>
            <Time>2020-02-15T09:38:42.000Z</Time>
            <Position>
              <LatitudeDegrees>41.96574510075151920318603515625</LatitudeDegrees>
              <LongitudeDegrees>2.86780136637389659881591796875</LongitudeDegrees>
            </Position>
            <AltitudeMeters>205.399993896484375</AltitudeMeters>
            <DistanceMeters>15126.13691944</DistanceMeters>
          </Trackpoint>
          <Trackpoint>
            <Time>2020-02-15T09:38:43.000Z</Time>
            <Position>
              <LatitudeDegrees>41.96577611379325389862060546875</LatitudeDegrees>
              <LongitudeDegrees>2.8678307868540287017822265625</LongitudeDegrees>
            </Position>
            <AltitudeMeters>205</AltitudeMeters>
            <DistanceMeters>15130.361068</DistanceMeters>
          </Trackpoint>
          <Trackpoint>
            <Time>2020-02-15T09:38:45.000Z</Time>
            <Position>
              <LatitudeDegrees>41.9658524729311466217041015625</LatitudeDegrees>
              <LongitudeDegrees>2.867896668612957000732421875</LongitudeDegrees>
            </Position>
            <AltitudeMeters>204.1999969482421875</AltitudeMeters>
            <DistanceMeters>15140.458522784</DistanceMeters>
          </Trackpoint>
          <Trackpoint>
            <Time>2020-02-15T09:38:46.000Z</Time>
            <Position>
              <LatitudeDegrees>41.96590318344533443450927734375</LatitudeDegrees>
              <LongitudeDegrees>2.86793028004467487335205078125</LongitudeDegrees>
            </Position>
            <AltitudeMeters>203.8000030517578125</AltitudeMeters>
            <DistanceMeters>15146.750410826</DistanceMeters>
          </Trackpoint>
          <Trackpoint>
            <Time>2020-02-15T09:38:47.000Z</Time>
            <Position>
              <LatitudeDegrees>41.9659590907394886016845703125</LatitudeDegrees>
              <LongitudeDegrees>2.8679705969989299774169921875</LongitudeDegrees>
            </Position>
            <AltitudeMeters>203.1999969482421875</AltitudeMeters>
            <DistanceMeters>15153.810582352</DistanceMeters>
          </Trackpoint>
          <Trackpoint>
            <Time>2020-02-15T09:38:48.000Z</Time>
            <Position>
              <LatitudeDegrees>41.9660221226513385772705078125</LatitudeDegrees>
              <LongitudeDegrees>2.86802197806537151336669921875</LongitudeDegrees>
            </Position>
            <AltitudeMeters>202.600006103515625</AltitudeMeters>
            <DistanceMeters>15162.013760374</DistanceMeters>
          </Trackpoint>
          <Trackpoint>
            <Time>2020-02-15T09:38:49.000Z</Time>
            <Position>
              <LatitudeDegrees>41.96608523838222026824951171875</LatitudeDegrees>
              <LongitudeDegrees>2.8680798970162868499755859375</LongitudeDegrees>
            </Position>
            <AltitudeMeters>202.399993896484375</AltitudeMeters>
            <DistanceMeters>15170.51851859</DistanceMeters>
          </Trackpoint>
          <Trackpoint>
            <Time>2020-02-15T09:38:50.000Z</Time>
            <Position>
              <LatitudeDegrees>41.96614827029407024383544921875</LatitudeDegrees>
              <LongitudeDegrees>2.868142761290073394775390625</LongitudeDegrees>
            </Position>
            <AltitudeMeters>202.1999969482421875</AltitudeMeters>
            <DistanceMeters>15179.253226134</DistanceMeters>
          </Trackpoint>
          <Trackpoint>
            <Time>2020-02-15T09:38:51.000Z</Time>
            <Position>
              <LatitudeDegrees>41.96621197275817394256591796875</LatitudeDegrees>
              <LongitudeDegrees>2.86820872686803340911865234375</LongitudeDegrees>
            </Position>
            <AltitudeMeters>201.600006103515625</AltitudeMeters>
            <DistanceMeters>15188.201897426</DistanceMeters>
          </Trackpoint>
          <Trackpoint>
            <Time>2020-02-15T09:38:52.000Z</Time>
            <Position>
              <LatitudeDegrees>41.96627366356551647186279296875</LatitudeDegrees>
              <LongitudeDegrees>2.86828081123530864715576171875</LongitudeDegrees>
            </Position>
            <AltitudeMeters>201.1999969482421875</AltitudeMeters>
            <DistanceMeters>15197.298192851</DistanceMeters>
          </Trackpoint>
          <Trackpoint>
            <Time>2020-02-15T09:38:54.000Z</Time>
            <Position>
              <LatitudeDegrees>41.966392435133457183837890625</LatitudeDegrees>
              <LongitudeDegrees>2.86843143403530120849609375</LongitudeDegrees>
            </Position>
            <AltitudeMeters>201.1999969482421875</AltitudeMeters>
            <DistanceMeters>15215.46793679</DistanceMeters>
          </Trackpoint>
          <Trackpoint>
            <Time>2020-02-15T09:38:55.000Z</Time>
            <Position>
              <LatitudeDegrees>41.96645982563495635986328125</LatitudeDegrees>
              <LongitudeDegrees>2.8684919513761997222900390625</LongitudeDegrees>
            </Position>
            <AltitudeMeters>200.8000030517578125</AltitudeMeters>
            <DistanceMeters>15224.486968257</DistanceMeters>
          </Trackpoint>
          <Trackpoint>
            <Time>2020-02-15T09:38:56.000Z</Time>
            <Position>
              <LatitudeDegrees>41.96652956306934356689453125</LatitudeDegrees>
              <LongitudeDegrees>2.86854852922260761260986328125</LongitudeDegrees>
            </Position>
            <AltitudeMeters>200.1999969482421875</AltitudeMeters>
            <DistanceMeters>15233.551939059</DistanceMeters>
          </Trackpoint>
          <Trackpoint>
            <Time>2020-02-15T09:38:57.000Z</Time>
            <Position>
              <LatitudeDegrees>41.9665961153805255889892578125</LatitudeDegrees>
              <LongitudeDegrees>2.868610136210918426513671875</LongitudeDegrees>
            </Position>
            <AltitudeMeters>199.1999969482421875</AltitudeMeters>
            <DistanceMeters>15242.544398931</DistanceMeters>
          </Trackpoint>
          <Trackpoint>
            <Time>2020-02-15T09:38:58.000Z</Time>
            <Position>
              <LatitudeDegrees>41.966653279960155487060546875</LatitudeDegrees>
              <LongitudeDegrees>2.868677861988544464111328125</LongitudeDegrees>
            </Position>
            <AltitudeMeters>198</AltitudeMeters>
            <DistanceMeters>15251.023103937</DistanceMeters>
          </Trackpoint>
          <Trackpoint>
            <Time>2020-02-15T09:38:59.000Z</Time>
            <Position>
              <LatitudeDegrees>41.966702900826930999755859375</LatitudeDegrees>
              <LongitudeDegrees>2.86874751560389995574951171875</LongitudeDegrees>
            </Position>
            <AltitudeMeters>196.1999969482421875</AltitudeMeters>
            <DistanceMeters>15259.006479134</DistanceMeters>
          </Trackpoint>
          <Trackpoint>
            <Time>2020-02-15T09:39:00.000Z</Time>
            <Position>
              <LatitudeDegrees>41.96674187667667865753173828125</LatitudeDegrees>
              <LongitudeDegrees>2.86880367435514926910400390625</LongitudeDegrees>
            </Position>
            <AltitudeMeters>195.399993896484375</AltitudeMeters>
            <DistanceMeters>15265.364753447</DistanceMeters>
          </Trackpoint>
          <Trackpoint>
            <Time>2020-02-15T09:39:01.000Z</Time>
            <Position>
              <LatitudeDegrees>41.96677766740322113037109375</LatitudeDegrees>
              <LongitudeDegrees>2.86886058747768402099609375</LongitudeDegrees>
            </Position>
            <AltitudeMeters>194</AltitudeMeters>
            <DistanceMeters>15271.534175803</DistanceMeters>
          </Trackpoint>
          <Trackpoint>
            <Time>2020-02-15T09:39:02.000Z</Time>
            <Position>
              <LatitudeDegrees>41.96680155582726001739501953125</LatitudeDegrees>
              <LongitudeDegrees>2.86891347728669643402099609375</LongitudeDegrees>
            </Position>
            <AltitudeMeters>193.399993896484375</AltitudeMeters>
            <DistanceMeters>15276.655930588</DistanceMeters>
          </Trackpoint>
          <Trackpoint>
            <Time>2020-02-15T09:39:03.000Z</Time>
            <Position>
              <LatitudeDegrees>41.9668187387287616729736328125</LatitudeDegrees>
              <LongitudeDegrees>2.868952453136444091796875</LongitudeDegrees>
            </Position>
            <AltitudeMeters>192.600006103515625</AltitudeMeters>
            <DistanceMeters>15280.406778372</DistanceMeters>
          </Trackpoint>
          <Trackpoint>
            <Time>2020-02-15T09:39:04.000Z</Time>
            <Position>
              <LatitudeDegrees>41.9668214209377765655517578125</LatitudeDegrees>
              <LongitudeDegrees>2.8689744137227535247802734375</LongitudeDegrees>
            </Position>
            <AltitudeMeters>191.600006103515625</AltitudeMeters>
            <DistanceMeters>15282.249414728</DistanceMeters>
          </Trackpoint>
          <Trackpoint>
            <Time>2020-02-15T09:39:05.000Z</Time>
            <Position>
              <LatitudeDegrees>41.96681597270071506500244140625</LatitudeDegrees>
              <LongitudeDegrees>2.8689854778349399566650390625</LongitudeDegrees>
            </Position>
            <AltitudeMeters>190.399993896484375</AltitudeMeters>
            <DistanceMeters>15283.349428475</DistanceMeters>
          </Trackpoint>
          <Trackpoint>
            <Time>2020-02-15T09:39:06.000Z</Time>
            <Position>
              <LatitudeDegrees>41.9668120332062244415283203125</LatitudeDegrees>
              <LongitudeDegrees>2.868992350995540618896484375</LongitudeDegrees>
            </Position>
            <AltitudeMeters>188.8000030517578125</AltitudeMeters>
            <DistanceMeters>15284.060543291</DistanceMeters>
          </Trackpoint>
          <Trackpoint>
            <Time>2020-02-15T09:39:07.000Z</Time>
            <Position>
              <LatitudeDegrees>41.96680222637951374053955078125</LatitudeDegrees>
              <LongitudeDegrees>2.8689955361187458038330078125</LongitudeDegrees>
            </Position>
            <AltitudeMeters>187.1999969482421875</AltitudeMeters>
            <DistanceMeters>15285.184914538</DistanceMeters>
          </Trackpoint>
          <Trackpoint>
            <Time>2020-02-15T09:39:08.000Z</Time>
            <Position>
              <LatitudeDegrees>41.9667796790599822998046875</LatitudeDegrees>
              <LongitudeDegrees>2.86899645812809467315673828125</LongitudeDegrees>
            </Position>
            <AltitudeMeters>185.8000030517578125</AltitudeMeters>
            <DistanceMeters>15287.697288602</DistanceMeters>
          </Trackpoint>
          <Trackpoint>
            <Time>2020-02-15T09:39:09.000Z</Time>
            <Position>
              <LatitudeDegrees>41.96676048450171947479248046875</LatitudeDegrees>
              <LongitudeDegrees>2.86900316365063190460205078125</LongitudeDegrees>
            </Position>
            <AltitudeMeters>185</AltitudeMeters>
            <DistanceMeters>15289.903464298</DistanceMeters>
          </Trackpoint>
          <Trackpoint>
            <Time>2020-02-15T09:39:10.000Z</Time>
            <Position>
              <LatitudeDegrees>41.96673718281090259552001953125</LatitudeDegrees>
              <LongitudeDegrees>2.86900341510772705078125</LongitudeDegrees>
            </Position>
            <AltitudeMeters>184.1999969482421875</AltitudeMeters>
            <DistanceMeters>15292.495447491</DistanceMeters>
          </Trackpoint>
          <Trackpoint>
            <Time>2020-02-15T09:39:11.000Z</Time>
            <Position>
              <LatitudeDegrees>41.96671069599688053131103515625</LatitudeDegrees>
              <LongitudeDegrees>2.86899763159453868865966796875</LongitudeDegrees>
            </Position>
            <AltitudeMeters>183.1999969482421875</AltitudeMeters>
            <DistanceMeters>15295.482371583</DistanceMeters>
          </Trackpoint>
          <Trackpoint>
            <Time>2020-02-15T09:39:12.000Z</Time>
            <Position>
              <LatitudeDegrees>41.9666799344122409820556640625</LatitudeDegrees>
              <LongitudeDegrees>2.86898262798786163330078125</LongitudeDegrees>
            </Position>
            <AltitudeMeters>182.1999969482421875</AltitudeMeters>
            <DistanceMeters>15299.123271502</DistanceMeters>
          </Trackpoint>
          <Trackpoint>
            <Time>2020-02-15T09:39:14.000Z</Time>
            <Position>
              <LatitudeDegrees>41.96661212481558322906494140625</LatitudeDegrees>
              <LongitudeDegrees>2.86893929354846477508544921875</LongitudeDegrees>
            </Position>
            <AltitudeMeters>181.600006103515625</AltitudeMeters>
            <DistanceMeters>15307.47914076</DistanceMeters>
          </Trackpoint>
          <Trackpoint>
            <Time>2020-02-15T09:39:16.000Z</Time>
            <Position>
              <LatitudeDegrees>41.96654607541859149932861328125</LatitudeDegrees>
              <LongitudeDegrees>2.8688905946910381317138671875</LongitudeDegrees>
            </Position>
            <AltitudeMeters>181</AltitudeMeters>
            <DistanceMeters>15315.863060788</DistanceMeters>
          </Trackpoint>
          <Trackpoint>
            <Time>2020-02-15T09:39:17.000Z</Time>
            <Position>
              <LatitudeDegrees>41.96651556529104709625244140625</LatitudeDegrees>
              <LongitudeDegrees>2.86887424997985363006591796875</LongitudeDegrees>
            </Position>
            <AltitudeMeters>180.8000030517578125</AltitudeMeters>
            <DistanceMeters>15319.516340545</DistanceMeters>
          </Trackpoint>
          <Trackpoint>
            <Time>2020-02-15T09:39:18.000Z</Time>
            <Position>
              <LatitudeDegrees>41.96648673154413700103759765625</LatitudeDegrees>
              <LongitudeDegrees>2.86885865963995456695556640625</LongitudeDegrees>
            </Position>
            <AltitudeMeters>180.600006103515625</AltitudeMeters>
            <DistanceMeters>15322.974059622</DistanceMeters>
          </Trackpoint>
          <Trackpoint>
            <Time>2020-02-15T09:39:19.000Z</Time>
            <Position>
              <LatitudeDegrees>41.96645789779722690582275390625</LatitudeDegrees>
              <LongitudeDegrees>2.86883778870105743408203125</LongitudeDegrees>
            </Position>
            <AltitudeMeters>180.600006103515625</AltitudeMeters>
            <DistanceMeters>15326.619916521</DistanceMeters>
          </Trackpoint>
          <Trackpoint>
            <Time>2020-02-15T09:39:20.000Z</Time>
            <Position>
              <LatitudeDegrees>41.9664301536977291107177734375</LatitudeDegrees>
              <LongitudeDegrees>2.86881809122860431671142578125</LongitudeDegrees>
            </Position>
            <AltitudeMeters>180.399993896484375</AltitudeMeters>
            <DistanceMeters>15330.111420953</DistanceMeters>
          </Trackpoint>
          <Trackpoint>
            <Time>2020-02-15T09:39:21.000Z</Time>
            <Position>
              <LatitudeDegrees>41.96640375070273876190185546875</LatitudeDegrees>
              <LongitudeDegrees>2.86879797466099262237548828125</LongitudeDegrees>
            </Position>
            <AltitudeMeters>180.600006103515625</AltitudeMeters>
            <DistanceMeters>15333.489884601</DistanceMeters>
          </Trackpoint>
          <Trackpoint>
            <Time>2020-02-15T09:39:22.000Z</Time>
            <Position>
              <LatitudeDegrees>41.966377682983875274658203125</LatitudeDegrees>
              <LongitudeDegrees>2.8687779419124126434326171875</LongitudeDegrees>
            </Position>
            <AltitudeMeters>180.600006103515625</AltitudeMeters>
            <DistanceMeters>15336.832070198</DistanceMeters>
          </Trackpoint>
          <Trackpoint>
            <Time>2020-02-15T09:39:23.000Z</Time>
            <Position>
              <LatitudeDegrees>41.96634993888437747955322265625</LatitudeDegrees>
              <LongitudeDegrees>2.8687584958970546722412109375</LongitudeDegrees>
            </Position>
            <AltitudeMeters>180.399993896484375</AltitudeMeters>
            <DistanceMeters>15340.31321406</DistanceMeters>
          </Trackpoint>
          <Trackpoint>
            <Time>2020-02-15T09:39:25.000Z</Time>
            <Position>
              <LatitudeDegrees>41.96629428304731845855712890625</LatitudeDegrees>
              <LongitudeDegrees>2.868717424571514129638671875</LongitudeDegrees>
            </Position>
            <AltitudeMeters>180.1999969482421875</AltitudeMeters>
            <DistanceMeters>15347.378499799</DistanceMeters>
          </Trackpoint>
          <Trackpoint>
            <Time>2020-02-15T09:39:28.000Z</Time>
            <Position>
              <LatitudeDegrees>41.96619906462728977203369140625</LatitudeDegrees>
              <LongitudeDegrees>2.86864140070974826812744140625</LongitudeDegrees>
            </Position>
            <AltitudeMeters>179.600006103515625</AltitudeMeters>
            <DistanceMeters>15359.703431683</DistanceMeters>
          </Trackpoint>
          <Trackpoint>
            <Time>2020-02-15T09:39:29.000Z</Time>
            <Position>
              <LatitudeDegrees>41.96616218425333499908447265625</LatitudeDegrees>
              <LongitudeDegrees>2.8686193563044071197509765625</LongitudeDegrees>
            </Position>
            <AltitudeMeters>179.600006103515625</AltitudeMeters>
            <DistanceMeters>15364.196899267</DistanceMeters>
          </Trackpoint>
          <Trackpoint>
            <Time>2020-02-15T09:39:30.000Z</Time>
            <Position>
              <LatitudeDegrees>41.9661263935267925262451171875</LatitudeDegrees>
              <LongitudeDegrees>2.86859764717519283294677734375</LongitudeDegrees>
            </Position>
            <AltitudeMeters>179.399993896484375</AltitudeMeters>
            <DistanceMeters>15368.567095107</DistanceMeters>
          </Trackpoint>
          <Trackpoint>
            <Time>2020-02-15T09:39:33.000Z</Time>
            <Position>
              <LatitudeDegrees>41.96600745432078838348388671875</LatitudeDegrees>
              <LongitudeDegrees>2.86855339072644710540771484375</LongitudeDegrees>
            </Position>
            <AltitudeMeters>179</AltitudeMeters>
            <DistanceMeters>15382.302647049</DistanceMeters>
          </Trackpoint>
          <Trackpoint>
            <Time>2020-02-15T09:39:34.000Z</Time>
            <Position>
              <LatitudeDegrees>41.965971998870372772216796875</LatitudeDegrees>
              <LongitudeDegrees>2.86853914149105548858642578125</LongitudeDegrees>
            </Position>
            <AltitudeMeters>179</AltitudeMeters>
            <DistanceMeters>15386.420714989</DistanceMeters>
          </Trackpoint>
          <Trackpoint>
            <Time>2020-02-15T09:39:35.000Z</Time>
            <Position>
              <LatitudeDegrees>41.96592430584132671356201171875</LatitudeDegrees>
              <LongitudeDegrees>2.86853461526334285736083984375</LongitudeDegrees>
            </Position>
            <AltitudeMeters>179</AltitudeMeters>
            <DistanceMeters>15391.741362473</DistanceMeters>
          </Trackpoint>
          <Trackpoint>
            <Time>2020-02-15T09:39:36.000Z</Time>
            <Position>
              <LatitudeDegrees>41.965880803763866424560546875</LatitudeDegrees>
              <LongitudeDegrees>2.86852472461760044097900390625</LongitudeDegrees>
            </Position>
            <AltitudeMeters>179</AltitudeMeters>
            <DistanceMeters>15396.651586919</DistanceMeters>
          </Trackpoint>
          <Trackpoint>
            <Time>2020-02-15T09:39:38.000Z</Time>
            <Position>
              <LatitudeDegrees>41.96580125950276851654052734375</LatitudeDegrees>
              <LongitudeDegrees>2.868506871163845062255859375</LongitudeDegrees>
            </Position>
            <AltitudeMeters>178.600006103515625</AltitudeMeters>
            <DistanceMeters>15405.627462477</DistanceMeters>
          </Trackpoint>
          <Trackpoint>
            <Time>2020-02-15T09:39:39.000Z</Time>
            <Position>
              <LatitudeDegrees>41.96576253511011600494384765625</LatitudeDegrees>
              <LongitudeDegrees>2.86849186755716800689697265625</LongitudeDegrees>
            </Position>
            <AltitudeMeters>178.600006103515625</AltitudeMeters>
            <DistanceMeters>15410.112884454</DistanceMeters>
          </Trackpoint>
          <Trackpoint>
            <Time>2020-02-15T09:39:40.000Z</Time>
            <Position>
              <LatitudeDegrees>41.96571861393749713897705078125</LatitudeDegrees>
              <LongitudeDegrees>2.86847300827503204345703125</LongitudeDegrees>
            </Position>
            <AltitudeMeters>178.1999969482421875</AltitudeMeters>
            <DistanceMeters>15415.24432703</DistanceMeters>
          </Trackpoint>
          <Trackpoint>
            <Time>2020-02-15T09:39:45.000Z</Time>
            <Position>
              <LatitudeDegrees>41.96549967862665653228759765625</LatitudeDegrees>
              <LongitudeDegrees>2.86838977597653865814208984375</LongitudeDegrees>
            </Position>
            <AltitudeMeters>177.1999969482421875</AltitudeMeters>
            <DistanceMeters>15440.567118907</DistanceMeters>
          </Trackpoint>
          <Trackpoint>
            <Time>2020-02-15T09:39:46.000Z</Time>
            <Position>
              <LatitudeDegrees>41.96545508690178394317626953125</LatitudeDegrees>
              <LongitudeDegrees>2.86837854422628879547119140625</LongitudeDegrees>
            </Position>
            <AltitudeMeters>177</AltitudeMeters>
            <DistanceMeters>15445.616069868</DistanceMeters>
          </Trackpoint>
          <Trackpoint>
            <Time>2020-02-15T09:39:47.000Z</Time>
            <Position>
              <LatitudeDegrees>41.9654063880443572998046875</LatitudeDegrees>
              <LongitudeDegrees>2.8683746047317981719970703125</LongitudeDegrees>
            </Position>
            <AltitudeMeters>176.399993896484375</AltitudeMeters>
            <DistanceMeters>15451.045081704</DistanceMeters>
          </Trackpoint>
          <Trackpoint>
            <Time>2020-02-15T09:39:48.000Z</Time>
            <Position>
              <LatitudeDegrees>41.96536011993885040283203125</LatitudeDegrees>
              <LongitudeDegrees>2.86838172934949398040771484375</LongitudeDegrees>
            </Position>
            <AltitudeMeters>176.399993896484375</AltitudeMeters>
            <DistanceMeters>15456.22904809</DistanceMeters>
          </Trackpoint>
          <Trackpoint>
            <Time>2020-02-15T09:39:50.000Z</Time>
            <Position>
              <LatitudeDegrees>41.96526666171848773956298828125</LatitudeDegrees>
              <LongitudeDegrees>2.86841341294348239898681640625</LongitudeDegrees>
            </Position>
            <AltitudeMeters>176.1999969482421875</AltitudeMeters>
            <DistanceMeters>15466.956549859</DistanceMeters>
          </Trackpoint>
          <Trackpoint>
            <Time>2020-02-15T09:39:51.000Z</Time>
            <Position>
              <LatitudeDegrees>41.9652211479842662811279296875</LatitudeDegrees>
              <LongitudeDegrees>2.86844082176685333251953125</LongitudeDegrees>
            </Position>
            <AltitudeMeters>176</AltitudeMeters>
            <DistanceMeters>15472.507281417</DistanceMeters>
          </Trackpoint>
          <Trackpoint>
            <Time>2020-02-15T09:39:52.000Z</Time>
            <Position>
              <LatitudeDegrees>41.96518032811582088470458984375</LatitudeDegrees>
              <LongitudeDegrees>2.86847610957920551300048828125</LongitudeDegrees>
            </Position>
            <AltitudeMeters>176</AltitudeMeters>
            <DistanceMeters>15477.907107047</DistanceMeters>
          </Trackpoint>
          <Trackpoint>
            <Time>2020-02-15T09:39:53.000Z</Time>
            <Position>
              <LatitudeDegrees>41.96514956653118133544921875</LatitudeDegrees>
              <LongitudeDegrees>2.86851458251476287841796875</LongitudeDegrees>
            </Position>
            <AltitudeMeters>175.8000030517578125</AltitudeMeters>
            <DistanceMeters>15482.581803293</DistanceMeters>
          </Trackpoint>
          <Trackpoint>
            <Time>2020-02-15T09:39:54.000Z</Time>
            <Position>
              <LatitudeDegrees>41.96512986905872821807861328125</LatitudeDegrees>
              <LongitudeDegrees>2.8685586713254451751708984375</LongitudeDegrees>
            </Position>
            <AltitudeMeters>175.600006103515625</AltitudeMeters>
            <DistanceMeters>15486.840018119</DistanceMeters>
          </Trackpoint>
          <Trackpoint>
            <Time>2020-02-15T09:39:55.000Z</Time>
            <Position>
              <LatitudeDegrees>41.96512215770781040191650390625</LatitudeDegrees>
              <LongitudeDegrees>2.868600748479366302490234375</LongitudeDegrees>
            </Position>
            <AltitudeMeters>175.399993896484375</AltitudeMeters>
            <DistanceMeters>15490.427197921</DistanceMeters>
          </Trackpoint>
          <Trackpoint>
            <Time>2020-02-15T09:39:56.000Z</Time>
            <Position>
              <LatitudeDegrees>41.96512601338326930999755859375</LatitudeDegrees>
              <LongitudeDegrees>2.86863603629171848297119140625</LongitudeDegrees>
            </Position>
            <AltitudeMeters>175.399993896484375</AltitudeMeters>
            <DistanceMeters>15493.37762055</DistanceMeters>
          </Trackpoint>
          <Trackpoint>
            <Time>2020-02-15T09:39:57.000Z</Time>
            <Position>
              <LatitudeDegrees>41.96513749659061431884765625</LatitudeDegrees>
              <LongitudeDegrees>2.86866218782961368560791015625</LongitudeDegrees>
            </Position>
            <AltitudeMeters>175.1999969482421875</AltitudeMeters>
            <DistanceMeters>15495.891791092</DistanceMeters>
          </Trackpoint>
          <Trackpoint>
            <Time>2020-02-15T09:39:58.000Z</Time>
            <Position>
              <LatitudeDegrees>41.96515384130179882049560546875</LatitudeDegrees>
              <LongitudeDegrees>2.86868331022560596466064453125</LongitudeDegrees>
            </Position>
            <AltitudeMeters>174.8000030517578125</AltitudeMeters>
            <DistanceMeters>15498.413134745</DistanceMeters>
          </Trackpoint>
          <Trackpoint>
            <Time>2020-02-15T09:39:59.000Z</Time>
            <Position>
              <LatitudeDegrees>41.96517379023134708404541015625</LatitudeDegrees>
              <LongitudeDegrees>2.86870208568871021270751953125</LongitudeDegrees>
            </Position>
            <AltitudeMeters>174.8000030517578125</AltitudeMeters>
            <DistanceMeters>15501.124312021</DistanceMeters>
          </Trackpoint>
          <Trackpoint>
            <Time>2020-02-15T09:40:00.000Z</Time>
            <Position>
              <LatitudeDegrees>41.9651943258941173553466796875</LatitudeDegrees>
              <LongitudeDegrees>2.86872647702693939208984375</LongitudeDegrees>
            </Position>
            <AltitudeMeters>174</AltitudeMeters>
            <DistanceMeters>15504.174062624</DistanceMeters>
          </Trackpoint>
          <Trackpoint>
            <Time>2020-02-15T09:40:01.000Z</Time>
            <Position>
              <LatitudeDegrees>41.96521536447107791900634765625</LatitudeDegrees>
              <LongitudeDegrees>2.86874567158520221710205078125</LongitudeDegrees>
            </Position>
            <AltitudeMeters>173.600006103515625</AltitudeMeters>
            <DistanceMeters>15507.004200042</DistanceMeters>
          </Trackpoint>
          <Trackpoint>
            <Time>2020-02-15T09:40:02.000Z</Time>
            <Position>
              <LatitudeDegrees>41.96523799560964107513427734375</LatitudeDegrees>
              <LongitudeDegrees>2.868757657706737518310546875</LongitudeDegrees>
            </Position>
            <AltitudeMeters>173.399993896484375</AltitudeMeters>
            <DistanceMeters>15509.712044586</DistanceMeters>
          </Trackpoint>
          <Trackpoint>
            <Time>2020-02-15T09:40:04.000Z</Time>
            <Position>
              <LatitudeDegrees>41.96528443135321140289306640625</LatitudeDegrees>
              <LongitudeDegrees>2.8687802888453006744384765625</LongitudeDegrees>
            </Position>
            <AltitudeMeters>173</AltitudeMeters>
            <DistanceMeters>15515.209650051</DistanceMeters>
          </Trackpoint>
          <Trackpoint>
            <Time>2020-02-15T09:40:05.000Z</Time>
            <Position>
              <LatitudeDegrees>41.96530404500663280487060546875</LatitudeDegrees>
              <LongitudeDegrees>2.8687920235097408294677734375</LongitudeDegrees>
            </Position>
            <AltitudeMeters>173</AltitudeMeters>
            <DistanceMeters>15517.598584607</DistanceMeters>
          </Trackpoint>
          <Trackpoint>
            <Time>2020-02-15T09:40:06.000Z</Time>
            <Position>
              <LatitudeDegrees>41.96532349102199077606201171875</LatitudeDegrees>
              <LongitudeDegrees>2.86880501545965671539306640625</LongitudeDegrees>
            </Position>
            <AltitudeMeters>172.8000030517578125</AltitudeMeters>
            <DistanceMeters>15520.015702614</DistanceMeters>
          </Trackpoint>
          <Trackpoint>
            <Time>2020-02-15T09:40:07.000Z</Time>
            <Position>
              <LatitudeDegrees>41.96534134447574615478515625</LatitudeDegrees>
              <LongitudeDegrees>2.8688185103237628936767578125</LongitudeDegrees>
            </Position>
            <AltitudeMeters>172.8000030517578125</AltitudeMeters>
            <DistanceMeters>15522.29238087</DistanceMeters>
          </Trackpoint>
          <Trackpoint>
            <Time>2020-02-15T09:40:08.000Z</Time>
            <Position>
              <LatitudeDegrees>41.96535869501531124114990234375</LatitudeDegrees>
              <LongitudeDegrees>2.868834771215915679931640625</LongitudeDegrees>
            </Position>
            <AltitudeMeters>172.600006103515625</AltitudeMeters>
            <DistanceMeters>15524.647050047</DistanceMeters>
          </Trackpoint>
          <Trackpoint>
            <Time>2020-02-15T09:40:09.000Z</Time>
            <Position>
              <LatitudeDegrees>41.9653770513832569122314453125</LatitudeDegrees>
              <LongitudeDegrees>2.86885295994579792022705078125</LongitudeDegrees>
            </Position>
            <AltitudeMeters>172.8000030517578125</AltitudeMeters>
            <DistanceMeters>15527.186237827</DistanceMeters>
          </Trackpoint>
          <Trackpoint>
            <Time>2020-02-15T09:40:10.000Z</Time>
            <Position>
              <LatitudeDegrees>41.96539658121764659881591796875</LatitudeDegrees>
              <LongitudeDegrees>2.8688728250563144683837890625</LongitudeDegrees>
            </Position>
            <AltitudeMeters>172.8000030517578125</AltitudeMeters>
            <DistanceMeters>15529.914017692</DistanceMeters>
          </Trackpoint>
          <Trackpoint>
            <Time>2020-02-15T09:40:11.000Z</Time>
            <Position>
              <LatitudeDegrees>41.965415775775909423828125</LatitudeDegrees>
              <LongitudeDegrees>2.86889554001390933990478515625</LongitudeDegrees>
            </Position>
            <AltitudeMeters>172.8000030517578125</AltitudeMeters>
            <DistanceMeters>15532.758476954</DistanceMeters>
          </Trackpoint>
          <Trackpoint>
            <Time>2020-02-15T09:40:12.000Z</Time>
            <Position>
              <LatitudeDegrees>41.9654370658099651336669921875</LatitudeDegrees>
              <LongitudeDegrees>2.8689227811992168426513671875</LongitudeDegrees>
            </Position>
            <AltitudeMeters>172.8000030517578125</AltitudeMeters>
            <DistanceMeters>15536.028279778</DistanceMeters>
          </Trackpoint>
          <Trackpoint>
            <Time>2020-02-15T09:40:16.000Z</Time>
            <Position>
              <LatitudeDegrees>41.96552951820194721221923828125</LatitudeDegrees>
              <LongitudeDegrees>2.869040630757808685302734375</LongitudeDegrees>
            </Position>
            <AltitudeMeters>173</AltitudeMeters>
            <DistanceMeters>15550.20606175</DistanceMeters>
          </Trackpoint>
          <Trackpoint>
            <Time>2020-02-15T09:40:17.000Z</Time>
            <Position>
              <LatitudeDegrees>41.96554812602698802947998046875</LatitudeDegrees>
              <LongitudeDegrees>2.8690699674189090728759765625</LongitudeDegrees>
            </Position>
            <AltitudeMeters>173.1999969482421875</AltitudeMeters>
            <DistanceMeters>15553.39760154</DistanceMeters>
          </Trackpoint>
          <Trackpoint>
            <Time>2020-02-15T09:40:18.000Z</Time>
            <Position>
              <LatitudeDegrees>41.96556623093783855438232421875</LatitudeDegrees>
              <LongitudeDegrees>2.86909838207066059112548828125</LongitudeDegrees>
            </Position>
            <AltitudeMeters>173.1999969482421875</AltitudeMeters>
            <DistanceMeters>15556.494364557</DistanceMeters>
          </Trackpoint>
          <Trackpoint>
            <Time>2020-02-15T09:40:19.000Z</Time>
            <Position>
              <LatitudeDegrees>41.96558701805770397186279296875</LatitudeDegrees>
              <LongitudeDegrees>2.8691219352185726165771484375</LongitudeDegrees>
            </Position>
            <AltitudeMeters>173.1999969482421875</AltitudeMeters>
            <DistanceMeters>15559.518842601</DistanceMeters>
          </Trackpoint>
          <Trackpoint>
            <Time>2020-02-15T09:40:20.000Z</Time>
            <Position>
              <LatitudeDegrees>41.96560612879693508148193359375</LatitudeDegrees>
              <LongitudeDegrees>2.86914414726197719573974609375</LongitudeDegrees>
            </Position>
            <AltitudeMeters>173.399993896484375</AltitudeMeters>
            <DistanceMeters>15562.328164015</DistanceMeters>
          </Trackpoint>
          <Trackpoint>
            <Time>2020-02-15T09:40:21.000Z</Time>
            <Position>
              <LatitudeDegrees>41.9656248204410076141357421875</LatitudeDegrees>
              <LongitudeDegrees>2.86916594021022319793701171875</LongitudeDegrees>
            </Position>
            <AltitudeMeters>173.1999969482421875</AltitudeMeters>
            <DistanceMeters>15565.079019166</DistanceMeters>
          </Trackpoint>
          <Trackpoint>
            <Time>2020-02-15T09:40:22.000Z</Time>
            <Position>
              <LatitudeDegrees>41.965644098818302154541015625</LatitudeDegrees>
              <LongitudeDegrees>2.86918647587299346923828125</LongitudeDegrees>
            </Position>
            <AltitudeMeters>173.399993896484375</AltitudeMeters>
            <DistanceMeters>15567.816712255</DistanceMeters>
          </Trackpoint>
          <Trackpoint>
            <Time>2020-02-15T09:40:23.000Z</Time>
            <Position>
              <LatitudeDegrees>41.965664885938167572021484375</LatitudeDegrees>
              <LongitudeDegrees>2.86920600570738315582275390625</LongitudeDegrees>
            </Position>
            <AltitudeMeters>173.399993896484375</AltitudeMeters>
            <DistanceMeters>15570.638861688</DistanceMeters>
          </Trackpoint>
          <Trackpoint>
            <Time>2020-02-15T09:40:27.000Z</Time>
            <Position>
              <LatitudeDegrees>41.965764798223972320556640625</LatitudeDegrees>
              <LongitudeDegrees>2.8693105280399322509765625</LongitudeDegrees>
            </Position>
            <AltitudeMeters>173.399993896484375</AltitudeMeters>
            <DistanceMeters>15584.727193039</DistanceMeters>
          </Trackpoint>
          <Trackpoint>
            <Time>2020-02-15T09:40:28.000Z</Time>
            <Position>
              <LatitudeDegrees>41.965785585343837738037109375</LatitudeDegrees>
              <LongitudeDegrees>2.86934447474777698516845703125</LongitudeDegrees>
            </Position>
            <AltitudeMeters>173.399993896484375</AltitudeMeters>
            <DistanceMeters>15588.365611935</DistanceMeters>
          </Trackpoint>
          <Trackpoint>
            <Time>2020-02-15T09:40:29.000Z</Time>
            <Position>
              <LatitudeDegrees>41.96580360643565654754638671875</LatitudeDegrees>
              <LongitudeDegrees>2.86938202567398548126220703125</LongitudeDegrees>
            </Position>
            <AltitudeMeters>173.399993896484375</AltitudeMeters>
            <DistanceMeters>15592.063115922</DistanceMeters>
          </Trackpoint>
          <Trackpoint>
            <Time>2020-02-15T09:40:30.000Z</Time>
            <Position>
              <LatitudeDegrees>41.96581718511879444122314453125</LatitudeDegrees>
              <LongitudeDegrees>2.86941907368600368499755859375</LongitudeDegrees>
            </Position>
            <AltitudeMeters>173.399993896484375</AltitudeMeters>
            <DistanceMeters>15595.48143699</DistanceMeters>
          </Trackpoint>
          <Trackpoint>
            <Time>2020-02-15T09:40:31.000Z</Time>
            <Position>
              <LatitudeDegrees>41.96582824923098087310791015625</LatitudeDegrees>
              <LongitudeDegrees>2.869455032050609588623046875</LongitudeDegrees>
            </Position>
            <AltitudeMeters>173.600006103515625</AltitudeMeters>
            <DistanceMeters>15598.702548263</DistanceMeters>
          </Trackpoint>
          <Trackpoint>
            <Time>2020-02-15T09:40:33.000Z</Time>
            <Position>
              <LatitudeDegrees>41.965850293636322021484375</LatitudeDegrees>
              <LongitudeDegrees>2.86953658796846866607666015625</LongitudeDegrees>
            </Position>
            <AltitudeMeters>173.600006103515625</AltitudeMeters>
            <DistanceMeters>15605.883827158</DistanceMeters>
          </Trackpoint>
          <Trackpoint>
            <Time>2020-02-15T09:40:34.000Z</Time>
            <Position>
              <LatitudeDegrees>41.96586311794817447662353515625</LatitudeDegrees>
              <LongitudeDegrees>2.86957480944693088531494140625</LongitudeDegrees>
            </Position>
            <AltitudeMeters>173.600006103515625</AltitudeMeters>
            <DistanceMeters>15609.354579523</DistanceMeters>
          </Trackpoint>
          <Trackpoint>
            <Time>2020-02-15T09:40:35.000Z</Time>
            <Position>
              <LatitudeDegrees>41.965873427689075469970703125</LatitudeDegrees>
              <LongitudeDegrees>2.86961185745894908905029296875</LongitudeDegrees>
            </Position>
            <AltitudeMeters>173.600006103515625</AltitudeMeters>
            <DistanceMeters>15612.627142839</DistanceMeters>
          </Trackpoint>
          <Trackpoint>
            <Time>2020-02-15T09:40:36.000Z</Time>
            <Position>
              <LatitudeDegrees>41.96588474325835704803466796875</LatitudeDegrees>
              <LongitudeDegrees>2.8696493245661258697509765625</LongitudeDegrees>
            </Position>
            <AltitudeMeters>173.8000030517578125</AltitudeMeters>
            <DistanceMeters>15615.973378753</DistanceMeters>
          </Trackpoint>
          <Trackpoint>
            <Time>2020-02-15T09:40:39.000Z</Time>
            <Position>
              <LatitudeDegrees>41.9659171812236309051513671875</LatitudeDegrees>
              <LongitudeDegrees>2.869765497744083404541015625</LongitudeDegrees>
            </Position>
            <AltitudeMeters>173.8000030517578125</AltitudeMeters>
            <DistanceMeters>15626.243300509</DistanceMeters>
          </Trackpoint>
          <Trackpoint>
            <Time>2020-02-15T09:40:41.000Z</Time>
            <Position>
              <LatitudeDegrees>41.96593805216252803802490234375</LatitudeDegrees>
              <LongitudeDegrees>2.86984219215810298919677734375</LongitudeDegrees>
            </Position>
            <AltitudeMeters>173.8000030517578125</AltitudeMeters>
            <DistanceMeters>15633.001564091</DistanceMeters>
          </Trackpoint>
          <Trackpoint>
            <Time>2020-02-15T09:40:42.000Z</Time>
            <Position>
              <LatitudeDegrees>41.965949535369873046875</LatitudeDegrees>
              <LongitudeDegrees>2.86987781524658203125</LongitudeDegrees>
            </Position>
            <AltitudeMeters>173.8000030517578125</AltitudeMeters>
            <DistanceMeters>15636.215659213</DistanceMeters>
          </Trackpoint>
          <Trackpoint>
            <Time>2020-02-15T09:40:44.000Z</Time>
            <Position>
              <LatitudeDegrees>41.96597023867070674896240234375</LatitudeDegrees>
              <LongitudeDegrees>2.869950234889984130859375</LongitudeDegrees>
            </Position>
            <AltitudeMeters>174</AltitudeMeters>
            <DistanceMeters>15642.636821806</DistanceMeters>
          </Trackpoint>
          <Trackpoint>
            <Time>2020-02-15T09:40:45.000Z</Time>
            <Position>
              <LatitudeDegrees>41.96597962640225887298583984375</LatitudeDegrees>
              <LongitudeDegrees>2.8699852712452411651611328125</LongitudeDegrees>
            </Position>
            <AltitudeMeters>174.1999969482421875</AltitudeMeters>
            <DistanceMeters>15645.718970475</DistanceMeters>
          </Trackpoint>
          <Trackpoint>
            <Time>2020-02-15T09:40:46.000Z</Time>
            <Position>
              <LatitudeDegrees>41.965989433228969573974609375</LatitudeDegrees>
              <LongitudeDegrees>2.870018966495990753173828125</LongitudeDegrees>
            </Position>
            <AltitudeMeters>174</AltitudeMeters>
            <DistanceMeters>15648.714950446</DistanceMeters>
          </Trackpoint>
          <Trackpoint>
            <Time>2020-02-15T09:40:47.000Z</Time>
            <Position>
              <LatitudeDegrees>41.96599907241761684417724609375</LatitudeDegrees>
              <LongitudeDegrees>2.87005324847996234893798828125</LongitudeDegrees>
            </Position>
            <AltitudeMeters>174.1999969482421875</AltitudeMeters>
            <DistanceMeters>15651.746883463</DistanceMeters>
          </Trackpoint>
          <Trackpoint>
            <Time>2020-02-15T09:40:49.000Z</Time>
            <Position>
              <LatitudeDegrees>41.96601633913815021514892578125</LatitudeDegrees>
              <LongitudeDegrees>2.870126254856586456298828125</LongitudeDegrees>
            </Position>
            <AltitudeMeters>174.1999969482421875</AltitudeMeters>
            <DistanceMeters>15658.085955964</DistanceMeters>
          </Trackpoint>
          <Trackpoint>
            <Time>2020-02-15T09:40:50.000Z</Time>
            <Position>
              <LatitudeDegrees>41.9660231284797191619873046875</LatitudeDegrees>
              <LongitudeDegrees>2.8701612912118434906005859375</LongitudeDegrees>
            </Position>
            <AltitudeMeters>174.1999969482421875</AltitudeMeters>
            <DistanceMeters>15661.083442588</DistanceMeters>
          </Trackpoint>
          <Trackpoint>
            <Time>2020-02-15T09:40:51.000Z</Time>
            <Position>
              <LatitudeDegrees>41.96602874435484409332275390625</LatitudeDegrees>
              <LongitudeDegrees>2.87019431591033935546875</LongitudeDegrees>
            </Position>
            <AltitudeMeters>174.399993896484375</AltitudeMeters>
            <DistanceMeters>15663.887938369</DistanceMeters>
          </Trackpoint>
          <Trackpoint>
            <Time>2020-02-15T09:40:52.000Z</Time>
            <Position>
              <LatitudeDegrees>41.9660338573157787322998046875</LatitudeDegrees>
              <LongitudeDegrees>2.87022985517978668212890625</LongitudeDegrees>
            </Position>
            <AltitudeMeters>174.1999969482421875</AltitudeMeters>
            <DistanceMeters>15666.88391834</DistanceMeters>
          </Trackpoint>
          <Trackpoint>
            <Time>2020-02-15T09:40:53.000Z</Time>
            <Position>
              <LatitudeDegrees>41.966041736304759979248046875</LatitudeDegrees>
              <LongitudeDegrees>2.8702665679156780242919921875</LongitudeDegrees>
            </Position>
            <AltitudeMeters>174.1999969482421875</AltitudeMeters>
            <DistanceMeters>15670.047037797</DistanceMeters>
          </Trackpoint>
          <Trackpoint>
            <Time>2020-02-15T09:40:54.000Z</Time>
            <Position>
              <LatitudeDegrees>41.966048441827297210693359375</LatitudeDegrees>
              <LongitudeDegrees>2.87030386738479137420654296875</LongitudeDegrees>
            </Position>
            <AltitudeMeters>174.1999969482421875</AltitudeMeters>
            <DistanceMeters>15673.221555919</DistanceMeters>
          </Trackpoint>
          <Trackpoint>
            <Time>2020-02-15T09:40:59.000Z</Time>
            <Position>
              <LatitudeDegrees>41.9660764373838901519775390625</LatitudeDegrees>
              <LongitudeDegrees>2.8705066256225109100341796875</LongitudeDegrees>
            </Position>
            <AltitudeMeters>174.600006103515625</AltitudeMeters>
            <DistanceMeters>15690.288046938</DistanceMeters>
          </Trackpoint>
          <Trackpoint>
            <Time>2020-02-15T09:41:00.000Z</Time>
            <Position>
              <LatitudeDegrees>41.96608364582061767578125</LatitudeDegrees>
              <LongitudeDegrees>2.87054442800581455230712890625</LongitudeDegrees>
            </Position>
            <AltitudeMeters>174.600006103515625</AltitudeMeters>
            <DistanceMeters>15693.518955227</DistanceMeters>
          </Trackpoint>
          <Trackpoint>
            <Time>2020-02-15T09:41:01.000Z</Time>
            <Position>
              <LatitudeDegrees>41.96609395556151866912841796875</LatitudeDegrees>
              <LongitudeDegrees>2.87058214657008647918701171875</LongitudeDegrees>
            </Position>
            <AltitudeMeters>175</AltitudeMeters>
            <DistanceMeters>15696.84489023</DistanceMeters>
          </Trackpoint>
          <Trackpoint>
            <Time>2020-02-15T09:41:02.000Z</Time>
            <Position>
              <LatitudeDegrees>41.96610300801694393157958984375</LatitudeDegrees>
              <LongitudeDegrees>2.870616428554058074951171875</LongitudeDegrees>
            </Position>
            <AltitudeMeters>174.8000030517578125</AltitudeMeters>
            <DistanceMeters>15699.855902809</DistanceMeters>
          </Trackpoint>
          <Trackpoint>
            <Time>2020-02-15T09:41:03.000Z</Time>
            <Position>
              <LatitudeDegrees>41.966114155948162078857421875</LatitudeDegrees>
              <LongitudeDegrees>2.87065071053802967071533203125</LongitudeDegrees>
            </Position>
            <AltitudeMeters>175</AltitudeMeters>
            <DistanceMeters>15702.952665826</DistanceMeters>
          </Trackpoint>
          <Trackpoint>
            <Time>2020-02-15T09:41:05.000Z</Time>
            <Position>
              <LatitudeDegrees>41.966140978038311004638671875</LatitudeDegrees>
              <LongitudeDegrees>2.87072028033435344696044921875</LongitudeDegrees>
            </Position>
            <AltitudeMeters>175.1999969482421875</AltitudeMeters>
            <DistanceMeters>15709.438195571</DistanceMeters>
          </Trackpoint>
          <Trackpoint>
            <Time>2020-02-15T09:41:06.000Z</Time>
            <Position>
              <LatitudeDegrees>41.9661558978259563446044921875</LatitudeDegrees>
              <LongitudeDegrees>2.8707530535757541656494140625</LongitudeDegrees>
            </Position>
            <AltitudeMeters>175.1999969482421875</AltitudeMeters>
            <DistanceMeters>15712.618397706</DistanceMeters>
          </Trackpoint>
          <Trackpoint>
            <Time>2020-02-15T09:41:07.000Z</Time>
            <Position>
              <LatitudeDegrees>41.96617190726101398468017578125</LatitudeDegrees>
              <LongitudeDegrees>2.870784066617488861083984375</LongitudeDegrees>
            </Position>
            <AltitudeMeters>175.1999969482421875</AltitudeMeters>
            <DistanceMeters>15715.742739658</DistanceMeters>
          </Trackpoint>
          <Trackpoint>
            <Time>2020-02-15T09:41:08.000Z</Time>
            <Position>
              <LatitudeDegrees>41.96618632413446903228759765625</LatitudeDegrees>
              <LongitudeDegrees>2.870812900364398956298828125</LongitudeDegrees>
            </Position>
            <AltitudeMeters>175.399993896484375</AltitudeMeters>
            <DistanceMeters>15718.618769912</DistanceMeters>
          </Trackpoint>
          <Trackpoint>
            <Time>2020-02-15T09:41:09.000Z</Time>
            <Position>
              <LatitudeDegrees>41.96620258502662181854248046875</LatitudeDegrees>
              <LongitudeDegrees>2.87084315903484821319580078125</LongitudeDegrees>
            </Position>
            <AltitudeMeters>175.399993896484375</AltitudeMeters>
            <DistanceMeters>15721.70677262</DistanceMeters>
          </Trackpoint>
          <Trackpoint>
            <Time>2020-02-15T09:41:10.000Z</Time>
            <Position>
              <LatitudeDegrees>41.96622035466134548187255859375</LatitudeDegrees>
              <LongitudeDegrees>2.87087316624820232391357421875</LongitudeDegrees>
            </Position>
            <AltitudeMeters>175.399993896484375</AltitudeMeters>
            <DistanceMeters>15724.8827127</DistanceMeters>
          </Trackpoint>
          <Trackpoint>
            <Time>2020-02-15T09:41:11.000Z</Time>
            <Position>
              <LatitudeDegrees>41.9662370346486568450927734375</LatitudeDegrees>
              <LongitudeDegrees>2.870900072157382965087890625</LongitudeDegrees>
            </Position>
            <AltitudeMeters>175.600006103515625</AltitudeMeters>
            <DistanceMeters>15727.782195614</DistanceMeters>
          </Trackpoint>
          <Trackpoint>
            <Time>2020-02-15T09:41:12.000Z</Time>
            <Position>
              <LatitudeDegrees>41.96625170297920703887939453125</LatitudeDegrees>
              <LongitudeDegrees>2.8709243796765804290771484375</LongitudeDegrees>
            </Position>
            <AltitudeMeters>175.399993896484375</AltitudeMeters>
            <DistanceMeters>15730.372436297</DistanceMeters>
          </Trackpoint>
          <Trackpoint>
            <Time>2020-02-15T09:41:13.000Z</Time>
            <Position>
              <LatitudeDegrees>41.96626880206167697906494140625</LatitudeDegrees>
              <LongitudeDegrees>2.87094734609127044677734375</LongitudeDegrees>
            </Position>
            <AltitudeMeters>175.399993896484375</AltitudeMeters>
            <DistanceMeters>15733.063555267</DistanceMeters>
          </Trackpoint>
          <Trackpoint>
            <Time>2020-02-15T09:41:14.000Z</Time>
            <Position>
              <LatitudeDegrees>41.96628891862928867340087890625</LatitudeDegrees>
              <LongitudeDegrees>2.8709696419537067413330078125</LongitudeDegrees>
            </Position>
            <AltitudeMeters>175.600006103515625</AltitudeMeters>
            <DistanceMeters>15735.96459495</DistanceMeters>
          </Trackpoint>
          <Trackpoint>
            <Time>2020-02-15T09:41:15.000Z</Time>
            <Position>
              <LatitudeDegrees>41.96630937047302722930908203125</LatitudeDegrees>
              <LongitudeDegrees>2.8709964640438556671142578125</LongitudeDegrees>
            </Position>
            <AltitudeMeters>175.8000030517578125</AltitudeMeters>
            <DistanceMeters>15739.144797085</DistanceMeters>
          </Trackpoint>
          <Trackpoint>
            <Time>2020-02-15T09:41:20.000Z</Time>
            <Position>
              <LatitudeDegrees>41.9664309918880462646484375</LatitudeDegrees>
              <LongitudeDegrees>2.87115345709025859832763671875</LongitudeDegrees>
            </Position>
            <AltitudeMeters>176.399993896484375</AltitudeMeters>
            <DistanceMeters>15757.907700918</DistanceMeters>
          </Trackpoint>
          <Trackpoint>
            <Time>2020-02-15T09:41:21.000Z</Time>
            <Position>
              <LatitudeDegrees>41.9664537906646728515625</LatitudeDegrees>
              <LongitudeDegrees>2.87118195556104183197021484375</LongitudeDegrees>
            </Position>
            <AltitudeMeters>176.399993896484375</AltitudeMeters>
            <DistanceMeters>15761.373245849</DistanceMeters>
          </Trackpoint>
          <Trackpoint>
            <Time>2020-02-15T09:41:22.000Z</Time>
            <Position>
              <LatitudeDegrees>41.9664757512509822845458984375</LatitudeDegrees>
              <LongitudeDegrees>2.871209867298603057861328125</LongitudeDegrees>
            </Position>
            <AltitudeMeters>176.399993896484375</AltitudeMeters>
            <DistanceMeters>15764.735634242</DistanceMeters>
          </Trackpoint>
          <Trackpoint>
            <Time>2020-02-15T09:41:23.000Z</Time>
            <Position>
              <LatitudeDegrees>41.96649712510406970977783203125</LatitudeDegrees>
              <LongitudeDegrees>2.87123777903616428375244140625</LongitudeDegrees>
            </Position>
            <AltitudeMeters>176.600006103515625</AltitudeMeters>
            <DistanceMeters>15768.05205296</DistanceMeters>
          </Trackpoint>
          <Trackpoint>
            <Time>2020-02-15T09:41:24.000Z</Time>
            <Position>
              <LatitudeDegrees>41.96651615202426910400390625</LatitudeDegrees>
              <LongitudeDegrees>2.87126577459275722503662109375</LongitudeDegrees>
            </Position>
            <AltitudeMeters>176.600006103515625</AltitudeMeters>
            <DistanceMeters>15771.189374002</DistanceMeters>
          </Trackpoint>
          <Trackpoint>
            <Time>2020-02-15T09:41:25.000Z</Time>
            <Position>
              <LatitudeDegrees>41.966534592211246490478515625</LatitudeDegrees>
              <LongitudeDegrees>2.87129326723515987396240234375</LongitudeDegrees>
            </Position>
            <AltitudeMeters>176.600006103515625</AltitudeMeters>
            <DistanceMeters>15774.252419778</DistanceMeters>
          </Trackpoint>
          <Trackpoint>
            <Time>2020-02-15T09:41:26.000Z</Time>
            <Position>
              <LatitudeDegrees>41.96655110456049442291259765625</LatitudeDegrees>
              <LongitudeDegrees>2.8713206760585308074951171875</LongitudeDegrees>
            </Position>
            <AltitudeMeters>176.8000030517578125</AltitudeMeters>
            <DistanceMeters>15777.17207595</DistanceMeters>
          </Trackpoint>
          <Trackpoint>
            <Time>2020-02-15T09:41:27.000Z</Time>
            <Position>
              <LatitudeDegrees>41.966568119823932647705078125</LatitudeDegrees>
              <LongitudeDegrees>2.87135495804250240325927734375</LongitudeDegrees>
            </Position>
            <AltitudeMeters>176.8000030517578125</AltitudeMeters>
            <DistanceMeters>15780.582462799</DistanceMeters>
          </Trackpoint>
          <Trackpoint>
            <Time>2020-02-15T09:41:28.000Z</Time>
            <Position>
              <LatitudeDegrees>41.96658647619187831878662109375</LatitudeDegrees>
              <LongitudeDegrees>2.87139468826353549957275390625</LongitudeDegrees>
            </Position>
            <AltitudeMeters>176.8000030517578125</AltitudeMeters>
            <DistanceMeters>15784.45297915</DistanceMeters>
          </Trackpoint>
          <Trackpoint>
            <Time>2020-02-15T09:41:29.000Z</Time>
            <Position>
              <LatitudeDegrees>41.96660307236015796661376953125</LatitudeDegrees>
              <LongitudeDegrees>2.871432490646839141845703125</LongitudeDegrees>
            </Position>
            <AltitudeMeters>177</AltitudeMeters>
            <DistanceMeters>15788.086430919</DistanceMeters>
          </Trackpoint>
          <Trackpoint>
            <Time>2020-02-15T09:41:31.000Z</Time>
            <Position>
              <LatitudeDegrees>41.96663408540189266204833984375</LatitudeDegrees>
              <LongitudeDegrees>2.8715205006301403045654296875</LongitudeDegrees>
            </Position>
            <AltitudeMeters>177</AltitudeMeters>
            <DistanceMeters>15796.146354612</DistanceMeters>
          </Trackpoint>
          <Trackpoint>
            <Time>2020-02-15T09:41:33.000Z</Time>
            <Position>
              <LatitudeDegrees>41.96666878648102283477783203125</LatitudeDegrees>
              <LongitudeDegrees>2.87161245010793209075927734375</LongitudeDegrees>
            </Position>
            <AltitudeMeters>177</AltitudeMeters>
            <DistanceMeters>15804.679732399</DistanceMeters>
          </Trackpoint>
          <Trackpoint>
            <Time>2020-02-15T09:41:34.000Z</Time>
            <Position>
              <LatitudeDegrees>41.9666886515915393829345703125</LatitudeDegrees>
              <LongitudeDegrees>2.87165000103414058685302734375</LongitudeDegrees>
            </Position>
            <AltitudeMeters>177</AltitudeMeters>
            <DistanceMeters>15808.492660811</DistanceMeters>
          </Trackpoint>
          <Trackpoint>
            <Time>2020-02-15T09:41:35.000Z</Time>
            <Position>
              <LatitudeDegrees>41.96671337820589542388916015625</LatitudeDegrees>
              <LongitudeDegrees>2.87168520502746105194091796875</LongitudeDegrees>
            </Position>
            <AltitudeMeters>177</AltitudeMeters>
            <DistanceMeters>15812.4995893</DistanceMeters>
          </Trackpoint>
          <Trackpoint>
            <Time>2020-02-15T09:41:36.000Z</Time>
            <Position>
              <LatitudeDegrees>41.96673584170639514923095703125</LatitudeDegrees>
              <LongitudeDegrees>2.87171588279306888580322265625</LongitudeDegrees>
            </Position>
            <AltitudeMeters>177</AltitudeMeters>
            <DistanceMeters>15816.064041229</DistanceMeters>
          </Trackpoint>
          <Trackpoint>
            <Time>2020-02-15T09:41:37.000Z</Time>
            <Position>
              <LatitudeDegrees>41.96675352752208709716796875</LatitudeDegrees>
              <LongitudeDegrees>2.87174471653997898101806640625</LongitudeDegrees>
            </Position>
            <AltitudeMeters>177.1999969482421875</AltitudeMeters>
            <DistanceMeters>15819.159345916</DistanceMeters>
          </Trackpoint>
          <Trackpoint>
            <Time>2020-02-15T09:41:38.000Z</Time>
            <Position>
              <LatitudeDegrees>41.96677029132843017578125</LatitudeDegrees>
              <LongitudeDegrees>2.87177002988755702972412109375</LongitudeDegrees>
            </Position>
            <AltitudeMeters>177</AltitudeMeters>
            <DistanceMeters>15821.965451164</DistanceMeters>
          </Trackpoint>
          <Trackpoint>
            <Time>2020-02-15T09:41:39.000Z</Time>
            <Position>
              <LatitudeDegrees>41.96678831242024898529052734375</LatitudeDegrees>
              <LongitudeDegrees>2.87179433740675449371337890625</LongitudeDegrees>
            </Position>
            <AltitudeMeters>177</AltitudeMeters>
            <DistanceMeters>15824.806734033</DistanceMeters>
          </Trackpoint>
          <Trackpoint>
            <Time>2020-02-15T09:41:41.000Z</Time>
            <Position>
              <LatitudeDegrees>41.96682988665997982025146484375</LatitudeDegrees>
              <LongitudeDegrees>2.87184395827353000640869140625</LongitudeDegrees>
            </Position>
            <AltitudeMeters>176.8000030517578125</AltitudeMeters>
            <DistanceMeters>15830.993695649</DistanceMeters>
          </Trackpoint>
          <Trackpoint>
            <Time>2020-02-15T09:41:42.000Z</Time>
            <Position>
              <LatitudeDegrees>41.9668482430279254913330078125</LatitudeDegrees>
              <LongitudeDegrees>2.87186005152761936187744140625</LongitudeDegrees>
            </Position>
            <AltitudeMeters>176.8000030517578125</AltitudeMeters>
            <DistanceMeters>15833.433125988</DistanceMeters>
          </Trackpoint>
          <Trackpoint>
            <Time>2020-02-15T09:41:43.000Z</Time>
            <Position>
              <LatitudeDegrees>41.96686844341456890106201171875</LatitudeDegrees>
              <LongitudeDegrees>2.87187681533396244049072265625</LongitudeDegrees>
            </Position>
            <AltitudeMeters>177</AltitudeMeters>
            <DistanceMeters>15836.075142091</DistanceMeters>
          </Trackpoint>
          <Trackpoint>
            <Time>2020-02-15T09:41:45.000Z</Time>
            <Position>
              <LatitudeDegrees>41.96691320277750492095947265625</LatitudeDegrees>
              <LongitudeDegrees>2.87190900184214115142822265625</LongitudeDegrees>
            </Position>
            <AltitudeMeters>177</AltitudeMeters>
            <DistanceMeters>15841.724238493</DistanceMeters>
          </Trackpoint>
          <Trackpoint>
            <Time>2020-02-15T09:41:46.000Z</Time>
            <Position>
              <LatitudeDegrees>41.9669357500970363616943359375</LatitudeDegrees>
              <LongitudeDegrees>2.87191872484982013702392578125</LongitudeDegrees>
            </Position>
            <AltitudeMeters>177</AltitudeMeters>
            <DistanceMeters>15844.359409984</DistanceMeters>
          </Trackpoint>
          <Trackpoint>
            <Time>2020-02-15T09:41:47.000Z</Time>
            <Position>
              <LatitudeDegrees>41.96695745922625064849853515625</LatitudeDegrees>
              <LongitudeDegrees>2.87192995660006999969482421875</LongitudeDegrees>
            </Position>
            <AltitudeMeters>177</AltitudeMeters>
            <DistanceMeters>15846.947906984</DistanceMeters>
          </Trackpoint>
          <Trackpoint>
            <Time>2020-02-15T09:41:48.000Z</Time>
            <Position>
              <LatitudeDegrees>41.96698176674544811248779296875</LatitudeDegrees>
              <LongitudeDegrees>2.871947474777698516845703125</LongitudeDegrees>
            </Position>
            <AltitudeMeters>177</AltitudeMeters>
            <DistanceMeters>15850.018314092</DistanceMeters>
          </Trackpoint>
          <Trackpoint>
            <Time>2020-02-15T09:41:49.000Z</Time>
            <Position>
              <LatitudeDegrees>41.967008002102375030517578125</LatitudeDegrees>
              <LongitudeDegrees>2.87196046672761440277099609375</LongitudeDegrees>
            </Position>
            <AltitudeMeters>177</AltitudeMeters>
            <DistanceMeters>15853.129622811</DistanceMeters>
          </Trackpoint>
          <Trackpoint>
            <Time>2020-02-15T09:41:50.000Z</Time>
            <Position>
              <LatitudeDegrees>41.96703524328768253326416015625</LatitudeDegrees>
              <LongitudeDegrees>2.8719707764685153961181640625</LongitudeDegrees>
            </Position>
            <AltitudeMeters>177</AltitudeMeters>
            <DistanceMeters>15856.278435911</DistanceMeters>
          </Trackpoint>
          <Trackpoint>
            <Time>2020-02-15T09:41:51.000Z</Time>
            <Position>
              <LatitudeDegrees>41.96706240065395832061767578125</LatitudeDegrees>
              <LongitudeDegrees>2.8719808347523212432861328125</LongitudeDegrees>
            </Position>
            <AltitudeMeters>177</AltitudeMeters>
            <DistanceMeters>15859.414317485</DistanceMeters>
          </Trackpoint>
          <Trackpoint>
            <Time>2020-02-15T09:41:52.000Z</Time>
            <Position>
              <LatitudeDegrees>41.967089809477329254150390625</LatitudeDegrees>
              <LongitudeDegrees>2.87198695354163646697998046875</LongitudeDegrees>
            </Position>
            <AltitudeMeters>177.1999969482421875</AltitudeMeters>
            <DistanceMeters>15862.50670345</DistanceMeters>
          </Trackpoint>
          <Trackpoint>
            <Time>2020-02-15T09:41:53.000Z</Time>
            <Position>
              <LatitudeDegrees>41.96714219637215137481689453125</LatitudeDegrees>
              <LongitudeDegrees>2.87200354970991611480712890625</LongitudeDegrees>
            </Position>
            <AltitudeMeters>177.399993896484375</AltitudeMeters>
            <DistanceMeters>15868.497909828</DistanceMeters>
          </Trackpoint>
          <Trackpoint>
            <Time>2020-02-15T09:41:54.000Z</Time>
            <Position>
              <LatitudeDegrees>41.96714219637215137481689453125</LatitudeDegrees>
              <LongitudeDegrees>2.87200354970991611480712890625</LongitudeDegrees>
            </Position>
            <AltitudeMeters>177.1999969482421875</AltitudeMeters>
            <DistanceMeters>15868.497909828</DistanceMeters>
          </Trackpoint>
          <Trackpoint>
            <Time>2020-02-15T09:41:55.000Z</Time>
            <Position>
              <LatitudeDegrees>41.9671670906245708465576171875</LatitudeDegrees>
              <LongitudeDegrees>2.87201360799372196197509765625</LongitudeDegrees>
            </Position>
            <AltitudeMeters>177.399993896484375</AltitudeMeters>
            <DistanceMeters>15871.39271741</DistanceMeters>
          </Trackpoint>
          <Trackpoint>
            <Time>2020-02-15T09:41:56.000Z</Time>
            <Position>
              <LatitudeDegrees>41.9671929068863391876220703125</LatitudeDegrees>
              <LongitudeDegrees>2.87202752195298671722412109375</LongitudeDegrees>
            </Position>
            <AltitudeMeters>177.8000030517578125</AltitudeMeters>
            <DistanceMeters>15874.489480427</DistanceMeters>
          </Trackpoint>
          <Trackpoint>
            <Time>2020-02-15T09:41:57.000Z</Time>
            <Position>
              <LatitudeDegrees>41.96721377782523632049560546875</LatitudeDegrees>
              <LongitudeDegrees>2.8720442019402980804443359375</LongitudeDegrees>
            </Position>
            <AltitudeMeters>177.8000030517578125</AltitudeMeters>
            <DistanceMeters>15877.193988131</DistanceMeters>
          </Trackpoint>
          <Trackpoint>
            <Time>2020-02-15T09:41:58.000Z</Time>
            <Position>
              <LatitudeDegrees>41.96723305620253086090087890625</LatitudeDegrees>
              <LongitudeDegrees>2.8720619715750217437744140625</LongitudeDegrees>
            </Position>
            <AltitudeMeters>178</AltitudeMeters>
            <DistanceMeters>15879.796401882</DistanceMeters>
          </Trackpoint>
          <Trackpoint>
            <Time>2020-02-15T09:41:59.000Z</Time>
            <Position>
              <LatitudeDegrees>41.96725149638950824737548828125</LatitudeDegrees>
              <LongitudeDegrees>2.8720814175903797149658203125</LongitudeDegrees>
            </Position>
            <AltitudeMeters>178.1999969482421875</AltitudeMeters>
            <DistanceMeters>15882.405746175</DistanceMeters>
          </Trackpoint>
          <Trackpoint>
            <Time>2020-02-15T09:42:00.000Z</Time>
            <Position>
              <LatitudeDegrees>41.96726960130035877227783203125</LatitudeDegrees>
              <LongitudeDegrees>2.8721045516431331634521484375</LongitudeDegrees>
            </Position>
            <AltitudeMeters>178.1999969482421875</AltitudeMeters>
            <DistanceMeters>15885.185988149</DistanceMeters>
          </Trackpoint>
          <Trackpoint>
            <Time>2020-02-15T09:42:01.000Z</Time>
            <Position>
              <LatitudeDegrees>41.96728670038282871246337890625</LatitudeDegrees>
              <LongitudeDegrees>2.872129194438457489013671875</LongitudeDegrees>
            </Position>
            <AltitudeMeters>178.1999969482421875</AltitudeMeters>
            <DistanceMeters>15887.975956948</DistanceMeters>
          </Trackpoint>
          <Trackpoint>
            <Time>2020-02-15T09:42:02.000Z</Time>
            <Position>
              <LatitudeDegrees>41.9673015363514423370361328125</LatitudeDegrees>
              <LongitudeDegrees>2.87215643562376499176025390625</LongitudeDegrees>
            </Position>
            <AltitudeMeters>178.399993896484375</AltitudeMeters>
            <DistanceMeters>15890.772391499</DistanceMeters>
          </Trackpoint>
          <Trackpoint>
            <Time>2020-02-15T09:42:03.000Z</Time>
            <Position>
              <LatitudeDegrees>41.9673161208629608154296875</LatitudeDegrees>
              <LongitudeDegrees>2.87218493409454822540283203125</LongitudeDegrees>
            </Position>
            <AltitudeMeters>178.399993896484375</AltitudeMeters>
            <DistanceMeters>15893.635835127</DistanceMeters>
          </Trackpoint>
          <Trackpoint>
            <Time>2020-02-15T09:42:04.000Z</Time>
            <Position>
              <LatitudeDegrees>41.96733330376446247100830078125</LatitudeDegrees>
              <LongitudeDegrees>2.87223975174129009246826171875</LongitudeDegrees>
            </Position>
            <AltitudeMeters>178.399993896484375</AltitudeMeters>
            <DistanceMeters>15898.558915989</DistanceMeters>
          </Trackpoint>
          <Trackpoint>
            <Time>2020-02-15T09:42:05.000Z</Time>
            <Position>
              <LatitudeDegrees>41.96733330376446247100830078125</LatitudeDegrees>
              <LongitudeDegrees>2.87223975174129009246826171875</LongitudeDegrees>
            </Position>
            <AltitudeMeters>178.8000030517578125</AltitudeMeters>
            <DistanceMeters>15898.558915989</DistanceMeters>
          </Trackpoint>
          <Trackpoint>
            <Time>2020-02-15T09:42:06.000Z</Time>
            <Position>
              <LatitudeDegrees>41.9673447869718074798583984375</LatitudeDegrees>
              <LongitudeDegrees>2.87228643894195556640625</LongitudeDegrees>
            </Position>
            <AltitudeMeters>178.8000030517578125</AltitudeMeters>
            <DistanceMeters>15902.628456528</DistanceMeters>
          </Trackpoint>
          <Trackpoint>
            <Time>2020-02-15T09:42:07.000Z</Time>
            <Position>
              <LatitudeDegrees>41.9673447869718074798583984375</LatitudeDegrees>
              <LongitudeDegrees>2.87228643894195556640625</LongitudeDegrees>
            </Position>
            <AltitudeMeters>178.8000030517578125</AltitudeMeters>
            <DistanceMeters>15902.628456528</DistanceMeters>
          </Trackpoint>
          <Trackpoint>
            <Time>2020-02-15T09:42:08.000Z</Time>
            <Position>
              <LatitudeDegrees>41.96735107339918613433837890625</LatitudeDegrees>
              <LongitudeDegrees>2.87231124937534332275390625</LongitudeDegrees>
            </Position>
            <AltitudeMeters>179.1999969482421875</AltitudeMeters>
            <DistanceMeters>15904.797481615</DistanceMeters>
          </Trackpoint>
          <Trackpoint>
            <Time>2020-02-15T09:42:09.000Z</Time>
            <Position>
              <LatitudeDegrees>41.96735962294042110443115234375</LatitudeDegrees>
              <LongitudeDegrees>2.87233949638903141021728515625</LongitudeDegrees>
            </Position>
            <AltitudeMeters>179.1999969482421875</AltitudeMeters>
            <DistanceMeters>15907.322404182</DistanceMeters>
          </Trackpoint>
          <Trackpoint>
            <Time>2020-02-15T09:42:10.000Z</Time>
            <Position>
              <LatitudeDegrees>41.967368759214878082275390625</LatitudeDegrees>
              <LongitudeDegrees>2.87236682139337062835693359375</LongitudeDegrees>
            </Position>
            <AltitudeMeters>179.399993896484375</AltitudeMeters>
            <DistanceMeters>15909.800397722</DistanceMeters>
          </Trackpoint>
          <Trackpoint>
            <Time>2020-02-15T09:42:11.000Z</Time>
            <Position>
              <LatitudeDegrees>41.96737873367965221405029296875</LatitudeDegrees>
              <LongitudeDegrees>2.8723923861980438232421875</LongitudeDegrees>
            </Position>
            <AltitudeMeters>179.399993896484375</AltitudeMeters>
            <DistanceMeters>15912.189332278</DistanceMeters>
          </Trackpoint>
          <Trackpoint>
            <Time>2020-02-15T09:42:12.000Z</Time>
            <Position>
              <LatitudeDegrees>41.9673883728682994842529296875</LatitudeDegrees>
              <LongitudeDegrees>2.87242121994495391845703125</LongitudeDegrees>
            </Position>
            <AltitudeMeters>179.600006103515625</AltitudeMeters>
            <DistanceMeters>15914.805588753</DistanceMeters>
          </Trackpoint>
          <Trackpoint>
            <Time>2020-02-15T09:42:13.000Z</Time>
            <Position>
              <LatitudeDegrees>41.96739683859050273895263671875</LatitudeDegrees>
              <LongitudeDegrees>2.872455753386020660400390625</LongitudeDegrees>
            </Position>
            <AltitudeMeters>179.600006103515625</AltitudeMeters>
            <DistanceMeters>15917.816601332</DistanceMeters>
          </Trackpoint>
          <Trackpoint>
            <Time>2020-02-15T09:42:14.000Z</Time>
            <Position>
              <LatitudeDegrees>41.96740454994142055511474609375</LatitudeDegrees>
              <LongitudeDegrees>2.8724874369800090789794921875</LongitudeDegrees>
            </Position>
            <AltitudeMeters>179.8000030517578125</AltitudeMeters>
            <DistanceMeters>15920.575650886</DistanceMeters>
          </Trackpoint>
          <Trackpoint>
            <Time>2020-02-15T09:42:15.000Z</Time>
            <Position>
              <LatitudeDegrees>41.9674138538539409637451171875</LatitudeDegrees>
              <LongitudeDegrees>2.87252088077366352081298828125</LongitudeDegrees>
            </Position>
            <AltitudeMeters>180</AltitudeMeters>
            <DistanceMeters>15923.532188387</DistanceMeters>
          </Trackpoint>
          <Trackpoint>
            <Time>2020-02-15T09:42:16.000Z</Time>
            <Position>
              <LatitudeDegrees>41.96742349304258823394775390625</LatitudeDegrees>
              <LongitudeDegrees>2.8725568391382694244384765625</LongitudeDegrees>
            </Position>
            <AltitudeMeters>180.1999969482421875</AltitudeMeters>
            <DistanceMeters>15926.695307844</DistanceMeters>
          </Trackpoint>
          <Trackpoint>
            <Time>2020-02-15T09:42:17.000Z</Time>
            <Position>
              <LatitudeDegrees>41.96743874810636043548583984375</LatitudeDegrees>
              <LongitudeDegrees>2.87262548692524433135986328125</LongitudeDegrees>
            </Position>
            <AltitudeMeters>180.8000030517578125</AltitudeMeters>
            <DistanceMeters>15932.625157562</DistanceMeters>
          </Trackpoint>
          <Trackpoint>
            <Time>2020-02-15T09:42:18.000Z</Time>
            <Position>
              <LatitudeDegrees>41.96743874810636043548583984375</LatitudeDegrees>
              <LongitudeDegrees>2.87262548692524433135986328125</LongitudeDegrees>
            </Position>
            <AltitudeMeters>180.8000030517578125</AltitudeMeters>
            <DistanceMeters>15932.720184276</DistanceMeters>
          </Trackpoint>
          <Trackpoint>
            <Time>2020-02-15T09:42:19.000Z</Time>
            <Position>
              <LatitudeDegrees>41.96745769120752811431884765625</LatitudeDegrees>
              <LongitudeDegrees>2.87268684245645999908447265625</LongitudeDegrees>
            </Position>
            <AltitudeMeters>181.399993896484375</AltitudeMeters>
            <DistanceMeters>15938.218610954</DistanceMeters>
          </Trackpoint>
          <Trackpoint>
            <Time>2020-02-15T09:42:20.000Z</Time>
            <Position>
              <LatitudeDegrees>41.9674678333103656768798828125</LatitudeDegrees>
              <LongitudeDegrees>2.872720621526241302490234375</LongitudeDegrees>
            </Position>
            <AltitudeMeters>181.8000030517578125</AltitudeMeters>
            <DistanceMeters>15941.232621058</DistanceMeters>
          </Trackpoint>
          <Trackpoint>
            <Time>2020-02-15T09:42:21.000Z</Time>
            <Position>
              <LatitudeDegrees>41.96747839450836181640625</LatitudeDegrees>
              <LongitudeDegrees>2.87275515496730804443359375</LongitudeDegrees>
            </Position>
            <AltitudeMeters>181.8000030517578125</AltitudeMeters>
            <DistanceMeters>15944.322085542</DistanceMeters>
          </Trackpoint>
          <Trackpoint>
            <Time>2020-02-15T09:42:22.000Z</Time>
            <Position>
              <LatitudeDegrees>41.96747839450836181640625</LatitudeDegrees>
              <LongitudeDegrees>2.87275515496730804443359375</LongitudeDegrees>
            </Position>
            <AltitudeMeters>182.399993896484375</AltitudeMeters>
            <DistanceMeters>15944.322085542</DistanceMeters>
          </Trackpoint>
          <Trackpoint>
            <Time>2020-02-15T09:42:23.000Z</Time>
            <Position>
              <LatitudeDegrees>41.96748551912605762481689453125</LatitudeDegrees>
              <LongitudeDegrees>2.87278876639902591705322265625</LongitudeDegrees>
            </Position>
            <AltitudeMeters>182.600006103515625</AltitudeMeters>
            <DistanceMeters>15947.216893125</DistanceMeters>
          </Trackpoint>
          <Trackpoint>
            <Time>2020-02-15T09:42:24.000Z</Time>
            <Position>
              <LatitudeDegrees>41.96750345639884471893310546875</LatitudeDegrees>
              <LongitudeDegrees>2.87285506725311279296875</LongitudeDegrees>
            </Position>
            <AltitudeMeters>182.600006103515625</AltitudeMeters>
            <DistanceMeters>15953.056205469</DistanceMeters>
          </Trackpoint>
          <Trackpoint>
            <Time>2020-02-15T09:42:25.000Z</Time>
            <Position>
              <LatitudeDegrees>41.96751016192138195037841796875</LatitudeDegrees>
              <LongitudeDegrees>2.8728907741606235504150390625</LongitudeDegrees>
            </Position>
            <AltitudeMeters>182.8000030517578125</AltitudeMeters>
            <DistanceMeters>15956.10447525</DistanceMeters>
          </Trackpoint>
          <Trackpoint>
            <Time>2020-02-15T09:42:26.000Z</Time>
            <Position>
              <LatitudeDegrees>41.967518962919712066650390625</LatitudeDegrees>
              <LongitudeDegrees>2.87292840890586376190185546875</LongitudeDegrees>
            </Position>
            <AltitudeMeters>183</AltitudeMeters>
            <DistanceMeters>15959.370132961</DistanceMeters>
          </Trackpoint>
          <Trackpoint>
            <Time>2020-02-15T09:42:29.000Z</Time>
            <Position>
              <LatitudeDegrees>41.96754251606762409210205078125</LatitudeDegrees>
              <LongitudeDegrees>2.87303770892322063446044921875</LongitudeDegrees>
            </Position>
            <AltitudeMeters>183.600006103515625</AltitudeMeters>
            <DistanceMeters>15968.787850881</DistanceMeters>
          </Trackpoint>
          <Trackpoint>
            <Time>2020-02-15T09:42:30.000Z</Time>
            <Position>
              <LatitudeDegrees>41.96755207143723964691162109375</LatitudeDegrees>
              <LongitudeDegrees>2.8730714879930019378662109375</LongitudeDegrees>
            </Position>
            <AltitudeMeters>183.600006103515625</AltitudeMeters>
            <DistanceMeters>15971.779306339</DistanceMeters>
          </Trackpoint>
          <Trackpoint>
            <Time>2020-02-15T09:42:32.000Z</Time>
            <Position>
              <LatitudeDegrees>41.9675737805664539337158203125</LatitudeDegrees>
              <LongitudeDegrees>2.87313208915293216705322265625</LongitudeDegrees>
            </Position>
            <AltitudeMeters>183.8000030517578125</AltitudeMeters>
            <DistanceMeters>15977.34628239</DistanceMeters>
          </Trackpoint>
          <Trackpoint>
            <Time>2020-02-15T09:42:33.000Z</Time>
            <Position>
              <LatitudeDegrees>41.9675737805664539337158203125</LatitudeDegrees>
              <LongitudeDegrees>2.87313208915293216705322265625</LongitudeDegrees>
            </Position>
            <AltitudeMeters>183.8000030517578125</AltitudeMeters>
            <DistanceMeters>15977.441309105</DistanceMeters>
          </Trackpoint>
          <Trackpoint>
            <Time>2020-02-15T09:42:36.000Z</Time>
            <Position>
              <LatitudeDegrees>41.9676257483661174774169921875</LatitudeDegrees>
              <LongitudeDegrees>2.87325362674891948699951171875</LongitudeDegrees>
            </Position>
            <AltitudeMeters>183.8000030517578125</AltitudeMeters>
            <DistanceMeters>15989.043133077</DistanceMeters>
          </Trackpoint>
          <Trackpoint>
            <Time>2020-02-15T09:42:37.000Z</Time>
            <Position>
              <LatitudeDegrees>41.96763907559216022491455078125</LatitudeDegrees>
              <LongitudeDegrees>2.87328212521970272064208984375</LongitudeDegrees>
            </Position>
            <AltitudeMeters>183.8000030517578125</AltitudeMeters>
            <DistanceMeters>15991.829863372</DistanceMeters>
          </Trackpoint>
          <Trackpoint>
            <Time>2020-02-15T09:42:38.000Z</Time>
            <Position>
              <LatitudeDegrees>41.96763907559216022491455078125</LatitudeDegrees>
              <LongitudeDegrees>2.87328212521970272064208984375</LongitudeDegrees>
            </Position>
            <AltitudeMeters>183.8000030517578125</AltitudeMeters>
            <DistanceMeters>15991.924890087</DistanceMeters>
          </Trackpoint>
          <Trackpoint>
            <Time>2020-02-15T09:42:39.000Z</Time>
            <Position>
              <LatitudeDegrees>41.96766874752938747406005859375</LatitudeDegrees>
              <LongitudeDegrees>2.87333677522838115692138671875</LongitudeDegrees>
            </Position>
            <AltitudeMeters>183.8000030517578125</AltitudeMeters>
            <DistanceMeters>15997.524213744</DistanceMeters>
          </Trackpoint>
          <Trackpoint>
            <Time>2020-02-15T09:42:40.000Z</Time>
            <Position>
              <LatitudeDegrees>41.96766874752938747406005859375</LatitudeDegrees>
              <LongitudeDegrees>2.87333677522838115692138671875</LongitudeDegrees>
            </Position>
            <AltitudeMeters>183.8000030517578125</AltitudeMeters>
            <DistanceMeters>15997.524213744</DistanceMeters>
          </Trackpoint>
          <Trackpoint>
            <Time>2020-02-15T09:42:41.000Z</Time>
            <Position>
              <LatitudeDegrees>41.9677050411701202392578125</LatitudeDegrees>
              <LongitudeDegrees>2.8733900003135204315185546875</LongitudeDegrees>
            </Position>
            <AltitudeMeters>183.8000030517578125</AltitudeMeters>
            <DistanceMeters>16003.500328898</DistanceMeters>
          </Trackpoint>
          <Trackpoint>
            <Time>2020-02-15T09:42:44.000Z</Time>
            <Position>
              <LatitudeDegrees>41.96773781441152095794677734375</LatitudeDegrees>
              <LongitudeDegrees>2.8734464943408966064453125</LongitudeDegrees>
            </Position>
            <AltitudeMeters>184</AltitudeMeters>
            <DistanceMeters>16009.428655603</DistanceMeters>
          </Trackpoint>
          <Trackpoint>
            <Time>2020-02-15T09:42:45.000Z</Time>
            <Position>
              <LatitudeDegrees>41.96775122545659542083740234375</LatitudeDegrees>
              <LongitudeDegrees>2.87347490899264812469482421875</LongitudeDegrees>
            </Position>
            <AltitudeMeters>184.1999969482421875</AltitudeMeters>
            <DistanceMeters>16012.213765235</DistanceMeters>
          </Trackpoint>
          <Trackpoint>
            <Time>2020-02-15T09:42:47.000Z</Time>
            <Position>
              <LatitudeDegrees>41.96777670644223690032958984375</LatitudeDegrees>
              <LongitudeDegrees>2.87353433668613433837890625</LongitudeDegrees>
            </Position>
            <AltitudeMeters>184.1999969482421875</AltitudeMeters>
            <DistanceMeters>16017.890766453</DistanceMeters>
          </Trackpoint>
          <Trackpoint>
            <Time>2020-02-15T09:42:48.000Z</Time>
            <Position>
              <LatitudeDegrees>41.967808306217193603515625</LatitudeDegrees>
              <LongitudeDegrees>2.87359795533120632171630859375</LongitudeDegrees>
            </Position>
            <AltitudeMeters>184.399993896484375</AltitudeMeters>
            <DistanceMeters>16024.22128612</DistanceMeters>
          </Trackpoint>
          <Trackpoint>
            <Time>2020-02-15T09:42:50.000Z</Time>
            <Position>
              <LatitudeDegrees>41.96783336810767650604248046875</LatitudeDegrees>
              <LongitudeDegrees>2.873676829040050506591796875</LongitudeDegrees>
            </Position>
            <AltitudeMeters>184.399993896484375</AltitudeMeters>
            <DistanceMeters>16031.319088349</DistanceMeters>
          </Trackpoint>
          <Trackpoint>
            <Time>2020-02-15T09:42:51.000Z</Time>
            <Position>
              <LatitudeDegrees>41.96784309111535549163818359375</LatitudeDegrees>
              <LongitudeDegrees>2.8737173974514007568359375</LongitudeDegrees>
            </Position>
            <AltitudeMeters>184.399993896484375</AltitudeMeters>
            <DistanceMeters>16034.845334975</DistanceMeters>
          </Trackpoint>
          <Trackpoint>
            <Time>2020-02-15T09:42:53.000Z</Time>
            <Position>
              <LatitudeDegrees>41.9678591005504131317138671875</LatitudeDegrees>
              <LongitudeDegrees>2.8738067485392093658447265625</LongitudeDegrees>
            </Position>
            <AltitudeMeters>184.399993896484375</AltitudeMeters>
            <DistanceMeters>16042.451034791</DistanceMeters>
          </Trackpoint>
          <Trackpoint>
            <Time>2020-02-15T09:42:54.000Z</Time>
            <Position>
              <LatitudeDegrees>41.96785851381719112396240234375</LatitudeDegrees>
              <LongitudeDegrees>2.873860895633697509765625</LongitudeDegrees>
            </Position>
            <AltitudeMeters>184.399993896484375</AltitudeMeters>
            <DistanceMeters>16046.931420928</DistanceMeters>
          </Trackpoint>
          <Trackpoint>
            <Time>2020-02-15T09:42:55.000Z</Time>
            <Position>
              <LatitudeDegrees>41.96785851381719112396240234375</LatitudeDegrees>
              <LongitudeDegrees>2.873860895633697509765625</LongitudeDegrees>
            </Position>
            <AltitudeMeters>184.399993896484375</AltitudeMeters>
            <DistanceMeters>16046.931420928</DistanceMeters>
          </Trackpoint>
          <Trackpoint>
            <Time>2020-02-15T09:42:56.000Z</Time>
            <Position>
              <LatitudeDegrees>41.9678510539233684539794921875</LatitudeDegrees>
              <LongitudeDegrees>2.87391110323369503021240234375</LongitudeDegrees>
            </Position>
            <AltitudeMeters>184.399993896484375</AltitudeMeters>
            <DistanceMeters>16051.168376435</DistanceMeters>
          </Trackpoint>
          <Trackpoint>
            <Time>2020-02-15T09:42:57.000Z</Time>
            <Position>
              <LatitudeDegrees>41.9678322784602642059326171875</LatitudeDegrees>
              <LongitudeDegrees>2.87399425171315670013427734375</LongitudeDegrees>
            </Position>
            <AltitudeMeters>184.1999969482421875</AltitudeMeters>
            <DistanceMeters>16058.360335687</DistanceMeters>
          </Trackpoint>
          <Trackpoint>
            <Time>2020-02-15T09:42:58.000Z</Time>
            <Position>
              <LatitudeDegrees>41.967821381986141204833984375</LatitudeDegrees>
              <LongitudeDegrees>2.87402643822133541107177734375</LongitudeDegrees>
            </Position>
            <AltitudeMeters>184.1999969482421875</AltitudeMeters>
            <DistanceMeters>16061.287713788</DistanceMeters>
          </Trackpoint>
          <Trackpoint>
            <Time>2020-02-15T09:42:59.000Z</Time>
            <Position>
              <LatitudeDegrees>41.96781191043555736541748046875</LatitudeDegrees>
              <LongitudeDegrees>2.87405870854854583740234375</LongitudeDegrees>
            </Position>
            <AltitudeMeters>184</AltitudeMeters>
            <DistanceMeters>16064.159030523</DistanceMeters>
          </Trackpoint>
          <Trackpoint>
            <Time>2020-02-15T09:43:00.000Z</Time>
            <Position>
              <LatitudeDegrees>41.96780101396143436431884765625</LatitudeDegrees>
              <LongitudeDegrees>2.87409131415188312530517578125</LongitudeDegrees>
            </Position>
            <AltitudeMeters>183.8000030517578125</AltitudeMeters>
            <DistanceMeters>16067.117094767</DistanceMeters>
          </Trackpoint>
          <Trackpoint>
            <Time>2020-02-15T09:43:01.000Z</Time>
            <Position>
              <LatitudeDegrees>41.96779028512537479400634765625</LatitudeDegrees>
              <LongitudeDegrees>2.8741197288036346435546875</LongitudeDegrees>
            </Position>
            <AltitudeMeters>183.1999969482421875</AltitudeMeters>
            <DistanceMeters>16069.757401381</DistanceMeters>
          </Trackpoint>
          <Trackpoint>
            <Time>2020-02-15T09:43:02.000Z</Time>
            <Position>
              <LatitudeDegrees>41.9677836634218692779541015625</LatitudeDegrees>
              <LongitudeDegrees>2.8741480596363544464111328125</LongitudeDegrees>
            </Position>
            <AltitudeMeters>182.8000030517578125</AltitudeMeters>
            <DistanceMeters>16072.217106895</DistanceMeters>
          </Trackpoint>
          <Trackpoint>
            <Time>2020-02-15T09:43:03.000Z</Time>
            <Position>
              <LatitudeDegrees>41.967777796089649200439453125</LatitudeDegrees>
              <LongitudeDegrees>2.8741825930774211883544921875</LongitudeDegrees>
            </Position>
            <AltitudeMeters>182.8000030517578125</AltitudeMeters>
            <DistanceMeters>16075.149108392</DistanceMeters>
          </Trackpoint>
          <Trackpoint>
            <Time>2020-02-15T09:43:06.000Z</Time>
            <Position>
              <LatitudeDegrees>41.967765726149082183837890625</LatitudeDegrees>
              <LongitudeDegrees>2.87425593473017215728759765625</LongitudeDegrees>
            </Position>
            <AltitudeMeters>182.600006103515625</AltitudeMeters>
            <DistanceMeters>16081.365192135</DistanceMeters>
          </Trackpoint>
          <Trackpoint>
            <Time>2020-02-15T09:43:07.000Z</Time>
            <Position>
              <LatitudeDegrees>41.9677613675594329833984375</LatitudeDegrees>
              <LongitudeDegrees>2.874289043247699737548828125</LongitudeDegrees>
            </Position>
            <AltitudeMeters>182.600006103515625</AltitudeMeters>
            <DistanceMeters>16084.147057608</DistanceMeters>
          </Trackpoint>
          <Trackpoint>
            <Time>2020-02-15T09:43:08.000Z</Time>
            <Position>
              <LatitudeDegrees>41.9677568413317203521728515625</LatitudeDegrees>
              <LongitudeDegrees>2.87435802631080150604248046875</LongitudeDegrees>
            </Position>
            <AltitudeMeters>182.600006103515625</AltitudeMeters>
            <DistanceMeters>16089.877885474</DistanceMeters>
          </Trackpoint>
          <Trackpoint>
            <Time>2020-02-15T09:43:09.000Z</Time>
            <Position>
              <LatitudeDegrees>41.96775265038013458251953125</LatitudeDegrees>
              <LongitudeDegrees>2.87439289502799510955810546875</LongitudeDegrees>
            </Position>
            <AltitudeMeters>182.600006103515625</AltitudeMeters>
            <DistanceMeters>16092.800632866</DistanceMeters>
          </Trackpoint>
          <Trackpoint>
            <Time>2020-02-15T09:43:10.000Z</Time>
            <Position>
              <LatitudeDegrees>41.96774586103856563568115234375</LatitudeDegrees>
              <LongitudeDegrees>2.8744246624410152435302734375</LongitudeDegrees>
            </Position>
            <AltitudeMeters>182.399993896484375</AltitudeMeters>
            <DistanceMeters>16095.538325955</DistanceMeters>
          </Trackpoint>
          <Trackpoint>
            <Time>2020-02-15T09:43:11.000Z</Time>
            <Position>
              <LatitudeDegrees>41.96773898787796497344970703125</LatitudeDegrees>
              <LongitudeDegrees>2.8744590282440185546875</LongitudeDegrees>
            </Position>
            <AltitudeMeters>182.600006103515625</AltitudeMeters>
            <DistanceMeters>16098.485686391</DistanceMeters>
          </Trackpoint>
          <Trackpoint>
            <Time>2020-02-15T09:43:12.000Z</Time>
            <Position>
              <LatitudeDegrees>41.96773127652704715728759765625</LatitudeDegrees>
              <LongitudeDegrees>2.874490208923816680908203125</LongitudeDegrees>
            </Position>
            <AltitudeMeters>182.600006103515625</AltitudeMeters>
            <DistanceMeters>16101.203516873</DistanceMeters>
          </Trackpoint>
          <Trackpoint>
            <Time>2020-02-15T09:43:13.000Z</Time>
            <Position>
              <LatitudeDegrees>41.96772071532905101776123046875</LatitudeDegrees>
              <LongitudeDegrees>2.87452004849910736083984375</LongitudeDegrees>
            </Position>
            <AltitudeMeters>182.399993896484375</AltitudeMeters>
            <DistanceMeters>16103.941209962</DistanceMeters>
          </Trackpoint>
          <Trackpoint>
            <Time>2020-02-15T09:43:14.000Z</Time>
            <Position>
              <LatitudeDegrees>41.96771048940718173980712890625</LatitudeDegrees>
              <LongitudeDegrees>2.8745542466640472412109375</LongitudeDegrees>
            </Position>
            <AltitudeMeters>182.600006103515625</AltitudeMeters>
            <DistanceMeters>16106.990960564</DistanceMeters>
          </Trackpoint>
          <Trackpoint>
            <Time>2020-02-15T09:43:15.000Z</Time>
            <Position>
              <LatitudeDegrees>41.96769909001886844635009765625</LatitudeDegrees>
              <LongitudeDegrees>2.87458886392414569854736328125</LongitudeDegrees>
            </Position>
            <AltitudeMeters>182.600006103515625</AltitudeMeters>
            <DistanceMeters>16110.123961218</DistanceMeters>
          </Trackpoint>
          <Trackpoint>
            <Time>2020-02-15T09:43:19.000Z</Time>
            <Position>
              <LatitudeDegrees>41.9676648080348968505859375</LatitudeDegrees>
              <LongitudeDegrees>2.87469363771378993988037109375</LongitudeDegrees>
            </Position>
            <AltitudeMeters>183.1999969482421875</AltitudeMeters>
            <DistanceMeters>16119.597128571</DistanceMeters>
          </Trackpoint>
          <Trackpoint>
            <Time>2020-02-15T09:43:20.000Z</Time>
            <Position>
              <LatitudeDegrees>41.96764276362955570220947265625</LatitudeDegrees>
              <LongitudeDegrees>2.87475951947271823883056640625</LongitudeDegrees>
            </Position>
            <AltitudeMeters>183.399993896484375</AltitudeMeters>
            <DistanceMeters>16125.575509837</DistanceMeters>
          </Trackpoint>
          <Trackpoint>
            <Time>2020-02-15T09:43:21.000Z</Time>
            <Position>
              <LatitudeDegrees>41.96764276362955570220947265625</LatitudeDegrees>
              <LongitudeDegrees>2.87475951947271823883056640625</LongitudeDegrees>
            </Position>
            <AltitudeMeters>183.399993896484375</AltitudeMeters>
            <DistanceMeters>16125.575509837</DistanceMeters>
          </Trackpoint>
          <Trackpoint>
            <Time>2020-02-15T09:43:22.000Z</Time>
            <Position>
              <LatitudeDegrees>41.9676277600228786468505859375</LatitudeDegrees>
              <LongitudeDegrees>2.87482556886970996856689453125</LongitudeDegrees>
            </Position>
            <AltitudeMeters>183.600006103515625</AltitudeMeters>
            <DistanceMeters>16131.291348933</DistanceMeters>
          </Trackpoint>
          <Trackpoint>
            <Time>2020-02-15T09:43:23.000Z</Time>
            <Position>
              <LatitudeDegrees>41.9676183722913265228271484375</LatitudeDegrees>
              <LongitudeDegrees>2.8748638741672039031982421875</LongitudeDegrees>
            </Position>
            <AltitudeMeters>183.600006103515625</AltitudeMeters>
            <DistanceMeters>16134.629479298</DistanceMeters>
          </Trackpoint>
          <Trackpoint>
            <Time>2020-02-15T09:43:24.000Z</Time>
            <Position>
              <LatitudeDegrees>41.967606805264949798583984375</LatitudeDegrees>
              <LongitudeDegrees>2.87489815615117549896240234375</LongitudeDegrees>
            </Position>
            <AltitudeMeters>183.600006103515625</AltitudeMeters>
            <DistanceMeters>16137.745138486</DistanceMeters>
          </Trackpoint>
          <Trackpoint>
            <Time>2020-02-15T09:43:25.000Z</Time>
            <Position>
              <LatitudeDegrees>41.96759481914341449737548828125</LatitudeDegrees>
              <LongitudeDegrees>2.87493553943932056427001953125</LongitudeDegrees>
            </Position>
            <AltitudeMeters>183.600006103515625</AltitudeMeters>
            <DistanceMeters>16141.114234224</DistanceMeters>
          </Trackpoint>
          <Trackpoint>
            <Time>2020-02-15T09:43:27.000Z</Time>
            <Position>
              <LatitudeDegrees>41.96756330318748950958251953125</LatitudeDegrees>
              <LongitudeDegrees>2.87501164712011814117431640625</LongitudeDegrees>
            </Position>
            <AltitudeMeters>183.8000030517578125</AltitudeMeters>
            <DistanceMeters>16148.32312387</DistanceMeters>
          </Trackpoint>
          <Trackpoint>
            <Time>2020-02-15T09:43:29.000Z</Time>
            <Position>
              <LatitudeDegrees>41.96754788048565387725830078125</LatitudeDegrees>
              <LongitudeDegrees>2.87504701875150203704833984375</LongitudeDegrees>
            </Position>
            <AltitudeMeters>184</AltitudeMeters>
            <DistanceMeters>16151.717586647</DistanceMeters>
          </Trackpoint>
          <Trackpoint>
            <Time>2020-02-15T09:43:30.000Z</Time>
            <Position>
              <LatitudeDegrees>41.96751737035810947418212890625</LatitudeDegrees>
              <LongitudeDegrees>2.87511474452912807464599609375</LongitudeDegrees>
            </Position>
            <AltitudeMeters>184</AltitudeMeters>
            <DistanceMeters>16158.27029704</DistanceMeters>
          </Trackpoint>
          <Trackpoint>
            <Time>2020-02-15T09:43:31.000Z</Time>
            <Position>
              <LatitudeDegrees>41.96751737035810947418212890625</LatitudeDegrees>
              <LongitudeDegrees>2.87511474452912807464599609375</LongitudeDegrees>
            </Position>
            <AltitudeMeters>184</AltitudeMeters>
            <DistanceMeters>16158.27029704</DistanceMeters>
          </Trackpoint>
          <Trackpoint>
            <Time>2020-02-15T09:43:32.000Z</Time>
            <Position>
              <LatitudeDegrees>41.96748711168766021728515625</LatitudeDegrees>
              <LongitudeDegrees>2.8751770220696926116943359375</LongitudeDegrees>
            </Position>
            <AltitudeMeters>184.1999969482421875</AltitudeMeters>
            <DistanceMeters>16164.427265524</DistanceMeters>
          </Trackpoint>
          <Trackpoint>
            <Time>2020-02-15T09:43:33.000Z</Time>
            <Position>
              <LatitudeDegrees>41.96747261099517345428466796875</LatitudeDegrees>
              <LongitudeDegrees>2.8752033412456512451171875</LongitudeDegrees>
            </Position>
            <AltitudeMeters>184</AltitudeMeters>
            <DistanceMeters>16167.1384428</DistanceMeters>
          </Trackpoint>
          <Trackpoint>
            <Time>2020-02-15T09:43:34.000Z</Time>
            <Position>
              <LatitudeDegrees>41.96745735593140125274658203125</LatitudeDegrees>
              <LongitudeDegrees>2.87522773258388042449951171875</LongitudeDegrees>
            </Position>
            <AltitudeMeters>184.1999969482421875</AltitudeMeters>
            <DistanceMeters>16169.77532711</DistanceMeters>
          </Trackpoint>
          <Trackpoint>
            <Time>2020-02-15T09:43:35.000Z</Time>
            <Position>
              <LatitudeDegrees>41.9674443639814853668212890625</LatitudeDegrees>
              <LongitudeDegrees>2.87525271065533161163330078125</LongitudeDegrees>
            </Position>
            <AltitudeMeters>184.399993896484375</AltitudeMeters>
            <DistanceMeters>16172.296670763</DistanceMeters>
          </Trackpoint>
          <Trackpoint>
            <Time>2020-02-15T09:43:36.000Z</Time>
            <Position>
              <LatitudeDegrees>41.96743070147931575775146484375</LatitudeDegrees>
              <LongitudeDegrees>2.8752789460122585296630859375</LongitudeDegrees>
            </Position>
            <AltitudeMeters>184.600006103515625</AltitudeMeters>
            <DistanceMeters>16174.948920666</DistanceMeters>
          </Trackpoint>
          <Trackpoint>
            <Time>2020-02-15T09:43:37.000Z</Time>
            <Position>
              <LatitudeDegrees>41.9674158655107021331787109375</LatitudeDegrees>
              <LongitudeDegrees>2.87530593574047088623046875</LongitudeDegrees>
            </Position>
            <AltitudeMeters>184.399993896484375</AltitudeMeters>
            <DistanceMeters>16177.725912795</DistanceMeters>
          </Trackpoint>
          <Trackpoint>
            <Time>2020-02-15T09:43:38.000Z</Time>
            <Position>
              <LatitudeDegrees>41.96739968843758106231689453125</LatitudeDegrees>
              <LongitudeDegrees>2.8753319196403026580810546875</LongitudeDegrees>
            </Position>
            <AltitudeMeters>184.600006103515625</AltitudeMeters>
            <DistanceMeters>16180.532018042</DistanceMeters>
          </Trackpoint>
          <Trackpoint>
            <Time>2020-02-15T09:43:39.000Z</Time>
            <Position>
              <LatitudeDegrees>41.96739968843758106231689453125</LatitudeDegrees>
              <LongitudeDegrees>2.8753319196403026580810546875</LongitudeDegrees>
            </Position>
            <AltitudeMeters>184.8000030517578125</AltitudeMeters>
            <DistanceMeters>16180.532018042</DistanceMeters>
          </Trackpoint>
          <Trackpoint>
            <Time>2020-02-15T09:43:40.000Z</Time>
            <Position>
              <LatitudeDegrees>41.96736984886229038238525390625</LatitudeDegrees>
              <LongitudeDegrees>2.87538631819188594818115234375</LongitudeDegrees>
            </Position>
            <AltitudeMeters>185</AltitudeMeters>
            <DistanceMeters>16186.126501482</DistanceMeters>
          </Trackpoint>
          <Trackpoint>
            <Time>2020-02-15T09:43:41.000Z</Time>
            <Position>
              <LatitudeDegrees>41.9673592038452625274658203125</LatitudeDegrees>
              <LongitudeDegrees>2.875413559377193450927734375</LongitudeDegrees>
            </Position>
            <AltitudeMeters>185.1999969482421875</AltitudeMeters>
            <DistanceMeters>16188.672791899</DistanceMeters>
          </Trackpoint>
          <Trackpoint>
            <Time>2020-02-15T09:43:42.000Z</Time>
            <Position>
              <LatitudeDegrees>41.96735057048499584197998046875</LatitudeDegrees>
              <LongitudeDegrees>2.8754415549337863922119140625</LongitudeDegrees>
            </Position>
            <AltitudeMeters>185.600006103515625</AltitudeMeters>
            <DistanceMeters>16191.179768804</DistanceMeters>
          </Trackpoint>
          <Trackpoint>
            <Time>2020-02-15T09:43:43.000Z</Time>
            <Position>
              <LatitudeDegrees>41.9673441164195537567138671875</LatitudeDegrees>
              <LongitudeDegrees>2.8754693828523159027099609375</LongitudeDegrees>
            </Position>
            <AltitudeMeters>186.399993896484375</AltitudeMeters>
            <DistanceMeters>16193.591276472</DistanceMeters>
          </Trackpoint>
          <Trackpoint>
            <Time>2020-02-15T09:43:44.000Z</Time>
            <Position>
              <LatitudeDegrees>41.9673370756208896636962890625</LatitudeDegrees>
              <LongitudeDegrees>2.87549746222794055938720703125</LongitudeDegrees>
            </Position>
            <AltitudeMeters>186.399993896484375</AltitudeMeters>
            <DistanceMeters>16196.04362859</DistanceMeters>
          </Trackpoint>
          <Trackpoint>
            <Time>2020-02-15T09:43:45.000Z</Time>
            <Position>
              <LatitudeDegrees>41.96732743643224239349365234375</LatitudeDegrees>
              <LongitudeDegrees>2.87553132511675357818603515625</LongitudeDegrees>
            </Position>
            <AltitudeMeters>186.8000030517578125</AltitudeMeters>
            <DistanceMeters>16199.044126251</DistanceMeters>
          </Trackpoint>
          <Trackpoint>
            <Time>2020-02-15T09:43:46.000Z</Time>
            <Position>
              <LatitudeDegrees>41.96731570176780223846435546875</LatitudeDegrees>
              <LongitudeDegrees>2.8755729831755161285400390625</LongitudeDegrees>
            </Position>
            <AltitudeMeters>187.1999969482421875</AltitudeMeters>
            <DistanceMeters>16202.729398964</DistanceMeters>
          </Trackpoint>
          <Trackpoint>
            <Time>2020-02-15T09:43:47.000Z</Time>
            <Position>
              <LatitudeDegrees>41.9673035480082035064697265625</LatitudeDegrees>
              <LongitudeDegrees>2.87562486715614795684814453125</LongitudeDegrees>
            </Position>
            <AltitudeMeters>187.1999969482421875</AltitudeMeters>
            <DistanceMeters>16207.230897775</DistanceMeters>
          </Trackpoint>
          <Trackpoint>
            <Time>2020-02-15T09:43:49.000Z</Time>
            <Position>
              <LatitudeDegrees>41.96727144531905651092529296875</LatitudeDegrees>
              <LongitudeDegrees>2.87573986686766147613525390625</LongitudeDegrees>
            </Position>
            <AltitudeMeters>187.399993896484375</AltitudeMeters>
            <DistanceMeters>16217.39653572</DistanceMeters>
          </Trackpoint>
          <Trackpoint>
            <Time>2020-02-15T09:43:51.000Z</Time>
            <Position>
              <LatitudeDegrees>41.96724303066730499267578125</LatitudeDegrees>
              <LongitudeDegrees>2.87586676888167858123779296875</LongitudeDegrees>
            </Position>
            <AltitudeMeters>187.399993896484375</AltitudeMeters>
            <DistanceMeters>16228.364611138</DistanceMeters>
          </Trackpoint>
          <Trackpoint>
            <Time>2020-02-15T09:43:52.000Z</Time>
            <Position>
              <LatitudeDegrees>41.96723205037415027618408203125</LatitudeDegrees>
              <LongitudeDegrees>2.875930555164813995361328125</LongitudeDegrees>
            </Position>
            <AltitudeMeters>187.600006103515625</AltitudeMeters>
            <DistanceMeters>16233.781967361</DistanceMeters>
          </Trackpoint>
          <Trackpoint>
            <Time>2020-02-15T09:43:53.000Z</Time>
            <Position>
              <LatitudeDegrees>41.9672301225364208221435546875</LatitudeDegrees>
              <LongitudeDegrees>2.87599266506731510162353515625</LongitudeDegrees>
            </Position>
            <AltitudeMeters>187.600006103515625</AltitudeMeters>
            <DistanceMeters>16238.926591162</DistanceMeters>
          </Trackpoint>
          <Trackpoint>
            <Time>2020-02-15T09:43:54.000Z</Time>
            <Position>
              <LatitudeDegrees>41.96723925881087779998779296875</LatitudeDegrees>
              <LongitudeDegrees>2.87605402059853076934814453125</LongitudeDegrees>
            </Position>
            <AltitudeMeters>187.600006103515625</AltitudeMeters>
            <DistanceMeters>16244.10532914</DistanceMeters>
          </Trackpoint>
          <Trackpoint>
            <Time>2020-02-15T09:43:55.000Z</Time>
            <Position>
              <LatitudeDegrees>41.9672519154846668243408203125</LatitudeDegrees>
              <LongitudeDegrees>2.87611462175846099853515625</LongitudeDegrees>
            </Position>
            <AltitudeMeters>187.600006103515625</AltitudeMeters>
            <DistanceMeters>16249.314492193</DistanceMeters>
          </Trackpoint>
          <Trackpoint>
            <Time>2020-02-15T09:43:56.000Z</Time>
            <Position>
              <LatitudeDegrees>41.9672710262238979339599609375</LatitudeDegrees>
              <LongitudeDegrees>2.8761716187000274658203125</LongitudeDegrees>
            </Position>
            <AltitudeMeters>187.600006103515625</AltitudeMeters>
            <DistanceMeters>16254.487996477</DistanceMeters>
          </Trackpoint>
          <Trackpoint>
            <Time>2020-02-15T09:43:57.000Z</Time>
            <Position>
              <LatitudeDegrees>41.96729089133441448211669921875</LatitudeDegrees>
              <LongitudeDegrees>2.87622165866196155548095703125</LongitudeDegrees>
            </Position>
            <AltitudeMeters>187.600006103515625</AltitudeMeters>
            <DistanceMeters>16259.181969903</DistanceMeters>
          </Trackpoint>
          <Trackpoint>
            <Time>2020-02-15T09:43:58.000Z</Time>
            <Position>
              <LatitudeDegrees>41.9673085771501064300537109375</LatitudeDegrees>
              <LongitudeDegrees>2.8762649931013584136962890625</LongitudeDegrees>
            </Position>
            <AltitudeMeters>187.600006103515625</AltitudeMeters>
            <DistanceMeters>16263.271432163</DistanceMeters>
          </Trackpoint>
          <Trackpoint>
            <Time>2020-02-15T09:43:59.000Z</Time>
            <Position>
              <LatitudeDegrees>41.96732726879417896270751953125</LatitudeDegrees>
              <LongitudeDegrees>2.8763030469417572021484375</LongitudeDegrees>
            </Position>
            <AltitudeMeters>187.399993896484375</AltitudeMeters>
            <DistanceMeters>16267.046277938</DistanceMeters>
          </Trackpoint>
          <Trackpoint>
            <Time>2020-02-15T09:44:00.000Z</Time>
            <Position>
              <LatitudeDegrees>41.96734336204826831817626953125</LatitudeDegrees>
              <LongitudeDegrees>2.8763352334499359130859375</LongitudeDegrees>
            </Position>
            <AltitudeMeters>187.399993896484375</AltitudeMeters>
            <DistanceMeters>16270.256156008</DistanceMeters>
          </Trackpoint>
          <Trackpoint>
            <Time>2020-02-15T09:44:01.000Z</Time>
            <Position>
              <LatitudeDegrees>41.96734336204826831817626953125</LatitudeDegrees>
              <LongitudeDegrees>2.8763352334499359130859375</LongitudeDegrees>
            </Position>
            <AltitudeMeters>187</AltitudeMeters>
            <DistanceMeters>16270.256156008</DistanceMeters>
          </Trackpoint>
          <Trackpoint>
            <Time>2020-02-15T09:44:02.000Z</Time>
            <Position>
              <LatitudeDegrees>41.96735895238816738128662109375</LatitudeDegrees>
              <LongitudeDegrees>2.87636406719684600830078125</LongitudeDegrees>
            </Position>
            <AltitudeMeters>187</AltitudeMeters>
            <DistanceMeters>16273.206578637</DistanceMeters>
          </Trackpoint>
          <Trackpoint>
            <Time>2020-02-15T09:44:03.000Z</Time>
            <Position>
              <LatitudeDegrees>41.96739616803824901580810546875</LatitudeDegrees>
              <LongitudeDegrees>2.87641712464392185211181640625</LongitudeDegrees>
            </Position>
            <AltitudeMeters>186.8000030517578125</AltitudeMeters>
            <DistanceMeters>16279.242832314</DistanceMeters>
          </Trackpoint>
          <Trackpoint>
            <Time>2020-02-15T09:44:04.000Z</Time>
            <Position>
              <LatitudeDegrees>41.96739616803824901580810546875</LatitudeDegrees>
              <LongitudeDegrees>2.87641712464392185211181640625</LongitudeDegrees>
            </Position>
            <AltitudeMeters>186.399993896484375</AltitudeMeters>
            <DistanceMeters>16279.242832314</DistanceMeters>
          </Trackpoint>
          <Trackpoint>
            <Time>2020-02-15T09:44:05.000Z</Time>
            <Position>
              <LatitudeDegrees>41.96743623353540897369384765625</LatitudeDegrees>
              <LongitudeDegrees>2.8764728643000125885009765625</LongitudeDegrees>
            </Position>
            <AltitudeMeters>186.399993896484375</AltitudeMeters>
            <DistanceMeters>16285.658367244</DistanceMeters>
          </Trackpoint>
          <Trackpoint>
            <Time>2020-02-15T09:44:06.000Z</Time>
            <Position>
              <LatitudeDegrees>41.96745551191270351409912109375</LatitudeDegrees>
              <LongitudeDegrees>2.87649708800017833709716796875</LongitudeDegrees>
            </Position>
            <AltitudeMeters>186.399993896484375</AltitudeMeters>
            <DistanceMeters>16288.593446958</DistanceMeters>
          </Trackpoint>
          <Trackpoint>
            <Time>2020-02-15T09:44:07.000Z</Time>
            <Position>
              <LatitudeDegrees>41.9674752093851566314697265625</LatitudeDegrees>
              <LongitudeDegrees>2.876519300043582916259765625</LongitudeDegrees>
            </Position>
            <AltitudeMeters>186.399993896484375</AltitudeMeters>
            <DistanceMeters>16291.453735275</DistanceMeters>
          </Trackpoint>
          <Trackpoint>
            <Time>2020-02-15T09:44:08.000Z</Time>
            <Position>
              <LatitudeDegrees>41.9674909673631191253662109375</LatitudeDegrees>
              <LongitudeDegrees>2.87654243409633636474609375</LongitudeDegrees>
            </Position>
            <AltitudeMeters>186.399993896484375</AltitudeMeters>
            <DistanceMeters>16294.049199978</DistanceMeters>
          </Trackpoint>
          <Trackpoint>
            <Time>2020-02-15T09:44:09.000Z</Time>
            <Position>
              <LatitudeDegrees>41.9675065577030181884765625</LatitudeDegrees>
              <LongitudeDegrees>2.87656531669199466705322265625</LongitudeDegrees>
            </Position>
            <AltitudeMeters>186.399993896484375</AltitudeMeters>
            <DistanceMeters>16296.618438364</DistanceMeters>
          </Trackpoint>
          <Trackpoint>
            <Time>2020-02-15T09:44:10.000Z</Time>
            <Position>
              <LatitudeDegrees>41.96752474643290042877197265625</LatitudeDegrees>
              <LongitudeDegrees>2.87658627144992351531982421875</LongitudeDegrees>
            </Position>
            <AltitudeMeters>186.399993896484375</AltitudeMeters>
            <DistanceMeters>16299.284272222</DistanceMeters>
          </Trackpoint>
          <Trackpoint>
            <Time>2020-02-15T09:44:11.000Z</Time>
            <Position>
              <LatitudeDegrees>41.967543102800846099853515625</LatitudeDegrees>
              <LongitudeDegrees>2.87660940550267696380615234375</LongitudeDegrees>
            </Position>
            <AltitudeMeters>186.399993896484375</AltitudeMeters>
            <DistanceMeters>16302.083934051</DistanceMeters>
          </Trackpoint>
          <Trackpoint>
            <Time>2020-02-15T09:44:12.000Z</Time>
            <Position>
              <LatitudeDegrees>41.96756078861653804779052734375</LatitudeDegrees>
              <LongitudeDegrees>2.876637317240238189697265625</LongitudeDegrees>
            </Position>
            <AltitudeMeters>186.399993896484375</AltitudeMeters>
            <DistanceMeters>16305.11884393</DistanceMeters>
          </Trackpoint>
          <Trackpoint>
            <Time>2020-02-15T09:44:13.000Z</Time>
            <Position>
              <LatitudeDegrees>41.96756078861653804779052734375</LatitudeDegrees>
              <LongitudeDegrees>2.876637317240238189697265625</LongitudeDegrees>
            </Position>
            <AltitudeMeters>186.8000030517578125</AltitudeMeters>
            <DistanceMeters>NAN</DistanceMeters>
          </Trackpoint>
          <Trackpoint>
            <Time>2020-02-15T09:44:18.000Z</Time>
            <Position>
              <LatitudeDegrees>41.96767059154808521270751953125</LatitudeDegrees>
              <LongitudeDegrees>2.87685281597077846527099609375</LongitudeDegrees>
            </Position>
            <AltitudeMeters>187</AltitudeMeters>
            <DistanceMeters>NAN</DistanceMeters>
          </Trackpoint>
          <Trackpoint>
            <Time>2020-02-15T09:44:19.000Z</Time>
            <Position>
              <LatitudeDegrees>41.967685259878635406494140625</LatitudeDegrees>
              <LongitudeDegrees>2.87688919343054294586181640625</LongitudeDegrees>
            </Position>
            <AltitudeMeters>187</AltitudeMeters>
            <DistanceMeters>NAN</DistanceMeters>
          </Trackpoint>
          <Trackpoint>
            <Time>2020-02-15T09:44:20.000Z</Time>
            <Position>
              <LatitudeDegrees>41.9677005149424076080322265625</LatitudeDegrees>
              <LongitudeDegrees>2.8769228048622608184814453125</LongitudeDegrees>
            </Position>
            <AltitudeMeters>187</AltitudeMeters>
            <DistanceMeters>NAN</DistanceMeters>
          </Trackpoint>
          <Trackpoint>
            <Time>2020-02-15T09:44:21.000Z</Time>
            <Position>
              <LatitudeDegrees>41.9677162729203701019287109375</LatitudeDegrees>
              <LongitudeDegrees>2.87695591337978839874267578125</LongitudeDegrees>
            </Position>
            <AltitudeMeters>187.1999969482421875</AltitudeMeters>
            <DistanceMeters>NAN</DistanceMeters>
          </Trackpoint>
          <Trackpoint>
            <Time>2020-02-15T09:44:22.000Z</Time>
            <Position>
              <LatitudeDegrees>41.9677300192415714263916015625</LatitudeDegrees>
              <LongitudeDegrees>2.8769861720502376556396484375</LongitudeDegrees>
            </Position>
            <AltitudeMeters>187.1999969482421875</AltitudeMeters>
            <DistanceMeters>NAN</DistanceMeters>
          </Trackpoint>
          <Trackpoint>
            <Time>2020-02-15T09:44:23.000Z</Time>
            <Position>
              <LatitudeDegrees>41.9677461124956607818603515625</LatitudeDegrees>
              <LongitudeDegrees>2.87701852619647979736328125</LongitudeDegrees>
            </Position>
            <AltitudeMeters>187.1999969482421875</AltitudeMeters>
            <DistanceMeters>NAN</DistanceMeters>
          </Trackpoint>
          <Trackpoint>
            <Time>2020-02-15T09:44:24.000Z</Time>
            <Position>
              <LatitudeDegrees>41.96776337921619415283203125</LatitudeDegrees>
              <LongitudeDegrees>2.8770518861711025238037109375</LongitudeDegrees>
            </Position>
            <AltitudeMeters>187.1999969482421875</AltitudeMeters>
            <DistanceMeters>NAN</DistanceMeters>
          </Trackpoint>
          <Trackpoint>
            <Time>2020-02-15T09:44:27.000Z</Time>
            <Position>
              <LatitudeDegrees>41.967821381986141204833984375</LatitudeDegrees>
              <LongitudeDegrees>2.8771460987627506256103515625</LongitudeDegrees>
            </Position>
            <AltitudeMeters>187.1999969482421875</AltitudeMeters>
            <DistanceMeters>NAN</DistanceMeters>
          </Trackpoint>
          <Trackpoint>
            <Time>2020-02-15T09:44:29.000Z</Time>
            <Position>
              <LatitudeDegrees>41.96785901673138141632080078125</LatitudeDegrees>
              <LongitudeDegrees>2.8772037662565708160400390625</LongitudeDegrees>
            </Position>
            <AltitudeMeters>187.1999969482421875</AltitudeMeters>
            <DistanceMeters>NAN</DistanceMeters>
          </Trackpoint>
          <Trackpoint>
            <Time>2020-02-15T09:44:31.000Z</Time>
            <Position>
              <LatitudeDegrees>41.96790310554206371307373046875</LatitudeDegrees>
              <LongitudeDegrees>2.87725749425590038299560546875</LongitudeDegrees>
            </Position>
            <AltitudeMeters>187.399993896484375</AltitudeMeters>
            <DistanceMeters>NAN</DistanceMeters>
          </Trackpoint>
          <Trackpoint>
            <Time>2020-02-15T09:44:33.000Z</Time>
            <Position>
              <LatitudeDegrees>41.9679476134479045867919921875</LatitudeDegrees>
              <LongitudeDegrees>2.8772976435720920562744140625</LongitudeDegrees>
            </Position>
            <AltitudeMeters>187.399993896484375</AltitudeMeters>
            <DistanceMeters>NAN</DistanceMeters>
          </Trackpoint>
          <Trackpoint>
            <Time>2020-02-15T09:44:34.000Z</Time>
            <Position>
              <LatitudeDegrees>41.96796580217778682708740234375</LatitudeDegrees>
              <LongitudeDegrees>2.87731231190264225006103515625</LongitudeDegrees>
            </Position>
            <AltitudeMeters>187.399993896484375</AltitudeMeters>
            <DistanceMeters>NAN</DistanceMeters>
          </Trackpoint>
          <Trackpoint>
            <Time>2020-02-15T09:44:35.000Z</Time>
            <Position>
              <LatitudeDegrees>41.96798332035541534423828125</LatitudeDegrees>
              <LongitudeDegrees>2.87732823751866817474365234375</LongitudeDegrees>
            </Position>
            <AltitudeMeters>187.399993896484375</AltitudeMeters>
            <DistanceMeters>NAN</DistanceMeters>
          </Trackpoint>
          <Trackpoint>
            <Time>2020-02-15T09:44:36.000Z</Time>
            <Position>
              <LatitudeDegrees>41.96800150908529758453369140625</LatitudeDegrees>
              <LongitudeDegrees>2.8773449175059795379638671875</LongitudeDegrees>
            </Position>
            <AltitudeMeters>187.600006103515625</AltitudeMeters>
            <DistanceMeters>NAN</DistanceMeters>
          </Trackpoint>
          <Trackpoint>
            <Time>2020-02-15T09:44:37.000Z</Time>
            <Position>
              <LatitudeDegrees>41.9680203683674335479736328125</LatitudeDegrees>
              <LongitudeDegrees>2.87736277095973491668701171875</LongitudeDegrees>
            </Position>
            <AltitudeMeters>187.399993896484375</AltitudeMeters>
            <DistanceMeters>NAN</DistanceMeters>
          </Trackpoint>
          <Trackpoint>
            <Time>2020-02-15T09:44:38.000Z</Time>
            <Position>
              <LatitudeDegrees>41.96804174222052097320556640625</LatitudeDegrees>
              <LongitudeDegrees>2.8773838095366954803466796875</LongitudeDegrees>
            </Position>
            <AltitudeMeters>187.399993896484375</AltitudeMeters>
            <DistanceMeters>NAN</DistanceMeters>
          </Trackpoint>
          <Trackpoint>
            <Time>2020-02-15T09:44:40.000Z</Time>
            <Position>
              <LatitudeDegrees>41.968084238469600677490234375</LatitudeDegrees>
              <LongitudeDegrees>2.877427227795124053955078125</LongitudeDegrees>
            </Position>
            <AltitudeMeters>187.600006103515625</AltitudeMeters>
            <DistanceMeters>NAN</DistanceMeters>
          </Trackpoint>
          <Trackpoint>
            <Time>2020-02-15T09:44:41.000Z</Time>
            <Position>
              <LatitudeDegrees>41.9681045226752758026123046875</LatitudeDegrees>
              <LongitudeDegrees>2.87745128385722637176513671875</LongitudeDegrees>
            </Position>
            <AltitudeMeters>187.600006103515625</AltitudeMeters>
            <DistanceMeters>NAN</DistanceMeters>
          </Trackpoint>
          <Trackpoint>
            <Time>2020-02-15T09:44:42.000Z</Time>
            <Position>
              <LatitudeDegrees>41.96812371723353862762451171875</LatitudeDegrees>
              <LongitudeDegrees>2.8774778544902801513671875</LongitudeDegrees>
            </Position>
            <AltitudeMeters>187.600006103515625</AltitudeMeters>
            <DistanceMeters>NAN</DistanceMeters>
          </Trackpoint>
          <Trackpoint>
            <Time>2020-02-15T09:44:43.000Z</Time>
            <Position>
              <LatitudeDegrees>41.96813796646893024444580078125</LatitudeDegrees>
              <LongitudeDegrees>2.87750476039946079254150390625</LongitudeDegrees>
            </Position>
            <AltitudeMeters>187.8000030517578125</AltitudeMeters>
            <DistanceMeters>NAN</DistanceMeters>
          </Trackpoint>
          <Trackpoint>
            <Time>2020-02-15T09:44:44.000Z</Time>
            <Position>
              <LatitudeDegrees>41.968149282038211822509765625</LatitudeDegrees>
              <LongitudeDegrees>2.87753040902316570281982421875</LongitudeDegrees>
            </Position>
            <AltitudeMeters>187.8000030517578125</AltitudeMeters>
            <DistanceMeters>NAN</DistanceMeters>
          </Trackpoint>
          <Trackpoint>
            <Time>2020-02-15T09:44:45.000Z</Time>
            <Position>
              <LatitudeDegrees>41.968149282038211822509765625</LatitudeDegrees>
              <LongitudeDegrees>2.87753040902316570281982421875</LongitudeDegrees>
            </Position>
            <AltitudeMeters>188</AltitudeMeters>
            <DistanceMeters>NAN</DistanceMeters>
          </Trackpoint>
          <Trackpoint>
            <Time>2020-02-15T09:44:46.000Z</Time>
            <Position>
              <LatitudeDegrees>41.9681771099567413330078125</LatitudeDegrees>
              <LongitudeDegrees>2.8775903396308422088623046875</LongitudeDegrees>
            </Position>
            <AltitudeMeters>188</AltitudeMeters>
            <DistanceMeters>NAN</DistanceMeters>
          </Trackpoint>
          <Trackpoint>
            <Time>2020-02-15T09:44:47.000Z</Time>
            <Position>
              <LatitudeDegrees>41.968191526830196380615234375</LatitudeDegrees>
              <LongitudeDegrees>2.877621687948703765869140625</LongitudeDegrees>
            </Position>
            <AltitudeMeters>188.1999969482421875</AltitudeMeters>
            <DistanceMeters>NAN</DistanceMeters>
          </Trackpoint>
          <Trackpoint>
            <Time>2020-02-15T09:44:48.000Z</Time>
            <Position>
              <LatitudeDegrees>41.9682047702372074127197265625</LatitudeDegrees>
              <LongitudeDegrees>2.87765085697174072265625</LongitudeDegrees>
            </Position>
            <AltitudeMeters>188.399993896484375</AltitudeMeters>
            <DistanceMeters>NAN</DistanceMeters>
          </Trackpoint>
          <Trackpoint>
            <Time>2020-02-15T09:44:49.000Z</Time>
            <Position>
              <LatitudeDegrees>41.9682181812822818756103515625</LatitudeDegrees>
              <LongitudeDegrees>2.87768078036606311798095703125</LongitudeDegrees>
            </Position>
            <AltitudeMeters>188.600006103515625</AltitudeMeters>
            <DistanceMeters>NAN</DistanceMeters>
          </Trackpoint>
          <Trackpoint>
            <Time>2020-02-15T09:44:50.000Z</Time>
            <Position>
              <LatitudeDegrees>41.9682292453944683074951171875</LatitudeDegrees>
              <LongitudeDegrees>2.87771447561681270599365234375</LongitudeDegrees>
            </Position>
            <AltitudeMeters>188.8000030517578125</AltitudeMeters>
            <DistanceMeters>NAN</DistanceMeters>
          </Trackpoint>
          <Trackpoint>
            <Time>2020-02-15T09:44:51.000Z</Time>
            <Position>
              <LatitudeDegrees>41.96823813021183013916015625</LatitudeDegrees>
              <LongitudeDegrees>2.87774733267724514007568359375</LongitudeDegrees>
            </Position>
            <AltitudeMeters>189</AltitudeMeters>
            <DistanceMeters>NAN</DistanceMeters>
          </Trackpoint>
          <Trackpoint>
            <Time>2020-02-15T09:44:52.000Z</Time>
            <Position>
              <LatitudeDegrees>41.9682443328201770782470703125</LatitudeDegrees>
              <LongitudeDegrees>2.877778597176074981689453125</LongitudeDegrees>
            </Position>
            <AltitudeMeters>189</AltitudeMeters>
            <DistanceMeters>NAN</DistanceMeters>
          </Trackpoint>
          <Trackpoint>
            <Time>2020-02-15T09:44:53.000Z</Time>
            <Position>
              <LatitudeDegrees>41.96825045160949230194091796875</LatitudeDegrees>
              <LongitudeDegrees>2.8778126277029514312744140625</LongitudeDegrees>
            </Position>
            <AltitudeMeters>189.399993896484375</AltitudeMeters>
            <DistanceMeters>NAN</DistanceMeters>
          </Trackpoint>
          <Trackpoint>
            <Time>2020-02-15T09:44:54.000Z</Time>
            <Position>
              <LatitudeDegrees>41.9682540558278560638427734375</LatitudeDegrees>
              <LongitudeDegrees>2.87784573622047901153564453125</LongitudeDegrees>
            </Position>
            <AltitudeMeters>189.600006103515625</AltitudeMeters>
            <DistanceMeters>NAN</DistanceMeters>
          </Trackpoint>
          <Trackpoint>
            <Time>2020-02-15T09:44:55.000Z</Time>
            <Position>
              <LatitudeDegrees>41.9682560674846172332763671875</LatitudeDegrees>
              <LongitudeDegrees>2.877879180014133453369140625</LongitudeDegrees>
            </Position>
            <AltitudeMeters>189.8000030517578125</AltitudeMeters>
            <DistanceMeters>NAN</DistanceMeters>
          </Trackpoint>
          <Trackpoint>
            <Time>2020-02-15T09:44:56.000Z</Time>
            <Position>
              <LatitudeDegrees>41.9682560674846172332763671875</LatitudeDegrees>
              <LongitudeDegrees>2.877879180014133453369140625</LongitudeDegrees>
            </Position>
            <AltitudeMeters>190</AltitudeMeters>
            <DistanceMeters>NAN</DistanceMeters>
          </Trackpoint>
          <Trackpoint>
            <Time>2020-02-15T09:44:57.000Z</Time>
            <Position>
              <LatitudeDegrees>41.96824860759079456329345703125</LatitudeDegrees>
              <LongitudeDegrees>2.87794447503983974456787109375</LongitudeDegrees>
            </Position>
            <AltitudeMeters>190.1999969482421875</AltitudeMeters>
            <DistanceMeters>NAN</DistanceMeters>
          </Trackpoint>
          <Trackpoint>
            <Time>2020-02-15T09:44:58.000Z</Time>
            <Position>
              <LatitudeDegrees>41.96824810467660427093505859375</LatitudeDegrees>
              <LongitudeDegrees>2.87798152305185794830322265625</LongitudeDegrees>
            </Position>
            <AltitudeMeters>190.1999969482421875</AltitudeMeters>
            <DistanceMeters>NAN</DistanceMeters>
          </Trackpoint>
          <Trackpoint>
            <Time>2020-02-15T09:44:59.000Z</Time>
            <Position>
              <LatitudeDegrees>41.9682473503053188323974609375</LatitudeDegrees>
              <LongitudeDegrees>2.87802192382514476776123046875</LongitudeDegrees>
            </Position>
            <AltitudeMeters>190.399993896484375</AltitudeMeters>
            <DistanceMeters>NAN</DistanceMeters>
          </Trackpoint>
          <Trackpoint>
            <Time>2020-02-15T09:45:01.000Z</Time>
            <Position>
              <LatitudeDegrees>41.96825447492301464080810546875</LatitudeDegrees>
              <LongitudeDegrees>2.87810121662914752960205078125</LongitudeDegrees>
            </Position>
            <AltitudeMeters>190.8000030517578125</AltitudeMeters>
            <DistanceMeters>NAN</DistanceMeters>
          </Trackpoint>
          <Trackpoint>
            <Time>2020-02-15T09:45:02.000Z</Time>
            <Position>
              <LatitudeDegrees>41.96826453320682048797607421875</LatitudeDegrees>
              <LongitudeDegrees>2.8781422041356563568115234375</LongitudeDegrees>
            </Position>
            <AltitudeMeters>191</AltitudeMeters>
            <DistanceMeters>NAN</DistanceMeters>
          </Trackpoint>
          <Trackpoint>
            <Time>2020-02-15T09:45:03.000Z</Time>
            <Position>
              <LatitudeDegrees>41.96828079409897327423095703125</LatitudeDegrees>
              <LongitudeDegrees>2.8781821019947528839111328125</LongitudeDegrees>
            </Position>
            <AltitudeMeters>191.1999969482421875</AltitudeMeters>
            <DistanceMeters>NAN</DistanceMeters>
          </Trackpoint>
          <Trackpoint>
            <Time>2020-02-15T09:45:04.000Z</Time>
            <Position>
              <LatitudeDegrees>41.96830124594271183013916015625</LatitudeDegrees>
              <LongitudeDegrees>2.87822149693965911865234375</LongitudeDegrees>
            </Position>
            <AltitudeMeters>191.1999969482421875</AltitudeMeters>
            <DistanceMeters>NAN</DistanceMeters>
          </Trackpoint>
          <Trackpoint>
            <Time>2020-02-15T09:45:05.000Z</Time>
            <Position>
              <LatitudeDegrees>41.9683206081390380859375</LatitudeDegrees>
              <LongitudeDegrees>2.87825963459908962249755859375</LongitudeDegrees>
            </Position>
            <AltitudeMeters>191.1999969482421875</AltitudeMeters>
            <DistanceMeters>NAN</DistanceMeters>
          </Trackpoint>
          <Trackpoint>
            <Time>2020-02-15T09:45:06.000Z</Time>
            <Position>
              <LatitudeDegrees>41.96833712048828601837158203125</LatitudeDegrees>
              <LongitudeDegrees>2.878294251859188079833984375</LongitudeDegrees>
            </Position>
            <AltitudeMeters>191.1999969482421875</AltitudeMeters>
            <DistanceMeters>NAN</DistanceMeters>
          </Trackpoint>
          <Trackpoint>
            <Time>2020-02-15T09:45:07.000Z</Time>
            <Position>
              <LatitudeDegrees>41.96835187263786792755126953125</LatitudeDegrees>
              <LongitudeDegrees>2.8783289529383182525634765625</LongitudeDegrees>
            </Position>
            <AltitudeMeters>191.1999969482421875</AltitudeMeters>
            <DistanceMeters>NAN</DistanceMeters>
          </Trackpoint>
          <Trackpoint>
            <Time>2020-02-15T09:45:08.000Z</Time>
            <Position>
              <LatitudeDegrees>41.968365870416164398193359375</LatitudeDegrees>
              <LongitudeDegrees>2.87836088798940181732177734375</LongitudeDegrees>
            </Position>
            <AltitudeMeters>191.1999969482421875</AltitudeMeters>
            <DistanceMeters>NAN</DistanceMeters>
          </Trackpoint>
          <Trackpoint>
            <Time>2020-02-15T09:45:09.000Z</Time>
            <Position>
              <LatitudeDegrees>41.96837802417576313018798828125</LatitudeDegrees>
              <LongitudeDegrees>2.8783909790217876434326171875</LongitudeDegrees>
            </Position>
            <AltitudeMeters>191.399993896484375</AltitudeMeters>
            <DistanceMeters>NAN</DistanceMeters>
          </Trackpoint>
          <Trackpoint>
            <Time>2020-02-15T09:45:10.000Z</Time>
            <Position>
              <LatitudeDegrees>41.9683881662786006927490234375</LatitudeDegrees>
              <LongitudeDegrees>2.8784188069403171539306640625</LongitudeDegrees>
            </Position>
            <AltitudeMeters>191.399993896484375</AltitudeMeters>
            <DistanceMeters>NAN</DistanceMeters>
          </Trackpoint>
          <Trackpoint>
            <Time>2020-02-15T09:45:11.000Z</Time>
            <Position>
              <LatitudeDegrees>41.96839562617242336273193359375</LatitudeDegrees>
              <LongitudeDegrees>2.87844336591660976409912109375</LongitudeDegrees>
            </Position>
            <AltitudeMeters>191.600006103515625</AltitudeMeters>
            <DistanceMeters>NAN</DistanceMeters>
          </Trackpoint>
          <Trackpoint>
            <Time>2020-02-15T09:45:12.000Z</Time>
            <Position>
              <LatitudeDegrees>41.96840442717075347900390625</LatitudeDegrees>
              <LongitudeDegrees>2.87846867926418781280517578125</LongitudeDegrees>
            </Position>
            <AltitudeMeters>191.600006103515625</AltitudeMeters>
            <DistanceMeters>NAN</DistanceMeters>
          </Trackpoint>
          <Trackpoint>
            <Time>2020-02-15T09:45:13.000Z</Time>
            <Position>
              <LatitudeDegrees>41.96841423399746417999267578125</LatitudeDegrees>
              <LongitudeDegrees>2.87849281914532184600830078125</LongitudeDegrees>
            </Position>
            <AltitudeMeters>191.600006103515625</AltitudeMeters>
            <DistanceMeters>NAN</DistanceMeters>
          </Trackpoint>
          <Trackpoint>
            <Time>2020-02-15T09:45:14.000Z</Time>
            <Position>
              <LatitudeDegrees>41.96842429228127002716064453125</LatitudeDegrees>
              <LongitudeDegrees>2.8785143606364727020263671875</LongitudeDegrees>
            </Position>
            <AltitudeMeters>191.600006103515625</AltitudeMeters>
            <DistanceMeters>NAN</DistanceMeters>
          </Trackpoint>
          <Trackpoint>
            <Time>2020-02-15T09:45:15.000Z</Time>
            <Position>
              <LatitudeDegrees>41.9684364460408687591552734375</LatitudeDegrees>
              <LongitudeDegrees>2.87853640504181385040283203125</LongitudeDegrees>
            </Position>
            <AltitudeMeters>191.600006103515625</AltitudeMeters>
            <DistanceMeters>NAN</DistanceMeters>
          </Trackpoint>
          <Trackpoint>
            <Time>2020-02-15T09:45:16.000Z</Time>
            <Position>
              <LatitudeDegrees>41.968449689447879791259765625</LatitudeDegrees>
              <LongitudeDegrees>2.87856037728488445281982421875</LongitudeDegrees>
            </Position>
            <AltitudeMeters>191.600006103515625</AltitudeMeters>
            <DistanceMeters>NAN</DistanceMeters>
          </Trackpoint>
          <Trackpoint>
            <Time>2020-02-15T09:45:17.000Z</Time>
            <Position>
              <LatitudeDegrees>41.96846134029328823089599609375</LatitudeDegrees>
              <LongitudeDegrees>2.87858502008020877838134765625</LongitudeDegrees>
            </Position>
            <AltitudeMeters>191.8000030517578125</AltitudeMeters>
            <DistanceMeters>NAN</DistanceMeters>
          </Trackpoint>
          <Trackpoint>
            <Time>2020-02-15T09:45:18.000Z</Time>
            <Position>
              <LatitudeDegrees>41.96847282350063323974609375</LatitudeDegrees>
              <LongitudeDegrees>2.87861016578972339630126953125</LongitudeDegrees>
            </Position>
            <AltitudeMeters>192</AltitudeMeters>
            <DistanceMeters>NAN</DistanceMeters>
          </Trackpoint>
          <Trackpoint>
            <Time>2020-02-15T09:45:19.000Z</Time>
            <Position>
              <LatitudeDegrees>41.9684847258031368255615234375</LatitudeDegrees>
              <LongitudeDegrees>2.8786370716989040374755859375</LongitudeDegrees>
            </Position>
            <AltitudeMeters>192.399993896484375</AltitudeMeters>
            <DistanceMeters>NAN</DistanceMeters>
          </Trackpoint>
          <Trackpoint>
            <Time>2020-02-15T09:45:20.000Z</Time>
            <Position>
              <LatitudeDegrees>41.96849503554403781890869140625</LatitudeDegrees>
              <LongitudeDegrees>2.8786632232367992401123046875</LongitudeDegrees>
            </Position>
            <AltitudeMeters>192.8000030517578125</AltitudeMeters>
            <DistanceMeters>NAN</DistanceMeters>
          </Trackpoint>
          <Trackpoint>
            <Time>2020-02-15T09:45:21.000Z</Time>
            <Position>
              <LatitudeDegrees>41.968503333628177642822265625</LatitudeDegrees>
              <LongitudeDegrees>2.87869163788855075836181640625</LongitudeDegrees>
            </Position>
            <AltitudeMeters>193.1999969482421875</AltitudeMeters>
            <DistanceMeters>NAN</DistanceMeters>
          </Trackpoint>
          <Trackpoint>
            <Time>2020-02-15T09:45:22.000Z</Time>
            <Position>
              <LatitudeDegrees>41.96851146407425403594970703125</LatitudeDegrees>
              <LongitudeDegrees>2.87872281856834888458251953125</LongitudeDegrees>
            </Position>
            <AltitudeMeters>193.399993896484375</AltitudeMeters>
            <DistanceMeters>NAN</DistanceMeters>
          </Trackpoint>
          <Trackpoint>
            <Time>2020-02-15T09:45:23.000Z</Time>
            <Position>
              <LatitudeDegrees>41.96851867251098155975341796875</LatitudeDegrees>
              <LongitudeDegrees>2.878754250705242156982421875</LongitudeDegrees>
            </Position>
            <AltitudeMeters>193.8000030517578125</AltitudeMeters>
            <DistanceMeters>NAN</DistanceMeters>
          </Trackpoint>
          <Trackpoint>
            <Time>2020-02-15T09:45:24.000Z</Time>
            <Position>
              <LatitudeDegrees>41.96852378547191619873046875</LatitudeDegrees>
              <LongitudeDegrees>2.8787832520902156829833984375</LongitudeDegrees>
            </Position>
            <AltitudeMeters>194.1999969482421875</AltitudeMeters>
            <DistanceMeters>NAN</DistanceMeters>
          </Trackpoint>
          <Trackpoint>
            <Time>2020-02-15T09:45:25.000Z</Time>
            <Position>
              <LatitudeDegrees>41.96852822788059711456298828125</LatitudeDegrees>
              <LongitudeDegrees>2.87881200201809406280517578125</LongitudeDegrees>
            </Position>
            <AltitudeMeters>194.399993896484375</AltitudeMeters>
            <DistanceMeters>NAN</DistanceMeters>
          </Trackpoint>
          <Trackpoint>
            <Time>2020-02-15T09:45:26.000Z</Time>
            <Position>
              <LatitudeDegrees>41.9685311615467071533203125</LatitudeDegrees>
              <LongitudeDegrees>2.878839075565338134765625</LongitudeDegrees>
            </Position>
            <AltitudeMeters>195</AltitudeMeters>
            <DistanceMeters>NAN</DistanceMeters>
          </Trackpoint>
          <Trackpoint>
            <Time>2020-02-15T09:45:27.000Z</Time>
            <Position>
              <LatitudeDegrees>41.968534179031848907470703125</LatitudeDegrees>
              <LongitudeDegrees>2.878864221274852752685546875</LongitudeDegrees>
            </Position>
            <AltitudeMeters>195</AltitudeMeters>
            <DistanceMeters>NAN</DistanceMeters>
          </Trackpoint>
          <Trackpoint>
            <Time>2020-02-15T09:45:28.000Z</Time>
            <Position>
              <LatitudeDegrees>41.9685392081737518310546875</LatitudeDegrees>
              <LongitudeDegrees>2.87888894788920879364013671875</LongitudeDegrees>
            </Position>
            <AltitudeMeters>195.399993896484375</AltitudeMeters>
            <DistanceMeters>NAN</DistanceMeters>
          </Trackpoint>
          <Trackpoint>
            <Time>2020-02-15T09:45:29.000Z</Time>
            <Position>
              <LatitudeDegrees>41.96854566223919391632080078125</LatitudeDegrees>
              <LongitudeDegrees>2.87891426123678684234619140625</LongitudeDegrees>
            </Position>
            <AltitudeMeters>196</AltitudeMeters>
            <DistanceMeters>NAN</DistanceMeters>
          </Trackpoint>
          <Trackpoint>
            <Time>2020-02-15T09:45:30.000Z</Time>
            <Position>
              <LatitudeDegrees>41.9685531221330165863037109375</LatitudeDegrees>
              <LongitudeDegrees>2.87893638946115970611572265625</LongitudeDegrees>
            </Position>
            <AltitudeMeters>196.399993896484375</AltitudeMeters>
            <DistanceMeters>NAN</DistanceMeters>
          </Trackpoint>
          <Trackpoint>
            <Time>2020-02-15T09:45:31.000Z</Time>
            <Position>
              <LatitudeDegrees>41.9685608334839344024658203125</LatitudeDegrees>
              <LongitudeDegrees>2.878957428038120269775390625</LongitudeDegrees>
            </Position>
            <AltitudeMeters>196.600006103515625</AltitudeMeters>
            <DistanceMeters>NAN</DistanceMeters>
          </Trackpoint>
          <Trackpoint>
            <Time>2020-02-15T09:45:32.000Z</Time>
            <Position>
              <LatitudeDegrees>41.96857198141515254974365234375</LatitudeDegrees>
              <LongitudeDegrees>2.87897628732025623321533203125</LongitudeDegrees>
            </Position>
            <AltitudeMeters>196.8000030517578125</AltitudeMeters>
            <DistanceMeters>NAN</DistanceMeters>
          </Trackpoint>
          <Trackpoint>
            <Time>2020-02-15T09:45:33.000Z</Time>
            <Position>
              <LatitudeDegrees>41.9685829617083072662353515625</LatitudeDegrees>
              <LongitudeDegrees>2.87899690680205821990966796875</LongitudeDegrees>
            </Position>
            <AltitudeMeters>197.1999969482421875</AltitudeMeters>
            <DistanceMeters>NAN</DistanceMeters>
          </Trackpoint>
          <Trackpoint>
            <Time>2020-02-15T09:45:34.000Z</Time>
            <Position>
              <LatitudeDegrees>41.96859410963952541351318359375</LatitudeDegrees>
              <LongitudeDegrees>2.8790179453790187835693359375</LongitudeDegrees>
            </Position>
            <AltitudeMeters>197.1999969482421875</AltitudeMeters>
            <DistanceMeters>NAN</DistanceMeters>
          </Trackpoint>
          <Trackpoint>
            <Time>2020-02-15T09:45:35.000Z</Time>
            <Position>
              <LatitudeDegrees>41.9686057604849338531494140625</LatitudeDegrees>
              <LongitudeDegrees>2.87903814576566219329833984375</LongitudeDegrees>
            </Position>
            <AltitudeMeters>197.399993896484375</AltitudeMeters>
            <DistanceMeters>NAN</DistanceMeters>
          </Trackpoint>
          <Trackpoint>
            <Time>2020-02-15T09:45:36.000Z</Time>
            <Position>
              <LatitudeDegrees>41.9686201773583889007568359375</LatitudeDegrees>
              <LongitudeDegrees>2.87905859760940074920654296875</LongitudeDegrees>
            </Position>
            <AltitudeMeters>197.600006103515625</AltitudeMeters>
            <DistanceMeters>NAN</DistanceMeters>
          </Trackpoint>
          <Trackpoint>
            <Time>2020-02-15T09:45:37.000Z</Time>
            <Position>
              <LatitudeDegrees>41.968632750213146209716796875</LatitudeDegrees>
              <LongitudeDegrees>2.8790772892534732818603515625</LongitudeDegrees>
            </Position>
            <AltitudeMeters>197.600006103515625</AltitudeMeters>
            <DistanceMeters>NAN</DistanceMeters>
          </Trackpoint>
          <Trackpoint>
            <Time>2020-02-15T09:45:38.000Z</Time>
            <Position>
              <LatitudeDegrees>41.96864507161080837249755859375</LatitudeDegrees>
              <LongitudeDegrees>2.8790970705449581146240234375</LongitudeDegrees>
            </Position>
            <AltitudeMeters>197.8000030517578125</AltitudeMeters>
            <DistanceMeters>NAN</DistanceMeters>
          </Trackpoint>
          <Trackpoint>
            <Time>2020-02-15T09:45:39.000Z</Time>
            <Position>
              <LatitudeDegrees>41.96865747682750225067138671875</LatitudeDegrees>
              <LongitudeDegrees>2.87911978550255298614501953125</LongitudeDegrees>
            </Position>
            <AltitudeMeters>198</AltitudeMeters>
            <DistanceMeters>NAN</DistanceMeters>
          </Trackpoint>
          <Trackpoint>
            <Time>2020-02-15T09:45:40.000Z</Time>
            <Position>
              <LatitudeDegrees>41.96866787038743495941162109375</LatitudeDegrees>
              <LongitudeDegrees>2.87914392538368701934814453125</LongitudeDegrees>
            </Position>
            <AltitudeMeters>198.1999969482421875</AltitudeMeters>
            <DistanceMeters>NAN</DistanceMeters>
          </Trackpoint>
          <Trackpoint>
            <Time>2020-02-15T09:45:41.000Z</Time>
            <Position>
              <LatitudeDegrees>41.9686741568148136138916015625</LatitudeDegrees>
              <LongitudeDegrees>2.87916772998869419097900390625</LongitudeDegrees>
            </Position>
            <AltitudeMeters>198.8000030517578125</AltitudeMeters>
            <DistanceMeters>NAN</DistanceMeters>
          </Trackpoint>
          <Trackpoint>
            <Time>2020-02-15T09:45:42.000Z</Time>
            <Position>
              <LatitudeDegrees>41.96868069469928741455078125</LatitudeDegrees>
              <LongitudeDegrees>2.879190780222415924072265625</LongitudeDegrees>
            </Position>
            <AltitudeMeters>199</AltitudeMeters>
            <DistanceMeters>NAN</DistanceMeters>
          </Trackpoint>
          <Trackpoint>
            <Time>2020-02-15T09:45:43.000Z</Time>
            <Position>
              <LatitudeDegrees>41.96868664585053920745849609375</LatitudeDegrees>
              <LongitudeDegrees>2.87921332754194736480712890625</LongitudeDegrees>
            </Position>
            <AltitudeMeters>199</AltitudeMeters>
            <DistanceMeters>NAN</DistanceMeters>
          </Trackpoint>
          <Trackpoint>
            <Time>2020-02-15T09:45:44.000Z</Time>
            <Position>
              <LatitudeDegrees>41.968691758811473846435546875</LatitudeDegrees>
              <LongitudeDegrees>2.8792355395853519439697265625</LongitudeDegrees>
            </Position>
            <AltitudeMeters>199.1999969482421875</AltitudeMeters>
            <DistanceMeters>NAN</DistanceMeters>
          </Trackpoint>
          <Trackpoint>
            <Time>2020-02-15T09:45:45.000Z</Time>
            <Position>
              <LatitudeDegrees>41.968697123229503631591796875</LatitudeDegrees>
              <LongitudeDegrees>2.8792566619813442230224609375</LongitudeDegrees>
            </Position>
            <AltitudeMeters>199.600006103515625</AltitudeMeters>
            <DistanceMeters>NAN</DistanceMeters>
          </Trackpoint>
          <Trackpoint>
            <Time>2020-02-15T09:45:46.000Z</Time>
            <Position>
              <LatitudeDegrees>41.9687028229236602783203125</LatitudeDegrees>
              <LongitudeDegrees>2.8792811371386051177978515625</LongitudeDegrees>
            </Position>
            <AltitudeMeters>199.8000030517578125</AltitudeMeters>
            <DistanceMeters>NAN</DistanceMeters>
          </Trackpoint>
          <Trackpoint>
            <Time>2020-02-15T09:45:47.000Z</Time>
            <Position>
              <LatitudeDegrees>41.9687093608081340789794921875</LatitudeDegrees>
              <LongitudeDegrees>2.879306785762310028076171875</LongitudeDegrees>
            </Position>
            <AltitudeMeters>200.1999969482421875</AltitudeMeters>
            <DistanceMeters>NAN</DistanceMeters>
          </Trackpoint>
          <Trackpoint>
            <Time>2020-02-15T09:45:48.000Z</Time>
            <Position>
              <LatitudeDegrees>41.96871749125421047210693359375</LatitudeDegrees>
              <LongitudeDegrees>2.8793324343860149383544921875</LongitudeDegrees>
            </Position>
            <AltitudeMeters>200.399993896484375</AltitudeMeters>
            <DistanceMeters>NAN</DistanceMeters>
          </Trackpoint>
          <Trackpoint>
            <Time>2020-02-15T09:45:49.000Z</Time>
            <Position>
              <LatitudeDegrees>41.96872889064252376556396484375</LatitudeDegrees>
              <LongitudeDegrees>2.8793552331626415252685546875</LongitudeDegrees>
            </Position>
            <AltitudeMeters>200.399993896484375</AltitudeMeters>
            <DistanceMeters>NAN</DistanceMeters>
          </Trackpoint>
          <Trackpoint>
            <Time>2020-02-15T09:45:50.000Z</Time>
            <Position>
              <LatitudeDegrees>41.96874196641147136688232421875</LatitudeDegrees>
              <LongitudeDegrees>2.8793773613870143890380859375</LongitudeDegrees>
            </Position>
            <AltitudeMeters>200.8000030517578125</AltitudeMeters>
            <DistanceMeters>NAN</DistanceMeters>
          </Trackpoint>
          <Trackpoint>
            <Time>2020-02-15T09:45:51.000Z</Time>
            <Position>
              <LatitudeDegrees>41.96875353343784809112548828125</LatitudeDegrees>
              <LongitudeDegrees>2.87940342910587787628173828125</LongitudeDegrees>
            </Position>
            <AltitudeMeters>201.1999969482421875</AltitudeMeters>
            <DistanceMeters>NAN</DistanceMeters>
          </Trackpoint>
          <Trackpoint>
            <Time>2020-02-15T09:45:52.000Z</Time>
            <Position>
              <LatitudeDegrees>41.9687663577497005462646484375</LatitudeDegrees>
              <LongitudeDegrees>2.87943377159535884857177734375</LongitudeDegrees>
            </Position>
            <AltitudeMeters>201.600006103515625</AltitudeMeters>
            <DistanceMeters>NAN</DistanceMeters>
          </Trackpoint>
          <Trackpoint>
            <Time>2020-02-15T09:45:53.000Z</Time>
            <Position>
              <LatitudeDegrees>41.96877918206155300140380859375</LatitudeDegrees>
              <LongitudeDegrees>2.87946210242807865142822265625</LongitudeDegrees>
            </Position>
            <AltitudeMeters>201.8000030517578125</AltitudeMeters>
            <DistanceMeters>NAN</DistanceMeters>
          </Trackpoint>
          <Trackpoint>
            <Time>2020-02-15T09:45:54.000Z</Time>
            <Position>
              <LatitudeDegrees>41.968789994716644287109375</LatitudeDegrees>
              <LongitudeDegrees>2.8794846497476100921630859375</LongitudeDegrees>
            </Position>
            <AltitudeMeters>202</AltitudeMeters>
            <DistanceMeters>NAN</DistanceMeters>
          </Trackpoint>
          <Trackpoint>
            <Time>2020-02-15T09:45:55.000Z</Time>
            <Position>
              <LatitudeDegrees>41.9688039086759090423583984375</LatitudeDegrees>
              <LongitudeDegrees>2.879509627819061279296875</LongitudeDegrees>
            </Position>
            <AltitudeMeters>202</AltitudeMeters>
            <DistanceMeters>NAN</DistanceMeters>
          </Trackpoint>
          <Trackpoint>
            <Time>2020-02-15T09:45:56.000Z</Time>
            <Position>
              <LatitudeDegrees>41.9688166491687297821044921875</LatitudeDegrees>
              <LongitudeDegrees>2.87953519262373447418212890625</LongitudeDegrees>
            </Position>
            <AltitudeMeters>202.1999969482421875</AltitudeMeters>
            <DistanceMeters>NAN</DistanceMeters>
          </Trackpoint>
          <Trackpoint>
            <Time>2020-02-15T09:45:59.000Z</Time>
            <Position>
              <LatitudeDegrees>41.96885503828525543212890625</LatitudeDegrees>
              <LongitudeDegrees>2.8796368651092052459716796875</LongitudeDegrees>
            </Position>
            <AltitudeMeters>202.399993896484375</AltitudeMeters>
            <DistanceMeters>NAN</DistanceMeters>
          </Trackpoint>
          <Trackpoint>
            <Time>2020-02-15T09:46:02.000Z</Time>
            <Position>
              <LatitudeDegrees>41.96888781152665615081787109375</LatitudeDegrees>
              <LongitudeDegrees>2.879745662212371826171875</LongitudeDegrees>
            </Position>
            <AltitudeMeters>203</AltitudeMeters>
            <DistanceMeters>NAN</DistanceMeters>
          </Trackpoint>
          <Trackpoint>
            <Time>2020-02-15T09:46:03.000Z</Time>
            <Position>
              <LatitudeDegrees>41.96889267303049564361572265625</LatitudeDegrees>
              <LongitudeDegrees>2.87977206520736217498779296875</LongitudeDegrees>
            </Position>
            <AltitudeMeters>202.8000030517578125</AltitudeMeters>
            <DistanceMeters>NAN</DistanceMeters>
          </Trackpoint>
          <Trackpoint>
            <Time>2020-02-15T09:46:04.000Z</Time>
            <Position>
              <LatitudeDegrees>41.96890004910528659820556640625</LatitudeDegrees>
              <LongitudeDegrees>2.879804335534572601318359375</LongitudeDegrees>
            </Position>
            <AltitudeMeters>203</AltitudeMeters>
            <DistanceMeters>NAN</DistanceMeters>
          </Trackpoint>
          <Trackpoint>
            <Time>2020-02-15T09:46:05.000Z</Time>
            <Position>
              <LatitudeDegrees>41.9689138792455196380615234375</LatitudeDegrees>
              <LongitudeDegrees>2.87983627058565616607666015625</LongitudeDegrees>
            </Position>
            <AltitudeMeters>203</AltitudeMeters>
            <DistanceMeters>NAN</DistanceMeters>
          </Trackpoint>
          <Trackpoint>
            <Time>2020-02-15T09:46:06.000Z</Time>
            <Position>
              <LatitudeDegrees>41.96892720647156238555908203125</LatitudeDegrees>
              <LongitudeDegrees>2.87986879236996173858642578125</LongitudeDegrees>
            </Position>
            <AltitudeMeters>203.1999969482421875</AltitudeMeters>
            <DistanceMeters>NAN</DistanceMeters>
          </Trackpoint>
          <Trackpoint>
            <Time>2020-02-15T09:46:07.000Z</Time>
            <Position>
              <LatitudeDegrees>41.96894078515470027923583984375</LatitudeDegrees>
              <LongitudeDegrees>2.879897542297840118408203125</LongitudeDegrees>
            </Position>
            <AltitudeMeters>203.1999969482421875</AltitudeMeters>
            <DistanceMeters>NAN</DistanceMeters>
          </Trackpoint>
          <Trackpoint>
            <Time>2020-02-15T09:46:08.000Z</Time>
            <Position>
              <LatitudeDegrees>41.96895168162882328033447265625</LatitudeDegrees>
              <LongitudeDegrees>2.8799231909215450286865234375</LongitudeDegrees>
            </Position>
            <AltitudeMeters>203.1999969482421875</AltitudeMeters>
            <DistanceMeters>NAN</DistanceMeters>
          </Trackpoint>
          <Trackpoint>
            <Time>2020-02-15T09:46:09.000Z</Time>
            <Position>
              <LatitudeDegrees>41.96896140463650226593017578125</LatitudeDegrees>
              <LongitudeDegrees>2.8799550421535968780517578125</LongitudeDegrees>
            </Position>
            <AltitudeMeters>203</AltitudeMeters>
            <DistanceMeters>NAN</DistanceMeters>
          </Trackpoint>
          <Trackpoint>
            <Time>2020-02-15T09:46:10.000Z</Time>
            <Position>
              <LatitudeDegrees>41.96896576322615146636962890625</LatitudeDegrees>
              <LongitudeDegrees>2.8799946047365665435791015625</LongitudeDegrees>
            </Position>
            <AltitudeMeters>203.1999969482421875</AltitudeMeters>
            <DistanceMeters>NAN</DistanceMeters>
          </Trackpoint>
          <Trackpoint>
            <Time>2020-02-15T09:46:11.000Z</Time>
            <Position>
              <LatitudeDegrees>41.96897012181580066680908203125</LatitudeDegrees>
              <LongitudeDegrees>2.88004045374691486358642578125</LongitudeDegrees>
            </Position>
            <AltitudeMeters>203.1999969482421875</AltitudeMeters>
            <DistanceMeters>NAN</DistanceMeters>
          </Trackpoint>
          <Trackpoint>
            <Time>2020-02-15T09:46:12.000Z</Time>
            <Position>
              <LatitudeDegrees>41.968969367444515228271484375</LatitudeDegrees>
              <LongitudeDegrees>2.880089320242404937744140625</LongitudeDegrees>
            </Position>
            <AltitudeMeters>203.1999969482421875</AltitudeMeters>
            <DistanceMeters>NAN</DistanceMeters>
          </Trackpoint>
          <Trackpoint>
            <Time>2020-02-15T09:46:13.000Z</Time>
            <Position>
              <LatitudeDegrees>41.96896844543516635894775390625</LatitudeDegrees>
              <LongitudeDegrees>2.88013399578630924224853515625</LongitudeDegrees>
            </Position>
            <AltitudeMeters>203.1999969482421875</AltitudeMeters>
            <DistanceMeters>NAN</DistanceMeters>
          </Trackpoint>
          <Trackpoint>
            <Time>2020-02-15T09:46:14.000Z</Time>
            <Position>
              <LatitudeDegrees>41.9689735583961009979248046875</LatitudeDegrees>
              <LongitudeDegrees>2.88018646650016307830810546875</LongitudeDegrees>
            </Position>
            <AltitudeMeters>203.399993896484375</AltitudeMeters>
            <DistanceMeters>NAN</DistanceMeters>
          </Trackpoint>
          <Trackpoint>
            <Time>2020-02-15T09:46:15.000Z</Time>
            <Position>
              <LatitudeDegrees>41.96898420341312885284423828125</LatitudeDegrees>
              <LongitudeDegrees>2.8802353329956531524658203125</LongitudeDegrees>
            </Position>
            <AltitudeMeters>203.600006103515625</AltitudeMeters>
            <DistanceMeters>NAN</DistanceMeters>
          </Trackpoint>
          <Trackpoint>
            <Time>2020-02-15T09:46:16.000Z</Time>
            <Position>
              <LatitudeDegrees>41.969000212848186492919921875</LatitudeDegrees>
              <LongitudeDegrees>2.880279086530208587646484375</LongitudeDegrees>
            </Position>
            <AltitudeMeters>203.600006103515625</AltitudeMeters>
            <DistanceMeters>NAN</DistanceMeters>
          </Trackpoint>
          <Trackpoint>
            <Time>2020-02-15T09:46:17.000Z</Time>
            <Position>
              <LatitudeDegrees>41.969020329415798187255859375</LatitudeDegrees>
              <LongitudeDegrees>2.8803178109228610992431640625</LongitudeDegrees>
            </Position>
            <AltitudeMeters>203.399993896484375</AltitudeMeters>
            <DistanceMeters>NAN</DistanceMeters>
          </Trackpoint>
          <Trackpoint>
            <Time>2020-02-15T09:46:18.000Z</Time>
            <Position>
              <LatitudeDegrees>41.9690416194498538970947265625</LatitudeDegrees>
              <LongitudeDegrees>2.8803510032594203948974609375</LongitudeDegrees>
            </Position>
            <AltitudeMeters>203.600006103515625</AltitudeMeters>
            <DistanceMeters>NAN</DistanceMeters>
          </Trackpoint>
          <Trackpoint>
            <Time>2020-02-15T09:46:19.000Z</Time>
            <Position>
              <LatitudeDegrees>41.96906701661646366119384765625</LatitudeDegrees>
              <LongitudeDegrees>2.8803828544914722442626953125</LongitudeDegrees>
            </Position>
            <AltitudeMeters>203.600006103515625</AltitudeMeters>
            <DistanceMeters>NAN</DistanceMeters>
          </Trackpoint>
          <Trackpoint>
            <Time>2020-02-15T09:46:20.000Z</Time>
            <Position>
              <LatitudeDegrees>41.96909241378307342529296875</LatitudeDegrees>
              <LongitudeDegrees>2.8804133646190166473388671875</LongitudeDegrees>
            </Position>
            <AltitudeMeters>203.8000030517578125</AltitudeMeters>
            <DistanceMeters>NAN</DistanceMeters>
          </Trackpoint>
          <Trackpoint>
            <Time>2020-02-15T09:46:22.000Z</Time>
            <Position>
              <LatitudeDegrees>41.969143711030483245849609375</LatitudeDegrees>
              <LongitudeDegrees>2.8804713673889636993408203125</LongitudeDegrees>
            </Position>
            <AltitudeMeters>203.8000030517578125</AltitudeMeters>
            <DistanceMeters>NAN</DistanceMeters>
          </Trackpoint>
          <Trackpoint>
            <Time>2020-02-15T09:46:23.000Z</Time>
            <Position>
              <LatitudeDegrees>41.96916961111128330230712890625</LatitudeDegrees>
              <LongitudeDegrees>2.880497016012668609619140625</LongitudeDegrees>
            </Position>
            <AltitudeMeters>203.8000030517578125</AltitudeMeters>
            <DistanceMeters>NAN</DistanceMeters>
          </Trackpoint>
          <Trackpoint>
            <Time>2020-02-15T09:46:24.000Z</Time>
            <Position>
              <LatitudeDegrees>41.969196014106273651123046875</LatitudeDegrees>
              <LongitudeDegrees>2.8805186413228511810302734375</LongitudeDegrees>
            </Position>
            <AltitudeMeters>203.8000030517578125</AltitudeMeters>
            <DistanceMeters>NAN</DistanceMeters>
          </Trackpoint>
          <Trackpoint>
            <Time>2020-02-15T09:46:25.000Z</Time>
            <Position>
              <LatitudeDegrees>41.9692236743867397308349609375</LatitudeDegrees>
              <LongitudeDegrees>2.8805380873382091522216796875</LongitudeDegrees>
            </Position>
            <AltitudeMeters>203.8000030517578125</AltitudeMeters>
            <DistanceMeters>NAN</DistanceMeters>
          </Trackpoint>
          <Trackpoint>
            <Time>2020-02-15T09:46:26.000Z</Time>
            <Position>
              <LatitudeDegrees>41.96924638934433460235595703125</LatitudeDegrees>
              <LongitudeDegrees>2.88055510260164737701416015625</LongitudeDegrees>
            </Position>
            <AltitudeMeters>204</AltitudeMeters>
            <DistanceMeters>NAN</DistanceMeters>
          </Trackpoint>
          <Trackpoint>
            <Time>2020-02-15T09:46:27.000Z</Time>
            <Position>
              <LatitudeDegrees>41.969267092645168304443359375</LatitudeDegrees>
              <LongitudeDegrees>2.88057052530348300933837890625</LongitudeDegrees>
            </Position>
            <AltitudeMeters>204</AltitudeMeters>
            <DistanceMeters>NAN</DistanceMeters>
          </Trackpoint>
          <Trackpoint>
            <Time>2020-02-15T09:46:28.000Z</Time>
            <Position>
              <LatitudeDegrees>41.96928595192730426788330078125</LatitudeDegrees>
              <LongitudeDegrees>2.880583517253398895263671875</LongitudeDegrees>
            </Position>
            <AltitudeMeters>204</AltitudeMeters>
            <DistanceMeters>NAN</DistanceMeters>
          </Trackpoint>
          <Trackpoint>
            <Time>2020-02-15T09:46:29.000Z</Time>
            <Position>
              <LatitudeDegrees>41.96930288337171077728271484375</LatitudeDegrees>
              <LongitudeDegrees>2.880596257746219635009765625</LongitudeDegrees>
            </Position>
            <AltitudeMeters>204</AltitudeMeters>
            <DistanceMeters>NAN</DistanceMeters>
          </Trackpoint>
          <Trackpoint>
            <Time>2020-02-15T09:46:30.000Z</Time>
            <Position>
              <LatitudeDegrees>41.96931931190192699432373046875</LatitudeDegrees>
              <LongitudeDegrees>2.88060891442000865936279296875</LongitudeDegrees>
            </Position>
            <AltitudeMeters>203.8000030517578125</AltitudeMeters>
            <DistanceMeters>NAN</DistanceMeters>
          </Trackpoint>
          <Trackpoint>
            <Time>2020-02-15T09:46:31.000Z</Time>
            <Position>
              <LatitudeDegrees>41.96933356113731861114501953125</LatitudeDegrees>
              <LongitudeDegrees>2.88061981089413166046142578125</LongitudeDegrees>
            </Position>
            <AltitudeMeters>204</AltitudeMeters>
            <DistanceMeters>NAN</DistanceMeters>
          </Trackpoint>
          <Trackpoint>
            <Time>2020-02-15T09:46:32.000Z</Time>
            <Position>
              <LatitudeDegrees>41.96934496052563190460205078125</LatitudeDegrees>
              <LongitudeDegrees>2.880631126463413238525390625</LongitudeDegrees>
            </Position>
            <AltitudeMeters>204.1999969482421875</AltitudeMeters>
            <DistanceMeters>NAN</DistanceMeters>
          </Trackpoint>
          <Trackpoint>
            <Time>2020-02-15T09:46:33.000Z</Time>
            <Position>
              <LatitudeDegrees>41.96935384534299373626708984375</LatitudeDegrees>
              <LongitudeDegrees>2.88064219057559967041015625</LongitudeDegrees>
            </Position>
            <AltitudeMeters>204.1999969482421875</AltitudeMeters>
            <DistanceMeters>NAN</DistanceMeters>
          </Trackpoint>
          <Trackpoint>
            <Time>2020-02-15T09:46:34.000Z</Time>
            <Position>
              <LatitudeDegrees>41.96936407126486301422119140625</LatitudeDegrees>
              <LongitudeDegrees>2.88065501488745212554931640625</LongitudeDegrees>
            </Position>
            <AltitudeMeters>204.1999969482421875</AltitudeMeters>
            <DistanceMeters>NAN</DistanceMeters>
          </Trackpoint>
          <Trackpoint>
            <Time>2020-02-15T09:46:35.000Z</Time>
            <Position>
              <LatitudeDegrees>41.9693735428154468536376953125</LatitudeDegrees>
              <LongitudeDegrees>2.88066498935222625732421875</LongitudeDegrees>
            </Position>
            <AltitudeMeters>204.399993896484375</AltitudeMeters>
            <DistanceMeters>NAN</DistanceMeters>
          </Trackpoint>
          <Trackpoint>
            <Time>2020-02-15T09:46:36.000Z</Time>
            <Position>
              <LatitudeDegrees>41.96938150562345981597900390625</LatitudeDegrees>
              <LongitudeDegrees>2.88067194633185863494873046875</LongitudeDegrees>
            </Position>
            <AltitudeMeters>204.399993896484375</AltitudeMeters>
            <DistanceMeters>NAN</DistanceMeters>
          </Trackpoint>
          <Trackpoint>
            <Time>2020-02-15T09:46:37.000Z</Time>
            <Position>
              <LatitudeDegrees>41.96939055807888507843017578125</LatitudeDegrees>
              <LongitudeDegrees>2.88068552501499652862548828125</LongitudeDegrees>
            </Position>
            <AltitudeMeters>204.399993896484375</AltitudeMeters>
            <DistanceMeters>NAN</DistanceMeters>
          </Trackpoint>
          <Trackpoint>
            <Time>2020-02-15T09:46:38.000Z</Time>
            <Position>
              <LatitudeDegrees>41.96940086781978607177734375</LatitudeDegrees>
              <LongitudeDegrees>2.8807040490210056304931640625</LongitudeDegrees>
            </Position>
            <AltitudeMeters>205</AltitudeMeters>
            <DistanceMeters>NAN</DistanceMeters>
          </Trackpoint>
          <Trackpoint>
            <Time>2020-02-15T09:46:41.000Z</Time>
            <Position>
              <LatitudeDegrees>41.969430707395076751708984375</LatitudeDegrees>
              <LongitudeDegrees>2.88076917640864849090576171875</LongitudeDegrees>
            </Position>
            <AltitudeMeters>205.8000030517578125</AltitudeMeters>
            <DistanceMeters>NAN</DistanceMeters>
          </Trackpoint>
          <Trackpoint>
            <Time>2020-02-15T09:46:44.000Z</Time>
            <Position>
              <LatitudeDegrees>41.969461552798748016357421875</LatitudeDegrees>
              <LongitudeDegrees>2.88083706982433795928955078125</LongitudeDegrees>
            </Position>
            <AltitudeMeters>206</AltitudeMeters>
            <DistanceMeters>NAN</DistanceMeters>
          </Trackpoint>
          <Trackpoint>
            <Time>2020-02-15T09:46:45.000Z</Time>
            <Position>
              <LatitudeDegrees>41.969471611082553863525390625</LatitudeDegrees>
              <LongitudeDegrees>2.8808592818677425384521484375</LongitudeDegrees>
            </Position>
            <AltitudeMeters>206</AltitudeMeters>
            <DistanceMeters>NAN</DistanceMeters>
          </Trackpoint>
          <Trackpoint>
            <Time>2020-02-15T09:46:46.000Z</Time>
            <Position>
              <LatitudeDegrees>41.96948041208088397979736328125</LatitudeDegrees>
              <LongitudeDegrees>2.88088199682533740997314453125</LongitudeDegrees>
            </Position>
            <AltitudeMeters>206</AltitudeMeters>
            <DistanceMeters>NAN</DistanceMeters>
          </Trackpoint>
          <Trackpoint>
            <Time>2020-02-15T09:46:48.000Z</Time>
            <Position>
              <LatitudeDegrees>41.96949818171560764312744140625</LatitudeDegrees>
              <LongitudeDegrees>2.880932204425334930419921875</LongitudeDegrees>
            </Position>
            <AltitudeMeters>206.1999969482421875</AltitudeMeters>
            <DistanceMeters>NAN</DistanceMeters>
          </Trackpoint>
          <Trackpoint>
            <Time>2020-02-15T09:46:51.000Z</Time>
            <Position>
              <LatitudeDegrees>41.96953003294765949249267578125</LatitudeDegrees>
              <LongitudeDegrees>2.8810071386396884918212890625</LongitudeDegrees>
            </Position>
            <AltitudeMeters>206</AltitudeMeters>
            <DistanceMeters>NAN</DistanceMeters>
          </Trackpoint>
          <Trackpoint>
            <Time>2020-02-15T09:46:52.000Z</Time>
            <Position>
              <LatitudeDegrees>41.969539336860179901123046875</LatitudeDegrees>
              <LongitudeDegrees>2.88103102706372737884521484375</LongitudeDegrees>
            </Position>
            <AltitudeMeters>206.1999969482421875</AltitudeMeters>
            <DistanceMeters>NAN</DistanceMeters>
          </Trackpoint>
          <Trackpoint>
            <Time>2020-02-15T09:46:53.000Z</Time>
            <Position>
              <LatitudeDegrees>41.96954780258238315582275390625</LatitudeDegrees>
              <LongitudeDegrees>2.88105650804936885833740234375</LongitudeDegrees>
            </Position>
            <AltitudeMeters>206.1999969482421875</AltitudeMeters>
            <DistanceMeters>NAN</DistanceMeters>
          </Trackpoint>
          <Trackpoint>
            <Time>2020-02-15T09:46:55.000Z</Time>
            <Position>
              <LatitudeDegrees>41.96956406347453594207763671875</LatitudeDegrees>
              <LongitudeDegrees>2.88109816610813140869140625</LongitudeDegrees>
            </Position>
            <AltitudeMeters>206.1999969482421875</AltitudeMeters>
            <DistanceMeters>NAN</DistanceMeters>
          </Trackpoint>
          <Trackpoint>
            <Time>2020-02-15T09:46:56.000Z</Time>
            <Position>
              <LatitudeDegrees>41.9695740379393100738525390625</LatitudeDegrees>
              <LongitudeDegrees>2.88112071342766284942626953125</LongitudeDegrees>
            </Position>
            <AltitudeMeters>206.399993896484375</AltitudeMeters>
            <DistanceMeters>NAN</DistanceMeters>
          </Trackpoint>
          <Trackpoint>
            <Time>2020-02-15T09:46:58.000Z</Time>
            <Position>
              <LatitudeDegrees>41.9695954956114292144775390625</LatitudeDegrees>
              <LongitudeDegrees>2.8811593540012836456298828125</LongitudeDegrees>
            </Position>
            <AltitudeMeters>206.399993896484375</AltitudeMeters>
            <DistanceMeters>NAN</DistanceMeters>
          </Trackpoint>
          <Trackpoint>
            <Time>2020-02-15T09:46:59.000Z</Time>
            <Position>
              <LatitudeDegrees>41.96960748173296451568603515625</LatitudeDegrees>
              <LongitudeDegrees>2.8811814822256565093994140625</LongitudeDegrees>
            </Position>
            <AltitudeMeters>206.399993896484375</AltitudeMeters>
            <DistanceMeters>NAN</DistanceMeters>
          </Trackpoint>
          <Trackpoint>
            <Time>2020-02-15T09:47:00.000Z</Time>
            <Position>
              <LatitudeDegrees>41.9696228206157684326171875</LatitudeDegrees>
              <LongitudeDegrees>2.88120386190712451934814453125</LongitudeDegrees>
            </Position>
            <AltitudeMeters>206.399993896484375</AltitudeMeters>
            <DistanceMeters>NAN</DistanceMeters>
          </Trackpoint>
          <Trackpoint>
            <Time>2020-02-15T09:47:01.000Z</Time>
            <Position>
              <LatitudeDegrees>41.969639249145984649658203125</LatitudeDegrees>
              <LongitudeDegrees>2.88122599013149738311767578125</LongitudeDegrees>
            </Position>
            <AltitudeMeters>206.600006103515625</AltitudeMeters>
            <DistanceMeters>NAN</DistanceMeters>
          </Trackpoint>
          <Trackpoint>
            <Time>2020-02-15T09:47:06.000Z</Time>
            <Position>
              <LatitudeDegrees>41.96972214616835117340087890625</LatitudeDegrees>
              <LongitudeDegrees>2.88134685717523097991943359375</LongitudeDegrees>
            </Position>
            <AltitudeMeters>206.600006103515625</AltitudeMeters>
            <DistanceMeters>NAN</DistanceMeters>
          </Trackpoint>
          <Trackpoint>
            <Time>2020-02-15T09:47:07.000Z</Time>
            <Position>
              <LatitudeDegrees>41.9697342999279499053955078125</LatitudeDegrees>
              <LongitudeDegrees>2.8813638724386692047119140625</LongitudeDegrees>
            </Position>
            <AltitudeMeters>206.8000030517578125</AltitudeMeters>
            <DistanceMeters>NAN</DistanceMeters>
          </Trackpoint>
          <Trackpoint>
            <Time>2020-02-15T09:47:08.000Z</Time>
            <Position>
              <LatitudeDegrees>41.9697470404207706451416015625</LatitudeDegrees>
              <LongitudeDegrees>2.88138139061629772186279296875</LongitudeDegrees>
            </Position>
            <AltitudeMeters>206.8000030517578125</AltitudeMeters>
            <DistanceMeters>NAN</DistanceMeters>
          </Trackpoint>
          <Trackpoint>
            <Time>2020-02-15T09:47:09.000Z</Time>
            <Position>
              <LatitudeDegrees>41.9697631336748600006103515625</LatitudeDegrees>
              <LongitudeDegrees>2.88140050135552883148193359375</LongitudeDegrees>
            </Position>
            <AltitudeMeters>206.8000030517578125</AltitudeMeters>
            <DistanceMeters>NAN</DistanceMeters>
          </Trackpoint>
          <Trackpoint>
            <Time>2020-02-15T09:47:14.000Z</Time>
            <Position>
              <LatitudeDegrees>41.9698617048561573028564453125</LatitudeDegrees>
              <LongitudeDegrees>2.88148440420627593994140625</LongitudeDegrees>
            </Position>
            <AltitudeMeters>207</AltitudeMeters>
            <DistanceMeters>NAN</DistanceMeters>
          </Trackpoint>
          <Trackpoint>
            <Time>2020-02-15T09:47:15.000Z</Time>
            <Position>
              <LatitudeDegrees>41.96988156996667385101318359375</LatitudeDegrees>
              <LongitudeDegrees>2.88149454630911350250244140625</LongitudeDegrees>
            </Position>
            <AltitudeMeters>207.1999969482421875</AltitudeMeters>
            <DistanceMeters>NAN</DistanceMeters>
          </Trackpoint>
          <Trackpoint>
            <Time>2020-02-15T09:47:16.000Z</Time>
            <Position>
              <LatitudeDegrees>41.96990252472460269927978515625</LatitudeDegrees>
              <LongitudeDegrees>2.88150192238390445709228515625</LongitudeDegrees>
            </Position>
            <AltitudeMeters>207</AltitudeMeters>
            <DistanceMeters>NAN</DistanceMeters>
          </Trackpoint>
          <Trackpoint>
            <Time>2020-02-15T09:47:17.000Z</Time>
            <Position>
              <LatitudeDegrees>41.9699244014918804168701171875</LatitudeDegrees>
              <LongitudeDegrees>2.88150812499225139617919921875</LongitudeDegrees>
            </Position>
            <AltitudeMeters>207.1999969482421875</AltitudeMeters>
            <DistanceMeters>NAN</DistanceMeters>
          </Trackpoint>
          <Trackpoint>
            <Time>2020-02-15T09:47:20.000Z</Time>
            <Position>
              <LatitudeDegrees>41.9700055383145809173583984375</LatitudeDegrees>
              <LongitudeDegrees>2.88151524960994720458984375</LongitudeDegrees>
            </Position>
            <AltitudeMeters>207.1999969482421875</AltitudeMeters>
            <DistanceMeters>NAN</DistanceMeters>
          </Trackpoint>
          <Trackpoint>
            <Time>2020-02-15T09:47:21.000Z</Time>
            <Position>
              <LatitudeDegrees>41.97003160603344440460205078125</LatitudeDegrees>
              <LongitudeDegrees>2.8815145790576934814453125</LongitudeDegrees>
            </Position>
            <AltitudeMeters>207.1999969482421875</AltitudeMeters>
            <DistanceMeters>NAN</DistanceMeters>
          </Trackpoint>
          <Trackpoint>
            <Time>2020-02-15T09:47:22.000Z</Time>
            <Position>
              <LatitudeDegrees>41.97005641646683216094970703125</LatitudeDegrees>
              <LongitudeDegrees>2.881515584886074066162109375</LongitudeDegrees>
            </Position>
            <AltitudeMeters>207.1999969482421875</AltitudeMeters>
            <DistanceMeters>NAN</DistanceMeters>
          </Trackpoint>
          <Trackpoint>
            <Time>2020-02-15T09:47:23.000Z</Time>
            <Position>
              <LatitudeDegrees>41.9700796343386173248291015625</LatitudeDegrees>
              <LongitudeDegrees>2.88151659071445465087890625</LongitudeDegrees>
            </Position>
            <AltitudeMeters>207.399993896484375</AltitudeMeters>
            <DistanceMeters>NAN</DistanceMeters>
          </Trackpoint>
          <Trackpoint>
            <Time>2020-02-15T09:47:24.000Z</Time>
            <Position>
              <LatitudeDegrees>41.970098912715911865234375</LatitudeDegrees>
              <LongitudeDegrees>2.88151684217154979705810546875</LongitudeDegrees>
            </Position>
            <AltitudeMeters>207.600006103515625</AltitudeMeters>
            <DistanceMeters>NAN</DistanceMeters>
          </Trackpoint>
          <Trackpoint>
            <Time>2020-02-15T09:47:25.000Z</Time>
            <Position>
              <LatitudeDegrees>41.97011969983577728271484375</LatitudeDegrees>
              <LongitudeDegrees>2.88152069784700870513916015625</LongitudeDegrees>
            </Position>
            <AltitudeMeters>207.399993896484375</AltitudeMeters>
            <DistanceMeters>NAN</DistanceMeters>
          </Trackpoint>
          <Trackpoint>
            <Time>2020-02-15T09:47:26.000Z</Time>
            <Position>
              <LatitudeDegrees>41.97014224715530872344970703125</LatitudeDegrees>
              <LongitudeDegrees>2.8815264813601970672607421875</LongitudeDegrees>
            </Position>
            <AltitudeMeters>207.600006103515625</AltitudeMeters>
            <DistanceMeters>NAN</DistanceMeters>
          </Trackpoint>
          <Trackpoint>
            <Time>2020-02-15T09:47:28.000Z</Time>
            <Position>
              <LatitudeDegrees>41.9701879285275936126708984375</LatitudeDegrees>
              <LongitudeDegrees>2.88155145943164825439453125</LongitudeDegrees>
            </Position>
            <AltitudeMeters>207.399993896484375</AltitudeMeters>
            <DistanceMeters>NAN</DistanceMeters>
          </Trackpoint>
          <Trackpoint>
            <Time>2020-02-15T09:47:29.000Z</Time>
            <Position>
              <LatitudeDegrees>41.97021223604679107666015625</LatitudeDegrees>
              <LongitudeDegrees>2.8815710730850696563720703125</LongitudeDegrees>
            </Position>
            <AltitudeMeters>207.600006103515625</AltitudeMeters>
            <DistanceMeters>NAN</DistanceMeters>
          </Trackpoint>
          <Trackpoint>
            <Time>2020-02-15T09:47:30.000Z</Time>
            <Position>
              <LatitudeDegrees>41.97023662738502025604248046875</LatitudeDegrees>
              <LongitudeDegrees>2.88159194402396678924560546875</LongitudeDegrees>
            </Position>
            <AltitudeMeters>207.600006103515625</AltitudeMeters>
            <DistanceMeters>NAN</DistanceMeters>
          </Trackpoint>
          <Trackpoint>
            <Time>2020-02-15T09:47:32.000Z</Time>
            <Position>
              <LatitudeDegrees>41.970278955996036529541015625</LatitudeDegrees>
              <LongitudeDegrees>2.8816223703324794769287109375</LongitudeDegrees>
            </Position>
            <AltitudeMeters>207.600006103515625</AltitudeMeters>
            <DistanceMeters>NAN</DistanceMeters>
          </Trackpoint>
          <Trackpoint>
            <Time>2020-02-15T09:47:33.000Z</Time>
            <Position>
              <LatitudeDegrees>41.9702982343733310699462890625</LatitudeDegrees>
              <LongitudeDegrees>2.8816352784633636474609375</LongitudeDegrees>
            </Position>
            <AltitudeMeters>207.600006103515625</AltitudeMeters>
            <DistanceMeters>NAN</DistanceMeters>
          </Trackpoint>
          <Trackpoint>
            <Time>2020-02-15T09:47:34.000Z</Time>
            <Position>
              <LatitudeDegrees>41.9703136570751667022705078125</LatitudeDegrees>
              <LongitudeDegrees>2.88164810277521610260009765625</LongitudeDegrees>
            </Position>
            <AltitudeMeters>207.8000030517578125</AltitudeMeters>
            <DistanceMeters>NAN</DistanceMeters>
          </Trackpoint>
          <Trackpoint>
            <Time>2020-02-15T09:47:35.000Z</Time>
            <Position>
              <LatitudeDegrees>41.97033050470054149627685546875</LatitudeDegrees>
              <LongitudeDegrees>2.8816615976393222808837890625</LongitudeDegrees>
            </Position>
            <AltitudeMeters>207.8000030517578125</AltitudeMeters>
            <DistanceMeters>NAN</DistanceMeters>
          </Trackpoint>
          <Trackpoint>
            <Time>2020-02-15T09:47:36.000Z</Time>
            <Position>
              <LatitudeDegrees>41.97034928016364574432373046875</LatitudeDegrees>
              <LongitudeDegrees>2.8816766850650310516357421875</LongitudeDegrees>
            </Position>
            <AltitudeMeters>208</AltitudeMeters>
            <DistanceMeters>NAN</DistanceMeters>
          </Trackpoint>
          <Trackpoint>
            <Time>2020-02-15T09:47:39.000Z</Time>
            <Position>
              <LatitudeDegrees>41.97041365318000316619873046875</LatitudeDegrees>
              <LongitudeDegrees>2.88172203116118907928466796875</LongitudeDegrees>
            </Position>
            <AltitudeMeters>207.8000030517578125</AltitudeMeters>
            <DistanceMeters>NAN</DistanceMeters>
          </Trackpoint>
          <Trackpoint>
            <Time>2020-02-15T09:47:40.000Z</Time>
            <Position>
              <LatitudeDegrees>41.97043376974761486053466796875</LatitudeDegrees>
              <LongitudeDegrees>2.88173879496753215789794921875</LongitudeDegrees>
            </Position>
            <AltitudeMeters>207.8000030517578125</AltitudeMeters>
            <DistanceMeters>NAN</DistanceMeters>
          </Trackpoint>
          <Trackpoint>
            <Time>2020-02-15T09:47:43.000Z</Time>
            <Position>
              <LatitudeDegrees>41.970490850508213043212890625</LatitudeDegrees>
              <LongitudeDegrees>2.88178741000592708587646484375</LongitudeDegrees>
            </Position>
            <AltitudeMeters>208</AltitudeMeters>
            <DistanceMeters>NAN</DistanceMeters>
          </Trackpoint>
          <Trackpoint>
            <Time>2020-02-15T09:47:44.000Z</Time>
            <Position>
              <LatitudeDegrees>41.97050862014293670654296875</LatitudeDegrees>
              <LongitudeDegrees>2.88180316798388957977294921875</LongitudeDegrees>
            </Position>
            <AltitudeMeters>208</AltitudeMeters>
            <DistanceMeters>NAN</DistanceMeters>
          </Trackpoint>
          <Trackpoint>
            <Time>2020-02-15T09:47:47.000Z</Time>
            <Position>
              <LatitudeDegrees>41.97057156823575496673583984375</LatitudeDegrees>
              <LongitudeDegrees>2.88186335004866123199462890625</LongitudeDegrees>
            </Position>
            <AltitudeMeters>207.8000030517578125</AltitudeMeters>
            <DistanceMeters>NAN</DistanceMeters>
          </Trackpoint>
          <Trackpoint>
            <Time>2020-02-15T09:47:51.000Z</Time>
            <Position>
              <LatitudeDegrees>41.97065656073391437530517578125</LatitudeDegrees>
              <LongitudeDegrees>2.88194331340491771697998046875</LongitudeDegrees>
            </Position>
            <AltitudeMeters>207.8000030517578125</AltitudeMeters>
            <DistanceMeters>NAN</DistanceMeters>
          </Trackpoint>
          <Trackpoint>
            <Time>2020-02-15T09:47:53.000Z</Time>
            <Position>
              <LatitudeDegrees>41.97069511748850345611572265625</LatitudeDegrees>
              <LongitudeDegrees>2.8819908387959003448486328125</LongitudeDegrees>
            </Position>
            <AltitudeMeters>207.600006103515625</AltitudeMeters>
            <DistanceMeters>NAN</DistanceMeters>
          </Trackpoint>
          <Trackpoint>
            <Time>2020-02-15T09:47:56.000Z</Time>
            <Position>
              <LatitudeDegrees>41.97074524126946926116943359375</LatitudeDegrees>
              <LongitudeDegrees>2.88206753320991992950439453125</LongitudeDegrees>
            </Position>
            <AltitudeMeters>207.600006103515625</AltitudeMeters>
            <DistanceMeters>NAN</DistanceMeters>
          </Trackpoint>
          <Trackpoint>
            <Time>2020-02-15T09:47:57.000Z</Time>
            <Position>
              <LatitudeDegrees>41.970758400857448577880859375</LatitudeDegrees>
              <LongitudeDegrees>2.88210374303162097930908203125</LongitudeDegrees>
            </Position>
            <AltitudeMeters>207.8000030517578125</AltitudeMeters>
            <DistanceMeters>NAN</DistanceMeters>
          </Trackpoint>
          <Trackpoint>
            <Time>2020-02-15T09:47:59.000Z</Time>
            <Position>
              <LatitudeDegrees>41.9707766734063625335693359375</LatitudeDegrees>
              <LongitudeDegrees>2.88217850960791110992431640625</LongitudeDegrees>
            </Position>
            <AltitudeMeters>207.600006103515625</AltitudeMeters>
            <DistanceMeters>NAN</DistanceMeters>
          </Trackpoint>
          <Trackpoint>
            <Time>2020-02-15T09:48:00.000Z</Time>
            <Position>
              <LatitudeDegrees>41.97078430093824863433837890625</LatitudeDegrees>
              <LongitudeDegrees>2.88220994174480438232421875</LongitudeDegrees>
            </Position>
            <AltitudeMeters>207.600006103515625</AltitudeMeters>
            <DistanceMeters>NAN</DistanceMeters>
          </Trackpoint>
          <Trackpoint>
            <Time>2020-02-15T09:48:01.000Z</Time>
            <Position>
              <LatitudeDegrees>41.9707934372127056121826171875</LatitudeDegrees>
              <LongitudeDegrees>2.882245145738124847412109375</LongitudeDegrees>
            </Position>
            <AltitudeMeters>207.600006103515625</AltitudeMeters>
            <DistanceMeters>NAN</DistanceMeters>
          </Trackpoint>
          <Trackpoint>
            <Time>2020-02-15T09:48:04.000Z</Time>
            <Position>
              <LatitudeDegrees>41.97081179358065128326416015625</LatitudeDegrees>
              <LongitudeDegrees>2.88234430365264415740966796875</LongitudeDegrees>
            </Position>
            <AltitudeMeters>207.600006103515625</AltitudeMeters>
            <DistanceMeters>NAN</DistanceMeters>
          </Trackpoint>
          <Trackpoint>
            <Time>2020-02-15T09:48:05.000Z</Time>
            <Position>
              <LatitudeDegrees>41.9708142243325710296630859375</LatitudeDegrees>
              <LongitudeDegrees>2.8823757357895374298095703125</LongitudeDegrees>
            </Position>
            <AltitudeMeters>207.600006103515625</AltitudeMeters>
            <DistanceMeters>NAN</DistanceMeters>
          </Trackpoint>
          <Trackpoint>
            <Time>2020-02-15T09:48:06.000Z</Time>
            <Position>
              <LatitudeDegrees>41.97081581689417362213134765625</LatitudeDegrees>
              <LongitudeDegrees>2.882407419383525848388671875</LongitudeDegrees>
            </Position>
            <AltitudeMeters>207.600006103515625</AltitudeMeters>
            <DistanceMeters>NAN</DistanceMeters>
          </Trackpoint>
          <Trackpoint>
            <Time>2020-02-15T09:48:07.000Z</Time>
            <Position>
              <LatitudeDegrees>41.97081506252288818359375</LatitudeDegrees>
              <LongitudeDegrees>2.8824354149401187896728515625</LongitudeDegrees>
            </Position>
            <AltitudeMeters>207.600006103515625</AltitudeMeters>
            <DistanceMeters>NAN</DistanceMeters>
          </Trackpoint>
          <Trackpoint>
            <Time>2020-02-15T09:48:08.000Z</Time>
            <Position>
              <LatitudeDegrees>41.97081749327480792999267578125</LatitudeDegrees>
              <LongitudeDegrees>2.88246282376348972320556640625</LongitudeDegrees>
            </Position>
            <AltitudeMeters>207.399993896484375</AltitudeMeters>
            <DistanceMeters>NAN</DistanceMeters>
          </Trackpoint>
          <Trackpoint>
            <Time>2020-02-15T09:48:09.000Z</Time>
            <Position>
              <LatitudeDegrees>41.97081883437931537628173828125</LatitudeDegrees>
              <LongitudeDegrees>2.88248696364462375640869140625</LongitudeDegrees>
            </Position>
            <AltitudeMeters>207.600006103515625</AltitudeMeters>
            <DistanceMeters>NAN</DistanceMeters>
          </Trackpoint>
          <Trackpoint>
            <Time>2020-02-15T09:48:10.000Z</Time>
            <Position>
              <LatitudeDegrees>41.97081841528415679931640625</LatitudeDegrees>
              <LongitudeDegrees>2.88251160643994808197021484375</LongitudeDegrees>
            </Position>
            <AltitudeMeters>207.600006103515625</AltitudeMeters>
            <DistanceMeters>NAN</DistanceMeters>
          </Trackpoint>
          <Trackpoint>
            <Time>2020-02-15T09:48:11.000Z</Time>
            <Position>
              <LatitudeDegrees>41.97081615217030048370361328125</LatitudeDegrees>
              <LongitudeDegrees>2.88253608159720897674560546875</LongitudeDegrees>
            </Position>
            <AltitudeMeters>207.600006103515625</AltitudeMeters>
            <DistanceMeters>NAN</DistanceMeters>
          </Trackpoint>
          <Trackpoint>
            <Time>2020-02-15T09:48:12.000Z</Time>
            <Position>
              <LatitudeDegrees>41.970813386142253875732421875</LatitudeDegrees>
              <LongitudeDegrees>2.8825591318309307098388671875</LongitudeDegrees>
            </Position>
            <AltitudeMeters>207.8000030517578125</AltitudeMeters>
            <DistanceMeters>NAN</DistanceMeters>
          </Trackpoint>
          <Trackpoint>
            <Time>2020-02-15T09:48:13.000Z</Time>
            <Position>
              <LatitudeDegrees>41.970812380313873291015625</LatitudeDegrees>
              <LongitudeDegrees>2.8825819306075572967529296875</LongitudeDegrees>
            </Position>
            <AltitudeMeters>207.8000030517578125</AltitudeMeters>
            <DistanceMeters>NAN</DistanceMeters>
          </Trackpoint>
          <Trackpoint>
            <Time>2020-02-15T09:48:14.000Z</Time>
            <Position>
              <LatitudeDegrees>41.97081095539033412933349609375</LatitudeDegrees>
              <LongitudeDegrees>2.8826062381267547607421875</LongitudeDegrees>
            </Position>
            <AltitudeMeters>208</AltitudeMeters>
            <DistanceMeters>NAN</DistanceMeters>
          </Trackpoint>
          <Trackpoint>
            <Time>2020-02-15T09:48:15.000Z</Time>
            <Position>
              <LatitudeDegrees>41.9708108715713024139404296875</LatitudeDegrees>
              <LongitudeDegrees>2.88263230584561824798583984375</LongitudeDegrees>
            </Position>
            <AltitudeMeters>208</AltitudeMeters>
            <DistanceMeters>NAN</DistanceMeters>
          </Trackpoint>
          <Trackpoint>
            <Time>2020-02-15T09:48:18.000Z</Time>
            <Position>
              <LatitudeDegrees>41.97081950493156909942626953125</LatitudeDegrees>
              <LongitudeDegrees>2.8827110119163990020751953125</LongitudeDegrees>
            </Position>
            <AltitudeMeters>208.1999969482421875</AltitudeMeters>
            <DistanceMeters>NAN</DistanceMeters>
          </Trackpoint>
          <Trackpoint>
            <Time>2020-02-15T09:48:19.000Z</Time>
            <Position>
              <LatitudeDegrees>41.97083207778632640838623046875</LatitudeDegrees>
              <LongitudeDegrees>2.8827428631484508514404296875</LongitudeDegrees>
            </Position>
            <AltitudeMeters>208.399993896484375</AltitudeMeters>
            <DistanceMeters>NAN</DistanceMeters>
          </Trackpoint>
          <Trackpoint>
            <Time>2020-02-15T09:48:20.000Z</Time>
            <Position>
              <LatitudeDegrees>41.97084649465978145599365234375</LatitudeDegrees>
              <LongitudeDegrees>2.88277463056147098541259765625</LongitudeDegrees>
            </Position>
            <AltitudeMeters>208.1999969482421875</AltitudeMeters>
            <DistanceMeters>NAN</DistanceMeters>
          </Trackpoint>
          <Trackpoint>
            <Time>2020-02-15T09:48:22.000Z</Time>
            <Position>
              <LatitudeDegrees>41.9708926789462566375732421875</LatitudeDegrees>
              <LongitudeDegrees>2.8828561864793300628662109375</LongitudeDegrees>
            </Position>
            <AltitudeMeters>208.399993896484375</AltitudeMeters>
            <DistanceMeters>NAN</DistanceMeters>
          </Trackpoint>
          <Trackpoint>
            <Time>2020-02-15T09:48:24.000Z</Time>
            <Position>
              <LatitudeDegrees>41.97095780633389949798583984375</LatitudeDegrees>
              <LongitudeDegrees>2.88293623365461826324462890625</LongitudeDegrees>
            </Position>
            <AltitudeMeters>208.399993896484375</AltitudeMeters>
            <DistanceMeters>NAN</DistanceMeters>
          </Trackpoint>
          <Trackpoint>
            <Time>2020-02-15T09:48:25.000Z</Time>
            <Position>
              <LatitudeDegrees>41.9709929265081882476806640625</LatitudeDegrees>
              <LongitudeDegrees>2.8829695098102092742919921875</LongitudeDegrees>
            </Position>
            <AltitudeMeters>208.399993896484375</AltitudeMeters>
            <DistanceMeters>NAN</DistanceMeters>
          </Trackpoint>
          <Trackpoint>
            <Time>2020-02-15T09:48:26.000Z</Time>
            <Position>
              <LatitudeDegrees>41.97101865895092487335205078125</LatitudeDegrees>
              <LongitudeDegrees>2.8830033726990222930908203125</LongitudeDegrees>
            </Position>
            <AltitudeMeters>208.399993896484375</AltitudeMeters>
            <DistanceMeters>NAN</DistanceMeters>
          </Trackpoint>
          <Trackpoint>
            <Time>2020-02-15T09:48:27.000Z</Time>
            <Position>
              <LatitudeDegrees>41.971036009490489959716796875</LatitudeDegrees>
              <LongitudeDegrees>2.88303446955978870391845703125</LongitudeDegrees>
            </Position>
            <AltitudeMeters>208.399993896484375</AltitudeMeters>
            <DistanceMeters>NAN</DistanceMeters>
          </Trackpoint>
          <Trackpoint>
            <Time>2020-02-15T09:48:28.000Z</Time>
            <Position>
              <LatitudeDegrees>41.97105453349649906158447265625</LatitudeDegrees>
              <LongitudeDegrees>2.8830680809915065765380859375</LongitudeDegrees>
            </Position>
            <AltitudeMeters>208.600006103515625</AltitudeMeters>
            <DistanceMeters>NAN</DistanceMeters>
          </Trackpoint>
          <Trackpoint>
            <Time>2020-02-15T09:48:29.000Z</Time>
            <Position>
              <LatitudeDegrees>41.971068195998668670654296875</LatitudeDegrees>
              <LongitudeDegrees>2.8831022791564464569091796875</LongitudeDegrees>
            </Position>
            <AltitudeMeters>208.600006103515625</AltitudeMeters>
            <DistanceMeters>NAN</DistanceMeters>
          </Trackpoint>
          <Trackpoint>
            <Time>2020-02-15T09:48:30.000Z</Time>
            <Position>
              <LatitudeDegrees>41.97108051739633083343505859375</LatitudeDegrees>
              <LongitudeDegrees>2.883137650787830352783203125</LongitudeDegrees>
            </Position>
            <AltitudeMeters>208.399993896484375</AltitudeMeters>
            <DistanceMeters>NAN</DistanceMeters>
          </Trackpoint>
          <Trackpoint>
            <Time>2020-02-15T09:48:31.000Z</Time>
            <Position>
              <LatitudeDegrees>41.971090994775295257568359375</LatitudeDegrees>
              <LongitudeDegrees>2.88317142985761165618896484375</LongitudeDegrees>
            </Position>
            <AltitudeMeters>208.600006103515625</AltitudeMeters>
            <DistanceMeters>NAN</DistanceMeters>
          </Trackpoint>
          <Trackpoint>
            <Time>2020-02-15T09:48:32.000Z</Time>
            <Position>
              <LatitudeDegrees>41.971103064715862274169921875</LatitudeDegrees>
              <LongitudeDegrees>2.88320445455610752105712890625</LongitudeDegrees>
            </Position>
            <AltitudeMeters>208.600006103515625</AltitudeMeters>
            <DistanceMeters>NAN</DistanceMeters>
          </Trackpoint>
          <Trackpoint>
            <Time>2020-02-15T09:48:33.000Z</Time>
            <Position>
              <LatitudeDegrees>41.97111337445676326751708984375</LatitudeDegrees>
              <LongitudeDegrees>2.88323831744492053985595703125</LongitudeDegrees>
            </Position>
            <AltitudeMeters>208.600006103515625</AltitudeMeters>
            <DistanceMeters>NAN</DistanceMeters>
          </Trackpoint>
          <Trackpoint>
            <Time>2020-02-15T09:48:34.000Z</Time>
            <Position>
              <LatitudeDegrees>41.9711220078170299530029296875</LatitudeDegrees>
              <LongitudeDegrees>2.88326849229633808135986328125</LongitudeDegrees>
            </Position>
            <AltitudeMeters>208.399993896484375</AltitudeMeters>
            <DistanceMeters>NAN</DistanceMeters>
          </Trackpoint>
          <Trackpoint>
            <Time>2020-02-15T09:48:35.000Z</Time>
            <Position>
              <LatitudeDegrees>41.9711317308247089385986328125</LatitudeDegrees>
              <LongitudeDegrees>2.883298583328723907470703125</LongitudeDegrees>
            </Position>
            <AltitudeMeters>208.600006103515625</AltitudeMeters>
            <DistanceMeters>NAN</DistanceMeters>
          </Trackpoint>
          <Trackpoint>
            <Time>2020-02-15T09:48:37.000Z</Time>
            <Position>
              <LatitudeDegrees>41.9711461476981639862060546875</LatitudeDegrees>
              <LongitudeDegrees>2.88336907513439655303955078125</LongitudeDegrees>
            </Position>
            <AltitudeMeters>208.399993896484375</AltitudeMeters>
            <DistanceMeters>NAN</DistanceMeters>
          </Trackpoint>
          <Trackpoint>
            <Time>2020-02-15T09:48:39.000Z</Time>
            <Position>
              <LatitudeDegrees>41.9711491651833057403564453125</LatitudeDegrees>
              <LongitudeDegrees>2.88343914784491062164306640625</LongitudeDegrees>
            </Position>
            <AltitudeMeters>208.1999969482421875</AltitudeMeters>
            <DistanceMeters>NAN</DistanceMeters>
          </Trackpoint>
          <Trackpoint>
            <Time>2020-02-15T09:48:40.000Z</Time>
            <Position>
              <LatitudeDegrees>41.97114656679332256317138671875</LatitudeDegrees>
              <LongitudeDegrees>2.88347401656210422515869140625</LongitudeDegrees>
            </Position>
            <AltitudeMeters>208.399993896484375</AltitudeMeters>
            <DistanceMeters>NAN</DistanceMeters>
          </Trackpoint>
          <Trackpoint>
            <Time>2020-02-15T09:48:42.000Z</Time>
            <Position>
              <LatitudeDegrees>41.97113650850951671600341796875</LatitudeDegrees>
              <LongitudeDegrees>2.8835535608232021331787109375</LongitudeDegrees>
            </Position>
            <AltitudeMeters>208.399993896484375</AltitudeMeters>
            <DistanceMeters>NAN</DistanceMeters>
          </Trackpoint>
          <Trackpoint>
            <Time>2020-02-15T09:48:45.000Z</Time>
            <Position>
              <LatitudeDegrees>41.97111890651285648345947265625</LatitudeDegrees>
              <LongitudeDegrees>2.88366965018212795257568359375</LongitudeDegrees>
            </Position>
            <AltitudeMeters>208.399993896484375</AltitudeMeters>
            <DistanceMeters>NAN</DistanceMeters>
          </Trackpoint>
          <Trackpoint>
            <Time>2020-02-15T09:48:46.000Z</Time>
            <Position>
              <LatitudeDegrees>41.97111471556127071380615234375</LatitudeDegrees>
              <LongitudeDegrees>2.8837059438228607177734375</LongitudeDegrees>
            </Position>
            <AltitudeMeters>208.399993896484375</AltitudeMeters>
            <DistanceMeters>NAN</DistanceMeters>
          </Trackpoint>
          <Trackpoint>
            <Time>2020-02-15T09:48:47.000Z</Time>
            <Position>
              <LatitudeDegrees>41.97111052460968494415283203125</LatitudeDegrees>
              <LongitudeDegrees>2.8837379626929759979248046875</LongitudeDegrees>
            </Position>
            <AltitudeMeters>208.399993896484375</AltitudeMeters>
            <DistanceMeters>NAN</DistanceMeters>
          </Trackpoint>
          <Trackpoint>
            <Time>2020-02-15T09:48:48.000Z</Time>
            <Position>
              <LatitudeDegrees>41.97110817767679691314697265625</LatitudeDegrees>
              <LongitudeDegrees>2.88376956246793270111083984375</LongitudeDegrees>
            </Position>
            <AltitudeMeters>208.600006103515625</AltitudeMeters>
            <DistanceMeters>NAN</DistanceMeters>
          </Trackpoint>
          <Trackpoint>
            <Time>2020-02-15T09:48:49.000Z</Time>
            <Position>
              <LatitudeDegrees>41.97110516019165515899658203125</LatitudeDegrees>
              <LongitudeDegrees>2.88379889912903308868408203125</LongitudeDegrees>
            </Position>
            <AltitudeMeters>208.600006103515625</AltitudeMeters>
            <DistanceMeters>NAN</DistanceMeters>
          </Trackpoint>
          <Trackpoint>
            <Time>2020-02-15T09:48:50.000Z</Time>
            <Position>
              <LatitudeDegrees>41.9711022265255451202392578125</LatitudeDegrees>
              <LongitudeDegrees>2.8838271461427211761474609375</LongitudeDegrees>
            </Position>
            <AltitudeMeters>208.600006103515625</AltitudeMeters>
            <DistanceMeters>NAN</DistanceMeters>
          </Trackpoint>
          <Trackpoint>
            <Time>2020-02-15T09:48:51.000Z</Time>
            <Position>
              <LatitudeDegrees>41.9710995443165302276611328125</LatitudeDegrees>
              <LongitudeDegrees>2.88386218249797821044921875</LongitudeDegrees>
            </Position>
            <AltitudeMeters>208.8000030517578125</AltitudeMeters>
            <DistanceMeters>NAN</DistanceMeters>
          </Trackpoint>
          <Trackpoint>
            <Time>2020-02-15T09:48:52.000Z</Time>
            <Position>
              <LatitudeDegrees>41.97109602391719818115234375</LatitudeDegrees>
              <LongitudeDegrees>2.8838963806629180908203125</LongitudeDegrees>
            </Position>
            <AltitudeMeters>208.600006103515625</AltitudeMeters>
            <DistanceMeters>NAN</DistanceMeters>
          </Trackpoint>
          <Trackpoint>
            <Time>2020-02-15T09:48:53.000Z</Time>
            <Position>
              <LatitudeDegrees>41.971088983118534088134765625</LatitudeDegrees>
              <LongitudeDegrees>2.883927561342716217041015625</LongitudeDegrees>
            </Position>
            <AltitudeMeters>208.8000030517578125</AltitudeMeters>
            <DistanceMeters>NAN</DistanceMeters>
          </Trackpoint>
          <Trackpoint>
            <Time>2020-02-15T09:48:54.000Z</Time>
            <Position>
              <LatitudeDegrees>41.97107993066310882568359375</LatitudeDegrees>
              <LongitudeDegrees>2.88395471870899200439453125</LongitudeDegrees>
            </Position>
            <AltitudeMeters>208.8000030517578125</AltitudeMeters>
            <DistanceMeters>NAN</DistanceMeters>
          </Trackpoint>
          <Trackpoint>
            <Time>2020-02-15T09:48:55.000Z</Time>
            <Position>
              <LatitudeDegrees>41.9710683636367321014404296875</LatitudeDegrees>
              <LongitudeDegrees>2.88397877477109432220458984375</LongitudeDegrees>
            </Position>
            <AltitudeMeters>209</AltitudeMeters>
            <DistanceMeters>NAN</DistanceMeters>
          </Trackpoint>
          <Trackpoint>
            <Time>2020-02-15T09:48:56.000Z</Time>
            <Position>
              <LatitudeDegrees>41.9710559584200382232666015625</LatitudeDegrees>
              <LongitudeDegrees>2.88400392048060894012451171875</LongitudeDegrees>
            </Position>
            <AltitudeMeters>209</AltitudeMeters>
            <DistanceMeters>NAN</DistanceMeters>
          </Trackpoint>
          <Trackpoint>
            <Time>2020-02-15T09:48:58.000Z</Time>
            <Position>
              <LatitudeDegrees>41.9710264541208744049072265625</LatitudeDegrees>
              <LongitudeDegrees>2.88405437953770160675048828125</LongitudeDegrees>
            </Position>
            <AltitudeMeters>209.1999969482421875</AltitudeMeters>
            <DistanceMeters>NAN</DistanceMeters>
          </Trackpoint>
          <Trackpoint>
            <Time>2020-02-15T09:48:59.000Z</Time>
            <Position>
              <LatitudeDegrees>41.971012540161609649658203125</LatitudeDegrees>
              <LongitudeDegrees>2.88408220745623111724853515625</LongitudeDegrees>
            </Position>
            <AltitudeMeters>209.1999969482421875</AltitudeMeters>
            <DistanceMeters>NAN</DistanceMeters>
          </Trackpoint>
          <Trackpoint>
            <Time>2020-02-15T09:49:00.000Z</Time>
            <Position>
              <LatitudeDegrees>41.97099703364074230194091796875</LatitudeDegrees>
              <LongitudeDegrees>2.88410961627960205078125</LongitudeDegrees>
            </Position>
            <AltitudeMeters>209.1999969482421875</AltitudeMeters>
            <DistanceMeters>NAN</DistanceMeters>
          </Trackpoint>
          <Trackpoint>
            <Time>2020-02-15T09:49:01.000Z</Time>
            <Position>
              <LatitudeDegrees>41.9709805212914943695068359375</LatitudeDegrees>
              <LongitudeDegrees>2.88413870148360729217529296875</LongitudeDegrees>
            </Position>
            <AltitudeMeters>209.399993896484375</AltitudeMeters>
            <DistanceMeters>NAN</DistanceMeters>
          </Trackpoint>
          <Trackpoint>
            <Time>2020-02-15T09:49:02.000Z</Time>
            <Position>
              <LatitudeDegrees>41.97096484713256359100341796875</LatitudeDegrees>
              <LongitudeDegrees>2.8841694630682468414306640625</LongitudeDegrees>
            </Position>
            <AltitudeMeters>209.600006103515625</AltitudeMeters>
            <DistanceMeters>NAN</DistanceMeters>
          </Trackpoint>
          <Trackpoint>
            <Time>2020-02-15T09:49:03.000Z</Time>
            <Position>
              <LatitudeDegrees>41.97095009498298168182373046875</LatitudeDegrees>
              <LongitudeDegrees>2.8841994702816009521484375</LongitudeDegrees>
            </Position>
            <AltitudeMeters>209.8000030517578125</AltitudeMeters>
            <DistanceMeters>NAN</DistanceMeters>
          </Trackpoint>
          <Trackpoint>
            <Time>2020-02-15T09:49:04.000Z</Time>
            <Position>
              <LatitudeDegrees>41.9709344208240509033203125</LatitudeDegrees>
              <LongitudeDegrees>2.88423107005655765533447265625</LongitudeDegrees>
            </Position>
            <AltitudeMeters>210</AltitudeMeters>
            <DistanceMeters>NAN</DistanceMeters>
          </Trackpoint>
          <Trackpoint>
            <Time>2020-02-15T09:49:05.000Z</Time>
            <Position>
              <LatitudeDegrees>41.970917321741580963134765625</LatitudeDegrees>
              <LongitudeDegrees>2.8842640109360218048095703125</LongitudeDegrees>
            </Position>
            <AltitudeMeters>210</AltitudeMeters>
            <DistanceMeters>NAN</DistanceMeters>
          </Trackpoint>
          <Trackpoint>
            <Time>2020-02-15T09:49:06.000Z</Time>
            <Position>
              <LatitudeDegrees>41.97090064175426959991455078125</LatitudeDegrees>
              <LongitudeDegrees>2.884295023977756500244140625</LongitudeDegrees>
            </Position>
            <AltitudeMeters>210</AltitudeMeters>
            <DistanceMeters>NAN</DistanceMeters>
          </Trackpoint>
          <Trackpoint>
            <Time>2020-02-15T09:49:07.000Z</Time>
            <Position>
              <LatitudeDegrees>41.970883794128894805908203125</LatitudeDegrees>
              <LongitudeDegrees>2.88432729430496692657470703125</LongitudeDegrees>
            </Position>
            <AltitudeMeters>210.1999969482421875</AltitudeMeters>
            <DistanceMeters>NAN</DistanceMeters>
          </Trackpoint>
          <Trackpoint>
            <Time>2020-02-15T09:49:09.000Z</Time>
            <Position>
              <LatitudeDegrees>41.97084984742105007171630859375</LatitudeDegrees>
              <LongitudeDegrees>2.8843816928565502166748046875</LongitudeDegrees>
            </Position>
            <AltitudeMeters>210.600006103515625</AltitudeMeters>
            <DistanceMeters>NAN</DistanceMeters>
          </Trackpoint>
          <Trackpoint>
            <Time>2020-02-15T09:49:10.000Z</Time>
            <Position>
              <LatitudeDegrees>41.97083325125277042388916015625</LatitudeDegrees>
              <LongitudeDegrees>2.88440826348960399627685546875</LongitudeDegrees>
            </Position>
            <AltitudeMeters>210.600006103515625</AltitudeMeters>
            <DistanceMeters>NAN</DistanceMeters>
          </Trackpoint>
          <Trackpoint>
            <Time>2020-02-15T09:49:11.000Z</Time>
            <Position>
              <LatitudeDegrees>41.9708179123699665069580078125</LatitudeDegrees>
              <LongitudeDegrees>2.88443751633167266845703125</LongitudeDegrees>
            </Position>
            <AltitudeMeters>210.600006103515625</AltitudeMeters>
            <DistanceMeters>NAN</DistanceMeters>
          </Trackpoint>
          <Trackpoint>
            <Time>2020-02-15T09:49:12.000Z</Time>
            <Position>
              <LatitudeDegrees>41.9708034954965114593505859375</LatitudeDegrees>
              <LongitudeDegrees>2.88447112776339054107666015625</LongitudeDegrees>
            </Position>
            <AltitudeMeters>210.8000030517578125</AltitudeMeters>
            <DistanceMeters>NAN</DistanceMeters>
          </Trackpoint>
          <Trackpoint>
            <Time>2020-02-15T09:49:13.000Z</Time>
            <Position>
              <LatitudeDegrees>41.97079134173691272735595703125</LatitudeDegrees>
              <LongitudeDegrees>2.88450465537607669830322265625</LongitudeDegrees>
            </Position>
            <AltitudeMeters>211.1999969482421875</AltitudeMeters>
            <DistanceMeters>NAN</DistanceMeters>
          </Trackpoint>
          <Trackpoint>
            <Time>2020-02-15T09:49:14.000Z</Time>
            <Position>
              <LatitudeDegrees>41.97077994234859943389892578125</LatitudeDegrees>
              <LongitudeDegrees>2.88453617133200168609619140625</LongitudeDegrees>
            </Position>
            <AltitudeMeters>211</AltitudeMeters>
            <DistanceMeters>NAN</DistanceMeters>
          </Trackpoint>
          <Trackpoint>
            <Time>2020-02-15T09:49:15.000Z</Time>
            <Position>
              <LatitudeDegrees>41.97076820768415927886962890625</LatitudeDegrees>
              <LongitudeDegrees>2.88456760346889495849609375</LongitudeDegrees>
            </Position>
            <AltitudeMeters>211.1999969482421875</AltitudeMeters>
            <DistanceMeters>NAN</DistanceMeters>
          </Trackpoint>
          <Trackpoint>
            <Time>2020-02-15T09:49:16.000Z</Time>
            <Position>
              <LatitudeDegrees>41.97075546719133853912353515625</LatitudeDegrees>
              <LongitudeDegrees>2.88459819741547107696533203125</LongitudeDegrees>
            </Position>
            <AltitudeMeters>211.1999969482421875</AltitudeMeters>
            <DistanceMeters>NAN</DistanceMeters>
          </Trackpoint>
          <Trackpoint>
            <Time>2020-02-15T09:49:17.000Z</Time>
            <Position>
              <LatitudeDegrees>41.97074138559401035308837890625</LatitudeDegrees>
              <LongitudeDegrees>2.88462250493466854095458984375</LongitudeDegrees>
            </Position>
            <AltitudeMeters>211.1999969482421875</AltitudeMeters>
            <DistanceMeters>NAN</DistanceMeters>
          </Trackpoint>
          <Trackpoint>
            <Time>2020-02-15T09:49:18.000Z</Time>
            <Position>
              <LatitudeDegrees>41.970727555453777313232421875</LatitudeDegrees>
              <LongitudeDegrees>2.88464882411062717437744140625</LongitudeDegrees>
            </Position>
            <AltitudeMeters>211.399993896484375</AltitudeMeters>
            <DistanceMeters>NAN</DistanceMeters>
          </Trackpoint>
          <Trackpoint>
            <Time>2020-02-15T09:49:19.000Z</Time>
            <Position>
              <LatitudeDegrees>41.97071238420903682708740234375</LatitudeDegrees>
              <LongitudeDegrees>2.8846760652959346771240234375</LongitudeDegrees>
            </Position>
            <AltitudeMeters>211.399993896484375</AltitudeMeters>
            <DistanceMeters>NAN</DistanceMeters>
          </Trackpoint>
          <Trackpoint>
            <Time>2020-02-15T09:49:20.000Z</Time>
            <Position>
              <LatitudeDegrees>41.97069679386913776397705078125</LatitudeDegrees>
              <LongitudeDegrees>2.88470364175736904144287109375</LongitudeDegrees>
            </Position>
            <AltitudeMeters>211.399993896484375</AltitudeMeters>
            <DistanceMeters>NAN</DistanceMeters>
          </Trackpoint>
          <Trackpoint>
            <Time>2020-02-15T09:49:21.000Z</Time>
            <Position>
              <LatitudeDegrees>41.97068120352923870086669921875</LatitudeDegrees>
              <LongitudeDegrees>2.884727530181407928466796875</LongitudeDegrees>
            </Position>
            <AltitudeMeters>211.399993896484375</AltitudeMeters>
            <DistanceMeters>NAN</DistanceMeters>
          </Trackpoint>
          <Trackpoint>
            <Time>2020-02-15T09:49:22.000Z</Time>
            <Position>
              <LatitudeDegrees>41.97066527791321277618408203125</LatitudeDegrees>
              <LongitudeDegrees>2.884748317301273345947265625</LongitudeDegrees>
            </Position>
            <AltitudeMeters>211.600006103515625</AltitudeMeters>
            <DistanceMeters>NAN</DistanceMeters>
          </Trackpoint>
          <Trackpoint>
            <Time>2020-02-15T09:49:23.000Z</Time>
            <Position>
              <LatitudeDegrees>41.9706496037542819976806640625</LatitudeDegrees>
              <LongitudeDegrees>2.88476734422147274017333984375</LongitudeDegrees>
            </Position>
            <AltitudeMeters>212</AltitudeMeters>
            <DistanceMeters>NAN</DistanceMeters>
          </Trackpoint>
          <Trackpoint>
            <Time>2020-02-15T09:49:24.000Z</Time>
            <Position>
              <LatitudeDegrees>41.9706348516047000885009765625</LatitudeDegrees>
              <LongitudeDegrees>2.88478620350360870361328125</LongitudeDegrees>
            </Position>
            <AltitudeMeters>212</AltitudeMeters>
            <DistanceMeters>NAN</DistanceMeters>
          </Trackpoint>
          <Trackpoint>
            <Time>2020-02-15T09:49:25.000Z</Time>
            <Position>
              <LatitudeDegrees>41.97062018327414989471435546875</LatitudeDegrees>
              <LongitudeDegrees>2.884809337556362152099609375</LongitudeDegrees>
            </Position>
            <AltitudeMeters>212.1999969482421875</AltitudeMeters>
            <DistanceMeters>NAN</DistanceMeters>
          </Trackpoint>
          <Trackpoint>
            <Time>2020-02-15T09:49:26.000Z</Time>
            <Position>
              <LatitudeDegrees>41.9706046767532825469970703125</LatitudeDegrees>
              <LongitudeDegrees>2.88483339361846446990966796875</LongitudeDegrees>
            </Position>
            <AltitudeMeters>212.1999969482421875</AltitudeMeters>
            <DistanceMeters>NAN</DistanceMeters>
          </Trackpoint>
          <Trackpoint>
            <Time>2020-02-15T09:49:27.000Z</Time>
            <Position>
              <LatitudeDegrees>41.970588751137256622314453125</LatitudeDegrees>
              <LongitudeDegrees>2.884853594005107879638671875</LongitudeDegrees>
            </Position>
            <AltitudeMeters>212.399993896484375</AltitudeMeters>
            <DistanceMeters>NAN</DistanceMeters>
          </Trackpoint>
          <Trackpoint>
            <Time>2020-02-15T09:49:28.000Z</Time>
            <Position>
              <LatitudeDegrees>41.97057207114994525909423828125</LatitudeDegrees>
              <LongitudeDegrees>2.8848711960017681121826171875</LongitudeDegrees>
            </Position>
            <AltitudeMeters>212.399993896484375</AltitudeMeters>
            <DistanceMeters>NAN</DistanceMeters>
          </Trackpoint>
          <Trackpoint>
            <Time>2020-02-15T09:49:29.000Z</Time>
            <Position>
              <LatitudeDegrees>41.97055631317198276519775390625</LatitudeDegrees>
              <LongitudeDegrees>2.884885780513286590576171875</LongitudeDegrees>
            </Position>
            <AltitudeMeters>212.600006103515625</AltitudeMeters>
            <DistanceMeters>NAN</DistanceMeters>
          </Trackpoint>
          <Trackpoint>
            <Time>2020-02-15T09:49:30.000Z</Time>
            <Position>
              <LatitudeDegrees>41.970541477203369140625</LatitudeDegrees>
              <LongitudeDegrees>2.88489843718707561492919921875</LongitudeDegrees>
            </Position>
            <AltitudeMeters>212.600006103515625</AltitudeMeters>
            <DistanceMeters>NAN</DistanceMeters>
          </Trackpoint>
          <Trackpoint>
            <Time>2020-02-15T09:49:31.000Z</Time>
            <Position>
              <LatitudeDegrees>41.9705289043486118316650390625</LatitudeDegrees>
              <LongitudeDegrees>2.884911932051181793212890625</LongitudeDegrees>
            </Position>
            <AltitudeMeters>212.8000030517578125</AltitudeMeters>
            <DistanceMeters>NAN</DistanceMeters>
          </Trackpoint>
          <Trackpoint>
            <Time>2020-02-15T09:49:32.000Z</Time>
            <Position>
              <LatitudeDegrees>41.97051255963742733001708984375</LatitudeDegrees>
              <LongitudeDegrees>2.88492307998239994049072265625</LongitudeDegrees>
            </Position>
            <AltitudeMeters>213</AltitudeMeters>
            <DistanceMeters>NAN</DistanceMeters>
          </Trackpoint>
          <Trackpoint>
            <Time>2020-02-15T09:49:33.000Z</Time>
            <Position>
              <LatitudeDegrees>41.97049747221171855926513671875</LatitudeDegrees>
              <LongitudeDegrees>2.88493079133331775665283203125</LongitudeDegrees>
            </Position>
            <AltitudeMeters>213.1999969482421875</AltitudeMeters>
            <DistanceMeters>NAN</DistanceMeters>
          </Trackpoint>
          <Trackpoint>
            <Time>2020-02-15T09:49:34.000Z</Time>
            <Position>
              <LatitudeDegrees>41.9704849831759929656982421875</LatitudeDegrees>
              <LongitudeDegrees>2.88494269363582134246826171875</LongitudeDegrees>
            </Position>
            <AltitudeMeters>213.1999969482421875</AltitudeMeters>
            <DistanceMeters>NAN</DistanceMeters>
          </Trackpoint>
          <Trackpoint>
            <Time>2020-02-15T09:49:35.000Z</Time>
            <Position>
              <LatitudeDegrees>41.9704709015786647796630859375</LatitudeDegrees>
              <LongitudeDegrees>2.8849583677947521209716796875</LongitudeDegrees>
            </Position>
            <AltitudeMeters>213.1999969482421875</AltitudeMeters>
            <DistanceMeters>NAN</DistanceMeters>
          </Trackpoint>
          <Trackpoint>
            <Time>2020-02-15T09:49:36.000Z</Time>
            <Position>
              <LatitudeDegrees>41.97045899927616119384765625</LatitudeDegrees>
              <LongitudeDegrees>2.88497840054333209991455078125</LongitudeDegrees>
            </Position>
            <AltitudeMeters>213.399993896484375</AltitudeMeters>
            <DistanceMeters>NAN</DistanceMeters>
          </Trackpoint>
          <Trackpoint>
            <Time>2020-02-15T09:49:37.000Z</Time>
            <Position>
              <LatitudeDegrees>41.97044701315462589263916015625</LatitudeDegrees>
              <LongitudeDegrees>2.88500237278640270233154296875</LongitudeDegrees>
            </Position>
            <AltitudeMeters>213.600006103515625</AltitudeMeters>
            <DistanceMeters>NAN</DistanceMeters>
          </Trackpoint>
          <Trackpoint>
            <Time>2020-02-15T09:49:38.000Z</Time>
            <Position>
              <LatitudeDegrees>41.97043427266180515289306640625</LatitudeDegrees>
              <LongitudeDegrees>2.885030619800090789794921875</LongitudeDegrees>
            </Position>
            <AltitudeMeters>213.8000030517578125</AltitudeMeters>
            <DistanceMeters>NAN</DistanceMeters>
          </Trackpoint>
          <Trackpoint>
            <Time>2020-02-15T09:49:39.000Z</Time>
            <Position>
              <LatitudeDegrees>41.97042287327349185943603515625</LatitudeDegrees>
              <LongitudeDegrees>2.88506121374666690826416015625</LongitudeDegrees>
            </Position>
            <AltitudeMeters>214</AltitudeMeters>
            <DistanceMeters>NAN</DistanceMeters>
          </Trackpoint>
          <Trackpoint>
            <Time>2020-02-15T09:49:40.000Z</Time>
            <Position>
              <LatitudeDegrees>41.97041281498968601226806640625</LatitudeDegrees>
              <LongitudeDegrees>2.88509490899741649627685546875</LongitudeDegrees>
            </Position>
            <AltitudeMeters>214.1999969482421875</AltitudeMeters>
            <DistanceMeters>NAN</DistanceMeters>
          </Trackpoint>
          <Trackpoint>
            <Time>2020-02-15T09:49:41.000Z</Time>
            <Position>
              <LatitudeDegrees>41.970405019819736480712890625</LatitudeDegrees>
              <LongitudeDegrees>2.88512860424816608428955078125</LongitudeDegrees>
            </Position>
            <AltitudeMeters>214.600006103515625</AltitudeMeters>
            <DistanceMeters>NAN</DistanceMeters>
          </Trackpoint>
          <Trackpoint>
            <Time>2020-02-15T09:49:42.000Z</Time>
            <Position>
              <LatitudeDegrees>41.9703971408307552337646484375</LatitudeDegrees>
              <LongitudeDegrees>2.88516062311828136444091796875</LongitudeDegrees>
            </Position>
            <AltitudeMeters>214.600006103515625</AltitudeMeters>
            <DistanceMeters>NAN</DistanceMeters>
          </Trackpoint>
          <Trackpoint>
            <Time>2020-02-15T09:49:43.000Z</Time>
            <Position>
              <LatitudeDegrees>41.9703901000320911407470703125</LatitudeDegrees>
              <LongitudeDegrees>2.88519230671226978302001953125</LongitudeDegrees>
            </Position>
            <AltitudeMeters>215</AltitudeMeters>
            <DistanceMeters>NAN</DistanceMeters>
          </Trackpoint>
          <Trackpoint>
            <Time>2020-02-15T09:49:44.000Z</Time>
            <Position>
              <LatitudeDegrees>41.97038381360471248626708984375</LatitudeDegrees>
              <LongitudeDegrees>2.88522315211594104766845703125</LongitudeDegrees>
            </Position>
            <AltitudeMeters>215.1999969482421875</AltitudeMeters>
            <DistanceMeters>NAN</DistanceMeters>
          </Trackpoint>
          <Trackpoint>
            <Time>2020-02-15T09:49:45.000Z</Time>
            <Position>
              <LatitudeDegrees>41.97037861682474613189697265625</LatitudeDegrees>
              <LongitudeDegrees>2.88525550626218318939208984375</LongitudeDegrees>
            </Position>
            <AltitudeMeters>215.399993896484375</AltitudeMeters>
            <DistanceMeters>NAN</DistanceMeters>
          </Trackpoint>
          <Trackpoint>
            <Time>2020-02-15T09:49:46.000Z</Time>
            <Position>
              <LatitudeDegrees>41.970374174416065216064453125</LatitudeDegrees>
              <LongitudeDegrees>2.88529045879840850830078125</LongitudeDegrees>
            </Position>
            <AltitudeMeters>215.600006103515625</AltitudeMeters>
            <DistanceMeters>NAN</DistanceMeters>
          </Trackpoint>
          <Trackpoint>
            <Time>2020-02-15T09:49:47.000Z</Time>
            <Position>
              <LatitudeDegrees>41.97037023492157459259033203125</LatitudeDegrees>
              <LongitudeDegrees>2.88532155565917491912841796875</LongitudeDegrees>
            </Position>
            <AltitudeMeters>215.600006103515625</AltitudeMeters>
            <DistanceMeters>NAN</DistanceMeters>
          </Trackpoint>
          <Trackpoint>
            <Time>2020-02-15T09:49:48.000Z</Time>
            <Position>
              <LatitudeDegrees>41.97036956436932086944580078125</LatitudeDegrees>
              <LongitudeDegrees>2.88535675965249538421630859375</LongitudeDegrees>
            </Position>
            <AltitudeMeters>215.8000030517578125</AltitudeMeters>
            <DistanceMeters>NAN</DistanceMeters>
          </Trackpoint>
          <Trackpoint>
            <Time>2020-02-15T09:49:49.000Z</Time>
            <Position>
              <LatitudeDegrees>41.97036780416965484619140625</LatitudeDegrees>
              <LongitudeDegrees>2.8853891976177692413330078125</LongitudeDegrees>
            </Position>
            <AltitudeMeters>215.8000030517578125</AltitudeMeters>
            <DistanceMeters>NAN</DistanceMeters>
          </Trackpoint>
          <Trackpoint>
            <Time>2020-02-15T09:49:50.000Z</Time>
            <Position>
              <LatitudeDegrees>41.97036721743643283843994140625</LatitudeDegrees>
              <LongitudeDegrees>2.88542113266885280609130859375</LongitudeDegrees>
            </Position>
            <AltitudeMeters>215.8000030517578125</AltitudeMeters>
            <DistanceMeters>NAN</DistanceMeters>
          </Trackpoint>
          <Trackpoint>
            <Time>2020-02-15T09:49:51.000Z</Time>
            <Position>
              <LatitudeDegrees>41.970366798341274261474609375</LatitudeDegrees>
              <LongitudeDegrees>2.8854475356638431549072265625</LongitudeDegrees>
            </Position>
            <AltitudeMeters>216</AltitudeMeters>
            <DistanceMeters>NAN</DistanceMeters>
          </Trackpoint>
          <Trackpoint>
            <Time>2020-02-15T09:49:52.000Z</Time>
            <Position>
              <LatitudeDegrees>41.970366798341274261474609375</LatitudeDegrees>
              <LongitudeDegrees>2.88547511212527751922607421875</LongitudeDegrees>
            </Position>
            <AltitudeMeters>216.1999969482421875</AltitudeMeters>
            <DistanceMeters>NAN</DistanceMeters>
          </Trackpoint>
          <Trackpoint>
            <Time>2020-02-15T09:49:54.000Z</Time>
            <Position>
              <LatitudeDegrees>41.97036704979836940765380859375</LatitudeDegrees>
              <LongitudeDegrees>2.88552406243979930877685546875</LongitudeDegrees>
            </Position>
            <AltitudeMeters>216.399993896484375</AltitudeMeters>
            <DistanceMeters>NAN</DistanceMeters>
          </Trackpoint>
          <Trackpoint>
            <Time>2020-02-15T09:49:55.000Z</Time>
            <Position>
              <LatitudeDegrees>41.970366798341274261474609375</LatitudeDegrees>
              <LongitudeDegrees>2.88555063307285308837890625</LongitudeDegrees>
            </Position>
            <AltitudeMeters>216.399993896484375</AltitudeMeters>
            <DistanceMeters>NAN</DistanceMeters>
          </Trackpoint>
          <Trackpoint>
            <Time>2020-02-15T09:49:56.000Z</Time>
            <Position>
              <LatitudeDegrees>41.97036453522741794586181640625</LatitudeDegrees>
              <LongitudeDegrees>2.885577119886875152587890625</LongitudeDegrees>
            </Position>
            <AltitudeMeters>216.399993896484375</AltitudeMeters>
            <DistanceMeters>NAN</DistanceMeters>
          </Trackpoint>
          <Trackpoint>
            <Time>2020-02-15T09:49:57.000Z</Time>
            <Position>
              <LatitudeDegrees>41.9703599251806735992431640625</LatitudeDegrees>
              <LongitudeDegrees>2.885599918663501739501953125</LongitudeDegrees>
            </Position>
            <AltitudeMeters>216.600006103515625</AltitudeMeters>
            <DistanceMeters>NAN</DistanceMeters>
          </Trackpoint>
          <Trackpoint>
            <Time>2020-02-15T09:49:58.000Z</Time>
            <Position>
              <LatitudeDegrees>41.97035363875329494476318359375</LatitudeDegrees>
              <LongitudeDegrees>2.88561944849789142608642578125</LongitudeDegrees>
            </Position>
            <AltitudeMeters>216.600006103515625</AltitudeMeters>
            <DistanceMeters>NAN</DistanceMeters>
          </Trackpoint>
          <Trackpoint>
            <Time>2020-02-15T09:49:59.000Z</Time>
            <Position>
              <LatitudeDegrees>41.9703485257923603057861328125</LatitudeDegrees>
              <LongitudeDegrees>2.88564392365515232086181640625</LongitudeDegrees>
            </Position>
            <AltitudeMeters>216.8000030517578125</AltitudeMeters>
            <DistanceMeters>NAN</DistanceMeters>
          </Trackpoint>
          <Trackpoint>
            <Time>2020-02-15T09:50:00.000Z</Time>
            <Position>
              <LatitudeDegrees>41.97034307755529880523681640625</LatitudeDegrees>
              <LongitudeDegrees>2.8856661356985569000244140625</LongitudeDegrees>
            </Position>
            <AltitudeMeters>216.8000030517578125</AltitudeMeters>
            <DistanceMeters>NAN</DistanceMeters>
          </Trackpoint>
          <Trackpoint>
            <Time>2020-02-15T09:50:01.000Z</Time>
            <Position>
              <LatitudeDegrees>41.9703362882137298583984375</LatitudeDegrees>
              <LongitudeDegrees>2.88568952120840549468994140625</LongitudeDegrees>
            </Position>
            <AltitudeMeters>217.1999969482421875</AltitudeMeters>
            <DistanceMeters>NAN</DistanceMeters>
          </Trackpoint>
          <Trackpoint>
            <Time>2020-02-15T09:50:02.000Z</Time>
            <Position>
              <LatitudeDegrees>41.97032882831990718841552734375</LatitudeDegrees>
              <LongitudeDegrees>2.88570896722376346588134765625</LongitudeDegrees>
            </Position>
            <AltitudeMeters>217.1999969482421875</AltitudeMeters>
            <DistanceMeters>NAN</DistanceMeters>
          </Trackpoint>
          <Trackpoint>
            <Time>2020-02-15T09:50:03.000Z</Time>
            <Position>
              <LatitudeDegrees>41.97032145224511623382568359375</LatitudeDegrees>
              <LongitudeDegrees>2.8857264854013919830322265625</LongitudeDegrees>
            </Position>
            <AltitudeMeters>217.399993896484375</AltitudeMeters>
            <DistanceMeters>NAN</DistanceMeters>
          </Trackpoint>
          <Trackpoint>
            <Time>2020-02-15T09:50:04.000Z</Time>
            <Position>
              <LatitudeDegrees>41.97031441144645214080810546875</LatitudeDegrees>
              <LongitudeDegrees>2.8857449255883693695068359375</LongitudeDegrees>
            </Position>
            <AltitudeMeters>217.600006103515625</AltitudeMeters>
            <DistanceMeters>NAN</DistanceMeters>
          </Trackpoint>
          <Trackpoint>
            <Time>2020-02-15T09:50:05.000Z</Time>
            <Position>
              <LatitudeDegrees>41.97030586190521717071533203125</LatitudeDegrees>
              <LongitudeDegrees>2.88576127029955387115478515625</LongitudeDegrees>
            </Position>
            <AltitudeMeters>217.8000030517578125</AltitudeMeters>
            <DistanceMeters>NAN</DistanceMeters>
          </Trackpoint>
          <Trackpoint>
            <Time>2020-02-15T09:50:06.000Z</Time>
            <Position>
              <LatitudeDegrees>41.97029597125947475433349609375</LatitudeDegrees>
              <LongitudeDegrees>2.88577803410589694976806640625</LongitudeDegrees>
            </Position>
            <AltitudeMeters>218</AltitudeMeters>
            <DistanceMeters>NAN</DistanceMeters>
          </Trackpoint>
          <Trackpoint>
            <Time>2020-02-15T09:50:07.000Z</Time>
            <Position>
              <LatitudeDegrees>41.97028675116598606109619140625</LatitudeDegrees>
              <LongitudeDegrees>2.88579463027417659759521484375</LongitudeDegrees>
            </Position>
            <AltitudeMeters>218.399993896484375</AltitudeMeters>
            <DistanceMeters>NAN</DistanceMeters>
          </Trackpoint>
          <Trackpoint>
            <Time>2020-02-15T09:50:08.000Z</Time>
            <Position>
              <LatitudeDegrees>41.970278955996036529541015625</LatitudeDegrees>
              <LongitudeDegrees>2.885814495384693145751953125</LongitudeDegrees>
            </Position>
            <AltitudeMeters>218.399993896484375</AltitudeMeters>
            <DistanceMeters>NAN</DistanceMeters>
          </Trackpoint>
          <Trackpoint>
            <Time>2020-02-15T09:50:09.000Z</Time>
            <Position>
              <LatitudeDegrees>41.9702700711786746978759765625</LatitudeDegrees>
              <LongitudeDegrees>2.88583653979003429412841796875</LongitudeDegrees>
            </Position>
            <AltitudeMeters>218.600006103515625</AltitudeMeters>
            <DistanceMeters>NAN</DistanceMeters>
          </Trackpoint>
          <Trackpoint>
            <Time>2020-02-15T09:50:10.000Z</Time>
            <Position>
              <LatitudeDegrees>41.9702606834471225738525390625</LatitudeDegrees>
              <LongitudeDegrees>2.885861098766326904296875</LongitudeDegrees>
            </Position>
            <AltitudeMeters>218.8000030517578125</AltitudeMeters>
            <DistanceMeters>NAN</DistanceMeters>
          </Trackpoint>
          <Trackpoint>
            <Time>2020-02-15T09:50:11.000Z</Time>
            <Position>
              <LatitudeDegrees>41.9702502898871898651123046875</LatitudeDegrees>
              <LongitudeDegrees>2.88589127361774444580078125</LongitudeDegrees>
            </Position>
            <AltitudeMeters>219.1999969482421875</AltitudeMeters>
            <DistanceMeters>NAN</DistanceMeters>
          </Trackpoint>
          <Trackpoint>
            <Time>2020-02-15T09:50:12.000Z</Time>
            <Position>
              <LatitudeDegrees>41.97024282999336719512939453125</LatitudeDegrees>
              <LongitudeDegrees>2.88592035882174968719482421875</LongitudeDegrees>
            </Position>
            <AltitudeMeters>219.399993896484375</AltitudeMeters>
            <DistanceMeters>NAN</DistanceMeters>
          </Trackpoint>
          <Trackpoint>
            <Time>2020-02-15T09:50:13.000Z</Time>
            <Position>
              <LatitudeDegrees>41.97023008950054645538330078125</LatitudeDegrees>
              <LongitudeDegrees>2.8859407268464565277099609375</LongitudeDegrees>
            </Position>
            <AltitudeMeters>219.8000030517578125</AltitudeMeters>
            <DistanceMeters>NAN</DistanceMeters>
          </Trackpoint>
          <Trackpoint>
            <Time>2020-02-15T09:50:14.000Z</Time>
            <Position>
              <LatitudeDegrees>41.97021818719804286956787109375</LatitudeDegrees>
              <LongitudeDegrees>2.885964028537273406982421875</LongitudeDegrees>
            </Position>
            <AltitudeMeters>220.1999969482421875</AltitudeMeters>
            <DistanceMeters>NAN</DistanceMeters>
          </Trackpoint>
          <Trackpoint>
            <Time>2020-02-15T09:50:15.000Z</Time>
            <Position>
              <LatitudeDegrees>41.970209889113903045654296875</LatitudeDegrees>
              <LongitudeDegrees>2.885990180075168609619140625</LongitudeDegrees>
            </Position>
            <AltitudeMeters>220.399993896484375</AltitudeMeters>
            <DistanceMeters>NAN</DistanceMeters>
          </Trackpoint>
          <Trackpoint>
            <Time>2020-02-15T09:50:16.000Z</Time>
            <Position>
              <LatitudeDegrees>41.97020192630589008331298828125</LatitudeDegrees>
              <LongitudeDegrees>2.8860161639750003814697265625</LongitudeDegrees>
            </Position>
            <AltitudeMeters>220.600006103515625</AltitudeMeters>
            <DistanceMeters>NAN</DistanceMeters>
          </Trackpoint>
          <Trackpoint>
            <Time>2020-02-15T09:50:17.000Z</Time>
            <Position>
              <LatitudeDegrees>41.9701942987740039825439453125</LatitudeDegrees>
              <LongitudeDegrees>2.8860406391322612762451171875</LongitudeDegrees>
            </Position>
            <AltitudeMeters>220.8000030517578125</AltitudeMeters>
            <DistanceMeters>NAN</DistanceMeters>
          </Trackpoint>
          <Trackpoint>
            <Time>2020-02-15T09:50:18.000Z</Time>
            <Position>
              <LatitudeDegrees>41.9701859168708324432373046875</LatitudeDegrees>
              <LongitudeDegrees>2.88606503047049045562744140625</LongitudeDegrees>
            </Position>
            <AltitudeMeters>220.8000030517578125</AltitudeMeters>
            <DistanceMeters>NAN</DistanceMeters>
          </Trackpoint>
          <Trackpoint>
            <Time>2020-02-15T09:50:19.000Z</Time>
            <Position>
              <LatitudeDegrees>41.9701751880347728729248046875</LatitudeDegrees>
              <LongitudeDegrees>2.88608883507549762725830078125</LongitudeDegrees>
            </Position>
            <AltitudeMeters>220.8000030517578125</AltitudeMeters>
            <DistanceMeters>NAN</DistanceMeters>
          </Trackpoint>
          <Trackpoint>
            <Time>2020-02-15T09:50:20.000Z</Time>
            <Position>
              <LatitudeDegrees>41.97016722522675991058349609375</LatitudeDegrees>
              <LongitudeDegrees>2.88611481897532939910888671875</LongitudeDegrees>
            </Position>
            <AltitudeMeters>221</AltitudeMeters>
            <DistanceMeters>NAN</DistanceMeters>
          </Trackpoint>
          <Trackpoint>
            <Time>2020-02-15T09:50:21.000Z</Time>
            <Position>
              <LatitudeDegrees>41.9701577536761760711669921875</LatitudeDegrees>
              <LongitudeDegrees>2.8861388750374317169189453125</LongitudeDegrees>
            </Position>
            <AltitudeMeters>221</AltitudeMeters>
            <DistanceMeters>NAN</DistanceMeters>
          </Trackpoint>
          <Trackpoint>
            <Time>2020-02-15T09:50:22.000Z</Time>
            <Position>
              <LatitudeDegrees>41.97014878503978252410888671875</LatitudeDegrees>
              <LongitudeDegrees>2.886163182556629180908203125</LongitudeDegrees>
            </Position>
            <AltitudeMeters>221.1999969482421875</AltitudeMeters>
            <DistanceMeters>NAN</DistanceMeters>
          </Trackpoint>
          <Trackpoint>
            <Time>2020-02-15T09:50:23.000Z</Time>
            <Position>
              <LatitudeDegrees>41.97014207951724529266357421875</LatitudeDegrees>
              <LongitudeDegrees>2.88618740625679492950439453125</LongitudeDegrees>
            </Position>
            <AltitudeMeters>221.399993896484375</AltitudeMeters>
            <DistanceMeters>NAN</DistanceMeters>
          </Trackpoint>
          <Trackpoint>
            <Time>2020-02-15T09:50:24.000Z</Time>
            <Position>
              <LatitudeDegrees>41.970134116709232330322265625</LatitudeDegrees>
              <LongitudeDegrees>2.88620986975729465484619140625</LongitudeDegrees>
            </Position>
            <AltitudeMeters>221.399993896484375</AltitudeMeters>
            <DistanceMeters>NAN</DistanceMeters>
          </Trackpoint>
          <Trackpoint>
            <Time>2020-02-15T09:50:25.000Z</Time>
            <Position>
              <LatitudeDegrees>41.97012506425380706787109375</LatitudeDegrees>
              <LongitudeDegrees>2.88623149506747722625732421875</LongitudeDegrees>
            </Position>
            <AltitudeMeters>221.600006103515625</AltitudeMeters>
            <DistanceMeters>NAN</DistanceMeters>
          </Trackpoint>
          <Trackpoint>
            <Time>2020-02-15T09:50:26.000Z</Time>
            <Position>
              <LatitudeDegrees>41.97011592797935009002685546875</LatitudeDegrees>
              <LongitudeDegrees>2.88625337183475494384765625</LongitudeDegrees>
            </Position>
            <AltitudeMeters>221.600006103515625</AltitudeMeters>
            <DistanceMeters>NAN</DistanceMeters>
          </Trackpoint>
          <Trackpoint>
            <Time>2020-02-15T09:50:27.000Z</Time>
            <Position>
              <LatitudeDegrees>41.97010586969554424285888671875</LatitudeDegrees>
              <LongitudeDegrees>2.88627491332590579986572265625</LongitudeDegrees>
            </Position>
            <AltitudeMeters>221.8000030517578125</AltitudeMeters>
            <DistanceMeters>NAN</DistanceMeters>
          </Trackpoint>
          <Trackpoint>
            <Time>2020-02-15T09:50:28.000Z</Time>
            <Position>
              <LatitudeDegrees>41.9700967334210872650146484375</LatitudeDegrees>
              <LongitudeDegrees>2.88629804737865924835205078125</LongitudeDegrees>
            </Position>
            <AltitudeMeters>221.8000030517578125</AltitudeMeters>
            <DistanceMeters>NAN</DistanceMeters>
          </Trackpoint>
          <Trackpoint>
            <Time>2020-02-15T09:50:29.000Z</Time>
            <Position>
              <LatitudeDegrees>41.97008751332759857177734375</LatitudeDegrees>
              <LongitudeDegrees>2.8863202594220638275146484375</LongitudeDegrees>
            </Position>
            <AltitudeMeters>221.8000030517578125</AltitudeMeters>
            <DistanceMeters>NAN</DistanceMeters>
          </Trackpoint>
          <Trackpoint>
            <Time>2020-02-15T09:50:30.000Z</Time>
            <Position>
              <LatitudeDegrees>41.9700789637863636016845703125</LatitudeDegrees>
              <LongitudeDegrees>2.8863423876464366912841796875</LongitudeDegrees>
            </Position>
            <AltitudeMeters>222</AltitudeMeters>
            <DistanceMeters>NAN</DistanceMeters>
          </Trackpoint>
          <Trackpoint>
            <Time>2020-02-15T09:50:31.000Z</Time>
            <Position>
              <LatitudeDegrees>41.97007049806416034698486328125</LatitudeDegrees>
              <LongitudeDegrees>2.886363677680492401123046875</LongitudeDegrees>
            </Position>
            <AltitudeMeters>222.1999969482421875</AltitudeMeters>
            <DistanceMeters>NAN</DistanceMeters>
          </Trackpoint>
          <Trackpoint>
            <Time>2020-02-15T09:50:32.000Z</Time>
            <Position>
              <LatitudeDegrees>41.97006027214229106903076171875</LatitudeDegrees>
              <LongitudeDegrees>2.8863853029906749725341796875</LongitudeDegrees>
            </Position>
            <AltitudeMeters>222.600006103515625</AltitudeMeters>
            <DistanceMeters>NAN</DistanceMeters>
          </Trackpoint>
          <Trackpoint>
            <Time>2020-02-15T09:50:33.000Z</Time>
            <Position>
              <LatitudeDegrees>41.97005038149654865264892578125</LatitudeDegrees>
              <LongitudeDegrees>2.88640885613858699798583984375</LongitudeDegrees>
            </Position>
            <AltitudeMeters>222.8000030517578125</AltitudeMeters>
            <DistanceMeters>NAN</DistanceMeters>
          </Trackpoint>
          <Trackpoint>
            <Time>2020-02-15T09:50:34.000Z</Time>
            <Position>
              <LatitudeDegrees>41.97003864683210849761962890625</LatitudeDegrees>
              <LongitudeDegrees>2.88643148727715015411376953125</LongitudeDegrees>
            </Position>
            <AltitudeMeters>223</AltitudeMeters>
            <DistanceMeters>NAN</DistanceMeters>
          </Trackpoint>
          <Trackpoint>
            <Time>2020-02-15T09:50:35.000Z</Time>
            <Position>
              <LatitudeDegrees>41.97002691216766834259033203125</LatitudeDegrees>
              <LongitudeDegrees>2.88645311258733272552490234375</LongitudeDegrees>
            </Position>
            <AltitudeMeters>223</AltitudeMeters>
            <DistanceMeters>NAN</DistanceMeters>
          </Trackpoint>
          <Trackpoint>
            <Time>2020-02-15T09:50:36.000Z</Time>
            <Position>
              <LatitudeDegrees>41.97001568041741847991943359375</LatitudeDegrees>
              <LongitudeDegrees>2.886472307145595550537109375</LongitudeDegrees>
            </Position>
            <AltitudeMeters>223.1999969482421875</AltitudeMeters>
            <DistanceMeters>NAN</DistanceMeters>
          </Trackpoint>
          <Trackpoint>
            <Time>2020-02-15T09:50:37.000Z</Time>
            <Position>
              <LatitudeDegrees>41.97000277228653430938720703125</LatitudeDegrees>
              <LongitudeDegrees>2.8864935971796512603759765625</LongitudeDegrees>
            </Position>
            <AltitudeMeters>223.399993896484375</AltitudeMeters>
            <DistanceMeters>NAN</DistanceMeters>
          </Trackpoint>
          <Trackpoint>
            <Time>2020-02-15T09:50:38.000Z</Time>
            <Position>
              <LatitudeDegrees>41.96998835541307926177978515625</LatitudeDegrees>
              <LongitudeDegrees>2.88651488721370697021484375</LongitudeDegrees>
            </Position>
            <AltitudeMeters>223.600006103515625</AltitudeMeters>
            <DistanceMeters>NAN</DistanceMeters>
          </Trackpoint>
          <Trackpoint>
            <Time>2020-02-15T09:50:39.000Z</Time>
            <Position>
              <LatitudeDegrees>41.969973184168338775634765625</LatitudeDegrees>
              <LongitudeDegrees>2.8865311481058597564697265625</LongitudeDegrees>
            </Position>
            <AltitudeMeters>223.8000030517578125</AltitudeMeters>
            <DistanceMeters>NAN</DistanceMeters>
          </Trackpoint>
          <Trackpoint>
            <Time>2020-02-15T09:50:40.000Z</Time>
            <Position>
              <LatitudeDegrees>41.96995533071458339691162109375</LatitudeDegrees>
              <LongitudeDegrees>2.8865455649793148040771484375</LongitudeDegrees>
            </Position>
            <AltitudeMeters>224</AltitudeMeters>
            <DistanceMeters>NAN</DistanceMeters>
          </Trackpoint>
          <Trackpoint>
            <Time>2020-02-15T09:50:41.000Z</Time>
            <Position>
              <LatitudeDegrees>41.96993999183177947998046875</LatitudeDegrees>
              <LongitudeDegrees>2.88656626828014850616455078125</LongitudeDegrees>
            </Position>
            <AltitudeMeters>224.1999969482421875</AltitudeMeters>
            <DistanceMeters>NAN</DistanceMeters>
          </Trackpoint>
          <Trackpoint>
            <Time>2020-02-15T09:50:42.000Z</Time>
            <Position>
              <LatitudeDegrees>41.969923563301563262939453125</LatitudeDegrees>
              <LongitudeDegrees>2.88658705540001392364501953125</LongitudeDegrees>
            </Position>
            <AltitudeMeters>224.1999969482421875</AltitudeMeters>
            <DistanceMeters>NAN</DistanceMeters>
          </Trackpoint>
          <Trackpoint>
            <Time>2020-02-15T09:50:43.000Z</Time>
            <Position>
              <LatitudeDegrees>41.9699036143720149993896484375</LatitudeDegrees>
              <LongitudeDegrees>2.88660784251987934112548828125</LongitudeDegrees>
            </Position>
            <AltitudeMeters>224.600006103515625</AltitudeMeters>
            <DistanceMeters>NAN</DistanceMeters>
          </Trackpoint>
          <Trackpoint>
            <Time>2020-02-15T09:50:46.000Z</Time>
            <Position>
              <LatitudeDegrees>41.969844438135623931884765625</LatitudeDegrees>
              <LongitudeDegrees>2.886670790612697601318359375</LongitudeDegrees>
            </Position>
            <AltitudeMeters>224.8000030517578125</AltitudeMeters>
            <DistanceMeters>NAN</DistanceMeters>
          </Trackpoint>
          <Trackpoint>
            <Time>2020-02-15T09:50:47.000Z</Time>
            <Position>
              <LatitudeDegrees>41.96982759051024913787841796875</LatitudeDegrees>
              <LongitudeDegrees>2.88668948225677013397216796875</LongitudeDegrees>
            </Position>
            <AltitudeMeters>224.8000030517578125</AltitudeMeters>
            <DistanceMeters>NAN</DistanceMeters>
          </Trackpoint>
          <Trackpoint>
            <Time>2020-02-15T09:50:48.000Z</Time>
            <Position>
              <LatitudeDegrees>41.96981434710323810577392578125</LatitudeDegrees>
              <LongitudeDegrees>2.88670473732054233551025390625</LongitudeDegrees>
            </Position>
            <AltitudeMeters>225</AltitudeMeters>
            <DistanceMeters>NAN</DistanceMeters>
          </Trackpoint>
          <Trackpoint>
            <Time>2020-02-15T09:50:49.000Z</Time>
            <Position>
              <LatitudeDegrees>41.9697996787726879119873046875</LatitudeDegrees>
              <LongitudeDegrees>2.8867180645465850830078125</LongitudeDegrees>
            </Position>
            <AltitudeMeters>225.1999969482421875</AltitudeMeters>
            <DistanceMeters>NAN</DistanceMeters>
          </Trackpoint>
          <Trackpoint>
            <Time>2020-02-15T09:50:50.000Z</Time>
            <Position>
              <LatitudeDegrees>41.9697859324514865875244140625</LatitudeDegrees>
              <LongitudeDegrees>2.88673155941069126129150390625</LongitudeDegrees>
            </Position>
            <AltitudeMeters>225.1999969482421875</AltitudeMeters>
            <DistanceMeters>NAN</DistanceMeters>
          </Trackpoint>
          <Trackpoint>
            <Time>2020-02-15T09:50:51.000Z</Time>
            <Position>
              <LatitudeDegrees>41.9697728566825389862060546875</LatitudeDegrees>
              <LongitudeDegrees>2.8867484070360660552978515625</LongitudeDegrees>
            </Position>
            <AltitudeMeters>225.1999969482421875</AltitudeMeters>
            <DistanceMeters>NAN</DistanceMeters>
          </Trackpoint>
          <Trackpoint>
            <Time>2020-02-15T09:50:52.000Z</Time>
            <Position>
              <LatitudeDegrees>41.969761289656162261962890625</LatitudeDegrees>
              <LongitudeDegrees>2.88676726631820201873779296875</LongitudeDegrees>
            </Position>
            <AltitudeMeters>225.1999969482421875</AltitudeMeters>
            <DistanceMeters>NAN</DistanceMeters>
          </Trackpoint>
          <Trackpoint>
            <Time>2020-02-15T09:50:53.000Z</Time>
            <Position>
              <LatitudeDegrees>41.96975223720073699951171875</LatitudeDegrees>
              <LongitudeDegrees>2.88678788580000400543212890625</LongitudeDegrees>
            </Position>
            <AltitudeMeters>225.1999969482421875</AltitudeMeters>
            <DistanceMeters>NAN</DistanceMeters>
          </Trackpoint>
          <Trackpoint>
            <Time>2020-02-15T09:50:54.000Z</Time>
            <Position>
              <LatitudeDegrees>41.96974041871726512908935546875</LatitudeDegrees>
              <LongitudeDegrees>2.88681303150951862335205078125</LongitudeDegrees>
            </Position>
            <AltitudeMeters>225.1999969482421875</AltitudeMeters>
            <DistanceMeters>NAN</DistanceMeters>
          </Trackpoint>
          <Trackpoint>
            <Time>2020-02-15T09:50:56.000Z</Time>
            <Position>
              <LatitudeDegrees>41.96970990858972072601318359375</LatitudeDegrees>
              <LongitudeDegrees>2.88688947446644306182861328125</LongitudeDegrees>
            </Position>
            <AltitudeMeters>225.399993896484375</AltitudeMeters>
            <DistanceMeters>NAN</DistanceMeters>
          </Trackpoint>
          <Trackpoint>
            <Time>2020-02-15T09:50:58.000Z</Time>
            <Position>
              <LatitudeDegrees>41.9696652330458164215087890625</LatitudeDegrees>
              <LongitudeDegrees>2.8869787417352199554443359375</LongitudeDegrees>
            </Position>
            <AltitudeMeters>225.1999969482421875</AltitudeMeters>
            <DistanceMeters>NAN</DistanceMeters>
          </Trackpoint>
          <Trackpoint>
            <Time>2020-02-15T09:50:59.000Z</Time>
            <Position>
              <LatitudeDegrees>41.96963078342378139495849609375</LatitudeDegrees>
              <LongitudeDegrees>2.8870129399001598358154296875</LongitudeDegrees>
            </Position>
            <AltitudeMeters>225.399993896484375</AltitudeMeters>
            <DistanceMeters>NAN</DistanceMeters>
          </Trackpoint>
          <Trackpoint>
            <Time>2020-02-15T09:51:00.000Z</Time>
            <Position>
              <LatitudeDegrees>41.96958325803279876708984375</LatitudeDegrees>
              <LongitudeDegrees>2.88704521022737026214599609375</LongitudeDegrees>
            </Position>
            <AltitudeMeters>225.399993896484375</AltitudeMeters>
            <DistanceMeters>NAN</DistanceMeters>
          </Trackpoint>
          <Trackpoint>
            <Time>2020-02-15T09:51:01.000Z</Time>
            <Position>
              <LatitudeDegrees>41.9695411808788776397705078125</LatitudeDegrees>
              <LongitudeDegrees>2.88708829320967197418212890625</LongitudeDegrees>
            </Position>
            <AltitudeMeters>225.399993896484375</AltitudeMeters>
            <DistanceMeters>NAN</DistanceMeters>
          </Trackpoint>
          <Trackpoint>
            <Time>2020-02-15T09:51:02.000Z</Time>
            <Position>
              <LatitudeDegrees>41.96950673125684261322021484375</LatitudeDegrees>
              <LongitudeDegrees>2.88713984191417694091796875</LongitudeDegrees>
            </Position>
            <AltitudeMeters>225.399993896484375</AltitudeMeters>
            <DistanceMeters>NAN</DistanceMeters>
          </Trackpoint>
          <Trackpoint>
            <Time>2020-02-15T09:51:03.000Z</Time>
            <Position>
              <LatitudeDegrees>41.96948359720408916473388671875</LatitudeDegrees>
              <LongitudeDegrees>2.88719491101801395416259765625</LongitudeDegrees>
            </Position>
            <AltitudeMeters>225.399993896484375</AltitudeMeters>
            <DistanceMeters>NAN</DistanceMeters>
          </Trackpoint>
          <Trackpoint>
            <Time>2020-02-15T09:51:04.000Z</Time>
            <Position>
              <LatitudeDegrees>41.96947119198739528656005859375</LatitudeDegrees>
              <LongitudeDegrees>2.88724386133253574371337890625</LongitudeDegrees>
            </Position>
            <AltitudeMeters>225.399993896484375</AltitudeMeters>
            <DistanceMeters>NAN</DistanceMeters>
          </Trackpoint>
          <Trackpoint>
            <Time>2020-02-15T09:51:05.000Z</Time>
            <Position>
              <LatitudeDegrees>41.9694597087800502777099609375</LatitudeDegrees>
              <LongitudeDegrees>2.8872885368764400482177734375</LongitudeDegrees>
            </Position>
            <AltitudeMeters>225.399993896484375</AltitudeMeters>
            <DistanceMeters>NAN</DistanceMeters>
          </Trackpoint>
          <Trackpoint>
            <Time>2020-02-15T09:51:06.000Z</Time>
            <Position>
              <LatitudeDegrees>41.969447471201419830322265625</LatitudeDegrees>
              <LongitudeDegrees>2.88732265122234821319580078125</LongitudeDegrees>
            </Position>
            <AltitudeMeters>225.1999969482421875</AltitudeMeters>
            <DistanceMeters>NAN</DistanceMeters>
          </Trackpoint>
          <Trackpoint>
            <Time>2020-02-15T09:51:07.000Z</Time>
            <Position>
              <LatitudeDegrees>41.9694364070892333984375</LatitudeDegrees>
              <LongitudeDegrees>2.88734905421733856201171875</LongitudeDegrees>
            </Position>
            <AltitudeMeters>225.1999969482421875</AltitudeMeters>
            <DistanceMeters>NAN</DistanceMeters>
          </Trackpoint>
          <Trackpoint>
            <Time>2020-02-15T09:51:08.000Z</Time>
            <Position>
              <LatitudeDegrees>41.96942307986319065093994140625</LatitudeDegrees>
              <LongitudeDegrees>2.8873693384230136871337890625</LongitudeDegrees>
            </Position>
            <AltitudeMeters>225</AltitudeMeters>
            <DistanceMeters>NAN</DistanceMeters>
          </Trackpoint>
          <Trackpoint>
            <Time>2020-02-15T09:51:09.000Z</Time>
            <Position>
              <LatitudeDegrees>41.96941084228456020355224609375</LatitudeDegrees>
              <LongitudeDegrees>2.88738794624805450439453125</LongitudeDegrees>
            </Position>
            <AltitudeMeters>224.8000030517578125</AltitudeMeters>
            <DistanceMeters>NAN</DistanceMeters>
          </Trackpoint>
          <Trackpoint>
            <Time>2020-02-15T09:51:10.000Z</Time>
            <Position>
              <LatitudeDegrees>41.96940011344850063323974609375</LatitudeDegrees>
              <LongitudeDegrees>2.88740806281566619873046875</LongitudeDegrees>
            </Position>
            <AltitudeMeters>224.600006103515625</AltitudeMeters>
            <DistanceMeters>NAN</DistanceMeters>
          </Trackpoint>
          <Trackpoint>
            <Time>2020-02-15T09:51:11.000Z</Time>
            <Position>
              <LatitudeDegrees>41.96939106099307537078857421875</LatitudeDegrees>
              <LongitudeDegrees>2.88742792792618274688720703125</LongitudeDegrees>
            </Position>
            <AltitudeMeters>224.600006103515625</AltitudeMeters>
            <DistanceMeters>NAN</DistanceMeters>
          </Trackpoint>
          <Trackpoint>
            <Time>2020-02-15T09:51:12.000Z</Time>
            <Position>
              <LatitudeDegrees>41.96938301436603069305419921875</LatitudeDegrees>
              <LongitudeDegrees>2.88744963705539703369140625</LongitudeDegrees>
            </Position>
            <AltitudeMeters>224.600006103515625</AltitudeMeters>
            <DistanceMeters>NAN</DistanceMeters>
          </Trackpoint>
          <Trackpoint>
            <Time>2020-02-15T09:51:13.000Z</Time>
            <Position>
              <LatitudeDegrees>41.9693768955767154693603515625</LatitudeDegrees>
              <LongitudeDegrees>2.8874709270894527435302734375</LongitudeDegrees>
            </Position>
            <AltitudeMeters>224.600006103515625</AltitudeMeters>
            <DistanceMeters>NAN</DistanceMeters>
          </Trackpoint>
          <Trackpoint>
            <Time>2020-02-15T09:51:14.000Z</Time>
            <Position>
              <LatitudeDegrees>41.9693732075393199920654296875</LatitudeDegrees>
              <LongitudeDegrees>2.88749397732317447662353515625</LongitudeDegrees>
            </Position>
            <AltitudeMeters>224.600006103515625</AltitudeMeters>
            <DistanceMeters>NAN</DistanceMeters>
          </Trackpoint>
          <Trackpoint>
            <Time>2020-02-15T09:51:15.000Z</Time>
            <Position>
              <LatitudeDegrees>41.96937211789190769195556640625</LatitudeDegrees>
              <LongitudeDegrees>2.88751845248043537139892578125</LongitudeDegrees>
            </Position>
            <AltitudeMeters>224.399993896484375</AltitudeMeters>
            <DistanceMeters>NAN</DistanceMeters>
          </Trackpoint>
          <Trackpoint>
            <Time>2020-02-15T09:51:16.000Z</Time>
            <Position>
              <LatitudeDegrees>41.969374716281890869140625</LatitudeDegrees>
              <LongitudeDegrees>2.8875433467328548431396484375</LongitudeDegrees>
            </Position>
            <AltitudeMeters>224.399993896484375</AltitudeMeters>
            <DistanceMeters>NAN</DistanceMeters>
          </Trackpoint>
          <Trackpoint>
            <Time>2020-02-15T09:51:17.000Z</Time>
            <Position>
              <LatitudeDegrees>41.96938066743314266204833984375</LatitudeDegrees>
              <LongitudeDegrees>2.88756405003368854522705078125</LongitudeDegrees>
            </Position>
            <AltitudeMeters>224.600006103515625</AltitudeMeters>
            <DistanceMeters>NAN</DistanceMeters>
          </Trackpoint>
          <Trackpoint>
            <Time>2020-02-15T09:51:18.000Z</Time>
            <Position>
              <LatitudeDegrees>41.96938837878406047821044921875</LatitudeDegrees>
              <LongitudeDegrees>2.88758098147809505462646484375</LongitudeDegrees>
            </Position>
            <AltitudeMeters>224.399993896484375</AltitudeMeters>
            <DistanceMeters>NAN</DistanceMeters>
          </Trackpoint>
          <Trackpoint>
            <Time>2020-02-15T09:51:19.000Z</Time>
            <Position>
              <LatitudeDegrees>41.96939776651561260223388671875</LatitudeDegrees>
              <LongitudeDegrees>2.8875963203608989715576171875</LongitudeDegrees>
            </Position>
            <AltitudeMeters>224.399993896484375</AltitudeMeters>
            <DistanceMeters>NAN</DistanceMeters>
          </Trackpoint>
          <Trackpoint>
            <Time>2020-02-15T09:51:20.000Z</Time>
            <Position>
              <LatitudeDegrees>41.9694057293236255645751953125</LatitudeDegrees>
              <LongitudeDegrees>2.8876127488911151885986328125</LongitudeDegrees>
            </Position>
            <AltitudeMeters>224.600006103515625</AltitudeMeters>
            <DistanceMeters>NAN</DistanceMeters>
          </Trackpoint>
          <Trackpoint>
            <Time>2020-02-15T09:51:21.000Z</Time>
            <Position>
              <LatitudeDegrees>41.969412267208099365234375</LatitudeDegrees>
              <LongitudeDegrees>2.88762540556490421295166015625</LongitudeDegrees>
            </Position>
            <AltitudeMeters>224.8000030517578125</AltitudeMeters>
            <DistanceMeters>NAN</DistanceMeters>
          </Trackpoint>
          <Trackpoint>
            <Time>2020-02-15T09:51:22.000Z</Time>
            <Position>
              <LatitudeDegrees>41.969417966902256011962890625</LatitudeDegrees>
              <LongitudeDegrees>2.8876409120857715606689453125</LongitudeDegrees>
            </Position>
            <AltitudeMeters>225.1999969482421875</AltitudeMeters>
            <DistanceMeters>NAN</DistanceMeters>
          </Trackpoint>
          <Trackpoint>
            <Time>2020-02-15T09:51:23.000Z</Time>
            <Position>
              <LatitudeDegrees>41.96942525915801525115966796875</LatitudeDegrees>
              <LongitudeDegrees>2.8876595199108123779296875</LongitudeDegrees>
            </Position>
            <AltitudeMeters>225.399993896484375</AltitudeMeters>
            <DistanceMeters>NAN</DistanceMeters>
          </Trackpoint>
          <Trackpoint>
            <Time>2020-02-15T09:51:24.000Z</Time>
            <Position>
              <LatitudeDegrees>41.96943305432796478271484375</LatitudeDegrees>
              <LongitudeDegrees>2.88767586462199687957763671875</LongitudeDegrees>
            </Position>
            <AltitudeMeters>225.8000030517578125</AltitudeMeters>
            <DistanceMeters>NAN</DistanceMeters>
          </Trackpoint>
          <Trackpoint>
            <Time>2020-02-15T09:51:25.000Z</Time>
            <Position>
              <LatitudeDegrees>41.9694409333169460296630859375</LatitudeDegrees>
              <LongitudeDegrees>2.88769095204770565032958984375</LongitudeDegrees>
            </Position>
            <AltitudeMeters>226</AltitudeMeters>
            <DistanceMeters>NAN</DistanceMeters>
          </Trackpoint>
          <Trackpoint>
            <Time>2020-02-15T09:51:26.000Z</Time>
            <Position>
              <LatitudeDegrees>41.96945074014365673065185546875</LatitudeDegrees>
              <LongitudeDegrees>2.88770637474954128265380859375</LongitudeDegrees>
            </Position>
            <AltitudeMeters>226.600006103515625</AltitudeMeters>
            <DistanceMeters>NAN</DistanceMeters>
          </Trackpoint>
          <Trackpoint>
            <Time>2020-02-15T09:51:27.000Z</Time>
            <Position>
              <LatitudeDegrees>41.96945979259908199310302734375</LatitudeDegrees>
              <LongitudeDegrees>2.88772146217525005340576171875</LongitudeDegrees>
            </Position>
            <AltitudeMeters>226.8000030517578125</AltitudeMeters>
            <DistanceMeters>NAN</DistanceMeters>
          </Trackpoint>
          <Trackpoint>
            <Time>2020-02-15T09:51:28.000Z</Time>
            <Position>
              <LatitudeDegrees>41.96946800686419010162353515625</LatitudeDegrees>
              <LongitudeDegrees>2.8877378068864345550537109375</LongitudeDegrees>
            </Position>
            <AltitudeMeters>227.1999969482421875</AltitudeMeters>
            <DistanceMeters>NAN</DistanceMeters>
          </Trackpoint>
          <Trackpoint>
            <Time>2020-02-15T09:51:29.000Z</Time>
            <Position>
              <LatitudeDegrees>41.96947823278605937957763671875</LatitudeDegrees>
              <LongitudeDegrees>2.88775616325438022613525390625</LongitudeDegrees>
            </Position>
            <AltitudeMeters>227.399993896484375</AltitudeMeters>
            <DistanceMeters>NAN</DistanceMeters>
          </Trackpoint>
          <Trackpoint>
            <Time>2020-02-15T09:51:30.000Z</Time>
            <Position>
              <LatitudeDegrees>41.96948510594666004180908203125</LatitudeDegrees>
              <LongitudeDegrees>2.88777678273618221282958984375</LongitudeDegrees>
            </Position>
            <AltitudeMeters>227.8000030517578125</AltitudeMeters>
            <DistanceMeters>NAN</DistanceMeters>
          </Trackpoint>
          <Trackpoint>
            <Time>2020-02-15T09:51:31.000Z</Time>
            <Position>
              <LatitudeDegrees>41.96949399076402187347412109375</LatitudeDegrees>
              <LongitudeDegrees>2.887797988951206207275390625</LongitudeDegrees>
            </Position>
            <AltitudeMeters>228</AltitudeMeters>
            <DistanceMeters>NAN</DistanceMeters>
          </Trackpoint>
          <Trackpoint>
            <Time>2020-02-15T09:51:32.000Z</Time>
            <Position>
              <LatitudeDegrees>41.96950438432395458221435546875</LatitudeDegrees>
              <LongitudeDegrees>2.88781885989010334014892578125</LongitudeDegrees>
            </Position>
            <AltitudeMeters>228</AltitudeMeters>
            <DistanceMeters>NAN</DistanceMeters>
          </Trackpoint>
          <Trackpoint>
            <Time>2020-02-15T09:51:33.000Z</Time>
            <Position>
              <LatitudeDegrees>41.96951243095099925994873046875</LatitudeDegrees>
              <LongitudeDegrees>2.88783864118158817291259765625</LongitudeDegrees>
            </Position>
            <AltitudeMeters>228.399993896484375</AltitudeMeters>
            <DistanceMeters>NAN</DistanceMeters>
          </Trackpoint>
          <Trackpoint>
            <Time>2020-02-15T09:51:34.000Z</Time>
            <Position>
              <LatitudeDegrees>41.9695208966732025146484375</LatitudeDegrees>
              <LongitudeDegrees>2.88785808719694614410400390625</LongitudeDegrees>
            </Position>
            <AltitudeMeters>228.600006103515625</AltitudeMeters>
            <DistanceMeters>NAN</DistanceMeters>
          </Trackpoint>
          <Trackpoint>
            <Time>2020-02-15T09:51:35.000Z</Time>
            <Position>
              <LatitudeDegrees>41.96952718310058116912841796875</LatitudeDegrees>
              <LongitudeDegrees>2.8878792934119701385498046875</LongitudeDegrees>
            </Position>
            <AltitudeMeters>229</AltitudeMeters>
            <DistanceMeters>NAN</DistanceMeters>
          </Trackpoint>
          <Trackpoint>
            <Time>2020-02-15T09:51:36.000Z</Time>
            <Position>
              <LatitudeDegrees>41.969531290233135223388671875</LatitudeDegrees>
              <LongitudeDegrees>2.887900583446025848388671875</LongitudeDegrees>
            </Position>
            <AltitudeMeters>229.399993896484375</AltitudeMeters>
            <DistanceMeters>NAN</DistanceMeters>
          </Trackpoint>
          <Trackpoint>
            <Time>2020-02-15T09:51:37.000Z</Time>
            <Position>
              <LatitudeDegrees>41.9695311225950717926025390625</LatitudeDegrees>
              <LongitudeDegrees>2.88791793398559093475341796875</LongitudeDegrees>
            </Position>
            <AltitudeMeters>229.8000030517578125</AltitudeMeters>
            <DistanceMeters>NAN</DistanceMeters>
          </Trackpoint>
          <Trackpoint>
            <Time>2020-02-15T09:51:38.000Z</Time>
            <Position>
              <LatitudeDegrees>41.96952684782445430755615234375</LatitudeDegrees>
              <LongitudeDegrees>2.8879376314580440521240234375</LongitudeDegrees>
            </Position>
            <AltitudeMeters>230</AltitudeMeters>
            <DistanceMeters>NAN</DistanceMeters>
          </Trackpoint>
          <Trackpoint>
            <Time>2020-02-15T09:51:39.000Z</Time>
            <Position>
              <LatitudeDegrees>41.969517208635807037353515625</LatitudeDegrees>
              <LongitudeDegrees>2.8879493661224842071533203125</LongitudeDegrees>
            </Position>
            <AltitudeMeters>230.1999969482421875</AltitudeMeters>
            <DistanceMeters>NAN</DistanceMeters>
          </Trackpoint>
          <Trackpoint>
            <Time>2020-02-15T09:51:40.000Z</Time>
            <Position>
              <LatitudeDegrees>41.96950438432395458221435546875</LatitudeDegrees>
              <LongitudeDegrees>2.88795062340795993804931640625</LongitudeDegrees>
            </Position>
            <AltitudeMeters>230.399993896484375</AltitudeMeters>
            <DistanceMeters>NAN</DistanceMeters>
          </Trackpoint>
          <Trackpoint>
            <Time>2020-02-15T09:51:41.000Z</Time>
            <Position>
              <LatitudeDegrees>41.9694895483553409576416015625</LatitudeDegrees>
              <LongitudeDegrees>2.8879493661224842071533203125</LongitudeDegrees>
            </Position>
            <AltitudeMeters>230.600006103515625</AltitudeMeters>
            <DistanceMeters>NAN</DistanceMeters>
          </Trackpoint>
          <Trackpoint>
            <Time>2020-02-15T09:51:42.000Z</Time>
            <Position>
              <LatitudeDegrees>41.96947772987186908721923828125</LatitudeDegrees>
              <LongitudeDegrees>2.8879456780850887298583984375</LongitudeDegrees>
            </Position>
            <AltitudeMeters>231</AltitudeMeters>
            <DistanceMeters>NAN</DistanceMeters>
          </Trackpoint>
          <Trackpoint>
            <Time>2020-02-15T09:51:43.000Z</Time>
            <Position>
              <LatitudeDegrees>41.9694664143025875091552734375</LatitudeDegrees>
              <LongitudeDegrees>2.88793922401964664459228515625</LongitudeDegrees>
            </Position>
            <AltitudeMeters>231.1999969482421875</AltitudeMeters>
            <DistanceMeters>NAN</DistanceMeters>
          </Trackpoint>
          <Trackpoint>
            <Time>2020-02-15T09:51:44.000Z</Time>
            <Position>
              <LatitudeDegrees>41.96945426054298877716064453125</LatitudeDegrees>
              <LongitudeDegrees>2.8879322670400142669677734375</LongitudeDegrees>
            </Position>
            <AltitudeMeters>231.600006103515625</AltitudeMeters>
            <DistanceMeters>NAN</DistanceMeters>
          </Trackpoint>
          <Trackpoint>
            <Time>2020-02-15T09:51:45.000Z</Time>
            <Position>
              <LatitudeDegrees>41.9694379158318042755126953125</LatitudeDegrees>
              <LongitudeDegrees>2.88792178966104984283447265625</LongitudeDegrees>
            </Position>
            <AltitudeMeters>232</AltitudeMeters>
            <DistanceMeters>NAN</DistanceMeters>
          </Trackpoint>
          <Trackpoint>
            <Time>2020-02-15T09:51:46.000Z</Time>
            <Position>
              <LatitudeDegrees>41.9694251753389835357666015625</LatitudeDegrees>
              <LongitudeDegrees>2.8879141621291637420654296875</LongitudeDegrees>
            </Position>
            <AltitudeMeters>232.600006103515625</AltitudeMeters>
            <DistanceMeters>NAN</DistanceMeters>
          </Trackpoint>
          <Trackpoint>
            <Time>2020-02-15T09:51:47.000Z</Time>
            <Position>
              <LatitudeDegrees>41.96941159665584564208984375</LatitudeDegrees>
              <LongitudeDegrees>2.8879064507782459259033203125</LongitudeDegrees>
            </Position>
            <AltitudeMeters>233.1999969482421875</AltitudeMeters>
            <DistanceMeters>NAN</DistanceMeters>
          </Trackpoint>
          <Trackpoint>
            <Time>2020-02-15T09:51:48.000Z</Time>
            <Position>
              <LatitudeDegrees>41.96939877234399318695068359375</LatitudeDegrees>
              <LongitudeDegrees>2.88790158927440643310546875</LongitudeDegrees>
            </Position>
            <AltitudeMeters>233.399993896484375</AltitudeMeters>
            <DistanceMeters>NAN</DistanceMeters>
          </Trackpoint>
          <Trackpoint>
            <Time>2020-02-15T09:51:49.000Z</Time>
            <Position>
              <LatitudeDegrees>41.9693832658231258392333984375</LatitudeDegrees>
              <LongitudeDegrees>2.88789530284702777862548828125</LongitudeDegrees>
            </Position>
            <AltitudeMeters>234</AltitudeMeters>
            <DistanceMeters>NAN</DistanceMeters>
          </Trackpoint>
          <Trackpoint>
            <Time>2020-02-15T09:51:50.000Z</Time>
            <Position>
              <LatitudeDegrees>41.96936574764549732208251953125</LatitudeDegrees>
              <LongitudeDegrees>2.8878873400390148162841796875</LongitudeDegrees>
            </Position>
            <AltitudeMeters>234.399993896484375</AltitudeMeters>
            <DistanceMeters>NAN</DistanceMeters>
          </Trackpoint>
          <Trackpoint>
            <Time>2020-02-15T09:51:51.000Z</Time>
            <Position>
              <LatitudeDegrees>41.96935066021978855133056640625</LatitudeDegrees>
              <LongitudeDegrees>2.88788340054452419281005859375</LongitudeDegrees>
            </Position>
            <AltitudeMeters>234.8000030517578125</AltitudeMeters>
            <DistanceMeters>NAN</DistanceMeters>
          </Trackpoint>
          <Trackpoint>
            <Time>2020-02-15T09:51:52.000Z</Time>
            <Position>
              <LatitudeDegrees>41.969335488975048065185546875</LatitudeDegrees>
              <LongitudeDegrees>2.887879796326160430908203125</LongitudeDegrees>
            </Position>
            <AltitudeMeters>234.8000030517578125</AltitudeMeters>
            <DistanceMeters>NAN</DistanceMeters>
          </Trackpoint>
          <Trackpoint>
            <Time>2020-02-15T09:51:53.000Z</Time>
            <Position>
              <LatitudeDegrees>41.9693205691874027252197265625</LatitudeDegrees>
              <LongitudeDegrees>2.88788147270679473876953125</LongitudeDegrees>
            </Position>
            <AltitudeMeters>235.1999969482421875</AltitudeMeters>
            <DistanceMeters>NAN</DistanceMeters>
          </Trackpoint>
          <Trackpoint>
            <Time>2020-02-15T09:51:54.000Z</Time>
            <Position>
              <LatitudeDegrees>41.9693036377429962158203125</LatitudeDegrees>
              <LongitudeDegrees>2.8878853283822536468505859375</LongitudeDegrees>
            </Position>
            <AltitudeMeters>235.600006103515625</AltitudeMeters>
            <DistanceMeters>NAN</DistanceMeters>
          </Trackpoint>
          <Trackpoint>
            <Time>2020-02-15T09:51:55.000Z</Time>
            <Position>
              <LatitudeDegrees>41.9692850299179553985595703125</LatitudeDegrees>
              <LongitudeDegrees>2.88788876496255397796630859375</LongitudeDegrees>
            </Position>
            <AltitudeMeters>235.8000030517578125</AltitudeMeters>
            <DistanceMeters>NAN</DistanceMeters>
          </Trackpoint>
          <Trackpoint>
            <Time>2020-02-15T09:51:56.000Z</Time>
            <Position>
              <LatitudeDegrees>41.96926935575902462005615234375</LatitudeDegrees>
              <LongitudeDegrees>2.8878928720951080322265625</LongitudeDegrees>
            </Position>
            <AltitudeMeters>236.399993896484375</AltitudeMeters>
            <DistanceMeters>NAN</DistanceMeters>
          </Trackpoint>
          <Trackpoint>
            <Time>2020-02-15T09:51:57.000Z</Time>
            <Position>
              <LatitudeDegrees>41.96925560943782329559326171875</LatitudeDegrees>
              <LongitudeDegrees>2.88790024816989898681640625</LongitudeDegrees>
            </Position>
            <AltitudeMeters>236.600006103515625</AltitudeMeters>
            <DistanceMeters>NAN</DistanceMeters>
          </Trackpoint>
          <Trackpoint>
            <Time>2020-02-15T09:51:58.000Z</Time>
            <Position>
              <LatitudeDegrees>41.96924605406820774078369140625</LatitudeDegrees>
              <LongitudeDegrees>2.88791340775787830352783203125</LongitudeDegrees>
            </Position>
            <AltitudeMeters>236.8000030517578125</AltitudeMeters>
            <DistanceMeters>NAN</DistanceMeters>
          </Trackpoint>
          <Trackpoint>
            <Time>2020-02-15T09:51:59.000Z</Time>
            <Position>
              <LatitudeDegrees>41.9692365825176239013671875</LatitudeDegrees>
              <LongitudeDegrees>2.887926064431667327880859375</LongitudeDegrees>
            </Position>
            <AltitudeMeters>237</AltitudeMeters>
            <DistanceMeters>NAN</DistanceMeters>
          </Trackpoint>
          <Trackpoint>
            <Time>2020-02-15T09:52:00.000Z</Time>
            <Position>
              <LatitudeDegrees>41.9692276977002620697021484375</LatitudeDegrees>
              <LongitudeDegrees>2.8879372961819171905517578125</LongitudeDegrees>
            </Position>
            <AltitudeMeters>237.399993896484375</AltitudeMeters>
            <DistanceMeters>NAN</DistanceMeters>
          </Trackpoint>
          <Trackpoint>
            <Time>2020-02-15T09:52:01.000Z</Time>
            <Position>
              <LatitudeDegrees>41.9692218303680419921875</LatitudeDegrees>
              <LongitudeDegrees>2.887950204312801361083984375</LongitudeDegrees>
            </Position>
            <AltitudeMeters>237.600006103515625</AltitudeMeters>
            <DistanceMeters>NAN</DistanceMeters>
          </Trackpoint>
          <Trackpoint>
            <Time>2020-02-15T09:52:02.000Z</Time>
            <Position>
              <LatitudeDegrees>41.96921386756002902984619140625</LatitudeDegrees>
              <LongitudeDegrees>2.88796688430011272430419921875</LongitudeDegrees>
            </Position>
            <AltitudeMeters>238</AltitudeMeters>
            <DistanceMeters>NAN</DistanceMeters>
          </Trackpoint>
          <Trackpoint>
            <Time>2020-02-15T09:52:03.000Z</Time>
            <Position>
              <LatitudeDegrees>41.9692045636475086212158203125</LatitudeDegrees>
              <LongitudeDegrees>2.88798297755420207977294921875</LongitudeDegrees>
            </Position>
            <AltitudeMeters>238.1999969482421875</AltitudeMeters>
            <DistanceMeters>NAN</DistanceMeters>
          </Trackpoint>
          <Trackpoint>
            <Time>2020-02-15T09:52:04.000Z</Time>
            <Position>
              <LatitudeDegrees>41.96919567883014678955078125</LatitudeDegrees>
              <LongitudeDegrees>2.88799722678959369659423828125</LongitudeDegrees>
            </Position>
            <AltitudeMeters>238.600006103515625</AltitudeMeters>
            <DistanceMeters>NAN</DistanceMeters>
          </Trackpoint>
          <Trackpoint>
            <Time>2020-02-15T09:52:05.000Z</Time>
            <Position>
              <LatitudeDegrees>41.96918503381311893463134765625</LatitudeDegrees>
              <LongitudeDegrees>2.88800753653049468994140625</LongitudeDegrees>
            </Position>
            <AltitudeMeters>239</AltitudeMeters>
            <DistanceMeters>NAN</DistanceMeters>
          </Trackpoint>
          <Trackpoint>
            <Time>2020-02-15T09:52:06.000Z</Time>
            <Position>
              <LatitudeDegrees>41.96917681954801082611083984375</LatitudeDegrees>
              <LongitudeDegrees>2.8880197741091251373291015625</LongitudeDegrees>
            </Position>
            <AltitudeMeters>239.1999969482421875</AltitudeMeters>
            <DistanceMeters>NAN</DistanceMeters>
          </Trackpoint>
          <Trackpoint>
            <Time>2020-02-15T09:52:07.000Z</Time>
            <Position>
              <LatitudeDegrees>41.969167180359363555908203125</LatitudeDegrees>
              <LongitudeDegrees>2.888032011687755584716796875</LongitudeDegrees>
            </Position>
            <AltitudeMeters>239.399993896484375</AltitudeMeters>
            <DistanceMeters>NAN</DistanceMeters>
          </Trackpoint>
          <Trackpoint>
            <Time>2020-02-15T09:52:08.000Z</Time>
            <Position>
              <LatitudeDegrees>41.96915569715201854705810546875</LatitudeDegrees>
              <LongitudeDegrees>2.8880415670573711395263671875</LongitudeDegrees>
            </Position>
            <AltitudeMeters>239.600006103515625</AltitudeMeters>
            <DistanceMeters>NAN</DistanceMeters>
          </Trackpoint>
          <Trackpoint>
            <Time>2020-02-15T09:52:09.000Z</Time>
            <Position>
              <LatitudeDegrees>41.96914748288691043853759765625</LatitudeDegrees>
              <LongitudeDegrees>2.8880543075501918792724609375</LongitudeDegrees>
            </Position>
            <AltitudeMeters>240</AltitudeMeters>
            <DistanceMeters>NAN</DistanceMeters>
          </Trackpoint>
          <Trackpoint>
            <Time>2020-02-15T09:52:10.000Z</Time>
            <Position>
              <LatitudeDegrees>41.96913993917405605316162109375</LatitudeDegrees>
              <LongitudeDegrees>2.888065874576568603515625</LongitudeDegrees>
            </Position>
            <AltitudeMeters>240.1999969482421875</AltitudeMeters>
            <DistanceMeters>NAN</DistanceMeters>
          </Trackpoint>
          <Trackpoint>
            <Time>2020-02-15T09:52:11.000Z</Time>
            <Position>
              <LatitudeDegrees>41.96912904269993305206298828125</LatitudeDegrees>
              <LongitudeDegrees>2.8880744241178035736083984375</LongitudeDegrees>
            </Position>
            <AltitudeMeters>240.600006103515625</AltitudeMeters>
            <DistanceMeters>NAN</DistanceMeters>
          </Trackpoint>
          <Trackpoint>
            <Time>2020-02-15T09:52:12.000Z</Time>
            <Position>
              <LatitudeDegrees>41.96911814622581005096435546875</LatitudeDegrees>
              <LongitudeDegrees>2.888083644211292266845703125</LongitudeDegrees>
            </Position>
            <AltitudeMeters>240.600006103515625</AltitudeMeters>
            <DistanceMeters>NAN</DistanceMeters>
          </Trackpoint>
          <Trackpoint>
            <Time>2020-02-15T09:52:13.000Z</Time>
            <Position>
              <LatitudeDegrees>41.96911026723682880401611328125</LatitudeDegrees>
              <LongitudeDegrees>2.8880952112376689910888671875</LongitudeDegrees>
            </Position>
            <AltitudeMeters>241</AltitudeMeters>
            <DistanceMeters>NAN</DistanceMeters>
          </Trackpoint>
          <Trackpoint>
            <Time>2020-02-15T09:52:14.000Z</Time>
            <Position>
              <LatitudeDegrees>41.9691019691526889801025390625</LatitudeDegrees>
              <LongitudeDegrees>2.888110466301441192626953125</LongitudeDegrees>
            </Position>
            <AltitudeMeters>241</AltitudeMeters>
            <DistanceMeters>NAN</DistanceMeters>
          </Trackpoint>
          <Trackpoint>
            <Time>2020-02-15T09:52:15.000Z</Time>
            <Position>
              <LatitudeDegrees>41.96909232996404170989990234375</LatitudeDegrees>
              <LongitudeDegrees>2.88812362588942050933837890625</LongitudeDegrees>
            </Position>
            <AltitudeMeters>241.1999969482421875</AltitudeMeters>
            <DistanceMeters>NAN</DistanceMeters>
          </Trackpoint>
          <Trackpoint>
            <Time>2020-02-15T09:52:16.000Z</Time>
            <Position>
              <LatitudeDegrees>41.96907900273799896240234375</LatitudeDegrees>
              <LongitudeDegrees>2.88813351653516292572021484375</LongitudeDegrees>
            </Position>
            <AltitudeMeters>241.399993896484375</AltitudeMeters>
            <DistanceMeters>NAN</DistanceMeters>
          </Trackpoint>
          <Trackpoint>
            <Time>2020-02-15T09:52:17.000Z</Time>
            <Position>
              <LatitudeDegrees>41.969065256416797637939453125</LatitudeDegrees>
              <LongitudeDegrees>2.8881414793431758880615234375</LongitudeDegrees>
            </Position>
            <AltitudeMeters>241.600006103515625</AltitudeMeters>
            <DistanceMeters>NAN</DistanceMeters>
          </Trackpoint>
          <Trackpoint>
            <Time>2020-02-15T09:52:18.000Z</Time>
            <Position>
              <LatitudeDegrees>41.96904874406754970550537109375</LatitudeDegrees>
              <LongitudeDegrees>2.888149358332157135009765625</LongitudeDegrees>
            </Position>
            <AltitudeMeters>241.8000030517578125</AltitudeMeters>
            <DistanceMeters>NAN</DistanceMeters>
          </Trackpoint>
          <Trackpoint>
            <Time>2020-02-15T09:52:19.000Z</Time>
            <Position>
              <LatitudeDegrees>41.9690329022705554962158203125</LatitudeDegrees>
              <LongitudeDegrees>2.8881584107875823974609375</LongitudeDegrees>
            </Position>
            <AltitudeMeters>242</AltitudeMeters>
            <DistanceMeters>NAN</DistanceMeters>
          </Trackpoint>
          <Trackpoint>
            <Time>2020-02-15T09:52:20.000Z</Time>
            <Position>
              <LatitudeDegrees>41.9690181501209735870361328125</LatitudeDegrees>
              <LongitudeDegrees>2.8881691396236419677734375</LongitudeDegrees>
            </Position>
            <AltitudeMeters>242.1999969482421875</AltitudeMeters>
            <DistanceMeters>NAN</DistanceMeters>
          </Trackpoint>
          <Trackpoint>
            <Time>2020-02-15T09:52:21.000Z</Time>
            <Position>
              <LatitudeDegrees>41.96900448761880397796630859375</LatitudeDegrees>
              <LongitudeDegrees>2.888181209564208984375</LongitudeDegrees>
            </Position>
            <AltitudeMeters>242.399993896484375</AltitudeMeters>
            <DistanceMeters>NAN</DistanceMeters>
          </Trackpoint>
          <Trackpoint>
            <Time>2020-02-15T09:52:22.000Z</Time>
            <Position>
              <LatitudeDegrees>41.9689946807920932769775390625</LatitudeDegrees>
              <LongitudeDegrees>2.888195626437664031982421875</LongitudeDegrees>
            </Position>
            <AltitudeMeters>242.600006103515625</AltitudeMeters>
            <DistanceMeters>NAN</DistanceMeters>
          </Trackpoint>
          <Trackpoint>
            <Time>2020-02-15T09:52:23.000Z</Time>
            <Position>
              <LatitudeDegrees>41.9689862988889217376708984375</LatitudeDegrees>
              <LongitudeDegrees>2.88820979185402393341064453125</LongitudeDegrees>
            </Position>
            <AltitudeMeters>242.600006103515625</AltitudeMeters>
            <DistanceMeters>NAN</DistanceMeters>
          </Trackpoint>
          <Trackpoint>
            <Time>2020-02-15T09:52:24.000Z</Time>
            <Position>
              <LatitudeDegrees>41.968981437385082244873046875</LatitudeDegrees>
              <LongitudeDegrees>2.88821951486170291900634765625</LongitudeDegrees>
            </Position>
            <AltitudeMeters>243</AltitudeMeters>
            <DistanceMeters>NAN</DistanceMeters>
          </Trackpoint>
          <Trackpoint>
            <Time>2020-02-15T09:52:25.000Z</Time>
            <Position>
              <LatitudeDegrees>41.96897749789059162139892578125</LatitudeDegrees>
              <LongitudeDegrees>2.88822269998490810394287109375</LongitudeDegrees>
            </Position>
            <AltitudeMeters>243.1999969482421875</AltitudeMeters>
            <DistanceMeters>NAN</DistanceMeters>
          </Trackpoint>
          <Trackpoint>
            <Time>2020-02-15T09:52:26.000Z</Time>
            <Position>
              <LatitudeDegrees>41.9689732231199741363525390625</LatitudeDegrees>
              <LongitudeDegrees>2.88822202943265438079833984375</LongitudeDegrees>
            </Position>
            <AltitudeMeters>243.600006103515625</AltitudeMeters>
            <DistanceMeters>NAN</DistanceMeters>
          </Trackpoint>
          <Trackpoint>
            <Time>2020-02-15T09:52:34.000Z</Time>
            <Position>
              <LatitudeDegrees>41.96896794252097606658935546875</LatitudeDegrees>
              <LongitudeDegrees>2.88824298419058322906494140625</LongitudeDegrees>
            </Position>
            <AltitudeMeters>244.8000030517578125</AltitudeMeters>
            <DistanceMeters>NAN</DistanceMeters>
          </Trackpoint>
          <Trackpoint>
            <Time>2020-02-15T09:52:38.000Z</Time>
            <Position>
              <LatitudeDegrees>41.96897096000611782073974609375</LatitudeDegrees>
              <LongitudeDegrees>2.88824700750410556793212890625</LongitudeDegrees>
            </Position>
            <AltitudeMeters>244.8000030517578125</AltitudeMeters>
            <DistanceMeters>NAN</DistanceMeters>
          </Trackpoint>
          <Trackpoint>
            <Time>2020-02-15T09:52:50.000Z</Time>
            <Position>
              <LatitudeDegrees>41.96897515095770359039306640625</LatitudeDegrees>
              <LongitudeDegrees>2.88825287483632564544677734375</LongitudeDegrees>
            </Position>
            <AltitudeMeters>245.1999969482421875</AltitudeMeters>
            <DistanceMeters>NAN</DistanceMeters>
          </Trackpoint>
          <Trackpoint>
            <Time>2020-02-15T09:52:58.000Z</Time>
            <Position>
              <LatitudeDegrees>41.96897330693900585174560546875</LatitudeDegrees>
              <LongitudeDegrees>2.88824851624667644500732421875</LongitudeDegrees>
            </Position>
            <AltitudeMeters>245.1999969482421875</AltitudeMeters>
            <DistanceMeters>NAN</DistanceMeters>
          </Trackpoint>
          <Trackpoint>
            <Time>2020-02-15T09:53:02.000Z</Time>
            <Position>
              <LatitudeDegrees>41.96898118592798709869384765625</LatitudeDegrees>
              <LongitudeDegrees>2.8882494382560253143310546875</LongitudeDegrees>
            </Position>
            <AltitudeMeters>245</AltitudeMeters>
            <DistanceMeters>NAN</DistanceMeters>
          </Trackpoint>
          <Trackpoint>
            <Time>2020-02-15T09:53:03.000Z</Time>
            <Position>
              <LatitudeDegrees>41.968981437385082244873046875</LatitudeDegrees>
              <LongitudeDegrees>2.8882496058940887451171875</LongitudeDegrees>
            </Position>
            <AltitudeMeters>245.1999969482421875</AltitudeMeters>
            <DistanceMeters>NAN</DistanceMeters>
          </Trackpoint>
          <Trackpoint>
            <Time>2020-02-15T09:53:06.000Z</Time>
            <Position>
              <LatitudeDegrees>41.9689822755753993988037109375</LatitudeDegrees>
              <LongitudeDegrees>2.8882477618753910064697265625</LongitudeDegrees>
            </Position>
            <AltitudeMeters>245</AltitudeMeters>
            <DistanceMeters>NAN</DistanceMeters>
          </Trackpoint>
          <Trackpoint>
            <Time>2020-02-15T09:53:12.000Z</Time>
            <Position>
              <LatitudeDegrees>41.96898135356605052947998046875</LatitudeDegrees>
              <LongitudeDegrees>2.88824331946671009063720703125</LongitudeDegrees>
            </Position>
            <AltitudeMeters>245.1999969482421875</AltitudeMeters>
            <DistanceMeters>NAN</DistanceMeters>
          </Trackpoint>
          <Trackpoint>
            <Time>2020-02-15T09:53:16.000Z</Time>
            <Position>
              <LatitudeDegrees>41.96898068301379680633544921875</LatitudeDegrees>
              <LongitudeDegrees>2.88824264891445636749267578125</LongitudeDegrees>
            </Position>
            <AltitudeMeters>245</AltitudeMeters>
            <DistanceMeters>NAN</DistanceMeters>
          </Trackpoint>
          <Trackpoint>
            <Time>2020-02-15T09:53:17.000Z</Time>
            <Position>
              <LatitudeDegrees>41.96898068301379680633544921875</LatitudeDegrees>
              <LongitudeDegrees>2.8882427327334880828857421875</LongitudeDegrees>
            </Position>
            <AltitudeMeters>245</AltitudeMeters>
            <DistanceMeters>NAN</DistanceMeters>
          </Trackpoint>
          <Trackpoint>
            <Time>2020-02-15T09:53:21.000Z</Time>
            <Position>
              <LatitudeDegrees>41.9689812697470188140869140625</LatitudeDegrees>
              <LongitudeDegrees>2.888242900371551513671875</LongitudeDegrees>
            </Position>
            <AltitudeMeters>245</AltitudeMeters>
            <DistanceMeters>NAN</DistanceMeters>
          </Trackpoint>
          <Trackpoint>
            <Time>2020-02-15T09:53:27.000Z</Time>
            <Position>
              <LatitudeDegrees>41.9689812697470188140869140625</LatitudeDegrees>
              <LongitudeDegrees>2.88824021816253662109375</LongitudeDegrees>
            </Position>
            <AltitudeMeters>245.1999969482421875</AltitudeMeters>
            <DistanceMeters>NAN</DistanceMeters>
          </Trackpoint>
          <Trackpoint>
            <Time>2020-02-15T09:53:33.000Z</Time>
            <Position>
              <LatitudeDegrees>41.96897699497640132904052734375</LatitudeDegrees>
              <LongitudeDegrees>2.88823862560093402862548828125</LongitudeDegrees>
            </Position>
            <AltitudeMeters>245.1999969482421875</AltitudeMeters>
            <DistanceMeters>NAN</DistanceMeters>
          </Trackpoint>
          <Trackpoint>
            <Time>2020-02-15T09:53:36.000Z</Time>
            <Position>
              <LatitudeDegrees>41.968973390758037567138671875</LatitudeDegrees>
              <LongitudeDegrees>2.88823912851512432098388671875</LongitudeDegrees>
            </Position>
            <AltitudeMeters>245</AltitudeMeters>
            <DistanceMeters>NAN</DistanceMeters>
          </Trackpoint>
          <Trackpoint>
            <Time>2020-02-15T09:53:41.000Z</Time>
            <Position>
              <LatitudeDegrees>41.96897012181580066680908203125</LatitudeDegrees>
              <LongitudeDegrees>2.88823845796287059783935546875</LongitudeDegrees>
            </Position>
            <AltitudeMeters>245</AltitudeMeters>
            <DistanceMeters>NAN</DistanceMeters>
          </Trackpoint>
          <Trackpoint>
            <Time>2020-02-15T09:53:53.000Z</Time>
            <Position>
              <LatitudeDegrees>41.968965344130992889404296875</LatitudeDegrees>
              <LongitudeDegrees>2.88823711685836315155029296875</LongitudeDegrees>
            </Position>
            <AltitudeMeters>245.1999969482421875</AltitudeMeters>
            <DistanceMeters>NAN</DistanceMeters>
          </Trackpoint>
          <Trackpoint>
            <Time>2020-02-15T09:54:01.000Z</Time>
            <Position>
              <LatitudeDegrees>41.96896366775035858154296875</LatitudeDegrees>
              <LongitudeDegrees>2.888235859572887420654296875</LongitudeDegrees>
            </Position>
            <AltitudeMeters>245.1999969482421875</AltitudeMeters>
            <DistanceMeters>NAN</DistanceMeters>
          </Trackpoint>
          <Trackpoint>
            <Time>2020-02-15T09:54:05.000Z</Time>
            <Position>
              <LatitudeDegrees>41.96896274574100971221923828125</LatitudeDegrees>
              <LongitudeDegrees>2.888232506811618804931640625</LongitudeDegrees>
            </Position>
            <AltitudeMeters>245</AltitudeMeters>
            <DistanceMeters>NAN</DistanceMeters>
          </Trackpoint>
          <Trackpoint>
            <Time>2020-02-15T09:54:10.000Z</Time>
            <Position>
              <LatitudeDegrees>41.96895956061780452728271484375</LatitudeDegrees>
              <LongitudeDegrees>2.8882326744496822357177734375</LongitudeDegrees>
            </Position>
            <AltitudeMeters>245</AltitudeMeters>
            <DistanceMeters>NAN</DistanceMeters>
          </Trackpoint>
          <Trackpoint>
            <Time>2020-02-15T09:54:21.000Z</Time>
            <Position>
              <LatitudeDegrees>41.96895587258040904998779296875</LatitudeDegrees>
              <LongitudeDegrees>2.88823493756353855133056640625</LongitudeDegrees>
            </Position>
            <AltitudeMeters>245</AltitudeMeters>
            <DistanceMeters>NAN</DistanceMeters>
          </Trackpoint>
          <Trackpoint>
            <Time>2020-02-15T09:54:25.000Z</Time>
            <Position>
              <LatitudeDegrees>41.96895034052431583404541015625</LatitudeDegrees>
              <LongitudeDegrees>2.88823443464934825897216796875</LongitudeDegrees>
            </Position>
            <AltitudeMeters>245</AltitudeMeters>
            <DistanceMeters>NAN</DistanceMeters>
          </Trackpoint>
          <Trackpoint>
            <Time>2020-02-15T09:54:36.000Z</Time>
            <Position>
              <LatitudeDegrees>41.968947239220142364501953125</LatitudeDegrees>
              <LongitudeDegrees>2.88823192007839679718017578125</LongitudeDegrees>
            </Position>
            <AltitudeMeters>245.1999969482421875</AltitudeMeters>
            <DistanceMeters>NAN</DistanceMeters>
          </Trackpoint>
          <Trackpoint>
            <Time>2020-02-15T09:54:38.000Z</Time>
            <Position>
              <LatitudeDegrees>41.96894229389727115631103515625</LatitudeDegrees>
              <LongitudeDegrees>2.8882467560470104217529296875</LongitudeDegrees>
            </Position>
            <AltitudeMeters>245</AltitudeMeters>
            <DistanceMeters>NAN</DistanceMeters>
          </Trackpoint>
          <Trackpoint>
            <Time>2020-02-15T09:54:39.000Z</Time>
            <Position>
              <LatitudeDegrees>41.9689356721937656402587890625</LatitudeDegrees>
              <LongitudeDegrees>2.8882549703121185302734375</LongitudeDegrees>
            </Position>
            <AltitudeMeters>245</AltitudeMeters>
            <DistanceMeters>NAN</DistanceMeters>
          </Trackpoint>
          <Trackpoint>
            <Time>2020-02-15T09:54:40.000Z</Time>
            <Position>
              <LatitudeDegrees>41.96892988868057727813720703125</LatitudeDegrees>
              <LongitudeDegrees>2.8882651962339878082275390625</LongitudeDegrees>
            </Position>
            <AltitudeMeters>245</AltitudeMeters>
            <DistanceMeters>NAN</DistanceMeters>
          </Trackpoint>
          <Trackpoint>
            <Time>2020-02-15T09:54:41.000Z</Time>
            <Position>
              <LatitudeDegrees>41.96892251260578632354736328125</LatitudeDegrees>
              <LongitudeDegrees>2.88827265612781047821044921875</LongitudeDegrees>
            </Position>
            <AltitudeMeters>245.1999969482421875</AltitudeMeters>
            <DistanceMeters>NAN</DistanceMeters>
          </Trackpoint>
          <Trackpoint>
            <Time>2020-02-15T09:54:42.000Z</Time>
            <Position>
              <LatitudeDegrees>41.968913711607456207275390625</LatitudeDegrees>
              <LongitudeDegrees>2.8882826305925846099853515625</LongitudeDegrees>
            </Position>
            <AltitudeMeters>245.1999969482421875</AltitudeMeters>
            <DistanceMeters>NAN</DistanceMeters>
          </Trackpoint>
          <Trackpoint>
            <Time>2020-02-15T09:54:43.000Z</Time>
            <Position>
              <LatitudeDegrees>41.96890532970428466796875</LatitudeDegrees>
              <LongitudeDegrees>2.88829746656119823455810546875</LongitudeDegrees>
            </Position>
            <AltitudeMeters>245.1999969482421875</AltitudeMeters>
            <DistanceMeters>NAN</DistanceMeters>
          </Trackpoint>
          <Trackpoint>
            <Time>2020-02-15T09:54:44.000Z</Time>
            <Position>
              <LatitudeDegrees>41.96889317594468593597412109375</LatitudeDegrees>
              <LongitudeDegrees>2.88830936886370182037353515625</LongitudeDegrees>
            </Position>
            <AltitudeMeters>245.1999969482421875</AltitudeMeters>
            <DistanceMeters>NAN</DistanceMeters>
          </Trackpoint>
          <Trackpoint>
            <Time>2020-02-15T09:54:45.000Z</Time>
            <Position>
              <LatitudeDegrees>41.96887909434735774993896484375</LatitudeDegrees>
              <LongitudeDegrees>2.88832160644233226776123046875</LongitudeDegrees>
            </Position>
            <AltitudeMeters>245.1999969482421875</AltitudeMeters>
            <DistanceMeters>NAN</DistanceMeters>
          </Trackpoint>
          <Trackpoint>
            <Time>2020-02-15T09:54:46.000Z</Time>
            <Position>
              <LatitudeDegrees>41.96886652149260044097900390625</LatitudeDegrees>
              <LongitudeDegrees>2.888335771858692169189453125</LongitudeDegrees>
            </Position>
            <AltitudeMeters>245.1999969482421875</AltitudeMeters>
            <DistanceMeters>NAN</DistanceMeters>
          </Trackpoint>
          <Trackpoint>
            <Time>2020-02-15T09:54:47.000Z</Time>
            <Position>
              <LatitudeDegrees>41.96885629557073116302490234375</LatitudeDegrees>
              <LongitudeDegrees>2.88834859617054462432861328125</LongitudeDegrees>
            </Position>
            <AltitudeMeters>245.399993896484375</AltitudeMeters>
            <DistanceMeters>NAN</DistanceMeters>
          </Trackpoint>
          <Trackpoint>
            <Time>2020-02-15T09:54:48.000Z</Time>
            <Position>
              <LatitudeDegrees>41.968846656382083892822265625</LatitudeDegrees>
              <LongitudeDegrees>2.88836292922496795654296875</LongitudeDegrees>
            </Position>
            <AltitudeMeters>245.399993896484375</AltitudeMeters>
            <DistanceMeters>NAN</DistanceMeters>
          </Trackpoint>
          <Trackpoint>
            <Time>2020-02-15T09:54:49.000Z</Time>
            <Position>
              <LatitudeDegrees>41.96883802302181720733642578125</LatitudeDegrees>
              <LongitudeDegrees>2.888376675546169281005859375</LongitudeDegrees>
            </Position>
            <AltitudeMeters>245.600006103515625</AltitudeMeters>
            <DistanceMeters>NAN</DistanceMeters>
          </Trackpoint>
          <Trackpoint>
            <Time>2020-02-15T09:54:50.000Z</Time>
            <Position>
              <LatitudeDegrees>41.96883165277540683746337890625</LatitudeDegrees>
              <LongitudeDegrees>2.8883879072964191436767578125</LongitudeDegrees>
            </Position>
            <AltitudeMeters>245.8000030517578125</AltitudeMeters>
            <DistanceMeters>NAN</DistanceMeters>
          </Trackpoint>
          <Trackpoint>
            <Time>2020-02-15T09:54:51.000Z</Time>
            <Position>
              <LatitudeDegrees>41.96882679127156734466552734375</LatitudeDegrees>
              <LongitudeDegrees>2.88839486427605152130126953125</LongitudeDegrees>
            </Position>
            <AltitudeMeters>246.1999969482421875</AltitudeMeters>
            <DistanceMeters>NAN</DistanceMeters>
          </Trackpoint>
          <Trackpoint>
            <Time>2020-02-15T09:54:52.000Z</Time>
            <Position>
              <LatitudeDegrees>41.968824528157711029052734375</LatitudeDegrees>
              <LongitudeDegrees>2.8883998095989227294921875</LongitudeDegrees>
            </Position>
            <AltitudeMeters>246.600006103515625</AltitudeMeters>
            <DistanceMeters>NAN</DistanceMeters>
          </Trackpoint>
          <Trackpoint>
            <Time>2020-02-15T09:54:53.000Z</Time>
            <Position>
              <LatitudeDegrees>41.96882293559610843658447265625</LatitudeDegrees>
              <LongitudeDegrees>2.88840291090309619903564453125</LongitudeDegrees>
            </Position>
            <AltitudeMeters>246.8000030517578125</AltitudeMeters>
            <DistanceMeters>NAN</DistanceMeters>
          </Trackpoint>
          <Trackpoint>
            <Time>2020-02-15T09:54:55.000Z</Time>
            <Position>
              <LatitudeDegrees>41.96881748735904693603515625</LatitudeDegrees>
              <LongitudeDegrees>2.888414226472377777099609375</LongitudeDegrees>
            </Position>
            <AltitudeMeters>247.600006103515625</AltitudeMeters>
            <DistanceMeters>NAN</DistanceMeters>
          </Trackpoint>
          <Trackpoint>
            <Time>2020-02-15T09:54:57.000Z</Time>
            <Position>
              <LatitudeDegrees>41.968815140426158905029296875</LatitudeDegrees>
              <LongitudeDegrees>2.8884239494800567626953125</LongitudeDegrees>
            </Position>
            <AltitudeMeters>247.8000030517578125</AltitudeMeters>
            <DistanceMeters>NAN</DistanceMeters>
          </Trackpoint>
          <Trackpoint>
            <Time>2020-02-15T09:55:04.000Z</Time>
            <Position>
              <LatitudeDegrees>41.9688173197209835052490234375</LatitudeDegrees>
              <LongitudeDegrees>2.8884495981037616729736328125</LongitudeDegrees>
            </Position>
            <AltitudeMeters>249.1999969482421875</AltitudeMeters>
            <DistanceMeters>NAN</DistanceMeters>
          </Trackpoint>
          <Trackpoint>
            <Time>2020-02-15T09:55:09.000Z</Time>
            <Position>
              <LatitudeDegrees>41.96882276795804500579833984375</LatitudeDegrees>
              <LongitudeDegrees>2.88845454342663288116455078125</LongitudeDegrees>
            </Position>
            <AltitudeMeters>249.600006103515625</AltitudeMeters>
            <DistanceMeters>NAN</DistanceMeters>
          </Trackpoint>
          <Trackpoint>
            <Time>2020-02-15T09:55:15.000Z</Time>
            <Position>
              <LatitudeDegrees>41.96881405077874660491943359375</LatitudeDegrees>
              <LongitudeDegrees>2.88845119066536426544189453125</LongitudeDegrees>
            </Position>
            <AltitudeMeters>249.600006103515625</AltitudeMeters>
            <DistanceMeters>NAN</DistanceMeters>
          </Trackpoint>
          <Trackpoint>
            <Time>2020-02-15T09:55:31.000Z</Time>
            <Position>
              <LatitudeDegrees>41.9687858037650585174560546875</LatitudeDegrees>
              <LongitudeDegrees>2.88846376352012157440185546875</LongitudeDegrees>
            </Position>
            <AltitudeMeters>249.600006103515625</AltitudeMeters>
            <DistanceMeters>NAN</DistanceMeters>
          </Trackpoint>
          <Trackpoint>
            <Time>2020-02-15T09:55:43.000Z</Time>
            <Position>
              <LatitudeDegrees>41.96880063973367214202880859375</LatitudeDegrees>
              <LongitudeDegrees>2.88848228752613067626953125</LongitudeDegrees>
            </Position>
            <AltitudeMeters>249.8000030517578125</AltitudeMeters>
            <DistanceMeters>NAN</DistanceMeters>
          </Trackpoint>
          <Trackpoint>
            <Time>2020-02-15T09:55:44.000Z</Time>
            <Position>
              <LatitudeDegrees>41.96880131028592586517333984375</LatitudeDegrees>
              <LongitudeDegrees>2.88848253898322582244873046875</LongitudeDegrees>
            </Position>
            <AltitudeMeters>249.8000030517578125</AltitudeMeters>
            <DistanceMeters>NAN</DistanceMeters>
          </Trackpoint>
          <Trackpoint>
            <Time>2020-02-15T09:55:47.000Z</Time>
            <Position>
              <LatitudeDegrees>41.968801058828830718994140625</LatitudeDegrees>
              <LongitudeDegrees>2.88848371244966983795166015625</LongitudeDegrees>
            </Position>
            <AltitudeMeters>249.8000030517578125</AltitudeMeters>
            <DistanceMeters>NAN</DistanceMeters>
          </Trackpoint>
          <Trackpoint>
            <Time>2020-02-15T09:55:52.000Z</Time>
            <Position>
              <LatitudeDegrees>41.96879376657307147979736328125</LatitudeDegrees>
              <LongitudeDegrees>2.88849997334182262420654296875</LongitudeDegrees>
            </Position>
            <AltitudeMeters>249.8000030517578125</AltitudeMeters>
            <DistanceMeters>NAN</DistanceMeters>
          </Trackpoint>
          <Trackpoint>
            <Time>2020-02-15T09:55:53.000Z</Time>
            <Position>
              <LatitudeDegrees>41.96879192255437374114990234375</LatitudeDegrees>
              <LongitudeDegrees>2.8885069303214550018310546875</LongitudeDegrees>
            </Position>
            <AltitudeMeters>249.8000030517578125</AltitudeMeters>
            <DistanceMeters>NAN</DistanceMeters>
          </Trackpoint>
          <Trackpoint>
            <Time>2020-02-15T09:55:55.000Z</Time>
            <Position>
              <LatitudeDegrees>41.9687834568321704864501953125</LatitudeDegrees>
              <LongitudeDegrees>2.88851858116686344146728515625</LongitudeDegrees>
            </Position>
            <AltitudeMeters>249.8000030517578125</AltitudeMeters>
            <DistanceMeters>NAN</DistanceMeters>
          </Trackpoint>
          <Trackpoint>
            <Time>2020-02-15T09:55:56.000Z</Time>
            <Position>
              <LatitudeDegrees>41.96877767331898212432861328125</LatitudeDegrees>
              <LongitudeDegrees>2.8885273821651935577392578125</LongitudeDegrees>
            </Position>
            <AltitudeMeters>249.8000030517578125</AltitudeMeters>
            <DistanceMeters>NAN</DistanceMeters>
          </Trackpoint>
          <Trackpoint>
            <Time>2020-02-15T09:55:57.000Z</Time>
            <Position>
              <LatitudeDegrees>41.96876786649227142333984375</LatitudeDegrees>
              <LongitudeDegrees>2.88853584788739681243896484375</LongitudeDegrees>
            </Position>
            <AltitudeMeters>250</AltitudeMeters>
            <DistanceMeters>NAN</DistanceMeters>
          </Trackpoint>
          <Trackpoint>
            <Time>2020-02-15T09:55:58.000Z</Time>
            <Position>
              <LatitudeDegrees>41.96876040659844875335693359375</LatitudeDegrees>
              <LongitudeDegrees>2.888545654714107513427734375</LongitudeDegrees>
            </Position>
            <AltitudeMeters>250</AltitudeMeters>
            <DistanceMeters>NAN</DistanceMeters>
          </Trackpoint>
          <Trackpoint>
            <Time>2020-02-15T09:55:59.000Z</Time>
            <Position>
              <LatitudeDegrees>41.968752443790435791015625</LatitudeDegrees>
              <LongitudeDegrees>2.88855680264532566070556640625</LongitudeDegrees>
            </Position>
            <AltitudeMeters>249.8000030517578125</AltitudeMeters>
            <DistanceMeters>NAN</DistanceMeters>
          </Trackpoint>
          <Trackpoint>
            <Time>2020-02-15T09:56:01.000Z</Time>
            <Position>
              <LatitudeDegrees>41.96873375214636325836181640625</LatitudeDegrees>
              <LongitudeDegrees>2.88858613930642604827880859375</LongitudeDegrees>
            </Position>
            <AltitudeMeters>250</AltitudeMeters>
            <DistanceMeters>NAN</DistanceMeters>
          </Trackpoint>
          <Trackpoint>
            <Time>2020-02-15T09:56:02.000Z</Time>
            <Position>
              <LatitudeDegrees>41.9687221013009548187255859375</LatitudeDegrees>
              <LongitudeDegrees>2.888601310551166534423828125</LongitudeDegrees>
            </Position>
            <AltitudeMeters>250</AltitudeMeters>
            <DistanceMeters>NAN</DistanceMeters>
          </Trackpoint>
          <Trackpoint>
            <Time>2020-02-15T09:56:03.000Z</Time>
            <Position>
              <LatitudeDegrees>41.96871028281748294830322265625</LatitudeDegrees>
              <LongitudeDegrees>2.8886169008910655975341796875</LongitudeDegrees>
            </Position>
            <AltitudeMeters>250.1999969482421875</AltitudeMeters>
            <DistanceMeters>NAN</DistanceMeters>
          </Trackpoint>
          <Trackpoint>
            <Time>2020-02-15T09:56:04.000Z</Time>
            <Position>
              <LatitudeDegrees>41.96869754232466220855712890625</LatitudeDegrees>
              <LongitudeDegrees>2.8886306472122669219970703125</LongitudeDegrees>
            </Position>
            <AltitudeMeters>250.1999969482421875</AltitudeMeters>
            <DistanceMeters>NAN</DistanceMeters>
          </Trackpoint>
          <Trackpoint>
            <Time>2020-02-15T09:56:05.000Z</Time>
            <Position>
              <LatitudeDegrees>41.96868832223117351531982421875</LatitudeDegrees>
              <LongitudeDegrees>2.88864129222929477691650390625</LongitudeDegrees>
            </Position>
            <AltitudeMeters>250.399993896484375</AltitudeMeters>
            <DistanceMeters>NAN</DistanceMeters>
          </Trackpoint>
          <Trackpoint>
            <Time>2020-02-15T09:56:06.000Z</Time>
            <Position>
              <LatitudeDegrees>41.96868463419377803802490234375</LatitudeDegrees>
              <LongitudeDegrees>2.88864615373313426971435546875</LongitudeDegrees>
            </Position>
            <AltitudeMeters>250.399993896484375</AltitudeMeters>
            <DistanceMeters>NAN</DistanceMeters>
          </Trackpoint>
          <Trackpoint>
            <Time>2020-02-15T09:56:17.000Z</Time>
            <Position>
              <LatitudeDegrees>41.9686786830425262451171875</LatitudeDegrees>
              <LongitudeDegrees>2.88866199553012847900390625</LongitudeDegrees>
            </Position>
            <AltitudeMeters>252</AltitudeMeters>
            <DistanceMeters>NAN</DistanceMeters>
          </Trackpoint>
          <Trackpoint>
            <Time>2020-02-15T09:56:20.000Z</Time>
            <Position>
              <LatitudeDegrees>41.96868396364152431488037109375</LatitudeDegrees>
              <LongitudeDegrees>2.888665683567523956298828125</LongitudeDegrees>
            </Position>
            <AltitudeMeters>252</AltitudeMeters>
            <DistanceMeters>NAN</DistanceMeters>
          </Trackpoint>
          <Trackpoint>
            <Time>2020-02-15T09:56:37.000Z</Time>
            <Position>
              <LatitudeDegrees>41.96870206855237483978271484375</LatitudeDegrees>
              <LongitudeDegrees>2.8887082636356353759765625</LongitudeDegrees>
            </Position>
            <AltitudeMeters>252</AltitudeMeters>
            <DistanceMeters>NAN</DistanceMeters>
          </Trackpoint>
          <Trackpoint>
            <Time>2020-02-15T09:56:44.000Z</Time>
            <Position>
              <LatitudeDegrees>41.96868337690830230712890625</LatitudeDegrees>
              <LongitudeDegrees>2.88871295750141143798828125</LongitudeDegrees>
            </Position>
            <AltitudeMeters>252.1999969482421875</AltitudeMeters>
            <DistanceMeters>NAN</DistanceMeters>
          </Trackpoint>
          <Trackpoint>
            <Time>2020-02-15T09:56:45.000Z</Time>
            <Position>
              <LatitudeDegrees>41.968680359423160552978515625</LatitudeDegrees>
              <LongitudeDegrees>2.88871237076818943023681640625</LongitudeDegrees>
            </Position>
            <AltitudeMeters>252.399993896484375</AltitudeMeters>
            <DistanceMeters>NAN</DistanceMeters>
          </Trackpoint>
          <Trackpoint>
            <Time>2020-02-15T09:56:48.000Z</Time>
            <Position>
              <LatitudeDegrees>41.9686570577323436737060546875</LatitudeDegrees>
              <LongitudeDegrees>2.8887023963034152984619140625</LongitudeDegrees>
            </Position>
            <AltitudeMeters>252.1999969482421875</AltitudeMeters>
            <DistanceMeters>NAN</DistanceMeters>
          </Trackpoint>
          <Trackpoint>
            <Time>2020-02-15T09:56:49.000Z</Time>
            <Position>
              <LatitudeDegrees>41.96864825673401355743408203125</LatitudeDegrees>
              <LongitudeDegrees>2.8887040726840496063232421875</LongitudeDegrees>
            </Position>
            <AltitudeMeters>252.1999969482421875</AltitudeMeters>
            <DistanceMeters>NAN</DistanceMeters>
          </Trackpoint>
          <Trackpoint>
            <Time>2020-02-15T09:56:50.000Z</Time>
            <Position>
              <LatitudeDegrees>41.96863551624119281768798828125</LatitudeDegrees>
              <LongitudeDegrees>2.888705916702747344970703125</LongitudeDegrees>
            </Position>
            <AltitudeMeters>252.1999969482421875</AltitudeMeters>
            <DistanceMeters>NAN</DistanceMeters>
          </Trackpoint>
          <Trackpoint>
            <Time>2020-02-15T09:56:51.000Z</Time>
            <Position>
              <LatitudeDegrees>41.96862176991999149322509765625</LatitudeDegrees>
              <LongitudeDegrees>2.8887082636356353759765625</LongitudeDegrees>
            </Position>
            <AltitudeMeters>252.399993896484375</AltitudeMeters>
            <DistanceMeters>NAN</DistanceMeters>
          </Trackpoint>
          <Trackpoint>
            <Time>2020-02-15T09:56:52.000Z</Time>
            <Position>
              <LatitudeDegrees>41.9686111249029636383056640625</LatitudeDegrees>
              <LongitudeDegrees>2.8887127898633480072021484375</LongitudeDegrees>
            </Position>
            <AltitudeMeters>252.399993896484375</AltitudeMeters>
            <DistanceMeters>NAN</DistanceMeters>
          </Trackpoint>
          <Trackpoint>
            <Time>2020-02-15T09:56:53.000Z</Time>
            <Position>
              <LatitudeDegrees>41.9685997255146503448486328125</LatitudeDegrees>
              <LongitudeDegrees>2.88872100412845611572265625</LongitudeDegrees>
            </Position>
            <AltitudeMeters>252.1999969482421875</AltitudeMeters>
            <DistanceMeters>NAN</DistanceMeters>
          </Trackpoint>
          <Trackpoint>
            <Time>2020-02-15T09:56:54.000Z</Time>
            <Position>
              <LatitudeDegrees>41.96858807466924190521240234375</LatitudeDegrees>
              <LongitudeDegrees>2.88872930221259593963623046875</LongitudeDegrees>
            </Position>
            <AltitudeMeters>252.399993896484375</AltitudeMeters>
            <DistanceMeters>NAN</DistanceMeters>
          </Trackpoint>
          <Trackpoint>
            <Time>2020-02-15T09:56:56.000Z</Time>
            <Position>
              <LatitudeDegrees>41.9685792736709117889404296875</LatitudeDegrees>
              <LongitudeDegrees>2.8887449763715267181396484375</LongitudeDegrees>
            </Position>
            <AltitudeMeters>252.399993896484375</AltitudeMeters>
            <DistanceMeters>NAN</DistanceMeters>
          </Trackpoint>
          <Trackpoint>
            <Time>2020-02-15T09:56:57.000Z</Time>
            <Position>
              <LatitudeDegrees>41.96857340633869171142578125</LatitudeDegrees>
              <LongitudeDegrees>2.88875210098922252655029296875</LongitudeDegrees>
            </Position>
            <AltitudeMeters>252.399993896484375</AltitudeMeters>
            <DistanceMeters>NAN</DistanceMeters>
          </Trackpoint>
          <Trackpoint>
            <Time>2020-02-15T09:56:58.000Z</Time>
            <Position>
              <LatitudeDegrees>41.96856728754937648773193359375</LatitudeDegrees>
              <LongitudeDegrees>2.88875947706401348114013671875</LongitudeDegrees>
            </Position>
            <AltitudeMeters>252.600006103515625</AltitudeMeters>
            <DistanceMeters>NAN</DistanceMeters>
          </Trackpoint>
          <Trackpoint>
            <Time>2020-02-15T09:56:59.000Z</Time>
            <Position>
              <LatitudeDegrees>41.96856007911264896392822265625</LatitudeDegrees>
              <LongitudeDegrees>2.888768278062343597412109375</LongitudeDegrees>
            </Position>
            <AltitudeMeters>252.600006103515625</AltitudeMeters>
            <DistanceMeters>NAN</DistanceMeters>
          </Trackpoint>
          <Trackpoint>
            <Time>2020-02-15T09:57:00.000Z</Time>
            <Position>
              <LatitudeDegrees>41.968552954494953155517578125</LatitudeDegrees>
              <LongitudeDegrees>2.88878269493579864501953125</LongitudeDegrees>
            </Position>
            <AltitudeMeters>252.600006103515625</AltitudeMeters>
            <DistanceMeters>NAN</DistanceMeters>
          </Trackpoint>
          <Trackpoint>
            <Time>2020-02-15T09:57:01.000Z</Time>
            <Position>
              <LatitudeDegrees>41.9685457460582256317138671875</LatitudeDegrees>
              <LongitudeDegrees>2.88879652507603168487548828125</LongitudeDegrees>
            </Position>
            <AltitudeMeters>252.8000030517578125</AltitudeMeters>
            <DistanceMeters>NAN</DistanceMeters>
          </Trackpoint>
          <Trackpoint>
            <Time>2020-02-15T09:57:03.000Z</Time>
            <Position>
              <LatitudeDegrees>41.9685338437557220458984375</LatitudeDegrees>
              <LongitudeDegrees>2.888826616108417510986328125</LongitudeDegrees>
            </Position>
            <AltitudeMeters>253</AltitudeMeters>
            <DistanceMeters>NAN</DistanceMeters>
          </Trackpoint>
          <Trackpoint>
            <Time>2020-02-15T09:57:04.000Z</Time>
            <Position>
              <LatitudeDegrees>41.96852705441415309906005859375</LatitudeDegrees>
              <LongitudeDegrees>2.88883902132511138916015625</LongitudeDegrees>
            </Position>
            <AltitudeMeters>253</AltitudeMeters>
            <DistanceMeters>NAN</DistanceMeters>
          </Trackpoint>
          <Trackpoint>
            <Time>2020-02-15T09:57:05.000Z</Time>
            <Position>
              <LatitudeDegrees>41.96852001361548900604248046875</LatitudeDegrees>
              <LongitudeDegrees>2.8888529352843761444091796875</LongitudeDegrees>
            </Position>
            <AltitudeMeters>253</AltitudeMeters>
            <DistanceMeters>NAN</DistanceMeters>
          </Trackpoint>
          <Trackpoint>
            <Time>2020-02-15T09:57:06.000Z</Time>
            <Position>
              <LatitudeDegrees>41.96851381100714206695556640625</LatitudeDegrees>
              <LongitudeDegrees>2.88887129165232181549072265625</LongitudeDegrees>
            </Position>
            <AltitudeMeters>253.1999969482421875</AltitudeMeters>
            <DistanceMeters>NAN</DistanceMeters>
          </Trackpoint>
          <Trackpoint>
            <Time>2020-02-15T09:57:07.000Z</Time>
            <Position>
              <LatitudeDegrees>41.9685075245797634124755859375</LatitudeDegrees>
              <LongitudeDegrees>2.888890318572521209716796875</LongitudeDegrees>
            </Position>
            <AltitudeMeters>253.399993896484375</AltitudeMeters>
            <DistanceMeters>NAN</DistanceMeters>
          </Trackpoint>
          <Trackpoint>
            <Time>2020-02-15T09:57:08.000Z</Time>
            <Position>
              <LatitudeDegrees>41.96849872358143329620361328125</LatitudeDegrees>
              <LongitudeDegrees>2.88890632800757884979248046875</LongitudeDegrees>
            </Position>
            <AltitudeMeters>253.399993896484375</AltitudeMeters>
            <DistanceMeters>NAN</DistanceMeters>
          </Trackpoint>
          <Trackpoint>
            <Time>2020-02-15T09:57:09.000Z</Time>
            <Position>
              <LatitudeDegrees>41.96848967112600803375244140625</LatitudeDegrees>
              <LongitudeDegrees>2.8889240138232707977294921875</LongitudeDegrees>
            </Position>
            <AltitudeMeters>253.399993896484375</AltitudeMeters>
            <DistanceMeters>NAN</DistanceMeters>
          </Trackpoint>
          <Trackpoint>
            <Time>2020-02-15T09:57:10.000Z</Time>
            <Position>
              <LatitudeDegrees>41.96847894228994846343994140625</LatitudeDegrees>
              <LongitudeDegrees>2.8889367543160915374755859375</LongitudeDegrees>
            </Position>
            <AltitudeMeters>253.399993896484375</AltitudeMeters>
            <DistanceMeters>NAN</DistanceMeters>
          </Trackpoint>
          <Trackpoint>
            <Time>2020-02-15T09:57:11.000Z</Time>
            <Position>
              <LatitudeDegrees>41.96846938692033290863037109375</LatitudeDegrees>
              <LongitudeDegrees>2.8889496624469757080078125</LongitudeDegrees>
            </Position>
            <AltitudeMeters>253.600006103515625</AltitudeMeters>
            <DistanceMeters>NAN</DistanceMeters>
          </Trackpoint>
          <Trackpoint>
            <Time>2020-02-15T09:57:12.000Z</Time>
            <Position>
              <LatitudeDegrees>41.968459077179431915283203125</LatitudeDegrees>
              <LongitudeDegrees>2.8889629058539867401123046875</LongitudeDegrees>
            </Position>
            <AltitudeMeters>253.600006103515625</AltitudeMeters>
            <DistanceMeters>NAN</DistanceMeters>
          </Trackpoint>
          <Trackpoint>
            <Time>2020-02-15T09:57:13.000Z</Time>
            <Position>
              <LatitudeDegrees>41.968448348343372344970703125</LatitudeDegrees>
              <LongitudeDegrees>2.88897774182260036468505859375</LongitudeDegrees>
            </Position>
            <AltitudeMeters>253.600006103515625</AltitudeMeters>
            <DistanceMeters>NAN</DistanceMeters>
          </Trackpoint>
          <Trackpoint>
            <Time>2020-02-15T09:57:14.000Z</Time>
            <Position>
              <LatitudeDegrees>41.9684377871453762054443359375</LatitudeDegrees>
              <LongitudeDegrees>2.8889910690486431121826171875</LongitudeDegrees>
            </Position>
            <AltitudeMeters>254</AltitudeMeters>
            <DistanceMeters>NAN</DistanceMeters>
          </Trackpoint>
          <Trackpoint>
            <Time>2020-02-15T09:57:15.000Z</Time>
            <Position>
              <LatitudeDegrees>41.9684273935854434967041015625</LatitudeDegrees>
              <LongitudeDegrees>2.88900397717952728271484375</LongitudeDegrees>
            </Position>
            <AltitudeMeters>254.1999969482421875</AltitudeMeters>
            <DistanceMeters>NAN</DistanceMeters>
          </Trackpoint>
          <Trackpoint>
            <Time>2020-02-15T09:57:16.000Z</Time>
            <Position>
              <LatitudeDegrees>41.96841725148260593414306640625</LatitudeDegrees>
              <LongitudeDegrees>2.8890167176723480224609375</LongitudeDegrees>
            </Position>
            <AltitudeMeters>254.600006103515625</AltitudeMeters>
            <DistanceMeters>NAN</DistanceMeters>
          </Trackpoint>
          <Trackpoint>
            <Time>2020-02-15T09:57:17.000Z</Time>
            <Position>
              <LatitudeDegrees>41.96840736083686351776123046875</LatitudeDegrees>
              <LongitudeDegrees>2.8890301287174224853515625</LongitudeDegrees>
            </Position>
            <AltitudeMeters>254.600006103515625</AltitudeMeters>
            <DistanceMeters>NAN</DistanceMeters>
          </Trackpoint>
          <Trackpoint>
            <Time>2020-02-15T09:57:18.000Z</Time>
            <Position>
              <LatitudeDegrees>41.968399398028850555419921875</LatitudeDegrees>
              <LongitudeDegrees>2.88904161192476749420166015625</LongitudeDegrees>
            </Position>
            <AltitudeMeters>255</AltitudeMeters>
            <DistanceMeters>NAN</DistanceMeters>
          </Trackpoint>
          <Trackpoint>
            <Time>2020-02-15T09:57:19.000Z</Time>
            <Position>
              <LatitudeDegrees>41.96839126758277416229248046875</LatitudeDegrees>
              <LongitudeDegrees>2.8890515863895416259765625</LongitudeDegrees>
            </Position>
            <AltitudeMeters>255.399993896484375</AltitudeMeters>
            <DistanceMeters>NAN</DistanceMeters>
          </Trackpoint>
          <Trackpoint>
            <Time>2020-02-15T09:57:20.000Z</Time>
            <Position>
              <LatitudeDegrees>41.96838372386991977691650390625</LatitudeDegrees>
              <LongitudeDegrees>2.88906893692910671234130859375</LongitudeDegrees>
            </Position>
            <AltitudeMeters>255.8000030517578125</AltitudeMeters>
            <DistanceMeters>NAN</DistanceMeters>
          </Trackpoint>
          <Trackpoint>
            <Time>2020-02-15T09:57:21.000Z</Time>
            <Position>
              <LatitudeDegrees>41.968377269804477691650390625</LatitudeDegrees>
              <LongitudeDegrees>2.8890889696776866912841796875</LongitudeDegrees>
            </Position>
            <AltitudeMeters>256</AltitudeMeters>
            <DistanceMeters>NAN</DistanceMeters>
          </Trackpoint>
          <Trackpoint>
            <Time>2020-02-15T09:57:22.000Z</Time>
            <Position>
              <LatitudeDegrees>41.96836913935840129852294921875</LatitudeDegrees>
              <LongitudeDegrees>2.889107577502727508544921875</LongitudeDegrees>
            </Position>
            <AltitudeMeters>256.20001220703125</AltitudeMeters>
            <DistanceMeters>NAN</DistanceMeters>
          </Trackpoint>
          <Trackpoint>
            <Time>2020-02-15T09:57:23.000Z</Time>
            <Position>
              <LatitudeDegrees>41.9683600030839443206787109375</LatitudeDegrees>
              <LongitudeDegrees>2.8891268558800220489501953125</LongitudeDegrees>
            </Position>
            <AltitudeMeters>256.399993896484375</AltitudeMeters>
            <DistanceMeters>NAN</DistanceMeters>
          </Trackpoint>
          <Trackpoint>
            <Time>2020-02-15T09:57:24.000Z</Time>
            <Position>
              <LatitudeDegrees>41.96835078299045562744140625</LatitudeDegrees>
              <LongitudeDegrees>2.889144122600555419921875</LongitudeDegrees>
            </Position>
            <AltitudeMeters>256.600006103515625</AltitudeMeters>
            <DistanceMeters>NAN</DistanceMeters>
          </Trackpoint>
          <Trackpoint>
            <Time>2020-02-15T09:57:25.000Z</Time>
            <Position>
              <LatitudeDegrees>41.96834349073469638824462890625</LatitudeDegrees>
              <LongitudeDegrees>2.8891588747501373291015625</LongitudeDegrees>
            </Position>
            <AltitudeMeters>256.600006103515625</AltitudeMeters>
            <DistanceMeters>NAN</DistanceMeters>
          </Trackpoint>
          <Trackpoint>
            <Time>2020-02-15T09:57:26.000Z</Time>
            <Position>
              <LatitudeDegrees>41.96833661757409572601318359375</LatitudeDegrees>
              <LongitudeDegrees>2.88917035795748233795166015625</LongitudeDegrees>
            </Position>
            <AltitudeMeters>257</AltitudeMeters>
            <DistanceMeters>NAN</DistanceMeters>
          </Trackpoint>
          <Trackpoint>
            <Time>2020-02-15T09:57:27.000Z</Time>
            <Position>
              <LatitudeDegrees>41.9683294929563999176025390625</LatitudeDegrees>
              <LongitudeDegrees>2.88918075151741504669189453125</LongitudeDegrees>
            </Position>
            <AltitudeMeters>256.79998779296875</AltitudeMeters>
            <DistanceMeters>NAN</DistanceMeters>
          </Trackpoint>
          <Trackpoint>
            <Time>2020-02-15T09:57:28.000Z</Time>
            <Position>
              <LatitudeDegrees>41.9683204405009746551513671875</LatitudeDegrees>
              <LongitudeDegrees>2.88919550366699695587158203125</LongitudeDegrees>
            </Position>
            <AltitudeMeters>257</AltitudeMeters>
            <DistanceMeters>NAN</DistanceMeters>
          </Trackpoint>
          <Trackpoint>
            <Time>2020-02-15T09:57:29.000Z</Time>
            <Position>
              <LatitudeDegrees>41.96831113658845424652099609375</LatitudeDegrees>
              <LongitudeDegrees>2.88920841179788112640380859375</LongitudeDegrees>
            </Position>
            <AltitudeMeters>257</AltitudeMeters>
            <DistanceMeters>NAN</DistanceMeters>
          </Trackpoint>
          <Trackpoint>
            <Time>2020-02-15T09:57:30.000Z</Time>
            <Position>
              <LatitudeDegrees>41.968301497399806976318359375</LatitudeDegrees>
              <LongitudeDegrees>2.8892230801284313201904296875</LongitudeDegrees>
            </Position>
            <AltitudeMeters>257</AltitudeMeters>
            <DistanceMeters>NAN</DistanceMeters>
          </Trackpoint>
          <Trackpoint>
            <Time>2020-02-15T09:57:31.000Z</Time>
            <Position>
              <LatitudeDegrees>41.96829445660114288330078125</LatitudeDegrees>
              <LongitudeDegrees>2.88923758082091808319091796875</LongitudeDegrees>
            </Position>
            <AltitudeMeters>257</AltitudeMeters>
            <DistanceMeters>NAN</DistanceMeters>
          </Trackpoint>
          <Trackpoint>
            <Time>2020-02-15T09:57:32.000Z</Time>
            <Position>
              <LatitudeDegrees>41.96829353459179401397705078125</LatitudeDegrees>
              <LongitudeDegrees>2.8892485611140727996826171875</LongitudeDegrees>
            </Position>
            <AltitudeMeters>257</AltitudeMeters>
            <DistanceMeters>NAN</DistanceMeters>
          </Trackpoint>
          <Trackpoint>
            <Time>2020-02-15T09:57:33.000Z</Time>
            <Position>
              <LatitudeDegrees>41.96829378604888916015625</LatitudeDegrees>
              <LongitudeDegrees>2.88925333879888057708740234375</LongitudeDegrees>
            </Position>
            <AltitudeMeters>257.20001220703125</AltitudeMeters>
            <DistanceMeters>NAN</DistanceMeters>
          </Trackpoint>
          <Trackpoint>
            <Time>2020-02-15T09:57:34.000Z</Time>
            <Position>
              <LatitudeDegrees>41.96829386986792087554931640625</LatitudeDegrees>
              <LongitudeDegrees>2.88925836794078350067138671875</LongitudeDegrees>
            </Position>
            <AltitudeMeters>257.600006103515625</AltitudeMeters>
            <DistanceMeters>NAN</DistanceMeters>
          </Trackpoint>
          <Trackpoint>
            <Time>2020-02-15T09:57:35.000Z</Time>
            <Position>
              <LatitudeDegrees>41.968292780220508575439453125</LatitudeDegrees>
              <LongitudeDegrees>2.889261804521083831787109375</LongitudeDegrees>
            </Position>
            <AltitudeMeters>257.600006103515625</AltitudeMeters>
            <DistanceMeters>NAN</DistanceMeters>
          </Trackpoint>
          <Trackpoint>
            <Time>2020-02-15T09:57:36.000Z</Time>
            <Position>
              <LatitudeDegrees>41.96829202584922313690185546875</LatitudeDegrees>
              <LongitudeDegrees>2.88927010260522365570068359375</LongitudeDegrees>
            </Position>
            <AltitudeMeters>257.79998779296875</AltitudeMeters>
            <DistanceMeters>NAN</DistanceMeters>
          </Trackpoint>
          <Trackpoint>
            <Time>2020-02-15T09:57:37.000Z</Time>
            <Position>
              <LatitudeDegrees>41.96829102002084255218505859375</LatitudeDegrees>
              <LongitudeDegrees>2.88927446119487285614013671875</LongitudeDegrees>
            </Position>
            <AltitudeMeters>258</AltitudeMeters>
            <DistanceMeters>NAN</DistanceMeters>
          </Trackpoint>
          <Trackpoint>
            <Time>2020-02-15T09:57:39.000Z</Time>
            <Position>
              <LatitudeDegrees>41.9682862423360347747802734375</LatitudeDegrees>
              <LongitudeDegrees>2.8892750479280948638916015625</LongitudeDegrees>
            </Position>
            <AltitudeMeters>258.600006103515625</AltitudeMeters>
            <DistanceMeters>NAN</DistanceMeters>
          </Trackpoint>
          <Trackpoint>
            <Time>2020-02-15T09:57:40.000Z</Time>
            <Position>
              <LatitudeDegrees>41.9682835601270198822021484375</LatitudeDegrees>
              <LongitudeDegrees>2.88927555084228515625</LongitudeDegrees>
            </Position>
            <AltitudeMeters>258.79998779296875</AltitudeMeters>
            <DistanceMeters>NAN</DistanceMeters>
          </Trackpoint>
          <Trackpoint>
            <Time>2020-02-15T09:57:46.000Z</Time>
            <Position>
              <LatitudeDegrees>41.96825514547526836395263671875</LatitudeDegrees>
              <LongitudeDegrees>2.8892903029918670654296875</LongitudeDegrees>
            </Position>
            <AltitudeMeters>259.600006103515625</AltitudeMeters>
            <DistanceMeters>NAN</DistanceMeters>
          </Trackpoint>
          <Trackpoint>
            <Time>2020-02-15T09:57:47.000Z</Time>
            <Position>
              <LatitudeDegrees>41.9682548940181732177734375</LatitudeDegrees>
              <LongitudeDegrees>2.88929407484829425811767578125</LongitudeDegrees>
            </Position>
            <AltitudeMeters>259.600006103515625</AltitudeMeters>
            <DistanceMeters>NAN</DistanceMeters>
          </Trackpoint>
          <Trackpoint>
            <Time>2020-02-15T09:57:48.000Z</Time>
            <Position>
              <LatitudeDegrees>41.96825145743787288665771484375</LatitudeDegrees>
              <LongitudeDegrees>2.88930161856114864349365234375</LongitudeDegrees>
            </Position>
            <AltitudeMeters>259.79998779296875</AltitudeMeters>
            <DistanceMeters>NAN</DistanceMeters>
          </Trackpoint>
          <Trackpoint>
            <Time>2020-02-15T09:57:49.000Z</Time>
            <Position>
              <LatitudeDegrees>41.96824458427727222442626953125</LatitudeDegrees>
              <LongitudeDegrees>2.88930329494178295135498046875</LongitudeDegrees>
            </Position>
            <AltitudeMeters>259.79998779296875</AltitudeMeters>
            <DistanceMeters>NAN</DistanceMeters>
          </Trackpoint>
          <Trackpoint>
            <Time>2020-02-15T09:57:51.000Z</Time>
            <Position>
              <LatitudeDegrees>41.96823486126959323883056640625</LatitudeDegrees>
              <LongitudeDegrees>2.8893129341304302215576171875</LongitudeDegrees>
            </Position>
            <AltitudeMeters>260</AltitudeMeters>
            <DistanceMeters>NAN</DistanceMeters>
          </Trackpoint>
          <Trackpoint>
            <Time>2020-02-15T09:57:52.000Z</Time>
            <Position>
              <LatitudeDegrees>41.96822815574705600738525390625</LatitudeDegrees>
              <LongitudeDegrees>2.8893146105110645294189453125</LongitudeDegrees>
            </Position>
            <AltitudeMeters>259.79998779296875</AltitudeMeters>
            <DistanceMeters>NAN</DistanceMeters>
          </Trackpoint>
          <Trackpoint>
            <Time>2020-02-15T09:57:53.000Z</Time>
            <Position>
              <LatitudeDegrees>41.9682185165584087371826171875</LatitudeDegrees>
              <LongitudeDegrees>2.889312766492366790771484375</LongitudeDegrees>
            </Position>
            <AltitudeMeters>259.79998779296875</AltitudeMeters>
            <DistanceMeters>NAN</DistanceMeters>
          </Trackpoint>
          <Trackpoint>
            <Time>2020-02-15T09:57:54.000Z</Time>
            <Position>
              <LatitudeDegrees>41.96821206249296665191650390625</LatitudeDegrees>
              <LongitudeDegrees>2.88931301794946193695068359375</LongitudeDegrees>
            </Position>
            <AltitudeMeters>260</AltitudeMeters>
            <DistanceMeters>NAN</DistanceMeters>
          </Trackpoint>
          <Trackpoint>
            <Time>2020-02-15T09:57:55.000Z</Time>
            <Position>
              <LatitudeDegrees>41.9682104699313640594482421875</LatitudeDegrees>
              <LongitudeDegrees>2.88931821472942829132080078125</LongitudeDegrees>
            </Position>
            <AltitudeMeters>260</AltitudeMeters>
            <DistanceMeters>NAN</DistanceMeters>
          </Trackpoint>
          <Trackpoint>
            <Time>2020-02-15T09:57:56.000Z</Time>
            <Position>
              <LatitudeDegrees>41.96821130812168121337890625</LatitudeDegrees>
              <LongitudeDegrees>2.8893196396529674530029296875</LongitudeDegrees>
            </Position>
            <AltitudeMeters>260</AltitudeMeters>
            <DistanceMeters>NAN</DistanceMeters>
          </Trackpoint>
          <Trackpoint>
            <Time>2020-02-15T09:57:59.000Z</Time>
            <Position>
              <LatitudeDegrees>41.968202926218509674072265625</LatitudeDegrees>
              <LongitudeDegrees>2.88931435905396938323974609375</LongitudeDegrees>
            </Position>
            <AltitudeMeters>260.20001220703125</AltitudeMeters>
            <DistanceMeters>NAN</DistanceMeters>
          </Trackpoint>
          <Trackpoint>
            <Time>2020-02-15T09:58:00.000Z</Time>
            <Position>
              <LatitudeDegrees>41.96819865144789218902587890625</LatitudeDegrees>
              <LongitudeDegrees>2.88931704126298427581787109375</LongitudeDegrees>
            </Position>
            <AltitudeMeters>260.20001220703125</AltitudeMeters>
            <DistanceMeters>NAN</DistanceMeters>
          </Trackpoint>
          <Trackpoint>
            <Time>2020-02-15T09:58:01.000Z</Time>
            <Position>
              <LatitudeDegrees>41.9681905210018157958984375</LatitudeDegrees>
              <LongitudeDegrees>2.88932341150939464569091796875</LongitudeDegrees>
            </Position>
            <AltitudeMeters>260.399993896484375</AltitudeMeters>
            <DistanceMeters>NAN</DistanceMeters>
          </Trackpoint>
          <Trackpoint>
            <Time>2020-02-15T09:58:03.000Z</Time>
            <Position>
              <LatitudeDegrees>41.9681771099567413330078125</LatitudeDegrees>
              <LongitudeDegrees>2.8893410973250865936279296875</LongitudeDegrees>
            </Position>
            <AltitudeMeters>260.600006103515625</AltitudeMeters>
            <DistanceMeters>NAN</DistanceMeters>
          </Trackpoint>
          <Trackpoint>
            <Time>2020-02-15T09:58:04.000Z</Time>
            <Position>
              <LatitudeDegrees>41.9681690633296966552734375</LatitudeDegrees>
              <LongitudeDegrees>2.8893498145043849945068359375</LongitudeDegrees>
            </Position>
            <AltitudeMeters>260.600006103515625</AltitudeMeters>
            <DistanceMeters>NAN</DistanceMeters>
          </Trackpoint>
          <Trackpoint>
            <Time>2020-02-15T09:58:05.000Z</Time>
            <Position>
              <LatitudeDegrees>41.96816110052168369293212890625</LatitudeDegrees>
              <LongitudeDegrees>2.88936230354011058807373046875</LongitudeDegrees>
            </Position>
            <AltitudeMeters>260.79998779296875</AltitudeMeters>
            <DistanceMeters>NAN</DistanceMeters>
          </Trackpoint>
          <Trackpoint>
            <Time>2020-02-15T09:58:06.000Z</Time>
            <Position>
              <LatitudeDegrees>41.9681528024375438690185546875</LatitudeDegrees>
              <LongitudeDegrees>2.88937588222324848175048828125</LongitudeDegrees>
            </Position>
            <AltitudeMeters>260.79998779296875</AltitudeMeters>
            <DistanceMeters>NAN</DistanceMeters>
          </Trackpoint>
          <Trackpoint>
            <Time>2020-02-15T09:58:07.000Z</Time>
            <Position>
              <LatitudeDegrees>41.9681427441537380218505859375</LatitudeDegrees>
              <LongitudeDegrees>2.88938996382057666778564453125</LongitudeDegrees>
            </Position>
            <AltitudeMeters>260.79998779296875</AltitudeMeters>
            <DistanceMeters>NAN</DistanceMeters>
          </Trackpoint>
          <Trackpoint>
            <Time>2020-02-15T09:58:08.000Z</Time>
            <Position>
              <LatitudeDegrees>41.9681363739073276519775390625</LatitudeDegrees>
              <LongitudeDegrees>2.889407314360141754150390625</LongitudeDegrees>
            </Position>
            <AltitudeMeters>261</AltitudeMeters>
            <DistanceMeters>NAN</DistanceMeters>
          </Trackpoint>
          <Trackpoint>
            <Time>2020-02-15T09:58:09.000Z</Time>
            <Position>
              <LatitudeDegrees>41.9681296683847904205322265625</LatitudeDegrees>
              <LongitudeDegrees>2.88942147977650165557861328125</LongitudeDegrees>
            </Position>
            <AltitudeMeters>261</AltitudeMeters>
            <DistanceMeters>NAN</DistanceMeters>
          </Trackpoint>
          <Trackpoint>
            <Time>2020-02-15T09:58:10.000Z</Time>
            <Position>
              <LatitudeDegrees>41.96812371723353862762451171875</LatitudeDegrees>
              <LongitudeDegrees>2.88943447172641754150390625</LongitudeDegrees>
            </Position>
            <AltitudeMeters>261.20001220703125</AltitudeMeters>
            <DistanceMeters>NAN</DistanceMeters>
          </Trackpoint>
          <Trackpoint>
            <Time>2020-02-15T09:58:11.000Z</Time>
            <Position>
              <LatitudeDegrees>41.9681182689964771270751953125</LatitudeDegrees>
              <LongitudeDegrees>2.88944712840020656585693359375</LongitudeDegrees>
            </Position>
            <AltitudeMeters>261.399993896484375</AltitudeMeters>
            <DistanceMeters>NAN</DistanceMeters>
          </Trackpoint>
          <Trackpoint>
            <Time>2020-02-15T09:58:12.000Z</Time>
            <Position>
              <LatitudeDegrees>41.9681132398545742034912109375</LatitudeDegrees>
              <LongitudeDegrees>2.8894617967307567596435546875</LongitudeDegrees>
            </Position>
            <AltitudeMeters>261.399993896484375</AltitudeMeters>
            <DistanceMeters>NAN</DistanceMeters>
          </Trackpoint>
          <Trackpoint>
            <Time>2020-02-15T09:58:13.000Z</Time>
            <Position>
              <LatitudeDegrees>41.9681068696081638336181640625</LatitudeDegrees>
              <LongitudeDegrees>2.8894782252609729766845703125</LongitudeDegrees>
            </Position>
            <AltitudeMeters>261.399993896484375</AltitudeMeters>
            <DistanceMeters>NAN</DistanceMeters>
          </Trackpoint>
          <Trackpoint>
            <Time>2020-02-15T09:58:14.000Z</Time>
            <Position>
              <LatitudeDegrees>41.968104355037212371826171875</LatitudeDegrees>
              <LongitudeDegrees>2.88949088193476200103759765625</LongitudeDegrees>
            </Position>
            <AltitudeMeters>261.399993896484375</AltitudeMeters>
            <DistanceMeters>NAN</DistanceMeters>
          </Trackpoint>
          <Trackpoint>
            <Time>2020-02-15T09:58:15.000Z</Time>
            <Position>
              <LatitudeDegrees>41.96810427121818065643310546875</LatitudeDegrees>
              <LongitudeDegrees>2.8894986771047115325927734375</LongitudeDegrees>
            </Position>
            <AltitudeMeters>261.79998779296875</AltitudeMeters>
            <DistanceMeters>NAN</DistanceMeters>
          </Trackpoint>
          <Trackpoint>
            <Time>2020-02-15T09:58:20.000Z</Time>
            <Position>
              <LatitudeDegrees>41.968103684484958648681640625</LatitudeDegrees>
              <LongitudeDegrees>2.88951619528234004974365234375</LongitudeDegrees>
            </Position>
            <AltitudeMeters>263.20001220703125</AltitudeMeters>
            <DistanceMeters>NAN</DistanceMeters>
          </Trackpoint>
          <Trackpoint>
            <Time>2020-02-15T09:58:29.000Z</Time>
            <Position>
              <LatitudeDegrees>41.96810276247560977935791015625</LatitudeDegrees>
              <LongitudeDegrees>2.88952508009970188140869140625</LongitudeDegrees>
            </Position>
            <AltitudeMeters>264.79998779296875</AltitudeMeters>
            <DistanceMeters>NAN</DistanceMeters>
          </Trackpoint>
          <Trackpoint>
            <Time>2020-02-15T09:58:32.000Z</Time>
            <Position>
              <LatitudeDegrees>41.9681018404662609100341796875</LatitudeDegrees>
              <LongitudeDegrees>2.88952759467065334320068359375</LongitudeDegrees>
            </Position>
            <AltitudeMeters>264.79998779296875</AltitudeMeters>
            <DistanceMeters>NAN</DistanceMeters>
          </Trackpoint>
          <Trackpoint>
            <Time>2020-02-15T09:58:35.000Z</Time>
            <Position>
              <LatitudeDegrees>41.96810427121818065643310546875</LatitudeDegrees>
              <LongitudeDegrees>2.88953329436480998992919921875</LongitudeDegrees>
            </Position>
            <AltitudeMeters>264.79998779296875</AltitudeMeters>
            <DistanceMeters>NAN</DistanceMeters>
          </Trackpoint>
          <Trackpoint>
            <Time>2020-02-15T09:58:36.000Z</Time>
            <Position>
              <LatitudeDegrees>41.96810527704656124114990234375</LatitudeDegrees>
              <LongitudeDegrees>2.8895358927547931671142578125</LongitudeDegrees>
            </Position>
            <AltitudeMeters>264.79998779296875</AltitudeMeters>
            <DistanceMeters>NAN</DistanceMeters>
          </Trackpoint>
          <Trackpoint>
            <Time>2020-02-15T09:58:42.000Z</Time>
            <Position>
              <LatitudeDegrees>41.968096978962421417236328125</LatitudeDegrees>
              <LongitudeDegrees>2.88953647948801517486572265625</LongitudeDegrees>
            </Position>
            <AltitudeMeters>264.600006103515625</AltitudeMeters>
            <DistanceMeters>NAN</DistanceMeters>
          </Trackpoint>
          <Trackpoint>
            <Time>2020-02-15T09:58:48.000Z</Time>
            <Position>
              <LatitudeDegrees>41.96808968670666217803955078125</LatitudeDegrees>
              <LongitudeDegrees>2.88955383002758026123046875</LongitudeDegrees>
            </Position>
            <AltitudeMeters>264.79998779296875</AltitudeMeters>
            <DistanceMeters>NAN</DistanceMeters>
          </Trackpoint>
          <Trackpoint>
            <Time>2020-02-15T09:58:55.000Z</Time>
            <Position>
              <LatitudeDegrees>41.968081556260585784912109375</LatitudeDegrees>
              <LongitudeDegrees>2.8895580209791660308837890625</LongitudeDegrees>
            </Position>
            <AltitudeMeters>265</AltitudeMeters>
            <DistanceMeters>NAN</DistanceMeters>
          </Trackpoint>
          <Trackpoint>
            <Time>2020-02-15T09:58:59.000Z</Time>
            <Position>
              <LatitudeDegrees>41.96805012412369251251220703125</LatitudeDegrees>
              <LongitudeDegrees>2.889589034020900726318359375</LongitudeDegrees>
            </Position>
            <AltitudeMeters>264.79998779296875</AltitudeMeters>
            <DistanceMeters>NAN</DistanceMeters>
          </Trackpoint>
          <Trackpoint>
            <Time>2020-02-15T09:59:00.000Z</Time>
            <Position>
              <LatitudeDegrees>41.96803352795541286468505859375</LatitudeDegrees>
              <LongitudeDegrees>2.8896009363234043121337890625</LongitudeDegrees>
            </Position>
            <AltitudeMeters>265</AltitudeMeters>
            <DistanceMeters>NAN</DistanceMeters>
          </Trackpoint>
          <Trackpoint>
            <Time>2020-02-15T09:59:01.000Z</Time>
            <Position>
              <LatitudeDegrees>41.9680203683674335479736328125</LatitudeDegrees>
              <LongitudeDegrees>2.88961392827332019805908203125</LongitudeDegrees>
            </Position>
            <AltitudeMeters>265</AltitudeMeters>
            <DistanceMeters>NAN</DistanceMeters>
          </Trackpoint>
          <Trackpoint>
            <Time>2020-02-15T09:59:02.000Z</Time>
            <Position>
              <LatitudeDegrees>41.96801072917878627777099609375</LatitudeDegrees>
              <LongitudeDegrees>2.8896223939955234527587890625</LongitudeDegrees>
            </Position>
            <AltitudeMeters>265</AltitudeMeters>
            <DistanceMeters>NAN</DistanceMeters>
          </Trackpoint>
          <Trackpoint>
            <Time>2020-02-15T09:59:03.000Z</Time>
            <Position>
              <LatitudeDegrees>41.96800821460783481597900390625</LatitudeDegrees>
              <LongitudeDegrees>2.88962624967098236083984375</LongitudeDegrees>
            </Position>
            <AltitudeMeters>265</AltitudeMeters>
            <DistanceMeters>NAN</DistanceMeters>
          </Trackpoint>
          <Trackpoint>
            <Time>2020-02-15T09:59:04.000Z</Time>
            <Position>
              <LatitudeDegrees>41.96800854988396167755126953125</LatitudeDegrees>
              <LongitudeDegrees>2.889631278812885284423828125</LongitudeDegrees>
            </Position>
            <AltitudeMeters>265</AltitudeMeters>
            <DistanceMeters>NAN</DistanceMeters>
          </Trackpoint>
          <Trackpoint>
            <Time>2020-02-15T09:59:06.000Z</Time>
            <Position>
              <LatitudeDegrees>41.967996060848236083984375</LatitudeDegrees>
              <LongitudeDegrees>2.88963739760220050811767578125</LongitudeDegrees>
            </Position>
            <AltitudeMeters>265</AltitudeMeters>
            <DistanceMeters>NAN</DistanceMeters>
          </Trackpoint>
          <Trackpoint>
            <Time>2020-02-15T09:59:07.000Z</Time>
            <Position>
              <LatitudeDegrees>41.96799195371568202972412109375</LatitudeDegrees>
              <LongitudeDegrees>2.88964209146797657012939453125</LongitudeDegrees>
            </Position>
            <AltitudeMeters>265</AltitudeMeters>
            <DistanceMeters>NAN</DistanceMeters>
          </Trackpoint>
          <Trackpoint>
            <Time>2020-02-15T09:59:08.000Z</Time>
            <Position>
              <LatitudeDegrees>41.96798977442085742950439453125</LatitudeDegrees>
              <LongitudeDegrees>2.88965265266597270965576171875</LongitudeDegrees>
            </Position>
            <AltitudeMeters>265.399993896484375</AltitudeMeters>
            <DistanceMeters>NAN</DistanceMeters>
          </Trackpoint>
          <Trackpoint>
            <Time>2020-02-15T09:59:09.000Z</Time>
            <Position>
              <LatitudeDegrees>41.96798658929765224456787109375</LatitudeDegrees>
              <LongitudeDegrees>2.889659106731414794921875</LongitudeDegrees>
            </Position>
            <AltitudeMeters>265.399993896484375</AltitudeMeters>
            <DistanceMeters>NAN</DistanceMeters>
          </Trackpoint>
          <Trackpoint>
            <Time>2020-02-15T09:59:10.000Z</Time>
            <Position>
              <LatitudeDegrees>41.967985667288303375244140625</LatitudeDegrees>
              <LongitudeDegrees>2.88966556079685688018798828125</LongitudeDegrees>
            </Position>
            <AltitudeMeters>265.79998779296875</AltitudeMeters>
            <DistanceMeters>NAN</DistanceMeters>
          </Trackpoint>
          <Trackpoint>
            <Time>2020-02-15T09:59:11.000Z</Time>
            <Position>
              <LatitudeDegrees>41.96798600256443023681640625</LatitudeDegrees>
              <LongitudeDegrees>2.8896703384816646575927734375</LongitudeDegrees>
            </Position>
            <AltitudeMeters>266.20001220703125</AltitudeMeters>
            <DistanceMeters>NAN</DistanceMeters>
          </Trackpoint>
          <Trackpoint>
            <Time>2020-02-15T09:59:17.000Z</Time>
            <Position>
              <LatitudeDegrees>41.967962868511676788330078125</LatitudeDegrees>
              <LongitudeDegrees>2.889694310724735260009765625</LongitudeDegrees>
            </Position>
            <AltitudeMeters>266.79998779296875</AltitudeMeters>
            <DistanceMeters>NAN</DistanceMeters>
          </Trackpoint>
          <Trackpoint>
            <Time>2020-02-15T09:59:18.000Z</Time>
            <Position>
              <LatitudeDegrees>41.96795306168496608734130859375</LatitudeDegrees>
              <LongitudeDegrees>2.88969389162957668304443359375</LongitudeDegrees>
            </Position>
            <AltitudeMeters>267</AltitudeMeters>
            <DistanceMeters>NAN</DistanceMeters>
          </Trackpoint>
          <Trackpoint>
            <Time>2020-02-15T09:59:19.000Z</Time>
            <Position>
              <LatitudeDegrees>41.9679437577724456787109375</LatitudeDegrees>
              <LongitudeDegrees>2.88968835957348346710205078125</LongitudeDegrees>
            </Position>
            <AltitudeMeters>267</AltitudeMeters>
            <DistanceMeters>NAN</DistanceMeters>
          </Trackpoint>
          <Trackpoint>
            <Time>2020-02-15T09:59:20.000Z</Time>
            <Position>
              <LatitudeDegrees>41.96793696843087673187255859375</LatitudeDegrees>
              <LongitudeDegrees>2.8896810673177242279052734375</LongitudeDegrees>
            </Position>
            <AltitudeMeters>267</AltitudeMeters>
            <DistanceMeters>NAN</DistanceMeters>
          </Trackpoint>
          <Trackpoint>
            <Time>2020-02-15T09:59:21.000Z</Time>
            <Position>
              <LatitudeDegrees>41.96793009527027606964111328125</LatitudeDegrees>
              <LongitudeDegrees>2.8896669857203960418701171875</LongitudeDegrees>
            </Position>
            <AltitudeMeters>267.20001220703125</AltitudeMeters>
            <DistanceMeters>NAN</DistanceMeters>
          </Trackpoint>
          <Trackpoint>
            <Time>2020-02-15T09:59:22.000Z</Time>
            <Position>
              <LatitudeDegrees>41.96792322210967540740966796875</LatitudeDegrees>
              <LongitudeDegrees>2.88965382613241672515869140625</LongitudeDegrees>
            </Position>
            <AltitudeMeters>267.20001220703125</AltitudeMeters>
            <DistanceMeters>NAN</DistanceMeters>
          </Trackpoint>
          <Trackpoint>
            <Time>2020-02-15T09:59:24.000Z</Time>
            <Position>
              <LatitudeDegrees>41.967901177704334259033203125</LatitudeDegrees>
              <LongitudeDegrees>2.8896255791187286376953125</LongitudeDegrees>
            </Position>
            <AltitudeMeters>267.399993896484375</AltitudeMeters>
            <DistanceMeters>NAN</DistanceMeters>
          </Trackpoint>
          <Trackpoint>
            <Time>2020-02-15T09:59:25.000Z</Time>
            <Position>
              <LatitudeDegrees>41.967892460525035858154296875</LatitudeDegrees>
              <LongitudeDegrees>2.88961007259786128997802734375</LongitudeDegrees>
            </Position>
            <AltitudeMeters>267.20001220703125</AltitudeMeters>
            <DistanceMeters>NAN</DistanceMeters>
          </Trackpoint>
          <Trackpoint>
            <Time>2020-02-15T09:59:26.000Z</Time>
            <Position>
              <LatitudeDegrees>41.96788483299314975738525390625</LatitudeDegrees>
              <LongitudeDegrees>2.88959942758083343505859375</LongitudeDegrees>
            </Position>
            <AltitudeMeters>267.20001220703125</AltitudeMeters>
            <DistanceMeters>NAN</DistanceMeters>
          </Trackpoint>
          <Trackpoint>
            <Time>2020-02-15T09:59:27.000Z</Time>
            <Position>
              <LatitudeDegrees>41.96787376888096332550048828125</LatitudeDegrees>
              <LongitudeDegrees>2.88959540426731109619140625</LongitudeDegrees>
            </Position>
            <AltitudeMeters>267.399993896484375</AltitudeMeters>
            <DistanceMeters>NAN</DistanceMeters>
          </Trackpoint>
          <Trackpoint>
            <Time>2020-02-15T09:59:28.000Z</Time>
            <Position>
              <LatitudeDegrees>41.96786337532103061676025390625</LatitudeDegrees>
              <LongitudeDegrees>2.8895938955247402191162109375</LongitudeDegrees>
            </Position>
            <AltitudeMeters>267.79998779296875</AltitudeMeters>
            <DistanceMeters>NAN</DistanceMeters>
          </Trackpoint>
          <Trackpoint>
            <Time>2020-02-15T09:59:29.000Z</Time>
            <Position>
              <LatitudeDegrees>41.96785532869398593902587890625</LatitudeDegrees>
              <LongitudeDegrees>2.889594398438930511474609375</LongitudeDegrees>
            </Position>
            <AltitudeMeters>267.79998779296875</AltitudeMeters>
            <DistanceMeters>NAN</DistanceMeters>
          </Trackpoint>
          <Trackpoint>
            <Time>2020-02-15T09:59:30.000Z</Time>
            <Position>
              <LatitudeDegrees>41.96785113774240016937255859375</LatitudeDegrees>
              <LongitudeDegrees>2.88959850557148456573486328125</LongitudeDegrees>
            </Position>
            <AltitudeMeters>267.79998779296875</AltitudeMeters>
            <DistanceMeters>NAN</DistanceMeters>
          </Trackpoint>
          <Trackpoint>
            <Time>2020-02-15T09:59:31.000Z</Time>
            <Position>
              <LatitudeDegrees>41.9678466953337192535400390625</LatitudeDegrees>
              <LongitudeDegrees>2.88959934376180171966552734375</LongitudeDegrees>
            </Position>
            <AltitudeMeters>268</AltitudeMeters>
            <DistanceMeters>NAN</DistanceMeters>
          </Trackpoint>
          <Trackpoint>
            <Time>2020-02-15T09:59:41.000Z</Time>
            <Position>
              <LatitudeDegrees>41.96783387102186679840087890625</LatitudeDegrees>
              <LongitudeDegrees>2.88959984667599201202392578125</LongitudeDegrees>
            </Position>
            <AltitudeMeters>268.79998779296875</AltitudeMeters>
            <DistanceMeters>NAN</DistanceMeters>
          </Trackpoint>
          <Trackpoint>
            <Time>2020-02-15T09:59:42.000Z</Time>
            <Position>
              <LatitudeDegrees>41.9678339548408985137939453125</LatitudeDegrees>
              <LongitudeDegrees>2.88960034959018230438232421875</LongitudeDegrees>
            </Position>
            <AltitudeMeters>269</AltitudeMeters>
            <DistanceMeters>NAN</DistanceMeters>
          </Trackpoint>
          <Trackpoint>
            <Time>2020-02-15T09:59:43.000Z</Time>
            <Position>
              <LatitudeDegrees>41.96783370338380336761474609375</LatitudeDegrees>
              <LongitudeDegrees>2.88960001431405544281005859375</LongitudeDegrees>
            </Position>
            <AltitudeMeters>268.79998779296875</AltitudeMeters>
            <DistanceMeters>NAN</DistanceMeters>
          </Trackpoint>
          <Trackpoint>
            <Time>2020-02-15T09:59:44.000Z</Time>
            <Position>
              <LatitudeDegrees>41.96783353574573993682861328125</LatitudeDegrees>
              <LongitudeDegrees>2.889600098133087158203125</LongitudeDegrees>
            </Position>
            <AltitudeMeters>268.79998779296875</AltitudeMeters>
            <DistanceMeters>NAN</DistanceMeters>
          </Trackpoint>
          <Trackpoint>
            <Time>2020-02-15T09:59:45.000Z</Time>
            <Position>
              <LatitudeDegrees>41.96783320046961307525634765625</LatitudeDegrees>
              <LongitudeDegrees>2.88959984667599201202392578125</LongitudeDegrees>
            </Position>
            <AltitudeMeters>268.79998779296875</AltitudeMeters>
            <DistanceMeters>NAN</DistanceMeters>
          </Trackpoint>
          <Trackpoint>
            <Time>2020-02-15T09:59:48.000Z</Time>
            <Position>
              <LatitudeDegrees>41.96782247163355350494384765625</LatitudeDegrees>
              <LongitudeDegrees>2.8895987570285797119140625</LongitudeDegrees>
            </Position>
            <AltitudeMeters>268.79998779296875</AltitudeMeters>
            <DistanceMeters>NAN</DistanceMeters>
          </Trackpoint>
          <Trackpoint>
            <Time>2020-02-15T09:59:49.000Z</Time>
            <Position>
              <LatitudeDegrees>41.96781476028263568878173828125</LatitudeDegrees>
              <LongitudeDegrees>2.889607138931751251220703125</LongitudeDegrees>
            </Position>
            <AltitudeMeters>269</AltitudeMeters>
            <DistanceMeters>NAN</DistanceMeters>
          </Trackpoint>
          <Trackpoint>
            <Time>2020-02-15T09:59:50.000Z</Time>
            <Position>
              <LatitudeDegrees>41.96780554018914699554443359375</LatitudeDegrees>
              <LongitudeDegrees>2.88961342535912990570068359375</LongitudeDegrees>
            </Position>
            <AltitudeMeters>268.79998779296875</AltitudeMeters>
            <DistanceMeters>NAN</DistanceMeters>
          </Trackpoint>
          <Trackpoint>
            <Time>2020-02-15T09:59:51.000Z</Time>
            <Position>
              <LatitudeDegrees>41.9677960686385631561279296875</LatitudeDegrees>
              <LongitudeDegrees>2.8896213881671428680419921875</LongitudeDegrees>
            </Position>
            <AltitudeMeters>268.79998779296875</AltitudeMeters>
            <DistanceMeters>NAN</DistanceMeters>
          </Trackpoint>
          <Trackpoint>
            <Time>2020-02-15T09:59:52.000Z</Time>
            <Position>
              <LatitudeDegrees>41.967789866030216217041015625</LatitudeDegrees>
              <LongitudeDegrees>2.88963622413575649261474609375</LongitudeDegrees>
            </Position>
            <AltitudeMeters>269</AltitudeMeters>
            <DistanceMeters>NAN</DistanceMeters>
          </Trackpoint>
          <Trackpoint>
            <Time>2020-02-15T09:59:53.000Z</Time>
            <Position>
              <LatitudeDegrees>41.96777544915676116943359375</LatitudeDegrees>
              <LongitudeDegrees>2.889642678201198577880859375</LongitudeDegrees>
            </Position>
            <AltitudeMeters>269</AltitudeMeters>
            <DistanceMeters>NAN</DistanceMeters>
          </Trackpoint>
          <Trackpoint>
            <Time>2020-02-15T09:59:54.000Z</Time>
            <Position>
              <LatitudeDegrees>41.96776472032070159912109375</LatitudeDegrees>
              <LongitudeDegrees>2.88965265266597270965576171875</LongitudeDegrees>
            </Position>
            <AltitudeMeters>269</AltitudeMeters>
            <DistanceMeters>NAN</DistanceMeters>
          </Trackpoint>
          <Trackpoint>
            <Time>2020-02-15T09:59:55.000Z</Time>
            <Position>
              <LatitudeDegrees>41.9677541591227054595947265625</LatitudeDegrees>
              <LongitudeDegrees>2.8896629624068737030029296875</LongitudeDegrees>
            </Position>
            <AltitudeMeters>269</AltitudeMeters>
            <DistanceMeters>NAN</DistanceMeters>
          </Trackpoint>
          <Trackpoint>
            <Time>2020-02-15T09:59:56.000Z</Time>
            <Position>
              <LatitudeDegrees>41.967744268476963043212890625</LatitudeDegrees>
              <LongitudeDegrees>2.88967427797615528106689453125</LongitudeDegrees>
            </Position>
            <AltitudeMeters>269</AltitudeMeters>
            <DistanceMeters>NAN</DistanceMeters>
          </Trackpoint>
          <Trackpoint>
            <Time>2020-02-15T09:59:57.000Z</Time>
            <Position>
              <LatitudeDegrees>41.96773395873606204986572265625</LatitudeDegrees>
              <LongitudeDegrees>2.889686934649944305419921875</LongitudeDegrees>
            </Position>
            <AltitudeMeters>269.399993896484375</AltitudeMeters>
            <DistanceMeters>NAN</DistanceMeters>
          </Trackpoint>
          <Trackpoint>
            <Time>2020-02-15T09:59:58.000Z</Time>
            <Position>
              <LatitudeDegrees>41.9677192904055118560791015625</LatitudeDegrees>
              <LongitudeDegrees>2.88970001041889190673828125</LongitudeDegrees>
            </Position>
            <AltitudeMeters>269.600006103515625</AltitudeMeters>
            <DistanceMeters>NAN</DistanceMeters>
          </Trackpoint>
          <Trackpoint>
            <Time>2020-02-15T09:59:59.000Z</Time>
            <Position>
              <LatitudeDegrees>41.967706382274627685546875</LatitudeDegrees>
              <LongitudeDegrees>2.88971166126430034637451171875</LongitudeDegrees>
            </Position>
            <AltitudeMeters>269.79998779296875</AltitudeMeters>
            <DistanceMeters>NAN</DistanceMeters>
          </Trackpoint>
          <Trackpoint>
            <Time>2020-02-15T10:00:00.000Z</Time>
            <Position>
              <LatitudeDegrees>41.96769456379115581512451171875</LatitudeDegrees>
              <LongitudeDegrees>2.8897275030612945556640625</LongitudeDegrees>
            </Position>
            <AltitudeMeters>269.79998779296875</AltitudeMeters>
            <DistanceMeters>NAN</DistanceMeters>
          </Trackpoint>
          <Trackpoint>
            <Time>2020-02-15T10:00:01.000Z</Time>
            <Position>
              <LatitudeDegrees>41.967684589326381683349609375</LatitudeDegrees>
              <LongitudeDegrees>2.88974183611571788787841796875</LongitudeDegrees>
            </Position>
            <AltitudeMeters>269.79998779296875</AltitudeMeters>
            <DistanceMeters>NAN</DistanceMeters>
          </Trackpoint>
          <Trackpoint>
            <Time>2020-02-15T10:00:02.000Z</Time>
            <Position>
              <LatitudeDegrees>41.96767411194741725921630859375</LatitudeDegrees>
              <LongitudeDegrees>2.8897487930953502655029296875</LongitudeDegrees>
            </Position>
            <AltitudeMeters>269.79998779296875</AltitudeMeters>
            <DistanceMeters>NAN</DistanceMeters>
          </Trackpoint>
          <Trackpoint>
            <Time>2020-02-15T10:00:03.000Z</Time>
            <Position>
              <LatitudeDegrees>41.967661790549755096435546875</LatitudeDegrees>
              <LongitudeDegrees>2.8897595219314098358154296875</LongitudeDegrees>
            </Position>
            <AltitudeMeters>270.20001220703125</AltitudeMeters>
            <DistanceMeters>NAN</DistanceMeters>
          </Trackpoint>
          <Trackpoint>
            <Time>2020-02-15T10:00:04.000Z</Time>
            <Position>
              <LatitudeDegrees>41.96764728985726833343505859375</LatitudeDegrees>
              <LongitudeDegrees>2.88976195268332958221435546875</LongitudeDegrees>
            </Position>
            <AltitudeMeters>270.399993896484375</AltitudeMeters>
            <DistanceMeters>NAN</DistanceMeters>
          </Trackpoint>
          <Trackpoint>
            <Time>2020-02-15T10:00:05.000Z</Time>
            <Position>
              <LatitudeDegrees>41.9676353037357330322265625</LatitudeDegrees>
              <LongitudeDegrees>2.88976983167231082916259765625</LongitudeDegrees>
            </Position>
            <AltitudeMeters>270.600006103515625</AltitudeMeters>
            <DistanceMeters>NAN</DistanceMeters>
          </Trackpoint>
          <Trackpoint>
            <Time>2020-02-15T10:00:06.000Z</Time>
            <Position>
              <LatitudeDegrees>41.96762549690902233123779296875</LatitudeDegrees>
              <LongitudeDegrees>2.8897826559841632843017578125</LongitudeDegrees>
            </Position>
            <AltitudeMeters>270.79998779296875</AltitudeMeters>
            <DistanceMeters>NAN</DistanceMeters>
          </Trackpoint>
          <Trackpoint>
            <Time>2020-02-15T10:00:07.000Z</Time>
            <Position>
              <LatitudeDegrees>41.967615187168121337890625</LatitudeDegrees>
              <LongitudeDegrees>2.88979782722890377044677734375</LongitudeDegrees>
            </Position>
            <AltitudeMeters>271.399993896484375</AltitudeMeters>
            <DistanceMeters>NAN</DistanceMeters>
          </Trackpoint>
          <Trackpoint>
            <Time>2020-02-15T10:00:08.000Z</Time>
            <Position>
              <LatitudeDegrees>41.9676031172275543212890625</LatitudeDegrees>
              <LongitudeDegrees>2.88981324993073940277099609375</LongitudeDegrees>
            </Position>
            <AltitudeMeters>271.600006103515625</AltitudeMeters>
            <DistanceMeters>NAN</DistanceMeters>
          </Trackpoint>
          <Trackpoint>
            <Time>2020-02-15T10:00:10.000Z</Time>
            <Position>
              <LatitudeDegrees>41.96758409030735492706298828125</LatitudeDegrees>
              <LongitudeDegrees>2.8898453526198863983154296875</LongitudeDegrees>
            </Position>
            <AltitudeMeters>272.20001220703125</AltitudeMeters>
            <DistanceMeters>NAN</DistanceMeters>
          </Trackpoint>
          <Trackpoint>
            <Time>2020-02-15T10:00:11.000Z</Time>
            <Position>
              <LatitudeDegrees>41.9675757922232151031494140625</LatitudeDegrees>
              <LongitudeDegrees>2.8898647986352443695068359375</LongitudeDegrees>
            </Position>
            <AltitudeMeters>272.20001220703125</AltitudeMeters>
            <DistanceMeters>NAN</DistanceMeters>
          </Trackpoint>
          <Trackpoint>
            <Time>2020-02-15T10:00:12.000Z</Time>
            <Position>
              <LatitudeDegrees>41.96756749413907527923583984375</LatitudeDegrees>
              <LongitudeDegrees>2.88988617248833179473876953125</LongitudeDegrees>
            </Position>
            <AltitudeMeters>272.20001220703125</AltitudeMeters>
            <DistanceMeters>NAN</DistanceMeters>
          </Trackpoint>
          <Trackpoint>
            <Time>2020-02-15T10:00:13.000Z</Time>
            <Position>
              <LatitudeDegrees>41.96755961515009403228759765625</LatitudeDegrees>
              <LongitudeDegrees>2.88990394212305545806884765625</LongitudeDegrees>
            </Position>
            <AltitudeMeters>272.399993896484375</AltitudeMeters>
            <DistanceMeters>NAN</DistanceMeters>
          </Trackpoint>
          <Trackpoint>
            <Time>2020-02-15T10:00:14.000Z</Time>
            <Position>
              <LatitudeDegrees>41.96755290962755680084228515625</LatitudeDegrees>
              <LongitudeDegrees>2.88992129266262054443359375</LongitudeDegrees>
            </Position>
            <AltitudeMeters>272.600006103515625</AltitudeMeters>
            <DistanceMeters>NAN</DistanceMeters>
          </Trackpoint>
          <Trackpoint>
            <Time>2020-02-15T10:00:15.000Z</Time>
            <Position>
              <LatitudeDegrees>41.96754737757146358489990234375</LatitudeDegrees>
              <LongitudeDegrees>2.8899392299354076385498046875</LongitudeDegrees>
            </Position>
            <AltitudeMeters>272.600006103515625</AltitudeMeters>
            <DistanceMeters>NAN</DistanceMeters>
          </Trackpoint>
          <Trackpoint>
            <Time>2020-02-15T10:00:16.000Z</Time>
            <Position>
              <LatitudeDegrees>41.9675399176776409149169921875</LatitudeDegrees>
              <LongitudeDegrees>2.88995683193206787109375</LongitudeDegrees>
            </Position>
            <AltitudeMeters>272.600006103515625</AltitudeMeters>
            <DistanceMeters>NAN</DistanceMeters>
          </Trackpoint>
          <Trackpoint>
            <Time>2020-02-15T10:00:17.000Z</Time>
            <Position>
              <LatitudeDegrees>41.967533715069293975830078125</LatitudeDegrees>
              <LongitudeDegrees>2.889975607395172119140625</LongitudeDegrees>
            </Position>
            <AltitudeMeters>272.79998779296875</AltitudeMeters>
            <DistanceMeters>NAN</DistanceMeters>
          </Trackpoint>
          <Trackpoint>
            <Time>2020-02-15T10:00:18.000Z</Time>
            <Position>
              <LatitudeDegrees>41.967526338994503021240234375</LatitudeDegrees>
              <LongitudeDegrees>2.88999647833406925201416015625</LongitudeDegrees>
            </Position>
            <AltitudeMeters>272.79998779296875</AltitudeMeters>
            <DistanceMeters>NAN</DistanceMeters>
          </Trackpoint>
          <Trackpoint>
            <Time>2020-02-15T10:00:19.000Z</Time>
            <Position>
              <LatitudeDegrees>41.967518627643585205078125</LatitudeDegrees>
              <LongitudeDegrees>2.89001558907330036163330078125</LongitudeDegrees>
            </Position>
            <AltitudeMeters>272.79998779296875</AltitudeMeters>
            <DistanceMeters>NAN</DistanceMeters>
          </Trackpoint>
          <Trackpoint>
            <Time>2020-02-15T10:00:20.000Z</Time>
            <Position>
              <LatitudeDegrees>41.9675092399120330810546875</LatitudeDegrees>
              <LongitudeDegrees>2.8900267370045185089111328125</LongitudeDegrees>
            </Position>
            <AltitudeMeters>273.20001220703125</AltitudeMeters>
            <DistanceMeters>NAN</DistanceMeters>
          </Trackpoint>
          <Trackpoint>
            <Time>2020-02-15T10:00:21.000Z</Time>
            <Position>
              <LatitudeDegrees>41.9674985110759735107421875</LatitudeDegrees>
              <LongitudeDegrees>2.89003503508865833282470703125</LongitudeDegrees>
            </Position>
            <AltitudeMeters>273.399993896484375</AltitudeMeters>
            <DistanceMeters>NAN</DistanceMeters>
          </Trackpoint>
          <Trackpoint>
            <Time>2020-02-15T10:00:22.000Z</Time>
            <Position>
              <LatitudeDegrees>41.96748501621186733245849609375</LatitudeDegrees>
              <LongitudeDegrees>2.89003805257380008697509765625</LongitudeDegrees>
            </Position>
            <AltitudeMeters>273.399993896484375</AltitudeMeters>
            <DistanceMeters>NAN</DistanceMeters>
          </Trackpoint>
          <Trackpoint>
            <Time>2020-02-15T10:00:23.000Z</Time>
            <Position>
              <LatitudeDegrees>41.96746557019650936126708984375</LatitudeDegrees>
              <LongitudeDegrees>2.89003788493573665618896484375</LongitudeDegrees>
            </Position>
            <AltitudeMeters>273.399993896484375</AltitudeMeters>
            <DistanceMeters>NAN</DistanceMeters>
          </Trackpoint>
          <Trackpoint>
            <Time>2020-02-15T10:00:24.000Z</Time>
            <Position>
              <LatitudeDegrees>41.9674457050859928131103515625</LatitudeDegrees>
              <LongitudeDegrees>2.8900359570980072021484375</LongitudeDegrees>
            </Position>
            <AltitudeMeters>273.600006103515625</AltitudeMeters>
            <DistanceMeters>NAN</DistanceMeters>
          </Trackpoint>
          <Trackpoint>
            <Time>2020-02-15T10:00:25.000Z</Time>
            <Position>
              <LatitudeDegrees>41.96742885746061801910400390625</LatitudeDegrees>
              <LongitudeDegrees>2.8900327719748020172119140625</LongitudeDegrees>
            </Position>
            <AltitudeMeters>273.600006103515625</AltitudeMeters>
            <DistanceMeters>NAN</DistanceMeters>
          </Trackpoint>
          <Trackpoint>
            <Time>2020-02-15T10:00:26.000Z</Time>
            <Position>
              <LatitudeDegrees>41.96741175837814807891845703125</LatitudeDegrees>
              <LongitudeDegrees>2.89003050886094570159912109375</LongitudeDegrees>
            </Position>
            <AltitudeMeters>273.79998779296875</AltitudeMeters>
            <DistanceMeters>NAN</DistanceMeters>
          </Trackpoint>
          <Trackpoint>
            <Time>2020-02-15T10:00:27.000Z</Time>
            <Position>
              <LatitudeDegrees>41.96739591658115386962890625</LatitudeDegrees>
              <LongitudeDegrees>2.89003101177513599395751953125</LongitudeDegrees>
            </Position>
            <AltitudeMeters>274</AltitudeMeters>
            <DistanceMeters>NAN</DistanceMeters>
          </Trackpoint>
          <Trackpoint>
            <Time>2020-02-15T10:00:28.000Z</Time>
            <Position>
              <LatitudeDegrees>41.96737923659384250640869140625</LatitudeDegrees>
              <LongitudeDegrees>2.89003084413707256317138671875</LongitudeDegrees>
            </Position>
            <AltitudeMeters>274.20001220703125</AltitudeMeters>
            <DistanceMeters>NAN</DistanceMeters>
          </Trackpoint>
          <Trackpoint>
            <Time>2020-02-15T10:00:30.000Z</Time>
            <Position>
              <LatitudeDegrees>41.96734520606696605682373046875</LatitudeDegrees>
              <LongitudeDegrees>2.890020869672298431396484375</LongitudeDegrees>
            </Position>
            <AltitudeMeters>274.20001220703125</AltitudeMeters>
            <DistanceMeters>NAN</DistanceMeters>
          </Trackpoint>
          <Trackpoint>
            <Time>2020-02-15T10:00:31.000Z</Time>
            <Position>
              <LatitudeDegrees>41.967331878840923309326171875</LatitudeDegrees>
              <LongitudeDegrees>2.89001609198749065399169921875</LongitudeDegrees>
            </Position>
            <AltitudeMeters>274.399993896484375</AltitudeMeters>
            <DistanceMeters>NAN</DistanceMeters>
          </Trackpoint>
          <Trackpoint>
            <Time>2020-02-15T10:00:32.000Z</Time>
            <Position>
              <LatitudeDegrees>41.96731754578649997711181640625</LatitudeDegrees>
              <LongitudeDegrees>2.890007793903350830078125</LongitudeDegrees>
            </Position>
            <AltitudeMeters>274.399993896484375</AltitudeMeters>
            <DistanceMeters>NAN</DistanceMeters>
          </Trackpoint>
          <Trackpoint>
            <Time>2020-02-15T10:00:33.000Z</Time>
            <Position>
              <LatitudeDegrees>41.9673028774559497833251953125</LatitudeDegrees>
              <LongitudeDegrees>2.8899979032576084136962890625</LongitudeDegrees>
            </Position>
            <AltitudeMeters>274.399993896484375</AltitudeMeters>
            <DistanceMeters>NAN</DistanceMeters>
          </Trackpoint>
          <Trackpoint>
            <Time>2020-02-15T10:00:35.000Z</Time>
            <Position>
              <LatitudeDegrees>41.96727245114743709564208984375</LatitudeDegrees>
              <LongitudeDegrees>2.88997351191937923431396484375</LongitudeDegrees>
            </Position>
            <AltitudeMeters>274.600006103515625</AltitudeMeters>
            <DistanceMeters>NAN</DistanceMeters>
          </Trackpoint>
          <Trackpoint>
            <Time>2020-02-15T10:00:36.000Z</Time>
            <Position>
              <LatitudeDegrees>41.96725619025528430938720703125</LatitudeDegrees>
              <LongitudeDegrees>2.88996177725493907928466796875</LongitudeDegrees>
            </Position>
            <AltitudeMeters>274.600006103515625</AltitudeMeters>
            <DistanceMeters>NAN</DistanceMeters>
          </Trackpoint>
          <Trackpoint>
            <Time>2020-02-15T10:00:37.000Z</Time>
            <Position>
              <LatitudeDegrees>41.96723741479218006134033203125</LatitudeDegrees>
              <LongitudeDegrees>2.88994853384792804718017578125</LongitudeDegrees>
            </Position>
            <AltitudeMeters>274.79998779296875</AltitudeMeters>
            <DistanceMeters>NAN</DistanceMeters>
          </Trackpoint>
          <Trackpoint>
            <Time>2020-02-15T10:00:39.000Z</Time>
            <Position>
              <LatitudeDegrees>41.9671976007521152496337890625</LatitudeDegrees>
              <LongitudeDegrees>2.889921627938747406005859375</LongitudeDegrees>
            </Position>
            <AltitudeMeters>275</AltitudeMeters>
            <DistanceMeters>NAN</DistanceMeters>
          </Trackpoint>
          <Trackpoint>
            <Time>2020-02-15T10:00:40.000Z</Time>
            <Position>
              <LatitudeDegrees>41.9671784900128841400146484375</LatitudeDegrees>
              <LongitudeDegrees>2.8899114020168781280517578125</LongitudeDegrees>
            </Position>
            <AltitudeMeters>275</AltitudeMeters>
            <DistanceMeters>NAN</DistanceMeters>
          </Trackpoint>
          <Trackpoint>
            <Time>2020-02-15T10:00:41.000Z</Time>
            <Position>
              <LatitudeDegrees>41.96715879254043102264404296875</LatitudeDegrees>
              <LongitudeDegrees>2.8899033553898334503173828125</LongitudeDegrees>
            </Position>
            <AltitudeMeters>275.20001220703125</AltitudeMeters>
            <DistanceMeters>NAN</DistanceMeters>
          </Trackpoint>
          <Trackpoint>
            <Time>2020-02-15T10:00:42.000Z</Time>
            <Position>
              <LatitudeDegrees>41.96713934652507305145263671875</LatitudeDegrees>
              <LongitudeDegrees>2.88989807479083538055419921875</LongitudeDegrees>
            </Position>
            <AltitudeMeters>275.20001220703125</AltitudeMeters>
            <DistanceMeters>NAN</DistanceMeters>
          </Trackpoint>
          <Trackpoint>
            <Time>2020-02-15T10:00:43.000Z</Time>
            <Position>
              <LatitudeDegrees>41.9671198166906833648681640625</LatitudeDegrees>
              <LongitudeDegrees>2.88989086635410785675048828125</LongitudeDegrees>
            </Position>
            <AltitudeMeters>275.399993896484375</AltitudeMeters>
            <DistanceMeters>NAN</DistanceMeters>
          </Trackpoint>
          <Trackpoint>
            <Time>2020-02-15T10:00:44.000Z</Time>
            <Position>
              <LatitudeDegrees>41.96710146032273769378662109375</LatitudeDegrees>
              <LongitudeDegrees>2.88988231681287288665771484375</LongitudeDegrees>
            </Position>
            <AltitudeMeters>275.399993896484375</AltitudeMeters>
            <DistanceMeters>NAN</DistanceMeters>
          </Trackpoint>
          <Trackpoint>
            <Time>2020-02-15T10:00:45.000Z</Time>
            <Position>
              <LatitudeDegrees>41.9670836068689823150634765625</LatitudeDegrees>
              <LongitudeDegrees>2.88987393490970134735107421875</LongitudeDegrees>
            </Position>
            <AltitudeMeters>275.399993896484375</AltitudeMeters>
            <DistanceMeters>NAN</DistanceMeters>
          </Trackpoint>
          <Trackpoint>
            <Time>2020-02-15T10:00:46.000Z</Time>
            <Position>
              <LatitudeDegrees>41.96706122718751430511474609375</LatitudeDegrees>
              <LongitudeDegrees>2.8898654691874980926513671875</LongitudeDegrees>
            </Position>
            <AltitudeMeters>275.399993896484375</AltitudeMeters>
            <DistanceMeters>NAN</DistanceMeters>
          </Trackpoint>
          <Trackpoint>
            <Time>2020-02-15T10:00:48.000Z</Time>
            <Position>
              <LatitudeDegrees>41.9670229218900203704833984375</LatitudeDegrees>
              <LongitudeDegrees>2.88986027240753173828125</LongitudeDegrees>
            </Position>
            <AltitudeMeters>275.600006103515625</AltitudeMeters>
            <DistanceMeters>NAN</DistanceMeters>
          </Trackpoint>
          <Trackpoint>
            <Time>2020-02-15T10:00:49.000Z</Time>
            <Position>
              <LatitudeDegrees>41.967001967132091522216796875</LatitudeDegrees>
              <LongitudeDegrees>2.88985683582723140716552734375</LongitudeDegrees>
            </Position>
            <AltitudeMeters>275.79998779296875</AltitudeMeters>
            <DistanceMeters>NAN</DistanceMeters>
          </Trackpoint>
          <Trackpoint>
            <Time>2020-02-15T10:00:50.000Z</Time>
            <Position>
              <LatitudeDegrees>41.966981850564479827880859375</LatitudeDegrees>
              <LongitudeDegrees>2.88985432125627994537353515625</LongitudeDegrees>
            </Position>
            <AltitudeMeters>275.600006103515625</AltitudeMeters>
            <DistanceMeters>NAN</DistanceMeters>
          </Trackpoint>
          <Trackpoint>
            <Time>2020-02-15T10:00:52.000Z</Time>
            <Position>
              <LatitudeDegrees>41.9669421203434467315673828125</LatitudeDegrees>
              <LongitudeDegrees>2.889850549399852752685546875</LongitudeDegrees>
            </Position>
            <AltitudeMeters>276</AltitudeMeters>
            <DistanceMeters>NAN</DistanceMeters>
          </Trackpoint>
          <Trackpoint>
            <Time>2020-02-15T10:00:53.000Z</Time>
            <Position>
              <LatitudeDegrees>41.966924183070659637451171875</LatitudeDegrees>
              <LongitudeDegrees>2.88985021412372589111328125</LongitudeDegrees>
            </Position>
            <AltitudeMeters>276.20001220703125</AltitudeMeters>
            <DistanceMeters>NAN</DistanceMeters>
          </Trackpoint>
          <Trackpoint>
            <Time>2020-02-15T10:00:54.000Z</Time>
            <Position>
              <LatitudeDegrees>41.96690783835947513580322265625</LatitudeDegrees>
              <LongitudeDegrees>2.88985348306596279144287109375</LongitudeDegrees>
            </Position>
            <AltitudeMeters>276</AltitudeMeters>
            <DistanceMeters>NAN</DistanceMeters>
          </Trackpoint>
          <Trackpoint>
            <Time>2020-02-15T10:00:55.000Z</Time>
            <Position>
              <LatitudeDegrees>41.9668894819915294647216796875</LatitudeDegrees>
              <LongitudeDegrees>2.8898550756275653839111328125</LongitudeDegrees>
            </Position>
            <AltitudeMeters>276.20001220703125</AltitudeMeters>
            <DistanceMeters>NAN</DistanceMeters>
          </Trackpoint>
          <Trackpoint>
            <Time>2020-02-15T10:00:56.000Z</Time>
            <Position>
              <LatitudeDegrees>41.96687011979520320892333984375</LatitudeDegrees>
              <LongitudeDegrees>2.889857590198516845703125</LongitudeDegrees>
            </Position>
            <AltitudeMeters>276.20001220703125</AltitudeMeters>
            <DistanceMeters>NAN</DistanceMeters>
          </Trackpoint>
          <Trackpoint>
            <Time>2020-02-15T10:00:57.000Z</Time>
            <Position>
              <LatitudeDegrees>41.96685235016047954559326171875</LatitudeDegrees>
              <LongitudeDegrees>2.889863289892673492431640625</LongitudeDegrees>
            </Position>
            <AltitudeMeters>276.20001220703125</AltitudeMeters>
            <DistanceMeters>NAN</DistanceMeters>
          </Trackpoint>
          <Trackpoint>
            <Time>2020-02-15T10:00:58.000Z</Time>
            <Position>
              <LatitudeDegrees>41.96683290414512157440185546875</LatitudeDegrees>
              <LongitudeDegrees>2.88987024687230587005615234375</LongitudeDegrees>
            </Position>
            <AltitudeMeters>276.20001220703125</AltitudeMeters>
            <DistanceMeters>NAN</DistanceMeters>
          </Trackpoint>
          <Trackpoint>
            <Time>2020-02-15T10:00:59.000Z</Time>
            <Position>
              <LatitudeDegrees>41.966810524463653564453125</LatitudeDegrees>
              <LongitudeDegrees>2.88987837731838226318359375</LongitudeDegrees>
            </Position>
            <AltitudeMeters>276.399993896484375</AltitudeMeters>
            <DistanceMeters>NAN</DistanceMeters>
          </Trackpoint>
          <Trackpoint>
            <Time>2020-02-15T10:01:00.000Z</Time>
            <Position>
              <LatitudeDegrees>41.96678613312542438507080078125</LatitudeDegrees>
              <LongitudeDegrees>2.88988466374576091766357421875</LongitudeDegrees>
            </Position>
            <AltitudeMeters>276.399993896484375</AltitudeMeters>
            <DistanceMeters>NAN</DistanceMeters>
          </Trackpoint>
          <Trackpoint>
            <Time>2020-02-15T10:01:03.000Z</Time>
            <Position>
              <LatitudeDegrees>41.9667144678533077239990234375</LatitudeDegrees>
              <LongitudeDegrees>2.88990260101854801177978515625</LongitudeDegrees>
            </Position>
            <AltitudeMeters>277.20001220703125</AltitudeMeters>
            <DistanceMeters>NAN</DistanceMeters>
          </Trackpoint>
          <Trackpoint>
            <Time>2020-02-15T10:01:04.000Z</Time>
            <Position>
              <LatitudeDegrees>41.96669317781925201416015625</LatitudeDegrees>
              <LongitudeDegrees>2.88990654051303863525390625</LongitudeDegrees>
            </Position>
            <AltitudeMeters>277.20001220703125</AltitudeMeters>
            <DistanceMeters>NAN</DistanceMeters>
          </Trackpoint>
          <Trackpoint>
            <Time>2020-02-15T10:01:05.000Z</Time>
            <Position>
              <LatitudeDegrees>41.96667398326098918914794921875</LatitudeDegrees>
              <LongitudeDegrees>2.88991014473140239715576171875</LongitudeDegrees>
            </Position>
            <AltitudeMeters>277.20001220703125</AltitudeMeters>
            <DistanceMeters>NAN</DistanceMeters>
          </Trackpoint>
          <Trackpoint>
            <Time>2020-02-15T10:01:06.000Z</Time>
            <Position>
              <LatitudeDegrees>41.9666562974452972412109375</LatitudeDegrees>
              <LongitudeDegrees>2.8899184428155422210693359375</LongitudeDegrees>
            </Position>
            <AltitudeMeters>277.399993896484375</AltitudeMeters>
            <DistanceMeters>NAN</DistanceMeters>
          </Trackpoint>
          <Trackpoint>
            <Time>2020-02-15T10:01:07.000Z</Time>
            <Position>
              <LatitudeDegrees>41.966639868915081024169921875</LatitudeDegrees>
              <LongitudeDegrees>2.88992799818515777587890625</LongitudeDegrees>
            </Position>
            <AltitudeMeters>277.600006103515625</AltitudeMeters>
            <DistanceMeters>NAN</DistanceMeters>
          </Trackpoint>
          <Trackpoint>
            <Time>2020-02-15T10:01:08.000Z</Time>
            <Position>
              <LatitudeDegrees>41.96662385948002338409423828125</LatitudeDegrees>
              <LongitudeDegrees>2.8899388946592807769775390625</LongitudeDegrees>
            </Position>
            <AltitudeMeters>277.600006103515625</AltitudeMeters>
            <DistanceMeters>NAN</DistanceMeters>
          </Trackpoint>
          <Trackpoint>
            <Time>2020-02-15T10:01:09.000Z</Time>
            <Position>
              <LatitudeDegrees>41.96660810150206089019775390625</LatitudeDegrees>
              <LongitudeDegrees>2.889949120581150054931640625</LongitudeDegrees>
            </Position>
            <AltitudeMeters>277.600006103515625</AltitudeMeters>
            <DistanceMeters>NAN</DistanceMeters>
          </Trackpoint>
          <Trackpoint>
            <Time>2020-02-15T10:01:10.000Z</Time>
            <Position>
              <LatitudeDegrees>41.96659184060990810394287109375</LatitudeDegrees>
              <LongitudeDegrees>2.88996018469333648681640625</LongitudeDegrees>
            </Position>
            <AltitudeMeters>277.600006103515625</AltitudeMeters>
            <DistanceMeters>NAN</DistanceMeters>
          </Trackpoint>
          <Trackpoint>
            <Time>2020-02-15T10:01:11.000Z</Time>
            <Position>
              <LatitudeDegrees>41.96657205931842327117919921875</LatitudeDegrees>
              <LongitudeDegrees>2.8899734281003475189208984375</LongitudeDegrees>
            </Position>
            <AltitudeMeters>277.79998779296875</AltitudeMeters>
            <DistanceMeters>NAN</DistanceMeters>
          </Trackpoint>
          <Trackpoint>
            <Time>2020-02-15T10:01:12.000Z</Time>
            <Position>
              <LatitudeDegrees>41.9665558822453022003173828125</LatitudeDegrees>
              <LongitudeDegrees>2.88998642005026340484619140625</LongitudeDegrees>
            </Position>
            <AltitudeMeters>277.79998779296875</AltitudeMeters>
            <DistanceMeters>NAN</DistanceMeters>
          </Trackpoint>
          <Trackpoint>
            <Time>2020-02-15T10:01:13.000Z</Time>
            <Position>
              <LatitudeDegrees>41.96654020808637142181396484375</LatitudeDegrees>
              <LongitudeDegrees>2.88999882526695728302001953125</LongitudeDegrees>
            </Position>
            <AltitudeMeters>277.79998779296875</AltitudeMeters>
            <DistanceMeters>NAN</DistanceMeters>
          </Trackpoint>
          <Trackpoint>
            <Time>2020-02-15T10:01:14.000Z</Time>
            <Position>
              <LatitudeDegrees>41.9665253721177577972412109375</LatitudeDegrees>
              <LongitudeDegrees>2.890010140836238861083984375</LongitudeDegrees>
            </Position>
            <AltitudeMeters>278.20001220703125</AltitudeMeters>
            <DistanceMeters>NAN</DistanceMeters>
          </Trackpoint>
          <Trackpoint>
            <Time>2020-02-15T10:01:15.000Z</Time>
            <Position>
              <LatitudeDegrees>41.9665149785578250885009765625</LatitudeDegrees>
              <LongitudeDegrees>2.890026569366455078125</LongitudeDegrees>
            </Position>
            <AltitudeMeters>278.20001220703125</AltitudeMeters>
            <DistanceMeters>NAN</DistanceMeters>
          </Trackpoint>
          <Trackpoint>
            <Time>2020-02-15T10:01:16.000Z</Time>
            <Position>
              <LatitudeDegrees>41.96650500409305095672607421875</LatitudeDegrees>
              <LongitudeDegrees>2.89004324935376644134521484375</LongitudeDegrees>
            </Position>
            <AltitudeMeters>278.399993896484375</AltitudeMeters>
            <DistanceMeters>NAN</DistanceMeters>
          </Trackpoint>
          <Trackpoint>
            <Time>2020-02-15T10:01:17.000Z</Time>
            <Position>
              <LatitudeDegrees>41.96649109013378620147705078125</LatitudeDegrees>
              <LongitudeDegrees>2.89005498401820659637451171875</LongitudeDegrees>
            </Position>
            <AltitudeMeters>278.399993896484375</AltitudeMeters>
            <DistanceMeters>NAN</DistanceMeters>
          </Trackpoint>
          <Trackpoint>
            <Time>2020-02-15T10:01:18.000Z</Time>
            <Position>
              <LatitudeDegrees>41.966477595269680023193359375</LatitudeDegrees>
              <LongitudeDegrees>2.8900683112442493438720703125</LongitudeDegrees>
            </Position>
            <AltitudeMeters>278.600006103515625</AltitudeMeters>
            <DistanceMeters>NAN</DistanceMeters>
          </Trackpoint>
          <Trackpoint>
            <Time>2020-02-15T10:01:19.000Z</Time>
            <Position>
              <LatitudeDegrees>41.9664670340716838836669921875</LatitudeDegrees>
              <LongitudeDegrees>2.89008557796478271484375</LongitudeDegrees>
            </Position>
            <AltitudeMeters>278.79998779296875</AltitudeMeters>
            <DistanceMeters>NAN</DistanceMeters>
          </Trackpoint>
          <Trackpoint>
            <Time>2020-02-15T10:01:20.000Z</Time>
            <Position>
              <LatitudeDegrees>41.96645622141659259796142578125</LatitudeDegrees>
              <LongitudeDegrees>2.89010326378047466278076171875</LongitudeDegrees>
            </Position>
            <AltitudeMeters>279</AltitudeMeters>
            <DistanceMeters>NAN</DistanceMeters>
          </Trackpoint>
          <Trackpoint>
            <Time>2020-02-15T10:01:21.000Z</Time>
            <Position>
              <LatitudeDegrees>41.9664470851421356201171875</LatitudeDegrees>
              <LongitudeDegrees>2.8901219554245471954345703125</LongitudeDegrees>
            </Position>
            <AltitudeMeters>279.20001220703125</AltitudeMeters>
            <DistanceMeters>NAN</DistanceMeters>
          </Trackpoint>
          <Trackpoint>
            <Time>2020-02-15T10:01:22.000Z</Time>
            <Position>
              <LatitudeDegrees>41.966438703238964080810546875</LatitudeDegrees>
              <LongitudeDegrees>2.890144251286983489990234375</LongitudeDegrees>
            </Position>
            <AltitudeMeters>279.600006103515625</AltitudeMeters>
            <DistanceMeters>NAN</DistanceMeters>
          </Trackpoint>
          <Trackpoint>
            <Time>2020-02-15T10:01:23.000Z</Time>
            <Position>
              <LatitudeDegrees>41.96643258444964885711669921875</LatitudeDegrees>
              <LongitudeDegrees>2.8901700675487518310546875</LongitudeDegrees>
            </Position>
            <AltitudeMeters>279.79998779296875</AltitudeMeters>
            <DistanceMeters>NAN</DistanceMeters>
          </Trackpoint>
          <Trackpoint>
            <Time>2020-02-15T10:01:24.000Z</Time>
            <Position>
              <LatitudeDegrees>41.96642738766968250274658203125</LatitudeDegrees>
              <LongitudeDegrees>2.89019630290567874908447265625</LongitudeDegrees>
            </Position>
            <AltitudeMeters>280</AltitudeMeters>
            <DistanceMeters>NAN</DistanceMeters>
          </Trackpoint>
          <Trackpoint>
            <Time>2020-02-15T10:01:25.000Z</Time>
            <Position>
              <LatitudeDegrees>41.96642269380390644073486328125</LatitudeDegrees>
              <LongitudeDegrees>2.89022111333906650543212890625</LongitudeDegrees>
            </Position>
            <AltitudeMeters>280.20001220703125</AltitudeMeters>
            <DistanceMeters>NAN</DistanceMeters>
          </Trackpoint>
          <Trackpoint>
            <Time>2020-02-15T10:01:26.000Z</Time>
            <Position>
              <LatitudeDegrees>41.9664184190332889556884765625</LatitudeDegrees>
              <LongitudeDegrees>2.89024659432470798492431640625</LongitudeDegrees>
            </Position>
            <AltitudeMeters>280.20001220703125</AltitudeMeters>
            <DistanceMeters>NAN</DistanceMeters>
          </Trackpoint>
          <Trackpoint>
            <Time>2020-02-15T10:01:27.000Z</Time>
            <Position>
              <LatitudeDegrees>41.9664157368242740631103515625</LatitudeDegrees>
              <LongitudeDegrees>2.89027291350066661834716796875</LongitudeDegrees>
            </Position>
            <AltitudeMeters>280.20001220703125</AltitudeMeters>
            <DistanceMeters>NAN</DistanceMeters>
          </Trackpoint>
          <Trackpoint>
            <Time>2020-02-15T10:01:28.000Z</Time>
            <Position>
              <LatitudeDegrees>41.96641464717686176300048828125</LatitudeDegrees>
              <LongitudeDegrees>2.8902999870479106903076171875</LongitudeDegrees>
            </Position>
            <AltitudeMeters>280.399993896484375</AltitudeMeters>
            <DistanceMeters>NAN</DistanceMeters>
          </Trackpoint>
          <Trackpoint>
            <Time>2020-02-15T10:01:29.000Z</Time>
            <Position>
              <LatitudeDegrees>41.96641397662460803985595703125</LatitudeDegrees>
              <LongitudeDegrees>2.89032773114740848541259765625</LongitudeDegrees>
            </Position>
            <AltitudeMeters>280.79998779296875</AltitudeMeters>
            <DistanceMeters>NAN</DistanceMeters>
          </Trackpoint>
          <Trackpoint>
            <Time>2020-02-15T10:01:30.000Z</Time>
            <Position>
              <LatitudeDegrees>41.966413222253322601318359375</LatitudeDegrees>
              <LongitudeDegrees>2.890353463590145111083984375</LongitudeDegrees>
            </Position>
            <AltitudeMeters>281</AltitudeMeters>
            <DistanceMeters>NAN</DistanceMeters>
          </Trackpoint>
          <Trackpoint>
            <Time>2020-02-15T10:01:31.000Z</Time>
            <Position>
              <LatitudeDegrees>41.9664130546152591705322265625</LatitudeDegrees>
              <LongitudeDegrees>2.8903777711093425750732421875</LongitudeDegrees>
            </Position>
            <AltitudeMeters>281</AltitudeMeters>
            <DistanceMeters>NAN</DistanceMeters>
          </Trackpoint>
          <Trackpoint>
            <Time>2020-02-15T10:01:32.000Z</Time>
            <Position>
              <LatitudeDegrees>41.96641280315816402435302734375</LatitudeDegrees>
              <LongitudeDegrees>2.89039847441017627716064453125</LongitudeDegrees>
            </Position>
            <AltitudeMeters>281.20001220703125</AltitudeMeters>
            <DistanceMeters>NAN</DistanceMeters>
          </Trackpoint>
          <Trackpoint>
            <Time>2020-02-15T10:01:33.000Z</Time>
            <Position>
              <LatitudeDegrees>41.96641213260591030120849609375</LatitudeDegrees>
              <LongitudeDegrees>2.890422530472278594970703125</LongitudeDegrees>
            </Position>
            <AltitudeMeters>281.600006103515625</AltitudeMeters>
            <DistanceMeters>NAN</DistanceMeters>
          </Trackpoint>
          <Trackpoint>
            <Time>2020-02-15T10:01:34.000Z</Time>
            <Position>
              <LatitudeDegrees>41.9664122164249420166015625</LatitudeDegrees>
              <LongitudeDegrees>2.8904501907527446746826171875</LongitudeDegrees>
            </Position>
            <AltitudeMeters>281.79998779296875</AltitudeMeters>
            <DistanceMeters>NAN</DistanceMeters>
          </Trackpoint>
          <Trackpoint>
            <Time>2020-02-15T10:01:35.000Z</Time>
            <Position>
              <LatitudeDegrees>41.96641112677752971649169921875</LatitudeDegrees>
              <LongitudeDegrees>2.89047827012836933135986328125</LongitudeDegrees>
            </Position>
            <AltitudeMeters>281.79998779296875</AltitudeMeters>
            <DistanceMeters>NAN</DistanceMeters>
          </Trackpoint>
          <Trackpoint>
            <Time>2020-02-15T10:01:36.000Z</Time>
            <Position>
              <LatitudeDegrees>41.96640928275883197784423828125</LatitudeDegrees>
              <LongitudeDegrees>2.89050827734172344207763671875</LongitudeDegrees>
            </Position>
            <AltitudeMeters>282.399993896484375</AltitudeMeters>
            <DistanceMeters>NAN</DistanceMeters>
          </Trackpoint>
          <Trackpoint>
            <Time>2020-02-15T10:01:37.000Z</Time>
            <Position>
              <LatitudeDegrees>41.96640643291175365447998046875</LatitudeDegrees>
              <LongitudeDegrees>2.89053878746926784515380859375</LongitudeDegrees>
            </Position>
            <AltitudeMeters>282.600006103515625</AltitudeMeters>
            <DistanceMeters>NAN</DistanceMeters>
          </Trackpoint>
          <Trackpoint>
            <Time>2020-02-15T10:01:38.000Z</Time>
            <Position>
              <LatitudeDegrees>41.966404505074024200439453125</LatitudeDegrees>
              <LongitudeDegrees>2.890568040311336517333984375</LongitudeDegrees>
            </Position>
            <AltitudeMeters>283</AltitudeMeters>
            <DistanceMeters>NAN</DistanceMeters>
          </Trackpoint>
          <Trackpoint>
            <Time>2020-02-15T10:01:39.000Z</Time>
            <Position>
              <LatitudeDegrees>41.966402493417263031005859375</LatitudeDegrees>
              <LongitudeDegrees>2.89059712551534175872802734375</LongitudeDegrees>
            </Position>
            <AltitudeMeters>283.20001220703125</AltitudeMeters>
            <DistanceMeters>NAN</DistanceMeters>
          </Trackpoint>
          <Trackpoint>
            <Time>2020-02-15T10:01:40.000Z</Time>
            <Position>
              <LatitudeDegrees>41.96639838628470897674560546875</LatitudeDegrees>
              <LongitudeDegrees>2.89061975665390491485595703125</LongitudeDegrees>
            </Position>
            <AltitudeMeters>283.399993896484375</AltitudeMeters>
            <DistanceMeters>NAN</DistanceMeters>
          </Trackpoint>
          <Trackpoint>
            <Time>2020-02-15T10:01:41.000Z</Time>
            <Position>
              <LatitudeDegrees>41.966393105685710906982421875</LatitudeDegrees>
              <LongitudeDegrees>2.8906399570405483245849609375</LongitudeDegrees>
            </Position>
            <AltitudeMeters>283.600006103515625</AltitudeMeters>
            <DistanceMeters>NAN</DistanceMeters>
          </Trackpoint>
          <Trackpoint>
            <Time>2020-02-15T10:01:42.000Z</Time>
            <Position>
              <LatitudeDegrees>41.9663885794579982757568359375</LatitudeDegrees>
              <LongitudeDegrees>2.89065462537109851837158203125</LongitudeDegrees>
            </Position>
            <AltitudeMeters>284.20001220703125</AltitudeMeters>
            <DistanceMeters>NAN</DistanceMeters>
          </Trackpoint>
          <Trackpoint>
            <Time>2020-02-15T10:01:43.000Z</Time>
            <Position>
              <LatitudeDegrees>41.96638430468738079071044921875</LatitudeDegrees>
              <LongitudeDegrees>2.89067340083420276641845703125</LongitudeDegrees>
            </Position>
            <AltitudeMeters>284.399993896484375</AltitudeMeters>
            <DistanceMeters>NAN</DistanceMeters>
          </Trackpoint>
          <Trackpoint>
            <Time>2020-02-15T10:01:44.000Z</Time>
            <Position>
              <LatitudeDegrees>41.96637843735516071319580078125</LatitudeDegrees>
              <LongitudeDegrees>2.89069552905857563018798828125</LongitudeDegrees>
            </Position>
            <AltitudeMeters>284.600006103515625</AltitudeMeters>
            <DistanceMeters>NAN</DistanceMeters>
          </Trackpoint>
          <Trackpoint>
            <Time>2020-02-15T10:01:45.000Z</Time>
            <Position>
              <LatitudeDegrees>41.96637324057519435882568359375</LatitudeDegrees>
              <LongitudeDegrees>2.890718244016170501708984375</LongitudeDegrees>
            </Position>
            <AltitudeMeters>285</AltitudeMeters>
            <DistanceMeters>NAN</DistanceMeters>
          </Trackpoint>
          <Trackpoint>
            <Time>2020-02-15T10:01:46.000Z</Time>
            <Position>
              <LatitudeDegrees>41.966368965804576873779296875</LatitudeDegrees>
              <LongitudeDegrees>2.89074070751667022705078125</LongitudeDegrees>
            </Position>
            <AltitudeMeters>285.20001220703125</AltitudeMeters>
            <DistanceMeters>NAN</DistanceMeters>
          </Trackpoint>
          <Trackpoint>
            <Time>2020-02-15T10:01:47.000Z</Time>
            <Position>
              <LatitudeDegrees>41.96636301465332508087158203125</LatitudeDegrees>
              <LongitudeDegrees>2.89076459594070911407470703125</LongitudeDegrees>
            </Position>
            <AltitudeMeters>286</AltitudeMeters>
            <DistanceMeters>NAN</DistanceMeters>
          </Trackpoint>
          <Trackpoint>
            <Time>2020-02-15T10:01:48.000Z</Time>
            <Position>
              <LatitudeDegrees>41.96635580621659755706787109375</LatitudeDegrees>
              <LongitudeDegrees>2.890790663659572601318359375</LongitudeDegrees>
            </Position>
            <AltitudeMeters>286.20001220703125</AltitudeMeters>
            <DistanceMeters>NAN</DistanceMeters>
          </Trackpoint>
          <Trackpoint>
            <Time>2020-02-15T10:01:49.000Z</Time>
            <Position>
              <LatitudeDegrees>41.96634708903729915618896484375</LatitudeDegrees>
              <LongitudeDegrees>2.890819497406482696533203125</LongitudeDegrees>
            </Position>
            <AltitudeMeters>286.20001220703125</AltitudeMeters>
            <DistanceMeters>NAN</DistanceMeters>
          </Trackpoint>
          <Trackpoint>
            <Time>2020-02-15T10:01:50.000Z</Time>
            <Position>
              <LatitudeDegrees>41.96633778512477874755859375</LatitudeDegrees>
              <LongitudeDegrees>2.89084875024855136871337890625</LongitudeDegrees>
            </Position>
            <AltitudeMeters>286.600006103515625</AltitudeMeters>
            <DistanceMeters>NAN</DistanceMeters>
          </Trackpoint>
          <Trackpoint>
            <Time>2020-02-15T10:01:51.000Z</Time>
            <Position>
              <LatitudeDegrees>41.96632915176451206207275390625</LatitudeDegrees>
              <LongitudeDegrees>2.8908806852996349334716796875</LongitudeDegrees>
            </Position>
            <AltitudeMeters>287</AltitudeMeters>
            <DistanceMeters>NAN</DistanceMeters>
          </Trackpoint>
          <Trackpoint>
            <Time>2020-02-15T10:01:52.000Z</Time>
            <Position>
              <LatitudeDegrees>41.966323368251323699951171875</LatitudeDegrees>
              <LongitudeDegrees>2.8909152187407016754150390625</LongitudeDegrees>
            </Position>
            <AltitudeMeters>287.399993896484375</AltitudeMeters>
            <DistanceMeters>NAN</DistanceMeters>
          </Trackpoint>
          <Trackpoint>
            <Time>2020-02-15T10:01:53.000Z</Time>
            <Position>
              <LatitudeDegrees>41.96632093749940395355224609375</LatitudeDegrees>
              <LongitudeDegrees>2.8909517638385295867919921875</LongitudeDegrees>
            </Position>
            <AltitudeMeters>287.79998779296875</AltitudeMeters>
            <DistanceMeters>NAN</DistanceMeters>
          </Trackpoint>
          <Trackpoint>
            <Time>2020-02-15T10:01:54.000Z</Time>
            <Position>
              <LatitudeDegrees>41.966318674385547637939453125</LatitudeDegrees>
              <LongitudeDegrees>2.8909836150705814361572265625</LongitudeDegrees>
            </Position>
            <AltitudeMeters>288</AltitudeMeters>
            <DistanceMeters>NAN</DistanceMeters>
          </Trackpoint>
          <Trackpoint>
            <Time>2020-02-15T10:01:55.000Z</Time>
            <Position>
              <LatitudeDegrees>41.96631859056651592254638671875</LatitudeDegrees>
              <LongitudeDegrees>2.891013287007808685302734375</LongitudeDegrees>
            </Position>
            <AltitudeMeters>288.399993896484375</AltitudeMeters>
            <DistanceMeters>NAN</DistanceMeters>
          </Trackpoint>
          <Trackpoint>
            <Time>2020-02-15T10:01:56.000Z</Time>
            <Position>
              <LatitudeDegrees>41.96632311679422855377197265625</LatitudeDegrees>
              <LongitudeDegrees>2.8910483233630657196044921875</LongitudeDegrees>
            </Position>
            <AltitudeMeters>288.399993896484375</AltitudeMeters>
            <DistanceMeters>NAN</DistanceMeters>
          </Trackpoint>
          <Trackpoint>
            <Time>2020-02-15T10:01:57.000Z</Time>
            <Position>
              <LatitudeDegrees>41.96632965467870235443115234375</LatitudeDegrees>
              <LongitudeDegrees>2.891080342233180999755859375</LongitudeDegrees>
            </Position>
            <AltitudeMeters>288.79998779296875</AltitudeMeters>
            <DistanceMeters>NAN</DistanceMeters>
          </Trackpoint>
          <Trackpoint>
            <Time>2020-02-15T10:01:58.000Z</Time>
            <Position>
              <LatitudeDegrees>41.9663366116583347320556640625</LatitudeDegrees>
              <LongitudeDegrees>2.89110892452299594879150390625</LongitudeDegrees>
            </Position>
            <AltitudeMeters>288.79998779296875</AltitudeMeters>
            <DistanceMeters>NAN</DistanceMeters>
          </Trackpoint>
          <Trackpoint>
            <Time>2020-02-15T10:01:59.000Z</Time>
            <Position>
              <LatitudeDegrees>41.96634574793279170989990234375</LatitudeDegrees>
              <LongitudeDegrees>2.8911329805850982666015625</LongitudeDegrees>
            </Position>
            <AltitudeMeters>289</AltitudeMeters>
            <DistanceMeters>NAN</DistanceMeters>
          </Trackpoint>
          <Trackpoint>
            <Time>2020-02-15T10:02:00.000Z</Time>
            <Position>
              <LatitudeDegrees>41.9663570635020732879638671875</LatitudeDegrees>
              <LongitudeDegrees>2.89115418680012226104736328125</LongitudeDegrees>
            </Position>
            <AltitudeMeters>289</AltitudeMeters>
            <DistanceMeters>NAN</DistanceMeters>
          </Trackpoint>
          <Trackpoint>
            <Time>2020-02-15T10:02:01.000Z</Time>
            <Position>
              <LatitudeDegrees>41.9663687981665134429931640625</LatitudeDegrees>
              <LongitudeDegrees>2.8911732137203216552734375</LongitudeDegrees>
            </Position>
            <AltitudeMeters>289</AltitudeMeters>
            <DistanceMeters>NAN</DistanceMeters>
          </Trackpoint>
          <Trackpoint>
            <Time>2020-02-15T10:02:02.000Z</Time>
            <Position>
              <LatitudeDegrees>41.9663805328309535980224609375</LatitudeDegrees>
              <LongitudeDegrees>2.8911893069744110107421875</LongitudeDegrees>
            </Position>
            <AltitudeMeters>289.20001220703125</AltitudeMeters>
            <DistanceMeters>NAN</DistanceMeters>
          </Trackpoint>
          <Trackpoint>
            <Time>2020-02-15T10:02:03.000Z</Time>
            <Position>
              <LatitudeDegrees>41.9663922674953937530517578125</LatitudeDegrees>
              <LongitudeDegrees>2.89120732806622982025146484375</LongitudeDegrees>
            </Position>
            <AltitudeMeters>289.600006103515625</AltitudeMeters>
            <DistanceMeters>NAN</DistanceMeters>
          </Trackpoint>
          <Trackpoint>
            <Time>2020-02-15T10:02:04.000Z</Time>
            <Position>
              <LatitudeDegrees>41.9664016552269458770751953125</LatitudeDegrees>
              <LongitudeDegrees>2.89122459478676319122314453125</LongitudeDegrees>
            </Position>
            <AltitudeMeters>290</AltitudeMeters>
            <DistanceMeters>NAN</DistanceMeters>
          </Trackpoint>
          <Trackpoint>
            <Time>2020-02-15T10:02:05.000Z</Time>
            <Position>
              <LatitudeDegrees>41.96640995331108570098876953125</LatitudeDegrees>
              <LongitudeDegrees>2.8912375867366790771484375</LongitudeDegrees>
            </Position>
            <AltitudeMeters>290.20001220703125</AltitudeMeters>
            <DistanceMeters>NAN</DistanceMeters>
          </Trackpoint>
          <Trackpoint>
            <Time>2020-02-15T10:02:06.000Z</Time>
            <Position>
              <LatitudeDegrees>41.9664221070706844329833984375</LatitudeDegrees>
              <LongitudeDegrees>2.8912491537630558013916015625</LongitudeDegrees>
            </Position>
            <AltitudeMeters>290.600006103515625</AltitudeMeters>
            <DistanceMeters>NAN</DistanceMeters>
          </Trackpoint>
          <Trackpoint>
            <Time>2020-02-15T10:02:07.000Z</Time>
            <Position>
              <LatitudeDegrees>41.9664345122873783111572265625</LatitudeDegrees>
              <LongitudeDegrees>2.89126063697040081024169921875</LongitudeDegrees>
            </Position>
            <AltitudeMeters>291</AltitudeMeters>
            <DistanceMeters>NAN</DistanceMeters>
          </Trackpoint>
          <Trackpoint>
            <Time>2020-02-15T10:02:08.000Z</Time>
            <Position>
              <LatitudeDegrees>41.96644666604697704315185546875</LatitudeDegrees>
              <LongitudeDegrees>2.8912732936441898345947265625</LongitudeDegrees>
            </Position>
            <AltitudeMeters>291.20001220703125</AltitudeMeters>
            <DistanceMeters>NAN</DistanceMeters>
          </Trackpoint>
          <Trackpoint>
            <Time>2020-02-15T10:02:09.000Z</Time>
            <Position>
              <LatitudeDegrees>41.9664609991014003753662109375</LatitudeDegrees>
              <LongitudeDegrees>2.8912858664989471435546875</LongitudeDegrees>
            </Position>
            <AltitudeMeters>291.20001220703125</AltitudeMeters>
            <DistanceMeters>NAN</DistanceMeters>
          </Trackpoint>
          <Trackpoint>
            <Time>2020-02-15T10:02:10.000Z</Time>
            <Position>
              <LatitudeDegrees>41.96647449396550655364990234375</LatitudeDegrees>
              <LongitudeDegrees>2.8912987746298313140869140625</LongitudeDegrees>
            </Position>
            <AltitudeMeters>291.399993896484375</AltitudeMeters>
            <DistanceMeters>NAN</DistanceMeters>
          </Trackpoint>
          <Trackpoint>
            <Time>2020-02-15T10:02:11.000Z</Time>
            <Position>
              <LatitudeDegrees>41.96648639626801013946533203125</LatitudeDegrees>
              <LongitudeDegrees>2.891311012208461761474609375</LongitudeDegrees>
            </Position>
            <AltitudeMeters>292</AltitudeMeters>
            <DistanceMeters>NAN</DistanceMeters>
          </Trackpoint>
          <Trackpoint>
            <Time>2020-02-15T10:02:12.000Z</Time>
            <Position>
              <LatitudeDegrees>41.9664980471134185791015625</LatitudeDegrees>
              <LongitudeDegrees>2.89132266305387020111083984375</LongitudeDegrees>
            </Position>
            <AltitudeMeters>292.399993896484375</AltitudeMeters>
            <DistanceMeters>NAN</DistanceMeters>
          </Trackpoint>
          <Trackpoint>
            <Time>2020-02-15T10:02:13.000Z</Time>
            <Position>
              <LatitudeDegrees>41.96650885976850986480712890625</LatitudeDegrees>
              <LongitudeDegrees>2.891333810985088348388671875</LongitudeDegrees>
            </Position>
            <AltitudeMeters>292.79998779296875</AltitudeMeters>
            <DistanceMeters>NAN</DistanceMeters>
          </Trackpoint>
          <Trackpoint>
            <Time>2020-02-15T10:02:14.000Z</Time>
            <Position>
              <LatitudeDegrees>41.96652143262326717376708984375</LatitudeDegrees>
              <LongitudeDegrees>2.8913467191159725189208984375</LongitudeDegrees>
            </Position>
            <AltitudeMeters>293.20001220703125</AltitudeMeters>
            <DistanceMeters>NAN</DistanceMeters>
          </Trackpoint>
          <Trackpoint>
            <Time>2020-02-15T10:02:15.000Z</Time>
            <Position>
              <LatitudeDegrees>41.9665317423641681671142578125</LatitudeDegrees>
              <LongitudeDegrees>2.8913574479520320892333984375</LongitudeDegrees>
            </Position>
            <AltitudeMeters>293.600006103515625</AltitudeMeters>
            <DistanceMeters>NAN</DistanceMeters>
          </Trackpoint>
          <Trackpoint>
            <Time>2020-02-15T10:02:16.000Z</Time>
            <Position>
              <LatitudeDegrees>41.9665436446666717529296875</LatitudeDegrees>
              <LongitudeDegrees>2.89137043990194797515869140625</LongitudeDegrees>
            </Position>
            <AltitudeMeters>293.79998779296875</AltitudeMeters>
            <DistanceMeters>NAN</DistanceMeters>
          </Trackpoint>
          <Trackpoint>
            <Time>2020-02-15T10:02:17.000Z</Time>
            <Position>
              <LatitudeDegrees>41.96655764244496822357177734375</LatitudeDegrees>
              <LongitudeDegrees>2.89138234220445156097412109375</LongitudeDegrees>
            </Position>
            <AltitudeMeters>294</AltitudeMeters>
            <DistanceMeters>NAN</DistanceMeters>
          </Trackpoint>
          <Trackpoint>
            <Time>2020-02-15T10:02:18.000Z</Time>
            <Position>
              <LatitudeDegrees>41.96657340042293071746826171875</LatitudeDegrees>
              <LongitudeDegrees>2.89139374159276485443115234375</LongitudeDegrees>
            </Position>
            <AltitudeMeters>294.399993896484375</AltitudeMeters>
            <DistanceMeters>NAN</DistanceMeters>
          </Trackpoint>
          <Trackpoint>
            <Time>2020-02-15T10:02:19.000Z</Time>
            <Position>
              <LatitudeDegrees>41.96658790111541748046875</LatitudeDegrees>
              <LongitudeDegrees>2.89140589535236358642578125</LongitudeDegrees>
            </Position>
            <AltitudeMeters>294.79998779296875</AltitudeMeters>
            <DistanceMeters>NAN</DistanceMeters>
          </Trackpoint>
          <Trackpoint>
            <Time>2020-02-15T10:02:20.000Z</Time>
            <Position>
              <LatitudeDegrees>41.9666039943695068359375</LatitudeDegrees>
              <LongitudeDegrees>2.89141939021646976470947265625</LongitudeDegrees>
            </Position>
            <AltitudeMeters>295</AltitudeMeters>
            <DistanceMeters>NAN</DistanceMeters>
          </Trackpoint>
          <Trackpoint>
            <Time>2020-02-15T10:02:21.000Z</Time>
            <Position>
              <LatitudeDegrees>41.966619081795215606689453125</LatitudeDegrees>
              <LongitudeDegrees>2.891432382166385650634765625</LongitudeDegrees>
            </Position>
            <AltitudeMeters>295.20001220703125</AltitudeMeters>
            <DistanceMeters>NAN</DistanceMeters>
          </Trackpoint>
          <Trackpoint>
            <Time>2020-02-15T10:02:22.000Z</Time>
            <Position>
              <LatitudeDegrees>41.966637857258319854736328125</LatitudeDegrees>
              <LongitudeDegrees>2.89144822396337985992431640625</LongitudeDegrees>
            </Position>
            <AltitudeMeters>295.399993896484375</AltitudeMeters>
            <DistanceMeters>NAN</DistanceMeters>
          </Trackpoint>
          <Trackpoint>
            <Time>2020-02-15T10:02:23.000Z</Time>
            <Position>
              <LatitudeDegrees>41.9666557945311069488525390625</LatitudeDegrees>
              <LongitudeDegrees>2.89146381430327892303466796875</LongitudeDegrees>
            </Position>
            <AltitudeMeters>295.600006103515625</AltitudeMeters>
            <DistanceMeters>NAN</DistanceMeters>
          </Trackpoint>
          <Trackpoint>
            <Time>2020-02-15T10:02:24.000Z</Time>
            <Position>
              <LatitudeDegrees>41.966673396527767181396484375</LatitudeDegrees>
              <LongitudeDegrees>2.89147873409092426300048828125</LongitudeDegrees>
            </Position>
            <AltitudeMeters>295.79998779296875</AltitudeMeters>
            <DistanceMeters>NAN</DistanceMeters>
          </Trackpoint>
          <Trackpoint>
            <Time>2020-02-15T10:02:25.000Z</Time>
            <Position>
              <LatitudeDegrees>41.96669326163828372955322265625</LatitudeDegrees>
              <LongitudeDegrees>2.89149516262114048004150390625</LongitudeDegrees>
            </Position>
            <AltitudeMeters>296</AltitudeMeters>
            <DistanceMeters>NAN</DistanceMeters>
          </Trackpoint>
          <Trackpoint>
            <Time>2020-02-15T10:02:26.000Z</Time>
            <Position>
              <LatitudeDegrees>41.96671471931040287017822265625</LatitudeDegrees>
              <LongitudeDegrees>2.89151175878942012786865234375</LongitudeDegrees>
            </Position>
            <AltitudeMeters>296.20001220703125</AltitudeMeters>
            <DistanceMeters>NAN</DistanceMeters>
          </Trackpoint>
          <Trackpoint>
            <Time>2020-02-15T10:02:27.000Z</Time>
            <Position>
              <LatitudeDegrees>41.96673567406833171844482421875</LatitudeDegrees>
              <LongitudeDegrees>2.89152751676738262176513671875</LongitudeDegrees>
            </Position>
            <AltitudeMeters>296.399993896484375</AltitudeMeters>
            <DistanceMeters>NAN</DistanceMeters>
          </Trackpoint>
          <Trackpoint>
            <Time>2020-02-15T10:02:28.000Z</Time>
            <Position>
              <LatitudeDegrees>41.96675662882626056671142578125</LatitudeDegrees>
              <LongitudeDegrees>2.89154159836471080780029296875</LongitudeDegrees>
            </Position>
            <AltitudeMeters>296.399993896484375</AltitudeMeters>
            <DistanceMeters>NAN</DistanceMeters>
          </Trackpoint>
          <Trackpoint>
            <Time>2020-02-15T10:02:29.000Z</Time>
            <Position>
              <LatitudeDegrees>41.9667774997651576995849609375</LatitudeDegrees>
              <LongitudeDegrees>2.89155584760010242462158203125</LongitudeDegrees>
            </Position>
            <AltitudeMeters>296.399993896484375</AltitudeMeters>
            <DistanceMeters>NAN</DistanceMeters>
          </Trackpoint>
          <Trackpoint>
            <Time>2020-02-15T10:02:30.000Z</Time>
            <Position>
              <LatitudeDegrees>41.9667952693998813629150390625</LatitudeDegrees>
              <LongitudeDegrees>2.8915680013597011566162109375</LongitudeDegrees>
            </Position>
            <AltitudeMeters>296.399993896484375</AltitudeMeters>
            <DistanceMeters>NAN</DistanceMeters>
          </Trackpoint>
          <Trackpoint>
            <Time>2020-02-15T10:02:31.000Z</Time>
            <Position>
              <LatitudeDegrees>41.96681345812976360321044921875</LatitudeDegrees>
              <LongitudeDegrees>2.8915809094905853271484375</LongitudeDegrees>
            </Position>
            <AltitudeMeters>296.600006103515625</AltitudeMeters>
            <DistanceMeters>NAN</DistanceMeters>
          </Trackpoint>
          <Trackpoint>
            <Time>2020-02-15T10:02:34.000Z</Time>
            <Position>
              <LatitudeDegrees>41.9668767414987087249755859375</LatitudeDegrees>
              <LongitudeDegrees>2.891619466245174407958984375</LongitudeDegrees>
            </Position>
            <AltitudeMeters>296.79998779296875</AltitudeMeters>
            <DistanceMeters>NAN</DistanceMeters>
          </Trackpoint>
          <Trackpoint>
            <Time>2020-02-15T10:02:35.000Z</Time>
            <Position>
              <LatitudeDegrees>41.966897360980510711669921875</LatitudeDegrees>
              <LongitudeDegrees>2.89162877015769481658935546875</LongitudeDegrees>
            </Position>
            <AltitudeMeters>297.20001220703125</AltitudeMeters>
            <DistanceMeters>NAN</DistanceMeters>
          </Trackpoint>
          <Trackpoint>
            <Time>2020-02-15T10:02:37.000Z</Time>
            <Position>
              <LatitudeDegrees>41.966940946877002716064453125</LatitudeDegrees>
              <LongitudeDegrees>2.89165559224784374237060546875</LongitudeDegrees>
            </Position>
            <AltitudeMeters>297.399993896484375</AltitudeMeters>
            <DistanceMeters>NAN</DistanceMeters>
          </Trackpoint>
          <Trackpoint>
            <Time>2020-02-15T10:02:38.000Z</Time>
            <Position>
              <LatitudeDegrees>41.96696181781589984893798828125</LatitudeDegrees>
              <LongitudeDegrees>2.8916705958545207977294921875</LongitudeDegrees>
            </Position>
            <AltitudeMeters>297.399993896484375</AltitudeMeters>
            <DistanceMeters>NAN</DistanceMeters>
          </Trackpoint>
          <Trackpoint>
            <Time>2020-02-15T10:02:39.000Z</Time>
            <Position>
              <LatitudeDegrees>41.96698344312608242034912109375</LatitudeDegrees>
              <LongitudeDegrees>2.891684509813785552978515625</LongitudeDegrees>
            </Position>
            <AltitudeMeters>297.399993896484375</AltitudeMeters>
            <DistanceMeters>NAN</DistanceMeters>
          </Trackpoint>
          <Trackpoint>
            <Time>2020-02-15T10:02:40.000Z</Time>
            <Position>
              <LatitudeDegrees>41.96700657717883586883544921875</LatitudeDegrees>
              <LongitudeDegrees>2.8916989266872406005859375</LongitudeDegrees>
            </Position>
            <AltitudeMeters>297.600006103515625</AltitudeMeters>
            <DistanceMeters>NAN</DistanceMeters>
          </Trackpoint>
          <Trackpoint>
            <Time>2020-02-15T10:02:41.000Z</Time>
            <Position>
              <LatitudeDegrees>41.96703356690704822540283203125</LatitudeDegrees>
              <LongitudeDegrees>2.891715355217456817626953125</LongitudeDegrees>
            </Position>
            <AltitudeMeters>297.600006103515625</AltitudeMeters>
            <DistanceMeters>NAN</DistanceMeters>
          </Trackpoint>
          <Trackpoint>
            <Time>2020-02-15T10:02:43.000Z</Time>
            <Position>
              <LatitudeDegrees>41.967081092298030853271484375</LatitudeDegrees>
              <LongitudeDegrees>2.891750223934650421142578125</LongitudeDegrees>
            </Position>
            <AltitudeMeters>298</AltitudeMeters>
            <DistanceMeters>NAN</DistanceMeters>
          </Trackpoint>
          <Trackpoint>
            <Time>2020-02-15T10:02:44.000Z</Time>
            <Position>
              <LatitudeDegrees>41.96710221469402313232421875</LatitudeDegrees>
              <LongitudeDegrees>2.89176656864583492279052734375</LongitudeDegrees>
            </Position>
            <AltitudeMeters>298</AltitudeMeters>
            <DistanceMeters>NAN</DistanceMeters>
          </Trackpoint>
          <Trackpoint>
            <Time>2020-02-15T10:02:45.000Z</Time>
            <Position>
              <LatitudeDegrees>41.96712560020387172698974609375</LatitudeDegrees>
              <LongitudeDegrees>2.8917809017002582550048828125</LongitudeDegrees>
            </Position>
            <AltitudeMeters>298</AltitudeMeters>
            <DistanceMeters>NAN</DistanceMeters>
          </Trackpoint>
          <Trackpoint>
            <Time>2020-02-15T10:02:46.000Z</Time>
            <Position>
              <LatitudeDegrees>41.96714856661856174468994140625</LatitudeDegrees>
              <LongitudeDegrees>2.89179456420242786407470703125</LongitudeDegrees>
            </Position>
            <AltitudeMeters>298.20001220703125</AltitudeMeters>
            <DistanceMeters>NAN</DistanceMeters>
          </Trackpoint>
          <Trackpoint>
            <Time>2020-02-15T10:02:47.000Z</Time>
            <Position>
              <LatitudeDegrees>41.96717002429068088531494140625</LatitudeDegrees>
              <LongitudeDegrees>2.89180797524750232696533203125</LongitudeDegrees>
            </Position>
            <AltitudeMeters>298.20001220703125</AltitudeMeters>
            <DistanceMeters>NAN</DistanceMeters>
          </Trackpoint>
          <Trackpoint>
            <Time>2020-02-15T10:02:48.000Z</Time>
            <Position>
              <LatitudeDegrees>41.9671915657818317413330078125</LatitudeDegrees>
              <LongitudeDegrees>2.89182440377771854400634765625</LongitudeDegrees>
            </Position>
            <AltitudeMeters>298.399993896484375</AltitudeMeters>
            <DistanceMeters>NAN</DistanceMeters>
          </Trackpoint>
          <Trackpoint>
            <Time>2020-02-15T10:02:49.000Z</Time>
            <Position>
              <LatitudeDegrees>41.96721176616847515106201171875</LatitudeDegrees>
              <LongitudeDegrees>2.8918402455747127532958984375</LongitudeDegrees>
            </Position>
            <AltitudeMeters>298.399993896484375</AltitudeMeters>
            <DistanceMeters>NAN</DistanceMeters>
          </Trackpoint>
          <Trackpoint>
            <Time>2020-02-15T10:02:50.000Z</Time>
            <Position>
              <LatitudeDegrees>41.96723305620253086090087890625</LatitudeDegrees>
              <LongitudeDegrees>2.8918543271720409393310546875</LongitudeDegrees>
            </Position>
            <AltitudeMeters>298.600006103515625</AltitudeMeters>
            <DistanceMeters>NAN</DistanceMeters>
          </Trackpoint>
          <Trackpoint>
            <Time>2020-02-15T10:02:51.000Z</Time>
            <Position>
              <LatitudeDegrees>41.96725644171237945556640625</LatitudeDegrees>
              <LongitudeDegrees>2.8918667323887348175048828125</LongitudeDegrees>
            </Position>
            <AltitudeMeters>298.600006103515625</AltitudeMeters>
            <DistanceMeters>NAN</DistanceMeters>
          </Trackpoint>
          <Trackpoint>
            <Time>2020-02-15T10:02:52.000Z</Time>
            <Position>
              <LatitudeDegrees>41.9672804139554500579833984375</LatitudeDegrees>
              <LongitudeDegrees>2.89187771268188953399658203125</LongitudeDegrees>
            </Position>
            <AltitudeMeters>298.600006103515625</AltitudeMeters>
            <DistanceMeters>NAN</DistanceMeters>
          </Trackpoint>
          <Trackpoint>
            <Time>2020-02-15T10:02:53.000Z</Time>
            <Position>
              <LatitudeDegrees>41.96730195544660091400146484375</LatitudeDegrees>
              <LongitudeDegrees>2.89189229719340801239013671875</LongitudeDegrees>
            </Position>
            <AltitudeMeters>298.600006103515625</AltitudeMeters>
            <DistanceMeters>NAN</DistanceMeters>
          </Trackpoint>
          <Trackpoint>
            <Time>2020-02-15T10:02:54.000Z</Time>
            <Position>
              <LatitudeDegrees>41.9673216529190540313720703125</LatitudeDegrees>
              <LongitudeDegrees>2.89190470241010189056396484375</LongitudeDegrees>
            </Position>
            <AltitudeMeters>298.600006103515625</AltitudeMeters>
            <DistanceMeters>NAN</DistanceMeters>
          </Trackpoint>
          <Trackpoint>
            <Time>2020-02-15T10:02:55.000Z</Time>
            <Position>
              <LatitudeDegrees>41.9673454575240612030029296875</LatitudeDegrees>
              <LongitudeDegrees>2.89191744290292263031005859375</LongitudeDegrees>
            </Position>
            <AltitudeMeters>298.79998779296875</AltitudeMeters>
            <DistanceMeters>NAN</DistanceMeters>
          </Trackpoint>
          <Trackpoint>
            <Time>2020-02-15T10:02:56.000Z</Time>
            <Position>
              <LatitudeDegrees>41.96736984886229038238525390625</LatitudeDegrees>
              <LongitudeDegrees>2.8919327817857265472412109375</LongitudeDegrees>
            </Position>
            <AltitudeMeters>298.600006103515625</AltitudeMeters>
            <DistanceMeters>NAN</DistanceMeters>
          </Trackpoint>
          <Trackpoint>
            <Time>2020-02-15T10:02:57.000Z</Time>
            <Position>
              <LatitudeDegrees>41.96739482693374156951904296875</LatitudeDegrees>
              <LongitudeDegrees>2.8919471986591815948486328125</LongitudeDegrees>
            </Position>
            <AltitudeMeters>299</AltitudeMeters>
            <DistanceMeters>NAN</DistanceMeters>
          </Trackpoint>
          <Trackpoint>
            <Time>2020-02-15T10:02:58.000Z</Time>
            <Position>
              <LatitudeDegrees>41.9674151949584484100341796875</LatitudeDegrees>
              <LongitudeDegrees>2.891958095133304595947265625</LongitudeDegrees>
            </Position>
            <AltitudeMeters>299.20001220703125</AltitudeMeters>
            <DistanceMeters>NAN</DistanceMeters>
          </Trackpoint>
          <Trackpoint>
            <Time>2020-02-15T10:02:59.000Z</Time>
            <Position>
              <LatitudeDegrees>41.96743606589734554290771484375</LatitudeDegrees>
              <LongitudeDegrees>2.89196974597871303558349609375</LongitudeDegrees>
            </Position>
            <AltitudeMeters>299.399993896484375</AltitudeMeters>
            <DistanceMeters>NAN</DistanceMeters>
          </Trackpoint>
          <Trackpoint>
            <Time>2020-02-15T10:03:00.000Z</Time>
            <Position>
              <LatitudeDegrees>41.96745601482689380645751953125</LatitudeDegrees>
              <LongitudeDegrees>2.891980893909931182861328125</LongitudeDegrees>
            </Position>
            <AltitudeMeters>299.399993896484375</AltitudeMeters>
            <DistanceMeters>NAN</DistanceMeters>
          </Trackpoint>
          <Trackpoint>
            <Time>2020-02-15T10:03:01.000Z</Time>
            <Position>
              <LatitudeDegrees>41.96747512556612491607666015625</LatitudeDegrees>
              <LongitudeDegrees>2.89199053309857845306396484375</LongitudeDegrees>
            </Position>
            <AltitudeMeters>299.79998779296875</AltitudeMeters>
            <DistanceMeters>NAN</DistanceMeters>
          </Trackpoint>
          <Trackpoint>
            <Time>2020-02-15T10:03:02.000Z</Time>
            <Position>
              <LatitudeDegrees>41.96749121882021427154541015625</LatitudeDegrees>
              <LongitudeDegrees>2.89199992083013057708740234375</LongitudeDegrees>
            </Position>
            <AltitudeMeters>299.79998779296875</AltitudeMeters>
            <DistanceMeters>NAN</DistanceMeters>
          </Trackpoint>
          <Trackpoint>
            <Time>2020-02-15T10:03:03.000Z</Time>
            <Position>
              <LatitudeDegrees>41.9675050489604473114013671875</LatitudeDegrees>
              <LongitudeDegrees>2.8920075483620166778564453125</LongitudeDegrees>
            </Position>
            <AltitudeMeters>300.20001220703125</AltitudeMeters>
            <DistanceMeters>NAN</DistanceMeters>
          </Trackpoint>
          <Trackpoint>
            <Time>2020-02-15T10:03:04.000Z</Time>
            <Position>
              <LatitudeDegrees>41.9675198011100292205810546875</LatitudeDegrees>
              <LongitudeDegrees>2.89201333187520503997802734375</LongitudeDegrees>
            </Position>
            <AltitudeMeters>300.600006103515625</AltitudeMeters>
            <DistanceMeters>NAN</DistanceMeters>
          </Trackpoint>
          <Trackpoint>
            <Time>2020-02-15T10:03:05.000Z</Time>
            <Position>
              <LatitudeDegrees>41.9675352238118648529052734375</LatitudeDegrees>
              <LongitudeDegrees>2.89201584644615650177001953125</LongitudeDegrees>
            </Position>
            <AltitudeMeters>300.600006103515625</AltitudeMeters>
            <DistanceMeters>NAN</DistanceMeters>
          </Trackpoint>
          <Trackpoint>
            <Time>2020-02-15T10:03:06.000Z</Time>
            <Position>
              <LatitudeDegrees>41.96754938922822475433349609375</LatitudeDegrees>
              <LongitudeDegrees>2.89201735518872737884521484375</LongitudeDegrees>
            </Position>
            <AltitudeMeters>300.600006103515625</AltitudeMeters>
            <DistanceMeters>NAN</DistanceMeters>
          </Trackpoint>
          <Trackpoint>
            <Time>2020-02-15T10:03:07.000Z</Time>
            <Position>
              <LatitudeDegrees>41.96756514720618724822998046875</LatitudeDegrees>
              <LongitudeDegrees>2.89201701991260051727294921875</LongitudeDegrees>
            </Position>
            <AltitudeMeters>300.600006103515625</AltitudeMeters>
            <DistanceMeters>NAN</DistanceMeters>
          </Trackpoint>
          <Trackpoint>
            <Time>2020-02-15T10:03:08.000Z</Time>
            <Position>
              <LatitudeDegrees>41.967577636241912841796875</LatitudeDegrees>
              <LongitudeDegrees>2.89201676845550537109375</LongitudeDegrees>
            </Position>
            <AltitudeMeters>300.600006103515625</AltitudeMeters>
            <DistanceMeters>NAN</DistanceMeters>
          </Trackpoint>
          <Trackpoint>
            <Time>2020-02-15T10:03:09.000Z</Time>
            <Position>
              <LatitudeDegrees>41.96759012527763843536376953125</LatitudeDegrees>
              <LongitudeDegrees>2.8920189477503299713134765625</LongitudeDegrees>
            </Position>
            <AltitudeMeters>300.79998779296875</AltitudeMeters>
            <DistanceMeters>NAN</DistanceMeters>
          </Trackpoint>
          <Trackpoint>
            <Time>2020-02-15T10:03:10.000Z</Time>
            <Position>
              <LatitudeDegrees>41.96760135702788829803466796875</LatitudeDegrees>
              <LongitudeDegrees>2.89201836101710796356201171875</LongitudeDegrees>
            </Position>
            <AltitudeMeters>300.600006103515625</AltitudeMeters>
            <DistanceMeters>NAN</DistanceMeters>
          </Trackpoint>
          <Trackpoint>
            <Time>2020-02-15T10:03:11.000Z</Time>
            <Position>
              <LatitudeDegrees>41.96761325933039188385009765625</LatitudeDegrees>
              <LongitudeDegrees>2.8920216299593448638916015625</LongitudeDegrees>
            </Position>
            <AltitudeMeters>300.79998779296875</AltitudeMeters>
            <DistanceMeters>NAN</DistanceMeters>
          </Trackpoint>
          <Trackpoint>
            <Time>2020-02-15T10:03:12.000Z</Time>
            <Position>
              <LatitudeDegrees>41.96762935258448123931884765625</LatitudeDegrees>
              <LongitudeDegrees>2.892028503119945526123046875</LongitudeDegrees>
            </Position>
            <AltitudeMeters>300.600006103515625</AltitudeMeters>
            <DistanceMeters>NAN</DistanceMeters>
          </Trackpoint>
          <Trackpoint>
            <Time>2020-02-15T10:03:14.000Z</Time>
            <Position>
              <LatitudeDegrees>41.9676594436168670654296875</LatitudeDegrees>
              <LongitudeDegrees>2.8920481167733669281005859375</LongitudeDegrees>
            </Position>
            <AltitudeMeters>300.79998779296875</AltitudeMeters>
            <DistanceMeters>NAN</DistanceMeters>
          </Trackpoint>
          <Trackpoint>
            <Time>2020-02-15T10:03:17.000Z</Time>
            <Position>
              <LatitudeDegrees>41.96769900619983673095703125</LatitudeDegrees>
              <LongitudeDegrees>2.8920725919306278228759765625</LongitudeDegrees>
            </Position>
            <AltitudeMeters>300.600006103515625</AltitudeMeters>
            <DistanceMeters>NAN</DistanceMeters>
          </Trackpoint>
          <Trackpoint>
            <Time>2020-02-15T10:03:18.000Z</Time>
            <Position>
              <LatitudeDegrees>41.96770998649299144744873046875</LatitudeDegrees>
              <LongitudeDegrees>2.89208038710057735443115234375</LongitudeDegrees>
            </Position>
            <AltitudeMeters>300.79998779296875</AltitudeMeters>
            <DistanceMeters>NAN</DistanceMeters>
          </Trackpoint>
          <Trackpoint>
            <Time>2020-02-15T10:03:19.000Z</Time>
            <Position>
              <LatitudeDegrees>41.96772188879549503326416015625</LatitudeDegrees>
              <LongitudeDegrees>2.89208994247019290924072265625</LongitudeDegrees>
            </Position>
            <AltitudeMeters>300.600006103515625</AltitudeMeters>
            <DistanceMeters>NAN</DistanceMeters>
          </Trackpoint>
          <Trackpoint>
            <Time>2020-02-15T10:03:20.000Z</Time>
            <Position>
              <LatitudeDegrees>41.9677377305924892425537109375</LatitudeDegrees>
              <LongitudeDegrees>2.8921031020581722259521484375</LongitudeDegrees>
            </Position>
            <AltitudeMeters>300.79998779296875</AltitudeMeters>
            <DistanceMeters>NAN</DistanceMeters>
          </Trackpoint>
          <Trackpoint>
            <Time>2020-02-15T10:03:22.000Z</Time>
            <Position>
              <LatitudeDegrees>41.96776606142520904541015625</LatitudeDegrees>
              <LongitudeDegrees>2.8921292535960674285888671875</LongitudeDegrees>
            </Position>
            <AltitudeMeters>300.600006103515625</AltitudeMeters>
            <DistanceMeters>NAN</DistanceMeters>
          </Trackpoint>
          <Trackpoint>
            <Time>2020-02-15T10:03:24.000Z</Time>
            <Position>
              <LatitudeDegrees>41.9677923806011676788330078125</LatitudeDegrees>
              <LongitudeDegrees>2.892152555286884307861328125</LongitudeDegrees>
            </Position>
            <AltitudeMeters>300.600006103515625</AltitudeMeters>
            <DistanceMeters>NAN</DistanceMeters>
          </Trackpoint>
          <Trackpoint>
            <Time>2020-02-15T10:03:26.000Z</Time>
            <Position>
              <LatitudeDegrees>41.96782180108129978179931640625</LatitudeDegrees>
              <LongitudeDegrees>2.89217812009155750274658203125</LongitudeDegrees>
            </Position>
            <AltitudeMeters>300.600006103515625</AltitudeMeters>
            <DistanceMeters>NAN</DistanceMeters>
          </Trackpoint>
          <Trackpoint>
            <Time>2020-02-15T10:03:27.000Z</Time>
            <Position>
              <LatitudeDegrees>41.967838816344738006591796875</LatitudeDegrees>
              <LongitudeDegrees>2.8921946324408054351806640625</LongitudeDegrees>
            </Position>
            <AltitudeMeters>301</AltitudeMeters>
            <DistanceMeters>NAN</DistanceMeters>
          </Trackpoint>
          <Trackpoint>
            <Time>2020-02-15T10:03:28.000Z</Time>
            <Position>
              <LatitudeDegrees>41.9678579270839691162109375</LatitudeDegrees>
              <LongitudeDegrees>2.89221265353262424468994140625</LongitudeDegrees>
            </Position>
            <AltitudeMeters>300.79998779296875</AltitudeMeters>
            <DistanceMeters>NAN</DistanceMeters>
          </Trackpoint>
          <Trackpoint>
            <Time>2020-02-15T10:03:29.000Z</Time>
            <Position>
              <LatitudeDegrees>41.96787594817578792572021484375</LatitudeDegrees>
              <LongitudeDegrees>2.89222958497703075408935546875</LongitudeDegrees>
            </Position>
            <AltitudeMeters>301</AltitudeMeters>
            <DistanceMeters>NAN</DistanceMeters>
          </Trackpoint>
          <Trackpoint>
            <Time>2020-02-15T10:03:30.000Z</Time>
            <Position>
              <LatitudeDegrees>41.96789346635341644287109375</LatitudeDegrees>
              <LongitudeDegrees>2.89224500767886638641357421875</LongitudeDegrees>
            </Position>
            <AltitudeMeters>301</AltitudeMeters>
            <DistanceMeters>NAN</DistanceMeters>
          </Trackpoint>
          <Trackpoint>
            <Time>2020-02-15T10:03:31.000Z</Time>
            <Position>
              <LatitudeDegrees>41.967910230159759521484375</LatitudeDegrees>
              <LongitudeDegrees>2.89226076565682888031005859375</LongitudeDegrees>
            </Position>
            <AltitudeMeters>301.20001220703125</AltitudeMeters>
            <DistanceMeters>NAN</DistanceMeters>
          </Trackpoint>
          <Trackpoint>
            <Time>2020-02-15T10:03:32.000Z</Time>
            <Position>
              <LatitudeDegrees>41.96792565286159515380859375</LatitudeDegrees>
              <LongitudeDegrees>2.89227702654898166656494140625</LongitudeDegrees>
            </Position>
            <AltitudeMeters>301.20001220703125</AltitudeMeters>
            <DistanceMeters>NAN</DistanceMeters>
          </Trackpoint>
          <Trackpoint>
            <Time>2020-02-15T10:03:33.000Z</Time>
            <Position>
              <LatitudeDegrees>41.96794082410633563995361328125</LatitudeDegrees>
              <LongitudeDegrees>2.89229328744113445281982421875</LongitudeDegrees>
            </Position>
            <AltitudeMeters>301.20001220703125</AltitudeMeters>
            <DistanceMeters>NAN</DistanceMeters>
          </Trackpoint>
          <Trackpoint>
            <Time>2020-02-15T10:03:34.000Z</Time>
            <Position>
              <LatitudeDegrees>41.9679543189704418182373046875</LatitudeDegrees>
              <LongitudeDegrees>2.8923079557716846466064453125</LongitudeDegrees>
            </Position>
            <AltitudeMeters>301.20001220703125</AltitudeMeters>
            <DistanceMeters>NAN</DistanceMeters>
          </Trackpoint>
          <Trackpoint>
            <Time>2020-02-15T10:03:35.000Z</Time>
            <Position>
              <LatitudeDegrees>41.9679744355380535125732421875</LatitudeDegrees>
              <LongitudeDegrees>2.89232790470123291015625</LongitudeDegrees>
            </Position>
            <AltitudeMeters>301.399993896484375</AltitudeMeters>
            <DistanceMeters>NAN</DistanceMeters>
          </Trackpoint>
          <Trackpoint>
            <Time>2020-02-15T10:03:36.000Z</Time>
            <Position>
              <LatitudeDegrees>41.967993043363094329833984375</LatitudeDegrees>
              <LongitudeDegrees>2.89234332740306854248046875</LongitudeDegrees>
            </Position>
            <AltitudeMeters>301.600006103515625</AltitudeMeters>
            <DistanceMeters>NAN</DistanceMeters>
          </Trackpoint>
          <Trackpoint>
            <Time>2020-02-15T10:03:37.000Z</Time>
            <Position>
              <LatitudeDegrees>41.96801156736910343170166015625</LatitudeDegrees>
              <LongitudeDegrees>2.89235766045749187469482421875</LongitudeDegrees>
            </Position>
            <AltitudeMeters>301.79998779296875</AltitudeMeters>
            <DistanceMeters>NAN</DistanceMeters>
          </Trackpoint>
          <Trackpoint>
            <Time>2020-02-15T10:03:38.000Z</Time>
            <Position>
              <LatitudeDegrees>41.96802950464189052581787109375</LatitudeDegrees>
              <LongitudeDegrees>2.8923709876835346221923828125</LongitudeDegrees>
            </Position>
            <AltitudeMeters>302</AltitudeMeters>
            <DistanceMeters>NAN</DistanceMeters>
          </Trackpoint>
          <Trackpoint>
            <Time>2020-02-15T10:03:39.000Z</Time>
            <Position>
              <LatitudeDegrees>41.96804693900048732757568359375</LatitudeDegrees>
              <LongitudeDegrees>2.892385236918926239013671875</LongitudeDegrees>
            </Position>
            <AltitudeMeters>302</AltitudeMeters>
            <DistanceMeters>NAN</DistanceMeters>
          </Trackpoint>
          <Trackpoint>
            <Time>2020-02-15T10:03:40.000Z</Time>
            <Position>
              <LatitudeDegrees>41.968063451349735260009765625</LatitudeDegrees>
              <LongitudeDegrees>2.892399318516254425048828125</LongitudeDegrees>
            </Position>
            <AltitudeMeters>302.399993896484375</AltitudeMeters>
            <DistanceMeters>NAN</DistanceMeters>
          </Trackpoint>
          <Trackpoint>
            <Time>2020-02-15T10:03:41.000Z</Time>
            <Position>
              <LatitudeDegrees>41.9680830650031566619873046875</LatitudeDegrees>
              <LongitudeDegrees>2.89241516031324863433837890625</LongitudeDegrees>
            </Position>
            <AltitudeMeters>302.399993896484375</AltitudeMeters>
            <DistanceMeters>NAN</DistanceMeters>
          </Trackpoint>
          <Trackpoint>
            <Time>2020-02-15T10:03:42.000Z</Time>
            <Position>
              <LatitudeDegrees>41.96810259483754634857177734375</LatitudeDegrees>
              <LongitudeDegrees>2.8924284875392913818359375</LongitudeDegrees>
            </Position>
            <AltitudeMeters>302.600006103515625</AltitudeMeters>
            <DistanceMeters>NAN</DistanceMeters>
          </Trackpoint>
          <Trackpoint>
            <Time>2020-02-15T10:03:43.000Z</Time>
            <Position>
              <LatitudeDegrees>41.9681236334145069122314453125</LatitudeDegrees>
              <LongitudeDegrees>2.89244215004146099090576171875</LongitudeDegrees>
            </Position>
            <AltitudeMeters>302.600006103515625</AltitudeMeters>
            <DistanceMeters>NAN</DistanceMeters>
          </Trackpoint>
          <Trackpoint>
            <Time>2020-02-15T10:03:44.000Z</Time>
            <Position>
              <LatitudeDegrees>41.96814416907727718353271484375</LatitudeDegrees>
              <LongitudeDegrees>2.89245388470590114593505859375</LongitudeDegrees>
            </Position>
            <AltitudeMeters>303</AltitudeMeters>
            <DistanceMeters>NAN</DistanceMeters>
          </Trackpoint>
          <Trackpoint>
            <Time>2020-02-15T10:03:45.000Z</Time>
            <Position>
              <LatitudeDegrees>41.9681601785123348236083984375</LatitudeDegrees>
              <LongitudeDegrees>2.89246293716132640838623046875</LongitudeDegrees>
            </Position>
            <AltitudeMeters>303.399993896484375</AltitudeMeters>
            <DistanceMeters>NAN</DistanceMeters>
          </Trackpoint>
          <Trackpoint>
            <Time>2020-02-15T10:03:46.000Z</Time>
            <Position>
              <LatitudeDegrees>41.96818205527961254119873046875</LatitudeDegrees>
              <LongitudeDegrees>2.89247517473995685577392578125</LongitudeDegrees>
            </Position>
            <AltitudeMeters>303.600006103515625</AltitudeMeters>
            <DistanceMeters>NAN</DistanceMeters>
          </Trackpoint>
          <Trackpoint>
            <Time>2020-02-15T10:03:47.000Z</Time>
            <Position>
              <LatitudeDegrees>41.96820301003754138946533203125</LatitudeDegrees>
              <LongitudeDegrees>2.89248657412827014923095703125</LongitudeDegrees>
            </Position>
            <AltitudeMeters>303.399993896484375</AltitudeMeters>
            <DistanceMeters>NAN</DistanceMeters>
          </Trackpoint>
          <Trackpoint>
            <Time>2020-02-15T10:03:48.000Z</Time>
            <Position>
              <LatitudeDegrees>41.96822312660515308380126953125</LatitudeDegrees>
              <LongitudeDegrees>2.89249646477401256561279296875</LongitudeDegrees>
            </Position>
            <AltitudeMeters>303.79998779296875</AltitudeMeters>
            <DistanceMeters>NAN</DistanceMeters>
          </Trackpoint>
          <Trackpoint>
            <Time>2020-02-15T10:03:49.000Z</Time>
            <Position>
              <LatitudeDegrees>41.968242488801479339599609375</LatitudeDegrees>
              <LongitudeDegrees>2.8925044275820255279541015625</LongitudeDegrees>
            </Position>
            <AltitudeMeters>304</AltitudeMeters>
            <DistanceMeters>NAN</DistanceMeters>
          </Trackpoint>
          <Trackpoint>
            <Time>2020-02-15T10:03:50.000Z</Time>
            <Position>
              <LatitudeDegrees>41.96826302446424961090087890625</LatitudeDegrees>
              <LongitudeDegrees>2.89251037873327732086181640625</LongitudeDegrees>
            </Position>
            <AltitudeMeters>304.20001220703125</AltitudeMeters>
            <DistanceMeters>NAN</DistanceMeters>
          </Trackpoint>
          <Trackpoint>
            <Time>2020-02-15T10:03:51.000Z</Time>
            <Position>
              <LatitudeDegrees>41.96828230284154415130615234375</LatitudeDegrees>
              <LongitudeDegrees>2.8925175033509731292724609375</LongitudeDegrees>
            </Position>
            <AltitudeMeters>304.20001220703125</AltitudeMeters>
            <DistanceMeters>NAN</DistanceMeters>
          </Trackpoint>
          <Trackpoint>
            <Time>2020-02-15T10:03:52.000Z</Time>
            <Position>
              <LatitudeDegrees>41.96830342523753643035888671875</LatitudeDegrees>
              <LongitudeDegrees>2.89252311922609806060791015625</LongitudeDegrees>
            </Position>
            <AltitudeMeters>304.600006103515625</AltitudeMeters>
            <DistanceMeters>NAN</DistanceMeters>
          </Trackpoint>
          <Trackpoint>
            <Time>2020-02-15T10:03:53.000Z</Time>
            <Position>
              <LatitudeDegrees>41.96832303889095783233642578125</LatitudeDegrees>
              <LongitudeDegrees>2.89252781309187412261962890625</LongitudeDegrees>
            </Position>
            <AltitudeMeters>304.79998779296875</AltitudeMeters>
            <DistanceMeters>NAN</DistanceMeters>
          </Trackpoint>
          <Trackpoint>
            <Time>2020-02-15T10:03:54.000Z</Time>
            <Position>
              <LatitudeDegrees>41.968339048326015472412109375</LatitudeDegrees>
              <LongitudeDegrees>2.8925285674631595611572265625</LongitudeDegrees>
            </Position>
            <AltitudeMeters>304.79998779296875</AltitudeMeters>
            <DistanceMeters>NAN</DistanceMeters>
          </Trackpoint>
          <Trackpoint>
            <Time>2020-02-15T10:03:55.000Z</Time>
            <Position>
              <LatitudeDegrees>41.96835748851299285888671875</LatitudeDegrees>
              <LongitudeDegrees>2.8925292380154132843017578125</LongitudeDegrees>
            </Position>
            <AltitudeMeters>304.79998779296875</AltitudeMeters>
            <DistanceMeters>NAN</DistanceMeters>
          </Trackpoint>
          <Trackpoint>
            <Time>2020-02-15T10:03:56.000Z</Time>
            <Position>
              <LatitudeDegrees>41.96837634779512882232666015625</LatitudeDegrees>
              <LongitudeDegrees>2.89252965711057186126708984375</LongitudeDegrees>
            </Position>
            <AltitudeMeters>305.20001220703125</AltitudeMeters>
            <DistanceMeters>NAN</DistanceMeters>
          </Trackpoint>
          <Trackpoint>
            <Time>2020-02-15T10:03:57.000Z</Time>
            <Position>
              <LatitudeDegrees>41.96839747019112110137939453125</LatitudeDegrees>
              <LongitudeDegrees>2.892533428966999053955078125</LongitudeDegrees>
            </Position>
            <AltitudeMeters>305.399993896484375</AltitudeMeters>
            <DistanceMeters>NAN</DistanceMeters>
          </Trackpoint>
          <Trackpoint>
            <Time>2020-02-15T10:03:58.000Z</Time>
            <Position>
              <LatitudeDegrees>41.96841691620647907257080078125</LatitudeDegrees>
              <LongitudeDegrees>2.89253242313861846923828125</LongitudeDegrees>
            </Position>
            <AltitudeMeters>305.399993896484375</AltitudeMeters>
            <DistanceMeters>NAN</DistanceMeters>
          </Trackpoint>
          <Trackpoint>
            <Time>2020-02-15T10:03:59.000Z</Time>
            <Position>
              <LatitudeDegrees>41.96843518875539302825927734375</LatitudeDegrees>
              <LongitudeDegrees>2.8925325907766819000244140625</LongitudeDegrees>
            </Position>
            <AltitudeMeters>305.79998779296875</AltitudeMeters>
            <DistanceMeters>NAN</DistanceMeters>
          </Trackpoint>
          <Trackpoint>
            <Time>2020-02-15T10:04:00.000Z</Time>
            <Position>
              <LatitudeDegrees>41.9684532098472118377685546875</LatitudeDegrees>
              <LongitudeDegrees>2.89253401570022106170654296875</LongitudeDegrees>
            </Position>
            <AltitudeMeters>305.79998779296875</AltitudeMeters>
            <DistanceMeters>NAN</DistanceMeters>
          </Trackpoint>
          <Trackpoint>
            <Time>2020-02-15T10:04:01.000Z</Time>
            <Position>
              <LatitudeDegrees>41.968471817672252655029296875</LatitudeDegrees>
              <LongitudeDegrees>2.89253585971891880035400390625</LongitudeDegrees>
            </Position>
            <AltitudeMeters>306</AltitudeMeters>
            <DistanceMeters>NAN</DistanceMeters>
          </Trackpoint>
          <Trackpoint>
            <Time>2020-02-15T10:04:02.000Z</Time>
            <Position>
              <LatitudeDegrees>41.96849335916340351104736328125</LatitudeDegrees>
              <LongitudeDegrees>2.89253921248018741607666015625</LongitudeDegrees>
            </Position>
            <AltitudeMeters>306.20001220703125</AltitudeMeters>
            <DistanceMeters>NAN</DistanceMeters>
          </Trackpoint>
          <Trackpoint>
            <Time>2020-02-15T10:04:03.000Z</Time>
            <Position>
              <LatitudeDegrees>41.96851565502583980560302734375</LatitudeDegrees>
              <LongitudeDegrees>2.89254046976566314697265625</LongitudeDegrees>
            </Position>
            <AltitudeMeters>306.399993896484375</AltitudeMeters>
            <DistanceMeters>NAN</DistanceMeters>
          </Trackpoint>
          <Trackpoint>
            <Time>2020-02-15T10:04:04.000Z</Time>
            <Position>
              <LatitudeDegrees>41.9685376994311809539794921875</LatitudeDegrees>
              <LongitudeDegrees>2.89254373870790004730224609375</LongitudeDegrees>
            </Position>
            <AltitudeMeters>306.600006103515625</AltitudeMeters>
            <DistanceMeters>NAN</DistanceMeters>
          </Trackpoint>
          <Trackpoint>
            <Time>2020-02-15T10:04:05.000Z</Time>
            <Position>
              <LatitudeDegrees>41.9685571454465389251708984375</LatitudeDegrees>
              <LongitudeDegrees>2.8925478458404541015625</LongitudeDegrees>
            </Position>
            <AltitudeMeters>306.600006103515625</AltitudeMeters>
            <DistanceMeters>NAN</DistanceMeters>
          </Trackpoint>
          <Trackpoint>
            <Time>2020-02-15T10:04:06.000Z</Time>
            <Position>
              <LatitudeDegrees>41.96857214905321598052978515625</LatitudeDegrees>
              <LongitudeDegrees>2.89255178533494472503662109375</LongitudeDegrees>
            </Position>
            <AltitudeMeters>306.79998779296875</AltitudeMeters>
            <DistanceMeters>NAN</DistanceMeters>
          </Trackpoint>
          <Trackpoint>
            <Time>2020-02-15T10:04:07.000Z</Time>
            <Position>
              <LatitudeDegrees>41.9685906730592250823974609375</LatitudeDegrees>
              <LongitudeDegrees>2.89255916140973567962646484375</LongitudeDegrees>
            </Position>
            <AltitudeMeters>307</AltitudeMeters>
            <DistanceMeters>NAN</DistanceMeters>
          </Trackpoint>
          <Trackpoint>
            <Time>2020-02-15T10:04:08.000Z</Time>
            <Position>
              <LatitudeDegrees>41.9686107896268367767333984375</LatitudeDegrees>
              <LongitudeDegrees>2.89256620220839977264404296875</LongitudeDegrees>
            </Position>
            <AltitudeMeters>307.20001220703125</AltitudeMeters>
            <DistanceMeters>NAN</DistanceMeters>
          </Trackpoint>
          <Trackpoint>
            <Time>2020-02-15T10:04:09.000Z</Time>
            <Position>
              <LatitudeDegrees>41.968631744384765625</LatitudeDegrees>
              <LongitudeDegrees>2.8925734944641590118408203125</LongitudeDegrees>
            </Position>
            <AltitudeMeters>307.600006103515625</AltitudeMeters>
            <DistanceMeters>NAN</DistanceMeters>
          </Trackpoint>
          <Trackpoint>
            <Time>2020-02-15T10:04:10.000Z</Time>
            <Position>
              <LatitudeDegrees>41.96864993311464786529541015625</LatitudeDegrees>
              <LongitudeDegrees>2.892579026520252227783203125</LongitudeDegrees>
            </Position>
            <AltitudeMeters>307.79998779296875</AltitudeMeters>
            <DistanceMeters>NAN</DistanceMeters>
          </Trackpoint>
          <Trackpoint>
            <Time>2020-02-15T10:04:11.000Z</Time>
            <Position>
              <LatitudeDegrees>41.9686733186244964599609375</LatitudeDegrees>
              <LongitudeDegrees>2.89258363656699657440185546875</LongitudeDegrees>
            </Position>
            <AltitudeMeters>307.79998779296875</AltitudeMeters>
            <DistanceMeters>NAN</DistanceMeters>
          </Trackpoint>
          <Trackpoint>
            <Time>2020-02-15T10:04:12.000Z</Time>
            <Position>
              <LatitudeDegrees>41.96869519539177417755126953125</LatitudeDegrees>
              <LongitudeDegrees>2.8925894200801849365234375</LongitudeDegrees>
            </Position>
            <AltitudeMeters>307.79998779296875</AltitudeMeters>
            <DistanceMeters>NAN</DistanceMeters>
          </Trackpoint>
          <Trackpoint>
            <Time>2020-02-15T10:04:13.000Z</Time>
            <Position>
              <LatitudeDegrees>41.9687197543680667877197265625</LatitudeDegrees>
              <LongitudeDegrees>2.8925979696214199066162109375</LongitudeDegrees>
            </Position>
            <AltitudeMeters>308</AltitudeMeters>
            <DistanceMeters>NAN</DistanceMeters>
          </Trackpoint>
          <Trackpoint>
            <Time>2020-02-15T10:04:14.000Z</Time>
            <Position>
              <LatitudeDegrees>41.96874129585921764373779296875</LatitudeDegrees>
              <LongitudeDegrees>2.8926046751439571380615234375</LongitudeDegrees>
            </Position>
            <AltitudeMeters>308.20001220703125</AltitudeMeters>
            <DistanceMeters>NAN</DistanceMeters>
          </Trackpoint>
          <Trackpoint>
            <Time>2020-02-15T10:04:15.000Z</Time>
            <Position>
              <LatitudeDegrees>41.96876116096973419189453125</LatitudeDegrees>
              <LongitudeDegrees>2.8926066868007183074951171875</LongitudeDegrees>
            </Position>
            <AltitudeMeters>308.600006103515625</AltitudeMeters>
            <DistanceMeters>NAN</DistanceMeters>
          </Trackpoint>
          <Trackpoint>
            <Time>2020-02-15T10:04:16.000Z</Time>
            <Position>
              <LatitudeDegrees>41.96878219954669475555419921875</LatitudeDegrees>
              <LongitudeDegrees>2.89260978810489177703857421875</LongitudeDegrees>
            </Position>
            <AltitudeMeters>308.600006103515625</AltitudeMeters>
            <DistanceMeters>NAN</DistanceMeters>
          </Trackpoint>
          <Trackpoint>
            <Time>2020-02-15T10:04:18.000Z</Time>
            <Position>
              <LatitudeDegrees>41.9688257016241550445556640625</LatitudeDegrees>
              <LongitudeDegrees>2.89262294769287109375</LongitudeDegrees>
            </Position>
            <AltitudeMeters>309</AltitudeMeters>
            <DistanceMeters>NAN</DistanceMeters>
          </Trackpoint>
          <Trackpoint>
            <Time>2020-02-15T10:04:19.000Z</Time>
            <Position>
              <LatitudeDegrees>41.96884472854435443878173828125</LatitudeDegrees>
              <LongitudeDegrees>2.89262956939637660980224609375</LongitudeDegrees>
            </Position>
            <AltitudeMeters>309.20001220703125</AltitudeMeters>
            <DistanceMeters>NAN</DistanceMeters>
          </Trackpoint>
          <Trackpoint>
            <Time>2020-02-15T10:04:20.000Z</Time>
            <Position>
              <LatitudeDegrees>41.968862079083919525146484375</LatitudeDegrees>
              <LongitudeDegrees>2.89263308979570865631103515625</LongitudeDegrees>
            </Position>
            <AltitudeMeters>309.20001220703125</AltitudeMeters>
            <DistanceMeters>NAN</DistanceMeters>
          </Trackpoint>
          <Trackpoint>
            <Time>2020-02-15T10:04:21.000Z</Time>
            <Position>
              <LatitudeDegrees>41.9688796810805797576904296875</LatitudeDegrees>
              <LongitudeDegrees>2.89263702929019927978515625</LongitudeDegrees>
            </Position>
            <AltitudeMeters>309.20001220703125</AltitudeMeters>
            <DistanceMeters>NAN</DistanceMeters>
          </Trackpoint>
          <Trackpoint>
            <Time>2020-02-15T10:04:22.000Z</Time>
            <Position>
              <LatitudeDegrees>41.96889661252498626708984375</LatitudeDegrees>
              <LongitudeDegrees>2.89264147169888019561767578125</LongitudeDegrees>
            </Position>
            <AltitudeMeters>309.399993896484375</AltitudeMeters>
            <DistanceMeters>NAN</DistanceMeters>
          </Trackpoint>
          <Trackpoint>
            <Time>2020-02-15T10:04:23.000Z</Time>
            <Position>
              <LatitudeDegrees>41.96891765110194683074951171875</LatitudeDegrees>
              <LongitudeDegrees>2.89265085943043231964111328125</LongitudeDegrees>
            </Position>
            <AltitudeMeters>309.20001220703125</AltitudeMeters>
            <DistanceMeters>NAN</DistanceMeters>
          </Trackpoint>
          <Trackpoint>
            <Time>2020-02-15T10:04:24.000Z</Time>
            <Position>
              <LatitudeDegrees>41.96893944405019283294677734375</LatitudeDegrees>
              <LongitudeDegrees>2.89266385138034820556640625</LongitudeDegrees>
            </Position>
            <AltitudeMeters>309.600006103515625</AltitudeMeters>
            <DistanceMeters>NAN</DistanceMeters>
          </Trackpoint>
          <Trackpoint>
            <Time>2020-02-15T10:04:25.000Z</Time>
            <Position>
              <LatitudeDegrees>41.968962661921977996826171875</LatitudeDegrees>
              <LongitudeDegrees>2.8926791064441204071044921875</LongitudeDegrees>
            </Position>
            <AltitudeMeters>309.399993896484375</AltitudeMeters>
            <DistanceMeters>NAN</DistanceMeters>
          </Trackpoint>
          <Trackpoint>
            <Time>2020-02-15T10:04:26.000Z</Time>
            <Position>
              <LatitudeDegrees>41.96898671798408031463623046875</LatitudeDegrees>
              <LongitudeDegrees>2.8926972113549709320068359375</LongitudeDegrees>
            </Position>
            <AltitudeMeters>309.399993896484375</AltitudeMeters>
            <DistanceMeters>NAN</DistanceMeters>
          </Trackpoint>
          <Trackpoint>
            <Time>2020-02-15T10:04:32.000Z</Time>
            <Position>
              <LatitudeDegrees>41.96915418840944766998291015625</LatitudeDegrees>
              <LongitudeDegrees>2.89278882555663585662841796875</LongitudeDegrees>
            </Position>
            <AltitudeMeters>310</AltitudeMeters>
            <DistanceMeters>NAN</DistanceMeters>
          </Trackpoint>
          <Trackpoint>
            <Time>2020-02-15T10:04:33.000Z</Time>
            <Position>
              <LatitudeDegrees>41.96918360888957977294921875</LatitudeDegrees>
              <LongitudeDegrees>2.89279905147850513458251953125</LongitudeDegrees>
            </Position>
            <AltitudeMeters>310</AltitudeMeters>
            <DistanceMeters>NAN</DistanceMeters>
          </Trackpoint>
          <Trackpoint>
            <Time>2020-02-15T10:04:35.000Z</Time>
            <Position>
              <LatitudeDegrees>41.969244293868541717529296875</LatitudeDegrees>
              <LongitudeDegrees>2.8928185813128948211669921875</LongitudeDegrees>
            </Position>
            <AltitudeMeters>310</AltitudeMeters>
            <DistanceMeters>NAN</DistanceMeters>
          </Trackpoint>
          <Trackpoint>
            <Time>2020-02-15T10:04:37.000Z</Time>
            <Position>
              <LatitudeDegrees>41.969304643571376800537109375</LatitudeDegrees>
              <LongitudeDegrees>2.89283811114728450775146484375</LongitudeDegrees>
            </Position>
            <AltitudeMeters>310</AltitudeMeters>
            <DistanceMeters>NAN</DistanceMeters>
          </Trackpoint>
          <Trackpoint>
            <Time>2020-02-15T10:04:38.000Z</Time>
            <Position>
              <LatitudeDegrees>41.96933439932763576507568359375</LatitudeDegrees>
              <LongitudeDegrees>2.892845235764980316162109375</LongitudeDegrees>
            </Position>
            <AltitudeMeters>310</AltitudeMeters>
            <DistanceMeters>NAN</DistanceMeters>
          </Trackpoint>
          <Trackpoint>
            <Time>2020-02-15T10:04:39.000Z</Time>
            <Position>
              <LatitudeDegrees>41.96935786865651607513427734375</LatitudeDegrees>
              <LongitudeDegrees>2.89285428822040557861328125</LongitudeDegrees>
            </Position>
            <AltitudeMeters>310</AltitudeMeters>
            <DistanceMeters>NAN</DistanceMeters>
          </Trackpoint>
          <Trackpoint>
            <Time>2020-02-15T10:04:40.000Z</Time>
            <Position>
              <LatitudeDegrees>41.96938016451895236968994140625</LatitudeDegrees>
              <LongitudeDegrees>2.89286526851356029510498046875</LongitudeDegrees>
            </Position>
            <AltitudeMeters>310</AltitudeMeters>
            <DistanceMeters>NAN</DistanceMeters>
          </Trackpoint>
          <Trackpoint>
            <Time>2020-02-15T10:04:41.000Z</Time>
            <Position>
              <LatitudeDegrees>41.9694027118384838104248046875</LatitudeDegrees>
              <LongitudeDegrees>2.8928732313215732574462890625</LongitudeDegrees>
            </Position>
            <AltitudeMeters>310</AltitudeMeters>
            <DistanceMeters>NAN</DistanceMeters>
          </Trackpoint>
          <Trackpoint>
            <Time>2020-02-15T10:04:42.000Z</Time>
            <Position>
              <LatitudeDegrees>41.96942442096769809722900390625</LatitudeDegrees>
              <LongitudeDegrees>2.89288136176764965057373046875</LongitudeDegrees>
            </Position>
            <AltitudeMeters>310</AltitudeMeters>
            <DistanceMeters>NAN</DistanceMeters>
          </Trackpoint>
          <Trackpoint>
            <Time>2020-02-15T10:04:43.000Z</Time>
            <Position>
              <LatitudeDegrees>41.96944587863981723785400390625</LatitudeDegrees>
              <LongitudeDegrees>2.8928886540234088897705078125</LongitudeDegrees>
            </Position>
            <AltitudeMeters>310.20001220703125</AltitudeMeters>
            <DistanceMeters>NAN</DistanceMeters>
          </Trackpoint>
          <Trackpoint>
            <Time>2020-02-15T10:04:44.000Z</Time>
            <Position>
              <LatitudeDegrees>41.96947018615901470184326171875</LatitudeDegrees>
              <LongitudeDegrees>2.89289611391723155975341796875</LongitudeDegrees>
            </Position>
            <AltitudeMeters>310</AltitudeMeters>
            <DistanceMeters>NAN</DistanceMeters>
          </Trackpoint>
          <Trackpoint>
            <Time>2020-02-15T10:04:46.000Z</Time>
            <Position>
              <LatitudeDegrees>41.9695190526545047760009765625</LatitudeDegrees>
              <LongitudeDegrees>2.89290927350521087646484375</LongitudeDegrees>
            </Position>
            <AltitudeMeters>310</AltitudeMeters>
            <DistanceMeters>NAN</DistanceMeters>
          </Trackpoint>
          <Trackpoint>
            <Time>2020-02-15T10:04:48.000Z</Time>
            <Position>
              <LatitudeDegrees>41.96957252919673919677734375</LatitudeDegrees>
              <LongitudeDegrees>2.89292871952056884765625</LongitudeDegrees>
            </Position>
            <AltitudeMeters>309.79998779296875</AltitudeMeters>
            <DistanceMeters>NAN</DistanceMeters>
          </Trackpoint>
          <Trackpoint>
            <Time>2020-02-15T10:04:50.000Z</Time>
            <Position>
              <LatitudeDegrees>41.9696236588060855865478515625</LatitudeDegrees>
              <LongitudeDegrees>2.89294992573559284210205078125</LongitudeDegrees>
            </Position>
            <AltitudeMeters>309.79998779296875</AltitudeMeters>
            <DistanceMeters>NAN</DistanceMeters>
          </Trackpoint>
          <Trackpoint>
            <Time>2020-02-15T10:04:51.000Z</Time>
            <Position>
              <LatitudeDegrees>41.9696518220007419586181640625</LatitudeDegrees>
              <LongitudeDegrees>2.8929617442190647125244140625</LongitudeDegrees>
            </Position>
            <AltitudeMeters>309.79998779296875</AltitudeMeters>
            <DistanceMeters>NAN</DistanceMeters>
          </Trackpoint>
          <Trackpoint>
            <Time>2020-02-15T10:04:52.000Z</Time>
            <Position>
              <LatitudeDegrees>41.9696806557476520538330078125</LatitudeDegrees>
              <LongitudeDegrees>2.89297490380704402923583984375</LongitudeDegrees>
            </Position>
            <AltitudeMeters>310</AltitudeMeters>
            <DistanceMeters>NAN</DistanceMeters>
          </Trackpoint>
          <Trackpoint>
            <Time>2020-02-15T10:04:53.000Z</Time>
            <Position>
              <LatitudeDegrees>41.96970420889556407928466796875</LatitudeDegrees>
              <LongitudeDegrees>2.8929863870143890380859375</LongitudeDegrees>
            </Position>
            <AltitudeMeters>310</AltitudeMeters>
            <DistanceMeters>NAN</DistanceMeters>
          </Trackpoint>
          <Trackpoint>
            <Time>2020-02-15T10:04:54.000Z</Time>
            <Position>
              <LatitudeDegrees>41.969731785356998443603515625</LatitudeDegrees>
              <LongitudeDegrees>2.89299602620303630828857421875</LongitudeDegrees>
            </Position>
            <AltitudeMeters>310</AltitudeMeters>
            <DistanceMeters>NAN</DistanceMeters>
          </Trackpoint>
          <Trackpoint>
            <Time>2020-02-15T10:04:55.000Z</Time>
            <Position>
              <LatitudeDegrees>41.9697601161897182464599609375</LatitudeDegrees>
              <LongitudeDegrees>2.89300491102039813995361328125</LongitudeDegrees>
            </Position>
            <AltitudeMeters>310</AltitudeMeters>
            <DistanceMeters>NAN</DistanceMeters>
          </Trackpoint>
          <Trackpoint>
            <Time>2020-02-15T10:04:56.000Z</Time>
            <Position>
              <LatitudeDegrees>41.9697862677276134490966796875</LatitudeDegrees>
              <LongitudeDegrees>2.89301211945712566375732421875</LongitudeDegrees>
            </Position>
            <AltitudeMeters>310</AltitudeMeters>
            <DistanceMeters>NAN</DistanceMeters>
          </Trackpoint>
          <Trackpoint>
            <Time>2020-02-15T10:04:57.000Z</Time>
            <Position>
              <LatitudeDegrees>41.9698124192655086517333984375</LatitudeDegrees>
              <LongitudeDegrees>2.893017567694187164306640625</LongitudeDegrees>
            </Position>
            <AltitudeMeters>310</AltitudeMeters>
            <DistanceMeters>NAN</DistanceMeters>
          </Trackpoint>
          <Trackpoint>
            <Time>2020-02-15T10:04:58.000Z</Time>
            <Position>
              <LatitudeDegrees>41.969837062060832977294921875</LatitudeDegrees>
              <LongitudeDegrees>2.89302536286413669586181640625</LongitudeDegrees>
            </Position>
            <AltitudeMeters>310</AltitudeMeters>
            <DistanceMeters>NAN</DistanceMeters>
          </Trackpoint>
          <Trackpoint>
            <Time>2020-02-15T10:04:59.000Z</Time>
            <Position>
              <LatitudeDegrees>41.969861872494220733642578125</LatitudeDegrees>
              <LongitudeDegrees>2.89303743280470371246337890625</LongitudeDegrees>
            </Position>
            <AltitudeMeters>310.20001220703125</AltitudeMeters>
            <DistanceMeters>NAN</DistanceMeters>
          </Trackpoint>
          <Trackpoint>
            <Time>2020-02-15T10:05:00.000Z</Time>
            <Position>
              <LatitudeDegrees>41.96989028714597225189208984375</LatitudeDegrees>
              <LongitudeDegrees>2.89304933510720729827880859375</LongitudeDegrees>
            </Position>
            <AltitudeMeters>310.399993896484375</AltitudeMeters>
            <DistanceMeters>NAN</DistanceMeters>
          </Trackpoint>
          <Trackpoint>
            <Time>2020-02-15T10:05:01.000Z</Time>
            <Position>
              <LatitudeDegrees>41.9699187017977237701416015625</LatitudeDegrees>
              <LongitudeDegrees>2.893059812486171722412109375</LongitudeDegrees>
            </Position>
            <AltitudeMeters>310.399993896484375</AltitudeMeters>
            <DistanceMeters>NAN</DistanceMeters>
          </Trackpoint>
          <Trackpoint>
            <Time>2020-02-15T10:05:02.000Z</Time>
            <Position>
              <LatitudeDegrees>41.969945020973682403564453125</LatitudeDegrees>
              <LongitudeDegrees>2.893068529665470123291015625</LongitudeDegrees>
            </Position>
            <AltitudeMeters>310.600006103515625</AltitudeMeters>
            <DistanceMeters>NAN</DistanceMeters>
          </Trackpoint>
          <Trackpoint>
            <Time>2020-02-15T10:05:03.000Z</Time>
            <Position>
              <LatitudeDegrees>41.96996706537902355194091796875</LatitudeDegrees>
              <LongitudeDegrees>2.8930764086544513702392578125</LongitudeDegrees>
            </Position>
            <AltitudeMeters>310.79998779296875</AltitudeMeters>
            <DistanceMeters>NAN</DistanceMeters>
          </Trackpoint>
          <Trackpoint>
            <Time>2020-02-15T10:05:04.000Z</Time>
            <Position>
              <LatitudeDegrees>41.9699887745082378387451171875</LatitudeDegrees>
              <LongitudeDegrees>2.89308420382440090179443359375</LongitudeDegrees>
            </Position>
            <AltitudeMeters>311</AltitudeMeters>
            <DistanceMeters>NAN</DistanceMeters>
          </Trackpoint>
          <Trackpoint>
            <Time>2020-02-15T10:05:05.000Z</Time>
            <Position>
              <LatitudeDegrees>41.97001132182776927947998046875</LatitudeDegrees>
              <LongitudeDegrees>2.8930908255279064178466796875</LongitudeDegrees>
            </Position>
            <AltitudeMeters>311</AltitudeMeters>
            <DistanceMeters>NAN</DistanceMeters>
          </Trackpoint>
          <Trackpoint>
            <Time>2020-02-15T10:05:06.000Z</Time>
            <Position>
              <LatitudeDegrees>41.97003177367150783538818359375</LatitudeDegrees>
              <LongitudeDegrees>2.8930988721549510955810546875</LongitudeDegrees>
            </Position>
            <AltitudeMeters>311.600006103515625</AltitudeMeters>
            <DistanceMeters>NAN</DistanceMeters>
          </Trackpoint>
          <Trackpoint>
            <Time>2020-02-15T10:05:07.000Z</Time>
            <Position>
              <LatitudeDegrees>41.97005457244813442230224609375</LatitudeDegrees>
              <LongitudeDegrees>2.89310851134359836578369140625</LongitudeDegrees>
            </Position>
            <AltitudeMeters>311.79998779296875</AltitudeMeters>
            <DistanceMeters>NAN</DistanceMeters>
          </Trackpoint>
          <Trackpoint>
            <Time>2020-02-15T10:05:08.000Z</Time>
            <Position>
              <LatitudeDegrees>41.9700776226818561553955078125</LatitudeDegrees>
              <LongitudeDegrees>2.8931204974651336669921875</LongitudeDegrees>
            </Position>
            <AltitudeMeters>311.600006103515625</AltitudeMeters>
            <DistanceMeters>NAN</DistanceMeters>
          </Trackpoint>
          <Trackpoint>
            <Time>2020-02-15T10:05:09.000Z</Time>
            <Position>
              <LatitudeDegrees>41.97009849362075328826904296875</LatitudeDegrees>
              <LongitudeDegrees>2.8931300528347492218017578125</LongitudeDegrees>
            </Position>
            <AltitudeMeters>312</AltitudeMeters>
            <DistanceMeters>NAN</DistanceMeters>
          </Trackpoint>
          <Trackpoint>
            <Time>2020-02-15T10:05:10.000Z</Time>
            <Position>
              <LatitudeDegrees>41.97011844255030155181884765625</LatitudeDegrees>
              <LongitudeDegrees>2.8931370936334133148193359375</LongitudeDegrees>
            </Position>
            <AltitudeMeters>312.20001220703125</AltitudeMeters>
            <DistanceMeters>NAN</DistanceMeters>
          </Trackpoint>
          <Trackpoint>
            <Time>2020-02-15T10:05:11.000Z</Time>
            <Position>
              <LatitudeDegrees>41.970134787261486053466796875</LatitudeDegrees>
              <LongitudeDegrees>2.8931427933275699615478515625</LongitudeDegrees>
            </Position>
            <AltitudeMeters>312.399993896484375</AltitudeMeters>
            <DistanceMeters>NAN</DistanceMeters>
          </Trackpoint>
          <Trackpoint>
            <Time>2020-02-15T10:05:12.000Z</Time>
            <Position>
              <LatitudeDegrees>41.9701507128775119781494140625</LatitudeDegrees>
              <LongitudeDegrees>2.89314773865044116973876953125</LongitudeDegrees>
            </Position>
            <AltitudeMeters>312.600006103515625</AltitudeMeters>
            <DistanceMeters>NAN</DistanceMeters>
          </Trackpoint>
          <Trackpoint>
            <Time>2020-02-15T10:05:13.000Z</Time>
            <Position>
              <LatitudeDegrees>41.970164291560649871826171875</LatitudeDegrees>
              <LongitudeDegrees>2.89315201342105865478515625</LongitudeDegrees>
            </Position>
            <AltitudeMeters>312.600006103515625</AltitudeMeters>
            <DistanceMeters>NAN</DistanceMeters>
          </Trackpoint>
          <Trackpoint>
            <Time>2020-02-15T10:05:14.000Z</Time>
            <Position>
              <LatitudeDegrees>41.97017543949186801910400390625</LatitudeDegrees>
              <LongitudeDegrees>2.89315578527748584747314453125</LongitudeDegrees>
            </Position>
            <AltitudeMeters>313</AltitudeMeters>
            <DistanceMeters>NAN</DistanceMeters>
          </Trackpoint>
          <Trackpoint>
            <Time>2020-02-15T10:05:15.000Z</Time>
            <Position>
              <LatitudeDegrees>41.97018633596599102020263671875</LatitudeDegrees>
              <LongitudeDegrees>2.89315897040069103240966796875</LongitudeDegrees>
            </Position>
            <AltitudeMeters>313.20001220703125</AltitudeMeters>
            <DistanceMeters>NAN</DistanceMeters>
          </Trackpoint>
          <Trackpoint>
            <Time>2020-02-15T10:05:16.000Z</Time>
            <Position>
              <LatitudeDegrees>41.970199160277843475341796875</LatitudeDegrees>
              <LongitudeDegrees>2.89316274225711822509765625</LongitudeDegrees>
            </Position>
            <AltitudeMeters>313.399993896484375</AltitudeMeters>
            <DistanceMeters>NAN</DistanceMeters>
          </Trackpoint>
          <Trackpoint>
            <Time>2020-02-15T10:05:17.000Z</Time>
            <Position>
              <LatitudeDegrees>41.97021248750388622283935546875</LatitudeDegrees>
              <LongitudeDegrees>2.8931662626564502716064453125</LongitudeDegrees>
            </Position>
            <AltitudeMeters>313.600006103515625</AltitudeMeters>
            <DistanceMeters>NAN</DistanceMeters>
          </Trackpoint>
          <Trackpoint>
            <Time>2020-02-15T10:05:18.000Z</Time>
            <Position>
              <LatitudeDegrees>41.97022707201540470123291015625</LatitudeDegrees>
              <LongitudeDegrees>2.8931692801415920257568359375</LongitudeDegrees>
            </Position>
            <AltitudeMeters>313.79998779296875</AltitudeMeters>
            <DistanceMeters>NAN</DistanceMeters>
          </Trackpoint>
          <Trackpoint>
            <Time>2020-02-15T10:05:19.000Z</Time>
            <Position>
              <LatitudeDegrees>41.97024249471724033355712890625</LatitudeDegrees>
              <LongitudeDegrees>2.89317372255027294158935546875</LongitudeDegrees>
            </Position>
            <AltitudeMeters>314</AltitudeMeters>
            <DistanceMeters>NAN</DistanceMeters>
          </Trackpoint>
          <Trackpoint>
            <Time>2020-02-15T10:05:20.000Z</Time>
            <Position>
              <LatitudeDegrees>41.97025842033326625823974609375</LatitudeDegrees>
              <LongitudeDegrees>2.89317539893090724945068359375</LongitudeDegrees>
            </Position>
            <AltitudeMeters>314.20001220703125</AltitudeMeters>
            <DistanceMeters>NAN</DistanceMeters>
          </Trackpoint>
          <Trackpoint>
            <Time>2020-02-15T10:05:21.000Z</Time>
            <Position>
              <LatitudeDegrees>41.970276273787021636962890625</LatitudeDegrees>
              <LongitudeDegrees>2.89317858405411243438720703125</LongitudeDegrees>
            </Position>
            <AltitudeMeters>314.20001220703125</AltitudeMeters>
            <DistanceMeters>NAN</DistanceMeters>
          </Trackpoint>
          <Trackpoint>
            <Time>2020-02-15T10:05:22.000Z</Time>
            <Position>
              <LatitudeDegrees>41.9702935405075550079345703125</LatitudeDegrees>
              <LongitudeDegrees>2.89318311028182506561279296875</LongitudeDegrees>
            </Position>
            <AltitudeMeters>314.399993896484375</AltitudeMeters>
            <DistanceMeters>NAN</DistanceMeters>
          </Trackpoint>
          <Trackpoint>
            <Time>2020-02-15T10:05:23.000Z</Time>
            <Position>
              <LatitudeDegrees>41.97031005285680294036865234375</LatitudeDegrees>
              <LongitudeDegrees>2.893188558518886566162109375</LongitudeDegrees>
            </Position>
            <AltitudeMeters>314.79998779296875</AltitudeMeters>
            <DistanceMeters>NAN</DistanceMeters>
          </Trackpoint>
          <Trackpoint>
            <Time>2020-02-15T10:05:24.000Z</Time>
            <Position>
              <LatitudeDegrees>41.97032765485346317291259765625</LatitudeDegrees>
              <LongitudeDegrees>2.893191240727901458740234375</LongitudeDegrees>
            </Position>
            <AltitudeMeters>314.79998779296875</AltitudeMeters>
            <DistanceMeters>NAN</DistanceMeters>
          </Trackpoint>
          <Trackpoint>
            <Time>2020-02-15T10:05:25.000Z</Time>
            <Position>
              <LatitudeDegrees>41.97034676559269428253173828125</LatitudeDegrees>
              <LongitudeDegrees>2.89319065399467945098876953125</LongitudeDegrees>
            </Position>
            <AltitudeMeters>315</AltitudeMeters>
            <DistanceMeters>NAN</DistanceMeters>
          </Trackpoint>
          <Trackpoint>
            <Time>2020-02-15T10:05:26.000Z</Time>
            <Position>
              <LatitudeDegrees>41.97036688216030597686767578125</LatitudeDegrees>
              <LongitudeDegrees>2.89318948052823543548583984375</LongitudeDegrees>
            </Position>
            <AltitudeMeters>315.20001220703125</AltitudeMeters>
            <DistanceMeters>NAN</DistanceMeters>
          </Trackpoint>
          <Trackpoint>
            <Time>2020-02-15T10:05:27.000Z</Time>
            <Position>
              <LatitudeDegrees>41.97038733400404453277587890625</LatitudeDegrees>
              <LongitudeDegrees>2.89318914525210857391357421875</LongitudeDegrees>
            </Position>
            <AltitudeMeters>315.399993896484375</AltitudeMeters>
            <DistanceMeters>NAN</DistanceMeters>
          </Trackpoint>
          <Trackpoint>
            <Time>2020-02-15T10:05:28.000Z</Time>
            <Position>
              <LatitudeDegrees>41.97040627710521221160888671875</LatitudeDegrees>
              <LongitudeDegrees>2.89318730123341083526611328125</LongitudeDegrees>
            </Position>
            <AltitudeMeters>315.600006103515625</AltitudeMeters>
            <DistanceMeters>NAN</DistanceMeters>
          </Trackpoint>
          <Trackpoint>
            <Time>2020-02-15T10:05:29.000Z</Time>
            <Position>
              <LatitudeDegrees>41.9704276509582996368408203125</LatitudeDegrees>
              <LongitudeDegrees>2.893183194100856781005859375</LongitudeDegrees>
            </Position>
            <AltitudeMeters>315.600006103515625</AltitudeMeters>
            <DistanceMeters>NAN</DistanceMeters>
          </Trackpoint>
          <Trackpoint>
            <Time>2020-02-15T10:05:30.000Z</Time>
            <Position>
              <LatitudeDegrees>41.9704491086304187774658203125</LatitudeDegrees>
              <LongitudeDegrees>2.89317958988249301910400390625</LongitudeDegrees>
            </Position>
            <AltitudeMeters>316</AltitudeMeters>
            <DistanceMeters>NAN</DistanceMeters>
          </Trackpoint>
          <Trackpoint>
            <Time>2020-02-15T10:05:35.000Z</Time>
            <Position>
              <LatitudeDegrees>41.97057039476931095123291015625</LatitudeDegrees>
              <LongitudeDegrees>2.89318084716796875</LongitudeDegrees>
            </Position>
            <AltitudeMeters>316.79998779296875</AltitudeMeters>
            <DistanceMeters>NAN</DistanceMeters>
          </Trackpoint>
          <Trackpoint>
            <Time>2020-02-15T10:05:36.000Z</Time>
            <Position>
              <LatitudeDegrees>41.97059537284076213836669921875</LatitudeDegrees>
              <LongitudeDegrees>2.89318084716796875</LongitudeDegrees>
            </Position>
            <AltitudeMeters>316.79998779296875</AltitudeMeters>
            <DistanceMeters>NAN</DistanceMeters>
          </Trackpoint>
          <Trackpoint>
            <Time>2020-02-15T10:05:37.000Z</Time>
            <Position>
              <LatitudeDegrees>41.97061867453157901763916015625</LatitudeDegrees>
              <LongitudeDegrees>2.89317757822573184967041015625</LongitudeDegrees>
            </Position>
            <AltitudeMeters>316.79998779296875</AltitudeMeters>
            <DistanceMeters>NAN</DistanceMeters>
          </Trackpoint>
          <Trackpoint>
            <Time>2020-02-15T10:05:38.000Z</Time>
            <Position>
              <LatitudeDegrees>41.97064147330820560455322265625</LatitudeDegrees>
              <LongitudeDegrees>2.8931746445596218109130859375</LongitudeDegrees>
            </Position>
            <AltitudeMeters>316.79998779296875</AltitudeMeters>
            <DistanceMeters>NAN</DistanceMeters>
          </Trackpoint>
          <Trackpoint>
            <Time>2020-02-15T10:05:39.000Z</Time>
            <Position>
              <LatitudeDegrees>41.970662511885166168212890625</LatitudeDegrees>
              <LongitudeDegrees>2.89317003451287746429443359375</LongitudeDegrees>
            </Position>
            <AltitudeMeters>317</AltitudeMeters>
            <DistanceMeters>NAN</DistanceMeters>
          </Trackpoint>
          <Trackpoint>
            <Time>2020-02-15T10:05:40.000Z</Time>
            <Position>
              <LatitudeDegrees>41.9706834666430950164794921875</LatitudeDegrees>
              <LongitudeDegrees>2.89317204616963863372802734375</LongitudeDegrees>
            </Position>
            <AltitudeMeters>317.20001220703125</AltitudeMeters>
            <DistanceMeters>NAN</DistanceMeters>
          </Trackpoint>
          <Trackpoint>
            <Time>2020-02-15T10:05:41.000Z</Time>
            <Position>
              <LatitudeDegrees>41.9707045890390872955322265625</LatitudeDegrees>
              <LongitudeDegrees>2.89317422546446323394775390625</LongitudeDegrees>
            </Position>
            <AltitudeMeters>317</AltitudeMeters>
            <DistanceMeters>NAN</DistanceMeters>
          </Trackpoint>
          <Trackpoint>
            <Time>2020-02-15T10:05:42.000Z</Time>
            <Position>
              <LatitudeDegrees>41.970726884901523590087890625</LatitudeDegrees>
              <LongitudeDegrees>2.8931741416454315185546875</LongitudeDegrees>
            </Position>
            <AltitudeMeters>317</AltitudeMeters>
            <DistanceMeters>NAN</DistanceMeters>
          </Trackpoint>
          <Trackpoint>
            <Time>2020-02-15T10:05:45.000Z</Time>
            <Position>
              <LatitudeDegrees>41.97080542333424091339111328125</LatitudeDegrees>
              <LongitudeDegrees>2.8931665979325771331787109375</LongitudeDegrees>
            </Position>
            <AltitudeMeters>317.20001220703125</AltitudeMeters>
            <DistanceMeters>NAN</DistanceMeters>
          </Trackpoint>
          <Trackpoint>
            <Time>2020-02-15T10:05:47.000Z</Time>
            <Position>
              <LatitudeDegrees>41.9708816148340702056884765625</LatitudeDegrees>
              <LongitudeDegrees>2.8931528516113758087158203125</LongitudeDegrees>
            </Position>
            <AltitudeMeters>317.399993896484375</AltitudeMeters>
            <DistanceMeters>NAN</DistanceMeters>
          </Trackpoint>
          <Trackpoint>
            <Time>2020-02-15T10:05:48.000Z</Time>
            <Position>
              <LatitudeDegrees>41.9709198363125324249267578125</LatitudeDegrees>
              <LongitudeDegrees>2.89314455352723598480224609375</LongitudeDegrees>
            </Position>
            <AltitudeMeters>317.20001220703125</AltitudeMeters>
            <DistanceMeters>NAN</DistanceMeters>
          </Trackpoint>
          <Trackpoint>
            <Time>2020-02-15T10:05:50.000Z</Time>
            <Position>
              <LatitudeDegrees>41.9709845446050167083740234375</LatitudeDegrees>
              <LongitudeDegrees>2.8931669332087039947509765625</LongitudeDegrees>
            </Position>
            <AltitudeMeters>317.20001220703125</AltitudeMeters>
            <DistanceMeters>NAN</DistanceMeters>
          </Trackpoint>
          <Trackpoint>
            <Time>2020-02-15T10:05:51.000Z</Time>
            <Position>
              <LatitudeDegrees>41.970998458564281463623046875</LatitudeDegrees>
              <LongitudeDegrees>2.8931957669556140899658203125</LongitudeDegrees>
            </Position>
            <AltitudeMeters>317.399993896484375</AltitudeMeters>
            <DistanceMeters>NAN</DistanceMeters>
          </Trackpoint>
          <Trackpoint>
            <Time>2020-02-15T10:05:52.000Z</Time>
            <Position>
              <LatitudeDegrees>41.970996446907520294189453125</LatitudeDegrees>
              <LongitudeDegrees>2.8932286240160465240478515625</LongitudeDegrees>
            </Position>
            <AltitudeMeters>317.20001220703125</AltitudeMeters>
            <DistanceMeters>NAN</DistanceMeters>
          </Trackpoint>
          <Trackpoint>
            <Time>2020-02-15T10:05:53.000Z</Time>
            <Position>
              <LatitudeDegrees>41.9709853827953338623046875</LatitudeDegrees>
              <LongitudeDegrees>2.8932601399719715118408203125</LongitudeDegrees>
            </Position>
            <AltitudeMeters>317.20001220703125</AltitudeMeters>
            <DistanceMeters>NAN</DistanceMeters>
          </Trackpoint>
          <Trackpoint>
            <Time>2020-02-15T10:05:54.000Z</Time>
            <Position>
              <LatitudeDegrees>41.97097104974091053009033203125</LatitudeDegrees>
              <LongitudeDegrees>2.893287129700183868408203125</LongitudeDegrees>
            </Position>
            <AltitudeMeters>317.399993896484375</AltitudeMeters>
            <DistanceMeters>NAN</DistanceMeters>
          </Trackpoint>
          <Trackpoint>
            <Time>2020-02-15T10:05:55.000Z</Time>
            <Position>
              <LatitudeDegrees>41.97094984352588653564453125</LatitudeDegrees>
              <LongitudeDegrees>2.89331168867647647857666015625</LongitudeDegrees>
            </Position>
            <AltitudeMeters>317.20001220703125</AltitudeMeters>
            <DistanceMeters>NAN</DistanceMeters>
          </Trackpoint>
          <Trackpoint>
            <Time>2020-02-15T10:05:56.000Z</Time>
            <Position>
              <LatitudeDegrees>41.9709282182157039642333984375</LatitudeDegrees>
              <LongitudeDegrees>2.893332727253437042236328125</LongitudeDegrees>
            </Position>
            <AltitudeMeters>317.20001220703125</AltitudeMeters>
            <DistanceMeters>NAN</DistanceMeters>
          </Trackpoint>
          <Trackpoint>
            <Time>2020-02-15T10:05:57.000Z</Time>
            <Position>
              <LatitudeDegrees>41.970907263457775115966796875</LatitudeDegrees>
              <LongitudeDegrees>2.89335393346846103668212890625</LongitudeDegrees>
            </Position>
            <AltitudeMeters>317.20001220703125</AltitudeMeters>
            <DistanceMeters>NAN</DistanceMeters>
          </Trackpoint>
          <Trackpoint>
            <Time>2020-02-15T10:05:58.000Z</Time>
            <Position>
              <LatitudeDegrees>41.970887482166290283203125</LatitudeDegrees>
              <LongitudeDegrees>2.89337656460702419281005859375</LongitudeDegrees>
            </Position>
            <AltitudeMeters>317.20001220703125</AltitudeMeters>
            <DistanceMeters>NAN</DistanceMeters>
          </Trackpoint>
          <Trackpoint>
            <Time>2020-02-15T10:05:59.000Z</Time>
            <Position>
              <LatitudeDegrees>41.9708698801696300506591796875</LatitudeDegrees>
              <LongitudeDegrees>2.89340003393590450286865234375</LongitudeDegrees>
            </Position>
            <AltitudeMeters>317.20001220703125</AltitudeMeters>
            <DistanceMeters>NAN</DistanceMeters>
          </Trackpoint>
          <Trackpoint>
            <Time>2020-02-15T10:06:00.000Z</Time>
            <Position>
              <LatitudeDegrees>41.970855295658111572265625</LatitudeDegrees>
              <LongitudeDegrees>2.89342232979834079742431640625</LongitudeDegrees>
            </Position>
            <AltitudeMeters>317</AltitudeMeters>
            <DistanceMeters>NAN</DistanceMeters>
          </Trackpoint>
          <Trackpoint>
            <Time>2020-02-15T10:06:01.000Z</Time>
            <Position>
              <LatitudeDegrees>41.9708407111465930938720703125</LatitudeDegrees>
              <LongitudeDegrees>2.89344831369817256927490234375</LongitudeDegrees>
            </Position>
            <AltitudeMeters>316.79998779296875</AltitudeMeters>
            <DistanceMeters>NAN</DistanceMeters>
          </Trackpoint>
          <Trackpoint>
            <Time>2020-02-15T10:06:03.000Z</Time>
            <Position>
              <LatitudeDegrees>41.970812715590000152587890625</LatitudeDegrees>
              <LongitudeDegrees>2.8935179673135280609130859375</LongitudeDegrees>
            </Position>
            <AltitudeMeters>316.79998779296875</AltitudeMeters>
            <DistanceMeters>NAN</DistanceMeters>
          </Trackpoint>
          <Trackpoint>
            <Time>2020-02-15T10:06:05.000Z</Time>
            <Position>
              <LatitudeDegrees>41.97079217992722988128662109375</LatitudeDegrees>
              <LongitudeDegrees>2.89360664784908294677734375</LongitudeDegrees>
            </Position>
            <AltitudeMeters>316.600006103515625</AltitudeMeters>
            <DistanceMeters>NAN</DistanceMeters>
          </Trackpoint>
          <Trackpoint>
            <Time>2020-02-15T10:06:06.000Z</Time>
            <Position>
              <LatitudeDegrees>41.9707857258617877960205078125</LatitudeDegrees>
              <LongitudeDegrees>2.8936604596674442291259765625</LongitudeDegrees>
            </Position>
            <AltitudeMeters>316.399993896484375</AltitudeMeters>
            <DistanceMeters>NAN</DistanceMeters>
          </Trackpoint>
          <Trackpoint>
            <Time>2020-02-15T10:06:08.000Z</Time>
            <Position>
              <LatitudeDegrees>41.97075731121003627777099609375</LatitudeDegrees>
              <LongitudeDegrees>2.89376129396259784698486328125</LongitudeDegrees>
            </Position>
            <AltitudeMeters>316.399993896484375</AltitudeMeters>
            <DistanceMeters>NAN</DistanceMeters>
          </Trackpoint>
          <Trackpoint>
            <Time>2020-02-15T10:06:09.000Z</Time>
            <Position>
              <LatitudeDegrees>41.9707332551479339599609375</LatitudeDegrees>
              <LongitudeDegrees>2.893797419965267181396484375</LongitudeDegrees>
            </Position>
            <AltitudeMeters>316.399993896484375</AltitudeMeters>
            <DistanceMeters>NAN</DistanceMeters>
          </Trackpoint>
          <Trackpoint>
            <Time>2020-02-15T10:06:10.000Z</Time>
            <Position>
              <LatitudeDegrees>41.97071104310452938079833984375</LatitudeDegrees>
              <LongitudeDegrees>2.89381460286676883697509765625</LongitudeDegrees>
            </Position>
            <AltitudeMeters>316.399993896484375</AltitudeMeters>
            <DistanceMeters>NAN</DistanceMeters>
          </Trackpoint>
          <Trackpoint>
            <Time>2020-02-15T10:06:11.000Z</Time>
            <Position>
              <LatitudeDegrees>41.9706864841282367706298828125</LatitudeDegrees>
              <LongitudeDegrees>2.89381586015224456787109375</LongitudeDegrees>
            </Position>
            <AltitudeMeters>316.20001220703125</AltitudeMeters>
            <DistanceMeters>NAN</DistanceMeters>
          </Trackpoint>
          <Trackpoint>
            <Time>2020-02-15T10:06:12.000Z</Time>
            <Position>
              <LatitudeDegrees>41.97066511027514934539794921875</LatitudeDegrees>
              <LongitudeDegrees>2.893805466592311859130859375</LongitudeDegrees>
            </Position>
            <AltitudeMeters>316.20001220703125</AltitudeMeters>
            <DistanceMeters>NAN</DistanceMeters>
          </Trackpoint>
          <Trackpoint>
            <Time>2020-02-15T10:06:13.000Z</Time>
            <Position>
              <LatitudeDegrees>41.97064340114593505859375</LatitudeDegrees>
              <LongitudeDegrees>2.89378493092954158782958984375</LongitudeDegrees>
            </Position>
            <AltitudeMeters>316.20001220703125</AltitudeMeters>
            <DistanceMeters>NAN</DistanceMeters>
          </Trackpoint>
          <Trackpoint>
            <Time>2020-02-15T10:06:14.000Z</Time>
            <Position>
              <LatitudeDegrees>41.97062353603541851043701171875</LatitudeDegrees>
              <LongitudeDegrees>2.89376565255224704742431640625</LongitudeDegrees>
            </Position>
            <AltitudeMeters>316.20001220703125</AltitudeMeters>
            <DistanceMeters>NAN</DistanceMeters>
          </Trackpoint>
          <Trackpoint>
            <Time>2020-02-15T10:06:15.000Z</Time>
            <Position>
              <LatitudeDegrees>41.97060258127748966217041015625</LatitudeDegrees>
              <LongitudeDegrees>2.89375123567879199981689453125</LongitudeDegrees>
            </Position>
            <AltitudeMeters>316.20001220703125</AltitudeMeters>
            <DistanceMeters>NAN</DistanceMeters>
          </Trackpoint>
          <Trackpoint>
            <Time>2020-02-15T10:06:16.000Z</Time>
            <Position>
              <LatitudeDegrees>41.970582716166973114013671875</LatitudeDegrees>
              <LongitudeDegrees>2.89374084211885929107666015625</LongitudeDegrees>
            </Position>
            <AltitudeMeters>316.20001220703125</AltitudeMeters>
            <DistanceMeters>NAN</DistanceMeters>
          </Trackpoint>
          <Trackpoint>
            <Time>2020-02-15T10:06:17.000Z</Time>
            <Position>
              <LatitudeDegrees>41.970563940703868865966796875</LatitudeDegrees>
              <LongitudeDegrees>2.89373581297695636749267578125</LongitudeDegrees>
            </Position>
            <AltitudeMeters>316.20001220703125</AltitudeMeters>
            <DistanceMeters>NAN</DistanceMeters>
          </Trackpoint>
          <Trackpoint>
            <Time>2020-02-15T10:06:18.000Z</Time>
            <Position>
              <LatitudeDegrees>41.97054684162139892578125</LatitudeDegrees>
              <LongitudeDegrees>2.893733046948909759521484375</LongitudeDegrees>
            </Position>
            <AltitudeMeters>316.20001220703125</AltitudeMeters>
            <DistanceMeters>NAN</DistanceMeters>
          </Trackpoint>
          <Trackpoint>
            <Time>2020-02-15T10:06:19.000Z</Time>
            <Position>
              <LatitudeDegrees>41.9705332629382610321044921875</LatitudeDegrees>
              <LongitudeDegrees>2.8937358967959880828857421875</LongitudeDegrees>
            </Position>
            <AltitudeMeters>316.20001220703125</AltitudeMeters>
            <DistanceMeters>NAN</DistanceMeters>
          </Trackpoint>
          <Trackpoint>
            <Time>2020-02-15T10:06:20.000Z</Time>
            <Position>
              <LatitudeDegrees>41.97052345611155033111572265625</LatitudeDegrees>
              <LongitudeDegrees>2.8937432728707790374755859375</LongitudeDegrees>
            </Position>
            <AltitudeMeters>316.399993896484375</AltitudeMeters>
            <DistanceMeters>NAN</DistanceMeters>
          </Trackpoint>
          <Trackpoint>
            <Time>2020-02-15T10:06:21.000Z</Time>
            <Position>
              <LatitudeDegrees>41.97051691822707653045654296875</LatitudeDegrees>
              <LongitudeDegrees>2.89375157095491886138916015625</LongitudeDegrees>
            </Position>
            <AltitudeMeters>316.20001220703125</AltitudeMeters>
            <DistanceMeters>NAN</DistanceMeters>
          </Trackpoint>
          <Trackpoint>
            <Time>2020-02-15T10:06:22.000Z</Time>
            <Position>
              <LatitudeDegrees>41.9705081172287464141845703125</LatitudeDegrees>
              <LongitudeDegrees>2.89375693537294864654541015625</LongitudeDegrees>
            </Position>
            <AltitudeMeters>316.20001220703125</AltitudeMeters>
            <DistanceMeters>NAN</DistanceMeters>
          </Trackpoint>
          <Trackpoint>
            <Time>2020-02-15T10:06:23.000Z</Time>
            <Position>
              <LatitudeDegrees>41.97049797512590885162353515625</LatitudeDegrees>
              <LongitudeDegrees>2.89376028813421726226806640625</LongitudeDegrees>
            </Position>
            <AltitudeMeters>316.399993896484375</AltitudeMeters>
            <DistanceMeters>NAN</DistanceMeters>
          </Trackpoint>
          <Trackpoint>
            <Time>2020-02-15T10:06:24.000Z</Time>
            <Position>
              <LatitudeDegrees>41.97048640809953212738037109375</LatitudeDegrees>
              <LongitudeDegrees>2.89376431144773960113525390625</LongitudeDegrees>
            </Position>
            <AltitudeMeters>316.399993896484375</AltitudeMeters>
            <DistanceMeters>NAN</DistanceMeters>
          </Trackpoint>
          <Trackpoint>
            <Time>2020-02-15T10:06:25.000Z</Time>
            <Position>
              <LatitudeDegrees>41.9704702310264110565185546875</LatitudeDegrees>
              <LongitudeDegrees>2.89376548491418361663818359375</LongitudeDegrees>
            </Position>
            <AltitudeMeters>316.79998779296875</AltitudeMeters>
            <DistanceMeters>NAN</DistanceMeters>
          </Trackpoint>
          <Trackpoint>
            <Time>2020-02-15T10:06:26.000Z</Time>
            <Position>
              <LatitudeDegrees>41.97045422159135341644287109375</LatitudeDegrees>
              <LongitudeDegrees>2.8937684185802936553955078125</LongitudeDegrees>
            </Position>
            <AltitudeMeters>317</AltitudeMeters>
            <DistanceMeters>NAN</DistanceMeters>
          </Trackpoint>
          <Trackpoint>
            <Time>2020-02-15T10:06:27.000Z</Time>
            <Position>
              <LatitudeDegrees>41.97044064290821552276611328125</LatitudeDegrees>
              <LongitudeDegrees>2.893775291740894317626953125</LongitudeDegrees>
            </Position>
            <AltitudeMeters>317</AltitudeMeters>
            <DistanceMeters>NAN</DistanceMeters>
          </Trackpoint>
          <Trackpoint>
            <Time>2020-02-15T10:06:28.000Z</Time>
            <Position>
              <LatitudeDegrees>41.97042522020637989044189453125</LatitudeDegrees>
              <LongitudeDegrees>2.89378392510116100311279296875</LongitudeDegrees>
            </Position>
            <AltitudeMeters>317.20001220703125</AltitudeMeters>
            <DistanceMeters>NAN</DistanceMeters>
          </Trackpoint>
          <Trackpoint>
            <Time>2020-02-15T10:06:30.000Z</Time>
            <Position>
              <LatitudeDegrees>41.9703971408307552337646484375</LatitudeDegrees>
              <LongitudeDegrees>2.89380135945975780487060546875</LongitudeDegrees>
            </Position>
            <AltitudeMeters>317.399993896484375</AltitudeMeters>
            <DistanceMeters>NAN</DistanceMeters>
          </Trackpoint>
          <Trackpoint>
            <Time>2020-02-15T10:06:32.000Z</Time>
            <Position>
              <LatitudeDegrees>41.970369480550289154052734375</LatitudeDegrees>
              <LongitudeDegrees>2.89381661452353000640869140625</LongitudeDegrees>
            </Position>
            <AltitudeMeters>317.79998779296875</AltitudeMeters>
            <DistanceMeters>NAN</DistanceMeters>
          </Trackpoint>
          <Trackpoint>
            <Time>2020-02-15T10:06:34.000Z</Time>
            <Position>
              <LatitudeDegrees>41.97033695876598358154296875</LatitudeDegrees>
              <LongitudeDegrees>2.893836311995983123779296875</LongitudeDegrees>
            </Position>
            <AltitudeMeters>317.79998779296875</AltitudeMeters>
            <DistanceMeters>NAN</DistanceMeters>
          </Trackpoint>
          <Trackpoint>
            <Time>2020-02-15T10:06:35.000Z</Time>
            <Position>
              <LatitudeDegrees>41.97031977586448192596435546875</LatitudeDegrees>
              <LongitudeDegrees>2.893846370279788970947265625</LongitudeDegrees>
            </Position>
            <AltitudeMeters>318</AltitudeMeters>
            <DistanceMeters>NAN</DistanceMeters>
          </Trackpoint>
          <Trackpoint>
            <Time>2020-02-15T10:06:36.000Z</Time>
            <Position>
              <LatitudeDegrees>41.97030544281005859375</LatitudeDegrees>
              <LongitudeDegrees>2.89385349489748477935791015625</LongitudeDegrees>
            </Position>
            <AltitudeMeters>318</AltitudeMeters>
            <DistanceMeters>NAN</DistanceMeters>
          </Trackpoint>
          <Trackpoint>
            <Time>2020-02-15T10:06:37.000Z</Time>
            <Position>
              <LatitudeDegrees>41.9702925346791744232177734375</LatitudeDegrees>
              <LongitudeDegrees>2.8938596136868000030517578125</LongitudeDegrees>
            </Position>
            <AltitudeMeters>318.20001220703125</AltitudeMeters>
            <DistanceMeters>NAN</DistanceMeters>
          </Trackpoint>
          <Trackpoint>
            <Time>2020-02-15T10:06:38.000Z</Time>
            <Position>
              <LatitudeDegrees>41.97027660906314849853515625</LatitudeDegrees>
              <LongitudeDegrees>2.893866486847400665283203125</LongitudeDegrees>
            </Position>
            <AltitudeMeters>318.20001220703125</AltitudeMeters>
            <DistanceMeters>NAN</DistanceMeters>
          </Trackpoint>
          <Trackpoint>
            <Time>2020-02-15T10:06:39.000Z</Time>
            <Position>
              <LatitudeDegrees>41.97026194073259830474853515625</LatitudeDegrees>
              <LongitudeDegrees>2.89387277327477931976318359375</LongitudeDegrees>
            </Position>
            <AltitudeMeters>318.399993896484375</AltitudeMeters>
            <DistanceMeters>NAN</DistanceMeters>
          </Trackpoint>
          <Trackpoint>
            <Time>2020-02-15T10:06:40.000Z</Time>
            <Position>
              <LatitudeDegrees>41.97024836204946041107177734375</LatitudeDegrees>
              <LongitudeDegrees>2.8938767127692699432373046875</LongitudeDegrees>
            </Position>
            <AltitudeMeters>318.399993896484375</AltitudeMeters>
            <DistanceMeters>NAN</DistanceMeters>
          </Trackpoint>
          <Trackpoint>
            <Time>2020-02-15T10:06:41.000Z</Time>
            <Position>
              <LatitudeDegrees>41.97023478336632251739501953125</LatitudeDegrees>
              <LongitudeDegrees>2.89387931115925312042236328125</LongitudeDegrees>
            </Position>
            <AltitudeMeters>318.600006103515625</AltitudeMeters>
            <DistanceMeters>NAN</DistanceMeters>
          </Trackpoint>
          <Trackpoint>
            <Time>2020-02-15T10:06:42.000Z</Time>
            <Position>
              <LatitudeDegrees>41.97022003121674060821533203125</LatitudeDegrees>
              <LongitudeDegrees>2.89388216100633144378662109375</LongitudeDegrees>
            </Position>
            <AltitudeMeters>318.79998779296875</AltitudeMeters>
            <DistanceMeters>NAN</DistanceMeters>
          </Trackpoint>
          <Trackpoint>
            <Time>2020-02-15T10:06:43.000Z</Time>
            <Position>
              <LatitudeDegrees>41.97020309977233409881591796875</LatitudeDegrees>
              <LongitudeDegrees>2.89388434030115604400634765625</LongitudeDegrees>
            </Position>
            <AltitudeMeters>319</AltitudeMeters>
            <DistanceMeters>NAN</DistanceMeters>
          </Trackpoint>
          <Trackpoint>
            <Time>2020-02-15T10:06:44.000Z</Time>
            <Position>
              <LatitudeDegrees>41.97018650360405445098876953125</LatitudeDegrees>
              <LongitudeDegrees>2.8938867710530757904052734375</LongitudeDegrees>
            </Position>
            <AltitudeMeters>319.399993896484375</AltitudeMeters>
            <DistanceMeters>NAN</DistanceMeters>
          </Trackpoint>
          <Trackpoint>
            <Time>2020-02-15T10:06:45.000Z</Time>
            <Position>
              <LatitudeDegrees>41.970171667635440826416015625</LatitudeDegrees>
              <LongitudeDegrees>2.89389138109982013702392578125</LongitudeDegrees>
            </Position>
            <AltitudeMeters>319.399993896484375</AltitudeMeters>
            <DistanceMeters>NAN</DistanceMeters>
          </Trackpoint>
          <Trackpoint>
            <Time>2020-02-15T10:06:46.000Z</Time>
            <Position>
              <LatitudeDegrees>41.970157586038112640380859375</LatitudeDegrees>
              <LongitudeDegrees>2.8938938118517398834228515625</LongitudeDegrees>
            </Position>
            <AltitudeMeters>319.399993896484375</AltitudeMeters>
            <DistanceMeters>NAN</DistanceMeters>
          </Trackpoint>
          <Trackpoint>
            <Time>2020-02-15T10:06:47.000Z</Time>
            <Position>
              <LatitudeDegrees>41.97014258243143558502197265625</LatitudeDegrees>
              <LongitudeDegrees>2.8938964940607547760009765625</LongitudeDegrees>
            </Position>
            <AltitudeMeters>319.600006103515625</AltitudeMeters>
            <DistanceMeters>NAN</DistanceMeters>
          </Trackpoint>
          <Trackpoint>
            <Time>2020-02-15T10:06:48.000Z</Time>
            <Position>
              <LatitudeDegrees>41.970127411186695098876953125</LatitudeDegrees>
              <LongitudeDegrees>2.89390060119330883026123046875</LongitudeDegrees>
            </Position>
            <AltitudeMeters>319.79998779296875</AltitudeMeters>
            <DistanceMeters>NAN</DistanceMeters>
          </Trackpoint>
          <Trackpoint>
            <Time>2020-02-15T10:06:49.000Z</Time>
            <Position>
              <LatitudeDegrees>41.97011341340839862823486328125</LatitudeDegrees>
              <LongitudeDegrees>2.8939038701355457305908203125</LongitudeDegrees>
            </Position>
            <AltitudeMeters>320</AltitudeMeters>
            <DistanceMeters>NAN</DistanceMeters>
          </Trackpoint>
          <Trackpoint>
            <Time>2020-02-15T10:06:50.000Z</Time>
            <Position>
              <LatitudeDegrees>41.970099918544292449951171875</LatitudeDegrees>
              <LongitudeDegrees>2.89390747435390949249267578125</LongitudeDegrees>
            </Position>
            <AltitudeMeters>320.20001220703125</AltitudeMeters>
            <DistanceMeters>NAN</DistanceMeters>
          </Trackpoint>
          <Trackpoint>
            <Time>2020-02-15T10:06:51.000Z</Time>
            <Position>
              <LatitudeDegrees>41.9700839929282665252685546875</LatitudeDegrees>
              <LongitudeDegrees>2.893912754952907562255859375</LongitudeDegrees>
            </Position>
            <AltitudeMeters>320.20001220703125</AltitudeMeters>
            <DistanceMeters>NAN</DistanceMeters>
          </Trackpoint>
          <Trackpoint>
            <Time>2020-02-15T10:06:52.000Z</Time>
            <Position>
              <LatitudeDegrees>41.97006815113127231597900390625</LatitudeDegrees>
              <LongitudeDegrees>2.893918454647064208984375</LongitudeDegrees>
            </Position>
            <AltitudeMeters>320.79998779296875</AltitudeMeters>
            <DistanceMeters>NAN</DistanceMeters>
          </Trackpoint>
          <Trackpoint>
            <Time>2020-02-15T10:06:53.000Z</Time>
            <Position>
              <LatitudeDegrees>41.97005289606750011444091796875</LatitudeDegrees>
              <LongitudeDegrees>2.89392314851284027099609375</LongitudeDegrees>
            </Position>
            <AltitudeMeters>320.79998779296875</AltitudeMeters>
            <DistanceMeters>NAN</DistanceMeters>
          </Trackpoint>
          <Trackpoint>
            <Time>2020-02-15T10:06:54.000Z</Time>
            <Position>
              <LatitudeDegrees>41.97003831155598163604736328125</LatitudeDegrees>
              <LongitudeDegrees>2.8939278423786163330078125</LongitudeDegrees>
            </Position>
            <AltitudeMeters>321.20001220703125</AltitudeMeters>
            <DistanceMeters>NAN</DistanceMeters>
          </Trackpoint>
          <Trackpoint>
            <Time>2020-02-15T10:06:55.000Z</Time>
            <Position>
              <LatitudeDegrees>41.97002112865447998046875</LatitudeDegrees>
              <LongitudeDegrees>2.89393211714923381805419921875</LongitudeDegrees>
            </Position>
            <AltitudeMeters>321.399993896484375</AltitudeMeters>
            <DistanceMeters>NAN</DistanceMeters>
          </Trackpoint>
          <Trackpoint>
            <Time>2020-02-15T10:06:56.000Z</Time>
            <Position>
              <LatitudeDegrees>41.970003359019756317138671875</LatitudeDegrees>
              <LongitudeDegrees>2.89393815211951732635498046875</LongitudeDegrees>
            </Position>
            <AltitudeMeters>321.600006103515625</AltitudeMeters>
            <DistanceMeters>NAN</DistanceMeters>
          </Trackpoint>
          <Trackpoint>
            <Time>2020-02-15T10:06:57.000Z</Time>
            <Position>
              <LatitudeDegrees>41.96998634375631809234619140625</LatitudeDegrees>
              <LongitudeDegrees>2.89394552819430828094482421875</LongitudeDegrees>
            </Position>
            <AltitudeMeters>321.600006103515625</AltitudeMeters>
            <DistanceMeters>NAN</DistanceMeters>
          </Trackpoint>
          <Trackpoint>
            <Time>2020-02-15T10:06:58.000Z</Time>
            <Position>
              <LatitudeDegrees>41.96996773593127727508544921875</LatitudeDegrees>
              <LongitudeDegrees>2.89395089261233806610107421875</LongitudeDegrees>
            </Position>
            <AltitudeMeters>321.79998779296875</AltitudeMeters>
            <DistanceMeters>NAN</DistanceMeters>
          </Trackpoint>
          <Trackpoint>
            <Time>2020-02-15T10:06:59.000Z</Time>
            <Position>
              <LatitudeDegrees>41.9699500501155853271484375</LatitudeDegrees>
              <LongitudeDegrees>2.8939533233642578125</LongitudeDegrees>
            </Position>
            <AltitudeMeters>322</AltitudeMeters>
            <DistanceMeters>NAN</DistanceMeters>
          </Trackpoint>
          <Trackpoint>
            <Time>2020-02-15T10:07:00.000Z</Time>
            <Position>
              <LatitudeDegrees>41.9699307717382907867431640625</LatitudeDegrees>
              <LongitudeDegrees>2.89395265281200408935546875</LongitudeDegrees>
            </Position>
            <AltitudeMeters>322.20001220703125</AltitudeMeters>
            <DistanceMeters>NAN</DistanceMeters>
          </Trackpoint>
          <Trackpoint>
            <Time>2020-02-15T10:07:01.000Z</Time>
            <Position>
              <LatitudeDegrees>41.9699133373796939849853515625</LatitudeDegrees>
              <LongitudeDegrees>2.8939534910023212432861328125</LongitudeDegrees>
            </Position>
            <AltitudeMeters>322.600006103515625</AltitudeMeters>
            <DistanceMeters>NAN</DistanceMeters>
          </Trackpoint>
          <Trackpoint>
            <Time>2020-02-15T10:07:02.000Z</Time>
            <Position>
              <LatitudeDegrees>41.9698937237262725830078125</LatitudeDegrees>
              <LongitudeDegrees>2.8939571790397167205810546875</LongitudeDegrees>
            </Position>
            <AltitudeMeters>323</AltitudeMeters>
            <DistanceMeters>NAN</DistanceMeters>
          </Trackpoint>
          <Trackpoint>
            <Time>2020-02-15T10:07:03.000Z</Time>
            <Position>
              <LatitudeDegrees>41.96987335570156574249267578125</LatitudeDegrees>
              <LongitudeDegrees>2.89396204054355621337890625</LongitudeDegrees>
            </Position>
            <AltitudeMeters>323.399993896484375</AltitudeMeters>
            <DistanceMeters>NAN</DistanceMeters>
          </Trackpoint>
          <Trackpoint>
            <Time>2020-02-15T10:07:04.000Z</Time>
            <Position>
              <LatitudeDegrees>41.96985458023846149444580078125</LatitudeDegrees>
              <LongitudeDegrees>2.89396866224706172943115234375</LongitudeDegrees>
            </Position>
            <AltitudeMeters>323.79998779296875</AltitudeMeters>
            <DistanceMeters>NAN</DistanceMeters>
          </Trackpoint>
          <Trackpoint>
            <Time>2020-02-15T10:07:05.000Z</Time>
            <Position>
              <LatitudeDegrees>41.96983681060373783111572265625</LatitudeDegrees>
              <LongitudeDegrees>2.8939761221408843994140625</LongitudeDegrees>
            </Position>
            <AltitudeMeters>324.20001220703125</AltitudeMeters>
            <DistanceMeters>NAN</DistanceMeters>
          </Trackpoint>
          <Trackpoint>
            <Time>2020-02-15T10:07:06.000Z</Time>
            <Position>
              <LatitudeDegrees>41.9698201306164264678955078125</LatitudeDegrees>
              <LongitudeDegrees>2.89398475550115108489990234375</LongitudeDegrees>
            </Position>
            <AltitudeMeters>324.399993896484375</AltitudeMeters>
            <DistanceMeters>NAN</DistanceMeters>
          </Trackpoint>
          <Trackpoint>
            <Time>2020-02-15T10:07:07.000Z</Time>
            <Position>
              <LatitudeDegrees>41.9698033668100833892822265625</LatitudeDegrees>
              <LongitudeDegrees>2.89399447850883007049560546875</LongitudeDegrees>
            </Position>
            <AltitudeMeters>324.399993896484375</AltitudeMeters>
            <DistanceMeters>NAN</DistanceMeters>
          </Trackpoint>
          <Trackpoint>
            <Time>2020-02-15T10:07:08.000Z</Time>
            <Position>
              <LatitudeDegrees>41.96978953666985034942626953125</LatitudeDegrees>
              <LongitudeDegrees>2.894005291163921356201171875</LongitudeDegrees>
            </Position>
            <AltitudeMeters>324.600006103515625</AltitudeMeters>
            <DistanceMeters>NAN</DistanceMeters>
          </Trackpoint>
          <Trackpoint>
            <Time>2020-02-15T10:07:09.000Z</Time>
            <Position>
              <LatitudeDegrees>41.96977612562477588653564453125</LatitudeDegrees>
              <LongitudeDegrees>2.89401593618094921112060546875</LongitudeDegrees>
            </Position>
            <AltitudeMeters>325</AltitudeMeters>
            <DistanceMeters>NAN</DistanceMeters>
          </Trackpoint>
          <Trackpoint>
            <Time>2020-02-15T10:07:10.000Z</Time>
            <Position>
              <LatitudeDegrees>41.969760954380035400390625</LatitudeDegrees>
              <LongitudeDegrees>2.89402683265507221221923828125</LongitudeDegrees>
            </Position>
            <AltitudeMeters>325</AltitudeMeters>
            <DistanceMeters>NAN</DistanceMeters>
          </Trackpoint>
          <Trackpoint>
            <Time>2020-02-15T10:07:11.000Z</Time>
            <Position>
              <LatitudeDegrees>41.96974226273596286773681640625</LatitudeDegrees>
              <LongitudeDegrees>2.8940386511385440826416015625</LongitudeDegrees>
            </Position>
            <AltitudeMeters>325.399993896484375</AltitudeMeters>
            <DistanceMeters>NAN</DistanceMeters>
          </Trackpoint>
          <Trackpoint>
            <Time>2020-02-15T10:07:12.000Z</Time>
            <Position>
              <LatitudeDegrees>41.96972264908254146575927734375</LatitudeDegrees>
              <LongitudeDegrees>2.89404896087944507598876953125</LongitudeDegrees>
            </Position>
            <AltitudeMeters>325.399993896484375</AltitudeMeters>
            <DistanceMeters>NAN</DistanceMeters>
          </Trackpoint>
          <Trackpoint>
            <Time>2020-02-15T10:07:13.000Z</Time>
            <Position>
              <LatitudeDegrees>41.96970504708588123321533203125</LatitudeDegrees>
              <LongitudeDegrees>2.89406019262969493865966796875</LongitudeDegrees>
            </Position>
            <AltitudeMeters>325.399993896484375</AltitudeMeters>
            <DistanceMeters>NAN</DistanceMeters>
          </Trackpoint>
          <Trackpoint>
            <Time>2020-02-15T10:07:14.000Z</Time>
            <Position>
              <LatitudeDegrees>41.9696897082030773162841796875</LatitudeDegrees>
              <LongitudeDegrees>2.894074022769927978515625</LongitudeDegrees>
            </Position>
            <AltitudeMeters>325.600006103515625</AltitudeMeters>
            <DistanceMeters>NAN</DistanceMeters>
          </Trackpoint>
          <Trackpoint>
            <Time>2020-02-15T10:07:15.000Z</Time>
            <Position>
              <LatitudeDegrees>41.96967420168220996856689453125</LatitudeDegrees>
              <LongitudeDegrees>2.89408676326274871826171875</LongitudeDegrees>
            </Position>
            <AltitudeMeters>326</AltitudeMeters>
            <DistanceMeters>NAN</DistanceMeters>
          </Trackpoint>
          <Trackpoint>
            <Time>2020-02-15T10:07:16.000Z</Time>
            <Position>
              <LatitudeDegrees>41.96965777315199375152587890625</LatitudeDegrees>
              <LongitudeDegrees>2.89410025812685489654541015625</LongitudeDegrees>
            </Position>
            <AltitudeMeters>326.20001220703125</AltitudeMeters>
            <DistanceMeters>NAN</DistanceMeters>
          </Trackpoint>
          <Trackpoint>
            <Time>2020-02-15T10:07:17.000Z</Time>
            <Position>
              <LatitudeDegrees>41.9696424342691898345947265625</LatitudeDegrees>
              <LongitudeDegrees>2.89411769248545169830322265625</LongitudeDegrees>
            </Position>
            <AltitudeMeters>326.399993896484375</AltitudeMeters>
            <DistanceMeters>NAN</DistanceMeters>
          </Trackpoint>
          <Trackpoint>
            <Time>2020-02-15T10:07:18.000Z</Time>
            <Position>
              <LatitudeDegrees>41.96963061578571796417236328125</LatitudeDegrees>
              <LongitudeDegrees>2.89413462392985820770263671875</LongitudeDegrees>
            </Position>
            <AltitudeMeters>326.600006103515625</AltitudeMeters>
            <DistanceMeters>NAN</DistanceMeters>
          </Trackpoint>
          <Trackpoint>
            <Time>2020-02-15T10:07:19.000Z</Time>
            <Position>
              <LatitudeDegrees>41.96961938403546810150146484375</LatitudeDegrees>
              <LongitudeDegrees>2.8941477835178375244140625</LongitudeDegrees>
            </Position>
            <AltitudeMeters>326.79998779296875</AltitudeMeters>
            <DistanceMeters>NAN</DistanceMeters>
          </Trackpoint>
          <Trackpoint>
            <Time>2020-02-15T10:07:20.000Z</Time>
            <Position>
              <LatitudeDegrees>41.96961033158004283905029296875</LatitudeDegrees>
              <LongitudeDegrees>2.894159518182277679443359375</LongitudeDegrees>
            </Position>
            <AltitudeMeters>327</AltitudeMeters>
            <DistanceMeters>NAN</DistanceMeters>
          </Trackpoint>
          <Trackpoint>
            <Time>2020-02-15T10:07:21.000Z</Time>
            <Position>
              <LatitudeDegrees>41.9696011953055858612060546875</LatitudeDegrees>
              <LongitudeDegrees>2.89416831918060779571533203125</LongitudeDegrees>
            </Position>
            <AltitudeMeters>327.20001220703125</AltitudeMeters>
            <DistanceMeters>NAN</DistanceMeters>
          </Trackpoint>
          <Trackpoint>
            <Time>2020-02-15T10:07:22.000Z</Time>
            <Position>
              <LatitudeDegrees>41.9695891253650188446044921875</LatitudeDegrees>
              <LongitudeDegrees>2.89417636580765247344970703125</LongitudeDegrees>
            </Position>
            <AltitudeMeters>327.20001220703125</AltitudeMeters>
            <DistanceMeters>NAN</DistanceMeters>
          </Trackpoint>
          <Trackpoint>
            <Time>2020-02-15T10:07:23.000Z</Time>
            <Position>
              <LatitudeDegrees>41.96957764215767383575439453125</LatitudeDegrees>
              <LongitudeDegrees>2.89418776519596576690673828125</LongitudeDegrees>
            </Position>
            <AltitudeMeters>327.399993896484375</AltitudeMeters>
            <DistanceMeters>NAN</DistanceMeters>
          </Trackpoint>
          <Trackpoint>
            <Time>2020-02-15T10:07:24.000Z</Time>
            <Position>
              <LatitudeDegrees>41.96956490166485309600830078125</LatitudeDegrees>
              <LongitudeDegrees>2.89419849403202533721923828125</LongitudeDegrees>
            </Position>
            <AltitudeMeters>327.600006103515625</AltitudeMeters>
            <DistanceMeters>NAN</DistanceMeters>
          </Trackpoint>
          <Trackpoint>
            <Time>2020-02-15T10:07:25.000Z</Time>
            <Position>
              <LatitudeDegrees>41.96954998187720775604248046875</LatitudeDegrees>
              <LongitudeDegrees>2.894206456840038299560546875</LongitudeDegrees>
            </Position>
            <AltitudeMeters>327.79998779296875</AltitudeMeters>
            <DistanceMeters>NAN</DistanceMeters>
          </Trackpoint>
          <Trackpoint>
            <Time>2020-02-15T10:07:26.000Z</Time>
            <Position>
              <LatitudeDegrees>41.9695348106324672698974609375</LatitudeDegrees>
              <LongitudeDegrees>2.89421416819095611572265625</LongitudeDegrees>
            </Position>
            <AltitudeMeters>327.79998779296875</AltitudeMeters>
            <DistanceMeters>NAN</DistanceMeters>
          </Trackpoint>
          <Trackpoint>
            <Time>2020-02-15T10:07:27.000Z</Time>
            <Position>
              <LatitudeDegrees>41.96951930411159992218017578125</LatitudeDegrees>
              <LongitudeDegrees>2.89422196336090564727783203125</LongitudeDegrees>
            </Position>
            <AltitudeMeters>327.79998779296875</AltitudeMeters>
            <DistanceMeters>NAN</DistanceMeters>
          </Trackpoint>
          <Trackpoint>
            <Time>2020-02-15T10:07:28.000Z</Time>
            <Position>
              <LatitudeDegrees>41.96950438432395458221435546875</LatitudeDegrees>
              <LongitudeDegrees>2.89422984234988689422607421875</LongitudeDegrees>
            </Position>
            <AltitudeMeters>327.79998779296875</AltitudeMeters>
            <DistanceMeters>NAN</DistanceMeters>
          </Trackpoint>
          <Trackpoint>
            <Time>2020-02-15T10:07:29.000Z</Time>
            <Position>
              <LatitudeDegrees>41.96949013508856296539306640625</LatitudeDegrees>
              <LongitudeDegrees>2.8942357935011386871337890625</LongitudeDegrees>
            </Position>
            <AltitudeMeters>328</AltitudeMeters>
            <DistanceMeters>NAN</DistanceMeters>
          </Trackpoint>
          <Trackpoint>
            <Time>2020-02-15T10:07:30.000Z</Time>
            <Position>
              <LatitudeDegrees>41.96947555057704448699951171875</LatitudeDegrees>
              <LongitudeDegrees>2.89423738606274127960205078125</LongitudeDegrees>
            </Position>
            <AltitudeMeters>328</AltitudeMeters>
            <DistanceMeters>NAN</DistanceMeters>
          </Trackpoint>
          <Trackpoint>
            <Time>2020-02-15T10:07:31.000Z</Time>
            <Position>
              <LatitudeDegrees>41.96946096606552600860595703125</LatitudeDegrees>
              <LongitudeDegrees>2.89423621259629726409912109375</LongitudeDegrees>
            </Position>
            <AltitudeMeters>328.20001220703125</AltitudeMeters>
            <DistanceMeters>NAN</DistanceMeters>
          </Trackpoint>
          <Trackpoint>
            <Time>2020-02-15T10:07:32.000Z</Time>
            <Position>
              <LatitudeDegrees>41.9694456271827220916748046875</LatitudeDegrees>
              <LongitudeDegrees>2.89423537440598011016845703125</LongitudeDegrees>
            </Position>
            <AltitudeMeters>328.399993896484375</AltitudeMeters>
            <DistanceMeters>NAN</DistanceMeters>
          </Trackpoint>
          <Trackpoint>
            <Time>2020-02-15T10:07:34.000Z</Time>
            <Position>
              <LatitudeDegrees>41.96941117756068706512451171875</LatitudeDegrees>
              <LongitudeDegrees>2.894233278930187225341796875</LongitudeDegrees>
            </Position>
            <AltitudeMeters>328.399993896484375</AltitudeMeters>
            <DistanceMeters>NAN</DistanceMeters>
          </Trackpoint>
          <Trackpoint>
            <Time>2020-02-15T10:07:35.000Z</Time>
            <Position>
              <LatitudeDegrees>41.96939441375434398651123046875</LatitudeDegrees>
              <LongitudeDegrees>2.89423151873052120208740234375</LongitudeDegrees>
            </Position>
            <AltitudeMeters>328.600006103515625</AltitudeMeters>
            <DistanceMeters>NAN</DistanceMeters>
          </Trackpoint>
          <Trackpoint>
            <Time>2020-02-15T10:07:36.000Z</Time>
            <Position>
              <LatitudeDegrees>41.96937806904315948486328125</LatitudeDegrees>
              <LongitudeDegrees>2.894228585064411163330078125</LongitudeDegrees>
            </Position>
            <AltitudeMeters>328.600006103515625</AltitudeMeters>
            <DistanceMeters>NAN</DistanceMeters>
          </Trackpoint>
          <Trackpoint>
            <Time>2020-02-15T10:07:38.000Z</Time>
            <Position>
              <LatitudeDegrees>41.96934864856302738189697265625</LatitudeDegrees>
              <LongitudeDegrees>2.8942233882844448089599609375</LongitudeDegrees>
            </Position>
            <AltitudeMeters>328.79998779296875</AltitudeMeters>
            <DistanceMeters>NAN</DistanceMeters>
          </Trackpoint>
          <Trackpoint>
            <Time>2020-02-15T10:07:39.000Z</Time>
            <Position>
              <LatitudeDegrees>41.96933222003281116485595703125</LatitudeDegrees>
              <LongitudeDegrees>2.894220538437366485595703125</LongitudeDegrees>
            </Position>
            <AltitudeMeters>328.79998779296875</AltitudeMeters>
            <DistanceMeters>NAN</DistanceMeters>
          </Trackpoint>
          <Trackpoint>
            <Time>2020-02-15T10:07:41.000Z</Time>
            <Position>
              <LatitudeDegrees>41.96930162608623504638671875</LatitudeDegrees>
              <LongitudeDegrees>2.89422196336090564727783203125</LongitudeDegrees>
            </Position>
            <AltitudeMeters>328.79998779296875</AltitudeMeters>
            <DistanceMeters>NAN</DistanceMeters>
          </Trackpoint>
          <Trackpoint>
            <Time>2020-02-15T10:07:42.000Z</Time>
            <Position>
              <LatitudeDegrees>41.96928729303181171417236328125</LatitudeDegrees>
              <LongitudeDegrees>2.89422363974153995513916015625</LongitudeDegrees>
            </Position>
            <AltitudeMeters>329</AltitudeMeters>
            <DistanceMeters>NAN</DistanceMeters>
          </Trackpoint>
          <Trackpoint>
            <Time>2020-02-15T10:07:44.000Z</Time>
            <Position>
              <LatitudeDegrees>41.9692588783800601959228515625</LatitudeDegrees>
              <LongitudeDegrees>2.8942250646650791168212890625</LongitudeDegrees>
            </Position>
            <AltitudeMeters>329</AltitudeMeters>
            <DistanceMeters>NAN</DistanceMeters>
          </Trackpoint>
          <Trackpoint>
            <Time>2020-02-15T10:07:45.000Z</Time>
            <Position>
              <LatitudeDegrees>41.9692446291446685791015625</LatitudeDegrees>
              <LongitudeDegrees>2.8942290879786014556884765625</LongitudeDegrees>
            </Position>
            <AltitudeMeters>329</AltitudeMeters>
            <DistanceMeters>NAN</DistanceMeters>
          </Trackpoint>
          <Trackpoint>
            <Time>2020-02-15T10:07:46.000Z</Time>
            <Position>
              <LatitudeDegrees>41.96923012845218181610107421875</LatitudeDegrees>
              <LongitudeDegrees>2.8942337818443775177001953125</LongitudeDegrees>
            </Position>
            <AltitudeMeters>329.20001220703125</AltitudeMeters>
            <DistanceMeters>NAN</DistanceMeters>
          </Trackpoint>
          <Trackpoint>
            <Time>2020-02-15T10:07:47.000Z</Time>
            <Position>
              <LatitudeDegrees>41.9692166335880756378173828125</LatitudeDegrees>
              <LongitudeDegrees>2.89423830807209014892578125</LongitudeDegrees>
            </Position>
            <AltitudeMeters>329.20001220703125</AltitudeMeters>
            <DistanceMeters>NAN</DistanceMeters>
          </Trackpoint>
          <Trackpoint>
            <Time>2020-02-15T10:07:48.000Z</Time>
            <Position>
              <LatitudeDegrees>41.96920196525752544403076171875</LatitudeDegrees>
              <LongitudeDegrees>2.89424291811883449554443359375</LongitudeDegrees>
            </Position>
            <AltitudeMeters>329.20001220703125</AltitudeMeters>
            <DistanceMeters>NAN</DistanceMeters>
          </Trackpoint>
          <Trackpoint>
            <Time>2020-02-15T10:07:49.000Z</Time>
            <Position>
              <LatitudeDegrees>41.9691881351172924041748046875</LatitudeDegrees>
              <LongitudeDegrees>2.894248031079769134521484375</LongitudeDegrees>
            </Position>
            <AltitudeMeters>329.20001220703125</AltitudeMeters>
            <DistanceMeters>NAN</DistanceMeters>
          </Trackpoint>
          <Trackpoint>
            <Time>2020-02-15T10:07:50.000Z</Time>
            <Position>
              <LatitudeDegrees>41.9691723771393299102783203125</LatitudeDegrees>
              <LongitudeDegrees>2.89425163529813289642333984375</LongitudeDegrees>
            </Position>
            <AltitudeMeters>329.399993896484375</AltitudeMeters>
            <DistanceMeters>NAN</DistanceMeters>
          </Trackpoint>
          <Trackpoint>
            <Time>2020-02-15T10:07:51.000Z</Time>
            <Position>
              <LatitudeDegrees>41.9691574573516845703125</LatitudeDegrees>
              <LongitudeDegrees>2.89425515569746494293212890625</LongitudeDegrees>
            </Position>
            <AltitudeMeters>329.399993896484375</AltitudeMeters>
            <DistanceMeters>NAN</DistanceMeters>
          </Trackpoint>
          <Trackpoint>
            <Time>2020-02-15T10:07:52.000Z</Time>
            <Position>
              <LatitudeDegrees>41.9691442139446735382080078125</LatitudeDegrees>
              <LongitudeDegrees>2.8942616097629070281982421875</LongitudeDegrees>
            </Position>
            <AltitudeMeters>329.600006103515625</AltitudeMeters>
            <DistanceMeters>NAN</DistanceMeters>
          </Trackpoint>
          <Trackpoint>
            <Time>2020-02-15T10:07:53.000Z</Time>
            <Position>
              <LatitudeDegrees>41.96912996470928192138671875</LatitudeDegrees>
              <LongitudeDegrees>2.894268147647380828857421875</LongitudeDegrees>
            </Position>
            <AltitudeMeters>329.79998779296875</AltitudeMeters>
            <DistanceMeters>NAN</DistanceMeters>
          </Trackpoint>
          <Trackpoint>
            <Time>2020-02-15T10:07:54.000Z</Time>
            <Position>
              <LatitudeDegrees>41.9691150449216365814208984375</LatitudeDegrees>
              <LongitudeDegrees>2.894274853169918060302734375</LongitudeDegrees>
            </Position>
            <AltitudeMeters>330</AltitudeMeters>
            <DistanceMeters>NAN</DistanceMeters>
          </Trackpoint>
          <Trackpoint>
            <Time>2020-02-15T10:07:55.000Z</Time>
            <Position>
              <LatitudeDegrees>41.9691012986004352569580078125</LatitudeDegrees>
              <LongitudeDegrees>2.89428130723536014556884765625</LongitudeDegrees>
            </Position>
            <AltitudeMeters>330</AltitudeMeters>
            <DistanceMeters>NAN</DistanceMeters>
          </Trackpoint>
          <Trackpoint>
            <Time>2020-02-15T10:07:56.000Z</Time>
            <Position>
              <LatitudeDegrees>41.969085037708282470703125</LatitudeDegrees>
              <LongitudeDegrees>2.89428767748177051544189453125</LongitudeDegrees>
            </Position>
            <AltitudeMeters>330</AltitudeMeters>
            <DistanceMeters>NAN</DistanceMeters>
          </Trackpoint>
          <Trackpoint>
            <Time>2020-02-15T10:07:57.000Z</Time>
            <Position>
              <LatitudeDegrees>41.96906751953065395355224609375</LatitudeDegrees>
              <LongitudeDegrees>2.8942974843084812164306640625</LongitudeDegrees>
            </Position>
            <AltitudeMeters>330.20001220703125</AltitudeMeters>
            <DistanceMeters>NAN</DistanceMeters>
          </Trackpoint>
          <Trackpoint>
            <Time>2020-02-15T10:07:58.000Z</Time>
            <Position>
              <LatitudeDegrees>41.9690476544201374053955078125</LatitudeDegrees>
              <LongitudeDegrees>2.8943087160587310791015625</LongitudeDegrees>
            </Position>
            <AltitudeMeters>330.399993896484375</AltitudeMeters>
            <DistanceMeters>NAN</DistanceMeters>
          </Trackpoint>
          <Trackpoint>
            <Time>2020-02-15T10:07:59.000Z</Time>
            <Position>
              <LatitudeDegrees>41.96902862749993801116943359375</LatitudeDegrees>
              <LongitudeDegrees>2.8943206183612346649169921875</LongitudeDegrees>
            </Position>
            <AltitudeMeters>330.600006103515625</AltitudeMeters>
            <DistanceMeters>NAN</DistanceMeters>
          </Trackpoint>
          <Trackpoint>
            <Time>2020-02-15T10:08:00.000Z</Time>
            <Position>
              <LatitudeDegrees>41.96901085786521434783935546875</LatitudeDegrees>
              <LongitudeDegrees>2.8943328559398651123046875</LongitudeDegrees>
            </Position>
            <AltitudeMeters>330.79998779296875</AltitudeMeters>
            <DistanceMeters>NAN</DistanceMeters>
          </Trackpoint>
          <Trackpoint>
            <Time>2020-02-15T10:08:01.000Z</Time>
            <Position>
              <LatitudeDegrees>41.96899627335369586944580078125</LatitudeDegrees>
              <LongitudeDegrees>2.89434425532817840576171875</LongitudeDegrees>
            </Position>
            <AltitudeMeters>331</AltitudeMeters>
            <DistanceMeters>NAN</DistanceMeters>
          </Trackpoint>
          <Trackpoint>
            <Time>2020-02-15T10:08:02.000Z</Time>
            <Position>
              <LatitudeDegrees>41.96898319758474826812744140625</LatitudeDegrees>
              <LongitudeDegrees>2.89435607381165027618408203125</LongitudeDegrees>
            </Position>
            <AltitudeMeters>331</AltitudeMeters>
            <DistanceMeters>NAN</DistanceMeters>
          </Trackpoint>
          <Trackpoint>
            <Time>2020-02-15T10:08:03.000Z</Time>
            <Position>
              <LatitudeDegrees>41.9689698703587055206298828125</LatitudeDegrees>
              <LongitudeDegrees>2.89436680264770984649658203125</LongitudeDegrees>
            </Position>
            <AltitudeMeters>331.399993896484375</AltitudeMeters>
            <DistanceMeters>NAN</DistanceMeters>
          </Trackpoint>
          <Trackpoint>
            <Time>2020-02-15T10:08:04.000Z</Time>
            <Position>
              <LatitudeDegrees>41.9689551182091236114501953125</LatitudeDegrees>
              <LongitudeDegrees>2.894377447664737701416015625</LongitudeDegrees>
            </Position>
            <AltitudeMeters>331.399993896484375</AltitudeMeters>
            <DistanceMeters>NAN</DistanceMeters>
          </Trackpoint>
          <Trackpoint>
            <Time>2020-02-15T10:08:05.000Z</Time>
            <Position>
              <LatitudeDegrees>41.968937851488590240478515625</LatitudeDegrees>
              <LongitudeDegrees>2.8943873383104801177978515625</LongitudeDegrees>
            </Position>
            <AltitudeMeters>331.79998779296875</AltitudeMeters>
            <DistanceMeters>NAN</DistanceMeters>
          </Trackpoint>
          <Trackpoint>
            <Time>2020-02-15T10:08:06.000Z</Time>
            <Position>
              <LatitudeDegrees>41.9689200818538665771484375</LatitudeDegrees>
              <LongitudeDegrees>2.894394882023334503173828125</LongitudeDegrees>
            </Position>
            <AltitudeMeters>332</AltitudeMeters>
            <DistanceMeters>NAN</DistanceMeters>
          </Trackpoint>
          <Trackpoint>
            <Time>2020-02-15T10:08:07.000Z</Time>
            <Position>
              <LatitudeDegrees>41.968902982771396636962890625</LatitudeDegrees>
              <LongitudeDegrees>2.8944000788033008575439453125</LongitudeDegrees>
            </Position>
            <AltitudeMeters>332.20001220703125</AltitudeMeters>
            <DistanceMeters>NAN</DistanceMeters>
          </Trackpoint>
          <Trackpoint>
            <Time>2020-02-15T10:08:08.000Z</Time>
            <Position>
              <LatitudeDegrees>41.968884207308292388916015625</LatitudeDegrees>
              <LongitudeDegrees>2.89440502412617206573486328125</LongitudeDegrees>
            </Position>
            <AltitudeMeters>332.20001220703125</AltitudeMeters>
            <DistanceMeters>NAN</DistanceMeters>
          </Trackpoint>
          <Trackpoint>
            <Time>2020-02-15T10:08:09.000Z</Time>
            <Position>
              <LatitudeDegrees>41.9688696227967739105224609375</LatitudeDegrees>
              <LongitudeDegrees>2.89440703578293323516845703125</LongitudeDegrees>
            </Position>
            <AltitudeMeters>332.20001220703125</AltitudeMeters>
            <DistanceMeters>NAN</DistanceMeters>
          </Trackpoint>
          <Trackpoint>
            <Time>2020-02-15T10:08:10.000Z</Time>
            <Position>
              <LatitudeDegrees>41.96885478682816028594970703125</LatitudeDegrees>
              <LongitudeDegrees>2.89440728724002838134765625</LongitudeDegrees>
            </Position>
            <AltitudeMeters>332.20001220703125</AltitudeMeters>
            <DistanceMeters>NAN</DistanceMeters>
          </Trackpoint>
          <Trackpoint>
            <Time>2020-02-15T10:08:11.000Z</Time>
            <Position>
              <LatitudeDegrees>41.9688394479453563690185546875</LatitudeDegrees>
              <LongitudeDegrees>2.8944087959825992584228515625</LongitudeDegrees>
            </Position>
            <AltitudeMeters>332.399993896484375</AltitudeMeters>
            <DistanceMeters>NAN</DistanceMeters>
          </Trackpoint>
          <Trackpoint>
            <Time>2020-02-15T10:08:12.000Z</Time>
            <Position>
              <LatitudeDegrees>41.96882762946188449859619140625</LatitudeDegrees>
              <LongitudeDegrees>2.89441206492483615875244140625</LongitudeDegrees>
            </Position>
            <AltitudeMeters>332.399993896484375</AltitudeMeters>
            <DistanceMeters>NAN</DistanceMeters>
          </Trackpoint>
          <Trackpoint>
            <Time>2020-02-15T10:08:13.000Z</Time>
            <Position>
              <LatitudeDegrees>41.9688126258552074432373046875</LatitudeDegrees>
              <LongitudeDegrees>2.89441533386707305908203125</LongitudeDegrees>
            </Position>
            <AltitudeMeters>332.399993896484375</AltitudeMeters>
            <DistanceMeters>NAN</DistanceMeters>
          </Trackpoint>
          <Trackpoint>
            <Time>2020-02-15T10:08:15.000Z</Time>
            <Position>
              <LatitudeDegrees>41.96878102608025074005126953125</LatitudeDegrees>
              <LongitudeDegrees>2.89441977627575397491455078125</LongitudeDegrees>
            </Position>
            <AltitudeMeters>332.79998779296875</AltitudeMeters>
            <DistanceMeters>NAN</DistanceMeters>
          </Trackpoint>
          <Trackpoint>
            <Time>2020-02-15T10:08:18.000Z</Time>
            <Position>
              <LatitudeDegrees>41.96873190812766551971435546875</LatitudeDegrees>
              <LongitudeDegrees>2.8944279067218303680419921875</LongitudeDegrees>
            </Position>
            <AltitudeMeters>333.20001220703125</AltitudeMeters>
            <DistanceMeters>NAN</DistanceMeters>
          </Trackpoint>
          <Trackpoint>
            <Time>2020-02-15T10:08:20.000Z</Time>
            <Position>
              <LatitudeDegrees>41.968705169856548309326171875</LatitudeDegrees>
              <LongitudeDegrees>2.89443871937692165374755859375</LongitudeDegrees>
            </Position>
            <AltitudeMeters>333.399993896484375</AltitudeMeters>
            <DistanceMeters>NAN</DistanceMeters>
          </Trackpoint>
          <Trackpoint>
            <Time>2020-02-15T10:08:21.000Z</Time>
            <Position>
              <LatitudeDegrees>41.9686932675540447235107421875</LatitudeDegrees>
              <LongitudeDegrees>2.894447185099124908447265625</LongitudeDegrees>
            </Position>
            <AltitudeMeters>333.600006103515625</AltitudeMeters>
            <DistanceMeters>NAN</DistanceMeters>
          </Trackpoint>
          <Trackpoint>
            <Time>2020-02-15T10:08:22.000Z</Time>
            <Position>
              <LatitudeDegrees>41.96868211962282657623291015625</LatitudeDegrees>
              <LongitudeDegrees>2.89445816539227962493896484375</LongitudeDegrees>
            </Position>
            <AltitudeMeters>333.600006103515625</AltitudeMeters>
            <DistanceMeters>NAN</DistanceMeters>
          </Trackpoint>
          <Trackpoint>
            <Time>2020-02-15T10:08:23.000Z</Time>
            <Position>
              <LatitudeDegrees>41.96867072023451328277587890625</LatitudeDegrees>
              <LongitudeDegrees>2.89447291754186153411865234375</LongitudeDegrees>
            </Position>
            <AltitudeMeters>333.600006103515625</AltitudeMeters>
            <DistanceMeters>NAN</DistanceMeters>
          </Trackpoint>
          <Trackpoint>
            <Time>2020-02-15T10:08:24.000Z</Time>
            <Position>
              <LatitudeDegrees>41.96865982376039028167724609375</LatitudeDegrees>
              <LongitudeDegrees>2.8944859094917774200439453125</LongitudeDegrees>
            </Position>
            <AltitudeMeters>333.600006103515625</AltitudeMeters>
            <DistanceMeters>NAN</DistanceMeters>
          </Trackpoint>
          <Trackpoint>
            <Time>2020-02-15T10:08:25.000Z</Time>
            <Position>
              <LatitudeDegrees>41.96864959783852100372314453125</LatitudeDegrees>
              <LongitudeDegrees>2.89449957199394702911376953125</LongitudeDegrees>
            </Position>
            <AltitudeMeters>334</AltitudeMeters>
            <DistanceMeters>NAN</DistanceMeters>
          </Trackpoint>
          <Trackpoint>
            <Time>2020-02-15T10:08:26.000Z</Time>
            <Position>
              <LatitudeDegrees>41.9686402939260005950927734375</LatitudeDegrees>
              <LongitudeDegrees>2.8945140726864337921142578125</LongitudeDegrees>
            </Position>
            <AltitudeMeters>334</AltitudeMeters>
            <DistanceMeters>NAN</DistanceMeters>
          </Trackpoint>
          <Trackpoint>
            <Time>2020-02-15T10:08:27.000Z</Time>
            <Position>
              <LatitudeDegrees>41.968635432422161102294921875</LatitudeDegrees>
              <LongitudeDegrees>2.89452974684536457061767578125</LongitudeDegrees>
            </Position>
            <AltitudeMeters>334.20001220703125</AltitudeMeters>
            <DistanceMeters>NAN</DistanceMeters>
          </Trackpoint>
          <Trackpoint>
            <Time>2020-02-15T10:08:28.000Z</Time>
            <Position>
              <LatitudeDegrees>41.968632079660892486572265625</LatitudeDegrees>
              <LongitudeDegrees>2.89454273879528045654296875</LongitudeDegrees>
            </Position>
            <AltitudeMeters>334.399993896484375</AltitudeMeters>
            <DistanceMeters>NAN</DistanceMeters>
          </Trackpoint>
          <Trackpoint>
            <Time>2020-02-15T10:08:29.000Z</Time>
            <Position>
              <LatitudeDegrees>41.96862637996673583984375</LatitudeDegrees>
              <LongitudeDegrees>2.89455589838325977325439453125</LongitudeDegrees>
            </Position>
            <AltitudeMeters>334.600006103515625</AltitudeMeters>
            <DistanceMeters>NAN</DistanceMeters>
          </Trackpoint>
          <Trackpoint>
            <Time>2020-02-15T10:08:30.000Z</Time>
            <Position>
              <LatitudeDegrees>41.96862445212900638580322265625</LatitudeDegrees>
              <LongitudeDegrees>2.8945700637996196746826171875</LongitudeDegrees>
            </Position>
            <AltitudeMeters>334.79998779296875</AltitudeMeters>
            <DistanceMeters>NAN</DistanceMeters>
          </Trackpoint>
          <Trackpoint>
            <Time>2020-02-15T10:08:31.000Z</Time>
            <Position>
              <LatitudeDegrees>41.968625374138355255126953125</LatitudeDegrees>
              <LongitudeDegrees>2.89458607323467731475830078125</LongitudeDegrees>
            </Position>
            <AltitudeMeters>334.79998779296875</AltitudeMeters>
            <DistanceMeters>NAN</DistanceMeters>
          </Trackpoint>
          <Trackpoint>
            <Time>2020-02-15T10:08:32.000Z</Time>
            <Position>
              <LatitudeDegrees>41.96862344630062580108642578125</LatitudeDegrees>
              <LongitudeDegrees>2.89460116066038608551025390625</LongitudeDegrees>
            </Position>
            <AltitudeMeters>334.79998779296875</AltitudeMeters>
            <DistanceMeters>NAN</DistanceMeters>
          </Trackpoint>
          <Trackpoint>
            <Time>2020-02-15T10:08:33.000Z</Time>
            <Position>
              <LatitudeDegrees>41.96861824952065944671630859375</LatitudeDegrees>
              <LongitudeDegrees>2.8946166671812534332275390625</LongitudeDegrees>
            </Position>
            <AltitudeMeters>335.20001220703125</AltitudeMeters>
            <DistanceMeters>NAN</DistanceMeters>
          </Trackpoint>
          <Trackpoint>
            <Time>2020-02-15T10:08:34.000Z</Time>
            <Position>
              <LatitudeDegrees>41.96861607022583484649658203125</LatitudeDegrees>
              <LongitudeDegrees>2.89463435299694538116455078125</LongitudeDegrees>
            </Position>
            <AltitudeMeters>335.20001220703125</AltitudeMeters>
            <DistanceMeters>NAN</DistanceMeters>
          </Trackpoint>
          <Trackpoint>
            <Time>2020-02-15T10:08:35.000Z</Time>
            <Position>
              <LatitudeDegrees>41.96861456148326396942138671875</LatitudeDegrees>
              <LongitudeDegrees>2.89465413428843021392822265625</LongitudeDegrees>
            </Position>
            <AltitudeMeters>335.399993896484375</AltitudeMeters>
            <DistanceMeters>NAN</DistanceMeters>
          </Trackpoint>
          <Trackpoint>
            <Time>2020-02-15T10:08:36.000Z</Time>
            <Position>
              <LatitudeDegrees>41.968613304197788238525390625</LatitudeDegrees>
              <LongitudeDegrees>2.894674837589263916015625</LongitudeDegrees>
            </Position>
            <AltitudeMeters>335.600006103515625</AltitudeMeters>
            <DistanceMeters>NAN</DistanceMeters>
          </Trackpoint>
          <Trackpoint>
            <Time>2020-02-15T10:08:37.000Z</Time>
            <Position>
              <LatitudeDegrees>41.9686131365597248077392578125</LatitudeDegrees>
              <LongitudeDegrees>2.89469822309911251068115234375</LongitudeDegrees>
            </Position>
            <AltitudeMeters>335.79998779296875</AltitudeMeters>
            <DistanceMeters>NAN</DistanceMeters>
          </Trackpoint>
          <Trackpoint>
            <Time>2020-02-15T10:08:38.000Z</Time>
            <Position>
              <LatitudeDegrees>41.968614645302295684814453125</LatitudeDegrees>
              <LongitudeDegrees>2.894721440970897674560546875</LongitudeDegrees>
            </Position>
            <AltitudeMeters>336</AltitudeMeters>
            <DistanceMeters>NAN</DistanceMeters>
          </Trackpoint>
          <Trackpoint>
            <Time>2020-02-15T10:08:39.000Z</Time>
            <Position>
              <LatitudeDegrees>41.96861498057842254638671875</LatitudeDegrees>
              <LongitudeDegrees>2.894742228090763092041015625</LongitudeDegrees>
            </Position>
            <AltitudeMeters>336.20001220703125</AltitudeMeters>
            <DistanceMeters>NAN</DistanceMeters>
          </Trackpoint>
          <Trackpoint>
            <Time>2020-02-15T10:08:40.000Z</Time>
            <Position>
              <LatitudeDegrees>41.9686141423881053924560546875</LatitudeDegrees>
              <LongitudeDegrees>2.89476326666772365570068359375</LongitudeDegrees>
            </Position>
            <AltitudeMeters>336.399993896484375</AltitudeMeters>
            <DistanceMeters>NAN</DistanceMeters>
          </Trackpoint>
          <Trackpoint>
            <Time>2020-02-15T10:08:41.000Z</Time>
            <Position>
              <LatitudeDegrees>41.9686131365597248077392578125</LatitudeDegrees>
              <LongitudeDegrees>2.89478279650211334228515625</LongitudeDegrees>
            </Position>
            <AltitudeMeters>336.600006103515625</AltitudeMeters>
            <DistanceMeters>NAN</DistanceMeters>
          </Trackpoint>
          <Trackpoint>
            <Time>2020-02-15T10:08:42.000Z</Time>
            <Position>
              <LatitudeDegrees>41.96861171163618564605712890625</LatitudeDegrees>
              <LongitudeDegrees>2.8948040865361690521240234375</LongitudeDegrees>
            </Position>
            <AltitudeMeters>336.600006103515625</AltitudeMeters>
            <DistanceMeters>NAN</DistanceMeters>
          </Trackpoint>
          <Trackpoint>
            <Time>2020-02-15T10:08:43.000Z</Time>
            <Position>
              <LatitudeDegrees>41.96860969997942447662353515625</LatitudeDegrees>
              <LongitudeDegrees>2.8948237001895904541015625</LongitudeDegrees>
            </Position>
            <AltitudeMeters>336.79998779296875</AltitudeMeters>
            <DistanceMeters>NAN</DistanceMeters>
          </Trackpoint>
          <Trackpoint>
            <Time>2020-02-15T10:08:44.000Z</Time>
            <Position>
              <LatitudeDegrees>41.9686074368655681610107421875</LatitudeDegrees>
              <LongitudeDegrees>2.8948436491191387176513671875</LongitudeDegrees>
            </Position>
            <AltitudeMeters>337</AltitudeMeters>
            <DistanceMeters>NAN</DistanceMeters>
          </Trackpoint>
          <Trackpoint>
            <Time>2020-02-15T10:08:45.000Z</Time>
            <Position>
              <LatitudeDegrees>41.96860433556139469146728515625</LatitudeDegrees>
              <LongitudeDegrees>2.8948630951344966888427734375</LongitudeDegrees>
            </Position>
            <AltitudeMeters>337.20001220703125</AltitudeMeters>
            <DistanceMeters>NAN</DistanceMeters>
          </Trackpoint>
          <Trackpoint>
            <Time>2020-02-15T10:08:47.000Z</Time>
            <Position>
              <LatitudeDegrees>41.96860148571431636810302734375</LatitudeDegrees>
              <LongitudeDegrees>2.89490408264100551605224609375</LongitudeDegrees>
            </Position>
            <AltitudeMeters>337.399993896484375</AltitudeMeters>
            <DistanceMeters>NAN</DistanceMeters>
          </Trackpoint>
          <Trackpoint>
            <Time>2020-02-15T10:08:49.000Z</Time>
            <Position>
              <LatitudeDegrees>41.96860131807625293731689453125</LatitudeDegrees>
              <LongitudeDegrees>2.89495135657489299774169921875</LongitudeDegrees>
            </Position>
            <AltitudeMeters>337.600006103515625</AltitudeMeters>
            <DistanceMeters>NAN</DistanceMeters>
          </Trackpoint>
          <Trackpoint>
            <Time>2020-02-15T10:08:50.000Z</Time>
            <Position>
              <LatitudeDegrees>41.968600563704967498779296875</LatitudeDegrees>
              <LongitudeDegrees>2.89497298188507556915283203125</LongitudeDegrees>
            </Position>
            <AltitudeMeters>337.600006103515625</AltitudeMeters>
            <DistanceMeters>NAN</DistanceMeters>
          </Trackpoint>
          <Trackpoint>
            <Time>2020-02-15T10:08:51.000Z</Time>
            <Position>
              <LatitudeDegrees>41.96859830059111118316650390625</LatitudeDegrees>
              <LongitudeDegrees>2.89499494247138500213623046875</LongitudeDegrees>
            </Position>
            <AltitudeMeters>337.79998779296875</AltitudeMeters>
            <DistanceMeters>NAN</DistanceMeters>
          </Trackpoint>
          <Trackpoint>
            <Time>2020-02-15T10:08:52.000Z</Time>
            <Position>
              <LatitudeDegrees>41.96859545074403285980224609375</LatitudeDegrees>
              <LongitudeDegrees>2.895017825067043304443359375</LongitudeDegrees>
            </Position>
            <AltitudeMeters>337.79998779296875</AltitudeMeters>
            <DistanceMeters>NAN</DistanceMeters>
          </Trackpoint>
          <Trackpoint>
            <Time>2020-02-15T10:08:53.000Z</Time>
            <Position>
              <LatitudeDegrees>41.9685900025069713592529296875</LatitudeDegrees>
              <LongitudeDegrees>2.89503970183432102203369140625</LongitudeDegrees>
            </Position>
            <AltitudeMeters>338</AltitudeMeters>
            <DistanceMeters>NAN</DistanceMeters>
          </Trackpoint>
          <Trackpoint>
            <Time>2020-02-15T10:08:54.000Z</Time>
            <Position>
              <LatitudeDegrees>41.96859058924019336700439453125</LatitudeDegrees>
              <LongitudeDegrees>2.89506266824901103973388671875</LongitudeDegrees>
            </Position>
            <AltitudeMeters>338</AltitudeMeters>
            <DistanceMeters>NAN</DistanceMeters>
          </Trackpoint>
          <Trackpoint>
            <Time>2020-02-15T10:08:55.000Z</Time>
            <Position>
              <LatitudeDegrees>41.9685920141637325286865234375</LatitudeDegrees>
              <LongitudeDegrees>2.89508680813014507293701171875</LongitudeDegrees>
            </Position>
            <AltitudeMeters>338</AltitudeMeters>
            <DistanceMeters>NAN</DistanceMeters>
          </Trackpoint>
          <Trackpoint>
            <Time>2020-02-15T10:08:56.000Z</Time>
            <Position>
              <LatitudeDegrees>41.96859025396406650543212890625</LatitudeDegrees>
              <LongitudeDegrees>2.8951111994683742523193359375</LongitudeDegrees>
            </Position>
            <AltitudeMeters>338</AltitudeMeters>
            <DistanceMeters>NAN</DistanceMeters>
          </Trackpoint>
          <Trackpoint>
            <Time>2020-02-15T10:08:57.000Z</Time>
            <Position>
              <LatitudeDegrees>41.9685859791934490203857421875</LatitudeDegrees>
              <LongitudeDegrees>2.8951336629688739776611328125</LongitudeDegrees>
            </Position>
            <AltitudeMeters>338</AltitudeMeters>
            <DistanceMeters>NAN</DistanceMeters>
          </Trackpoint>
          <Trackpoint>
            <Time>2020-02-15T10:08:58.000Z</Time>
            <Position>
              <LatitudeDegrees>41.968584470450878143310546875</LatitudeDegrees>
              <LongitudeDegrees>2.8951571322977542877197265625</LongitudeDegrees>
            </Position>
            <AltitudeMeters>338.20001220703125</AltitudeMeters>
            <DistanceMeters>NAN</DistanceMeters>
          </Trackpoint>
          <Trackpoint>
            <Time>2020-02-15T10:08:59.000Z</Time>
            <Position>
              <LatitudeDegrees>41.96858639828860759735107421875</LatitudeDegrees>
              <LongitudeDegrees>2.89518110454082489013671875</LongitudeDegrees>
            </Position>
            <AltitudeMeters>338.399993896484375</AltitudeMeters>
            <DistanceMeters>NAN</DistanceMeters>
          </Trackpoint>
          <Trackpoint>
            <Time>2020-02-15T10:09:00.000Z</Time>
            <Position>
              <LatitudeDegrees>41.96858924813568592071533203125</LatitudeDegrees>
              <LongitudeDegrees>2.89520365186035633087158203125</LongitudeDegrees>
            </Position>
            <AltitudeMeters>338.600006103515625</AltitudeMeters>
            <DistanceMeters>NAN</DistanceMeters>
          </Trackpoint>
          <Trackpoint>
            <Time>2020-02-15T10:09:01.000Z</Time>
            <Position>
              <LatitudeDegrees>41.9685930199921131134033203125</LatitudeDegrees>
              <LongitudeDegrees>2.89522628299891948699951171875</LongitudeDegrees>
            </Position>
            <AltitudeMeters>338.79998779296875</AltitudeMeters>
            <DistanceMeters>NAN</DistanceMeters>
          </Trackpoint>
          <Trackpoint>
            <Time>2020-02-15T10:09:02.000Z</Time>
            <Position>
              <LatitudeDegrees>41.968596875667572021484375</LatitudeDegrees>
              <LongitudeDegrees>2.89524958468973636627197265625</LongitudeDegrees>
            </Position>
            <AltitudeMeters>338.79998779296875</AltitudeMeters>
            <DistanceMeters>NAN</DistanceMeters>
          </Trackpoint>
          <Trackpoint>
            <Time>2020-02-15T10:09:03.000Z</Time>
            <Position>
              <LatitudeDegrees>41.96860081516206264495849609375</LatitudeDegrees>
              <LongitudeDegrees>2.89527037180960178375244140625</LongitudeDegrees>
            </Position>
            <AltitudeMeters>338.79998779296875</AltitudeMeters>
            <DistanceMeters>NAN</DistanceMeters>
          </Trackpoint>
          <Trackpoint>
            <Time>2020-02-15T10:09:04.000Z</Time>
            <Position>
              <LatitudeDegrees>41.96860634721815586090087890625</LatitudeDegrees>
              <LongitudeDegrees>2.895290069282054901123046875</LongitudeDegrees>
            </Position>
            <AltitudeMeters>338.79998779296875</AltitudeMeters>
            <DistanceMeters>NAN</DistanceMeters>
          </Trackpoint>
          <Trackpoint>
            <Time>2020-02-15T10:09:05.000Z</Time>
            <Position>
              <LatitudeDegrees>41.96861154399812221527099609375</LatitudeDegrees>
              <LongitudeDegrees>2.895313538610935211181640625</LongitudeDegrees>
            </Position>
            <AltitudeMeters>339</AltitudeMeters>
            <DistanceMeters>NAN</DistanceMeters>
          </Trackpoint>
          <Trackpoint>
            <Time>2020-02-15T10:09:06.000Z</Time>
            <Position>
              <LatitudeDegrees>41.96861900389194488525390625</LatitudeDegrees>
              <LongitudeDegrees>2.895340360701084136962890625</LongitudeDegrees>
            </Position>
            <AltitudeMeters>339</AltitudeMeters>
            <DistanceMeters>NAN</DistanceMeters>
          </Trackpoint>
          <Trackpoint>
            <Time>2020-02-15T10:09:07.000Z</Time>
            <Position>
              <LatitudeDegrees>41.96862763725221157073974609375</LatitudeDegrees>
              <LongitudeDegrees>2.89536827243864536285400390625</LongitudeDegrees>
            </Position>
            <AltitudeMeters>339.20001220703125</AltitudeMeters>
            <DistanceMeters>NAN</DistanceMeters>
          </Trackpoint>
          <Trackpoint>
            <Time>2020-02-15T10:09:08.000Z</Time>
            <Position>
              <LatitudeDegrees>41.96863601915538311004638671875</LatitudeDegrees>
              <LongitudeDegrees>2.8953955136239528656005859375</LongitudeDegrees>
            </Position>
            <AltitudeMeters>339</AltitudeMeters>
            <DistanceMeters>NAN</DistanceMeters>
          </Trackpoint>
          <Trackpoint>
            <Time>2020-02-15T10:09:11.000Z</Time>
            <Position>
              <LatitudeDegrees>41.9686550460755825042724609375</LatitudeDegrees>
              <LongitudeDegrees>2.8954803384840488433837890625</LongitudeDegrees>
            </Position>
            <AltitudeMeters>339.20001220703125</AltitudeMeters>
            <DistanceMeters>NAN</DistanceMeters>
          </Trackpoint>
          <Trackpoint>
            <Time>2020-02-15T10:09:15.000Z</Time>
            <Position>
              <LatitudeDegrees>41.96867759339511394500732421875</LatitudeDegrees>
              <LongitudeDegrees>2.8956047259271144866943359375</LongitudeDegrees>
            </Position>
            <AltitudeMeters>339</AltitudeMeters>
            <DistanceMeters>NAN</DistanceMeters>
          </Trackpoint>
          <Trackpoint>
            <Time>2020-02-15T10:09:18.000Z</Time>
            <Position>
              <LatitudeDegrees>41.9686932675540447235107421875</LatitudeDegrees>
              <LongitudeDegrees>2.8956954181194305419921875</LongitudeDegrees>
            </Position>
            <AltitudeMeters>339.20001220703125</AltitudeMeters>
            <DistanceMeters>NAN</DistanceMeters>
          </Trackpoint>
          <Trackpoint>
            <Time>2020-02-15T10:09:19.000Z</Time>
            <Position>
              <LatitudeDegrees>41.968698799610137939453125</LatitudeDegrees>
              <LongitudeDegrees>2.89572651498019695281982421875</LongitudeDegrees>
            </Position>
            <AltitudeMeters>339.20001220703125</AltitudeMeters>
            <DistanceMeters>NAN</DistanceMeters>
          </Trackpoint>
          <Trackpoint>
            <Time>2020-02-15T10:09:22.000Z</Time>
            <Position>
              <LatitudeDegrees>41.9687217660248279571533203125</LatitudeDegrees>
              <LongitudeDegrees>2.8958484716713428497314453125</LongitudeDegrees>
            </Position>
            <AltitudeMeters>339</AltitudeMeters>
            <DistanceMeters>NAN</DistanceMeters>
          </Trackpoint>
          <Trackpoint>
            <Time>2020-02-15T10:09:23.000Z</Time>
            <Position>
              <LatitudeDegrees>41.96872956119477748870849609375</LatitudeDegrees>
              <LongitudeDegrees>2.89589884690940380096435546875</LongitudeDegrees>
            </Position>
            <AltitudeMeters>339</AltitudeMeters>
            <DistanceMeters>NAN</DistanceMeters>
          </Trackpoint>
          <Trackpoint>
            <Time>2020-02-15T10:09:24.000Z</Time>
            <Position>
              <LatitudeDegrees>41.9687408767640590667724609375</LatitudeDegrees>
              <LongitudeDegrees>2.89595223963260650634765625</LongitudeDegrees>
            </Position>
            <AltitudeMeters>338.79998779296875</AltitudeMeters>
            <DistanceMeters>NAN</DistanceMeters>
          </Trackpoint>
          <Trackpoint>
            <Time>2020-02-15T10:09:26.000Z</Time>
            <Position>
              <LatitudeDegrees>41.9687725603580474853515625</LatitudeDegrees>
              <LongitudeDegrees>2.8960640542209148406982421875</LongitudeDegrees>
            </Position>
            <AltitudeMeters>338.79998779296875</AltitudeMeters>
            <DistanceMeters>NAN</DistanceMeters>
          </Trackpoint>
          <Trackpoint>
            <Time>2020-02-15T10:09:27.000Z</Time>
            <Position>
              <LatitudeDegrees>41.9687945209443569183349609375</LatitudeDegrees>
              <LongitudeDegrees>2.89612591266632080078125</LongitudeDegrees>
            </Position>
            <AltitudeMeters>338.79998779296875</AltitudeMeters>
            <DistanceMeters>NAN</DistanceMeters>
          </Trackpoint>
          <Trackpoint>
            <Time>2020-02-15T10:09:28.000Z</Time>
            <Position>
              <LatitudeDegrees>41.9688042439520359039306640625</LatitudeDegrees>
              <LongitudeDegrees>2.89619900286197662353515625</LongitudeDegrees>
            </Position>
            <AltitudeMeters>338.600006103515625</AltitudeMeters>
            <DistanceMeters>NAN</DistanceMeters>
          </Trackpoint>
          <Trackpoint>
            <Time>2020-02-15T10:09:29.000Z</Time>
            <Position>
              <LatitudeDegrees>41.96878873743116855621337890625</LatitudeDegrees>
              <LongitudeDegrees>2.896275110542774200439453125</LongitudeDegrees>
            </Position>
            <AltitudeMeters>338.600006103515625</AltitudeMeters>
            <DistanceMeters>NAN</DistanceMeters>
          </Trackpoint>
          <Trackpoint>
            <Time>2020-02-15T10:09:30.000Z</Time>
            <Position>
              <LatitudeDegrees>41.9687586463987827301025390625</LatitudeDegrees>
              <LongitudeDegrees>2.89634761400520801544189453125</LongitudeDegrees>
            </Position>
            <AltitudeMeters>338.399993896484375</AltitudeMeters>
            <DistanceMeters>NAN</DistanceMeters>
          </Trackpoint>
          <Trackpoint>
            <Time>2020-02-15T10:09:31.000Z</Time>
            <Position>
              <LatitudeDegrees>41.96872771717607975006103515625</LatitudeDegrees>
              <LongitudeDegrees>2.89641047827899456024169921875</LongitudeDegrees>
            </Position>
            <AltitudeMeters>338.20001220703125</AltitudeMeters>
            <DistanceMeters>NAN</DistanceMeters>
          </Trackpoint>
          <Trackpoint>
            <Time>2020-02-15T10:09:32.000Z</Time>
            <Position>
              <LatitudeDegrees>41.9686966203153133392333984375</LatitudeDegrees>
              <LongitudeDegrees>2.896463871002197265625</LongitudeDegrees>
            </Position>
            <AltitudeMeters>338</AltitudeMeters>
            <DistanceMeters>NAN</DistanceMeters>
          </Trackpoint>
          <Trackpoint>
            <Time>2020-02-15T10:09:33.000Z</Time>
            <Position>
              <LatitudeDegrees>41.9686610810458660125732421875</LatitudeDegrees>
              <LongitudeDegrees>2.89649832062423229217529296875</LongitudeDegrees>
            </Position>
            <AltitudeMeters>337.79998779296875</AltitudeMeters>
            <DistanceMeters>NAN</DistanceMeters>
          </Trackpoint>
          <Trackpoint>
            <Time>2020-02-15T10:09:34.000Z</Time>
            <Position>
              <LatitudeDegrees>41.9686255417764186859130859375</LatitudeDegrees>
              <LongitudeDegrees>2.89650301449000835418701171875</LongitudeDegrees>
            </Position>
            <AltitudeMeters>337.79998779296875</AltitudeMeters>
            <DistanceMeters>NAN</DistanceMeters>
          </Trackpoint>
          <Trackpoint>
            <Time>2020-02-15T10:09:35.000Z</Time>
            <Position>
              <LatitudeDegrees>41.96859729476273059844970703125</LatitudeDegrees>
              <LongitudeDegrees>2.89649044163525104522705078125</LongitudeDegrees>
            </Position>
            <AltitudeMeters>337.600006103515625</AltitudeMeters>
            <DistanceMeters>NAN</DistanceMeters>
          </Trackpoint>
          <Trackpoint>
            <Time>2020-02-15T10:09:36.000Z</Time>
            <Position>
              <LatitudeDegrees>41.96857617236673831939697265625</LatitudeDegrees>
              <LongitudeDegrees>2.896469570696353912353515625</LongitudeDegrees>
            </Position>
            <AltitudeMeters>337.399993896484375</AltitudeMeters>
            <DistanceMeters>NAN</DistanceMeters>
          </Trackpoint>
          <Trackpoint>
            <Time>2020-02-15T10:09:37.000Z</Time>
            <Position>
              <LatitudeDegrees>41.96855865418910980224609375</LatitudeDegrees>
              <LongitudeDegrees>2.89644819684326648712158203125</LongitudeDegrees>
            </Position>
            <AltitudeMeters>337.20001220703125</AltitudeMeters>
            <DistanceMeters>NAN</DistanceMeters>
          </Trackpoint>
          <Trackpoint>
            <Time>2020-02-15T10:09:38.000Z</Time>
            <Position>
              <LatitudeDegrees>41.96854415349662303924560546875</LatitudeDegrees>
              <LongitudeDegrees>2.8964298404753208160400390625</LongitudeDegrees>
            </Position>
            <AltitudeMeters>337</AltitudeMeters>
            <DistanceMeters>NAN</DistanceMeters>
          </Trackpoint>
          <Trackpoint>
            <Time>2020-02-15T10:09:39.000Z</Time>
            <Position>
              <LatitudeDegrees>41.96853208355605602264404296875</LatitudeDegrees>
              <LongitudeDegrees>2.8964120708405971527099609375</LongitudeDegrees>
            </Position>
            <AltitudeMeters>336.600006103515625</AltitudeMeters>
            <DistanceMeters>NAN</DistanceMeters>
          </Trackpoint>
          <Trackpoint>
            <Time>2020-02-15T10:09:40.000Z</Time>
            <Position>
              <LatitudeDegrees>41.9685219414532184600830078125</LatitudeDegrees>
              <LongitudeDegrees>2.89639689959585666656494140625</LongitudeDegrees>
            </Position>
            <AltitudeMeters>336.600006103515625</AltitudeMeters>
            <DistanceMeters>NAN</DistanceMeters>
          </Trackpoint>
          <Trackpoint>
            <Time>2020-02-15T10:09:41.000Z</Time>
            <Position>
              <LatitudeDegrees>41.9685132242739200592041015625</LatitudeDegrees>
              <LongitudeDegrees>2.896380387246608734130859375</LongitudeDegrees>
            </Position>
            <AltitudeMeters>336.600006103515625</AltitudeMeters>
            <DistanceMeters>NAN</DistanceMeters>
          </Trackpoint>
          <Trackpoint>
            <Time>2020-02-15T10:09:42.000Z</Time>
            <Position>
              <LatitudeDegrees>41.9685070216655731201171875</LatitudeDegrees>
              <LongitudeDegrees>2.8963632881641387939453125</LongitudeDegrees>
            </Position>
            <AltitudeMeters>336.399993896484375</AltitudeMeters>
            <DistanceMeters>NAN</DistanceMeters>
          </Trackpoint>
          <Trackpoint>
            <Time>2020-02-15T10:09:43.000Z</Time>
            <Position>
              <LatitudeDegrees>41.9684971310198307037353515625</LatitudeDegrees>
              <LongitudeDegrees>2.89634878747165203094482421875</LongitudeDegrees>
            </Position>
            <AltitudeMeters>336.600006103515625</AltitudeMeters>
            <DistanceMeters>NAN</DistanceMeters>
          </Trackpoint>
          <Trackpoint>
            <Time>2020-02-15T10:09:44.000Z</Time>
            <Position>
              <LatitudeDegrees>41.96848430670797824859619140625</LatitudeDegrees>
              <LongitudeDegrees>2.89633990265429019927978515625</LongitudeDegrees>
            </Position>
            <AltitudeMeters>336.399993896484375</AltitudeMeters>
            <DistanceMeters>NAN</DistanceMeters>
          </Trackpoint>
          <Trackpoint>
            <Time>2020-02-15T10:09:45.000Z</Time>
            <Position>
              <LatitudeDegrees>41.96847458370029926300048828125</LatitudeDegrees>
              <LongitudeDegrees>2.89633445441722869873046875</LongitudeDegrees>
            </Position>
            <AltitudeMeters>336.399993896484375</AltitudeMeters>
            <DistanceMeters>NAN</DistanceMeters>
          </Trackpoint>
          <Trackpoint>
            <Time>2020-02-15T10:09:46.000Z</Time>
            <Position>
              <LatitudeDegrees>41.96846318431198596954345703125</LatitudeDegrees>
              <LongitudeDegrees>2.89633017964661121368408203125</LongitudeDegrees>
            </Position>
            <AltitudeMeters>336.600006103515625</AltitudeMeters>
            <DistanceMeters>NAN</DistanceMeters>
          </Trackpoint>
          <Trackpoint>
            <Time>2020-02-15T10:09:47.000Z</Time>
            <Position>
              <LatitudeDegrees>41.968449689447879791259765625</LatitudeDegrees>
              <LongitudeDegrees>2.89632506668567657470703125</LongitudeDegrees>
            </Position>
            <AltitudeMeters>336.399993896484375</AltitudeMeters>
            <DistanceMeters>NAN</DistanceMeters>
          </Trackpoint>
          <Trackpoint>
            <Time>2020-02-15T10:09:48.000Z</Time>
            <Position>
              <LatitudeDegrees>41.96843384765088558197021484375</LatitudeDegrees>
              <LongitudeDegrees>2.8963176906108856201171875</LongitudeDegrees>
            </Position>
            <AltitudeMeters>336.399993896484375</AltitudeMeters>
            <DistanceMeters>NAN</DistanceMeters>
          </Trackpoint>
          <Trackpoint>
            <Time>2020-02-15T10:09:49.000Z</Time>
            <Position>
              <LatitudeDegrees>41.96841716766357421875</LatitudeDegrees>
              <LongitudeDegrees>2.896310649812221527099609375</LongitudeDegrees>
            </Position>
            <AltitudeMeters>336.600006103515625</AltitudeMeters>
            <DistanceMeters>NAN</DistanceMeters>
          </Trackpoint>
          <Trackpoint>
            <Time>2020-02-15T10:09:50.000Z</Time>
            <Position>
              <LatitudeDegrees>41.96840249933302402496337890625</LatitudeDegrees>
              <LongitudeDegrees>2.8963057883083820343017578125</LongitudeDegrees>
            </Position>
            <AltitudeMeters>336.79998779296875</AltitudeMeters>
            <DistanceMeters>NAN</DistanceMeters>
          </Trackpoint>
          <Trackpoint>
            <Time>2020-02-15T10:09:51.000Z</Time>
            <Position>
              <LatitudeDegrees>41.96838942356407642364501953125</LatitudeDegrees>
              <LongitudeDegrees>2.89630034007132053375244140625</LongitudeDegrees>
            </Position>
            <AltitudeMeters>337</AltitudeMeters>
            <DistanceMeters>NAN</DistanceMeters>
          </Trackpoint>
          <Trackpoint>
            <Time>2020-02-15T10:09:52.000Z</Time>
            <Position>
              <LatitudeDegrees>41.96837819181382656097412109375</LatitudeDegrees>
              <LongitudeDegrees>2.8962935507297515869140625</LongitudeDegrees>
            </Position>
            <AltitudeMeters>337</AltitudeMeters>
            <DistanceMeters>NAN</DistanceMeters>
          </Trackpoint>
          <Trackpoint>
            <Time>2020-02-15T10:09:53.000Z</Time>
            <Position>
              <LatitudeDegrees>41.968367211520671844482421875</LatitudeDegrees>
              <LongitudeDegrees>2.896287851035594940185546875</LongitudeDegrees>
            </Position>
            <AltitudeMeters>337.399993896484375</AltitudeMeters>
            <DistanceMeters>NAN</DistanceMeters>
          </Trackpoint>
          <Trackpoint>
            <Time>2020-02-15T10:09:54.000Z</Time>
            <Position>
              <LatitudeDegrees>41.96835388429462909698486328125</LatitudeDegrees>
              <LongitudeDegrees>2.89628055877983570098876953125</LongitudeDegrees>
            </Position>
            <AltitudeMeters>337.399993896484375</AltitudeMeters>
            <DistanceMeters>NAN</DistanceMeters>
          </Trackpoint>
          <Trackpoint>
            <Time>2020-02-15T10:09:55.000Z</Time>
            <Position>
              <LatitudeDegrees>41.96833871304988861083984375</LatitudeDegrees>
              <LongitudeDegrees>2.8962722606956958770751953125</LongitudeDegrees>
            </Position>
            <AltitudeMeters>337.399993896484375</AltitudeMeters>
            <DistanceMeters>NAN</DistanceMeters>
          </Trackpoint>
          <Trackpoint>
            <Time>2020-02-15T10:09:56.000Z</Time>
            <Position>
              <LatitudeDegrees>41.96832337416708469390869140625</LatitudeDegrees>
              <LongitudeDegrees>2.89626513607800006866455078125</LongitudeDegrees>
            </Position>
            <AltitudeMeters>337.600006103515625</AltitudeMeters>
            <DistanceMeters>NAN</DistanceMeters>
          </Trackpoint>
          <Trackpoint>
            <Time>2020-02-15T10:09:57.000Z</Time>
            <Position>
              <LatitudeDegrees>41.96830652654170989990234375</LatitudeDegrees>
              <LongitudeDegrees>2.896257005631923675537109375</LongitudeDegrees>
            </Position>
            <AltitudeMeters>337.600006103515625</AltitudeMeters>
            <DistanceMeters>NAN</DistanceMeters>
          </Trackpoint>
          <Trackpoint>
            <Time>2020-02-15T10:09:58.000Z</Time>
            <Position>
              <LatitudeDegrees>41.968289427459239959716796875</LatitudeDegrees>
              <LongitudeDegrees>2.896246947348117828369140625</LongitudeDegrees>
            </Position>
            <AltitudeMeters>337.79998779296875</AltitudeMeters>
            <DistanceMeters>NAN</DistanceMeters>
          </Trackpoint>
          <Trackpoint>
            <Time>2020-02-15T10:09:59.000Z</Time>
            <Position>
              <LatitudeDegrees>41.968272663652896881103515625</LatitudeDegrees>
              <LongitudeDegrees>2.896235547959804534912109375</LongitudeDegrees>
            </Position>
            <AltitudeMeters>338</AltitudeMeters>
            <DistanceMeters>NAN</DistanceMeters>
          </Trackpoint>
          <Trackpoint>
            <Time>2020-02-15T10:10:00.000Z</Time>
            <Position>
              <LatitudeDegrees>41.96825447492301464080810546875</LatitudeDegrees>
              <LongitudeDegrees>2.89622490294277667999267578125</LongitudeDegrees>
            </Position>
            <AltitudeMeters>338.20001220703125</AltitudeMeters>
            <DistanceMeters>NAN</DistanceMeters>
          </Trackpoint>
          <Trackpoint>
            <Time>2020-02-15T10:10:01.000Z</Time>
            <Position>
              <LatitudeDegrees>41.968236453831195831298828125</LatitudeDegrees>
              <LongitudeDegrees>2.89621434174478054046630859375</LongitudeDegrees>
            </Position>
            <AltitudeMeters>338.600006103515625</AltitudeMeters>
            <DistanceMeters>NAN</DistanceMeters>
          </Trackpoint>
          <Trackpoint>
            <Time>2020-02-15T10:10:02.000Z</Time>
            <Position>
              <LatitudeDegrees>41.96822027675807476043701171875</LatitudeDegrees>
              <LongitudeDegrees>2.89620310999453067779541015625</LongitudeDegrees>
            </Position>
            <AltitudeMeters>338.399993896484375</AltitudeMeters>
            <DistanceMeters>NAN</DistanceMeters>
          </Trackpoint>
          <Trackpoint>
            <Time>2020-02-15T10:10:03.000Z</Time>
            <Position>
              <LatitudeDegrees>41.9682061113417148590087890625</LatitudeDegrees>
              <LongitudeDegrees>2.896191962063312530517578125</LongitudeDegrees>
            </Position>
            <AltitudeMeters>338.600006103515625</AltitudeMeters>
            <DistanceMeters>NAN</DistanceMeters>
          </Trackpoint>
          <Trackpoint>
            <Time>2020-02-15T10:10:04.000Z</Time>
            <Position>
              <LatitudeDegrees>41.968194544315338134765625</LatitudeDegrees>
              <LongitudeDegrees>2.89618014357984066009521484375</LongitudeDegrees>
            </Position>
            <AltitudeMeters>338.600006103515625</AltitudeMeters>
            <DistanceMeters>NAN</DistanceMeters>
          </Trackpoint>
          <Trackpoint>
            <Time>2020-02-15T10:10:05.000Z</Time>
            <Position>
              <LatitudeDegrees>41.96818314492702484130859375</LatitudeDegrees>
              <LongitudeDegrees>2.8961689956486225128173828125</LongitudeDegrees>
            </Position>
            <AltitudeMeters>338.79998779296875</AltitudeMeters>
            <DistanceMeters>NAN</DistanceMeters>
          </Trackpoint>
          <Trackpoint>
            <Time>2020-02-15T10:10:06.000Z</Time>
            <Position>
              <LatitudeDegrees>41.9681712426245212554931640625</LatitudeDegrees>
              <LongitudeDegrees>2.89616069756448268890380859375</LongitudeDegrees>
            </Position>
            <AltitudeMeters>339</AltitudeMeters>
            <DistanceMeters>NAN</DistanceMeters>
          </Trackpoint>
          <Trackpoint>
            <Time>2020-02-15T10:10:07.000Z</Time>
            <Position>
              <LatitudeDegrees>41.9681591726839542388916015625</LatitudeDegrees>
              <LongitudeDegrees>2.89615415968000888824462890625</LongitudeDegrees>
            </Position>
            <AltitudeMeters>339.20001220703125</AltitudeMeters>
            <DistanceMeters>NAN</DistanceMeters>
          </Trackpoint>
          <Trackpoint>
            <Time>2020-02-15T10:10:08.000Z</Time>
            <Position>
              <LatitudeDegrees>41.968146264553070068359375</LatitudeDegrees>
              <LongitudeDegrees>2.89614561013877391815185546875</LongitudeDegrees>
            </Position>
            <AltitudeMeters>339.399993896484375</AltitudeMeters>
            <DistanceMeters>NAN</DistanceMeters>
          </Trackpoint>
          <Trackpoint>
            <Time>2020-02-15T10:10:09.000Z</Time>
            <Position>
              <LatitudeDegrees>41.96813528425991535186767578125</LatitudeDegrees>
              <LongitudeDegrees>2.89613789878785610198974609375</LongitudeDegrees>
            </Position>
            <AltitudeMeters>339.399993896484375</AltitudeMeters>
            <DistanceMeters>NAN</DistanceMeters>
          </Trackpoint>
          <Trackpoint>
            <Time>2020-02-15T10:10:10.000Z</Time>
            <Position>
              <LatitudeDegrees>41.968125142157077789306640625</LatitudeDegrees>
              <LongitudeDegrees>2.89613060653209686279296875</LongitudeDegrees>
            </Position>
            <AltitudeMeters>339.79998779296875</AltitudeMeters>
            <DistanceMeters>NAN</DistanceMeters>
          </Trackpoint>
          <Trackpoint>
            <Time>2020-02-15T10:10:11.000Z</Time>
            <Position>
              <LatitudeDegrees>41.96811332367360591888427734375</LatitudeDegrees>
              <LongitudeDegrees>2.8961213864386081695556640625</LongitudeDegrees>
            </Position>
            <AltitudeMeters>339.79998779296875</AltitudeMeters>
            <DistanceMeters>NAN</DistanceMeters>
          </Trackpoint>
          <Trackpoint>
            <Time>2020-02-15T10:10:13.000Z</Time>
            <Position>
              <LatitudeDegrees>41.96808616630733013153076171875</LatitudeDegrees>
              <LongitudeDegrees>2.89610520936548709869384765625</LongitudeDegrees>
            </Position>
            <AltitudeMeters>340</AltitudeMeters>
            <DistanceMeters>NAN</DistanceMeters>
          </Trackpoint>
          <Trackpoint>
            <Time>2020-02-15T10:10:15.000Z</Time>
            <Position>
              <LatitudeDegrees>41.968059428036212921142578125</LatitudeDegrees>
              <LongitudeDegrees>2.89609598927199840545654296875</LongitudeDegrees>
            </Position>
            <AltitudeMeters>340.399993896484375</AltitudeMeters>
            <DistanceMeters>NAN</DistanceMeters>
          </Trackpoint>
          <Trackpoint>
            <Time>2020-02-15T10:10:16.000Z</Time>
            <Position>
              <LatitudeDegrees>41.968045346438884735107421875</LatitudeDegrees>
              <LongitudeDegrees>2.8960925526916980743408203125</LongitudeDegrees>
            </Position>
            <AltitudeMeters>340.399993896484375</AltitudeMeters>
            <DistanceMeters>NAN</DistanceMeters>
          </Trackpoint>
          <Trackpoint>
            <Time>2020-02-15T10:10:17.000Z</Time>
            <Position>
              <LatitudeDegrees>41.96802891790866851806640625</LatitudeDegrees>
              <LongitudeDegrees>2.89608903229236602783203125</LongitudeDegrees>
            </Position>
            <AltitudeMeters>340.399993896484375</AltitudeMeters>
            <DistanceMeters>NAN</DistanceMeters>
          </Trackpoint>
          <Trackpoint>
            <Time>2020-02-15T10:10:18.000Z</Time>
            <Position>
              <LatitudeDegrees>41.968010477721691131591796875</LatitudeDegrees>
              <LongitudeDegrees>2.89608635008335113525390625</LongitudeDegrees>
            </Position>
            <AltitudeMeters>340.399993896484375</AltitudeMeters>
            <DistanceMeters>NAN</DistanceMeters>
          </Trackpoint>
          <Trackpoint>
            <Time>2020-02-15T10:10:19.000Z</Time>
            <Position>
              <LatitudeDegrees>41.96799094788730144500732421875</LatitudeDegrees>
              <LongitudeDegrees>2.89608391933143138885498046875</LongitudeDegrees>
            </Position>
            <AltitudeMeters>340.600006103515625</AltitudeMeters>
            <DistanceMeters>NAN</DistanceMeters>
          </Trackpoint>
          <Trackpoint>
            <Time>2020-02-15T10:10:22.000Z</Time>
            <Position>
              <LatitudeDegrees>41.967944763600826263427734375</LatitudeDegrees>
              <LongitudeDegrees>2.89607285521924495697021484375</LongitudeDegrees>
            </Position>
            <AltitudeMeters>340.79998779296875</AltitudeMeters>
            <DistanceMeters>NAN</DistanceMeters>
          </Trackpoint>
          <Trackpoint>
            <Time>2020-02-15T10:10:23.000Z</Time>
            <Position>
              <LatitudeDegrees>41.967932023108005523681640625</LatitudeDegrees>
              <LongitudeDegrees>2.89606967009603977203369140625</LongitudeDegrees>
            </Position>
            <AltitudeMeters>340.79998779296875</AltitudeMeters>
            <DistanceMeters>NAN</DistanceMeters>
          </Trackpoint>
          <Trackpoint>
            <Time>2020-02-15T10:10:27.000Z</Time>
            <Position>
              <LatitudeDegrees>41.9678808934986591339111328125</LatitudeDegrees>
              <LongitudeDegrees>2.89604586549103260040283203125</LongitudeDegrees>
            </Position>
            <AltitudeMeters>341.600006103515625</AltitudeMeters>
            <DistanceMeters>NAN</DistanceMeters>
          </Trackpoint>
          <Trackpoint>
            <Time>2020-02-15T10:10:28.000Z</Time>
            <Position>
              <LatitudeDegrees>41.96786396205425262451171875</LatitudeDegrees>
              <LongitudeDegrees>2.89603597484529018402099609375</LongitudeDegrees>
            </Position>
            <AltitudeMeters>341.399993896484375</AltitudeMeters>
            <DistanceMeters>NAN</DistanceMeters>
          </Trackpoint>
          <Trackpoint>
            <Time>2020-02-15T10:10:32.000Z</Time>
            <Position>
              <LatitudeDegrees>41.9678057916462421417236328125</LatitudeDegrees>
              <LongitudeDegrees>2.89600596763193607330322265625</LongitudeDegrees>
            </Position>
            <AltitudeMeters>341.79998779296875</AltitudeMeters>
            <DistanceMeters>NAN</DistanceMeters>
          </Trackpoint>
          <Trackpoint>
            <Time>2020-02-15T10:10:33.000Z</Time>
            <Position>
              <LatitudeDegrees>41.9677933864295482635498046875</LatitudeDegrees>
              <LongitudeDegrees>2.8959959931671619415283203125</LongitudeDegrees>
            </Position>
            <AltitudeMeters>341.79998779296875</AltitudeMeters>
            <DistanceMeters>NAN</DistanceMeters>
          </Trackpoint>
          <Trackpoint>
            <Time>2020-02-15T10:10:34.000Z</Time>
            <Position>
              <LatitudeDegrees>41.9677803106606006622314453125</LatitudeDegrees>
              <LongitudeDegrees>2.895987443625926971435546875</LongitudeDegrees>
            </Position>
            <AltitudeMeters>341.79998779296875</AltitudeMeters>
            <DistanceMeters>NAN</DistanceMeters>
          </Trackpoint>
          <Trackpoint>
            <Time>2020-02-15T10:10:35.000Z</Time>
            <Position>
              <LatitudeDegrees>41.96776530705392360687255859375</LatitudeDegrees>
              <LongitudeDegrees>2.89597696624696254730224609375</LongitudeDegrees>
            </Position>
            <AltitudeMeters>341.79998779296875</AltitudeMeters>
            <DistanceMeters>NAN</DistanceMeters>
          </Trackpoint>
          <Trackpoint>
            <Time>2020-02-15T10:10:36.000Z</Time>
            <Position>
              <LatitudeDegrees>41.9677548296749591827392578125</LatitudeDegrees>
              <LongitudeDegrees>2.89596858434379100799560546875</LongitudeDegrees>
            </Position>
            <AltitudeMeters>342</AltitudeMeters>
            <DistanceMeters>NAN</DistanceMeters>
          </Trackpoint>
          <Trackpoint>
            <Time>2020-02-15T10:10:37.000Z</Time>
            <Position>
              <LatitudeDegrees>41.96774401701986789703369140625</LatitudeDegrees>
              <LongitudeDegrees>2.89595886133611202239990234375</LongitudeDegrees>
            </Position>
            <AltitudeMeters>342</AltitudeMeters>
            <DistanceMeters>NAN</DistanceMeters>
          </Trackpoint>
          <Trackpoint>
            <Time>2020-02-15T10:10:38.000Z</Time>
            <Position>
              <LatitudeDegrees>41.96773043833673000335693359375</LatitudeDegrees>
              <LongitudeDegrees>2.89594830013811588287353515625</LongitudeDegrees>
            </Position>
            <AltitudeMeters>342.20001220703125</AltitudeMeters>
            <DistanceMeters>NAN</DistanceMeters>
          </Trackpoint>
          <Trackpoint>
            <Time>2020-02-15T10:10:39.000Z</Time>
            <Position>
              <LatitudeDegrees>41.9677182845771312713623046875</LatitudeDegrees>
              <LongitudeDegrees>2.89593958295881748199462890625</LongitudeDegrees>
            </Position>
            <AltitudeMeters>342.20001220703125</AltitudeMeters>
            <DistanceMeters>NAN</DistanceMeters>
          </Trackpoint>
          <Trackpoint>
            <Time>2020-02-15T10:10:40.000Z</Time>
            <Position>
              <LatitudeDegrees>41.9677055440843105316162109375</LatitudeDegrees>
              <LongitudeDegrees>2.89593120105564594268798828125</LongitudeDegrees>
            </Position>
            <AltitudeMeters>342.20001220703125</AltitudeMeters>
            <DistanceMeters>NAN</DistanceMeters>
          </Trackpoint>
          <Trackpoint>
            <Time>2020-02-15T10:10:41.000Z</Time>
            <Position>
              <LatitudeDegrees>41.9676943123340606689453125</LatitudeDegrees>
              <LongitudeDegrees>2.89592231623828411102294921875</LongitudeDegrees>
            </Position>
            <AltitudeMeters>342.399993896484375</AltitudeMeters>
            <DistanceMeters>NAN</DistanceMeters>
          </Trackpoint>
          <Trackpoint>
            <Time>2020-02-15T10:10:42.000Z</Time>
            <Position>
              <LatitudeDegrees>41.967683248221874237060546875</LatitudeDegrees>
              <LongitudeDegrees>2.895913682878017425537109375</LongitudeDegrees>
            </Position>
            <AltitudeMeters>342.600006103515625</AltitudeMeters>
            <DistanceMeters>NAN</DistanceMeters>
          </Trackpoint>
          <Trackpoint>
            <Time>2020-02-15T10:10:43.000Z</Time>
            <Position>
              <LatitudeDegrees>41.96767461486160755157470703125</LatitudeDegrees>
              <LongitudeDegrees>2.89590639062225818634033203125</LongitudeDegrees>
            </Position>
            <AltitudeMeters>342.600006103515625</AltitudeMeters>
            <DistanceMeters>NAN</DistanceMeters>
          </Trackpoint>
          <Trackpoint>
            <Time>2020-02-15T10:10:44.000Z</Time>
            <Position>
              <LatitudeDegrees>41.96766472421586513519287109375</LatitudeDegrees>
              <LongitudeDegrees>2.8958977572619915008544921875</LongitudeDegrees>
            </Position>
            <AltitudeMeters>342.79998779296875</AltitudeMeters>
            <DistanceMeters>NAN</DistanceMeters>
          </Trackpoint>
          <Trackpoint>
            <Time>2020-02-15T10:10:45.000Z</Time>
            <Position>
              <LatitudeDegrees>41.96765449829399585723876953125</LatitudeDegrees>
              <LongitudeDegrees>2.8958876989781856536865234375</LongitudeDegrees>
            </Position>
            <AltitudeMeters>343</AltitudeMeters>
            <DistanceMeters>NAN</DistanceMeters>
          </Trackpoint>
          <Trackpoint>
            <Time>2020-02-15T10:10:46.000Z</Time>
            <Position>
              <LatitudeDegrees>41.967643015086650848388671875</LatitudeDegrees>
              <LongitudeDegrees>2.895878814160823822021484375</LongitudeDegrees>
            </Position>
            <AltitudeMeters>343</AltitudeMeters>
            <DistanceMeters>NAN</DistanceMeters>
          </Trackpoint>
          <Trackpoint>
            <Time>2020-02-15T10:10:47.000Z</Time>
            <Position>
              <LatitudeDegrees>41.96763002313673496246337890625</LatitudeDegrees>
              <LongitudeDegrees>2.8958695940673351287841796875</LongitudeDegrees>
            </Position>
            <AltitudeMeters>343.399993896484375</AltitudeMeters>
            <DistanceMeters>NAN</DistanceMeters>
          </Trackpoint>
          <Trackpoint>
            <Time>2020-02-15T10:10:48.000Z</Time>
            <Position>
              <LatitudeDegrees>41.9676187075674533843994140625</LatitudeDegrees>
              <LongitudeDegrees>2.89586129598319530487060546875</LongitudeDegrees>
            </Position>
            <AltitudeMeters>343.79998779296875</AltitudeMeters>
            <DistanceMeters>NAN</DistanceMeters>
          </Trackpoint>
          <Trackpoint>
            <Time>2020-02-15T10:10:49.000Z</Time>
            <Position>
              <LatitudeDegrees>41.96760772727429866790771484375</LatitudeDegrees>
              <LongitudeDegrees>2.8958509862422943115234375</LongitudeDegrees>
            </Position>
            <AltitudeMeters>344</AltitudeMeters>
            <DistanceMeters>NAN</DistanceMeters>
          </Trackpoint>
          <Trackpoint>
            <Time>2020-02-15T10:10:50.000Z</Time>
            <Position>
              <LatitudeDegrees>41.9675962440669536590576171875</LatitudeDegrees>
              <LongitudeDegrees>2.89583983831107616424560546875</LongitudeDegrees>
            </Position>
            <AltitudeMeters>344</AltitudeMeters>
            <DistanceMeters>NAN</DistanceMeters>
          </Trackpoint>
          <Trackpoint>
            <Time>2020-02-15T10:10:51.000Z</Time>
            <Position>
              <LatitudeDegrees>41.96758358739316463470458984375</LatitudeDegrees>
              <LongitudeDegrees>2.8958283551037311553955078125</LongitudeDegrees>
            </Position>
            <AltitudeMeters>344.20001220703125</AltitudeMeters>
            <DistanceMeters>NAN</DistanceMeters>
          </Trackpoint>
          <Trackpoint>
            <Time>2020-02-15T10:10:52.000Z</Time>
            <Position>
              <LatitudeDegrees>41.96757118217647075653076171875</LatitudeDegrees>
              <LongitudeDegrees>2.89581636898219585418701171875</LongitudeDegrees>
            </Position>
            <AltitudeMeters>344.399993896484375</AltitudeMeters>
            <DistanceMeters>NAN</DistanceMeters>
          </Trackpoint>
          <Trackpoint>
            <Time>2020-02-15T10:10:53.000Z</Time>
            <Position>
              <LatitudeDegrees>41.96755819022655487060546875</LatitudeDegrees>
              <LongitudeDegrees>2.8958052210509777069091796875</LongitudeDegrees>
            </Position>
            <AltitudeMeters>344.600006103515625</AltitudeMeters>
            <DistanceMeters>NAN</DistanceMeters>
          </Trackpoint>
          <Trackpoint>
            <Time>2020-02-15T10:10:54.000Z</Time>
            <Position>
              <LatitudeDegrees>41.96754385717213153839111328125</LatitudeDegrees>
              <LongitudeDegrees>2.895794995129108428955078125</LongitudeDegrees>
            </Position>
            <AltitudeMeters>344.79998779296875</AltitudeMeters>
            <DistanceMeters>NAN</DistanceMeters>
          </Trackpoint>
          <Trackpoint>
            <Time>2020-02-15T10:10:55.000Z</Time>
            <Position>
              <LatitudeDegrees>41.96753245778381824493408203125</LatitudeDegrees>
              <LongitudeDegrees>2.89578585885465145111083984375</LongitudeDegrees>
            </Position>
            <AltitudeMeters>345.20001220703125</AltitudeMeters>
            <DistanceMeters>NAN</DistanceMeters>
          </Trackpoint>
          <Trackpoint>
            <Time>2020-02-15T10:10:56.000Z</Time>
            <Position>
              <LatitudeDegrees>41.96752038784325122833251953125</LatitudeDegrees>
              <LongitudeDegrees>2.895777560770511627197265625</LongitudeDegrees>
            </Position>
            <AltitudeMeters>345.20001220703125</AltitudeMeters>
            <DistanceMeters>NAN</DistanceMeters>
          </Trackpoint>
          <Trackpoint>
            <Time>2020-02-15T10:10:57.000Z</Time>
            <Position>
              <LatitudeDegrees>41.96751016192138195037841796875</LatitudeDegrees>
              <LongitudeDegrees>2.895770184695720672607421875</LongitudeDegrees>
            </Position>
            <AltitudeMeters>345.20001220703125</AltitudeMeters>
            <DistanceMeters>NAN</DistanceMeters>
          </Trackpoint>
          <Trackpoint>
            <Time>2020-02-15T10:10:58.000Z</Time>
            <Position>
              <LatitudeDegrees>41.96749809198081493377685546875</LatitudeDegrees>
              <LongitudeDegrees>2.89576088078320026397705078125</LongitudeDegrees>
            </Position>
            <AltitudeMeters>345.20001220703125</AltitudeMeters>
            <DistanceMeters>NAN</DistanceMeters>
          </Trackpoint>
          <Trackpoint>
            <Time>2020-02-15T10:10:59.000Z</Time>
            <Position>
              <LatitudeDegrees>41.967489458620548248291015625</LatitudeDegrees>
              <LongitudeDegrees>2.89575199596583843231201171875</LongitudeDegrees>
            </Position>
            <AltitudeMeters>345.399993896484375</AltitudeMeters>
            <DistanceMeters>NAN</DistanceMeters>
          </Trackpoint>
          <Trackpoint>
            <Time>2020-02-15T10:11:00.000Z</Time>
            <Position>
              <LatitudeDegrees>41.96747864596545696258544921875</LatitudeDegrees>
              <LongitudeDegrees>2.89574244059622287750244140625</LongitudeDegrees>
            </Position>
            <AltitudeMeters>345.600006103515625</AltitudeMeters>
            <DistanceMeters>NAN</DistanceMeters>
          </Trackpoint>
          <Trackpoint>
            <Time>2020-02-15T10:11:01.000Z</Time>
            <Position>
              <LatitudeDegrees>41.96746489964425563812255859375</LatitudeDegrees>
              <LongitudeDegrees>2.89573372341692447662353515625</LongitudeDegrees>
            </Position>
            <AltitudeMeters>345.600006103515625</AltitudeMeters>
            <DistanceMeters>NAN</DistanceMeters>
          </Trackpoint>
          <Trackpoint>
            <Time>2020-02-15T10:11:02.000Z</Time>
            <Position>
              <LatitudeDegrees>41.96744746528565883636474609375</LatitudeDegrees>
              <LongitudeDegrees>2.8957267664372920989990234375</LongitudeDegrees>
            </Position>
            <AltitudeMeters>345.79998779296875</AltitudeMeters>
            <DistanceMeters>NAN</DistanceMeters>
          </Trackpoint>
          <Trackpoint>
            <Time>2020-02-15T10:11:03.000Z</Time>
            <Position>
              <LatitudeDegrees>41.96743086911737918853759765625</LatitudeDegrees>
              <LongitudeDegrees>2.89572031237185001373291015625</LongitudeDegrees>
            </Position>
            <AltitudeMeters>345.79998779296875</AltitudeMeters>
            <DistanceMeters>NAN</DistanceMeters>
          </Trackpoint>
          <Trackpoint>
            <Time>2020-02-15T10:11:04.000Z</Time>
            <Position>
              <LatitudeDegrees>41.96741661988198757171630859375</LatitudeDegrees>
              <LongitudeDegrees>2.89571478031575679779052734375</LongitudeDegrees>
            </Position>
            <AltitudeMeters>346</AltitudeMeters>
            <DistanceMeters>NAN</DistanceMeters>
          </Trackpoint>
          <Trackpoint>
            <Time>2020-02-15T10:11:05.000Z</Time>
            <Position>
              <LatitudeDegrees>41.96740320883691310882568359375</LatitudeDegrees>
              <LongitudeDegrees>2.895709834992885589599609375</LongitudeDegrees>
            </Position>
            <AltitudeMeters>346.20001220703125</AltitudeMeters>
            <DistanceMeters>NAN</DistanceMeters>
          </Trackpoint>
          <Trackpoint>
            <Time>2020-02-15T10:11:06.000Z</Time>
            <Position>
              <LatitudeDegrees>41.96738845668733119964599609375</LatitudeDegrees>
              <LongitudeDegrees>2.8957059793174266815185546875</LongitudeDegrees>
            </Position>
            <AltitudeMeters>346.20001220703125</AltitudeMeters>
            <DistanceMeters>NAN</DistanceMeters>
          </Trackpoint>
          <Trackpoint>
            <Time>2020-02-15T10:11:07.000Z</Time>
            <Position>
              <LatitudeDegrees>41.96737169288098812103271484375</LatitudeDegrees>
              <LongitudeDegrees>2.895705141127109527587890625</LongitudeDegrees>
            </Position>
            <AltitudeMeters>346.399993896484375</AltitudeMeters>
            <DistanceMeters>NAN</DistanceMeters>
          </Trackpoint>
          <Trackpoint>
            <Time>2020-02-15T10:11:08.000Z</Time>
            <Position>
              <LatitudeDegrees>41.9673585332930088043212890625</LatitudeDegrees>
              <LongitudeDegrees>2.895710505545139312744140625</LongitudeDegrees>
            </Position>
            <AltitudeMeters>346.399993896484375</AltitudeMeters>
            <DistanceMeters>NAN</DistanceMeters>
          </Trackpoint>
          <Trackpoint>
            <Time>2020-02-15T10:11:09.000Z</Time>
            <Position>
              <LatitudeDegrees>41.96734688244760036468505859375</LatitudeDegrees>
              <LongitudeDegrees>2.895721904933452606201171875</LongitudeDegrees>
            </Position>
            <AltitudeMeters>346.600006103515625</AltitudeMeters>
            <DistanceMeters>NAN</DistanceMeters>
          </Trackpoint>
          <Trackpoint>
            <Time>2020-02-15T10:11:10.000Z</Time>
            <Position>
              <LatitudeDegrees>41.96734118275344371795654296875</LatitudeDegrees>
              <LongitudeDegrees>2.8957421891391277313232421875</LongitudeDegrees>
            </Position>
            <AltitudeMeters>346.600006103515625</AltitudeMeters>
            <DistanceMeters>NAN</DistanceMeters>
          </Trackpoint>
          <Trackpoint>
            <Time>2020-02-15T10:11:11.000Z</Time>
            <Position>
              <LatitudeDegrees>41.96733967401087284088134765625</LatitudeDegrees>
              <LongitudeDegrees>2.89576406590640544891357421875</LongitudeDegrees>
            </Position>
            <AltitudeMeters>346.79998779296875</AltitudeMeters>
            <DistanceMeters>NAN</DistanceMeters>
          </Trackpoint>
          <Trackpoint>
            <Time>2020-02-15T10:11:12.000Z</Time>
            <Position>
              <LatitudeDegrees>41.96733850054442882537841796875</LatitudeDegrees>
              <LongitudeDegrees>2.8957871161401271820068359375</LongitudeDegrees>
            </Position>
            <AltitudeMeters>347</AltitudeMeters>
            <DistanceMeters>NAN</DistanceMeters>
          </Trackpoint>
          <Trackpoint>
            <Time>2020-02-15T10:11:13.000Z</Time>
            <Position>
              <LatitudeDegrees>41.9673429429531097412109375</LatitudeDegrees>
              <LongitudeDegrees>2.89580932818353176116943359375</LongitudeDegrees>
            </Position>
            <AltitudeMeters>347</AltitudeMeters>
            <DistanceMeters>NAN</DistanceMeters>
          </Trackpoint>
          <Trackpoint>
            <Time>2020-02-15T10:11:14.000Z</Time>
            <Position>
              <LatitudeDegrees>41.9673483073711395263671875</LatitudeDegrees>
              <LongitudeDegrees>2.8958256728947162628173828125</LongitudeDegrees>
            </Position>
            <AltitudeMeters>347.20001220703125</AltitudeMeters>
            <DistanceMeters>NAN</DistanceMeters>
          </Trackpoint>
          <Trackpoint>
            <Time>2020-02-15T10:11:15.000Z</Time>
            <Position>
              <LatitudeDegrees>41.9673521630465984344482421875</LatitudeDegrees>
              <LongitudeDegrees>2.89584436453878879547119140625</LongitudeDegrees>
            </Position>
            <AltitudeMeters>347.399993896484375</AltitudeMeters>
            <DistanceMeters>NAN</DistanceMeters>
          </Trackpoint>
          <Trackpoint>
            <Time>2020-02-15T10:11:16.000Z</Time>
            <Position>
              <LatitudeDegrees>41.96735811419785022735595703125</LatitudeDegrees>
              <LongitudeDegrees>2.895864062011241912841796875</LongitudeDegrees>
            </Position>
            <AltitudeMeters>347.399993896484375</AltitudeMeters>
            <DistanceMeters>NAN</DistanceMeters>
          </Trackpoint>
          <Trackpoint>
            <Time>2020-02-15T10:11:17.000Z</Time>
            <Position>
              <LatitudeDegrees>41.9673652388155460357666015625</LatitudeDegrees>
              <LongitudeDegrees>2.89588426239788532257080078125</LongitudeDegrees>
            </Position>
            <AltitudeMeters>347.399993896484375</AltitudeMeters>
            <DistanceMeters>NAN</DistanceMeters>
          </Trackpoint>
          <Trackpoint>
            <Time>2020-02-15T10:11:18.000Z</Time>
            <Position>
              <LatitudeDegrees>41.96737253107130527496337890625</LatitudeDegrees>
              <LongitudeDegrees>2.89590354077517986297607421875</LongitudeDegrees>
            </Position>
            <AltitudeMeters>347.600006103515625</AltitudeMeters>
            <DistanceMeters>NAN</DistanceMeters>
          </Trackpoint>
          <Trackpoint>
            <Time>2020-02-15T10:11:19.000Z</Time>
            <Position>
              <LatitudeDegrees>41.9673799909651279449462890625</LatitudeDegrees>
              <LongitudeDegrees>2.89592080749571323394775390625</LongitudeDegrees>
            </Position>
            <AltitudeMeters>347.600006103515625</AltitudeMeters>
            <DistanceMeters>NAN</DistanceMeters>
          </Trackpoint>
          <Trackpoint>
            <Time>2020-02-15T10:11:20.000Z</Time>
            <Position>
              <LatitudeDegrees>41.9673870317637920379638671875</LatitudeDegrees>
              <LongitudeDegrees>2.8959359787404537200927734375</LongitudeDegrees>
            </Position>
            <AltitudeMeters>347.79998779296875</AltitudeMeters>
            <DistanceMeters>NAN</DistanceMeters>
          </Trackpoint>
          <Trackpoint>
            <Time>2020-02-15T10:11:21.000Z</Time>
            <Position>
              <LatitudeDegrees>41.96739591658115386962890625</LatitudeDegrees>
              <LongitudeDegrees>2.895953245460987091064453125</LongitudeDegrees>
            </Position>
            <AltitudeMeters>348</AltitudeMeters>
            <DistanceMeters>NAN</DistanceMeters>
          </Trackpoint>
          <Trackpoint>
            <Time>2020-02-15T10:11:22.000Z</Time>
            <Position>
              <LatitudeDegrees>41.96740471757948398590087890625</LatitudeDegrees>
              <LongitudeDegrees>2.895971350371837615966796875</LongitudeDegrees>
            </Position>
            <AltitudeMeters>348.20001220703125</AltitudeMeters>
            <DistanceMeters>NAN</DistanceMeters>
          </Trackpoint>
          <Trackpoint>
            <Time>2020-02-15T10:11:23.000Z</Time>
            <Position>
              <LatitudeDegrees>41.9674121774733066558837890625</LatitudeDegrees>
              <LongitudeDegrees>2.8959876112639904022216796875</LongitudeDegrees>
            </Position>
            <AltitudeMeters>348.20001220703125</AltitudeMeters>
            <DistanceMeters>NAN</DistanceMeters>
          </Trackpoint>
          <Trackpoint>
            <Time>2020-02-15T10:11:24.000Z</Time>
            <Position>
              <LatitudeDegrees>41.9674195535480976104736328125</LatitudeDegrees>
              <LongitudeDegrees>2.89600194431841373443603515625</LongitudeDegrees>
            </Position>
            <AltitudeMeters>348.600006103515625</AltitudeMeters>
            <DistanceMeters>NAN</DistanceMeters>
          </Trackpoint>
          <Trackpoint>
            <Time>2020-02-15T10:11:25.000Z</Time>
            <Position>
              <LatitudeDegrees>41.967427097260951995849609375</LatitudeDegrees>
              <LongitudeDegrees>2.8960120864212512969970703125</LongitudeDegrees>
            </Position>
            <AltitudeMeters>348.79998779296875</AltitudeMeters>
            <DistanceMeters>NAN</DistanceMeters>
          </Trackpoint>
          <Trackpoint>
            <Time>2020-02-15T10:11:26.000Z</Time>
            <Position>
              <LatitudeDegrees>41.96743371896445751190185546875</LatitudeDegrees>
              <LongitudeDegrees>2.89602306671440601348876953125</LongitudeDegrees>
            </Position>
            <AltitudeMeters>349.20001220703125</AltitudeMeters>
            <DistanceMeters>NAN</DistanceMeters>
          </Trackpoint>
          <Trackpoint>
            <Time>2020-02-15T10:11:27.000Z</Time>
            <Position>
              <LatitudeDegrees>41.9674386642873287200927734375</LatitudeDegrees>
              <LongitudeDegrees>2.8960345499217510223388671875</LongitudeDegrees>
            </Position>
            <AltitudeMeters>349.399993896484375</AltitudeMeters>
            <DistanceMeters>NAN</DistanceMeters>
          </Trackpoint>
          <Trackpoint>
            <Time>2020-02-15T10:11:28.000Z</Time>
            <Position>
              <LatitudeDegrees>41.96744478307664394378662109375</LatitudeDegrees>
              <LongitudeDegrees>2.8960493020713329315185546875</LongitudeDegrees>
            </Position>
            <AltitudeMeters>349.399993896484375</AltitudeMeters>
            <DistanceMeters>NAN</DistanceMeters>
          </Trackpoint>
          <Trackpoint>
            <Time>2020-02-15T10:11:29.000Z</Time>
            <Position>
              <LatitudeDegrees>41.96745417080819606781005859375</LatitudeDegrees>
              <LongitudeDegrees>2.8960633836686611175537109375</LongitudeDegrees>
            </Position>
            <AltitudeMeters>349.79998779296875</AltitudeMeters>
            <DistanceMeters>NAN</DistanceMeters>
          </Trackpoint>
          <Trackpoint>
            <Time>2020-02-15T10:11:30.000Z</Time>
            <Position>
              <LatitudeDegrees>41.96746406145393848419189453125</LatitudeDegrees>
              <LongitudeDegrees>2.89607553742825984954833984375</LongitudeDegrees>
            </Position>
            <AltitudeMeters>349.79998779296875</AltitudeMeters>
            <DistanceMeters>NAN</DistanceMeters>
          </Trackpoint>
          <Trackpoint>
            <Time>2020-02-15T10:11:31.000Z</Time>
            <Position>
              <LatitudeDegrees>41.96747596375644207000732421875</LatitudeDegrees>
              <LongitudeDegrees>2.8960865177214145660400390625</LongitudeDegrees>
            </Position>
            <AltitudeMeters>350</AltitudeMeters>
            <DistanceMeters>NAN</DistanceMeters>
          </Trackpoint>
          <Trackpoint>
            <Time>2020-02-15T10:11:32.000Z</Time>
            <Position>
              <LatitudeDegrees>41.96748711168766021728515625</LatitudeDegrees>
              <LongitudeDegrees>2.8960977494716644287109375</LongitudeDegrees>
            </Position>
            <AltitudeMeters>350</AltitudeMeters>
            <DistanceMeters>NAN</DistanceMeters>
          </Trackpoint>
          <Trackpoint>
            <Time>2020-02-15T10:11:33.000Z</Time>
            <Position>
              <LatitudeDegrees>41.9674973376095294952392578125</LatitudeDegrees>
              <LongitudeDegrees>2.89610990323126316070556640625</LongitudeDegrees>
            </Position>
            <AltitudeMeters>350.20001220703125</AltitudeMeters>
            <DistanceMeters>NAN</DistanceMeters>
          </Trackpoint>
          <Trackpoint>
            <Time>2020-02-15T10:11:34.000Z</Time>
            <Position>
              <LatitudeDegrees>41.96750865317881107330322265625</LatitudeDegrees>
              <LongitudeDegrees>2.89612113498151302337646484375</LongitudeDegrees>
            </Position>
            <AltitudeMeters>350.399993896484375</AltitudeMeters>
            <DistanceMeters>NAN</DistanceMeters>
          </Trackpoint>
          <Trackpoint>
            <Time>2020-02-15T10:11:35.000Z</Time>
            <Position>
              <LatitudeDegrees>41.9675191305577754974365234375</LatitudeDegrees>
              <LongitudeDegrees>2.896132282912731170654296875</LongitudeDegrees>
            </Position>
            <AltitudeMeters>350.600006103515625</AltitudeMeters>
            <DistanceMeters>NAN</DistanceMeters>
          </Trackpoint>
          <Trackpoint>
            <Time>2020-02-15T10:11:36.000Z</Time>
            <Position>
              <LatitudeDegrees>41.9675301946699619293212890625</LatitudeDegrees>
              <LongitudeDegrees>2.89614711888134479522705078125</LongitudeDegrees>
            </Position>
            <AltitudeMeters>350.600006103515625</AltitudeMeters>
            <DistanceMeters>NAN</DistanceMeters>
          </Trackpoint>
          <Trackpoint>
            <Time>2020-02-15T10:11:37.000Z</Time>
            <Position>
              <LatitudeDegrees>41.9675405882298946380615234375</LatitudeDegrees>
              <LongitudeDegrees>2.8961646370589733123779296875</LongitudeDegrees>
            </Position>
            <AltitudeMeters>351</AltitudeMeters>
            <DistanceMeters>NAN</DistanceMeters>
          </Trackpoint>
          <Trackpoint>
            <Time>2020-02-15T10:11:38.000Z</Time>
            <Position>
              <LatitudeDegrees>41.967549808323383331298828125</LatitudeDegrees>
              <LongitudeDegrees>2.8961835801601409912109375</LongitudeDegrees>
            </Position>
            <AltitudeMeters>351.20001220703125</AltitudeMeters>
            <DistanceMeters>NAN</DistanceMeters>
          </Trackpoint>
          <Trackpoint>
            <Time>2020-02-15T10:11:39.000Z</Time>
            <Position>
              <LatitudeDegrees>41.96755844168365001678466796875</LatitudeDegrees>
              <LongitudeDegrees>2.8962015174329280853271484375</LongitudeDegrees>
            </Position>
            <AltitudeMeters>351.20001220703125</AltitudeMeters>
            <DistanceMeters>NAN</DistanceMeters>
          </Trackpoint>
          <Trackpoint>
            <Time>2020-02-15T10:11:40.000Z</Time>
            <Position>
              <LatitudeDegrees>41.967567913234233856201171875</LatitudeDegrees>
              <LongitudeDegrees>2.8962186165153980255126953125</LongitudeDegrees>
            </Position>
            <AltitudeMeters>351.20001220703125</AltitudeMeters>
            <DistanceMeters>NAN</DistanceMeters>
          </Trackpoint>
          <Trackpoint>
            <Time>2020-02-15T10:11:41.000Z</Time>
            <Position>
              <LatitudeDegrees>41.96757889352738857269287109375</LatitudeDegrees>
              <LongitudeDegrees>2.89623294956982135772705078125</LongitudeDegrees>
            </Position>
            <AltitudeMeters>351.399993896484375</AltitudeMeters>
            <DistanceMeters>NAN</DistanceMeters>
          </Trackpoint>
          <Trackpoint>
            <Time>2020-02-15T10:11:42.000Z</Time>
            <Position>
              <LatitudeDegrees>41.9675892032682895660400390625</LatitudeDegrees>
              <LongitudeDegrees>2.89624669589102268218994140625</LongitudeDegrees>
            </Position>
            <AltitudeMeters>351.399993896484375</AltitudeMeters>
            <DistanceMeters>NAN</DistanceMeters>
          </Trackpoint>
          <Trackpoint>
            <Time>2020-02-15T10:11:43.000Z</Time>
            <Position>
              <LatitudeDegrees>41.967596746981143951416015625</LatitudeDegrees>
              <LongitudeDegrees>2.89626077748835086822509765625</LongitudeDegrees>
            </Position>
            <AltitudeMeters>351.79998779296875</AltitudeMeters>
            <DistanceMeters>NAN</DistanceMeters>
          </Trackpoint>
          <Trackpoint>
            <Time>2020-02-15T10:11:44.000Z</Time>
            <Position>
              <LatitudeDegrees>41.96760303340852260589599609375</LatitudeDegrees>
              <LongitudeDegrees>2.896273098886013031005859375</LongitudeDegrees>
            </Position>
            <AltitudeMeters>351.79998779296875</AltitudeMeters>
            <DistanceMeters>NAN</DistanceMeters>
          </Trackpoint>
          <Trackpoint>
            <Time>2020-02-15T10:11:45.000Z</Time>
            <Position>
              <LatitudeDegrees>41.96761074475944042205810546875</LatitudeDegrees>
              <LongitudeDegrees>2.8962880186736583709716796875</LongitudeDegrees>
            </Position>
            <AltitudeMeters>351.79998779296875</AltitudeMeters>
            <DistanceMeters>NAN</DistanceMeters>
          </Trackpoint>
          <Trackpoint>
            <Time>2020-02-15T10:11:46.000Z</Time>
            <Position>
              <LatitudeDegrees>41.9676183722913265228271484375</LatitudeDegrees>
              <LongitudeDegrees>2.89630235172808170318603515625</LongitudeDegrees>
            </Position>
            <AltitudeMeters>352</AltitudeMeters>
            <DistanceMeters>NAN</DistanceMeters>
          </Trackpoint>
          <Trackpoint>
            <Time>2020-02-15T10:11:47.000Z</Time>
            <Position>
              <LatitudeDegrees>41.9676260836422443389892578125</LatitudeDegrees>
              <LongitudeDegrees>2.8963155113160610198974609375</LongitudeDegrees>
            </Position>
            <AltitudeMeters>352.20001220703125</AltitudeMeters>
            <DistanceMeters>NAN</DistanceMeters>
          </Trackpoint>
          <Trackpoint>
            <Time>2020-02-15T10:11:48.000Z</Time>
            <Position>
              <LatitudeDegrees>41.96763404645025730133056640625</LatitudeDegrees>
              <LongitudeDegrees>2.89632867090404033660888671875</LongitudeDegrees>
            </Position>
            <AltitudeMeters>352.20001220703125</AltitudeMeters>
            <DistanceMeters>NAN</DistanceMeters>
          </Trackpoint>
          <Trackpoint>
            <Time>2020-02-15T10:11:49.000Z</Time>
            <Position>
              <LatitudeDegrees>41.9676425121724605560302734375</LatitudeDegrees>
              <LongitudeDegrees>2.89634250104427337646484375</LongitudeDegrees>
            </Position>
            <AltitudeMeters>352.600006103515625</AltitudeMeters>
            <DistanceMeters>NAN</DistanceMeters>
          </Trackpoint>
          <Trackpoint>
            <Time>2020-02-15T10:11:50.000Z</Time>
            <Position>
              <LatitudeDegrees>41.96765198372304439544677734375</LatitudeDegrees>
              <LongitudeDegrees>2.8963554091751575469970703125</LongitudeDegrees>
            </Position>
            <AltitudeMeters>352.79998779296875</AltitudeMeters>
            <DistanceMeters>NAN</DistanceMeters>
          </Trackpoint>
          <Trackpoint>
            <Time>2020-02-15T10:11:51.000Z</Time>
            <Position>
              <LatitudeDegrees>41.9676621258258819580078125</LatitudeDegrees>
              <LongitudeDegrees>2.896368987858295440673828125</LongitudeDegrees>
            </Position>
            <AltitudeMeters>353.20001220703125</AltitudeMeters>
            <DistanceMeters>NAN</DistanceMeters>
          </Trackpoint>
          <Trackpoint>
            <Time>2020-02-15T10:11:52.000Z</Time>
            <Position>
              <LatitudeDegrees>41.96767059154808521270751953125</LatitudeDegrees>
              <LongitudeDegrees>2.89638541638851165771484375</LongitudeDegrees>
            </Position>
            <AltitudeMeters>353.20001220703125</AltitudeMeters>
            <DistanceMeters>NAN</DistanceMeters>
          </Trackpoint>
          <Trackpoint>
            <Time>2020-02-15T10:11:53.000Z</Time>
            <Position>
              <LatitudeDegrees>41.96767779998481273651123046875</LatitudeDegrees>
              <LongitudeDegrees>2.8964030183851718902587890625</LongitudeDegrees>
            </Position>
            <AltitudeMeters>353.20001220703125</AltitudeMeters>
            <DistanceMeters>NAN</DistanceMeters>
          </Trackpoint>
          <Trackpoint>
            <Time>2020-02-15T10:11:54.000Z</Time>
            <Position>
              <LatitudeDegrees>41.967684589326381683349609375</LatitudeDegrees>
              <LongitudeDegrees>2.89641751907765865325927734375</LongitudeDegrees>
            </Position>
            <AltitudeMeters>353.79998779296875</AltitudeMeters>
            <DistanceMeters>NAN</DistanceMeters>
          </Trackpoint>
          <Trackpoint>
            <Time>2020-02-15T10:11:55.000Z</Time>
            <Position>
              <LatitudeDegrees>41.96768819354474544525146484375</LatitudeDegrees>
              <LongitudeDegrees>2.89643277414143085479736328125</LongitudeDegrees>
            </Position>
            <AltitudeMeters>354</AltitudeMeters>
            <DistanceMeters>NAN</DistanceMeters>
          </Trackpoint>
          <Trackpoint>
            <Time>2020-02-15T10:11:56.000Z</Time>
            <Position>
              <LatitudeDegrees>41.96768970228731632232666015625</LatitudeDegrees>
              <LongitudeDegrees>2.896447442471981048583984375</LongitudeDegrees>
            </Position>
            <AltitudeMeters>354.20001220703125</AltitudeMeters>
            <DistanceMeters>NAN</DistanceMeters>
          </Trackpoint>
          <Trackpoint>
            <Time>2020-02-15T10:11:57.000Z</Time>
            <Position>
              <LatitudeDegrees>41.9676954858005046844482421875</LatitudeDegrees>
              <LongitudeDegrees>2.8964625298976898193359375</LongitudeDegrees>
            </Position>
            <AltitudeMeters>354.20001220703125</AltitudeMeters>
            <DistanceMeters>NAN</DistanceMeters>
          </Trackpoint>
          <Trackpoint>
            <Time>2020-02-15T10:11:58.000Z</Time>
            <Position>
              <LatitudeDegrees>41.967704705893993377685546875</LatitudeDegrees>
              <LongitudeDegrees>2.8964786231517791748046875</LongitudeDegrees>
            </Position>
            <AltitudeMeters>354.399993896484375</AltitudeMeters>
            <DistanceMeters>NAN</DistanceMeters>
          </Trackpoint>
          <Trackpoint>
            <Time>2020-02-15T10:11:59.000Z</Time>
            <Position>
              <LatitudeDegrees>41.96771535091102123260498046875</LatitudeDegrees>
              <LongitudeDegrees>2.89649345912039279937744140625</LongitudeDegrees>
            </Position>
            <AltitudeMeters>354.600006103515625</AltitudeMeters>
            <DistanceMeters>NAN</DistanceMeters>
          </Trackpoint>
          <Trackpoint>
            <Time>2020-02-15T10:12:00.000Z</Time>
            <Position>
              <LatitudeDegrees>41.967726163566112518310546875</LatitudeDegrees>
              <LongitudeDegrees>2.8965079598128795623779296875</LongitudeDegrees>
            </Position>
            <AltitudeMeters>354.79998779296875</AltitudeMeters>
            <DistanceMeters>NAN</DistanceMeters>
          </Trackpoint>
          <Trackpoint>
            <Time>2020-02-15T10:12:01.000Z</Time>
            <Position>
              <LatitudeDegrees>41.9677370600402355194091796875</LatitudeDegrees>
              <LongitudeDegrees>2.896521873772144317626953125</LongitudeDegrees>
            </Position>
            <AltitudeMeters>354.79998779296875</AltitudeMeters>
            <DistanceMeters>NAN</DistanceMeters>
          </Trackpoint>
          <Trackpoint>
            <Time>2020-02-15T10:12:02.000Z</Time>
            <Position>
              <LatitudeDegrees>41.96774753741919994354248046875</LatitudeDegrees>
              <LongitudeDegrees>2.896533943712711334228515625</LongitudeDegrees>
            </Position>
            <AltitudeMeters>354.79998779296875</AltitudeMeters>
            <DistanceMeters>NAN</DistanceMeters>
          </Trackpoint>
          <Trackpoint>
            <Time>2020-02-15T10:12:03.000Z</Time>
            <Position>
              <LatitudeDegrees>41.967756338417530059814453125</LatitudeDegrees>
              <LongitudeDegrees>2.89654626511037349700927734375</LongitudeDegrees>
            </Position>
            <AltitudeMeters>355.399993896484375</AltitudeMeters>
            <DistanceMeters>NAN</DistanceMeters>
          </Trackpoint>
          <Trackpoint>
            <Time>2020-02-15T10:12:04.000Z</Time>
            <Position>
              <LatitudeDegrees>41.967763043940067291259765625</LatitudeDegrees>
              <LongitudeDegrees>2.89655900560319423675537109375</LongitudeDegrees>
            </Position>
            <AltitudeMeters>355.600006103515625</AltitudeMeters>
            <DistanceMeters>NAN</DistanceMeters>
          </Trackpoint>
          <Trackpoint>
            <Time>2020-02-15T10:12:05.000Z</Time>
            <Position>
              <LatitudeDegrees>41.96777100674808025360107421875</LatitudeDegrees>
              <LongitudeDegrees>2.89657275192439556121826171875</LongitudeDegrees>
            </Position>
            <AltitudeMeters>356</AltitudeMeters>
            <DistanceMeters>NAN</DistanceMeters>
          </Trackpoint>
          <Trackpoint>
            <Time>2020-02-15T10:12:06.000Z</Time>
            <Position>
              <LatitudeDegrees>41.9677799753844738006591796875</LatitudeDegrees>
              <LongitudeDegrees>2.89658633060753345489501953125</LongitudeDegrees>
            </Position>
            <AltitudeMeters>356.20001220703125</AltitudeMeters>
            <DistanceMeters>NAN</DistanceMeters>
          </Trackpoint>
          <Trackpoint>
            <Time>2020-02-15T10:12:07.000Z</Time>
            <Position>
              <LatitudeDegrees>41.96778827346861362457275390625</LatitudeDegrees>
              <LongitudeDegrees>2.89659923873841762542724609375</LongitudeDegrees>
            </Position>
            <AltitudeMeters>356.399993896484375</AltitudeMeters>
            <DistanceMeters>NAN</DistanceMeters>
          </Trackpoint>
          <Trackpoint>
            <Time>2020-02-15T10:12:08.000Z</Time>
            <Position>
              <LatitudeDegrees>41.9677974097430706024169921875</LatitudeDegrees>
              <LongitudeDegrees>2.89661072194576263427734375</LongitudeDegrees>
            </Position>
            <AltitudeMeters>356.600006103515625</AltitudeMeters>
            <DistanceMeters>NAN</DistanceMeters>
          </Trackpoint>
          <Trackpoint>
            <Time>2020-02-15T10:12:09.000Z</Time>
            <Position>
              <LatitudeDegrees>41.96780654601752758026123046875</LatitudeDegrees>
              <LongitudeDegrees>2.89661876857280731201171875</LongitudeDegrees>
            </Position>
            <AltitudeMeters>356.79998779296875</AltitudeMeters>
            <DistanceMeters>NAN</DistanceMeters>
          </Trackpoint>
          <Trackpoint>
            <Time>2020-02-15T10:12:10.000Z</Time>
            <Position>
              <LatitudeDegrees>41.96781442500650882720947265625</LatitudeDegrees>
              <LongitudeDegrees>2.89662606082856655120849609375</LongitudeDegrees>
            </Position>
            <AltitudeMeters>357.399993896484375</AltitudeMeters>
            <DistanceMeters>NAN</DistanceMeters>
          </Trackpoint>
          <Trackpoint>
            <Time>2020-02-15T10:12:11.000Z</Time>
            <Position>
              <LatitudeDegrees>41.96782113052904605865478515625</LatitudeDegrees>
              <LongitudeDegrees>2.89663762785494327545166015625</LongitudeDegrees>
            </Position>
            <AltitudeMeters>357.79998779296875</AltitudeMeters>
            <DistanceMeters>NAN</DistanceMeters>
          </Trackpoint>
          <Trackpoint>
            <Time>2020-02-15T10:12:12.000Z</Time>
            <Position>
              <LatitudeDegrees>41.967825405299663543701171875</LatitudeDegrees>
              <LongitudeDegrees>2.8966477699577808380126953125</LongitudeDegrees>
            </Position>
            <AltitudeMeters>358</AltitudeMeters>
            <DistanceMeters>NAN</DistanceMeters>
          </Trackpoint>
          <Trackpoint>
            <Time>2020-02-15T10:12:13.000Z</Time>
            <Position>
              <LatitudeDegrees>41.9678332842886447906494140625</LatitudeDegrees>
              <LongitudeDegrees>2.89665791206061840057373046875</LongitudeDegrees>
            </Position>
            <AltitudeMeters>358.20001220703125</AltitudeMeters>
            <DistanceMeters>NAN</DistanceMeters>
          </Trackpoint>
          <Trackpoint>
            <Time>2020-02-15T10:12:14.000Z</Time>
            <Position>
              <LatitudeDegrees>41.9678430072963237762451171875</LatitudeDegrees>
              <LongitudeDegrees>2.8966705687344074249267578125</LongitudeDegrees>
            </Position>
            <AltitudeMeters>358.399993896484375</AltitudeMeters>
            <DistanceMeters>NAN</DistanceMeters>
          </Trackpoint>
          <Trackpoint>
            <Time>2020-02-15T10:12:15.000Z</Time>
            <Position>
              <LatitudeDegrees>41.967854239046573638916015625</LatitudeDegrees>
              <LongitudeDegrees>2.89668305777013301849365234375</LongitudeDegrees>
            </Position>
            <AltitudeMeters>358.600006103515625</AltitudeMeters>
            <DistanceMeters>NAN</DistanceMeters>
          </Trackpoint>
          <Trackpoint>
            <Time>2020-02-15T10:12:16.000Z</Time>
            <Position>
              <LatitudeDegrees>41.96786253713071346282958984375</LatitudeDegrees>
              <LongitudeDegrees>2.89669655263423919677734375</LongitudeDegrees>
            </Position>
            <AltitudeMeters>358.79998779296875</AltitudeMeters>
            <DistanceMeters>NAN</DistanceMeters>
          </Trackpoint>
          <Trackpoint>
            <Time>2020-02-15T10:12:17.000Z</Time>
            <Position>
              <LatitudeDegrees>41.96786941029131412506103515625</LatitudeDegrees>
              <LongitudeDegrees>2.89671130478382110595703125</LongitudeDegrees>
            </Position>
            <AltitudeMeters>359.20001220703125</AltitudeMeters>
            <DistanceMeters>NAN</DistanceMeters>
          </Trackpoint>
          <Trackpoint>
            <Time>2020-02-15T10:12:18.000Z</Time>
            <Position>
              <LatitudeDegrees>41.96787510998547077178955078125</LatitudeDegrees>
              <LongitudeDegrees>2.89672547020018100738525390625</LongitudeDegrees>
            </Position>
            <AltitudeMeters>359.600006103515625</AltitudeMeters>
            <DistanceMeters>NAN</DistanceMeters>
          </Trackpoint>
          <Trackpoint>
            <Time>2020-02-15T10:12:19.000Z</Time>
            <Position>
              <LatitudeDegrees>41.96788064204156398773193359375</LatitudeDegrees>
              <LongitudeDegrees>2.89674005471169948577880859375</LongitudeDegrees>
            </Position>
            <AltitudeMeters>360</AltitudeMeters>
            <DistanceMeters>NAN</DistanceMeters>
          </Trackpoint>
          <Trackpoint>
            <Time>2020-02-15T10:12:20.000Z</Time>
            <Position>
              <LatitudeDegrees>41.96788902394473552703857421875</LatitudeDegrees>
              <LongitudeDegrees>2.89675514213740825653076171875</LongitudeDegrees>
            </Position>
            <AltitudeMeters>360.399993896484375</AltitudeMeters>
            <DistanceMeters>NAN</DistanceMeters>
          </Trackpoint>
          <Trackpoint>
            <Time>2020-02-15T10:12:21.000Z</Time>
            <Position>
              <LatitudeDegrees>41.967897824943065643310546875</LatitudeDegrees>
              <LongitudeDegrees>2.89676955901086330413818359375</LongitudeDegrees>
            </Position>
            <AltitudeMeters>360.399993896484375</AltitudeMeters>
            <DistanceMeters>NAN</DistanceMeters>
          </Trackpoint>
          <Trackpoint>
            <Time>2020-02-15T10:12:22.000Z</Time>
            <Position>
              <LatitudeDegrees>41.96790612302720546722412109375</LatitudeDegrees>
              <LongitudeDegrees>2.89678447879850864410400390625</LongitudeDegrees>
            </Position>
            <AltitudeMeters>360.399993896484375</AltitudeMeters>
            <DistanceMeters>NAN</DistanceMeters>
          </Trackpoint>
          <Trackpoint>
            <Time>2020-02-15T10:12:23.000Z</Time>
            <Position>
              <LatitudeDegrees>41.96791601367294788360595703125</LatitudeDegrees>
              <LongitudeDegrees>2.896800152957439422607421875</LongitudeDegrees>
            </Position>
            <AltitudeMeters>360.79998779296875</AltitudeMeters>
            <DistanceMeters>NAN</DistanceMeters>
          </Trackpoint>
          <Trackpoint>
            <Time>2020-02-15T10:12:24.000Z</Time>
            <Position>
              <LatitudeDegrees>41.96792590431869029998779296875</LatitudeDegrees>
              <LongitudeDegrees>2.89681565947830677032470703125</LongitudeDegrees>
            </Position>
            <AltitudeMeters>360.79998779296875</AltitudeMeters>
            <DistanceMeters>NAN</DistanceMeters>
          </Trackpoint>
          <Trackpoint>
            <Time>2020-02-15T10:12:25.000Z</Time>
            <Position>
              <LatitudeDegrees>41.9679358787834644317626953125</LatitudeDegrees>
              <LongitudeDegrees>2.89683208800852298736572265625</LongitudeDegrees>
            </Position>
            <AltitudeMeters>361.20001220703125</AltitudeMeters>
            <DistanceMeters>NAN</DistanceMeters>
          </Trackpoint>
          <Trackpoint>
            <Time>2020-02-15T10:12:26.000Z</Time>
            <Position>
              <LatitudeDegrees>41.96794576942920684814453125</LatitudeDegrees>
              <LongitudeDegrees>2.89684834890067577362060546875</LongitudeDegrees>
            </Position>
            <AltitudeMeters>361.600006103515625</AltitudeMeters>
            <DistanceMeters>NAN</DistanceMeters>
          </Trackpoint>
          <Trackpoint>
            <Time>2020-02-15T10:12:27.000Z</Time>
            <Position>
              <LatitudeDegrees>41.96795473806560039520263671875</LatitudeDegrees>
              <LongitudeDegrees>2.896863520145416259765625</LongitudeDegrees>
            </Position>
            <AltitudeMeters>362</AltitudeMeters>
            <DistanceMeters>NAN</DistanceMeters>
          </Trackpoint>
          <Trackpoint>
            <Time>2020-02-15T10:12:28.000Z</Time>
            <Position>
              <LatitudeDegrees>41.967962197959423065185546875</LatitudeDegrees>
              <LongitudeDegrees>2.89687869139015674591064453125</LongitudeDegrees>
            </Position>
            <AltitudeMeters>362.399993896484375</AltitudeMeters>
            <DistanceMeters>NAN</DistanceMeters>
          </Trackpoint>
          <Trackpoint>
            <Time>2020-02-15T10:12:29.000Z</Time>
            <Position>
              <LatitudeDegrees>41.96796814911067485809326171875</LatitudeDegrees>
              <LongitudeDegrees>2.896894700825214385986328125</LongitudeDegrees>
            </Position>
            <AltitudeMeters>362.79998779296875</AltitudeMeters>
            <DistanceMeters>NAN</DistanceMeters>
          </Trackpoint>
          <Trackpoint>
            <Time>2020-02-15T10:12:30.000Z</Time>
            <Position>
              <LatitudeDegrees>41.9679757766425609588623046875</LatitudeDegrees>
              <LongitudeDegrees>2.8969139792025089263916015625</LongitudeDegrees>
            </Position>
            <AltitudeMeters>363</AltitudeMeters>
            <DistanceMeters>NAN</DistanceMeters>
          </Trackpoint>
          <Trackpoint>
            <Time>2020-02-15T10:12:31.000Z</Time>
            <Position>
              <LatitudeDegrees>41.96798390708863735198974609375</LatitudeDegrees>
              <LongitudeDegrees>2.8969330899417400360107421875</LongitudeDegrees>
            </Position>
            <AltitudeMeters>363.20001220703125</AltitudeMeters>
            <DistanceMeters>NAN</DistanceMeters>
          </Trackpoint>
          <Trackpoint>
            <Time>2020-02-15T10:12:32.000Z</Time>
            <Position>
              <LatitudeDegrees>41.96799078024923801422119140625</LatitudeDegrees>
              <LongitudeDegrees>2.89694926701486110687255859375</LongitudeDegrees>
            </Position>
            <AltitudeMeters>363.600006103515625</AltitudeMeters>
            <DistanceMeters>NAN</DistanceMeters>
          </Trackpoint>
          <Trackpoint>
            <Time>2020-02-15T10:12:33.000Z</Time>
            <Position>
              <LatitudeDegrees>41.96799530647695064544677734375</LatitudeDegrees>
              <LongitudeDegrees>2.8969605825841426849365234375</LongitudeDegrees>
            </Position>
            <AltitudeMeters>364</AltitudeMeters>
            <DistanceMeters>NAN</DistanceMeters>
          </Trackpoint>
          <Trackpoint>
            <Time>2020-02-15T10:12:34.000Z</Time>
            <Position>
              <LatitudeDegrees>41.96800201199948787689208984375</LatitudeDegrees>
              <LongitudeDegrees>2.89697256870567798614501953125</LongitudeDegrees>
            </Position>
            <AltitudeMeters>364.399993896484375</AltitudeMeters>
            <DistanceMeters>NAN</DistanceMeters>
          </Trackpoint>
          <Trackpoint>
            <Time>2020-02-15T10:12:35.000Z</Time>
            <Position>
              <LatitudeDegrees>41.9680099748075008392333984375</LatitudeDegrees>
              <LongitudeDegrees>2.8969880752265453338623046875</LongitudeDegrees>
            </Position>
            <AltitudeMeters>364.600006103515625</AltitudeMeters>
            <DistanceMeters>NAN</DistanceMeters>
          </Trackpoint>
          <Trackpoint>
            <Time>2020-02-15T10:12:36.000Z</Time>
            <Position>
              <LatitudeDegrees>41.9680186919867992401123046875</LatitudeDegrees>
              <LongitudeDegrees>2.89700509048998355865478515625</LongitudeDegrees>
            </Position>
            <AltitudeMeters>365</AltitudeMeters>
            <DistanceMeters>NAN</DistanceMeters>
          </Trackpoint>
          <Trackpoint>
            <Time>2020-02-15T10:12:37.000Z</Time>
            <Position>
              <LatitudeDegrees>41.9680277444422245025634765625</LatitudeDegrees>
              <LongitudeDegrees>2.89702218957245349884033203125</LongitudeDegrees>
            </Position>
            <AltitudeMeters>365.20001220703125</AltitudeMeters>
            <DistanceMeters>NAN</DistanceMeters>
          </Trackpoint>
          <Trackpoint>
            <Time>2020-02-15T10:12:38.000Z</Time>
            <Position>
              <LatitudeDegrees>41.9680378027260303497314453125</LatitudeDegrees>
              <LongitudeDegrees>2.89703845046460628509521484375</LongitudeDegrees>
            </Position>
            <AltitudeMeters>365.399993896484375</AltitudeMeters>
            <DistanceMeters>NAN</DistanceMeters>
          </Trackpoint>
          <Trackpoint>
            <Time>2020-02-15T10:12:39.000Z</Time>
            <Position>
              <LatitudeDegrees>41.96804727427661418914794921875</LatitudeDegrees>
              <LongitudeDegrees>2.8970544598996639251708984375</LongitudeDegrees>
            </Position>
            <AltitudeMeters>365.600006103515625</AltitudeMeters>
            <DistanceMeters>NAN</DistanceMeters>
          </Trackpoint>
          <Trackpoint>
            <Time>2020-02-15T10:12:40.000Z</Time>
            <Position>
              <LatitudeDegrees>41.9680569134652614593505859375</LatitudeDegrees>
              <LongitudeDegrees>2.89707214571535587310791015625</LongitudeDegrees>
            </Position>
            <AltitudeMeters>366</AltitudeMeters>
            <DistanceMeters>NAN</DistanceMeters>
          </Trackpoint>
          <Trackpoint>
            <Time>2020-02-15T10:12:41.000Z</Time>
            <Position>
              <LatitudeDegrees>41.96806437335908412933349609375</LatitudeDegrees>
              <LongitudeDegrees>2.8970873169600963592529296875</LongitudeDegrees>
            </Position>
            <AltitudeMeters>366.399993896484375</AltitudeMeters>
            <DistanceMeters>NAN</DistanceMeters>
          </Trackpoint>
          <Trackpoint>
            <Time>2020-02-15T10:12:42.000Z</Time>
            <Position>
              <LatitudeDegrees>41.968071162700653076171875</LatitudeDegrees>
              <LongitudeDegrees>2.89710022509098052978515625</LongitudeDegrees>
            </Position>
            <AltitudeMeters>366.79998779296875</AltitudeMeters>
            <DistanceMeters>NAN</DistanceMeters>
          </Trackpoint>
          <Trackpoint>
            <Time>2020-02-15T10:12:43.000Z</Time>
            <Position>
              <LatitudeDegrees>41.96807946078479290008544921875</LatitudeDegrees>
              <LongitudeDegrees>2.89711304940283298492431640625</LongitudeDegrees>
            </Position>
            <AltitudeMeters>366.79998779296875</AltitudeMeters>
            <DistanceMeters>NAN</DistanceMeters>
          </Trackpoint>
          <Trackpoint>
            <Time>2020-02-15T10:12:44.000Z</Time>
            <Position>
              <LatitudeDegrees>41.96808767504990100860595703125</LatitudeDegrees>
              <LongitudeDegrees>2.8971277177333831787109375</LongitudeDegrees>
            </Position>
            <AltitudeMeters>367.20001220703125</AltitudeMeters>
            <DistanceMeters>NAN</DistanceMeters>
          </Trackpoint>
          <Trackpoint>
            <Time>2020-02-15T10:12:45.000Z</Time>
            <Position>
              <LatitudeDegrees>41.96809194982051849365234375</LatitudeDegrees>
              <LongitudeDegrees>2.8971402905881404876708984375</LongitudeDegrees>
            </Position>
            <AltitudeMeters>367.20001220703125</AltitudeMeters>
            <DistanceMeters>NAN</DistanceMeters>
          </Trackpoint>
          <Trackpoint>
            <Time>2020-02-15T10:12:46.000Z</Time>
            <Position>
              <LatitudeDegrees>41.96809505112469196319580078125</LatitudeDegrees>
              <LongitudeDegrees>2.8971537016332149505615234375</LongitudeDegrees>
            </Position>
            <AltitudeMeters>367.79998779296875</AltitudeMeters>
            <DistanceMeters>NAN</DistanceMeters>
          </Trackpoint>
          <Trackpoint>
            <Time>2020-02-15T10:12:47.000Z</Time>
            <Position>
              <LatitudeDegrees>41.96809957735240459442138671875</LatitudeDegrees>
              <LongitudeDegrees>2.89716702885925769805908203125</LongitudeDegrees>
            </Position>
            <AltitudeMeters>368</AltitudeMeters>
            <DistanceMeters>NAN</DistanceMeters>
          </Trackpoint>
          <Trackpoint>
            <Time>2020-02-15T10:12:48.000Z</Time>
            <Position>
              <LatitudeDegrees>41.9681045226752758026123046875</LatitudeDegrees>
              <LongitudeDegrees>2.897180020809173583984375</LongitudeDegrees>
            </Position>
            <AltitudeMeters>368.399993896484375</AltitudeMeters>
            <DistanceMeters>NAN</DistanceMeters>
          </Trackpoint>
          <Trackpoint>
            <Time>2020-02-15T10:12:49.000Z</Time>
            <Position>
              <LatitudeDegrees>41.96810913272202014923095703125</LatitudeDegrees>
              <LongitudeDegrees>2.89719318039715290069580078125</LongitudeDegrees>
            </Position>
            <AltitudeMeters>368.600006103515625</AltitudeMeters>
            <DistanceMeters>NAN</DistanceMeters>
          </Trackpoint>
          <Trackpoint>
            <Time>2020-02-15T10:12:50.000Z</Time>
            <Position>
              <LatitudeDegrees>41.9681139104068279266357421875</LatitudeDegrees>
              <LongitudeDegrees>2.897206507623195648193359375</LongitudeDegrees>
            </Position>
            <AltitudeMeters>369.20001220703125</AltitudeMeters>
            <DistanceMeters>NAN</DistanceMeters>
          </Trackpoint>
          <Trackpoint>
            <Time>2020-02-15T10:12:51.000Z</Time>
            <Position>
              <LatitudeDegrees>41.96812120266258716583251953125</LatitudeDegrees>
              <LongitudeDegrees>2.89722033776342868804931640625</LongitudeDegrees>
            </Position>
            <AltitudeMeters>369.399993896484375</AltitudeMeters>
            <DistanceMeters>NAN</DistanceMeters>
          </Trackpoint>
          <Trackpoint>
            <Time>2020-02-15T10:12:52.000Z</Time>
            <Position>
              <LatitudeDegrees>41.96812950074672698974609375</LatitudeDegrees>
              <LongitudeDegrees>2.8972351737320423126220703125</LongitudeDegrees>
            </Position>
            <AltitudeMeters>369.79998779296875</AltitudeMeters>
            <DistanceMeters>NAN</DistanceMeters>
          </Trackpoint>
          <Trackpoint>
            <Time>2020-02-15T10:12:53.000Z</Time>
            <Position>
              <LatitudeDegrees>41.968138217926025390625</LatitudeDegrees>
              <LongitudeDegrees>2.89724967442452907562255859375</LongitudeDegrees>
            </Position>
            <AltitudeMeters>370.20001220703125</AltitudeMeters>
            <DistanceMeters>NAN</DistanceMeters>
          </Trackpoint>
          <Trackpoint>
            <Time>2020-02-15T10:12:54.000Z</Time>
            <Position>
              <LatitudeDegrees>41.96814768947660923004150390625</LatitudeDegrees>
              <LongitudeDegrees>2.8972653485834598541259765625</LongitudeDegrees>
            </Position>
            <AltitudeMeters>370.600006103515625</AltitudeMeters>
            <DistanceMeters>NAN</DistanceMeters>
          </Trackpoint>
          <Trackpoint>
            <Time>2020-02-15T10:12:55.000Z</Time>
            <Position>
              <LatitudeDegrees>41.96815422736108303070068359375</LatitudeDegrees>
              <LongitudeDegrees>2.89728253148496150970458984375</LongitudeDegrees>
            </Position>
            <AltitudeMeters>371</AltitudeMeters>
            <DistanceMeters>NAN</DistanceMeters>
          </Trackpoint>
          <Trackpoint>
            <Time>2020-02-15T10:12:56.000Z</Time>
            <Position>
              <LatitudeDegrees>41.968161351978778839111328125</LatitudeDegrees>
              <LongitudeDegrees>2.89729963056743144989013671875</LongitudeDegrees>
            </Position>
            <AltitudeMeters>371</AltitudeMeters>
            <DistanceMeters>NAN</DistanceMeters>
          </Trackpoint>
          <Trackpoint>
            <Time>2020-02-15T10:12:57.000Z</Time>
            <Position>
              <LatitudeDegrees>41.9681719131767749786376953125</LatitudeDegrees>
              <LongitudeDegrees>2.897314131259918212890625</LongitudeDegrees>
            </Position>
            <AltitudeMeters>371.20001220703125</AltitudeMeters>
            <DistanceMeters>NAN</DistanceMeters>
          </Trackpoint>
          <Trackpoint>
            <Time>2020-02-15T10:12:58.000Z</Time>
            <Position>
              <LatitudeDegrees>41.96818540804088115692138671875</LatitudeDegrees>
              <LongitudeDegrees>2.89732259698212146759033203125</LongitudeDegrees>
            </Position>
            <AltitudeMeters>371.399993896484375</AltitudeMeters>
            <DistanceMeters>NAN</DistanceMeters>
          </Trackpoint>
          <Trackpoint>
            <Time>2020-02-15T10:12:59.000Z</Time>
            <Position>
              <LatitudeDegrees>41.9681990705430507659912109375</LatitudeDegrees>
              <LongitudeDegrees>2.89732444100081920623779296875</LongitudeDegrees>
            </Position>
            <AltitudeMeters>371.79998779296875</AltitudeMeters>
            <DistanceMeters>NAN</DistanceMeters>
          </Trackpoint>
          <Trackpoint>
            <Time>2020-02-15T10:13:00.000Z</Time>
            <Position>
              <LatitudeDegrees>41.96821155957877635955810546875</LatitudeDegrees>
              <LongitudeDegrees>2.89732284843921661376953125</LongitudeDegrees>
            </Position>
            <AltitudeMeters>372.20001220703125</AltitudeMeters>
            <DistanceMeters>NAN</DistanceMeters>
          </Trackpoint>
          <Trackpoint>
            <Time>2020-02-15T10:13:01.000Z</Time>
            <Position>
              <LatitudeDegrees>41.96822161786258220672607421875</LatitudeDegrees>
              <LongitudeDegrees>2.8973176516592502593994140625</LongitudeDegrees>
            </Position>
            <AltitudeMeters>372.399993896484375</AltitudeMeters>
            <DistanceMeters>NAN</DistanceMeters>
          </Trackpoint>
          <Trackpoint>
            <Time>2020-02-15T10:13:02.000Z</Time>
            <Position>
              <LatitudeDegrees>41.96822849102318286895751953125</LatitudeDegrees>
              <LongitudeDegrees>2.89730968885123729705810546875</LongitudeDegrees>
            </Position>
            <AltitudeMeters>372.600006103515625</AltitudeMeters>
            <DistanceMeters>NAN</DistanceMeters>
          </Trackpoint>
          <Trackpoint>
            <Time>2020-02-15T10:13:03.000Z</Time>
            <Position>
              <LatitudeDegrees>41.96823486126959323883056640625</LatitudeDegrees>
              <LongitudeDegrees>2.8973012231290340423583984375</LongitudeDegrees>
            </Position>
            <AltitudeMeters>372.79998779296875</AltitudeMeters>
            <DistanceMeters>NAN</DistanceMeters>
          </Trackpoint>
          <Trackpoint>
            <Time>2020-02-15T10:13:04.000Z</Time>
            <Position>
              <LatitudeDegrees>41.96824274025857448577880859375</LatitudeDegrees>
              <LongitudeDegrees>2.8972940146923065185546875</LongitudeDegrees>
            </Position>
            <AltitudeMeters>373</AltitudeMeters>
            <DistanceMeters>NAN</DistanceMeters>
          </Trackpoint>
          <Trackpoint>
            <Time>2020-02-15T10:13:05.000Z</Time>
            <Position>
              <LatitudeDegrees>41.96825128979980945587158203125</LatitudeDegrees>
              <LongitudeDegrees>2.8972940146923065185546875</LongitudeDegrees>
            </Position>
            <AltitudeMeters>373</AltitudeMeters>
            <DistanceMeters>NAN</DistanceMeters>
          </Trackpoint>
          <Trackpoint>
            <Time>2020-02-15T10:13:06.000Z</Time>
            <Position>
              <LatitudeDegrees>41.96825749240815639495849609375</LatitudeDegrees>
              <LongitudeDegrees>2.897301055490970611572265625</LongitudeDegrees>
            </Position>
            <AltitudeMeters>373.20001220703125</AltitudeMeters>
            <DistanceMeters>NAN</DistanceMeters>
          </Trackpoint>
          <Trackpoint>
            <Time>2020-02-15T10:13:07.000Z</Time>
            <Position>
              <LatitudeDegrees>41.96825833059847354888916015625</LatitudeDegrees>
              <LongitudeDegrees>2.89731438271701335906982421875</LongitudeDegrees>
            </Position>
            <AltitudeMeters>373.600006103515625</AltitudeMeters>
            <DistanceMeters>NAN</DistanceMeters>
          </Trackpoint>
          <Trackpoint>
            <Time>2020-02-15T10:13:08.000Z</Time>
            <Position>
              <LatitudeDegrees>41.96825330145657062530517578125</LatitudeDegrees>
              <LongitudeDegrees>2.89732913486659526824951171875</LongitudeDegrees>
            </Position>
            <AltitudeMeters>373.600006103515625</AltitudeMeters>
            <DistanceMeters>NAN</DistanceMeters>
          </Trackpoint>
          <Trackpoint>
            <Time>2020-02-15T10:13:09.000Z</Time>
            <Position>
              <LatitudeDegrees>41.96824483573436737060546875</LatitudeDegrees>
              <LongitudeDegrees>2.89733567275106906890869140625</LongitudeDegrees>
            </Position>
            <AltitudeMeters>373.79998779296875</AltitudeMeters>
            <DistanceMeters>NAN</DistanceMeters>
          </Trackpoint>
          <Trackpoint>
            <Time>2020-02-15T10:13:10.000Z</Time>
            <Position>
              <LatitudeDegrees>41.96823955513536930084228515625</LatitudeDegrees>
              <LongitudeDegrees>2.8973394446074962615966796875</LongitudeDegrees>
            </Position>
            <AltitudeMeters>374</AltitudeMeters>
            <DistanceMeters>NAN</DistanceMeters>
          </Trackpoint>
          <Trackpoint>
            <Time>2020-02-15T10:13:12.000Z</Time>
            <Position>
              <LatitudeDegrees>41.96823603473603725433349609375</LatitudeDegrees>
              <LongitudeDegrees>2.89734296500682830810546875</LongitudeDegrees>
            </Position>
            <AltitudeMeters>374</AltitudeMeters>
            <DistanceMeters>NAN</DistanceMeters>
          </Trackpoint>
          <Trackpoint>
            <Time>2020-02-15T10:13:22.000Z</Time>
            <Position>
              <LatitudeDegrees>41.9682389684021472930908203125</LatitudeDegrees>
              <LongitudeDegrees>2.89734556339681148529052734375</LongitudeDegrees>
            </Position>
            <AltitudeMeters>374.20001220703125</AltitudeMeters>
            <DistanceMeters>NAN</DistanceMeters>
          </Trackpoint>
          <Trackpoint>
            <Time>2020-02-15T10:13:26.000Z</Time>
            <Position>
              <LatitudeDegrees>41.968239136040210723876953125</LatitudeDegrees>
              <LongitudeDegrees>2.8973464854061603546142578125</LongitudeDegrees>
            </Position>
            <AltitudeMeters>374.20001220703125</AltitudeMeters>
            <DistanceMeters>NAN</DistanceMeters>
          </Trackpoint>
          <Trackpoint>
            <Time>2020-02-15T10:13:27.000Z</Time>
            <Position>
              <LatitudeDegrees>41.9682393036782741546630859375</LatitudeDegrees>
              <LongitudeDegrees>2.897346317768096923828125</LongitudeDegrees>
            </Position>
            <AltitudeMeters>374.20001220703125</AltitudeMeters>
            <DistanceMeters>NAN</DistanceMeters>
          </Trackpoint>
          <Trackpoint>
            <Time>2020-02-15T10:13:37.000Z</Time>
            <Position>
              <LatitudeDegrees>41.9682388007640838623046875</LatitudeDegrees>
              <LongitudeDegrees>2.89734455756843090057373046875</LongitudeDegrees>
            </Position>
            <AltitudeMeters>374.20001220703125</AltitudeMeters>
            <DistanceMeters>NAN</DistanceMeters>
          </Trackpoint>
          <Trackpoint>
            <Time>2020-02-15T10:13:43.000Z</Time>
            <Position>
              <LatitudeDegrees>41.9682386331260204315185546875</LatitudeDegrees>
              <LongitudeDegrees>2.89734472520649433135986328125</LongitudeDegrees>
            </Position>
            <AltitudeMeters>374.20001220703125</AltitudeMeters>
            <DistanceMeters>NAN</DistanceMeters>
          </Trackpoint>
          <Trackpoint>
            <Time>2020-02-15T10:13:48.000Z</Time>
            <Position>
              <LatitudeDegrees>41.9682386331260204315185546875</LatitudeDegrees>
              <LongitudeDegrees>2.897344641387462615966796875</LongitudeDegrees>
            </Position>
            <AltitudeMeters>374.20001220703125</AltitudeMeters>
            <DistanceMeters>NAN</DistanceMeters>
          </Trackpoint>
          <Trackpoint>
            <Time>2020-02-15T10:13:52.000Z</Time>
            <Position>
              <LatitudeDegrees>41.9682386331260204315185546875</LatitudeDegrees>
              <LongitudeDegrees>2.89734472520649433135986328125</LongitudeDegrees>
            </Position>
            <AltitudeMeters>374</AltitudeMeters>
            <DistanceMeters>NAN</DistanceMeters>
          </Trackpoint>
          <Trackpoint>
            <Time>2020-02-15T10:13:56.000Z</Time>
            <Position>
              <LatitudeDegrees>41.968238465487957000732421875</LatitudeDegrees>
              <LongitudeDegrees>2.897344641387462615966796875</LongitudeDegrees>
            </Position>
            <AltitudeMeters>374.20001220703125</AltitudeMeters>
            <DistanceMeters>NAN</DistanceMeters>
          </Trackpoint>
          <Trackpoint>
            <Time>2020-02-15T10:14:01.000Z</Time>
            <Position>
              <LatitudeDegrees>41.968238465487957000732421875</LatitudeDegrees>
              <LongitudeDegrees>2.89734472520649433135986328125</LongitudeDegrees>
            </Position>
            <AltitudeMeters>374.20001220703125</AltitudeMeters>
            <DistanceMeters>NAN</DistanceMeters>
          </Trackpoint>
          <Trackpoint>
            <Time>2020-02-15T10:14:03.000Z</Time>
            <Position>
              <LatitudeDegrees>41.968238465487957000732421875</LatitudeDegrees>
              <LongitudeDegrees>2.897344641387462615966796875</LongitudeDegrees>
            </Position>
            <AltitudeMeters>374</AltitudeMeters>
            <DistanceMeters>NAN</DistanceMeters>
          </Trackpoint>
          <Trackpoint>
            <Time>2020-02-15T10:14:05.000Z</Time>
            <Position>
              <LatitudeDegrees>41.968238465487957000732421875</LatitudeDegrees>
              <LongitudeDegrees>2.897344641387462615966796875</LongitudeDegrees>
            </Position>
            <AltitudeMeters>374.20001220703125</AltitudeMeters>
            <DistanceMeters>NAN</DistanceMeters>
          </Trackpoint>
          <Trackpoint>
            <Time>2020-02-15T10:14:10.000Z</Time>
            <Position>
              <LatitudeDegrees>41.968238465487957000732421875</LatitudeDegrees>
              <LongitudeDegrees>2.897344641387462615966796875</LongitudeDegrees>
            </Position>
            <AltitudeMeters>374.20001220703125</AltitudeMeters>
            <DistanceMeters>NAN</DistanceMeters>
          </Trackpoint>
          <Trackpoint>
            <Time>2020-02-15T10:14:15.000Z</Time>
            <Position>
              <LatitudeDegrees>41.96823838166892528533935546875</LatitudeDegrees>
              <LongitudeDegrees>2.8973448090255260467529296875</LongitudeDegrees>
            </Position>
            <AltitudeMeters>374</AltitudeMeters>
            <DistanceMeters>NAN</DistanceMeters>
          </Trackpoint>
          <Trackpoint>
            <Time>2020-02-15T10:14:33.000Z</Time>
            <Position>
              <LatitudeDegrees>41.96823838166892528533935546875</LatitudeDegrees>
              <LongitudeDegrees>2.89734573103487491607666015625</LongitudeDegrees>
            </Position>
            <AltitudeMeters>373.79998779296875</AltitudeMeters>
            <DistanceMeters>NAN</DistanceMeters>
          </Trackpoint>
          <Trackpoint>
            <Time>2020-02-15T10:14:36.000Z</Time>
            <Position>
              <LatitudeDegrees>41.968238465487957000732421875</LatitudeDegrees>
              <LongitudeDegrees>2.89734589867293834686279296875</LongitudeDegrees>
            </Position>
            <AltitudeMeters>373.79998779296875</AltitudeMeters>
            <DistanceMeters>NAN</DistanceMeters>
          </Trackpoint>
          <Trackpoint>
            <Time>2020-02-15T10:14:45.000Z</Time>
            <Position>
              <LatitudeDegrees>41.968238465487957000732421875</LatitudeDegrees>
              <LongitudeDegrees>2.89734573103487491607666015625</LongitudeDegrees>
            </Position>
            <AltitudeMeters>373.79998779296875</AltitudeMeters>
            <DistanceMeters>NAN</DistanceMeters>
          </Trackpoint>
          <Trackpoint>
            <Time>2020-02-15T10:14:49.000Z</Time>
            <Position>
              <LatitudeDegrees>41.96823854930698871612548828125</LatitudeDegrees>
              <LongitudeDegrees>2.8973458148539066314697265625</LongitudeDegrees>
            </Position>
            <AltitudeMeters>373.79998779296875</AltitudeMeters>
            <DistanceMeters>NAN</DistanceMeters>
          </Trackpoint>
          <Trackpoint>
            <Time>2020-02-15T10:14:56.000Z</Time>
            <Position>
              <LatitudeDegrees>41.96823821403086185455322265625</LatitudeDegrees>
              <LongitudeDegrees>2.8973498381674289703369140625</LongitudeDegrees>
            </Position>
            <AltitudeMeters>373.79998779296875</AltitudeMeters>
            <DistanceMeters>NAN</DistanceMeters>
          </Trackpoint>
          <Trackpoint>
            <Time>2020-02-15T10:14:58.000Z</Time>
            <Position>
              <LatitudeDegrees>41.9682289101183414459228515625</LatitudeDegrees>
              <LongitudeDegrees>2.89737322367727756500244140625</LongitudeDegrees>
            </Position>
            <AltitudeMeters>373.600006103515625</AltitudeMeters>
            <DistanceMeters>NAN</DistanceMeters>
          </Trackpoint>
          <Trackpoint>
            <Time>2020-02-15T10:14:59.000Z</Time>
            <Position>
              <LatitudeDegrees>41.96822740137577056884765625</LatitudeDegrees>
              <LongitudeDegrees>2.8973900713026523590087890625</LongitudeDegrees>
            </Position>
            <AltitudeMeters>373.79998779296875</AltitudeMeters>
            <DistanceMeters>NAN</DistanceMeters>
          </Trackpoint>
          <Trackpoint>
            <Time>2020-02-15T10:15:00.000Z</Time>
            <Position>
              <LatitudeDegrees>41.96822983212769031524658203125</LatitudeDegrees>
              <LongitudeDegrees>2.89740792475640773773193359375</LongitudeDegrees>
            </Position>
            <AltitudeMeters>373.600006103515625</AltitudeMeters>
            <DistanceMeters>NAN</DistanceMeters>
          </Trackpoint>
          <Trackpoint>
            <Time>2020-02-15T10:15:01.000Z</Time>
            <Position>
              <LatitudeDegrees>41.9682332687079906463623046875</LatitudeDegrees>
              <LongitudeDegrees>2.89742820896208286285400390625</LongitudeDegrees>
            </Position>
            <AltitudeMeters>373.600006103515625</AltitudeMeters>
            <DistanceMeters>NAN</DistanceMeters>
          </Trackpoint>
          <Trackpoint>
            <Time>2020-02-15T10:15:04.000Z</Time>
            <Position>
              <LatitudeDegrees>41.9682446680963039398193359375</LatitudeDegrees>
              <LongitudeDegrees>2.8974940069019794464111328125</LongitudeDegrees>
            </Position>
            <AltitudeMeters>373.79998779296875</AltitudeMeters>
            <DistanceMeters>NAN</DistanceMeters>
          </Trackpoint>
          <Trackpoint>
            <Time>2020-02-15T10:15:05.000Z</Time>
            <Position>
              <LatitudeDegrees>41.9682486914098262786865234375</LatitudeDegrees>
              <LongitudeDegrees>2.89751437492668628692626953125</LongitudeDegrees>
            </Position>
            <AltitudeMeters>373.600006103515625</AltitudeMeters>
            <DistanceMeters>NAN</DistanceMeters>
          </Trackpoint>
          <Trackpoint>
            <Time>2020-02-15T10:15:06.000Z</Time>
            <Position>
              <LatitudeDegrees>41.96825229562819004058837890625</LatitudeDegrees>
              <LongitudeDegrees>2.89753340184688568115234375</LongitudeDegrees>
            </Position>
            <AltitudeMeters>373.79998779296875</AltitudeMeters>
            <DistanceMeters>NAN</DistanceMeters>
          </Trackpoint>
          <Trackpoint>
            <Time>2020-02-15T10:15:07.000Z</Time>
            <Position>
              <LatitudeDegrees>41.96825497783720493316650390625</LatitudeDegrees>
              <LongitudeDegrees>2.89755159057676792144775390625</LongitudeDegrees>
            </Position>
            <AltitudeMeters>373.79998779296875</AltitudeMeters>
            <DistanceMeters>NAN</DistanceMeters>
          </Trackpoint>
          <Trackpoint>
            <Time>2020-02-15T10:15:08.000Z</Time>
            <Position>
              <LatitudeDegrees>41.96825698949396610260009765625</LatitudeDegrees>
              <LongitudeDegrees>2.89756868965923786163330078125</LongitudeDegrees>
            </Position>
            <AltitudeMeters>373.79998779296875</AltitudeMeters>
            <DistanceMeters>NAN</DistanceMeters>
          </Trackpoint>
          <Trackpoint>
            <Time>2020-02-15T10:15:09.000Z</Time>
            <Position>
              <LatitudeDegrees>41.9682594202458858489990234375</LatitudeDegrees>
              <LongitudeDegrees>2.8975855372846126556396484375</LongitudeDegrees>
            </Position>
            <AltitudeMeters>374</AltitudeMeters>
            <DistanceMeters>NAN</DistanceMeters>
          </Trackpoint>
          <Trackpoint>
            <Time>2020-02-15T10:15:10.000Z</Time>
            <Position>
              <LatitudeDegrees>41.96826034225523471832275390625</LatitudeDegrees>
              <LongitudeDegrees>2.897601462900638580322265625</LongitudeDegrees>
            </Position>
            <AltitudeMeters>374</AltitudeMeters>
            <DistanceMeters>NAN</DistanceMeters>
          </Trackpoint>
          <Trackpoint>
            <Time>2020-02-15T10:15:11.000Z</Time>
            <Position>
              <LatitudeDegrees>41.96826151572167873382568359375</LatitudeDegrees>
              <LongitudeDegrees>2.89761898107826709747314453125</LongitudeDegrees>
            </Position>
            <AltitudeMeters>374.399993896484375</AltitudeMeters>
            <DistanceMeters>NAN</DistanceMeters>
          </Trackpoint>
          <Trackpoint>
            <Time>2020-02-15T10:15:12.000Z</Time>
            <Position>
              <LatitudeDegrees>41.96826419793069362640380859375</LatitudeDegrees>
              <LongitudeDegrees>2.89763540960848331451416015625</LongitudeDegrees>
            </Position>
            <AltitudeMeters>374.399993896484375</AltitudeMeters>
            <DistanceMeters>NAN</DistanceMeters>
          </Trackpoint>
          <Trackpoint>
            <Time>2020-02-15T10:15:13.000Z</Time>
            <Position>
              <LatitudeDegrees>41.9682656228542327880859375</LatitudeDegrees>
              <LongitudeDegrees>2.89764915592968463897705078125</LongitudeDegrees>
            </Position>
            <AltitudeMeters>374.399993896484375</AltitudeMeters>
            <DistanceMeters>NAN</DistanceMeters>
          </Trackpoint>
          <Trackpoint>
            <Time>2020-02-15T10:15:14.000Z</Time>
            <Position>
              <LatitudeDegrees>41.96826629340648651123046875</LatitudeDegrees>
              <LongitudeDegrees>2.897663824260234832763671875</LongitudeDegrees>
            </Position>
            <AltitudeMeters>374.79998779296875</AltitudeMeters>
            <DistanceMeters>NAN</DistanceMeters>
          </Trackpoint>
          <Trackpoint>
            <Time>2020-02-15T10:15:15.000Z</Time>
            <Position>
              <LatitudeDegrees>41.96826654486358165740966796875</LatitudeDegrees>
              <LongitudeDegrees>2.89768218062818050384521484375</LongitudeDegrees>
            </Position>
            <AltitudeMeters>375</AltitudeMeters>
            <DistanceMeters>NAN</DistanceMeters>
          </Trackpoint>
          <Trackpoint>
            <Time>2020-02-15T10:15:16.000Z</Time>
            <Position>
              <LatitudeDegrees>41.96826855652034282684326171875</LatitudeDegrees>
              <LongitudeDegrees>2.89769844152033329010009765625</LongitudeDegrees>
            </Position>
            <AltitudeMeters>375</AltitudeMeters>
            <DistanceMeters>NAN</DistanceMeters>
          </Trackpoint>
          <Trackpoint>
            <Time>2020-02-15T10:15:17.000Z</Time>
            <Position>
              <LatitudeDegrees>41.96827165782451629638671875</LatitudeDegrees>
              <LongitudeDegrees>2.8977122716605663299560546875</LongitudeDegrees>
            </Position>
            <AltitudeMeters>375.399993896484375</AltitudeMeters>
            <DistanceMeters>NAN</DistanceMeters>
          </Trackpoint>
          <Trackpoint>
            <Time>2020-02-15T10:15:18.000Z</Time>
            <Position>
              <LatitudeDegrees>41.9682741723954677581787109375</LatitudeDegrees>
              <LongitudeDegrees>2.89772643707692623138427734375</LongitudeDegrees>
            </Position>
            <AltitudeMeters>375.20001220703125</AltitudeMeters>
            <DistanceMeters>NAN</DistanceMeters>
          </Trackpoint>
          <Trackpoint>
            <Time>2020-02-15T10:15:19.000Z</Time>
            <Position>
              <LatitudeDegrees>41.96827878244221210479736328125</LatitudeDegrees>
              <LongitudeDegrees>2.89773900993168354034423828125</LongitudeDegrees>
            </Position>
            <AltitudeMeters>375.399993896484375</AltitudeMeters>
            <DistanceMeters>NAN</DistanceMeters>
          </Trackpoint>
          <Trackpoint>
            <Time>2020-02-15T10:15:20.000Z</Time>
            <Position>
              <LatitudeDegrees>41.9682828895747661590576171875</LatitudeDegrees>
              <LongitudeDegrees>2.89775275625288486480712890625</LongitudeDegrees>
            </Position>
            <AltitudeMeters>375.79998779296875</AltitudeMeters>
            <DistanceMeters>NAN</DistanceMeters>
          </Trackpoint>
          <Trackpoint>
            <Time>2020-02-15T10:15:21.000Z</Time>
            <Position>
              <LatitudeDegrees>41.96828666143119335174560546875</LatitudeDegrees>
              <LongitudeDegrees>2.8977682627737522125244140625</LongitudeDegrees>
            </Position>
            <AltitudeMeters>375.79998779296875</AltitudeMeters>
            <DistanceMeters>NAN</DistanceMeters>
          </Trackpoint>
          <Trackpoint>
            <Time>2020-02-15T10:15:22.000Z</Time>
            <Position>
              <LatitudeDegrees>41.968290098011493682861328125</LatitudeDegrees>
              <LongitudeDegrees>2.8977830149233341217041015625</LongitudeDegrees>
            </Position>
            <AltitudeMeters>375.79998779296875</AltitudeMeters>
            <DistanceMeters>NAN</DistanceMeters>
          </Trackpoint>
          <Trackpoint>
            <Time>2020-02-15T10:15:23.000Z</Time>
            <Position>
              <LatitudeDegrees>41.9682942889630794525146484375</LatitudeDegrees>
              <LongitudeDegrees>2.8977984376251697540283203125</LongitudeDegrees>
            </Position>
            <AltitudeMeters>376.20001220703125</AltitudeMeters>
            <DistanceMeters>NAN</DistanceMeters>
          </Trackpoint>
          <Trackpoint>
            <Time>2020-02-15T10:15:24.000Z</Time>
            <Position>
              <LatitudeDegrees>41.9682956300675868988037109375</LatitudeDegrees>
              <LongitudeDegrees>2.897812686860561370849609375</LongitudeDegrees>
            </Position>
            <AltitudeMeters>376.20001220703125</AltitudeMeters>
            <DistanceMeters>NAN</DistanceMeters>
          </Trackpoint>
          <Trackpoint>
            <Time>2020-02-15T10:15:25.000Z</Time>
            <Position>
              <LatitudeDegrees>41.9682939536869525909423828125</LatitudeDegrees>
              <LongitudeDegrees>2.89782886393368244171142578125</LongitudeDegrees>
            </Position>
            <AltitudeMeters>376.399993896484375</AltitudeMeters>
            <DistanceMeters>NAN</DistanceMeters>
          </Trackpoint>
          <Trackpoint>
            <Time>2020-02-15T10:15:26.000Z</Time>
            <Position>
              <LatitudeDegrees>41.96829521097242832183837890625</LatitudeDegrees>
              <LongitudeDegrees>2.89784478954970836639404296875</LongitudeDegrees>
            </Position>
            <AltitudeMeters>377</AltitudeMeters>
            <DistanceMeters>NAN</DistanceMeters>
          </Trackpoint>
          <Trackpoint>
            <Time>2020-02-15T10:15:27.000Z</Time>
            <Position>
              <LatitudeDegrees>41.9682991504669189453125</LatitudeDegrees>
              <LongitudeDegrees>2.89786188863217830657958984375</LongitudeDegrees>
            </Position>
            <AltitudeMeters>377.20001220703125</AltitudeMeters>
            <DistanceMeters>NAN</DistanceMeters>
          </Trackpoint>
          <Trackpoint>
            <Time>2020-02-15T10:15:28.000Z</Time>
            <Position>
              <LatitudeDegrees>41.9683030061423778533935546875</LatitudeDegrees>
              <LongitudeDegrees>2.89788301102817058563232421875</LongitudeDegrees>
            </Position>
            <AltitudeMeters>377.20001220703125</AltitudeMeters>
            <DistanceMeters>NAN</DistanceMeters>
          </Trackpoint>
          <Trackpoint>
            <Time>2020-02-15T10:15:29.000Z</Time>
            <Position>
              <LatitudeDegrees>41.96830577217042446136474609375</LatitudeDegrees>
              <LongitudeDegrees>2.897900529205799102783203125</LongitudeDegrees>
            </Position>
            <AltitudeMeters>377.399993896484375</AltitudeMeters>
            <DistanceMeters>NAN</DistanceMeters>
          </Trackpoint>
          <Trackpoint>
            <Time>2020-02-15T10:15:30.000Z</Time>
            <Position>
              <LatitudeDegrees>41.96830786764621734619140625</LatitudeDegrees>
              <LongitudeDegrees>2.89791653864085674285888671875</LongitudeDegrees>
            </Position>
            <AltitudeMeters>377.399993896484375</AltitudeMeters>
            <DistanceMeters>NAN</DistanceMeters>
          </Trackpoint>
          <Trackpoint>
            <Time>2020-02-15T10:15:31.000Z</Time>
            <Position>
              <LatitudeDegrees>41.96831231005489826202392578125</LatitudeDegrees>
              <LongitudeDegrees>2.8979348950088024139404296875</LongitudeDegrees>
            </Position>
            <AltitudeMeters>377.399993896484375</AltitudeMeters>
            <DistanceMeters>NAN</DistanceMeters>
          </Trackpoint>
          <Trackpoint>
            <Time>2020-02-15T10:15:32.000Z</Time>
            <Position>
              <LatitudeDegrees>41.9683184288442134857177734375</LatitudeDegrees>
              <LongitudeDegrees>2.89795291610062122344970703125</LongitudeDegrees>
            </Position>
            <AltitudeMeters>377.79998779296875</AltitudeMeters>
            <DistanceMeters>NAN</DistanceMeters>
          </Trackpoint>
          <Trackpoint>
            <Time>2020-02-15T10:15:33.000Z</Time>
            <Position>
              <LatitudeDegrees>41.96832236833870410919189453125</LatitudeDegrees>
              <LongitudeDegrees>2.89796867407858371734619140625</LongitudeDegrees>
            </Position>
            <AltitudeMeters>377.79998779296875</AltitudeMeters>
            <DistanceMeters>NAN</DistanceMeters>
          </Trackpoint>
          <Trackpoint>
            <Time>2020-02-15T10:15:34.000Z</Time>
            <Position>
              <LatitudeDegrees>41.968325637280941009521484375</LatitudeDegrees>
              <LongitudeDegrees>2.89798493497073650360107421875</LongitudeDegrees>
            </Position>
            <AltitudeMeters>378</AltitudeMeters>
            <DistanceMeters>NAN</DistanceMeters>
          </Trackpoint>
          <Trackpoint>
            <Time>2020-02-15T10:15:35.000Z</Time>
            <Position>
              <LatitudeDegrees>41.96832957677543163299560546875</LatitudeDegrees>
              <LongitudeDegrees>2.8980029560625553131103515625</LongitudeDegrees>
            </Position>
            <AltitudeMeters>378.20001220703125</AltitudeMeters>
            <DistanceMeters>NAN</DistanceMeters>
          </Trackpoint>
          <Trackpoint>
            <Time>2020-02-15T10:15:36.000Z</Time>
            <Position>
              <LatitudeDegrees>41.9683338515460491180419921875</LatitudeDegrees>
              <LongitudeDegrees>2.89802064187824726104736328125</LongitudeDegrees>
            </Position>
            <AltitudeMeters>378.399993896484375</AltitudeMeters>
            <DistanceMeters>NAN</DistanceMeters>
          </Trackpoint>
          <Trackpoint>
            <Time>2020-02-15T10:15:37.000Z</Time>
            <Position>
              <LatitudeDegrees>41.968336366117000579833984375</LatitudeDegrees>
              <LongitudeDegrees>2.89803690277040004730224609375</LongitudeDegrees>
            </Position>
            <AltitudeMeters>378.600006103515625</AltitudeMeters>
            <DistanceMeters>NAN</DistanceMeters>
          </Trackpoint>
          <Trackpoint>
            <Time>2020-02-15T10:15:38.000Z</Time>
            <Position>
              <LatitudeDegrees>41.96833779104053974151611328125</LatitudeDegrees>
              <LongitudeDegrees>2.89805215783417224884033203125</LongitudeDegrees>
            </Position>
            <AltitudeMeters>378.79998779296875</AltitudeMeters>
            <DistanceMeters>NAN</DistanceMeters>
          </Trackpoint>
          <Trackpoint>
            <Time>2020-02-15T10:15:39.000Z</Time>
            <Position>
              <LatitudeDegrees>41.96833963505923748016357421875</LatitudeDegrees>
              <LongitudeDegrees>2.8980666585266590118408203125</LongitudeDegrees>
            </Position>
            <AltitudeMeters>378.79998779296875</AltitudeMeters>
            <DistanceMeters>NAN</DistanceMeters>
          </Trackpoint>
          <Trackpoint>
            <Time>2020-02-15T10:15:40.000Z</Time>
            <Position>
              <LatitudeDegrees>41.968343071639537811279296875</LatitudeDegrees>
              <LongitudeDegrees>2.89808300323784351348876953125</LongitudeDegrees>
            </Position>
            <AltitudeMeters>379</AltitudeMeters>
            <DistanceMeters>NAN</DistanceMeters>
          </Trackpoint>
          <Trackpoint>
            <Time>2020-02-15T10:15:41.000Z</Time>
            <Position>
              <LatitudeDegrees>41.968348436057567596435546875</LatitudeDegrees>
              <LongitudeDegrees>2.898097336292266845703125</LongitudeDegrees>
            </Position>
            <AltitudeMeters>379</AltitudeMeters>
            <DistanceMeters>NAN</DistanceMeters>
          </Trackpoint>
          <Trackpoint>
            <Time>2020-02-15T10:15:42.000Z</Time>
            <Position>
              <LatitudeDegrees>41.9683532975614070892333984375</LatitudeDegrees>
              <LongitudeDegrees>2.8981109149754047393798828125</LongitudeDegrees>
            </Position>
            <AltitudeMeters>379.600006103515625</AltitudeMeters>
            <DistanceMeters>NAN</DistanceMeters>
          </Trackpoint>
          <Trackpoint>
            <Time>2020-02-15T10:15:43.000Z</Time>
            <Position>
              <LatitudeDegrees>41.9683569855988025665283203125</LatitudeDegrees>
              <LongitudeDegrees>2.898126505315303802490234375</LongitudeDegrees>
            </Position>
            <AltitudeMeters>379.399993896484375</AltitudeMeters>
            <DistanceMeters>NAN</DistanceMeters>
          </Trackpoint>
          <Trackpoint>
            <Time>2020-02-15T10:15:44.000Z</Time>
            <Position>
              <LatitudeDegrees>41.96836075745522975921630859375</LatitudeDegrees>
              <LongitudeDegrees>2.89814368821680545806884765625</LongitudeDegrees>
            </Position>
            <AltitudeMeters>379.79998779296875</AltitudeMeters>
            <DistanceMeters>NAN</DistanceMeters>
          </Trackpoint>
          <Trackpoint>
            <Time>2020-02-15T10:15:45.000Z</Time>
            <Position>
              <LatitudeDegrees>41.968363858759403228759765625</LatitudeDegrees>
              <LongitudeDegrees>2.89815994910895824432373046875</LongitudeDegrees>
            </Position>
            <AltitudeMeters>380</AltitudeMeters>
            <DistanceMeters>NAN</DistanceMeters>
          </Trackpoint>
          <Trackpoint>
            <Time>2020-02-15T10:15:46.000Z</Time>
            <Position>
              <LatitudeDegrees>41.96836260147392749786376953125</LatitudeDegrees>
              <LongitudeDegrees>2.8981752879917621612548828125</LongitudeDegrees>
            </Position>
            <AltitudeMeters>380.20001220703125</AltitudeMeters>
            <DistanceMeters>NAN</DistanceMeters>
          </Trackpoint>
          <Trackpoint>
            <Time>2020-02-15T10:15:47.000Z</Time>
            <Position>
              <LatitudeDegrees>41.96836427785456180572509765625</LatitudeDegrees>
              <LongitudeDegrees>2.89818744175136089324951171875</LongitudeDegrees>
            </Position>
            <AltitudeMeters>380.20001220703125</AltitudeMeters>
            <DistanceMeters>NAN</DistanceMeters>
          </Trackpoint>
          <Trackpoint>
            <Time>2020-02-15T10:15:48.000Z</Time>
            <Position>
              <LatitudeDegrees>41.96836813353002071380615234375</LatitudeDegrees>
              <LongitudeDegrees>2.898202277719974517822265625</LongitudeDegrees>
            </Position>
            <AltitudeMeters>380.399993896484375</AltitudeMeters>
            <DistanceMeters>NAN</DistanceMeters>
          </Trackpoint>
          <Trackpoint>
            <Time>2020-02-15T10:15:49.000Z</Time>
            <Position>
              <LatitudeDegrees>41.96837098337709903717041015625</LatitudeDegrees>
              <LongitudeDegrees>2.89822264574468135833740234375</LongitudeDegrees>
            </Position>
            <AltitudeMeters>380.399993896484375</AltitudeMeters>
            <DistanceMeters>NAN</DistanceMeters>
          </Trackpoint>
          <Trackpoint>
            <Time>2020-02-15T10:15:50.000Z</Time>
            <Position>
              <LatitudeDegrees>41.96837416850030422210693359375</LatitudeDegrees>
              <LongitudeDegrees>2.8982433490455150604248046875</LongitudeDegrees>
            </Position>
            <AltitudeMeters>380.600006103515625</AltitudeMeters>
            <DistanceMeters>NAN</DistanceMeters>
          </Trackpoint>
          <Trackpoint>
            <Time>2020-02-15T10:15:51.000Z</Time>
            <Position>
              <LatitudeDegrees>41.9683821313083171844482421875</LatitudeDegrees>
              <LongitudeDegrees>2.8982644714415073394775390625</LongitudeDegrees>
            </Position>
            <AltitudeMeters>381</AltitudeMeters>
            <DistanceMeters>NAN</DistanceMeters>
          </Trackpoint>
          <Trackpoint>
            <Time>2020-02-15T10:15:52.000Z</Time>
            <Position>
              <LatitudeDegrees>41.96838959120213985443115234375</LatitudeDegrees>
              <LongitudeDegrees>2.89828852750360965728759765625</LongitudeDegrees>
            </Position>
            <AltitudeMeters>381.20001220703125</AltitudeMeters>
            <DistanceMeters>NAN</DistanceMeters>
          </Trackpoint>
          <Trackpoint>
            <Time>2020-02-15T10:15:53.000Z</Time>
            <Position>
              <LatitudeDegrees>41.96839462034404277801513671875</LatitudeDegrees>
              <LongitudeDegrees>2.89831266738474369049072265625</LongitudeDegrees>
            </Position>
            <AltitudeMeters>381</AltitudeMeters>
            <DistanceMeters>NAN</DistanceMeters>
          </Trackpoint>
          <Trackpoint>
            <Time>2020-02-15T10:15:54.000Z</Time>
            <Position>
              <LatitudeDegrees>41.96840249933302402496337890625</LatitudeDegrees>
              <LongitudeDegrees>2.89833605289459228515625</LongitudeDegrees>
            </Position>
            <AltitudeMeters>381.399993896484375</AltitudeMeters>
            <DistanceMeters>NAN</DistanceMeters>
          </Trackpoint>
          <Trackpoint>
            <Time>2020-02-15T10:15:55.000Z</Time>
            <Position>
              <LatitudeDegrees>41.9684123061597347259521484375</LatitudeDegrees>
              <LongitudeDegrees>2.8983576782047748565673828125</LongitudeDegrees>
            </Position>
            <AltitudeMeters>381.399993896484375</AltitudeMeters>
            <DistanceMeters>NAN</DistanceMeters>
          </Trackpoint>
          <Trackpoint>
            <Time>2020-02-15T10:15:56.000Z</Time>
            <Position>
              <LatitudeDegrees>41.96842043660581111907958984375</LatitudeDegrees>
              <LongitudeDegrees>2.898377291858196258544921875</LongitudeDegrees>
            </Position>
            <AltitudeMeters>381.399993896484375</AltitudeMeters>
            <DistanceMeters>NAN</DistanceMeters>
          </Trackpoint>
          <Trackpoint>
            <Time>2020-02-15T10:15:57.000Z</Time>
            <Position>
              <LatitudeDegrees>41.96842647157609462738037109375</LatitudeDegrees>
              <LongitudeDegrees>2.89839581586420536041259765625</LongitudeDegrees>
            </Position>
            <AltitudeMeters>381.600006103515625</AltitudeMeters>
            <DistanceMeters>NAN</DistanceMeters>
          </Trackpoint>
          <Trackpoint>
            <Time>2020-02-15T10:15:58.000Z</Time>
            <Position>
              <LatitudeDegrees>41.96842999197542667388916015625</LatitudeDegrees>
              <LongitudeDegrees>2.898414172232151031494140625</LongitudeDegrees>
            </Position>
            <AltitudeMeters>381.600006103515625</AltitudeMeters>
            <DistanceMeters>NAN</DistanceMeters>
          </Trackpoint>
          <Trackpoint>
            <Time>2020-02-15T10:15:59.000Z</Time>
            <Position>
              <LatitudeDegrees>41.9684354402124881744384765625</LatitudeDegrees>
              <LongitudeDegrees>2.898434288799762725830078125</LongitudeDegrees>
            </Position>
            <AltitudeMeters>381.600006103515625</AltitudeMeters>
            <DistanceMeters>NAN</DistanceMeters>
          </Trackpoint>
          <Trackpoint>
            <Time>2020-02-15T10:16:00.000Z</Time>
            <Position>
              <LatitudeDegrees>41.96844189427793025970458984375</LatitudeDegrees>
              <LongitudeDegrees>2.8984542377293109893798828125</LongitudeDegrees>
            </Position>
            <AltitudeMeters>381.79998779296875</AltitudeMeters>
            <DistanceMeters>NAN</DistanceMeters>
          </Trackpoint>
          <Trackpoint>
            <Time>2020-02-15T10:16:01.000Z</Time>
            <Position>
              <LatitudeDegrees>41.96845044381916522979736328125</LatitudeDegrees>
              <LongitudeDegrees>2.898473180830478668212890625</LongitudeDegrees>
            </Position>
            <AltitudeMeters>382.20001220703125</AltitudeMeters>
            <DistanceMeters>NAN</DistanceMeters>
          </Trackpoint>
          <Trackpoint>
            <Time>2020-02-15T10:16:02.000Z</Time>
            <Position>
              <LatitudeDegrees>41.9684589095413684844970703125</LatitudeDegrees>
              <LongitudeDegrees>2.89849136956036090850830078125</LongitudeDegrees>
            </Position>
            <AltitudeMeters>382.399993896484375</AltitudeMeters>
            <DistanceMeters>NAN</DistanceMeters>
          </Trackpoint>
          <Trackpoint>
            <Time>2020-02-15T10:16:03.000Z</Time>
            <Position>
              <LatitudeDegrees>41.96846687234938144683837890625</LatitudeDegrees>
              <LongitudeDegrees>2.89850712753832340240478515625</LongitudeDegrees>
            </Position>
            <AltitudeMeters>382.600006103515625</AltitudeMeters>
            <DistanceMeters>NAN</DistanceMeters>
          </Trackpoint>
          <Trackpoint>
            <Time>2020-02-15T10:16:04.000Z</Time>
            <Position>
              <LatitudeDegrees>41.96847458370029926300048828125</LatitudeDegrees>
              <LongitudeDegrees>2.898524813354015350341796875</LongitudeDegrees>
            </Position>
            <AltitudeMeters>382.79998779296875</AltitudeMeters>
            <DistanceMeters>NAN</DistanceMeters>
          </Trackpoint>
          <Trackpoint>
            <Time>2020-02-15T10:16:05.000Z</Time>
            <Position>
              <LatitudeDegrees>41.96847961284220218658447265625</LatitudeDegrees>
              <LongitudeDegrees>2.89854065515100955963134765625</LongitudeDegrees>
            </Position>
            <AltitudeMeters>383</AltitudeMeters>
            <DistanceMeters>NAN</DistanceMeters>
          </Trackpoint>
          <Trackpoint>
            <Time>2020-02-15T10:16:06.000Z</Time>
            <Position>
              <LatitudeDegrees>41.96848313324153423309326171875</LatitudeDegrees>
              <LongitudeDegrees>2.89855976589024066925048828125</LongitudeDegrees>
            </Position>
            <AltitudeMeters>383.399993896484375</AltitudeMeters>
            <DistanceMeters>NAN</DistanceMeters>
          </Trackpoint>
          <Trackpoint>
            <Time>2020-02-15T10:16:07.000Z</Time>
            <Position>
              <LatitudeDegrees>41.968487240374088287353515625</LatitudeDegrees>
              <LongitudeDegrees>2.8985787928104400634765625</LongitudeDegrees>
            </Position>
            <AltitudeMeters>383.399993896484375</AltitudeMeters>
            <DistanceMeters>NAN</DistanceMeters>
          </Trackpoint>
          <Trackpoint>
            <Time>2020-02-15T10:16:08.000Z</Time>
            <Position>
              <LatitudeDegrees>41.9684934429824352264404296875</LatitudeDegrees>
              <LongitudeDegrees>2.89859823882579803466796875</LongitudeDegrees>
            </Position>
            <AltitudeMeters>383.600006103515625</AltitudeMeters>
            <DistanceMeters>NAN</DistanceMeters>
          </Trackpoint>
          <Trackpoint>
            <Time>2020-02-15T10:16:09.000Z</Time>
            <Position>
              <LatitudeDegrees>41.96849939413368701934814453125</LatitudeDegrees>
              <LongitudeDegrees>2.898617349565029144287109375</LongitudeDegrees>
            </Position>
            <AltitudeMeters>383.600006103515625</AltitudeMeters>
            <DistanceMeters>NAN</DistanceMeters>
          </Trackpoint>
          <Trackpoint>
            <Time>2020-02-15T10:16:10.000Z</Time>
            <Position>
              <LatitudeDegrees>41.96850299835205078125</LatitudeDegrees>
              <LongitudeDegrees>2.8986386395990848541259765625</LongitudeDegrees>
            </Position>
            <AltitudeMeters>383.79998779296875</AltitudeMeters>
            <DistanceMeters>NAN</DistanceMeters>
          </Trackpoint>
          <Trackpoint>
            <Time>2020-02-15T10:16:11.000Z</Time>
            <Position>
              <LatitudeDegrees>41.96850593201816082000732421875</LatitudeDegrees>
              <LongitudeDegrees>2.89866286329925060272216796875</LongitudeDegrees>
            </Position>
            <AltitudeMeters>383.79998779296875</AltitudeMeters>
            <DistanceMeters>NAN</DistanceMeters>
          </Trackpoint>
          <Trackpoint>
            <Time>2020-02-15T10:16:13.000Z</Time>
            <Position>
              <LatitudeDegrees>41.96851045824587345123291015625</LatitudeDegrees>
              <LongitudeDegrees>2.89870577864348888397216796875</LongitudeDegrees>
            </Position>
            <AltitudeMeters>383.79998779296875</AltitudeMeters>
            <DistanceMeters>NAN</DistanceMeters>
          </Trackpoint>
          <Trackpoint>
            <Time>2020-02-15T10:16:14.000Z</Time>
            <Position>
              <LatitudeDegrees>41.9685122184455394744873046875</LatitudeDegrees>
              <LongitudeDegrees>2.89872220717370510101318359375</LongitudeDegrees>
            </Position>
            <AltitudeMeters>384</AltitudeMeters>
            <DistanceMeters>NAN</DistanceMeters>
          </Trackpoint>
          <Trackpoint>
            <Time>2020-02-15T10:16:15.000Z</Time>
            <Position>
              <LatitudeDegrees>41.96851448155939579010009765625</LatitudeDegrees>
              <LongitudeDegrees>2.8987424075603485107421875</LongitudeDegrees>
            </Position>
            <AltitudeMeters>384</AltitudeMeters>
            <DistanceMeters>NAN</DistanceMeters>
          </Trackpoint>
          <Trackpoint>
            <Time>2020-02-15T10:16:18.000Z</Time>
            <Position>
              <LatitudeDegrees>41.9685192592442035675048828125</LatitudeDegrees>
              <LongitudeDegrees>2.89880418218672275543212890625</LongitudeDegrees>
            </Position>
            <AltitudeMeters>384.399993896484375</AltitudeMeters>
            <DistanceMeters>NAN</DistanceMeters>
          </Trackpoint>
          <Trackpoint>
            <Time>2020-02-15T10:16:19.000Z</Time>
            <Position>
              <LatitudeDegrees>41.96852152235805988311767578125</LatitudeDegrees>
              <LongitudeDegrees>2.89882346056401729583740234375</LongitudeDegrees>
            </Position>
            <AltitudeMeters>384.399993896484375</AltitudeMeters>
            <DistanceMeters>NAN</DistanceMeters>
          </Trackpoint>
          <Trackpoint>
            <Time>2020-02-15T10:16:20.000Z</Time>
            <Position>
              <LatitudeDegrees>41.96852286346256732940673828125</LatitudeDegrees>
              <LongitudeDegrees>2.89884223602712154388427734375</LongitudeDegrees>
            </Position>
            <AltitudeMeters>384.600006103515625</AltitudeMeters>
            <DistanceMeters>NAN</DistanceMeters>
          </Trackpoint>
          <Trackpoint>
            <Time>2020-02-15T10:16:21.000Z</Time>
            <Position>
              <LatitudeDegrees>41.96852269582450389862060546875</LatitudeDegrees>
              <LongitudeDegrees>2.8988639451563358306884765625</LongitudeDegrees>
            </Position>
            <AltitudeMeters>384.600006103515625</AltitudeMeters>
            <DistanceMeters>NAN</DistanceMeters>
          </Trackpoint>
          <Trackpoint>
            <Time>2020-02-15T10:16:23.000Z</Time>
            <Position>
              <LatitudeDegrees>41.968525461852550506591796875</LatitudeDegrees>
              <LongitudeDegrees>2.89890979416668415069580078125</LongitudeDegrees>
            </Position>
            <AltitudeMeters>384.79998779296875</AltitudeMeters>
            <DistanceMeters>NAN</DistanceMeters>
          </Trackpoint>
          <Trackpoint>
            <Time>2020-02-15T10:16:28.000Z</Time>
            <Position>
              <LatitudeDegrees>41.96852403692901134490966796875</LatitudeDegrees>
              <LongitudeDegrees>2.89903854019939899444580078125</LongitudeDegrees>
            </Position>
            <AltitudeMeters>385.20001220703125</AltitudeMeters>
            <DistanceMeters>NAN</DistanceMeters>
          </Trackpoint>
          <Trackpoint>
            <Time>2020-02-15T10:16:29.000Z</Time>
            <Position>
              <LatitudeDegrees>41.96852504275739192962646484375</LatitudeDegrees>
              <LongitudeDegrees>2.89906016550958156585693359375</LongitudeDegrees>
            </Position>
            <AltitudeMeters>385.20001220703125</AltitudeMeters>
            <DistanceMeters>NAN</DistanceMeters>
          </Trackpoint>
          <Trackpoint>
            <Time>2020-02-15T10:16:30.000Z</Time>
            <Position>
              <LatitudeDegrees>41.9685266353189945220947265625</LatitudeDegrees>
              <LongitudeDegrees>2.89908229373395442962646484375</LongitudeDegrees>
            </Position>
            <AltitudeMeters>385.20001220703125</AltitudeMeters>
            <DistanceMeters>NAN</DistanceMeters>
          </Trackpoint>
          <Trackpoint>
            <Time>2020-02-15T10:16:31.000Z</Time>
            <Position>
              <LatitudeDegrees>41.96852755732834339141845703125</LatitudeDegrees>
              <LongitudeDegrees>2.89910576306283473968505859375</LongitudeDegrees>
            </Position>
            <AltitudeMeters>385.20001220703125</AltitudeMeters>
            <DistanceMeters>NAN</DistanceMeters>
          </Trackpoint>
          <Trackpoint>
            <Time>2020-02-15T10:16:32.000Z</Time>
            <Position>
              <LatitudeDegrees>41.96853317320346832275390625</LatitudeDegrees>
              <LongitudeDegrees>2.89912906475365161895751953125</LongitudeDegrees>
            </Position>
            <AltitudeMeters>385.20001220703125</AltitudeMeters>
            <DistanceMeters>NAN</DistanceMeters>
          </Trackpoint>
          <Trackpoint>
            <Time>2020-02-15T10:16:33.000Z</Time>
            <Position>
              <LatitudeDegrees>41.96854264475405216217041015625</LatitudeDegrees>
              <LongitudeDegrees>2.89914951659739017486572265625</LongitudeDegrees>
            </Position>
            <AltitudeMeters>385.20001220703125</AltitudeMeters>
            <DistanceMeters>NAN</DistanceMeters>
          </Trackpoint>
          <Trackpoint>
            <Time>2020-02-15T10:16:34.000Z</Time>
            <Position>
              <LatitudeDegrees>41.96855320595204830169677734375</LatitudeDegrees>
              <LongitudeDegrees>2.89916711859405040740966796875</LongitudeDegrees>
            </Position>
            <AltitudeMeters>385.20001220703125</AltitudeMeters>
            <DistanceMeters>NAN</DistanceMeters>
          </Trackpoint>
          <Trackpoint>
            <Time>2020-02-15T10:16:35.000Z</Time>
            <Position>
              <LatitudeDegrees>41.96856594644486904144287109375</LatitudeDegrees>
              <LongitudeDegrees>2.89918296039104461669921875</LongitudeDegrees>
            </Position>
            <AltitudeMeters>385.20001220703125</AltitudeMeters>
            <DistanceMeters>NAN</DistanceMeters>
          </Trackpoint>
          <Trackpoint>
            <Time>2020-02-15T10:16:36.000Z</Time>
            <Position>
              <LatitudeDegrees>41.968581117689609527587890625</LatitudeDegrees>
              <LongitudeDegrees>2.899196036159992218017578125</LongitudeDegrees>
            </Position>
            <AltitudeMeters>385.20001220703125</AltitudeMeters>
            <DistanceMeters>NAN</DistanceMeters>
          </Trackpoint>
          <Trackpoint>
            <Time>2020-02-15T10:16:37.000Z</Time>
            <Position>
              <LatitudeDegrees>41.96859712712466716766357421875</LatitudeDegrees>
              <LongitudeDegrees>2.89920601062476634979248046875</LongitudeDegrees>
            </Position>
            <AltitudeMeters>385.20001220703125</AltitudeMeters>
            <DistanceMeters>NAN</DistanceMeters>
          </Trackpoint>
          <Trackpoint>
            <Time>2020-02-15T10:16:38.000Z</Time>
            <Position>
              <LatitudeDegrees>41.96861305274069309234619140625</LatitudeDegrees>
              <LongitudeDegrees>2.8992143087089061737060546875</LongitudeDegrees>
            </Position>
            <AltitudeMeters>385.20001220703125</AltitudeMeters>
            <DistanceMeters>NAN</DistanceMeters>
          </Trackpoint>
          <Trackpoint>
            <Time>2020-02-15T10:16:39.000Z</Time>
            <Position>
              <LatitudeDegrees>41.968628726899623870849609375</LatitudeDegrees>
              <LongitudeDegrees>2.89921875111758708953857421875</LongitudeDegrees>
            </Position>
            <AltitudeMeters>385.20001220703125</AltitudeMeters>
            <DistanceMeters>NAN</DistanceMeters>
          </Trackpoint>
          <Trackpoint>
            <Time>2020-02-15T10:16:40.000Z</Time>
            <Position>
              <LatitudeDegrees>41.9686439819633960723876953125</LatitudeDegrees>
              <LongitudeDegrees>2.89922143332660198211669921875</LongitudeDegrees>
            </Position>
            <AltitudeMeters>385</AltitudeMeters>
            <DistanceMeters>NAN</DistanceMeters>
          </Trackpoint>
          <Trackpoint>
            <Time>2020-02-15T10:16:41.000Z</Time>
            <Position>
              <LatitudeDegrees>41.9686587341129779815673828125</LatitudeDegrees>
              <LongitudeDegrees>2.89922009222209453582763671875</LongitudeDegrees>
            </Position>
            <AltitudeMeters>385.20001220703125</AltitudeMeters>
            <DistanceMeters>NAN</DistanceMeters>
          </Trackpoint>
          <Trackpoint>
            <Time>2020-02-15T10:16:42.000Z</Time>
            <Position>
              <LatitudeDegrees>41.9686724804341793060302734375</LatitudeDegrees>
              <LongitudeDegrees>2.89921070449054241180419921875</LongitudeDegrees>
            </Position>
            <AltitudeMeters>385.20001220703125</AltitudeMeters>
            <DistanceMeters>NAN</DistanceMeters>
          </Trackpoint>
          <Trackpoint>
            <Time>2020-02-15T10:16:43.000Z</Time>
            <Position>
              <LatitudeDegrees>41.9686879031360149383544921875</LatitudeDegrees>
              <LongitudeDegrees>2.89919829927384853363037109375</LongitudeDegrees>
            </Position>
            <AltitudeMeters>385.20001220703125</AltitudeMeters>
            <DistanceMeters>NAN</DistanceMeters>
          </Trackpoint>
          <Trackpoint>
            <Time>2020-02-15T10:16:44.000Z</Time>
            <Position>
              <LatitudeDegrees>41.96870575658977031707763671875</LatitudeDegrees>
              <LongitudeDegrees>2.8991891629993915557861328125</LongitudeDegrees>
            </Position>
            <AltitudeMeters>385.20001220703125</AltitudeMeters>
            <DistanceMeters>NAN</DistanceMeters>
          </Trackpoint>
          <Trackpoint>
            <Time>2020-02-15T10:16:45.000Z</Time>
            <Position>
              <LatitudeDegrees>41.96872369386255741119384765625</LatitudeDegrees>
              <LongitudeDegrees>2.89918161928653717041015625</LongitudeDegrees>
            </Position>
            <AltitudeMeters>385.20001220703125</AltitudeMeters>
            <DistanceMeters>NAN</DistanceMeters>
          </Trackpoint>
          <Trackpoint>
            <Time>2020-02-15T10:16:47.000Z</Time>
            <Position>
              <LatitudeDegrees>41.96875990368425846099853515625</LatitudeDegrees>
              <LongitudeDegrees>2.89915622211992740631103515625</LongitudeDegrees>
            </Position>
            <AltitudeMeters>385</AltitudeMeters>
            <DistanceMeters>NAN</DistanceMeters>
          </Trackpoint>
          <Trackpoint>
            <Time>2020-02-15T10:16:48.000Z</Time>
            <Position>
              <LatitudeDegrees>41.96878203190863132476806640625</LatitudeDegrees>
              <LongitudeDegrees>2.899137027561664581298828125</LongitudeDegrees>
            </Position>
            <AltitudeMeters>385</AltitudeMeters>
            <DistanceMeters>NAN</DistanceMeters>
          </Trackpoint>
          <Trackpoint>
            <Time>2020-02-15T10:16:50.000Z</Time>
            <Position>
              <LatitudeDegrees>41.9688196666538715362548828125</LatitudeDegrees>
              <LongitudeDegrees>2.89910039864480495452880859375</LongitudeDegrees>
            </Position>
            <AltitudeMeters>385</AltitudeMeters>
            <DistanceMeters>NAN</DistanceMeters>
          </Trackpoint>
          <Trackpoint>
            <Time>2020-02-15T10:16:51.000Z</Time>
            <Position>
              <LatitudeDegrees>41.9688377715647220611572265625</LatitudeDegrees>
              <LongitudeDegrees>2.89908179081976413726806640625</LongitudeDegrees>
            </Position>
            <AltitudeMeters>385</AltitudeMeters>
            <DistanceMeters>NAN</DistanceMeters>
          </Trackpoint>
          <Trackpoint>
            <Time>2020-02-15T10:16:53.000Z</Time>
            <Position>
              <LatitudeDegrees>41.96887808851897716522216796875</LatitudeDegrees>
              <LongitudeDegrees>2.89904960431158542633056640625</LongitudeDegrees>
            </Position>
            <AltitudeMeters>385</AltitudeMeters>
            <DistanceMeters>NAN</DistanceMeters>
          </Trackpoint>
          <Trackpoint>
            <Time>2020-02-15T10:16:55.000Z</Time>
            <Position>
              <LatitudeDegrees>41.96892083622515201568603515625</LatitudeDegrees>
              <LongitudeDegrees>2.899018339812755584716796875</LongitudeDegrees>
            </Position>
            <AltitudeMeters>385</AltitudeMeters>
            <DistanceMeters>NAN</DistanceMeters>
          </Trackpoint>
          <Trackpoint>
            <Time>2020-02-15T10:16:56.000Z</Time>
            <Position>
              <LatitudeDegrees>41.96894246153533458709716796875</LatitudeDegrees>
              <LongitudeDegrees>2.8990020789206027984619140625</LongitudeDegrees>
            </Position>
            <AltitudeMeters>384.79998779296875</AltitudeMeters>
            <DistanceMeters>NAN</DistanceMeters>
          </Trackpoint>
          <Trackpoint>
            <Time>2020-02-15T10:16:58.000Z</Time>
            <Position>
              <LatitudeDegrees>41.968982778489589691162109375</LatitudeDegrees>
              <LongitudeDegrees>2.8989732451736927032470703125</LongitudeDegrees>
            </Position>
            <AltitudeMeters>384.79998779296875</AltitudeMeters>
            <DistanceMeters>NAN</DistanceMeters>
          </Trackpoint>
          <Trackpoint>
            <Time>2020-02-15T10:16:59.000Z</Time>
            <Position>
              <LatitudeDegrees>41.96900398470461368560791015625</LatitudeDegrees>
              <LongitudeDegrees>2.898960001766681671142578125</LongitudeDegrees>
            </Position>
            <AltitudeMeters>384.79998779296875</AltitudeMeters>
            <DistanceMeters>NAN</DistanceMeters>
          </Trackpoint>
          <Trackpoint>
            <Time>2020-02-15T10:17:01.000Z</Time>
            <Position>
              <LatitudeDegrees>41.9690439663827419281005859375</LatitudeDegrees>
              <LongitudeDegrees>2.89893351495265960693359375</LongitudeDegrees>
            </Position>
            <AltitudeMeters>384.600006103515625</AltitudeMeters>
            <DistanceMeters>NAN</DistanceMeters>
          </Trackpoint>
          <Trackpoint>
            <Time>2020-02-15T10:17:02.000Z</Time>
            <Position>
              <LatitudeDegrees>41.96906483732163906097412109375</LatitudeDegrees>
              <LongitudeDegrees>2.8989199362695217132568359375</LongitudeDegrees>
            </Position>
            <AltitudeMeters>384.600006103515625</AltitudeMeters>
            <DistanceMeters>NAN</DistanceMeters>
          </Trackpoint>
          <Trackpoint>
            <Time>2020-02-15T10:17:03.000Z</Time>
            <Position>
              <LatitudeDegrees>41.96908746846020221710205078125</LatitudeDegrees>
              <LongitudeDegrees>2.89890359155833721160888671875</LongitudeDegrees>
            </Position>
            <AltitudeMeters>384.399993896484375</AltitudeMeters>
            <DistanceMeters>NAN</DistanceMeters>
          </Trackpoint>
          <Trackpoint>
            <Time>2020-02-15T10:17:08.000Z</Time>
            <Position>
              <LatitudeDegrees>41.96920774877071380615234375</LatitudeDegrees>
              <LongitudeDegrees>2.8987992368638515472412109375</LongitudeDegrees>
            </Position>
            <AltitudeMeters>384.399993896484375</AltitudeMeters>
            <DistanceMeters>NAN</DistanceMeters>
          </Trackpoint>
          <Trackpoint>
            <Time>2020-02-15T10:17:09.000Z</Time>
            <Position>
              <LatitudeDegrees>41.96923314593732357025146484375</LatitudeDegrees>
              <LongitudeDegrees>2.89877920411527156829833984375</LongitudeDegrees>
            </Position>
            <AltitudeMeters>384.399993896484375</AltitudeMeters>
            <DistanceMeters>NAN</DistanceMeters>
          </Trackpoint>
          <Trackpoint>
            <Time>2020-02-15T10:17:11.000Z</Time>
            <Position>
              <LatitudeDegrees>41.96928477846086025238037109375</LatitudeDegrees>
              <LongitudeDegrees>2.89873578585684299468994140625</LongitudeDegrees>
            </Position>
            <AltitudeMeters>384.600006103515625</AltitudeMeters>
            <DistanceMeters>NAN</DistanceMeters>
          </Trackpoint>
          <Trackpoint>
            <Time>2020-02-15T10:17:12.000Z</Time>
            <Position>
              <LatitudeDegrees>41.96931193582713603973388671875</LatitudeDegrees>
              <LongitudeDegrees>2.89871131069958209991455078125</LongitudeDegrees>
            </Position>
            <AltitudeMeters>384.399993896484375</AltitudeMeters>
            <DistanceMeters>NAN</DistanceMeters>
          </Trackpoint>
          <Trackpoint>
            <Time>2020-02-15T10:17:14.000Z</Time>
            <Position>
              <LatitudeDegrees>41.96936591528356075286865234375</LatitudeDegrees>
              <LongitudeDegrees>2.89866034872829914093017578125</LongitudeDegrees>
            </Position>
            <AltitudeMeters>384.399993896484375</AltitudeMeters>
            <DistanceMeters>NAN</DistanceMeters>
          </Trackpoint>
          <Trackpoint>
            <Time>2020-02-15T10:17:15.000Z</Time>
            <Position>
              <LatitudeDegrees>41.9693876244127750396728515625</LatitudeDegrees>
              <LongitudeDegrees>2.89863620884716510772705078125</LongitudeDegrees>
            </Position>
            <AltitudeMeters>384.399993896484375</AltitudeMeters>
            <DistanceMeters>NAN</DistanceMeters>
          </Trackpoint>
          <Trackpoint>
            <Time>2020-02-15T10:17:16.000Z</Time>
            <Position>
              <LatitudeDegrees>41.96940891444683074951171875</LatitudeDegrees>
              <LongitudeDegrees>2.8986104764044284820556640625</LongitudeDegrees>
            </Position>
            <AltitudeMeters>384.399993896484375</AltitudeMeters>
            <DistanceMeters>NAN</DistanceMeters>
          </Trackpoint>
          <Trackpoint>
            <Time>2020-02-15T10:17:17.000Z</Time>
            <Position>
              <LatitudeDegrees>41.9694328866899013519287109375</LatitudeDegrees>
              <LongitudeDegrees>2.898581810295581817626953125</LongitudeDegrees>
            </Position>
            <AltitudeMeters>384.399993896484375</AltitudeMeters>
            <DistanceMeters>NAN</DistanceMeters>
          </Trackpoint>
          <Trackpoint>
            <Time>2020-02-15T10:17:20.000Z</Time>
            <Position>
              <LatitudeDegrees>41.96951058693230152130126953125</LatitudeDegrees>
              <LongitudeDegrees>2.89849623106420040130615234375</LongitudeDegrees>
            </Position>
            <AltitudeMeters>384.399993896484375</AltitudeMeters>
            <DistanceMeters>NAN</DistanceMeters>
          </Trackpoint>
          <Trackpoint>
            <Time>2020-02-15T10:17:22.000Z</Time>
            <Position>
              <LatitudeDegrees>41.9695576094090938568115234375</LatitudeDegrees>
              <LongitudeDegrees>2.89843269623816013336181640625</LongitudeDegrees>
            </Position>
            <AltitudeMeters>384.20001220703125</AltitudeMeters>
            <DistanceMeters>NAN</DistanceMeters>
          </Trackpoint>
          <Trackpoint>
            <Time>2020-02-15T10:17:25.000Z</Time>
            <Position>
              <LatitudeDegrees>41.9696389138698577880859375</LatitudeDegrees>
              <LongitudeDegrees>2.89832021109759807586669921875</LongitudeDegrees>
            </Position>
            <AltitudeMeters>384</AltitudeMeters>
            <DistanceMeters>NAN</DistanceMeters>
          </Trackpoint>
          <Trackpoint>
            <Time>2020-02-15T10:17:28.000Z</Time>
            <Position>
              <LatitudeDegrees>41.9697339646518230438232421875</LatitudeDegrees>
              <LongitudeDegrees>2.89819984696805477142333984375</LongitudeDegrees>
            </Position>
            <AltitudeMeters>384</AltitudeMeters>
            <DistanceMeters>NAN</DistanceMeters>
          </Trackpoint>
          <Trackpoint>
            <Time>2020-02-15T10:17:31.000Z</Time>
            <Position>
              <LatitudeDegrees>41.96984066627919673919677734375</LatitudeDegrees>
              <LongitudeDegrees>2.8981038741767406463623046875</LongitudeDegrees>
            </Position>
            <AltitudeMeters>383.79998779296875</AltitudeMeters>
            <DistanceMeters>NAN</DistanceMeters>
          </Trackpoint>
          <Trackpoint>
            <Time>2020-02-15T10:17:32.000Z</Time>
            <Position>
              <LatitudeDegrees>41.9698784686625003814697265625</LatitudeDegrees>
              <LongitudeDegrees>2.89807830937206745147705078125</LongitudeDegrees>
            </Position>
            <AltitudeMeters>383.79998779296875</AltitudeMeters>
            <DistanceMeters>NAN</DistanceMeters>
          </Trackpoint>
          <Trackpoint>
            <Time>2020-02-15T10:17:33.000Z</Time>
            <Position>
              <LatitudeDegrees>41.969916857779026031494140625</LatitudeDegrees>
              <LongitudeDegrees>2.89805316366255283355712890625</LongitudeDegrees>
            </Position>
            <AltitudeMeters>383.600006103515625</AltitudeMeters>
            <DistanceMeters>NAN</DistanceMeters>
          </Trackpoint>
          <Trackpoint>
            <Time>2020-02-15T10:17:34.000Z</Time>
            <Position>
              <LatitudeDegrees>41.96995449252426624298095703125</LatitudeDegrees>
              <LongitudeDegrees>2.8980307839810848236083984375</LongitudeDegrees>
            </Position>
            <AltitudeMeters>383.399993896484375</AltitudeMeters>
            <DistanceMeters>NAN</DistanceMeters>
          </Trackpoint>
          <Trackpoint>
            <Time>2020-02-15T10:17:35.000Z</Time>
            <Position>
              <LatitudeDegrees>41.96999187581241130828857421875</LatitudeDegrees>
              <LongitudeDegrees>2.8980079852044582366943359375</LongitudeDegrees>
            </Position>
            <AltitudeMeters>383.20001220703125</AltitudeMeters>
            <DistanceMeters>NAN</DistanceMeters>
          </Trackpoint>
          <Trackpoint>
            <Time>2020-02-15T10:17:36.000Z</Time>
            <Position>
              <LatitudeDegrees>41.97002850472927093505859375</LatitudeDegrees>
              <LongitudeDegrees>2.89798267185688018798828125</LongitudeDegrees>
            </Position>
            <AltitudeMeters>383</AltitudeMeters>
            <DistanceMeters>NAN</DistanceMeters>
          </Trackpoint>
          <Trackpoint>
            <Time>2020-02-15T10:17:37.000Z</Time>
            <Position>
              <LatitudeDegrees>41.97006664238870143890380859375</LatitudeDegrees>
              <LongitudeDegrees>2.89795584976673126220703125</LongitudeDegrees>
            </Position>
            <AltitudeMeters>383</AltitudeMeters>
            <DistanceMeters>NAN</DistanceMeters>
          </Trackpoint>
          <Trackpoint>
            <Time>2020-02-15T10:17:40.000Z</Time>
            <Position>
              <LatitudeDegrees>41.97018206119537353515625</LatitudeDegrees>
              <LongitudeDegrees>2.89787680841982364654541015625</LongitudeDegrees>
            </Position>
            <AltitudeMeters>382.600006103515625</AltitudeMeters>
            <DistanceMeters>NAN</DistanceMeters>
          </Trackpoint>
          <Trackpoint>
            <Time>2020-02-15T10:17:41.000Z</Time>
            <Position>
              <LatitudeDegrees>41.97022003121674060821533203125</LatitudeDegrees>
              <LongitudeDegrees>2.8978483937680721282958984375</LongitudeDegrees>
            </Position>
            <AltitudeMeters>382.600006103515625</AltitudeMeters>
            <DistanceMeters>NAN</DistanceMeters>
          </Trackpoint>
          <Trackpoint>
            <Time>2020-02-15T10:17:43.000Z</Time>
            <Position>
              <LatitudeDegrees>41.97028943337500095367431640625</LatitudeDegrees>
              <LongitudeDegrees>2.89779483340680599212646484375</LongitudeDegrees>
            </Position>
            <AltitudeMeters>382.399993896484375</AltitudeMeters>
            <DistanceMeters>NAN</DistanceMeters>
          </Trackpoint>
          <Trackpoint>
            <Time>2020-02-15T10:17:44.000Z</Time>
            <Position>
              <LatitudeDegrees>41.970325894653797149658203125</LatitudeDegrees>
              <LongitudeDegrees>2.8977659158408641815185546875</LongitudeDegrees>
            </Position>
            <AltitudeMeters>382.399993896484375</AltitudeMeters>
            <DistanceMeters>NAN</DistanceMeters>
          </Trackpoint>
          <Trackpoint>
            <Time>2020-02-15T10:17:45.000Z</Time>
            <Position>
              <LatitudeDegrees>41.9703646190464496612548828125</LatitudeDegrees>
              <LongitudeDegrees>2.8977400995790958404541015625</LongitudeDegrees>
            </Position>
            <AltitudeMeters>382.20001220703125</AltitudeMeters>
            <DistanceMeters>NAN</DistanceMeters>
          </Trackpoint>
          <Trackpoint>
            <Time>2020-02-15T10:17:47.000Z</Time>
            <Position>
              <LatitudeDegrees>41.97043980471789836883544921875</LatitudeDegrees>
              <LongitudeDegrees>2.89767824113368988037109375</LongitudeDegrees>
            </Position>
            <AltitudeMeters>381.79998779296875</AltitudeMeters>
            <DistanceMeters>NAN</DistanceMeters>
          </Trackpoint>
          <Trackpoint>
            <Time>2020-02-15T10:17:52.000Z</Time>
            <Position>
              <LatitudeDegrees>41.97062940336763858795166015625</LatitudeDegrees>
              <LongitudeDegrees>2.89747967384755611419677734375</LongitudeDegrees>
            </Position>
            <AltitudeMeters>381.20001220703125</AltitudeMeters>
            <DistanceMeters>NAN</DistanceMeters>
          </Trackpoint>
          <Trackpoint>
            <Time>2020-02-15T10:17:53.000Z</Time>
            <Position>
              <LatitudeDegrees>41.97066427208483219146728515625</LatitudeDegrees>
              <LongitudeDegrees>2.89743256755173206329345703125</LongitudeDegrees>
            </Position>
            <AltitudeMeters>381.20001220703125</AltitudeMeters>
            <DistanceMeters>NAN</DistanceMeters>
          </Trackpoint>
          <Trackpoint>
            <Time>2020-02-15T10:17:54.000Z</Time>
            <Position>
              <LatitudeDegrees>41.9706985540688037872314453125</LatitudeDegrees>
              <LongitudeDegrees>2.8973910771310329437255859375</LongitudeDegrees>
            </Position>
            <AltitudeMeters>381.20001220703125</AltitudeMeters>
            <DistanceMeters>NAN</DistanceMeters>
          </Trackpoint>
          <Trackpoint>
            <Time>2020-02-15T10:17:55.000Z</Time>
            <Position>
              <LatitudeDegrees>41.9707332551479339599609375</LatitudeDegrees>
              <LongitudeDegrees>2.89735511876642704010009765625</LongitudeDegrees>
            </Position>
            <AltitudeMeters>381</AltitudeMeters>
            <DistanceMeters>NAN</DistanceMeters>
          </Trackpoint>
          <Trackpoint>
            <Time>2020-02-15T10:17:56.000Z</Time>
            <Position>
              <LatitudeDegrees>41.9707666151225566864013671875</LatitudeDegrees>
              <LongitudeDegrees>2.89732125587761402130126953125</LongitudeDegrees>
            </Position>
            <AltitudeMeters>380.79998779296875</AltitudeMeters>
            <DistanceMeters>NAN</DistanceMeters>
          </Trackpoint>
          <Trackpoint>
            <Time>2020-02-15T10:17:57.000Z</Time>
            <Position>
              <LatitudeDegrees>41.97080290876328945159912109375</LatitudeDegrees>
              <LongitudeDegrees>2.89728521369397640228271484375</LongitudeDegrees>
            </Position>
            <AltitudeMeters>380.600006103515625</AltitudeMeters>
            <DistanceMeters>NAN</DistanceMeters>
          </Trackpoint>
          <Trackpoint>
            <Time>2020-02-15T10:17:58.000Z</Time>
            <Position>
              <LatitudeDegrees>41.970840208232402801513671875</LatitudeDegrees>
              <LongitudeDegrees>2.897249422967433929443359375</LongitudeDegrees>
            </Position>
            <AltitudeMeters>380.399993896484375</AltitudeMeters>
            <DistanceMeters>NAN</DistanceMeters>
          </Trackpoint>
          <Trackpoint>
            <Time>2020-02-15T10:18:00.000Z</Time>
            <Position>
              <LatitudeDegrees>41.970914639532566070556640625</LatitudeDegrees>
              <LongitudeDegrees>2.8971795178949832916259765625</LongitudeDegrees>
            </Position>
            <AltitudeMeters>380.20001220703125</AltitudeMeters>
            <DistanceMeters>NAN</DistanceMeters>
          </Trackpoint>
          <Trackpoint>
            <Time>2020-02-15T10:18:01.000Z</Time>
            <Position>
              <LatitudeDegrees>41.9709520228207111358642578125</LatitudeDegrees>
              <LongitudeDegrees>2.897142805159091949462890625</LongitudeDegrees>
            </Position>
            <AltitudeMeters>380.20001220703125</AltitudeMeters>
            <DistanceMeters>NAN</DistanceMeters>
          </Trackpoint>
          <Trackpoint>
            <Time>2020-02-15T10:18:04.000Z</Time>
            <Position>
              <LatitudeDegrees>41.97106325067579746246337890625</LatitudeDegrees>
              <LongitudeDegrees>2.8970346786081790924072265625</LongitudeDegrees>
            </Position>
            <AltitudeMeters>380</AltitudeMeters>
            <DistanceMeters>NAN</DistanceMeters>
          </Trackpoint>
          <Trackpoint>
            <Time>2020-02-15T10:18:05.000Z</Time>
            <Position>
              <LatitudeDegrees>41.971099041402339935302734375</LatitudeDegrees>
              <LongitudeDegrees>2.89700157009065151214599609375</LongitudeDegrees>
            </Position>
            <AltitudeMeters>379.79998779296875</AltitudeMeters>
            <DistanceMeters>NAN</DistanceMeters>
          </Trackpoint>
          <Trackpoint>
            <Time>2020-02-15T10:18:06.000Z</Time>
            <Position>
              <LatitudeDegrees>41.97113315574824810028076171875</LatitudeDegrees>
              <LongitudeDegrees>2.896970473229885101318359375</LongitudeDegrees>
            </Position>
            <AltitudeMeters>379.600006103515625</AltitudeMeters>
            <DistanceMeters>NAN</DistanceMeters>
          </Trackpoint>
          <Trackpoint>
            <Time>2020-02-15T10:18:07.000Z</Time>
            <Position>
              <LatitudeDegrees>41.971164755523204803466796875</LatitudeDegrees>
              <LongitudeDegrees>2.896937616169452667236328125</LongitudeDegrees>
            </Position>
            <AltitudeMeters>379.600006103515625</AltitudeMeters>
            <DistanceMeters>NAN</DistanceMeters>
          </Trackpoint>
          <Trackpoint>
            <Time>2020-02-15T10:18:08.000Z</Time>
            <Position>
              <LatitudeDegrees>41.97119551710784435272216796875</LatitudeDegrees>
              <LongitudeDegrees>2.89690819568932056427001953125</LongitudeDegrees>
            </Position>
            <AltitudeMeters>379.600006103515625</AltitudeMeters>
            <DistanceMeters>NAN</DistanceMeters>
          </Trackpoint>
          <Trackpoint>
            <Time>2020-02-15T10:18:09.000Z</Time>
            <Position>
              <LatitudeDegrees>41.97122451849281787872314453125</LatitudeDegrees>
              <LongitudeDegrees>2.89688296616077423095703125</LongitudeDegrees>
            </Position>
            <AltitudeMeters>379.79998779296875</AltitudeMeters>
            <DistanceMeters>NAN</DistanceMeters>
          </Trackpoint>
          <Trackpoint>
            <Time>2020-02-15T10:18:10.000Z</Time>
            <Position>
              <LatitudeDegrees>41.97125284932553768157958984375</LatitudeDegrees>
              <LongitudeDegrees>2.89685974828898906707763671875</LongitudeDegrees>
            </Position>
            <AltitudeMeters>379.600006103515625</AltitudeMeters>
            <DistanceMeters>NAN</DistanceMeters>
          </Trackpoint>
          <Trackpoint>
            <Time>2020-02-15T10:18:11.000Z</Time>
            <Position>
              <LatitudeDegrees>41.9712809287011623382568359375</LatitudeDegrees>
              <LongitudeDegrees>2.8968385420739650726318359375</LongitudeDegrees>
            </Position>
            <AltitudeMeters>379.600006103515625</AltitudeMeters>
            <DistanceMeters>NAN</DistanceMeters>
          </Trackpoint>
          <Trackpoint>
            <Time>2020-02-15T10:18:12.000Z</Time>
            <Position>
              <LatitudeDegrees>41.971308924257755279541015625</LatitudeDegrees>
              <LongitudeDegrees>2.89681716822087764739990234375</LongitudeDegrees>
            </Position>
            <AltitudeMeters>379.600006103515625</AltitudeMeters>
            <DistanceMeters>NAN</DistanceMeters>
          </Trackpoint>
          <Trackpoint>
            <Time>2020-02-15T10:18:13.000Z</Time>
            <Position>
              <LatitudeDegrees>41.97133599780499935150146484375</LatitudeDegrees>
              <LongitudeDegrees>2.89679839275777339935302734375</LongitudeDegrees>
            </Position>
            <AltitudeMeters>379.79998779296875</AltitudeMeters>
            <DistanceMeters>NAN</DistanceMeters>
          </Trackpoint>
          <Trackpoint>
            <Time>2020-02-15T10:18:14.000Z</Time>
            <Position>
              <LatitudeDegrees>41.9713630713522434234619140625</LatitudeDegrees>
              <LongitudeDegrees>2.8967790305614471435546875</LongitudeDegrees>
            </Position>
            <AltitudeMeters>379.600006103515625</AltitudeMeters>
            <DistanceMeters>NAN</DistanceMeters>
          </Trackpoint>
          <Trackpoint>
            <Time>2020-02-15T10:18:15.000Z</Time>
            <Position>
              <LatitudeDegrees>41.97138972580432891845703125</LatitudeDegrees>
              <LongitudeDegrees>2.89676092565059661865234375</LongitudeDegrees>
            </Position>
            <AltitudeMeters>379.79998779296875</AltitudeMeters>
            <DistanceMeters>NAN</DistanceMeters>
          </Trackpoint>
          <Trackpoint>
            <Time>2020-02-15T10:18:16.000Z</Time>
            <Position>
              <LatitudeDegrees>41.97141520678997039794921875</LatitudeDegrees>
              <LongitudeDegrees>2.89674323983490467071533203125</LongitudeDegrees>
            </Position>
            <AltitudeMeters>379.600006103515625</AltitudeMeters>
            <DistanceMeters>NAN</DistanceMeters>
          </Trackpoint>
          <Trackpoint>
            <Time>2020-02-15T10:18:17.000Z</Time>
            <Position>
              <LatitudeDegrees>41.9714413583278656005859375</LatitudeDegrees>
              <LongitudeDegrees>2.89672337472438812255859375</LongitudeDegrees>
            </Position>
            <AltitudeMeters>379.79998779296875</AltitudeMeters>
            <DistanceMeters>NAN</DistanceMeters>
          </Trackpoint>
          <Trackpoint>
            <Time>2020-02-15T10:18:18.000Z</Time>
            <Position>
              <LatitudeDegrees>41.9714676775038242340087890625</LatitudeDegrees>
              <LongitudeDegrees>2.89670418016612529754638671875</LongitudeDegrees>
            </Position>
            <AltitudeMeters>380</AltitudeMeters>
            <DistanceMeters>NAN</DistanceMeters>
          </Trackpoint>
          <Trackpoint>
            <Time>2020-02-15T10:18:19.000Z</Time>
            <Position>
              <LatitudeDegrees>41.9714934937655925750732421875</LatitudeDegrees>
              <LongitudeDegrees>2.89668272249400615692138671875</LongitudeDegrees>
            </Position>
            <AltitudeMeters>380</AltitudeMeters>
            <DistanceMeters>NAN</DistanceMeters>
          </Trackpoint>
          <Trackpoint>
            <Time>2020-02-15T10:18:20.000Z</Time>
            <Position>
              <LatitudeDegrees>41.97152157314121723175048828125</LatitudeDegrees>
              <LongitudeDegrees>2.8966628573834896087646484375</LongitudeDegrees>
            </Position>
            <AltitudeMeters>380.20001220703125</AltitudeMeters>
            <DistanceMeters>NAN</DistanceMeters>
          </Trackpoint>
          <Trackpoint>
            <Time>2020-02-15T10:18:21.000Z</Time>
            <Position>
              <LatitudeDegrees>41.97155141271650791168212890625</LatitudeDegrees>
              <LongitudeDegrees>2.89664265699684619903564453125</LongitudeDegrees>
            </Position>
            <AltitudeMeters>380.399993896484375</AltitudeMeters>
            <DistanceMeters>NAN</DistanceMeters>
          </Trackpoint>
          <Trackpoint>
            <Time>2020-02-15T10:18:22.000Z</Time>
            <Position>
              <LatitudeDegrees>41.97158209048211574554443359375</LatitudeDegrees>
              <LongitudeDegrees>2.89662455208599567413330078125</LongitudeDegrees>
            </Position>
            <AltitudeMeters>380.399993896484375</AltitudeMeters>
            <DistanceMeters>NAN</DistanceMeters>
          </Trackpoint>
          <Trackpoint>
            <Time>2020-02-15T10:18:23.000Z</Time>
            <Position>
              <LatitudeDegrees>41.97161159478127956390380859375</LatitudeDegrees>
              <LongitudeDegrees>2.8966072015464305877685546875</LongitudeDegrees>
            </Position>
            <AltitudeMeters>380.79998779296875</AltitudeMeters>
            <DistanceMeters>NAN</DistanceMeters>
          </Trackpoint>
          <Trackpoint>
            <Time>2020-02-15T10:18:24.000Z</Time>
            <Position>
              <LatitudeDegrees>41.97164160199463367462158203125</LatitudeDegrees>
              <LongitudeDegrees>2.89658792316913604736328125</LongitudeDegrees>
            </Position>
            <AltitudeMeters>380.600006103515625</AltitudeMeters>
            <DistanceMeters>NAN</DistanceMeters>
          </Trackpoint>
          <Trackpoint>
            <Time>2020-02-15T10:18:25.000Z</Time>
            <Position>
              <LatitudeDegrees>41.9716708548367023468017578125</LatitudeDegrees>
              <LongitudeDegrees>2.89656554348766803741455078125</LongitudeDegrees>
            </Position>
            <AltitudeMeters>381</AltitudeMeters>
            <DistanceMeters>NAN</DistanceMeters>
          </Trackpoint>
          <Trackpoint>
            <Time>2020-02-15T10:18:27.000Z</Time>
            <Position>
              <LatitudeDegrees>41.97172542102634906768798828125</LatitudeDegrees>
              <LongitudeDegrees>2.89650821126997470855712890625</LongitudeDegrees>
            </Position>
            <AltitudeMeters>381.20001220703125</AltitudeMeters>
            <DistanceMeters>NAN</DistanceMeters>
          </Trackpoint>
          <Trackpoint>
            <Time>2020-02-15T10:18:28.000Z</Time>
            <Position>
              <LatitudeDegrees>41.97175056673586368560791015625</LatitudeDegrees>
              <LongitudeDegrees>2.896478958427906036376953125</LongitudeDegrees>
            </Position>
            <AltitudeMeters>381.399993896484375</AltitudeMeters>
            <DistanceMeters>NAN</DistanceMeters>
          </Trackpoint>
          <Trackpoint>
            <Time>2020-02-15T10:18:29.000Z</Time>
            <Position>
              <LatitudeDegrees>41.97177470661699771881103515625</LatitudeDegrees>
              <LongitudeDegrees>2.8964486159384250640869140625</LongitudeDegrees>
            </Position>
            <AltitudeMeters>381.399993896484375</AltitudeMeters>
            <DistanceMeters>NAN</DistanceMeters>
          </Trackpoint>
          <Trackpoint>
            <Time>2020-02-15T10:18:30.000Z</Time>
            <Position>
              <LatitudeDegrees>41.9717980921268463134765625</LatitudeDegrees>
              <LongitudeDegrees>2.89641785435378551483154296875</LongitudeDegrees>
            </Position>
            <AltitudeMeters>381.399993896484375</AltitudeMeters>
            <DistanceMeters>NAN</DistanceMeters>
          </Trackpoint>
          <Trackpoint>
            <Time>2020-02-15T10:18:31.000Z</Time>
            <Position>
              <LatitudeDegrees>41.97181996889412403106689453125</LatitudeDegrees>
              <LongitudeDegrees>2.8963859193027019500732421875</LongitudeDegrees>
            </Position>
            <AltitudeMeters>381.600006103515625</AltitudeMeters>
            <DistanceMeters>NAN</DistanceMeters>
          </Trackpoint>
          <Trackpoint>
            <Time>2020-02-15T10:18:32.000Z</Time>
            <Position>
              <LatitudeDegrees>41.9718398340046405792236328125</LatitudeDegrees>
              <LongitudeDegrees>2.896353900432586669921875</LongitudeDegrees>
            </Position>
            <AltitudeMeters>381.79998779296875</AltitudeMeters>
            <DistanceMeters>NAN</DistanceMeters>
          </Trackpoint>
          <Trackpoint>
            <Time>2020-02-15T10:18:33.000Z</Time>
            <Position>
              <LatitudeDegrees>41.971857436001300811767578125</LatitudeDegrees>
              <LongitudeDegrees>2.896321378648281097412109375</LongitudeDegrees>
            </Position>
            <AltitudeMeters>381.79998779296875</AltitudeMeters>
            <DistanceMeters>NAN</DistanceMeters>
          </Trackpoint>
          <Trackpoint>
            <Time>2020-02-15T10:18:34.000Z</Time>
            <Position>
              <LatitudeDegrees>41.97187193669378757476806640625</LatitudeDegrees>
              <LongitudeDegrees>2.89628910832107067108154296875</LongitudeDegrees>
            </Position>
            <AltitudeMeters>381.79998779296875</AltitudeMeters>
            <DistanceMeters>NAN</DistanceMeters>
          </Trackpoint>
          <Trackpoint>
            <Time>2020-02-15T10:18:35.000Z</Time>
            <Position>
              <LatitudeDegrees>41.97188467718660831451416015625</LatitudeDegrees>
              <LongitudeDegrees>2.89625625126063823699951171875</LongitudeDegrees>
            </Position>
            <AltitudeMeters>381.79998779296875</AltitudeMeters>
            <DistanceMeters>NAN</DistanceMeters>
          </Trackpoint>
          <Trackpoint>
            <Time>2020-02-15T10:18:36.000Z</Time>
            <Position>
              <LatitudeDegrees>41.97189657948911190032958984375</LatitudeDegrees>
              <LongitudeDegrees>2.8962229751050472259521484375</LongitudeDegrees>
            </Position>
            <AltitudeMeters>382</AltitudeMeters>
            <DistanceMeters>NAN</DistanceMeters>
          </Trackpoint>
          <Trackpoint>
            <Time>2020-02-15T10:18:37.000Z</Time>
            <Position>
              <LatitudeDegrees>41.97190680541098117828369140625</LatitudeDegrees>
              <LongitudeDegrees>2.89618835784494876861572265625</LongitudeDegrees>
            </Position>
            <AltitudeMeters>382</AltitudeMeters>
            <DistanceMeters>NAN</DistanceMeters>
          </Trackpoint>
          <Trackpoint>
            <Time>2020-02-15T10:18:38.000Z</Time>
            <Position>
              <LatitudeDegrees>41.9719161093235015869140625</LatitudeDegrees>
              <LongitudeDegrees>2.89615432731807231903076171875</LongitudeDegrees>
            </Position>
            <AltitudeMeters>382</AltitudeMeters>
            <DistanceMeters>NAN</DistanceMeters>
          </Trackpoint>
          <Trackpoint>
            <Time>2020-02-15T10:18:39.000Z</Time>
            <Position>
              <LatitudeDegrees>41.97192541323602199554443359375</LatitudeDegrees>
              <LongitudeDegrees>2.89612113498151302337646484375</LongitudeDegrees>
            </Position>
            <AltitudeMeters>382</AltitudeMeters>
            <DistanceMeters>NAN</DistanceMeters>
          </Trackpoint>
          <Trackpoint>
            <Time>2020-02-15T10:18:40.000Z</Time>
            <Position>
              <LatitudeDegrees>41.9719353877007961273193359375</LatitudeDegrees>
              <LongitudeDegrees>2.8960891999304294586181640625</LongitudeDegrees>
            </Position>
            <AltitudeMeters>382.20001220703125</AltitudeMeters>
            <DistanceMeters>NAN</DistanceMeters>
          </Trackpoint>
          <Trackpoint>
            <Time>2020-02-15T10:18:41.000Z</Time>
            <Position>
              <LatitudeDegrees>41.971943266689777374267578125</LatitudeDegrees>
              <LongitudeDegrees>2.89605550467967987060546875</LongitudeDegrees>
            </Position>
            <AltitudeMeters>382.20001220703125</AltitudeMeters>
            <DistanceMeters>NAN</DistanceMeters>
          </Trackpoint>
          <Trackpoint>
            <Time>2020-02-15T10:18:42.000Z</Time>
            <Position>
              <LatitudeDegrees>41.97195122949779033660888671875</LatitudeDegrees>
              <LongitudeDegrees>2.89602139033377170562744140625</LongitudeDegrees>
            </Position>
            <AltitudeMeters>382.20001220703125</AltitudeMeters>
            <DistanceMeters>NAN</DistanceMeters>
          </Trackpoint>
          <Trackpoint>
            <Time>2020-02-15T10:18:43.000Z</Time>
            <Position>
              <LatitudeDegrees>41.971962042152881622314453125</LatitudeDegrees>
              <LongitudeDegrees>2.89598417468369007110595703125</LongitudeDegrees>
            </Position>
            <AltitudeMeters>382.20001220703125</AltitudeMeters>
            <DistanceMeters>NAN</DistanceMeters>
          </Trackpoint>
          <Trackpoint>
            <Time>2020-02-15T10:18:44.000Z</Time>
            <Position>
              <LatitudeDegrees>41.97197419591248035430908203125</LatitudeDegrees>
              <LongitudeDegrees>2.89594612084329128265380859375</LongitudeDegrees>
            </Position>
            <AltitudeMeters>382.20001220703125</AltitudeMeters>
            <DistanceMeters>NAN</DistanceMeters>
          </Trackpoint>
          <Trackpoint>
            <Time>2020-02-15T10:18:45.000Z</Time>
            <Position>
              <LatitudeDegrees>41.97198710404336452484130859375</LatitudeDegrees>
              <LongitudeDegrees>2.89590940810739994049072265625</LongitudeDegrees>
            </Position>
            <AltitudeMeters>382.399993896484375</AltitudeMeters>
            <DistanceMeters>NAN</DistanceMeters>
          </Trackpoint>
          <Trackpoint>
            <Time>2020-02-15T10:18:46.000Z</Time>
            <Position>
              <LatitudeDegrees>41.9720014370977878570556640625</LatitudeDegrees>
              <LongitudeDegrees>2.895875461399555206298828125</LongitudeDegrees>
            </Position>
            <AltitudeMeters>382.600006103515625</AltitudeMeters>
            <DistanceMeters>NAN</DistanceMeters>
          </Trackpoint>
          <Trackpoint>
            <Time>2020-02-15T10:18:47.000Z</Time>
            <Position>
              <LatitudeDegrees>41.9720145128667354583740234375</LatitudeDegrees>
              <LongitudeDegrees>2.8958397544920444488525390625</LongitudeDegrees>
            </Position>
            <AltitudeMeters>382.79998779296875</AltitudeMeters>
            <DistanceMeters>NAN</DistanceMeters>
          </Trackpoint>
          <Trackpoint>
            <Time>2020-02-15T10:18:48.000Z</Time>
            <Position>
              <LatitudeDegrees>41.9720259122550487518310546875</LatitudeDegrees>
              <LongitudeDegrees>2.89580379612743854522705078125</LongitudeDegrees>
            </Position>
            <AltitudeMeters>383</AltitudeMeters>
            <DistanceMeters>NAN</DistanceMeters>
          </Trackpoint>
          <Trackpoint>
            <Time>2020-02-15T10:18:49.000Z</Time>
            <Position>
              <LatitudeDegrees>41.9720363058149814605712890625</LatitudeDegrees>
              <LongitudeDegrees>2.89576875977218151092529296875</LongitudeDegrees>
            </Position>
            <AltitudeMeters>383.399993896484375</AltitudeMeters>
            <DistanceMeters>NAN</DistanceMeters>
          </Trackpoint>
          <Trackpoint>
            <Time>2020-02-15T10:18:50.000Z</Time>
            <Position>
              <LatitudeDegrees>41.972046196460723876953125</LatitudeDegrees>
              <LongitudeDegrees>2.89573363959789276123046875</LongitudeDegrees>
            </Position>
            <AltitudeMeters>383.399993896484375</AltitudeMeters>
            <DistanceMeters>NAN</DistanceMeters>
          </Trackpoint>
          <Trackpoint>
            <Time>2020-02-15T10:18:51.000Z</Time>
            <Position>
              <LatitudeDegrees>41.97205625474452972412109375</LatitudeDegrees>
              <LongitudeDegrees>2.8956996090710163116455078125</LongitudeDegrees>
            </Position>
            <AltitudeMeters>383.600006103515625</AltitudeMeters>
            <DistanceMeters>NAN</DistanceMeters>
          </Trackpoint>
          <Trackpoint>
            <Time>2020-02-15T10:18:52.000Z</Time>
            <Position>
              <LatitudeDegrees>41.972066648304462432861328125</LatitudeDegrees>
              <LongitudeDegrees>2.89566750638186931610107421875</LongitudeDegrees>
            </Position>
            <AltitudeMeters>383.79998779296875</AltitudeMeters>
            <DistanceMeters>NAN</DistanceMeters>
          </Trackpoint>
          <Trackpoint>
            <Time>2020-02-15T10:18:53.000Z</Time>
            <Position>
              <LatitudeDegrees>41.97207637131214141845703125</LatitudeDegrees>
              <LongitudeDegrees>2.8956345655024051666259765625</LongitudeDegrees>
            </Position>
            <AltitudeMeters>384</AltitudeMeters>
            <DistanceMeters>NAN</DistanceMeters>
          </Trackpoint>
          <Trackpoint>
            <Time>2020-02-15T10:18:54.000Z</Time>
            <Position>
              <LatitudeDegrees>41.97208634577691555023193359375</LatitudeDegrees>
              <LongitudeDegrees>2.89560045115649700164794921875</LongitudeDegrees>
            </Position>
            <AltitudeMeters>384.20001220703125</AltitudeMeters>
            <DistanceMeters>NAN</DistanceMeters>
          </Trackpoint>
          <Trackpoint>
            <Time>2020-02-15T10:18:55.000Z</Time>
            <Position>
              <LatitudeDegrees>41.97209372185170650482177734375</LatitudeDegrees>
              <LongitudeDegrees>2.89556876756250858306884765625</LongitudeDegrees>
            </Position>
            <AltitudeMeters>384.20001220703125</AltitudeMeters>
            <DistanceMeters>NAN</DistanceMeters>
          </Trackpoint>
          <Trackpoint>
            <Time>2020-02-15T10:18:56.000Z</Time>
            <Position>
              <LatitudeDegrees>41.97210193611681461334228515625</LatitudeDegrees>
              <LongitudeDegrees>2.895536161959171295166015625</LongitudeDegrees>
            </Position>
            <AltitudeMeters>384.399993896484375</AltitudeMeters>
            <DistanceMeters>NAN</DistanceMeters>
          </Trackpoint>
          <Trackpoint>
            <Time>2020-02-15T10:18:57.000Z</Time>
            <Position>
              <LatitudeDegrees>41.97211283259093761444091796875</LatitudeDegrees>
              <LongitudeDegrees>2.89550489746034145355224609375</LongitudeDegrees>
            </Position>
            <AltitudeMeters>384.399993896484375</AltitudeMeters>
            <DistanceMeters>NAN</DistanceMeters>
          </Trackpoint>
          <Trackpoint>
            <Time>2020-02-15T10:18:58.000Z</Time>
            <Position>
              <LatitudeDegrees>41.97212574072182178497314453125</LatitudeDegrees>
              <LongitudeDegrees>2.89547254331409931182861328125</LongitudeDegrees>
            </Position>
            <AltitudeMeters>384.600006103515625</AltitudeMeters>
            <DistanceMeters>NAN</DistanceMeters>
          </Trackpoint>
          <Trackpoint>
            <Time>2020-02-15T10:18:59.000Z</Time>
            <Position>
              <LatitudeDegrees>41.9721392355859279632568359375</LatitudeDegrees>
              <LongitudeDegrees>2.8954421170055866241455078125</LongitudeDegrees>
            </Position>
            <AltitudeMeters>384.79998779296875</AltitudeMeters>
            <DistanceMeters>NAN</DistanceMeters>
          </Trackpoint>
          <Trackpoint>
            <Time>2020-02-15T10:19:00.000Z</Time>
            <Position>
              <LatitudeDegrees>41.9721519760787487030029296875</LatitudeDegrees>
              <LongitudeDegrees>2.895412780344486236572265625</LongitudeDegrees>
            </Position>
            <AltitudeMeters>385</AltitudeMeters>
            <DistanceMeters>NAN</DistanceMeters>
          </Trackpoint>
          <Trackpoint>
            <Time>2020-02-15T10:19:01.000Z</Time>
            <Position>
              <LatitudeDegrees>41.972165890038013458251953125</LatitudeDegrees>
              <LongitudeDegrees>2.89538495242595672607421875</LongitudeDegrees>
            </Position>
            <AltitudeMeters>385.20001220703125</AltitudeMeters>
            <DistanceMeters>NAN</DistanceMeters>
          </Trackpoint>
          <Trackpoint>
            <Time>2020-02-15T10:19:02.000Z</Time>
            <Position>
              <LatitudeDegrees>41.97218072600662708282470703125</LatitudeDegrees>
              <LongitudeDegrees>2.89535670541226863861083984375</LongitudeDegrees>
            </Position>
            <AltitudeMeters>385.399993896484375</AltitudeMeters>
            <DistanceMeters>NAN</DistanceMeters>
          </Trackpoint>
          <Trackpoint>
            <Time>2020-02-15T10:19:03.000Z</Time>
            <Position>
              <LatitudeDegrees>41.97219531051814556121826171875</LatitudeDegrees>
              <LongitudeDegrees>2.8953271172940731048583984375</LongitudeDegrees>
            </Position>
            <AltitudeMeters>385.79998779296875</AltitudeMeters>
            <DistanceMeters>NAN</DistanceMeters>
          </Trackpoint>
          <Trackpoint>
            <Time>2020-02-15T10:19:04.000Z</Time>
            <Position>
              <LatitudeDegrees>41.97220972739160060882568359375</LatitudeDegrees>
              <LongitudeDegrees>2.895297110080718994140625</LongitudeDegrees>
            </Position>
            <AltitudeMeters>385.79998779296875</AltitudeMeters>
            <DistanceMeters>NAN</DistanceMeters>
          </Trackpoint>
          <Trackpoint>
            <Time>2020-02-15T10:19:05.000Z</Time>
            <Position>
              <LatitudeDegrees>41.97222531773149967193603515625</LatitudeDegrees>
              <LongitudeDegrees>2.89526819251477718353271484375</LongitudeDegrees>
            </Position>
            <AltitudeMeters>386</AltitudeMeters>
            <DistanceMeters>NAN</DistanceMeters>
          </Trackpoint>
          <Trackpoint>
            <Time>2020-02-15T10:19:06.000Z</Time>
            <Position>
              <LatitudeDegrees>41.97224132716655731201171875</LatitudeDegrees>
              <LongitudeDegrees>2.8952379338443279266357421875</LongitudeDegrees>
            </Position>
            <AltitudeMeters>386.20001220703125</AltitudeMeters>
            <DistanceMeters>NAN</DistanceMeters>
          </Trackpoint>
          <Trackpoint>
            <Time>2020-02-15T10:19:07.000Z</Time>
            <Position>
              <LatitudeDegrees>41.972258426249027252197265625</LatitudeDegrees>
              <LongitudeDegrees>2.8952070884406566619873046875</LongitudeDegrees>
            </Position>
            <AltitudeMeters>386.20001220703125</AltitudeMeters>
            <DistanceMeters>NAN</DistanceMeters>
          </Trackpoint>
          <Trackpoint>
            <Time>2020-02-15T10:19:08.000Z</Time>
            <Position>
              <LatitudeDegrees>41.97227678261697292327880859375</LatitudeDegrees>
              <LongitudeDegrees>2.89517984725534915924072265625</LongitudeDegrees>
            </Position>
            <AltitudeMeters>386.399993896484375</AltitudeMeters>
            <DistanceMeters>NAN</DistanceMeters>
          </Trackpoint>
          <Trackpoint>
            <Time>2020-02-15T10:19:09.000Z</Time>
            <Position>
              <LatitudeDegrees>41.9722968153655529022216796875</LatitudeDegrees>
              <LongitudeDegrees>2.8951551206409931182861328125</LongitudeDegrees>
            </Position>
            <AltitudeMeters>386.600006103515625</AltitudeMeters>
            <DistanceMeters>NAN</DistanceMeters>
          </Trackpoint>
          <Trackpoint>
            <Time>2020-02-15T10:19:10.000Z</Time>
            <Position>
              <LatitudeDegrees>41.97231684811413288116455078125</LatitudeDegrees>
              <LongitudeDegrees>2.89513014256954193115234375</LongitudeDegrees>
            </Position>
            <AltitudeMeters>386.79998779296875</AltitudeMeters>
            <DistanceMeters>NAN</DistanceMeters>
          </Trackpoint>
          <Trackpoint>
            <Time>2020-02-15T10:19:11.000Z</Time>
            <Position>
              <LatitudeDegrees>41.97233797051012516021728515625</LatitudeDegrees>
              <LongitudeDegrees>2.8951051644980907440185546875</LongitudeDegrees>
            </Position>
            <AltitudeMeters>387.20001220703125</AltitudeMeters>
            <DistanceMeters>NAN</DistanceMeters>
          </Trackpoint>
          <Trackpoint>
            <Time>2020-02-15T10:19:12.000Z</Time>
            <Position>
              <LatitudeDegrees>41.97235993109643459320068359375</LatitudeDegrees>
              <LongitudeDegrees>2.89508228190243244171142578125</LongitudeDegrees>
            </Position>
            <AltitudeMeters>387.399993896484375</AltitudeMeters>
            <DistanceMeters>NAN</DistanceMeters>
          </Trackpoint>
          <Trackpoint>
            <Time>2020-02-15T10:19:13.000Z</Time>
            <Position>
              <LatitudeDegrees>41.97238105349242687225341796875</LatitudeDegrees>
              <LongitudeDegrees>2.8950639255344867706298828125</LongitudeDegrees>
            </Position>
            <AltitudeMeters>387.600006103515625</AltitudeMeters>
            <DistanceMeters>NAN</DistanceMeters>
          </Trackpoint>
          <Trackpoint>
            <Time>2020-02-15T10:19:14.000Z</Time>
            <Position>
              <LatitudeDegrees>41.97240117006003856658935546875</LatitudeDegrees>
              <LongitudeDegrees>2.89504707790911197662353515625</LongitudeDegrees>
            </Position>
            <AltitudeMeters>387.79998779296875</AltitudeMeters>
            <DistanceMeters>NAN</DistanceMeters>
          </Trackpoint>
          <Trackpoint>
            <Time>2020-02-15T10:19:15.000Z</Time>
            <Position>
              <LatitudeDegrees>41.97242396883666515350341796875</LatitudeDegrees>
              <LongitudeDegrees>2.89502964355051517486572265625</LongitudeDegrees>
            </Position>
            <AltitudeMeters>388</AltitudeMeters>
            <DistanceMeters>NAN</DistanceMeters>
          </Trackpoint>
          <Trackpoint>
            <Time>2020-02-15T10:19:16.000Z</Time>
            <Position>
              <LatitudeDegrees>41.97244877927005290985107421875</LatitudeDegrees>
              <LongitudeDegrees>2.89501472376286983489990234375</LongitudeDegrees>
            </Position>
            <AltitudeMeters>388.20001220703125</AltitudeMeters>
            <DistanceMeters>NAN</DistanceMeters>
          </Trackpoint>
          <Trackpoint>
            <Time>2020-02-15T10:19:17.000Z</Time>
            <Position>
              <LatitudeDegrees>41.972473002970218658447265625</LatitudeDegrees>
              <LongitudeDegrees>2.89500265382230281829833984375</LongitudeDegrees>
            </Position>
            <AltitudeMeters>388.399993896484375</AltitudeMeters>
            <DistanceMeters>NAN</DistanceMeters>
          </Trackpoint>
          <Trackpoint>
            <Time>2020-02-15T10:19:18.000Z</Time>
            <Position>
              <LatitudeDegrees>41.97249856777489185333251953125</LatitudeDegrees>
              <LongitudeDegrees>2.89499058388173580169677734375</LongitudeDegrees>
            </Position>
            <AltitudeMeters>388.399993896484375</AltitudeMeters>
            <DistanceMeters>NAN</DistanceMeters>
          </Trackpoint>
          <Trackpoint>
            <Time>2020-02-15T10:19:19.000Z</Time>
            <Position>
              <LatitudeDegrees>41.9725222885608673095703125</LatitudeDegrees>
              <LongitudeDegrees>2.8949791006743907928466796875</LongitudeDegrees>
            </Position>
            <AltitudeMeters>388.600006103515625</AltitudeMeters>
            <DistanceMeters>NAN</DistanceMeters>
          </Trackpoint>
          <Trackpoint>
            <Time>2020-02-15T10:19:20.000Z</Time>
            <Position>
              <LatitudeDegrees>41.9725455902516841888427734375</LatitudeDegrees>
              <LongitudeDegrees>2.89496979676187038421630859375</LongitudeDegrees>
            </Position>
            <AltitudeMeters>388.79998779296875</AltitudeMeters>
            <DistanceMeters>NAN</DistanceMeters>
          </Trackpoint>
          <Trackpoint>
            <Time>2020-02-15T10:19:21.000Z</Time>
            <Position>
              <LatitudeDegrees>41.97256864048540592193603515625</LatitudeDegrees>
              <LongitudeDegrees>2.89496116340160369873046875</LongitudeDegrees>
            </Position>
            <AltitudeMeters>388.79998779296875</AltitudeMeters>
            <DistanceMeters>NAN</DistanceMeters>
          </Trackpoint>
          <Trackpoint>
            <Time>2020-02-15T10:19:22.000Z</Time>
            <Position>
              <LatitudeDegrees>41.97259127162396907806396484375</LatitudeDegrees>
              <LongitudeDegrees>2.89495470933616161346435546875</LongitudeDegrees>
            </Position>
            <AltitudeMeters>389</AltitudeMeters>
            <DistanceMeters>NAN</DistanceMeters>
          </Trackpoint>
          <Trackpoint>
            <Time>2020-02-15T10:19:23.000Z</Time>
            <Position>
              <LatitudeDegrees>41.97261457331478595733642578125</LatitudeDegrees>
              <LongitudeDegrees>2.8949479199945926666259765625</LongitudeDegrees>
            </Position>
            <AltitudeMeters>389.600006103515625</AltitudeMeters>
            <DistanceMeters>NAN</DistanceMeters>
          </Trackpoint>
          <Trackpoint>
            <Time>2020-02-15T10:19:24.000Z</Time>
            <Position>
              <LatitudeDegrees>41.97263821028172969818115234375</LatitudeDegrees>
              <LongitudeDegrees>2.8949417173862457275390625</LongitudeDegrees>
            </Position>
            <AltitudeMeters>390</AltitudeMeters>
            <DistanceMeters>NAN</DistanceMeters>
          </Trackpoint>
          <Trackpoint>
            <Time>2020-02-15T10:19:25.000Z</Time>
            <Position>
              <LatitudeDegrees>41.97266017086803913116455078125</LatitudeDegrees>
              <LongitudeDegrees>2.89493660442531108856201171875</LongitudeDegrees>
            </Position>
            <AltitudeMeters>390</AltitudeMeters>
            <DistanceMeters>NAN</DistanceMeters>
          </Trackpoint>
          <Trackpoint>
            <Time>2020-02-15T10:19:26.000Z</Time>
            <Position>
              <LatitudeDegrees>41.9726854003965854644775390625</LatitudeDegrees>
              <LongitudeDegrees>2.894931994378566741943359375</LongitudeDegrees>
            </Position>
            <AltitudeMeters>390</AltitudeMeters>
            <DistanceMeters>NAN</DistanceMeters>
          </Trackpoint>
          <Trackpoint>
            <Time>2020-02-15T10:19:27.000Z</Time>
            <Position>
              <LatitudeDegrees>41.9727127254009246826171875</LatitudeDegrees>
              <LongitudeDegrees>2.894925959408283233642578125</LongitudeDegrees>
            </Position>
            <AltitudeMeters>390.399993896484375</AltitudeMeters>
            <DistanceMeters>NAN</DistanceMeters>
          </Trackpoint>
          <Trackpoint>
            <Time>2020-02-15T10:19:29.000Z</Time>
            <Position>
              <LatitudeDegrees>41.972765028476715087890625</LatitudeDegrees>
              <LongitudeDegrees>2.8949167393147945404052734375</LongitudeDegrees>
            </Position>
            <AltitudeMeters>390.79998779296875</AltitudeMeters>
            <DistanceMeters>NAN</DistanceMeters>
          </Trackpoint>
          <Trackpoint>
            <Time>2020-02-15T10:19:32.000Z</Time>
            <Position>
              <LatitudeDegrees>41.97284256108105182647705078125</LatitudeDegrees>
              <LongitudeDegrees>2.8949180804193019866943359375</LongitudeDegrees>
            </Position>
            <AltitudeMeters>391</AltitudeMeters>
            <DistanceMeters>NAN</DistanceMeters>
          </Trackpoint>
          <Trackpoint>
            <Time>2020-02-15T10:19:33.000Z</Time>
            <Position>
              <LatitudeDegrees>41.972870640456676483154296875</LatitudeDegrees>
              <LongitudeDegrees>2.89491883479058742523193359375</LongitudeDegrees>
            </Position>
            <AltitudeMeters>391.20001220703125</AltitudeMeters>
            <DistanceMeters>NAN</DistanceMeters>
          </Trackpoint>
          <Trackpoint>
            <Time>2020-02-15T10:19:36.000Z</Time>
            <Position>
              <LatitudeDegrees>41.972958482801914215087890625</LatitudeDegrees>
              <LongitudeDegrees>2.89493006654083728790283203125</LongitudeDegrees>
            </Position>
            <AltitudeMeters>391.399993896484375</AltitudeMeters>
            <DistanceMeters>NAN</DistanceMeters>
          </Trackpoint>
          <Trackpoint>
            <Time>2020-02-15T10:19:38.000Z</Time>
            <Position>
              <LatitudeDegrees>41.973018161952495574951171875</LatitudeDegrees>
              <LongitudeDegrees>2.8949576430022716522216796875</LongitudeDegrees>
            </Position>
            <AltitudeMeters>391.399993896484375</AltitudeMeters>
            <DistanceMeters>NAN</DistanceMeters>
          </Trackpoint>
          <Trackpoint>
            <Time>2020-02-15T10:19:39.000Z</Time>
            <Position>
              <LatitudeDegrees>41.97304355911910533905029296875</LatitudeDegrees>
              <LongitudeDegrees>2.894976921379566192626953125</LongitudeDegrees>
            </Position>
            <AltitudeMeters>391.399993896484375</AltitudeMeters>
            <DistanceMeters>NAN</DistanceMeters>
          </Trackpoint>
          <Trackpoint>
            <Time>2020-02-15T10:19:40.000Z</Time>
            <Position>
              <LatitudeDegrees>41.97306334041059017181396484375</LatitudeDegrees>
              <LongitudeDegrees>2.895001061260700225830078125</LongitudeDegrees>
            </Position>
            <AltitudeMeters>391.600006103515625</AltitudeMeters>
            <DistanceMeters>NAN</DistanceMeters>
          </Trackpoint>
          <Trackpoint>
            <Time>2020-02-15T10:19:41.000Z</Time>
            <Position>
              <LatitudeDegrees>41.97307884693145751953125</LatitudeDegrees>
              <LongitudeDegrees>2.89502612315118312835693359375</LongitudeDegrees>
            </Position>
            <AltitudeMeters>391.600006103515625</AltitudeMeters>
            <DistanceMeters>NAN</DistanceMeters>
          </Trackpoint>
          <Trackpoint>
            <Time>2020-02-15T10:19:42.000Z</Time>
            <Position>
              <LatitudeDegrees>41.97309292852878570556640625</LatitudeDegrees>
              <LongitudeDegrees>2.8950538672506809234619140625</LongitudeDegrees>
            </Position>
            <AltitudeMeters>391.79998779296875</AltitudeMeters>
            <DistanceMeters>NAN</DistanceMeters>
          </Trackpoint>
          <Trackpoint>
            <Time>2020-02-15T10:19:43.000Z</Time>
            <Position>
              <LatitudeDegrees>41.97310340590775012969970703125</LatitudeDegrees>
              <LongitudeDegrees>2.895088903605937957763671875</LongitudeDegrees>
            </Position>
            <AltitudeMeters>391.79998779296875</AltitudeMeters>
            <DistanceMeters>NAN</DistanceMeters>
          </Trackpoint>
          <Trackpoint>
            <Time>2020-02-15T10:19:44.000Z</Time>
            <Position>
              <LatitudeDegrees>41.9731096923351287841796875</LatitudeDegrees>
              <LongitudeDegrees>2.89512477815151214599609375</LongitudeDegrees>
            </Position>
            <AltitudeMeters>392</AltitudeMeters>
            <DistanceMeters>NAN</DistanceMeters>
          </Trackpoint>
          <Trackpoint>
            <Time>2020-02-15T10:19:45.000Z</Time>
            <Position>
              <LatitudeDegrees>41.97311245836317539215087890625</LatitudeDegrees>
              <LongitudeDegrees>2.8951608203351497650146484375</LongitudeDegrees>
            </Position>
            <AltitudeMeters>391.79998779296875</AltitudeMeters>
            <DistanceMeters>NAN</DistanceMeters>
          </Trackpoint>
          <Trackpoint>
            <Time>2020-02-15T10:19:46.000Z</Time>
            <Position>
              <LatitudeDegrees>41.97311413474380970001220703125</LatitudeDegrees>
              <LongitudeDegrees>2.89519912563264369964599609375</LongitudeDegrees>
            </Position>
            <AltitudeMeters>391.79998779296875</AltitudeMeters>
            <DistanceMeters>NAN</DistanceMeters>
          </Trackpoint>
          <Trackpoint>
            <Time>2020-02-15T10:19:50.000Z</Time>
            <Position>
              <LatitudeDegrees>41.97312285192310810089111328125</LatitudeDegrees>
              <LongitudeDegrees>2.89538218639791011810302734375</LongitudeDegrees>
            </Position>
            <AltitudeMeters>392.20001220703125</AltitudeMeters>
            <DistanceMeters>NAN</DistanceMeters>
          </Trackpoint>
          <Trackpoint>
            <Time>2020-02-15T10:19:51.000Z</Time>
            <Position>
              <LatitudeDegrees>41.97312721051275730133056640625</LatitudeDegrees>
              <LongitudeDegrees>2.89543063379824161529541015625</LongitudeDegrees>
            </Position>
            <AltitudeMeters>392.20001220703125</AltitudeMeters>
            <DistanceMeters>NAN</DistanceMeters>
          </Trackpoint>
          <Trackpoint>
            <Time>2020-02-15T10:19:52.000Z</Time>
            <Position>
              <LatitudeDegrees>41.97313307784497737884521484375</LatitudeDegrees>
              <LongitudeDegrees>2.89547706954181194305419921875</LongitudeDegrees>
            </Position>
            <AltitudeMeters>392</AltitudeMeters>
            <DistanceMeters>NAN</DistanceMeters>
          </Trackpoint>
          <Trackpoint>
            <Time>2020-02-15T10:19:53.000Z</Time>
            <Position>
              <LatitudeDegrees>41.97313911281526088714599609375</LatitudeDegrees>
              <LongitudeDegrees>2.89552534930408000946044921875</LongitudeDegrees>
            </Position>
            <AltitudeMeters>392.20001220703125</AltitudeMeters>
            <DistanceMeters>NAN</DistanceMeters>
          </Trackpoint>
          <Trackpoint>
            <Time>2020-02-15T10:19:54.000Z</Time>
            <Position>
              <LatitudeDegrees>41.97314665652811527252197265625</LatitudeDegrees>
              <LongitudeDegrees>2.89557128213346004486083984375</LongitudeDegrees>
            </Position>
            <AltitudeMeters>392.20001220703125</AltitudeMeters>
            <DistanceMeters>NAN</DistanceMeters>
          </Trackpoint>
          <Trackpoint>
            <Time>2020-02-15T10:19:55.000Z</Time>
            <Position>
              <LatitudeDegrees>41.97315386496484279632568359375</LatitudeDegrees>
              <LongitudeDegrees>2.89561570622026920318603515625</LongitudeDegrees>
            </Position>
            <AltitudeMeters>392.399993896484375</AltitudeMeters>
            <DistanceMeters>NAN</DistanceMeters>
          </Trackpoint>
          <Trackpoint>
            <Time>2020-02-15T10:19:56.000Z</Time>
            <Position>
              <LatitudeDegrees>41.97316392324864864349365234375</LatitudeDegrees>
              <LongitudeDegrees>2.8956587053835391998291015625</LongitudeDegrees>
            </Position>
            <AltitudeMeters>392.600006103515625</AltitudeMeters>
            <DistanceMeters>NAN</DistanceMeters>
          </Trackpoint>
          <Trackpoint>
            <Time>2020-02-15T10:19:57.000Z</Time>
            <Position>
              <LatitudeDegrees>41.97317766956984996795654296875</LatitudeDegrees>
              <LongitudeDegrees>2.8956965915858745574951171875</LongitudeDegrees>
            </Position>
            <AltitudeMeters>392.600006103515625</AltitudeMeters>
            <DistanceMeters>NAN</DistanceMeters>
          </Trackpoint>
          <Trackpoint>
            <Time>2020-02-15T10:19:58.000Z</Time>
            <Position>
              <LatitudeDegrees>41.973194517195224761962890625</LatitudeDegrees>
              <LongitudeDegrees>2.8957314603030681610107421875</LongitudeDegrees>
            </Position>
            <AltitudeMeters>392.600006103515625</AltitudeMeters>
            <DistanceMeters>NAN</DistanceMeters>
          </Trackpoint>
          <Trackpoint>
            <Time>2020-02-15T10:19:59.000Z</Time>
            <Position>
              <LatitudeDegrees>41.97321362793445587158203125</LatitudeDegrees>
              <LongitudeDegrees>2.89575736038386821746826171875</LongitudeDegrees>
            </Position>
            <AltitudeMeters>392.600006103515625</AltitudeMeters>
            <DistanceMeters>NAN</DistanceMeters>
          </Trackpoint>
          <Trackpoint>
            <Time>2020-02-15T10:20:00.000Z</Time>
            <Position>
              <LatitudeDegrees>41.97323516942560672760009765625</LatitudeDegrees>
              <LongitudeDegrees>2.89578082971274852752685546875</LongitudeDegrees>
            </Position>
            <AltitudeMeters>392.79998779296875</AltitudeMeters>
            <DistanceMeters>NAN</DistanceMeters>
          </Trackpoint>
          <Trackpoint>
            <Time>2020-02-15T10:20:01.000Z</Time>
            <Position>
              <LatitudeDegrees>41.97326333262026309967041015625</LatitudeDegrees>
              <LongitudeDegrees>2.8958001919090747833251953125</LongitudeDegrees>
            </Position>
            <AltitudeMeters>392.600006103515625</AltitudeMeters>
            <DistanceMeters>NAN</DistanceMeters>
          </Trackpoint>
          <Trackpoint>
            <Time>2020-02-15T10:20:02.000Z</Time>
            <Position>
              <LatitudeDegrees>41.97329409420490264892578125</LatitudeDegrees>
              <LongitudeDegrees>2.89581888355314731597900390625</LongitudeDegrees>
            </Position>
            <AltitudeMeters>392.79998779296875</AltitudeMeters>
            <DistanceMeters>NAN</DistanceMeters>
          </Trackpoint>
          <Trackpoint>
            <Time>2020-02-15T10:20:05.000Z</Time>
            <Position>
              <LatitudeDegrees>41.9733857922255992889404296875</LatitudeDegrees>
              <LongitudeDegrees>2.8958447836339473724365234375</LongitudeDegrees>
            </Position>
            <AltitudeMeters>393.20001220703125</AltitudeMeters>
            <DistanceMeters>NAN</DistanceMeters>
          </Trackpoint>
          <Trackpoint>
            <Time>2020-02-15T10:20:06.000Z</Time>
            <Position>
              <LatitudeDegrees>41.9734142906963825225830078125</LatitudeDegrees>
              <LongitudeDegrees>2.8958415985107421875</LongitudeDegrees>
            </Position>
            <AltitudeMeters>393.399993896484375</AltitudeMeters>
            <DistanceMeters>NAN</DistanceMeters>
          </Trackpoint>
          <Trackpoint>
            <Time>2020-02-15T10:20:07.000Z</Time>
            <Position>
              <LatitudeDegrees>41.97344890795648097991943359375</LatitudeDegrees>
              <LongitudeDegrees>2.8958320431411266326904296875</LongitudeDegrees>
            </Position>
            <AltitudeMeters>393.399993896484375</AltitudeMeters>
            <DistanceMeters>NAN</DistanceMeters>
          </Trackpoint>
          <Trackpoint>
            <Time>2020-02-15T10:20:08.000Z</Time>
            <Position>
              <LatitudeDegrees>41.9734863750636577606201171875</LatitudeDegrees>
              <LongitudeDegrees>2.89581687189638614654541015625</LongitudeDegrees>
            </Position>
            <AltitudeMeters>393.399993896484375</AltitudeMeters>
            <DistanceMeters>NAN</DistanceMeters>
          </Trackpoint>
          <Trackpoint>
            <Time>2020-02-15T10:20:09.000Z</Time>
            <Position>
              <LatitudeDegrees>41.973521746695041656494140625</LatitudeDegrees>
              <LongitudeDegrees>2.8958008624613285064697265625</LongitudeDegrees>
            </Position>
            <AltitudeMeters>393.399993896484375</AltitudeMeters>
            <DistanceMeters>NAN</DistanceMeters>
          </Trackpoint>
          <Trackpoint>
            <Time>2020-02-15T10:20:11.000Z</Time>
            <Position>
              <LatitudeDegrees>41.9735802523791790008544921875</LatitudeDegrees>
              <LongitudeDegrees>2.89575702510774135589599609375</LongitudeDegrees>
            </Position>
            <AltitudeMeters>393.600006103515625</AltitudeMeters>
            <DistanceMeters>NAN</DistanceMeters>
          </Trackpoint>
          <Trackpoint>
            <Time>2020-02-15T10:20:12.000Z</Time>
            <Position>
              <LatitudeDegrees>41.97360615245997905731201171875</LatitudeDegrees>
              <LongitudeDegrees>2.8957329690456390380859375</LongitudeDegrees>
            </Position>
            <AltitudeMeters>393.600006103515625</AltitudeMeters>
            <DistanceMeters>NAN</DistanceMeters>
          </Trackpoint>
          <Trackpoint>
            <Time>2020-02-15T10:20:13.000Z</Time>
            <Position>
              <LatitudeDegrees>41.97363364510238170623779296875</LatitudeDegrees>
              <LongitudeDegrees>2.89571159519255161285400390625</LongitudeDegrees>
            </Position>
            <AltitudeMeters>393.600006103515625</AltitudeMeters>
            <DistanceMeters>NAN</DistanceMeters>
          </Trackpoint>
          <Trackpoint>
            <Time>2020-02-15T10:20:15.000Z</Time>
            <Position>
              <LatitudeDegrees>41.9736945815384387969970703125</LatitudeDegrees>
              <LongitudeDegrees>2.895670942962169647216796875</LongitudeDegrees>
            </Position>
            <AltitudeMeters>393.79998779296875</AltitudeMeters>
            <DistanceMeters>NAN</DistanceMeters>
          </Trackpoint>
          <Trackpoint>
            <Time>2020-02-15T10:20:17.000Z</Time>
            <Position>
              <LatitudeDegrees>41.97375954128801822662353515625</LatitudeDegrees>
              <LongitudeDegrees>2.89562878198921680450439453125</LongitudeDegrees>
            </Position>
            <AltitudeMeters>393.600006103515625</AltitudeMeters>
            <DistanceMeters>NAN</DistanceMeters>
          </Trackpoint>
          <Trackpoint>
            <Time>2020-02-15T10:20:18.000Z</Time>
            <Position>
              <LatitudeDegrees>41.9737918116152286529541015625</LatitudeDegrees>
              <LongitudeDegrees>2.89560531266033649444580078125</LongitudeDegrees>
            </Position>
            <AltitudeMeters>393.79998779296875</AltitudeMeters>
            <DistanceMeters>NAN</DistanceMeters>
          </Trackpoint>
          <Trackpoint>
            <Time>2020-02-15T10:20:19.000Z</Time>
            <Position>
              <LatitudeDegrees>41.97382240556180477142333984375</LatitudeDegrees>
              <LongitudeDegrees>2.89557882584631443023681640625</LongitudeDegrees>
            </Position>
            <AltitudeMeters>393.79998779296875</AltitudeMeters>
            <DistanceMeters>NAN</DistanceMeters>
          </Trackpoint>
          <Trackpoint>
            <Time>2020-02-15T10:20:20.000Z</Time>
            <Position>
              <LatitudeDegrees>41.97385132312774658203125</LatitudeDegrees>
              <LongitudeDegrees>2.89554948918521404266357421875</LongitudeDegrees>
            </Position>
            <AltitudeMeters>394</AltitudeMeters>
            <DistanceMeters>NAN</DistanceMeters>
          </Trackpoint>
          <Trackpoint>
            <Time>2020-02-15T10:20:22.000Z</Time>
            <Position>
              <LatitudeDegrees>41.97390773333609104156494140625</LatitudeDegrees>
              <LongitudeDegrees>2.895487882196903228759765625</LongitudeDegrees>
            </Position>
            <AltitudeMeters>394.20001220703125</AltitudeMeters>
            <DistanceMeters>NAN</DistanceMeters>
          </Trackpoint>
          <Trackpoint>
            <Time>2020-02-15T10:20:23.000Z</Time>
            <Position>
              <LatitudeDegrees>41.97393455542623996734619140625</LatitudeDegrees>
              <LongitudeDegrees>2.8954555280506610870361328125</LongitudeDegrees>
            </Position>
            <AltitudeMeters>394.399993896484375</AltitudeMeters>
            <DistanceMeters>NAN</DistanceMeters>
          </Trackpoint>
          <Trackpoint>
            <Time>2020-02-15T10:20:27.000Z</Time>
            <Position>
              <LatitudeDegrees>41.9740375690162181854248046875</LatitudeDegrees>
              <LongitudeDegrees>2.8953252732753753662109375</LongitudeDegrees>
            </Position>
            <AltitudeMeters>394.600006103515625</AltitudeMeters>
            <DistanceMeters>NAN</DistanceMeters>
          </Trackpoint>
          <Trackpoint>
            <Time>2020-02-15T10:20:28.000Z</Time>
            <Position>
              <LatitudeDegrees>41.97406380437314510345458984375</LatitudeDegrees>
              <LongitudeDegrees>2.89529669098556041717529296875</LongitudeDegrees>
            </Position>
            <AltitudeMeters>394.600006103515625</AltitudeMeters>
            <DistanceMeters>NAN</DistanceMeters>
          </Trackpoint>
          <Trackpoint>
            <Time>2020-02-15T10:20:29.000Z</Time>
            <Position>
              <LatitudeDegrees>41.97408978827297687530517578125</LatitudeDegrees>
              <LongitudeDegrees>2.8952701203525066375732421875</LongitudeDegrees>
            </Position>
            <AltitudeMeters>394.79998779296875</AltitudeMeters>
            <DistanceMeters>NAN</DistanceMeters>
          </Trackpoint>
          <Trackpoint>
            <Time>2020-02-15T10:20:30.000Z</Time>
            <Position>
              <LatitudeDegrees>41.9741133414208889007568359375</LatitudeDegrees>
              <LongitudeDegrees>2.89523818530142307281494140625</LongitudeDegrees>
            </Position>
            <AltitudeMeters>394.79998779296875</AltitudeMeters>
            <DistanceMeters>NAN</DistanceMeters>
          </Trackpoint>
          <Trackpoint>
            <Time>2020-02-15T10:20:31.000Z</Time>
            <Position>
              <LatitudeDegrees>41.97413890622556209564208984375</LatitudeDegrees>
              <LongitudeDegrees>2.89520666934549808502197265625</LongitudeDegrees>
            </Position>
            <AltitudeMeters>395</AltitudeMeters>
            <DistanceMeters>NAN</DistanceMeters>
          </Trackpoint>
          <Trackpoint>
            <Time>2020-02-15T10:20:32.000Z</Time>
            <Position>
              <LatitudeDegrees>41.97416556067764759063720703125</LatitudeDegrees>
              <LongitudeDegrees>2.8951816074550151824951171875</LongitudeDegrees>
            </Position>
            <AltitudeMeters>395</AltitudeMeters>
            <DistanceMeters>NAN</DistanceMeters>
          </Trackpoint>
          <Trackpoint>
            <Time>2020-02-15T10:20:33.000Z</Time>
            <Position>
              <LatitudeDegrees>41.97419322095811367034912109375</LatitudeDegrees>
              <LongitudeDegrees>2.89516073651611804962158203125</LongitudeDegrees>
            </Position>
            <AltitudeMeters>395.20001220703125</AltitudeMeters>
            <DistanceMeters>NAN</DistanceMeters>
          </Trackpoint>
          <Trackpoint>
            <Time>2020-02-15T10:20:34.000Z</Time>
            <Position>
              <LatitudeDegrees>41.9742219708859920501708984375</LatitudeDegrees>
              <LongitudeDegrees>2.8951430507004261016845703125</LongitudeDegrees>
            </Position>
            <AltitudeMeters>395.20001220703125</AltitudeMeters>
            <DistanceMeters>NAN</DistanceMeters>
          </Trackpoint>
          <Trackpoint>
            <Time>2020-02-15T10:20:35.000Z</Time>
            <Position>
              <LatitudeDegrees>41.97425290010869503021240234375</LatitudeDegrees>
              <LongitudeDegrees>2.8951293043792247772216796875</LongitudeDegrees>
            </Position>
            <AltitudeMeters>395.20001220703125</AltitudeMeters>
            <DistanceMeters>NAN</DistanceMeters>
          </Trackpoint>
          <Trackpoint>
            <Time>2020-02-15T10:20:36.000Z</Time>
            <Position>
              <LatitudeDegrees>41.97428441606462001800537109375</LatitudeDegrees>
              <LongitudeDegrees>2.8951212577521800994873046875</LongitudeDegrees>
            </Position>
            <AltitudeMeters>395.399993896484375</AltitudeMeters>
            <DistanceMeters>NAN</DistanceMeters>
          </Trackpoint>
          <Trackpoint>
            <Time>2020-02-15T10:20:37.000Z</Time>
            <Position>
              <LatitudeDegrees>41.97431425563991069793701171875</LatitudeDegrees>
              <LongitudeDegrees>2.89511547423899173736572265625</LongitudeDegrees>
            </Position>
            <AltitudeMeters>395.399993896484375</AltitudeMeters>
            <DistanceMeters>NAN</DistanceMeters>
          </Trackpoint>
          <Trackpoint>
            <Time>2020-02-15T10:20:38.000Z</Time>
            <Position>
              <LatitudeDegrees>41.97434091009199619293212890625</LatitudeDegrees>
              <LongitudeDegrees>2.89512117393314838409423828125</LongitudeDegrees>
            </Position>
            <AltitudeMeters>395.600006103515625</AltitudeMeters>
            <DistanceMeters>NAN</DistanceMeters>
          </Trackpoint>
          <Trackpoint>
            <Time>2020-02-15T10:20:39.000Z</Time>
            <Position>
              <LatitudeDegrees>41.97436429560184478759765625</LatitudeDegrees>
              <LongitudeDegrees>2.89513927884399890899658203125</LongitudeDegrees>
            </Position>
            <AltitudeMeters>395.79998779296875</AltitudeMeters>
            <DistanceMeters>NAN</DistanceMeters>
          </Trackpoint>
          <Trackpoint>
            <Time>2020-02-15T10:20:40.000Z</Time>
            <Position>
              <LatitudeDegrees>41.97438114322721958160400390625</LatitudeDegrees>
              <LongitudeDegrees>2.8951614908874034881591796875</LongitudeDegrees>
            </Position>
            <AltitudeMeters>396.20001220703125</AltitudeMeters>
            <DistanceMeters>NAN</DistanceMeters>
          </Trackpoint>
          <Trackpoint>
            <Time>2020-02-15T10:20:41.000Z</Time>
            <Position>
              <LatitudeDegrees>41.9743939675390720367431640625</LatitudeDegrees>
              <LongitudeDegrees>2.89518705569207668304443359375</LongitudeDegrees>
            </Position>
            <AltitudeMeters>396.20001220703125</AltitudeMeters>
            <DistanceMeters>NAN</DistanceMeters>
          </Trackpoint>
          <Trackpoint>
            <Time>2020-02-15T10:20:42.000Z</Time>
            <Position>
              <LatitudeDegrees>41.9744103960692882537841796875</LatitudeDegrees>
              <LongitudeDegrees>2.8952178172767162322998046875</LongitudeDegrees>
            </Position>
            <AltitudeMeters>396.399993896484375</AltitudeMeters>
            <DistanceMeters>NAN</DistanceMeters>
          </Trackpoint>
          <Trackpoint>
            <Time>2020-02-15T10:20:43.000Z</Time>
            <Position>
              <LatitudeDegrees>41.974425651133060455322265625</LatitudeDegrees>
              <LongitudeDegrees>2.8952515125274658203125</LongitudeDegrees>
            </Position>
            <AltitudeMeters>396.600006103515625</AltitudeMeters>
            <DistanceMeters>NAN</DistanceMeters>
          </Trackpoint>
          <Trackpoint>
            <Time>2020-02-15T10:20:44.000Z</Time>
            <Position>
              <LatitudeDegrees>41.97443948127329349517822265625</LatitudeDegrees>
              <LongitudeDegrees>2.8952858783304691314697265625</LongitudeDegrees>
            </Position>
            <AltitudeMeters>396.600006103515625</AltitudeMeters>
            <DistanceMeters>NAN</DistanceMeters>
          </Trackpoint>
          <Trackpoint>
            <Time>2020-02-15T10:20:45.000Z</Time>
            <Position>
              <LatitudeDegrees>41.97445280849933624267578125</LatitudeDegrees>
              <LongitudeDegrees>2.8953224234282970428466796875</LongitudeDegrees>
            </Position>
            <AltitudeMeters>396.79998779296875</AltitudeMeters>
            <DistanceMeters>NAN</DistanceMeters>
          </Trackpoint>
          <Trackpoint>
            <Time>2020-02-15T10:20:46.000Z</Time>
            <Position>
              <LatitudeDegrees>41.97446353733539581298828125</LatitudeDegrees>
              <LongitudeDegrees>2.89535771124064922332763671875</LongitudeDegrees>
            </Position>
            <AltitudeMeters>396.79998779296875</AltitudeMeters>
            <DistanceMeters>NAN</DistanceMeters>
          </Trackpoint>
          <Trackpoint>
            <Time>2020-02-15T10:20:47.000Z</Time>
            <Position>
              <LatitudeDegrees>41.9744717516005039215087890625</LatitudeDegrees>
              <LongitudeDegrees>2.89538939483463764190673828125</LongitudeDegrees>
            </Position>
            <AltitudeMeters>397</AltitudeMeters>
            <DistanceMeters>NAN</DistanceMeters>
          </Trackpoint>
          <Trackpoint>
            <Time>2020-02-15T10:20:48.000Z</Time>
            <Position>
              <LatitudeDegrees>41.9744808040559291839599609375</LatitudeDegrees>
              <LongitudeDegrees>2.89541889913380146026611328125</LongitudeDegrees>
            </Position>
            <AltitudeMeters>397.20001220703125</AltitudeMeters>
            <DistanceMeters>NAN</DistanceMeters>
          </Trackpoint>
          <Trackpoint>
            <Time>2020-02-15T10:20:49.000Z</Time>
            <Position>
              <LatitudeDegrees>41.97448759339749813079833984375</LatitudeDegrees>
              <LongitudeDegrees>2.8954478166997432708740234375</LongitudeDegrees>
            </Position>
            <AltitudeMeters>397.20001220703125</AltitudeMeters>
            <DistanceMeters>NAN</DistanceMeters>
          </Trackpoint>
          <Trackpoint>
            <Time>2020-02-15T10:20:50.000Z</Time>
            <Position>
              <LatitudeDegrees>41.97449111379683017730712890625</LatitudeDegrees>
              <LongitudeDegrees>2.8954776562750339508056640625</LongitudeDegrees>
            </Position>
            <AltitudeMeters>397.600006103515625</AltitudeMeters>
            <DistanceMeters>NAN</DistanceMeters>
          </Trackpoint>
          <Trackpoint>
            <Time>2020-02-15T10:20:51.000Z</Time>
            <Position>
              <LatitudeDegrees>41.97449480183422565460205078125</LatitudeDegrees>
              <LongitudeDegrees>2.89550757966935634613037109375</LongitudeDegrees>
            </Position>
            <AltitudeMeters>397.399993896484375</AltitudeMeters>
            <DistanceMeters>NAN</DistanceMeters>
          </Trackpoint>
          <Trackpoint>
            <Time>2020-02-15T10:20:52.000Z</Time>
            <Position>
              <LatitudeDegrees>41.974503099918365478515625</LatitudeDegrees>
              <LongitudeDegrees>2.8955398499965667724609375</LongitudeDegrees>
            </Position>
            <AltitudeMeters>397.79998779296875</AltitudeMeters>
            <DistanceMeters>NAN</DistanceMeters>
          </Trackpoint>
          <Trackpoint>
            <Time>2020-02-15T10:20:53.000Z</Time>
            <Position>
              <LatitudeDegrees>41.974513493478298187255859375</LatitudeDegrees>
              <LongitudeDegrees>2.8955720365047454833984375</LongitudeDegrees>
            </Position>
            <AltitudeMeters>398.399993896484375</AltitudeMeters>
            <DistanceMeters>NAN</DistanceMeters>
          </Trackpoint>
          <Trackpoint>
            <Time>2020-02-15T10:20:54.000Z</Time>
            <Position>
              <LatitudeDegrees>41.97452212683856487274169921875</LatitudeDegrees>
              <LongitudeDegrees>2.8956074081361293792724609375</LongitudeDegrees>
            </Position>
            <AltitudeMeters>398.600006103515625</AltitudeMeters>
            <DistanceMeters>NAN</DistanceMeters>
          </Trackpoint>
          <Trackpoint>
            <Time>2020-02-15T10:20:55.000Z</Time>
            <Position>
              <LatitudeDegrees>41.974527575075626373291015625</LatitudeDegrees>
              <LongitudeDegrees>2.895644791424274444580078125</LongitudeDegrees>
            </Position>
            <AltitudeMeters>399</AltitudeMeters>
            <DistanceMeters>NAN</DistanceMeters>
          </Trackpoint>
          <Trackpoint>
            <Time>2020-02-15T10:20:56.000Z</Time>
            <Position>
              <LatitudeDegrees>41.97452799417078495025634765625</LatitudeDegrees>
              <LongitudeDegrees>2.89568460546433925628662109375</LongitudeDegrees>
            </Position>
            <AltitudeMeters>399.20001220703125</AltitudeMeters>
            <DistanceMeters>NAN</DistanceMeters>
          </Trackpoint>
          <Trackpoint>
            <Time>2020-02-15T10:20:57.000Z</Time>
            <Position>
              <LatitudeDegrees>41.97452581487596035003662109375</LatitudeDegrees>
              <LongitudeDegrees>2.89572668261826038360595703125</LongitudeDegrees>
            </Position>
            <AltitudeMeters>399.20001220703125</AltitudeMeters>
            <DistanceMeters>NAN</DistanceMeters>
          </Trackpoint>
          <Trackpoint>
            <Time>2020-02-15T10:21:00.000Z</Time>
            <Position>
              <LatitudeDegrees>41.9745071232318878173828125</LatitudeDegrees>
              <LongitudeDegrees>2.8958424367010593414306640625</LongitudeDegrees>
            </Position>
            <AltitudeMeters>399.399993896484375</AltitudeMeters>
            <DistanceMeters>NAN</DistanceMeters>
          </Trackpoint>
          <Trackpoint>
            <Time>2020-02-15T10:21:01.000Z</Time>
            <Position>
              <LatitudeDegrees>41.9744945503771305084228515625</LatitudeDegrees>
              <LongitudeDegrees>2.8958732821047306060791015625</LongitudeDegrees>
            </Position>
            <AltitudeMeters>399.600006103515625</AltitudeMeters>
            <DistanceMeters>NAN</DistanceMeters>
          </Trackpoint>
          <Trackpoint>
            <Time>2020-02-15T10:21:02.000Z</Time>
            <Position>
              <LatitudeDegrees>41.9744818098843097686767578125</LatitudeDegrees>
              <LongitudeDegrees>2.895908989012241363525390625</LongitudeDegrees>
            </Position>
            <AltitudeMeters>399.600006103515625</AltitudeMeters>
            <DistanceMeters>NAN</DistanceMeters>
          </Trackpoint>
          <Trackpoint>
            <Time>2020-02-15T10:21:03.000Z</Time>
            <Position>
              <LatitudeDegrees>41.97446865029633045196533203125</LatitudeDegrees>
              <LongitudeDegrees>2.89594494737684726715087890625</LongitudeDegrees>
            </Position>
            <AltitudeMeters>399.600006103515625</AltitudeMeters>
            <DistanceMeters>NAN</DistanceMeters>
          </Trackpoint>
          <Trackpoint>
            <Time>2020-02-15T10:21:04.000Z</Time>
            <Position>
              <LatitudeDegrees>41.9744519703090190887451171875</LatitudeDegrees>
              <LongitudeDegrees>2.89597830735146999359130859375</LongitudeDegrees>
            </Position>
            <AltitudeMeters>399.600006103515625</AltitudeMeters>
            <DistanceMeters>NAN</DistanceMeters>
          </Trackpoint>
          <Trackpoint>
            <Time>2020-02-15T10:21:05.000Z</Time>
            <Position>
              <LatitudeDegrees>41.974438391625881195068359375</LatitudeDegrees>
              <LongitudeDegrees>2.89601267315447330474853515625</LongitudeDegrees>
            </Position>
            <AltitudeMeters>399.79998779296875</AltitudeMeters>
            <DistanceMeters>NAN</DistanceMeters>
          </Trackpoint>
          <Trackpoint>
            <Time>2020-02-15T10:21:06.000Z</Time>
            <Position>
              <LatitudeDegrees>41.97442657314240932464599609375</LatitudeDegrees>
              <LongitudeDegrees>2.89604955352842807769775390625</LongitudeDegrees>
            </Position>
            <AltitudeMeters>399.79998779296875</AltitudeMeters>
            <DistanceMeters>NAN</DistanceMeters>
          </Trackpoint>
          <Trackpoint>
            <Time>2020-02-15T10:21:07.000Z</Time>
            <Position>
              <LatitudeDegrees>41.9744154252111911773681640625</LatitudeDegrees>
              <LongitudeDegrees>2.8960898704826831817626953125</LongitudeDegrees>
            </Position>
            <AltitudeMeters>399.79998779296875</AltitudeMeters>
            <DistanceMeters>NAN</DistanceMeters>
          </Trackpoint>
          <Trackpoint>
            <Time>2020-02-15T10:21:09.000Z</Time>
            <Position>
              <LatitudeDegrees>41.974395811557769775390625</LatitudeDegrees>
              <LongitudeDegrees>2.89617058821022510528564453125</LongitudeDegrees>
            </Position>
            <AltitudeMeters>399.79998779296875</AltitudeMeters>
            <DistanceMeters>NAN</DistanceMeters>
          </Trackpoint>
          <Trackpoint>
            <Time>2020-02-15T10:21:10.000Z</Time>
            <Position>
              <LatitudeDegrees>41.97438843548297882080078125</LatitudeDegrees>
              <LongitudeDegrees>2.896209061145782470703125</LongitudeDegrees>
            </Position>
            <AltitudeMeters>399.79998779296875</AltitudeMeters>
            <DistanceMeters>NAN</DistanceMeters>
          </Trackpoint>
          <Trackpoint>
            <Time>2020-02-15T10:21:11.000Z</Time>
            <Position>
              <LatitudeDegrees>41.974383406341075897216796875</LatitudeDegrees>
              <LongitudeDegrees>2.8962508030235767364501953125</LongitudeDegrees>
            </Position>
            <AltitudeMeters>399.79998779296875</AltitudeMeters>
            <DistanceMeters>NAN</DistanceMeters>
          </Trackpoint>
          <Trackpoint>
            <Time>2020-02-15T10:21:12.000Z</Time>
            <Position>
              <LatitudeDegrees>41.974374018609523773193359375</LatitudeDegrees>
              <LongitudeDegrees>2.89629556238651275634765625</LongitudeDegrees>
            </Position>
            <AltitudeMeters>399.79998779296875</AltitudeMeters>
            <DistanceMeters>NAN</DistanceMeters>
          </Trackpoint>
          <Trackpoint>
            <Time>2020-02-15T10:21:13.000Z</Time>
            <Position>
              <LatitudeDegrees>41.97436303831636905670166015625</LatitudeDegrees>
              <LongitudeDegrees>2.89633872918784618377685546875</LongitudeDegrees>
            </Position>
            <AltitudeMeters>400</AltitudeMeters>
            <DistanceMeters>NAN</DistanceMeters>
          </Trackpoint>
          <Trackpoint>
            <Time>2020-02-15T10:21:14.000Z</Time>
            <Position>
              <LatitudeDegrees>41.9743570871651172637939453125</LatitudeDegrees>
              <LongitudeDegrees>2.8963805548846721649169921875</LongitudeDegrees>
            </Position>
            <AltitudeMeters>400</AltitudeMeters>
            <DistanceMeters>NAN</DistanceMeters>
          </Trackpoint>
          <Trackpoint>
            <Time>2020-02-15T10:21:15.000Z</Time>
            <Position>
              <LatitudeDegrees>41.97435733862221240997314453125</LatitudeDegrees>
              <LongitudeDegrees>2.8964244760572910308837890625</LongitudeDegrees>
            </Position>
            <AltitudeMeters>400</AltitudeMeters>
            <DistanceMeters>NAN</DistanceMeters>
          </Trackpoint>
          <Trackpoint>
            <Time>2020-02-15T10:21:16.000Z</Time>
            <Position>
              <LatitudeDegrees>41.9743607752025127410888671875</LatitudeDegrees>
              <LongitudeDegrees>2.89646797813475131988525390625</LongitudeDegrees>
            </Position>
            <AltitudeMeters>400</AltitudeMeters>
            <DistanceMeters>NAN</DistanceMeters>
          </Trackpoint>
          <Trackpoint>
            <Time>2020-02-15T10:21:17.000Z</Time>
            <Position>
              <LatitudeDegrees>41.97437561117112636566162109375</LatitudeDegrees>
              <LongitudeDegrees>2.89651013910770416259765625</LongitudeDegrees>
            </Position>
            <AltitudeMeters>400.20001220703125</AltitudeMeters>
            <DistanceMeters>NAN</DistanceMeters>
          </Trackpoint>
          <Trackpoint>
            <Time>2020-02-15T10:21:18.000Z</Time>
            <Position>
              <LatitudeDegrees>41.97439379990100860595703125</LatitudeDegrees>
              <LongitudeDegrees>2.8965510427951812744140625</LongitudeDegrees>
            </Position>
            <AltitudeMeters>400.399993896484375</AltitudeMeters>
            <DistanceMeters>NAN</DistanceMeters>
          </Trackpoint>
          <Trackpoint>
            <Time>2020-02-15T10:21:19.000Z</Time>
            <Position>
              <LatitudeDegrees>41.97441969998180866241455078125</LatitudeDegrees>
              <LongitudeDegrees>2.89658524096012115478515625</LongitudeDegrees>
            </Position>
            <AltitudeMeters>400.20001220703125</AltitudeMeters>
            <DistanceMeters>NAN</DistanceMeters>
          </Trackpoint>
          <Trackpoint>
            <Time>2020-02-15T10:21:20.000Z</Time>
            <Position>
              <LatitudeDegrees>41.9744512997567653656005859375</LatitudeDegrees>
              <LongitudeDegrees>2.8966127336025238037109375</LongitudeDegrees>
            </Position>
            <AltitudeMeters>400.399993896484375</AltitudeMeters>
            <DistanceMeters>NAN</DistanceMeters>
          </Trackpoint>
          <Trackpoint>
            <Time>2020-02-15T10:21:21.000Z</Time>
            <Position>
              <LatitudeDegrees>41.97448641993105411529541015625</LatitudeDegrees>
              <LongitudeDegrees>2.89663075469434261322021484375</LongitudeDegrees>
            </Position>
            <AltitudeMeters>400.600006103515625</AltitudeMeters>
            <DistanceMeters>NAN</DistanceMeters>
          </Trackpoint>
          <Trackpoint>
            <Time>2020-02-15T10:21:22.000Z</Time>
            <Position>
              <LatitudeDegrees>41.9745217077434062957763671875</LatitudeDegrees>
              <LongitudeDegrees>2.89663963951170444488525390625</LongitudeDegrees>
            </Position>
            <AltitudeMeters>400.399993896484375</AltitudeMeters>
            <DistanceMeters>NAN</DistanceMeters>
          </Trackpoint>
          <Trackpoint>
            <Time>2020-02-15T10:21:23.000Z</Time>
            <Position>
              <LatitudeDegrees>41.97455330751836299896240234375</LatitudeDegrees>
              <LongitudeDegrees>2.8966390527784824371337890625</LongitudeDegrees>
            </Position>
            <AltitudeMeters>400.600006103515625</AltitudeMeters>
            <DistanceMeters>NAN</DistanceMeters>
          </Trackpoint>
          <Trackpoint>
            <Time>2020-02-15T10:21:24.000Z</Time>
            <Position>
              <LatitudeDegrees>41.974585913121700286865234375</LatitudeDegrees>
              <LongitudeDegrees>2.89662991650402545928955078125</LongitudeDegrees>
            </Position>
            <AltitudeMeters>400.79998779296875</AltitudeMeters>
            <DistanceMeters>NAN</DistanceMeters>
          </Trackpoint>
          <Trackpoint>
            <Time>2020-02-15T10:21:25.000Z</Time>
            <Position>
              <LatitudeDegrees>41.97461776435375213623046875</LatitudeDegrees>
              <LongitudeDegrees>2.8966135717928409576416015625</LongitudeDegrees>
            </Position>
            <AltitudeMeters>400.79998779296875</AltitudeMeters>
            <DistanceMeters>NAN</DistanceMeters>
          </Trackpoint>
          <Trackpoint>
            <Time>2020-02-15T10:21:26.000Z</Time>
            <Position>
              <LatitudeDegrees>41.974650956690311431884765625</LatitudeDegrees>
              <LongitudeDegrees>2.8965937905013561248779296875</LongitudeDegrees>
            </Position>
            <AltitudeMeters>401</AltitudeMeters>
            <DistanceMeters>NAN</DistanceMeters>
          </Trackpoint>
          <Trackpoint>
            <Time>2020-02-15T10:21:27.000Z</Time>
            <Position>
              <LatitudeDegrees>41.974682472646236419677734375</LatitudeDegrees>
              <LongitudeDegrees>2.8965756855905055999755859375</LongitudeDegrees>
            </Position>
            <AltitudeMeters>401</AltitudeMeters>
            <DistanceMeters>NAN</DistanceMeters>
          </Trackpoint>
          <Trackpoint>
            <Time>2020-02-15T10:21:28.000Z</Time>
            <Position>
              <LatitudeDegrees>41.97470988146960735321044921875</LatitudeDegrees>
              <LongitudeDegrees>2.89655967615544795989990234375</LongitudeDegrees>
            </Position>
            <AltitudeMeters>401.20001220703125</AltitudeMeters>
            <DistanceMeters>NAN</DistanceMeters>
          </Trackpoint>
          <Trackpoint>
            <Time>2020-02-15T10:21:29.000Z</Time>
            <Position>
              <LatitudeDegrees>41.974734105169773101806640625</LatitudeDegrees>
              <LongitudeDegrees>2.89654559455811977386474609375</LongitudeDegrees>
            </Position>
            <AltitudeMeters>401.20001220703125</AltitudeMeters>
            <DistanceMeters>NAN</DistanceMeters>
          </Trackpoint>
          <Trackpoint>
            <Time>2020-02-15T10:21:30.000Z</Time>
            <Position>
              <LatitudeDegrees>41.97475883178412914276123046875</LatitudeDegrees>
              <LongitudeDegrees>2.89653436280786991119384765625</LongitudeDegrees>
            </Position>
            <AltitudeMeters>401.20001220703125</AltitudeMeters>
            <DistanceMeters>NAN</DistanceMeters>
          </Trackpoint>
          <Trackpoint>
            <Time>2020-02-15T10:21:31.000Z</Time>
            <Position>
              <LatitudeDegrees>41.97478280402719974517822265625</LatitudeDegrees>
              <LongitudeDegrees>2.89652178995311260223388671875</LongitudeDegrees>
            </Position>
            <AltitudeMeters>401.399993896484375</AltitudeMeters>
            <DistanceMeters>NAN</DistanceMeters>
          </Trackpoint>
          <Trackpoint>
            <Time>2020-02-15T10:21:32.000Z</Time>
            <Position>
              <LatitudeDegrees>41.97480342350900173187255859375</LatitudeDegrees>
              <LongitudeDegrees>2.8965108096599578857421875</LongitudeDegrees>
            </Position>
            <AltitudeMeters>401.600006103515625</AltitudeMeters>
            <DistanceMeters>NAN</DistanceMeters>
          </Trackpoint>
          <Trackpoint>
            <Time>2020-02-15T10:21:33.000Z</Time>
            <Position>
              <LatitudeDegrees>41.97482555173337459564208984375</LatitudeDegrees>
              <LongitudeDegrees>2.89650083519518375396728515625</LongitudeDegrees>
            </Position>
            <AltitudeMeters>401.600006103515625</AltitudeMeters>
            <DistanceMeters>NAN</DistanceMeters>
          </Trackpoint>
          <Trackpoint>
            <Time>2020-02-15T10:21:34.000Z</Time>
            <Position>
              <LatitudeDegrees>41.9748472608625888824462890625</LatitudeDegrees>
              <LongitudeDegrees>2.89648868143558502197265625</LongitudeDegrees>
            </Position>
            <AltitudeMeters>401.79998779296875</AltitudeMeters>
            <DistanceMeters>NAN</DistanceMeters>
          </Trackpoint>
          <Trackpoint>
            <Time>2020-02-15T10:21:35.000Z</Time>
            <Position>
              <LatitudeDegrees>41.9748690538108348846435546875</LatitudeDegrees>
              <LongitudeDegrees>2.89647904224693775177001953125</LongitudeDegrees>
            </Position>
            <AltitudeMeters>401.79998779296875</AltitudeMeters>
            <DistanceMeters>NAN</DistanceMeters>
          </Trackpoint>
          <Trackpoint>
            <Time>2020-02-15T10:21:36.000Z</Time>
            <Position>
              <LatitudeDegrees>41.97489176876842975616455078125</LatitudeDegrees>
              <LongitudeDegrees>2.89646630175411701202392578125</LongitudeDegrees>
            </Position>
            <AltitudeMeters>401.79998779296875</AltitudeMeters>
            <DistanceMeters>NAN</DistanceMeters>
          </Trackpoint>
          <Trackpoint>
            <Time>2020-02-15T10:21:37.000Z</Time>
            <Position>
              <LatitudeDegrees>41.97491624392569065093994140625</LatitudeDegrees>
              <LongitudeDegrees>2.89645255543291568756103515625</LongitudeDegrees>
            </Position>
            <AltitudeMeters>402</AltitudeMeters>
            <DistanceMeters>NAN</DistanceMeters>
          </Trackpoint>
          <Trackpoint>
            <Time>2020-02-15T10:21:38.000Z</Time>
            <Position>
              <LatitudeDegrees>41.9749428145587444305419921875</LatitudeDegrees>
              <LongitudeDegrees>2.89643746800720691680908203125</LongitudeDegrees>
            </Position>
            <AltitudeMeters>402.20001220703125</AltitudeMeters>
            <DistanceMeters>NAN</DistanceMeters>
          </Trackpoint>
          <Trackpoint>
            <Time>2020-02-15T10:21:39.000Z</Time>
            <Position>
              <LatitudeDegrees>41.97496712207794189453125</LatitudeDegrees>
              <LongitudeDegrees>2.896423302590847015380859375</LongitudeDegrees>
            </Position>
            <AltitudeMeters>402.20001220703125</AltitudeMeters>
            <DistanceMeters>NAN</DistanceMeters>
          </Trackpoint>
          <Trackpoint>
            <Time>2020-02-15T10:21:40.000Z</Time>
            <Position>
              <LatitudeDegrees>41.97498983703553676605224609375</LatitudeDegrees>
              <LongitudeDegrees>2.89641215465962886810302734375</LongitudeDegrees>
            </Position>
            <AltitudeMeters>402.600006103515625</AltitudeMeters>
            <DistanceMeters>NAN</DistanceMeters>
          </Trackpoint>
          <Trackpoint>
            <Time>2020-02-15T10:21:41.000Z</Time>
            <Position>
              <LatitudeDegrees>41.9750159047544002532958984375</LatitudeDegrees>
              <LongitudeDegrees>2.89640150964260101318359375</LongitudeDegrees>
            </Position>
            <AltitudeMeters>402.600006103515625</AltitudeMeters>
            <DistanceMeters>NAN</DistanceMeters>
          </Trackpoint>
          <Trackpoint>
            <Time>2020-02-15T10:21:42.000Z</Time>
            <Position>
              <LatitudeDegrees>41.9750410504639148712158203125</LatitudeDegrees>
              <LongitudeDegrees>2.89639153517782688140869140625</LongitudeDegrees>
            </Position>
            <AltitudeMeters>402.600006103515625</AltitudeMeters>
            <DistanceMeters>NAN</DistanceMeters>
          </Trackpoint>
          <Trackpoint>
            <Time>2020-02-15T10:21:43.000Z</Time>
            <Position>
              <LatitudeDegrees>41.97506460361182689666748046875</LatitudeDegrees>
              <LongitudeDegrees>2.896379716694355010986328125</LongitudeDegrees>
            </Position>
            <AltitudeMeters>402.79998779296875</AltitudeMeters>
            <DistanceMeters>NAN</DistanceMeters>
          </Trackpoint>
          <Trackpoint>
            <Time>2020-02-15T10:21:44.000Z</Time>
            <Position>
              <LatitudeDegrees>41.97508689947426319122314453125</LatitudeDegrees>
              <LongitudeDegrees>2.89636856876313686370849609375</LongitudeDegrees>
            </Position>
            <AltitudeMeters>403</AltitudeMeters>
            <DistanceMeters>NAN</DistanceMeters>
          </Trackpoint>
          <Trackpoint>
            <Time>2020-02-15T10:21:45.000Z</Time>
            <Position>
              <LatitudeDegrees>41.97511103935539722442626953125</LatitudeDegrees>
              <LongitudeDegrees>2.89635901339352130889892578125</LongitudeDegrees>
            </Position>
            <AltitudeMeters>403.20001220703125</AltitudeMeters>
            <DistanceMeters>NAN</DistanceMeters>
          </Trackpoint>
          <Trackpoint>
            <Time>2020-02-15T10:21:46.000Z</Time>
            <Position>
              <LatitudeDegrees>41.97514004074037075042724609375</LatitudeDegrees>
              <LongitudeDegrees>2.89634476415812969207763671875</LongitudeDegrees>
            </Position>
            <AltitudeMeters>403.399993896484375</AltitudeMeters>
            <DistanceMeters>NAN</DistanceMeters>
          </Trackpoint>
          <Trackpoint>
            <Time>2020-02-15T10:21:47.000Z</Time>
            <Position>
              <LatitudeDegrees>41.9751687906682491302490234375</LatitudeDegrees>
              <LongitudeDegrees>2.89633118547499179840087890625</LongitudeDegrees>
            </Position>
            <AltitudeMeters>403.399993896484375</AltitudeMeters>
            <DistanceMeters>NAN</DistanceMeters>
          </Trackpoint>
          <Trackpoint>
            <Time>2020-02-15T10:21:48.000Z</Time>
            <Position>
              <LatitudeDegrees>41.9751936011016368865966796875</LatitudeDegrees>
              <LongitudeDegrees>2.89631836116313934326171875</LongitudeDegrees>
            </Position>
            <AltitudeMeters>403.600006103515625</AltitudeMeters>
            <DistanceMeters>NAN</DistanceMeters>
          </Trackpoint>
          <Trackpoint>
            <Time>2020-02-15T10:21:49.000Z</Time>
            <Position>
              <LatitudeDegrees>41.9752187468111515045166015625</LatitudeDegrees>
              <LongitudeDegrees>2.89630754850804805755615234375</LongitudeDegrees>
            </Position>
            <AltitudeMeters>403.600006103515625</AltitudeMeters>
            <DistanceMeters>NAN</DistanceMeters>
          </Trackpoint>
          <Trackpoint>
            <Time>2020-02-15T10:21:50.000Z</Time>
            <Position>
              <LatitudeDegrees>41.975245736539363861083984375</LatitudeDegrees>
              <LongitudeDegrees>2.89629749022424221038818359375</LongitudeDegrees>
            </Position>
            <AltitudeMeters>404</AltitudeMeters>
            <DistanceMeters>NAN</DistanceMeters>
          </Trackpoint>
          <Trackpoint>
            <Time>2020-02-15T10:21:51.000Z</Time>
            <Position>
              <LatitudeDegrees>41.97527281008660793304443359375</LatitudeDegrees>
              <LongitudeDegrees>2.89628575555980205535888671875</LongitudeDegrees>
            </Position>
            <AltitudeMeters>404</AltitudeMeters>
            <DistanceMeters>NAN</DistanceMeters>
          </Trackpoint>
          <Trackpoint>
            <Time>2020-02-15T10:21:52.000Z</Time>
            <Position>
              <LatitudeDegrees>41.9753012247383594512939453125</LatitudeDegrees>
              <LongitudeDegrees>2.89627552963793277740478515625</LongitudeDegrees>
            </Position>
            <AltitudeMeters>404</AltitudeMeters>
            <DistanceMeters>NAN</DistanceMeters>
          </Trackpoint>
          <Trackpoint>
            <Time>2020-02-15T10:21:53.000Z</Time>
            <Position>
              <LatitudeDegrees>41.97533190250396728515625</LatitudeDegrees>
              <LongitudeDegrees>2.896266393363475799560546875</LongitudeDegrees>
            </Position>
            <AltitudeMeters>404</AltitudeMeters>
            <DistanceMeters>NAN</DistanceMeters>
          </Trackpoint>
          <Trackpoint>
            <Time>2020-02-15T10:21:54.000Z</Time>
            <Position>
              <LatitudeDegrees>41.97536333464086055755615234375</LatitudeDegrees>
              <LongitudeDegrees>2.89625935256481170654296875</LongitudeDegrees>
            </Position>
            <AltitudeMeters>404</AltitudeMeters>
            <DistanceMeters>NAN</DistanceMeters>
          </Trackpoint>
          <Trackpoint>
            <Time>2020-02-15T10:21:55.000Z</Time>
            <Position>
              <LatitudeDegrees>41.97539250366389751434326171875</LatitudeDegrees>
              <LongitudeDegrees>2.89625222794711589813232421875</LongitudeDegrees>
            </Position>
            <AltitudeMeters>404.20001220703125</AltitudeMeters>
            <DistanceMeters>NAN</DistanceMeters>
          </Trackpoint>
          <Trackpoint>
            <Time>2020-02-15T10:21:56.000Z</Time>
            <Position>
              <LatitudeDegrees>41.9754215888679027557373046875</LatitudeDegrees>
              <LongitudeDegrees>2.896245606243610382080078125</LongitudeDegrees>
            </Position>
            <AltitudeMeters>404.20001220703125</AltitudeMeters>
            <DistanceMeters>NAN</DistanceMeters>
          </Trackpoint>
          <Trackpoint>
            <Time>2020-02-15T10:21:57.000Z</Time>
            <Position>
              <LatitudeDegrees>41.97544966824352741241455078125</LatitudeDegrees>
              <LongitudeDegrees>2.8962407447397708892822265625</LongitudeDegrees>
            </Position>
            <AltitudeMeters>404.20001220703125</AltitudeMeters>
            <DistanceMeters>NAN</DistanceMeters>
          </Trackpoint>
          <Trackpoint>
            <Time>2020-02-15T10:21:58.000Z</Time>
            <Position>
              <LatitudeDegrees>41.975479423999786376953125</LatitudeDegrees>
              <LongitudeDegrees>2.89623445831239223480224609375</LongitudeDegrees>
            </Position>
            <AltitudeMeters>404.399993896484375</AltitudeMeters>
            <DistanceMeters>NAN</DistanceMeters>
          </Trackpoint>
          <Trackpoint>
            <Time>2020-02-15T10:21:59.000Z</Time>
            <Position>
              <LatitudeDegrees>41.97550666518509387969970703125</LatitudeDegrees>
              <LongitudeDegrees>2.89623026736080646514892578125</LongitudeDegrees>
            </Position>
            <AltitudeMeters>404.600006103515625</AltitudeMeters>
            <DistanceMeters>NAN</DistanceMeters>
          </Trackpoint>
          <Trackpoint>
            <Time>2020-02-15T10:22:00.000Z</Time>
            <Position>
              <LatitudeDegrees>41.975537426769733428955078125</LatitudeDegrees>
              <LongitudeDegrees>2.89622473530471324920654296875</LongitudeDegrees>
            </Position>
            <AltitudeMeters>404.600006103515625</AltitudeMeters>
            <DistanceMeters>NAN</DistanceMeters>
          </Trackpoint>
          <Trackpoint>
            <Time>2020-02-15T10:22:01.000Z</Time>
            <Position>
              <LatitudeDegrees>41.97556701488792896270751953125</LatitudeDegrees>
              <LongitudeDegrees>2.89622071199119091033935546875</LongitudeDegrees>
            </Position>
            <AltitudeMeters>404.79998779296875</AltitudeMeters>
            <DistanceMeters>NAN</DistanceMeters>
          </Trackpoint>
          <Trackpoint>
            <Time>2020-02-15T10:22:02.000Z</Time>
            <Position>
              <LatitudeDegrees>41.975596435368061065673828125</LatitudeDegrees>
              <LongitudeDegrees>2.896218784153461456298828125</LongitudeDegrees>
            </Position>
            <AltitudeMeters>405</AltitudeMeters>
            <DistanceMeters>NAN</DistanceMeters>
          </Trackpoint>
          <Trackpoint>
            <Time>2020-02-15T10:22:03.000Z</Time>
            <Position>
              <LatitudeDegrees>41.97562602348625659942626953125</LatitudeDegrees>
              <LongitudeDegrees>2.8962169401347637176513671875</LongitudeDegrees>
            </Position>
            <AltitudeMeters>405.20001220703125</AltitudeMeters>
            <DistanceMeters>NAN</DistanceMeters>
          </Trackpoint>
          <Trackpoint>
            <Time>2020-02-15T10:22:04.000Z</Time>
            <Position>
              <LatitudeDegrees>41.9756559468805789947509765625</LatitudeDegrees>
              <LongitudeDegrees>2.89621735922992229461669921875</LongitudeDegrees>
            </Position>
            <AltitudeMeters>405.399993896484375</AltitudeMeters>
            <DistanceMeters>NAN</DistanceMeters>
          </Trackpoint>
          <Trackpoint>
            <Time>2020-02-15T10:22:05.000Z</Time>
            <Position>
              <LatitudeDegrees>41.975688971579074859619140625</LatitudeDegrees>
              <LongitudeDegrees>2.89621685631573200225830078125</LongitudeDegrees>
            </Position>
            <AltitudeMeters>405.600006103515625</AltitudeMeters>
            <DistanceMeters>NAN</DistanceMeters>
          </Trackpoint>
          <Trackpoint>
            <Time>2020-02-15T10:22:06.000Z</Time>
            <Position>
              <LatitudeDegrees>41.9757196493446826934814453125</LatitudeDegrees>
              <LongitudeDegrees>2.89621635340154170989990234375</LongitudeDegrees>
            </Position>
            <AltitudeMeters>405.79998779296875</AltitudeMeters>
            <DistanceMeters>NAN</DistanceMeters>
          </Trackpoint>
          <Trackpoint>
            <Time>2020-02-15T10:22:07.000Z</Time>
            <Position>
              <LatitudeDegrees>41.97574940510094165802001953125</LatitudeDegrees>
              <LongitudeDegrees>2.89621534757316112518310546875</LongitudeDegrees>
            </Position>
            <AltitudeMeters>406</AltitudeMeters>
            <DistanceMeters>NAN</DistanceMeters>
          </Trackpoint>
          <Trackpoint>
            <Time>2020-02-15T10:22:08.000Z</Time>
            <Position>
              <LatitudeDegrees>41.97577874176204204559326171875</LatitudeDegrees>
              <LongitudeDegrees>2.89621249772608280181884765625</LongitudeDegrees>
            </Position>
            <AltitudeMeters>406</AltitudeMeters>
            <DistanceMeters>NAN</DistanceMeters>
          </Trackpoint>
          <Trackpoint>
            <Time>2020-02-15T10:22:09.000Z</Time>
            <Position>
              <LatitudeDegrees>41.97580874897539615631103515625</LatitudeDegrees>
              <LongitudeDegrees>2.89621165953576564788818359375</LongitudeDegrees>
            </Position>
            <AltitudeMeters>406.20001220703125</AltitudeMeters>
            <DistanceMeters>NAN</DistanceMeters>
          </Trackpoint>
          <Trackpoint>
            <Time>2020-02-15T10:22:10.000Z</Time>
            <Position>
              <LatitudeDegrees>41.97583540342748165130615234375</LatitudeDegrees>
              <LongitudeDegrees>2.89621174335479736328125</LongitudeDegrees>
            </Position>
            <AltitudeMeters>406.399993896484375</AltitudeMeters>
            <DistanceMeters>NAN</DistanceMeters>
          </Trackpoint>
          <Trackpoint>
            <Time>2020-02-15T10:22:11.000Z</Time>
            <Position>
              <LatitudeDegrees>41.975859291851520538330078125</LatitudeDegrees>
              <LongitudeDegrees>2.8962102346122264862060546875</LongitudeDegrees>
            </Position>
            <AltitudeMeters>406.600006103515625</AltitudeMeters>
            <DistanceMeters>NAN</DistanceMeters>
          </Trackpoint>
          <Trackpoint>
            <Time>2020-02-15T10:22:12.000Z</Time>
            <Position>
              <LatitudeDegrees>41.97588703595101833343505859375</LatitudeDegrees>
              <LongitudeDegrees>2.89620629511773586273193359375</LongitudeDegrees>
            </Position>
            <AltitudeMeters>406.600006103515625</AltitudeMeters>
            <DistanceMeters>NAN</DistanceMeters>
          </Trackpoint>
          <Trackpoint>
            <Time>2020-02-15T10:22:13.000Z</Time>
            <Position>
              <LatitudeDegrees>41.975919306278228759765625</LatitudeDegrees>
              <LongitudeDegrees>2.8961998410522937774658203125</LongitudeDegrees>
            </Position>
            <AltitudeMeters>406.600006103515625</AltitudeMeters>
            <DistanceMeters>NAN</DistanceMeters>
          </Trackpoint>
          <Trackpoint>
            <Time>2020-02-15T10:22:14.000Z</Time>
            <Position>
              <LatitudeDegrees>41.97594889439642429351806640625</LatitudeDegrees>
              <LongitudeDegrees>2.89619422517716884613037109375</LongitudeDegrees>
            </Position>
            <AltitudeMeters>407</AltitudeMeters>
            <DistanceMeters>NAN</DistanceMeters>
          </Trackpoint>
          <Trackpoint>
            <Time>2020-02-15T10:22:15.000Z</Time>
            <Position>
              <LatitudeDegrees>41.97597605176270008087158203125</LatitudeDegrees>
              <LongitudeDegrees>2.89619271643459796905517578125</LongitudeDegrees>
            </Position>
            <AltitudeMeters>407</AltitudeMeters>
            <DistanceMeters>NAN</DistanceMeters>
          </Trackpoint>
          <Trackpoint>
            <Time>2020-02-15T10:22:16.000Z</Time>
            <Position>
              <LatitudeDegrees>41.976000778377056121826171875</LatitudeDegrees>
              <LongitudeDegrees>2.89619657211005687713623046875</LongitudeDegrees>
            </Position>
            <AltitudeMeters>407.20001220703125</AltitudeMeters>
            <DistanceMeters>NAN</DistanceMeters>
          </Trackpoint>
          <Trackpoint>
            <Time>2020-02-15T10:22:17.000Z</Time>
            <Position>
              <LatitudeDegrees>41.976025588810443878173828125</LatitudeDegrees>
              <LongitudeDegrees>2.89620101451873779296875</LongitudeDegrees>
            </Position>
            <AltitudeMeters>407.20001220703125</AltitudeMeters>
            <DistanceMeters>NAN</DistanceMeters>
          </Trackpoint>
          <Trackpoint>
            <Time>2020-02-15T10:22:18.000Z</Time>
            <Position>
              <LatitudeDegrees>41.97605534456670284271240234375</LatitudeDegrees>
              <LongitudeDegrees>2.89620009250938892364501953125</LongitudeDegrees>
            </Position>
            <AltitudeMeters>407.399993896484375</AltitudeMeters>
            <DistanceMeters>NAN</DistanceMeters>
          </Trackpoint>
          <Trackpoint>
            <Time>2020-02-15T10:22:19.000Z</Time>
            <Position>
              <LatitudeDegrees>41.97608484886586666107177734375</LatitudeDegrees>
              <LongitudeDegrees>2.896197326481342315673828125</LongitudeDegrees>
            </Position>
            <AltitudeMeters>407.399993896484375</AltitudeMeters>
            <DistanceMeters>NAN</DistanceMeters>
          </Trackpoint>
          <Trackpoint>
            <Time>2020-02-15T10:22:20.000Z</Time>
            <Position>
              <LatitudeDegrees>41.97611175477504730224609375</LatitudeDegrees>
              <LongitudeDegrees>2.89619305171072483062744140625</LongitudeDegrees>
            </Position>
            <AltitudeMeters>407.79998779296875</AltitudeMeters>
            <DistanceMeters>NAN</DistanceMeters>
          </Trackpoint>
          <Trackpoint>
            <Time>2020-02-15T10:22:21.000Z</Time>
            <Position>
              <LatitudeDegrees>41.976140253245830535888671875</LatitudeDegrees>
              <LongitudeDegrees>2.8961850889027118682861328125</LongitudeDegrees>
            </Position>
            <AltitudeMeters>407.79998779296875</AltitudeMeters>
            <DistanceMeters>NAN</DistanceMeters>
          </Trackpoint>
          <Trackpoint>
            <Time>2020-02-15T10:22:22.000Z</Time>
            <Position>
              <LatitudeDegrees>41.97616799734532833099365234375</LatitudeDegrees>
              <LongitudeDegrees>2.896176539361476898193359375</LongitudeDegrees>
            </Position>
            <AltitudeMeters>408.20001220703125</AltitudeMeters>
            <DistanceMeters>NAN</DistanceMeters>
          </Trackpoint>
          <Trackpoint>
            <Time>2020-02-15T10:22:23.000Z</Time>
            <Position>
              <LatitudeDegrees>41.97619414888322353363037109375</LatitudeDegrees>
              <LongitudeDegrees>2.8961622901260852813720703125</LongitudeDegrees>
            </Position>
            <AltitudeMeters>408.20001220703125</AltitudeMeters>
            <DistanceMeters>NAN</DistanceMeters>
          </Trackpoint>
          <Trackpoint>
            <Time>2020-02-15T10:22:24.000Z</Time>
            <Position>
              <LatitudeDegrees>41.97621946223080158233642578125</LatitudeDegrees>
              <LongitudeDegrees>2.89614359848201274871826171875</LongitudeDegrees>
            </Position>
            <AltitudeMeters>408.79998779296875</AltitudeMeters>
            <DistanceMeters>NAN</DistanceMeters>
          </Trackpoint>
          <Trackpoint>
            <Time>2020-02-15T10:22:25.000Z</Time>
            <Position>
              <LatitudeDegrees>41.9762443564832210540771484375</LatitudeDegrees>
              <LongitudeDegrees>2.89612817578017711639404296875</LongitudeDegrees>
            </Position>
            <AltitudeMeters>408.79998779296875</AltitudeMeters>
            <DistanceMeters>NAN</DistanceMeters>
          </Trackpoint>
          <Trackpoint>
            <Time>2020-02-15T10:22:26.000Z</Time>
            <Position>
              <LatitudeDegrees>41.97626757435500621795654296875</LatitudeDegrees>
              <LongitudeDegrees>2.896116860210895538330078125</LongitudeDegrees>
            </Position>
            <AltitudeMeters>409</AltitudeMeters>
            <DistanceMeters>NAN</DistanceMeters>
          </Trackpoint>
          <Trackpoint>
            <Time>2020-02-15T10:22:27.000Z</Time>
            <Position>
              <LatitudeDegrees>41.97629590518772602081298828125</LatitudeDegrees>
              <LongitudeDegrees>2.89609682746231555938720703125</LongitudeDegrees>
            </Position>
            <AltitudeMeters>409.20001220703125</AltitudeMeters>
            <DistanceMeters>NAN</DistanceMeters>
          </Trackpoint>
          <Trackpoint>
            <Time>2020-02-15T10:22:28.000Z</Time>
            <Position>
              <LatitudeDegrees>41.97632633149623870849609375</LatitudeDegrees>
              <LongitudeDegrees>2.89607570506632328033447265625</LongitudeDegrees>
            </Position>
            <AltitudeMeters>409.399993896484375</AltitudeMeters>
            <DistanceMeters>NAN</DistanceMeters>
          </Trackpoint>
          <Trackpoint>
            <Time>2020-02-15T10:22:29.000Z</Time>
            <Position>
              <LatitudeDegrees>41.97635742835700511932373046875</LatitudeDegrees>
              <LongitudeDegrees>2.8960533253848552703857421875</LongitudeDegrees>
            </Position>
            <AltitudeMeters>409.79998779296875</AltitudeMeters>
            <DistanceMeters>NAN</DistanceMeters>
          </Trackpoint>
          <Trackpoint>
            <Time>2020-02-15T10:22:30.000Z</Time>
            <Position>
              <LatitudeDegrees>41.97638978250324726104736328125</LatitudeDegrees>
              <LongitudeDegrees>2.89602390490472316741943359375</LongitudeDegrees>
            </Position>
            <AltitudeMeters>409.79998779296875</AltitudeMeters>
            <DistanceMeters>NAN</DistanceMeters>
          </Trackpoint>
          <Trackpoint>
            <Time>2020-02-15T10:22:31.000Z</Time>
            <Position>
              <LatitudeDegrees>41.97641618549823760986328125</LatitudeDegrees>
              <LongitudeDegrees>2.8959990106523036956787109375</LongitudeDegrees>
            </Position>
            <AltitudeMeters>410.20001220703125</AltitudeMeters>
            <DistanceMeters>NAN</DistanceMeters>
          </Trackpoint>
          <Trackpoint>
            <Time>2020-02-15T10:22:32.000Z</Time>
            <Position>
              <LatitudeDegrees>41.9764411635696887969970703125</LatitudeDegrees>
              <LongitudeDegrees>2.89597713388502597808837890625</LongitudeDegrees>
            </Position>
            <AltitudeMeters>410</AltitudeMeters>
            <DistanceMeters>NAN</DistanceMeters>
          </Trackpoint>
          <Trackpoint>
            <Time>2020-02-15T10:22:33.000Z</Time>
            <Position>
              <LatitudeDegrees>41.97646505199372768402099609375</LatitudeDegrees>
              <LongitudeDegrees>2.89595450274646282196044921875</LongitudeDegrees>
            </Position>
            <AltitudeMeters>410.399993896484375</AltitudeMeters>
            <DistanceMeters>NAN</DistanceMeters>
          </Trackpoint>
          <Trackpoint>
            <Time>2020-02-15T10:22:34.000Z</Time>
            <Position>
              <LatitudeDegrees>41.97648902423679828643798828125</LatitudeDegrees>
              <LongitudeDegrees>2.8959341347217559814453125</LongitudeDegrees>
            </Position>
            <AltitudeMeters>410.399993896484375</AltitudeMeters>
            <DistanceMeters>NAN</DistanceMeters>
          </Trackpoint>
          <Trackpoint>
            <Time>2020-02-15T10:22:35.000Z</Time>
            <Position>
              <LatitudeDegrees>41.9765109010040760040283203125</LatitudeDegrees>
              <LongitudeDegrees>2.89591066539287567138671875</LongitudeDegrees>
            </Position>
            <AltitudeMeters>410.399993896484375</AltitudeMeters>
            <DistanceMeters>NAN</DistanceMeters>
          </Trackpoint>
          <Trackpoint>
            <Time>2020-02-15T10:22:36.000Z</Time>
            <Position>
              <LatitudeDegrees>41.976534537971019744873046875</LatitudeDegrees>
              <LongitudeDegrees>2.89588443003594875335693359375</LongitudeDegrees>
            </Position>
            <AltitudeMeters>410.79998779296875</AltitudeMeters>
            <DistanceMeters>NAN</DistanceMeters>
          </Trackpoint>
          <Trackpoint>
            <Time>2020-02-15T10:22:37.000Z</Time>
            <Position>
              <LatitudeDegrees>41.97655457071959972381591796875</LatitudeDegrees>
              <LongitudeDegrees>2.89586498402059078216552734375</LongitudeDegrees>
            </Position>
            <AltitudeMeters>411</AltitudeMeters>
            <DistanceMeters>NAN</DistanceMeters>
          </Trackpoint>
          <Trackpoint>
            <Time>2020-02-15T10:22:38.000Z</Time>
            <Position>
              <LatitudeDegrees>41.97657301090657711029052734375</LatitudeDegrees>
              <LongitudeDegrees>2.89584822021424770355224609375</LongitudeDegrees>
            </Position>
            <AltitudeMeters>411.20001220703125</AltitudeMeters>
            <DistanceMeters>NAN</DistanceMeters>
          </Trackpoint>
          <Trackpoint>
            <Time>2020-02-15T10:22:39.000Z</Time>
            <Position>
              <LatitudeDegrees>41.97659262455999851226806640625</LatitudeDegrees>
              <LongitudeDegrees>2.8958313725888729095458984375</LongitudeDegrees>
            </Position>
            <AltitudeMeters>411.399993896484375</AltitudeMeters>
            <DistanceMeters>NAN</DistanceMeters>
          </Trackpoint>
          <Trackpoint>
            <Time>2020-02-15T10:22:40.000Z</Time>
            <Position>
              <LatitudeDegrees>41.97661475278437137603759765625</LatitudeDegrees>
              <LongitudeDegrees>2.89581418968737125396728515625</LongitudeDegrees>
            </Position>
            <AltitudeMeters>411.600006103515625</AltitudeMeters>
            <DistanceMeters>NAN</DistanceMeters>
          </Trackpoint>
          <Trackpoint>
            <Time>2020-02-15T10:22:41.000Z</Time>
            <Position>
              <LatitudeDegrees>41.97663880884647369384765625</LatitudeDegrees>
              <LongitudeDegrees>2.8957866132259368896484375</LongitudeDegrees>
            </Position>
            <AltitudeMeters>411.79998779296875</AltitudeMeters>
            <DistanceMeters>NAN</DistanceMeters>
          </Trackpoint>
          <Trackpoint>
            <Time>2020-02-15T10:22:42.000Z</Time>
            <Position>
              <LatitudeDegrees>41.9766607694327831268310546875</LatitudeDegrees>
              <LongitudeDegrees>2.895762138068675994873046875</LongitudeDegrees>
            </Position>
            <AltitudeMeters>411.79998779296875</AltitudeMeters>
            <DistanceMeters>NAN</DistanceMeters>
          </Trackpoint>
          <Trackpoint>
            <Time>2020-02-15T10:22:43.000Z</Time>
            <Position>
              <LatitudeDegrees>41.976683400571346282958984375</LatitudeDegrees>
              <LongitudeDegrees>2.8957391716539859771728515625</LongitudeDegrees>
            </Position>
            <AltitudeMeters>412</AltitudeMeters>
            <DistanceMeters>NAN</DistanceMeters>
          </Trackpoint>
          <Trackpoint>
            <Time>2020-02-15T10:22:44.000Z</Time>
            <Position>
              <LatitudeDegrees>41.97670795954763889312744140625</LatitudeDegrees>
              <LongitudeDegrees>2.89571729488670825958251953125</LongitudeDegrees>
            </Position>
            <AltitudeMeters>412</AltitudeMeters>
            <DistanceMeters>NAN</DistanceMeters>
          </Trackpoint>
          <Trackpoint>
            <Time>2020-02-15T10:22:45.000Z</Time>
            <Position>
              <LatitudeDegrees>41.9767331890761852264404296875</LatitudeDegrees>
              <LongitudeDegrees>2.89569918997585773468017578125</LongitudeDegrees>
            </Position>
            <AltitudeMeters>412.20001220703125</AltitudeMeters>
            <DistanceMeters>NAN</DistanceMeters>
          </Trackpoint>
          <Trackpoint>
            <Time>2020-02-15T10:22:46.000Z</Time>
            <Position>
              <LatitudeDegrees>41.976757831871509552001953125</LatitudeDegrees>
              <LongitudeDegrees>2.8956838510930538177490234375</LongitudeDegrees>
            </Position>
            <AltitudeMeters>412.20001220703125</AltitudeMeters>
            <DistanceMeters>NAN</DistanceMeters>
          </Trackpoint>
          <Trackpoint>
            <Time>2020-02-15T10:22:47.000Z</Time>
            <Position>
              <LatitudeDegrees>41.97678457014262676239013671875</LatitudeDegrees>
              <LongitudeDegrees>2.89567387662827968597412109375</LongitudeDegrees>
            </Position>
            <AltitudeMeters>412.600006103515625</AltitudeMeters>
            <DistanceMeters>NAN</DistanceMeters>
          </Trackpoint>
          <Trackpoint>
            <Time>2020-02-15T10:22:48.000Z</Time>
            <Position>
              <LatitudeDegrees>41.97681407444179058074951171875</LatitudeDegrees>
              <LongitudeDegrees>2.8956674225628376007080078125</LongitudeDegrees>
            </Position>
            <AltitudeMeters>412.79998779296875</AltitudeMeters>
            <DistanceMeters>NAN</DistanceMeters>
          </Trackpoint>
          <Trackpoint>
            <Time>2020-02-15T10:22:49.000Z</Time>
            <Position>
              <LatitudeDegrees>41.97684391401708126068115234375</LatitudeDegrees>
              <LongitudeDegrees>2.89566365070641040802001953125</LongitudeDegrees>
            </Position>
            <AltitudeMeters>413</AltitudeMeters>
            <DistanceMeters>NAN</DistanceMeters>
          </Trackpoint>
          <Trackpoint>
            <Time>2020-02-15T10:22:50.000Z</Time>
            <Position>
              <LatitudeDegrees>41.9768699817359447479248046875</LatitudeDegrees>
              <LongitudeDegrees>2.89566867984831333160400390625</LongitudeDegrees>
            </Position>
            <AltitudeMeters>413.20001220703125</AltitudeMeters>
            <DistanceMeters>NAN</DistanceMeters>
          </Trackpoint>
          <Trackpoint>
            <Time>2020-02-15T10:22:51.000Z</Time>
            <Position>
              <LatitudeDegrees>41.9768978096544742584228515625</LatitudeDegrees>
              <LongitudeDegrees>2.89567169733345508575439453125</LongitudeDegrees>
            </Position>
            <AltitudeMeters>413.20001220703125</AltitudeMeters>
            <DistanceMeters>NAN</DistanceMeters>
          </Trackpoint>
          <Trackpoint>
            <Time>2020-02-15T10:22:52.000Z</Time>
            <Position>
              <LatitudeDegrees>41.9769226200878620147705078125</LatitudeDegrees>
              <LongitudeDegrees>2.8956788219511508941650390625</LongitudeDegrees>
            </Position>
            <AltitudeMeters>413.399993896484375</AltitudeMeters>
            <DistanceMeters>NAN</DistanceMeters>
          </Trackpoint>
          <Trackpoint>
            <Time>2020-02-15T10:22:53.000Z</Time>
            <Position>
              <LatitudeDegrees>41.9769427366554737091064453125</LatitudeDegrees>
              <LongitudeDegrees>2.89568594656884670257568359375</LongitudeDegrees>
            </Position>
            <AltitudeMeters>413.79998779296875</AltitudeMeters>
            <DistanceMeters>NAN</DistanceMeters>
          </Trackpoint>
          <Trackpoint>
            <Time>2020-02-15T10:22:54.000Z</Time>
            <Position>
              <LatitudeDegrees>41.976954303681850433349609375</LatitudeDegrees>
              <LongitudeDegrees>2.8956972621381282806396484375</LongitudeDegrees>
            </Position>
            <AltitudeMeters>413.79998779296875</AltitudeMeters>
            <DistanceMeters>NAN</DistanceMeters>
          </Trackpoint>
          <Trackpoint>
            <Time>2020-02-15T10:22:55.000Z</Time>
            <Position>
              <LatitudeDegrees>41.9769638590514659881591796875</LatitudeDegrees>
              <LongitudeDegrees>2.8957100026309490203857421875</LongitudeDegrees>
            </Position>
            <AltitudeMeters>413.79998779296875</AltitudeMeters>
            <DistanceMeters>NAN</DistanceMeters>
          </Trackpoint>
          <Trackpoint>
            <Time>2020-02-15T10:22:56.000Z</Time>
            <Position>
              <LatitudeDegrees>41.97697550989687442779541015625</LatitudeDegrees>
              <LongitudeDegrees>2.89572400040924549102783203125</LongitudeDegrees>
            </Position>
            <AltitudeMeters>414</AltitudeMeters>
            <DistanceMeters>NAN</DistanceMeters>
          </Trackpoint>
          <Trackpoint>
            <Time>2020-02-15T10:22:57.000Z</Time>
            <Position>
              <LatitudeDegrees>41.976992189884185791015625</LatitudeDegrees>
              <LongitudeDegrees>2.89573875255882740020751953125</LongitudeDegrees>
            </Position>
            <AltitudeMeters>414.20001220703125</AltitudeMeters>
            <DistanceMeters>NAN</DistanceMeters>
          </Trackpoint>
          <Trackpoint>
            <Time>2020-02-15T10:22:58.000Z</Time>
            <Position>
              <LatitudeDegrees>41.97700987569987773895263671875</LatitudeDegrees>
              <LongitudeDegrees>2.89575375616550445556640625</LongitudeDegrees>
            </Position>
            <AltitudeMeters>414.20001220703125</AltitudeMeters>
            <DistanceMeters>NAN</DistanceMeters>
          </Trackpoint>
          <Trackpoint>
            <Time>2020-02-15T10:22:59.000Z</Time>
            <Position>
              <LatitudeDegrees>41.977028064429759979248046875</LatitudeDegrees>
              <LongitudeDegrees>2.89576976560056209564208984375</LongitudeDegrees>
            </Position>
            <AltitudeMeters>414.20001220703125</AltitudeMeters>
            <DistanceMeters>NAN</DistanceMeters>
          </Trackpoint>
          <Trackpoint>
            <Time>2020-02-15T10:23:00.000Z</Time>
            <Position>
              <LatitudeDegrees>41.97704424150288105010986328125</LatitudeDegrees>
              <LongitudeDegrees>2.8957847692072391510009765625</LongitudeDegrees>
            </Position>
            <AltitudeMeters>414.399993896484375</AltitudeMeters>
            <DistanceMeters>NAN</DistanceMeters>
          </Trackpoint>
          <Trackpoint>
            <Time>2020-02-15T10:23:01.000Z</Time>
            <Position>
              <LatitudeDegrees>41.97705748490989208221435546875</LatitudeDegrees>
              <LongitudeDegrees>2.895799018442630767822265625</LongitudeDegrees>
            </Position>
            <AltitudeMeters>414.399993896484375</AltitudeMeters>
            <DistanceMeters>NAN</DistanceMeters>
          </Trackpoint>
          <Trackpoint>
            <Time>2020-02-15T10:23:02.000Z</Time>
            <Position>
              <LatitudeDegrees>41.97707324288785457611083984375</LatitudeDegrees>
              <LongitudeDegrees>2.8958236612379550933837890625</LongitudeDegrees>
            </Position>
            <AltitudeMeters>414.79998779296875</AltitudeMeters>
            <DistanceMeters>NAN</DistanceMeters>
          </Trackpoint>
          <Trackpoint>
            <Time>2020-02-15T10:23:03.000Z</Time>
            <Position>
              <LatitudeDegrees>41.977087743580341339111328125</LatitudeDegrees>
              <LongitudeDegrees>2.8958484716713428497314453125</LongitudeDegrees>
            </Position>
            <AltitudeMeters>415</AltitudeMeters>
            <DistanceMeters>NAN</DistanceMeters>
          </Trackpoint>
          <Trackpoint>
            <Time>2020-02-15T10:23:04.000Z</Time>
            <Position>
              <LatitudeDegrees>41.9771026633679866790771484375</LatitudeDegrees>
              <LongitudeDegrees>2.89587135426700115203857421875</LongitudeDegrees>
            </Position>
            <AltitudeMeters>415.20001220703125</AltitudeMeters>
            <DistanceMeters>NAN</DistanceMeters>
          </Trackpoint>
          <Trackpoint>
            <Time>2020-02-15T10:23:05.000Z</Time>
            <Position>
              <LatitudeDegrees>41.97711934335529804229736328125</LatitudeDegrees>
              <LongitudeDegrees>2.89589616470038890838623046875</LongitudeDegrees>
            </Position>
            <AltitudeMeters>415.399993896484375</AltitudeMeters>
            <DistanceMeters>NAN</DistanceMeters>
          </Trackpoint>
          <Trackpoint>
            <Time>2020-02-15T10:23:06.000Z</Time>
            <Position>
              <LatitudeDegrees>41.97713635861873626708984375</LatitudeDegrees>
              <LongitudeDegrees>2.8959222324192523956298828125</LongitudeDegrees>
            </Position>
            <AltitudeMeters>415.399993896484375</AltitudeMeters>
            <DistanceMeters>NAN</DistanceMeters>
          </Trackpoint>
          <Trackpoint>
            <Time>2020-02-15T10:23:07.000Z</Time>
            <Position>
              <LatitudeDegrees>41.97715119458734989166259765625</LatitudeDegrees>
              <LongitudeDegrees>2.89594427682459354400634765625</LongitudeDegrees>
            </Position>
            <AltitudeMeters>415.600006103515625</AltitudeMeters>
            <DistanceMeters>NAN</DistanceMeters>
          </Trackpoint>
          <Trackpoint>
            <Time>2020-02-15T10:23:08.000Z</Time>
            <Position>
              <LatitudeDegrees>41.977168880403041839599609375</LatitudeDegrees>
              <LongitudeDegrees>2.895965985953807830810546875</LongitudeDegrees>
            </Position>
            <AltitudeMeters>415.600006103515625</AltitudeMeters>
            <DistanceMeters>NAN</DistanceMeters>
          </Trackpoint>
          <Trackpoint>
            <Time>2020-02-15T10:23:09.000Z</Time>
            <Position>
              <LatitudeDegrees>41.97718975134193897247314453125</LatitudeDegrees>
              <LongitudeDegrees>2.89598735980689525604248046875</LongitudeDegrees>
            </Position>
            <AltitudeMeters>415.600006103515625</AltitudeMeters>
            <DistanceMeters>NAN</DistanceMeters>
          </Trackpoint>
          <Trackpoint>
            <Time>2020-02-15T10:23:10.000Z</Time>
            <Position>
              <LatitudeDegrees>41.97721003554761409759521484375</LatitudeDegrees>
              <LongitudeDegrees>2.8960117511451244354248046875</LongitudeDegrees>
            </Position>
            <AltitudeMeters>416</AltitudeMeters>
            <DistanceMeters>NAN</DistanceMeters>
          </Trackpoint>
          <Trackpoint>
            <Time>2020-02-15T10:23:11.000Z</Time>
            <Position>
              <LatitudeDegrees>41.97723417542874813079833984375</LatitudeDegrees>
              <LongitudeDegrees>2.8960355557501316070556640625</LongitudeDegrees>
            </Position>
            <AltitudeMeters>416</AltitudeMeters>
            <DistanceMeters>NAN</DistanceMeters>
          </Trackpoint>
          <Trackpoint>
            <Time>2020-02-15T10:23:12.000Z</Time>
            <Position>
              <LatitudeDegrees>41.97726317681372165679931640625</LatitudeDegrees>
              <LongitudeDegrees>2.896057851612567901611328125</LongitudeDegrees>
            </Position>
            <AltitudeMeters>416.20001220703125</AltitudeMeters>
            <DistanceMeters>NAN</DistanceMeters>
          </Trackpoint>
          <Trackpoint>
            <Time>2020-02-15T10:23:13.000Z</Time>
            <Position>
              <LatitudeDegrees>41.97728983126580715179443359375</LatitudeDegrees>
              <LongitudeDegrees>2.89608098566532135009765625</LongitudeDegrees>
            </Position>
            <AltitudeMeters>416.399993896484375</AltitudeMeters>
            <DistanceMeters>NAN</DistanceMeters>
          </Trackpoint>
          <Trackpoint>
            <Time>2020-02-15T10:23:14.000Z</Time>
            <Position>
              <LatitudeDegrees>41.9773169048130512237548828125</LatitudeDegrees>
              <LongitudeDegrees>2.89610269479453563690185546875</LongitudeDegrees>
            </Position>
            <AltitudeMeters>416.600006103515625</AltitudeMeters>
            <DistanceMeters>NAN</DistanceMeters>
          </Trackpoint>
          <Trackpoint>
            <Time>2020-02-15T10:23:15.000Z</Time>
            <Position>
              <LatitudeDegrees>41.977341882884502410888671875</LatitudeDegrees>
              <LongitudeDegrees>2.89612515829503536224365234375</LongitudeDegrees>
            </Position>
            <AltitudeMeters>417</AltitudeMeters>
            <DistanceMeters>NAN</DistanceMeters>
          </Trackpoint>
          <Trackpoint>
            <Time>2020-02-15T10:23:16.000Z</Time>
            <Position>
              <LatitudeDegrees>41.9773685373365879058837890625</LatitudeDegrees>
              <LongitudeDegrees>2.89614762179553508758544921875</LongitudeDegrees>
            </Position>
            <AltitudeMeters>417</AltitudeMeters>
            <DistanceMeters>NAN</DistanceMeters>
          </Trackpoint>
          <Trackpoint>
            <Time>2020-02-15T10:23:17.000Z</Time>
            <Position>
              <LatitudeDegrees>41.977394521236419677734375</LatitudeDegrees>
              <LongitudeDegrees>2.8961679898202419281005859375</LongitudeDegrees>
            </Position>
            <AltitudeMeters>417</AltitudeMeters>
            <DistanceMeters>NAN</DistanceMeters>
          </Trackpoint>
          <Trackpoint>
            <Time>2020-02-15T10:23:18.000Z</Time>
            <Position>
              <LatitudeDegrees>41.97741941548883914947509765625</LatitudeDegrees>
              <LongitudeDegrees>2.89618919603526592254638671875</LongitudeDegrees>
            </Position>
            <AltitudeMeters>417.20001220703125</AltitudeMeters>
            <DistanceMeters>NAN</DistanceMeters>
          </Trackpoint>
          <Trackpoint>
            <Time>2020-02-15T10:23:19.000Z</Time>
            <Position>
              <LatitudeDegrees>41.977445147931575775146484375</LatitudeDegrees>
              <LongitudeDegrees>2.89620897732675075531005859375</LongitudeDegrees>
            </Position>
            <AltitudeMeters>417.20001220703125</AltitudeMeters>
            <DistanceMeters>NAN</DistanceMeters>
          </Trackpoint>
          <Trackpoint>
            <Time>2020-02-15T10:23:20.000Z</Time>
            <Position>
              <LatitudeDegrees>41.97747272439301013946533203125</LatitudeDegrees>
              <LongitudeDegrees>2.89622582495212554931640625</LongitudeDegrees>
            </Position>
            <AltitudeMeters>417.20001220703125</AltitudeMeters>
            <DistanceMeters>NAN</DistanceMeters>
          </Trackpoint>
          <Trackpoint>
            <Time>2020-02-15T10:23:21.000Z</Time>
            <Position>
              <LatitudeDegrees>41.9774996303021907806396484375</LatitudeDegrees>
              <LongitudeDegrees>2.89624057710170745849609375</LongitudeDegrees>
            </Position>
            <AltitudeMeters>417.600006103515625</AltitudeMeters>
            <DistanceMeters>NAN</DistanceMeters>
          </Trackpoint>
          <Trackpoint>
            <Time>2020-02-15T10:23:22.000Z</Time>
            <Position>
              <LatitudeDegrees>41.977526955306529998779296875</LatitudeDegrees>
              <LongitudeDegrees>2.89625440724194049835205078125</LongitudeDegrees>
            </Position>
            <AltitudeMeters>417.600006103515625</AltitudeMeters>
            <DistanceMeters>NAN</DistanceMeters>
          </Trackpoint>
          <Trackpoint>
            <Time>2020-02-15T10:23:24.000Z</Time>
            <Position>
              <LatitudeDegrees>41.97758068330585956573486328125</LatitudeDegrees>
              <LongitudeDegrees>2.8962850011885166168212890625</LongitudeDegrees>
            </Position>
            <AltitudeMeters>417.79998779296875</AltitudeMeters>
            <DistanceMeters>NAN</DistanceMeters>
          </Trackpoint>
          <Trackpoint>
            <Time>2020-02-15T10:23:26.000Z</Time>
            <Position>
              <LatitudeDegrees>41.9776317290961742401123046875</LatitudeDegrees>
              <LongitudeDegrees>2.89632280357182025909423828125</LongitudeDegrees>
            </Position>
            <AltitudeMeters>418</AltitudeMeters>
            <DistanceMeters>NAN</DistanceMeters>
          </Trackpoint>
          <Trackpoint>
            <Time>2020-02-15T10:23:27.000Z</Time>
            <Position>
              <LatitudeDegrees>41.97765829972922801971435546875</LatitudeDegrees>
              <LongitudeDegrees>2.89633386768400669097900390625</LongitudeDegrees>
            </Position>
            <AltitudeMeters>418</AltitudeMeters>
            <DistanceMeters>NAN</DistanceMeters>
          </Trackpoint>
          <Trackpoint>
            <Time>2020-02-15T10:23:28.000Z</Time>
            <Position>
              <LatitudeDegrees>41.97768755257129669189453125</LatitudeDegrees>
              <LongitudeDegrees>2.89634560234844684600830078125</LongitudeDegrees>
            </Position>
            <AltitudeMeters>418.20001220703125</AltitudeMeters>
            <DistanceMeters>NAN</DistanceMeters>
          </Trackpoint>
          <Trackpoint>
            <Time>2020-02-15T10:23:29.000Z</Time>
            <Position>
              <LatitudeDegrees>41.977716051042079925537109375</LatitudeDegrees>
              <LongitudeDegrees>2.8963624499738216400146484375</LongitudeDegrees>
            </Position>
            <AltitudeMeters>418.20001220703125</AltitudeMeters>
            <DistanceMeters>NAN</DistanceMeters>
          </Trackpoint>
          <Trackpoint>
            <Time>2020-02-15T10:23:30.000Z</Time>
            <Position>
              <LatitudeDegrees>41.9777443818747997283935546875</LatitudeDegrees>
              <LongitudeDegrees>2.896386422216892242431640625</LongitudeDegrees>
            </Position>
            <AltitudeMeters>418.399993896484375</AltitudeMeters>
            <DistanceMeters>NAN</DistanceMeters>
          </Trackpoint>
          <Trackpoint>
            <Time>2020-02-15T10:23:31.000Z</Time>
            <Position>
              <LatitudeDegrees>41.9777762331068515777587890625</LatitudeDegrees>
              <LongitudeDegrees>2.89641559123992919921875</LongitudeDegrees>
            </Position>
            <AltitudeMeters>418.20001220703125</AltitudeMeters>
            <DistanceMeters>NAN</DistanceMeters>
          </Trackpoint>
          <Trackpoint>
            <Time>2020-02-15T10:23:34.000Z</Time>
            <Position>
              <LatitudeDegrees>41.977874301373958587646484375</LatitudeDegrees>
              <LongitudeDegrees>2.89650837890803813934326171875</LongitudeDegrees>
            </Position>
            <AltitudeMeters>418.399993896484375</AltitudeMeters>
            <DistanceMeters>NAN</DistanceMeters>
          </Trackpoint>
          <Trackpoint>
            <Time>2020-02-15T10:23:35.000Z</Time>
            <Position>
              <LatitudeDegrees>41.9779110141098499298095703125</LatitudeDegrees>
              <LongitudeDegrees>2.89654576219618320465087890625</LongitudeDegrees>
            </Position>
            <AltitudeMeters>418.399993896484375</AltitudeMeters>
            <DistanceMeters>NAN</DistanceMeters>
          </Trackpoint>
          <Trackpoint>
            <Time>2020-02-15T10:23:37.000Z</Time>
            <Position>
              <LatitudeDegrees>41.9779790751636028289794921875</LatitudeDegrees>
              <LongitudeDegrees>2.89662857539951801300048828125</LongitudeDegrees>
            </Position>
            <AltitudeMeters>418.399993896484375</AltitudeMeters>
            <DistanceMeters>NAN</DistanceMeters>
          </Trackpoint>
          <Trackpoint>
            <Time>2020-02-15T10:23:40.000Z</Time>
            <Position>
              <LatitudeDegrees>41.97808711789548397064208984375</LatitudeDegrees>
              <LongitudeDegrees>2.89674977771937847137451171875</LongitudeDegrees>
            </Position>
            <AltitudeMeters>418.399993896484375</AltitudeMeters>
            <DistanceMeters>NAN</DistanceMeters>
          </Trackpoint>
          <Trackpoint>
            <Time>2020-02-15T10:23:41.000Z</Time>
            <Position>
              <LatitudeDegrees>41.978121064603328704833984375</LatitudeDegrees>
              <LongitudeDegrees>2.8967855684459209442138671875</LongitudeDegrees>
            </Position>
            <AltitudeMeters>418.20001220703125</AltitudeMeters>
            <DistanceMeters>NAN</DistanceMeters>
          </Trackpoint>
          <Trackpoint>
            <Time>2020-02-15T10:23:42.000Z</Time>
            <Position>
              <LatitudeDegrees>41.97815559804439544677734375</LatitudeDegrees>
              <LongitudeDegrees>2.8968147374689579010009765625</LongitudeDegrees>
            </Position>
            <AltitudeMeters>418</AltitudeMeters>
            <DistanceMeters>NAN</DistanceMeters>
          </Trackpoint>
          <Trackpoint>
            <Time>2020-02-15T10:23:43.000Z</Time>
            <Position>
              <LatitudeDegrees>41.97819122113287448883056640625</LatitudeDegrees>
              <LongitudeDegrees>2.89683912880718708038330078125</LongitudeDegrees>
            </Position>
            <AltitudeMeters>418</AltitudeMeters>
            <DistanceMeters>NAN</DistanceMeters>
          </Trackpoint>
          <Trackpoint>
            <Time>2020-02-15T10:23:44.000Z</Time>
            <Position>
              <LatitudeDegrees>41.97822759859263896942138671875</LatitudeDegrees>
              <LongitudeDegrees>2.89685547351837158203125</LongitudeDegrees>
            </Position>
            <AltitudeMeters>417.79998779296875</AltitudeMeters>
            <DistanceMeters>NAN</DistanceMeters>
          </Trackpoint>
          <Trackpoint>
            <Time>2020-02-15T10:23:45.000Z</Time>
            <Position>
              <LatitudeDegrees>41.97826280258595943450927734375</LatitudeDegrees>
              <LongitudeDegrees>2.89686745963990688323974609375</LongitudeDegrees>
            </Position>
            <AltitudeMeters>417.79998779296875</AltitudeMeters>
            <DistanceMeters>NAN</DistanceMeters>
          </Trackpoint>
          <Trackpoint>
            <Time>2020-02-15T10:23:46.000Z</Time>
            <Position>
              <LatitudeDegrees>41.9782962463796138763427734375</LatitudeDegrees>
              <LongitudeDegrees>2.8968797810375690460205078125</LongitudeDegrees>
            </Position>
            <AltitudeMeters>417.600006103515625</AltitudeMeters>
            <DistanceMeters>NAN</DistanceMeters>
          </Trackpoint>
          <Trackpoint>
            <Time>2020-02-15T10:23:47.000Z</Time>
            <Position>
              <LatitudeDegrees>41.97832860052585601806640625</LatitudeDegrees>
              <LongitudeDegrees>2.89689109660685062408447265625</LongitudeDegrees>
            </Position>
            <AltitudeMeters>417.399993896484375</AltitudeMeters>
            <DistanceMeters>NAN</DistanceMeters>
          </Trackpoint>
          <Trackpoint>
            <Time>2020-02-15T10:23:48.000Z</Time>
            <Position>
              <LatitudeDegrees>41.9783599488437175750732421875</LatitudeDegrees>
              <LongitudeDegrees>2.896899394690990447998046875</LongitudeDegrees>
            </Position>
            <AltitudeMeters>417.399993896484375</AltitudeMeters>
            <DistanceMeters>NAN</DistanceMeters>
          </Trackpoint>
          <Trackpoint>
            <Time>2020-02-15T10:23:49.000Z</Time>
            <Position>
              <LatitudeDegrees>41.9783877767622470855712890625</LatitudeDegrees>
              <LongitudeDegrees>2.89690819568932056427001953125</LongitudeDegrees>
            </Position>
            <AltitudeMeters>417.399993896484375</AltitudeMeters>
            <DistanceMeters>NAN</DistanceMeters>
          </Trackpoint>
          <Trackpoint>
            <Time>2020-02-15T10:23:50.000Z</Time>
            <Position>
              <LatitudeDegrees>41.978412754833698272705078125</LatitudeDegrees>
              <LongitudeDegrees>2.89691590704023838043212890625</LongitudeDegrees>
            </Position>
            <AltitudeMeters>417.20001220703125</AltitudeMeters>
            <DistanceMeters>NAN</DistanceMeters>
          </Trackpoint>
          <Trackpoint>
            <Time>2020-02-15T10:23:51.000Z</Time>
            <Position>
              <LatitudeDegrees>41.9784330390393733978271484375</LatitudeDegrees>
              <LongitudeDegrees>2.89692630060017108917236328125</LongitudeDegrees>
            </Position>
            <AltitudeMeters>417</AltitudeMeters>
            <DistanceMeters>NAN</DistanceMeters>
          </Trackpoint>
          <Trackpoint>
            <Time>2020-02-15T10:23:52.000Z</Time>
            <Position>
              <LatitudeDegrees>41.97845189832150936126708984375</LatitudeDegrees>
              <LongitudeDegrees>2.89693719707429409027099609375</LongitudeDegrees>
            </Position>
            <AltitudeMeters>417</AltitudeMeters>
            <DistanceMeters>NAN</DistanceMeters>
          </Trackpoint>
          <Trackpoint>
            <Time>2020-02-15T10:23:53.000Z</Time>
            <Position>
              <LatitudeDegrees>41.97847117669880390167236328125</LatitudeDegrees>
              <LongitudeDegrees>2.89694876410067081451416015625</LongitudeDegrees>
            </Position>
            <AltitudeMeters>417</AltitudeMeters>
            <DistanceMeters>NAN</DistanceMeters>
          </Trackpoint>
          <Trackpoint>
            <Time>2020-02-15T10:23:54.000Z</Time>
            <Position>
              <LatitudeDegrees>41.97849263437092304229736328125</LatitudeDegrees>
              <LongitudeDegrees>2.89696452207863330841064453125</LongitudeDegrees>
            </Position>
            <AltitudeMeters>416.79998779296875</AltitudeMeters>
            <DistanceMeters>NAN</DistanceMeters>
          </Trackpoint>
          <Trackpoint>
            <Time>2020-02-15T10:23:57.000Z</Time>
            <Position>
              <LatitudeDegrees>41.97856136597692966461181640625</LatitudeDegrees>
              <LongitudeDegrees>2.89702889509499073028564453125</LongitudeDegrees>
            </Position>
            <AltitudeMeters>417</AltitudeMeters>
            <DistanceMeters>NAN</DistanceMeters>
          </Trackpoint>
          <Trackpoint>
            <Time>2020-02-15T10:23:59.000Z</Time>
            <Position>
              <LatitudeDegrees>41.97860478423535823822021484375</LatitudeDegrees>
              <LongitudeDegrees>2.89709527976810932159423828125</LongitudeDegrees>
            </Position>
            <AltitudeMeters>416.79998779296875</AltitudeMeters>
            <DistanceMeters>NAN</DistanceMeters>
          </Trackpoint>
          <Trackpoint>
            <Time>2020-02-15T10:24:01.000Z</Time>
            <Position>
              <LatitudeDegrees>41.97864585556089878082275390625</LatitudeDegrees>
              <LongitudeDegrees>2.89717591367661952972412109375</LongitudeDegrees>
            </Position>
            <AltitudeMeters>416.79998779296875</AltitudeMeters>
            <DistanceMeters>NAN</DistanceMeters>
          </Trackpoint>
          <Trackpoint>
            <Time>2020-02-15T10:24:03.000Z</Time>
            <Position>
              <LatitudeDegrees>41.9786844961345195770263671875</LatitudeDegrees>
              <LongitudeDegrees>2.8972552902996540069580078125</LongitudeDegrees>
            </Position>
            <AltitudeMeters>416.600006103515625</AltitudeMeters>
            <DistanceMeters>NAN</DistanceMeters>
          </Trackpoint>
          <Trackpoint>
            <Time>2020-02-15T10:24:04.000Z</Time>
            <Position>
              <LatitudeDegrees>41.97870050556957721710205078125</LatitudeDegrees>
              <LongitudeDegrees>2.8972958587110042572021484375</LongitudeDegrees>
            </Position>
            <AltitudeMeters>416.79998779296875</AltitudeMeters>
            <DistanceMeters>NAN</DistanceMeters>
          </Trackpoint>
          <Trackpoint>
            <Time>2020-02-15T10:24:05.000Z</Time>
            <Position>
              <LatitudeDegrees>41.9787128269672393798828125</LatitudeDegrees>
              <LongitudeDegrees>2.89733483456075191497802734375</LongitudeDegrees>
            </Position>
            <AltitudeMeters>416.600006103515625</AltitudeMeters>
            <DistanceMeters>NAN</DistanceMeters>
          </Trackpoint>
          <Trackpoint>
            <Time>2020-02-15T10:24:06.000Z</Time>
            <Position>
              <LatitudeDegrees>41.97872933931648731231689453125</LatitudeDegrees>
              <LongitudeDegrees>2.89737557061016559600830078125</LongitudeDegrees>
            </Position>
            <AltitudeMeters>416.600006103515625</AltitudeMeters>
            <DistanceMeters>NAN</DistanceMeters>
          </Trackpoint>
          <Trackpoint>
            <Time>2020-02-15T10:24:07.000Z</Time>
            <Position>
              <LatitudeDegrees>41.9787438400089740753173828125</LatitudeDegrees>
              <LongitudeDegrees>2.89741831831634044647216796875</LongitudeDegrees>
            </Position>
            <AltitudeMeters>416.600006103515625</AltitudeMeters>
            <DistanceMeters>NAN</DistanceMeters>
          </Trackpoint>
          <Trackpoint>
            <Time>2020-02-15T10:24:08.000Z</Time>
            <Position>
              <LatitudeDegrees>41.978757418692111968994140625</LatitudeDegrees>
              <LongitudeDegrees>2.897464334964752197265625</LongitudeDegrees>
            </Position>
            <AltitudeMeters>416.600006103515625</AltitudeMeters>
            <DistanceMeters>NAN</DistanceMeters>
          </Trackpoint>
          <Trackpoint>
            <Time>2020-02-15T10:24:10.000Z</Time>
            <Position>
              <LatitudeDegrees>41.97879857383668422698974609375</LatitudeDegrees>
              <LongitudeDegrees>2.89756022393703460693359375</LongitudeDegrees>
            </Position>
            <AltitudeMeters>416.399993896484375</AltitudeMeters>
            <DistanceMeters>NAN</DistanceMeters>
          </Trackpoint>
          <Trackpoint>
            <Time>2020-02-15T10:24:11.000Z</Time>
            <Position>
              <LatitudeDegrees>41.9788253121078014373779296875</LatitudeDegrees>
              <LongitudeDegrees>2.89761395193636417388916015625</LongitudeDegrees>
            </Position>
            <AltitudeMeters>416.399993896484375</AltitudeMeters>
            <DistanceMeters>NAN</DistanceMeters>
          </Trackpoint>
          <Trackpoint>
            <Time>2020-02-15T10:24:13.000Z</Time>
            <Position>
              <LatitudeDegrees>41.9788870029151439666748046875</LatitudeDegrees>
              <LongitudeDegrees>2.89771847426891326904296875</LongitudeDegrees>
            </Position>
            <AltitudeMeters>416.20001220703125</AltitudeMeters>
            <DistanceMeters>NAN</DistanceMeters>
          </Trackpoint>
          <Trackpoint>
            <Time>2020-02-15T10:24:14.000Z</Time>
            <Position>
              <LatitudeDegrees>41.97892329655587673187255859375</LatitudeDegrees>
              <LongitudeDegrees>2.8977652452886104583740234375</LongitudeDegrees>
            </Position>
            <AltitudeMeters>416.20001220703125</AltitudeMeters>
            <DistanceMeters>NAN</DistanceMeters>
          </Trackpoint>
          <Trackpoint>
            <Time>2020-02-15T10:24:15.000Z</Time>
            <Position>
              <LatitudeDegrees>41.978965289890766143798828125</LatitudeDegrees>
              <LongitudeDegrees>2.897815704345703125</LongitudeDegrees>
            </Position>
            <AltitudeMeters>416</AltitudeMeters>
            <DistanceMeters>NAN</DistanceMeters>
          </Trackpoint>
          <Trackpoint>
            <Time>2020-02-15T10:24:16.000Z</Time>
            <Position>
              <LatitudeDegrees>41.9790073670446872711181640625</LatitudeDegrees>
              <LongitudeDegrees>2.89787010289728641510009765625</LongitudeDegrees>
            </Position>
            <AltitudeMeters>415.79998779296875</AltitudeMeters>
            <DistanceMeters>NAN</DistanceMeters>
          </Trackpoint>
          <Trackpoint>
            <Time>2020-02-15T10:24:17.000Z</Time>
            <Position>
              <LatitudeDegrees>41.97905623354017734527587890625</LatitudeDegrees>
              <LongitudeDegrees>2.89792274124920368194580078125</LongitudeDegrees>
            </Position>
            <AltitudeMeters>416</AltitudeMeters>
            <DistanceMeters>NAN</DistanceMeters>
          </Trackpoint>
          <Trackpoint>
            <Time>2020-02-15T10:24:18.000Z</Time>
            <Position>
              <LatitudeDegrees>41.97910778224468231201171875</LatitudeDegrees>
              <LongitudeDegrees>2.8979721106588840484619140625</LongitudeDegrees>
            </Position>
            <AltitudeMeters>415.79998779296875</AltitudeMeters>
            <DistanceMeters>NAN</DistanceMeters>
          </Trackpoint>
          <Trackpoint>
            <Time>2020-02-15T10:24:21.000Z</Time>
            <Position>
              <LatitudeDegrees>41.97926527820527553558349609375</LatitudeDegrees>
              <LongitudeDegrees>2.898125164210796356201171875</LongitudeDegrees>
            </Position>
            <AltitudeMeters>415.399993896484375</AltitudeMeters>
            <DistanceMeters>NAN</DistanceMeters>
          </Trackpoint>
          <Trackpoint>
            <Time>2020-02-15T10:24:24.000Z</Time>
            <Position>
              <LatitudeDegrees>41.97942428290843963623046875</LatitudeDegrees>
              <LongitudeDegrees>2.89825952611863613128662109375</LongitudeDegrees>
            </Position>
            <AltitudeMeters>414.399993896484375</AltitudeMeters>
            <DistanceMeters>NAN</DistanceMeters>
          </Trackpoint>
          <Trackpoint>
            <Time>2020-02-15T10:24:25.000Z</Time>
            <Position>
              <LatitudeDegrees>41.97947801090776920318603515625</LatitudeDegrees>
              <LongitudeDegrees>2.898292131721973419189453125</LongitudeDegrees>
            </Position>
            <AltitudeMeters>414.399993896484375</AltitudeMeters>
            <DistanceMeters>NAN</DistanceMeters>
          </Trackpoint>
          <Trackpoint>
            <Time>2020-02-15T10:24:26.000Z</Time>
            <Position>
              <LatitudeDegrees>41.97953131981194019317626953125</LatitudeDegrees>
              <LongitudeDegrees>2.89831283502280712127685546875</LongitudeDegrees>
            </Position>
            <AltitudeMeters>414</AltitudeMeters>
            <DistanceMeters>NAN</DistanceMeters>
          </Trackpoint>
          <Trackpoint>
            <Time>2020-02-15T10:24:27.000Z</Time>
            <Position>
              <LatitudeDegrees>41.97958328761160373687744140625</LatitudeDegrees>
              <LongitudeDegrees>2.898324988782405853271484375</LongitudeDegrees>
            </Position>
            <AltitudeMeters>413.399993896484375</AltitudeMeters>
            <DistanceMeters>NAN</DistanceMeters>
          </Trackpoint>
          <Trackpoint>
            <Time>2020-02-15T10:24:28.000Z</Time>
            <Position>
              <LatitudeDegrees>41.9796356745064258575439453125</LatitudeDegrees>
              <LongitudeDegrees>2.89833228103816509246826171875</LongitudeDegrees>
            </Position>
            <AltitudeMeters>413.20001220703125</AltitudeMeters>
            <DistanceMeters>NAN</DistanceMeters>
          </Trackpoint>
          <Trackpoint>
            <Time>2020-02-15T10:24:29.000Z</Time>
            <Position>
              <LatitudeDegrees>41.979686804115772247314453125</LatitudeDegrees>
              <LongitudeDegrees>2.8983355499804019927978515625</LongitudeDegrees>
            </Position>
            <AltitudeMeters>412.600006103515625</AltitudeMeters>
            <DistanceMeters>NAN</DistanceMeters>
          </Trackpoint>
          <Trackpoint>
            <Time>2020-02-15T10:24:30.000Z</Time>
            <Position>
              <LatitudeDegrees>41.979735754430294036865234375</LatitudeDegrees>
              <LongitudeDegrees>2.8983382321894168853759765625</LongitudeDegrees>
            </Position>
            <AltitudeMeters>412.600006103515625</AltitudeMeters>
            <DistanceMeters>NAN</DistanceMeters>
          </Trackpoint>
          <Trackpoint>
            <Time>2020-02-15T10:24:31.000Z</Time>
            <Position>
              <LatitudeDegrees>41.9797835312783718109130859375</LatitudeDegrees>
              <LongitudeDegrees>2.8983435966074466705322265625</LongitudeDegrees>
            </Position>
            <AltitudeMeters>412.399993896484375</AltitudeMeters>
            <DistanceMeters>NAN</DistanceMeters>
          </Trackpoint>
          <Trackpoint>
            <Time>2020-02-15T10:24:32.000Z</Time>
            <Position>
              <LatitudeDegrees>41.97983105666935443878173828125</LatitudeDegrees>
              <LongitudeDegrees>2.89835155941545963287353515625</LongitudeDegrees>
            </Position>
            <AltitudeMeters>412.20001220703125</AltitudeMeters>
            <DistanceMeters>NAN</DistanceMeters>
          </Trackpoint>
          <Trackpoint>
            <Time>2020-02-15T10:24:33.000Z</Time>
            <Position>
              <LatitudeDegrees>41.97987715713679790496826171875</LatitudeDegrees>
              <LongitudeDegrees>2.89836111478507518768310546875</LongitudeDegrees>
            </Position>
            <AltitudeMeters>412.20001220703125</AltitudeMeters>
            <DistanceMeters>NAN</DistanceMeters>
          </Trackpoint>
          <Trackpoint>
            <Time>2020-02-15T10:24:34.000Z</Time>
            <Position>
              <LatitudeDegrees>41.97992174886167049407958984375</LatitudeDegrees>
              <LongitudeDegrees>2.89837419055402278900146484375</LongitudeDegrees>
            </Position>
            <AltitudeMeters>412</AltitudeMeters>
            <DistanceMeters>NAN</DistanceMeters>
          </Trackpoint>
          <Trackpoint>
            <Time>2020-02-15T10:24:35.000Z</Time>
            <Position>
              <LatitudeDegrees>41.97996265254914760589599609375</LatitudeDegrees>
              <LongitudeDegrees>2.89839112199842929840087890625</LongitudeDegrees>
            </Position>
            <AltitudeMeters>412</AltitudeMeters>
            <DistanceMeters>NAN</DistanceMeters>
          </Trackpoint>
          <Trackpoint>
            <Time>2020-02-15T10:24:36.000Z</Time>
            <Position>
              <LatitudeDegrees>41.98000422678887844085693359375</LatitudeDegrees>
              <LongitudeDegrees>2.89841442368924617767333984375</LongitudeDegrees>
            </Position>
            <AltitudeMeters>411.79998779296875</AltitudeMeters>
            <DistanceMeters>NAN</DistanceMeters>
          </Trackpoint>
          <Trackpoint>
            <Time>2020-02-15T10:24:37.000Z</Time>
            <Position>
              <LatitudeDegrees>41.98004513047635555267333984375</LatitudeDegrees>
              <LongitudeDegrees>2.8984408266842365264892578125</LongitudeDegrees>
            </Position>
            <AltitudeMeters>411.79998779296875</AltitudeMeters>
            <DistanceMeters>NAN</DistanceMeters>
          </Trackpoint>
          <Trackpoint>
            <Time>2020-02-15T10:24:38.000Z</Time>
            <Position>
              <LatitudeDegrees>41.98008385486900806427001953125</LatitudeDegrees>
              <LongitudeDegrees>2.898474521934986114501953125</LongitudeDegrees>
            </Position>
            <AltitudeMeters>411.79998779296875</AltitudeMeters>
            <DistanceMeters>NAN</DistanceMeters>
          </Trackpoint>
          <Trackpoint>
            <Time>2020-02-15T10:24:39.000Z</Time>
            <Position>
              <LatitudeDegrees>41.98012542910873889923095703125</LatitudeDegrees>
              <LongitudeDegrees>2.89851643145084381103515625</LongitudeDegrees>
            </Position>
            <AltitudeMeters>411.79998779296875</AltitudeMeters>
            <DistanceMeters>NAN</DistanceMeters>
          </Trackpoint>
          <Trackpoint>
            <Time>2020-02-15T10:24:41.000Z</Time>
            <Position>
              <LatitudeDegrees>41.9802110083401203155517578125</LatitudeDegrees>
              <LongitudeDegrees>2.89861072786152362823486328125</LongitudeDegrees>
            </Position>
            <AltitudeMeters>411.600006103515625</AltitudeMeters>
            <DistanceMeters>NAN</DistanceMeters>
          </Trackpoint>
          <Trackpoint>
            <Time>2020-02-15T10:24:42.000Z</Time>
            <Position>
              <LatitudeDegrees>41.9802576117217540740966796875</LatitudeDegrees>
              <LongitudeDegrees>2.89865498431026935577392578125</LongitudeDegrees>
            </Position>
            <AltitudeMeters>411.600006103515625</AltitudeMeters>
            <DistanceMeters>NAN</DistanceMeters>
          </Trackpoint>
          <Trackpoint>
            <Time>2020-02-15T10:24:43.000Z</Time>
            <Position>
              <LatitudeDegrees>41.98030672967433929443359375</LatitudeDegrees>
              <LongitudeDegrees>2.89870644919574260711669921875</LongitudeDegrees>
            </Position>
            <AltitudeMeters>411.399993896484375</AltitudeMeters>
            <DistanceMeters>NAN</DistanceMeters>
          </Trackpoint>
          <Trackpoint>
            <Time>2020-02-15T10:24:44.000Z</Time>
            <Position>
              <LatitudeDegrees>41.980360038578510284423828125</LatitudeDegrees>
              <LongitudeDegrees>2.8987633623182773590087890625</LongitudeDegrees>
            </Position>
            <AltitudeMeters>411.399993896484375</AltitudeMeters>
            <DistanceMeters>NAN</DistanceMeters>
          </Trackpoint>
          <Trackpoint>
            <Time>2020-02-15T10:24:47.000Z</Time>
            <Position>
              <LatitudeDegrees>41.98052507825195789337158203125</LatitudeDegrees>
              <LongitudeDegrees>2.89895229041576385498046875</LongitudeDegrees>
            </Position>
            <AltitudeMeters>410.399993896484375</AltitudeMeters>
            <DistanceMeters>NAN</DistanceMeters>
          </Trackpoint>
          <Trackpoint>
            <Time>2020-02-15T10:24:48.000Z</Time>
            <Position>
              <LatitudeDegrees>41.9805824942886829376220703125</LatitudeDegrees>
              <LongitudeDegrees>2.89902026765048503875732421875</LongitudeDegrees>
            </Position>
            <AltitudeMeters>410.20001220703125</AltitudeMeters>
            <DistanceMeters>NAN</DistanceMeters>
          </Trackpoint>
          <Trackpoint>
            <Time>2020-02-15T10:24:51.000Z</Time>
            <Position>
              <LatitudeDegrees>41.9807513058185577392578125</LatitudeDegrees>
              <LongitudeDegrees>2.8992106206715106964111328125</LongitudeDegrees>
            </Position>
            <AltitudeMeters>409.600006103515625</AltitudeMeters>
            <DistanceMeters>NAN</DistanceMeters>
          </Trackpoint>
          <Trackpoint>
            <Time>2020-02-15T10:24:52.000Z</Time>
            <Position>
              <LatitudeDegrees>41.98080553673207759857177734375</LatitudeDegrees>
              <LongitudeDegrees>2.8992706350982189178466796875</LongitudeDegrees>
            </Position>
            <AltitudeMeters>409.20001220703125</AltitudeMeters>
            <DistanceMeters>NAN</DistanceMeters>
          </Trackpoint>
          <Trackpoint>
            <Time>2020-02-15T10:24:53.000Z</Time>
            <Position>
              <LatitudeDegrees>41.9808567501604557037353515625</LatitudeDegrees>
              <LongitudeDegrees>2.89932788349688053131103515625</LongitudeDegrees>
            </Position>
            <AltitudeMeters>408.20001220703125</AltitudeMeters>
            <DistanceMeters>NAN</DistanceMeters>
          </Trackpoint>
          <Trackpoint>
            <Time>2020-02-15T10:24:54.000Z</Time>
            <Position>
              <LatitudeDegrees>41.9809033535420894622802734375</LatitudeDegrees>
              <LongitudeDegrees>2.89937968365848064422607421875</LongitudeDegrees>
            </Position>
            <AltitudeMeters>408</AltitudeMeters>
            <DistanceMeters>NAN</DistanceMeters>
          </Trackpoint>
          <Trackpoint>
            <Time>2020-02-15T10:24:55.000Z</Time>
            <Position>
              <LatitudeDegrees>41.98094584979116916656494140625</LatitudeDegrees>
              <LongitudeDegrees>2.89942838251590728759765625</LongitudeDegrees>
            </Position>
            <AltitudeMeters>407.399993896484375</AltitudeMeters>
            <DistanceMeters>NAN</DistanceMeters>
          </Trackpoint>
          <Trackpoint>
            <Time>2020-02-15T10:24:56.000Z</Time>
            <Position>
              <LatitudeDegrees>41.98098775930702686309814453125</LatitudeDegrees>
              <LongitudeDegrees>2.89947423152625560760498046875</LongitudeDegrees>
            </Position>
            <AltitudeMeters>407.20001220703125</AltitudeMeters>
            <DistanceMeters>NAN</DistanceMeters>
          </Trackpoint>
          <Trackpoint>
            <Time>2020-02-15T10:24:57.000Z</Time>
            <Position>
              <LatitudeDegrees>41.98102832771837711334228515625</LatitudeDegrees>
              <LongitudeDegrees>2.89951111190021038055419921875</LongitudeDegrees>
            </Position>
            <AltitudeMeters>406.79998779296875</AltitudeMeters>
            <DistanceMeters>NAN</DistanceMeters>
          </Trackpoint>
          <Trackpoint>
            <Time>2020-02-15T10:24:58.000Z</Time>
            <Position>
              <LatitudeDegrees>41.981067471206188201904296875</LatitudeDegrees>
              <LongitudeDegrees>2.89954614825546741485595703125</LongitudeDegrees>
            </Position>
            <AltitudeMeters>406.399993896484375</AltitudeMeters>
            <DistanceMeters>NAN</DistanceMeters>
          </Trackpoint>
          <Trackpoint>
            <Time>2020-02-15T10:24:59.000Z</Time>
            <Position>
              <LatitudeDegrees>41.9811035133898258209228515625</LatitudeDegrees>
              <LongitudeDegrees>2.89957665838301181793212890625</LongitudeDegrees>
            </Position>
            <AltitudeMeters>406.399993896484375</AltitudeMeters>
            <DistanceMeters>NAN</DistanceMeters>
          </Trackpoint>
          <Trackpoint>
            <Time>2020-02-15T10:25:00.000Z</Time>
            <Position>
              <LatitudeDegrees>41.98113712482154369354248046875</LatitudeDegrees>
              <LongitudeDegrees>2.8996002115309238433837890625</LongitudeDegrees>
            </Position>
            <AltitudeMeters>406.399993896484375</AltitudeMeters>
            <DistanceMeters>NAN</DistanceMeters>
          </Trackpoint>
          <Trackpoint>
            <Time>2020-02-15T10:25:01.000Z</Time>
            <Position>
              <LatitudeDegrees>41.98116897605359554290771484375</LatitudeDegrees>
              <LongitudeDegrees>2.8996203280985355377197265625</LongitudeDegrees>
            </Position>
            <AltitudeMeters>406.20001220703125</AltitudeMeters>
            <DistanceMeters>NAN</DistanceMeters>
          </Trackpoint>
          <Trackpoint>
            <Time>2020-02-15T10:25:02.000Z</Time>
            <Position>
              <LatitudeDegrees>41.981197893619537353515625</LatitudeDegrees>
              <LongitudeDegrees>2.89964203722774982452392578125</LongitudeDegrees>
            </Position>
            <AltitudeMeters>406.20001220703125</AltitudeMeters>
            <DistanceMeters>NAN</DistanceMeters>
          </Trackpoint>
          <Trackpoint>
            <Time>2020-02-15T10:25:03.000Z</Time>
            <Position>
              <LatitudeDegrees>41.98122144676744937896728515625</LatitudeDegrees>
              <LongitudeDegrees>2.89966282434761524200439453125</LongitudeDegrees>
            </Position>
            <AltitudeMeters>406.20001220703125</AltitudeMeters>
            <DistanceMeters>NAN</DistanceMeters>
          </Trackpoint>
          <Trackpoint>
            <Time>2020-02-15T10:25:04.000Z</Time>
            <Position>
              <LatitudeDegrees>41.98124458082020282745361328125</LatitudeDegrees>
              <LongitudeDegrees>2.89967791177332401275634765625</LongitudeDegrees>
            </Position>
            <AltitudeMeters>406.399993896484375</AltitudeMeters>
            <DistanceMeters>NAN</DistanceMeters>
          </Trackpoint>
          <Trackpoint>
            <Time>2020-02-15T10:25:05.000Z</Time>
            <Position>
              <LatitudeDegrees>41.98126520030200481414794921875</LatitudeDegrees>
              <LongitudeDegrees>2.89968989789485931396484375</LongitudeDegrees>
            </Position>
            <AltitudeMeters>406.20001220703125</AltitudeMeters>
            <DistanceMeters>NAN</DistanceMeters>
          </Trackpoint>
          <Trackpoint>
            <Time>2020-02-15T10:25:06.000Z</Time>
            <Position>
              <LatitudeDegrees>41.9812832213938236236572265625</LatitudeDegrees>
              <LongitudeDegrees>2.8997004590928554534912109375</LongitudeDegrees>
            </Position>
            <AltitudeMeters>406.399993896484375</AltitudeMeters>
            <DistanceMeters>NAN</DistanceMeters>
          </Trackpoint>
          <Trackpoint>
            <Time>2020-02-15T10:25:07.000Z</Time>
            <Position>
              <LatitudeDegrees>41.9812989793717861175537109375</LatitudeDegrees>
              <LongitudeDegrees>2.8997061587870121002197265625</LongitudeDegrees>
            </Position>
            <AltitudeMeters>406.20001220703125</AltitudeMeters>
            <DistanceMeters>NAN</DistanceMeters>
          </Trackpoint>
          <Trackpoint>
            <Time>2020-02-15T10:25:08.000Z</Time>
            <Position>
              <LatitudeDegrees>41.98131314478814601898193359375</LatitudeDegrees>
              <LongitudeDegrees>2.89971110410988330841064453125</LongitudeDegrees>
            </Position>
            <AltitudeMeters>406.20001220703125</AltitudeMeters>
            <DistanceMeters>NAN</DistanceMeters>
          </Trackpoint>
          <Trackpoint>
            <Time>2020-02-15T10:25:09.000Z</Time>
            <Position>
              <LatitudeDegrees>41.9813241250813007354736328125</LatitudeDegrees>
              <LongitudeDegrees>2.89971747435629367828369140625</LongitudeDegrees>
            </Position>
            <AltitudeMeters>406.20001220703125</AltitudeMeters>
            <DistanceMeters>NAN</DistanceMeters>
          </Trackpoint>
          <Trackpoint>
            <Time>2020-02-15T10:25:10.000Z</Time>
            <Position>
              <LatitudeDegrees>41.98133259080350399017333984375</LatitudeDegrees>
              <LongitudeDegrees>2.899723760783672332763671875</LongitudeDegrees>
            </Position>
            <AltitudeMeters>406.20001220703125</AltitudeMeters>
            <DistanceMeters>NAN</DistanceMeters>
          </Trackpoint>
          <Trackpoint>
            <Time>2020-02-15T10:25:11.000Z</Time>
            <Position>
              <LatitudeDegrees>41.981340385973453521728515625</LatitudeDegrees>
              <LongitudeDegrees>2.89973021484911441802978515625</LongitudeDegrees>
            </Position>
            <AltitudeMeters>406.399993896484375</AltitudeMeters>
            <DistanceMeters>NAN</DistanceMeters>
          </Trackpoint>
          <Trackpoint>
            <Time>2020-02-15T10:25:12.000Z</Time>
            <Position>
              <LatitudeDegrees>41.98134751059114933013916015625</LatitudeDegrees>
              <LongitudeDegrees>2.89973675273358821868896484375</LongitudeDegrees>
            </Position>
            <AltitudeMeters>406.399993896484375</AltitudeMeters>
            <DistanceMeters>NAN</DistanceMeters>
          </Trackpoint>
          <Trackpoint>
            <Time>2020-02-15T10:25:13.000Z</Time>
            <Position>
              <LatitudeDegrees>41.981354467570781707763671875</LatitudeDegrees>
              <LongitudeDegrees>2.8997430391609668731689453125</LongitudeDegrees>
            </Position>
            <AltitudeMeters>406.399993896484375</AltitudeMeters>
            <DistanceMeters>NAN</DistanceMeters>
          </Trackpoint>
          <Trackpoint>
            <Time>2020-02-15T10:25:14.000Z</Time>
            <Position>
              <LatitudeDegrees>41.9813628494739532470703125</LatitudeDegrees>
              <LongitudeDegrees>2.899746559560298919677734375</LongitudeDegrees>
            </Position>
            <AltitudeMeters>406.399993896484375</AltitudeMeters>
            <DistanceMeters>NAN</DistanceMeters>
          </Trackpoint>
          <Trackpoint>
            <Time>2020-02-15T10:25:15.000Z</Time>
            <Position>
              <LatitudeDegrees>41.98137299157679080963134765625</LatitudeDegrees>
              <LongitudeDegrees>2.89974932558834552764892578125</LongitudeDegrees>
            </Position>
            <AltitudeMeters>406.399993896484375</AltitudeMeters>
            <DistanceMeters>NAN</DistanceMeters>
          </Trackpoint>
          <Trackpoint>
            <Time>2020-02-15T10:25:16.000Z</Time>
            <Position>
              <LatitudeDegrees>41.98138103820383548736572265625</LatitudeDegrees>
              <LongitudeDegrees>2.8997562825679779052734375</LongitudeDegrees>
            </Position>
            <AltitudeMeters>406.399993896484375</AltitudeMeters>
            <DistanceMeters>NAN</DistanceMeters>
          </Trackpoint>
          <Trackpoint>
            <Time>2020-02-15T10:25:17.000Z</Time>
            <Position>
              <LatitudeDegrees>41.98138791136443614959716796875</LatitudeDegrees>
              <LongitudeDegrees>2.89976692758500576019287109375</LongitudeDegrees>
            </Position>
            <AltitudeMeters>406.600006103515625</AltitudeMeters>
            <DistanceMeters>NAN</DistanceMeters>
          </Trackpoint>
          <Trackpoint>
            <Time>2020-02-15T10:25:18.000Z</Time>
            <Position>
              <LatitudeDegrees>41.98139310814440250396728515625</LatitudeDegrees>
              <LongitudeDegrees>2.89977480657398700714111328125</LongitudeDegrees>
            </Position>
            <AltitudeMeters>406.399993896484375</AltitudeMeters>
            <DistanceMeters>NAN</DistanceMeters>
          </Trackpoint>
          <Trackpoint>
            <Time>2020-02-15T10:25:19.000Z</Time>
            <Position>
              <LatitudeDegrees>41.98140107095241546630859375</LatitudeDegrees>
              <LongitudeDegrees>2.89977933280169963836669921875</LongitudeDegrees>
            </Position>
            <AltitudeMeters>406.399993896484375</AltitudeMeters>
            <DistanceMeters>NAN</DistanceMeters>
          </Trackpoint>
          <Trackpoint>
            <Time>2020-02-15T10:25:20.000Z</Time>
            <Position>
              <LatitudeDegrees>41.98141003958880901336669921875</LatitudeDegrees>
              <LongitudeDegrees>2.8997822664678096771240234375</LongitudeDegrees>
            </Position>
            <AltitudeMeters>406.600006103515625</AltitudeMeters>
            <DistanceMeters>NAN</DistanceMeters>
          </Trackpoint>
          <Trackpoint>
            <Time>2020-02-15T10:25:21.000Z</Time>
            <Position>
              <LatitudeDegrees>41.981417499482631683349609375</LatitudeDegrees>
              <LongitudeDegrees>2.89978905580937862396240234375</LongitudeDegrees>
            </Position>
            <AltitudeMeters>406.399993896484375</AltitudeMeters>
            <DistanceMeters>NAN</DistanceMeters>
          </Trackpoint>
          <Trackpoint>
            <Time>2020-02-15T10:25:22.000Z</Time>
            <Position>
              <LatitudeDegrees>41.98142345063388347625732421875</LatitudeDegrees>
              <LongitudeDegrees>2.89979542605578899383544921875</LongitudeDegrees>
            </Position>
            <AltitudeMeters>406.399993896484375</AltitudeMeters>
            <DistanceMeters>NAN</DistanceMeters>
          </Trackpoint>
          <Trackpoint>
            <Time>2020-02-15T10:25:23.000Z</Time>
            <Position>
              <LatitudeDegrees>41.98142931796610355377197265625</LatitudeDegrees>
              <LongitudeDegrees>2.89979760535061359405517578125</LongitudeDegrees>
            </Position>
            <AltitudeMeters>406.399993896484375</AltitudeMeters>
            <DistanceMeters>NAN</DistanceMeters>
          </Trackpoint>
          <Trackpoint>
            <Time>2020-02-15T10:25:24.000Z</Time>
            <Position>
              <LatitudeDegrees>41.98143719695508480072021484375</LatitudeDegrees>
              <LongitudeDegrees>2.89979584515094757080078125</LongitudeDegrees>
            </Position>
            <AltitudeMeters>406.600006103515625</AltitudeMeters>
            <DistanceMeters>NAN</DistanceMeters>
          </Trackpoint>
          <Trackpoint>
            <Time>2020-02-15T10:25:25.000Z</Time>
            <Position>
              <LatitudeDegrees>41.98144675232470035552978515625</LatitudeDegrees>
              <LongitudeDegrees>2.8997950069606304168701171875</LongitudeDegrees>
            </Position>
            <AltitudeMeters>406.600006103515625</AltitudeMeters>
            <DistanceMeters>NAN</DistanceMeters>
          </Trackpoint>
          <Trackpoint>
            <Time>2020-02-15T10:25:26.000Z</Time>
            <Position>
              <LatitudeDegrees>41.98145546950399875640869140625</LatitudeDegrees>
              <LongitudeDegrees>2.89979727007448673248291015625</LongitudeDegrees>
            </Position>
            <AltitudeMeters>406.399993896484375</AltitudeMeters>
            <DistanceMeters>NAN</DistanceMeters>
          </Trackpoint>
          <Trackpoint>
            <Time>2020-02-15T10:25:27.000Z</Time>
            <Position>
              <LatitudeDegrees>41.9814602471888065338134765625</LatitudeDegrees>
              <LongitudeDegrees>2.89980414323508739471435546875</LongitudeDegrees>
            </Position>
            <AltitudeMeters>406.600006103515625</AltitudeMeters>
            <DistanceMeters>NAN</DistanceMeters>
          </Trackpoint>
          <Trackpoint>
            <Time>2020-02-15T10:25:28.000Z</Time>
            <Position>
              <LatitudeDegrees>41.9814615882933139801025390625</LatitudeDegrees>
              <LongitudeDegrees>2.899808920919895172119140625</LongitudeDegrees>
            </Position>
            <AltitudeMeters>406.600006103515625</AltitudeMeters>
            <DistanceMeters>NAN</DistanceMeters>
          </Trackpoint>
          <Trackpoint>
            <Time>2020-02-15T10:25:29.000Z</Time>
            <Position>
              <LatitudeDegrees>41.98145873844623565673828125</LatitudeDegrees>
              <LongitudeDegrees>2.89980984292924404144287109375</LongitudeDegrees>
            </Position>
            <AltitudeMeters>406.600006103515625</AltitudeMeters>
            <DistanceMeters>NAN</DistanceMeters>
          </Trackpoint>
          <Trackpoint>
            <Time>2020-02-15T10:25:32.000Z</Time>
            <Position>
              <LatitudeDegrees>41.981460750102996826171875</LatitudeDegrees>
              <LongitudeDegrees>2.89981436915695667266845703125</LongitudeDegrees>
            </Position>
            <AltitudeMeters>407</AltitudeMeters>
            <DistanceMeters>NAN</DistanceMeters>
          </Trackpoint>
          <Trackpoint>
            <Time>2020-02-15T10:25:36.000Z</Time>
            <Position>
              <LatitudeDegrees>41.9814605824649333953857421875</LatitudeDegrees>
              <LongitudeDegrees>2.89980833418667316436767578125</LongitudeDegrees>
            </Position>
            <AltitudeMeters>407.20001220703125</AltitudeMeters>
            <DistanceMeters>NAN</DistanceMeters>
          </Trackpoint>
          <Trackpoint>
            <Time>2020-02-15T10:25:39.000Z</Time>
            <Position>
              <LatitudeDegrees>41.98145982809364795684814453125</LatitudeDegrees>
              <LongitudeDegrees>2.89980649016797542572021484375</LongitudeDegrees>
            </Position>
            <AltitudeMeters>407.399993896484375</AltitudeMeters>
            <DistanceMeters>NAN</DistanceMeters>
          </Trackpoint>
          <Trackpoint>
            <Time>2020-02-15T10:25:43.000Z</Time>
            <Position>
              <LatitudeDegrees>41.9814317487180233001708984375</LatitudeDegrees>
              <LongitudeDegrees>2.89979584515094757080078125</LongitudeDegrees>
            </Position>
            <AltitudeMeters>407.399993896484375</AltitudeMeters>
            <DistanceMeters>NAN</DistanceMeters>
          </Trackpoint>
          <Trackpoint>
            <Time>2020-02-15T10:25:44.000Z</Time>
            <Position>
              <LatitudeDegrees>41.9814186729490756988525390625</LatitudeDegrees>
              <LongitudeDegrees>2.89978570304811000823974609375</LongitudeDegrees>
            </Position>
            <AltitudeMeters>407.399993896484375</AltitudeMeters>
            <DistanceMeters>NAN</DistanceMeters>
          </Trackpoint>
          <Trackpoint>
            <Time>2020-02-15T10:25:46.000Z</Time>
            <Position>
              <LatitudeDegrees>41.9813801161944866180419921875</LatitudeDegrees>
              <LongitudeDegrees>2.89975066669285297393798828125</LongitudeDegrees>
            </Position>
            <AltitudeMeters>407.20001220703125</AltitudeMeters>
            <DistanceMeters>NAN</DistanceMeters>
          </Trackpoint>
          <Trackpoint>
            <Time>2020-02-15T10:25:47.000Z</Time>
            <Position>
              <LatitudeDegrees>41.98135388083755970001220703125</LatitudeDegrees>
              <LongitudeDegrees>2.8997356630861759185791015625</LongitudeDegrees>
            </Position>
            <AltitudeMeters>407.20001220703125</AltitudeMeters>
            <DistanceMeters>NAN</DistanceMeters>
          </Trackpoint>
          <Trackpoint>
            <Time>2020-02-15T10:25:48.000Z</Time>
            <Position>
              <LatitudeDegrees>41.98132555000483989715576171875</LatitudeDegrees>
              <LongitudeDegrees>2.89971998892724514007568359375</LongitudeDegrees>
            </Position>
            <AltitudeMeters>407.399993896484375</AltitudeMeters>
            <DistanceMeters>NAN</DistanceMeters>
          </Trackpoint>
          <Trackpoint>
            <Time>2020-02-15T10:25:51.000Z</Time>
            <Position>
              <LatitudeDegrees>41.98124256916344165802001953125</LatitudeDegrees>
              <LongitudeDegrees>2.899654023349285125732421875</LongitudeDegrees>
            </Position>
            <AltitudeMeters>407.399993896484375</AltitudeMeters>
            <DistanceMeters>NAN</DistanceMeters>
          </Trackpoint>
          <Trackpoint>
            <Time>2020-02-15T10:25:53.000Z</Time>
            <Position>
              <LatitudeDegrees>41.98118289001286029815673828125</LatitudeDegrees>
              <LongitudeDegrees>2.899605743587017059326171875</LongitudeDegrees>
            </Position>
            <AltitudeMeters>407.20001220703125</AltitudeMeters>
            <DistanceMeters>NAN</DistanceMeters>
          </Trackpoint>
          <Trackpoint>
            <Time>2020-02-15T10:25:54.000Z</Time>
            <Position>
              <LatitudeDegrees>41.98115355335175991058349609375</LatitudeDegrees>
              <LongitudeDegrees>2.899582944810390472412109375</LongitudeDegrees>
            </Position>
            <AltitudeMeters>407.20001220703125</AltitudeMeters>
            <DistanceMeters>NAN</DistanceMeters>
          </Trackpoint>
          <Trackpoint>
            <Time>2020-02-15T10:25:59.000Z</Time>
            <Position>
              <LatitudeDegrees>41.981004439294338226318359375</LatitudeDegrees>
              <LongitudeDegrees>2.89944003336131572723388671875</LongitudeDegrees>
            </Position>
            <AltitudeMeters>406.79998779296875</AltitudeMeters>
            <DistanceMeters>NAN</DistanceMeters>
          </Trackpoint>
          <Trackpoint>
            <Time>2020-02-15T10:26:00.000Z</Time>
            <Position>
              <LatitudeDegrees>41.980976276099681854248046875</LatitudeDegrees>
              <LongitudeDegrees>2.8994050808250904083251953125</LongitudeDegrees>
            </Position>
            <AltitudeMeters>406.600006103515625</AltitudeMeters>
            <DistanceMeters>NAN</DistanceMeters>
          </Trackpoint>
          <Trackpoint>
            <Time>2020-02-15T10:26:02.000Z</Time>
            <Position>
              <LatitudeDegrees>41.98091651313006877899169921875</LatitudeDegrees>
              <LongitudeDegrees>2.89933643303811550140380859375</LongitudeDegrees>
            </Position>
            <AltitudeMeters>406.399993896484375</AltitudeMeters>
            <DistanceMeters>NAN</DistanceMeters>
          </Trackpoint>
          <Trackpoint>
            <Time>2020-02-15T10:26:03.000Z</Time>
            <Position>
              <LatitudeDegrees>41.9808825664222240447998046875</LatitudeDegrees>
              <LongitudeDegrees>2.899303324520587921142578125</LongitudeDegrees>
            </Position>
            <AltitudeMeters>406.399993896484375</AltitudeMeters>
            <DistanceMeters>NAN</DistanceMeters>
          </Trackpoint>
          <Trackpoint>
            <Time>2020-02-15T10:26:05.000Z</Time>
            <Position>
              <LatitudeDegrees>41.9808232225477695465087890625</LatitudeDegrees>
              <LongitudeDegrees>2.8992350958287715911865234375</LongitudeDegrees>
            </Position>
            <AltitudeMeters>406.20001220703125</AltitudeMeters>
            <DistanceMeters>NAN</DistanceMeters>
          </Trackpoint>
          <Trackpoint>
            <Time>2020-02-15T10:26:06.000Z</Time>
            <Position>
              <LatitudeDegrees>41.98079355061054229736328125</LatitudeDegrees>
              <LongitudeDegrees>2.89920014329254627227783203125</LongitudeDegrees>
            </Position>
            <AltitudeMeters>406.20001220703125</AltitudeMeters>
            <DistanceMeters>NAN</DistanceMeters>
          </Trackpoint>
          <Trackpoint>
            <Time>2020-02-15T10:26:12.000Z</Time>
            <Position>
              <LatitudeDegrees>41.98060453869402408599853515625</LatitudeDegrees>
              <LongitudeDegrees>2.8989856503903865814208984375</LongitudeDegrees>
            </Position>
            <AltitudeMeters>405.600006103515625</AltitudeMeters>
            <DistanceMeters>NAN</DistanceMeters>
          </Trackpoint>
          <Trackpoint>
            <Time>2020-02-15T10:26:13.000Z</Time>
            <Position>
              <LatitudeDegrees>41.98057360947132110595703125</LatitudeDegrees>
              <LongitudeDegrees>2.8989514522254467010498046875</LongitudeDegrees>
            </Position>
            <AltitudeMeters>405.600006103515625</AltitudeMeters>
            <DistanceMeters>NAN</DistanceMeters>
          </Trackpoint>
          <Trackpoint>
            <Time>2020-02-15T10:26:14.000Z</Time>
            <Position>
              <LatitudeDegrees>41.980543769896030426025390625</LatitudeDegrees>
              <LongitudeDegrees>2.89891742169857025146484375</LongitudeDegrees>
            </Position>
            <AltitudeMeters>405.399993896484375</AltitudeMeters>
            <DistanceMeters>NAN</DistanceMeters>
          </Trackpoint>
          <Trackpoint>
            <Time>2020-02-15T10:26:15.000Z</Time>
            <Position>
              <LatitudeDegrees>41.980515606701374053955078125</LatitudeDegrees>
              <LongitudeDegrees>2.89888531900942325592041015625</LongitudeDegrees>
            </Position>
            <AltitudeMeters>405.399993896484375</AltitudeMeters>
            <DistanceMeters>NAN</DistanceMeters>
          </Trackpoint>
          <Trackpoint>
            <Time>2020-02-15T10:26:16.000Z</Time>
            <Position>
              <LatitudeDegrees>41.9804899580776691436767578125</LatitudeDegrees>
              <LongitudeDegrees>2.898854054510593414306640625</LongitudeDegrees>
            </Position>
            <AltitudeMeters>405.600006103515625</AltitudeMeters>
            <DistanceMeters>NAN</DistanceMeters>
          </Trackpoint>
          <Trackpoint>
            <Time>2020-02-15T10:26:17.000Z</Time>
            <Position>
              <LatitudeDegrees>41.9804616272449493408203125</LatitudeDegrees>
              <LongitudeDegrees>2.89882346056401729583740234375</LongitudeDegrees>
            </Position>
            <AltitudeMeters>405.399993896484375</AltitudeMeters>
            <DistanceMeters>NAN</DistanceMeters>
          </Trackpoint>
          <Trackpoint>
            <Time>2020-02-15T10:26:18.000Z</Time>
            <Position>
              <LatitudeDegrees>41.98043405078351497650146484375</LatitudeDegrees>
              <LongitudeDegrees>2.898797728121280670166015625</LongitudeDegrees>
            </Position>
            <AltitudeMeters>405.399993896484375</AltitudeMeters>
            <DistanceMeters>NAN</DistanceMeters>
          </Trackpoint>
          <Trackpoint>
            <Time>2020-02-15T10:26:19.000Z</Time>
            <Position>
              <LatitudeDegrees>41.980407647788524627685546875</LatitudeDegrees>
              <LongitudeDegrees>2.898774258792400360107421875</LongitudeDegrees>
            </Position>
            <AltitudeMeters>405.600006103515625</AltitudeMeters>
            <DistanceMeters>NAN</DistanceMeters>
          </Trackpoint>
          <Trackpoint>
            <Time>2020-02-15T10:26:20.000Z</Time>
            <Position>
              <LatitudeDegrees>41.9803843460977077484130859375</LatitudeDegrees>
              <LongitudeDegrees>2.8987504541873931884765625</LongitudeDegrees>
            </Position>
            <AltitudeMeters>405.399993896484375</AltitudeMeters>
            <DistanceMeters>NAN</DistanceMeters>
          </Trackpoint>
          <Trackpoint>
            <Time>2020-02-15T10:26:21.000Z</Time>
            <Position>
              <LatitudeDegrees>41.9803598709404468536376953125</LatitudeDegrees>
              <LongitudeDegrees>2.89872564375400543212890625</LongitudeDegrees>
            </Position>
            <AltitudeMeters>405.600006103515625</AltitudeMeters>
            <DistanceMeters>NAN</DistanceMeters>
          </Trackpoint>
          <Trackpoint>
            <Time>2020-02-15T10:26:22.000Z</Time>
            <Position>
              <LatitudeDegrees>41.9803337194025516510009765625</LatitudeDegrees>
              <LongitudeDegrees>2.89869924075901508331298828125</LongitudeDegrees>
            </Position>
            <AltitudeMeters>405.600006103515625</AltitudeMeters>
            <DistanceMeters>NAN</DistanceMeters>
          </Trackpoint>
          <Trackpoint>
            <Time>2020-02-15T10:26:23.000Z</Time>
            <Position>
              <LatitudeDegrees>41.98031075298786163330078125</LatitudeDegrees>
              <LongitudeDegrees>2.8986725024878978729248046875</LongitudeDegrees>
            </Position>
            <AltitudeMeters>405.79998779296875</AltitudeMeters>
            <DistanceMeters>NAN</DistanceMeters>
          </Trackpoint>
          <Trackpoint>
            <Time>2020-02-15T10:26:24.000Z</Time>
            <Position>
              <LatitudeDegrees>41.980284936726093292236328125</LatitudeDegrees>
              <LongitudeDegrees>2.89864383637905120849609375</LongitudeDegrees>
            </Position>
            <AltitudeMeters>405.79998779296875</AltitudeMeters>
            <DistanceMeters>NAN</DistanceMeters>
          </Trackpoint>
          <Trackpoint>
            <Time>2020-02-15T10:26:25.000Z</Time>
            <Position>
              <LatitudeDegrees>41.9802579469978809356689453125</LatitudeDegrees>
              <LongitudeDegrees>2.89861642755568027496337890625</LongitudeDegrees>
            </Position>
            <AltitudeMeters>406</AltitudeMeters>
            <DistanceMeters>NAN</DistanceMeters>
          </Trackpoint>
          <Trackpoint>
            <Time>2020-02-15T10:26:26.000Z</Time>
            <Position>
              <LatitudeDegrees>41.980233304202556610107421875</LatitudeDegrees>
              <LongitudeDegrees>2.89859077893197536468505859375</LongitudeDegrees>
            </Position>
            <AltitudeMeters>406.20001220703125</AltitudeMeters>
            <DistanceMeters>NAN</DistanceMeters>
          </Trackpoint>
          <Trackpoint>
            <Time>2020-02-15T10:26:27.000Z</Time>
            <Position>
              <LatitudeDegrees>41.98020891286432743072509765625</LatitudeDegrees>
              <LongitudeDegrees>2.89856781251728534698486328125</LongitudeDegrees>
            </Position>
            <AltitudeMeters>406.20001220703125</AltitudeMeters>
            <DistanceMeters>NAN</DistanceMeters>
          </Trackpoint>
          <Trackpoint>
            <Time>2020-02-15T10:26:28.000Z</Time>
            <Position>
              <LatitudeDegrees>41.98018443770706653594970703125</LatitudeDegrees>
              <LongitudeDegrees>2.89854057133197784423828125</LongitudeDegrees>
            </Position>
            <AltitudeMeters>406.399993896484375</AltitudeMeters>
            <DistanceMeters>NAN</DistanceMeters>
          </Trackpoint>
          <Trackpoint>
            <Time>2020-02-15T10:26:29.000Z</Time>
            <Position>
              <LatitudeDegrees>41.9801583699882030487060546875</LatitudeDegrees>
              <LongitudeDegrees>2.89850997738540172576904296875</LongitudeDegrees>
            </Position>
            <AltitudeMeters>406.399993896484375</AltitudeMeters>
            <DistanceMeters>NAN</DistanceMeters>
          </Trackpoint>
          <Trackpoint>
            <Time>2020-02-15T10:26:30.000Z</Time>
            <Position>
              <LatitudeDegrees>41.9801281951367855072021484375</LatitudeDegrees>
              <LongitudeDegrees>2.898478209972381591796875</LongitudeDegrees>
            </Position>
            <AltitudeMeters>406.79998779296875</AltitudeMeters>
            <DistanceMeters>NAN</DistanceMeters>
          </Trackpoint>
          <Trackpoint>
            <Time>2020-02-15T10:26:31.000Z</Time>
            <Position>
              <LatitudeDegrees>41.9800953380763530731201171875</LatitudeDegrees>
              <LongitudeDegrees>2.8984492085874080657958984375</LongitudeDegrees>
            </Position>
            <AltitudeMeters>407</AltitudeMeters>
            <DistanceMeters>NAN</DistanceMeters>
          </Trackpoint>
          <Trackpoint>
            <Time>2020-02-15T10:26:32.000Z</Time>
            <Position>
              <LatitudeDegrees>41.980059631168842315673828125</LatitudeDegrees>
              <LongitudeDegrees>2.898422218859195709228515625</LongitudeDegrees>
            </Position>
            <AltitudeMeters>407.399993896484375</AltitudeMeters>
            <DistanceMeters>NAN</DistanceMeters>
          </Trackpoint>
          <Trackpoint>
            <Time>2020-02-15T10:26:33.000Z</Time>
            <Position>
              <LatitudeDegrees>41.980021409690380096435546875</LatitudeDegrees>
              <LongitudeDegrees>2.89839380420744419097900390625</LongitudeDegrees>
            </Position>
            <AltitudeMeters>407.600006103515625</AltitudeMeters>
            <DistanceMeters>NAN</DistanceMeters>
          </Trackpoint>
          <Trackpoint>
            <Time>2020-02-15T10:26:34.000Z</Time>
            <Position>
              <LatitudeDegrees>41.97998126037418842315673828125</LatitudeDegrees>
              <LongitudeDegrees>2.8983667306602001190185546875</LongitudeDegrees>
            </Position>
            <AltitudeMeters>407.79998779296875</AltitudeMeters>
            <DistanceMeters>NAN</DistanceMeters>
          </Trackpoint>
          <Trackpoint>
            <Time>2020-02-15T10:26:35.000Z</Time>
            <Position>
              <LatitudeDegrees>41.97993985377252101898193359375</LatitudeDegrees>
              <LongitudeDegrees>2.89834787137806415557861328125</LongitudeDegrees>
            </Position>
            <AltitudeMeters>408</AltitudeMeters>
            <DistanceMeters>NAN</DistanceMeters>
          </Trackpoint>
          <Trackpoint>
            <Time>2020-02-15T10:26:36.000Z</Time>
            <Position>
              <LatitudeDegrees>41.97989928536117076873779296875</LatitudeDegrees>
              <LongitudeDegrees>2.89833362214267253875732421875</LongitudeDegrees>
            </Position>
            <AltitudeMeters>408.20001220703125</AltitudeMeters>
            <DistanceMeters>NAN</DistanceMeters>
          </Trackpoint>
          <Trackpoint>
            <Time>2020-02-15T10:26:37.000Z</Time>
            <Position>
              <LatitudeDegrees>41.97985720820724964141845703125</LatitudeDegrees>
              <LongitudeDegrees>2.89832054637372493743896484375</LongitudeDegrees>
            </Position>
            <AltitudeMeters>408.600006103515625</AltitudeMeters>
            <DistanceMeters>NAN</DistanceMeters>
          </Trackpoint>
          <Trackpoint>
            <Time>2020-02-15T10:26:38.000Z</Time>
            <Position>
              <LatitudeDegrees>41.97981529869139194488525390625</LatitudeDegrees>
              <LongitudeDegrees>2.8983110748231410980224609375</LongitudeDegrees>
            </Position>
            <AltitudeMeters>408.79998779296875</AltitudeMeters>
            <DistanceMeters>NAN</DistanceMeters>
          </Trackpoint>
          <Trackpoint>
            <Time>2020-02-15T10:26:39.000Z</Time>
            <Position>
              <LatitudeDegrees>41.97977364063262939453125</LatitudeDegrees>
              <LongitudeDegrees>2.89830713532865047454833984375</LongitudeDegrees>
            </Position>
            <AltitudeMeters>409.20001220703125</AltitudeMeters>
            <DistanceMeters>NAN</DistanceMeters>
          </Trackpoint>
          <Trackpoint>
            <Time>2020-02-15T10:26:40.000Z</Time>
            <Position>
              <LatitudeDegrees>41.9797315634787082672119140625</LatitudeDegrees>
              <LongitudeDegrees>2.89830579422414302825927734375</LongitudeDegrees>
            </Position>
            <AltitudeMeters>409.20001220703125</AltitudeMeters>
            <DistanceMeters>NAN</DistanceMeters>
          </Trackpoint>
          <Trackpoint>
            <Time>2020-02-15T10:26:41.000Z</Time>
            <Position>
              <LatitudeDegrees>41.97969116270542144775390625</LatitudeDegrees>
              <LongitudeDegrees>2.8983053751289844512939453125</LongitudeDegrees>
            </Position>
            <AltitudeMeters>409.399993896484375</AltitudeMeters>
            <DistanceMeters>NAN</DistanceMeters>
          </Trackpoint>
          <Trackpoint>
            <Time>2020-02-15T10:26:42.000Z</Time>
            <Position>
              <LatitudeDegrees>41.97965118102729320526123046875</LatitudeDegrees>
              <LongitudeDegrees>2.89830445311963558197021484375</LongitudeDegrees>
            </Position>
            <AltitudeMeters>409.600006103515625</AltitudeMeters>
            <DistanceMeters>NAN</DistanceMeters>
          </Trackpoint>
          <Trackpoint>
            <Time>2020-02-15T10:26:43.000Z</Time>
            <Position>
              <LatitudeDegrees>41.979611702263355255126953125</LatitudeDegrees>
              <LongitudeDegrees>2.89830185472965240478515625</LongitudeDegrees>
            </Position>
            <AltitudeMeters>410</AltitudeMeters>
            <DistanceMeters>NAN</DistanceMeters>
          </Trackpoint>
          <Trackpoint>
            <Time>2020-02-15T10:26:44.000Z</Time>
            <Position>
              <LatitudeDegrees>41.9795719720423221588134765625</LatitudeDegrees>
              <LongitudeDegrees>2.89829649031162261962890625</LongitudeDegrees>
            </Position>
            <AltitudeMeters>410.20001220703125</AltitudeMeters>
            <DistanceMeters>NAN</DistanceMeters>
          </Trackpoint>
          <Trackpoint>
            <Time>2020-02-15T10:26:45.000Z</Time>
            <Position>
              <LatitudeDegrees>41.9795335829257965087890625</LatitudeDegrees>
              <LongitudeDegrees>2.89828835986554622650146484375</LongitudeDegrees>
            </Position>
            <AltitudeMeters>410.20001220703125</AltitudeMeters>
            <DistanceMeters>NAN</DistanceMeters>
          </Trackpoint>
          <Trackpoint>
            <Time>2020-02-15T10:26:46.000Z</Time>
            <Position>
              <LatitudeDegrees>41.97949460707604885101318359375</LatitudeDegrees>
              <LongitudeDegrees>2.89827595464885234832763671875</LongitudeDegrees>
            </Position>
            <AltitudeMeters>410.20001220703125</AltitudeMeters>
            <DistanceMeters>NAN</DistanceMeters>
          </Trackpoint>
          <Trackpoint>
            <Time>2020-02-15T10:26:48.000Z</Time>
            <Position>
              <LatitudeDegrees>41.9794187508523464202880859375</LatitudeDegrees>
              <LongitudeDegrees>2.89823882281780242919921875</LongitudeDegrees>
            </Position>
            <AltitudeMeters>410.399993896484375</AltitudeMeters>
            <DistanceMeters>NAN</DistanceMeters>
          </Trackpoint>
          <Trackpoint>
            <Time>2020-02-15T10:26:49.000Z</Time>
            <Position>
              <LatitudeDegrees>41.9793825410306453704833984375</LatitudeDegrees>
              <LongitudeDegrees>2.89821627549827098846435546875</LongitudeDegrees>
            </Position>
            <AltitudeMeters>410.600006103515625</AltitudeMeters>
            <DistanceMeters>NAN</DistanceMeters>
          </Trackpoint>
          <Trackpoint>
            <Time>2020-02-15T10:26:51.000Z</Time>
            <Position>
              <LatitudeDegrees>41.9793151505291461944580078125</LatitudeDegrees>
              <LongitudeDegrees>2.898164056241512298583984375</LongitudeDegrees>
            </Position>
            <AltitudeMeters>410.79998779296875</AltitudeMeters>
            <DistanceMeters>NAN</DistanceMeters>
          </Trackpoint>
          <Trackpoint>
            <Time>2020-02-15T10:26:52.000Z</Time>
            <Position>
              <LatitudeDegrees>41.97928304783999919891357421875</LatitudeDegrees>
              <LongitudeDegrees>2.8981357254087924957275390625</LongitudeDegrees>
            </Position>
            <AltitudeMeters>410.600006103515625</AltitudeMeters>
            <DistanceMeters>NAN</DistanceMeters>
          </Trackpoint>
          <Trackpoint>
            <Time>2020-02-15T10:26:54.000Z</Time>
            <Position>
              <LatitudeDegrees>41.97922454215586185455322265625</LatitudeDegrees>
              <LongitudeDegrees>2.89808283559978008270263671875</LongitudeDegrees>
            </Position>
            <AltitudeMeters>411</AltitudeMeters>
            <DistanceMeters>NAN</DistanceMeters>
          </Trackpoint>
          <Trackpoint>
            <Time>2020-02-15T10:26:55.000Z</Time>
            <Position>
              <LatitudeDegrees>41.97919738478958606719970703125</LatitudeDegrees>
              <LongitudeDegrees>2.8980576060712337493896484375</LongitudeDegrees>
            </Position>
            <AltitudeMeters>411</AltitudeMeters>
            <DistanceMeters>NAN</DistanceMeters>
          </Trackpoint>
          <Trackpoint>
            <Time>2020-02-15T10:26:56.000Z</Time>
            <Position>
              <LatitudeDegrees>41.97917341254651546478271484375</LatitudeDegrees>
              <LongitudeDegrees>2.89803455583751201629638671875</LongitudeDegrees>
            </Position>
            <AltitudeMeters>411</AltitudeMeters>
            <DistanceMeters>NAN</DistanceMeters>
          </Trackpoint>
          <Trackpoint>
            <Time>2020-02-15T10:26:57.000Z</Time>
            <Position>
              <LatitudeDegrees>41.97914910502731800079345703125</LatitudeDegrees>
              <LongitudeDegrees>2.89801309816539287567138671875</LongitudeDegrees>
            </Position>
            <AltitudeMeters>411</AltitudeMeters>
            <DistanceMeters>NAN</DistanceMeters>
          </Trackpoint>
          <Trackpoint>
            <Time>2020-02-15T10:26:58.000Z</Time>
            <Position>
              <LatitudeDegrees>41.97912815026938915252685546875</LatitudeDegrees>
              <LongitudeDegrees>2.8979915566742420196533203125</LongitudeDegrees>
            </Position>
            <AltitudeMeters>411</AltitudeMeters>
            <DistanceMeters>NAN</DistanceMeters>
          </Trackpoint>
          <Trackpoint>
            <Time>2020-02-15T10:26:59.000Z</Time>
            <Position>
              <LatitudeDegrees>41.97910937480628490447998046875</LatitudeDegrees>
              <LongitudeDegrees>2.8979687578976154327392578125</LongitudeDegrees>
            </Position>
            <AltitudeMeters>411.20001220703125</AltitudeMeters>
            <DistanceMeters>NAN</DistanceMeters>
          </Trackpoint>
          <Trackpoint>
            <Time>2020-02-15T10:27:00.000Z</Time>
            <Position>
              <LatitudeDegrees>41.97908976115286350250244140625</LatitudeDegrees>
              <LongitudeDegrees>2.89794503711163997650146484375</LongitudeDegrees>
            </Position>
            <AltitudeMeters>411.20001220703125</AltitudeMeters>
            <DistanceMeters>NAN</DistanceMeters>
          </Trackpoint>
          <Trackpoint>
            <Time>2020-02-15T10:27:01.000Z</Time>
            <Position>
              <LatitudeDegrees>41.97907065041363239288330078125</LatitudeDegrees>
              <LongitudeDegrees>2.89792156778275966644287109375</LongitudeDegrees>
            </Position>
            <AltitudeMeters>411.20001220703125</AltitudeMeters>
            <DistanceMeters>NAN</DistanceMeters>
          </Trackpoint>
          <Trackpoint>
            <Time>2020-02-15T10:27:02.000Z</Time>
            <Position>
              <LatitudeDegrees>41.97905170731246471405029296875</LatitudeDegrees>
              <LongitudeDegrees>2.8978946618735790252685546875</LongitudeDegrees>
            </Position>
            <AltitudeMeters>411.20001220703125</AltitudeMeters>
            <DistanceMeters>NAN</DistanceMeters>
          </Trackpoint>
          <Trackpoint>
            <Time>2020-02-15T10:27:03.000Z</Time>
            <Position>
              <LatitudeDegrees>41.97903242893517017364501953125</LatitudeDegrees>
              <LongitudeDegrees>2.897866331040859222412109375</LongitudeDegrees>
            </Position>
            <AltitudeMeters>411.20001220703125</AltitudeMeters>
            <DistanceMeters>NAN</DistanceMeters>
          </Trackpoint>
          <Trackpoint>
            <Time>2020-02-15T10:27:04.000Z</Time>
            <Position>
              <LatitudeDegrees>41.97901415638625621795654296875</LatitudeDegrees>
              <LongitudeDegrees>2.89783892221748828887939453125</LongitudeDegrees>
            </Position>
            <AltitudeMeters>411.399993896484375</AltitudeMeters>
            <DistanceMeters>NAN</DistanceMeters>
          </Trackpoint>
          <Trackpoint>
            <Time>2020-02-15T10:27:05.000Z</Time>
            <Position>
              <LatitudeDegrees>41.97899672202765941619873046875</LatitudeDegrees>
              <LongitudeDegrees>2.89781159721314907073974609375</LongitudeDegrees>
            </Position>
            <AltitudeMeters>411.600006103515625</AltitudeMeters>
            <DistanceMeters>NAN</DistanceMeters>
          </Trackpoint>
          <Trackpoint>
            <Time>2020-02-15T10:27:06.000Z</Time>
            <Position>
              <LatitudeDegrees>41.9789825566112995147705078125</LatitudeDegrees>
              <LongitudeDegrees>2.89778259582817554473876953125</LongitudeDegrees>
            </Position>
            <AltitudeMeters>411.600006103515625</AltitudeMeters>
            <DistanceMeters>NAN</DistanceMeters>
          </Trackpoint>
          <Trackpoint>
            <Time>2020-02-15T10:27:07.000Z</Time>
            <Position>
              <LatitudeDegrees>41.9789637811481952667236328125</LatitudeDegrees>
              <LongitudeDegrees>2.89774957112967967987060546875</LongitudeDegrees>
            </Position>
            <AltitudeMeters>411.600006103515625</AltitudeMeters>
            <DistanceMeters>NAN</DistanceMeters>
          </Trackpoint>
          <Trackpoint>
            <Time>2020-02-15T10:27:08.000Z</Time>
            <Position>
              <LatitudeDegrees>41.9789483584463596343994140625</LatitudeDegrees>
              <LongitudeDegrees>2.89771310985088348388671875</LongitudeDegrees>
            </Position>
            <AltitudeMeters>411.79998779296875</AltitudeMeters>
            <DistanceMeters>NAN</DistanceMeters>
          </Trackpoint>
          <Trackpoint>
            <Time>2020-02-15T10:27:09.000Z</Time>
            <Position>
              <LatitudeDegrees>41.97893251664936542510986328125</LatitudeDegrees>
              <LongitudeDegrees>2.89767446927726268768310546875</LongitudeDegrees>
            </Position>
            <AltitudeMeters>411.79998779296875</AltitudeMeters>
            <DistanceMeters>NAN</DistanceMeters>
          </Trackpoint>
          <Trackpoint>
            <Time>2020-02-15T10:27:10.000Z</Time>
            <Position>
              <LatitudeDegrees>41.97891541756689548492431640625</LatitudeDegrees>
              <LongitudeDegrees>2.89763624779880046844482421875</LongitudeDegrees>
            </Position>
            <AltitudeMeters>412.20001220703125</AltitudeMeters>
            <DistanceMeters>NAN</DistanceMeters>
          </Trackpoint>
          <Trackpoint>
            <Time>2020-02-15T10:27:11.000Z</Time>
            <Position>
              <LatitudeDegrees>41.978896558284759521484375</LatitudeDegrees>
              <LongitudeDegrees>2.89759903214871883392333984375</LongitudeDegrees>
            </Position>
            <AltitudeMeters>412.20001220703125</AltitudeMeters>
            <DistanceMeters>NAN</DistanceMeters>
          </Trackpoint>
          <Trackpoint>
            <Time>2020-02-15T10:27:12.000Z</Time>
            <Position>
              <LatitudeDegrees>41.97887585498392581939697265625</LatitudeDegrees>
              <LongitudeDegrees>2.89756047539412975311279296875</LongitudeDegrees>
            </Position>
            <AltitudeMeters>412.399993896484375</AltitudeMeters>
            <DistanceMeters>NAN</DistanceMeters>
          </Trackpoint>
          <Trackpoint>
            <Time>2020-02-15T10:27:13.000Z</Time>
            <Position>
              <LatitudeDegrees>41.97885925881564617156982421875</LatitudeDegrees>
              <LongitudeDegrees>2.89752359502017498016357421875</LongitudeDegrees>
            </Position>
            <AltitudeMeters>412.79998779296875</AltitudeMeters>
            <DistanceMeters>NAN</DistanceMeters>
          </Trackpoint>
          <Trackpoint>
            <Time>2020-02-15T10:27:14.000Z</Time>
            <Position>
              <LatitudeDegrees>41.97884417138993740081787109375</LatitudeDegrees>
              <LongitudeDegrees>2.8974856249988079071044921875</LongitudeDegrees>
            </Position>
            <AltitudeMeters>413</AltitudeMeters>
            <DistanceMeters>NAN</DistanceMeters>
          </Trackpoint>
          <Trackpoint>
            <Time>2020-02-15T10:27:15.000Z</Time>
            <Position>
              <LatitudeDegrees>41.97883226908743381500244140625</LatitudeDegrees>
              <LongitudeDegrees>2.897447235882282257080078125</LongitudeDegrees>
            </Position>
            <AltitudeMeters>413.20001220703125</AltitudeMeters>
            <DistanceMeters>NAN</DistanceMeters>
          </Trackpoint>
          <Trackpoint>
            <Time>2020-02-15T10:27:16.000Z</Time>
            <Position>
              <LatitudeDegrees>41.97882120497524738311767578125</LatitudeDegrees>
              <LongitudeDegrees>2.89740675128996372222900390625</LongitudeDegrees>
            </Position>
            <AltitudeMeters>413.399993896484375</AltitudeMeters>
            <DistanceMeters>NAN</DistanceMeters>
          </Trackpoint>
          <Trackpoint>
            <Time>2020-02-15T10:27:17.000Z</Time>
            <Position>
              <LatitudeDegrees>41.97880796156823635101318359375</LatitudeDegrees>
              <LongitudeDegrees>2.89736668579280376434326171875</LongitudeDegrees>
            </Position>
            <AltitudeMeters>413.600006103515625</AltitudeMeters>
            <DistanceMeters>NAN</DistanceMeters>
          </Trackpoint>
          <Trackpoint>
            <Time>2020-02-15T10:27:18.000Z</Time>
            <Position>
              <LatitudeDegrees>41.97879103012382984161376953125</LatitudeDegrees>
              <LongitudeDegrees>2.8973260335624217987060546875</LongitudeDegrees>
            </Position>
            <AltitudeMeters>413.79998779296875</AltitudeMeters>
            <DistanceMeters>NAN</DistanceMeters>
          </Trackpoint>
          <Trackpoint>
            <Time>2020-02-15T10:27:19.000Z</Time>
            <Position>
              <LatitudeDegrees>41.9787736795842647552490234375</LatitudeDegrees>
              <LongitudeDegrees>2.8972831182181835174560546875</LongitudeDegrees>
            </Position>
            <AltitudeMeters>414</AltitudeMeters>
            <DistanceMeters>NAN</DistanceMeters>
          </Trackpoint>
          <Trackpoint>
            <Time>2020-02-15T10:27:20.000Z</Time>
            <Position>
              <LatitudeDegrees>41.97875783778727054595947265625</LatitudeDegrees>
              <LongitudeDegrees>2.8972391970455646514892578125</LongitudeDegrees>
            </Position>
            <AltitudeMeters>414.399993896484375</AltitudeMeters>
            <DistanceMeters>NAN</DistanceMeters>
          </Trackpoint>
          <Trackpoint>
            <Time>2020-02-15T10:27:21.000Z</Time>
            <Position>
              <LatitudeDegrees>41.9787428341805934906005859375</LatitudeDegrees>
              <LongitudeDegrees>2.897196114063262939453125</LongitudeDegrees>
            </Position>
            <AltitudeMeters>414.399993896484375</AltitudeMeters>
            <DistanceMeters>NAN</DistanceMeters>
          </Trackpoint>
          <Trackpoint>
            <Time>2020-02-15T10:27:22.000Z</Time>
            <Position>
              <LatitudeDegrees>41.97872347198426723480224609375</LatitudeDegrees>
              <LongitudeDegrees>2.89715118706226348876953125</LongitudeDegrees>
            </Position>
            <AltitudeMeters>414.600006103515625</AltitudeMeters>
            <DistanceMeters>NAN</DistanceMeters>
          </Trackpoint>
          <Trackpoint>
            <Time>2020-02-15T10:27:23.000Z</Time>
            <Position>
              <LatitudeDegrees>41.978698410093784332275390625</LatitudeDegrees>
              <LongitudeDegrees>2.89710785262286663055419921875</LongitudeDegrees>
            </Position>
            <AltitudeMeters>414.600006103515625</AltitudeMeters>
            <DistanceMeters>NAN</DistanceMeters>
          </Trackpoint>
          <Trackpoint>
            <Time>2020-02-15T10:27:24.000Z</Time>
            <Position>
              <LatitudeDegrees>41.97867468930780887603759765625</LatitudeDegrees>
              <LongitudeDegrees>2.8970715589821338653564453125</LongitudeDegrees>
            </Position>
            <AltitudeMeters>415</AltitudeMeters>
            <DistanceMeters>NAN</DistanceMeters>
          </Trackpoint>
          <Trackpoint>
            <Time>2020-02-15T10:27:25.000Z</Time>
            <Position>
              <LatitudeDegrees>41.97864568792283535003662109375</LatitudeDegrees>
              <LongitudeDegrees>2.89704012684524059295654296875</LongitudeDegrees>
            </Position>
            <AltitudeMeters>415.20001220703125</AltitudeMeters>
            <DistanceMeters>NAN</DistanceMeters>
          </Trackpoint>
          <Trackpoint>
            <Time>2020-02-15T10:27:26.000Z</Time>
            <Position>
              <LatitudeDegrees>41.9786130823194980621337890625</LatitudeDegrees>
              <LongitudeDegrees>2.897012047469615936279296875</LongitudeDegrees>
            </Position>
            <AltitudeMeters>415.399993896484375</AltitudeMeters>
            <DistanceMeters>NAN</DistanceMeters>
          </Trackpoint>
          <Trackpoint>
            <Time>2020-02-15T10:27:27.000Z</Time>
            <Position>
              <LatitudeDegrees>41.97857913561165332794189453125</LatitudeDegrees>
              <LongitudeDegrees>2.8969895839691162109375</LongitudeDegrees>
            </Position>
            <AltitudeMeters>415.399993896484375</AltitudeMeters>
            <DistanceMeters>NAN</DistanceMeters>
          </Trackpoint>
          <Trackpoint>
            <Time>2020-02-15T10:27:28.000Z</Time>
            <Position>
              <LatitudeDegrees>41.97854359634220600128173828125</LatitudeDegrees>
              <LongitudeDegrees>2.89696879684925079345703125</LongitudeDegrees>
            </Position>
            <AltitudeMeters>415.399993896484375</AltitudeMeters>
            <DistanceMeters>NAN</DistanceMeters>
          </Trackpoint>
          <Trackpoint>
            <Time>2020-02-15T10:27:29.000Z</Time>
            <Position>
              <LatitudeDegrees>41.97850436903536319732666015625</LatitudeDegrees>
              <LongitudeDegrees>2.89695278741419315338134765625</LongitudeDegrees>
            </Position>
            <AltitudeMeters>415.600006103515625</AltitudeMeters>
            <DistanceMeters>NAN</DistanceMeters>
          </Trackpoint>
          <Trackpoint>
            <Time>2020-02-15T10:27:30.000Z</Time>
            <Position>
              <LatitudeDegrees>41.9784635491669178009033203125</LatitudeDegrees>
              <LongitudeDegrees>2.89693987928330898284912109375</LongitudeDegrees>
            </Position>
            <AltitudeMeters>415.600006103515625</AltitudeMeters>
            <DistanceMeters>NAN</DistanceMeters>
          </Trackpoint>
          <Trackpoint>
            <Time>2020-02-15T10:27:33.000Z</Time>
            <Position>
              <LatitudeDegrees>41.97832684032618999481201171875</LatitudeDegrees>
              <LongitudeDegrees>2.89688774384558200836181640625</LongitudeDegrees>
            </Position>
            <AltitudeMeters>416</AltitudeMeters>
            <DistanceMeters>NAN</DistanceMeters>
          </Trackpoint>
          <Trackpoint>
            <Time>2020-02-15T10:27:34.000Z</Time>
            <Position>
              <LatitudeDegrees>41.97827973403036594390869140625</LatitudeDegrees>
              <LongitudeDegrees>2.89685974828898906707763671875</LongitudeDegrees>
            </Position>
            <AltitudeMeters>416.20001220703125</AltitudeMeters>
            <DistanceMeters>NAN</DistanceMeters>
          </Trackpoint>
          <Trackpoint>
            <Time>2020-02-15T10:27:36.000Z</Time>
            <Position>
              <LatitudeDegrees>41.9781956635415554046630859375</LatitudeDegrees>
              <LongitudeDegrees>2.89679621346294879913330078125</LongitudeDegrees>
            </Position>
            <AltitudeMeters>416.399993896484375</AltitudeMeters>
            <DistanceMeters>NAN</DistanceMeters>
          </Trackpoint>
          <Trackpoint>
            <Time>2020-02-15T10:27:37.000Z</Time>
            <Position>
              <LatitudeDegrees>41.97815752588212490081787109375</LatitudeDegrees>
              <LongitudeDegrees>2.89676251821219921112060546875</LongitudeDegrees>
            </Position>
            <AltitudeMeters>416.399993896484375</AltitudeMeters>
            <DistanceMeters>NAN</DistanceMeters>
          </Trackpoint>
          <Trackpoint>
            <Time>2020-02-15T10:27:38.000Z</Time>
            <Position>
              <LatitudeDegrees>41.978119052946567535400390625</LatitudeDegrees>
              <LongitudeDegrees>2.896726392209529876708984375</LongitudeDegrees>
            </Position>
            <AltitudeMeters>416.399993896484375</AltitudeMeters>
            <DistanceMeters>NAN</DistanceMeters>
          </Trackpoint>
          <Trackpoint>
            <Time>2020-02-15T10:27:39.000Z</Time>
            <Position>
              <LatitudeDegrees>41.9780851900577545166015625</LatitudeDegrees>
              <LongitudeDegrees>2.89669110439717769622802734375</LongitudeDegrees>
            </Position>
            <AltitudeMeters>416.600006103515625</AltitudeMeters>
            <DistanceMeters>NAN</DistanceMeters>
          </Trackpoint>
          <Trackpoint>
            <Time>2020-02-15T10:27:40.000Z</Time>
            <Position>
              <LatitudeDegrees>41.97805107571184635162353515625</LatitudeDegrees>
              <LongitudeDegrees>2.8966531343758106231689453125</LongitudeDegrees>
            </Position>
            <AltitudeMeters>416.600006103515625</AltitudeMeters>
            <DistanceMeters>NAN</DistanceMeters>
          </Trackpoint>
          <Trackpoint>
            <Time>2020-02-15T10:27:41.000Z</Time>
            <Position>
              <LatitudeDegrees>41.9780179671943187713623046875</LatitudeDegrees>
              <LongitudeDegrees>2.89661516435444355010986328125</LongitudeDegrees>
            </Position>
            <AltitudeMeters>416.600006103515625</AltitudeMeters>
            <DistanceMeters>NAN</DistanceMeters>
          </Trackpoint>
          <Trackpoint>
            <Time>2020-02-15T10:27:42.000Z</Time>
            <Position>
              <LatitudeDegrees>41.9779877923429012298583984375</LatitudeDegrees>
              <LongitudeDegrees>2.89657853543758392333984375</LongitudeDegrees>
            </Position>
            <AltitudeMeters>416.600006103515625</AltitudeMeters>
            <DistanceMeters>NAN</DistanceMeters>
          </Trackpoint>
          <Trackpoint>
            <Time>2020-02-15T10:27:43.000Z</Time>
            <Position>
              <LatitudeDegrees>41.97795443236827850341796875</LatitudeDegrees>
              <LongitudeDegrees>2.89654257707297801971435546875</LongitudeDegrees>
            </Position>
            <AltitudeMeters>416.600006103515625</AltitudeMeters>
            <DistanceMeters>NAN</DistanceMeters>
          </Trackpoint>
          <Trackpoint>
            <Time>2020-02-15T10:27:44.000Z</Time>
            <Position>
              <LatitudeDegrees>41.9779157079756259918212890625</LatitudeDegrees>
              <LongitudeDegrees>2.89650603197515010833740234375</LongitudeDegrees>
            </Position>
            <AltitudeMeters>416.600006103515625</AltitudeMeters>
            <DistanceMeters>NAN</DistanceMeters>
          </Trackpoint>
          <Trackpoint>
            <Time>2020-02-15T10:27:45.000Z</Time>
            <Position>
              <LatitudeDegrees>41.97787505574524402618408203125</LatitudeDegrees>
              <LongitudeDegrees>2.89647183381021022796630859375</LongitudeDegrees>
            </Position>
            <AltitudeMeters>416.79998779296875</AltitudeMeters>
            <DistanceMeters>NAN</DistanceMeters>
          </Trackpoint>
          <Trackpoint>
            <Time>2020-02-15T10:27:46.000Z</Time>
            <Position>
              <LatitudeDegrees>41.977834068238735198974609375</LatitudeDegrees>
              <LongitudeDegrees>2.89644132368266582489013671875</LongitudeDegrees>
            </Position>
            <AltitudeMeters>416.79998779296875</AltitudeMeters>
            <DistanceMeters>NAN</DistanceMeters>
          </Trackpoint>
          <Trackpoint>
            <Time>2020-02-15T10:27:47.000Z</Time>
            <Position>
              <LatitudeDegrees>41.97779241017997264862060546875</LatitudeDegrees>
              <LongitudeDegrees>2.8964160941541194915771484375</LongitudeDegrees>
            </Position>
            <AltitudeMeters>417</AltitudeMeters>
            <DistanceMeters>NAN</DistanceMeters>
          </Trackpoint>
          <Trackpoint>
            <Time>2020-02-15T10:27:48.000Z</Time>
            <Position>
              <LatitudeDegrees>41.9777541048824787139892578125</LatitudeDegrees>
              <LongitudeDegrees>2.89639346301555633544921875</LongitudeDegrees>
            </Position>
            <AltitudeMeters>417</AltitudeMeters>
            <DistanceMeters>NAN</DistanceMeters>
          </Trackpoint>
          <Trackpoint>
            <Time>2020-02-15T10:27:49.000Z</Time>
            <Position>
              <LatitudeDegrees>41.97771311737596988677978515625</LatitudeDegrees>
              <LongitudeDegrees>2.89636789821088314056396484375</LongitudeDegrees>
            </Position>
            <AltitudeMeters>417.20001220703125</AltitudeMeters>
            <DistanceMeters>NAN</DistanceMeters>
          </Trackpoint>
          <Trackpoint>
            <Time>2020-02-15T10:27:50.000Z</Time>
            <Position>
              <LatitudeDegrees>41.977673135697841644287109375</LatitudeDegrees>
              <LongitudeDegrees>2.896340824663639068603515625</LongitudeDegrees>
            </Position>
            <AltitudeMeters>417.20001220703125</AltitudeMeters>
            <DistanceMeters>NAN</DistanceMeters>
          </Trackpoint>
          <Trackpoint>
            <Time>2020-02-15T10:27:52.000Z</Time>
            <Position>
              <LatitudeDegrees>41.97758839465677738189697265625</LatitudeDegrees>
              <LongitudeDegrees>2.896287180483341217041015625</LongitudeDegrees>
            </Position>
            <AltitudeMeters>417.399993896484375</AltitudeMeters>
            <DistanceMeters>NAN</DistanceMeters>
          </Trackpoint>
          <Trackpoint>
            <Time>2020-02-15T10:27:59.000Z</Time>
            <Position>
              <LatitudeDegrees>41.97727675549685955047607421875</LatitudeDegrees>
              <LongitudeDegrees>2.89604770950973033905029296875</LongitudeDegrees>
            </Position>
            <AltitudeMeters>418</AltitudeMeters>
            <DistanceMeters>NAN</DistanceMeters>
          </Trackpoint>
          <Trackpoint>
            <Time>2020-02-15T10:28:00.000Z</Time>
            <Position>
              <LatitudeDegrees>41.97723090648651123046875</LatitudeDegrees>
              <LongitudeDegrees>2.89599339477717876434326171875</LongitudeDegrees>
            </Position>
            <AltitudeMeters>418.20001220703125</AltitudeMeters>
            <DistanceMeters>NAN</DistanceMeters>
          </Trackpoint>
          <Trackpoint>
            <Time>2020-02-15T10:28:03.000Z</Time>
            <Position>
              <LatitudeDegrees>41.9770929403603076934814453125</LatitudeDegrees>
              <LongitudeDegrees>2.89580027572810649871826171875</LongitudeDegrees>
            </Position>
            <AltitudeMeters>418</AltitudeMeters>
            <DistanceMeters>NAN</DistanceMeters>
          </Trackpoint>
          <Trackpoint>
            <Time>2020-02-15T10:28:04.000Z</Time>
            <Position>
              <LatitudeDegrees>41.97703803889453411102294921875</LatitudeDegrees>
              <LongitudeDegrees>2.895733974874019622802734375</LongitudeDegrees>
            </Position>
            <AltitudeMeters>418.20001220703125</AltitudeMeters>
            <DistanceMeters>NAN</DistanceMeters>
          </Trackpoint>
          <Trackpoint>
            <Time>2020-02-15T10:28:05.000Z</Time>
            <Position>
              <LatitudeDegrees>41.97697944939136505126953125</LatitudeDegrees>
              <LongitudeDegrees>2.89568678475916385650634765625</LongitudeDegrees>
            </Position>
            <AltitudeMeters>418.20001220703125</AltitudeMeters>
            <DistanceMeters>NAN</DistanceMeters>
          </Trackpoint>
          <Trackpoint>
            <Time>2020-02-15T10:28:06.000Z</Time>
            <Position>
              <LatitudeDegrees>41.97690904140472412109375</LatitudeDegrees>
              <LongitudeDegrees>2.89566524326801300048828125</LongitudeDegrees>
            </Position>
            <AltitudeMeters>418</AltitudeMeters>
            <DistanceMeters>NAN</DistanceMeters>
          </Trackpoint>
          <Trackpoint>
            <Time>2020-02-15T10:28:07.000Z</Time>
            <Position>
              <LatitudeDegrees>41.97683268226683139801025390625</LatitudeDegrees>
              <LongitudeDegrees>2.8956754691898822784423828125</LongitudeDegrees>
            </Position>
            <AltitudeMeters>418</AltitudeMeters>
            <DistanceMeters>NAN</DistanceMeters>
          </Trackpoint>
          <Trackpoint>
            <Time>2020-02-15T10:28:08.000Z</Time>
            <Position>
              <LatitudeDegrees>41.97676026262342929840087890625</LatitudeDegrees>
              <LongitudeDegrees>2.89570991881191730499267578125</LongitudeDegrees>
            </Position>
            <AltitudeMeters>417.79998779296875</AltitudeMeters>
            <DistanceMeters>NAN</DistanceMeters>
          </Trackpoint>
          <Trackpoint>
            <Time>2020-02-15T10:28:09.000Z</Time>
            <Position>
              <LatitudeDegrees>41.97669446468353271484375</LatitudeDegrees>
              <LongitudeDegrees>2.895753085613250732421875</LongitudeDegrees>
            </Position>
            <AltitudeMeters>417.79998779296875</AltitudeMeters>
            <DistanceMeters>NAN</DistanceMeters>
          </Trackpoint>
          <Trackpoint>
            <Time>2020-02-15T10:28:10.000Z</Time>
            <Position>
              <LatitudeDegrees>41.976627409458160400390625</LatitudeDegrees>
              <LongitudeDegrees>2.8958035446703433990478515625</LongitudeDegrees>
            </Position>
            <AltitudeMeters>417.399993896484375</AltitudeMeters>
            <DistanceMeters>NAN</DistanceMeters>
          </Trackpoint>
          <Trackpoint>
            <Time>2020-02-15T10:28:11.000Z</Time>
            <Position>
              <LatitudeDegrees>41.97655993513762950897216796875</LatitudeDegrees>
              <LongitudeDegrees>2.8958551771938800811767578125</LongitudeDegrees>
            </Position>
            <AltitudeMeters>417.20001220703125</AltitudeMeters>
            <DistanceMeters>NAN</DistanceMeters>
          </Trackpoint>
          <Trackpoint>
            <Time>2020-02-15T10:28:14.000Z</Time>
            <Position>
              <LatitudeDegrees>41.9763083942234516143798828125</LatitudeDegrees>
              <LongitudeDegrees>2.8960146009922027587890625</LongitudeDegrees>
            </Position>
            <AltitudeMeters>416.20001220703125</AltitudeMeters>
            <DistanceMeters>NAN</DistanceMeters>
          </Trackpoint>
          <Trackpoint>
            <Time>2020-02-15T10:28:15.000Z</Time>
            <Position>
              <LatitudeDegrees>41.97621208615601062774658203125</LatitudeDegrees>
              <LongitudeDegrees>2.8960499726235866546630859375</LongitudeDegrees>
            </Position>
            <AltitudeMeters>415.79998779296875</AltitudeMeters>
            <DistanceMeters>NAN</DistanceMeters>
          </Trackpoint>
          <Trackpoint>
            <Time>2020-02-15T10:28:16.000Z</Time>
            <Position>
              <LatitudeDegrees>41.9761082343757152557373046875</LatitudeDegrees>
              <LongitudeDegrees>2.896081320941448211669921875</LongitudeDegrees>
            </Position>
            <AltitudeMeters>415</AltitudeMeters>
            <DistanceMeters>NAN</DistanceMeters>
          </Trackpoint>
          <Trackpoint>
            <Time>2020-02-15T10:28:17.000Z</Time>
            <Position>
              <LatitudeDegrees>41.9760049693286418914794921875</LatitudeDegrees>
              <LongitudeDegrees>2.8960975818336009979248046875</LongitudeDegrees>
            </Position>
            <AltitudeMeters>414.600006103515625</AltitudeMeters>
            <DistanceMeters>NAN</DistanceMeters>
          </Trackpoint>
          <Trackpoint>
            <Time>2020-02-15T10:28:18.000Z</Time>
            <Position>
              <LatitudeDegrees>41.97590178810060024261474609375</LatitudeDegrees>
              <LongitudeDegrees>2.896108813583850860595703125</LongitudeDegrees>
            </Position>
            <AltitudeMeters>414</AltitudeMeters>
            <DistanceMeters>NAN</DistanceMeters>
          </Trackpoint>
          <Trackpoint>
            <Time>2020-02-15T10:28:19.000Z</Time>
            <Position>
              <LatitudeDegrees>41.97579315863549709320068359375</LatitudeDegrees>
              <LongitudeDegrees>2.8961210511624813079833984375</LongitudeDegrees>
            </Position>
            <AltitudeMeters>413.79998779296875</AltitudeMeters>
            <DistanceMeters>NAN</DistanceMeters>
          </Trackpoint>
          <Trackpoint>
            <Time>2020-02-15T10:28:21.000Z</Time>
            <Position>
              <LatitudeDegrees>41.9755692780017852783203125</LatitudeDegrees>
              <LongitudeDegrees>2.8961458615958690643310546875</LongitudeDegrees>
            </Position>
            <AltitudeMeters>412.600006103515625</AltitudeMeters>
            <DistanceMeters>NAN</DistanceMeters>
          </Trackpoint>
          <Trackpoint>
            <Time>2020-02-15T10:28:23.000Z</Time>
            <Position>
              <LatitudeDegrees>41.9753600656986236572265625</LatitudeDegrees>
              <LongitudeDegrees>2.89619095623493194580078125</LongitudeDegrees>
            </Position>
            <AltitudeMeters>411.600006103515625</AltitudeMeters>
            <DistanceMeters>NAN</DistanceMeters>
          </Trackpoint>
          <Trackpoint>
            <Time>2020-02-15T10:28:24.000Z</Time>
            <Position>
              <LatitudeDegrees>41.975254453718662261962890625</LatitudeDegrees>
              <LongitudeDegrees>2.89622859098017215728759765625</LongitudeDegrees>
            </Position>
            <AltitudeMeters>411.20001220703125</AltitudeMeters>
            <DistanceMeters>NAN</DistanceMeters>
          </Trackpoint>
          <Trackpoint>
            <Time>2020-02-15T10:28:25.000Z</Time>
            <Position>
              <LatitudeDegrees>41.97515613399446010589599609375</LatitudeDegrees>
              <LongitudeDegrees>2.89627485908567905426025390625</LongitudeDegrees>
            </Position>
            <AltitudeMeters>410.600006103515625</AltitudeMeters>
            <DistanceMeters>NAN</DistanceMeters>
          </Trackpoint>
          <Trackpoint>
            <Time>2020-02-15T10:28:26.000Z</Time>
            <Position>
              <LatitudeDegrees>41.97506108321249485015869140625</LatitudeDegrees>
              <LongitudeDegrees>2.89633043110370635986328125</LongitudeDegrees>
            </Position>
            <AltitudeMeters>410.20001220703125</AltitudeMeters>
            <DistanceMeters>NAN</DistanceMeters>
          </Trackpoint>
          <Trackpoint>
            <Time>2020-02-15T10:28:27.000Z</Time>
            <Position>
              <LatitudeDegrees>41.97496754117310047149658203125</LatitudeDegrees>
              <LongitudeDegrees>2.89638943970203399658203125</LongitudeDegrees>
            </Position>
            <AltitudeMeters>409.399993896484375</AltitudeMeters>
            <DistanceMeters>NAN</DistanceMeters>
          </Trackpoint>
          <Trackpoint>
            <Time>2020-02-15T10:28:28.000Z</Time>
            <Position>
              <LatitudeDegrees>41.974873580038547515869140625</LatitudeDegrees>
              <LongitudeDegrees>2.896446101367473602294921875</LongitudeDegrees>
            </Position>
            <AltitudeMeters>408.600006103515625</AltitudeMeters>
            <DistanceMeters>NAN</DistanceMeters>
          </Trackpoint>
          <Trackpoint>
            <Time>2020-02-15T10:28:29.000Z</Time>
            <Position>
              <LatitudeDegrees>41.9747780263423919677734375</LatitudeDegrees>
              <LongitudeDegrees>2.89649798534810543060302734375</LongitudeDegrees>
            </Position>
            <AltitudeMeters>408</AltitudeMeters>
            <DistanceMeters>NAN</DistanceMeters>
          </Trackpoint>
          <Trackpoint>
            <Time>2020-02-15T10:28:31.000Z</Time>
            <Position>
              <LatitudeDegrees>41.97459672577679157257080078125</LatitudeDegrees>
              <LongitudeDegrees>2.8965911082923412322998046875</LongitudeDegrees>
            </Position>
            <AltitudeMeters>407.600006103515625</AltitudeMeters>
            <DistanceMeters>NAN</DistanceMeters>
          </Trackpoint>
          <Trackpoint>
            <Time>2020-02-15T10:28:32.000Z</Time>
            <Position>
              <LatitudeDegrees>41.97451743297278881072998046875</LatitudeDegrees>
              <LongitudeDegrees>2.89660376496613025665283203125</LongitudeDegrees>
            </Position>
            <AltitudeMeters>407</AltitudeMeters>
            <DistanceMeters>NAN</DistanceMeters>
          </Trackpoint>
          <Trackpoint>
            <Time>2020-02-15T10:28:33.000Z</Time>
            <Position>
              <LatitudeDegrees>41.97444736026227474212646484375</LatitudeDegrees>
              <LongitudeDegrees>2.8965813852846622467041015625</LongitudeDegrees>
            </Position>
            <AltitudeMeters>407</AltitudeMeters>
            <DistanceMeters>NAN</DistanceMeters>
          </Trackpoint>
          <Trackpoint>
            <Time>2020-02-15T10:28:34.000Z</Time>
            <Position>
              <LatitudeDegrees>41.97439539246261119842529296875</LatitudeDegrees>
              <LongitudeDegrees>2.8965215384960174560546875</LongitudeDegrees>
            </Position>
            <AltitudeMeters>406.20001220703125</AltitudeMeters>
            <DistanceMeters>NAN</DistanceMeters>
          </Trackpoint>
          <Trackpoint>
            <Time>2020-02-15T10:28:35.000Z</Time>
            <Position>
              <LatitudeDegrees>41.9743684865534305572509765625</LatitudeDegrees>
              <LongitudeDegrees>2.89643704891204833984375</LongitudeDegrees>
            </Position>
            <AltitudeMeters>405.600006103515625</AltitudeMeters>
            <DistanceMeters>NAN</DistanceMeters>
          </Trackpoint>
          <Trackpoint>
            <Time>2020-02-15T10:28:36.000Z</Time>
            <Position>
              <LatitudeDegrees>41.974360607564449310302734375</LatitudeDegrees>
              <LongitudeDegrees>2.89634224958717823028564453125</LongitudeDegrees>
            </Position>
            <AltitudeMeters>405.399993896484375</AltitudeMeters>
            <DistanceMeters>NAN</DistanceMeters>
          </Trackpoint>
          <Trackpoint>
            <Time>2020-02-15T10:28:37.000Z</Time>
            <Position>
              <LatitudeDegrees>41.97436966001987457275390625</LatitudeDegrees>
              <LongitudeDegrees>2.8962474502623081207275390625</LongitudeDegrees>
            </Position>
            <AltitudeMeters>404.600006103515625</AltitudeMeters>
            <DistanceMeters>NAN</DistanceMeters>
          </Trackpoint>
          <Trackpoint>
            <Time>2020-02-15T10:28:38.000Z</Time>
            <Position>
              <LatitudeDegrees>41.97438843548297882080078125</LatitudeDegrees>
              <LongitudeDegrees>2.89615348912775516510009765625</LongitudeDegrees>
            </Position>
            <AltitudeMeters>404.20001220703125</AltitudeMeters>
            <DistanceMeters>NAN</DistanceMeters>
          </Trackpoint>
          <Trackpoint>
            <Time>2020-02-15T10:28:39.000Z</Time>
            <Position>
              <LatitudeDegrees>41.97442053817212581634521484375</LatitudeDegrees>
              <LongitudeDegrees>2.89606397040188312530517578125</LongitudeDegrees>
            </Position>
            <AltitudeMeters>403.600006103515625</AltitudeMeters>
            <DistanceMeters>NAN</DistanceMeters>
          </Trackpoint>
          <Trackpoint>
            <Time>2020-02-15T10:28:40.000Z</Time>
            <Position>
              <LatitudeDegrees>41.97445540688931941986083984375</LatitudeDegrees>
              <LongitudeDegrees>2.89597713388502597808837890625</LongitudeDegrees>
            </Position>
            <AltitudeMeters>403.399993896484375</AltitudeMeters>
            <DistanceMeters>NAN</DistanceMeters>
          </Trackpoint>
          <Trackpoint>
            <Time>2020-02-15T10:28:42.000Z</Time>
            <Position>
              <LatitudeDegrees>41.97451927699148654937744140625</LatitudeDegrees>
              <LongitudeDegrees>2.89579072035849094390869140625</LongitudeDegrees>
            </Position>
            <AltitudeMeters>402</AltitudeMeters>
            <DistanceMeters>NAN</DistanceMeters>
          </Trackpoint>
          <Trackpoint>
            <Time>2020-02-15T10:28:43.000Z</Time>
            <Position>
              <LatitudeDegrees>41.974530257284641265869140625</LatitudeDegrees>
              <LongitudeDegrees>2.89568980224430561065673828125</LongitudeDegrees>
            </Position>
            <AltitudeMeters>401.600006103515625</AltitudeMeters>
            <DistanceMeters>NAN</DistanceMeters>
          </Trackpoint>
          <Trackpoint>
            <Time>2020-02-15T10:28:44.000Z</Time>
            <Position>
              <LatitudeDegrees>41.97452849708497524261474609375</LatitudeDegrees>
              <LongitudeDegrees>2.89559056051075458526611328125</LongitudeDegrees>
            </Position>
            <AltitudeMeters>401.20001220703125</AltitudeMeters>
            <DistanceMeters>NAN</DistanceMeters>
          </Trackpoint>
          <Trackpoint>
            <Time>2020-02-15T10:28:45.000Z</Time>
            <Position>
              <LatitudeDegrees>41.97451047599315643310546875</LatitudeDegrees>
              <LongitudeDegrees>2.89549886249005794525146484375</LongitudeDegrees>
            </Position>
            <AltitudeMeters>400.79998779296875</AltitudeMeters>
            <DistanceMeters>NAN</DistanceMeters>
          </Trackpoint>
          <Trackpoint>
            <Time>2020-02-15T10:28:46.000Z</Time>
            <Position>
              <LatitudeDegrees>41.9744858331978321075439453125</LatitudeDegrees>
              <LongitudeDegrees>2.895410768687725067138671875</LongitudeDegrees>
            </Position>
            <AltitudeMeters>400.600006103515625</AltitudeMeters>
            <DistanceMeters>NAN</DistanceMeters>
          </Trackpoint>
          <Trackpoint>
            <Time>2020-02-15T10:28:47.000Z</Time>
            <Position>
              <LatitudeDegrees>41.9744600169360637664794921875</LatitudeDegrees>
              <LongitudeDegrees>2.8953240998089313507080078125</LongitudeDegrees>
            </Position>
            <AltitudeMeters>400.20001220703125</AltitudeMeters>
            <DistanceMeters>NAN</DistanceMeters>
          </Trackpoint>
          <Trackpoint>
            <Time>2020-02-15T10:28:48.000Z</Time>
            <Position>
              <LatitudeDegrees>41.97443109937012195587158203125</LatitudeDegrees>
              <LongitudeDegrees>2.89523885585367679595947265625</LongitudeDegrees>
            </Position>
            <AltitudeMeters>400.20001220703125</AltitudeMeters>
            <DistanceMeters>NAN</DistanceMeters>
          </Trackpoint>
          <Trackpoint>
            <Time>2020-02-15T10:28:49.000Z</Time>
            <Position>
              <LatitudeDegrees>41.97438667528331279754638671875</LatitudeDegrees>
              <LongitudeDegrees>2.89517096243798732757568359375</LongitudeDegrees>
            </Position>
            <AltitudeMeters>400.20001220703125</AltitudeMeters>
            <DistanceMeters>NAN</DistanceMeters>
          </Trackpoint>
          <Trackpoint>
            <Time>2020-02-15T10:28:50.000Z</Time>
            <Position>
              <LatitudeDegrees>41.9742997549474239349365234375</LatitudeDegrees>
              <LongitudeDegrees>2.89514279924333095550537109375</LongitudeDegrees>
            </Position>
            <AltitudeMeters>400</AltitudeMeters>
            <DistanceMeters>NAN</DistanceMeters>
          </Trackpoint>
          <Trackpoint>
            <Time>2020-02-15T10:28:51.000Z</Time>
            <Position>
              <LatitudeDegrees>41.9742266647517681121826171875</LatitudeDegrees>
              <LongitudeDegrees>2.89515101350843906402587890625</LongitudeDegrees>
            </Position>
            <AltitudeMeters>400</AltitudeMeters>
            <DistanceMeters>NAN</DistanceMeters>
          </Trackpoint>
          <Trackpoint>
            <Time>2020-02-15T10:28:52.000Z</Time>
            <Position>
              <LatitudeDegrees>41.97416086681187152862548828125</LatitudeDegrees>
              <LongitudeDegrees>2.89518822915852069854736328125</LongitudeDegrees>
            </Position>
            <AltitudeMeters>400</AltitudeMeters>
            <DistanceMeters>NAN</DistanceMeters>
          </Trackpoint>
          <Trackpoint>
            <Time>2020-02-15T10:28:53.000Z</Time>
            <Position>
              <LatitudeDegrees>41.974095068871974945068359375</LatitudeDegrees>
              <LongitudeDegrees>2.89524011313915252685546875</LongitudeDegrees>
            </Position>
            <AltitudeMeters>400</AltitudeMeters>
            <DistanceMeters>NAN</DistanceMeters>
          </Trackpoint>
          <Trackpoint>
            <Time>2020-02-15T10:28:54.000Z</Time>
            <Position>
              <LatitudeDegrees>41.97403530590236186981201171875</LatitudeDegrees>
              <LongitudeDegrees>2.89530658163130283355712890625</LongitudeDegrees>
            </Position>
            <AltitudeMeters>399.600006103515625</AltitudeMeters>
            <DistanceMeters>NAN</DistanceMeters>
          </Trackpoint>
          <Trackpoint>
            <Time>2020-02-15T10:28:55.000Z</Time>
            <Position>
              <LatitudeDegrees>41.97397596202790737152099609375</LatitudeDegrees>
              <LongitudeDegrees>2.8953737206757068634033203125</LongitudeDegrees>
            </Position>
            <AltitudeMeters>399.600006103515625</AltitudeMeters>
            <DistanceMeters>NAN</DistanceMeters>
          </Trackpoint>
          <Trackpoint>
            <Time>2020-02-15T10:28:59.000Z</Time>
            <Position>
              <LatitudeDegrees>41.97370539419353008270263671875</LatitudeDegrees>
              <LongitudeDegrees>2.895632721483707427978515625</LongitudeDegrees>
            </Position>
            <AltitudeMeters>398</AltitudeMeters>
            <DistanceMeters>NAN</DistanceMeters>
          </Trackpoint>
          <Trackpoint>
            <Time>2020-02-15T10:29:00.000Z</Time>
            <Position>
              <LatitudeDegrees>41.97363297455012798309326171875</LatitudeDegrees>
              <LongitudeDegrees>2.89569684304296970367431640625</LongitudeDegrees>
            </Position>
            <AltitudeMeters>397.600006103515625</AltitudeMeters>
            <DistanceMeters>NAN</DistanceMeters>
          </Trackpoint>
          <Trackpoint>
            <Time>2020-02-15T10:29:02.000Z</Time>
            <Position>
              <LatitudeDegrees>41.973468102514743804931640625</LatitudeDegrees>
              <LongitudeDegrees>2.895797677338123321533203125</LongitudeDegrees>
            </Position>
            <AltitudeMeters>396.600006103515625</AltitudeMeters>
            <DistanceMeters>NAN</DistanceMeters>
          </Trackpoint>
          <Trackpoint>
            <Time>2020-02-15T10:29:03.000Z</Time>
            <Position>
              <LatitudeDegrees>41.97338000871241092681884765625</LatitudeDegrees>
              <LongitudeDegrees>2.89581787772476673126220703125</LongitudeDegrees>
            </Position>
            <AltitudeMeters>396.20001220703125</AltitudeMeters>
            <DistanceMeters>NAN</DistanceMeters>
          </Trackpoint>
          <Trackpoint>
            <Time>2020-02-15T10:29:04.000Z</Time>
            <Position>
              <LatitudeDegrees>41.973305828869342803955078125</LatitudeDegrees>
              <LongitudeDegrees>2.895796336233615875244140625</LongitudeDegrees>
            </Position>
            <AltitudeMeters>395.600006103515625</AltitudeMeters>
            <DistanceMeters>NAN</DistanceMeters>
          </Trackpoint>
          <Trackpoint>
            <Time>2020-02-15T10:29:05.000Z</Time>
            <Position>
              <LatitudeDegrees>41.97325117886066436767578125</LatitudeDegrees>
              <LongitudeDegrees>2.89573824964463710784912109375</LongitudeDegrees>
            </Position>
            <AltitudeMeters>395.20001220703125</AltitudeMeters>
            <DistanceMeters>NAN</DistanceMeters>
          </Trackpoint>
          <Trackpoint>
            <Time>2020-02-15T10:29:06.000Z</Time>
            <Position>
              <LatitudeDegrees>41.97320398874580860137939453125</LatitudeDegrees>
              <LongitudeDegrees>2.8956644050776958465576171875</LongitudeDegrees>
            </Position>
            <AltitudeMeters>395</AltitudeMeters>
            <DistanceMeters>NAN</DistanceMeters>
          </Trackpoint>
          <Trackpoint>
            <Time>2020-02-15T10:29:07.000Z</Time>
            <Position>
              <LatitudeDegrees>41.9731718860566616058349609375</LatitudeDegrees>
              <LongitudeDegrees>2.89557480253279209136962890625</LongitudeDegrees>
            </Position>
            <AltitudeMeters>394.79998779296875</AltitudeMeters>
            <DistanceMeters>NAN</DistanceMeters>
          </Trackpoint>
          <Trackpoint>
            <Time>2020-02-15T10:29:08.000Z</Time>
            <Position>
              <LatitudeDegrees>41.97316576726734638214111328125</LatitudeDegrees>
              <LongitudeDegrees>2.895477823913097381591796875</LongitudeDegrees>
            </Position>
            <AltitudeMeters>394.600006103515625</AltitudeMeters>
            <DistanceMeters>NAN</DistanceMeters>
          </Trackpoint>
          <Trackpoint>
            <Time>2020-02-15T10:29:09.000Z</Time>
            <Position>
              <LatitudeDegrees>41.97316023521125316619873046875</LatitudeDegrees>
              <LongitudeDegrees>2.89538092911243438720703125</LongitudeDegrees>
            </Position>
            <AltitudeMeters>394.20001220703125</AltitudeMeters>
            <DistanceMeters>NAN</DistanceMeters>
          </Trackpoint>
          <Trackpoint>
            <Time>2020-02-15T10:29:10.000Z</Time>
            <Position>
              <LatitudeDegrees>41.973156295716762542724609375</LatitudeDegrees>
              <LongitudeDegrees>2.89528093300759792327880859375</LongitudeDegrees>
            </Position>
            <AltitudeMeters>394</AltitudeMeters>
            <DistanceMeters>NAN</DistanceMeters>
          </Trackpoint>
          <Trackpoint>
            <Time>2020-02-15T10:29:12.000Z</Time>
            <Position>
              <LatitudeDegrees>41.9731365144252777099609375</LatitudeDegrees>
              <LongitudeDegrees>2.895088903605937957763671875</LongitudeDegrees>
            </Position>
            <AltitudeMeters>393.600006103515625</AltitudeMeters>
            <DistanceMeters>NAN</DistanceMeters>
          </Trackpoint>
          <Trackpoint>
            <Time>2020-02-15T10:29:13.000Z</Time>
            <Position>
              <LatitudeDegrees>41.973107345402240753173828125</LatitudeDegrees>
              <LongitudeDegrees>2.89500365965068340301513671875</LongitudeDegrees>
            </Position>
            <AltitudeMeters>393.20001220703125</AltitudeMeters>
            <DistanceMeters>NAN</DistanceMeters>
          </Trackpoint>
          <Trackpoint>
            <Time>2020-02-15T10:29:14.000Z</Time>
            <Position>
              <LatitudeDegrees>41.97305512614548206329345703125</LatitudeDegrees>
              <LongitudeDegrees>2.89492470212280750274658203125</LongitudeDegrees>
            </Position>
            <AltitudeMeters>393</AltitudeMeters>
            <DistanceMeters>NAN</DistanceMeters>
          </Trackpoint>
          <Trackpoint>
            <Time>2020-02-15T10:29:15.000Z</Time>
            <Position>
              <LatitudeDegrees>41.972986645996570587158203125</LatitudeDegrees>
              <LongitudeDegrees>2.8948746621608734130859375</LongitudeDegrees>
            </Position>
            <AltitudeMeters>393</AltitudeMeters>
            <DistanceMeters>NAN</DistanceMeters>
          </Trackpoint>
          <Trackpoint>
            <Time>2020-02-15T10:29:16.000Z</Time>
            <Position>
              <LatitudeDegrees>41.9729147292673587799072265625</LatitudeDegrees>
              <LongitudeDegrees>2.89485161192715167999267578125</LongitudeDegrees>
            </Position>
            <AltitudeMeters>392.600006103515625</AltitudeMeters>
            <DistanceMeters>NAN</DistanceMeters>
          </Trackpoint>
          <Trackpoint>
            <Time>2020-02-15T10:29:17.000Z</Time>
            <Position>
              <LatitudeDegrees>41.9728382863104343414306640625</LatitudeDegrees>
              <LongitudeDegrees>2.89484851062297821044921875</LongitudeDegrees>
            </Position>
            <AltitudeMeters>392.399993896484375</AltitudeMeters>
            <DistanceMeters>NAN</DistanceMeters>
          </Trackpoint>
          <Trackpoint>
            <Time>2020-02-15T10:29:18.000Z</Time>
            <Position>
              <LatitudeDegrees>41.97276393882930278778076171875</LatitudeDegrees>
              <LongitudeDegrees>2.89485345594584941864013671875</LongitudeDegrees>
            </Position>
            <AltitudeMeters>392</AltitudeMeters>
            <DistanceMeters>NAN</DistanceMeters>
          </Trackpoint>
          <Trackpoint>
            <Time>2020-02-15T10:29:19.000Z</Time>
            <Position>
              <LatitudeDegrees>41.97268950752913951873779296875</LatitudeDegrees>
              <LongitudeDegrees>2.89486284367740154266357421875</LongitudeDegrees>
            </Position>
            <AltitudeMeters>392</AltitudeMeters>
            <DistanceMeters>NAN</DistanceMeters>
          </Trackpoint>
          <Trackpoint>
            <Time>2020-02-15T10:29:20.000Z</Time>
            <Position>
              <LatitudeDegrees>41.97261725552380084991455078125</LatitudeDegrees>
              <LongitudeDegrees>2.89487709291279315948486328125</LongitudeDegrees>
            </Position>
            <AltitudeMeters>391.79998779296875</AltitudeMeters>
            <DistanceMeters>NAN</DistanceMeters>
          </Trackpoint>
          <Trackpoint>
            <Time>2020-02-15T10:29:21.000Z</Time>
            <Position>
              <LatitudeDegrees>41.9725455902516841888427734375</LatitudeDegrees>
              <LongitudeDegrees>2.89490223862230777740478515625</LongitudeDegrees>
            </Position>
            <AltitudeMeters>391.79998779296875</AltitudeMeters>
            <DistanceMeters>NAN</DistanceMeters>
          </Trackpoint>
          <Trackpoint>
            <Time>2020-02-15T10:29:22.000Z</Time>
            <Position>
              <LatitudeDegrees>41.9724778644740581512451171875</LatitudeDegrees>
              <LongitudeDegrees>2.89494238793849945068359375</LongitudeDegrees>
            </Position>
            <AltitudeMeters>391.79998779296875</AltitudeMeters>
            <DistanceMeters>NAN</DistanceMeters>
          </Trackpoint>
          <Trackpoint>
            <Time>2020-02-15T10:29:23.000Z</Time>
            <Position>
              <LatitudeDegrees>41.97240821085870265960693359375</LatitudeDegrees>
              <LongitudeDegrees>2.8949948586523532867431640625</LongitudeDegrees>
            </Position>
            <AltitudeMeters>391.399993896484375</AltitudeMeters>
            <DistanceMeters>NAN</DistanceMeters>
          </Trackpoint>
          <Trackpoint>
            <Time>2020-02-15T10:29:24.000Z</Time>
            <Position>
              <LatitudeDegrees>41.9723390601575374603271484375</LatitudeDegrees>
              <LongitudeDegrees>2.8950555436313152313232421875</LongitudeDegrees>
            </Position>
            <AltitudeMeters>391.600006103515625</AltitudeMeters>
            <DistanceMeters>NAN</DistanceMeters>
          </Trackpoint>
          <Trackpoint>
            <Time>2020-02-15T10:29:25.000Z</Time>
            <Position>
              <LatitudeDegrees>41.97227678261697292327880859375</LatitudeDegrees>
              <LongitudeDegrees>2.895130477845668792724609375</LongitudeDegrees>
            </Position>
            <AltitudeMeters>391.399993896484375</AltitudeMeters>
            <DistanceMeters>NAN</DistanceMeters>
          </Trackpoint>
          <Trackpoint>
            <Time>2020-02-15T10:29:26.000Z</Time>
            <Position>
              <LatitudeDegrees>41.972228251397609710693359375</LatitudeDegrees>
              <LongitudeDegrees>2.89523097686469554901123046875</LongitudeDegrees>
            </Position>
            <AltitudeMeters>391.20001220703125</AltitudeMeters>
            <DistanceMeters>NAN</DistanceMeters>
          </Trackpoint>
          <Trackpoint>
            <Time>2020-02-15T10:29:27.000Z</Time>
            <Position>
              <LatitudeDegrees>41.97218424640595912933349609375</LatitudeDegrees>
              <LongitudeDegrees>2.895334996283054351806640625</LongitudeDegrees>
            </Position>
            <AltitudeMeters>391</AltitudeMeters>
            <DistanceMeters>NAN</DistanceMeters>
          </Trackpoint>
          <Trackpoint>
            <Time>2020-02-15T10:29:29.000Z</Time>
            <Position>
              <LatitudeDegrees>41.97210210375487804412841796875</LatitudeDegrees>
              <LongitudeDegrees>2.89556466042995452880859375</LongitudeDegrees>
            </Position>
            <AltitudeMeters>390.600006103515625</AltitudeMeters>
            <DistanceMeters>NAN</DistanceMeters>
          </Trackpoint>
          <Trackpoint>
            <Time>2020-02-15T10:29:31.000Z</Time>
            <Position>
              <LatitudeDegrees>41.9720218889415264129638671875</LatitudeDegrees>
              <LongitudeDegrees>2.8958048857748508453369140625</LongitudeDegrees>
            </Position>
            <AltitudeMeters>390</AltitudeMeters>
            <DistanceMeters>NAN</DistanceMeters>
          </Trackpoint>
          <Trackpoint>
            <Time>2020-02-15T10:29:32.000Z</Time>
            <Position>
              <LatitudeDegrees>41.9719858467578887939453125</LatitudeDegrees>
              <LongitudeDegrees>2.895930446684360504150390625</LongitudeDegrees>
            </Position>
            <AltitudeMeters>390</AltitudeMeters>
            <DistanceMeters>NAN</DistanceMeters>
          </Trackpoint>
          <Trackpoint>
            <Time>2020-02-15T10:29:33.000Z</Time>
            <Position>
              <LatitudeDegrees>41.97194502688944339752197265625</LatitudeDegrees>
              <LongitudeDegrees>2.8960529901087284088134765625</LongitudeDegrees>
            </Position>
            <AltitudeMeters>389.79998779296875</AltitudeMeters>
            <DistanceMeters>NAN</DistanceMeters>
          </Trackpoint>
          <Trackpoint>
            <Time>2020-02-15T10:29:36.000Z</Time>
            <Position>
              <LatitudeDegrees>41.97180102579295635223388671875</LatitudeDegrees>
              <LongitudeDegrees>2.896403856575489044189453125</LongitudeDegrees>
            </Position>
            <AltitudeMeters>388.20001220703125</AltitudeMeters>
            <DistanceMeters>NAN</DistanceMeters>
          </Trackpoint>
          <Trackpoint>
            <Time>2020-02-15T10:29:37.000Z</Time>
            <Position>
              <LatitudeDegrees>41.97173531167209148406982421875</LatitudeDegrees>
              <LongitudeDegrees>2.896503098309040069580078125</LongitudeDegrees>
            </Position>
            <AltitudeMeters>387.600006103515625</AltitudeMeters>
            <DistanceMeters>NAN</DistanceMeters>
          </Trackpoint>
          <Trackpoint>
            <Time>2020-02-15T10:29:38.000Z</Time>
            <Position>
              <LatitudeDegrees>41.9716584496200084686279296875</LatitudeDegrees>
              <LongitudeDegrees>2.89658247493207454681396484375</LongitudeDegrees>
            </Position>
            <AltitudeMeters>387</AltitudeMeters>
            <DistanceMeters>NAN</DistanceMeters>
          </Trackpoint>
          <Trackpoint>
            <Time>2020-02-15T10:29:39.000Z</Time>
            <Position>
              <LatitudeDegrees>41.9715769775211811065673828125</LatitudeDegrees>
              <LongitudeDegrees>2.8966467641294002532958984375</LongitudeDegrees>
            </Position>
            <AltitudeMeters>386.600006103515625</AltitudeMeters>
            <DistanceMeters>NAN</DistanceMeters>
          </Trackpoint>
          <Trackpoint>
            <Time>2020-02-15T10:29:40.000Z</Time>
            <Position>
              <LatitudeDegrees>41.97149139828979969024658203125</LatitudeDegrees>
              <LongitudeDegrees>2.89670418016612529754638671875</LongitudeDegrees>
            </Position>
            <AltitudeMeters>386.20001220703125</AltitudeMeters>
            <DistanceMeters>NAN</DistanceMeters>
          </Trackpoint>
          <Trackpoint>
            <Time>2020-02-15T10:29:41.000Z</Time>
            <Position>
              <LatitudeDegrees>41.97140405885875225067138671875</LatitudeDegrees>
              <LongitudeDegrees>2.89676033891737461090087890625</LongitudeDegrees>
            </Position>
            <AltitudeMeters>385.399993896484375</AltitudeMeters>
            <DistanceMeters>NAN</DistanceMeters>
          </Trackpoint>
          <Trackpoint>
            <Time>2020-02-15T10:29:43.000Z</Time>
            <Position>
              <LatitudeDegrees>41.9712336547672748565673828125</LatitudeDegrees>
              <LongitudeDegrees>2.8968827985227108001708984375</LongitudeDegrees>
            </Position>
            <AltitudeMeters>383.399993896484375</AltitudeMeters>
            <DistanceMeters>NAN</DistanceMeters>
          </Trackpoint>
          <Trackpoint>
            <Time>2020-02-15T10:29:45.000Z</Time>
            <Position>
              <LatitudeDegrees>41.971068195998668670654296875</LatitudeDegrees>
              <LongitudeDegrees>2.8970185853540897369384765625</LongitudeDegrees>
            </Position>
            <AltitudeMeters>382.399993896484375</AltitudeMeters>
            <DistanceMeters>NAN</DistanceMeters>
          </Trackpoint>
          <Trackpoint>
            <Time>2020-02-15T10:29:46.000Z</Time>
            <Position>
              <LatitudeDegrees>41.9709905795753002166748046875</LatitudeDegrees>
              <LongitudeDegrees>2.89708924479782581329345703125</LongitudeDegrees>
            </Position>
            <AltitudeMeters>382</AltitudeMeters>
            <DistanceMeters>NAN</DistanceMeters>
          </Trackpoint>
          <Trackpoint>
            <Time>2020-02-15T10:29:47.000Z</Time>
            <Position>
              <LatitudeDegrees>41.97091438807547092437744140625</LatitudeDegrees>
              <LongitudeDegrees>2.89716032333672046661376953125</LongitudeDegrees>
            </Position>
            <AltitudeMeters>381.79998779296875</AltitudeMeters>
            <DistanceMeters>NAN</DistanceMeters>
          </Trackpoint>
          <Trackpoint>
            <Time>2020-02-15T10:29:48.000Z</Time>
            <Position>
              <LatitudeDegrees>41.9708376936614513397216796875</LatitudeDegrees>
              <LongitudeDegrees>2.89723240770399570465087890625</LongitudeDegrees>
            </Position>
            <AltitudeMeters>381.399993896484375</AltitudeMeters>
            <DistanceMeters>NAN</DistanceMeters>
          </Trackpoint>
          <Trackpoint>
            <Time>2020-02-15T10:29:49.000Z</Time>
            <Position>
              <LatitudeDegrees>41.97075982578098773956298828125</LatitudeDegrees>
              <LongitudeDegrees>2.89730130694806575775146484375</LongitudeDegrees>
            </Position>
            <AltitudeMeters>381.399993896484375</AltitudeMeters>
            <DistanceMeters>NAN</DistanceMeters>
          </Trackpoint>
          <Trackpoint>
            <Time>2020-02-15T10:29:50.000Z</Time>
            <Position>
              <LatitudeDegrees>41.97068941779434680938720703125</LatitudeDegrees>
              <LongitudeDegrees>2.89736970327794551849365234375</LongitudeDegrees>
            </Position>
            <AltitudeMeters>381.399993896484375</AltitudeMeters>
            <DistanceMeters>NAN</DistanceMeters>
          </Trackpoint>
          <Trackpoint>
            <Time>2020-02-15T10:29:51.000Z</Time>
            <Position>
              <LatitudeDegrees>41.97062269784510135650634765625</LatitudeDegrees>
              <LongitudeDegrees>2.89743592031300067901611328125</LongitudeDegrees>
            </Position>
            <AltitudeMeters>380.79998779296875</AltitudeMeters>
            <DistanceMeters>NAN</DistanceMeters>
          </Trackpoint>
          <Trackpoint>
            <Time>2020-02-15T10:29:52.000Z</Time>
            <Position>
              <LatitudeDegrees>41.9705584086477756500244140625</LatitudeDegrees>
              <LongitudeDegrees>2.89750029332935810089111328125</LongitudeDegrees>
            </Position>
            <AltitudeMeters>380.399993896484375</AltitudeMeters>
            <DistanceMeters>NAN</DistanceMeters>
          </Trackpoint>
          <Trackpoint>
            <Time>2020-02-15T10:29:53.000Z</Time>
            <Position>
              <LatitudeDegrees>41.97049831040203571319580078125</LatitudeDegrees>
              <LongitudeDegrees>2.89756030775606632232666015625</LongitudeDegrees>
            </Position>
            <AltitudeMeters>380.399993896484375</AltitudeMeters>
            <DistanceMeters>NAN</DistanceMeters>
          </Trackpoint>
          <Trackpoint>
            <Time>2020-02-15T10:29:54.000Z</Time>
            <Position>
              <LatitudeDegrees>41.97043946944177150726318359375</LatitudeDegrees>
              <LongitudeDegrees>2.89761789143085479736328125</LongitudeDegrees>
            </Position>
            <AltitudeMeters>379.600006103515625</AltitudeMeters>
            <DistanceMeters>NAN</DistanceMeters>
          </Trackpoint>
          <Trackpoint>
            <Time>2020-02-15T10:29:55.000Z</Time>
            <Position>
              <LatitudeDegrees>41.97038381360471248626708984375</LatitudeDegrees>
              <LongitudeDegrees>2.89767245762050151824951171875</LongitudeDegrees>
            </Position>
            <AltitudeMeters>379.399993896484375</AltitudeMeters>
            <DistanceMeters>NAN</DistanceMeters>
          </Trackpoint>
          <Trackpoint>
            <Time>2020-02-15T10:29:56.000Z</Time>
            <Position>
              <LatitudeDegrees>41.97032983414828777313232421875</LatitudeDegrees>
              <LongitudeDegrees>2.897722162306308746337890625</LongitudeDegrees>
            </Position>
            <AltitudeMeters>379.399993896484375</AltitudeMeters>
            <DistanceMeters>NAN</DistanceMeters>
          </Trackpoint>
          <Trackpoint>
            <Time>2020-02-15T10:29:57.000Z</Time>
            <Position>
              <LatitudeDegrees>41.97027484886348247528076171875</LatitudeDegrees>
              <LongitudeDegrees>2.8977652452886104583740234375</LongitudeDegrees>
            </Position>
            <AltitudeMeters>379.20001220703125</AltitudeMeters>
            <DistanceMeters>NAN</DistanceMeters>
          </Trackpoint>
          <Trackpoint>
            <Time>2020-02-15T10:29:58.000Z</Time>
            <Position>
              <LatitudeDegrees>41.9702207855880260467529296875</LatitudeDegrees>
              <LongitudeDegrees>2.89780572988092899322509765625</LongitudeDegrees>
            </Position>
            <AltitudeMeters>379</AltitudeMeters>
            <DistanceMeters>NAN</DistanceMeters>
          </Trackpoint>
          <Trackpoint>
            <Time>2020-02-15T10:29:59.000Z</Time>
            <Position>
              <LatitudeDegrees>41.97016655467450618743896484375</LatitudeDegrees>
              <LongitudeDegrees>2.89784411899745464324951171875</LongitudeDegrees>
            </Position>
            <AltitudeMeters>379.20001220703125</AltitudeMeters>
            <DistanceMeters>NAN</DistanceMeters>
          </Trackpoint>
          <Trackpoint>
            <Time>2020-02-15T10:30:00.000Z</Time>
            <Position>
              <LatitudeDegrees>41.97011140175163745880126953125</LatitudeDegrees>
              <LongitudeDegrees>2.89788133464753627777099609375</LongitudeDegrees>
            </Position>
            <AltitudeMeters>379</AltitudeMeters>
            <DistanceMeters>NAN</DistanceMeters>
          </Trackpoint>
          <Trackpoint>
            <Time>2020-02-15T10:30:01.000Z</Time>
            <Position>
              <LatitudeDegrees>41.970054991543292999267578125</LatitudeDegrees>
              <LongitudeDegrees>2.89791570045053958892822265625</LongitudeDegrees>
            </Position>
            <AltitudeMeters>379</AltitudeMeters>
            <DistanceMeters>NAN</DistanceMeters>
          </Trackpoint>
          <Trackpoint>
            <Time>2020-02-15T10:30:02.000Z</Time>
            <Position>
              <LatitudeDegrees>41.97000143118202686309814453125</LatitudeDegrees>
              <LongitudeDegrees>2.89794973097741603851318359375</LongitudeDegrees>
            </Position>
            <AltitudeMeters>379.20001220703125</AltitudeMeters>
            <DistanceMeters>NAN</DistanceMeters>
          </Trackpoint>
          <Trackpoint>
            <Time>2020-02-15T10:30:03.000Z</Time>
            <Position>
              <LatitudeDegrees>41.96995063684880733489990234375</LatitudeDegrees>
              <LongitudeDegrees>2.89798208512365818023681640625</LongitudeDegrees>
            </Position>
            <AltitudeMeters>379</AltitudeMeters>
            <DistanceMeters>NAN</DistanceMeters>
          </Trackpoint>
          <Trackpoint>
            <Time>2020-02-15T10:30:04.000Z</Time>
            <Position>
              <LatitudeDegrees>41.96990151889622211456298828125</LatitudeDegrees>
              <LongitudeDegrees>2.8980177082121372222900390625</LongitudeDegrees>
            </Position>
            <AltitudeMeters>379.399993896484375</AltitudeMeters>
            <DistanceMeters>NAN</DistanceMeters>
          </Trackpoint>
          <Trackpoint>
            <Time>2020-02-15T10:30:05.000Z</Time>
            <Position>
              <LatitudeDegrees>41.96985977701842784881591796875</LatitudeDegrees>
              <LongitudeDegrees>2.89805509150028228759765625</LongitudeDegrees>
            </Position>
            <AltitudeMeters>379.79998779296875</AltitudeMeters>
            <DistanceMeters>NAN</DistanceMeters>
          </Trackpoint>
          <Trackpoint>
            <Time>2020-02-15T10:30:06.000Z</Time>
            <Position>
              <LatitudeDegrees>41.9698197953402996063232421875</LatitudeDegrees>
              <LongitudeDegrees>2.8980964981019496917724609375</LongitudeDegrees>
            </Position>
            <AltitudeMeters>380</AltitudeMeters>
            <DistanceMeters>NAN</DistanceMeters>
          </Trackpoint>
          <Trackpoint>
            <Time>2020-02-15T10:30:07.000Z</Time>
            <Position>
              <LatitudeDegrees>41.96977771818637847900390625</LatitudeDegrees>
              <LongitudeDegrees>2.89814100600779056549072265625</LongitudeDegrees>
            </Position>
            <AltitudeMeters>380.20001220703125</AltitudeMeters>
            <DistanceMeters>NAN</DistanceMeters>
          </Trackpoint>
          <Trackpoint>
            <Time>2020-02-15T10:30:08.000Z</Time>
            <Position>
              <LatitudeDegrees>41.96973438374698162078857421875</LatitudeDegrees>
              <LongitudeDegrees>2.89818777702748775482177734375</LongitudeDegrees>
            </Position>
            <AltitudeMeters>380.399993896484375</AltitudeMeters>
            <DistanceMeters>NAN</DistanceMeters>
          </Trackpoint>
          <Trackpoint>
            <Time>2020-02-15T10:30:09.000Z</Time>
            <Position>
              <LatitudeDegrees>41.96969331242144107818603515625</LatitudeDegrees>
              <LongitudeDegrees>2.89823949337005615234375</LongitudeDegrees>
            </Position>
            <AltitudeMeters>380.600006103515625</AltitudeMeters>
            <DistanceMeters>NAN</DistanceMeters>
          </Trackpoint>
          <Trackpoint>
            <Time>2020-02-15T10:30:10.000Z</Time>
            <Position>
              <LatitudeDegrees>41.9696523249149322509765625</LatitudeDegrees>
              <LongitudeDegrees>2.898290790617465972900390625</LongitudeDegrees>
            </Position>
            <AltitudeMeters>380.79998779296875</AltitudeMeters>
            <DistanceMeters>NAN</DistanceMeters>
          </Trackpoint>
          <Trackpoint>
            <Time>2020-02-15T10:30:11.000Z</Time>
            <Position>
              <LatitudeDegrees>41.96961100213229656219482421875</LatitudeDegrees>
              <LongitudeDegrees>2.898338735103607177734375</LongitudeDegrees>
            </Position>
            <AltitudeMeters>381</AltitudeMeters>
            <DistanceMeters>NAN</DistanceMeters>
          </Trackpoint>
          <Trackpoint>
            <Time>2020-02-15T10:30:12.000Z</Time>
            <Position>
              <LatitudeDegrees>41.969570182263851165771484375</LatitudeDegrees>
              <LongitudeDegrees>2.8983851708471775054931640625</LongitudeDegrees>
            </Position>
            <AltitudeMeters>381.20001220703125</AltitudeMeters>
            <DistanceMeters>NAN</DistanceMeters>
          </Trackpoint>
          <Trackpoint>
            <Time>2020-02-15T10:30:13.000Z</Time>
            <Position>
              <LatitudeDegrees>41.96953154169023036956787109375</LatitudeDegrees>
              <LongitudeDegrees>2.89843236096203327178955078125</LongitudeDegrees>
            </Position>
            <AltitudeMeters>381.20001220703125</AltitudeMeters>
            <DistanceMeters>NAN</DistanceMeters>
          </Trackpoint>
          <Trackpoint>
            <Time>2020-02-15T10:30:14.000Z</Time>
            <Position>
              <LatitudeDegrees>41.96949332021176815032958984375</LatitudeDegrees>
              <LongitudeDegrees>2.8984810598194599151611328125</LongitudeDegrees>
            </Position>
            <AltitudeMeters>381.600006103515625</AltitudeMeters>
            <DistanceMeters>NAN</DistanceMeters>
          </Trackpoint>
          <Trackpoint>
            <Time>2020-02-15T10:30:15.000Z</Time>
            <Position>
              <LatitudeDegrees>41.96944939903914928436279296875</LatitudeDegrees>
              <LongitudeDegrees>2.89853227324783802032470703125</LongitudeDegrees>
            </Position>
            <AltitudeMeters>381.600006103515625</AltitudeMeters>
            <DistanceMeters>NAN</DistanceMeters>
          </Trackpoint>
          <Trackpoint>
            <Time>2020-02-15T10:30:16.000Z</Time>
            <Position>
              <LatitudeDegrees>41.96940598078072071075439453125</LatitudeDegrees>
              <LongitudeDegrees>2.89858155883848667144775390625</LongitudeDegrees>
            </Position>
            <AltitudeMeters>381.600006103515625</AltitudeMeters>
            <DistanceMeters>NAN</DistanceMeters>
          </Trackpoint>
          <Trackpoint>
            <Time>2020-02-15T10:30:17.000Z</Time>
            <Position>
              <LatitudeDegrees>41.9693628139793872833251953125</LatitudeDegrees>
              <LongitudeDegrees>2.8986302576959133148193359375</LongitudeDegrees>
            </Position>
            <AltitudeMeters>381.600006103515625</AltitudeMeters>
            <DistanceMeters>NAN</DistanceMeters>
          </Trackpoint>
          <Trackpoint>
            <Time>2020-02-15T10:30:18.000Z</Time>
            <Position>
              <LatitudeDegrees>41.96931512095034122467041015625</LatitudeDegrees>
              <LongitudeDegrees>2.8986761905252933502197265625</LongitudeDegrees>
            </Position>
            <AltitudeMeters>382</AltitudeMeters>
            <DistanceMeters>NAN</DistanceMeters>
          </Trackpoint>
          <Trackpoint>
            <Time>2020-02-15T10:30:19.000Z</Time>
            <Position>
              <LatitudeDegrees>41.96926214732229709625244140625</LatitudeDegrees>
              <LongitudeDegrees>2.8987164236605167388916015625</LongitudeDegrees>
            </Position>
            <AltitudeMeters>382</AltitudeMeters>
            <DistanceMeters>NAN</DistanceMeters>
          </Trackpoint>
          <Trackpoint>
            <Time>2020-02-15T10:30:20.000Z</Time>
            <Position>
              <LatitudeDegrees>41.969213448464870452880859375</LatitudeDegrees>
              <LongitudeDegrees>2.89875724352896213531494140625</LongitudeDegrees>
            </Position>
            <AltitudeMeters>382.20001220703125</AltitudeMeters>
            <DistanceMeters>NAN</DistanceMeters>
          </Trackpoint>
          <Trackpoint>
            <Time>2020-02-15T10:30:21.000Z</Time>
            <Position>
              <LatitudeDegrees>41.9691636599600315093994140625</LatitudeDegrees>
              <LongitudeDegrees>2.89879898540675640106201171875</LongitudeDegrees>
            </Position>
            <AltitudeMeters>382.399993896484375</AltitudeMeters>
            <DistanceMeters>NAN</DistanceMeters>
          </Trackpoint>
          <Trackpoint>
            <Time>2020-02-15T10:30:22.000Z</Time>
            <Position>
              <LatitudeDegrees>41.96911311708390712738037109375</LatitudeDegrees>
              <LongitudeDegrees>2.8988416492938995361328125</LongitudeDegrees>
            </Position>
            <AltitudeMeters>382.399993896484375</AltitudeMeters>
            <DistanceMeters>NAN</DistanceMeters>
          </Trackpoint>
          <Trackpoint>
            <Time>2020-02-15T10:30:25.000Z</Time>
            <Position>
              <LatitudeDegrees>41.9689645059406757354736328125</LatitudeDegrees>
              <LongitudeDegrees>2.89896838366985321044921875</LongitudeDegrees>
            </Position>
            <AltitudeMeters>383</AltitudeMeters>
            <DistanceMeters>NAN</DistanceMeters>
          </Trackpoint>
          <Trackpoint>
            <Time>2020-02-15T10:30:26.000Z</Time>
            <Position>
              <LatitudeDegrees>41.96891681291162967681884765625</LatitudeDegrees>
              <LongitudeDegrees>2.89901238866150379180908203125</LongitudeDegrees>
            </Position>
            <AltitudeMeters>383.20001220703125</AltitudeMeters>
            <DistanceMeters>NAN</DistanceMeters>
          </Trackpoint>
          <Trackpoint>
            <Time>2020-02-15T10:30:27.000Z</Time>
            <Position>
              <LatitudeDegrees>41.9688763283193111419677734375</LatitudeDegrees>
              <LongitudeDegrees>2.89905781857669353485107421875</LongitudeDegrees>
            </Position>
            <AltitudeMeters>383.20001220703125</AltitudeMeters>
            <DistanceMeters>NAN</DistanceMeters>
          </Trackpoint>
          <Trackpoint>
            <Time>2020-02-15T10:30:28.000Z</Time>
            <Position>
              <LatitudeDegrees>41.9688369333744049072265625</LatitudeDegrees>
              <LongitudeDegrees>2.89910517632961273193359375</LongitudeDegrees>
            </Position>
            <AltitudeMeters>383.399993896484375</AltitudeMeters>
            <DistanceMeters>NAN</DistanceMeters>
          </Trackpoint>
          <Trackpoint>
            <Time>2020-02-15T10:30:29.000Z</Time>
            <Position>
              <LatitudeDegrees>41.96879594586789608001708984375</LatitudeDegrees>
              <LongitudeDegrees>2.89914968423545360565185546875</LongitudeDegrees>
            </Position>
            <AltitudeMeters>383.399993896484375</AltitudeMeters>
            <DistanceMeters>NAN</DistanceMeters>
          </Trackpoint>
          <Trackpoint>
            <Time>2020-02-15T10:30:30.000Z</Time>
            <Position>
              <LatitudeDegrees>41.96875579655170440673828125</LatitudeDegrees>
              <LongitudeDegrees>2.89918891154229640960693359375</LongitudeDegrees>
            </Position>
            <AltitudeMeters>383.399993896484375</AltitudeMeters>
            <DistanceMeters>NAN</DistanceMeters>
          </Trackpoint>
          <Trackpoint>
            <Time>2020-02-15T10:30:31.000Z</Time>
            <Position>
              <LatitudeDegrees>41.9687150605022907257080078125</LatitudeDegrees>
              <LongitudeDegrees>2.899218834936618804931640625</LongitudeDegrees>
            </Position>
            <AltitudeMeters>383.600006103515625</AltitudeMeters>
            <DistanceMeters>NAN</DistanceMeters>
          </Trackpoint>
          <Trackpoint>
            <Time>2020-02-15T10:30:32.000Z</Time>
            <Position>
              <LatitudeDegrees>41.9686721451580524444580078125</LatitudeDegrees>
              <LongitudeDegrees>2.8992334194481372833251953125</LongitudeDegrees>
            </Position>
            <AltitudeMeters>383.399993896484375</AltitudeMeters>
            <DistanceMeters>NAN</DistanceMeters>
          </Trackpoint>
          <Trackpoint>
            <Time>2020-02-15T10:30:33.000Z</Time>
            <Position>
              <LatitudeDegrees>41.9686342589557170867919921875</LatitudeDegrees>
              <LongitudeDegrees>2.89923316799104213714599609375</LongitudeDegrees>
            </Position>
            <AltitudeMeters>383.600006103515625</AltitudeMeters>
            <DistanceMeters>NAN</DistanceMeters>
          </Trackpoint>
          <Trackpoint>
            <Time>2020-02-15T10:30:34.000Z</Time>
            <Position>
              <LatitudeDegrees>41.9686014018952846527099609375</LatitudeDegrees>
              <LongitudeDegrees>2.89922051131725311279296875</LongitudeDegrees>
            </Position>
            <AltitudeMeters>383.600006103515625</AltitudeMeters>
            <DistanceMeters>NAN</DistanceMeters>
          </Trackpoint>
          <Trackpoint>
            <Time>2020-02-15T10:30:35.000Z</Time>
            <Position>
              <LatitudeDegrees>41.96857097558677196502685546875</LatitudeDegrees>
              <LongitudeDegrees>2.8991925157606601715087890625</LongitudeDegrees>
            </Position>
            <AltitudeMeters>383.600006103515625</AltitudeMeters>
            <DistanceMeters>NAN</DistanceMeters>
          </Trackpoint>
          <Trackpoint>
            <Time>2020-02-15T10:30:36.000Z</Time>
            <Position>
              <LatitudeDegrees>41.96855052374303340911865234375</LatitudeDegrees>
              <LongitudeDegrees>2.89914851076900959014892578125</LongitudeDegrees>
            </Position>
            <AltitudeMeters>383.600006103515625</AltitudeMeters>
            <DistanceMeters>NAN</DistanceMeters>
          </Trackpoint>
          <Trackpoint>
            <Time>2020-02-15T10:30:37.000Z</Time>
            <Position>
              <LatitudeDegrees>41.96853987872600555419921875</LatitudeDegrees>
              <LongitudeDegrees>2.89909536950290203094482421875</LongitudeDegrees>
            </Position>
            <AltitudeMeters>383.79998779296875</AltitudeMeters>
            <DistanceMeters>NAN</DistanceMeters>
          </Trackpoint>
          <Trackpoint>
            <Time>2020-02-15T10:30:38.000Z</Time>
            <Position>
              <LatitudeDegrees>41.9685340113937854766845703125</LatitudeDegrees>
              <LongitudeDegrees>2.899038791656494140625</LongitudeDegrees>
            </Position>
            <AltitudeMeters>383.79998779296875</AltitudeMeters>
            <DistanceMeters>NAN</DistanceMeters>
          </Trackpoint>
          <Trackpoint>
            <Time>2020-02-15T10:30:39.000Z</Time>
            <Position>
              <LatitudeDegrees>41.9685323350131511688232421875</LatitudeDegrees>
              <LongitudeDegrees>2.89897953160107135772705078125</LongitudeDegrees>
            </Position>
            <AltitudeMeters>383.600006103515625</AltitudeMeters>
            <DistanceMeters>NAN</DistanceMeters>
          </Trackpoint>
          <Trackpoint>
            <Time>2020-02-15T10:30:40.000Z</Time>
            <Position>
              <LatitudeDegrees>41.9685343466699123382568359375</LatitudeDegrees>
              <LongitudeDegrees>2.8989222832024097442626953125</LongitudeDegrees>
            </Position>
            <AltitudeMeters>383.600006103515625</AltitudeMeters>
            <DistanceMeters>NAN</DistanceMeters>
          </Trackpoint>
          <Trackpoint>
            <Time>2020-02-15T10:30:41.000Z</Time>
            <Position>
              <LatitudeDegrees>41.96853694505989551544189453125</LatitudeDegrees>
              <LongitudeDegrees>2.8988672979176044464111328125</LongitudeDegrees>
            </Position>
            <AltitudeMeters>384</AltitudeMeters>
            <DistanceMeters>NAN</DistanceMeters>
          </Trackpoint>
          <Trackpoint>
            <Time>2020-02-15T10:30:42.000Z</Time>
            <Position>
              <LatitudeDegrees>41.9685338437557220458984375</LatitudeDegrees>
              <LongitudeDegrees>2.898815833032131195068359375</LongitudeDegrees>
            </Position>
            <AltitudeMeters>384</AltitudeMeters>
            <DistanceMeters>NAN</DistanceMeters>
          </Trackpoint>
          <Trackpoint>
            <Time>2020-02-15T10:30:43.000Z</Time>
            <Position>
              <LatitudeDegrees>41.96852856315672397613525390625</LatitudeDegrees>
              <LongitudeDegrees>2.89876679889857769012451171875</LongitudeDegrees>
            </Position>
            <AltitudeMeters>384.20001220703125</AltitudeMeters>
            <DistanceMeters>NAN</DistanceMeters>
          </Trackpoint>
          <Trackpoint>
            <Time>2020-02-15T10:30:44.000Z</Time>
            <Position>
              <LatitudeDegrees>41.9685206003487110137939453125</LatitudeDegrees>
              <LongitudeDegrees>2.898717261850833892822265625</LongitudeDegrees>
            </Position>
            <AltitudeMeters>384.20001220703125</AltitudeMeters>
            <DistanceMeters>NAN</DistanceMeters>
          </Trackpoint>
          <Trackpoint>
            <Time>2020-02-15T10:30:45.000Z</Time>
            <Position>
              <LatitudeDegrees>41.9685115478932857513427734375</LatitudeDegrees>
              <LongitudeDegrees>2.89866571314632892608642578125</LongitudeDegrees>
            </Position>
            <AltitudeMeters>384.20001220703125</AltitudeMeters>
            <DistanceMeters>NAN</DistanceMeters>
          </Trackpoint>
          <Trackpoint>
            <Time>2020-02-15T10:30:48.000Z</Time>
            <Position>
              <LatitudeDegrees>41.9684823788702487945556640625</LatitudeDegrees>
              <LongitudeDegrees>2.8985336981713771820068359375</LongitudeDegrees>
            </Position>
            <AltitudeMeters>384.20001220703125</AltitudeMeters>
            <DistanceMeters>NAN</DistanceMeters>
          </Trackpoint>
          <Trackpoint>
            <Time>2020-02-15T10:30:49.000Z</Time>
            <Position>
              <LatitudeDegrees>41.9684773497283458709716796875</LatitudeDegrees>
              <LongitudeDegrees>2.89850302040576934814453125</LongitudeDegrees>
            </Position>
            <AltitudeMeters>384.20001220703125</AltitudeMeters>
            <DistanceMeters>NAN</DistanceMeters>
          </Trackpoint>
          <Trackpoint>
            <Time>2020-02-15T10:30:50.000Z</Time>
            <Position>
              <LatitudeDegrees>41.96847324259579181671142578125</LatitudeDegrees>
              <LongitudeDegrees>2.89848692715167999267578125</LongitudeDegrees>
            </Position>
            <AltitudeMeters>384.20001220703125</AltitudeMeters>
            <DistanceMeters>NAN</DistanceMeters>
          </Trackpoint>
          <Trackpoint>
            <Time>2020-02-15T10:30:51.000Z</Time>
            <Position>
              <LatitudeDegrees>41.96847156621515750885009765625</LatitudeDegrees>
              <LongitudeDegrees>2.89848231710493564605712890625</LongitudeDegrees>
            </Position>
            <AltitudeMeters>384.20001220703125</AltitudeMeters>
            <DistanceMeters>NAN</DistanceMeters>
          </Trackpoint>
          <Trackpoint>
            <Time>2020-02-15T10:30:53.000Z</Time>
            <Position>
              <LatitudeDegrees>41.968467123806476593017578125</LatitudeDegrees>
              <LongitudeDegrees>2.898484580218791961669921875</LongitudeDegrees>
            </Position>
            <AltitudeMeters>384</AltitudeMeters>
            <DistanceMeters>NAN</DistanceMeters>
          </Trackpoint>
          <Trackpoint>
            <Time>2020-02-15T10:31:00.000Z</Time>
            <Position>
              <LatitudeDegrees>41.9684622623026371002197265625</LatitudeDegrees>
              <LongitudeDegrees>2.8984884358942508697509765625</LongitudeDegrees>
            </Position>
            <AltitudeMeters>383</AltitudeMeters>
            <DistanceMeters>NAN</DistanceMeters>
          </Trackpoint>
          <Trackpoint>
            <Time>2020-02-15T10:31:04.000Z</Time>
            <Position>
              <LatitudeDegrees>41.9684629328548908233642578125</LatitudeDegrees>
              <LongitudeDegrees>2.8984897769987583160400390625</LongitudeDegrees>
            </Position>
            <AltitudeMeters>382.600006103515625</AltitudeMeters>
            <DistanceMeters>NAN</DistanceMeters>
          </Trackpoint>
          <Trackpoint>
            <Time>2020-02-15T10:31:13.000Z</Time>
            <Position>
              <LatitudeDegrees>41.968465112149715423583984375</LatitudeDegrees>
              <LongitudeDegrees>2.89849773980677127838134765625</LongitudeDegrees>
            </Position>
            <AltitudeMeters>382.399993896484375</AltitudeMeters>
            <DistanceMeters>NAN</DistanceMeters>
          </Trackpoint>
          <Trackpoint>
            <Time>2020-02-15T10:31:20.000Z</Time>
            <Position>
              <LatitudeDegrees>41.96847877465188503265380859375</LatitudeDegrees>
              <LongitudeDegrees>2.898553311824798583984375</LongitudeDegrees>
            </Position>
            <AltitudeMeters>382.399993896484375</AltitudeMeters>
            <DistanceMeters>NAN</DistanceMeters>
          </Trackpoint>
          <Trackpoint>
            <Time>2020-02-15T10:31:21.000Z</Time>
            <Position>
              <LatitudeDegrees>41.968481875956058502197265625</LatitudeDegrees>
              <LongitudeDegrees>2.89857736788690090179443359375</LongitudeDegrees>
            </Position>
            <AltitudeMeters>382.399993896484375</AltitudeMeters>
            <DistanceMeters>NAN</DistanceMeters>
          </Trackpoint>
          <Trackpoint>
            <Time>2020-02-15T10:31:22.000Z</Time>
            <Position>
              <LatitudeDegrees>41.9684853963553905487060546875</LatitudeDegrees>
              <LongitudeDegrees>2.8985989093780517578125</LongitudeDegrees>
            </Position>
            <AltitudeMeters>382.600006103515625</AltitudeMeters>
            <DistanceMeters>NAN</DistanceMeters>
          </Trackpoint>
          <Trackpoint>
            <Time>2020-02-15T10:31:25.000Z</Time>
            <Position>
              <LatitudeDegrees>41.9685061834752559661865234375</LatitudeDegrees>
              <LongitudeDegrees>2.89868365041911602020263671875</LongitudeDegrees>
            </Position>
            <AltitudeMeters>382.600006103515625</AltitudeMeters>
            <DistanceMeters>NAN</DistanceMeters>
          </Trackpoint>
          <Trackpoint>
            <Time>2020-02-15T10:31:26.000Z</Time>
            <Position>
              <LatitudeDegrees>41.9685202650725841522216796875</LatitudeDegrees>
              <LongitudeDegrees>2.89871147833764553070068359375</LongitudeDegrees>
            </Position>
            <AltitudeMeters>382.600006103515625</AltitudeMeters>
            <DistanceMeters>NAN</DistanceMeters>
          </Trackpoint>
          <Trackpoint>
            <Time>2020-02-15T10:31:27.000Z</Time>
            <Position>
              <LatitudeDegrees>41.9685319997370243072509765625</LatitudeDegrees>
              <LongitudeDegrees>2.898741401731967926025390625</LongitudeDegrees>
            </Position>
            <AltitudeMeters>382.600006103515625</AltitudeMeters>
            <DistanceMeters>NAN</DistanceMeters>
          </Trackpoint>
          <Trackpoint>
            <Time>2020-02-15T10:31:28.000Z</Time>
            <Position>
              <LatitudeDegrees>41.968539543449878692626953125</LatitudeDegrees>
              <LongitudeDegrees>2.898776941001415252685546875</LongitudeDegrees>
            </Position>
            <AltitudeMeters>382.600006103515625</AltitudeMeters>
            <DistanceMeters>NAN</DistanceMeters>
          </Trackpoint>
          <Trackpoint>
            <Time>2020-02-15T10:31:29.000Z</Time>
            <Position>
              <LatitudeDegrees>41.96854482404887676239013671875</LatitudeDegrees>
              <LongitudeDegrees>2.89881549775600433349609375</LongitudeDegrees>
            </Position>
            <AltitudeMeters>382.600006103515625</AltitudeMeters>
            <DistanceMeters>NAN</DistanceMeters>
          </Trackpoint>
          <Trackpoint>
            <Time>2020-02-15T10:31:30.000Z</Time>
            <Position>
              <LatitudeDegrees>41.968548260629177093505859375</LatitudeDegrees>
              <LongitudeDegrees>2.898851372301578521728515625</LongitudeDegrees>
            </Position>
            <AltitudeMeters>382.600006103515625</AltitudeMeters>
            <DistanceMeters>NAN</DistanceMeters>
          </Trackpoint>
          <Trackpoint>
            <Time>2020-02-15T10:31:31.000Z</Time>
            <Position>
              <LatitudeDegrees>41.9685484282672405242919921875</LatitudeDegrees>
              <LongitudeDegrees>2.8988843970000743865966796875</LongitudeDegrees>
            </Position>
            <AltitudeMeters>382.600006103515625</AltitudeMeters>
            <DistanceMeters>NAN</DistanceMeters>
          </Trackpoint>
          <Trackpoint>
            <Time>2020-02-15T10:31:32.000Z</Time>
            <Position>
              <LatitudeDegrees>41.96854616515338420867919921875</LatitudeDegrees>
              <LongitudeDegrees>2.8989185951650142669677734375</LongitudeDegrees>
            </Position>
            <AltitudeMeters>382.79998779296875</AltitudeMeters>
            <DistanceMeters>NAN</DistanceMeters>
          </Trackpoint>
          <Trackpoint>
            <Time>2020-02-15T10:31:33.000Z</Time>
            <Position>
              <LatitudeDegrees>41.968544237315654754638671875</LatitudeDegrees>
              <LongitudeDegrees>2.898954637348651885986328125</LongitudeDegrees>
            </Position>
            <AltitudeMeters>383</AltitudeMeters>
            <DistanceMeters>NAN</DistanceMeters>
          </Trackpoint>
          <Trackpoint>
            <Time>2020-02-15T10:31:35.000Z</Time>
            <Position>
              <LatitudeDegrees>41.96854054927825927734375</LatitudeDegrees>
              <LongitudeDegrees>2.89902110584080219268798828125</LongitudeDegrees>
            </Position>
            <AltitudeMeters>383.20001220703125</AltitudeMeters>
            <DistanceMeters>NAN</DistanceMeters>
          </Trackpoint>
          <Trackpoint>
            <Time>2020-02-15T10:31:36.000Z</Time>
            <Position>
              <LatitudeDegrees>41.9685464166104793548583984375</LatitudeDegrees>
              <LongitudeDegrees>2.8990510292351245880126953125</LongitudeDegrees>
            </Position>
            <AltitudeMeters>383.600006103515625</AltitudeMeters>
            <DistanceMeters>NAN</DistanceMeters>
          </Trackpoint>
          <Trackpoint>
            <Time>2020-02-15T10:31:37.000Z</Time>
            <Position>
              <LatitudeDegrees>41.9685571454465389251708984375</LatitudeDegrees>
              <LongitudeDegrees>2.8990791924297809600830078125</LongitudeDegrees>
            </Position>
            <AltitudeMeters>383.600006103515625</AltitudeMeters>
            <DistanceMeters>NAN</DistanceMeters>
          </Trackpoint>
          <Trackpoint>
            <Time>2020-02-15T10:31:38.000Z</Time>
            <Position>
              <LatitudeDegrees>41.9685645215213298797607421875</LatitudeDegrees>
              <LongitudeDegrees>2.8991050086915493011474609375</LongitudeDegrees>
            </Position>
            <AltitudeMeters>383.600006103515625</AltitudeMeters>
            <DistanceMeters>NAN</DistanceMeters>
          </Trackpoint>
          <Trackpoint>
            <Time>2020-02-15T10:31:39.000Z</Time>
            <Position>
              <LatitudeDegrees>41.96857064031064510345458984375</LatitudeDegrees>
              <LongitudeDegrees>2.89913057349622249603271484375</LongitudeDegrees>
            </Position>
            <AltitudeMeters>383.600006103515625</AltitudeMeters>
            <DistanceMeters>NAN</DistanceMeters>
          </Trackpoint>
          <Trackpoint>
            <Time>2020-02-15T10:31:40.000Z</Time>
            <Position>
              <LatitudeDegrees>41.968577764928340911865234375</LatitudeDegrees>
              <LongitudeDegrees>2.8991529531776905059814453125</LongitudeDegrees>
            </Position>
            <AltitudeMeters>383.79998779296875</AltitudeMeters>
            <DistanceMeters>NAN</DistanceMeters>
          </Trackpoint>
          <Trackpoint>
            <Time>2020-02-15T10:31:41.000Z</Time>
            <Position>
              <LatitudeDegrees>41.9685863144695758819580078125</LatitudeDegrees>
              <LongitudeDegrees>2.89917248301208019256591796875</LongitudeDegrees>
            </Position>
            <AltitudeMeters>383.600006103515625</AltitudeMeters>
            <DistanceMeters>NAN</DistanceMeters>
          </Trackpoint>
          <Trackpoint>
            <Time>2020-02-15T10:31:42.000Z</Time>
            <Position>
              <LatitudeDegrees>41.968594528734683990478515625</LatitudeDegrees>
              <LongitudeDegrees>2.89918757043778896331787109375</LongitudeDegrees>
            </Position>
            <AltitudeMeters>383.600006103515625</AltitudeMeters>
            <DistanceMeters>NAN</DistanceMeters>
          </Trackpoint>
          <Trackpoint>
            <Time>2020-02-15T10:31:43.000Z</Time>
            <Position>
              <LatitudeDegrees>41.96860131807625293731689453125</LatitudeDegrees>
              <LongitudeDegrees>2.89920299313962459564208984375</LongitudeDegrees>
            </Position>
            <AltitudeMeters>383.79998779296875</AltitudeMeters>
            <DistanceMeters>NAN</DistanceMeters>
          </Trackpoint>
          <Trackpoint>
            <Time>2020-02-15T10:31:44.000Z</Time>
            <Position>
              <LatitudeDegrees>41.96860492229461669921875</LatitudeDegrees>
              <LongitudeDegrees>2.89921925403177738189697265625</LongitudeDegrees>
            </Position>
            <AltitudeMeters>383.79998779296875</AltitudeMeters>
            <DistanceMeters>NAN</DistanceMeters>
          </Trackpoint>
          <Trackpoint>
            <Time>2020-02-15T10:31:45.000Z</Time>
            <Position>
              <LatitudeDegrees>41.9686003960669040679931640625</LatitudeDegrees>
              <LongitudeDegrees>2.899236939847469329833984375</LongitudeDegrees>
            </Position>
            <AltitudeMeters>383.79998779296875</AltitudeMeters>
            <DistanceMeters>NAN</DistanceMeters>
          </Trackpoint>
          <Trackpoint>
            <Time>2020-02-15T10:31:46.000Z</Time>
            <Position>
              <LatitudeDegrees>41.968588493764400482177734375</LatitudeDegrees>
              <LongitudeDegrees>2.89925135672092437744140625</LongitudeDegrees>
            </Position>
            <AltitudeMeters>383.79998779296875</AltitudeMeters>
            <DistanceMeters>NAN</DistanceMeters>
          </Trackpoint>
          <Trackpoint>
            <Time>2020-02-15T10:31:47.000Z</Time>
            <Position>
              <LatitudeDegrees>41.96857198141515254974365234375</LatitudeDegrees>
              <LongitudeDegrees>2.8992595709860324859619140625</LongitudeDegrees>
            </Position>
            <AltitudeMeters>384</AltitudeMeters>
            <DistanceMeters>NAN</DistanceMeters>
          </Trackpoint>
          <Trackpoint>
            <Time>2020-02-15T10:31:48.000Z</Time>
            <Position>
              <LatitudeDegrees>41.9685537926852703094482421875</LatitudeDegrees>
              <LongitudeDegrees>2.89925663731992244720458984375</LongitudeDegrees>
            </Position>
            <AltitudeMeters>383.79998779296875</AltitudeMeters>
            <DistanceMeters>NAN</DistanceMeters>
          </Trackpoint>
          <Trackpoint>
            <Time>2020-02-15T10:31:49.000Z</Time>
            <Position>
              <LatitudeDegrees>41.96853644214570522308349609375</LatitudeDegrees>
              <LongitudeDegrees>2.89924599230289459228515625</LongitudeDegrees>
            </Position>
            <AltitudeMeters>384</AltitudeMeters>
            <DistanceMeters>NAN</DistanceMeters>
          </Trackpoint>
          <Trackpoint>
            <Time>2020-02-15T10:31:50.000Z</Time>
            <Position>
              <LatitudeDegrees>41.96852244436740875244140625</LatitudeDegrees>
              <LongitudeDegrees>2.89922654628753662109375</LongitudeDegrees>
            </Position>
            <AltitudeMeters>384</AltitudeMeters>
            <DistanceMeters>NAN</DistanceMeters>
          </Trackpoint>
          <Trackpoint>
            <Time>2020-02-15T10:31:51.000Z</Time>
            <Position>
              <LatitudeDegrees>41.96851347573101520538330078125</LatitudeDegrees>
              <LongitudeDegrees>2.89920349605381488800048828125</LongitudeDegrees>
            </Position>
            <AltitudeMeters>383.79998779296875</AltitudeMeters>
            <DistanceMeters>NAN</DistanceMeters>
          </Trackpoint>
          <Trackpoint>
            <Time>2020-02-15T10:31:52.000Z</Time>
            <Position>
              <LatitudeDegrees>41.968510709702968597412109375</LatitudeDegrees>
              <LongitudeDegrees>2.89917650632560253143310546875</LongitudeDegrees>
            </Position>
            <AltitudeMeters>384</AltitudeMeters>
            <DistanceMeters>NAN</DistanceMeters>
          </Trackpoint>
          <Trackpoint>
            <Time>2020-02-15T10:31:53.000Z</Time>
            <Position>
              <LatitudeDegrees>41.9685108773410320281982421875</LatitudeDegrees>
              <LongitudeDegrees>2.89914951659739017486572265625</LongitudeDegrees>
            </Position>
            <AltitudeMeters>383.79998779296875</AltitudeMeters>
            <DistanceMeters>NAN</DistanceMeters>
          </Trackpoint>
          <Trackpoint>
            <Time>2020-02-15T10:31:54.000Z</Time>
            <Position>
              <LatitudeDegrees>41.96851364336907863616943359375</LatitudeDegrees>
              <LongitudeDegrees>2.89912068285048007965087890625</LongitudeDegrees>
            </Position>
            <AltitudeMeters>384</AltitudeMeters>
            <DistanceMeters>NAN</DistanceMeters>
          </Trackpoint>
          <Trackpoint>
            <Time>2020-02-15T10:31:55.000Z</Time>
            <Position>
              <LatitudeDegrees>41.9685185886919498443603515625</LatitudeDegrees>
              <LongitudeDegrees>2.89909184910356998443603515625</LongitudeDegrees>
            </Position>
            <AltitudeMeters>383.79998779296875</AltitudeMeters>
            <DistanceMeters>NAN</DistanceMeters>
          </Trackpoint>
          <Trackpoint>
            <Time>2020-02-15T10:31:58.000Z</Time>
            <Position>
              <LatitudeDegrees>41.9685306586325168609619140625</LatitudeDegrees>
              <LongitudeDegrees>2.89899478666484355926513671875</LongitudeDegrees>
            </Position>
            <AltitudeMeters>383.79998779296875</AltitudeMeters>
            <DistanceMeters>NAN</DistanceMeters>
          </Trackpoint>
          <Trackpoint>
            <Time>2020-02-15T10:31:59.000Z</Time>
            <Position>
              <LatitudeDegrees>41.9685309939086437225341796875</LatitudeDegrees>
              <LongitudeDegrees>2.89896042086184024810791015625</LongitudeDegrees>
            </Position>
            <AltitudeMeters>384</AltitudeMeters>
            <DistanceMeters>NAN</DistanceMeters>
          </Trackpoint>
          <Trackpoint>
            <Time>2020-02-15T10:32:00.000Z</Time>
            <Position>
              <LatitudeDegrees>41.9685313291847705841064453125</LatitudeDegrees>
              <LongitudeDegrees>2.89892546832561492919921875</LongitudeDegrees>
            </Position>
            <AltitudeMeters>384</AltitudeMeters>
            <DistanceMeters>NAN</DistanceMeters>
          </Trackpoint>
          <Trackpoint>
            <Time>2020-02-15T10:32:02.000Z</Time>
            <Position>
              <LatitudeDegrees>41.96852370165288448333740234375</LatitudeDegrees>
              <LongitudeDegrees>2.89885547943413257598876953125</LongitudeDegrees>
            </Position>
            <AltitudeMeters>384</AltitudeMeters>
            <DistanceMeters>NAN</DistanceMeters>
          </Trackpoint>
          <Trackpoint>
            <Time>2020-02-15T10:32:06.000Z</Time>
            <Position>
              <LatitudeDegrees>41.96849855594336986541748046875</LatitudeDegrees>
              <LongitudeDegrees>2.898705862462520599365234375</LongitudeDegrees>
            </Position>
            <AltitudeMeters>384.20001220703125</AltitudeMeters>
            <DistanceMeters>NAN</DistanceMeters>
          </Trackpoint>
          <Trackpoint>
            <Time>2020-02-15T10:32:08.000Z</Time>
            <Position>
              <LatitudeDegrees>41.9684753380715847015380859375</LatitudeDegrees>
              <LongitudeDegrees>2.89861810393631458282470703125</LongitudeDegrees>
            </Position>
            <AltitudeMeters>384</AltitudeMeters>
            <DistanceMeters>NAN</DistanceMeters>
          </Trackpoint>
          <Trackpoint>
            <Time>2020-02-15T10:32:09.000Z</Time>
            <Position>
              <LatitudeDegrees>41.9684602506458759307861328125</LatitudeDegrees>
              <LongitudeDegrees>2.89856848306953907012939453125</LongitudeDegrees>
            </Position>
            <AltitudeMeters>384</AltitudeMeters>
            <DistanceMeters>NAN</DistanceMeters>
          </Trackpoint>
          <Trackpoint>
            <Time>2020-02-15T10:32:10.000Z</Time>
            <Position>
              <LatitudeDegrees>41.968444325029850006103515625</LatitudeDegrees>
              <LongitudeDegrees>2.8985171020030975341796875</LongitudeDegrees>
            </Position>
            <AltitudeMeters>384</AltitudeMeters>
            <DistanceMeters>NAN</DistanceMeters>
          </Trackpoint>
          <Trackpoint>
            <Time>2020-02-15T10:32:11.000Z</Time>
            <Position>
              <LatitudeDegrees>41.96842881850898265838623046875</LatitudeDegrees>
              <LongitudeDegrees>2.8984642960131168365478515625</LongitudeDegrees>
            </Position>
            <AltitudeMeters>384</AltitudeMeters>
            <DistanceMeters>NAN</DistanceMeters>
          </Trackpoint>
          <Trackpoint>
            <Time>2020-02-15T10:32:12.000Z</Time>
            <Position>
              <LatitudeDegrees>41.9684129767119884490966796875</LatitudeDegrees>
              <LongitudeDegrees>2.89840939454734325408935546875</LongitudeDegrees>
            </Position>
            <AltitudeMeters>384</AltitudeMeters>
            <DistanceMeters>NAN</DistanceMeters>
          </Trackpoint>
          <Trackpoint>
            <Time>2020-02-15T10:32:13.000Z</Time>
            <Position>
              <LatitudeDegrees>41.96839638054370880126953125</LatitudeDegrees>
              <LongitudeDegrees>2.8983506374061107635498046875</LongitudeDegrees>
            </Position>
            <AltitudeMeters>384</AltitudeMeters>
            <DistanceMeters>NAN</DistanceMeters>
          </Trackpoint>
          <Trackpoint>
            <Time>2020-02-15T10:32:14.000Z</Time>
            <Position>
              <LatitudeDegrees>41.96838221512734889984130859375</LatitudeDegrees>
              <LongitudeDegrees>2.89828282780945301055908203125</LongitudeDegrees>
            </Position>
            <AltitudeMeters>384</AltitudeMeters>
            <DistanceMeters>NAN</DistanceMeters>
          </Trackpoint>
          <Trackpoint>
            <Time>2020-02-15T10:32:15.000Z</Time>
            <Position>
              <LatitudeDegrees>41.968368552625179290771484375</LatitudeDegrees>
              <LongitudeDegrees>2.8982166945934295654296875</LongitudeDegrees>
            </Position>
            <AltitudeMeters>383.79998779296875</AltitudeMeters>
            <DistanceMeters>NAN</DistanceMeters>
          </Trackpoint>
          <Trackpoint>
            <Time>2020-02-15T10:32:17.000Z</Time>
            <Position>
              <LatitudeDegrees>41.968325637280941009521484375</LatitudeDegrees>
              <LongitudeDegrees>2.8980703465640544891357421875</LongitudeDegrees>
            </Position>
            <AltitudeMeters>383.600006103515625</AltitudeMeters>
            <DistanceMeters>NAN</DistanceMeters>
          </Trackpoint>
          <Trackpoint>
            <Time>2020-02-15T10:32:19.000Z</Time>
            <Position>
              <LatitudeDegrees>41.96827895008027553558349609375</LatitudeDegrees>
              <LongitudeDegrees>2.897893823683261871337890625</LongitudeDegrees>
            </Position>
            <AltitudeMeters>383.20001220703125</AltitudeMeters>
            <DistanceMeters>NAN</DistanceMeters>
          </Trackpoint>
          <Trackpoint>
            <Time>2020-02-15T10:32:20.000Z</Time>
            <Position>
              <LatitudeDegrees>41.9682577438652515411376953125</LatitudeDegrees>
              <LongitudeDegrees>2.8977940790355205535888671875</LongitudeDegrees>
            </Position>
            <AltitudeMeters>383</AltitudeMeters>
            <DistanceMeters>NAN</DistanceMeters>
          </Trackpoint>
          <Trackpoint>
            <Time>2020-02-15T10:32:21.000Z</Time>
            <Position>
              <LatitudeDegrees>41.968241818249225616455078125</LatitudeDegrees>
              <LongitudeDegrees>2.89768503047525882720947265625</LongitudeDegrees>
            </Position>
            <AltitudeMeters>382.399993896484375</AltitudeMeters>
            <DistanceMeters>NAN</DistanceMeters>
          </Trackpoint>
          <Trackpoint>
            <Time>2020-02-15T10:32:22.000Z</Time>
            <Position>
              <LatitudeDegrees>41.96823033504188060760498046875</LatitudeDegrees>
              <LongitudeDegrees>2.89757908321917057037353515625</LongitudeDegrees>
            </Position>
            <AltitudeMeters>382.20001220703125</AltitudeMeters>
            <DistanceMeters>NAN</DistanceMeters>
          </Trackpoint>
          <Trackpoint>
            <Time>2020-02-15T10:32:23.000Z</Time>
            <Position>
              <LatitudeDegrees>41.968215666711330413818359375</LatitudeDegrees>
              <LongitudeDegrees>2.89748889394104480743408203125</LongitudeDegrees>
            </Position>
            <AltitudeMeters>381.600006103515625</AltitudeMeters>
            <DistanceMeters>NAN</DistanceMeters>
          </Trackpoint>
          <Trackpoint>
            <Time>2020-02-15T10:32:24.000Z</Time>
            <Position>
              <LatitudeDegrees>41.968195550143718719482421875</LatitudeDegrees>
              <LongitudeDegrees>2.89741337299346923828125</LongitudeDegrees>
            </Position>
            <AltitudeMeters>381.399993896484375</AltitudeMeters>
            <DistanceMeters>NAN</DistanceMeters>
          </Trackpoint>
          <Trackpoint>
            <Time>2020-02-15T10:32:25.000Z</Time>
            <Position>
              <LatitudeDegrees>41.96816981770098209381103515625</LatitudeDegrees>
              <LongitudeDegrees>2.89735143072903156280517578125</LongitudeDegrees>
            </Position>
            <AltitudeMeters>380.79998779296875</AltitudeMeters>
            <DistanceMeters>NAN</DistanceMeters>
          </Trackpoint>
          <Trackpoint>
            <Time>2020-02-15T10:32:26.000Z</Time>
            <Position>
              <LatitudeDegrees>41.9681440852582454681396484375</LatitudeDegrees>
              <LongitudeDegrees>2.89730264805257320404052734375</LongitudeDegrees>
            </Position>
            <AltitudeMeters>380.399993896484375</AltitudeMeters>
            <DistanceMeters>NAN</DistanceMeters>
          </Trackpoint>
          <Trackpoint>
            <Time>2020-02-15T10:32:27.000Z</Time>
            <Position>
              <LatitudeDegrees>41.9681209512054920196533203125</LatitudeDegrees>
              <LongitudeDegrees>2.89726140908896923065185546875</LongitudeDegrees>
            </Position>
            <AltitudeMeters>380</AltitudeMeters>
            <DistanceMeters>NAN</DistanceMeters>
          </Trackpoint>
          <Trackpoint>
            <Time>2020-02-15T10:32:28.000Z</Time>
            <Position>
              <LatitudeDegrees>41.96810695342719554901123046875</LatitudeDegrees>
              <LongitudeDegrees>2.89722888730466365814208984375</LongitudeDegrees>
            </Position>
            <AltitudeMeters>379.399993896484375</AltitudeMeters>
            <DistanceMeters>NAN</DistanceMeters>
          </Trackpoint>
          <Trackpoint>
            <Time>2020-02-15T10:32:29.000Z</Time>
            <Position>
              <LatitudeDegrees>41.96809773333370685577392578125</LatitudeDegrees>
              <LongitudeDegrees>2.89719955064356327056884765625</LongitudeDegrees>
            </Position>
            <AltitudeMeters>378.600006103515625</AltitudeMeters>
            <DistanceMeters>NAN</DistanceMeters>
          </Trackpoint>
          <Trackpoint>
            <Time>2020-02-15T10:32:30.000Z</Time>
            <Position>
              <LatitudeDegrees>41.968090273439884185791015625</LatitudeDegrees>
              <LongitudeDegrees>2.89716996252536773681640625</LongitudeDegrees>
            </Position>
            <AltitudeMeters>377.79998779296875</AltitudeMeters>
            <DistanceMeters>NAN</DistanceMeters>
          </Trackpoint>
          <Trackpoint>
            <Time>2020-02-15T10:32:31.000Z</Time>
            <Position>
              <LatitudeDegrees>41.96808432228863239288330078125</LatitudeDegrees>
              <LongitudeDegrees>2.89714557118713855743408203125</LongitudeDegrees>
            </Position>
            <AltitudeMeters>376</AltitudeMeters>
            <DistanceMeters>NAN</DistanceMeters>
          </Trackpoint>
          <Trackpoint>
            <Time>2020-02-15T10:32:32.000Z</Time>
            <Position>
              <LatitudeDegrees>41.96808013133704662322998046875</LatitudeDegrees>
              <LongitudeDegrees>2.89712746627628803253173828125</LongitudeDegrees>
            </Position>
            <AltitudeMeters>375</AltitudeMeters>
            <DistanceMeters>NAN</DistanceMeters>
          </Trackpoint>
          <Trackpoint>
            <Time>2020-02-15T10:32:33.000Z</Time>
            <Position>
              <LatitudeDegrees>41.96807761676609516143798828125</LatitudeDegrees>
              <LongitudeDegrees>2.8971168212592601776123046875</LongitudeDegrees>
            </Position>
            <AltitudeMeters>374</AltitudeMeters>
            <DistanceMeters>NAN</DistanceMeters>
          </Trackpoint>
          <Trackpoint>
            <Time>2020-02-15T10:32:34.000Z</Time>
            <Position>
              <LatitudeDegrees>41.968074180185794830322265625</LatitudeDegrees>
              <LongitudeDegrees>2.89711229503154754638671875</LongitudeDegrees>
            </Position>
            <AltitudeMeters>373.399993896484375</AltitudeMeters>
            <DistanceMeters>NAN</DistanceMeters>
          </Trackpoint>
          <Trackpoint>
            <Time>2020-02-15T10:32:40.000Z</Time>
            <Position>
              <LatitudeDegrees>41.96807853877544403076171875</LatitudeDegrees>
              <LongitudeDegrees>2.897106595337390899658203125</LongitudeDegrees>
            </Position>
            <AltitudeMeters>369.600006103515625</AltitudeMeters>
            <DistanceMeters>NAN</DistanceMeters>
          </Trackpoint>
          <Trackpoint>
            <Time>2020-02-15T10:32:41.000Z</Time>
            <Position>
              <LatitudeDegrees>41.96807987987995147705078125</LatitudeDegrees>
              <LongitudeDegrees>2.89710869081318378448486328125</LongitudeDegrees>
            </Position>
            <AltitudeMeters>369</AltitudeMeters>
            <DistanceMeters>NAN</DistanceMeters>
          </Trackpoint>
          <Trackpoint>
            <Time>2020-02-15T10:32:45.000Z</Time>
            <Position>
              <LatitudeDegrees>41.9680778682231903076171875</LatitudeDegrees>
              <LongitudeDegrees>2.89710818789899349212646484375</LongitudeDegrees>
            </Position>
            <AltitudeMeters>368</AltitudeMeters>
            <DistanceMeters>NAN</DistanceMeters>
          </Trackpoint>
          <Trackpoint>
            <Time>2020-02-15T10:32:52.000Z</Time>
            <Position>
              <LatitudeDegrees>41.9680951349437236785888671875</LatitudeDegrees>
              <LongitudeDegrees>2.89710131473839282989501953125</LongitudeDegrees>
            </Position>
            <AltitudeMeters>368</AltitudeMeters>
            <DistanceMeters>NAN</DistanceMeters>
          </Trackpoint>
          <Trackpoint>
            <Time>2020-02-15T10:32:54.000Z</Time>
            <Position>
              <LatitudeDegrees>41.96809806860983371734619140625</LatitudeDegrees>
              <LongitudeDegrees>2.89710181765258312225341796875</LongitudeDegrees>
            </Position>
            <AltitudeMeters>367.79998779296875</AltitudeMeters>
            <DistanceMeters>NAN</DistanceMeters>
          </Trackpoint>
          <Trackpoint>
            <Time>2020-02-15T10:32:58.000Z</Time>
            <Position>
              <LatitudeDegrees>41.968119107186794281005859375</LatitudeDegrees>
              <LongitudeDegrees>2.89711724035441875457763671875</LongitudeDegrees>
            </Position>
            <AltitudeMeters>368</AltitudeMeters>
            <DistanceMeters>NAN</DistanceMeters>
          </Trackpoint>
          <Trackpoint>
            <Time>2020-02-15T10:32:59.000Z</Time>
            <Position>
              <LatitudeDegrees>41.968123801052570343017578125</LatitudeDegrees>
              <LongitudeDegrees>2.89712570607662200927734375</LongitudeDegrees>
            </Position>
            <AltitudeMeters>368</AltitudeMeters>
            <DistanceMeters>NAN</DistanceMeters>
          </Trackpoint>
          <Trackpoint>
            <Time>2020-02-15T10:33:00.000Z</Time>
            <Position>
              <LatitudeDegrees>41.96812941692769527435302734375</LatitudeDegrees>
              <LongitudeDegrees>2.897135429084300994873046875</LongitudeDegrees>
            </Position>
            <AltitudeMeters>368</AltitudeMeters>
            <DistanceMeters>NAN</DistanceMeters>
          </Trackpoint>
          <Trackpoint>
            <Time>2020-02-15T10:33:01.000Z</Time>
            <Position>
              <LatitudeDegrees>41.96813352406024932861328125</LatitudeDegrees>
              <LongitudeDegrees>2.89714389480650424957275390625</LongitudeDegrees>
            </Position>
            <AltitudeMeters>368</AltitudeMeters>
            <DistanceMeters>NAN</DistanceMeters>
          </Trackpoint>
          <Trackpoint>
            <Time>2020-02-15T10:33:02.000Z</Time>
            <Position>
              <LatitudeDegrees>41.96813662536442279815673828125</LatitudeDegrees>
              <LongitudeDegrees>2.89715244434773921966552734375</LongitudeDegrees>
            </Position>
            <AltitudeMeters>368</AltitudeMeters>
            <DistanceMeters>NAN</DistanceMeters>
          </Trackpoint>
          <Trackpoint>
            <Time>2020-02-15T10:33:03.000Z</Time>
            <Position>
              <LatitudeDegrees>41.96813880465924739837646484375</LatitudeDegrees>
              <LongitudeDegrees>2.8971597366034984588623046875</LongitudeDegrees>
            </Position>
            <AltitudeMeters>368</AltitudeMeters>
            <DistanceMeters>NAN</DistanceMeters>
          </Trackpoint>
          <Trackpoint>
            <Time>2020-02-15T10:33:04.000Z</Time>
            <Position>
              <LatitudeDegrees>41.968141235411167144775390625</LatitudeDegrees>
              <LongitudeDegrees>2.89716820232570171356201171875</LongitudeDegrees>
            </Position>
            <AltitudeMeters>368</AltitudeMeters>
            <DistanceMeters>NAN</DistanceMeters>
          </Trackpoint>
          <Trackpoint>
            <Time>2020-02-15T10:33:05.000Z</Time>
            <Position>
              <LatitudeDegrees>41.96814425289630889892578125</LatitudeDegrees>
              <LongitudeDegrees>2.89717792533338069915771484375</LongitudeDegrees>
            </Position>
            <AltitudeMeters>368.20001220703125</AltitudeMeters>
            <DistanceMeters>NAN</DistanceMeters>
          </Trackpoint>
          <Trackpoint>
            <Time>2020-02-15T10:33:06.000Z</Time>
            <Position>
              <LatitudeDegrees>41.96814768947660923004150390625</LatitudeDegrees>
              <LongitudeDegrees>2.89718546904623508453369140625</LongitudeDegrees>
            </Position>
            <AltitudeMeters>368.20001220703125</AltitudeMeters>
            <DistanceMeters>NAN</DistanceMeters>
          </Trackpoint>
          <Trackpoint>
            <Time>2020-02-15T10:33:07.000Z</Time>
            <Position>
              <LatitudeDegrees>41.96814986877143383026123046875</LatitudeDegrees>
              <LongitudeDegrees>2.8971946053206920623779296875</LongitudeDegrees>
            </Position>
            <AltitudeMeters>368.20001220703125</AltitudeMeters>
            <DistanceMeters>NAN</DistanceMeters>
          </Trackpoint>
          <Trackpoint>
            <Time>2020-02-15T10:33:08.000Z</Time>
            <Position>
              <LatitudeDegrees>41.96815188042819499969482421875</LatitudeDegrees>
              <LongitudeDegrees>2.89720407687127590179443359375</LongitudeDegrees>
            </Position>
            <AltitudeMeters>368.399993896484375</AltitudeMeters>
            <DistanceMeters>NAN</DistanceMeters>
          </Trackpoint>
          <Trackpoint>
            <Time>2020-02-15T10:33:09.000Z</Time>
            <Position>
              <LatitudeDegrees>41.96815221570432186126708984375</LatitudeDegrees>
              <LongitudeDegrees>2.89721547625958919525146484375</LongitudeDegrees>
            </Position>
            <AltitudeMeters>368.399993896484375</AltitudeMeters>
            <DistanceMeters>NAN</DistanceMeters>
          </Trackpoint>
          <Trackpoint>
            <Time>2020-02-15T10:33:10.000Z</Time>
            <Position>
              <LatitudeDegrees>41.9681531377136707305908203125</LatitudeDegrees>
              <LongitudeDegrees>2.8972284682095050811767578125</LongitudeDegrees>
            </Position>
            <AltitudeMeters>368.399993896484375</AltitudeMeters>
            <DistanceMeters>NAN</DistanceMeters>
          </Trackpoint>
          <Trackpoint>
            <Time>2020-02-15T10:33:11.000Z</Time>
            <Position>
              <LatitudeDegrees>41.96815489791333675384521484375</LatitudeDegrees>
              <LongitudeDegrees>2.897239364683628082275390625</LongitudeDegrees>
            </Position>
            <AltitudeMeters>368.79998779296875</AltitudeMeters>
            <DistanceMeters>NAN</DistanceMeters>
          </Trackpoint>
          <Trackpoint>
            <Time>2020-02-15T10:33:12.000Z</Time>
            <Position>
              <LatitudeDegrees>41.9681578315794467926025390625</LatitudeDegrees>
              <LongitudeDegrees>2.8972445614635944366455078125</LongitudeDegrees>
            </Position>
            <AltitudeMeters>368.79998779296875</AltitudeMeters>
            <DistanceMeters>NAN</DistanceMeters>
          </Trackpoint>
          <Trackpoint>
            <Time>2020-02-15T10:33:13.000Z</Time>
            <Position>
              <LatitudeDegrees>41.968161351978778839111328125</LatitudeDegrees>
              <LongitudeDegrees>2.89725235663354396820068359375</LongitudeDegrees>
            </Position>
            <AltitudeMeters>369</AltitudeMeters>
            <DistanceMeters>NAN</DistanceMeters>
          </Trackpoint>
          <Trackpoint>
            <Time>2020-02-15T10:33:14.000Z</Time>
            <Position>
              <LatitudeDegrees>41.96816504001617431640625</LatitudeDegrees>
              <LongitudeDegrees>2.897260151803493499755859375</LongitudeDegrees>
            </Position>
            <AltitudeMeters>369.399993896484375</AltitudeMeters>
            <DistanceMeters>NAN</DistanceMeters>
          </Trackpoint>
          <Trackpoint>
            <Time>2020-02-15T10:33:15.000Z</Time>
            <Position>
              <LatitudeDegrees>41.96816797368228435516357421875</LatitudeDegrees>
              <LongitudeDegrees>2.8972687013447284698486328125</LongitudeDegrees>
            </Position>
            <AltitudeMeters>369.399993896484375</AltitudeMeters>
            <DistanceMeters>NAN</DistanceMeters>
          </Trackpoint>
          <Trackpoint>
            <Time>2020-02-15T10:33:16.000Z</Time>
            <Position>
              <LatitudeDegrees>41.9681685604155063629150390625</LatitudeDegrees>
              <LongitudeDegrees>2.89728127419948577880859375</LongitudeDegrees>
            </Position>
            <AltitudeMeters>369.600006103515625</AltitudeMeters>
            <DistanceMeters>NAN</DistanceMeters>
          </Trackpoint>
          <Trackpoint>
            <Time>2020-02-15T10:33:17.000Z</Time>
            <Position>
              <LatitudeDegrees>41.96816864423453807830810546875</LatitudeDegrees>
              <LongitudeDegrees>2.89729443378746509552001953125</LongitudeDegrees>
            </Position>
            <AltitudeMeters>370</AltitudeMeters>
            <DistanceMeters>NAN</DistanceMeters>
          </Trackpoint>
          <Trackpoint>
            <Time>2020-02-15T10:33:18.000Z</Time>
            <Position>
              <LatitudeDegrees>41.9681704044342041015625</LatitudeDegrees>
              <LongitudeDegrees>2.897307090461254119873046875</LongitudeDegrees>
            </Position>
            <AltitudeMeters>370.20001220703125</AltitudeMeters>
            <DistanceMeters>NAN</DistanceMeters>
          </Trackpoint>
          <Trackpoint>
            <Time>2020-02-15T10:33:19.000Z</Time>
            <Position>
              <LatitudeDegrees>41.96817350573837757110595703125</LatitudeDegrees>
              <LongitudeDegrees>2.897317819297313690185546875</LongitudeDegrees>
            </Position>
            <AltitudeMeters>370.20001220703125</AltitudeMeters>
            <DistanceMeters>NAN</DistanceMeters>
          </Trackpoint>
          <Trackpoint>
            <Time>2020-02-15T10:33:20.000Z</Time>
            <Position>
              <LatitudeDegrees>41.96817484684288501739501953125</LatitudeDegrees>
              <LongitudeDegrees>2.89732125587761402130126953125</LongitudeDegrees>
            </Position>
            <AltitudeMeters>370.399993896484375</AltitudeMeters>
            <DistanceMeters>NAN</DistanceMeters>
          </Trackpoint>
          <Trackpoint>
            <Time>2020-02-15T10:33:21.000Z</Time>
            <Position>
              <LatitudeDegrees>41.9681779481470584869384765625</LatitudeDegrees>
              <LongitudeDegrees>2.89732695557177066802978515625</LongitudeDegrees>
            </Position>
            <AltitudeMeters>370.600006103515625</AltitudeMeters>
            <DistanceMeters>NAN</DistanceMeters>
          </Trackpoint>
          <Trackpoint>
            <Time>2020-02-15T10:33:22.000Z</Time>
            <Position>
              <LatitudeDegrees>41.96817903779447078704833984375</LatitudeDegrees>
              <LongitudeDegrees>2.89733131416141986846923828125</LongitudeDegrees>
            </Position>
            <AltitudeMeters>370.79998779296875</AltitudeMeters>
            <DistanceMeters>NAN</DistanceMeters>
          </Trackpoint>
          <Trackpoint>
            <Time>2020-02-15T10:33:31.000Z</Time>
            <Position>
              <LatitudeDegrees>41.9681771099567413330078125</LatitudeDegrees>
              <LongitudeDegrees>2.89734522812068462371826171875</LongitudeDegrees>
            </Position>
            <AltitudeMeters>371.79998779296875</AltitudeMeters>
            <DistanceMeters>NAN</DistanceMeters>
          </Trackpoint>
          <Trackpoint>
            <Time>2020-02-15T10:33:37.000Z</Time>
            <Position>
              <LatitudeDegrees>41.9681819714605808258056640625</LatitudeDegrees>
              <LongitudeDegrees>2.89734958671033382415771484375</LongitudeDegrees>
            </Position>
            <AltitudeMeters>372.20001220703125</AltitudeMeters>
            <DistanceMeters>NAN</DistanceMeters>
          </Trackpoint>
          <Trackpoint>
            <Time>2020-02-15T10:33:39.000Z</Time>
            <Position>
              <LatitudeDegrees>41.9681786186993122100830078125</LatitudeDegrees>
              <LongitudeDegrees>2.89735461585223674774169921875</LongitudeDegrees>
            </Position>
            <AltitudeMeters>372.20001220703125</AltitudeMeters>
            <DistanceMeters>NAN</DistanceMeters>
          </Trackpoint>
          <Trackpoint>
            <Time>2020-02-15T10:33:46.000Z</Time>
            <Position>
              <LatitudeDegrees>41.96817836724221706390380859375</LatitudeDegrees>
              <LongitudeDegrees>2.89735327474772930145263671875</LongitudeDegrees>
            </Position>
            <AltitudeMeters>372.20001220703125</AltitudeMeters>
            <DistanceMeters>NAN</DistanceMeters>
          </Trackpoint>
          <Trackpoint>
            <Time>2020-02-15T10:33:48.000Z</Time>
            <Position>
              <LatitudeDegrees>41.96817819960415363311767578125</LatitudeDegrees>
              <LongitudeDegrees>2.897353358566761016845703125</LongitudeDegrees>
            </Position>
            <AltitudeMeters>372.20001220703125</AltitudeMeters>
            <DistanceMeters>NAN</DistanceMeters>
          </Trackpoint>
          <Trackpoint>
            <Time>2020-02-15T10:33:50.000Z</Time>
            <Position>
              <LatitudeDegrees>41.968178451061248779296875</LatitudeDegrees>
              <LongitudeDegrees>2.89735369384288787841796875</LongitudeDegrees>
            </Position>
            <AltitudeMeters>372</AltitudeMeters>
            <DistanceMeters>NAN</DistanceMeters>
          </Trackpoint>
          <Trackpoint>
            <Time>2020-02-15T10:33:51.000Z</Time>
            <Position>
              <LatitudeDegrees>41.96817836724221706390380859375</LatitudeDegrees>
              <LongitudeDegrees>2.89735394529998302459716796875</LongitudeDegrees>
            </Position>
            <AltitudeMeters>371.79998779296875</AltitudeMeters>
            <DistanceMeters>NAN</DistanceMeters>
          </Trackpoint>
          <Trackpoint>
            <Time>2020-02-15T10:33:52.000Z</Time>
            <Position>
              <LatitudeDegrees>41.968178451061248779296875</LatitudeDegrees>
              <LongitudeDegrees>2.89735361002385616302490234375</LongitudeDegrees>
            </Position>
            <AltitudeMeters>372</AltitudeMeters>
            <DistanceMeters>NAN</DistanceMeters>
          </Trackpoint>
          <Trackpoint>
            <Time>2020-02-15T10:33:53.000Z</Time>
            <Position>
              <LatitudeDegrees>41.96817803196609020233154296875</LatitudeDegrees>
              <LongitudeDegrees>2.8973531909286975860595703125</LongitudeDegrees>
            </Position>
            <AltitudeMeters>371.79998779296875</AltitudeMeters>
            <DistanceMeters>NAN</DistanceMeters>
          </Trackpoint>
          <Trackpoint>
            <Time>2020-02-15T10:33:54.000Z</Time>
            <Position>
              <LatitudeDegrees>41.96817786432802677154541015625</LatitudeDegrees>
              <LongitudeDegrees>2.8973525203764438629150390625</LongitudeDegrees>
            </Position>
            <AltitudeMeters>372</AltitudeMeters>
            <DistanceMeters>NAN</DistanceMeters>
          </Trackpoint>
          <Trackpoint>
            <Time>2020-02-15T10:33:55.000Z</Time>
            <Position>
              <LatitudeDegrees>41.9681769423186779022216796875</LatitudeDegrees>
              <LongitudeDegrees>2.89735243655741214752197265625</LongitudeDegrees>
            </Position>
            <AltitudeMeters>372</AltitudeMeters>
            <DistanceMeters>NAN</DistanceMeters>
          </Trackpoint>
          <Trackpoint>
            <Time>2020-02-15T10:33:56.000Z</Time>
            <Position>
              <LatitudeDegrees>41.96817568503320217132568359375</LatitudeDegrees>
              <LongitudeDegrees>2.8973525203764438629150390625</LongitudeDegrees>
            </Position>
            <AltitudeMeters>372</AltitudeMeters>
            <DistanceMeters>NAN</DistanceMeters>
          </Trackpoint>
          <Trackpoint>
            <Time>2020-02-15T10:33:58.000Z</Time>
            <Position>
              <LatitudeDegrees>41.96817451156675815582275390625</LatitudeDegrees>
              <LongitudeDegrees>2.89735310710966587066650390625</LongitudeDegrees>
            </Position>
            <AltitudeMeters>372</AltitudeMeters>
            <DistanceMeters>NAN</DistanceMeters>
          </Trackpoint>
          <Trackpoint>
            <Time>2020-02-15T10:34:01.000Z</Time>
            <Position>
              <LatitudeDegrees>41.96817082352936267852783203125</LatitudeDegrees>
              <LongitudeDegrees>2.89735444821417331695556640625</LongitudeDegrees>
            </Position>
            <AltitudeMeters>371.79998779296875</AltitudeMeters>
            <DistanceMeters>NAN</DistanceMeters>
          </Trackpoint>
          <Trackpoint>
            <Time>2020-02-15T10:34:04.000Z</Time>
            <Position>
              <LatitudeDegrees>41.96816839277744293212890625</LatitudeDegrees>
              <LongitudeDegrees>2.8973578847944736480712890625</LongitudeDegrees>
            </Position>
            <AltitudeMeters>371.79998779296875</AltitudeMeters>
            <DistanceMeters>NAN</DistanceMeters>
          </Trackpoint>
          <Trackpoint>
            <Time>2020-02-15T10:34:11.000Z</Time>
            <Position>
              <LatitudeDegrees>41.968163363635540008544921875</LatitudeDegrees>
              <LongitudeDegrees>2.89735277183353900909423828125</LongitudeDegrees>
            </Position>
            <AltitudeMeters>371.79998779296875</AltitudeMeters>
            <DistanceMeters>NAN</DistanceMeters>
          </Trackpoint>
          <Trackpoint>
            <Time>2020-02-15T10:34:14.000Z</Time>
            <Position>
              <LatitudeDegrees>41.96816327981650829315185546875</LatitudeDegrees>
              <LongitudeDegrees>2.89735260419547557830810546875</LongitudeDegrees>
            </Position>
            <AltitudeMeters>371.79998779296875</AltitudeMeters>
            <DistanceMeters>NAN</DistanceMeters>
          </Trackpoint>
          <Trackpoint>
            <Time>2020-02-15T10:34:32.000Z</Time>
            <Position>
              <LatitudeDegrees>41.96816562674939632415771484375</LatitudeDegrees>
              <LongitudeDegrees>2.8973223455250263214111328125</LongitudeDegrees>
            </Position>
            <AltitudeMeters>371.79998779296875</AltitudeMeters>
            <DistanceMeters>NAN</DistanceMeters>
          </Trackpoint>
          <Trackpoint>
            <Time>2020-02-15T10:34:42.000Z</Time>
            <Position>
              <LatitudeDegrees>41.96816847659647464752197265625</LatitudeDegrees>
              <LongitudeDegrees>2.8973315656185150146484375</LongitudeDegrees>
            </Position>
            <AltitudeMeters>371.79998779296875</AltitudeMeters>
            <DistanceMeters>NAN</DistanceMeters>
          </Trackpoint>
          <Trackpoint>
            <Time>2020-02-15T10:34:46.000Z</Time>
            <Position>
              <LatitudeDegrees>41.96817082352936267852783203125</LatitudeDegrees>
              <LongitudeDegrees>2.89733349345624446868896484375</LongitudeDegrees>
            </Position>
            <AltitudeMeters>371.79998779296875</AltitudeMeters>
            <DistanceMeters>NAN</DistanceMeters>
          </Trackpoint>
          <Trackpoint>
            <Time>2020-02-15T10:34:47.000Z</Time>
            <Position>
              <LatitudeDegrees>41.9681709073483943939208984375</LatitudeDegrees>
              <LongitudeDegrees>2.89733433164656162261962890625</LongitudeDegrees>
            </Position>
            <AltitudeMeters>371.79998779296875</AltitudeMeters>
            <DistanceMeters>NAN</DistanceMeters>
          </Trackpoint>
          <Trackpoint>
            <Time>2020-02-15T10:34:49.000Z</Time>
            <Position>
              <LatitudeDegrees>41.968170739710330963134765625</LatitudeDegrees>
              <LongitudeDegrees>2.897333912551403045654296875</LongitudeDegrees>
            </Position>
            <AltitudeMeters>371.79998779296875</AltitudeMeters>
            <DistanceMeters>NAN</DistanceMeters>
          </Trackpoint>
          <Trackpoint>
            <Time>2020-02-15T10:34:52.000Z</Time>
            <Position>
              <LatitudeDegrees>41.968170739710330963134765625</LatitudeDegrees>
              <LongitudeDegrees>2.8973340801894664764404296875</LongitudeDegrees>
            </Position>
            <AltitudeMeters>371.79998779296875</AltitudeMeters>
            <DistanceMeters>NAN</DistanceMeters>
          </Trackpoint>
          <Trackpoint>
            <Time>2020-02-15T10:34:56.000Z</Time>
            <Position>
              <LatitudeDegrees>41.9681709073483943939208984375</LatitudeDegrees>
              <LongitudeDegrees>2.8973354212939739227294921875</LongitudeDegrees>
            </Position>
            <AltitudeMeters>371.600006103515625</AltitudeMeters>
            <DistanceMeters>NAN</DistanceMeters>
          </Trackpoint>
          <Trackpoint>
            <Time>2020-02-15T10:35:01.000Z</Time>
            <Position>
              <LatitudeDegrees>41.9681695662438869476318359375</LatitudeDegrees>
              <LongitudeDegrees>2.89733969606459140777587890625</LongitudeDegrees>
            </Position>
            <AltitudeMeters>371.600006103515625</AltitudeMeters>
            <DistanceMeters>NAN</DistanceMeters>
          </Trackpoint>
          <Trackpoint>
            <Time>2020-02-15T10:35:06.000Z</Time>
            <Position>
              <LatitudeDegrees>41.96816730313003063201904296875</LatitudeDegrees>
              <LongitudeDegrees>2.89734221063554286956787109375</LongitudeDegrees>
            </Position>
            <AltitudeMeters>371.600006103515625</AltitudeMeters>
            <DistanceMeters>NAN</DistanceMeters>
          </Trackpoint>
          <Trackpoint>
            <Time>2020-02-15T10:35:15.000Z</Time>
            <Position>
              <LatitudeDegrees>41.9681621901690959930419921875</LatitudeDegrees>
              <LongitudeDegrees>2.897350005805492401123046875</LongitudeDegrees>
            </Position>
            <AltitudeMeters>371.600006103515625</AltitudeMeters>
            <DistanceMeters>NAN</DistanceMeters>
          </Trackpoint>
          <Trackpoint>
            <Time>2020-02-15T10:35:21.000Z</Time>
            <Position>
              <LatitudeDegrees>41.96816193871200084686279296875</LatitudeDegrees>
              <LongitudeDegrees>2.89735193364322185516357421875</LongitudeDegrees>
            </Position>
            <AltitudeMeters>371.600006103515625</AltitudeMeters>
            <DistanceMeters>NAN</DistanceMeters>
          </Trackpoint>
          <Trackpoint>
            <Time>2020-02-15T10:35:25.000Z</Time>
            <Position>
              <LatitudeDegrees>41.96816177107393741607666015625</LatitudeDegrees>
              <LongitudeDegrees>2.89735176600515842437744140625</LongitudeDegrees>
            </Position>
            <AltitudeMeters>371.600006103515625</AltitudeMeters>
            <DistanceMeters>NAN</DistanceMeters>
          </Trackpoint>
          <Trackpoint>
            <Time>2020-02-15T10:35:26.000Z</Time>
            <Position>
              <LatitudeDegrees>41.96816177107393741607666015625</LatitudeDegrees>
              <LongitudeDegrees>2.89735176600515842437744140625</LongitudeDegrees>
            </Position>
            <AltitudeMeters>371.600006103515625</AltitudeMeters>
            <DistanceMeters>NAN</DistanceMeters>
          </Trackpoint>
          <Trackpoint>
            <Time>2020-02-15T10:35:30.000Z</Time>
            <Position>
              <LatitudeDegrees>41.96816260926425457000732421875</LatitudeDegrees>
              <LongitudeDegrees>2.89735344238579273223876953125</LongitudeDegrees>
            </Position>
            <AltitudeMeters>371.600006103515625</AltitudeMeters>
            <DistanceMeters>NAN</DistanceMeters>
          </Trackpoint>
          <Trackpoint>
            <Time>2020-02-15T10:35:44.000Z</Time>
            <Position>
              <LatitudeDegrees>41.96816311217844486236572265625</LatitudeDegrees>
              <LongitudeDegrees>2.89735637605190277099609375</LongitudeDegrees>
            </Position>
            <AltitudeMeters>371.79998779296875</AltitudeMeters>
            <DistanceMeters>NAN</DistanceMeters>
          </Trackpoint>
          <Trackpoint>
            <Time>2020-02-15T10:35:58.000Z</Time>
            <Position>
              <LatitudeDegrees>41.96816696785390377044677734375</LatitudeDegrees>
              <LongitudeDegrees>2.89735361002385616302490234375</LongitudeDegrees>
            </Position>
            <AltitudeMeters>371.79998779296875</AltitudeMeters>
            <DistanceMeters>NAN</DistanceMeters>
          </Trackpoint>
          <Trackpoint>
            <Time>2020-02-15T10:35:59.000Z</Time>
            <Position>
              <LatitudeDegrees>41.9681675545871257781982421875</LatitudeDegrees>
              <LongitudeDegrees>2.8973531909286975860595703125</LongitudeDegrees>
            </Position>
            <AltitudeMeters>371.79998779296875</AltitudeMeters>
            <DistanceMeters>NAN</DistanceMeters>
          </Trackpoint>
          <Trackpoint>
            <Time>2020-02-15T10:36:03.000Z</Time>
            <Position>
              <LatitudeDegrees>41.9681704044342041015625</LatitudeDegrees>
              <LongitudeDegrees>2.89735008962452411651611328125</LongitudeDegrees>
            </Position>
            <AltitudeMeters>371.79998779296875</AltitudeMeters>
            <DistanceMeters>NAN</DistanceMeters>
          </Trackpoint>
          <Trackpoint>
            <Time>2020-02-15T10:36:15.000Z</Time>
            <Position>
              <LatitudeDegrees>41.9681729190051555633544921875</LatitudeDegrees>
              <LongitudeDegrees>2.8973407857120037078857421875</LongitudeDegrees>
            </Position>
            <AltitudeMeters>372</AltitudeMeters>
            <DistanceMeters>NAN</DistanceMeters>
          </Trackpoint>
          <Trackpoint>
            <Time>2020-02-15T10:36:20.000Z</Time>
            <Position>
              <LatitudeDegrees>41.96817333810031414031982421875</LatitudeDegrees>
              <LongitudeDegrees>2.8973441384732723236083984375</LongitudeDegrees>
            </Position>
            <AltitudeMeters>372</AltitudeMeters>
            <DistanceMeters>NAN</DistanceMeters>
          </Trackpoint>
          <Trackpoint>
            <Time>2020-02-15T10:36:23.000Z</Time>
            <Position>
              <LatitudeDegrees>41.96817400865256786346435546875</LatitudeDegrees>
              <LongitudeDegrees>2.89734573103487491607666015625</LongitudeDegrees>
            </Position>
            <AltitudeMeters>372</AltitudeMeters>
            <DistanceMeters>NAN</DistanceMeters>
          </Trackpoint>
          <Trackpoint>
            <Time>2020-02-15T10:36:29.000Z</Time>
            <Position>
              <LatitudeDegrees>41.96817786432802677154541015625</LatitudeDegrees>
              <LongitudeDegrees>2.89734556339681148529052734375</LongitudeDegrees>
            </Position>
            <AltitudeMeters>372.20001220703125</AltitudeMeters>
            <DistanceMeters>NAN</DistanceMeters>
          </Trackpoint>
          <Trackpoint>
            <Time>2020-02-15T10:36:32.000Z</Time>
            <Position>
              <LatitudeDegrees>41.9681779481470584869384765625</LatitudeDegrees>
              <LongitudeDegrees>2.8973503410816192626953125</LongitudeDegrees>
            </Position>
            <AltitudeMeters>372</AltitudeMeters>
            <DistanceMeters>NAN</DistanceMeters>
          </Trackpoint>
          <Trackpoint>
            <Time>2020-02-15T10:36:53.000Z</Time>
            <Position>
              <LatitudeDegrees>41.968181133270263671875</LatitudeDegrees>
              <LongitudeDegrees>2.8973508439958095550537109375</LongitudeDegrees>
            </Position>
            <AltitudeMeters>372.20001220703125</AltitudeMeters>
            <DistanceMeters>NAN</DistanceMeters>
          </Trackpoint>
          <Trackpoint>
            <Time>2020-02-15T10:37:00.000Z</Time>
            <Position>
              <LatitudeDegrees>41.96818104945123195648193359375</LatitudeDegrees>
              <LongitudeDegrees>2.89735361002385616302490234375</LongitudeDegrees>
            </Position>
            <AltitudeMeters>372.20001220703125</AltitudeMeters>
            <DistanceMeters>NAN</DistanceMeters>
          </Trackpoint>
          <Trackpoint>
            <Time>2020-02-15T10:37:15.000Z</Time>
            <Position>
              <LatitudeDegrees>41.96818188764154911041259765625</LatitudeDegrees>
              <LongitudeDegrees>2.8973505087196826934814453125</LongitudeDegrees>
            </Position>
            <AltitudeMeters>372.20001220703125</AltitudeMeters>
            <DistanceMeters>NAN</DistanceMeters>
          </Trackpoint>
          <Trackpoint>
            <Time>2020-02-15T10:37:30.000Z</Time>
            <Position>
              <LatitudeDegrees>41.96818071417510509490966796875</LatitudeDegrees>
              <LongitudeDegrees>2.897358052432537078857421875</LongitudeDegrees>
            </Position>
            <AltitudeMeters>372.20001220703125</AltitudeMeters>
            <DistanceMeters>NAN</DistanceMeters>
          </Trackpoint>
          <Trackpoint>
            <Time>2020-02-15T10:37:33.000Z</Time>
            <Position>
              <LatitudeDegrees>41.96818046271800994873046875</LatitudeDegrees>
              <LongitudeDegrees>2.89735713042318820953369140625</LongitudeDegrees>
            </Position>
            <AltitudeMeters>372.20001220703125</AltitudeMeters>
            <DistanceMeters>NAN</DistanceMeters>
          </Trackpoint>
          <Trackpoint>
            <Time>2020-02-15T10:37:44.000Z</Time>
            <Position>
              <LatitudeDegrees>41.968177445232868194580078125</LatitudeDegrees>
              <LongitudeDegrees>2.8973585553467273712158203125</LongitudeDegrees>
            </Position>
            <AltitudeMeters>372.20001220703125</AltitudeMeters>
            <DistanceMeters>NAN</DistanceMeters>
          </Trackpoint>
          <Trackpoint>
            <Time>2020-02-15T10:37:46.000Z</Time>
            <Position>
              <LatitudeDegrees>41.9681772775948047637939453125</LatitudeDegrees>
              <LongitudeDegrees>2.89735914207994937896728515625</LongitudeDegrees>
            </Position>
            <AltitudeMeters>372.20001220703125</AltitudeMeters>
            <DistanceMeters>NAN</DistanceMeters>
          </Trackpoint>
          <Trackpoint>
            <Time>2020-02-15T10:37:48.000Z</Time>
            <Position>
              <LatitudeDegrees>41.9681771099567413330078125</LatitudeDegrees>
              <LongitudeDegrees>2.897360064089298248291015625</LongitudeDegrees>
            </Position>
            <AltitudeMeters>372.20001220703125</AltitudeMeters>
            <DistanceMeters>NAN</DistanceMeters>
          </Trackpoint>
          <Trackpoint>
            <Time>2020-02-15T10:37:53.000Z</Time>
            <Position>
              <LatitudeDegrees>41.9681771099567413330078125</LatitudeDegrees>
              <LongitudeDegrees>2.89736433885991573333740234375</LongitudeDegrees>
            </Position>
            <AltitudeMeters>372.20001220703125</AltitudeMeters>
            <DistanceMeters>NAN</DistanceMeters>
          </Trackpoint>
          <Trackpoint>
            <Time>2020-02-15T10:38:02.000Z</Time>
            <Position>
              <LatitudeDegrees>41.9681776128709316253662109375</LatitudeDegrees>
              <LongitudeDegrees>2.89736484177410602569580078125</LongitudeDegrees>
            </Position>
            <AltitudeMeters>372</AltitudeMeters>
            <DistanceMeters>NAN</DistanceMeters>
          </Trackpoint>
          <Trackpoint>
            <Time>2020-02-15T10:38:13.000Z</Time>
            <Position>
              <LatitudeDegrees>41.96817769668996334075927734375</LatitudeDegrees>
              <LongitudeDegrees>2.89736802689731121063232421875</LongitudeDegrees>
            </Position>
            <AltitudeMeters>372.20001220703125</AltitudeMeters>
            <DistanceMeters>NAN</DistanceMeters>
          </Trackpoint>
          <Trackpoint>
            <Time>2020-02-15T10:38:14.000Z</Time>
            <Position>
              <LatitudeDegrees>41.96817719377577304840087890625</LatitudeDegrees>
              <LongitudeDegrees>2.8973682783544063568115234375</LongitudeDegrees>
            </Position>
            <AltitudeMeters>372.20001220703125</AltitudeMeters>
            <DistanceMeters>NAN</DistanceMeters>
          </Trackpoint>
          <Trackpoint>
            <Time>2020-02-15T10:38:33.000Z</Time>
            <Position>
              <LatitudeDegrees>41.96818138472735881805419921875</LatitudeDegrees>
              <LongitudeDegrees>2.89737858809530735015869140625</LongitudeDegrees>
            </Position>
            <AltitudeMeters>372.20001220703125</AltitudeMeters>
            <DistanceMeters>NAN</DistanceMeters>
          </Trackpoint>
          <Trackpoint>
            <Time>2020-02-15T10:38:49.000Z</Time>
            <Position>
              <LatitudeDegrees>41.9681833125650882720947265625</LatitudeDegrees>
              <LongitudeDegrees>2.89738696999847888946533203125</LongitudeDegrees>
            </Position>
            <AltitudeMeters>372</AltitudeMeters>
            <DistanceMeters>NAN</DistanceMeters>
          </Trackpoint>
          <Trackpoint>
            <Time>2020-02-15T10:38:56.000Z</Time>
            <Position>
              <LatitudeDegrees>41.96818339638411998748779296875</LatitudeDegrees>
              <LongitudeDegrees>2.8973870538175106048583984375</LongitudeDegrees>
            </Position>
            <AltitudeMeters>372</AltitudeMeters>
            <DistanceMeters>NAN</DistanceMeters>
          </Trackpoint>
          <Trackpoint>
            <Time>2020-02-15T10:39:05.000Z</Time>
            <Position>
              <LatitudeDegrees>41.968182139098644256591796875</LatitudeDegrees>
              <LongitudeDegrees>2.89738965220749378204345703125</LongitudeDegrees>
            </Position>
            <AltitudeMeters>372</AltitudeMeters>
            <DistanceMeters>NAN</DistanceMeters>
          </Trackpoint>
          <Trackpoint>
            <Time>2020-02-15T10:39:07.000Z</Time>
            <Position>
              <LatitudeDegrees>41.96818205527961254119873046875</LatitudeDegrees>
              <LongitudeDegrees>2.89739099331200122833251953125</LongitudeDegrees>
            </Position>
            <AltitudeMeters>371.79998779296875</AltitudeMeters>
            <DistanceMeters>NAN</DistanceMeters>
          </Trackpoint>
          <Trackpoint>
            <Time>2020-02-15T10:39:25.000Z</Time>
            <Position>
              <LatitudeDegrees>41.96818306110799312591552734375</LatitudeDegrees>
              <LongitudeDegrees>2.8973972797393798828125</LongitudeDegrees>
            </Position>
            <AltitudeMeters>372</AltitudeMeters>
            <DistanceMeters>NAN</DistanceMeters>
          </Trackpoint>
          <Trackpoint>
            <Time>2020-02-15T10:39:38.000Z</Time>
            <Position>
              <LatitudeDegrees>41.968183480203151702880859375</LatitudeDegrees>
              <LongitudeDegrees>2.89738713763654232025146484375</LongitudeDegrees>
            </Position>
            <AltitudeMeters>372.399993896484375</AltitudeMeters>
            <DistanceMeters>NAN</DistanceMeters>
          </Trackpoint>
          <Trackpoint>
            <Time>2020-02-15T10:39:43.000Z</Time>
            <Position>
              <LatitudeDegrees>41.9681836478412151336669921875</LatitudeDegrees>
              <LongitudeDegrees>2.89738730527460575103759765625</LongitudeDegrees>
            </Position>
            <AltitudeMeters>372.600006103515625</AltitudeMeters>
            <DistanceMeters>NAN</DistanceMeters>
          </Trackpoint>
          <Trackpoint>
            <Time>2020-02-15T10:39:45.000Z</Time>
            <Position>
              <LatitudeDegrees>41.968183815479278564453125</LatitudeDegrees>
              <LongitudeDegrees>2.89738747291266918182373046875</LongitudeDegrees>
            </Position>
            <AltitudeMeters>372.79998779296875</AltitudeMeters>
            <DistanceMeters>NAN</DistanceMeters>
          </Trackpoint>
          <Trackpoint>
            <Time>2020-02-15T10:39:46.000Z</Time>
            <Position>
              <LatitudeDegrees>41.96818389929831027984619140625</LatitudeDegrees>
              <LongitudeDegrees>2.8973873890936374664306640625</LongitudeDegrees>
            </Position>
            <AltitudeMeters>372.600006103515625</AltitudeMeters>
            <DistanceMeters>NAN</DistanceMeters>
          </Trackpoint>
          <Trackpoint>
            <Time>2020-02-15T10:39:47.000Z</Time>
            <Position>
              <LatitudeDegrees>41.968184150755405426025390625</LatitudeDegrees>
              <LongitudeDegrees>2.8973883949220180511474609375</LongitudeDegrees>
            </Position>
            <AltitudeMeters>372.600006103515625</AltitudeMeters>
            <DistanceMeters>NAN</DistanceMeters>
          </Trackpoint>
          <Trackpoint>
            <Time>2020-02-15T10:39:49.000Z</Time>
            <Position>
              <LatitudeDegrees>41.9681839831173419952392578125</LatitudeDegrees>
              <LongitudeDegrees>2.89738881401717662811279296875</LongitudeDegrees>
            </Position>
            <AltitudeMeters>372.600006103515625</AltitudeMeters>
            <DistanceMeters>NAN</DistanceMeters>
          </Trackpoint>
          <Trackpoint>
            <Time>2020-02-15T10:39:52.000Z</Time>
            <Position>
              <LatitudeDegrees>41.968183815479278564453125</LatitudeDegrees>
              <LongitudeDegrees>2.8973894007503986358642578125</LongitudeDegrees>
            </Position>
            <AltitudeMeters>372.600006103515625</AltitudeMeters>
            <DistanceMeters>NAN</DistanceMeters>
          </Trackpoint>
          <Trackpoint>
            <Time>2020-02-15T10:39:54.000Z</Time>
            <Position>
              <LatitudeDegrees>41.96818389929831027984619140625</LatitudeDegrees>
              <LongitudeDegrees>2.89738898165524005889892578125</LongitudeDegrees>
            </Position>
            <AltitudeMeters>372.600006103515625</AltitudeMeters>
            <DistanceMeters>NAN</DistanceMeters>
          </Trackpoint>
          <Trackpoint>
            <Time>2020-02-15T10:40:05.000Z</Time>
            <Position>
              <LatitudeDegrees>41.968183815479278564453125</LatitudeDegrees>
              <LongitudeDegrees>2.8973840363323688507080078125</LongitudeDegrees>
            </Position>
            <AltitudeMeters>372.399993896484375</AltitudeMeters>
            <DistanceMeters>NAN</DistanceMeters>
          </Trackpoint>
          <Trackpoint>
            <Time>2020-02-15T10:40:06.000Z</Time>
            <Position>
              <LatitudeDegrees>41.96818389929831027984619140625</LatitudeDegrees>
              <LongitudeDegrees>2.8973840363323688507080078125</LongitudeDegrees>
            </Position>
            <AltitudeMeters>372.399993896484375</AltitudeMeters>
            <DistanceMeters>NAN</DistanceMeters>
          </Trackpoint>
          <Trackpoint>
            <Time>2020-02-15T10:40:09.000Z</Time>
            <Position>
              <LatitudeDegrees>41.96818423457443714141845703125</LatitudeDegrees>
              <LongitudeDegrees>2.897384203970432281494140625</LongitudeDegrees>
            </Position>
            <AltitudeMeters>372.399993896484375</AltitudeMeters>
            <DistanceMeters>NAN</DistanceMeters>
          </Trackpoint>
          <Trackpoint>
            <Time>2020-02-15T10:40:17.000Z</Time>
            <Position>
              <LatitudeDegrees>41.96818448603153228759765625</LatitudeDegrees>
              <LongitudeDegrees>2.89738529361784458160400390625</LongitudeDegrees>
            </Position>
            <AltitudeMeters>372.399993896484375</AltitudeMeters>
            <DistanceMeters>NAN</DistanceMeters>
          </Trackpoint>
          <Trackpoint>
            <Time>2020-02-15T10:40:20.000Z</Time>
            <Position>
              <LatitudeDegrees>41.9681849889457225799560546875</LatitudeDegrees>
              <LongitudeDegrees>2.8973860479891300201416015625</LongitudeDegrees>
            </Position>
            <AltitudeMeters>372.399993896484375</AltitudeMeters>
            <DistanceMeters>NAN</DistanceMeters>
          </Trackpoint>
          <Trackpoint>
            <Time>2020-02-15T10:40:21.000Z</Time>
            <Position>
              <LatitudeDegrees>41.96818473748862743377685546875</LatitudeDegrees>
              <LongitudeDegrees>2.89738629944622516632080078125</LongitudeDegrees>
            </Position>
            <AltitudeMeters>372.399993896484375</AltitudeMeters>
            <DistanceMeters>NAN</DistanceMeters>
          </Trackpoint>
          <Trackpoint>
            <Time>2020-02-15T10:40:35.000Z</Time>
            <Position>
              <LatitudeDegrees>41.9681839831173419952392578125</LatitudeDegrees>
              <LongitudeDegrees>2.897385545074939727783203125</LongitudeDegrees>
            </Position>
            <AltitudeMeters>372.399993896484375</AltitudeMeters>
            <DistanceMeters>NAN</DistanceMeters>
          </Trackpoint>
          <Trackpoint>
            <Time>2020-02-15T10:40:49.000Z</Time>
            <Position>
              <LatitudeDegrees>41.96818389929831027984619140625</LatitudeDegrees>
              <LongitudeDegrees>2.897387556731700897216796875</LongitudeDegrees>
            </Position>
            <AltitudeMeters>372.399993896484375</AltitudeMeters>
            <DistanceMeters>NAN</DistanceMeters>
          </Trackpoint>
          <Trackpoint>
            <Time>2020-02-15T10:40:57.000Z</Time>
            <Position>
              <LatitudeDegrees>41.9681870006024837493896484375</LatitudeDegrees>
              <LongitudeDegrees>2.89738797582685947418212890625</LongitudeDegrees>
            </Position>
            <AltitudeMeters>372.20001220703125</AltitudeMeters>
            <DistanceMeters>NAN</DistanceMeters>
          </Trackpoint>
          <Trackpoint>
            <Time>2020-02-15T10:40:59.000Z</Time>
            <Position>
              <LatitudeDegrees>41.9681918621063232421875</LatitudeDegrees>
              <LongitudeDegrees>2.897390238940715789794921875</LongitudeDegrees>
            </Position>
            <AltitudeMeters>372.20001220703125</AltitudeMeters>
            <DistanceMeters>NAN</DistanceMeters>
          </Trackpoint>
          <Trackpoint>
            <Time>2020-02-15T10:41:00.000Z</Time>
            <Position>
              <LatitudeDegrees>41.96819848380982875823974609375</LatitudeDegrees>
              <LongitudeDegrees>2.89739384315907955169677734375</LongitudeDegrees>
            </Position>
            <AltitudeMeters>372.20001220703125</AltitudeMeters>
            <DistanceMeters>NAN</DistanceMeters>
          </Trackpoint>
          <Trackpoint>
            <Time>2020-02-15T10:41:01.000Z</Time>
            <Position>
              <LatitudeDegrees>41.968206949532032012939453125</LatitudeDegrees>
              <LongitudeDegrees>2.89740222506225109100341796875</LongitudeDegrees>
            </Position>
            <AltitudeMeters>372.399993896484375</AltitudeMeters>
            <DistanceMeters>NAN</DistanceMeters>
          </Trackpoint>
          <Trackpoint>
            <Time>2020-02-15T10:41:02.000Z</Time>
            <Position>
              <LatitudeDegrees>41.96821675635874271392822265625</LatitudeDegrees>
              <LongitudeDegrees>2.8974125348031520843505859375</LongitudeDegrees>
            </Position>
            <AltitudeMeters>372.399993896484375</AltitudeMeters>
            <DistanceMeters>NAN</DistanceMeters>
          </Trackpoint>
          <Trackpoint>
            <Time>2020-02-15T10:41:04.000Z</Time>
            <Position>
              <LatitudeDegrees>41.9682262279093265533447265625</LatitudeDegrees>
              <LongitudeDegrees>2.8974286280572414398193359375</LongitudeDegrees>
            </Position>
            <AltitudeMeters>372.399993896484375</AltitudeMeters>
            <DistanceMeters>NAN</DistanceMeters>
          </Trackpoint>
          <Trackpoint>
            <Time>2020-02-15T10:41:05.000Z</Time>
            <Position>
              <LatitudeDegrees>41.9682285748422145843505859375</LatitudeDegrees>
              <LongitudeDegrees>2.8974393568933010101318359375</LongitudeDegrees>
            </Position>
            <AltitudeMeters>372.399993896484375</AltitudeMeters>
            <DistanceMeters>NAN</DistanceMeters>
          </Trackpoint>
          <Trackpoint>
            <Time>2020-02-15T10:41:06.000Z</Time>
            <Position>
              <LatitudeDegrees>41.96822966448962688446044921875</LatitudeDegrees>
              <LongitudeDegrees>2.8974510915577411651611328125</LongitudeDegrees>
            </Position>
            <AltitudeMeters>372.399993896484375</AltitudeMeters>
            <DistanceMeters>NAN</DistanceMeters>
          </Trackpoint>
          <Trackpoint>
            <Time>2020-02-15T10:41:07.000Z</Time>
            <Position>
              <LatitudeDegrees>41.9682285748422145843505859375</LatitudeDegrees>
              <LongitudeDegrees>2.897463329136371612548828125</LongitudeDegrees>
            </Position>
            <AltitudeMeters>372.399993896484375</AltitudeMeters>
            <DistanceMeters>NAN</DistanceMeters>
          </Trackpoint>
          <Trackpoint>
            <Time>2020-02-15T10:41:08.000Z</Time>
            <Position>
              <LatitudeDegrees>41.96822647936642169952392578125</LatitudeDegrees>
              <LongitudeDegrees>2.89747699163854122161865234375</LongitudeDegrees>
            </Position>
            <AltitudeMeters>372.600006103515625</AltitudeMeters>
            <DistanceMeters>NAN</DistanceMeters>
          </Trackpoint>
          <Trackpoint>
            <Time>2020-02-15T10:41:09.000Z</Time>
            <Position>
              <LatitudeDegrees>41.96822614409029483795166015625</LatitudeDegrees>
              <LongitudeDegrees>2.897492162883281707763671875</LongitudeDegrees>
            </Position>
            <AltitudeMeters>372.600006103515625</AltitudeMeters>
            <DistanceMeters>NAN</DistanceMeters>
          </Trackpoint>
          <Trackpoint>
            <Time>2020-02-15T10:41:10.000Z</Time>
            <Position>
              <LatitudeDegrees>41.9682265631854534149169921875</LatitudeDegrees>
              <LongitudeDegrees>2.89750582538545131683349609375</LongitudeDegrees>
            </Position>
            <AltitudeMeters>372.600006103515625</AltitudeMeters>
            <DistanceMeters>NAN</DistanceMeters>
          </Trackpoint>
          <Trackpoint>
            <Time>2020-02-15T10:41:11.000Z</Time>
            <Position>
              <LatitudeDegrees>41.9682255573570728302001953125</LatitudeDegrees>
              <LongitudeDegrees>2.8975184820592403411865234375</LongitudeDegrees>
            </Position>
            <AltitudeMeters>372.600006103515625</AltitudeMeters>
            <DistanceMeters>NAN</DistanceMeters>
          </Trackpoint>
          <Trackpoint>
            <Time>2020-02-15T10:41:12.000Z</Time>
            <Position>
              <LatitudeDegrees>41.96822329424321651458740234375</LatitudeDegrees>
              <LongitudeDegrees>2.89753139019012451171875</LongitudeDegrees>
            </Position>
            <AltitudeMeters>372.600006103515625</AltitudeMeters>
            <DistanceMeters>NAN</DistanceMeters>
          </Trackpoint>
          <Trackpoint>
            <Time>2020-02-15T10:41:13.000Z</Time>
            <Position>
              <LatitudeDegrees>41.96822061203420162200927734375</LatitudeDegrees>
              <LongitudeDegrees>2.8975466452538967132568359375</LongitudeDegrees>
            </Position>
            <AltitudeMeters>372.79998779296875</AltitudeMeters>
            <DistanceMeters>NAN</DistanceMeters>
          </Trackpoint>
          <Trackpoint>
            <Time>2020-02-15T10:41:14.000Z</Time>
            <Position>
              <LatitudeDegrees>41.9682185165584087371826171875</LatitudeDegrees>
              <LongitudeDegrees>2.8975647501647472381591796875</LongitudeDegrees>
            </Position>
            <AltitudeMeters>373</AltitudeMeters>
            <DistanceMeters>NAN</DistanceMeters>
          </Trackpoint>
          <Trackpoint>
            <Time>2020-02-15T10:41:15.000Z</Time>
            <Position>
              <LatitudeDegrees>41.96821935474872589111328125</LatitudeDegrees>
              <LongitudeDegrees>2.8975841961801052093505859375</LongitudeDegrees>
            </Position>
            <AltitudeMeters>373.20001220703125</AltitudeMeters>
            <DistanceMeters>NAN</DistanceMeters>
          </Trackpoint>
          <Trackpoint>
            <Time>2020-02-15T10:41:16.000Z</Time>
            <Position>
              <LatitudeDegrees>41.968219690024852752685546875</LatitudeDegrees>
              <LongitudeDegrees>2.8976043127477169036865234375</LongitudeDegrees>
            </Position>
            <AltitudeMeters>373.20001220703125</AltitudeMeters>
            <DistanceMeters>NAN</DistanceMeters>
          </Trackpoint>
          <Trackpoint>
            <Time>2020-02-15T10:41:17.000Z</Time>
            <Position>
              <LatitudeDegrees>41.96822329424321651458740234375</LatitudeDegrees>
              <LongitudeDegrees>2.89762635715305805206298828125</LongitudeDegrees>
            </Position>
            <AltitudeMeters>373.399993896484375</AltitudeMeters>
            <DistanceMeters>NAN</DistanceMeters>
          </Trackpoint>
          <Trackpoint>
            <Time>2020-02-15T10:41:18.000Z</Time>
            <Position>
              <LatitudeDegrees>41.96822941303253173828125</LatitudeDegrees>
              <LongitudeDegrees>2.8976507484912872314453125</LongitudeDegrees>
            </Position>
            <AltitudeMeters>373.600006103515625</AltitudeMeters>
            <DistanceMeters>NAN</DistanceMeters>
          </Trackpoint>
          <Trackpoint>
            <Time>2020-02-15T10:41:19.000Z</Time>
            <Position>
              <LatitudeDegrees>41.96823637001216411590576171875</LatitudeDegrees>
              <LongitudeDegrees>2.89767421782016754150390625</LongitudeDegrees>
            </Position>
            <AltitudeMeters>373.600006103515625</AltitudeMeters>
            <DistanceMeters>NAN</DistanceMeters>
          </Trackpoint>
          <Trackpoint>
            <Time>2020-02-15T10:41:20.000Z</Time>
            <Position>
              <LatitudeDegrees>41.9682426564395427703857421875</LatitudeDegrees>
              <LongitudeDegrees>2.89769969880580902099609375</LongitudeDegrees>
            </Position>
            <AltitudeMeters>373.79998779296875</AltitudeMeters>
            <DistanceMeters>NAN</DistanceMeters>
          </Trackpoint>
          <Trackpoint>
            <Time>2020-02-15T10:41:21.000Z</Time>
            <Position>
              <LatitudeDegrees>41.9682496972382068634033203125</LatitudeDegrees>
              <LongitudeDegrees>2.897725515067577362060546875</LongitudeDegrees>
            </Position>
            <AltitudeMeters>374</AltitudeMeters>
            <DistanceMeters>NAN</DistanceMeters>
          </Trackpoint>
          <Trackpoint>
            <Time>2020-02-15T10:41:22.000Z</Time>
            <Position>
              <LatitudeDegrees>41.9682564027607440948486328125</LatitudeDegrees>
              <LongitudeDegrees>2.89774797856807708740234375</LongitudeDegrees>
            </Position>
            <AltitudeMeters>374.20001220703125</AltitudeMeters>
            <DistanceMeters>NAN</DistanceMeters>
          </Trackpoint>
          <Trackpoint>
            <Time>2020-02-15T10:41:23.000Z</Time>
            <Position>
              <LatitudeDegrees>41.96826218627393245697021484375</LatitudeDegrees>
              <LongitudeDegrees>2.8977736271917819976806640625</LongitudeDegrees>
            </Position>
            <AltitudeMeters>374.399993896484375</AltitudeMeters>
            <DistanceMeters>NAN</DistanceMeters>
          </Trackpoint>
          <Trackpoint>
            <Time>2020-02-15T10:41:24.000Z</Time>
            <Position>
              <LatitudeDegrees>41.9682684727013111114501953125</LatitudeDegrees>
              <LongitudeDegrees>2.8978011198341846466064453125</LongitudeDegrees>
            </Position>
            <AltitudeMeters>374.399993896484375</AltitudeMeters>
            <DistanceMeters>NAN</DistanceMeters>
          </Trackpoint>
          <Trackpoint>
            <Time>2020-02-15T10:41:25.000Z</Time>
            <Position>
              <LatitudeDegrees>41.96827325038611888885498046875</LatitudeDegrees>
              <LongitudeDegrees>2.89782953448593616485595703125</LongitudeDegrees>
            </Position>
            <AltitudeMeters>374.79998779296875</AltitudeMeters>
            <DistanceMeters>NAN</DistanceMeters>
          </Trackpoint>
          <Trackpoint>
            <Time>2020-02-15T10:41:26.000Z</Time>
            <Position>
              <LatitudeDegrees>41.96827693842351436614990234375</LatitudeDegrees>
              <LongitudeDegrees>2.89785903878509998321533203125</LongitudeDegrees>
            </Position>
            <AltitudeMeters>375.20001220703125</AltitudeMeters>
            <DistanceMeters>NAN</DistanceMeters>
          </Trackpoint>
          <Trackpoint>
            <Time>2020-02-15T10:41:27.000Z</Time>
            <Position>
              <LatitudeDegrees>41.96828431449830532073974609375</LatitudeDegrees>
              <LongitudeDegrees>2.89788602851331233978271484375</LongitudeDegrees>
            </Position>
            <AltitudeMeters>375.20001220703125</AltitudeMeters>
            <DistanceMeters>NAN</DistanceMeters>
          </Trackpoint>
          <Trackpoint>
            <Time>2020-02-15T10:41:28.000Z</Time>
            <Position>
              <LatitudeDegrees>41.96829152293503284454345703125</LatitudeDegrees>
              <LongitudeDegrees>2.89791117422282695770263671875</LongitudeDegrees>
            </Position>
            <AltitudeMeters>375.600006103515625</AltitudeMeters>
            <DistanceMeters>NAN</DistanceMeters>
          </Trackpoint>
          <Trackpoint>
            <Time>2020-02-15T10:41:29.000Z</Time>
            <Position>
              <LatitudeDegrees>41.96830116212368011474609375</LatitudeDegrees>
              <LongitudeDegrees>2.89793715812265872955322265625</LongitudeDegrees>
            </Position>
            <AltitudeMeters>375.600006103515625</AltitudeMeters>
            <DistanceMeters>NAN</DistanceMeters>
          </Trackpoint>
          <Trackpoint>
            <Time>2020-02-15T10:41:30.000Z</Time>
            <Position>
              <LatitudeDegrees>41.968312226235866546630859375</LatitudeDegrees>
              <LongitudeDegrees>2.8979623876512050628662109375</LongitudeDegrees>
            </Position>
            <AltitudeMeters>375.79998779296875</AltitudeMeters>
            <DistanceMeters>NAN</DistanceMeters>
          </Trackpoint>
          <Trackpoint>
            <Time>2020-02-15T10:41:31.000Z</Time>
            <Position>
              <LatitudeDegrees>41.9683227874338626861572265625</LatitudeDegrees>
              <LongitudeDegrees>2.89798493497073650360107421875</LongitudeDegrees>
            </Position>
            <AltitudeMeters>376.399993896484375</AltitudeMeters>
            <DistanceMeters>NAN</DistanceMeters>
          </Trackpoint>
          <Trackpoint>
            <Time>2020-02-15T10:41:32.000Z</Time>
            <Position>
              <LatitudeDegrees>41.96833007968962192535400390625</LatitudeDegrees>
              <LongitudeDegrees>2.8980048000812530517578125</LongitudeDegrees>
            </Position>
            <AltitudeMeters>376.79998779296875</AltitudeMeters>
            <DistanceMeters>NAN</DistanceMeters>
          </Trackpoint>
          <Trackpoint>
            <Time>2020-02-15T10:41:33.000Z</Time>
            <Position>
              <LatitudeDegrees>41.96833862923085689544677734375</LatitudeDegrees>
              <LongitudeDegrees>2.89802692830562591552734375</LongitudeDegrees>
            </Position>
            <AltitudeMeters>377</AltitudeMeters>
            <DistanceMeters>NAN</DistanceMeters>
          </Trackpoint>
          <Trackpoint>
            <Time>2020-02-15T10:41:34.000Z</Time>
            <Position>
              <LatitudeDegrees>41.968348436057567596435546875</LatitudeDegrees>
              <LongitudeDegrees>2.8980535827577114105224609375</LongitudeDegrees>
            </Position>
            <AltitudeMeters>377.20001220703125</AltitudeMeters>
            <DistanceMeters>NAN</DistanceMeters>
          </Trackpoint>
          <Trackpoint>
            <Time>2020-02-15T10:41:35.000Z</Time>
            <Position>
              <LatitudeDegrees>41.9683563150465488433837890625</LatitudeDegrees>
              <LongitudeDegrees>2.89807789027690887451171875</LongitudeDegrees>
            </Position>
            <AltitudeMeters>377.600006103515625</AltitudeMeters>
            <DistanceMeters>NAN</DistanceMeters>
          </Trackpoint>
          <Trackpoint>
            <Time>2020-02-15T10:41:36.000Z</Time>
            <Position>
              <LatitudeDegrees>41.96836444549262523651123046875</LatitudeDegrees>
              <LongitudeDegrees>2.89810261689126491546630859375</LongitudeDegrees>
            </Position>
            <AltitudeMeters>377.79998779296875</AltitudeMeters>
            <DistanceMeters>NAN</DistanceMeters>
          </Trackpoint>
          <Trackpoint>
            <Time>2020-02-15T10:41:37.000Z</Time>
            <Position>
              <LatitudeDegrees>41.96837064810097217559814453125</LatitudeDegrees>
              <LongitudeDegrees>2.89812885224819183349609375</LongitudeDegrees>
            </Position>
            <AltitudeMeters>378</AltitudeMeters>
            <DistanceMeters>NAN</DistanceMeters>
          </Trackpoint>
          <Trackpoint>
            <Time>2020-02-15T10:41:38.000Z</Time>
            <Position>
              <LatitudeDegrees>41.9683760963380336761474609375</LatitudeDegrees>
              <LongitudeDegrees>2.898154668509960174560546875</LongitudeDegrees>
            </Position>
            <AltitudeMeters>378.399993896484375</AltitudeMeters>
            <DistanceMeters>NAN</DistanceMeters>
          </Trackpoint>
          <Trackpoint>
            <Time>2020-02-15T10:41:39.000Z</Time>
            <Position>
              <LatitudeDegrees>41.9683804549276828765869140625</LatitudeDegrees>
              <LongitudeDegrees>2.89817922748625278472900390625</LongitudeDegrees>
            </Position>
            <AltitudeMeters>378.79998779296875</AltitudeMeters>
            <DistanceMeters>NAN</DistanceMeters>
          </Trackpoint>
          <Trackpoint>
            <Time>2020-02-15T10:41:40.000Z</Time>
            <Position>
              <LatitudeDegrees>41.96838590316474437713623046875</LatitudeDegrees>
              <LongitudeDegrees>2.898204959928989410400390625</LongitudeDegrees>
            </Position>
            <AltitudeMeters>378.79998779296875</AltitudeMeters>
            <DistanceMeters>NAN</DistanceMeters>
          </Trackpoint>
          <Trackpoint>
            <Time>2020-02-15T10:41:41.000Z</Time>
            <Position>
              <LatitudeDegrees>41.96839227341115474700927734375</LatitudeDegrees>
              <LongitudeDegrees>2.89823471568524837493896484375</LongitudeDegrees>
            </Position>
            <AltitudeMeters>379</AltitudeMeters>
            <DistanceMeters>NAN</DistanceMeters>
          </Trackpoint>
          <Trackpoint>
            <Time>2020-02-15T10:41:42.000Z</Time>
            <Position>
              <LatitudeDegrees>41.96840107440948486328125</LatitudeDegrees>
              <LongitudeDegrees>2.89826639927923679351806640625</LongitudeDegrees>
            </Position>
            <AltitudeMeters>379.399993896484375</AltitudeMeters>
            <DistanceMeters>NAN</DistanceMeters>
          </Trackpoint>
          <Trackpoint>
            <Time>2020-02-15T10:41:43.000Z</Time>
            <Position>
              <LatitudeDegrees>41.968410797417163848876953125</LatitudeDegrees>
              <LongitudeDegrees>2.898298166692256927490234375</LongitudeDegrees>
            </Position>
            <AltitudeMeters>379.600006103515625</AltitudeMeters>
            <DistanceMeters>NAN</DistanceMeters>
          </Trackpoint>
          <Trackpoint>
            <Time>2020-02-15T10:41:44.000Z</Time>
            <Position>
              <LatitudeDegrees>41.96842052042484283447265625</LatitudeDegrees>
              <LongitudeDegrees>2.89832825772464275360107421875</LongitudeDegrees>
            </Position>
            <AltitudeMeters>379.79998779296875</AltitudeMeters>
            <DistanceMeters>NAN</DistanceMeters>
          </Trackpoint>
          <Trackpoint>
            <Time>2020-02-15T10:41:45.000Z</Time>
            <Position>
              <LatitudeDegrees>41.9684294052422046661376953125</LatitudeDegrees>
              <LongitudeDegrees>2.898356504738330841064453125</LongitudeDegrees>
            </Position>
            <AltitudeMeters>380.20001220703125</AltitudeMeters>
            <DistanceMeters>NAN</DistanceMeters>
          </Trackpoint>
          <Trackpoint>
            <Time>2020-02-15T10:41:46.000Z</Time>
            <Position>
              <LatitudeDegrees>41.96843652985990047454833984375</LatitudeDegrees>
              <LongitudeDegrees>2.89837972261011600494384765625</LongitudeDegrees>
            </Position>
            <AltitudeMeters>380.399993896484375</AltitudeMeters>
            <DistanceMeters>NAN</DistanceMeters>
          </Trackpoint>
          <Trackpoint>
            <Time>2020-02-15T10:41:47.000Z</Time>
            <Position>
              <LatitudeDegrees>41.96844407357275485992431640625</LatitudeDegrees>
              <LongitudeDegrees>2.89840285666286945343017578125</LongitudeDegrees>
            </Position>
            <AltitudeMeters>380.79998779296875</AltitudeMeters>
            <DistanceMeters>NAN</DistanceMeters>
          </Trackpoint>
          <Trackpoint>
            <Time>2020-02-15T10:41:48.000Z</Time>
            <Position>
              <LatitudeDegrees>41.9684515334665775299072265625</LatitudeDegrees>
              <LongitudeDegrees>2.898426912724971771240234375</LongitudeDegrees>
            </Position>
            <AltitudeMeters>380.79998779296875</AltitudeMeters>
            <DistanceMeters>NAN</DistanceMeters>
          </Trackpoint>
          <Trackpoint>
            <Time>2020-02-15T10:41:49.000Z</Time>
            <Position>
              <LatitudeDegrees>41.96846117265522480010986328125</LatitudeDegrees>
              <LongitudeDegrees>2.89845230989158153533935546875</LongitudeDegrees>
            </Position>
            <AltitudeMeters>380.79998779296875</AltitudeMeters>
            <DistanceMeters>NAN</DistanceMeters>
          </Trackpoint>
          <Trackpoint>
            <Time>2020-02-15T10:41:50.000Z</Time>
            <Position>
              <LatitudeDegrees>41.9684703089296817779541015625</LatitudeDegrees>
              <LongitudeDegrees>2.89847209118306636810302734375</LongitudeDegrees>
            </Position>
            <AltitudeMeters>381.20001220703125</AltitudeMeters>
            <DistanceMeters>NAN</DistanceMeters>
          </Trackpoint>
          <Trackpoint>
            <Time>2020-02-15T10:41:51.000Z</Time>
            <Position>
              <LatitudeDegrees>41.96847693063318729400634765625</LatitudeDegrees>
              <LongitudeDegrees>2.89849363267421722412109375</LongitudeDegrees>
            </Position>
            <AltitudeMeters>381.600006103515625</AltitudeMeters>
            <DistanceMeters>NAN</DistanceMeters>
          </Trackpoint>
          <Trackpoint>
            <Time>2020-02-15T10:41:52.000Z</Time>
            <Position>
              <LatitudeDegrees>41.968483217060565948486328125</LatitudeDegrees>
              <LongitudeDegrees>2.898516096174716949462890625</LongitudeDegrees>
            </Position>
            <AltitudeMeters>381.79998779296875</AltitudeMeters>
            <DistanceMeters>NAN</DistanceMeters>
          </Trackpoint>
          <Trackpoint>
            <Time>2020-02-15T10:41:53.000Z</Time>
            <Position>
              <LatitudeDegrees>41.9684882462024688720703125</LatitudeDegrees>
              <LongitudeDegrees>2.89854266680777072906494140625</LongitudeDegrees>
            </Position>
            <AltitudeMeters>382</AltitudeMeters>
            <DistanceMeters>NAN</DistanceMeters>
          </Trackpoint>
          <Trackpoint>
            <Time>2020-02-15T10:41:54.000Z</Time>
            <Position>
              <LatitudeDegrees>41.96849067695438861846923828125</LatitudeDegrees>
              <LongitudeDegrees>2.89856697432696819305419921875</LongitudeDegrees>
            </Position>
            <AltitudeMeters>382.399993896484375</AltitudeMeters>
            <DistanceMeters>NAN</DistanceMeters>
          </Trackpoint>
          <Trackpoint>
            <Time>2020-02-15T10:41:55.000Z</Time>
            <Position>
              <LatitudeDegrees>41.968493275344371795654296875</LatitudeDegrees>
              <LongitudeDegrees>2.89859287440776824951171875</LongitudeDegrees>
            </Position>
            <AltitudeMeters>382.399993896484375</AltitudeMeters>
            <DistanceMeters>NAN</DistanceMeters>
          </Trackpoint>
          <Trackpoint>
            <Time>2020-02-15T10:41:57.000Z</Time>
            <Position>
              <LatitudeDegrees>41.968505345284938812255859375</LatitudeDegrees>
              <LongitudeDegrees>2.8986433334648609161376953125</LongitudeDegrees>
            </Position>
            <AltitudeMeters>382.79998779296875</AltitudeMeters>
            <DistanceMeters>NAN</DistanceMeters>
          </Trackpoint>
          <Trackpoint>
            <Time>2020-02-15T10:41:58.000Z</Time>
            <Position>
              <LatitudeDegrees>41.968511380255222320556640625</LatitudeDegrees>
              <LongitudeDegrees>2.89866789244115352630615234375</LongitudeDegrees>
            </Position>
            <AltitudeMeters>382.79998779296875</AltitudeMeters>
            <DistanceMeters>NAN</DistanceMeters>
          </Trackpoint>
          <Trackpoint>
            <Time>2020-02-15T10:41:59.000Z</Time>
            <Position>
              <LatitudeDegrees>41.96851515211164951324462890625</LatitudeDegrees>
              <LongitudeDegrees>2.89869119413197040557861328125</LongitudeDegrees>
            </Position>
            <AltitudeMeters>383.20001220703125</AltitudeMeters>
            <DistanceMeters>NAN</DistanceMeters>
          </Trackpoint>
          <Trackpoint>
            <Time>2020-02-15T10:42:00.000Z</Time>
            <Position>
              <LatitudeDegrees>41.968519426882266998291015625</LatitudeDegrees>
              <LongitudeDegrees>2.8987127356231212615966796875</LongitudeDegrees>
            </Position>
            <AltitudeMeters>383.20001220703125</AltitudeMeters>
            <DistanceMeters>NAN</DistanceMeters>
          </Trackpoint>
          <Trackpoint>
            <Time>2020-02-15T10:42:01.000Z</Time>
            <Position>
              <LatitudeDegrees>41.9685249589383602142333984375</LatitudeDegrees>
              <LongitudeDegrees>2.89873637259006500244140625</LongitudeDegrees>
            </Position>
            <AltitudeMeters>383.399993896484375</AltitudeMeters>
            <DistanceMeters>NAN</DistanceMeters>
          </Trackpoint>
          <Trackpoint>
            <Time>2020-02-15T10:42:02.000Z</Time>
            <Position>
              <LatitudeDegrees>41.96853023953735828399658203125</LatitudeDegrees>
              <LongitudeDegrees>2.8987598419189453125</LongitudeDegrees>
            </Position>
            <AltitudeMeters>383.399993896484375</AltitudeMeters>
            <DistanceMeters>NAN</DistanceMeters>
          </Trackpoint>
          <Trackpoint>
            <Time>2020-02-15T10:42:03.000Z</Time>
            <Position>
              <LatitudeDegrees>41.96853074245154857635498046875</LatitudeDegrees>
              <LongitudeDegrees>2.89878272451460361480712890625</LongitudeDegrees>
            </Position>
            <AltitudeMeters>383.399993896484375</AltitudeMeters>
            <DistanceMeters>NAN</DistanceMeters>
          </Trackpoint>
          <Trackpoint>
            <Time>2020-02-15T10:42:04.000Z</Time>
            <Position>
              <LatitudeDegrees>41.9685296528041362762451171875</LatitudeDegrees>
              <LongitudeDegrees>2.8988052718341350555419921875</LongitudeDegrees>
            </Position>
            <AltitudeMeters>383.399993896484375</AltitudeMeters>
            <DistanceMeters>NAN</DistanceMeters>
          </Trackpoint>
          <Trackpoint>
            <Time>2020-02-15T10:42:05.000Z</Time>
            <Position>
              <LatitudeDegrees>41.96853158064186573028564453125</LatitudeDegrees>
              <LongitudeDegrees>2.89883033372461795806884765625</LongitudeDegrees>
            </Position>
            <AltitudeMeters>383.79998779296875</AltitudeMeters>
            <DistanceMeters>NAN</DistanceMeters>
          </Trackpoint>
          <Trackpoint>
            <Time>2020-02-15T10:42:06.000Z</Time>
            <Position>
              <LatitudeDegrees>41.96853375993669033050537109375</LatitudeDegrees>
              <LongitudeDegrees>2.8988565690815448760986328125</LongitudeDegrees>
            </Position>
            <AltitudeMeters>384</AltitudeMeters>
            <DistanceMeters>NAN</DistanceMeters>
          </Trackpoint>
          <Trackpoint>
            <Time>2020-02-15T10:42:07.000Z</Time>
            <Position>
              <LatitudeDegrees>41.96853308938443660736083984375</LatitudeDegrees>
              <LongitudeDegrees>2.8988820500671863555908203125</LongitudeDegrees>
            </Position>
            <AltitudeMeters>384</AltitudeMeters>
            <DistanceMeters>NAN</DistanceMeters>
          </Trackpoint>
          <Trackpoint>
            <Time>2020-02-15T10:42:08.000Z</Time>
            <Position>
              <LatitudeDegrees>41.96852956898510456085205078125</LatitudeDegrees>
              <LongitudeDegrees>2.89890828542411327362060546875</LongitudeDegrees>
            </Position>
            <AltitudeMeters>384</AltitudeMeters>
            <DistanceMeters>NAN</DistanceMeters>
          </Trackpoint>
          <Trackpoint>
            <Time>2020-02-15T10:42:09.000Z</Time>
            <Position>
              <LatitudeDegrees>41.96852487511932849884033203125</LatitudeDegrees>
              <LongitudeDegrees>2.89893628098070621490478515625</LongitudeDegrees>
            </Position>
            <AltitudeMeters>384</AltitudeMeters>
            <DistanceMeters>NAN</DistanceMeters>
          </Trackpoint>
          <Trackpoint>
            <Time>2020-02-15T10:42:11.000Z</Time>
            <Position>
              <LatitudeDegrees>41.96852487511932849884033203125</LatitudeDegrees>
              <LongitudeDegrees>2.89899227209389209747314453125</LongitudeDegrees>
            </Position>
            <AltitudeMeters>384.20001220703125</AltitudeMeters>
            <DistanceMeters>NAN</DistanceMeters>
          </Trackpoint>
          <Trackpoint>
            <Time>2020-02-15T10:42:12.000Z</Time>
            <Position>
              <LatitudeDegrees>41.9685289822518825531005859375</LatitudeDegrees>
              <LongitudeDegrees>2.89901825599372386932373046875</LongitudeDegrees>
            </Position>
            <AltitudeMeters>384.20001220703125</AltitudeMeters>
            <DistanceMeters>NAN</DistanceMeters>
          </Trackpoint>
          <Trackpoint>
            <Time>2020-02-15T10:42:13.000Z</Time>
            <Position>
              <LatitudeDegrees>41.96853325702250003814697265625</LatitudeDegrees>
              <LongitudeDegrees>2.89904348552227020263671875</LongitudeDegrees>
            </Position>
            <AltitudeMeters>384.20001220703125</AltitudeMeters>
            <DistanceMeters>NAN</DistanceMeters>
          </Trackpoint>
          <Trackpoint>
            <Time>2020-02-15T10:42:14.000Z</Time>
            <Position>
              <LatitudeDegrees>41.96853409521281719207763671875</LatitudeDegrees>
              <LongitudeDegrees>2.899071983993053436279296875</LongitudeDegrees>
            </Position>
            <AltitudeMeters>384.399993896484375</AltitudeMeters>
            <DistanceMeters>NAN</DistanceMeters>
          </Trackpoint>
          <Trackpoint>
            <Time>2020-02-15T10:42:15.000Z</Time>
            <Position>
              <LatitudeDegrees>41.9685356877744197845458984375</LatitudeDegrees>
              <LongitudeDegrees>2.89910249412059783935546875</LongitudeDegrees>
            </Position>
            <AltitudeMeters>384.20001220703125</AltitudeMeters>
            <DistanceMeters>NAN</DistanceMeters>
          </Trackpoint>
          <Trackpoint>
            <Time>2020-02-15T10:42:16.000Z</Time>
            <Position>
              <LatitudeDegrees>41.96854147128760814666748046875</LatitudeDegrees>
              <LongitudeDegrees>2.899133674800395965576171875</LongitudeDegrees>
            </Position>
            <AltitudeMeters>384.20001220703125</AltitudeMeters>
            <DistanceMeters>NAN</DistanceMeters>
          </Trackpoint>
          <Trackpoint>
            <Time>2020-02-15T10:42:17.000Z</Time>
            <Position>
              <LatitudeDegrees>41.9685511104762554168701171875</LatitudeDegrees>
              <LongitudeDegrees>2.89916091598570346832275390625</LongitudeDegrees>
            </Position>
            <AltitudeMeters>384.399993896484375</AltitudeMeters>
            <DistanceMeters>NAN</DistanceMeters>
          </Trackpoint>
          <Trackpoint>
            <Time>2020-02-15T10:42:18.000Z</Time>
            <Position>
              <LatitudeDegrees>41.96856376715004444122314453125</LatitudeDegrees>
              <LongitudeDegrees>2.899183966219425201416015625</LongitudeDegrees>
            </Position>
            <AltitudeMeters>384.20001220703125</AltitudeMeters>
            <DistanceMeters>NAN</DistanceMeters>
          </Trackpoint>
          <Trackpoint>
            <Time>2020-02-15T10:42:19.000Z</Time>
            <Position>
              <LatitudeDegrees>41.96857742965221405029296875</LatitudeDegrees>
              <LongitudeDegrees>2.8992010653018951416015625</LongitudeDegrees>
            </Position>
            <AltitudeMeters>384.20001220703125</AltitudeMeters>
            <DistanceMeters>NAN</DistanceMeters>
          </Trackpoint>
          <Trackpoint>
            <Time>2020-02-15T10:42:20.000Z</Time>
            <Position>
              <LatitudeDegrees>41.96859293617308139801025390625</LatitudeDegrees>
              <LongitudeDegrees>2.89921321906149387359619140625</LongitudeDegrees>
            </Position>
            <AltitudeMeters>384.399993896484375</AltitudeMeters>
            <DistanceMeters>NAN</DistanceMeters>
          </Trackpoint>
          <Trackpoint>
            <Time>2020-02-15T10:42:21.000Z</Time>
            <Position>
              <LatitudeDegrees>41.9686097837984561920166015625</LatitudeDegrees>
              <LongitudeDegrees>2.89922210387885570526123046875</LongitudeDegrees>
            </Position>
            <AltitudeMeters>384.399993896484375</AltitudeMeters>
            <DistanceMeters>NAN</DistanceMeters>
          </Trackpoint>
          <Trackpoint>
            <Time>2020-02-15T10:42:22.000Z</Time>
            <Position>
              <LatitudeDegrees>41.96862570941448211669921875</LatitudeDegrees>
              <LongitudeDegrees>2.899230904877185821533203125</LongitudeDegrees>
            </Position>
            <AltitudeMeters>384.20001220703125</AltitudeMeters>
            <DistanceMeters>NAN</DistanceMeters>
          </Trackpoint>
          <Trackpoint>
            <Time>2020-02-15T10:42:23.000Z</Time>
            <Position>
              <LatitudeDegrees>41.96864088065922260284423828125</LatitudeDegrees>
              <LongitudeDegrees>2.8992394544184207916259765625</LongitudeDegrees>
            </Position>
            <AltitudeMeters>384.20001220703125</AltitudeMeters>
            <DistanceMeters>NAN</DistanceMeters>
          </Trackpoint>
          <Trackpoint>
            <Time>2020-02-15T10:42:24.000Z</Time>
            <Position>
              <LatitudeDegrees>41.96865563280880451202392578125</LatitudeDegrees>
              <LongitudeDegrees>2.899245657026767730712890625</LongitudeDegrees>
            </Position>
            <AltitudeMeters>384.20001220703125</AltitudeMeters>
            <DistanceMeters>NAN</DistanceMeters>
          </Trackpoint>
          <Trackpoint>
            <Time>2020-02-15T10:42:25.000Z</Time>
            <Position>
              <LatitudeDegrees>41.9686724804341793060302734375</LatitudeDegrees>
              <LongitudeDegrees>2.8992468304932117462158203125</LongitudeDegrees>
            </Position>
            <AltitudeMeters>384.399993896484375</AltitudeMeters>
            <DistanceMeters>NAN</DistanceMeters>
          </Trackpoint>
          <Trackpoint>
            <Time>2020-02-15T10:42:26.000Z</Time>
            <Position>
              <LatitudeDegrees>41.96869251318275928497314453125</LatitudeDegrees>
              <LongitudeDegrees>2.89923987351357936859130859375</LongitudeDegrees>
            </Position>
            <AltitudeMeters>384.20001220703125</AltitudeMeters>
            <DistanceMeters>NAN</DistanceMeters>
          </Trackpoint>
          <Trackpoint>
            <Time>2020-02-15T10:42:27.000Z</Time>
            <Position>
              <LatitudeDegrees>41.9687143899500370025634765625</LatitudeDegrees>
              <LongitudeDegrees>2.8992273844778537750244140625</LongitudeDegrees>
            </Position>
            <AltitudeMeters>384.20001220703125</AltitudeMeters>
            <DistanceMeters>NAN</DistanceMeters>
          </Trackpoint>
          <Trackpoint>
            <Time>2020-02-15T10:42:28.000Z</Time>
            <Position>
              <LatitudeDegrees>41.9687358476221561431884765625</LatitudeDegrees>
              <LongitudeDegrees>2.89921305142343044281005859375</LongitudeDegrees>
            </Position>
            <AltitudeMeters>384.20001220703125</AltitudeMeters>
            <DistanceMeters>NAN</DistanceMeters>
          </Trackpoint>
          <Trackpoint>
            <Time>2020-02-15T10:42:30.000Z</Time>
            <Position>
              <LatitudeDegrees>41.96877658367156982421875</LatitudeDegrees>
              <LongitudeDegrees>2.8991767577826976776123046875</LongitudeDegrees>
            </Position>
            <AltitudeMeters>384.399993896484375</AltitudeMeters>
            <DistanceMeters>NAN</DistanceMeters>
          </Trackpoint>
          <Trackpoint>
            <Time>2020-02-15T10:42:31.000Z</Time>
            <Position>
              <LatitudeDegrees>41.968795694410800933837890625</LatitudeDegrees>
              <LongitudeDegrees>2.8991576470434665679931640625</LongitudeDegrees>
            </Position>
            <AltitudeMeters>384.399993896484375</AltitudeMeters>
            <DistanceMeters>NAN</DistanceMeters>
          </Trackpoint>
          <Trackpoint>
            <Time>2020-02-15T10:42:34.000Z</Time>
            <Position>
              <LatitudeDegrees>41.9688557088375091552734375</LatitudeDegrees>
              <LongitudeDegrees>2.89909620769321918487548828125</LongitudeDegrees>
            </Position>
            <AltitudeMeters>384.20001220703125</AltitudeMeters>
            <DistanceMeters>NAN</DistanceMeters>
          </Trackpoint>
          <Trackpoint>
            <Time>2020-02-15T10:42:35.000Z</Time>
            <Position>
              <LatitudeDegrees>41.968878172338008880615234375</LatitudeDegrees>
              <LongitudeDegrees>2.899078689515590667724609375</LongitudeDegrees>
            </Position>
            <AltitudeMeters>384.399993896484375</AltitudeMeters>
            <DistanceMeters>NAN</DistanceMeters>
          </Trackpoint>
          <Trackpoint>
            <Time>2020-02-15T10:42:36.000Z</Time>
            <Position>
              <LatitudeDegrees>41.9689011387526988983154296875</LatitudeDegrees>
              <LongitudeDegrees>2.89906024932861328125</LongitudeDegrees>
            </Position>
            <AltitudeMeters>384.399993896484375</AltitudeMeters>
            <DistanceMeters>NAN</DistanceMeters>
          </Trackpoint>
          <Trackpoint>
            <Time>2020-02-15T10:42:37.000Z</Time>
            <Position>
              <LatitudeDegrees>41.96892452426254749298095703125</LatitudeDegrees>
              <LongitudeDegrees>2.8990403003990650177001953125</LongitudeDegrees>
            </Position>
            <AltitudeMeters>384.399993896484375</AltitudeMeters>
            <DistanceMeters>NAN</DistanceMeters>
          </Trackpoint>
          <Trackpoint>
            <Time>2020-02-15T10:42:39.000Z</Time>
            <Position>
              <LatitudeDegrees>41.9689728878438472747802734375</LatitudeDegrees>
              <LongitudeDegrees>2.89900191128253936767578125</LongitudeDegrees>
            </Position>
            <AltitudeMeters>384.20001220703125</AltitudeMeters>
            <DistanceMeters>NAN</DistanceMeters>
          </Trackpoint>
          <Trackpoint>
            <Time>2020-02-15T10:42:40.000Z</Time>
            <Position>
              <LatitudeDegrees>41.968996860086917877197265625</LatitudeDegrees>
              <LongitudeDegrees>2.89898841641843318939208984375</LongitudeDegrees>
            </Position>
            <AltitudeMeters>384.20001220703125</AltitudeMeters>
            <DistanceMeters>NAN</DistanceMeters>
          </Trackpoint>
          <Trackpoint>
            <Time>2020-02-15T10:42:41.000Z</Time>
            <Position>
              <LatitudeDegrees>41.96901907213032245635986328125</LatitudeDegrees>
              <LongitudeDegrees>2.8989739157259464263916015625</LongitudeDegrees>
            </Position>
            <AltitudeMeters>384.20001220703125</AltitudeMeters>
            <DistanceMeters>NAN</DistanceMeters>
          </Trackpoint>
          <Trackpoint>
            <Time>2020-02-15T10:42:42.000Z</Time>
            <Position>
              <LatitudeDegrees>41.9690406136214733123779296875</LatitudeDegrees>
              <LongitudeDegrees>2.89895790629088878631591796875</LongitudeDegrees>
            </Position>
            <AltitudeMeters>384</AltitudeMeters>
            <DistanceMeters>NAN</DistanceMeters>
          </Trackpoint>
          <Trackpoint>
            <Time>2020-02-15T10:42:43.000Z</Time>
            <Position>
              <LatitudeDegrees>41.96906366385519504547119140625</LatitudeDegrees>
              <LongitudeDegrees>2.8989370353519916534423828125</LongitudeDegrees>
            </Position>
            <AltitudeMeters>383.79998779296875</AltitudeMeters>
            <DistanceMeters>NAN</DistanceMeters>
          </Trackpoint>
          <Trackpoint>
            <Time>2020-02-15T10:42:44.000Z</Time>
            <Position>
              <LatitudeDegrees>41.96908436715602874755859375</LatitudeDegrees>
              <LongitudeDegrees>2.8989165835082530975341796875</LongitudeDegrees>
            </Position>
            <AltitudeMeters>383.79998779296875</AltitudeMeters>
            <DistanceMeters>NAN</DistanceMeters>
          </Trackpoint>
          <Trackpoint>
            <Time>2020-02-15T10:42:45.000Z</Time>
            <Position>
              <LatitudeDegrees>41.96910691447556018829345703125</LatitudeDegrees>
              <LongitudeDegrees>2.89889403618872165679931640625</LongitudeDegrees>
            </Position>
            <AltitudeMeters>383.79998779296875</AltitudeMeters>
            <DistanceMeters>NAN</DistanceMeters>
          </Trackpoint>
          <Trackpoint>
            <Time>2020-02-15T10:42:47.000Z</Time>
            <Position>
              <LatitudeDegrees>41.96916089393198490142822265625</LatitudeDegrees>
              <LongitudeDegrees>2.89885179139673709869384765625</LongitudeDegrees>
            </Position>
            <AltitudeMeters>383.79998779296875</AltitudeMeters>
            <DistanceMeters>NAN</DistanceMeters>
          </Trackpoint>
          <Trackpoint>
            <Time>2020-02-15T10:42:51.000Z</Time>
            <Position>
              <LatitudeDegrees>41.96927170269191265106201171875</LatitudeDegrees>
              <LongitudeDegrees>2.8987596742808818817138671875</LongitudeDegrees>
            </Position>
            <AltitudeMeters>383.600006103515625</AltitudeMeters>
            <DistanceMeters>NAN</DistanceMeters>
          </Trackpoint>
          <Trackpoint>
            <Time>2020-02-15T10:42:52.000Z</Time>
            <Position>
              <LatitudeDegrees>41.96929835714399814605712890625</LatitudeDegrees>
              <LongitudeDegrees>2.89874349720776081085205078125</LongitudeDegrees>
            </Position>
            <AltitudeMeters>383.600006103515625</AltitudeMeters>
            <DistanceMeters>NAN</DistanceMeters>
          </Trackpoint>
          <Trackpoint>
            <Time>2020-02-15T10:42:53.000Z</Time>
            <Position>
              <LatitudeDegrees>41.9693235866725444793701171875</LatitudeDegrees>
              <LongitudeDegrees>2.89872723631560802459716796875</LongitudeDegrees>
            </Position>
            <AltitudeMeters>383.79998779296875</AltitudeMeters>
            <DistanceMeters>NAN</DistanceMeters>
          </Trackpoint>
          <Trackpoint>
            <Time>2020-02-15T10:42:54.000Z</Time>
            <Position>
              <LatitudeDegrees>41.96934713982045650482177734375</LatitudeDegrees>
              <LongitudeDegrees>2.89870410226285457611083984375</LongitudeDegrees>
            </Position>
            <AltitudeMeters>383.79998779296875</AltitudeMeters>
            <DistanceMeters>NAN</DistanceMeters>
          </Trackpoint>
          <Trackpoint>
            <Time>2020-02-15T10:42:55.000Z</Time>
            <Position>
              <LatitudeDegrees>41.96936926804482936859130859375</LatitudeDegrees>
              <LongitudeDegrees>2.89867962710559368133544921875</LongitudeDegrees>
            </Position>
            <AltitudeMeters>383.600006103515625</AltitudeMeters>
            <DistanceMeters>NAN</DistanceMeters>
          </Trackpoint>
          <Trackpoint>
            <Time>2020-02-15T10:42:56.000Z</Time>
            <Position>
              <LatitudeDegrees>41.96939089335501194000244140625</LatitudeDegrees>
              <LongitudeDegrees>2.898655235767364501953125</LongitudeDegrees>
            </Position>
            <AltitudeMeters>383.600006103515625</AltitudeMeters>
            <DistanceMeters>NAN</DistanceMeters>
          </Trackpoint>
          <Trackpoint>
            <Time>2020-02-15T10:43:01.000Z</Time>
            <Position>
              <LatitudeDegrees>41.9694999419152736663818359375</LatitudeDegrees>
              <LongitudeDegrees>2.8985236398875713348388671875</LongitudeDegrees>
            </Position>
            <AltitudeMeters>383.600006103515625</AltitudeMeters>
            <DistanceMeters>NAN</DistanceMeters>
          </Trackpoint>
          <Trackpoint>
            <Time>2020-02-15T10:43:02.000Z</Time>
            <Position>
              <LatitudeDegrees>41.969521902501583099365234375</LatitudeDegrees>
              <LongitudeDegrees>2.8984938003122806549072265625</LongitudeDegrees>
            </Position>
            <AltitudeMeters>383.600006103515625</AltitudeMeters>
            <DistanceMeters>NAN</DistanceMeters>
          </Trackpoint>
          <Trackpoint>
            <Time>2020-02-15T10:43:05.000Z</Time>
            <Position>
              <LatitudeDegrees>41.96958837099373340606689453125</LatitudeDegrees>
              <LongitudeDegrees>2.8983958996832370758056640625</LongitudeDegrees>
            </Position>
            <AltitudeMeters>383.79998779296875</AltitudeMeters>
            <DistanceMeters>NAN</DistanceMeters>
          </Trackpoint>
          <Trackpoint>
            <Time>2020-02-15T10:43:06.000Z</Time>
            <Position>
              <LatitudeDegrees>41.96961544454097747802734375</LatitudeDegrees>
              <LongitudeDegrees>2.898360192775726318359375</LongitudeDegrees>
            </Position>
            <AltitudeMeters>383.600006103515625</AltitudeMeters>
            <DistanceMeters>NAN</DistanceMeters>
          </Trackpoint>
          <Trackpoint>
            <Time>2020-02-15T10:43:07.000Z</Time>
            <Position>
              <LatitudeDegrees>41.969643943011760711669921875</LatitudeDegrees>
              <LongitudeDegrees>2.8983231447637081146240234375</LongitudeDegrees>
            </Position>
            <AltitudeMeters>383.399993896484375</AltitudeMeters>
            <DistanceMeters>NAN</DistanceMeters>
          </Trackpoint>
          <Trackpoint>
            <Time>2020-02-15T10:43:09.000Z</Time>
            <Position>
              <LatitudeDegrees>41.96970286779105663299560546875</LatitudeDegrees>
              <LongitudeDegrees>2.89825667627155780792236328125</LongitudeDegrees>
            </Position>
            <AltitudeMeters>383.399993896484375</AltitudeMeters>
            <DistanceMeters>NAN</DistanceMeters>
          </Trackpoint>
          <Trackpoint>
            <Time>2020-02-15T10:43:11.000Z</Time>
            <Position>
              <LatitudeDegrees>41.96975751779973506927490234375</LatitudeDegrees>
              <LongitudeDegrees>2.898194231092929840087890625</LongitudeDegrees>
            </Position>
            <AltitudeMeters>383.399993896484375</AltitudeMeters>
            <DistanceMeters>NAN</DistanceMeters>
          </Trackpoint>
          <Trackpoint>
            <Time>2020-02-15T10:43:12.000Z</Time>
            <Position>
              <LatitudeDegrees>41.9697866030037403106689453125</LatitudeDegrees>
              <LongitudeDegrees>2.89816665463149547576904296875</LongitudeDegrees>
            </Position>
            <AltitudeMeters>383.20001220703125</AltitudeMeters>
            <DistanceMeters>NAN</DistanceMeters>
          </Trackpoint>
          <Trackpoint>
            <Time>2020-02-15T10:43:13.000Z</Time>
            <Position>
              <LatitudeDegrees>41.96981786750257015228271484375</LatitudeDegrees>
              <LongitudeDegrees>2.8981415927410125732421875</LongitudeDegrees>
            </Position>
            <AltitudeMeters>383</AltitudeMeters>
            <DistanceMeters>NAN</DistanceMeters>
          </Trackpoint>
          <Trackpoint>
            <Time>2020-02-15T10:43:15.000Z</Time>
            <Position>
              <LatitudeDegrees>41.9698749482631683349609375</LatitudeDegrees>
              <LongitudeDegrees>2.898100353777408599853515625</LongitudeDegrees>
            </Position>
            <AltitudeMeters>383</AltitudeMeters>
            <DistanceMeters>NAN</DistanceMeters>
          </Trackpoint>
          <Trackpoint>
            <Time>2020-02-15T10:43:16.000Z</Time>
            <Position>
              <LatitudeDegrees>41.969906799495220184326171875</LatitudeDegrees>
              <LongitudeDegrees>2.89807881228625774383544921875</LongitudeDegrees>
            </Position>
            <AltitudeMeters>382.79998779296875</AltitudeMeters>
            <DistanceMeters>NAN</DistanceMeters>
          </Trackpoint>
          <Trackpoint>
            <Time>2020-02-15T10:43:18.000Z</Time>
            <Position>
              <LatitudeDegrees>41.9699730165302753448486328125</LatitudeDegrees>
              <LongitudeDegrees>2.89803639985620975494384765625</LongitudeDegrees>
            </Position>
            <AltitudeMeters>382.600006103515625</AltitudeMeters>
            <DistanceMeters>NAN</DistanceMeters>
          </Trackpoint>
          <Trackpoint>
            <Time>2020-02-15T10:43:22.000Z</Time>
            <Position>
              <LatitudeDegrees>41.97013185359537601470947265625</LatitudeDegrees>
              <LongitudeDegrees>2.89794377982616424560546875</LongitudeDegrees>
            </Position>
            <AltitudeMeters>381.79998779296875</AltitudeMeters>
            <DistanceMeters>NAN</DistanceMeters>
          </Trackpoint>
          <Trackpoint>
            <Time>2020-02-15T10:43:25.000Z</Time>
            <Position>
              <LatitudeDegrees>41.97025188244879245758056640625</LatitudeDegrees>
              <LongitudeDegrees>2.89786088280379772186279296875</LongitudeDegrees>
            </Position>
            <AltitudeMeters>381.600006103515625</AltitudeMeters>
            <DistanceMeters>NAN</DistanceMeters>
          </Trackpoint>
          <Trackpoint>
            <Time>2020-02-15T10:43:26.000Z</Time>
            <Position>
              <LatitudeDegrees>41.9702851586043834686279296875</LatitudeDegrees>
              <LongitudeDegrees>2.8978312946856021881103515625</LongitudeDegrees>
            </Position>
            <AltitudeMeters>381.399993896484375</AltitudeMeters>
            <DistanceMeters>NAN</DistanceMeters>
          </Trackpoint>
          <Trackpoint>
            <Time>2020-02-15T10:43:27.000Z</Time>
            <Position>
              <LatitudeDegrees>41.97032212279736995697021484375</LatitudeDegrees>
              <LongitudeDegrees>2.89780070073902606964111328125</LongitudeDegrees>
            </Position>
            <AltitudeMeters>381.399993896484375</AltitudeMeters>
            <DistanceMeters>NAN</DistanceMeters>
          </Trackpoint>
          <Trackpoint>
            <Time>2020-02-15T10:43:28.000Z</Time>
            <Position>
              <LatitudeDegrees>41.9703585840761661529541015625</LatitudeDegrees>
              <LongitudeDegrees>2.89776901714503765106201171875</LongitudeDegrees>
            </Position>
            <AltitudeMeters>381.399993896484375</AltitudeMeters>
            <DistanceMeters>NAN</DistanceMeters>
          </Trackpoint>
          <Trackpoint>
            <Time>2020-02-15T10:43:29.000Z</Time>
            <Position>
              <LatitudeDegrees>41.9703957997262477874755859375</LatitudeDegrees>
              <LongitudeDegrees>2.89773616008460521697998046875</LongitudeDegrees>
            </Position>
            <AltitudeMeters>381.20001220703125</AltitudeMeters>
            <DistanceMeters>NAN</DistanceMeters>
          </Trackpoint>
          <Trackpoint>
            <Time>2020-02-15T10:43:33.000Z</Time>
            <Position>
              <LatitudeDegrees>41.97055078111588954925537109375</LatitudeDegrees>
              <LongitudeDegrees>2.89759148843586444854736328125</LongitudeDegrees>
            </Position>
            <AltitudeMeters>381</AltitudeMeters>
            <DistanceMeters>NAN</DistanceMeters>
          </Trackpoint>
          <Trackpoint>
            <Time>2020-02-15T10:43:35.000Z</Time>
            <Position>
              <LatitudeDegrees>41.9706328399479389190673828125</LatitudeDegrees>
              <LongitudeDegrees>2.89751135744154453277587890625</LongitudeDegrees>
            </Position>
            <AltitudeMeters>381</AltitudeMeters>
            <DistanceMeters>NAN</DistanceMeters>
          </Trackpoint>
          <Trackpoint>
            <Time>2020-02-15T10:43:39.000Z</Time>
            <Position>
              <LatitudeDegrees>41.97080307640135288238525390625</LatitudeDegrees>
              <LongitudeDegrees>2.897325195372104644775390625</LongitudeDegrees>
            </Position>
            <AltitudeMeters>380.600006103515625</AltitudeMeters>
            <DistanceMeters>NAN</DistanceMeters>
          </Trackpoint>
          <Trackpoint>
            <Time>2020-02-15T10:43:41.000Z</Time>
            <Position>
              <LatitudeDegrees>41.97089192457497119903564453125</LatitudeDegrees>
              <LongitudeDegrees>2.8972341679036617279052734375</LongitudeDegrees>
            </Position>
            <AltitudeMeters>380.399993896484375</AltitudeMeters>
            <DistanceMeters>NAN</DistanceMeters>
          </Trackpoint>
          <Trackpoint>
            <Time>2020-02-15T10:43:42.000Z</Time>
            <Position>
              <LatitudeDegrees>41.97093383409082889556884765625</LatitudeDegrees>
              <LongitudeDegrees>2.89719485677778720855712890625</LongitudeDegrees>
            </Position>
            <AltitudeMeters>380.20001220703125</AltitudeMeters>
            <DistanceMeters>NAN</DistanceMeters>
          </Trackpoint>
          <Trackpoint>
            <Time>2020-02-15T10:43:43.000Z</Time>
            <Position>
              <LatitudeDegrees>41.970972977578639984130859375</LatitudeDegrees>
              <LongitudeDegrees>2.897153533995151519775390625</LongitudeDegrees>
            </Position>
            <AltitudeMeters>380</AltitudeMeters>
            <DistanceMeters>NAN</DistanceMeters>
          </Trackpoint>
          <Trackpoint>
            <Time>2020-02-15T10:43:44.000Z</Time>
            <Position>
              <LatitudeDegrees>41.97101287543773651123046875</LatitudeDegrees>
              <LongitudeDegrees>2.89711388759315013885498046875</LongitudeDegrees>
            </Position>
            <AltitudeMeters>379.79998779296875</AltitudeMeters>
            <DistanceMeters>NAN</DistanceMeters>
          </Trackpoint>
          <Trackpoint>
            <Time>2020-02-15T10:43:45.000Z</Time>
            <Position>
              <LatitudeDegrees>41.971049420535564422607421875</LatitudeDegrees>
              <LongitudeDegrees>2.89707717485725879669189453125</LongitudeDegrees>
            </Position>
            <AltitudeMeters>379.79998779296875</AltitudeMeters>
            <DistanceMeters>NAN</DistanceMeters>
          </Trackpoint>
          <Trackpoint>
            <Time>2020-02-15T10:43:46.000Z</Time>
            <Position>
              <LatitudeDegrees>41.9710821099579334259033203125</LatitudeDegrees>
              <LongitudeDegrees>2.897045910358428955078125</LongitudeDegrees>
            </Position>
            <AltitudeMeters>379.600006103515625</AltitudeMeters>
            <DistanceMeters>NAN</DistanceMeters>
          </Trackpoint>
          <Trackpoint>
            <Time>2020-02-15T10:43:47.000Z</Time>
            <Position>
              <LatitudeDegrees>41.97111253626644611358642578125</LatitudeDegrees>
              <LongitudeDegrees>2.8970192559063434600830078125</LongitudeDegrees>
            </Position>
            <AltitudeMeters>379.399993896484375</AltitudeMeters>
            <DistanceMeters>NAN</DistanceMeters>
          </Trackpoint>
          <Trackpoint>
            <Time>2020-02-15T10:43:48.000Z</Time>
            <Position>
              <LatitudeDegrees>41.97114371694624423980712890625</LatitudeDegrees>
              <LongitudeDegrees>2.89699234999716281890869140625</LongitudeDegrees>
            </Position>
            <AltitudeMeters>379.20001220703125</AltitudeMeters>
            <DistanceMeters>NAN</DistanceMeters>
          </Trackpoint>
          <Trackpoint>
            <Time>2020-02-15T10:43:49.000Z</Time>
            <Position>
              <LatitudeDegrees>41.9711759872734546661376953125</LatitudeDegrees>
              <LongitudeDegrees>2.89696435444056987762451171875</LongitudeDegrees>
            </Position>
            <AltitudeMeters>379</AltitudeMeters>
            <DistanceMeters>NAN</DistanceMeters>
          </Trackpoint>
          <Trackpoint>
            <Time>2020-02-15T10:43:51.000Z</Time>
            <Position>
              <LatitudeDegrees>41.9712360017001628875732421875</LatitudeDegrees>
              <LongitudeDegrees>2.89691112935543060302734375</LongitudeDegrees>
            </Position>
            <AltitudeMeters>378.79998779296875</AltitudeMeters>
            <DistanceMeters>NAN</DistanceMeters>
          </Trackpoint>
          <Trackpoint>
            <Time>2020-02-15T10:43:52.000Z</Time>
            <Position>
              <LatitudeDegrees>41.97126709856092929840087890625</LatitudeDegrees>
              <LongitudeDegrees>2.89688564836978912353515625</LongitudeDegrees>
            </Position>
            <AltitudeMeters>379</AltitudeMeters>
            <DistanceMeters>NAN</DistanceMeters>
          </Trackpoint>
          <Trackpoint>
            <Time>2020-02-15T10:43:53.000Z</Time>
            <Position>
              <LatitudeDegrees>41.97129844687879085540771484375</LatitudeDegrees>
              <LongitudeDegrees>2.89686125703155994415283203125</LongitudeDegrees>
            </Position>
            <AltitudeMeters>379</AltitudeMeters>
            <DistanceMeters>NAN</DistanceMeters>
          </Trackpoint>
          <Trackpoint>
            <Time>2020-02-15T10:43:54.000Z</Time>
            <Position>
              <LatitudeDegrees>41.97132996283471584320068359375</LatitudeDegrees>
              <LongitudeDegrees>2.89684080518782138824462890625</LongitudeDegrees>
            </Position>
            <AltitudeMeters>379</AltitudeMeters>
            <DistanceMeters>NAN</DistanceMeters>
          </Trackpoint>
          <Trackpoint>
            <Time>2020-02-15T10:43:55.000Z</Time>
            <Position>
              <LatitudeDegrees>41.9713603891432285308837890625</LatitudeDegrees>
              <LongitudeDegrees>2.8968211077153682708740234375</LongitudeDegrees>
            </Position>
            <AltitudeMeters>379</AltitudeMeters>
            <DistanceMeters>NAN</DistanceMeters>
          </Trackpoint>
          <Trackpoint>
            <Time>2020-02-15T10:43:56.000Z</Time>
            <Position>
              <LatitudeDegrees>41.971392072737216949462890625</LatitudeDegrees>
              <LongitudeDegrees>2.8968003205955028533935546875</LongitudeDegrees>
            </Position>
            <AltitudeMeters>378.79998779296875</AltitudeMeters>
            <DistanceMeters>NAN</DistanceMeters>
          </Trackpoint>
          <Trackpoint>
            <Time>2020-02-15T10:43:57.000Z</Time>
            <Position>
              <LatitudeDegrees>41.97142216376960277557373046875</LatitudeDegrees>
              <LongitudeDegrees>2.8967812098562717437744140625</LongitudeDegrees>
            </Position>
            <AltitudeMeters>379</AltitudeMeters>
            <DistanceMeters>NAN</DistanceMeters>
          </Trackpoint>
          <Trackpoint>
            <Time>2020-02-15T10:43:58.000Z</Time>
            <Position>
              <LatitudeDegrees>41.97145141661167144775390625</LatitudeDegrees>
              <LongitudeDegrees>2.89676302112638950347900390625</LongitudeDegrees>
            </Position>
            <AltitudeMeters>379</AltitudeMeters>
            <DistanceMeters>NAN</DistanceMeters>
          </Trackpoint>
          <Trackpoint>
            <Time>2020-02-15T10:43:59.000Z</Time>
            <Position>
              <LatitudeDegrees>41.971482597291469573974609375</LatitudeDegrees>
              <LongitudeDegrees>2.89674307219684123992919921875</LongitudeDegrees>
            </Position>
            <AltitudeMeters>379.20001220703125</AltitudeMeters>
            <DistanceMeters>NAN</DistanceMeters>
          </Trackpoint>
          <Trackpoint>
            <Time>2020-02-15T10:44:00.000Z</Time>
            <Position>
              <LatitudeDegrees>41.971514783799648284912109375</LatitudeDegrees>
              <LongitudeDegrees>2.8967225365340709686279296875</LongitudeDegrees>
            </Position>
            <AltitudeMeters>379.20001220703125</AltitudeMeters>
            <DistanceMeters>NAN</DistanceMeters>
          </Trackpoint>
          <Trackpoint>
            <Time>2020-02-15T10:44:01.000Z</Time>
            <Position>
              <LatitudeDegrees>41.9715468026697635650634765625</LatitudeDegrees>
              <LongitudeDegrees>2.896700911223888397216796875</LongitudeDegrees>
            </Position>
            <AltitudeMeters>379.600006103515625</AltitudeMeters>
            <DistanceMeters>NAN</DistanceMeters>
          </Trackpoint>
          <Trackpoint>
            <Time>2020-02-15T10:44:02.000Z</Time>
            <Position>
              <LatitudeDegrees>41.9715789891779422760009765625</LatitudeDegrees>
              <LongitudeDegrees>2.89667920209467411041259765625</LongitudeDegrees>
            </Position>
            <AltitudeMeters>379.79998779296875</AltitudeMeters>
            <DistanceMeters>NAN</DistanceMeters>
          </Trackpoint>
          <Trackpoint>
            <Time>2020-02-15T10:44:03.000Z</Time>
            <Position>
              <LatitudeDegrees>41.97161125950515270233154296875</LatitudeDegrees>
              <LongitudeDegrees>2.89665841497480869293212890625</LongitudeDegrees>
            </Position>
            <AltitudeMeters>380</AltitudeMeters>
            <DistanceMeters>NAN</DistanceMeters>
          </Trackpoint>
          <Trackpoint>
            <Time>2020-02-15T10:44:05.000Z</Time>
            <Position>
              <LatitudeDegrees>41.9716789014637470245361328125</LatitudeDegrees>
              <LongitudeDegrees>2.89661030285060405731201171875</LongitudeDegrees>
            </Position>
            <AltitudeMeters>380.399993896484375</AltitudeMeters>
            <DistanceMeters>NAN</DistanceMeters>
          </Trackpoint>
          <Trackpoint>
            <Time>2020-02-15T10:44:06.000Z</Time>
            <Position>
              <LatitudeDegrees>41.9717124290764331817626953125</LatitudeDegrees>
              <LongitudeDegrees>2.896581552922725677490234375</LongitudeDegrees>
            </Position>
            <AltitudeMeters>380.79998779296875</AltitudeMeters>
            <DistanceMeters>NAN</DistanceMeters>
          </Trackpoint>
          <Trackpoint>
            <Time>2020-02-15T10:44:09.000Z</Time>
            <Position>
              <LatitudeDegrees>41.971799768507480621337890625</LatitudeDegrees>
              <LongitudeDegrees>2.89647619239985942840576171875</LongitudeDegrees>
            </Position>
            <AltitudeMeters>381.20001220703125</AltitudeMeters>
            <DistanceMeters>NAN</DistanceMeters>
          </Trackpoint>
          <Trackpoint>
            <Time>2020-02-15T10:44:10.000Z</Time>
            <Position>
              <LatitudeDegrees>41.97182097472250461578369140625</LatitudeDegrees>
              <LongitudeDegrees>2.8964345343410968780517578125</LongitudeDegrees>
            </Position>
            <AltitudeMeters>381.20001220703125</AltitudeMeters>
            <DistanceMeters>NAN</DistanceMeters>
          </Trackpoint>
          <Trackpoint>
            <Time>2020-02-15T10:44:11.000Z</Time>
            <Position>
              <LatitudeDegrees>41.97184008546173572540283203125</LatitudeDegrees>
              <LongitudeDegrees>2.8963922895491123199462890625</LongitudeDegrees>
            </Position>
            <AltitudeMeters>381.20001220703125</AltitudeMeters>
            <DistanceMeters>NAN</DistanceMeters>
          </Trackpoint>
          <Trackpoint>
            <Time>2020-02-15T10:44:12.000Z</Time>
            <Position>
              <LatitudeDegrees>41.97185768745839595794677734375</LatitudeDegrees>
              <LongitudeDegrees>2.8963497094810009002685546875</LongitudeDegrees>
            </Position>
            <AltitudeMeters>381.399993896484375</AltitudeMeters>
            <DistanceMeters>NAN</DistanceMeters>
          </Trackpoint>
          <Trackpoint>
            <Time>2020-02-15T10:44:13.000Z</Time>
            <Position>
              <LatitudeDegrees>41.9718730263411998748779296875</LatitudeDegrees>
              <LongitudeDegrees>2.89630830287933349609375</LongitudeDegrees>
            </Position>
            <AltitudeMeters>381.399993896484375</AltitudeMeters>
            <DistanceMeters>NAN</DistanceMeters>
          </Trackpoint>
          <Trackpoint>
            <Time>2020-02-15T10:44:14.000Z</Time>
            <Position>
              <LatitudeDegrees>41.97188937105238437652587890625</LatitudeDegrees>
              <LongitudeDegrees>2.89627016521990299224853515625</LongitudeDegrees>
            </Position>
            <AltitudeMeters>381.399993896484375</AltitudeMeters>
            <DistanceMeters>NAN</DistanceMeters>
          </Trackpoint>
          <Trackpoint>
            <Time>2020-02-15T10:44:15.000Z</Time>
            <Position>
              <LatitudeDegrees>41.97190529666841030120849609375</LatitudeDegrees>
              <LongitudeDegrees>2.896232865750789642333984375</LongitudeDegrees>
            </Position>
            <AltitudeMeters>381.600006103515625</AltitudeMeters>
            <DistanceMeters>NAN</DistanceMeters>
          </Trackpoint>
          <Trackpoint>
            <Time>2020-02-15T10:44:16.000Z</Time>
            <Position>
              <LatitudeDegrees>41.97191812098026275634765625</LatitudeDegrees>
              <LongitudeDegrees>2.896195314824581146240234375</LongitudeDegrees>
            </Position>
            <AltitudeMeters>381.600006103515625</AltitudeMeters>
            <DistanceMeters>NAN</DistanceMeters>
          </Trackpoint>
          <Trackpoint>
            <Time>2020-02-15T10:44:17.000Z</Time>
            <Position>
              <LatitudeDegrees>41.97192910127341747283935546875</LatitudeDegrees>
              <LongitudeDegrees>2.89615466259419918060302734375</LongitudeDegrees>
            </Position>
            <AltitudeMeters>381.600006103515625</AltitudeMeters>
            <DistanceMeters>NAN</DistanceMeters>
          </Trackpoint>
          <Trackpoint>
            <Time>2020-02-15T10:44:18.000Z</Time>
            <Position>
              <LatitudeDegrees>41.9719430990517139434814453125</LatitudeDegrees>
              <LongitudeDegrees>2.89611308835446834564208984375</LongitudeDegrees>
            </Position>
            <AltitudeMeters>381.79998779296875</AltitudeMeters>
            <DistanceMeters>NAN</DistanceMeters>
          </Trackpoint>
          <Trackpoint>
            <Time>2020-02-15T10:44:19.000Z</Time>
            <Position>
              <LatitudeDegrees>41.97195642627775669097900390625</LatitudeDegrees>
              <LongitudeDegrees>2.89607386104762554168701171875</LongitudeDegrees>
            </Position>
            <AltitudeMeters>381.79998779296875</AltitudeMeters>
            <DistanceMeters>NAN</DistanceMeters>
          </Trackpoint>
          <Trackpoint>
            <Time>2020-02-15T10:44:20.000Z</Time>
            <Position>
              <LatitudeDegrees>41.9719697535037994384765625</LatitudeDegrees>
              <LongitudeDegrees>2.8960332088172435760498046875</LongitudeDegrees>
            </Position>
            <AltitudeMeters>381.79998779296875</AltitudeMeters>
            <DistanceMeters>NAN</DistanceMeters>
          </Trackpoint>
          <Trackpoint>
            <Time>2020-02-15T10:44:21.000Z</Time>
            <Position>
              <LatitudeDegrees>41.97198173962533473968505859375</LatitudeDegrees>
              <LongitudeDegrees>2.89599389769136905670166015625</LongitudeDegrees>
            </Position>
            <AltitudeMeters>382</AltitudeMeters>
            <DistanceMeters>NAN</DistanceMeters>
          </Trackpoint>
          <Trackpoint>
            <Time>2020-02-15T10:44:22.000Z</Time>
            <Position>
              <LatitudeDegrees>41.97199531830847263336181640625</LatitudeDegrees>
              <LongitudeDegrees>2.895954586565494537353515625</LongitudeDegrees>
            </Position>
            <AltitudeMeters>382</AltitudeMeters>
            <DistanceMeters>NAN</DistanceMeters>
          </Trackpoint>
          <Trackpoint>
            <Time>2020-02-15T10:44:23.000Z</Time>
            <Position>
              <LatitudeDegrees>41.972010992467403411865234375</LatitudeDegrees>
              <LongitudeDegrees>2.8959151916205883026123046875</LongitudeDegrees>
            </Position>
            <AltitudeMeters>382.20001220703125</AltitudeMeters>
            <DistanceMeters>NAN</DistanceMeters>
          </Trackpoint>
          <Trackpoint>
            <Time>2020-02-15T10:44:24.000Z</Time>
            <Position>
              <LatitudeDegrees>41.9720232300460338592529296875</LatitudeDegrees>
              <LongitudeDegrees>2.8958749584853649139404296875</LongitudeDegrees>
            </Position>
            <AltitudeMeters>382.399993896484375</AltitudeMeters>
            <DistanceMeters>NAN</DistanceMeters>
          </Trackpoint>
          <Trackpoint>
            <Time>2020-02-15T10:44:25.000Z</Time>
            <Position>
              <LatitudeDegrees>41.97203236632049083709716796875</LatitudeDegrees>
              <LongitudeDegrees>2.895835228264331817626953125</LongitudeDegrees>
            </Position>
            <AltitudeMeters>382.399993896484375</AltitudeMeters>
            <DistanceMeters>NAN</DistanceMeters>
          </Trackpoint>
          <Trackpoint>
            <Time>2020-02-15T10:44:26.000Z</Time>
            <Position>
              <LatitudeDegrees>41.97204259224236011505126953125</LatitudeDegrees>
              <LongitudeDegrees>2.89579675532877445220947265625</LongitudeDegrees>
            </Position>
            <AltitudeMeters>382.399993896484375</AltitudeMeters>
            <DistanceMeters>NAN</DistanceMeters>
          </Trackpoint>
          <Trackpoint>
            <Time>2020-02-15T10:44:27.000Z</Time>
            <Position>
              <LatitudeDegrees>41.9720542430877685546875</LatitudeDegrees>
              <LongitudeDegrees>2.8957576118409633636474609375</LongitudeDegrees>
            </Position>
            <AltitudeMeters>382.600006103515625</AltitudeMeters>
            <DistanceMeters>NAN</DistanceMeters>
          </Trackpoint>
          <Trackpoint>
            <Time>2020-02-15T10:44:28.000Z</Time>
            <Position>
              <LatitudeDegrees>41.97206488810479640960693359375</LatitudeDegrees>
              <LongitudeDegrees>2.89572064764797687530517578125</LongitudeDegrees>
            </Position>
            <AltitudeMeters>383</AltitudeMeters>
            <DistanceMeters>NAN</DistanceMeters>
          </Trackpoint>
          <Trackpoint>
            <Time>2020-02-15T10:44:29.000Z</Time>
            <Position>
              <LatitudeDegrees>41.97207578457891941070556640625</LatitudeDegrees>
              <LongitudeDegrees>2.8956811688840389251708984375</LongitudeDegrees>
            </Position>
            <AltitudeMeters>383.20001220703125</AltitudeMeters>
            <DistanceMeters>NAN</DistanceMeters>
          </Trackpoint>
          <Trackpoint>
            <Time>2020-02-15T10:44:30.000Z</Time>
            <Position>
              <LatitudeDegrees>41.9720850884914398193359375</LatitudeDegrees>
              <LongitudeDegrees>2.89563850499689579010009765625</LongitudeDegrees>
            </Position>
            <AltitudeMeters>383.600006103515625</AltitudeMeters>
            <DistanceMeters>NAN</DistanceMeters>
          </Trackpoint>
          <Trackpoint>
            <Time>2020-02-15T10:44:31.000Z</Time>
            <Position>
              <LatitudeDegrees>41.97209606878459453582763671875</LatitudeDegrees>
              <LongitudeDegrees>2.89559525437653064727783203125</LongitudeDegrees>
            </Position>
            <AltitudeMeters>383.79998779296875</AltitudeMeters>
            <DistanceMeters>NAN</DistanceMeters>
          </Trackpoint>
          <Trackpoint>
            <Time>2020-02-15T10:44:32.000Z</Time>
            <Position>
              <LatitudeDegrees>41.97210780344903469085693359375</LatitudeDegrees>
              <LongitudeDegrees>2.89555736817419528961181640625</LongitudeDegrees>
            </Position>
            <AltitudeMeters>384.20001220703125</AltitudeMeters>
            <DistanceMeters>NAN</DistanceMeters>
          </Trackpoint>
          <Trackpoint>
            <Time>2020-02-15T10:44:33.000Z</Time>
            <Position>
              <LatitudeDegrees>41.97211886756122112274169921875</LatitudeDegrees>
              <LongitudeDegrees>2.89552283473312854766845703125</LongitudeDegrees>
            </Position>
            <AltitudeMeters>384.20001220703125</AltitudeMeters>
            <DistanceMeters>NAN</DistanceMeters>
          </Trackpoint>
          <Trackpoint>
            <Time>2020-02-15T10:44:34.000Z</Time>
            <Position>
              <LatitudeDegrees>41.97213026694953441619873046875</LatitudeDegrees>
              <LongitudeDegrees>2.89548612199723720550537109375</LongitudeDegrees>
            </Position>
            <AltitudeMeters>384.399993896484375</AltitudeMeters>
            <DistanceMeters>NAN</DistanceMeters>
          </Trackpoint>
          <Trackpoint>
            <Time>2020-02-15T10:44:35.000Z</Time>
            <Position>
              <LatitudeDegrees>41.97214133106172084808349609375</LatitudeDegrees>
              <LongitudeDegrees>2.89544940926134586334228515625</LongitudeDegrees>
            </Position>
            <AltitudeMeters>384.399993896484375</AltitudeMeters>
            <DistanceMeters>NAN</DistanceMeters>
          </Trackpoint>
          <Trackpoint>
            <Time>2020-02-15T10:44:36.000Z</Time>
            <Position>
              <LatitudeDegrees>41.97215407155454158782958984375</LatitudeDegrees>
              <LongitudeDegrees>2.8954163007438182830810546875</LongitudeDegrees>
            </Position>
            <AltitudeMeters>385</AltitudeMeters>
            <DistanceMeters>NAN</DistanceMeters>
          </Trackpoint>
          <Trackpoint>
            <Time>2020-02-15T10:44:37.000Z</Time>
            <Position>
              <LatitudeDegrees>41.97216915898025035858154296875</LatitudeDegrees>
              <LongitudeDegrees>2.8953841142356395721435546875</LongitudeDegrees>
            </Position>
            <AltitudeMeters>385</AltitudeMeters>
            <DistanceMeters>NAN</DistanceMeters>
          </Trackpoint>
          <Trackpoint>
            <Time>2020-02-15T10:44:38.000Z</Time>
            <Position>
              <LatitudeDegrees>41.97218609042465686798095703125</LatitudeDegrees>
              <LongitudeDegrees>2.89535352028906345367431640625</LongitudeDegrees>
            </Position>
            <AltitudeMeters>385.399993896484375</AltitudeMeters>
            <DistanceMeters>NAN</DistanceMeters>
          </Trackpoint>
          <Trackpoint>
            <Time>2020-02-15T10:44:39.000Z</Time>
            <Position>
              <LatitudeDegrees>41.97220536880195140838623046875</LatitudeDegrees>
              <LongitudeDegrees>2.89532066322863101959228515625</LongitudeDegrees>
            </Position>
            <AltitudeMeters>385.79998779296875</AltitudeMeters>
            <DistanceMeters>NAN</DistanceMeters>
          </Trackpoint>
          <Trackpoint>
            <Time>2020-02-15T10:44:40.000Z</Time>
            <Position>
              <LatitudeDegrees>41.9722259044647216796875</LatitudeDegrees>
              <LongitudeDegrees>2.8952850401401519775390625</LongitudeDegrees>
            </Position>
            <AltitudeMeters>386</AltitudeMeters>
            <DistanceMeters>NAN</DistanceMeters>
          </Trackpoint>
          <Trackpoint>
            <Time>2020-02-15T10:44:41.000Z</Time>
            <Position>
              <LatitudeDegrees>41.972245685756206512451171875</LatitudeDegrees>
              <LongitudeDegrees>2.89525612257421016693115234375</LongitudeDegrees>
            </Position>
            <AltitudeMeters>386.20001220703125</AltitudeMeters>
            <DistanceMeters>NAN</DistanceMeters>
          </Trackpoint>
          <Trackpoint>
            <Time>2020-02-15T10:44:42.000Z</Time>
            <Position>
              <LatitudeDegrees>41.97226320393383502960205078125</LatitudeDegrees>
              <LongitudeDegrees>2.89523064158856868743896484375</LongitudeDegrees>
            </Position>
            <AltitudeMeters>386.600006103515625</AltitudeMeters>
            <DistanceMeters>NAN</DistanceMeters>
          </Trackpoint>
          <Trackpoint>
            <Time>2020-02-15T10:44:43.000Z</Time>
            <Position>
              <LatitudeDegrees>41.9722803868353366851806640625</LatitudeDegrees>
              <LongitudeDegrees>2.89520499296486377716064453125</LongitudeDegrees>
            </Position>
            <AltitudeMeters>386.79998779296875</AltitudeMeters>
            <DistanceMeters>NAN</DistanceMeters>
          </Trackpoint>
          <Trackpoint>
            <Time>2020-02-15T10:44:44.000Z</Time>
            <Position>
              <LatitudeDegrees>41.97229874320328235626220703125</LatitudeDegrees>
              <LongitudeDegrees>2.89518035016953945159912109375</LongitudeDegrees>
            </Position>
            <AltitudeMeters>387</AltitudeMeters>
            <DistanceMeters>NAN</DistanceMeters>
          </Trackpoint>
          <Trackpoint>
            <Time>2020-02-15T10:44:45.000Z</Time>
            <Position>
              <LatitudeDegrees>41.9723216257989406585693359375</LatitudeDegrees>
              <LongitudeDegrees>2.8951564617455005645751953125</LongitudeDegrees>
            </Position>
            <AltitudeMeters>387.20001220703125</AltitudeMeters>
            <DistanceMeters>NAN</DistanceMeters>
          </Trackpoint>
          <Trackpoint>
            <Time>2020-02-15T10:44:46.000Z</Time>
            <Position>
              <LatitudeDegrees>41.97234400548040866851806640625</LatitudeDegrees>
              <LongitudeDegrees>2.895135842263698577880859375</LongitudeDegrees>
            </Position>
            <AltitudeMeters>387.20001220703125</AltitudeMeters>
            <DistanceMeters>NAN</DistanceMeters>
          </Trackpoint>
          <Trackpoint>
            <Time>2020-02-15T10:44:47.000Z</Time>
            <Position>
              <LatitudeDegrees>41.9723667204380035400390625</LatitudeDegrees>
              <LongitudeDegrees>2.8951135464012622833251953125</LongitudeDegrees>
            </Position>
            <AltitudeMeters>387.399993896484375</AltitudeMeters>
            <DistanceMeters>NAN</DistanceMeters>
          </Trackpoint>
          <Trackpoint>
            <Time>2020-02-15T10:44:48.000Z</Time>
            <Position>
              <LatitudeDegrees>41.972390525043010711669921875</LatitudeDegrees>
              <LongitudeDegrees>2.89509150199592113494873046875</LongitudeDegrees>
            </Position>
            <AltitudeMeters>387.399993896484375</AltitudeMeters>
            <DistanceMeters>NAN</DistanceMeters>
          </Trackpoint>
          <Trackpoint>
            <Time>2020-02-15T10:44:49.000Z</Time>
            <Position>
              <LatitudeDegrees>41.972416006028652191162109375</LatitudeDegrees>
              <LongitudeDegrees>2.89507339708507061004638671875</LongitudeDegrees>
            </Position>
            <AltitudeMeters>387.600006103515625</AltitudeMeters>
            <DistanceMeters>NAN</DistanceMeters>
          </Trackpoint>
          <Trackpoint>
            <Time>2020-02-15T10:44:50.000Z</Time>
            <Position>
              <LatitudeDegrees>41.97244240902364253997802734375</LatitudeDegrees>
              <LongitudeDegrees>2.89506048895418643951416015625</LongitudeDegrees>
            </Position>
            <AltitudeMeters>388</AltitudeMeters>
            <DistanceMeters>NAN</DistanceMeters>
          </Trackpoint>
          <Trackpoint>
            <Time>2020-02-15T10:44:51.000Z</Time>
            <Position>
              <LatitudeDegrees>41.97246990166604518890380859375</LatitudeDegrees>
              <LongitudeDegrees>2.8950490057468414306640625</LongitudeDegrees>
            </Position>
            <AltitudeMeters>388.20001220703125</AltitudeMeters>
            <DistanceMeters>NAN</DistanceMeters>
          </Trackpoint>
          <Trackpoint>
            <Time>2020-02-15T10:44:52.000Z</Time>
            <Position>
              <LatitudeDegrees>41.97249806486070156097412109375</LatitudeDegrees>
              <LongitudeDegrees>2.8950371034443378448486328125</LongitudeDegrees>
            </Position>
            <AltitudeMeters>388.399993896484375</AltitudeMeters>
            <DistanceMeters>NAN</DistanceMeters>
          </Trackpoint>
          <Trackpoint>
            <Time>2020-02-15T10:44:53.000Z</Time>
            <Position>
              <LatitudeDegrees>41.97252522222697734832763671875</LatitudeDegrees>
              <LongitudeDegrees>2.89502897299826145172119140625</LongitudeDegrees>
            </Position>
            <AltitudeMeters>388.600006103515625</AltitudeMeters>
            <DistanceMeters>NAN</DistanceMeters>
          </Trackpoint>
          <Trackpoint>
            <Time>2020-02-15T10:44:54.000Z</Time>
            <Position>
              <LatitudeDegrees>41.97255170904099941253662109375</LatitudeDegrees>
              <LongitudeDegrees>2.8950233571231365203857421875</LongitudeDegrees>
            </Position>
            <AltitudeMeters>388.79998779296875</AltitudeMeters>
            <DistanceMeters>NAN</DistanceMeters>
          </Trackpoint>
          <Trackpoint>
            <Time>2020-02-15T10:44:55.000Z</Time>
            <Position>
              <LatitudeDegrees>41.9725771062076091766357421875</LatitudeDegrees>
              <LongitudeDegrees>2.8950196690857410430908203125</LongitudeDegrees>
            </Position>
            <AltitudeMeters>389</AltitudeMeters>
            <DistanceMeters>NAN</DistanceMeters>
          </Trackpoint>
          <Trackpoint>
            <Time>2020-02-15T10:44:56.000Z</Time>
            <Position>
              <LatitudeDegrees>41.97260250337421894073486328125</LatitudeDegrees>
              <LongitudeDegrees>2.89501522667706012725830078125</LongitudeDegrees>
            </Position>
            <AltitudeMeters>389</AltitudeMeters>
            <DistanceMeters>NAN</DistanceMeters>
          </Trackpoint>
          <Trackpoint>
            <Time>2020-02-15T10:44:57.000Z</Time>
            <Position>
              <LatitudeDegrees>41.97262815199792385101318359375</LatitudeDegrees>
              <LongitudeDegrees>2.89501078426837921142578125</LongitudeDegrees>
            </Position>
            <AltitudeMeters>389</AltitudeMeters>
            <DistanceMeters>NAN</DistanceMeters>
          </Trackpoint>
          <Trackpoint>
            <Time>2020-02-15T10:44:58.000Z</Time>
            <Position>
              <LatitudeDegrees>41.97265245951712131500244140625</LatitudeDegrees>
              <LongitudeDegrees>2.895007096230983734130859375</LongitudeDegrees>
            </Position>
            <AltitudeMeters>389.399993896484375</AltitudeMeters>
            <DistanceMeters>NAN</DistanceMeters>
          </Trackpoint>
          <Trackpoint>
            <Time>2020-02-15T10:44:59.000Z</Time>
            <Position>
              <LatitudeDegrees>41.97267852723598480224609375</LatitudeDegrees>
              <LongitudeDegrees>2.8950055874884128570556640625</LongitudeDegrees>
            </Position>
            <AltitudeMeters>389.79998779296875</AltitudeMeters>
            <DistanceMeters>NAN</DistanceMeters>
          </Trackpoint>
          <Trackpoint>
            <Time>2020-02-15T10:45:00.000Z</Time>
            <Position>
              <LatitudeDegrees>41.97270677424967288970947265625</LatitudeDegrees>
              <LongitudeDegrees>2.895004749298095703125</LongitudeDegrees>
            </Position>
            <AltitudeMeters>389.79998779296875</AltitudeMeters>
            <DistanceMeters>NAN</DistanceMeters>
          </Trackpoint>
          <Trackpoint>
            <Time>2020-02-15T10:45:01.000Z</Time>
            <Position>
              <LatitudeDegrees>41.97273644618690013885498046875</LatitudeDegrees>
              <LongitudeDegrees>2.89500013925135135650634765625</LongitudeDegrees>
            </Position>
            <AltitudeMeters>390</AltitudeMeters>
            <DistanceMeters>NAN</DistanceMeters>
          </Trackpoint>
          <Trackpoint>
            <Time>2020-02-15T10:45:02.000Z</Time>
            <Position>
              <LatitudeDegrees>41.97276569902896881103515625</LatitudeDegrees>
              <LongitudeDegrees>2.894995696842670440673828125</LongitudeDegrees>
            </Position>
            <AltitudeMeters>390.20001220703125</AltitudeMeters>
            <DistanceMeters>NAN</DistanceMeters>
          </Trackpoint>
          <Trackpoint>
            <Time>2020-02-15T10:45:03.000Z</Time>
            <Position>
              <LatitudeDegrees>41.97279612533748149871826171875</LatitudeDegrees>
              <LongitudeDegrees>2.89499058388173580169677734375</LongitudeDegrees>
            </Position>
            <AltitudeMeters>390.20001220703125</AltitudeMeters>
            <DistanceMeters>NAN</DistanceMeters>
          </Trackpoint>
          <Trackpoint>
            <Time>2020-02-15T10:45:04.000Z</Time>
            <Position>
              <LatitudeDegrees>41.9728282280266284942626953125</LatitudeDegrees>
              <LongitudeDegrees>2.8949884884059429168701171875</LongitudeDegrees>
            </Position>
            <AltitudeMeters>390.600006103515625</AltitudeMeters>
            <DistanceMeters>NAN</DistanceMeters>
          </Trackpoint>
          <Trackpoint>
            <Time>2020-02-15T10:45:05.000Z</Time>
            <Position>
              <LatitudeDegrees>41.97285966016352176666259765625</LatitudeDegrees>
              <LongitudeDegrees>2.8949908353388309478759765625</LongitudeDegrees>
            </Position>
            <AltitudeMeters>390.79998779296875</AltitudeMeters>
            <DistanceMeters>NAN</DistanceMeters>
          </Trackpoint>
          <Trackpoint>
            <Time>2020-02-15T10:45:06.000Z</Time>
            <Position>
              <LatitudeDegrees>41.972894780337810516357421875</LatitudeDegrees>
              <LongitudeDegrees>2.894991338253021240234375</LongitudeDegrees>
            </Position>
            <AltitudeMeters>390.79998779296875</AltitudeMeters>
            <DistanceMeters>NAN</DistanceMeters>
          </Trackpoint>
          <Trackpoint>
            <Time>2020-02-15T10:45:07.000Z</Time>
            <Position>
              <LatitudeDegrees>41.97292839176952838897705078125</LatitudeDegrees>
              <LongitudeDegrees>2.894995026290416717529296875</LongitudeDegrees>
            </Position>
            <AltitudeMeters>391</AltitudeMeters>
            <DistanceMeters>NAN</DistanceMeters>
          </Trackpoint>
          <Trackpoint>
            <Time>2020-02-15T10:45:08.000Z</Time>
            <Position>
              <LatitudeDegrees>41.9729539565742015838623046875</LatitudeDegrees>
              <LongitudeDegrees>2.8949995525181293487548828125</LongitudeDegrees>
            </Position>
            <AltitudeMeters>391.20001220703125</AltitudeMeters>
            <DistanceMeters>NAN</DistanceMeters>
          </Trackpoint>
          <Trackpoint>
            <Time>2020-02-15T10:45:09.000Z</Time>
            <Position>
              <LatitudeDegrees>41.9729811139404773712158203125</LatitudeDegrees>
              <LongitudeDegrees>2.895012795925140380859375</LongitudeDegrees>
            </Position>
            <AltitudeMeters>391.399993896484375</AltitudeMeters>
            <DistanceMeters>NAN</DistanceMeters>
          </Trackpoint>
          <Trackpoint>
            <Time>2020-02-15T10:45:10.000Z</Time>
            <Position>
              <LatitudeDegrees>41.97300885803997516632080078125</LatitudeDegrees>
              <LongitudeDegrees>2.89503517560660839080810546875</LongitudeDegrees>
            </Position>
            <AltitudeMeters>391.600006103515625</AltitudeMeters>
            <DistanceMeters>NAN</DistanceMeters>
          </Trackpoint>
          <Trackpoint>
            <Time>2020-02-15T10:45:11.000Z</Time>
            <Position>
              <LatitudeDegrees>41.97303081862628459930419921875</LatitudeDegrees>
              <LongitudeDegrees>2.8950619138777256011962890625</LongitudeDegrees>
            </Position>
            <AltitudeMeters>391.600006103515625</AltitudeMeters>
            <DistanceMeters>NAN</DistanceMeters>
          </Trackpoint>
          <Trackpoint>
            <Time>2020-02-15T10:45:12.000Z</Time>
            <Position>
              <LatitudeDegrees>41.973049677908420562744140625</LatitudeDegrees>
              <LongitudeDegrees>2.89509284310042858123779296875</LongitudeDegrees>
            </Position>
            <AltitudeMeters>391.600006103515625</AltitudeMeters>
            <DistanceMeters>NAN</DistanceMeters>
          </Trackpoint>
          <Trackpoint>
            <Time>2020-02-15T10:45:13.000Z</Time>
            <Position>
              <LatitudeDegrees>41.9730649329721927642822265625</LatitudeDegrees>
              <LongitudeDegrees>2.89512343704700469970703125</LongitudeDegrees>
            </Position>
            <AltitudeMeters>391.600006103515625</AltitudeMeters>
            <DistanceMeters>NAN</DistanceMeters>
          </Trackpoint>
          <Trackpoint>
            <Time>2020-02-15T10:45:14.000Z</Time>
            <Position>
              <LatitudeDegrees>41.97307817637920379638671875</LatitudeDegrees>
              <LongitudeDegrees>2.89515520446002483367919921875</LongitudeDegrees>
            </Position>
            <AltitudeMeters>391.600006103515625</AltitudeMeters>
            <DistanceMeters>NAN</DistanceMeters>
          </Trackpoint>
          <Trackpoint>
            <Time>2020-02-15T10:45:15.000Z</Time>
            <Position>
              <LatitudeDegrees>41.9730870611965656280517578125</LatitudeDegrees>
              <LongitudeDegrees>2.89519091136753559112548828125</LongitudeDegrees>
            </Position>
            <AltitudeMeters>391.79998779296875</AltitudeMeters>
            <DistanceMeters>NAN</DistanceMeters>
          </Trackpoint>
          <Trackpoint>
            <Time>2020-02-15T10:45:16.000Z</Time>
            <Position>
              <LatitudeDegrees>41.97309284470975399017333984375</LatitudeDegrees>
              <LongitudeDegrees>2.895231060683727264404296875</LongitudeDegrees>
            </Position>
            <AltitudeMeters>392</AltitudeMeters>
            <DistanceMeters>NAN</DistanceMeters>
          </Trackpoint>
          <Trackpoint>
            <Time>2020-02-15T10:45:17.000Z</Time>
            <Position>
              <LatitudeDegrees>41.97309435345232486724853515625</LatitudeDegrees>
              <LongitudeDegrees>2.89527556858956813812255859375</LongitudeDegrees>
            </Position>
            <AltitudeMeters>392</AltitudeMeters>
            <DistanceMeters>NAN</DistanceMeters>
          </Trackpoint>
          <Trackpoint>
            <Time>2020-02-15T10:45:18.000Z</Time>
            <Position>
              <LatitudeDegrees>41.9730957783758640289306640625</LatitudeDegrees>
              <LongitudeDegrees>2.8953234292566776275634765625</LongitudeDegrees>
            </Position>
            <AltitudeMeters>392</AltitudeMeters>
            <DistanceMeters>NAN</DistanceMeters>
          </Trackpoint>
          <Trackpoint>
            <Time>2020-02-15T10:45:20.000Z</Time>
            <Position>
              <LatitudeDegrees>41.9731071777641773223876953125</LatitudeDegrees>
              <LongitudeDegrees>2.8954223357141017913818359375</LongitudeDegrees>
            </Position>
            <AltitudeMeters>392</AltitudeMeters>
            <DistanceMeters>NAN</DistanceMeters>
          </Trackpoint>
          <Trackpoint>
            <Time>2020-02-15T10:45:22.000Z</Time>
            <Position>
              <LatitudeDegrees>41.97311882860958576202392578125</LatitudeDegrees>
              <LongitudeDegrees>2.89552442729473114013671875</LongitudeDegrees>
            </Position>
            <AltitudeMeters>392.20001220703125</AltitudeMeters>
            <DistanceMeters>NAN</DistanceMeters>
          </Trackpoint>
          <Trackpoint>
            <Time>2020-02-15T10:45:23.000Z</Time>
            <Position>
              <LatitudeDegrees>41.97312536649405956268310546875</LatitudeDegrees>
              <LongitudeDegrees>2.89557346142828464508056640625</LongitudeDegrees>
            </Position>
            <AltitudeMeters>392.20001220703125</AltitudeMeters>
            <DistanceMeters>NAN</DistanceMeters>
          </Trackpoint>
          <Trackpoint>
            <Time>2020-02-15T10:45:24.000Z</Time>
            <Position>
              <LatitudeDegrees>41.97313341312110424041748046875</LatitudeDegrees>
              <LongitudeDegrees>2.89562107063829898834228515625</LongitudeDegrees>
            </Position>
            <AltitudeMeters>392.399993896484375</AltitudeMeters>
            <DistanceMeters>NAN</DistanceMeters>
          </Trackpoint>
          <Trackpoint>
            <Time>2020-02-15T10:45:25.000Z</Time>
            <Position>
              <LatitudeDegrees>41.97313986718654632568359375</LatitudeDegrees>
              <LongitudeDegrees>2.895665578544139862060546875</LongitudeDegrees>
            </Position>
            <AltitudeMeters>392.399993896484375</AltitudeMeters>
            <DistanceMeters>NAN</DistanceMeters>
          </Trackpoint>
          <Trackpoint>
            <Time>2020-02-15T10:45:26.000Z</Time>
            <Position>
              <LatitudeDegrees>41.9731537811458110809326171875</LatitudeDegrees>
              <LongitudeDegrees>2.8957103379070758819580078125</LongitudeDegrees>
            </Position>
            <AltitudeMeters>392.600006103515625</AltitudeMeters>
            <DistanceMeters>NAN</DistanceMeters>
          </Trackpoint>
          <Trackpoint>
            <Time>2020-02-15T10:45:27.000Z</Time>
            <Position>
              <LatitudeDegrees>41.97316979058086872100830078125</LatitudeDegrees>
              <LongitudeDegrees>2.89575316943228244781494140625</LongitudeDegrees>
            </Position>
            <AltitudeMeters>392.600006103515625</AltitudeMeters>
            <DistanceMeters>NAN</DistanceMeters>
          </Trackpoint>
          <Trackpoint>
            <Time>2020-02-15T10:45:28.000Z</Time>
            <Position>
              <LatitudeDegrees>41.9731879793107509613037109375</LatitudeDegrees>
              <LongitudeDegrees>2.895790971815586090087890625</LongitudeDegrees>
            </Position>
            <AltitudeMeters>392.600006103515625</AltitudeMeters>
            <DistanceMeters>NAN</DistanceMeters>
          </Trackpoint>
          <Trackpoint>
            <Time>2020-02-15T10:45:29.000Z</Time>
            <Position>
              <LatitudeDegrees>41.97320834733545780181884765625</LatitudeDegrees>
              <LongitudeDegrees>2.89582257159054279327392578125</LongitudeDegrees>
            </Position>
            <AltitudeMeters>392.600006103515625</AltitudeMeters>
            <DistanceMeters>NAN</DistanceMeters>
          </Trackpoint>
          <Trackpoint>
            <Time>2020-02-15T10:45:30.000Z</Time>
            <Position>
              <LatitudeDegrees>41.9732325710356235504150390625</LatitudeDegrees>
              <LongitudeDegrees>2.89584721438586711883544921875</LongitudeDegrees>
            </Position>
            <AltitudeMeters>392.79998779296875</AltitudeMeters>
            <DistanceMeters>NAN</DistanceMeters>
          </Trackpoint>
          <Trackpoint>
            <Time>2020-02-15T10:45:31.000Z</Time>
            <Position>
              <LatitudeDegrees>41.97326484136283397674560546875</LatitudeDegrees>
              <LongitudeDegrees>2.89586297236382961273193359375</LongitudeDegrees>
            </Position>
            <AltitudeMeters>392.600006103515625</AltitudeMeters>
            <DistanceMeters>NAN</DistanceMeters>
          </Trackpoint>
          <Trackpoint>
            <Time>2020-02-15T10:45:32.000Z</Time>
            <Position>
              <LatitudeDegrees>41.97330004535615444183349609375</LatitudeDegrees>
              <LongitudeDegrees>2.89587018080055713653564453125</LongitudeDegrees>
            </Position>
            <AltitudeMeters>393</AltitudeMeters>
            <DistanceMeters>NAN</DistanceMeters>
          </Trackpoint>
          <Trackpoint>
            <Time>2020-02-15T10:45:33.000Z</Time>
            <Position>
              <LatitudeDegrees>41.9733381830155849456787109375</LatitudeDegrees>
              <LongitudeDegrees>2.89587051607668399810791015625</LongitudeDegrees>
            </Position>
            <AltitudeMeters>393</AltitudeMeters>
            <DistanceMeters>NAN</DistanceMeters>
          </Trackpoint>
          <Trackpoint>
            <Time>2020-02-15T10:45:34.000Z</Time>
            <Position>
              <LatitudeDegrees>41.97337632067501544952392578125</LatitudeDegrees>
              <LongitudeDegrees>2.8958655707538127899169921875</LongitudeDegrees>
            </Position>
            <AltitudeMeters>393.20001220703125</AltitudeMeters>
            <DistanceMeters>NAN</DistanceMeters>
          </Trackpoint>
          <Trackpoint>
            <Time>2020-02-15T10:45:35.000Z</Time>
            <Position>
              <LatitudeDegrees>41.97341957129538059234619140625</LatitudeDegrees>
              <LongitudeDegrees>2.895854674279689788818359375</LongitudeDegrees>
            </Position>
            <AltitudeMeters>393.399993896484375</AltitudeMeters>
            <DistanceMeters>NAN</DistanceMeters>
          </Trackpoint>
          <Trackpoint>
            <Time>2020-02-15T10:45:36.000Z</Time>
            <Position>
              <LatitudeDegrees>41.97345905005931854248046875</LatitudeDegrees>
              <LongitudeDegrees>2.89583832956850528717041015625</LongitudeDegrees>
            </Position>
            <AltitudeMeters>393.600006103515625</AltitudeMeters>
            <DistanceMeters>NAN</DistanceMeters>
          </Trackpoint>
          <Trackpoint>
            <Time>2020-02-15T10:45:37.000Z</Time>
            <Position>
              <LatitudeDegrees>41.97349928319454193115234375</LatitudeDegrees>
              <LongitudeDegrees>2.89582240395247936248779296875</LongitudeDegrees>
            </Position>
            <AltitudeMeters>393.399993896484375</AltitudeMeters>
            <DistanceMeters>NAN</DistanceMeters>
          </Trackpoint>
          <Trackpoint>
            <Time>2020-02-15T10:45:38.000Z</Time>
            <Position>
              <LatitudeDegrees>41.97353943251073360443115234375</LatitudeDegrees>
              <LongitudeDegrees>2.89580396376550197601318359375</LongitudeDegrees>
            </Position>
            <AltitudeMeters>393.79998779296875</AltitudeMeters>
            <DistanceMeters>NAN</DistanceMeters>
          </Trackpoint>
          <Trackpoint>
            <Time>2020-02-15T10:45:39.000Z</Time>
            <Position>
              <LatitudeDegrees>41.9735735468566417694091796875</LatitudeDegrees>
              <LongitudeDegrees>2.895782254636287689208984375</LongitudeDegrees>
            </Position>
            <AltitudeMeters>393.79998779296875</AltitudeMeters>
            <DistanceMeters>NAN</DistanceMeters>
          </Trackpoint>
          <Trackpoint>
            <Time>2020-02-15T10:45:40.000Z</Time>
            <Position>
              <LatitudeDegrees>41.9736087508499622344970703125</LatitudeDegrees>
              <LongitudeDegrees>2.89575736038386821746826171875</LongitudeDegrees>
            </Position>
            <AltitudeMeters>393.79998779296875</AltitudeMeters>
            <DistanceMeters>NAN</DistanceMeters>
          </Trackpoint>
          <Trackpoint>
            <Time>2020-02-15T10:45:41.000Z</Time>
            <Position>
              <LatitudeDegrees>41.9736406020820140838623046875</LatitudeDegrees>
              <LongitudeDegrees>2.89573221467435359954833984375</LongitudeDegrees>
            </Position>
            <AltitudeMeters>393.79998779296875</AltitudeMeters>
            <DistanceMeters>NAN</DistanceMeters>
          </Trackpoint>
          <Trackpoint>
            <Time>2020-02-15T10:45:42.000Z</Time>
            <Position>
              <LatitudeDegrees>41.97367136366665363311767578125</LatitudeDegrees>
              <LongitudeDegrees>2.89570681750774383544921875</LongitudeDegrees>
            </Position>
            <AltitudeMeters>393.79998779296875</AltitudeMeters>
            <DistanceMeters>NAN</DistanceMeters>
          </Trackpoint>
          <Trackpoint>
            <Time>2020-02-15T10:45:43.000Z</Time>
            <Position>
              <LatitudeDegrees>41.97370254434645175933837890625</LatitudeDegrees>
              <LongitudeDegrees>2.89568175561726093292236328125</LongitudeDegrees>
            </Position>
            <AltitudeMeters>393.79998779296875</AltitudeMeters>
            <DistanceMeters>NAN</DistanceMeters>
          </Trackpoint>
          <Trackpoint>
            <Time>2020-02-15T10:45:44.000Z</Time>
            <Position>
              <LatitudeDegrees>41.9737351499497890472412109375</LatitudeDegrees>
              <LongitudeDegrees>2.89565862156450748443603515625</LongitudeDegrees>
            </Position>
            <AltitudeMeters>394.20001220703125</AltitudeMeters>
            <DistanceMeters>NAN</DistanceMeters>
          </Trackpoint>
          <Trackpoint>
            <Time>2020-02-15T10:45:45.000Z</Time>
            <Position>
              <LatitudeDegrees>41.97376507334411144256591796875</LatitudeDegrees>
              <LongitudeDegrees>2.89563649334013462066650390625</LongitudeDegrees>
            </Position>
            <AltitudeMeters>394</AltitudeMeters>
            <DistanceMeters>NAN</DistanceMeters>
          </Trackpoint>
          <Trackpoint>
            <Time>2020-02-15T10:45:46.000Z</Time>
            <Position>
              <LatitudeDegrees>41.97379256598651409149169921875</LatitudeDegrees>
              <LongitudeDegrees>2.89561050944030284881591796875</LongitudeDegrees>
            </Position>
            <AltitudeMeters>394.20001220703125</AltitudeMeters>
            <DistanceMeters>NAN</DistanceMeters>
          </Trackpoint>
          <Trackpoint>
            <Time>2020-02-15T10:45:47.000Z</Time>
            <Position>
              <LatitudeDegrees>41.97382240556180477142333984375</LatitudeDegrees>
              <LongitudeDegrees>2.89558268152177333831787109375</LongitudeDegrees>
            </Position>
            <AltitudeMeters>394.20001220703125</AltitudeMeters>
            <DistanceMeters>NAN</DistanceMeters>
          </Trackpoint>
          <Trackpoint>
            <Time>2020-02-15T10:45:49.000Z</Time>
            <Position>
              <LatitudeDegrees>41.97388024069368839263916015625</LatitudeDegrees>
              <LongitudeDegrees>2.895532138645648956298828125</LongitudeDegrees>
            </Position>
            <AltitudeMeters>394.20001220703125</AltitudeMeters>
            <DistanceMeters>NAN</DistanceMeters>
          </Trackpoint>
          <Trackpoint>
            <Time>2020-02-15T10:45:50.000Z</Time>
            <Position>
              <LatitudeDegrees>41.97390873916447162628173828125</LatitudeDegrees>
              <LongitudeDegrees>2.89550657384097576141357421875</LongitudeDegrees>
            </Position>
            <AltitudeMeters>394.20001220703125</AltitudeMeters>
            <DistanceMeters>NAN</DistanceMeters>
          </Trackpoint>
          <Trackpoint>
            <Time>2020-02-15T10:45:51.000Z</Time>
            <Position>
              <LatitudeDegrees>41.97393405251204967498779296875</LatitudeDegrees>
              <LongitudeDegrees>2.895482517778873443603515625</LongitudeDegrees>
            </Position>
            <AltitudeMeters>394.399993896484375</AltitudeMeters>
            <DistanceMeters>NAN</DistanceMeters>
          </Trackpoint>
          <Trackpoint>
            <Time>2020-02-15T10:45:52.000Z</Time>
            <Position>
              <LatitudeDegrees>41.97395794093608856201171875</LatitudeDegrees>
              <LongitudeDegrees>2.89545410312712192535400390625</LongitudeDegrees>
            </Position>
            <AltitudeMeters>394.399993896484375</AltitudeMeters>
            <DistanceMeters>NAN</DistanceMeters>
          </Trackpoint>
          <Trackpoint>
            <Time>2020-02-15T10:45:53.000Z</Time>
            <Position>
              <LatitudeDegrees>41.9739845953881740570068359375</LatitudeDegrees>
              <LongitudeDegrees>2.8954263590276241302490234375</LongitudeDegrees>
            </Position>
            <AltitudeMeters>394.600006103515625</AltitudeMeters>
            <DistanceMeters>NAN</DistanceMeters>
          </Trackpoint>
          <Trackpoint>
            <Time>2020-02-15T10:45:54.000Z</Time>
            <Position>
              <LatitudeDegrees>41.97401016019284725189208984375</LatitudeDegrees>
              <LongitudeDegrees>2.895399369299411773681640625</LongitudeDegrees>
            </Position>
            <AltitudeMeters>394.600006103515625</AltitudeMeters>
            <DistanceMeters>NAN</DistanceMeters>
          </Trackpoint>
          <Trackpoint>
            <Time>2020-02-15T10:45:55.000Z</Time>
            <Position>
              <LatitudeDegrees>41.97403614409267902374267578125</LatitudeDegrees>
              <LongitudeDegrees>2.89537154138088226318359375</LongitudeDegrees>
            </Position>
            <AltitudeMeters>394.600006103515625</AltitudeMeters>
            <DistanceMeters>NAN</DistanceMeters>
          </Trackpoint>
          <Trackpoint>
            <Time>2020-02-15T10:45:56.000Z</Time>
            <Position>
              <LatitudeDegrees>41.97406246326863765716552734375</LatitudeDegrees>
              <LongitudeDegrees>2.89534212090075016021728515625</LongitudeDegrees>
            </Position>
            <AltitudeMeters>395</AltitudeMeters>
            <DistanceMeters>NAN</DistanceMeters>
          </Trackpoint>
          <Trackpoint>
            <Time>2020-02-15T10:45:57.000Z</Time>
            <Position>
              <LatitudeDegrees>41.9740875251591205596923828125</LatitudeDegrees>
              <LongitudeDegrees>2.8953118622303009033203125</LongitudeDegrees>
            </Position>
            <AltitudeMeters>395</AltitudeMeters>
            <DistanceMeters>NAN</DistanceMeters>
          </Trackpoint>
          <Trackpoint>
            <Time>2020-02-15T10:45:58.000Z</Time>
            <Position>
              <LatitudeDegrees>41.97411560453474521636962890625</LatitudeDegrees>
              <LongitudeDegrees>2.8952818550169467926025390625</LongitudeDegrees>
            </Position>
            <AltitudeMeters>395.20001220703125</AltitudeMeters>
            <DistanceMeters>NAN</DistanceMeters>
          </Trackpoint>
          <Trackpoint>
            <Time>2020-02-15T10:45:59.000Z</Time>
            <Position>
              <LatitudeDegrees>41.97414292953908443450927734375</LatitudeDegrees>
              <LongitudeDegrees>2.895253859460353851318359375</LongitudeDegrees>
            </Position>
            <AltitudeMeters>395.399993896484375</AltitudeMeters>
            <DistanceMeters>NAN</DistanceMeters>
          </Trackpoint>
          <Trackpoint>
            <Time>2020-02-15T10:46:00.000Z</Time>
            <Position>
              <LatitudeDegrees>41.9741713441908359527587890625</LatitudeDegrees>
              <LongitudeDegrees>2.89522930048406124114990234375</LongitudeDegrees>
            </Position>
            <AltitudeMeters>395.399993896484375</AltitudeMeters>
            <DistanceMeters>NAN</DistanceMeters>
          </Trackpoint>
          <Trackpoint>
            <Time>2020-02-15T10:46:01.000Z</Time>
            <Position>
              <LatitudeDegrees>41.97420009411871433258056640625</LatitudeDegrees>
              <LongitudeDegrees>2.895207591354846954345703125</LongitudeDegrees>
            </Position>
            <AltitudeMeters>395.399993896484375</AltitudeMeters>
            <DistanceMeters>NAN</DistanceMeters>
          </Trackpoint>
          <Trackpoint>
            <Time>2020-02-15T10:46:02.000Z</Time>
            <Position>
              <LatitudeDegrees>41.9742303527891635894775390625</LatitudeDegrees>
              <LongitudeDegrees>2.89518755860626697540283203125</LongitudeDegrees>
            </Position>
            <AltitudeMeters>395.79998779296875</AltitudeMeters>
            <DistanceMeters>NAN</DistanceMeters>
          </Trackpoint>
          <Trackpoint>
            <Time>2020-02-15T10:46:03.000Z</Time>
            <Position>
              <LatitudeDegrees>41.9742575101554393768310546875</LatitudeDegrees>
              <LongitudeDegrees>2.895176075398921966552734375</LongitudeDegrees>
            </Position>
            <AltitudeMeters>395.79998779296875</AltitudeMeters>
            <DistanceMeters>NAN</DistanceMeters>
          </Trackpoint>
          <Trackpoint>
            <Time>2020-02-15T10:46:04.000Z</Time>
            <Position>
              <LatitudeDegrees>41.9742791354656219482421875</LatitudeDegrees>
              <LongitudeDegrees>2.89517062716186046600341796875</LongitudeDegrees>
            </Position>
            <AltitudeMeters>396</AltitudeMeters>
            <DistanceMeters>NAN</DistanceMeters>
          </Trackpoint>
          <Trackpoint>
            <Time>2020-02-15T10:46:05.000Z</Time>
            <Position>
              <LatitudeDegrees>41.97430285625159740447998046875</LatitudeDegrees>
              <LongitudeDegrees>2.89517247118055820465087890625</LongitudeDegrees>
            </Position>
            <AltitudeMeters>396.20001220703125</AltitudeMeters>
            <DistanceMeters>NAN</DistanceMeters>
          </Trackpoint>
          <Trackpoint>
            <Time>2020-02-15T10:46:06.000Z</Time>
            <Position>
              <LatitudeDegrees>41.97432431392371654510498046875</LatitudeDegrees>
              <LongitudeDegrees>2.89517842233180999755859375</LongitudeDegrees>
            </Position>
            <AltitudeMeters>396.399993896484375</AltitudeMeters>
            <DistanceMeters>NAN</DistanceMeters>
          </Trackpoint>
          <Trackpoint>
            <Time>2020-02-15T10:46:07.000Z</Time>
            <Position>
              <LatitudeDegrees>41.97434510104358196258544921875</LatitudeDegrees>
              <LongitudeDegrees>2.89519250392913818359375</LongitudeDegrees>
            </Position>
            <AltitudeMeters>396.399993896484375</AltitudeMeters>
            <DistanceMeters>NAN</DistanceMeters>
          </Trackpoint>
          <Trackpoint>
            <Time>2020-02-15T10:46:08.000Z</Time>
            <Position>
              <LatitudeDegrees>41.9743649661540985107421875</LatitudeDegrees>
              <LongitudeDegrees>2.89521194994449615478515625</LongitudeDegrees>
            </Position>
            <AltitudeMeters>396.600006103515625</AltitudeMeters>
            <DistanceMeters>NAN</DistanceMeters>
          </Trackpoint>
          <Trackpoint>
            <Time>2020-02-15T10:46:09.000Z</Time>
            <Position>
              <LatitudeDegrees>41.974380724132061004638671875</LatitudeDegrees>
              <LongitudeDegrees>2.8952325694262981414794921875</LongitudeDegrees>
            </Position>
            <AltitudeMeters>396.600006103515625</AltitudeMeters>
            <DistanceMeters>NAN</DistanceMeters>
          </Trackpoint>
          <Trackpoint>
            <Time>2020-02-15T10:46:10.000Z</Time>
            <Position>
              <LatitudeDegrees>41.97439438663423061370849609375</LatitudeDegrees>
              <LongitudeDegrees>2.89525687694549560546875</LongitudeDegrees>
            </Position>
            <AltitudeMeters>396.600006103515625</AltitudeMeters>
            <DistanceMeters>NAN</DistanceMeters>
          </Trackpoint>
          <Trackpoint>
            <Time>2020-02-15T10:46:11.000Z</Time>
            <Position>
              <LatitudeDegrees>41.97440612129867076873779296875</LatitudeDegrees>
              <LongitudeDegrees>2.89528395049273967742919921875</LongitudeDegrees>
            </Position>
            <AltitudeMeters>396.79998779296875</AltitudeMeters>
            <DistanceMeters>NAN</DistanceMeters>
          </Trackpoint>
          <Trackpoint>
            <Time>2020-02-15T10:46:12.000Z</Time>
            <Position>
              <LatitudeDegrees>41.97441793978214263916015625</LatitudeDegrees>
              <LongitudeDegrees>2.89531211368739604949951171875</LongitudeDegrees>
            </Position>
            <AltitudeMeters>397.20001220703125</AltitudeMeters>
            <DistanceMeters>NAN</DistanceMeters>
          </Trackpoint>
          <Trackpoint>
            <Time>2020-02-15T10:46:13.000Z</Time>
            <Position>
              <LatitudeDegrees>41.97443227283656597137451171875</LatitudeDegrees>
              <LongitudeDegrees>2.89534077979624271392822265625</LongitudeDegrees>
            </Position>
            <AltitudeMeters>397.399993896484375</AltitudeMeters>
            <DistanceMeters>NAN</DistanceMeters>
          </Trackpoint>
          <Trackpoint>
            <Time>2020-02-15T10:46:14.000Z</Time>
            <Position>
              <LatitudeDegrees>41.97444610297679901123046875</LatitudeDegrees>
              <LongitudeDegrees>2.8953733853995800018310546875</LongitudeDegrees>
            </Position>
            <AltitudeMeters>397.600006103515625</AltitudeMeters>
            <DistanceMeters>NAN</DistanceMeters>
          </Trackpoint>
          <Trackpoint>
            <Time>2020-02-15T10:46:15.000Z</Time>
            <Position>
              <LatitudeDegrees>41.9744600169360637664794921875</LatitudeDegrees>
              <LongitudeDegrees>2.8954032249748706817626953125</LongitudeDegrees>
            </Position>
            <AltitudeMeters>397.79998779296875</AltitudeMeters>
            <DistanceMeters>NAN</DistanceMeters>
          </Trackpoint>
          <Trackpoint>
            <Time>2020-02-15T10:46:16.000Z</Time>
            <Position>
              <LatitudeDegrees>41.97447166778147220611572265625</LatitudeDegrees>
              <LongitudeDegrees>2.89543398655951023101806640625</LongitudeDegrees>
            </Position>
            <AltitudeMeters>398</AltitudeMeters>
            <DistanceMeters>NAN</DistanceMeters>
          </Trackpoint>
          <Trackpoint>
            <Time>2020-02-15T10:46:17.000Z</Time>
            <Position>
              <LatitudeDegrees>41.97448105551302433013916015625</LatitudeDegrees>
              <LongitudeDegrees>2.89546617306768894195556640625</LongitudeDegrees>
            </Position>
            <AltitudeMeters>398</AltitudeMeters>
            <DistanceMeters>NAN</DistanceMeters>
          </Trackpoint>
          <Trackpoint>
            <Time>2020-02-15T10:46:18.000Z</Time>
            <Position>
              <LatitudeDegrees>41.97449312545359134674072265625</LatitudeDegrees>
              <LongitudeDegrees>2.89549735374748706817626953125</LongitudeDegrees>
            </Position>
            <AltitudeMeters>398.20001220703125</AltitudeMeters>
            <DistanceMeters>NAN</DistanceMeters>
          </Trackpoint>
          <Trackpoint>
            <Time>2020-02-15T10:46:19.000Z</Time>
            <Position>
              <LatitudeDegrees>41.9745042733848094940185546875</LatitudeDegrees>
              <LongitudeDegrees>2.89553222246468067169189453125</LongitudeDegrees>
            </Position>
            <AltitudeMeters>398.20001220703125</AltitudeMeters>
            <DistanceMeters>NAN</DistanceMeters>
          </Trackpoint>
          <Trackpoint>
            <Time>2020-02-15T10:46:20.000Z</Time>
            <Position>
              <LatitudeDegrees>41.97451273910701274871826171875</LatitudeDegrees>
              <LongitudeDegrees>2.8955693542957305908203125</LongitudeDegrees>
            </Position>
            <AltitudeMeters>398.20001220703125</AltitudeMeters>
            <DistanceMeters>NAN</DistanceMeters>
          </Trackpoint>
          <Trackpoint>
            <Time>2020-02-15T10:46:21.000Z</Time>
            <Position>
              <LatitudeDegrees>41.9745232164859771728515625</LatitudeDegrees>
              <LongitudeDegrees>2.8956069052219390869140625</LongitudeDegrees>
            </Position>
            <AltitudeMeters>398.600006103515625</AltitudeMeters>
            <DistanceMeters>NAN</DistanceMeters>
          </Trackpoint>
          <Trackpoint>
            <Time>2020-02-15T10:46:22.000Z</Time>
            <Position>
              <LatitudeDegrees>41.9745324365794658660888671875</LatitudeDegrees>
              <LongitudeDegrees>2.895646132528781890869140625</LongitudeDegrees>
            </Position>
            <AltitudeMeters>398.79998779296875</AltitudeMeters>
            <DistanceMeters>NAN</DistanceMeters>
          </Trackpoint>
          <Trackpoint>
            <Time>2020-02-15T10:46:23.000Z</Time>
            <Position>
              <LatitudeDegrees>41.974537633359432220458984375</LatitudeDegrees>
              <LongitudeDegrees>2.8956900537014007568359375</LongitudeDegrees>
            </Position>
            <AltitudeMeters>399</AltitudeMeters>
            <DistanceMeters>NAN</DistanceMeters>
          </Trackpoint>
          <Trackpoint>
            <Time>2020-02-15T10:46:24.000Z</Time>
            <Position>
              <LatitudeDegrees>41.9745398126542568206787109375</LatitudeDegrees>
              <LongitudeDegrees>2.89573472924530506134033203125</LongitudeDegrees>
            </Position>
            <AltitudeMeters>399.20001220703125</AltitudeMeters>
            <DistanceMeters>NAN</DistanceMeters>
          </Trackpoint>
          <Trackpoint>
            <Time>2020-02-15T10:46:26.000Z</Time>
            <Position>
              <LatitudeDegrees>41.97453017346560955047607421875</LatitudeDegrees>
              <LongitudeDegrees>2.895818464457988739013671875</LongitudeDegrees>
            </Position>
            <AltitudeMeters>399.399993896484375</AltitudeMeters>
            <DistanceMeters>NAN</DistanceMeters>
          </Trackpoint>
          <Trackpoint>
            <Time>2020-02-15T10:46:27.000Z</Time>
            <Position>
              <LatitudeDegrees>41.9745183549821376800537109375</LatitudeDegrees>
              <LongitudeDegrees>2.89585492573678493499755859375</LongitudeDegrees>
            </Position>
            <AltitudeMeters>399.600006103515625</AltitudeMeters>
            <DistanceMeters>NAN</DistanceMeters>
          </Trackpoint>
          <Trackpoint>
            <Time>2020-02-15T10:46:28.000Z</Time>
            <Position>
              <LatitudeDegrees>41.97450318373739719390869140625</LatitudeDegrees>
              <LongitudeDegrees>2.89588912390172481536865234375</LongitudeDegrees>
            </Position>
            <AltitudeMeters>400</AltitudeMeters>
            <DistanceMeters>NAN</DistanceMeters>
          </Trackpoint>
          <Trackpoint>
            <Time>2020-02-15T10:46:29.000Z</Time>
            <Position>
              <LatitudeDegrees>41.9744851626455783843994140625</LatitudeDegrees>
              <LongitudeDegrees>2.89592516608536243438720703125</LongitudeDegrees>
            </Position>
            <AltitudeMeters>400</AltitudeMeters>
            <DistanceMeters>NAN</DistanceMeters>
          </Trackpoint>
          <Trackpoint>
            <Time>2020-02-15T10:46:31.000Z</Time>
            <Position>
              <LatitudeDegrees>41.97444953955709934234619140625</LatitudeDegrees>
              <LongitudeDegrees>2.8959956578910350799560546875</LongitudeDegrees>
            </Position>
            <AltitudeMeters>400</AltitudeMeters>
            <DistanceMeters>NAN</DistanceMeters>
          </Trackpoint>
          <Trackpoint>
            <Time>2020-02-15T10:46:32.000Z</Time>
            <Position>
              <LatitudeDegrees>41.97443378157913684844970703125</LatitudeDegrees>
              <LongitudeDegrees>2.8960348851978778839111328125</LongitudeDegrees>
            </Position>
            <AltitudeMeters>400.20001220703125</AltitudeMeters>
            <DistanceMeters>NAN</DistanceMeters>
          </Trackpoint>
          <Trackpoint>
            <Time>2020-02-15T10:46:34.000Z</Time>
            <Position>
              <LatitudeDegrees>41.97440042160451412200927734375</LatitudeDegrees>
              <LongitudeDegrees>2.8961098194122314453125</LongitudeDegrees>
            </Position>
            <AltitudeMeters>400.20001220703125</AltitudeMeters>
            <DistanceMeters>NAN</DistanceMeters>
          </Trackpoint>
          <Trackpoint>
            <Time>2020-02-15T10:46:36.000Z</Time>
            <Position>
              <LatitudeDegrees>41.97437527589499950408935546875</LatitudeDegrees>
              <LongitudeDegrees>2.8961958177387714385986328125</LongitudeDegrees>
            </Position>
            <AltitudeMeters>400.20001220703125</AltitudeMeters>
            <DistanceMeters>NAN</DistanceMeters>
          </Trackpoint>
          <Trackpoint>
            <Time>2020-02-15T10:46:38.000Z</Time>
            <Position>
              <LatitudeDegrees>41.97436161339282989501953125</LatitudeDegrees>
              <LongitudeDegrees>2.89629028178751468658447265625</LongitudeDegrees>
            </Position>
            <AltitudeMeters>400.399993896484375</AltitudeMeters>
            <DistanceMeters>NAN</DistanceMeters>
          </Trackpoint>
          <Trackpoint>
            <Time>2020-02-15T10:46:39.000Z</Time>
            <Position>
              <LatitudeDegrees>41.97435767389833927154541015625</LatitudeDegrees>
              <LongitudeDegrees>2.8963389806449413299560546875</LongitudeDegrees>
            </Position>
            <AltitudeMeters>400.399993896484375</AltitudeMeters>
            <DistanceMeters>NAN</DistanceMeters>
          </Trackpoint>
          <Trackpoint>
            <Time>2020-02-15T10:46:40.000Z</Time>
            <Position>
              <LatitudeDegrees>41.974355913698673248291015625</LatitudeDegrees>
              <LongitudeDegrees>2.8963852487504482269287109375</LongitudeDegrees>
            </Position>
            <AltitudeMeters>400.600006103515625</AltitudeMeters>
            <DistanceMeters>NAN</DistanceMeters>
          </Trackpoint>
          <Trackpoint>
            <Time>2020-02-15T10:46:41.000Z</Time>
            <Position>
              <LatitudeDegrees>41.97435759007930755615234375</LatitudeDegrees>
              <LongitudeDegrees>2.8964315168559551239013671875</LongitudeDegrees>
            </Position>
            <AltitudeMeters>400.600006103515625</AltitudeMeters>
            <DistanceMeters>NAN</DistanceMeters>
          </Trackpoint>
          <Trackpoint>
            <Time>2020-02-15T10:46:42.000Z</Time>
            <Position>
              <LatitudeDegrees>41.97436203248798847198486328125</LatitudeDegrees>
              <LongitudeDegrees>2.8964771144092082977294921875</LongitudeDegrees>
            </Position>
            <AltitudeMeters>400.600006103515625</AltitudeMeters>
            <DistanceMeters>NAN</DistanceMeters>
          </Trackpoint>
          <Trackpoint>
            <Time>2020-02-15T10:46:43.000Z</Time>
            <Position>
              <LatitudeDegrees>41.97437502443790435791015625</LatitudeDegrees>
              <LongitudeDegrees>2.8965193592011928558349609375</LongitudeDegrees>
            </Position>
            <AltitudeMeters>400.600006103515625</AltitudeMeters>
            <DistanceMeters>NAN</DistanceMeters>
          </Trackpoint>
          <Trackpoint>
            <Time>2020-02-15T10:46:44.000Z</Time>
            <Position>
              <LatitudeDegrees>41.9743926264345645904541015625</LatitudeDegrees>
              <LongitudeDegrees>2.89655682630836963653564453125</LongitudeDegrees>
            </Position>
            <AltitudeMeters>400.600006103515625</AltitudeMeters>
            <DistanceMeters>NAN</DistanceMeters>
          </Trackpoint>
          <Trackpoint>
            <Time>2020-02-15T10:46:45.000Z</Time>
            <Position>
              <LatitudeDegrees>41.974411569535732269287109375</LatitudeDegrees>
              <LongitudeDegrees>2.89659035392105579376220703125</LongitudeDegrees>
            </Position>
            <AltitudeMeters>400.600006103515625</AltitudeMeters>
            <DistanceMeters>NAN</DistanceMeters>
          </Trackpoint>
          <Trackpoint>
            <Time>2020-02-15T10:46:46.000Z</Time>
            <Position>
              <LatitudeDegrees>41.97443763725459575653076171875</LatitudeDegrees>
              <LongitudeDegrees>2.89661935530602931976318359375</LongitudeDegrees>
            </Position>
            <AltitudeMeters>400.79998779296875</AltitudeMeters>
            <DistanceMeters>NAN</DistanceMeters>
          </Trackpoint>
          <Trackpoint>
            <Time>2020-02-15T10:46:47.000Z</Time>
            <Position>
              <LatitudeDegrees>41.97446747682988643646240234375</LatitudeDegrees>
              <LongitudeDegrees>2.89663863368332386016845703125</LongitudeDegrees>
            </Position>
            <AltitudeMeters>401</AltitudeMeters>
            <DistanceMeters>NAN</DistanceMeters>
          </Trackpoint>
          <Trackpoint>
            <Time>2020-02-15T10:46:48.000Z</Time>
            <Position>
              <LatitudeDegrees>41.97450201027095317840576171875</LatitudeDegrees>
              <LongitudeDegrees>2.89664768613874912261962890625</LongitudeDegrees>
            </Position>
            <AltitudeMeters>401</AltitudeMeters>
            <DistanceMeters>NAN</DistanceMeters>
          </Trackpoint>
          <Trackpoint>
            <Time>2020-02-15T10:46:49.000Z</Time>
            <Position>
              <LatitudeDegrees>41.9745367951691150665283203125</LatitudeDegrees>
              <LongitudeDegrees>2.8966470994055271148681640625</LongitudeDegrees>
            </Position>
            <AltitudeMeters>401</AltitudeMeters>
            <DistanceMeters>NAN</DistanceMeters>
          </Trackpoint>
          <Trackpoint>
            <Time>2020-02-15T10:46:50.000Z</Time>
            <Position>
              <LatitudeDegrees>41.97457057423889636993408203125</LatitudeDegrees>
              <LongitudeDegrees>2.89664064534008502960205078125</LongitudeDegrees>
            </Position>
            <AltitudeMeters>401.20001220703125</AltitudeMeters>
            <DistanceMeters>NAN</DistanceMeters>
          </Trackpoint>
          <Trackpoint>
            <Time>2020-02-15T10:46:51.000Z</Time>
            <Position>
              <LatitudeDegrees>41.974602676928043365478515625</LatitudeDegrees>
              <LongitudeDegrees>2.89663083851337432861328125</LongitudeDegrees>
            </Position>
            <AltitudeMeters>401.20001220703125</AltitudeMeters>
            <DistanceMeters>NAN</DistanceMeters>
          </Trackpoint>
          <Trackpoint>
            <Time>2020-02-15T10:46:52.000Z</Time>
            <Position>
              <LatitudeDegrees>41.9746330194175243377685546875</LatitudeDegrees>
              <LongitudeDegrees>2.8966186009347438812255859375</LongitudeDegrees>
            </Position>
            <AltitudeMeters>401.20001220703125</AltitudeMeters>
            <DistanceMeters>NAN</DistanceMeters>
          </Trackpoint>
          <Trackpoint>
            <Time>2020-02-15T10:46:53.000Z</Time>
            <Position>
              <LatitudeDegrees>41.974662356078624725341796875</LatitudeDegrees>
              <LongitudeDegrees>2.89660225622355937957763671875</LongitudeDegrees>
            </Position>
            <AltitudeMeters>401.399993896484375</AltitudeMeters>
            <DistanceMeters>NAN</DistanceMeters>
          </Trackpoint>
          <Trackpoint>
            <Time>2020-02-15T10:46:54.000Z</Time>
            <Position>
              <LatitudeDegrees>41.97469160892069339752197265625</LatitudeDegrees>
              <LongitudeDegrees>2.89658750407397747039794921875</LongitudeDegrees>
            </Position>
            <AltitudeMeters>401.399993896484375</AltitudeMeters>
            <DistanceMeters>NAN</DistanceMeters>
          </Trackpoint>
          <Trackpoint>
            <Time>2020-02-15T10:46:55.000Z</Time>
            <Position>
              <LatitudeDegrees>41.974718011915683746337890625</LatitudeDegrees>
              <LongitudeDegrees>2.8965703211724758148193359375</LongitudeDegrees>
            </Position>
            <AltitudeMeters>401.79998779296875</AltitudeMeters>
            <DistanceMeters>NAN</DistanceMeters>
          </Trackpoint>
          <Trackpoint>
            <Time>2020-02-15T10:46:56.000Z</Time>
            <Position>
              <LatitudeDegrees>41.97474525310099124908447265625</LatitudeDegrees>
              <LongitudeDegrees>2.89655632339417934417724609375</LongitudeDegrees>
            </Position>
            <AltitudeMeters>401.79998779296875</AltitudeMeters>
            <DistanceMeters>NAN</DistanceMeters>
          </Trackpoint>
          <Trackpoint>
            <Time>2020-02-15T10:46:57.000Z</Time>
            <Position>
              <LatitudeDegrees>41.97477173991501331329345703125</LatitudeDegrees>
              <LongitudeDegrees>2.8965468518435955047607421875</LongitudeDegrees>
            </Position>
            <AltitudeMeters>402</AltitudeMeters>
            <DistanceMeters>NAN</DistanceMeters>
          </Trackpoint>
          <Trackpoint>
            <Time>2020-02-15T10:46:58.000Z</Time>
            <Position>
              <LatitudeDegrees>41.9747979752719402313232421875</LatitudeDegrees>
              <LongitudeDegrees>2.89653788320720195770263671875</LongitudeDegrees>
            </Position>
            <AltitudeMeters>402</AltitudeMeters>
            <DistanceMeters>NAN</DistanceMeters>
          </Trackpoint>
          <Trackpoint>
            <Time>2020-02-15T10:46:59.000Z</Time>
            <Position>
              <LatitudeDegrees>41.97482119314372539520263671875</LatitudeDegrees>
              <LongitudeDegrees>2.89652757346630096435546875</LongitudeDegrees>
            </Position>
            <AltitudeMeters>402</AltitudeMeters>
            <DistanceMeters>NAN</DistanceMeters>
          </Trackpoint>
          <Trackpoint>
            <Time>2020-02-15T10:47:00.000Z</Time>
            <Position>
              <LatitudeDegrees>41.97484684176743030548095703125</LatitudeDegrees>
              <LongitudeDegrees>2.8965143300592899322509765625</LongitudeDegrees>
            </Position>
            <AltitudeMeters>402.20001220703125</AltitudeMeters>
            <DistanceMeters>NAN</DistanceMeters>
          </Trackpoint>
          <Trackpoint>
            <Time>2020-02-15T10:47:01.000Z</Time>
            <Position>
              <LatitudeDegrees>41.97487383149564266204833984375</LatitudeDegrees>
              <LongitudeDegrees>2.89650234393775463104248046875</LongitudeDegrees>
            </Position>
            <AltitudeMeters>402.399993896484375</AltitudeMeters>
            <DistanceMeters>NAN</DistanceMeters>
          </Trackpoint>
          <Trackpoint>
            <Time>2020-02-15T10:47:02.000Z</Time>
            <Position>
              <LatitudeDegrees>41.97489939630031585693359375</LatitudeDegrees>
              <LongitudeDegrees>2.89649044163525104522705078125</LongitudeDegrees>
            </Position>
            <AltitudeMeters>402.399993896484375</AltitudeMeters>
            <DistanceMeters>NAN</DistanceMeters>
          </Trackpoint>
          <Trackpoint>
            <Time>2020-02-15T10:47:03.000Z</Time>
            <Position>
              <LatitudeDegrees>41.97492412291467189788818359375</LatitudeDegrees>
              <LongitudeDegrees>2.896478287875652313232421875</LongitudeDegrees>
            </Position>
            <AltitudeMeters>402.399993896484375</AltitudeMeters>
            <DistanceMeters>NAN</DistanceMeters>
          </Trackpoint>
          <Trackpoint>
            <Time>2020-02-15T10:47:04.000Z</Time>
            <Position>
              <LatitudeDegrees>41.97495035827159881591796875</LatitudeDegrees>
              <LongitudeDegrees>2.89646378718316555023193359375</LongitudeDegrees>
            </Position>
            <AltitudeMeters>402.600006103515625</AltitudeMeters>
            <DistanceMeters>NAN</DistanceMeters>
          </Trackpoint>
          <Trackpoint>
            <Time>2020-02-15T10:47:05.000Z</Time>
            <Position>
              <LatitudeDegrees>41.97497810237109661102294921875</LatitudeDegrees>
              <LongitudeDegrees>2.8964464366436004638671875</LongitudeDegrees>
            </Position>
            <AltitudeMeters>402.79998779296875</AltitudeMeters>
            <DistanceMeters>NAN</DistanceMeters>
          </Trackpoint>
          <Trackpoint>
            <Time>2020-02-15T10:47:06.000Z</Time>
            <Position>
              <LatitudeDegrees>41.97500442154705524444580078125</LatitudeDegrees>
              <LongitudeDegrees>2.89643193595111370086669921875</LongitudeDegrees>
            </Position>
            <AltitudeMeters>403</AltitudeMeters>
            <DistanceMeters>NAN</DistanceMeters>
          </Trackpoint>
          <Trackpoint>
            <Time>2020-02-15T10:47:07.000Z</Time>
            <Position>
              <LatitudeDegrees>41.97503308765590190887451171875</LatitudeDegrees>
              <LongitudeDegrees>2.89641768671572208404541015625</LongitudeDegrees>
            </Position>
            <AltitudeMeters>403.20001220703125</AltitudeMeters>
            <DistanceMeters>NAN</DistanceMeters>
          </Trackpoint>
          <Trackpoint>
            <Time>2020-02-15T10:47:08.000Z</Time>
            <Position>
              <LatitudeDegrees>41.97506108321249485015869140625</LatitudeDegrees>
              <LongitudeDegrees>2.896401844918727874755859375</LongitudeDegrees>
            </Position>
            <AltitudeMeters>403.20001220703125</AltitudeMeters>
            <DistanceMeters>NAN</DistanceMeters>
          </Trackpoint>
          <Trackpoint>
            <Time>2020-02-15T10:47:09.000Z</Time>
            <Position>
              <LatitudeDegrees>41.97508840821683406829833984375</LatitudeDegrees>
              <LongitudeDegrees>2.8963845781981945037841796875</LongitudeDegrees>
            </Position>
            <AltitudeMeters>403.399993896484375</AltitudeMeters>
            <DistanceMeters>NAN</DistanceMeters>
          </Trackpoint>
          <Trackpoint>
            <Time>2020-02-15T10:47:10.000Z</Time>
            <Position>
              <LatitudeDegrees>41.9751171581447124481201171875</LatitudeDegrees>
              <LongitudeDegrees>2.89636932313442230224609375</LongitudeDegrees>
            </Position>
            <AltitudeMeters>403.600006103515625</AltitudeMeters>
            <DistanceMeters>NAN</DistanceMeters>
          </Trackpoint>
          <Trackpoint>
            <Time>2020-02-15T10:47:11.000Z</Time>
            <Position>
              <LatitudeDegrees>41.9751486741006374359130859375</LatitudeDegrees>
              <LongitudeDegrees>2.89635214023292064666748046875</LongitudeDegrees>
            </Position>
            <AltitudeMeters>403.79998779296875</AltitudeMeters>
            <DistanceMeters>NAN</DistanceMeters>
          </Trackpoint>
          <Trackpoint>
            <Time>2020-02-15T10:47:12.000Z</Time>
            <Position>
              <LatitudeDegrees>41.97518161498010158538818359375</LatitudeDegrees>
              <LongitudeDegrees>2.8963376395404338836669921875</LongitudeDegrees>
            </Position>
            <AltitudeMeters>403.79998779296875</AltitudeMeters>
            <DistanceMeters>NAN</DistanceMeters>
          </Trackpoint>
          <Trackpoint>
            <Time>2020-02-15T10:47:13.000Z</Time>
            <Position>
              <LatitudeDegrees>41.97521195746958255767822265625</LatitudeDegrees>
              <LongitudeDegrees>2.89632230065762996673583984375</LongitudeDegrees>
            </Position>
            <AltitudeMeters>404</AltitudeMeters>
            <DistanceMeters>NAN</DistanceMeters>
          </Trackpoint>
          <Trackpoint>
            <Time>2020-02-15T10:47:14.000Z</Time>
            <Position>
              <LatitudeDegrees>41.9752418808639049530029296875</LatitudeDegrees>
              <LongitudeDegrees>2.89630629122257232666015625</LongitudeDegrees>
            </Position>
            <AltitudeMeters>404</AltitudeMeters>
            <DistanceMeters>NAN</DistanceMeters>
          </Trackpoint>
          <Trackpoint>
            <Time>2020-02-15T10:47:15.000Z</Time>
            <Position>
              <LatitudeDegrees>41.9752713851630687713623046875</LatitudeDegrees>
              <LongitudeDegrees>2.89629380218684673309326171875</LongitudeDegrees>
            </Position>
            <AltitudeMeters>404.20001220703125</AltitudeMeters>
            <DistanceMeters>NAN</DistanceMeters>
          </Trackpoint>
          <Trackpoint>
            <Time>2020-02-15T10:47:16.000Z</Time>
            <Position>
              <LatitudeDegrees>41.97530013509094715118408203125</LatitudeDegrees>
              <LongitudeDegrees>2.89628659375011920928955078125</LongitudeDegrees>
            </Position>
            <AltitudeMeters>404.399993896484375</AltitudeMeters>
            <DistanceMeters>NAN</DistanceMeters>
          </Trackpoint>
          <Trackpoint>
            <Time>2020-02-15T10:47:17.000Z</Time>
            <Position>
              <LatitudeDegrees>41.9753280468285083770751953125</LatitudeDegrees>
              <LongitudeDegrees>2.89628106169402599334716796875</LongitudeDegrees>
            </Position>
            <AltitudeMeters>404.600006103515625</AltitudeMeters>
            <DistanceMeters>NAN</DistanceMeters>
          </Trackpoint>
          <Trackpoint>
            <Time>2020-02-15T10:47:18.000Z</Time>
            <Position>
              <LatitudeDegrees>41.97535612620413303375244140625</LatitudeDegrees>
              <LongitudeDegrees>2.8962752781808376312255859375</LongitudeDegrees>
            </Position>
            <AltitudeMeters>404.79998779296875</AltitudeMeters>
            <DistanceMeters>NAN</DistanceMeters>
          </Trackpoint>
          <Trackpoint>
            <Time>2020-02-15T10:47:19.000Z</Time>
            <Position>
              <LatitudeDegrees>41.97538378648459911346435546875</LatitudeDegrees>
              <LongitudeDegrees>2.89626781828701496124267578125</LongitudeDegrees>
            </Position>
            <AltitudeMeters>405</AltitudeMeters>
            <DistanceMeters>NAN</DistanceMeters>
          </Trackpoint>
          <Trackpoint>
            <Time>2020-02-15T10:47:20.000Z</Time>
            <Position>
              <LatitudeDegrees>41.97541044093668460845947265625</LatitudeDegrees>
              <LongitudeDegrees>2.89626211859285831451416015625</LongitudeDegrees>
            </Position>
            <AltitudeMeters>405</AltitudeMeters>
            <DistanceMeters>NAN</DistanceMeters>
          </Trackpoint>
          <Trackpoint>
            <Time>2020-02-15T10:47:21.000Z</Time>
            <Position>
              <LatitudeDegrees>41.9754353351891040802001953125</LatitudeDegrees>
              <LongitudeDegrees>2.89625532925128936767578125</LongitudeDegrees>
            </Position>
            <AltitudeMeters>405.20001220703125</AltitudeMeters>
            <DistanceMeters>NAN</DistanceMeters>
          </Trackpoint>
          <Trackpoint>
            <Time>2020-02-15T10:47:22.000Z</Time>
            <Position>
              <LatitudeDegrees>41.97546400129795074462890625</LatitudeDegrees>
              <LongitudeDegrees>2.8962491266429424285888671875</LongitudeDegrees>
            </Position>
            <AltitudeMeters>405.399993896484375</AltitudeMeters>
            <DistanceMeters>NAN</DistanceMeters>
          </Trackpoint>
          <Trackpoint>
            <Time>2020-02-15T10:47:23.000Z</Time>
            <Position>
              <LatitudeDegrees>41.9754923321306705474853515625</LatitudeDegrees>
              <LongitudeDegrees>2.89624501951038837432861328125</LongitudeDegrees>
            </Position>
            <AltitudeMeters>405.399993896484375</AltitudeMeters>
            <DistanceMeters>NAN</DistanceMeters>
          </Trackpoint>
          <Trackpoint>
            <Time>2020-02-15T10:47:24.000Z</Time>
            <Position>
              <LatitudeDegrees>41.9755184836685657501220703125</LatitudeDegrees>
              <LongitudeDegrees>2.8962425887584686279296875</LongitudeDegrees>
            </Position>
            <AltitudeMeters>405.399993896484375</AltitudeMeters>
            <DistanceMeters>NAN</DistanceMeters>
          </Trackpoint>
          <Trackpoint>
            <Time>2020-02-15T10:47:25.000Z</Time>
            <Position>
              <LatitudeDegrees>41.97554321028292179107666015625</LatitudeDegrees>
              <LongitudeDegrees>2.89624325931072235107421875</LongitudeDegrees>
            </Position>
            <AltitudeMeters>405.600006103515625</AltitudeMeters>
            <DistanceMeters>NAN</DistanceMeters>
          </Trackpoint>
          <Trackpoint>
            <Time>2020-02-15T10:47:26.000Z</Time>
            <Position>
              <LatitudeDegrees>41.975574977695941925048828125</LatitudeDegrees>
              <LongitudeDegrees>2.89623831398785114288330078125</LongitudeDegrees>
            </Position>
            <AltitudeMeters>405.600006103515625</AltitudeMeters>
            <DistanceMeters>NAN</DistanceMeters>
          </Trackpoint>
          <Trackpoint>
            <Time>2020-02-15T10:47:27.000Z</Time>
            <Position>
              <LatitudeDegrees>41.97560884058475494384765625</LatitudeDegrees>
              <LongitudeDegrees>2.89623362012207508087158203125</LongitudeDegrees>
            </Position>
            <AltitudeMeters>405.79998779296875</AltitudeMeters>
            <DistanceMeters>NAN</DistanceMeters>
          </Trackpoint>
          <Trackpoint>
            <Time>2020-02-15T10:47:28.000Z</Time>
            <Position>
              <LatitudeDegrees>41.97564111091196537017822265625</LatitudeDegrees>
              <LongitudeDegrees>2.89622808806598186492919921875</LongitudeDegrees>
            </Position>
            <AltitudeMeters>406</AltitudeMeters>
            <DistanceMeters>NAN</DistanceMeters>
          </Trackpoint>
          <Trackpoint>
            <Time>2020-02-15T10:47:29.000Z</Time>
            <Position>
              <LatitudeDegrees>41.97566893883049488067626953125</LatitudeDegrees>
              <LongitudeDegrees>2.89622624404728412628173828125</LongitudeDegrees>
            </Position>
            <AltitudeMeters>406.20001220703125</AltitudeMeters>
            <DistanceMeters>NAN</DistanceMeters>
          </Trackpoint>
          <Trackpoint>
            <Time>2020-02-15T10:47:30.000Z</Time>
            <Position>
              <LatitudeDegrees>41.97569676674902439117431640625</LatitudeDegrees>
              <LongitudeDegrees>2.89622490294277667999267578125</LongitudeDegrees>
            </Position>
            <AltitudeMeters>406.399993896484375</AltitudeMeters>
            <DistanceMeters>NAN</DistanceMeters>
          </Trackpoint>
          <Trackpoint>
            <Time>2020-02-15T10:47:31.000Z</Time>
            <Position>
              <LatitudeDegrees>41.97572576813399791717529296875</LatitudeDegrees>
              <LongitudeDegrees>2.8962233103811740875244140625</LongitudeDegrees>
            </Position>
            <AltitudeMeters>406.600006103515625</AltitudeMeters>
            <DistanceMeters>NAN</DistanceMeters>
          </Trackpoint>
          <Trackpoint>
            <Time>2020-02-15T10:47:32.000Z</Time>
            <Position>
              <LatitudeDegrees>41.975754685699939727783203125</LatitudeDegrees>
              <LongitudeDegrees>2.896224819123744964599609375</LongitudeDegrees>
            </Position>
            <AltitudeMeters>406.600006103515625</AltitudeMeters>
            <DistanceMeters>NAN</DistanceMeters>
          </Trackpoint>
          <Trackpoint>
            <Time>2020-02-15T10:47:33.000Z</Time>
            <Position>
              <LatitudeDegrees>41.97578259743750095367431640625</LatitudeDegrees>
              <LongitudeDegrees>2.896222136914730072021484375</LongitudeDegrees>
            </Position>
            <AltitudeMeters>406.79998779296875</AltitudeMeters>
            <DistanceMeters>NAN</DistanceMeters>
          </Trackpoint>
          <Trackpoint>
            <Time>2020-02-15T10:47:34.000Z</Time>
            <Position>
              <LatitudeDegrees>41.97581268846988677978515625</LatitudeDegrees>
              <LongitudeDegrees>2.89621643722057342529296875</LongitudeDegrees>
            </Position>
            <AltitudeMeters>407</AltitudeMeters>
            <DistanceMeters>NAN</DistanceMeters>
          </Trackpoint>
          <Trackpoint>
            <Time>2020-02-15T10:47:35.000Z</Time>
            <Position>
              <LatitudeDegrees>41.97584210895001888275146484375</LatitudeDegrees>
              <LongitudeDegrees>2.89621182717382907867431640625</LongitudeDegrees>
            </Position>
            <AltitudeMeters>407.399993896484375</AltitudeMeters>
            <DistanceMeters>NAN</DistanceMeters>
          </Trackpoint>
          <Trackpoint>
            <Time>2020-02-15T10:47:36.000Z</Time>
            <Position>
              <LatitudeDegrees>41.97586893104016780853271484375</LatitudeDegrees>
              <LongitudeDegrees>2.8962102346122264862060546875</LongitudeDegrees>
            </Position>
            <AltitudeMeters>407.600006103515625</AltitudeMeters>
            <DistanceMeters>NAN</DistanceMeters>
          </Trackpoint>
          <Trackpoint>
            <Time>2020-02-15T10:47:37.000Z</Time>
            <Position>
              <LatitudeDegrees>41.9758965075016021728515625</LatitudeDegrees>
              <LongitudeDegrees>2.8962102346122264862060546875</LongitudeDegrees>
            </Position>
            <AltitudeMeters>407.79998779296875</AltitudeMeters>
            <DistanceMeters>NAN</DistanceMeters>
          </Trackpoint>
          <Trackpoint>
            <Time>2020-02-15T10:47:38.000Z</Time>
            <Position>
              <LatitudeDegrees>41.9759191386401653289794921875</LatitudeDegrees>
              <LongitudeDegrees>2.89620679803192615509033203125</LongitudeDegrees>
            </Position>
            <AltitudeMeters>408</AltitudeMeters>
            <DistanceMeters>NAN</DistanceMeters>
          </Trackpoint>
          <Trackpoint>
            <Time>2020-02-15T10:47:39.000Z</Time>
            <Position>
              <LatitudeDegrees>41.97593917138874530792236328125</LatitudeDegrees>
              <LongitudeDegrees>2.896204702556133270263671875</LongitudeDegrees>
            </Position>
            <AltitudeMeters>408.20001220703125</AltitudeMeters>
            <DistanceMeters>NAN</DistanceMeters>
          </Trackpoint>
          <Trackpoint>
            <Time>2020-02-15T10:47:40.000Z</Time>
            <Position>
              <LatitudeDegrees>41.97596180252730846405029296875</LatitudeDegrees>
              <LongitudeDegrees>2.89620109833776950836181640625</LongitudeDegrees>
            </Position>
            <AltitudeMeters>408.20001220703125</AltitudeMeters>
            <DistanceMeters>NAN</DistanceMeters>
          </Trackpoint>
          <Trackpoint>
            <Time>2020-02-15T10:47:41.000Z</Time>
            <Position>
              <LatitudeDegrees>41.9759841822087764739990234375</LatitudeDegrees>
              <LongitudeDegrees>2.896195985376834869384765625</LongitudeDegrees>
            </Position>
            <AltitudeMeters>408.20001220703125</AltitudeMeters>
            <DistanceMeters>NAN</DistanceMeters>
          </Trackpoint>
          <Trackpoint>
            <Time>2020-02-15T10:47:42.000Z</Time>
            <Position>
              <LatitudeDegrees>41.976004801690578460693359375</LatitudeDegrees>
              <LongitudeDegrees>2.89619221352040767669677734375</LongitudeDegrees>
            </Position>
            <AltitudeMeters>408.399993896484375</AltitudeMeters>
            <DistanceMeters>NAN</DistanceMeters>
          </Trackpoint>
          <Trackpoint>
            <Time>2020-02-15T10:47:43.000Z</Time>
            <Position>
              <LatitudeDegrees>41.9760240800678730010986328125</LatitudeDegrees>
              <LongitudeDegrees>2.89618450216948986053466796875</LongitudeDegrees>
            </Position>
            <AltitudeMeters>408.600006103515625</AltitudeMeters>
            <DistanceMeters>NAN</DistanceMeters>
          </Trackpoint>
          <Trackpoint>
            <Time>2020-02-15T10:47:44.000Z</Time>
            <Position>
              <LatitudeDegrees>41.9760478846728801727294921875</LatitudeDegrees>
              <LongitudeDegrees>2.89618064649403095245361328125</LongitudeDegrees>
            </Position>
            <AltitudeMeters>408.600006103515625</AltitudeMeters>
            <DistanceMeters>NAN</DistanceMeters>
          </Trackpoint>
          <Trackpoint>
            <Time>2020-02-15T10:47:45.000Z</Time>
            <Position>
              <LatitudeDegrees>41.97607286274433135986328125</LatitudeDegrees>
              <LongitudeDegrees>2.8961750306189060211181640625</LongitudeDegrees>
            </Position>
            <AltitudeMeters>408.79998779296875</AltitudeMeters>
            <DistanceMeters>NAN</DistanceMeters>
          </Trackpoint>
          <Trackpoint>
            <Time>2020-02-15T10:47:46.000Z</Time>
            <Position>
              <LatitudeDegrees>41.9760961644351482391357421875</LatitudeDegrees>
              <LongitudeDegrees>2.89616941474378108978271484375</LongitudeDegrees>
            </Position>
            <AltitudeMeters>408.79998779296875</AltitudeMeters>
            <DistanceMeters>NAN</DistanceMeters>
          </Trackpoint>
          <Trackpoint>
            <Time>2020-02-15T10:47:47.000Z</Time>
            <Position>
              <LatitudeDegrees>41.97611804120242595672607421875</LatitudeDegrees>
              <LongitudeDegrees>2.8961609490215778350830078125</LongitudeDegrees>
            </Position>
            <AltitudeMeters>409</AltitudeMeters>
            <DistanceMeters>NAN</DistanceMeters>
          </Trackpoint>
          <Trackpoint>
            <Time>2020-02-15T10:47:48.000Z</Time>
            <Position>
              <LatitudeDegrees>41.97614218108355998992919921875</LatitudeDegrees>
              <LongitudeDegrees>2.89615298621356487274169921875</LongitudeDegrees>
            </Position>
            <AltitudeMeters>409.20001220703125</AltitudeMeters>
            <DistanceMeters>NAN</DistanceMeters>
          </Trackpoint>
          <Trackpoint>
            <Time>2020-02-15T10:47:49.000Z</Time>
            <Position>
              <LatitudeDegrees>41.97617210447788238525390625</LatitudeDegrees>
              <LongitudeDegrees>2.8961448557674884796142578125</LongitudeDegrees>
            </Position>
            <AltitudeMeters>409.399993896484375</AltitudeMeters>
            <DistanceMeters>NAN</DistanceMeters>
          </Trackpoint>
          <Trackpoint>
            <Time>2020-02-15T10:47:50.000Z</Time>
            <Position>
              <LatitudeDegrees>41.9761994294822216033935546875</LatitudeDegrees>
              <LongitudeDegrees>2.89613219909369945526123046875</LongitudeDegrees>
            </Position>
            <AltitudeMeters>409.600006103515625</AltitudeMeters>
            <DistanceMeters>NAN</DistanceMeters>
          </Trackpoint>
          <Trackpoint>
            <Time>2020-02-15T10:47:51.000Z</Time>
            <Position>
              <LatitudeDegrees>41.97622231207787990570068359375</LatitudeDegrees>
              <LongitudeDegrees>2.8961183689534664154052734375</LongitudeDegrees>
            </Position>
            <AltitudeMeters>409.79998779296875</AltitudeMeters>
            <DistanceMeters>NAN</DistanceMeters>
          </Trackpoint>
          <Trackpoint>
            <Time>2020-02-15T10:47:52.000Z</Time>
            <Position>
              <LatitudeDegrees>41.97624695487320423126220703125</LatitudeDegrees>
              <LongitudeDegrees>2.8961042873561382293701171875</LongitudeDegrees>
            </Position>
            <AltitudeMeters>410</AltitudeMeters>
            <DistanceMeters>NAN</DistanceMeters>
          </Trackpoint>
          <Trackpoint>
            <Time>2020-02-15T10:47:53.000Z</Time>
            <Position>
              <LatitudeDegrees>41.97626908309757709503173828125</LatitudeDegrees>
              <LongitudeDegrees>2.8960908763110637664794921875</LongitudeDegrees>
            </Position>
            <AltitudeMeters>410.20001220703125</AltitudeMeters>
            <DistanceMeters>NAN</DistanceMeters>
          </Trackpoint>
          <Trackpoint>
            <Time>2020-02-15T10:47:54.000Z</Time>
            <Position>
              <LatitudeDegrees>41.9762912951409816741943359375</LatitudeDegrees>
              <LongitudeDegrees>2.89607838727533817291259765625</LongitudeDegrees>
            </Position>
            <AltitudeMeters>410.399993896484375</AltitudeMeters>
            <DistanceMeters>NAN</DistanceMeters>
          </Trackpoint>
          <Trackpoint>
            <Time>2020-02-15T10:47:55.000Z</Time>
            <Position>
              <LatitudeDegrees>41.97631836868822574615478515625</LatitudeDegrees>
              <LongitudeDegrees>2.896063886582851409912109375</LongitudeDegrees>
            </Position>
            <AltitudeMeters>410.399993896484375</AltitudeMeters>
            <DistanceMeters>NAN</DistanceMeters>
          </Trackpoint>
          <Trackpoint>
            <Time>2020-02-15T10:47:56.000Z</Time>
            <Position>
              <LatitudeDegrees>41.9763524830341339111328125</LatitudeDegrees>
              <LongitudeDegrees>2.89604703895747661590576171875</LongitudeDegrees>
            </Position>
            <AltitudeMeters>410.600006103515625</AltitudeMeters>
            <DistanceMeters>NAN</DistanceMeters>
          </Trackpoint>
          <Trackpoint>
            <Time>2020-02-15T10:47:57.000Z</Time>
            <Position>
              <LatitudeDegrees>41.976383663713932037353515625</LatitudeDegrees>
              <LongitudeDegrees>2.8960280120372772216796875</LongitudeDegrees>
            </Position>
            <AltitudeMeters>410.79998779296875</AltitudeMeters>
            <DistanceMeters>NAN</DistanceMeters>
          </Trackpoint>
          <Trackpoint>
            <Time>2020-02-15T10:47:58.000Z</Time>
            <Position>
              <LatitudeDegrees>41.97641216218471527099609375</LatitudeDegrees>
              <LongitudeDegrees>2.89600848220288753509521484375</LongitudeDegrees>
            </Position>
            <AltitudeMeters>411</AltitudeMeters>
            <DistanceMeters>NAN</DistanceMeters>
          </Trackpoint>
          <Trackpoint>
            <Time>2020-02-15T10:47:59.000Z</Time>
            <Position>
              <LatitudeDegrees>41.976439990103244781494140625</LatitudeDegrees>
              <LongitudeDegrees>2.895987443625926971435546875</LongitudeDegrees>
            </Position>
            <AltitudeMeters>411</AltitudeMeters>
            <DistanceMeters>NAN</DistanceMeters>
          </Trackpoint>
          <Trackpoint>
            <Time>2020-02-15T10:48:00.000Z</Time>
            <Position>
              <LatitudeDegrees>41.97646589018404483795166015625</LatitudeDegrees>
              <LongitudeDegrees>2.89596623741090297698974609375</LongitudeDegrees>
            </Position>
            <AltitudeMeters>411</AltitudeMeters>
            <DistanceMeters>NAN</DistanceMeters>
          </Trackpoint>
          <Trackpoint>
            <Time>2020-02-15T10:48:01.000Z</Time>
            <Position>
              <LatitudeDegrees>41.97649061679840087890625</LatitudeDegrees>
              <LongitudeDegrees>2.8959436900913715362548828125</LongitudeDegrees>
            </Position>
            <AltitudeMeters>411.20001220703125</AltitudeMeters>
            <DistanceMeters>NAN</DistanceMeters>
          </Trackpoint>
          <Trackpoint>
            <Time>2020-02-15T10:48:02.000Z</Time>
            <Position>
              <LatitudeDegrees>41.976514421403408050537109375</LatitudeDegrees>
              <LongitudeDegrees>2.89592348970472812652587890625</LongitudeDegrees>
            </Position>
            <AltitudeMeters>411.20001220703125</AltitudeMeters>
            <DistanceMeters>NAN</DistanceMeters>
          </Trackpoint>
          <Trackpoint>
            <Time>2020-02-15T10:48:03.000Z</Time>
            <Position>
              <LatitudeDegrees>41.9765363819897174835205078125</LatitudeDegrees>
              <LongitudeDegrees>2.89590186439454555511474609375</LongitudeDegrees>
            </Position>
            <AltitudeMeters>411.600006103515625</AltitudeMeters>
            <DistanceMeters>NAN</DistanceMeters>
          </Trackpoint>
          <Trackpoint>
            <Time>2020-02-15T10:48:04.000Z</Time>
            <Position>
              <LatitudeDegrees>41.97655968368053436279296875</LatitudeDegrees>
              <LongitudeDegrees>2.8958806581795215606689453125</LongitudeDegrees>
            </Position>
            <AltitudeMeters>411.600006103515625</AltitudeMeters>
            <DistanceMeters>NAN</DistanceMeters>
          </Trackpoint>
          <Trackpoint>
            <Time>2020-02-15T10:48:05.000Z</Time>
            <Position>
              <LatitudeDegrees>41.97658290155231952667236328125</LatitudeDegrees>
              <LongitudeDegrees>2.8958598710596561431884765625</LongitudeDegrees>
            </Position>
            <AltitudeMeters>412</AltitudeMeters>
            <DistanceMeters>NAN</DistanceMeters>
          </Trackpoint>
          <Trackpoint>
            <Time>2020-02-15T10:48:06.000Z</Time>
            <Position>
              <LatitudeDegrees>41.97660469450056552886962890625</LatitudeDegrees>
              <LongitudeDegrees>2.89583983831107616424560546875</LongitudeDegrees>
            </Position>
            <AltitudeMeters>412</AltitudeMeters>
            <DistanceMeters>NAN</DistanceMeters>
          </Trackpoint>
          <Trackpoint>
            <Time>2020-02-15T10:48:07.000Z</Time>
            <Position>
              <LatitudeDegrees>41.9766289182007312774658203125</LatitudeDegrees>
              <LongitudeDegrees>2.89581947028636932373046875</LongitudeDegrees>
            </Position>
            <AltitudeMeters>412</AltitudeMeters>
            <DistanceMeters>NAN</DistanceMeters>
          </Trackpoint>
          <Trackpoint>
            <Time>2020-02-15T10:48:08.000Z</Time>
            <Position>
              <LatitudeDegrees>41.97665364481508731842041015625</LatitudeDegrees>
              <LongitudeDegrees>2.89579960517585277557373046875</LongitudeDegrees>
            </Position>
            <AltitudeMeters>412</AltitudeMeters>
            <DistanceMeters>NAN</DistanceMeters>
          </Trackpoint>
          <Trackpoint>
            <Time>2020-02-15T10:48:09.000Z</Time>
            <Position>
              <LatitudeDegrees>41.97668038308620452880859375</LatitudeDegrees>
              <LongitudeDegrees>2.895784266293048858642578125</LongitudeDegrees>
            </Position>
            <AltitudeMeters>412.20001220703125</AltitudeMeters>
            <DistanceMeters>NAN</DistanceMeters>
          </Trackpoint>
          <Trackpoint>
            <Time>2020-02-15T10:48:10.000Z</Time>
            <Position>
              <LatitudeDegrees>41.97670510970056056976318359375</LatitudeDegrees>
              <LongitudeDegrees>2.8957673348486423492431640625</LongitudeDegrees>
            </Position>
            <AltitudeMeters>412.399993896484375</AltitudeMeters>
            <DistanceMeters>NAN</DistanceMeters>
          </Trackpoint>
          <Trackpoint>
            <Time>2020-02-15T10:48:11.000Z</Time>
            <Position>
              <LatitudeDegrees>41.97672866284847259521484375</LatitudeDegrees>
              <LongitudeDegrees>2.8957522474229335784912109375</LongitudeDegrees>
            </Position>
            <AltitudeMeters>412.399993896484375</AltitudeMeters>
            <DistanceMeters>NAN</DistanceMeters>
          </Trackpoint>
          <Trackpoint>
            <Time>2020-02-15T10:48:12.000Z</Time>
            <Position>
              <LatitudeDegrees>41.97675204835832118988037109375</LatitudeDegrees>
              <LongitudeDegrees>2.89573498070240020751953125</LongitudeDegrees>
            </Position>
            <AltitudeMeters>412.399993896484375</AltitudeMeters>
            <DistanceMeters>NAN</DistanceMeters>
          </Trackpoint>
          <Trackpoint>
            <Time>2020-02-15T10:48:13.000Z</Time>
            <Position>
              <LatitudeDegrees>41.97677635587751865386962890625</LatitudeDegrees>
              <LongitudeDegrees>2.89572182111442089080810546875</LongitudeDegrees>
            </Position>
            <AltitudeMeters>412.79998779296875</AltitudeMeters>
            <DistanceMeters>NAN</DistanceMeters>
          </Trackpoint>
          <Trackpoint>
            <Time>2020-02-15T10:48:14.000Z</Time>
            <Position>
              <LatitudeDegrees>41.97680242359638214111328125</LatitudeDegrees>
              <LongitudeDegrees>2.89571109227836132049560546875</LongitudeDegrees>
            </Position>
            <AltitudeMeters>413</AltitudeMeters>
            <DistanceMeters>NAN</DistanceMeters>
          </Trackpoint>
          <Trackpoint>
            <Time>2020-02-15T10:48:15.000Z</Time>
            <Position>
              <LatitudeDegrees>41.97682849131524562835693359375</LatitudeDegrees>
              <LongitudeDegrees>2.89570053108036518096923828125</LongitudeDegrees>
            </Position>
            <AltitudeMeters>413.20001220703125</AltitudeMeters>
            <DistanceMeters>NAN</DistanceMeters>
          </Trackpoint>
          <Trackpoint>
            <Time>2020-02-15T10:48:16.000Z</Time>
            <Position>
              <LatitudeDegrees>41.976854391396045684814453125</LatitudeDegrees>
              <LongitudeDegrees>2.8956945799291133880615234375</LongitudeDegrees>
            </Position>
            <AltitudeMeters>413.399993896484375</AltitudeMeters>
            <DistanceMeters>NAN</DistanceMeters>
          </Trackpoint>
          <Trackpoint>
            <Time>2020-02-15T10:48:17.000Z</Time>
            <Position>
              <LatitudeDegrees>41.97687928564846515655517578125</LatitudeDegrees>
              <LongitudeDegrees>2.8956900537014007568359375</LongitudeDegrees>
            </Position>
            <AltitudeMeters>413.79998779296875</AltitudeMeters>
            <DistanceMeters>NAN</DistanceMeters>
          </Trackpoint>
          <Trackpoint>
            <Time>2020-02-15T10:48:18.000Z</Time>
            <Position>
              <LatitudeDegrees>41.9769025035202503204345703125</LatitudeDegrees>
              <LongitudeDegrees>2.89568980224430561065673828125</LongitudeDegrees>
            </Position>
            <AltitudeMeters>413.79998779296875</AltitudeMeters>
            <DistanceMeters>NAN</DistanceMeters>
          </Trackpoint>
          <Trackpoint>
            <Time>2020-02-15T10:48:19.000Z</Time>
            <Position>
              <LatitudeDegrees>41.97692580521106719970703125</LatitudeDegrees>
              <LongitudeDegrees>2.8956982679665088653564453125</LongitudeDegrees>
            </Position>
            <AltitudeMeters>414</AltitudeMeters>
            <DistanceMeters>NAN</DistanceMeters>
          </Trackpoint>
          <Trackpoint>
            <Time>2020-02-15T10:48:20.000Z</Time>
            <Position>
              <LatitudeDegrees>41.9769487716257572174072265625</LatitudeDegrees>
              <LongitudeDegrees>2.895708493888378143310546875</LongitudeDegrees>
            </Position>
            <AltitudeMeters>414</AltitudeMeters>
            <DistanceMeters>NAN</DistanceMeters>
          </Trackpoint>
          <Trackpoint>
            <Time>2020-02-15T10:48:21.000Z</Time>
            <Position>
              <LatitudeDegrees>41.97697031311690807342529296875</LatitudeDegrees>
              <LongitudeDegrees>2.89572198875248432159423828125</LongitudeDegrees>
            </Position>
            <AltitudeMeters>414</AltitudeMeters>
            <DistanceMeters>NAN</DistanceMeters>
          </Trackpoint>
          <Trackpoint>
            <Time>2020-02-15T10:48:22.000Z</Time>
            <Position>
              <LatitudeDegrees>41.976992525160312652587890625</LatitudeDegrees>
              <LongitudeDegrees>2.89573657326400279998779296875</LongitudeDegrees>
            </Position>
            <AltitudeMeters>414.399993896484375</AltitudeMeters>
            <DistanceMeters>NAN</DistanceMeters>
          </Trackpoint>
          <Trackpoint>
            <Time>2020-02-15T10:48:23.000Z</Time>
            <Position>
              <LatitudeDegrees>41.97701138444244861602783203125</LatitudeDegrees>
              <LongitudeDegrees>2.89575509727001190185546875</LongitudeDegrees>
            </Position>
            <AltitudeMeters>414.399993896484375</AltitudeMeters>
            <DistanceMeters>NAN</DistanceMeters>
          </Trackpoint>
          <Trackpoint>
            <Time>2020-02-15T10:48:24.000Z</Time>
            <Position>
              <LatitudeDegrees>41.977025382220745086669921875</LatitudeDegrees>
              <LongitudeDegrees>2.8957758843898773193359375</LongitudeDegrees>
            </Position>
            <AltitudeMeters>414.79998779296875</AltitudeMeters>
            <DistanceMeters>NAN</DistanceMeters>
          </Trackpoint>
          <Trackpoint>
            <Time>2020-02-15T10:48:25.000Z</Time>
            <Position>
              <LatitudeDegrees>41.97704440914094448089599609375</LatitudeDegrees>
              <LongitudeDegrees>2.8957998566329479217529296875</LongitudeDegrees>
            </Position>
            <AltitudeMeters>414.600006103515625</AltitudeMeters>
            <DistanceMeters>NAN</DistanceMeters>
          </Trackpoint>
          <Trackpoint>
            <Time>2020-02-15T10:48:26.000Z</Time>
            <Position>
              <LatitudeDegrees>41.977063603699207305908203125</LatitudeDegrees>
              <LongitudeDegrees>2.89582592435181140899658203125</LongitudeDegrees>
            </Position>
            <AltitudeMeters>415</AltitudeMeters>
            <DistanceMeters>NAN</DistanceMeters>
          </Trackpoint>
          <Trackpoint>
            <Time>2020-02-15T10:48:27.000Z</Time>
            <Position>
              <LatitudeDegrees>41.977082379162311553955078125</LatitudeDegrees>
              <LongitudeDegrees>2.89585341699421405792236328125</LongitudeDegrees>
            </Position>
            <AltitudeMeters>415.20001220703125</AltitudeMeters>
            <DistanceMeters>NAN</DistanceMeters>
          </Trackpoint>
          <Trackpoint>
            <Time>2020-02-15T10:48:28.000Z</Time>
            <Position>
              <LatitudeDegrees>41.9771016575396060943603515625</LatitudeDegrees>
              <LongitudeDegrees>2.8958789817988872528076171875</LongitudeDegrees>
            </Position>
            <AltitudeMeters>415.20001220703125</AltitudeMeters>
            <DistanceMeters>NAN</DistanceMeters>
          </Trackpoint>
          <Trackpoint>
            <Time>2020-02-15T10:48:29.000Z</Time>
            <Position>
              <LatitudeDegrees>41.97711800225079059600830078125</LatitudeDegrees>
              <LongitudeDegrees>2.8959031216800212860107421875</LongitudeDegrees>
            </Position>
            <AltitudeMeters>415.399993896484375</AltitudeMeters>
            <DistanceMeters>NAN</DistanceMeters>
          </Trackpoint>
          <Trackpoint>
            <Time>2020-02-15T10:48:30.000Z</Time>
            <Position>
              <LatitudeDegrees>41.9771328382194042205810546875</LatitudeDegrees>
              <LongitudeDegrees>2.89592675864696502685546875</LongitudeDegrees>
            </Position>
            <AltitudeMeters>415.600006103515625</AltitudeMeters>
            <DistanceMeters>NAN</DistanceMeters>
          </Trackpoint>
          <Trackpoint>
            <Time>2020-02-15T10:48:31.000Z</Time>
            <Position>
              <LatitudeDegrees>41.97714918293058872222900390625</LatitudeDegrees>
              <LongitudeDegrees>2.8959500603377819061279296875</LongitudeDegrees>
            </Position>
            <AltitudeMeters>415.600006103515625</AltitudeMeters>
            <DistanceMeters>NAN</DistanceMeters>
          </Trackpoint>
          <Trackpoint>
            <Time>2020-02-15T10:48:32.000Z</Time>
            <Position>
              <LatitudeDegrees>41.97716896422207355499267578125</LatitudeDegrees>
              <LongitudeDegrees>2.895972691476345062255859375</LongitudeDegrees>
            </Position>
            <AltitudeMeters>415.79998779296875</AltitudeMeters>
            <DistanceMeters>NAN</DistanceMeters>
          </Trackpoint>
          <Trackpoint>
            <Time>2020-02-15T10:48:33.000Z</Time>
            <Position>
              <LatitudeDegrees>41.97718874551355838775634765625</LatitudeDegrees>
              <LongitudeDegrees>2.89599507115781307220458984375</LongitudeDegrees>
            </Position>
            <AltitudeMeters>415.79998779296875</AltitudeMeters>
            <DistanceMeters>NAN</DistanceMeters>
          </Trackpoint>
          <Trackpoint>
            <Time>2020-02-15T10:48:34.000Z</Time>
            <Position>
              <LatitudeDegrees>41.9772096164524555206298828125</LatitudeDegrees>
              <LongitudeDegrees>2.89601786993443965911865234375</LongitudeDegrees>
            </Position>
            <AltitudeMeters>416.20001220703125</AltitudeMeters>
            <DistanceMeters>NAN</DistanceMeters>
          </Trackpoint>
          <Trackpoint>
            <Time>2020-02-15T10:48:35.000Z</Time>
            <Position>
              <LatitudeDegrees>41.97723115794360637664794921875</LatitudeDegrees>
              <LongitudeDegrees>2.896041087806224822998046875</LongitudeDegrees>
            </Position>
            <AltitudeMeters>416.399993896484375</AltitudeMeters>
            <DistanceMeters>NAN</DistanceMeters>
          </Trackpoint>
          <Trackpoint>
            <Time>2020-02-15T10:48:36.000Z</Time>
            <Position>
              <LatitudeDegrees>41.9772538729012012481689453125</LatitudeDegrees>
              <LongitudeDegrees>2.89606464095413684844970703125</LongitudeDegrees>
            </Position>
            <AltitudeMeters>416.600006103515625</AltitudeMeters>
            <DistanceMeters>NAN</DistanceMeters>
          </Trackpoint>
          <Trackpoint>
            <Time>2020-02-15T10:48:37.000Z</Time>
            <Position>
              <LatitudeDegrees>41.97727390564978122711181640625</LatitudeDegrees>
              <LongitudeDegrees>2.89608693681657314300537109375</LongitudeDegrees>
            </Position>
            <AltitudeMeters>417</AltitudeMeters>
            <DistanceMeters>NAN</DistanceMeters>
          </Trackpoint>
          <Trackpoint>
            <Time>2020-02-15T10:48:38.000Z</Time>
            <Position>
              <LatitudeDegrees>41.977294944226741790771484375</LatitudeDegrees>
              <LongitudeDegrees>2.89610906504094600677490234375</LongitudeDegrees>
            </Position>
            <AltitudeMeters>417</AltitudeMeters>
            <DistanceMeters>NAN</DistanceMeters>
          </Trackpoint>
          <Trackpoint>
            <Time>2020-02-15T10:48:39.000Z</Time>
            <Position>
              <LatitudeDegrees>41.97731581516563892364501953125</LatitudeDegrees>
              <LongitudeDegrees>2.89612934924662113189697265625</LongitudeDegrees>
            </Position>
            <AltitudeMeters>417.20001220703125</AltitudeMeters>
            <DistanceMeters>NAN</DistanceMeters>
          </Trackpoint>
          <Trackpoint>
            <Time>2020-02-15T10:48:40.000Z</Time>
            <Position>
              <LatitudeDegrees>41.97733593173325061798095703125</LatitudeDegrees>
              <LongitudeDegrees>2.8961460292339324951171875</LongitudeDegrees>
            </Position>
            <AltitudeMeters>417.399993896484375</AltitudeMeters>
            <DistanceMeters>NAN</DistanceMeters>
          </Trackpoint>
          <Trackpoint>
            <Time>2020-02-15T10:48:41.000Z</Time>
            <Position>
              <LatitudeDegrees>41.97735764086246490478515625</LatitudeDegrees>
              <LongitudeDegrees>2.896161116659641265869140625</LongitudeDegrees>
            </Position>
            <AltitudeMeters>417.600006103515625</AltitudeMeters>
            <DistanceMeters>NAN</DistanceMeters>
          </Trackpoint>
          <Trackpoint>
            <Time>2020-02-15T10:48:42.000Z</Time>
            <Position>
              <LatitudeDegrees>41.9773816131055355072021484375</LatitudeDegrees>
              <LongitudeDegrees>2.89617662318050861358642578125</LongitudeDegrees>
            </Position>
            <AltitudeMeters>417.79998779296875</AltitudeMeters>
            <DistanceMeters>NAN</DistanceMeters>
          </Trackpoint>
          <Trackpoint>
            <Time>2020-02-15T10:48:43.000Z</Time>
            <Position>
              <LatitudeDegrees>41.977407597005367279052734375</LatitudeDegrees>
              <LongitudeDegrees>2.89619363844394683837890625</LongitudeDegrees>
            </Position>
            <AltitudeMeters>418.20001220703125</AltitudeMeters>
            <DistanceMeters>NAN</DistanceMeters>
          </Trackpoint>
          <Trackpoint>
            <Time>2020-02-15T10:48:45.000Z</Time>
            <Position>
              <LatitudeDegrees>41.97745495475828647613525390625</LatitudeDegrees>
              <LongitudeDegrees>2.89623177610337734222412109375</LongitudeDegrees>
            </Position>
            <AltitudeMeters>418.399993896484375</AltitudeMeters>
            <DistanceMeters>NAN</DistanceMeters>
          </Trackpoint>
          <Trackpoint>
            <Time>2020-02-15T10:48:46.000Z</Time>
            <Position>
              <LatitudeDegrees>41.97747708298265933990478515625</LatitudeDegrees>
              <LongitudeDegrees>2.89624719880521297454833984375</LongitudeDegrees>
            </Position>
            <AltitudeMeters>418.399993896484375</AltitudeMeters>
            <DistanceMeters>NAN</DistanceMeters>
          </Trackpoint>
          <Trackpoint>
            <Time>2020-02-15T10:48:47.000Z</Time>
            <Position>
              <LatitudeDegrees>41.97749770246446132659912109375</LatitudeDegrees>
              <LongitudeDegrees>2.8962605260312557220458984375</LongitudeDegrees>
            </Position>
            <AltitudeMeters>418.399993896484375</AltitudeMeters>
            <DistanceMeters>NAN</DistanceMeters>
          </Trackpoint>
          <Trackpoint>
            <Time>2020-02-15T10:48:48.000Z</Time>
            <Position>
              <LatitudeDegrees>41.97751547209918498992919921875</LatitudeDegrees>
              <LongitudeDegrees>2.89627502672374248504638671875</LongitudeDegrees>
            </Position>
            <AltitudeMeters>418.600006103515625</AltitudeMeters>
            <DistanceMeters>NAN</DistanceMeters>
          </Trackpoint>
          <Trackpoint>
            <Time>2020-02-15T10:48:49.000Z</Time>
            <Position>
              <LatitudeDegrees>41.9775348342955112457275390625</LatitudeDegrees>
              <LongitudeDegrees>2.896289527416229248046875</LongitudeDegrees>
            </Position>
            <AltitudeMeters>418.79998779296875</AltitudeMeters>
            <DistanceMeters>NAN</DistanceMeters>
          </Trackpoint>
          <Trackpoint>
            <Time>2020-02-15T10:48:50.000Z</Time>
            <Position>
              <LatitudeDegrees>41.977560482919216156005859375</LatitudeDegrees>
              <LongitudeDegrees>2.89630419574677944183349609375</LongitudeDegrees>
            </Position>
            <AltitudeMeters>418.79998779296875</AltitudeMeters>
            <DistanceMeters>NAN</DistanceMeters>
          </Trackpoint>
          <Trackpoint>
            <Time>2020-02-15T10:48:53.000Z</Time>
            <Position>
              <LatitudeDegrees>41.97764975018799304962158203125</LatitudeDegrees>
              <LongitudeDegrees>2.89634644053876399993896484375</LongitudeDegrees>
            </Position>
            <AltitudeMeters>419</AltitudeMeters>
            <DistanceMeters>NAN</DistanceMeters>
          </Trackpoint>
          <Trackpoint>
            <Time>2020-02-15T10:48:58.000Z</Time>
            <Position>
              <LatitudeDegrees>41.9778137840330600738525390625</LatitudeDegrees>
              <LongitudeDegrees>2.89645456708967685699462890625</LongitudeDegrees>
            </Position>
            <AltitudeMeters>419.20001220703125</AltitudeMeters>
            <DistanceMeters>NAN</DistanceMeters>
          </Trackpoint>
          <Trackpoint>
            <Time>2020-02-15T10:48:59.000Z</Time>
            <Position>
              <LatitudeDegrees>41.97784739546477794647216796875</LatitudeDegrees>
              <LongitudeDegrees>2.89648842997848987579345703125</LongitudeDegrees>
            </Position>
            <AltitudeMeters>419.20001220703125</AltitudeMeters>
            <DistanceMeters>NAN</DistanceMeters>
          </Trackpoint>
          <Trackpoint>
            <Time>2020-02-15T10:49:00.000Z</Time>
            <Position>
              <LatitudeDegrees>41.97788259945809841156005859375</LatitudeDegrees>
              <LongitudeDegrees>2.896523885428905487060546875</LongitudeDegrees>
            </Position>
            <AltitudeMeters>419</AltitudeMeters>
            <DistanceMeters>NAN</DistanceMeters>
          </Trackpoint>
          <Trackpoint>
            <Time>2020-02-15T10:49:01.000Z</Time>
            <Position>
              <LatitudeDegrees>41.97791562415659427642822265625</LatitudeDegrees>
              <LongitudeDegrees>2.89656302891671657562255859375</LongitudeDegrees>
            </Position>
            <AltitudeMeters>419</AltitudeMeters>
            <DistanceMeters>NAN</DistanceMeters>
          </Trackpoint>
          <Trackpoint>
            <Time>2020-02-15T10:49:02.000Z</Time>
            <Position>
              <LatitudeDegrees>41.977948732674121856689453125</LatitudeDegrees>
              <LongitudeDegrees>2.896603010594844818115234375</LongitudeDegrees>
            </Position>
            <AltitudeMeters>419.20001220703125</AltitudeMeters>
            <DistanceMeters>NAN</DistanceMeters>
          </Trackpoint>
          <Trackpoint>
            <Time>2020-02-15T10:49:04.000Z</Time>
            <Position>
              <LatitudeDegrees>41.97801453061401844024658203125</LatitudeDegrees>
              <LongitudeDegrees>2.8966755978763103485107421875</LongitudeDegrees>
            </Position>
            <AltitudeMeters>419</AltitudeMeters>
            <DistanceMeters>NAN</DistanceMeters>
          </Trackpoint>
          <Trackpoint>
            <Time>2020-02-15T10:49:05.000Z</Time>
            <Position>
              <LatitudeDegrees>41.97804571129381656646728515625</LatitudeDegrees>
              <LongitudeDegrees>2.8967128135263919830322265625</LongitudeDegrees>
            </Position>
            <AltitudeMeters>419</AltitudeMeters>
            <DistanceMeters>NAN</DistanceMeters>
          </Trackpoint>
          <Trackpoint>
            <Time>2020-02-15T10:49:06.000Z</Time>
            <Position>
              <LatitudeDegrees>41.97807705961167812347412109375</LatitudeDegrees>
              <LongitudeDegrees>2.89674843661487102508544921875</LongitudeDegrees>
            </Position>
            <AltitudeMeters>419</AltitudeMeters>
            <DistanceMeters>NAN</DistanceMeters>
          </Trackpoint>
          <Trackpoint>
            <Time>2020-02-15T10:49:07.000Z</Time>
            <Position>
              <LatitudeDegrees>41.97810723446309566497802734375</LatitudeDegrees>
              <LongitudeDegrees>2.89677836000919342041015625</LongitudeDegrees>
            </Position>
            <AltitudeMeters>418.600006103515625</AltitudeMeters>
            <DistanceMeters>NAN</DistanceMeters>
          </Trackpoint>
          <Trackpoint>
            <Time>2020-02-15T10:49:08.000Z</Time>
            <Position>
              <LatitudeDegrees>41.97813439182937145233154296875</LatitudeDegrees>
              <LongitudeDegrees>2.89680375717580318450927734375</LongitudeDegrees>
            </Position>
            <AltitudeMeters>418.79998779296875</AltitudeMeters>
            <DistanceMeters>NAN</DistanceMeters>
          </Trackpoint>
          <Trackpoint>
            <Time>2020-02-15T10:49:09.000Z</Time>
            <Position>
              <LatitudeDegrees>41.9781611301004886627197265625</LatitudeDegrees>
              <LongitudeDegrees>2.8968291543424129486083984375</LongitudeDegrees>
            </Position>
            <AltitudeMeters>418.600006103515625</AltitudeMeters>
            <DistanceMeters>NAN</DistanceMeters>
          </Trackpoint>
          <Trackpoint>
            <Time>2020-02-15T10:49:10.000Z</Time>
            <Position>
              <LatitudeDegrees>41.9781923107802867889404296875</LatitudeDegrees>
              <LongitudeDegrees>2.89685103110969066619873046875</LongitudeDegrees>
            </Position>
            <AltitudeMeters>418.399993896484375</AltitudeMeters>
            <DistanceMeters>NAN</DistanceMeters>
          </Trackpoint>
          <Trackpoint>
            <Time>2020-02-15T10:49:11.000Z</Time>
            <Position>
              <LatitudeDegrees>41.97822273708879947662353515625</LatitudeDegrees>
              <LongitudeDegrees>2.89686695672571659088134765625</LongitudeDegrees>
            </Position>
            <AltitudeMeters>418.399993896484375</AltitudeMeters>
            <DistanceMeters>NAN</DistanceMeters>
          </Trackpoint>
          <Trackpoint>
            <Time>2020-02-15T10:49:12.000Z</Time>
            <Position>
              <LatitudeDegrees>41.97825341485440731048583984375</LatitudeDegrees>
              <LongitudeDegrees>2.896879613399505615234375</LongitudeDegrees>
            </Position>
            <AltitudeMeters>418.399993896484375</AltitudeMeters>
            <DistanceMeters>NAN</DistanceMeters>
          </Trackpoint>
          <Trackpoint>
            <Time>2020-02-15T10:49:13.000Z</Time>
            <Position>
              <LatitudeDegrees>41.9782863557338714599609375</LatitudeDegrees>
              <LongitudeDegrees>2.896887995302677154541015625</LongitudeDegrees>
            </Position>
            <AltitudeMeters>418</AltitudeMeters>
            <DistanceMeters>NAN</DistanceMeters>
          </Trackpoint>
          <Trackpoint>
            <Time>2020-02-15T10:49:14.000Z</Time>
            <Position>
              <LatitudeDegrees>41.978320889174938201904296875</LatitudeDegrees>
              <LongitudeDegrees>2.8968972153961658477783203125</LongitudeDegrees>
            </Position>
            <AltitudeMeters>418</AltitudeMeters>
            <DistanceMeters>NAN</DistanceMeters>
          </Trackpoint>
          <Trackpoint>
            <Time>2020-02-15T10:49:16.000Z</Time>
            <Position>
              <LatitudeDegrees>41.978385262191295623779296875</LatitudeDegrees>
              <LongitudeDegrees>2.8969146497547626495361328125</LongitudeDegrees>
            </Position>
            <AltitudeMeters>417.79998779296875</AltitudeMeters>
            <DistanceMeters>NAN</DistanceMeters>
          </Trackpoint>
          <Trackpoint>
            <Time>2020-02-15T10:49:17.000Z</Time>
            <Position>
              <LatitudeDegrees>41.9784182868897914886474609375</LatitudeDegrees>
              <LongitudeDegrees>2.89692294783890247344970703125</LongitudeDegrees>
            </Position>
            <AltitudeMeters>417.600006103515625</AltitudeMeters>
            <DistanceMeters>NAN</DistanceMeters>
          </Trackpoint>
          <Trackpoint>
            <Time>2020-02-15T10:49:18.000Z</Time>
            <Position>
              <LatitudeDegrees>41.97845005430281162261962890625</LatitudeDegrees>
              <LongitudeDegrees>2.8969364427030086517333984375</LongitudeDegrees>
            </Position>
            <AltitudeMeters>417.600006103515625</AltitudeMeters>
            <DistanceMeters>NAN</DistanceMeters>
          </Trackpoint>
          <Trackpoint>
            <Time>2020-02-15T10:49:19.000Z</Time>
            <Position>
              <LatitudeDegrees>41.97848006151616573333740234375</LatitudeDegrees>
              <LongitudeDegrees>2.89695932529866695404052734375</LongitudeDegrees>
            </Position>
            <AltitudeMeters>417.600006103515625</AltitudeMeters>
            <DistanceMeters>NAN</DistanceMeters>
          </Trackpoint>
          <Trackpoint>
            <Time>2020-02-15T10:49:20.000Z</Time>
            <Position>
              <LatitudeDegrees>41.97850638069212436676025390625</LatitudeDegrees>
              <LongitudeDegrees>2.896987907588481903076171875</LongitudeDegrees>
            </Position>
            <AltitudeMeters>417.399993896484375</AltitudeMeters>
            <DistanceMeters>NAN</DistanceMeters>
          </Trackpoint>
          <Trackpoint>
            <Time>2020-02-15T10:49:21.000Z</Time>
            <Position>
              <LatitudeDegrees>41.9785326160490512847900390625</LatitudeDegrees>
              <LongitudeDegrees>2.89702109992504119873046875</LongitudeDegrees>
            </Position>
            <AltitudeMeters>417.399993896484375</AltitudeMeters>
            <DistanceMeters>NAN</DistanceMeters>
          </Trackpoint>
          <Trackpoint>
            <Time>2020-02-15T10:49:23.000Z</Time>
            <Position>
              <LatitudeDegrees>41.97858299128711223602294921875</LatitudeDegrees>
              <LongitudeDegrees>2.897099219262599945068359375</LongitudeDegrees>
            </Position>
            <AltitudeMeters>417.399993896484375</AltitudeMeters>
            <DistanceMeters>NAN</DistanceMeters>
          </Trackpoint>
          <Trackpoint>
            <Time>2020-02-15T10:49:25.000Z</Time>
            <Position>
              <LatitudeDegrees>41.9786298461258411407470703125</LatitudeDegrees>
              <LongitudeDegrees>2.89718714542686939239501953125</LongitudeDegrees>
            </Position>
            <AltitudeMeters>417.399993896484375</AltitudeMeters>
            <DistanceMeters>NAN</DistanceMeters>
          </Trackpoint>
          <Trackpoint>
            <Time>2020-02-15T10:49:27.000Z</Time>
            <Position>
              <LatitudeDegrees>41.97867116890847682952880859375</LatitudeDegrees>
              <LongitudeDegrees>2.8972834534943103790283203125</LongitudeDegrees>
            </Position>
            <AltitudeMeters>417.20001220703125</AltitudeMeters>
            <DistanceMeters>NAN</DistanceMeters>
          </Trackpoint>
          <Trackpoint>
            <Time>2020-02-15T10:49:31.000Z</Time>
            <Position>
              <LatitudeDegrees>41.97874476201832294464111328125</LatitudeDegrees>
              <LongitudeDegrees>2.8974809311330318450927734375</LongitudeDegrees>
            </Position>
            <AltitudeMeters>417</AltitudeMeters>
            <DistanceMeters>NAN</DistanceMeters>
          </Trackpoint>
          <Trackpoint>
            <Time>2020-02-15T10:49:33.000Z</Time>
            <Position>
              <LatitudeDegrees>41.9787840731441974639892578125</LatitudeDegrees>
              <LongitudeDegrees>2.89758981205523014068603515625</LongitudeDegrees>
            </Position>
            <AltitudeMeters>416.79998779296875</AltitudeMeters>
            <DistanceMeters>NAN</DistanceMeters>
          </Trackpoint>
          <Trackpoint>
            <Time>2020-02-15T10:49:36.000Z</Time>
            <Position>
              <LatitudeDegrees>41.9788645394146442413330078125</LatitudeDegrees>
              <LongitudeDegrees>2.897737920284271240234375</LongitudeDegrees>
            </Position>
            <AltitudeMeters>416.600006103515625</AltitudeMeters>
            <DistanceMeters>NAN</DistanceMeters>
          </Trackpoint>
          <Trackpoint>
            <Time>2020-02-15T10:49:37.000Z</Time>
            <Position>
              <LatitudeDegrees>41.97889546863734722137451171875</LatitudeDegrees>
              <LongitudeDegrees>2.8977794945240020751953125</LongitudeDegrees>
            </Position>
            <AltitudeMeters>416.600006103515625</AltitudeMeters>
            <DistanceMeters>NAN</DistanceMeters>
          </Trackpoint>
          <Trackpoint>
            <Time>2020-02-15T10:49:38.000Z</Time>
            <Position>
              <LatitudeDegrees>41.9789305888116359710693359375</LatitudeDegrees>
              <LongitudeDegrees>2.89782308042049407958984375</LongitudeDegrees>
            </Position>
            <AltitudeMeters>416.399993896484375</AltitudeMeters>
            <DistanceMeters>NAN</DistanceMeters>
          </Trackpoint>
          <Trackpoint>
            <Time>2020-02-15T10:49:40.000Z</Time>
            <Position>
              <LatitudeDegrees>41.9790150783956050872802734375</LatitudeDegrees>
              <LongitudeDegrees>2.897920310497283935546875</LongitudeDegrees>
            </Position>
            <AltitudeMeters>416.399993896484375</AltitudeMeters>
            <DistanceMeters>NAN</DistanceMeters>
          </Trackpoint>
          <Trackpoint>
            <Time>2020-02-15T10:49:43.000Z</Time>
            <Position>
              <LatitudeDegrees>41.97916033677756786346435546875</LatitudeDegrees>
              <LongitudeDegrees>2.8980839252471923828125</LongitudeDegrees>
            </Position>
            <AltitudeMeters>416</AltitudeMeters>
            <DistanceMeters>NAN</DistanceMeters>
          </Trackpoint>
          <Trackpoint>
            <Time>2020-02-15T10:49:45.000Z</Time>
            <Position>
              <LatitudeDegrees>41.97926544584333896636962890625</LatitudeDegrees>
              <LongitudeDegrees>2.8981809876859188079833984375</LongitudeDegrees>
            </Position>
            <AltitudeMeters>415.399993896484375</AltitudeMeters>
            <DistanceMeters>NAN</DistanceMeters>
          </Trackpoint>
          <Trackpoint>
            <Time>2020-02-15T10:49:46.000Z</Time>
            <Position>
              <LatitudeDegrees>41.97932143695652484893798828125</LatitudeDegrees>
              <LongitudeDegrees>2.89822247810661792755126953125</LongitudeDegrees>
            </Position>
            <AltitudeMeters>415</AltitudeMeters>
            <DistanceMeters>NAN</DistanceMeters>
          </Trackpoint>
          <Trackpoint>
            <Time>2020-02-15T10:49:48.000Z</Time>
            <Position>
              <LatitudeDegrees>41.97942755185067653656005859375</LatitudeDegrees>
              <LongitudeDegrees>2.8982852585613727569580078125</LongitudeDegrees>
            </Position>
            <AltitudeMeters>414.399993896484375</AltitudeMeters>
            <DistanceMeters>NAN</DistanceMeters>
          </Trackpoint>
          <Trackpoint>
            <Time>2020-02-15T10:49:49.000Z</Time>
            <Position>
              <LatitudeDegrees>41.9794764183461666107177734375</LatitudeDegrees>
              <LongitudeDegrees>2.8983052074909210205078125</LongitudeDegrees>
            </Position>
            <AltitudeMeters>414</AltitudeMeters>
            <DistanceMeters>NAN</DistanceMeters>
          </Trackpoint>
          <Trackpoint>
            <Time>2020-02-15T10:49:50.000Z</Time>
            <Position>
              <LatitudeDegrees>41.97952159680426120758056640625</LatitudeDegrees>
              <LongitudeDegrees>2.8983204625546932220458984375</LongitudeDegrees>
            </Position>
            <AltitudeMeters>413.600006103515625</AltitudeMeters>
            <DistanceMeters>NAN</DistanceMeters>
          </Trackpoint>
          <Trackpoint>
            <Time>2020-02-15T10:49:51.000Z</Time>
            <Position>
              <LatitudeDegrees>41.97956786490976810455322265625</LatitudeDegrees>
              <LongitudeDegrees>2.898329682648181915283203125</LongitudeDegrees>
            </Position>
            <AltitudeMeters>413.20001220703125</AltitudeMeters>
            <DistanceMeters>NAN</DistanceMeters>
          </Trackpoint>
          <Trackpoint>
            <Time>2020-02-15T10:49:52.000Z</Time>
            <Position>
              <LatitudeDegrees>41.9796115346252918243408203125</LatitudeDegrees>
              <LongitudeDegrees>2.89833295159041881561279296875</LongitudeDegrees>
            </Position>
            <AltitudeMeters>413</AltitudeMeters>
            <DistanceMeters>NAN</DistanceMeters>
          </Trackpoint>
          <Trackpoint>
            <Time>2020-02-15T10:49:53.000Z</Time>
            <Position>
              <LatitudeDegrees>41.97965352796018123626708984375</LatitudeDegrees>
              <LongitudeDegrees>2.8983328677713871002197265625</LongitudeDegrees>
            </Position>
            <AltitudeMeters>413</AltitudeMeters>
            <DistanceMeters>NAN</DistanceMeters>
          </Trackpoint>
          <Trackpoint>
            <Time>2020-02-15T10:49:54.000Z</Time>
            <Position>
              <LatitudeDegrees>41.97969384491443634033203125</LatitudeDegrees>
              <LongitudeDegrees>2.89833831600844860076904296875</LongitudeDegrees>
            </Position>
            <AltitudeMeters>413</AltitudeMeters>
            <DistanceMeters>NAN</DistanceMeters>
          </Trackpoint>
          <Trackpoint>
            <Time>2020-02-15T10:49:55.000Z</Time>
            <Position>
              <LatitudeDegrees>41.9797308929264545440673828125</LatitudeDegrees>
              <LongitudeDegrees>2.8983429260551929473876953125</LongitudeDegrees>
            </Position>
            <AltitudeMeters>412.79998779296875</AltitudeMeters>
            <DistanceMeters>NAN</DistanceMeters>
          </Trackpoint>
          <Trackpoint>
            <Time>2020-02-15T10:49:56.000Z</Time>
            <Position>
              <LatitudeDegrees>41.979766599833965301513671875</LatitudeDegrees>
              <LongitudeDegrees>2.898345775902271270751953125</LongitudeDegrees>
            </Position>
            <AltitudeMeters>412.399993896484375</AltitudeMeters>
            <DistanceMeters>NAN</DistanceMeters>
          </Trackpoint>
          <Trackpoint>
            <Time>2020-02-15T10:49:57.000Z</Time>
            <Position>
              <LatitudeDegrees>41.97980255819857120513916015625</LatitudeDegrees>
              <LongitudeDegrees>2.898349128663539886474609375</LongitudeDegrees>
            </Position>
            <AltitudeMeters>412.399993896484375</AltitudeMeters>
            <DistanceMeters>NAN</DistanceMeters>
          </Trackpoint>
          <Trackpoint>
            <Time>2020-02-15T10:49:59.000Z</Time>
            <Position>
              <LatitudeDegrees>41.97987145744264125823974609375</LatitudeDegrees>
              <LongitudeDegrees>2.89835843257606029510498046875</LongitudeDegrees>
            </Position>
            <AltitudeMeters>412.20001220703125</AltitudeMeters>
            <DistanceMeters>NAN</DistanceMeters>
          </Trackpoint>
          <Trackpoint>
            <Time>2020-02-15T10:50:00.000Z</Time>
            <Position>
              <LatitudeDegrees>41.9799059070646762847900390625</LatitudeDegrees>
              <LongitudeDegrees>2.89836949668824672698974609375</LongitudeDegrees>
            </Position>
            <AltitudeMeters>412</AltitudeMeters>
            <DistanceMeters>NAN</DistanceMeters>
          </Trackpoint>
          <Trackpoint>
            <Time>2020-02-15T10:50:01.000Z</Time>
            <Position>
              <LatitudeDegrees>41.97993901558220386505126953125</LatitudeDegrees>
              <LongitudeDegrees>2.89838491939008235931396484375</LongitudeDegrees>
            </Position>
            <AltitudeMeters>412</AltitudeMeters>
            <DistanceMeters>NAN</DistanceMeters>
          </Trackpoint>
          <Trackpoint>
            <Time>2020-02-15T10:50:02.000Z</Time>
            <Position>
              <LatitudeDegrees>41.97997002862393856048583984375</LatitudeDegrees>
              <LongitudeDegrees>2.89840570650994777679443359375</LongitudeDegrees>
            </Position>
            <AltitudeMeters>412</AltitudeMeters>
            <DistanceMeters>NAN</DistanceMeters>
          </Trackpoint>
          <Trackpoint>
            <Time>2020-02-15T10:50:03.000Z</Time>
            <Position>
              <LatitudeDegrees>41.980004645884037017822265625</LatitudeDegrees>
              <LongitudeDegrees>2.898429594933986663818359375</LongitudeDegrees>
            </Position>
            <AltitudeMeters>412</AltitudeMeters>
            <DistanceMeters>NAN</DistanceMeters>
          </Trackpoint>
          <Trackpoint>
            <Time>2020-02-15T10:50:06.000Z</Time>
            <Position>
              <LatitudeDegrees>41.98011553846299648284912109375</LatitudeDegrees>
              <LongitudeDegrees>2.898528166115283966064453125</LongitudeDegrees>
            </Position>
            <AltitudeMeters>411.600006103515625</AltitudeMeters>
            <DistanceMeters>NAN</DistanceMeters>
          </Trackpoint>
          <Trackpoint>
            <Time>2020-02-15T10:50:07.000Z</Time>
            <Position>
              <LatitudeDegrees>41.98015459813177585601806640625</LatitudeDegrees>
              <LongitudeDegrees>2.898569405078887939453125</LongitudeDegrees>
            </Position>
            <AltitudeMeters>411.399993896484375</AltitudeMeters>
            <DistanceMeters>NAN</DistanceMeters>
          </Trackpoint>
          <Trackpoint>
            <Time>2020-02-15T10:50:08.000Z</Time>
            <Position>
              <LatitudeDegrees>41.98019768111407756805419921875</LatitudeDegrees>
              <LongitudeDegrees>2.898610644042491912841796875</LongitudeDegrees>
            </Position>
            <AltitudeMeters>411.399993896484375</AltitudeMeters>
            <DistanceMeters>NAN</DistanceMeters>
          </Trackpoint>
          <Trackpoint>
            <Time>2020-02-15T10:50:10.000Z</Time>
            <Position>
              <LatitudeDegrees>41.98028669692575931549072265625</LatitudeDegrees>
              <LongitudeDegrees>2.89869345724582672119140625</LongitudeDegrees>
            </Position>
            <AltitudeMeters>411.20001220703125</AltitudeMeters>
            <DistanceMeters>NAN</DistanceMeters>
          </Trackpoint>
          <Trackpoint>
            <Time>2020-02-15T10:50:11.000Z</Time>
            <Position>
              <LatitudeDegrees>41.98033514432609081268310546875</LatitudeDegrees>
              <LongitudeDegrees>2.89874534122645854949951171875</LongitudeDegrees>
            </Position>
            <AltitudeMeters>411.20001220703125</AltitudeMeters>
            <DistanceMeters>NAN</DistanceMeters>
          </Trackpoint>
          <Trackpoint>
            <Time>2020-02-15T10:50:16.000Z</Time>
            <Position>
              <LatitudeDegrees>41.98061208240687847137451171875</LatitudeDegrees>
              <LongitudeDegrees>2.89904222823679447174072265625</LongitudeDegrees>
            </Position>
            <AltitudeMeters>409.79998779296875</AltitudeMeters>
            <DistanceMeters>NAN</DistanceMeters>
          </Trackpoint>
          <Trackpoint>
            <Time>2020-02-15T10:50:17.000Z</Time>
            <Position>
              <LatitudeDegrees>41.98066773824393749237060546875</LatitudeDegrees>
              <LongitudeDegrees>2.89910190738737583160400390625</LongitudeDegrees>
            </Position>
            <AltitudeMeters>409.600006103515625</AltitudeMeters>
            <DistanceMeters>NAN</DistanceMeters>
          </Trackpoint>
          <Trackpoint>
            <Time>2020-02-15T10:50:18.000Z</Time>
            <Position>
              <LatitudeDegrees>41.98072188533842563629150390625</LatitudeDegrees>
              <LongitudeDegrees>2.8991593234241008758544921875</LongitudeDegrees>
            </Position>
            <AltitudeMeters>409.20001220703125</AltitudeMeters>
            <DistanceMeters>NAN</DistanceMeters>
          </Trackpoint>
          <Trackpoint>
            <Time>2020-02-15T10:50:19.000Z</Time>
            <Position>
              <LatitudeDegrees>41.98077234439551830291748046875</LatitudeDegrees>
              <LongitudeDegrees>2.8992173261940479278564453125</LongitudeDegrees>
            </Position>
            <AltitudeMeters>409</AltitudeMeters>
            <DistanceMeters>NAN</DistanceMeters>
          </Trackpoint>
          <Trackpoint>
            <Time>2020-02-15T10:50:20.000Z</Time>
            <Position>
              <LatitudeDegrees>41.98082129471004009246826171875</LatitudeDegrees>
              <LongitudeDegrees>2.899273149669170379638671875</LongitudeDegrees>
            </Position>
            <AltitudeMeters>408.20001220703125</AltitudeMeters>
            <DistanceMeters>NAN</DistanceMeters>
          </Trackpoint>
          <Trackpoint>
            <Time>2020-02-15T10:50:21.000Z</Time>
            <Position>
              <LatitudeDegrees>41.98086705990135669708251953125</LatitudeDegrees>
              <LongitudeDegrees>2.89932939223945140838623046875</LongitudeDegrees>
            </Position>
            <AltitudeMeters>407.79998779296875</AltitudeMeters>
            <DistanceMeters>NAN</DistanceMeters>
          </Trackpoint>
          <Trackpoint>
            <Time>2020-02-15T10:50:22.000Z</Time>
            <Position>
              <LatitudeDegrees>41.98091022670269012451171875</LatitudeDegrees>
              <LongitudeDegrees>2.899384461343288421630859375</LongitudeDegrees>
            </Position>
            <AltitudeMeters>407.600006103515625</AltitudeMeters>
            <DistanceMeters>NAN</DistanceMeters>
          </Trackpoint>
          <Trackpoint>
            <Time>2020-02-15T10:50:23.000Z</Time>
            <Position>
              <LatitudeDegrees>41.980953477323055267333984375</LatitudeDegrees>
              <LongitudeDegrees>2.8994339145720005035400390625</LongitudeDegrees>
            </Position>
            <AltitudeMeters>407.20001220703125</AltitudeMeters>
            <DistanceMeters>NAN</DistanceMeters>
          </Trackpoint>
          <Trackpoint>
            <Time>2020-02-15T10:50:24.000Z</Time>
            <Position>
              <LatitudeDegrees>41.9809968955814838409423828125</LatitudeDegrees>
              <LongitudeDegrees>2.899474985897541046142578125</LongitudeDegrees>
            </Position>
            <AltitudeMeters>406.79998779296875</AltitudeMeters>
            <DistanceMeters>NAN</DistanceMeters>
          </Trackpoint>
          <Trackpoint>
            <Time>2020-02-15T10:50:25.000Z</Time>
            <Position>
              <LatitudeDegrees>41.9810383021831512451171875</LatitudeDegrees>
              <LongitudeDegrees>2.8995127044618129730224609375</LongitudeDegrees>
            </Position>
            <AltitudeMeters>406.399993896484375</AltitudeMeters>
            <DistanceMeters>NAN</DistanceMeters>
          </Trackpoint>
          <Trackpoint>
            <Time>2020-02-15T10:50:26.000Z</Time>
            <Position>
              <LatitudeDegrees>41.98107643984258174896240234375</LatitudeDegrees>
              <LongitudeDegrees>2.89954774081707000732421875</LongitudeDegrees>
            </Position>
            <AltitudeMeters>406.399993896484375</AltitudeMeters>
            <DistanceMeters>NAN</DistanceMeters>
          </Trackpoint>
          <Trackpoint>
            <Time>2020-02-15T10:50:27.000Z</Time>
            <Position>
              <LatitudeDegrees>41.98111139237880706787109375</LatitudeDegrees>
              <LongitudeDegrees>2.899578250944614410400390625</LongitudeDegrees>
            </Position>
            <AltitudeMeters>406</AltitudeMeters>
            <DistanceMeters>NAN</DistanceMeters>
          </Trackpoint>
          <Trackpoint>
            <Time>2020-02-15T10:50:28.000Z</Time>
            <Position>
              <LatitudeDegrees>41.98114651255309581756591796875</LatitudeDegrees>
              <LongitudeDegrees>2.899606414139270782470703125</LongitudeDegrees>
            </Position>
            <AltitudeMeters>406</AltitudeMeters>
            <DistanceMeters>NAN</DistanceMeters>
          </Trackpoint>
          <Trackpoint>
            <Time>2020-02-15T10:50:29.000Z</Time>
            <Position>
              <LatitudeDegrees>41.9811804592609405517578125</LatitudeDegrees>
              <LongitudeDegrees>2.899632565677165985107421875</LongitudeDegrees>
            </Position>
            <AltitudeMeters>406.20001220703125</AltitudeMeters>
            <DistanceMeters>NAN</DistanceMeters>
          </Trackpoint>
          <Trackpoint>
            <Time>2020-02-15T10:50:30.000Z</Time>
            <Position>
              <LatitudeDegrees>41.9812108017504215240478515625</LatitudeDegrees>
              <LongitudeDegrees>2.89965678937733173370361328125</LongitudeDegrees>
            </Position>
            <AltitudeMeters>406</AltitudeMeters>
            <DistanceMeters>NAN</DistanceMeters>
          </Trackpoint>
          <Trackpoint>
            <Time>2020-02-15T10:50:31.000Z</Time>
            <Position>
              <LatitudeDegrees>41.9812416471540927886962890625</LatitudeDegrees>
              <LongitudeDegrees>2.8996830247342586517333984375</LongitudeDegrees>
            </Position>
            <AltitudeMeters>406</AltitudeMeters>
            <DistanceMeters>NAN</DistanceMeters>
          </Trackpoint>
          <Trackpoint>
            <Time>2020-02-15T10:50:32.000Z</Time>
            <Position>
              <LatitudeDegrees>41.981275342404842376708984375</LatitudeDegrees>
              <LongitudeDegrees>2.89970909245312213897705078125</LongitudeDegrees>
            </Position>
            <AltitudeMeters>406</AltitudeMeters>
            <DistanceMeters>NAN</DistanceMeters>
          </Trackpoint>
          <Trackpoint>
            <Time>2020-02-15T10:50:34.000Z</Time>
            <Position>
              <LatitudeDegrees>41.98134097270667552947998046875</LatitudeDegrees>
              <LongitudeDegrees>2.89975292980670928955078125</LongitudeDegrees>
            </Position>
            <AltitudeMeters>406.20001220703125</AltitudeMeters>
            <DistanceMeters>NAN</DistanceMeters>
          </Trackpoint>
          <Trackpoint>
            <Time>2020-02-15T10:50:35.000Z</Time>
            <Position>
              <LatitudeDegrees>41.9813740812242031097412109375</LatitudeDegrees>
              <LongitudeDegrees>2.899774722754955291748046875</LongitudeDegrees>
            </Position>
            <AltitudeMeters>406.20001220703125</AltitudeMeters>
            <DistanceMeters>NAN</DistanceMeters>
          </Trackpoint>
          <Trackpoint>
            <Time>2020-02-15T10:50:36.000Z</Time>
            <Position>
              <LatitudeDegrees>41.98140668682754039764404296875</LatitudeDegrees>
              <LongitudeDegrees>2.89979643188416957855224609375</LongitudeDegrees>
            </Position>
            <AltitudeMeters>406</AltitudeMeters>
            <DistanceMeters>NAN</DistanceMeters>
          </Trackpoint>
          <Trackpoint>
            <Time>2020-02-15T10:50:37.000Z</Time>
            <Position>
              <LatitudeDegrees>41.9814394600689411163330078125</LatitudeDegrees>
              <LongitudeDegrees>2.89981604553759098052978515625</LongitudeDegrees>
            </Position>
            <AltitudeMeters>406</AltitudeMeters>
            <DistanceMeters>NAN</DistanceMeters>
          </Trackpoint>
          <Trackpoint>
            <Time>2020-02-15T10:50:38.000Z</Time>
            <Position>
              <LatitudeDegrees>41.98147173039615154266357421875</LatitudeDegrees>
              <LongitudeDegrees>2.8998318873345851898193359375</LongitudeDegrees>
            </Position>
            <AltitudeMeters>406.20001220703125</AltitudeMeters>
            <DistanceMeters>NAN</DistanceMeters>
          </Trackpoint>
          <Trackpoint>
            <Time>2020-02-15T10:50:39.000Z</Time>
            <Position>
              <LatitudeDegrees>41.98150257579982280731201171875</LatitudeDegrees>
              <LongitudeDegrees>2.89984873495995998382568359375</LongitudeDegrees>
            </Position>
            <AltitudeMeters>406.20001220703125</AltitudeMeters>
            <DistanceMeters>NAN</DistanceMeters>
          </Trackpoint>
          <Trackpoint>
            <Time>2020-02-15T10:50:40.000Z</Time>
            <Position>
              <LatitudeDegrees>41.981532163918018341064453125</LatitudeDegrees>
              <LongitudeDegrees>2.8998649120330810546875</LongitudeDegrees>
            </Position>
            <AltitudeMeters>406.399993896484375</AltitudeMeters>
            <DistanceMeters>NAN</DistanceMeters>
          </Trackpoint>
          <Trackpoint>
            <Time>2020-02-15T10:50:41.000Z</Time>
            <Position>
              <LatitudeDegrees>41.981560997664928436279296875</LatitudeDegrees>
              <LongitudeDegrees>2.89987924508750438690185546875</LongitudeDegrees>
            </Position>
            <AltitudeMeters>406.399993896484375</AltitudeMeters>
            <DistanceMeters>NAN</DistanceMeters>
          </Trackpoint>
          <Trackpoint>
            <Time>2020-02-15T10:50:42.000Z</Time>
            <Position>
              <LatitudeDegrees>41.981589496135711669921875</LatitudeDegrees>
              <LongitudeDegrees>2.89989232085645198822021484375</LongitudeDegrees>
            </Position>
            <AltitudeMeters>406.600006103515625</AltitudeMeters>
            <DistanceMeters>NAN</DistanceMeters>
          </Trackpoint>
          <Trackpoint>
            <Time>2020-02-15T10:50:43.000Z</Time>
            <Position>
              <LatitudeDegrees>41.9816174916923046112060546875</LatitudeDegrees>
              <LongitudeDegrees>2.8999053128063678741455078125</LongitudeDegrees>
            </Position>
            <AltitudeMeters>406.79998779296875</AltitudeMeters>
            <DistanceMeters>NAN</DistanceMeters>
          </Trackpoint>
          <Trackpoint>
            <Time>2020-02-15T10:50:44.000Z</Time>
            <Position>
              <LatitudeDegrees>41.98164288885891437530517578125</LatitudeDegrees>
              <LongitudeDegrees>2.899915874004364013671875</LongitudeDegrees>
            </Position>
            <AltitudeMeters>406.79998779296875</AltitudeMeters>
            <DistanceMeters>NAN</DistanceMeters>
          </Trackpoint>
          <Trackpoint>
            <Time>2020-02-15T10:50:45.000Z</Time>
            <Position>
              <LatitudeDegrees>41.9816681183874607086181640625</LatitudeDegrees>
              <LongitudeDegrees>2.89992283098399639129638671875</LongitudeDegrees>
            </Position>
            <AltitudeMeters>406.79998779296875</AltitudeMeters>
            <DistanceMeters>NAN</DistanceMeters>
          </Trackpoint>
          <Trackpoint>
            <Time>2020-02-15T10:50:46.000Z</Time>
            <Position>
              <LatitudeDegrees>41.98169468902051448822021484375</LatitudeDegrees>
              <LongitudeDegrees>2.89992836304008960723876953125</LongitudeDegrees>
            </Position>
            <AltitudeMeters>407</AltitudeMeters>
            <DistanceMeters>NAN</DistanceMeters>
          </Trackpoint>
          <Trackpoint>
            <Time>2020-02-15T10:50:47.000Z</Time>
            <Position>
              <LatitudeDegrees>41.98172117583453655242919921875</LatitudeDegrees>
              <LongitudeDegrees>2.89993439801037311553955078125</LongitudeDegrees>
            </Position>
            <AltitudeMeters>407.20001220703125</AltitudeMeters>
            <DistanceMeters>NAN</DistanceMeters>
          </Trackpoint>
          <Trackpoint>
            <Time>2020-02-15T10:50:48.000Z</Time>
            <Position>
              <LatitudeDegrees>41.9817485846579074859619140625</LatitudeDegrees>
              <LongitudeDegrees>2.899942696094512939453125</LongitudeDegrees>
            </Position>
            <AltitudeMeters>407.399993896484375</AltitudeMeters>
            <DistanceMeters>NAN</DistanceMeters>
          </Trackpoint>
          <Trackpoint>
            <Time>2020-02-15T10:50:49.000Z</Time>
            <Position>
              <LatitudeDegrees>41.98177532292902469635009765625</LatitudeDegrees>
              <LongitudeDegrees>2.8999515809118747711181640625</LongitudeDegrees>
            </Position>
            <AltitudeMeters>407.600006103515625</AltitudeMeters>
            <DistanceMeters>NAN</DistanceMeters>
          </Trackpoint>
          <Trackpoint>
            <Time>2020-02-15T10:50:50.000Z</Time>
            <Position>
              <LatitudeDegrees>41.9818015582859516143798828125</LatitudeDegrees>
              <LongitudeDegrees>2.8999626450240612030029296875</LongitudeDegrees>
            </Position>
            <AltitudeMeters>408.399993896484375</AltitudeMeters>
            <DistanceMeters>NAN</DistanceMeters>
          </Trackpoint>
          <Trackpoint>
            <Time>2020-02-15T10:50:51.000Z</Time>
            <Position>
              <LatitudeDegrees>41.9818260334432125091552734375</LatitudeDegrees>
              <LongitudeDegrees>2.8999713622033596038818359375</LongitudeDegrees>
            </Position>
            <AltitudeMeters>408.600006103515625</AltitudeMeters>
            <DistanceMeters>NAN</DistanceMeters>
          </Trackpoint>
          <Trackpoint>
            <Time>2020-02-15T10:50:52.000Z</Time>
            <Position>
              <LatitudeDegrees>41.98185226880013942718505859375</LatitudeDegrees>
              <LongitudeDegrees>2.89997882209718227386474609375</LongitudeDegrees>
            </Position>
            <AltitudeMeters>408.79998779296875</AltitudeMeters>
            <DistanceMeters>NAN</DistanceMeters>
          </Trackpoint>
          <Trackpoint>
            <Time>2020-02-15T10:50:53.000Z</Time>
            <Position>
              <LatitudeDegrees>41.9818786717951297760009765625</LatitudeDegrees>
              <LongitudeDegrees>2.89998628199100494384765625</LongitudeDegrees>
            </Position>
            <AltitudeMeters>409</AltitudeMeters>
            <DistanceMeters>NAN</DistanceMeters>
          </Trackpoint>
          <Trackpoint>
            <Time>2020-02-15T10:50:54.000Z</Time>
            <Position>
              <LatitudeDegrees>41.9819041527807712554931640625</LatitudeDegrees>
              <LongitudeDegrees>2.89999290369451045989990234375</LongitudeDegrees>
            </Position>
            <AltitudeMeters>409.600006103515625</AltitudeMeters>
            <DistanceMeters>NAN</DistanceMeters>
          </Trackpoint>
          <Trackpoint>
            <Time>2020-02-15T10:50:55.000Z</Time>
            <Position>
              <LatitudeDegrees>41.98192770592868328094482421875</LatitudeDegrees>
              <LongitudeDegrees>2.89999877102673053741455078125</LongitudeDegrees>
            </Position>
            <AltitudeMeters>409.600006103515625</AltitudeMeters>
            <DistanceMeters>NAN</DistanceMeters>
          </Trackpoint>
          <Trackpoint>
            <Time>2020-02-15T10:50:56.000Z</Time>
            <Position>
              <LatitudeDegrees>41.9819504208862781524658203125</LatitudeDegrees>
              <LongitudeDegrees>2.9000075720250606536865234375</LongitudeDegrees>
            </Position>
            <AltitudeMeters>409.600006103515625</AltitudeMeters>
            <DistanceMeters>NAN</DistanceMeters>
          </Trackpoint>
          <Trackpoint>
            <Time>2020-02-15T10:50:57.000Z</Time>
            <Position>
              <LatitudeDegrees>41.9819690287113189697265625</LatitudeDegrees>
              <LongitudeDegrees>2.90001989342272281646728515625</LongitudeDegrees>
            </Position>
            <AltitudeMeters>410.20001220703125</AltitudeMeters>
            <DistanceMeters>NAN</DistanceMeters>
          </Trackpoint>
          <Trackpoint>
            <Time>2020-02-15T10:50:58.000Z</Time>
            <Position>
              <LatitudeDegrees>41.98198637925088405609130859375</LatitudeDegrees>
              <LongitudeDegrees>2.90003322064876556396484375</LongitudeDegrees>
            </Position>
            <AltitudeMeters>410.79998779296875</AltitudeMeters>
            <DistanceMeters>NAN</DistanceMeters>
          </Trackpoint>
          <Trackpoint>
            <Time>2020-02-15T10:50:59.000Z</Time>
            <Position>
              <LatitudeDegrees>41.982002891600131988525390625</LatitudeDegrees>
              <LongitudeDegrees>2.9000494815409183502197265625</LongitudeDegrees>
            </Position>
            <AltitudeMeters>411</AltitudeMeters>
            <DistanceMeters>NAN</DistanceMeters>
          </Trackpoint>
          <Trackpoint>
            <Time>2020-02-15T10:51:00.000Z</Time>
            <Position>
              <LatitudeDegrees>41.98201806284487247467041015625</LatitudeDegrees>
              <LongitudeDegrees>2.90006867609918117523193359375</LongitudeDegrees>
            </Position>
            <AltitudeMeters>411.399993896484375</AltitudeMeters>
            <DistanceMeters>NAN</DistanceMeters>
          </Trackpoint>
          <Trackpoint>
            <Time>2020-02-15T10:51:01.000Z</Time>
            <Position>
              <LatitudeDegrees>41.98203197680413722991943359375</LatitudeDegrees>
              <LongitudeDegrees>2.90008996613323688507080078125</LongitudeDegrees>
            </Position>
            <AltitudeMeters>412</AltitudeMeters>
            <DistanceMeters>NAN</DistanceMeters>
          </Trackpoint>
          <Trackpoint>
            <Time>2020-02-15T10:51:02.000Z</Time>
            <Position>
              <LatitudeDegrees>41.98204656131565570831298828125</LatitudeDegrees>
              <LongitudeDegrees>2.9001138545572757720947265625</LongitudeDegrees>
            </Position>
            <AltitudeMeters>412.20001220703125</AltitudeMeters>
            <DistanceMeters>NAN</DistanceMeters>
          </Trackpoint>
          <Trackpoint>
            <Time>2020-02-15T10:51:03.000Z</Time>
            <Position>
              <LatitudeDegrees>41.982060559093952178955078125</LatitudeDegrees>
              <LongitudeDegrees>2.90013908408582210540771484375</LongitudeDegrees>
            </Position>
            <AltitudeMeters>412.600006103515625</AltitudeMeters>
            <DistanceMeters>NAN</DistanceMeters>
          </Trackpoint>
          <Trackpoint>
            <Time>2020-02-15T10:51:04.000Z</Time>
            <Position>
              <LatitudeDegrees>41.98207430541515350341796875</LatitudeDegrees>
              <LongitudeDegrees>2.9001666605472564697265625</LongitudeDegrees>
            </Position>
            <AltitudeMeters>413.20001220703125</AltitudeMeters>
            <DistanceMeters>NAN</DistanceMeters>
          </Trackpoint>
          <Trackpoint>
            <Time>2020-02-15T10:51:05.000Z</Time>
            <Position>
              <LatitudeDegrees>41.982088722288608551025390625</LatitudeDegrees>
              <LongitudeDegrees>2.9001929797232151031494140625</LongitudeDegrees>
            </Position>
            <AltitudeMeters>413.600006103515625</AltitudeMeters>
            <DistanceMeters>NAN</DistanceMeters>
          </Trackpoint>
          <Trackpoint>
            <Time>2020-02-15T10:51:06.000Z</Time>
            <Position>
              <LatitudeDegrees>41.9821029715240001678466796875</LatitudeDegrees>
              <LongitudeDegrees>2.900219298899173736572265625</LongitudeDegrees>
            </Position>
            <AltitudeMeters>413.79998779296875</AltitudeMeters>
            <DistanceMeters>NAN</DistanceMeters>
          </Trackpoint>
          <Trackpoint>
            <Time>2020-02-15T10:51:07.000Z</Time>
            <Position>
              <LatitudeDegrees>41.98211722075939178466796875</LatitudeDegrees>
              <LongitudeDegrees>2.90024620480835437774658203125</LongitudeDegrees>
            </Position>
            <AltitudeMeters>414.20001220703125</AltitudeMeters>
            <DistanceMeters>NAN</DistanceMeters>
          </Trackpoint>
          <Trackpoint>
            <Time>2020-02-15T10:51:08.000Z</Time>
            <Position>
              <LatitudeDegrees>41.98213356547057628631591796875</LatitudeDegrees>
              <LongitudeDegrees>2.90026866830885410308837890625</LongitudeDegrees>
            </Position>
            <AltitudeMeters>414.79998779296875</AltitudeMeters>
            <DistanceMeters>NAN</DistanceMeters>
          </Trackpoint>
          <Trackpoint>
            <Time>2020-02-15T10:51:09.000Z</Time>
            <Position>
              <LatitudeDegrees>41.98215049691498279571533203125</LatitudeDegrees>
              <LongitudeDegrees>2.9002918861806392669677734375</LongitudeDegrees>
            </Position>
            <AltitudeMeters>415.20001220703125</AltitudeMeters>
            <DistanceMeters>NAN</DistanceMeters>
          </Trackpoint>
          <Trackpoint>
            <Time>2020-02-15T10:51:10.000Z</Time>
            <Position>
              <LatitudeDegrees>41.98216591961681842803955078125</LatitudeDegrees>
              <LongitudeDegrees>2.90031627751886844635009765625</LongitudeDegrees>
            </Position>
            <AltitudeMeters>415.600006103515625</AltitudeMeters>
            <DistanceMeters>NAN</DistanceMeters>
          </Trackpoint>
          <Trackpoint>
            <Time>2020-02-15T10:51:11.000Z</Time>
            <Position>
              <LatitudeDegrees>41.98217882774770259857177734375</LatitudeDegrees>
              <LongitudeDegrees>2.90033890865743160247802734375</LongitudeDegrees>
            </Position>
            <AltitudeMeters>415.600006103515625</AltitudeMeters>
            <DistanceMeters>NAN</DistanceMeters>
          </Trackpoint>
          <Trackpoint>
            <Time>2020-02-15T10:51:12.000Z</Time>
            <Position>
              <LatitudeDegrees>41.98218938894569873809814453125</LatitudeDegrees>
              <LongitudeDegrees>2.90035734884440898895263671875</LongitudeDegrees>
            </Position>
            <AltitudeMeters>415.79998779296875</AltitudeMeters>
            <DistanceMeters>NAN</DistanceMeters>
          </Trackpoint>
          <Trackpoint>
            <Time>2020-02-15T10:51:13.000Z</Time>
            <Position>
              <LatitudeDegrees>41.98219844140112400054931640625</LatitudeDegrees>
              <LongitudeDegrees>2.9003706760704517364501953125</LongitudeDegrees>
            </Position>
            <AltitudeMeters>416.20001220703125</AltitudeMeters>
            <DistanceMeters>NAN</DistanceMeters>
          </Trackpoint>
          <Trackpoint>
            <Time>2020-02-15T10:51:14.000Z</Time>
            <Position>
              <LatitudeDegrees>41.9822059012949466705322265625</LatitudeDegrees>
              <LongitudeDegrees>2.900382913649082183837890625</LongitudeDegrees>
            </Position>
            <AltitudeMeters>416.399993896484375</AltitudeMeters>
            <DistanceMeters>NAN</DistanceMeters>
          </Trackpoint>
          <Trackpoint>
            <Time>2020-02-15T10:51:15.000Z</Time>
            <Position>
              <LatitudeDegrees>41.98221218772232532501220703125</LatitudeDegrees>
              <LongitudeDegrees>2.90039557032287120819091796875</LongitudeDegrees>
            </Position>
            <AltitudeMeters>416.600006103515625</AltitudeMeters>
            <DistanceMeters>NAN</DistanceMeters>
          </Trackpoint>
          <Trackpoint>
            <Time>2020-02-15T10:51:16.000Z</Time>
            <Position>
              <LatitudeDegrees>41.98221805505454540252685546875</LatitudeDegrees>
              <LongitudeDegrees>2.9004099033772945404052734375</LongitudeDegrees>
            </Position>
            <AltitudeMeters>416.79998779296875</AltitudeMeters>
            <DistanceMeters>NAN</DistanceMeters>
          </Trackpoint>
          <Trackpoint>
            <Time>2020-02-15T10:51:17.000Z</Time>
            <Position>
              <LatitudeDegrees>41.982220150530338287353515625</LatitudeDegrees>
              <LongitudeDegrees>2.9004239849746227264404296875</LongitudeDegrees>
            </Position>
            <AltitudeMeters>416.79998779296875</AltitudeMeters>
            <DistanceMeters>NAN</DistanceMeters>
          </Trackpoint>
          <Trackpoint>
            <Time>2020-02-15T10:51:18.000Z</Time>
            <Position>
              <LatitudeDegrees>41.98222425766289234161376953125</LatitudeDegrees>
              <LongitudeDegrees>2.90043781511485576629638671875</LongitudeDegrees>
            </Position>
            <AltitudeMeters>416.79998779296875</AltitudeMeters>
            <DistanceMeters>NAN</DistanceMeters>
          </Trackpoint>
          <Trackpoint>
            <Time>2020-02-15T10:51:19.000Z</Time>
            <Position>
              <LatitudeDegrees>41.9822313822805881500244140625</LatitudeDegrees>
              <LongitudeDegrees>2.90045474655926227569580078125</LongitudeDegrees>
            </Position>
            <AltitudeMeters>417</AltitudeMeters>
            <DistanceMeters>NAN</DistanceMeters>
          </Trackpoint>
          <Trackpoint>
            <Time>2020-02-15T10:51:20.000Z</Time>
            <Position>
              <LatitudeDegrees>41.9822407700121402740478515625</LatitudeDegrees>
              <LongitudeDegrees>2.900473773479461669921875</LongitudeDegrees>
            </Position>
            <AltitudeMeters>417.399993896484375</AltitudeMeters>
            <DistanceMeters>NAN</DistanceMeters>
          </Trackpoint>
          <Trackpoint>
            <Time>2020-02-15T10:51:21.000Z</Time>
            <Position>
              <LatitudeDegrees>41.9822494871914386749267578125</LatitudeDegrees>
              <LongitudeDegrees>2.900490202009677886962890625</LongitudeDegrees>
            </Position>
            <AltitudeMeters>417.600006103515625</AltitudeMeters>
            <DistanceMeters>NAN</DistanceMeters>
          </Trackpoint>
          <Trackpoint>
            <Time>2020-02-15T10:51:22.000Z</Time>
            <Position>
              <LatitudeDegrees>41.98225694708526134490966796875</LatitudeDegrees>
              <LongitudeDegrees>2.90050822310149669647216796875</LongitudeDegrees>
            </Position>
            <AltitudeMeters>418.20001220703125</AltitudeMeters>
            <DistanceMeters>NAN</DistanceMeters>
          </Trackpoint>
          <Trackpoint>
            <Time>2020-02-15T10:51:23.000Z</Time>
            <Position>
              <LatitudeDegrees>41.98226398788392543792724609375</LatitudeDegrees>
              <LongitudeDegrees>2.9005262441933155059814453125</LongitudeDegrees>
            </Position>
            <AltitudeMeters>419</AltitudeMeters>
            <DistanceMeters>NAN</DistanceMeters>
          </Trackpoint>
          <Trackpoint>
            <Time>2020-02-15T10:51:24.000Z</Time>
            <Position>
              <LatitudeDegrees>41.9822706095874309539794921875</LatitudeDegrees>
              <LongitudeDegrees>2.90054610930383205413818359375</LongitudeDegrees>
            </Position>
            <AltitudeMeters>419.20001220703125</AltitudeMeters>
            <DistanceMeters>NAN</DistanceMeters>
          </Trackpoint>
          <Trackpoint>
            <Time>2020-02-15T10:51:25.000Z</Time>
            <Position>
              <LatitudeDegrees>41.98227949440479278564453125</LatitudeDegrees>
              <LongitudeDegrees>2.9005634598433971405029296875</LongitudeDegrees>
            </Position>
            <AltitudeMeters>419.600006103515625</AltitudeMeters>
            <DistanceMeters>NAN</DistanceMeters>
          </Trackpoint>
          <Trackpoint>
            <Time>2020-02-15T10:51:26.000Z</Time>
            <Position>
              <LatitudeDegrees>41.98228963650763034820556640625</LatitudeDegrees>
              <LongitudeDegrees>2.9005751945078372955322265625</LongitudeDegrees>
            </Position>
            <AltitudeMeters>420</AltitudeMeters>
            <DistanceMeters>NAN</DistanceMeters>
          </Trackpoint>
          <Trackpoint>
            <Time>2020-02-15T10:51:27.000Z</Time>
            <Position>
              <LatitudeDegrees>41.98229986242949962615966796875</LatitudeDegrees>
              <LongitudeDegrees>2.900583408772945404052734375</LongitudeDegrees>
            </Position>
            <AltitudeMeters>420.20001220703125</AltitudeMeters>
            <DistanceMeters>NAN</DistanceMeters>
          </Trackpoint>
          <Trackpoint>
            <Time>2020-02-15T10:51:28.000Z</Time>
            <Position>
              <LatitudeDegrees>41.98231210000813007354736328125</LatitudeDegrees>
              <LongitudeDegrees>2.90058575570583343505859375</LongitudeDegrees>
            </Position>
            <AltitudeMeters>420.399993896484375</AltitudeMeters>
            <DistanceMeters>NAN</DistanceMeters>
          </Trackpoint>
          <Trackpoint>
            <Time>2020-02-15T10:51:29.000Z</Time>
            <Position>
              <LatitudeDegrees>41.9823276065289974212646484375</LatitudeDegrees>
              <LongitudeDegrees>2.900581061840057373046875</LongitudeDegrees>
            </Position>
            <AltitudeMeters>420.399993896484375</AltitudeMeters>
            <DistanceMeters>NAN</DistanceMeters>
          </Trackpoint>
          <Trackpoint>
            <Time>2020-02-15T10:51:30.000Z</Time>
            <Position>
              <LatitudeDegrees>41.98233892209827899932861328125</LatitudeDegrees>
              <LongitudeDegrees>2.90057075209915637969970703125</LongitudeDegrees>
            </Position>
            <AltitudeMeters>421</AltitudeMeters>
            <DistanceMeters>NAN</DistanceMeters>
          </Trackpoint>
          <Trackpoint>
            <Time>2020-02-15T10:51:31.000Z</Time>
            <Position>
              <LatitudeDegrees>41.9823470525443553924560546875</LatitudeDegrees>
              <LongitudeDegrees>2.90055449120700359344482421875</LongitudeDegrees>
            </Position>
            <AltitudeMeters>421.20001220703125</AltitudeMeters>
            <DistanceMeters>NAN</DistanceMeters>
          </Trackpoint>
          <Trackpoint>
            <Time>2020-02-15T10:51:32.000Z</Time>
            <Position>
              <LatitudeDegrees>41.98235518299043178558349609375</LatitudeDegrees>
              <LongitudeDegrees>2.9005359672009944915771484375</LongitudeDegrees>
            </Position>
            <AltitudeMeters>421.79998779296875</AltitudeMeters>
            <DistanceMeters>NAN</DistanceMeters>
          </Trackpoint>
          <Trackpoint>
            <Time>2020-02-15T10:51:33.000Z</Time>
            <Position>
              <LatitudeDegrees>41.98236540891230106353759765625</LatitudeDegrees>
              <LongitudeDegrees>2.9005207121372222900390625</LongitudeDegrees>
            </Position>
            <AltitudeMeters>422</AltitudeMeters>
            <DistanceMeters>NAN</DistanceMeters>
          </Trackpoint>
          <Trackpoint>
            <Time>2020-02-15T10:51:34.000Z</Time>
            <Position>
              <LatitudeDegrees>41.98237479664385318756103515625</LatitudeDegrees>
              <LongitudeDegrees>2.9005088098347187042236328125</LongitudeDegrees>
            </Position>
            <AltitudeMeters>422.399993896484375</AltitudeMeters>
            <DistanceMeters>NAN</DistanceMeters>
          </Trackpoint>
          <Trackpoint>
            <Time>2020-02-15T10:51:35.000Z</Time>
            <Position>
              <LatitudeDegrees>41.98238267563283443450927734375</LatitudeDegrees>
              <LongitudeDegrees>2.90049665607511997222900390625</LongitudeDegrees>
            </Position>
            <AltitudeMeters>422.600006103515625</AltitudeMeters>
            <DistanceMeters>NAN</DistanceMeters>
          </Trackpoint>
          <Trackpoint>
            <Time>2020-02-15T10:51:36.000Z</Time>
            <Position>
              <LatitudeDegrees>41.98239893652498722076416015625</LatitudeDegrees>
              <LongitudeDegrees>2.900491543114185333251953125</LongitudeDegrees>
            </Position>
            <AltitudeMeters>422.79998779296875</AltitudeMeters>
            <DistanceMeters>NAN</DistanceMeters>
          </Trackpoint>
          <Trackpoint>
            <Time>2020-02-15T10:51:37.000Z</Time>
            <Position>
              <LatitudeDegrees>41.98241335339844226837158203125</LatitudeDegrees>
              <LongitudeDegrees>2.90048894472420215606689453125</LongitudeDegrees>
            </Position>
            <AltitudeMeters>423</AltitudeMeters>
            <DistanceMeters>NAN</DistanceMeters>
          </Trackpoint>
          <Trackpoint>
            <Time>2020-02-15T10:51:38.000Z</Time>
            <Position>
              <LatitudeDegrees>41.9824278540909290313720703125</LatitudeDegrees>
              <LongitudeDegrees>2.90048928000032901763916015625</LongitudeDegrees>
            </Position>
            <AltitudeMeters>423</AltitudeMeters>
            <DistanceMeters>NAN</DistanceMeters>
          </Trackpoint>
          <Trackpoint>
            <Time>2020-02-15T10:51:39.000Z</Time>
            <Position>
              <LatitudeDegrees>41.9824405945837497711181640625</LatitudeDegrees>
              <LongitudeDegrees>2.900496236979961395263671875</LongitudeDegrees>
            </Position>
            <AltitudeMeters>423</AltitudeMeters>
            <DistanceMeters>NAN</DistanceMeters>
          </Trackpoint>
          <Trackpoint>
            <Time>2020-02-15T10:51:40.000Z</Time>
            <Position>
              <LatitudeDegrees>41.98245325125753879547119140625</LatitudeDegrees>
              <LongitudeDegrees>2.9005081392824649810791015625</LongitudeDegrees>
            </Position>
            <AltitudeMeters>423</AltitudeMeters>
            <DistanceMeters>NAN</DistanceMeters>
          </Trackpoint>
          <Trackpoint>
            <Time>2020-02-15T10:51:41.000Z</Time>
            <Position>
              <LatitudeDegrees>41.98246548883616924285888671875</LatitudeDegrees>
              <LongitudeDegrees>2.90052146650850772857666015625</LongitudeDegrees>
            </Position>
            <AltitudeMeters>423.20001220703125</AltitudeMeters>
            <DistanceMeters>NAN</DistanceMeters>
          </Trackpoint>
          <Trackpoint>
            <Time>2020-02-15T10:51:42.000Z</Time>
            <Position>
              <LatitudeDegrees>41.98248024098575115203857421875</LatitudeDegrees>
              <LongitudeDegrees>2.90053437463939189910888671875</LongitudeDegrees>
            </Position>
            <AltitudeMeters>423.399993896484375</AltitudeMeters>
            <DistanceMeters>NAN</DistanceMeters>
          </Trackpoint>
          <Trackpoint>
            <Time>2020-02-15T10:51:43.000Z</Time>
            <Position>
              <LatitudeDegrees>41.98249482549726963043212890625</LatitudeDegrees>
              <LongitudeDegrees>2.9005463607609272003173828125</LongitudeDegrees>
            </Position>
            <AltitudeMeters>423.399993896484375</AltitudeMeters>
            <DistanceMeters>NAN</DistanceMeters>
          </Trackpoint>
          <Trackpoint>
            <Time>2020-02-15T10:51:44.000Z</Time>
            <Position>
              <LatitudeDegrees>41.9825103320181369781494140625</LatitudeDegrees>
              <LongitudeDegrees>2.9005580954253673553466796875</LongitudeDegrees>
            </Position>
            <AltitudeMeters>423.399993896484375</AltitudeMeters>
            <DistanceMeters>NAN</DistanceMeters>
          </Trackpoint>
          <Trackpoint>
            <Time>2020-02-15T10:51:45.000Z</Time>
            <Position>
              <LatitudeDegrees>41.9825250841677188873291015625</LatitudeDegrees>
              <LongitudeDegrees>2.9005705006420612335205078125</LongitudeDegrees>
            </Position>
            <AltitudeMeters>423.600006103515625</AltitudeMeters>
            <DistanceMeters>NAN</DistanceMeters>
          </Trackpoint>
          <Trackpoint>
            <Time>2020-02-15T10:51:46.000Z</Time>
            <Position>
              <LatitudeDegrees>41.98253757320344448089599609375</LatitudeDegrees>
              <LongitudeDegrees>2.90058349259197711944580078125</LongitudeDegrees>
            </Position>
            <AltitudeMeters>423.79998779296875</AltitudeMeters>
            <DistanceMeters>NAN</DistanceMeters>
          </Trackpoint>
          <Trackpoint>
            <Time>2020-02-15T10:51:47.000Z</Time>
            <Position>
              <LatitudeDegrees>41.9825472123920917510986328125</LatitudeDegrees>
              <LongitudeDegrees>2.9005989991128444671630859375</LongitudeDegrees>
            </Position>
            <AltitudeMeters>423.79998779296875</AltitudeMeters>
            <DistanceMeters>NAN</DistanceMeters>
          </Trackpoint>
          <Trackpoint>
            <Time>2020-02-15T10:51:48.000Z</Time>
            <Position>
              <LatitudeDegrees>41.9825555942952632904052734375</LatitudeDegrees>
              <LongitudeDegrees>2.900615595281124114990234375</LongitudeDegrees>
            </Position>
            <AltitudeMeters>424.20001220703125</AltitudeMeters>
            <DistanceMeters>NAN</DistanceMeters>
          </Trackpoint>
          <Trackpoint>
            <Time>2020-02-15T10:51:49.000Z</Time>
            <Position>
              <LatitudeDegrees>41.98256439529359340667724609375</LatitudeDegrees>
              <LongitudeDegrees>2.9006355442106723785400390625</LongitudeDegrees>
            </Position>
            <AltitudeMeters>424.20001220703125</AltitudeMeters>
            <DistanceMeters>NAN</DistanceMeters>
          </Trackpoint>
          <Trackpoint>
            <Time>2020-02-15T10:51:50.000Z</Time>
            <Position>
              <LatitudeDegrees>41.98257730342447757720947265625</LatitudeDegrees>
              <LongitudeDegrees>2.9006533138453960418701171875</LongitudeDegrees>
            </Position>
            <AltitudeMeters>424.20001220703125</AltitudeMeters>
            <DistanceMeters>NAN</DistanceMeters>
          </Trackpoint>
          <Trackpoint>
            <Time>2020-02-15T10:51:51.000Z</Time>
            <Position>
              <LatitudeDegrees>41.9825891219079494476318359375</LatitudeDegrees>
              <LongitudeDegrees>2.90066865272819995880126953125</LongitudeDegrees>
            </Position>
            <AltitudeMeters>424.399993896484375</AltitudeMeters>
            <DistanceMeters>NAN</DistanceMeters>
          </Trackpoint>
          <Trackpoint>
            <Time>2020-02-15T10:51:52.000Z</Time>
            <Position>
              <LatitudeDegrees>41.982600688934326171875</LatitudeDegrees>
              <LongitudeDegrees>2.90068591944873332977294921875</LongitudeDegrees>
            </Position>
            <AltitudeMeters>424.600006103515625</AltitudeMeters>
            <DistanceMeters>NAN</DistanceMeters>
          </Trackpoint>
          <Trackpoint>
            <Time>2020-02-15T10:51:53.000Z</Time>
            <Position>
              <LatitudeDegrees>41.98260898701846599578857421875</LatitudeDegrees>
              <LongitudeDegrees>2.90070771239697933197021484375</LongitudeDegrees>
            </Position>
            <AltitudeMeters>425</AltitudeMeters>
            <DistanceMeters>NAN</DistanceMeters>
          </Trackpoint>
          <Trackpoint>
            <Time>2020-02-15T10:51:54.000Z</Time>
            <Position>
              <LatitudeDegrees>41.98261368088424205780029296875</LatitudeDegrees>
              <LongitudeDegrees>2.90073059499263763427734375</LongitudeDegrees>
            </Position>
            <AltitudeMeters>425</AltitudeMeters>
            <DistanceMeters>NAN</DistanceMeters>
          </Trackpoint>
          <Trackpoint>
            <Time>2020-02-15T10:51:55.000Z</Time>
            <Position>
              <LatitudeDegrees>41.9826154410839080810546875</LatitudeDegrees>
              <LongitudeDegrees>2.900753729045391082763671875</LongitudeDegrees>
            </Position>
            <AltitudeMeters>425.20001220703125</AltitudeMeters>
            <DistanceMeters>NAN</DistanceMeters>
          </Trackpoint>
          <Trackpoint>
            <Time>2020-02-15T10:51:56.000Z</Time>
            <Position>
              <LatitudeDegrees>41.98261720128357410430908203125</LatitudeDegrees>
              <LongitudeDegrees>2.9007728397846221923828125</LongitudeDegrees>
            </Position>
            <AltitudeMeters>425.600006103515625</AltitudeMeters>
            <DistanceMeters>NAN</DistanceMeters>
          </Trackpoint>
          <Trackpoint>
            <Time>2020-02-15T10:51:57.000Z</Time>
            <Position>
              <LatitudeDegrees>41.98261887766420841217041015625</LatitudeDegrees>
              <LongitudeDegrees>2.9007897712290287017822265625</LongitudeDegrees>
            </Position>
            <AltitudeMeters>425.79998779296875</AltitudeMeters>
            <DistanceMeters>NAN</DistanceMeters>
          </Trackpoint>
          <Trackpoint>
            <Time>2020-02-15T10:51:58.000Z</Time>
            <Position>
              <LatitudeDegrees>41.98262172751128673553466796875</LatitudeDegrees>
              <LongitudeDegrees>2.9008068703114986419677734375</LongitudeDegrees>
            </Position>
            <AltitudeMeters>426</AltitudeMeters>
            <DistanceMeters>NAN</DistanceMeters>
          </Trackpoint>
          <Trackpoint>
            <Time>2020-02-15T10:51:59.000Z</Time>
            <Position>
              <LatitudeDegrees>41.9826246611773967742919921875</LatitudeDegrees>
              <LongitudeDegrees>2.90082606486976146697998046875</LongitudeDegrees>
            </Position>
            <AltitudeMeters>426.20001220703125</AltitudeMeters>
            <DistanceMeters>NAN</DistanceMeters>
          </Trackpoint>
          <Trackpoint>
            <Time>2020-02-15T10:52:00.000Z</Time>
            <Position>
              <LatitudeDegrees>41.98262541554868221282958984375</LatitudeDegrees>
              <LongitudeDegrees>2.9008471034467220306396484375</LongitudeDegrees>
            </Position>
            <AltitudeMeters>426.20001220703125</AltitudeMeters>
            <DistanceMeters>NAN</DistanceMeters>
          </Trackpoint>
          <Trackpoint>
            <Time>2020-02-15T10:52:01.000Z</Time>
            <Position>
              <LatitudeDegrees>41.9826226495206356048583984375</LatitudeDegrees>
              <LongitudeDegrees>2.90086311288177967071533203125</LongitudeDegrees>
            </Position>
            <AltitudeMeters>426.20001220703125</AltitudeMeters>
            <DistanceMeters>NAN</DistanceMeters>
          </Trackpoint>
          <Trackpoint>
            <Time>2020-02-15T10:52:02.000Z</Time>
            <Position>
              <LatitudeDegrees>41.9826199673116207122802734375</LatitudeDegrees>
              <LongitudeDegrees>2.90087853558361530303955078125</LongitudeDegrees>
            </Position>
            <AltitudeMeters>426.600006103515625</AltitudeMeters>
            <DistanceMeters>NAN</DistanceMeters>
          </Trackpoint>
          <Trackpoint>
            <Time>2020-02-15T10:52:03.000Z</Time>
            <Position>
              <LatitudeDegrees>41.9826162792742252349853515625</LatitudeDegrees>
              <LongitudeDegrees>2.9008933715522289276123046875</LongitudeDegrees>
            </Position>
            <AltitudeMeters>427</AltitudeMeters>
            <DistanceMeters>NAN</DistanceMeters>
          </Trackpoint>
          <Trackpoint>
            <Time>2020-02-15T10:52:04.000Z</Time>
            <Position>
              <LatitudeDegrees>41.982612423598766326904296875</LatitudeDegrees>
              <LongitudeDegrees>2.9009121470153331756591796875</LongitudeDegrees>
            </Position>
            <AltitudeMeters>427.20001220703125</AltitudeMeters>
            <DistanceMeters>NAN</DistanceMeters>
          </Trackpoint>
          <Trackpoint>
            <Time>2020-02-15T10:52:05.000Z</Time>
            <Position>
              <LatitudeDegrees>41.98260848410427570343017578125</LatitudeDegrees>
              <LongitudeDegrees>2.90092983283102512359619140625</LongitudeDegrees>
            </Position>
            <AltitudeMeters>427.399993896484375</AltitudeMeters>
            <DistanceMeters>NAN</DistanceMeters>
          </Trackpoint>
          <Trackpoint>
            <Time>2020-02-15T10:52:07.000Z</Time>
            <Position>
              <LatitudeDegrees>41.9826032035052776336669921875</LatitudeDegrees>
              <LongitudeDegrees>2.9009631089866161346435546875</LongitudeDegrees>
            </Position>
            <AltitudeMeters>427.79998779296875</AltitudeMeters>
            <DistanceMeters>NAN</DistanceMeters>
          </Trackpoint>
          <Trackpoint>
            <Time>2020-02-15T10:52:08.000Z</Time>
            <Position>
              <LatitudeDegrees>41.9826011918485164642333984375</LatitudeDegrees>
              <LongitudeDegrees>2.90097861550748348236083984375</LongitudeDegrees>
            </Position>
            <AltitudeMeters>428</AltitudeMeters>
            <DistanceMeters>NAN</DistanceMeters>
          </Trackpoint>
          <Trackpoint>
            <Time>2020-02-15T10:52:09.000Z</Time>
            <Position>
              <LatitudeDegrees>41.9825951568782329559326171875</LatitudeDegrees>
              <LongitudeDegrees>2.90099437348544597625732421875</LongitudeDegrees>
            </Position>
            <AltitudeMeters>428</AltitudeMeters>
            <DistanceMeters>NAN</DistanceMeters>
          </Trackpoint>
          <Trackpoint>
            <Time>2020-02-15T10:52:10.000Z</Time>
            <Position>
              <LatitudeDegrees>41.98259004391729831695556640625</LatitudeDegrees>
              <LongitudeDegrees>2.90101298131048679351806640625</LongitudeDegrees>
            </Position>
            <AltitudeMeters>428</AltitudeMeters>
            <DistanceMeters>NAN</DistanceMeters>
          </Trackpoint>
          <Trackpoint>
            <Time>2020-02-15T10:52:11.000Z</Time>
            <Position>
              <LatitudeDegrees>41.98258660733699798583984375</LatitudeDegrees>
              <LongitudeDegrees>2.9010315053164958953857421875</LongitudeDegrees>
            </Position>
            <AltitudeMeters>428</AltitudeMeters>
            <DistanceMeters>NAN</DistanceMeters>
          </Trackpoint>
          <Trackpoint>
            <Time>2020-02-15T10:52:12.000Z</Time>
            <Position>
              <LatitudeDegrees>41.9825837574899196624755859375</LatitudeDegrees>
              <LongitudeDegrees>2.90104785002768039703369140625</LongitudeDegrees>
            </Position>
            <AltitudeMeters>428</AltitudeMeters>
            <DistanceMeters>NAN</DistanceMeters>
          </Trackpoint>
          <Trackpoint>
            <Time>2020-02-15T10:52:13.000Z</Time>
            <Position>
              <LatitudeDegrees>41.98258065618574619293212890625</LatitudeDegrees>
              <LongitudeDegrees>2.9010678827762603759765625</LongitudeDegrees>
            </Position>
            <AltitudeMeters>428</AltitudeMeters>
            <DistanceMeters>NAN</DistanceMeters>
          </Trackpoint>
          <Trackpoint>
            <Time>2020-02-15T10:52:16.000Z</Time>
            <Position>
              <LatitudeDegrees>41.9825679995119571685791015625</LatitudeDegrees>
              <LongitudeDegrees>2.901125214993953704833984375</LongitudeDegrees>
            </Position>
            <AltitudeMeters>428.20001220703125</AltitudeMeters>
            <DistanceMeters>NAN</DistanceMeters>
          </Trackpoint>
          <Trackpoint>
            <Time>2020-02-15T10:52:18.000Z</Time>
            <Position>
              <LatitudeDegrees>41.98254763148725032806396484375</LatitudeDegrees>
              <LongitudeDegrees>2.9011592455208301544189453125</LongitudeDegrees>
            </Position>
            <AltitudeMeters>428</AltitudeMeters>
            <DistanceMeters>NAN</DistanceMeters>
          </Trackpoint>
          <Trackpoint>
            <Time>2020-02-15T10:52:19.000Z</Time>
            <Position>
              <LatitudeDegrees>41.9825381599366664886474609375</LatitudeDegrees>
              <LongitudeDegrees>2.90117978118360042572021484375</LongitudeDegrees>
            </Position>
            <AltitudeMeters>428.20001220703125</AltitudeMeters>
            <DistanceMeters>NAN</DistanceMeters>
          </Trackpoint>
          <Trackpoint>
            <Time>2020-02-15T10:52:21.000Z</Time>
            <Position>
              <LatitudeDegrees>41.9825203903019428253173828125</LatitudeDegrees>
              <LongitudeDegrees>2.9012169130146503448486328125</LongitudeDegrees>
            </Position>
            <AltitudeMeters>428.20001220703125</AltitudeMeters>
            <DistanceMeters>NAN</DistanceMeters>
          </Trackpoint>
          <Trackpoint>
            <Time>2020-02-15T10:52:22.000Z</Time>
            <Position>
              <LatitudeDegrees>41.98250857181847095489501953125</LatitudeDegrees>
              <LongitudeDegrees>2.90123845450580120086669921875</LongitudeDegrees>
            </Position>
            <AltitudeMeters>428.20001220703125</AltitudeMeters>
            <DistanceMeters>NAN</DistanceMeters>
          </Trackpoint>
          <Trackpoint>
            <Time>2020-02-15T10:52:23.000Z</Time>
            <Position>
              <LatitudeDegrees>41.98249784298241138458251953125</LatitudeDegrees>
              <LongitudeDegrees>2.9012568108737468719482421875</LongitudeDegrees>
            </Position>
            <AltitudeMeters>428.20001220703125</AltitudeMeters>
            <DistanceMeters>NAN</DistanceMeters>
          </Trackpoint>
          <Trackpoint>
            <Time>2020-02-15T10:52:24.000Z</Time>
            <Position>
              <LatitudeDegrees>41.98248895816504955291748046875</LatitudeDegrees>
              <LongitudeDegrees>2.90127567015588283538818359375</LongitudeDegrees>
            </Position>
            <AltitudeMeters>428.399993896484375</AltitudeMeters>
            <DistanceMeters>NAN</DistanceMeters>
          </Trackpoint>
          <Trackpoint>
            <Time>2020-02-15T10:52:25.000Z</Time>
            <Position>
              <LatitudeDegrees>41.98247554711997509002685546875</LatitudeDegrees>
              <LongitudeDegrees>2.90130081586539745330810546875</LongitudeDegrees>
            </Position>
            <AltitudeMeters>428.399993896484375</AltitudeMeters>
            <DistanceMeters>NAN</DistanceMeters>
          </Trackpoint>
          <Trackpoint>
            <Time>2020-02-15T10:52:26.000Z</Time>
            <Position>
              <LatitudeDegrees>41.982461549341678619384765625</LatitudeDegrees>
              <LongitudeDegrees>2.9013231955468654632568359375</LongitudeDegrees>
            </Position>
            <AltitudeMeters>428.600006103515625</AltitudeMeters>
            <DistanceMeters>NAN</DistanceMeters>
          </Trackpoint>
          <Trackpoint>
            <Time>2020-02-15T10:52:27.000Z</Time>
            <Position>
              <LatitudeDegrees>41.98244939558207988739013671875</LatitudeDegrees>
              <LongitudeDegrees>2.901347838342189788818359375</LongitudeDegrees>
            </Position>
            <AltitudeMeters>428.600006103515625</AltitudeMeters>
            <DistanceMeters>NAN</DistanceMeters>
          </Trackpoint>
          <Trackpoint>
            <Time>2020-02-15T10:52:28.000Z</Time>
            <Position>
              <LatitudeDegrees>41.9824372418224811553955078125</LatitudeDegrees>
              <LongitudeDegrees>2.9013701342046260833740234375</LongitudeDegrees>
            </Position>
            <AltitudeMeters>428.79998779296875</AltitudeMeters>
            <DistanceMeters>NAN</DistanceMeters>
          </Trackpoint>
          <Trackpoint>
            <Time>2020-02-15T10:52:29.000Z</Time>
            <Position>
              <LatitudeDegrees>41.98242567479610443115234375</LatitudeDegrees>
              <LongitudeDegrees>2.90139377117156982421875</LongitudeDegrees>
            </Position>
            <AltitudeMeters>428.79998779296875</AltitudeMeters>
            <DistanceMeters>NAN</DistanceMeters>
          </Trackpoint>
          <Trackpoint>
            <Time>2020-02-15T10:52:30.000Z</Time>
            <Position>
              <LatitudeDegrees>41.982413269579410552978515625</LatitudeDegrees>
              <LongitudeDegrees>2.9014197550714015960693359375</LongitudeDegrees>
            </Position>
            <AltitudeMeters>428.79998779296875</AltitudeMeters>
            <DistanceMeters>NAN</DistanceMeters>
          </Trackpoint>
          <Trackpoint>
            <Time>2020-02-15T10:52:31.000Z</Time>
            <Position>
              <LatitudeDegrees>41.982404552400112152099609375</LatitudeDegrees>
              <LongitudeDegrees>2.90144531987607479095458984375</LongitudeDegrees>
            </Position>
            <AltitudeMeters>429</AltitudeMeters>
            <DistanceMeters>NAN</DistanceMeters>
          </Trackpoint>
          <Trackpoint>
            <Time>2020-02-15T10:52:32.000Z</Time>
            <Position>
              <LatitudeDegrees>41.98239348828792572021484375</LatitudeDegrees>
              <LongitudeDegrees>2.9014697112143039703369140625</LongitudeDegrees>
            </Position>
            <AltitudeMeters>429.20001220703125</AltitudeMeters>
            <DistanceMeters>NAN</DistanceMeters>
          </Trackpoint>
          <Trackpoint>
            <Time>2020-02-15T10:52:33.000Z</Time>
            <Position>
              <LatitudeDegrees>41.98238334618508815765380859375</LatitudeDegrees>
              <LongitudeDegrees>2.90149074979126453399658203125</LongitudeDegrees>
            </Position>
            <AltitudeMeters>429.399993896484375</AltitudeMeters>
            <DistanceMeters>NAN</DistanceMeters>
          </Trackpoint>
          <Trackpoint>
            <Time>2020-02-15T10:52:34.000Z</Time>
            <Position>
              <LatitudeDegrees>41.98237630538642406463623046875</LatitudeDegrees>
              <LongitudeDegrees>2.9015146382153034210205078125</LongitudeDegrees>
            </Position>
            <AltitudeMeters>429.399993896484375</AltitudeMeters>
            <DistanceMeters>NAN</DistanceMeters>
          </Trackpoint>
          <Trackpoint>
            <Time>2020-02-15T10:52:35.000Z</Time>
            <Position>
              <LatitudeDegrees>41.98236959986388683319091796875</LatitudeDegrees>
              <LongitudeDegrees>2.90153718553483486175537109375</LongitudeDegrees>
            </Position>
            <AltitudeMeters>429.399993896484375</AltitudeMeters>
            <DistanceMeters>NAN</DistanceMeters>
          </Trackpoint>
          <Trackpoint>
            <Time>2020-02-15T10:52:36.000Z</Time>
            <Position>
              <LatitudeDegrees>41.98236390016973018646240234375</LatitudeDegrees>
              <LongitudeDegrees>2.90156073868274688720703125</LongitudeDegrees>
            </Position>
            <AltitudeMeters>429.600006103515625</AltitudeMeters>
            <DistanceMeters>NAN</DistanceMeters>
          </Trackpoint>
          <Trackpoint>
            <Time>2020-02-15T10:52:37.000Z</Time>
            <Position>
              <LatitudeDegrees>41.9823567755520343780517578125</LatitudeDegrees>
              <LongitudeDegrees>2.90158378891646862030029296875</LongitudeDegrees>
            </Position>
            <AltitudeMeters>429.79998779296875</AltitudeMeters>
            <DistanceMeters>NAN</DistanceMeters>
          </Trackpoint>
          <Trackpoint>
            <Time>2020-02-15T10:52:38.000Z</Time>
            <Position>
              <LatitudeDegrees>41.9823499023914337158203125</LatitudeDegrees>
              <LongitudeDegrees>2.90161279030144214630126953125</LongitudeDegrees>
            </Position>
            <AltitudeMeters>429.79998779296875</AltitudeMeters>
            <DistanceMeters>NAN</DistanceMeters>
          </Trackpoint>
          <Trackpoint>
            <Time>2020-02-15T10:52:39.000Z</Time>
            <Position>
              <LatitudeDegrees>41.9823467172682285308837890625</LatitudeDegrees>
              <LongitudeDegrees>2.901639528572559356689453125</LongitudeDegrees>
            </Position>
            <AltitudeMeters>429.79998779296875</AltitudeMeters>
            <DistanceMeters>NAN</DistanceMeters>
          </Trackpoint>
          <Trackpoint>
            <Time>2020-02-15T10:52:40.000Z</Time>
            <Position>
              <LatitudeDegrees>41.98234520852565765380859375</LatitudeDegrees>
              <LongitudeDegrees>2.901664674282073974609375</LongitudeDegrees>
            </Position>
            <AltitudeMeters>429.79998779296875</AltitudeMeters>
            <DistanceMeters>NAN</DistanceMeters>
          </Trackpoint>
          <Trackpoint>
            <Time>2020-02-15T10:52:41.000Z</Time>
            <Position>
              <LatitudeDegrees>41.98234361596405506134033203125</LatitudeDegrees>
              <LongitudeDegrees>2.90168948471546173095703125</LongitudeDegrees>
            </Position>
            <AltitudeMeters>430.20001220703125</AltitudeMeters>
            <DistanceMeters>NAN</DistanceMeters>
          </Trackpoint>
          <Trackpoint>
            <Time>2020-02-15T10:52:42.000Z</Time>
            <Position>
              <LatitudeDegrees>41.98234143666923046112060546875</LatitudeDegrees>
              <LongitudeDegrees>2.90170960128307342529296875</LongitudeDegrees>
            </Position>
            <AltitudeMeters>430.399993896484375</AltitudeMeters>
            <DistanceMeters>NAN</DistanceMeters>
          </Trackpoint>
          <Trackpoint>
            <Time>2020-02-15T10:52:43.000Z</Time>
            <Position>
              <LatitudeDegrees>41.9823400117456912994384765625</LatitudeDegrees>
              <LongitudeDegrees>2.90173516608774662017822265625</LongitudeDegrees>
            </Position>
            <AltitudeMeters>430.399993896484375</AltitudeMeters>
            <DistanceMeters>NAN</DistanceMeters>
          </Trackpoint>
          <Trackpoint>
            <Time>2020-02-15T10:52:44.000Z</Time>
            <Position>
              <LatitudeDegrees>41.98233841918408870697021484375</LatitudeDegrees>
              <LongitudeDegrees>2.90176114998757839202880859375</LongitudeDegrees>
            </Position>
            <AltitudeMeters>430.399993896484375</AltitudeMeters>
            <DistanceMeters>NAN</DistanceMeters>
          </Trackpoint>
          <Trackpoint>
            <Time>2020-02-15T10:52:45.000Z</Time>
            <Position>
              <LatitudeDegrees>41.98233523406088352203369140625</LatitudeDegrees>
              <LongitudeDegrees>2.9017848707735538482666015625</LongitudeDegrees>
            </Position>
            <AltitudeMeters>430.600006103515625</AltitudeMeters>
            <DistanceMeters>NAN</DistanceMeters>
          </Trackpoint>
          <Trackpoint>
            <Time>2020-02-15T10:52:46.000Z</Time>
            <Position>
              <LatitudeDegrees>41.9823338091373443603515625</LatitudeDegrees>
              <LongitudeDegrees>2.90181194432079792022705078125</LongitudeDegrees>
            </Position>
            <AltitudeMeters>430.79998779296875</AltitudeMeters>
            <DistanceMeters>NAN</DistanceMeters>
          </Trackpoint>
          <Trackpoint>
            <Time>2020-02-15T10:52:47.000Z</Time>
            <Position>
              <LatitudeDegrees>41.98233054019510746002197265625</LatitudeDegrees>
              <LongitudeDegrees>2.90183926932513713836669921875</LongitudeDegrees>
            </Position>
            <AltitudeMeters>431.20001220703125</AltitudeMeters>
            <DistanceMeters>NAN</DistanceMeters>
          </Trackpoint>
          <Trackpoint>
            <Time>2020-02-15T10:52:48.000Z</Time>
            <Position>
              <LatitudeDegrees>41.9823284447193145751953125</LatitudeDegrees>
              <LongitudeDegrees>2.901869527995586395263671875</LongitudeDegrees>
            </Position>
            <AltitudeMeters>431.399993896484375</AltitudeMeters>
            <DistanceMeters>NAN</DistanceMeters>
          </Trackpoint>
          <Trackpoint>
            <Time>2020-02-15T10:52:49.000Z</Time>
            <Position>
              <LatitudeDegrees>41.98232886381447315216064453125</LatitudeDegrees>
              <LongitudeDegrees>2.90189844556152820587158203125</LongitudeDegrees>
            </Position>
            <AltitudeMeters>431.399993896484375</AltitudeMeters>
            <DistanceMeters>NAN</DistanceMeters>
          </Trackpoint>
          <Trackpoint>
            <Time>2020-02-15T10:52:50.000Z</Time>
            <Position>
              <LatitudeDegrees>41.9823276065289974212646484375</LatitudeDegrees>
              <LongitudeDegrees>2.90192677639424800872802734375</LongitudeDegrees>
            </Position>
            <AltitudeMeters>431.399993896484375</AltitudeMeters>
            <DistanceMeters>NAN</DistanceMeters>
          </Trackpoint>
          <Trackpoint>
            <Time>2020-02-15T10:52:51.000Z</Time>
            <Position>
              <LatitudeDegrees>41.98232718743383884429931640625</LatitudeDegrees>
              <LongitudeDegrees>2.90194965898990631103515625</LongitudeDegrees>
            </Position>
            <AltitudeMeters>431.399993896484375</AltitudeMeters>
            <DistanceMeters>NAN</DistanceMeters>
          </Trackpoint>
          <Trackpoint>
            <Time>2020-02-15T10:52:52.000Z</Time>
            <Position>
              <LatitudeDegrees>41.982326768338680267333984375</LatitudeDegrees>
              <LongitudeDegrees>2.90197002701461315155029296875</LongitudeDegrees>
            </Position>
            <AltitudeMeters>431.600006103515625</AltitudeMeters>
            <DistanceMeters>NAN</DistanceMeters>
          </Trackpoint>
          <Trackpoint>
            <Time>2020-02-15T10:52:53.000Z</Time>
            <Position>
              <LatitudeDegrees>41.982324421405792236328125</LatitudeDegrees>
              <LongitudeDegrees>2.90199433453381061553955078125</LongitudeDegrees>
            </Position>
            <AltitudeMeters>431.79998779296875</AltitudeMeters>
            <DistanceMeters>NAN</DistanceMeters>
          </Trackpoint>
          <Trackpoint>
            <Time>2020-02-15T10:52:54.000Z</Time>
            <Position>
              <LatitudeDegrees>41.98232970200479030609130859375</LatitudeDegrees>
              <LongitudeDegrees>2.9020245932042598724365234375</LongitudeDegrees>
            </Position>
            <AltitudeMeters>432.20001220703125</AltitudeMeters>
            <DistanceMeters>NAN</DistanceMeters>
          </Trackpoint>
          <Trackpoint>
            <Time>2020-02-15T10:52:55.000Z</Time>
            <Position>
              <LatitudeDegrees>41.9823346473276615142822265625</LatitudeDegrees>
              <LongitudeDegrees>2.90205535478889942169189453125</LongitudeDegrees>
            </Position>
            <AltitudeMeters>432.399993896484375</AltitudeMeters>
            <DistanceMeters>NAN</DistanceMeters>
          </Trackpoint>
          <Trackpoint>
            <Time>2020-02-15T10:52:56.000Z</Time>
            <Position>
              <LatitudeDegrees>41.98234093375504016876220703125</LatitudeDegrees>
              <LongitudeDegrees>2.9020916484296321868896484375</LongitudeDegrees>
            </Position>
            <AltitudeMeters>432.600006103515625</AltitudeMeters>
            <DistanceMeters>NAN</DistanceMeters>
          </Trackpoint>
          <Trackpoint>
            <Time>2020-02-15T10:52:57.000Z</Time>
            <Position>
              <LatitudeDegrees>41.9823447056114673614501953125</LatitudeDegrees>
              <LongitudeDegrees>2.9021295346319675445556640625</LongitudeDegrees>
            </Position>
            <AltitudeMeters>432.600006103515625</AltitudeMeters>
            <DistanceMeters>NAN</DistanceMeters>
          </Trackpoint>
          <Trackpoint>
            <Time>2020-02-15T10:52:58.000Z</Time>
            <Position>
              <LatitudeDegrees>41.9823440350592136383056640625</LatitudeDegrees>
              <LongitudeDegrees>2.90216557681560516357421875</LongitudeDegrees>
            </Position>
            <AltitudeMeters>432.79998779296875</AltitudeMeters>
            <DistanceMeters>NAN</DistanceMeters>
          </Trackpoint>
          <Trackpoint>
            <Time>2020-02-15T10:52:59.000Z</Time>
            <Position>
              <LatitudeDegrees>41.9823490642011165618896484375</LatitudeDegrees>
              <LongitudeDegrees>2.90219851769506931304931640625</LongitudeDegrees>
            </Position>
            <AltitudeMeters>432.79998779296875</AltitudeMeters>
            <DistanceMeters>NAN</DistanceMeters>
          </Trackpoint>
          <Trackpoint>
            <Time>2020-02-15T10:53:00.000Z</Time>
            <Position>
              <LatitudeDegrees>41.98235501535236835479736328125</LatitudeDegrees>
              <LongitudeDegrees>2.902222238481044769287109375</LongitudeDegrees>
            </Position>
            <AltitudeMeters>433</AltitudeMeters>
            <DistanceMeters>NAN</DistanceMeters>
          </Trackpoint>
          <Trackpoint>
            <Time>2020-02-15T10:53:01.000Z</Time>
            <Position>
              <LatitudeDegrees>41.98235820047557353973388671875</LatitudeDegrees>
              <LongitudeDegrees>2.90224394761025905609130859375</LongitudeDegrees>
            </Position>
            <AltitudeMeters>433</AltitudeMeters>
            <DistanceMeters>NAN</DistanceMeters>
          </Trackpoint>
          <Trackpoint>
            <Time>2020-02-15T10:53:02.000Z</Time>
            <Position>
              <LatitudeDegrees>41.98235929012298583984375</LatitudeDegrees>
              <LongitudeDegrees>2.90226708166301250457763671875</LongitudeDegrees>
            </Position>
            <AltitudeMeters>433.399993896484375</AltitudeMeters>
            <DistanceMeters>NAN</DistanceMeters>
          </Trackpoint>
          <Trackpoint>
            <Time>2020-02-15T10:53:03.000Z</Time>
            <Position>
              <LatitudeDegrees>41.98235685937106609344482421875</LatitudeDegrees>
              <LongitudeDegrees>2.90229340083897113800048828125</LongitudeDegrees>
            </Position>
            <AltitudeMeters>433.20001220703125</AltitudeMeters>
            <DistanceMeters>NAN</DistanceMeters>
          </Trackpoint>
          <Trackpoint>
            <Time>2020-02-15T10:53:04.000Z</Time>
            <Position>
              <LatitudeDegrees>41.9823574461042881011962890625</LatitudeDegrees>
              <LongitudeDegrees>2.90231770835816860198974609375</LongitudeDegrees>
            </Position>
            <AltitudeMeters>433.20001220703125</AltitudeMeters>
            <DistanceMeters>NAN</DistanceMeters>
          </Trackpoint>
          <Trackpoint>
            <Time>2020-02-15T10:53:05.000Z</Time>
            <Position>
              <LatitudeDegrees>41.98235820047557353973388671875</LatitudeDegrees>
              <LongitudeDegrees>2.90234184823930263519287109375</LongitudeDegrees>
            </Position>
            <AltitudeMeters>433.20001220703125</AltitudeMeters>
            <DistanceMeters>NAN</DistanceMeters>
          </Trackpoint>
          <Trackpoint>
            <Time>2020-02-15T10:53:06.000Z</Time>
            <Position>
              <LatitudeDegrees>41.98235535062849521636962890625</LatitudeDegrees>
              <LongitudeDegrees>2.9023645631968975067138671875</LongitudeDegrees>
            </Position>
            <AltitudeMeters>433.399993896484375</AltitudeMeters>
            <DistanceMeters>NAN</DistanceMeters>
          </Trackpoint>
          <Trackpoint>
            <Time>2020-02-15T10:53:07.000Z</Time>
            <Position>
              <LatitudeDegrees>41.98235266841948032379150390625</LatitudeDegrees>
              <LongitudeDegrees>2.90238996036350727081298828125</LongitudeDegrees>
            </Position>
            <AltitudeMeters>433.600006103515625</AltitudeMeters>
            <DistanceMeters>NAN</DistanceMeters>
          </Trackpoint>
          <Trackpoint>
            <Time>2020-02-15T10:53:08.000Z</Time>
            <Position>
              <LatitudeDegrees>41.9823514111340045928955078125</LatitudeDegrees>
              <LongitudeDegrees>2.90241410024464130401611328125</LongitudeDegrees>
            </Position>
            <AltitudeMeters>433.600006103515625</AltitudeMeters>
            <DistanceMeters>NAN</DistanceMeters>
          </Trackpoint>
          <Trackpoint>
            <Time>2020-02-15T10:53:09.000Z</Time>
            <Position>
              <LatitudeDegrees>41.9823487289249897003173828125</LatitudeDegrees>
              <LongitudeDegrees>2.90244142524898052215576171875</LongitudeDegrees>
            </Position>
            <AltitudeMeters>433.600006103515625</AltitudeMeters>
            <DistanceMeters>NAN</DistanceMeters>
          </Trackpoint>
          <Trackpoint>
            <Time>2020-02-15T10:53:11.000Z</Time>
            <Position>
              <LatitudeDegrees>41.982334814965724945068359375</LatitudeDegrees>
              <LongitudeDegrees>2.90249590761959552764892578125</LongitudeDegrees>
            </Position>
            <AltitudeMeters>434</AltitudeMeters>
            <DistanceMeters>NAN</DistanceMeters>
          </Trackpoint>
          <Trackpoint>
            <Time>2020-02-15T10:53:13.000Z</Time>
            <Position>
              <LatitudeDegrees>41.982318721711635589599609375</LatitudeDegrees>
              <LongitudeDegrees>2.9025516472756862640380859375</LongitudeDegrees>
            </Position>
            <AltitudeMeters>434</AltitudeMeters>
            <DistanceMeters>NAN</DistanceMeters>
          </Trackpoint>
          <Trackpoint>
            <Time>2020-02-15T10:53:14.000Z</Time>
            <Position>
              <LatitudeDegrees>41.98231436312198638916015625</LatitudeDegrees>
              <LongitudeDegrees>2.902576625347137451171875</LongitudeDegrees>
            </Position>
            <AltitudeMeters>434.20001220703125</AltitudeMeters>
            <DistanceMeters>NAN</DistanceMeters>
          </Trackpoint>
          <Trackpoint>
            <Time>2020-02-15T10:53:15.000Z</Time>
            <Position>
              <LatitudeDegrees>41.98231277056038379669189453125</LatitudeDegrees>
              <LongitudeDegrees>2.902606464922428131103515625</LongitudeDegrees>
            </Position>
            <AltitudeMeters>434.20001220703125</AltitudeMeters>
            <DistanceMeters>NAN</DistanceMeters>
          </Trackpoint>
          <Trackpoint>
            <Time>2020-02-15T10:53:16.000Z</Time>
            <Position>
              <LatitudeDegrees>41.9823081605136394500732421875</LatitudeDegrees>
              <LongitudeDegrees>2.9026369750499725341796875</LongitudeDegrees>
            </Position>
            <AltitudeMeters>434.20001220703125</AltitudeMeters>
            <DistanceMeters>NAN</DistanceMeters>
          </Trackpoint>
          <Trackpoint>
            <Time>2020-02-15T10:53:17.000Z</Time>
            <Position>
              <LatitudeDegrees>41.98230070061981678009033203125</LatitudeDegrees>
              <LongitudeDegrees>2.90267075411975383758544921875</LongitudeDegrees>
            </Position>
            <AltitudeMeters>434.600006103515625</AltitudeMeters>
            <DistanceMeters>NAN</DistanceMeters>
          </Trackpoint>
          <Trackpoint>
            <Time>2020-02-15T10:53:18.000Z</Time>
            <Position>
              <LatitudeDegrees>41.98228863067924976348876953125</LatitudeDegrees>
              <LongitudeDegrees>2.90270277298986911773681640625</LongitudeDegrees>
            </Position>
            <AltitudeMeters>434.399993896484375</AltitudeMeters>
            <DistanceMeters>NAN</DistanceMeters>
          </Trackpoint>
          <Trackpoint>
            <Time>2020-02-15T10:53:19.000Z</Time>
            <Position>
              <LatitudeDegrees>41.98228209279477596282958984375</LatitudeDegrees>
              <LongitudeDegrees>2.902737893164157867431640625</LongitudeDegrees>
            </Position>
            <AltitudeMeters>434.79998779296875</AltitudeMeters>
            <DistanceMeters>NAN</DistanceMeters>
          </Trackpoint>
          <Trackpoint>
            <Time>2020-02-15T10:53:20.000Z</Time>
            <Position>
              <LatitudeDegrees>41.9822726212441921234130859375</LatitudeDegrees>
              <LongitudeDegrees>2.9027732647955417633056640625</LongitudeDegrees>
            </Position>
            <AltitudeMeters>435</AltitudeMeters>
            <DistanceMeters>NAN</DistanceMeters>
          </Trackpoint>
          <Trackpoint>
            <Time>2020-02-15T10:53:21.000Z</Time>
            <Position>
              <LatitudeDegrees>41.982259713113307952880859375</LatitudeDegrees>
              <LongitudeDegrees>2.90280838496983051300048828125</LongitudeDegrees>
            </Position>
            <AltitudeMeters>435</AltitudeMeters>
            <DistanceMeters>NAN</DistanceMeters>
          </Trackpoint>
          <Trackpoint>
            <Time>2020-02-15T10:53:22.000Z</Time>
            <Position>
              <LatitudeDegrees>41.98224655352532863616943359375</LatitudeDegrees>
              <LongitudeDegrees>2.9028419964015483856201171875</LongitudeDegrees>
            </Position>
            <AltitudeMeters>435</AltitudeMeters>
            <DistanceMeters>NAN</DistanceMeters>
          </Trackpoint>
          <Trackpoint>
            <Time>2020-02-15T10:53:24.000Z</Time>
            <Position>
              <LatitudeDegrees>41.9822199828922748565673828125</LatitudeDegrees>
              <LongitudeDegrees>2.90291927754878997802734375</LongitudeDegrees>
            </Position>
            <AltitudeMeters>435.399993896484375</AltitudeMeters>
            <DistanceMeters>NAN</DistanceMeters>
          </Trackpoint>
          <Trackpoint>
            <Time>2020-02-15T10:53:25.000Z</Time>
            <Position>
              <LatitudeDegrees>41.98220984078943729400634765625</LatitudeDegrees>
              <LongitudeDegrees>2.9029670543968677520751953125</LongitudeDegrees>
            </Position>
            <AltitudeMeters>435.399993896484375</AltitudeMeters>
            <DistanceMeters>NAN</DistanceMeters>
          </Trackpoint>
          <Trackpoint>
            <Time>2020-02-15T10:53:27.000Z</Time>
            <Position>
              <LatitudeDegrees>41.982189975678920745849609375</LatitudeDegrees>
              <LongitudeDegrees>2.90305917151272296905517578125</LongitudeDegrees>
            </Position>
            <AltitudeMeters>435.20001220703125</AltitudeMeters>
            <DistanceMeters>NAN</DistanceMeters>
          </Trackpoint>
          <Trackpoint>
            <Time>2020-02-15T10:53:29.000Z</Time>
            <Position>
              <LatitudeDegrees>41.98217564262449741363525390625</LatitudeDegrees>
              <LongitudeDegrees>2.9031464271247386932373046875</LongitudeDegrees>
            </Position>
            <AltitudeMeters>435.20001220703125</AltitudeMeters>
            <DistanceMeters>NAN</DistanceMeters>
          </Trackpoint>
          <Trackpoint>
            <Time>2020-02-15T10:53:30.000Z</Time>
            <Position>
              <LatitudeDegrees>41.9821673445403575897216796875</LatitudeDegrees>
              <LongitudeDegrees>2.9031963832676410675048828125</LongitudeDegrees>
            </Position>
            <AltitudeMeters>435.20001220703125</AltitudeMeters>
            <DistanceMeters>NAN</DistanceMeters>
          </Trackpoint>
          <Trackpoint>
            <Time>2020-02-15T10:53:34.000Z</Time>
            <Position>
              <LatitudeDegrees>41.982145048677921295166015625</LatitudeDegrees>
              <LongitudeDegrees>2.9034136421978473663330078125</LongitudeDegrees>
            </Position>
            <AltitudeMeters>435</AltitudeMeters>
            <DistanceMeters>NAN</DistanceMeters>
          </Trackpoint>
          <Trackpoint>
            <Time>2020-02-15T10:53:35.000Z</Time>
            <Position>
              <LatitudeDegrees>41.9821421988308429718017578125</LatitudeDegrees>
              <LongitudeDegrees>2.9034657776355743408203125</LongitudeDegrees>
            </Position>
            <AltitudeMeters>435</AltitudeMeters>
            <DistanceMeters>NAN</DistanceMeters>
          </Trackpoint>
          <Trackpoint>
            <Time>2020-02-15T10:53:36.000Z</Time>
            <Position>
              <LatitudeDegrees>41.9821401871740818023681640625</LatitudeDegrees>
              <LongitudeDegrees>2.90352017618715763092041015625</LongitudeDegrees>
            </Position>
            <AltitudeMeters>435</AltitudeMeters>
            <DistanceMeters>NAN</DistanceMeters>
          </Trackpoint>
          <Trackpoint>
            <Time>2020-02-15T10:53:37.000Z</Time>
            <Position>
              <LatitudeDegrees>41.98213608004152774810791015625</LatitudeDegrees>
              <LongitudeDegrees>2.9035732336342334747314453125</LongitudeDegrees>
            </Position>
            <AltitudeMeters>435.20001220703125</AltitudeMeters>
            <DistanceMeters>NAN</DistanceMeters>
          </Trackpoint>
          <Trackpoint>
            <Time>2020-02-15T10:53:38.000Z</Time>
            <Position>
              <LatitudeDegrees>41.98213222436606884002685546875</LatitudeDegrees>
              <LongitudeDegrees>2.90363081730902194976806640625</LongitudeDegrees>
            </Position>
            <AltitudeMeters>435</AltitudeMeters>
            <DistanceMeters>NAN</DistanceMeters>
          </Trackpoint>
          <Trackpoint>
            <Time>2020-02-15T10:53:40.000Z</Time>
            <Position>
              <LatitudeDegrees>41.9821247644722461700439453125</LatitudeDegrees>
              <LongitudeDegrees>2.9037321545183658599853515625</LongitudeDegrees>
            </Position>
            <AltitudeMeters>435</AltitudeMeters>
            <DistanceMeters>NAN</DistanceMeters>
          </Trackpoint>
          <Trackpoint>
            <Time>2020-02-15T10:53:41.000Z</Time>
            <Position>
              <LatitudeDegrees>41.98212216608226299285888671875</LatitudeDegrees>
              <LongitudeDegrees>2.9037822782993316650390625</LongitudeDegrees>
            </Position>
            <AltitudeMeters>435</AltitudeMeters>
            <DistanceMeters>NAN</DistanceMeters>
          </Trackpoint>
          <Trackpoint>
            <Time>2020-02-15T10:53:42.000Z</Time>
            <Position>
              <LatitudeDegrees>41.98212635703384876251220703125</LatitudeDegrees>
              <LongitudeDegrees>2.90382544510066509246826171875</LongitudeDegrees>
            </Position>
            <AltitudeMeters>435.20001220703125</AltitudeMeters>
            <DistanceMeters>NAN</DistanceMeters>
          </Trackpoint>
          <Trackpoint>
            <Time>2020-02-15T10:53:43.000Z</Time>
            <Position>
              <LatitudeDegrees>41.98212685994803905487060546875</LatitudeDegrees>
              <LongitudeDegrees>2.90387020446360111236572265625</LongitudeDegrees>
            </Position>
            <AltitudeMeters>435.20001220703125</AltitudeMeters>
            <DistanceMeters>NAN</DistanceMeters>
          </Trackpoint>
          <Trackpoint>
            <Time>2020-02-15T10:53:44.000Z</Time>
            <Position>
              <LatitudeDegrees>41.98213004507124423980712890625</LatitudeDegrees>
              <LongitudeDegrees>2.90391462855041027069091796875</LongitudeDegrees>
            </Position>
            <AltitudeMeters>435.20001220703125</AltitudeMeters>
            <DistanceMeters>NAN</DistanceMeters>
          </Trackpoint>
          <Trackpoint>
            <Time>2020-02-15T10:53:45.000Z</Time>
            <Position>
              <LatitudeDegrees>41.98213708586990833282470703125</LatitudeDegrees>
              <LongitudeDegrees>2.9039593040943145751953125</LongitudeDegrees>
            </Position>
            <AltitudeMeters>435</AltitudeMeters>
            <DistanceMeters>NAN</DistanceMeters>
          </Trackpoint>
          <Trackpoint>
            <Time>2020-02-15T10:53:46.000Z</Time>
            <Position>
              <LatitudeDegrees>41.98214211501181125640869140625</LatitudeDegrees>
              <LongitudeDegrees>2.90400087833404541015625</LongitudeDegrees>
            </Position>
            <AltitudeMeters>435.20001220703125</AltitudeMeters>
            <DistanceMeters>NAN</DistanceMeters>
          </Trackpoint>
          <Trackpoint>
            <Time>2020-02-15T10:53:47.000Z</Time>
            <Position>
              <LatitudeDegrees>41.9821460545063018798828125</LatitudeDegrees>
              <LongitudeDegrees>2.90404169820249080657958984375</LongitudeDegrees>
            </Position>
            <AltitudeMeters>435.20001220703125</AltitudeMeters>
            <DistanceMeters>NAN</DistanceMeters>
          </Trackpoint>
          <Trackpoint>
            <Time>2020-02-15T10:53:48.000Z</Time>
            <Position>
              <LatitudeDegrees>41.98214462958276271820068359375</LatitudeDegrees>
              <LongitudeDegrees>2.90407740511000156402587890625</LongitudeDegrees>
            </Position>
            <AltitudeMeters>435.399993896484375</AltitudeMeters>
            <DistanceMeters>NAN</DistanceMeters>
          </Trackpoint>
          <Trackpoint>
            <Time>2020-02-15T10:53:49.000Z</Time>
            <Position>
              <LatitudeDegrees>41.982149742543697357177734375</LatitudeDegrees>
              <LongitudeDegrees>2.904116548597812652587890625</LongitudeDegrees>
            </Position>
            <AltitudeMeters>435.399993896484375</AltitudeMeters>
            <DistanceMeters>NAN</DistanceMeters>
          </Trackpoint>
          <Trackpoint>
            <Time>2020-02-15T10:53:50.000Z</Time>
            <Position>
              <LatitudeDegrees>41.9821586273610591888427734375</LatitudeDegrees>
              <LongitudeDegrees>2.90415535680949687957763671875</LongitudeDegrees>
            </Position>
            <AltitudeMeters>435.600006103515625</AltitudeMeters>
            <DistanceMeters>NAN</DistanceMeters>
          </Trackpoint>
          <Trackpoint>
            <Time>2020-02-15T10:53:51.000Z</Time>
            <Position>
              <LatitudeDegrees>41.98216357268393039703369140625</LatitudeDegrees>
              <LongitudeDegrees>2.90419206954538822174072265625</LongitudeDegrees>
            </Position>
            <AltitudeMeters>435.399993896484375</AltitudeMeters>
            <DistanceMeters>NAN</DistanceMeters>
          </Trackpoint>
          <Trackpoint>
            <Time>2020-02-15T10:53:52.000Z</Time>
            <Position>
              <LatitudeDegrees>41.98217178694903850555419921875</LatitudeDegrees>
              <LongitudeDegrees>2.90423112921416759490966796875</LongitudeDegrees>
            </Position>
            <AltitudeMeters>435.600006103515625</AltitudeMeters>
            <DistanceMeters>NAN</DistanceMeters>
          </Trackpoint>
          <Trackpoint>
            <Time>2020-02-15T10:53:53.000Z</Time>
            <Position>
              <LatitudeDegrees>41.98218083940446376800537109375</LatitudeDegrees>
              <LongitudeDegrees>2.90427471511065959930419921875</LongitudeDegrees>
            </Position>
            <AltitudeMeters>435.79998779296875</AltitudeMeters>
            <DistanceMeters>NAN</DistanceMeters>
          </Trackpoint>
          <Trackpoint>
            <Time>2020-02-15T10:53:54.000Z</Time>
            <Position>
              <LatitudeDegrees>41.9821837730705738067626953125</LatitudeDegrees>
              <LongitudeDegrees>2.90431804955005645751953125</LongitudeDegrees>
            </Position>
            <AltitudeMeters>436</AltitudeMeters>
            <DistanceMeters>NAN</DistanceMeters>
          </Trackpoint>
          <Trackpoint>
            <Time>2020-02-15T10:53:55.000Z</Time>
            <Position>
              <LatitudeDegrees>41.98218536563217639923095703125</LatitudeDegrees>
              <LongitudeDegrees>2.90436088107526302337646484375</LongitudeDegrees>
            </Position>
            <AltitudeMeters>436.20001220703125</AltitudeMeters>
            <DistanceMeters>NAN</DistanceMeters>
          </Trackpoint>
          <Trackpoint>
            <Time>2020-02-15T10:53:56.000Z</Time>
            <Position>
              <LatitudeDegrees>41.9821921549737453460693359375</LatitudeDegrees>
              <LongitudeDegrees>2.90440547280013561248779296875</LongitudeDegrees>
            </Position>
            <AltitudeMeters>436.399993896484375</AltitudeMeters>
            <DistanceMeters>NAN</DistanceMeters>
          </Trackpoint>
          <Trackpoint>
            <Time>2020-02-15T10:53:57.000Z</Time>
            <Position>
              <LatitudeDegrees>41.98220028541982173919677734375</LatitudeDegrees>
              <LongitudeDegrees>2.9044476337730884552001953125</LongitudeDegrees>
            </Position>
            <AltitudeMeters>436.600006103515625</AltitudeMeters>
            <DistanceMeters>NAN</DistanceMeters>
          </Trackpoint>
          <Trackpoint>
            <Time>2020-02-15T10:53:58.000Z</Time>
            <Position>
              <LatitudeDegrees>41.9822037220001220703125</LatitudeDegrees>
              <LongitudeDegrees>2.90448174811899662017822265625</LongitudeDegrees>
            </Position>
            <AltitudeMeters>436.79998779296875</AltitudeMeters>
            <DistanceMeters>NAN</DistanceMeters>
          </Trackpoint>
          <Trackpoint>
            <Time>2020-02-15T10:53:59.000Z</Time>
            <Position>
              <LatitudeDegrees>41.98220900259912014007568359375</LatitudeDegrees>
              <LongitudeDegrees>2.904514856636524200439453125</LongitudeDegrees>
            </Position>
            <AltitudeMeters>436.600006103515625</AltitudeMeters>
            <DistanceMeters>NAN</DistanceMeters>
          </Trackpoint>
          <Trackpoint>
            <Time>2020-02-15T10:54:00.000Z</Time>
            <Position>
              <LatitudeDegrees>41.98221378028392791748046875</LatitudeDegrees>
              <LongitudeDegrees>2.904545366764068603515625</LongitudeDegrees>
            </Position>
            <AltitudeMeters>437</AltitudeMeters>
            <DistanceMeters>NAN</DistanceMeters>
          </Trackpoint>
          <Trackpoint>
            <Time>2020-02-15T10:54:01.000Z</Time>
            <Position>
              <LatitudeDegrees>41.9822162948548793792724609375</LatitudeDegrees>
              <LongitudeDegrees>2.90457881055772304534912109375</LongitudeDegrees>
            </Position>
            <AltitudeMeters>437.399993896484375</AltitudeMeters>
            <DistanceMeters>NAN</DistanceMeters>
          </Trackpoint>
          <Trackpoint>
            <Time>2020-02-15T10:54:02.000Z</Time>
            <Position>
              <LatitudeDegrees>41.9822162948548793792724609375</LatitudeDegrees>
              <LongitudeDegrees>2.9046149365603923797607421875</LongitudeDegrees>
            </Position>
            <AltitudeMeters>437.600006103515625</AltitudeMeters>
            <DistanceMeters>NAN</DistanceMeters>
          </Trackpoint>
          <Trackpoint>
            <Time>2020-02-15T10:54:03.000Z</Time>
            <Position>
              <LatitudeDegrees>41.9822136126458644866943359375</LatitudeDegrees>
              <LongitudeDegrees>2.90464888326823711395263671875</LongitudeDegrees>
            </Position>
            <AltitudeMeters>438</AltitudeMeters>
            <DistanceMeters>NAN</DistanceMeters>
          </Trackpoint>
          <Trackpoint>
            <Time>2020-02-15T10:54:04.000Z</Time>
            <Position>
              <LatitudeDegrees>41.98221243917942047119140625</LatitudeDegrees>
              <LongitudeDegrees>2.904682494699954986572265625</LongitudeDegrees>
            </Position>
            <AltitudeMeters>438.20001220703125</AltitudeMeters>
            <DistanceMeters>NAN</DistanceMeters>
          </Trackpoint>
          <Trackpoint>
            <Time>2020-02-15T10:54:05.000Z</Time>
            <Position>
              <LatitudeDegrees>41.98221822269260883331298828125</LatitudeDegrees>
              <LongitudeDegrees>2.904716692864894866943359375</LongitudeDegrees>
            </Position>
            <AltitudeMeters>438.600006103515625</AltitudeMeters>
            <DistanceMeters>NAN</DistanceMeters>
          </Trackpoint>
          <Trackpoint>
            <Time>2020-02-15T10:54:06.000Z</Time>
            <Position>
              <LatitudeDegrees>41.9822290353477001190185546875</LatitudeDegrees>
              <LongitudeDegrees>2.90474778972566127777099609375</LongitudeDegrees>
            </Position>
            <AltitudeMeters>438.600006103515625</AltitudeMeters>
            <DistanceMeters>NAN</DistanceMeters>
          </Trackpoint>
          <Trackpoint>
            <Time>2020-02-15T10:54:07.000Z</Time>
            <Position>
              <LatitudeDegrees>41.982237584888935089111328125</LatitudeDegrees>
              <LongitudeDegrees>2.9047715105116367340087890625</LongitudeDegrees>
            </Position>
            <AltitudeMeters>438.79998779296875</AltitudeMeters>
            <DistanceMeters>NAN</DistanceMeters>
          </Trackpoint>
          <Trackpoint>
            <Time>2020-02-15T10:54:08.000Z</Time>
            <Position>
              <LatitudeDegrees>41.982250325381755828857421875</LatitudeDegrees>
              <LongitudeDegrees>2.90479405783116817474365234375</LongitudeDegrees>
            </Position>
            <AltitudeMeters>439.20001220703125</AltitudeMeters>
            <DistanceMeters>NAN</DistanceMeters>
          </Trackpoint>
          <Trackpoint>
            <Time>2020-02-15T10:54:09.000Z</Time>
            <Position>
              <LatitudeDegrees>41.982252337038516998291015625</LatitudeDegrees>
              <LongitudeDegrees>2.9048157669603824615478515625</LongitudeDegrees>
            </Position>
            <AltitudeMeters>439.20001220703125</AltitudeMeters>
            <DistanceMeters>NAN</DistanceMeters>
          </Trackpoint>
          <Trackpoint>
            <Time>2020-02-15T10:54:10.000Z</Time>
            <Position>
              <LatitudeDegrees>41.98225862346589565277099609375</LatitudeDegrees>
              <LongitudeDegrees>2.9048389010131359100341796875</LongitudeDegrees>
            </Position>
            <AltitudeMeters>439.20001220703125</AltitudeMeters>
            <DistanceMeters>NAN</DistanceMeters>
          </Trackpoint>
          <Trackpoint>
            <Time>2020-02-15T10:54:11.000Z</Time>
            <Position>
              <LatitudeDegrees>41.9822679273784160614013671875</LatitudeDegrees>
              <LongitudeDegrees>2.9048613645136356353759765625</LongitudeDegrees>
            </Position>
            <AltitudeMeters>439.399993896484375</AltitudeMeters>
            <DistanceMeters>NAN</DistanceMeters>
          </Trackpoint>
          <Trackpoint>
            <Time>2020-02-15T10:54:12.000Z</Time>
            <Position>
              <LatitudeDegrees>41.98227287270128726959228515625</LatitudeDegrees>
              <LongitudeDegrees>2.90488139726221561431884765625</LongitudeDegrees>
            </Position>
            <AltitudeMeters>439.600006103515625</AltitudeMeters>
            <DistanceMeters>NAN</DistanceMeters>
          </Trackpoint>
          <Trackpoint>
            <Time>2020-02-15T10:54:13.000Z</Time>
            <Position>
              <LatitudeDegrees>41.98227672837674617767333984375</LatitudeDegrees>
              <LongitudeDegrees>2.90490285493433475494384765625</LongitudeDegrees>
            </Position>
            <AltitudeMeters>439.79998779296875</AltitudeMeters>
            <DistanceMeters>NAN</DistanceMeters>
          </Trackpoint>
          <Trackpoint>
            <Time>2020-02-15T10:54:14.000Z</Time>
            <Position>
              <LatitudeDegrees>41.9822803325951099395751953125</LatitudeDegrees>
              <LongitudeDegrees>2.90492397733032703399658203125</LongitudeDegrees>
            </Position>
            <AltitudeMeters>440</AltitudeMeters>
            <DistanceMeters>NAN</DistanceMeters>
          </Trackpoint>
          <Trackpoint>
            <Time>2020-02-15T10:54:15.000Z</Time>
            <Position>
              <LatitudeDegrees>41.9822833500802516937255859375</LatitudeDegrees>
              <LongitudeDegrees>2.90494392625987529754638671875</LongitudeDegrees>
            </Position>
            <AltitudeMeters>440.399993896484375</AltitudeMeters>
            <DistanceMeters>NAN</DistanceMeters>
          </Trackpoint>
          <Trackpoint>
            <Time>2020-02-15T10:54:16.000Z</Time>
            <Position>
              <LatitudeDegrees>41.982283182442188262939453125</LatitudeDegrees>
              <LongitudeDegrees>2.90496848523616790771484375</LongitudeDegrees>
            </Position>
            <AltitudeMeters>441</AltitudeMeters>
            <DistanceMeters>NAN</DistanceMeters>
          </Trackpoint>
          <Trackpoint>
            <Time>2020-02-15T10:54:17.000Z</Time>
            <Position>
              <LatitudeDegrees>41.98228427208960056304931640625</LatitudeDegrees>
              <LongitudeDegrees>2.90499187074601650238037109375</LongitudeDegrees>
            </Position>
            <AltitudeMeters>441</AltitudeMeters>
            <DistanceMeters>NAN</DistanceMeters>
          </Trackpoint>
          <Trackpoint>
            <Time>2020-02-15T10:54:18.000Z</Time>
            <Position>
              <LatitudeDegrees>41.98228427208960056304931640625</LatitudeDegrees>
              <LongitudeDegrees>2.90501282550394535064697265625</LongitudeDegrees>
            </Position>
            <AltitudeMeters>441.20001220703125</AltitudeMeters>
            <DistanceMeters>NAN</DistanceMeters>
          </Trackpoint>
          <Trackpoint>
            <Time>2020-02-15T10:54:19.000Z</Time>
            <Position>
              <LatitudeDegrees>41.9822828471660614013671875</LatitudeDegrees>
              <LongitudeDegrees>2.90503084659576416015625</LongitudeDegrees>
            </Position>
            <AltitudeMeters>441.600006103515625</AltitudeMeters>
            <DistanceMeters>NAN</DistanceMeters>
          </Trackpoint>
          <Trackpoint>
            <Time>2020-02-15T10:54:20.000Z</Time>
            <Position>
              <LatitudeDegrees>41.982281170785427093505859375</LatitudeDegrees>
              <LongitudeDegrees>2.9050524719059467315673828125</LongitudeDegrees>
            </Position>
            <AltitudeMeters>441.79998779296875</AltitudeMeters>
            <DistanceMeters>NAN</DistanceMeters>
          </Trackpoint>
          <Trackpoint>
            <Time>2020-02-15T10:54:21.000Z</Time>
            <Position>
              <LatitudeDegrees>41.9822826795279979705810546875</LatitudeDegrees>
              <LongitudeDegrees>2.9050759412348270416259765625</LongitudeDegrees>
            </Position>
            <AltitudeMeters>442</AltitudeMeters>
            <DistanceMeters>NAN</DistanceMeters>
          </Trackpoint>
          <Trackpoint>
            <Time>2020-02-15T10:54:22.000Z</Time>
            <Position>
              <LatitudeDegrees>41.98228661902248859405517578125</LatitudeDegrees>
              <LongitudeDegrees>2.9050967283546924591064453125</LongitudeDegrees>
            </Position>
            <AltitudeMeters>442.20001220703125</AltitudeMeters>
            <DistanceMeters>NAN</DistanceMeters>
          </Trackpoint>
          <Trackpoint>
            <Time>2020-02-15T10:54:23.000Z</Time>
            <Position>
              <LatitudeDegrees>41.98229064233601093292236328125</LatitudeDegrees>
              <LongitudeDegrees>2.9051180183887481689453125</LongitudeDegrees>
            </Position>
            <AltitudeMeters>442.399993896484375</AltitudeMeters>
            <DistanceMeters>NAN</DistanceMeters>
          </Trackpoint>
          <Trackpoint>
            <Time>2020-02-15T10:54:24.000Z</Time>
            <Position>
              <LatitudeDegrees>41.98229164816439151763916015625</LatitudeDegrees>
              <LongitudeDegrees>2.90513620711863040924072265625</LongitudeDegrees>
            </Position>
            <AltitudeMeters>442.79998779296875</AltitudeMeters>
            <DistanceMeters>NAN</DistanceMeters>
          </Trackpoint>
          <Trackpoint>
            <Time>2020-02-15T10:54:25.000Z</Time>
            <Position>
              <LatitudeDegrees>41.9822927378118038177490234375</LatitudeDegrees>
              <LongitudeDegrees>2.90515196509659290313720703125</LongitudeDegrees>
            </Position>
            <AltitudeMeters>442.79998779296875</AltitudeMeters>
            <DistanceMeters>NAN</DistanceMeters>
          </Trackpoint>
          <Trackpoint>
            <Time>2020-02-15T10:54:26.000Z</Time>
            <Position>
              <LatitudeDegrees>41.9822947494685649871826171875</LatitudeDegrees>
              <LongitudeDegrees>2.90516872890293598175048828125</LongitudeDegrees>
            </Position>
            <AltitudeMeters>443.20001220703125</AltitudeMeters>
            <DistanceMeters>NAN</DistanceMeters>
          </Trackpoint>
          <Trackpoint>
            <Time>2020-02-15T10:54:27.000Z</Time>
            <Position>
              <LatitudeDegrees>41.98229650966823101043701171875</LatitudeDegrees>
              <LongitudeDegrees>2.9051859118044376373291015625</LongitudeDegrees>
            </Position>
            <AltitudeMeters>443.399993896484375</AltitudeMeters>
            <DistanceMeters>NAN</DistanceMeters>
          </Trackpoint>
          <Trackpoint>
            <Time>2020-02-15T10:54:28.000Z</Time>
            <Position>
              <LatitudeDegrees>41.98229491710662841796875</LatitudeDegrees>
              <LongitudeDegrees>2.905202843248844146728515625</LongitudeDegrees>
            </Position>
            <AltitudeMeters>443.399993896484375</AltitudeMeters>
            <DistanceMeters>NAN</DistanceMeters>
          </Trackpoint>
          <Trackpoint>
            <Time>2020-02-15T10:54:29.000Z</Time>
            <Position>
              <LatitudeDegrees>41.982291899621486663818359375</LatitudeDegrees>
              <LongitudeDegrees>2.9052180983126163482666015625</LongitudeDegrees>
            </Position>
            <AltitudeMeters>443.600006103515625</AltitudeMeters>
            <DistanceMeters>NAN</DistanceMeters>
          </Trackpoint>
          <Trackpoint>
            <Time>2020-02-15T10:54:30.000Z</Time>
            <Position>
              <LatitudeDegrees>41.982286535203456878662109375</LatitudeDegrees>
              <LongitudeDegrees>2.9052375443279743194580078125</LongitudeDegrees>
            </Position>
            <AltitudeMeters>443.600006103515625</AltitudeMeters>
            <DistanceMeters>NAN</DistanceMeters>
          </Trackpoint>
          <Trackpoint>
            <Time>2020-02-15T10:54:31.000Z</Time>
            <Position>
              <LatitudeDegrees>41.9822816736996173858642578125</LatitudeDegrees>
              <LongitudeDegrees>2.90525774471461772918701171875</LongitudeDegrees>
            </Position>
            <AltitudeMeters>443.600006103515625</AltitudeMeters>
            <DistanceMeters>NAN</DistanceMeters>
          </Trackpoint>
          <Trackpoint>
            <Time>2020-02-15T10:54:32.000Z</Time>
            <Position>
              <LatitudeDegrees>41.9822843559086322784423828125</LatitudeDegrees>
              <LongitudeDegrees>2.90528054349124431610107421875</LongitudeDegrees>
            </Position>
            <AltitudeMeters>444</AltitudeMeters>
            <DistanceMeters>NAN</DistanceMeters>
          </Trackpoint>
          <Trackpoint>
            <Time>2020-02-15T10:54:33.000Z</Time>
            <Position>
              <LatitudeDegrees>41.98228393681347370147705078125</LatitudeDegrees>
              <LongitudeDegrees>2.9053066112101078033447265625</LongitudeDegrees>
            </Position>
            <AltitudeMeters>444.399993896484375</AltitudeMeters>
            <DistanceMeters>NAN</DistanceMeters>
          </Trackpoint>
          <Trackpoint>
            <Time>2020-02-15T10:54:34.000Z</Time>
            <Position>
              <LatitudeDegrees>41.982282511889934539794921875</LatitudeDegrees>
              <LongitudeDegrees>2.9053327627480030059814453125</LongitudeDegrees>
            </Position>
            <AltitudeMeters>444.399993896484375</AltitudeMeters>
            <DistanceMeters>NAN</DistanceMeters>
          </Trackpoint>
          <Trackpoint>
            <Time>2020-02-15T10:54:35.000Z</Time>
            <Position>
              <LatitudeDegrees>41.9822820089757442474365234375</LatitudeDegrees>
              <LongitudeDegrees>2.905359752476215362548828125</LongitudeDegrees>
            </Position>
            <AltitudeMeters>444.600006103515625</AltitudeMeters>
            <DistanceMeters>NAN</DistanceMeters>
          </Trackpoint>
          <Trackpoint>
            <Time>2020-02-15T10:54:36.000Z</Time>
            <Position>
              <LatitudeDegrees>41.98228008113801479339599609375</LatitudeDegrees>
              <LongitudeDegrees>2.90538850240409374237060546875</LongitudeDegrees>
            </Position>
            <AltitudeMeters>444.79998779296875</AltitudeMeters>
            <DistanceMeters>NAN</DistanceMeters>
          </Trackpoint>
          <Trackpoint>
            <Time>2020-02-15T10:54:37.000Z</Time>
            <Position>
              <LatitudeDegrees>41.982279829680919647216796875</LatitudeDegrees>
              <LongitudeDegrees>2.90541616268455982208251953125</LongitudeDegrees>
            </Position>
            <AltitudeMeters>445</AltitudeMeters>
            <DistanceMeters>NAN</DistanceMeters>
          </Trackpoint>
          <Trackpoint>
            <Time>2020-02-15T10:54:38.000Z</Time>
            <Position>
              <LatitudeDegrees>41.982279159128665924072265625</LatitudeDegrees>
              <LongitudeDegrees>2.90544600225985050201416015625</LongitudeDegrees>
            </Position>
            <AltitudeMeters>445.399993896484375</AltitudeMeters>
            <DistanceMeters>NAN</DistanceMeters>
          </Trackpoint>
          <Trackpoint>
            <Time>2020-02-15T10:54:39.000Z</Time>
            <Position>
              <LatitudeDegrees>41.9822820089757442474365234375</LatitudeDegrees>
              <LongitudeDegrees>2.90547768585383892059326171875</LongitudeDegrees>
            </Position>
            <AltitudeMeters>445.399993896484375</AltitudeMeters>
            <DistanceMeters>NAN</DistanceMeters>
          </Trackpoint>
          <Trackpoint>
            <Time>2020-02-15T10:54:40.000Z</Time>
            <Position>
              <LatitudeDegrees>41.98228779248893260955810546875</LatitudeDegrees>
              <LongitudeDegrees>2.9055054299533367156982421875</LongitudeDegrees>
            </Position>
            <AltitudeMeters>445.600006103515625</AltitudeMeters>
            <DistanceMeters>NAN</DistanceMeters>
          </Trackpoint>
          <Trackpoint>
            <Time>2020-02-15T10:54:41.000Z</Time>
            <Position>
              <LatitudeDegrees>41.982295922935009002685546875</LatitudeDegrees>
              <LongitudeDegrees>2.905532419681549072265625</LongitudeDegrees>
            </Position>
            <AltitudeMeters>446</AltitudeMeters>
            <DistanceMeters>NAN</DistanceMeters>
          </Trackpoint>
          <Trackpoint>
            <Time>2020-02-15T10:54:42.000Z</Time>
            <Position>
              <LatitudeDegrees>41.9823058135807514190673828125</LatitudeDegrees>
              <LongitudeDegrees>2.90556066669523715972900390625</LongitudeDegrees>
            </Position>
            <AltitudeMeters>446.399993896484375</AltitudeMeters>
            <DistanceMeters>NAN</DistanceMeters>
          </Trackpoint>
          <Trackpoint>
            <Time>2020-02-15T10:54:43.000Z</Time>
            <Position>
              <LatitudeDegrees>41.98231570422649383544921875</LatitudeDegrees>
              <LongitudeDegrees>2.90558673441410064697265625</LongitudeDegrees>
            </Position>
            <AltitudeMeters>446.600006103515625</AltitudeMeters>
            <DistanceMeters>NAN</DistanceMeters>
          </Trackpoint>
          <Trackpoint>
            <Time>2020-02-15T10:54:44.000Z</Time>
            <Position>
              <LatitudeDegrees>41.9823269359767436981201171875</LatitudeDegrees>
              <LongitudeDegrees>2.90561229921877384185791015625</LongitudeDegrees>
            </Position>
            <AltitudeMeters>446.600006103515625</AltitudeMeters>
            <DistanceMeters>NAN</DistanceMeters>
          </Trackpoint>
          <Trackpoint>
            <Time>2020-02-15T10:54:45.000Z</Time>
            <Position>
              <LatitudeDegrees>41.9823380000889301300048828125</LatitudeDegrees>
              <LongitudeDegrees>2.90564130060374736785888671875</LongitudeDegrees>
            </Position>
            <AltitudeMeters>446.79998779296875</AltitudeMeters>
            <DistanceMeters>NAN</DistanceMeters>
          </Trackpoint>
          <Trackpoint>
            <Time>2020-02-15T10:54:46.000Z</Time>
            <Position>
              <LatitudeDegrees>41.9823514111340045928955078125</LatitudeDegrees>
              <LongitudeDegrees>2.9056713916361331939697265625</LongitudeDegrees>
            </Position>
            <AltitudeMeters>447</AltitudeMeters>
            <DistanceMeters>NAN</DistanceMeters>
          </Trackpoint>
          <Trackpoint>
            <Time>2020-02-15T10:54:47.000Z</Time>
            <Position>
              <LatitudeDegrees>41.98236775584518909454345703125</LatitudeDegrees>
              <LongitudeDegrees>2.90570500306785106658935546875</LongitudeDegrees>
            </Position>
            <AltitudeMeters>447.20001220703125</AltitudeMeters>
            <DistanceMeters>NAN</DistanceMeters>
          </Trackpoint>
          <Trackpoint>
            <Time>2020-02-15T10:54:48.000Z</Time>
            <Position>
              <LatitudeDegrees>41.982385106384754180908203125</LatitudeDegrees>
              <LongitudeDegrees>2.9057377763092517852783203125</LongitudeDegrees>
            </Position>
            <AltitudeMeters>447.600006103515625</AltitudeMeters>
            <DistanceMeters>NAN</DistanceMeters>
          </Trackpoint>
          <Trackpoint>
            <Time>2020-02-15T10:54:49.000Z</Time>
            <Position>
              <LatitudeDegrees>41.9824017025530338287353515625</LatitudeDegrees>
              <LongitudeDegrees>2.90576853789389133453369140625</LongitudeDegrees>
            </Position>
            <AltitudeMeters>447.79998779296875</AltitudeMeters>
            <DistanceMeters>NAN</DistanceMeters>
          </Trackpoint>
          <Trackpoint>
            <Time>2020-02-15T10:54:50.000Z</Time>
            <Position>
              <LatitudeDegrees>41.982416622340679168701171875</LatitudeDegrees>
              <LongitudeDegrees>2.905800305306911468505859375</LongitudeDegrees>
            </Position>
            <AltitudeMeters>447.79998779296875</AltitudeMeters>
            <DistanceMeters>NAN</DistanceMeters>
          </Trackpoint>
          <Trackpoint>
            <Time>2020-02-15T10:54:51.000Z</Time>
            <Position>
              <LatitudeDegrees>41.9824271835386753082275390625</LatitudeDegrees>
              <LongitudeDegrees>2.90583307854831218719482421875</LongitudeDegrees>
            </Position>
            <AltitudeMeters>447.79998779296875</AltitudeMeters>
            <DistanceMeters>NAN</DistanceMeters>
          </Trackpoint>
          <Trackpoint>
            <Time>2020-02-15T10:54:52.000Z</Time>
            <Position>
              <LatitudeDegrees>41.98243715800344944000244140625</LatitudeDegrees>
              <LongitudeDegrees>2.905864007771015167236328125</LongitudeDegrees>
            </Position>
            <AltitudeMeters>448</AltitudeMeters>
            <DistanceMeters>NAN</DistanceMeters>
          </Trackpoint>
          <Trackpoint>
            <Time>2020-02-15T10:54:53.000Z</Time>
            <Position>
              <LatitudeDegrees>41.98244771920144557952880859375</LatitudeDegrees>
              <LongitudeDegrees>2.90589376352727413177490234375</LongitudeDegrees>
            </Position>
            <AltitudeMeters>448.399993896484375</AltitudeMeters>
            <DistanceMeters>NAN</DistanceMeters>
          </Trackpoint>
          <Trackpoint>
            <Time>2020-02-15T10:54:54.000Z</Time>
            <Position>
              <LatitudeDegrees>41.9824593700468540191650390625</LatitudeDegrees>
              <LongitudeDegrees>2.90592469274997711181640625</LongitudeDegrees>
            </Position>
            <AltitudeMeters>448.600006103515625</AltitudeMeters>
            <DistanceMeters>NAN</DistanceMeters>
          </Trackpoint>
          <Trackpoint>
            <Time>2020-02-15T10:54:55.000Z</Time>
            <Position>
              <LatitudeDegrees>41.98247127234935760498046875</LatitudeDegrees>
              <LongitudeDegrees>2.90595428086817264556884765625</LongitudeDegrees>
            </Position>
            <AltitudeMeters>449</AltitudeMeters>
            <DistanceMeters>NAN</DistanceMeters>
          </Trackpoint>
          <Trackpoint>
            <Time>2020-02-15T10:54:56.000Z</Time>
            <Position>
              <LatitudeDegrees>41.98248376138508319854736328125</LatitudeDegrees>
              <LongitudeDegrees>2.90599443018436431884765625</LongitudeDegrees>
            </Position>
            <AltitudeMeters>449.20001220703125</AltitudeMeters>
            <DistanceMeters>NAN</DistanceMeters>
          </Trackpoint>
          <Trackpoint>
            <Time>2020-02-15T10:54:57.000Z</Time>
            <Position>
              <LatitudeDegrees>41.98249080218374729156494140625</LatitudeDegrees>
              <LongitudeDegrees>2.90603189729154109954833984375</LongitudeDegrees>
            </Position>
            <AltitudeMeters>449.399993896484375</AltitudeMeters>
            <DistanceMeters>NAN</DistanceMeters>
          </Trackpoint>
          <Trackpoint>
            <Time>2020-02-15T10:54:58.000Z</Time>
            <Position>
              <LatitudeDegrees>41.98249532841145992279052734375</LatitudeDegrees>
              <LongitudeDegrees>2.906070537865161895751953125</LongitudeDegrees>
            </Position>
            <AltitudeMeters>449.399993896484375</AltitudeMeters>
            <DistanceMeters>NAN</DistanceMeters>
          </Trackpoint>
          <Trackpoint>
            <Time>2020-02-15T10:54:59.000Z</Time>
            <Position>
              <LatitudeDegrees>41.982502453029155731201171875</LatitudeDegrees>
              <LongitudeDegrees>2.90610599331557750701904296875</LongitudeDegrees>
            </Position>
            <AltitudeMeters>449.600006103515625</AltitudeMeters>
            <DistanceMeters>NAN</DistanceMeters>
          </Trackpoint>
          <Trackpoint>
            <Time>2020-02-15T10:55:00.000Z</Time>
            <Position>
              <LatitudeDegrees>41.9825116731226444244384765625</LatitudeDegrees>
              <LongitudeDegrees>2.9061431251466274261474609375</LongitudeDegrees>
            </Position>
            <AltitudeMeters>450</AltitudeMeters>
            <DistanceMeters>NAN</DistanceMeters>
          </Trackpoint>
          <Trackpoint>
            <Time>2020-02-15T10:55:02.000Z</Time>
            <Position>
              <LatitudeDegrees>41.98253095149993896484375</LatitudeDegrees>
              <LongitudeDegrees>2.90621579624712467193603515625</LongitudeDegrees>
            </Position>
            <AltitudeMeters>450.20001220703125</AltitudeMeters>
            <DistanceMeters>NAN</DistanceMeters>
          </Trackpoint>
          <Trackpoint>
            <Time>2020-02-15T10:55:03.000Z</Time>
            <Position>
              <LatitudeDegrees>41.98253656737506389617919921875</LatitudeDegrees>
              <LongitudeDegrees>2.90625058114528656005859375</LongitudeDegrees>
            </Position>
            <AltitudeMeters>450.20001220703125</AltitudeMeters>
            <DistanceMeters>NAN</DistanceMeters>
          </Trackpoint>
          <Trackpoint>
            <Time>2020-02-15T10:55:05.000Z</Time>
            <Position>
              <LatitudeDegrees>41.98254226706922054290771484375</LatitudeDegrees>
              <LongitudeDegrees>2.90631922893226146697998046875</LongitudeDegrees>
            </Position>
            <AltitudeMeters>450.399993896484375</AltitudeMeters>
            <DistanceMeters>NAN</DistanceMeters>
          </Trackpoint>
          <Trackpoint>
            <Time>2020-02-15T10:55:06.000Z</Time>
            <Position>
              <LatitudeDegrees>41.9825421832501888275146484375</LatitudeDegrees>
              <LongitudeDegrees>2.906353510916233062744140625</LongitudeDegrees>
            </Position>
            <AltitudeMeters>450.399993896484375</AltitudeMeters>
            <DistanceMeters>NAN</DistanceMeters>
          </Trackpoint>
          <Trackpoint>
            <Time>2020-02-15T10:55:07.000Z</Time>
            <Position>
              <LatitudeDegrees>41.982544027268886566162109375</LatitudeDegrees>
              <LongitudeDegrees>2.906384356319904327392578125</LongitudeDegrees>
            </Position>
            <AltitudeMeters>450.20001220703125</AltitudeMeters>
            <DistanceMeters>NAN</DistanceMeters>
          </Trackpoint>
          <Trackpoint>
            <Time>2020-02-15T10:55:08.000Z</Time>
            <Position>
              <LatitudeDegrees>41.98254360817372798919677734375</LatitudeDegrees>
              <LongitudeDegrees>2.90641142986714839935302734375</LongitudeDegrees>
            </Position>
            <AltitudeMeters>450.20001220703125</AltitudeMeters>
            <DistanceMeters>NAN</DistanceMeters>
          </Trackpoint>
          <Trackpoint>
            <Time>2020-02-15T10:55:09.000Z</Time>
            <Position>
              <LatitudeDegrees>41.982542015612125396728515625</LatitudeDegrees>
              <LongitudeDegrees>2.90643188171088695526123046875</LongitudeDegrees>
            </Position>
            <AltitudeMeters>450.399993896484375</AltitudeMeters>
            <DistanceMeters>NAN</DistanceMeters>
          </Trackpoint>
          <Trackpoint>
            <Time>2020-02-15T10:55:10.000Z</Time>
            <Position>
              <LatitudeDegrees>41.982540674507617950439453125</LatitudeDegrees>
              <LongitudeDegrees>2.90645501576364040374755859375</LongitudeDegrees>
            </Position>
            <AltitudeMeters>450.399993896484375</AltitudeMeters>
            <DistanceMeters>NAN</DistanceMeters>
          </Trackpoint>
          <Trackpoint>
            <Time>2020-02-15T10:55:11.000Z</Time>
            <Position>
              <LatitudeDegrees>41.98254168033599853515625</LatitudeDegrees>
              <LongitudeDegrees>2.90647630579769611358642578125</LongitudeDegrees>
            </Position>
            <AltitudeMeters>450.600006103515625</AltitudeMeters>
            <DistanceMeters>NAN</DistanceMeters>
          </Trackpoint>
          <Trackpoint>
            <Time>2020-02-15T10:55:12.000Z</Time>
            <Position>
              <LatitudeDegrees>41.982544362545013427734375</LatitudeDegrees>
              <LongitudeDegrees>2.90650094859302043914794921875</LongitudeDegrees>
            </Position>
            <AltitudeMeters>450.600006103515625</AltitudeMeters>
            <DistanceMeters>NAN</DistanceMeters>
          </Trackpoint>
          <Trackpoint>
            <Time>2020-02-15T10:55:13.000Z</Time>
            <Position>
              <LatitudeDegrees>41.9825462065637111663818359375</LatitudeDegrees>
              <LongitudeDegrees>2.90652743540704250335693359375</LongitudeDegrees>
            </Position>
            <AltitudeMeters>450.399993896484375</AltitudeMeters>
            <DistanceMeters>NAN</DistanceMeters>
          </Trackpoint>
          <Trackpoint>
            <Time>2020-02-15T10:55:14.000Z</Time>
            <Position>
              <LatitudeDegrees>41.98255131952464580535888671875</LatitudeDegrees>
              <LongitudeDegrees>2.906551659107208251953125</LongitudeDegrees>
            </Position>
            <AltitudeMeters>450.600006103515625</AltitudeMeters>
            <DistanceMeters>NAN</DistanceMeters>
          </Trackpoint>
          <Trackpoint>
            <Time>2020-02-15T10:55:15.000Z</Time>
            <Position>
              <LatitudeDegrees>41.98256121017038822174072265625</LatitudeDegrees>
              <LongitudeDegrees>2.90657772682607173919677734375</LongitudeDegrees>
            </Position>
            <AltitudeMeters>450.79998779296875</AltitudeMeters>
            <DistanceMeters>NAN</DistanceMeters>
          </Trackpoint>
          <Trackpoint>
            <Time>2020-02-15T10:55:16.000Z</Time>
            <Position>
              <LatitudeDegrees>41.982566826045513153076171875</LatitudeDegrees>
              <LongitudeDegrees>2.90659884922206401824951171875</LongitudeDegrees>
            </Position>
            <AltitudeMeters>451</AltitudeMeters>
            <DistanceMeters>NAN</DistanceMeters>
          </Trackpoint>
          <Trackpoint>
            <Time>2020-02-15T10:55:17.000Z</Time>
            <Position>
              <LatitudeDegrees>41.98257244192063808441162109375</LatitudeDegrees>
              <LongitudeDegrees>2.9066215641796588897705078125</LongitudeDegrees>
            </Position>
            <AltitudeMeters>451.399993896484375</AltitudeMeters>
            <DistanceMeters>NAN</DistanceMeters>
          </Trackpoint>
          <Trackpoint>
            <Time>2020-02-15T10:55:18.000Z</Time>
            <Position>
              <LatitudeDegrees>41.98258132673799991607666015625</LatitudeDegrees>
              <LongitudeDegrees>2.9066441953182220458984375</LongitudeDegrees>
            </Position>
            <AltitudeMeters>451.79998779296875</AltitudeMeters>
            <DistanceMeters>NAN</DistanceMeters>
          </Trackpoint>
          <Trackpoint>
            <Time>2020-02-15T10:55:19.000Z</Time>
            <Position>
              <LatitudeDegrees>41.98258568532764911651611328125</LatitudeDegrees>
              <LongitudeDegrees>2.90666422806680202484130859375</LongitudeDegrees>
            </Position>
            <AltitudeMeters>452.20001220703125</AltitudeMeters>
            <DistanceMeters>NAN</DistanceMeters>
          </Trackpoint>
          <Trackpoint>
            <Time>2020-02-15T10:55:20.000Z</Time>
            <Position>
              <LatitudeDegrees>41.9825871102511882781982421875</LatitudeDegrees>
              <LongitudeDegrees>2.90668241679668426513671875</LongitudeDegrees>
            </Position>
            <AltitudeMeters>452.600006103515625</AltitudeMeters>
            <DistanceMeters>NAN</DistanceMeters>
          </Trackpoint>
          <Trackpoint>
            <Time>2020-02-15T10:55:21.000Z</Time>
            <Position>
              <LatitudeDegrees>41.9825904630124568939208984375</LatitudeDegrees>
              <LongitudeDegrees>2.90669507347047328948974609375</LongitudeDegrees>
            </Position>
            <AltitudeMeters>452.79998779296875</AltitudeMeters>
            <DistanceMeters>NAN</DistanceMeters>
          </Trackpoint>
          <Trackpoint>
            <Time>2020-02-15T10:55:22.000Z</Time>
            <Position>
              <LatitudeDegrees>41.98259406723082065582275390625</LatitudeDegrees>
              <LongitudeDegrees>2.906707227230072021484375</LongitudeDegrees>
            </Position>
            <AltitudeMeters>453</AltitudeMeters>
            <DistanceMeters>NAN</DistanceMeters>
          </Trackpoint>
          <Trackpoint>
            <Time>2020-02-15T10:55:23.000Z</Time>
            <Position>
              <LatitudeDegrees>41.98259825818240642547607421875</LatitudeDegrees>
              <LongitudeDegrees>2.906724996864795684814453125</LongitudeDegrees>
            </Position>
            <AltitudeMeters>453.399993896484375</AltitudeMeters>
            <DistanceMeters>NAN</DistanceMeters>
          </Trackpoint>
          <Trackpoint>
            <Time>2020-02-15T10:55:24.000Z</Time>
            <Position>
              <LatitudeDegrees>41.98259976692497730255126953125</LatitudeDegrees>
              <LongitudeDegrees>2.90674771182239055633544921875</LongitudeDegrees>
            </Position>
            <AltitudeMeters>453.600006103515625</AltitudeMeters>
            <DistanceMeters>NAN</DistanceMeters>
          </Trackpoint>
          <Trackpoint>
            <Time>2020-02-15T10:55:25.000Z</Time>
            <Position>
              <LatitudeDegrees>41.9826020300388336181640625</LatitudeDegrees>
              <LongitudeDegrees>2.90676715783774852752685546875</LongitudeDegrees>
            </Position>
            <AltitudeMeters>453.79998779296875</AltitudeMeters>
            <DistanceMeters>NAN</DistanceMeters>
          </Trackpoint>
          <Trackpoint>
            <Time>2020-02-15T10:55:26.000Z</Time>
            <Position>
              <LatitudeDegrees>41.98260362260043621063232421875</LatitudeDegrees>
              <LongitudeDegrees>2.90678207762539386749267578125</LongitudeDegrees>
            </Position>
            <AltitudeMeters>454</AltitudeMeters>
            <DistanceMeters>NAN</DistanceMeters>
          </Trackpoint>
          <Trackpoint>
            <Time>2020-02-15T10:55:27.000Z</Time>
            <Position>
              <LatitudeDegrees>41.9826045446097850799560546875</LatitudeDegrees>
              <LongitudeDegrees>2.90678836405277252197265625</LongitudeDegrees>
            </Position>
            <AltitudeMeters>454</AltitudeMeters>
            <DistanceMeters>NAN</DistanceMeters>
          </Trackpoint>
          <Trackpoint>
            <Time>2020-02-15T10:55:29.000Z</Time>
            <Position>
              <LatitudeDegrees>41.98260546661913394927978515625</LatitudeDegrees>
              <LongitudeDegrees>2.90680320002138614654541015625</LongitudeDegrees>
            </Position>
            <AltitudeMeters>455</AltitudeMeters>
            <DistanceMeters>NAN</DistanceMeters>
          </Trackpoint>
          <Trackpoint>
            <Time>2020-02-15T10:55:34.000Z</Time>
            <Position>
              <LatitudeDegrees>41.98261753655970096588134765625</LatitudeDegrees>
              <LongitudeDegrees>2.90682130493223667144775390625</LongitudeDegrees>
            </Position>
            <AltitudeMeters>455.79998779296875</AltitudeMeters>
            <DistanceMeters>NAN</DistanceMeters>
          </Trackpoint>
          <Trackpoint>
            <Time>2020-02-15T10:55:38.000Z</Time>
            <Position>
              <LatitudeDegrees>41.98262960650026798248291015625</LatitudeDegrees>
              <LongitudeDegrees>2.90682834573090076446533203125</LongitudeDegrees>
            </Position>
            <AltitudeMeters>456</AltitudeMeters>
            <DistanceMeters>NAN</DistanceMeters>
          </Trackpoint>
          <Trackpoint>
            <Time>2020-02-15T10:55:42.000Z</Time>
            <Position>
              <LatitudeDegrees>41.98265709914267063140869140625</LatitudeDegrees>
              <LongitudeDegrees>2.9068415053188800811767578125</LongitudeDegrees>
            </Position>
            <AltitudeMeters>456.20001220703125</AltitudeMeters>
            <DistanceMeters>NAN</DistanceMeters>
          </Trackpoint>
          <Trackpoint>
            <Time>2020-02-15T10:55:43.000Z</Time>
            <Position>
              <LatitudeDegrees>41.9826551713049411773681640625</LatitudeDegrees>
              <LongitudeDegrees>2.90684410370886325836181640625</LongitudeDegrees>
            </Position>
            <AltitudeMeters>456.20001220703125</AltitudeMeters>
            <DistanceMeters>NAN</DistanceMeters>
          </Trackpoint>
          <Trackpoint>
            <Time>2020-02-15T10:55:47.000Z</Time>
            <Position>
              <LatitudeDegrees>41.9826605357229709625244140625</LatitudeDegrees>
              <LongitudeDegrees>2.9068609513342380523681640625</LongitudeDegrees>
            </Position>
            <AltitudeMeters>456</AltitudeMeters>
            <DistanceMeters>NAN</DistanceMeters>
          </Trackpoint>
          <Trackpoint>
            <Time>2020-02-15T10:55:53.000Z</Time>
            <Position>
              <LatitudeDegrees>41.98267034254968166351318359375</LatitudeDegrees>
              <LongitudeDegrees>2.906877882778644561767578125</LongitudeDegrees>
            </Position>
            <AltitudeMeters>456.20001220703125</AltitudeMeters>
            <DistanceMeters>NAN</DistanceMeters>
          </Trackpoint>
          <Trackpoint>
            <Time>2020-02-15T10:55:59.000Z</Time>
            <Position>
              <LatitudeDegrees>41.9826605357229709625244140625</LatitudeDegrees>
              <LongitudeDegrees>2.90688182227313518524169921875</LongitudeDegrees>
            </Position>
            <AltitudeMeters>456.20001220703125</AltitudeMeters>
            <DistanceMeters>NAN</DistanceMeters>
          </Trackpoint>
          <Trackpoint>
            <Time>2020-02-15T10:56:00.000Z</Time>
            <Position>
              <LatitudeDegrees>41.982660703361034393310546875</LatitudeDegrees>
              <LongitudeDegrees>2.9068829119205474853515625</LongitudeDegrees>
            </Position>
            <AltitudeMeters>456.20001220703125</AltitudeMeters>
            <DistanceMeters>NAN</DistanceMeters>
          </Trackpoint>
          <Trackpoint>
            <Time>2020-02-15T10:56:02.000Z</Time>
            <Position>
              <LatitudeDegrees>41.9826655648648738861083984375</LatitudeDegrees>
              <LongitudeDegrees>2.9068887792527675628662109375</LongitudeDegrees>
            </Position>
            <AltitudeMeters>456.20001220703125</AltitudeMeters>
            <DistanceMeters>NAN</DistanceMeters>
          </Trackpoint>
          <Trackpoint>
            <Time>2020-02-15T10:56:06.000Z</Time>
            <Position>
              <LatitudeDegrees>41.98266564868390560150146484375</LatitudeDegrees>
              <LongitudeDegrees>2.90689774788916110992431640625</LongitudeDegrees>
            </Position>
            <AltitudeMeters>456</AltitudeMeters>
            <DistanceMeters>NAN</DistanceMeters>
          </Trackpoint>
          <Trackpoint>
            <Time>2020-02-15T10:56:08.000Z</Time>
            <Position>
              <LatitudeDegrees>41.98266648687422275543212890625</LatitudeDegrees>
              <LongitudeDegrees>2.90689841844141483306884765625</LongitudeDegrees>
            </Position>
            <AltitudeMeters>456</AltitudeMeters>
            <DistanceMeters>NAN</DistanceMeters>
          </Trackpoint>
          <Trackpoint>
            <Time>2020-02-15T10:56:11.000Z</Time>
            <Position>
              <LatitudeDegrees>41.98266573250293731689453125</LatitudeDegrees>
              <LongitudeDegrees>2.906898669898509979248046875</LongitudeDegrees>
            </Position>
            <AltitudeMeters>456</AltitudeMeters>
            <DistanceMeters>NAN</DistanceMeters>
          </Trackpoint>
          <Trackpoint>
            <Time>2020-02-15T10:56:17.000Z</Time>
            <Position>
              <LatitudeDegrees>41.98266439139842987060546875</LatitudeDegrees>
              <LongitudeDegrees>2.9068985022604465484619140625</LongitudeDegrees>
            </Position>
            <AltitudeMeters>456</AltitudeMeters>
            <DistanceMeters>NAN</DistanceMeters>
          </Trackpoint>
          <Trackpoint>
            <Time>2020-02-15T10:56:21.000Z</Time>
            <Position>
              <LatitudeDegrees>41.98266573250293731689453125</LatitudeDegrees>
              <LongitudeDegrees>2.90690026246011257171630859375</LongitudeDegrees>
            </Position>
            <AltitudeMeters>456</AltitudeMeters>
            <DistanceMeters>NAN</DistanceMeters>
          </Trackpoint>
          <Trackpoint>
            <Time>2020-02-15T10:56:23.000Z</Time>
            <Position>
              <LatitudeDegrees>41.98266715742647647857666015625</LatitudeDegrees>
              <LongitudeDegrees>2.906900011003017425537109375</LongitudeDegrees>
            </Position>
            <AltitudeMeters>456</AltitudeMeters>
            <DistanceMeters>NAN</DistanceMeters>
          </Trackpoint>
          <Trackpoint>
            <Time>2020-02-15T10:56:26.000Z</Time>
            <Position>
              <LatitudeDegrees>41.98266916908323764801025390625</LatitudeDegrees>
              <LongitudeDegrees>2.90689858607947826385498046875</LongitudeDegrees>
            </Position>
            <AltitudeMeters>456</AltitudeMeters>
            <DistanceMeters>NAN</DistanceMeters>
          </Trackpoint>
          <Trackpoint>
            <Time>2020-02-15T10:56:31.000Z</Time>
            <Position>
              <LatitudeDegrees>41.98266531340777873992919921875</LatitudeDegrees>
              <LongitudeDegrees>2.9068871028721332550048828125</LongitudeDegrees>
            </Position>
            <AltitudeMeters>456</AltitudeMeters>
            <DistanceMeters>NAN</DistanceMeters>
          </Trackpoint>
          <Trackpoint>
            <Time>2020-02-15T10:56:33.000Z</Time>
            <Position>
              <LatitudeDegrees>41.98266413994133472442626953125</LatitudeDegrees>
              <LongitudeDegrees>2.9068803973495960235595703125</LongitudeDegrees>
            </Position>
            <AltitudeMeters>456</AltitudeMeters>
            <DistanceMeters>NAN</DistanceMeters>
          </Trackpoint>
          <Trackpoint>
            <Time>2020-02-15T10:56:35.000Z</Time>
            <Position>
              <LatitudeDegrees>41.98266011662781238555908203125</LatitudeDegrees>
              <LongitudeDegrees>2.90687629021704196929931640625</LongitudeDegrees>
            </Position>
            <AltitudeMeters>456</AltitudeMeters>
            <DistanceMeters>NAN</DistanceMeters>
          </Trackpoint>
          <Trackpoint>
            <Time>2020-02-15T10:56:40.000Z</Time>
            <Position>
              <LatitudeDegrees>41.982665397226810455322265625</LatitudeDegrees>
              <LongitudeDegrees>2.90692088194191455841064453125</LongitudeDegrees>
            </Position>
            <AltitudeMeters>456</AltitudeMeters>
            <DistanceMeters>NAN</DistanceMeters>
          </Trackpoint>
          <Trackpoint>
            <Time>2020-02-15T10:56:41.000Z</Time>
            <Position>
              <LatitudeDegrees>41.98267377912998199462890625</LatitudeDegrees>
              <LongitudeDegrees>2.90694527328014373779296875</LongitudeDegrees>
            </Position>
            <AltitudeMeters>456</AltitudeMeters>
            <DistanceMeters>NAN</DistanceMeters>
          </Trackpoint>
          <Trackpoint>
            <Time>2020-02-15T10:56:42.000Z</Time>
            <Position>
              <LatitudeDegrees>41.982678137719631195068359375</LatitudeDegrees>
              <LongitudeDegrees>2.9069658927619457244873046875</LongitudeDegrees>
            </Position>
            <AltitudeMeters>456</AltitudeMeters>
            <DistanceMeters>NAN</DistanceMeters>
          </Trackpoint>
          <Trackpoint>
            <Time>2020-02-15T10:56:43.000Z</Time>
            <Position>
              <LatitudeDegrees>41.98268710635602474212646484375</LatitudeDegrees>
              <LongitudeDegrees>2.90698575787246227264404296875</LongitudeDegrees>
            </Position>
            <AltitudeMeters>456</AltitudeMeters>
            <DistanceMeters>NAN</DistanceMeters>
          </Trackpoint>
          <Trackpoint>
            <Time>2020-02-15T10:56:44.000Z</Time>
            <Position>
              <LatitudeDegrees>41.9826910458505153656005859375</LatitudeDegrees>
              <LongitudeDegrees>2.90700520388782024383544921875</LongitudeDegrees>
            </Position>
            <AltitudeMeters>456</AltitudeMeters>
            <DistanceMeters>NAN</DistanceMeters>
          </Trackpoint>
          <Trackpoint>
            <Time>2020-02-15T10:56:45.000Z</Time>
            <Position>
              <LatitudeDegrees>41.98270018212497234344482421875</LatitudeDegrees>
              <LongitudeDegrees>2.90702766738831996917724609375</LongitudeDegrees>
            </Position>
            <AltitudeMeters>456</AltitudeMeters>
            <DistanceMeters>NAN</DistanceMeters>
          </Trackpoint>
          <Trackpoint>
            <Time>2020-02-15T10:56:46.000Z</Time>
            <Position>
              <LatitudeDegrees>41.98271267116069793701171875</LatitudeDegrees>
              <LongitudeDegrees>2.907052896916866302490234375</LongitudeDegrees>
            </Position>
            <AltitudeMeters>456</AltitudeMeters>
            <DistanceMeters>NAN</DistanceMeters>
          </Trackpoint>
          <Trackpoint>
            <Time>2020-02-15T10:56:47.000Z</Time>
            <Position>
              <LatitudeDegrees>41.9827282615005970001220703125</LatitudeDegrees>
              <LongitudeDegrees>2.907077372074127197265625</LongitudeDegrees>
            </Position>
            <AltitudeMeters>456</AltitudeMeters>
            <DistanceMeters>NAN</DistanceMeters>
          </Trackpoint>
          <Trackpoint>
            <Time>2020-02-15T10:56:48.000Z</Time>
            <Position>
              <LatitudeDegrees>41.9827473722398281097412109375</LatitudeDegrees>
              <LongitudeDegrees>2.90710092522203922271728515625</LongitudeDegrees>
            </Position>
            <AltitudeMeters>456</AltitudeMeters>
            <DistanceMeters>NAN</DistanceMeters>
          </Trackpoint>
          <Trackpoint>
            <Time>2020-02-15T10:56:49.000Z</Time>
            <Position>
              <LatitudeDegrees>41.98276807554066181182861328125</LatitudeDegrees>
              <LongitudeDegrees>2.907121963798999786376953125</LongitudeDegrees>
            </Position>
            <AltitudeMeters>456.20001220703125</AltitudeMeters>
            <DistanceMeters>NAN</DistanceMeters>
          </Trackpoint>
          <Trackpoint>
            <Time>2020-02-15T10:56:50.000Z</Time>
            <Position>
              <LatitudeDegrees>41.98278835974633693695068359375</LatitudeDegrees>
              <LongitudeDegrees>2.90714233182370662689208984375</LongitudeDegrees>
            </Position>
            <AltitudeMeters>456.600006103515625</AltitudeMeters>
            <DistanceMeters>NAN</DistanceMeters>
          </Trackpoint>
          <Trackpoint>
            <Time>2020-02-15T10:56:51.000Z</Time>
            <Position>
              <LatitudeDegrees>41.9828031957149505615234375</LatitudeDegrees>
              <LongitudeDegrees>2.9071605205535888671875</LongitudeDegrees>
            </Position>
            <AltitudeMeters>456.79998779296875</AltitudeMeters>
            <DistanceMeters>NAN</DistanceMeters>
          </Trackpoint>
          <Trackpoint>
            <Time>2020-02-15T10:56:52.000Z</Time>
            <Position>
              <LatitudeDegrees>41.9828211329877376556396484375</LatitudeDegrees>
              <LongitudeDegrees>2.907174266874790191650390625</LongitudeDegrees>
            </Position>
            <AltitudeMeters>456.79998779296875</AltitudeMeters>
            <DistanceMeters>NAN</DistanceMeters>
          </Trackpoint>
          <Trackpoint>
            <Time>2020-02-15T10:56:53.000Z</Time>
            <Position>
              <LatitudeDegrees>41.98283580131828784942626953125</LatitudeDegrees>
              <LongitudeDegrees>2.9071911983191967010498046875</LongitudeDegrees>
            </Position>
            <AltitudeMeters>457</AltitudeMeters>
            <DistanceMeters>NAN</DistanceMeters>
          </Trackpoint>
          <Trackpoint>
            <Time>2020-02-15T10:56:54.000Z</Time>
            <Position>
              <LatitudeDegrees>41.982850134372711181640625</LatitudeDegrees>
              <LongitudeDegrees>2.907211482524871826171875</LongitudeDegrees>
            </Position>
            <AltitudeMeters>457</AltitudeMeters>
            <DistanceMeters>NAN</DistanceMeters>
          </Trackpoint>
          <Trackpoint>
            <Time>2020-02-15T10:56:55.000Z</Time>
            <Position>
              <LatitudeDegrees>41.9828643836081027984619140625</LatitudeDegrees>
              <LongitudeDegrees>2.907230593264102935791015625</LongitudeDegrees>
            </Position>
            <AltitudeMeters>457.399993896484375</AltitudeMeters>
            <DistanceMeters>NAN</DistanceMeters>
          </Trackpoint>
          <Trackpoint>
            <Time>2020-02-15T10:56:57.000Z</Time>
            <Position>
              <LatitudeDegrees>41.98287804611027240753173828125</LatitudeDegrees>
              <LongitudeDegrees>2.90727778337895870208740234375</LongitudeDegrees>
            </Position>
            <AltitudeMeters>457.79998779296875</AltitudeMeters>
            <DistanceMeters>NAN</DistanceMeters>
          </Trackpoint>
          <Trackpoint>
            <Time>2020-02-15T10:56:58.000Z</Time>
            <Position>
              <LatitudeDegrees>41.98288424871861934661865234375</LatitudeDegrees>
              <LongitudeDegrees>2.90730074979364871978759765625</LongitudeDegrees>
            </Position>
            <AltitudeMeters>457.79998779296875</AltitudeMeters>
            <DistanceMeters>NAN</DistanceMeters>
          </Trackpoint>
          <Trackpoint>
            <Time>2020-02-15T10:56:59.000Z</Time>
            <Position>
              <LatitudeDegrees>41.982892714440822601318359375</LatitudeDegrees>
              <LongitudeDegrees>2.90732488967478275299072265625</LongitudeDegrees>
            </Position>
            <AltitudeMeters>457.79998779296875</AltitudeMeters>
            <DistanceMeters>NAN</DistanceMeters>
          </Trackpoint>
          <Trackpoint>
            <Time>2020-02-15T10:57:00.000Z</Time>
            <Position>
              <LatitudeDegrees>41.9828999228775501251220703125</LatitudeDegrees>
              <LongitudeDegrees>2.90734601207077503204345703125</LongitudeDegrees>
            </Position>
            <AltitudeMeters>457.79998779296875</AltitudeMeters>
            <DistanceMeters>NAN</DistanceMeters>
          </Trackpoint>
          <Trackpoint>
            <Time>2020-02-15T10:57:01.000Z</Time>
            <Position>
              <LatitudeDegrees>41.9829056225717067718505859375</LatitudeDegrees>
              <LongitudeDegrees>2.90736864320933818817138671875</LongitudeDegrees>
            </Position>
            <AltitudeMeters>457.79998779296875</AltitudeMeters>
            <DistanceMeters>NAN</DistanceMeters>
          </Trackpoint>
          <Trackpoint>
            <Time>2020-02-15T10:57:02.000Z</Time>
            <Position>
              <LatitudeDegrees>41.98291090317070484161376953125</LatitudeDegrees>
              <LongitudeDegrees>2.90739412419497966766357421875</LongitudeDegrees>
            </Position>
            <AltitudeMeters>457.79998779296875</AltitudeMeters>
            <DistanceMeters>NAN</DistanceMeters>
          </Trackpoint>
          <Trackpoint>
            <Time>2020-02-15T10:57:04.000Z</Time>
            <Position>
              <LatitudeDegrees>41.98291157372295856475830078125</LatitudeDegrees>
              <LongitudeDegrees>2.90743720717728137969970703125</LongitudeDegrees>
            </Position>
            <AltitudeMeters>458</AltitudeMeters>
            <DistanceMeters>NAN</DistanceMeters>
          </Trackpoint>
          <Trackpoint>
            <Time>2020-02-15T10:57:05.000Z</Time>
            <Position>
              <LatitudeDegrees>41.982918195426464080810546875</LatitudeDegrees>
              <LongitudeDegrees>2.90746017359197139739990234375</LongitudeDegrees>
            </Position>
            <AltitudeMeters>458</AltitudeMeters>
            <DistanceMeters>NAN</DistanceMeters>
          </Trackpoint>
          <Trackpoint>
            <Time>2020-02-15T10:57:06.000Z</Time>
            <Position>
              <LatitudeDegrees>41.9829237274825572967529296875</LatitudeDegrees>
              <LongitudeDegrees>2.90748112834990024566650390625</LongitudeDegrees>
            </Position>
            <AltitudeMeters>458</AltitudeMeters>
            <DistanceMeters>NAN</DistanceMeters>
          </Trackpoint>
          <Trackpoint>
            <Time>2020-02-15T10:57:07.000Z</Time>
            <Position>
              <LatitudeDegrees>41.98292967863380908966064453125</LatitudeDegrees>
              <LongitudeDegrees>2.907499484717845916748046875</LongitudeDegrees>
            </Position>
            <AltitudeMeters>458</AltitudeMeters>
            <DistanceMeters>NAN</DistanceMeters>
          </Trackpoint>
          <Trackpoint>
            <Time>2020-02-15T10:57:08.000Z</Time>
            <Position>
              <LatitudeDegrees>41.98293219320476055145263671875</LatitudeDegrees>
              <LongitudeDegrees>2.90751499123871326446533203125</LongitudeDegrees>
            </Position>
            <AltitudeMeters>458</AltitudeMeters>
            <DistanceMeters>NAN</DistanceMeters>
          </Trackpoint>
          <Trackpoint>
            <Time>2020-02-15T10:57:09.000Z</Time>
            <Position>
              <LatitudeDegrees>41.9829331152141094207763671875</LatitudeDegrees>
              <LongitudeDegrees>2.90753326378762722015380859375</LongitudeDegrees>
            </Position>
            <AltitudeMeters>458</AltitudeMeters>
            <DistanceMeters>NAN</DistanceMeters>
          </Trackpoint>
          <Trackpoint>
            <Time>2020-02-15T10:57:10.000Z</Time>
            <Position>
              <LatitudeDegrees>41.98293319903314113616943359375</LatitudeDegrees>
              <LongitudeDegrees>2.907549105584621429443359375</LongitudeDegrees>
            </Position>
            <AltitudeMeters>458</AltitudeMeters>
            <DistanceMeters>NAN</DistanceMeters>
          </Trackpoint>
          <Trackpoint>
            <Time>2020-02-15T10:57:11.000Z</Time>
            <Position>
              <LatitudeDegrees>41.98293554596602916717529296875</LatitudeDegrees>
              <LongitudeDegrees>2.90757198818027973175048828125</LongitudeDegrees>
            </Position>
            <AltitudeMeters>458</AltitudeMeters>
            <DistanceMeters>NAN</DistanceMeters>
          </Trackpoint>
          <Trackpoint>
            <Time>2020-02-15T10:57:12.000Z</Time>
            <Position>
              <LatitudeDegrees>41.98293395340442657470703125</LatitudeDegrees>
              <LongitudeDegrees>2.907601408660411834716796875</LongitudeDegrees>
            </Position>
            <AltitudeMeters>458.20001220703125</AltitudeMeters>
            <DistanceMeters>NAN</DistanceMeters>
          </Trackpoint>
          <Trackpoint>
            <Time>2020-02-15T10:57:13.000Z</Time>
            <Position>
              <LatitudeDegrees>41.982935965061187744140625</LatitudeDegrees>
              <LongitudeDegrees>2.907634265720844268798828125</LongitudeDegrees>
            </Position>
            <AltitudeMeters>458.20001220703125</AltitudeMeters>
            <DistanceMeters>NAN</DistanceMeters>
          </Trackpoint>
          <Trackpoint>
            <Time>2020-02-15T10:57:14.000Z</Time>
            <Position>
              <LatitudeDegrees>41.9829374738037586212158203125</LatitudeDegrees>
              <LongitudeDegrees>2.9076661169528961181640625</LongitudeDegrees>
            </Position>
            <AltitudeMeters>458.20001220703125</AltitudeMeters>
            <DistanceMeters>NAN</DistanceMeters>
          </Trackpoint>
          <Trackpoint>
            <Time>2020-02-15T10:57:15.000Z</Time>
            <Position>
              <LatitudeDegrees>41.98293688707053661346435546875</LatitudeDegrees>
              <LongitudeDegrees>2.90769721381366252899169921875</LongitudeDegrees>
            </Position>
            <AltitudeMeters>458.20001220703125</AltitudeMeters>
            <DistanceMeters>NAN</DistanceMeters>
          </Trackpoint>
          <Trackpoint>
            <Time>2020-02-15T10:57:16.000Z</Time>
            <Position>
              <LatitudeDegrees>41.98293856345117092132568359375</LatitudeDegrees>
              <LongitudeDegrees>2.90772789157927036285400390625</LongitudeDegrees>
            </Position>
            <AltitudeMeters>458.399993896484375</AltitudeMeters>
            <DistanceMeters>NAN</DistanceMeters>
          </Trackpoint>
          <Trackpoint>
            <Time>2020-02-15T10:57:17.000Z</Time>
            <Position>
              <LatitudeDegrees>41.98293638415634632110595703125</LatitudeDegrees>
              <LongitudeDegrees>2.907753624022006988525390625</LongitudeDegrees>
            </Position>
            <AltitudeMeters>458.600006103515625</AltitudeMeters>
            <DistanceMeters>NAN</DistanceMeters>
          </Trackpoint>
          <Trackpoint>
            <Time>2020-02-15T10:57:18.000Z</Time>
            <Position>
              <LatitudeDegrees>41.98293386958539485931396484375</LatitudeDegrees>
              <LongitudeDegrees>2.90777541697025299072265625</LongitudeDegrees>
            </Position>
            <AltitudeMeters>459</AltitudeMeters>
            <DistanceMeters>NAN</DistanceMeters>
          </Trackpoint>
          <Trackpoint>
            <Time>2020-02-15T10:57:19.000Z</Time>
            <Position>
              <LatitudeDegrees>41.982930265367031097412109375</LatitudeDegrees>
              <LongitudeDegrees>2.907790839672088623046875</LongitudeDegrees>
            </Position>
            <AltitudeMeters>459.20001220703125</AltitudeMeters>
            <DistanceMeters>NAN</DistanceMeters>
          </Trackpoint>
          <Trackpoint>
            <Time>2020-02-15T10:57:20.000Z</Time>
            <Position>
              <LatitudeDegrees>41.98292582295835018157958984375</LatitudeDegrees>
              <LongitudeDegrees>2.90780668146908283233642578125</LongitudeDegrees>
            </Position>
            <AltitudeMeters>459.20001220703125</AltitudeMeters>
            <DistanceMeters>NAN</DistanceMeters>
          </Trackpoint>
          <Trackpoint>
            <Time>2020-02-15T10:57:21.000Z</Time>
            <Position>
              <LatitudeDegrees>41.982922889292240142822265625</LatitudeDegrees>
              <LongitudeDegrees>2.90782126598060131072998046875</LongitudeDegrees>
            </Position>
            <AltitudeMeters>459.20001220703125</AltitudeMeters>
            <DistanceMeters>NAN</DistanceMeters>
          </Trackpoint>
          <Trackpoint>
            <Time>2020-02-15T10:57:22.000Z</Time>
            <Position>
              <LatitudeDegrees>41.982916854321956634521484375</LatitudeDegrees>
              <LongitudeDegrees>2.9078339226543903350830078125</LongitudeDegrees>
            </Position>
            <AltitudeMeters>459.399993896484375</AltitudeMeters>
            <DistanceMeters>NAN</DistanceMeters>
          </Trackpoint>
          <Trackpoint>
            <Time>2020-02-15T10:57:23.000Z</Time>
            <Position>
              <LatitudeDegrees>41.98291241191327571868896484375</LatitudeDegrees>
              <LongitudeDegrees>2.9078439809381961822509765625</LongitudeDegrees>
            </Position>
            <AltitudeMeters>459.399993896484375</AltitudeMeters>
            <DistanceMeters>NAN</DistanceMeters>
          </Trackpoint>
          <Trackpoint>
            <Time>2020-02-15T10:57:24.000Z</Time>
            <Position>
              <LatitudeDegrees>41.9829066284000873565673828125</LatitudeDegrees>
              <LongitudeDegrees>2.90785294957458972930908203125</LongitudeDegrees>
            </Position>
            <AltitudeMeters>459.600006103515625</AltitudeMeters>
            <DistanceMeters>NAN</DistanceMeters>
          </Trackpoint>
          <Trackpoint>
            <Time>2020-02-15T10:57:25.000Z</Time>
            <Position>
              <LatitudeDegrees>41.9828992523252964019775390625</LatitudeDegrees>
              <LongitudeDegrees>2.90786786936223506927490234375</LongitudeDegrees>
            </Position>
            <AltitudeMeters>459.79998779296875</AltitudeMeters>
            <DistanceMeters>NAN</DistanceMeters>
          </Trackpoint>
          <Trackpoint>
            <Time>2020-02-15T10:57:26.000Z</Time>
            <Position>
              <LatitudeDegrees>41.98288969695568084716796875</LatitudeDegrees>
              <LongitudeDegrees>2.90789343416690826416015625</LongitudeDegrees>
            </Position>
            <AltitudeMeters>460</AltitudeMeters>
            <DistanceMeters>NAN</DistanceMeters>
          </Trackpoint>
          <Trackpoint>
            <Time>2020-02-15T10:57:27.000Z</Time>
            <Position>
              <LatitudeDegrees>41.98288039304316043853759765625</LatitudeDegrees>
              <LongitudeDegrees>2.90792964398860931396484375</LongitudeDegrees>
            </Position>
            <AltitudeMeters>460</AltitudeMeters>
            <DistanceMeters>NAN</DistanceMeters>
          </Trackpoint>
          <Trackpoint>
            <Time>2020-02-15T10:57:28.000Z</Time>
            <Position>
              <LatitudeDegrees>41.9828744418919086456298828125</LatitudeDegrees>
              <LongitudeDegrees>2.90797985158860683441162109375</LongitudeDegrees>
            </Position>
            <AltitudeMeters>460</AltitudeMeters>
            <DistanceMeters>NAN</DistanceMeters>
          </Trackpoint>
          <Trackpoint>
            <Time>2020-02-15T10:57:29.000Z</Time>
            <Position>
              <LatitudeDegrees>41.9828663952648639678955078125</LatitudeDegrees>
              <LongitudeDegrees>2.90802863426506519317626953125</LongitudeDegrees>
            </Position>
            <AltitudeMeters>460.20001220703125</AltitudeMeters>
            <DistanceMeters>NAN</DistanceMeters>
          </Trackpoint>
          <Trackpoint>
            <Time>2020-02-15T10:57:30.000Z</Time>
            <Position>
              <LatitudeDegrees>41.98286044411361217498779296875</LatitudeDegrees>
              <LongitudeDegrees>2.9080729745328426361083984375</LongitudeDegrees>
            </Position>
            <AltitudeMeters>460.20001220703125</AltitudeMeters>
            <DistanceMeters>NAN</DistanceMeters>
          </Trackpoint>
          <Trackpoint>
            <Time>2020-02-15T10:57:31.000Z</Time>
            <Position>
              <LatitudeDegrees>41.9828513078391551971435546875</LatitudeDegrees>
              <LongitudeDegrees>2.908115386962890625</LongitudeDegrees>
            </Position>
            <AltitudeMeters>460.399993896484375</AltitudeMeters>
            <DistanceMeters>NAN</DistanceMeters>
          </Trackpoint>
          <Trackpoint>
            <Time>2020-02-15T10:57:32.000Z</Time>
            <Position>
              <LatitudeDegrees>41.98284418322145938873291015625</LatitudeDegrees>
              <LongitudeDegrees>2.9081564582884311676025390625</LongitudeDegrees>
            </Position>
            <AltitudeMeters>460.399993896484375</AltitudeMeters>
            <DistanceMeters>NAN</DistanceMeters>
          </Trackpoint>
          <Trackpoint>
            <Time>2020-02-15T10:57:33.000Z</Time>
            <Position>
              <LatitudeDegrees>41.9828389026224613189697265625</LatitudeDegrees>
              <LongitudeDegrees>2.90819023735821247100830078125</LongitudeDegrees>
            </Position>
            <AltitudeMeters>460.600006103515625</AltitudeMeters>
            <DistanceMeters>NAN</DistanceMeters>
          </Trackpoint>
          <Trackpoint>
            <Time>2020-02-15T10:57:34.000Z</Time>
            <Position>
              <LatitudeDegrees>41.98283605277538299560546875</LatitudeDegrees>
              <LongitudeDegrees>2.908225022256374359130859375</LongitudeDegrees>
            </Position>
            <AltitudeMeters>460.600006103515625</AltitudeMeters>
            <DistanceMeters>NAN</DistanceMeters>
          </Trackpoint>
          <Trackpoint>
            <Time>2020-02-15T10:57:35.000Z</Time>
            <Position>
              <LatitudeDegrees>41.98283429257571697235107421875</LatitudeDegrees>
              <LongitudeDegrees>2.9082563705742359161376953125</LongitudeDegrees>
            </Position>
            <AltitudeMeters>460.600006103515625</AltitudeMeters>
            <DistanceMeters>NAN</DistanceMeters>
          </Trackpoint>
          <Trackpoint>
            <Time>2020-02-15T10:57:36.000Z</Time>
            <Position>
              <LatitudeDegrees>41.98282943107187747955322265625</LatitudeDegrees>
              <LongitudeDegrees>2.9082841984927654266357421875</LongitudeDegrees>
            </Position>
            <AltitudeMeters>460.600006103515625</AltitudeMeters>
            <DistanceMeters>NAN</DistanceMeters>
          </Trackpoint>
          <Trackpoint>
            <Time>2020-02-15T10:57:37.000Z</Time>
            <Position>
              <LatitudeDegrees>41.982821635901927947998046875</LatitudeDegrees>
              <LongitudeDegrees>2.90830607526004314422607421875</LongitudeDegrees>
            </Position>
            <AltitudeMeters>460.79998779296875</AltitudeMeters>
            <DistanceMeters>NAN</DistanceMeters>
          </Trackpoint>
          <Trackpoint>
            <Time>2020-02-15T10:57:38.000Z</Time>
            <Position>
              <LatitudeDegrees>41.98281534947454929351806640625</LatitudeDegrees>
              <LongitudeDegrees>2.9083254374563694000244140625</LongitudeDegrees>
            </Position>
            <AltitudeMeters>461</AltitudeMeters>
            <DistanceMeters>NAN</DistanceMeters>
          </Trackpoint>
          <Trackpoint>
            <Time>2020-02-15T10:57:39.000Z</Time>
            <Position>
              <LatitudeDegrees>41.9828154332935810089111328125</LatitudeDegrees>
              <LongitudeDegrees>2.908338345587253570556640625</LongitudeDegrees>
            </Position>
            <AltitudeMeters>461.20001220703125</AltitudeMeters>
            <DistanceMeters>NAN</DistanceMeters>
          </Trackpoint>
          <Trackpoint>
            <Time>2020-02-15T10:57:40.000Z</Time>
            <Position>
              <LatitudeDegrees>41.982811577618122100830078125</LatitudeDegrees>
              <LongitudeDegrees>2.9083468951284885406494140625</LongitudeDegrees>
            </Position>
            <AltitudeMeters>461.600006103515625</AltitudeMeters>
            <DistanceMeters>NAN</DistanceMeters>
          </Trackpoint>
          <Trackpoint>
            <Time>2020-02-15T10:57:41.000Z</Time>
            <Position>
              <LatitudeDegrees>41.98280780576169490814208984375</LatitudeDegrees>
              <LongitudeDegrees>2.90835502557456493377685546875</LongitudeDegrees>
            </Position>
            <AltitudeMeters>461.600006103515625</AltitudeMeters>
            <DistanceMeters>NAN</DistanceMeters>
          </Trackpoint>
          <Trackpoint>
            <Time>2020-02-15T10:57:42.000Z</Time>
            <Position>
              <LatitudeDegrees>41.98280520737171173095703125</LatitudeDegrees>
              <LongitudeDegrees>2.90836089290678501129150390625</LongitudeDegrees>
            </Position>
            <AltitudeMeters>462.20001220703125</AltitudeMeters>
            <DistanceMeters>NAN</DistanceMeters>
          </Trackpoint>
          <Trackpoint>
            <Time>2020-02-15T10:57:44.000Z</Time>
            <Position>
              <LatitudeDegrees>41.98280059732496738433837890625</LatitudeDegrees>
              <LongitudeDegrees>2.90837044827640056610107421875</LongitudeDegrees>
            </Position>
            <AltitudeMeters>464</AltitudeMeters>
            <DistanceMeters>NAN</DistanceMeters>
          </Trackpoint>
          <Trackpoint>
            <Time>2020-02-15T10:57:48.000Z</Time>
            <Position>
              <LatitudeDegrees>41.98278374969959259033203125</LatitudeDegrees>
              <LongitudeDegrees>2.9083857871592044830322265625</LongitudeDegrees>
            </Position>
            <AltitudeMeters>466.399993896484375</AltitudeMeters>
            <DistanceMeters>NAN</DistanceMeters>
          </Trackpoint>
          <Trackpoint>
            <Time>2020-02-15T10:57:53.000Z</Time>
            <Position>
              <LatitudeDegrees>41.98275960981845855712890625</LatitudeDegrees>
              <LongitudeDegrees>2.908404730260372161865234375</LongitudeDegrees>
            </Position>
            <AltitudeMeters>467.20001220703125</AltitudeMeters>
            <DistanceMeters>NAN</DistanceMeters>
          </Trackpoint>
          <Trackpoint>
            <Time>2020-02-15T10:57:54.000Z</Time>
            <Position>
              <LatitudeDegrees>41.98275558650493621826171875</LatitudeDegrees>
              <LongitudeDegrees>2.9084099270403385162353515625</LongitudeDegrees>
            </Position>
            <AltitudeMeters>467.399993896484375</AltitudeMeters>
            <DistanceMeters>NAN</DistanceMeters>
          </Trackpoint>
          <Trackpoint>
            <Time>2020-02-15T10:57:55.000Z</Time>
            <Position>
              <LatitudeDegrees>41.982753239572048187255859375</LatitudeDegrees>
              <LongitudeDegrees>2.90841470472514629364013671875</LongitudeDegrees>
            </Position>
            <AltitudeMeters>467.399993896484375</AltitudeMeters>
            <DistanceMeters>NAN</DistanceMeters>
          </Trackpoint>
          <Trackpoint>
            <Time>2020-02-15T10:57:57.000Z</Time>
            <Position>
              <LatitudeDegrees>41.982745192945003509521484375</LatitudeDegrees>
              <LongitudeDegrees>2.9084240086376667022705078125</LongitudeDegrees>
            </Position>
            <AltitudeMeters>467.399993896484375</AltitudeMeters>
            <DistanceMeters>NAN</DistanceMeters>
          </Trackpoint>
          <Trackpoint>
            <Time>2020-02-15T10:58:00.000Z</Time>
            <Position>
              <LatitudeDegrees>41.98273521848022937774658203125</LatitudeDegrees>
              <LongitudeDegrees>2.90845661424100399017333984375</LongitudeDegrees>
            </Position>
            <AltitudeMeters>467.399993896484375</AltitudeMeters>
            <DistanceMeters>NAN</DistanceMeters>
          </Trackpoint>
          <Trackpoint>
            <Time>2020-02-15T10:58:01.000Z</Time>
            <Position>
              <LatitudeDegrees>41.98273186571896076202392578125</LatitudeDegrees>
              <LongitudeDegrees>2.908469103276729583740234375</LongitudeDegrees>
            </Position>
            <AltitudeMeters>467.399993896484375</AltitudeMeters>
            <DistanceMeters>NAN</DistanceMeters>
          </Trackpoint>
          <Trackpoint>
            <Time>2020-02-15T10:58:06.000Z</Time>
            <Position>
              <LatitudeDegrees>41.98271946050226688385009765625</LatitudeDegrees>
              <LongitudeDegrees>2.9084843583405017852783203125</LongitudeDegrees>
            </Position>
            <AltitudeMeters>467.79998779296875</AltitudeMeters>
            <DistanceMeters>NAN</DistanceMeters>
          </Trackpoint>
          <Trackpoint>
            <Time>2020-02-15T10:58:08.000Z</Time>
            <Position>
              <LatitudeDegrees>41.9827071391046047210693359375</LatitudeDegrees>
              <LongitudeDegrees>2.90849802084267139434814453125</LongitudeDegrees>
            </Position>
            <AltitudeMeters>467.79998779296875</AltitudeMeters>
            <DistanceMeters>NAN</DistanceMeters>
          </Trackpoint>
          <Trackpoint>
            <Time>2020-02-15T10:58:10.000Z</Time>
            <Position>
              <LatitudeDegrees>41.98269615881145000457763671875</LatitudeDegrees>
              <LongitudeDegrees>2.908503971993923187255859375</LongitudeDegrees>
            </Position>
            <AltitudeMeters>468.20001220703125</AltitudeMeters>
            <DistanceMeters>NAN</DistanceMeters>
          </Trackpoint>
          <Trackpoint>
            <Time>2020-02-15T10:58:11.000Z</Time>
            <Position>
              <LatitudeDegrees>41.9826886989176273345947265625</LatitudeDegrees>
              <LongitudeDegrees>2.90850774385035037994384765625</LongitudeDegrees>
            </Position>
            <AltitudeMeters>468.20001220703125</AltitudeMeters>
            <DistanceMeters>NAN</DistanceMeters>
          </Trackpoint>
          <Trackpoint>
            <Time>2020-02-15T10:58:12.000Z</Time>
            <Position>
              <LatitudeDegrees>41.9826850108802318572998046875</LatitudeDegrees>
              <LongitudeDegrees>2.90851511992514133453369140625</LongitudeDegrees>
            </Position>
            <AltitudeMeters>468.20001220703125</AltitudeMeters>
            <DistanceMeters>NAN</DistanceMeters>
          </Trackpoint>
          <Trackpoint>
            <Time>2020-02-15T10:58:13.000Z</Time>
            <Position>
              <LatitudeDegrees>41.982682161033153533935546875</LatitudeDegrees>
              <LongitudeDegrees>2.908518053591251373291015625</LongitudeDegrees>
            </Position>
            <AltitudeMeters>468.399993896484375</AltitudeMeters>
            <DistanceMeters>NAN</DistanceMeters>
          </Trackpoint>
          <Trackpoint>
            <Time>2020-02-15T10:58:14.000Z</Time>
            <Position>
              <LatitudeDegrees>41.9826798141002655029296875</LatitudeDegrees>
              <LongitudeDegrees>2.90852232836186885833740234375</LongitudeDegrees>
            </Position>
            <AltitudeMeters>468.399993896484375</AltitudeMeters>
            <DistanceMeters>NAN</DistanceMeters>
          </Trackpoint>
          <Trackpoint>
            <Time>2020-02-15T10:58:15.000Z</Time>
            <Position>
              <LatitudeDegrees>41.98268006555736064910888671875</LatitudeDegrees>
              <LongitudeDegrees>2.90852484293282032012939453125</LongitudeDegrees>
            </Position>
            <AltitudeMeters>468.399993896484375</AltitudeMeters>
            <DistanceMeters>NAN</DistanceMeters>
          </Trackpoint>
          <Trackpoint>
            <Time>2020-02-15T10:58:21.000Z</Time>
            <Position>
              <LatitudeDegrees>41.982674784958362579345703125</LatitudeDegrees>
              <LongitudeDegrees>2.90856935083866119384765625</LongitudeDegrees>
            </Position>
            <AltitudeMeters>469.399993896484375</AltitudeMeters>
            <DistanceMeters>NAN</DistanceMeters>
          </Trackpoint>
          <Trackpoint>
            <Time>2020-02-15T10:58:22.000Z</Time>
            <Position>
              <LatitudeDegrees>41.98267268948256969451904296875</LatitudeDegrees>
              <LongitudeDegrees>2.90858703665435314178466796875</LongitudeDegrees>
            </Position>
            <AltitudeMeters>469.600006103515625</AltitudeMeters>
            <DistanceMeters>NAN</DistanceMeters>
          </Trackpoint>
          <Trackpoint>
            <Time>2020-02-15T10:58:23.000Z</Time>
            <Position>
              <LatitudeDegrees>41.98266799561679363250732421875</LatitudeDegrees>
              <LongitudeDegrees>2.908597849309444427490234375</LongitudeDegrees>
            </Position>
            <AltitudeMeters>469.600006103515625</AltitudeMeters>
            <DistanceMeters>NAN</DistanceMeters>
          </Trackpoint>
          <Trackpoint>
            <Time>2020-02-15T10:58:24.000Z</Time>
            <Position>
              <LatitudeDegrees>41.9826618768274784088134765625</LatitudeDegrees>
              <LongitudeDegrees>2.90860799141228199005126953125</LongitudeDegrees>
            </Position>
            <AltitudeMeters>469.600006103515625</AltitudeMeters>
            <DistanceMeters>NAN</DistanceMeters>
          </Trackpoint>
          <Trackpoint>
            <Time>2020-02-15T10:58:25.000Z</Time>
            <Position>
              <LatitudeDegrees>41.98265575803816318511962890625</LatitudeDegrees>
              <LongitudeDegrees>2.908615954220294952392578125</LongitudeDegrees>
            </Position>
            <AltitudeMeters>469.79998779296875</AltitudeMeters>
            <DistanceMeters>NAN</DistanceMeters>
          </Trackpoint>
          <Trackpoint>
            <Time>2020-02-15T10:58:26.000Z</Time>
            <Position>
              <LatitudeDegrees>41.9826471246778964996337890625</LatitudeDegrees>
              <LongitudeDegrees>2.90862257592380046844482421875</LongitudeDegrees>
            </Position>
            <AltitudeMeters>469.79998779296875</AltitudeMeters>
            <DistanceMeters>NAN</DistanceMeters>
          </Trackpoint>
          <Trackpoint>
            <Time>2020-02-15T10:58:27.000Z</Time>
            <Position>
              <LatitudeDegrees>41.9826394133269786834716796875</LatitudeDegrees>
              <LongitudeDegrees>2.908626012504100799560546875</LongitudeDegrees>
            </Position>
            <AltitudeMeters>469.79998779296875</AltitudeMeters>
            <DistanceMeters>NAN</DistanceMeters>
          </Trackpoint>
          <Trackpoint>
            <Time>2020-02-15T10:58:28.000Z</Time>
            <Position>
              <LatitudeDegrees>41.982633210718631744384765625</LatitudeDegrees>
              <LongitudeDegrees>2.90862592868506908416748046875</LongitudeDegrees>
            </Position>
            <AltitudeMeters>469.79998779296875</AltitudeMeters>
            <DistanceMeters>NAN</DistanceMeters>
          </Trackpoint>
          <Trackpoint>
            <Time>2020-02-15T10:58:29.000Z</Time>
            <Position>
              <LatitudeDegrees>41.98262977413833141326904296875</LatitudeDegrees>
              <LongitudeDegrees>2.908617965877056121826171875</LongitudeDegrees>
            </Position>
            <AltitudeMeters>470</AltitudeMeters>
            <DistanceMeters>NAN</DistanceMeters>
          </Trackpoint>
          <Trackpoint>
            <Time>2020-02-15T10:58:30.000Z</Time>
            <Position>
              <LatitudeDegrees>41.98262105695903301239013671875</LatitudeDegrees>
              <LongitudeDegrees>2.90861167944967746734619140625</LongitudeDegrees>
            </Position>
            <AltitudeMeters>470.20001220703125</AltitudeMeters>
            <DistanceMeters>NAN</DistanceMeters>
          </Trackpoint>
          <Trackpoint>
            <Time>2020-02-15T10:58:31.000Z</Time>
            <Position>
              <LatitudeDegrees>41.9826078973710536956787109375</LatitudeDegrees>
              <LongitudeDegrees>2.90860916487872600555419921875</LongitudeDegrees>
            </Position>
            <AltitudeMeters>470.399993896484375</AltitudeMeters>
            <DistanceMeters>NAN</DistanceMeters>
          </Trackpoint>
          <Trackpoint>
            <Time>2020-02-15T10:58:32.000Z</Time>
            <Position>
              <LatitudeDegrees>41.98260010220110416412353515625</LatitudeDegrees>
              <LongitudeDegrees>2.908627688884735107421875</LongitudeDegrees>
            </Position>
            <AltitudeMeters>471</AltitudeMeters>
            <DistanceMeters>NAN</DistanceMeters>
          </Trackpoint>
          <Trackpoint>
            <Time>2020-02-15T10:58:33.000Z</Time>
            <Position>
              <LatitudeDegrees>41.98259205557405948638916015625</LatitudeDegrees>
              <LongitudeDegrees>2.9086405970156192779541015625</LongitudeDegrees>
            </Position>
            <AltitudeMeters>471.20001220703125</AltitudeMeters>
            <DistanceMeters>NAN</DistanceMeters>
          </Trackpoint>
          <Trackpoint>
            <Time>2020-02-15T10:58:34.000Z</Time>
            <Position>
              <LatitudeDegrees>41.98258819989860057830810546875</LatitudeDegrees>
              <LongitudeDegrees>2.90865509770810604095458984375</LongitudeDegrees>
            </Position>
            <AltitudeMeters>471.600006103515625</AltitudeMeters>
            <DistanceMeters>NAN</DistanceMeters>
          </Trackpoint>
          <Trackpoint>
            <Time>2020-02-15T10:58:35.000Z</Time>
            <Position>
              <LatitudeDegrees>41.9825854338705539703369140625</LatitudeDegrees>
              <LongitudeDegrees>2.9086684249341487884521484375</LongitudeDegrees>
            </Position>
            <AltitudeMeters>471.79998779296875</AltitudeMeters>
            <DistanceMeters>NAN</DistanceMeters>
          </Trackpoint>
          <Trackpoint>
            <Time>2020-02-15T10:58:36.000Z</Time>
            <Position>
              <LatitudeDegrees>41.982590295374393463134765625</LatitudeDegrees>
              <LongitudeDegrees>2.9086835123598575592041015625</LongitudeDegrees>
            </Position>
            <AltitudeMeters>472.20001220703125</AltitudeMeters>
            <DistanceMeters>NAN</DistanceMeters>
          </Trackpoint>
          <Trackpoint>
            <Time>2020-02-15T10:58:37.000Z</Time>
            <Position>
              <LatitudeDegrees>41.98259088210761547088623046875</LatitudeDegrees>
              <LongitudeDegrees>2.9086985997855663299560546875</LongitudeDegrees>
            </Position>
            <AltitudeMeters>472.20001220703125</AltitudeMeters>
            <DistanceMeters>NAN</DistanceMeters>
          </Trackpoint>
          <Trackpoint>
            <Time>2020-02-15T10:58:38.000Z</Time>
            <Position>
              <LatitudeDegrees>41.9825904630124568939208984375</LatitudeDegrees>
              <LongitudeDegrees>2.90871326811611652374267578125</LongitudeDegrees>
            </Position>
            <AltitudeMeters>472.20001220703125</AltitudeMeters>
            <DistanceMeters>NAN</DistanceMeters>
          </Trackpoint>
          <Trackpoint>
            <Time>2020-02-15T10:58:39.000Z</Time>
            <Position>
              <LatitudeDegrees>41.98259356431663036346435546875</LatitudeDegrees>
              <LongitudeDegrees>2.90872835554182529449462890625</LongitudeDegrees>
            </Position>
            <AltitudeMeters>472.20001220703125</AltitudeMeters>
            <DistanceMeters>NAN</DistanceMeters>
          </Trackpoint>
          <Trackpoint>
            <Time>2020-02-15T10:58:40.000Z</Time>
            <Position>
              <LatitudeDegrees>41.982598006725311279296875</LatitudeDegrees>
              <LongitudeDegrees>2.908737994730472564697265625</LongitudeDegrees>
            </Position>
            <AltitudeMeters>472.399993896484375</AltitudeMeters>
            <DistanceMeters>NAN</DistanceMeters>
          </Trackpoint>
          <Trackpoint>
            <Time>2020-02-15T10:58:41.000Z</Time>
            <Position>
              <LatitudeDegrees>41.98260563425719738006591796875</LatitudeDegrees>
              <LongitudeDegrees>2.90874377824366092681884765625</LongitudeDegrees>
            </Position>
            <AltitudeMeters>472.399993896484375</AltitudeMeters>
            <DistanceMeters>NAN</DistanceMeters>
          </Trackpoint>
          <Trackpoint>
            <Time>2020-02-15T10:58:42.000Z</Time>
            <Position>
              <LatitudeDegrees>41.982611753046512603759765625</LatitudeDegrees>
              <LongitudeDegrees>2.9087445326149463653564453125</LongitudeDegrees>
            </Position>
            <AltitudeMeters>472.600006103515625</AltitudeMeters>
            <DistanceMeters>NAN</DistanceMeters>
          </Trackpoint>
          <Trackpoint>
            <Time>2020-02-15T10:58:43.000Z</Time>
            <Position>
              <LatitudeDegrees>41.982615105807781219482421875</LatitudeDegrees>
              <LongitudeDegrees>2.9087371565401554107666015625</LongitudeDegrees>
            </Position>
            <AltitudeMeters>472.600006103515625</AltitudeMeters>
            <DistanceMeters>NAN</DistanceMeters>
          </Trackpoint>
          <Trackpoint>
            <Time>2020-02-15T10:58:44.000Z</Time>
            <Position>
              <LatitudeDegrees>41.98261753655970096588134765625</LatitudeDegrees>
              <LongitudeDegrees>2.9087257571518421173095703125</LongitudeDegrees>
            </Position>
            <AltitudeMeters>472.600006103515625</AltitudeMeters>
            <DistanceMeters>NAN</DistanceMeters>
          </Trackpoint>
          <Trackpoint>
            <Time>2020-02-15T10:58:45.000Z</Time>
            <Position>
              <LatitudeDegrees>41.9826199673116207122802734375</LatitudeDegrees>
              <LongitudeDegrees>2.908715866506099700927734375</LongitudeDegrees>
            </Position>
            <AltitudeMeters>472.600006103515625</AltitudeMeters>
            <DistanceMeters>NAN</DistanceMeters>
          </Trackpoint>
          <Trackpoint>
            <Time>2020-02-15T10:58:47.000Z</Time>
            <Position>
              <LatitudeDegrees>41.98262281715869903564453125</LatitudeDegrees>
              <LongitudeDegrees>2.90869809687137603759765625</LongitudeDegrees>
            </Position>
            <AltitudeMeters>473</AltitudeMeters>
            <DistanceMeters>NAN</DistanceMeters>
          </Trackpoint>
          <Trackpoint>
            <Time>2020-02-15T10:58:48.000Z</Time>
            <Position>
              <LatitudeDegrees>41.98262013494968414306640625</LatitudeDegrees>
              <LongitudeDegrees>2.90868468582630157470703125</LongitudeDegrees>
            </Position>
            <AltitudeMeters>473</AltitudeMeters>
            <DistanceMeters>NAN</DistanceMeters>
          </Trackpoint>
          <Trackpoint>
            <Time>2020-02-15T10:58:49.000Z</Time>
            <Position>
              <LatitudeDegrees>41.98261871002614498138427734375</LatitudeDegrees>
              <LongitudeDegrees>2.908670268952846527099609375</LongitudeDegrees>
            </Position>
            <AltitudeMeters>473</AltitudeMeters>
            <DistanceMeters>NAN</DistanceMeters>
          </Trackpoint>
          <Trackpoint>
            <Time>2020-02-15T10:58:50.000Z</Time>
            <Position>
              <LatitudeDegrees>41.9826082326471805572509765625</LatitudeDegrees>
              <LongitudeDegrees>2.90865920484066009521484375</LongitudeDegrees>
            </Position>
            <AltitudeMeters>473</AltitudeMeters>
            <DistanceMeters>NAN</DistanceMeters>
          </Trackpoint>
          <Trackpoint>
            <Time>2020-02-15T10:58:52.000Z</Time>
            <Position>
              <LatitudeDegrees>41.9825897924602031707763671875</LatitudeDegrees>
              <LongitudeDegrees>2.908670268952846527099609375</LongitudeDegrees>
            </Position>
            <AltitudeMeters>473</AltitudeMeters>
            <DistanceMeters>NAN</DistanceMeters>
          </Trackpoint>
          <Trackpoint>
            <Time>2020-02-15T10:58:53.000Z</Time>
            <Position>
              <LatitudeDegrees>41.98258736170828342437744140625</LatitudeDegrees>
              <LongitudeDegrees>2.90868066251277923583984375</LongitudeDegrees>
            </Position>
            <AltitudeMeters>473</AltitudeMeters>
            <DistanceMeters>NAN</DistanceMeters>
          </Trackpoint>
          <Trackpoint>
            <Time>2020-02-15T10:58:54.000Z</Time>
            <Position>
              <LatitudeDegrees>41.982582919299602508544921875</LatitudeDegrees>
              <LongitudeDegrees>2.908691726624965667724609375</LongitudeDegrees>
            </Position>
            <AltitudeMeters>473</AltitudeMeters>
            <DistanceMeters>NAN</DistanceMeters>
          </Trackpoint>
          <Trackpoint>
            <Time>2020-02-15T10:58:55.000Z</Time>
            <Position>
              <LatitudeDegrees>41.98257990181446075439453125</LatitudeDegrees>
              <LongitudeDegrees>2.9087036289274692535400390625</LongitudeDegrees>
            </Position>
            <AltitudeMeters>473.20001220703125</AltitudeMeters>
            <DistanceMeters>NAN</DistanceMeters>
          </Trackpoint>
          <Trackpoint>
            <Time>2020-02-15T10:58:56.000Z</Time>
            <Position>
              <LatitudeDegrees>41.98257612995803356170654296875</LatitudeDegrees>
              <LongitudeDegrees>2.90871913544833660125732421875</LongitudeDegrees>
            </Position>
            <AltitudeMeters>473</AltitudeMeters>
            <DistanceMeters>NAN</DistanceMeters>
          </Trackpoint>
          <Trackpoint>
            <Time>2020-02-15T10:58:58.000Z</Time>
            <Position>
              <LatitudeDegrees>41.98257495649158954620361328125</LatitudeDegrees>
              <LongitudeDegrees>2.9087428562343120574951171875</LongitudeDegrees>
            </Position>
            <AltitudeMeters>473.20001220703125</AltitudeMeters>
            <DistanceMeters>NAN</DistanceMeters>
          </Trackpoint>
          <Trackpoint>
            <Time>2020-02-15T10:58:59.000Z</Time>
            <Position>
              <LatitudeDegrees>41.98257344774901866912841796875</LatitudeDegrees>
              <LongitudeDegrees>2.9087569378316402435302734375</LongitudeDegrees>
            </Position>
            <AltitudeMeters>473.20001220703125</AltitudeMeters>
            <DistanceMeters>NAN</DistanceMeters>
          </Trackpoint>
          <Trackpoint>
            <Time>2020-02-15T10:59:00.000Z</Time>
            <Position>
              <LatitudeDegrees>41.98257478885352611541748046875</LatitudeDegrees>
              <LongitudeDegrees>2.90876909159123897552490234375</LongitudeDegrees>
            </Position>
            <AltitudeMeters>473.20001220703125</AltitudeMeters>
            <DistanceMeters>NAN</DistanceMeters>
          </Trackpoint>
          <Trackpoint>
            <Time>2020-02-15T10:59:01.000Z</Time>
            <Position>
              <LatitudeDegrees>41.98257453739643096923828125</LatitudeDegrees>
              <LongitudeDegrees>2.90878258645534515380859375</LongitudeDegrees>
            </Position>
            <AltitudeMeters>473.20001220703125</AltitudeMeters>
            <DistanceMeters>NAN</DistanceMeters>
          </Trackpoint>
          <Trackpoint>
            <Time>2020-02-15T10:59:02.000Z</Time>
            <Position>
              <LatitudeDegrees>41.98257529176771640777587890625</LatitudeDegrees>
              <LongitudeDegrees>2.9087954945862293243408203125</LongitudeDegrees>
            </Position>
            <AltitudeMeters>473</AltitudeMeters>
            <DistanceMeters>NAN</DistanceMeters>
          </Trackpoint>
          <Trackpoint>
            <Time>2020-02-15T10:59:03.000Z</Time>
            <Position>
              <LatitudeDegrees>41.98257612995803356170654296875</LatitudeDegrees>
              <LongitudeDegrees>2.90880815126001834869384765625</LongitudeDegrees>
            </Position>
            <AltitudeMeters>473</AltitudeMeters>
            <DistanceMeters>NAN</DistanceMeters>
          </Trackpoint>
          <Trackpoint>
            <Time>2020-02-15T10:59:07.000Z</Time>
            <Position>
              <LatitudeDegrees>41.982581913471221923828125</LatitudeDegrees>
              <LongitudeDegrees>2.90886581875383853912353515625</LongitudeDegrees>
            </Position>
            <AltitudeMeters>473.20001220703125</AltitudeMeters>
            <DistanceMeters>NAN</DistanceMeters>
          </Trackpoint>
          <Trackpoint>
            <Time>2020-02-15T10:59:08.000Z</Time>
            <Position>
              <LatitudeDegrees>41.98258392512798309326171875</LatitudeDegrees>
              <LongitudeDegrees>2.90887889452278614044189453125</LongitudeDegrees>
            </Position>
            <AltitudeMeters>473.20001220703125</AltitudeMeters>
            <DistanceMeters>NAN</DistanceMeters>
          </Trackpoint>
          <Trackpoint>
            <Time>2020-02-15T10:59:09.000Z</Time>
            <Position>
              <LatitudeDegrees>41.9825790636241436004638671875</LatitudeDegrees>
              <LongitudeDegrees>2.9088918864727020263671875</LongitudeDegrees>
            </Position>
            <AltitudeMeters>473.20001220703125</AltitudeMeters>
            <DistanceMeters>NAN</DistanceMeters>
          </Trackpoint>
          <Trackpoint>
            <Time>2020-02-15T10:59:10.000Z</Time>
            <Position>
              <LatitudeDegrees>41.982576213777065277099609375</LatitudeDegrees>
              <LongitudeDegrees>2.908904291689395904541015625</LongitudeDegrees>
            </Position>
            <AltitudeMeters>473.399993896484375</AltitudeMeters>
            <DistanceMeters>NAN</DistanceMeters>
          </Trackpoint>
          <Trackpoint>
            <Time>2020-02-15T10:59:11.000Z</Time>
            <Position>
              <LatitudeDegrees>41.9825743697583675384521484375</LatitudeDegrees>
              <LongitudeDegrees>2.90891678072512149810791015625</LongitudeDegrees>
            </Position>
            <AltitudeMeters>473.399993896484375</AltitudeMeters>
            <DistanceMeters>NAN</DistanceMeters>
          </Trackpoint>
          <Trackpoint>
            <Time>2020-02-15T10:59:12.000Z</Time>
            <Position>
              <LatitudeDegrees>41.98257244192063808441162109375</LatitudeDegrees>
              <LongitudeDegrees>2.90893220342695713043212890625</LongitudeDegrees>
            </Position>
            <AltitudeMeters>473.399993896484375</AltitudeMeters>
            <DistanceMeters>NAN</DistanceMeters>
          </Trackpoint>
          <Trackpoint>
            <Time>2020-02-15T10:59:14.000Z</Time>
            <Position>
              <LatitudeDegrees>41.98257160373032093048095703125</LatitudeDegrees>
              <LongitudeDegrees>2.90895818732678890228271484375</LongitudeDegrees>
            </Position>
            <AltitudeMeters>473.600006103515625</AltitudeMeters>
            <DistanceMeters>NAN</DistanceMeters>
          </Trackpoint>
          <Trackpoint>
            <Time>2020-02-15T10:59:15.000Z</Time>
            <Position>
              <LatitudeDegrees>41.98256975971162319183349609375</LatitudeDegrees>
              <LongitudeDegrees>2.9089721851050853729248046875</LongitudeDegrees>
            </Position>
            <AltitudeMeters>473.79998779296875</AltitudeMeters>
            <DistanceMeters>NAN</DistanceMeters>
          </Trackpoint>
          <Trackpoint>
            <Time>2020-02-15T10:59:16.000Z</Time>
            <Position>
              <LatitudeDegrees>41.98257277719676494598388671875</LatitudeDegrees>
              <LongitudeDegrees>2.90898551233112812042236328125</LongitudeDegrees>
            </Position>
            <AltitudeMeters>474</AltitudeMeters>
            <DistanceMeters>NAN</DistanceMeters>
          </Trackpoint>
          <Trackpoint>
            <Time>2020-02-15T10:59:17.000Z</Time>
            <Position>
              <LatitudeDegrees>41.982576549053192138671875</LatitudeDegrees>
              <LongitudeDegrees>2.9089953191578388214111328125</LongitudeDegrees>
            </Position>
            <AltitudeMeters>474</AltitudeMeters>
            <DistanceMeters>NAN</DistanceMeters>
          </Trackpoint>
          <Trackpoint>
            <Time>2020-02-15T10:59:18.000Z</Time>
            <Position>
              <LatitudeDegrees>41.9825787283480167388916015625</LatitudeDegrees>
              <LongitudeDegrees>2.90900118649005889892578125</LongitudeDegrees>
            </Position>
            <AltitudeMeters>474.20001220703125</AltitudeMeters>
            <DistanceMeters>NAN</DistanceMeters>
          </Trackpoint>
          <Trackpoint>
            <Time>2020-02-15T10:59:19.000Z</Time>
            <Position>
              <LatitudeDegrees>41.98258115909993648529052734375</LatitudeDegrees>
              <LongitudeDegrees>2.90900177322328090667724609375</LongitudeDegrees>
            </Position>
            <AltitudeMeters>474.20001220703125</AltitudeMeters>
            <DistanceMeters>NAN</DistanceMeters>
          </Trackpoint>
          <Trackpoint>
            <Time>2020-02-15T10:59:21.000Z</Time>
            <Position>
              <LatitudeDegrees>41.982588283717632293701171875</LatitudeDegrees>
              <LongitudeDegrees>2.908983416855335235595703125</LongitudeDegrees>
            </Position>
            <AltitudeMeters>474.399993896484375</AltitudeMeters>
            <DistanceMeters>NAN</DistanceMeters>
          </Trackpoint>
          <Trackpoint>
            <Time>2020-02-15T10:59:22.000Z</Time>
            <Position>
              <LatitudeDegrees>41.98258484713733196258544921875</LatitudeDegrees>
              <LongitudeDegrees>2.9089711792767047882080078125</LongitudeDegrees>
            </Position>
            <AltitudeMeters>474.399993896484375</AltitudeMeters>
            <DistanceMeters>NAN</DistanceMeters>
          </Trackpoint>
          <Trackpoint>
            <Time>2020-02-15T10:59:24.000Z</Time>
            <Position>
              <LatitudeDegrees>41.98257730342447757720947265625</LatitudeDegrees>
              <LongitudeDegrees>2.90897394530475139617919921875</LongitudeDegrees>
            </Position>
            <AltitudeMeters>474.600006103515625</AltitudeMeters>
            <DistanceMeters>NAN</DistanceMeters>
          </Trackpoint>
          <Trackpoint>
            <Time>2020-02-15T10:59:26.000Z</Time>
            <Position>
              <LatitudeDegrees>41.98256841860711574554443359375</LatitudeDegrees>
              <LongitudeDegrees>2.90899179875850677490234375</LongitudeDegrees>
            </Position>
            <AltitudeMeters>474.399993896484375</AltitudeMeters>
            <DistanceMeters>NAN</DistanceMeters>
          </Trackpoint>
          <Trackpoint>
            <Time>2020-02-15T10:59:27.000Z</Time>
            <Position>
              <LatitudeDegrees>41.98256741277873516082763671875</LatitudeDegrees>
              <LongitudeDegrees>2.90900646708905696868896484375</LongitudeDegrees>
            </Position>
            <AltitudeMeters>474.399993896484375</AltitudeMeters>
            <DistanceMeters>NAN</DistanceMeters>
          </Trackpoint>
          <Trackpoint>
            <Time>2020-02-15T10:59:28.000Z</Time>
            <Position>
              <LatitudeDegrees>41.98257043026387691497802734375</LatitudeDegrees>
              <LongitudeDegrees>2.90902188979089260101318359375</LongitudeDegrees>
            </Position>
            <AltitudeMeters>474.600006103515625</AltitudeMeters>
            <DistanceMeters>NAN</DistanceMeters>
          </Trackpoint>
          <Trackpoint>
            <Time>2020-02-15T10:59:29.000Z</Time>
            <Position>
              <LatitudeDegrees>41.98257160373032093048095703125</LatitudeDegrees>
              <LongitudeDegrees>2.90903965942561626434326171875</LongitudeDegrees>
            </Position>
            <AltitudeMeters>474.399993896484375</AltitudeMeters>
            <DistanceMeters>NAN</DistanceMeters>
          </Trackpoint>
          <Trackpoint>
            <Time>2020-02-15T10:59:30.000Z</Time>
            <Position>
              <LatitudeDegrees>41.98257227428257465362548828125</LatitudeDegrees>
              <LongitudeDegrees>2.9090560041368007659912109375</LongitudeDegrees>
            </Position>
            <AltitudeMeters>474.600006103515625</AltitudeMeters>
            <DistanceMeters>NAN</DistanceMeters>
          </Trackpoint>
          <Trackpoint>
            <Time>2020-02-15T10:59:32.000Z</Time>
            <Position>
              <LatitudeDegrees>41.9825723581016063690185546875</LatitudeDegrees>
              <LongitudeDegrees>2.9090891964733600616455078125</LongitudeDegrees>
            </Position>
            <AltitudeMeters>474.600006103515625</AltitudeMeters>
            <DistanceMeters>NAN</DistanceMeters>
          </Trackpoint>
          <Trackpoint>
            <Time>2020-02-15T10:59:33.000Z</Time>
            <Position>
              <LatitudeDegrees>41.9825753755867481231689453125</LatitudeDegrees>
              <LongitudeDegrees>2.90910738520324230194091796875</LongitudeDegrees>
            </Position>
            <AltitudeMeters>474.600006103515625</AltitudeMeters>
            <DistanceMeters>NAN</DistanceMeters>
          </Trackpoint>
          <Trackpoint>
            <Time>2020-02-15T10:59:34.000Z</Time>
            <Position>
              <LatitudeDegrees>41.98258099146187305450439453125</LatitudeDegrees>
              <LongitudeDegrees>2.909127585589885711669921875</LongitudeDegrees>
            </Position>
            <AltitudeMeters>474.600006103515625</AltitudeMeters>
            <DistanceMeters>NAN</DistanceMeters>
          </Trackpoint>
          <Trackpoint>
            <Time>2020-02-15T10:59:35.000Z</Time>
            <Position>
              <LatitudeDegrees>41.982584260404109954833984375</LatitudeDegrees>
              <LongitudeDegrees>2.90914711542427539825439453125</LongitudeDegrees>
            </Position>
            <AltitudeMeters>474.79998779296875</AltitudeMeters>
            <DistanceMeters>NAN</DistanceMeters>
          </Trackpoint>
          <Trackpoint>
            <Time>2020-02-15T10:59:36.000Z</Time>
            <Position>
              <LatitudeDegrees>41.98258660733699798583984375</LatitudeDegrees>
              <LongitudeDegrees>2.90916890837252140045166015625</LongitudeDegrees>
            </Position>
            <AltitudeMeters>474.79998779296875</AltitudeMeters>
            <DistanceMeters>NAN</DistanceMeters>
          </Trackpoint>
          <Trackpoint>
            <Time>2020-02-15T10:59:38.000Z</Time>
            <Position>
              <LatitudeDegrees>41.98258928954601287841796875</LatitudeDegrees>
              <LongitudeDegrees>2.9092145897448062896728515625</LongitudeDegrees>
            </Position>
            <AltitudeMeters>474.79998779296875</AltitudeMeters>
            <DistanceMeters>NAN</DistanceMeters>
          </Trackpoint>
          <Trackpoint>
            <Time>2020-02-15T10:59:39.000Z</Time>
            <Position>
              <LatitudeDegrees>41.982592642307281494140625</LatitudeDegrees>
              <LongitudeDegrees>2.90923763997852802276611328125</LongitudeDegrees>
            </Position>
            <AltitudeMeters>474.79998779296875</AltitudeMeters>
            <DistanceMeters>NAN</DistanceMeters>
          </Trackpoint>
          <Trackpoint>
            <Time>2020-02-15T10:59:40.000Z</Time>
            <Position>
              <LatitudeDegrees>41.98259741999208927154541015625</LatitudeDegrees>
              <LongitudeDegrees>2.90926043875515460968017578125</LongitudeDegrees>
            </Position>
            <AltitudeMeters>474.79998779296875</AltitudeMeters>
            <DistanceMeters>NAN</DistanceMeters>
          </Trackpoint>
          <Trackpoint>
            <Time>2020-02-15T10:59:41.000Z</Time>
            <Position>
              <LatitudeDegrees>41.9826028682291507720947265625</LatitudeDegrees>
              <LongitudeDegrees>2.90928524918854236602783203125</LongitudeDegrees>
            </Position>
            <AltitudeMeters>475</AltitudeMeters>
            <DistanceMeters>NAN</DistanceMeters>
          </Trackpoint>
          <Trackpoint>
            <Time>2020-02-15T10:59:43.000Z</Time>
            <Position>
              <LatitudeDegrees>41.9826122559607028961181640625</LatitudeDegrees>
              <LongitudeDegrees>2.90933503769338130950927734375</LongitudeDegrees>
            </Position>
            <AltitudeMeters>475</AltitudeMeters>
            <DistanceMeters>NAN</DistanceMeters>
          </Trackpoint>
          <Trackpoint>
            <Time>2020-02-15T10:59:44.000Z</Time>
            <Position>
              <LatitudeDegrees>41.98262088932096958160400390625</LatitudeDegrees>
              <LongitudeDegrees>2.909360937774181365966796875</LongitudeDegrees>
            </Position>
            <AltitudeMeters>475.20001220703125</AltitudeMeters>
            <DistanceMeters>NAN</DistanceMeters>
          </Trackpoint>
          <Trackpoint>
            <Time>2020-02-15T10:59:45.000Z</Time>
            <Position>
              <LatitudeDegrees>41.982629187405109405517578125</LatitudeDegrees>
              <LongitudeDegrees>2.90938532911241054534912109375</LongitudeDegrees>
            </Position>
            <AltitudeMeters>475.20001220703125</AltitudeMeters>
            <DistanceMeters>NAN</DistanceMeters>
          </Trackpoint>
          <Trackpoint>
            <Time>2020-02-15T10:59:46.000Z</Time>
            <Position>
              <LatitudeDegrees>41.98263580910861492156982421875</LatitudeDegrees>
              <LongitudeDegrees>2.90940930135548114776611328125</LongitudeDegrees>
            </Position>
            <AltitudeMeters>475.399993896484375</AltitudeMeters>
            <DistanceMeters>NAN</DistanceMeters>
          </Trackpoint>
          <Trackpoint>
            <Time>2020-02-15T10:59:47.000Z</Time>
            <Position>
              <LatitudeDegrees>41.98264117352664470672607421875</LatitudeDegrees>
              <LongitudeDegrees>2.9094338603317737579345703125</LongitudeDegrees>
            </Position>
            <AltitudeMeters>475.399993896484375</AltitudeMeters>
            <DistanceMeters>NAN</DistanceMeters>
          </Trackpoint>
          <Trackpoint>
            <Time>2020-02-15T10:59:48.000Z</Time>
            <Position>
              <LatitudeDegrees>41.98264821432530879974365234375</LatitudeDegrees>
              <LongitudeDegrees>2.90945758111774921417236328125</LongitudeDegrees>
            </Position>
            <AltitudeMeters>475.399993896484375</AltitudeMeters>
            <DistanceMeters>NAN</DistanceMeters>
          </Trackpoint>
          <Trackpoint>
            <Time>2020-02-15T10:59:49.000Z</Time>
            <Position>
              <LatitudeDegrees>41.9826558418571949005126953125</LatitudeDegrees>
              <LongitudeDegrees>2.90948105044662952423095703125</LongitudeDegrees>
            </Position>
            <AltitudeMeters>475.600006103515625</AltitudeMeters>
            <DistanceMeters>NAN</DistanceMeters>
          </Trackpoint>
          <Trackpoint>
            <Time>2020-02-15T10:59:50.000Z</Time>
            <Position>
              <LatitudeDegrees>41.98265760205686092376708984375</LatitudeDegrees>
              <LongitudeDegrees>2.9095066152513027191162109375</LongitudeDegrees>
            </Position>
            <AltitudeMeters>475.600006103515625</AltitudeMeters>
            <DistanceMeters>NAN</DistanceMeters>
          </Trackpoint>
          <Trackpoint>
            <Time>2020-02-15T10:59:51.000Z</Time>
            <Position>
              <LatitudeDegrees>41.98265877552330493927001953125</LatitudeDegrees>
              <LongitudeDegrees>2.90953159332275390625</LongitudeDegrees>
            </Position>
            <AltitudeMeters>475.79998779296875</AltitudeMeters>
            <DistanceMeters>NAN</DistanceMeters>
          </Trackpoint>
          <Trackpoint>
            <Time>2020-02-15T10:59:52.000Z</Time>
            <Position>
              <LatitudeDegrees>41.98266263119876384735107421875</LatitudeDegrees>
              <LongitudeDegrees>2.9095565713942050933837890625</LongitudeDegrees>
            </Position>
            <AltitudeMeters>476</AltitudeMeters>
            <DistanceMeters>NAN</DistanceMeters>
          </Trackpoint>
          <Trackpoint>
            <Time>2020-02-15T10:59:53.000Z</Time>
            <Position>
              <LatitudeDegrees>41.9826664030551910400390625</LatitudeDegrees>
              <LongitudeDegrees>2.90958129800856113433837890625</LongitudeDegrees>
            </Position>
            <AltitudeMeters>476</AltitudeMeters>
            <DistanceMeters>NAN</DistanceMeters>
          </Trackpoint>
          <Trackpoint>
            <Time>2020-02-15T10:59:54.000Z</Time>
            <Position>
              <LatitudeDegrees>41.98267042636871337890625</LatitudeDegrees>
              <LongitudeDegrees>2.90960627608001232147216796875</LongitudeDegrees>
            </Position>
            <AltitudeMeters>476.20001220703125</AltitudeMeters>
            <DistanceMeters>NAN</DistanceMeters>
          </Trackpoint>
          <Trackpoint>
            <Time>2020-02-15T10:59:56.000Z</Time>
            <Position>
              <LatitudeDegrees>41.98267151601612567901611328125</LatitudeDegrees>
              <LongitudeDegrees>2.90965891443192958831787109375</LongitudeDegrees>
            </Position>
            <AltitudeMeters>476.20001220703125</AltitudeMeters>
            <DistanceMeters>NAN</DistanceMeters>
          </Trackpoint>
          <Trackpoint>
            <Time>2020-02-15T10:59:58.000Z</Time>
            <Position>
              <LatitudeDegrees>41.982667408883571624755859375</LatitudeDegrees>
              <LongitudeDegrees>2.90971758775413036346435546875</LongitudeDegrees>
            </Position>
            <AltitudeMeters>476.600006103515625</AltitudeMeters>
            <DistanceMeters>NAN</DistanceMeters>
          </Trackpoint>
          <Trackpoint>
            <Time>2020-02-15T10:59:59.000Z</Time>
            <Position>
              <LatitudeDegrees>41.98266380466520786285400390625</LatitudeDegrees>
              <LongitudeDegrees>2.90974692441523075103759765625</LongitudeDegrees>
            </Position>
            <AltitudeMeters>476.79998779296875</AltitudeMeters>
            <DistanceMeters>NAN</DistanceMeters>
          </Trackpoint>
          <Trackpoint>
            <Time>2020-02-15T11:00:00.000Z</Time>
            <Position>
              <LatitudeDegrees>41.98265944607555866241455078125</LatitudeDegrees>
              <LongitudeDegrees>2.90977743454277515411376953125</LongitudeDegrees>
            </Position>
            <AltitudeMeters>476.79998779296875</AltitudeMeters>
            <DistanceMeters>NAN</DistanceMeters>
          </Trackpoint>
          <Trackpoint>
            <Time>2020-02-15T11:00:01.000Z</Time>
            <Position>
              <LatitudeDegrees>41.98265491984784603118896484375</LatitudeDegrees>
              <LongitudeDegrees>2.90980710648000240325927734375</LongitudeDegrees>
            </Position>
            <AltitudeMeters>477</AltitudeMeters>
            <DistanceMeters>NAN</DistanceMeters>
          </Trackpoint>
          <Trackpoint>
            <Time>2020-02-15T11:00:02.000Z</Time>
            <Position>
              <LatitudeDegrees>41.982649974524974822998046875</LatitudeDegrees>
              <LongitudeDegrees>2.909835018217563629150390625</LongitudeDegrees>
            </Position>
            <AltitudeMeters>477</AltitudeMeters>
            <DistanceMeters>NAN</DistanceMeters>
          </Trackpoint>
          <Trackpoint>
            <Time>2020-02-15T11:00:03.000Z</Time>
            <Position>
              <LatitudeDegrees>41.98264637030661106109619140625</LatitudeDegrees>
              <LongitudeDegrees>2.9098643548786640167236328125</LongitudeDegrees>
            </Position>
            <AltitudeMeters>477</AltitudeMeters>
            <DistanceMeters>NAN</DistanceMeters>
          </Trackpoint>
          <Trackpoint>
            <Time>2020-02-15T11:00:04.000Z</Time>
            <Position>
              <LatitudeDegrees>41.982649974524974822998046875</LatitudeDegrees>
              <LongitudeDegrees>2.90989344008266925811767578125</LongitudeDegrees>
            </Position>
            <AltitudeMeters>477</AltitudeMeters>
            <DistanceMeters>NAN</DistanceMeters>
          </Trackpoint>
          <Trackpoint>
            <Time>2020-02-15T11:00:05.000Z</Time>
            <Position>
              <LatitudeDegrees>41.98265927843749523162841796875</LatitudeDegrees>
              <LongitudeDegrees>2.90992059744894504547119140625</LongitudeDegrees>
            </Position>
            <AltitudeMeters>477.20001220703125</AltitudeMeters>
            <DistanceMeters>NAN</DistanceMeters>
          </Trackpoint>
          <Trackpoint>
            <Time>2020-02-15T11:00:06.000Z</Time>
            <Position>
              <LatitudeDegrees>41.98266983963549137115478515625</LatitudeDegrees>
              <LongitudeDegrees>2.90994532406330108642578125</LongitudeDegrees>
            </Position>
            <AltitudeMeters>477.20001220703125</AltitudeMeters>
            <DistanceMeters>NAN</DistanceMeters>
          </Trackpoint>
          <Trackpoint>
            <Time>2020-02-15T11:00:07.000Z</Time>
            <Position>
              <LatitudeDegrees>41.98267989791929721832275390625</LatitudeDegrees>
              <LongitudeDegrees>2.90996904484927654266357421875</LongitudeDegrees>
            </Position>
            <AltitudeMeters>477.600006103515625</AltitudeMeters>
            <DistanceMeters>NAN</DistanceMeters>
          </Trackpoint>
          <Trackpoint>
            <Time>2020-02-15T11:00:08.000Z</Time>
            <Position>
              <LatitudeDegrees>41.98269280605018138885498046875</LatitudeDegrees>
              <LongitudeDegrees>2.90999083779752254486083984375</LongitudeDegrees>
            </Position>
            <AltitudeMeters>477.600006103515625</AltitudeMeters>
            <DistanceMeters>NAN</DistanceMeters>
          </Trackpoint>
          <Trackpoint>
            <Time>2020-02-15T11:00:09.000Z</Time>
            <Position>
              <LatitudeDegrees>41.98270588181912899017333984375</LatitudeDegrees>
              <LongitudeDegrees>2.910012044012546539306640625</LongitudeDegrees>
            </Position>
            <AltitudeMeters>477.600006103515625</AltitudeMeters>
            <DistanceMeters>NAN</DistanceMeters>
          </Trackpoint>
          <Trackpoint>
            <Time>2020-02-15T11:00:10.000Z</Time>
            <Position>
              <LatitudeDegrees>41.98271845467388629913330078125</LatitudeDegrees>
              <LongitudeDegrees>2.91003375314176082611083984375</LongitudeDegrees>
            </Position>
            <AltitudeMeters>478</AltitudeMeters>
            <DistanceMeters>NAN</DistanceMeters>
          </Trackpoint>
          <Trackpoint>
            <Time>2020-02-15T11:00:11.000Z</Time>
            <Position>
              <LatitudeDegrees>41.98273102752864360809326171875</LatitudeDegrees>
              <LongitudeDegrees>2.91005353443324565887451171875</LongitudeDegrees>
            </Position>
            <AltitudeMeters>478.20001220703125</AltitudeMeters>
            <DistanceMeters>NAN</DistanceMeters>
          </Trackpoint>
          <Trackpoint>
            <Time>2020-02-15T11:00:12.000Z</Time>
            <Position>
              <LatitudeDegrees>41.98274360038340091705322265625</LatitudeDegrees>
              <LongitudeDegrees>2.9100685380399227142333984375</LongitudeDegrees>
            </Position>
            <AltitudeMeters>478.399993896484375</AltitudeMeters>
            <DistanceMeters>NAN</DistanceMeters>
          </Trackpoint>
          <Trackpoint>
            <Time>2020-02-15T11:00:13.000Z</Time>
            <Position>
              <LatitudeDegrees>41.9827584363520145416259765625</LatitudeDegrees>
              <LongitudeDegrees>2.910081446170806884765625</LongitudeDegrees>
            </Position>
            <AltitudeMeters>478.600006103515625</AltitudeMeters>
            <DistanceMeters>NAN</DistanceMeters>
          </Trackpoint>
          <Trackpoint>
            <Time>2020-02-15T11:00:14.000Z</Time>
            <Position>
              <LatitudeDegrees>41.9827736914157867431640625</LatitudeDegrees>
              <LongitudeDegrees>2.91009779088199138641357421875</LongitudeDegrees>
            </Position>
            <AltitudeMeters>478.79998779296875</AltitudeMeters>
            <DistanceMeters>NAN</DistanceMeters>
          </Trackpoint>
          <Trackpoint>
            <Time>2020-02-15T11:00:15.000Z</Time>
            <Position>
              <LatitudeDegrees>41.9827899523079395294189453125</LatitudeDegrees>
              <LongitudeDegrees>2.9101151414215564727783203125</LongitudeDegrees>
            </Position>
            <AltitudeMeters>479</AltitudeMeters>
            <DistanceMeters>NAN</DistanceMeters>
          </Trackpoint>
          <Trackpoint>
            <Time>2020-02-15T11:00:16.000Z</Time>
            <Position>
              <LatitudeDegrees>41.98280512355268001556396484375</LatitudeDegrees>
              <LongitudeDegrees>2.91012905538082122802734375</LongitudeDegrees>
            </Position>
            <AltitudeMeters>479.20001220703125</AltitudeMeters>
            <DistanceMeters>NAN</DistanceMeters>
          </Trackpoint>
          <Trackpoint>
            <Time>2020-02-15T11:00:17.000Z</Time>
            <Position>
              <LatitudeDegrees>41.982821635901927947998046875</LatitudeDegrees>
              <LongitudeDegrees>2.91014221496880054473876953125</LongitudeDegrees>
            </Position>
            <AltitudeMeters>479.399993896484375</AltitudeMeters>
            <DistanceMeters>NAN</DistanceMeters>
          </Trackpoint>
          <Trackpoint>
            <Time>2020-02-15T11:00:18.000Z</Time>
            <Position>
              <LatitudeDegrees>41.98283605277538299560546875</LatitudeDegrees>
              <LongitudeDegrees>2.91015445254743099212646484375</LongitudeDegrees>
            </Position>
            <AltitudeMeters>479.79998779296875</AltitudeMeters>
            <DistanceMeters>NAN</DistanceMeters>
          </Trackpoint>
          <Trackpoint>
            <Time>2020-02-15T11:00:19.000Z</Time>
            <Position>
              <LatitudeDegrees>41.9828529842197895050048828125</LatitudeDegrees>
              <LongitudeDegrees>2.9101661033928394317626953125</LongitudeDegrees>
            </Position>
            <AltitudeMeters>480</AltitudeMeters>
            <DistanceMeters>NAN</DistanceMeters>
          </Trackpoint>
          <Trackpoint>
            <Time>2020-02-15T11:00:20.000Z</Time>
            <Position>
              <LatitudeDegrees>41.9828710891306400299072265625</LatitudeDegrees>
              <LongitudeDegrees>2.91017440147697925567626953125</LongitudeDegrees>
            </Position>
            <AltitudeMeters>480.20001220703125</AltitudeMeters>
            <DistanceMeters>NAN</DistanceMeters>
          </Trackpoint>
          <Trackpoint>
            <Time>2020-02-15T11:00:21.000Z</Time>
            <Position>
              <LatitudeDegrees>41.982890032231807708740234375</LatitudeDegrees>
              <LongitudeDegrees>2.91017926298081874847412109375</LongitudeDegrees>
            </Position>
            <AltitudeMeters>480.399993896484375</AltitudeMeters>
            <DistanceMeters>NAN</DistanceMeters>
          </Trackpoint>
          <Trackpoint>
            <Time>2020-02-15T11:00:22.000Z</Time>
            <Position>
              <LatitudeDegrees>41.98291140608489513397216796875</LatitudeDegrees>
              <LongitudeDegrees>2.91018269956111907958984375</LongitudeDegrees>
            </Position>
            <AltitudeMeters>480.399993896484375</AltitudeMeters>
            <DistanceMeters>NAN</DistanceMeters>
          </Trackpoint>
          <Trackpoint>
            <Time>2020-02-15T11:00:23.000Z</Time>
            <Position>
              <LatitudeDegrees>41.9829332828521728515625</LatitudeDegrees>
              <LongitudeDegrees>2.910187058150768280029296875</LongitudeDegrees>
            </Position>
            <AltitudeMeters>480.79998779296875</AltitudeMeters>
            <DistanceMeters>NAN</DistanceMeters>
          </Trackpoint>
          <Trackpoint>
            <Time>2020-02-15T11:00:24.000Z</Time>
            <Position>
              <LatitudeDegrees>41.9829539023339748382568359375</LatitudeDegrees>
              <LongitudeDegrees>2.9101905785501003265380859375</LongitudeDegrees>
            </Position>
            <AltitudeMeters>481.20001220703125</AltitudeMeters>
            <DistanceMeters>NAN</DistanceMeters>
          </Trackpoint>
          <Trackpoint>
            <Time>2020-02-15T11:00:25.000Z</Time>
            <Position>
              <LatitudeDegrees>41.98297292925417423248291015625</LatitudeDegrees>
              <LongitudeDegrees>2.91019141674041748046875</LongitudeDegrees>
            </Position>
            <AltitudeMeters>481.399993896484375</AltitudeMeters>
            <DistanceMeters>NAN</DistanceMeters>
          </Trackpoint>
          <Trackpoint>
            <Time>2020-02-15T11:00:26.000Z</Time>
            <Position>
              <LatitudeDegrees>41.98299388401210308074951171875</LatitudeDegrees>
              <LongitudeDegrees>2.9101902432739734649658203125</LongitudeDegrees>
            </Position>
            <AltitudeMeters>481.399993896484375</AltitudeMeters>
            <DistanceMeters>NAN</DistanceMeters>
          </Trackpoint>
          <Trackpoint>
            <Time>2020-02-15T11:00:27.000Z</Time>
            <Position>
              <LatitudeDegrees>41.98301651515066623687744140625</LatitudeDegrees>
              <LongitudeDegrees>2.9101905785501003265380859375</LongitudeDegrees>
            </Position>
            <AltitudeMeters>481.600006103515625</AltitudeMeters>
            <DistanceMeters>NAN</DistanceMeters>
          </Trackpoint>
          <Trackpoint>
            <Time>2020-02-15T11:00:28.000Z</Time>
            <Position>
              <LatitudeDegrees>41.98303721845149993896484375</LatitudeDegrees>
              <LongitudeDegrees>2.91019116528332233428955078125</LongitudeDegrees>
            </Position>
            <AltitudeMeters>481.600006103515625</AltitudeMeters>
            <DistanceMeters>NAN</DistanceMeters>
          </Trackpoint>
          <Trackpoint>
            <Time>2020-02-15T11:00:29.000Z</Time>
            <Position>
              <LatitudeDegrees>41.9830541498959064483642578125</LatitudeDegrees>
              <LongitudeDegrees>2.9101892374455928802490234375</LongitudeDegrees>
            </Position>
            <AltitudeMeters>481.79998779296875</AltitudeMeters>
            <DistanceMeters>NAN</DistanceMeters>
          </Trackpoint>
          <Trackpoint>
            <Time>2020-02-15T11:00:30.000Z</Time>
            <Position>
              <LatitudeDegrees>41.9830714166164398193359375</LatitudeDegrees>
              <LongitudeDegrees>2.91018546558916568756103515625</LongitudeDegrees>
            </Position>
            <AltitudeMeters>481.79998779296875</AltitudeMeters>
            <DistanceMeters>NAN</DistanceMeters>
          </Trackpoint>
          <Trackpoint>
            <Time>2020-02-15T11:00:31.000Z</Time>
            <Position>
              <LatitudeDegrees>41.98309027589857578277587890625</LatitudeDegrees>
              <LongitudeDegrees>2.91018295101821422576904296875</LongitudeDegrees>
            </Position>
            <AltitudeMeters>482</AltitudeMeters>
            <DistanceMeters>NAN</DistanceMeters>
          </Trackpoint>
          <Trackpoint>
            <Time>2020-02-15T11:00:32.000Z</Time>
            <Position>
              <LatitudeDegrees>41.98310787789523601531982421875</LatitudeDegrees>
              <LongitudeDegrees>2.91018010117113590240478515625</LongitudeDegrees>
            </Position>
            <AltitudeMeters>482</AltitudeMeters>
            <DistanceMeters>NAN</DistanceMeters>
          </Trackpoint>
          <Trackpoint>
            <Time>2020-02-15T11:00:33.000Z</Time>
            <Position>
              <LatitudeDegrees>41.98312782682478427886962890625</LatitudeDegrees>
              <LongitudeDegrees>2.9101805202662944793701171875</LongitudeDegrees>
            </Position>
            <AltitudeMeters>482.20001220703125</AltitudeMeters>
            <DistanceMeters>NAN</DistanceMeters>
          </Trackpoint>
          <Trackpoint>
            <Time>2020-02-15T11:00:34.000Z</Time>
            <Position>
              <LatitudeDegrees>41.983147524297237396240234375</LatitudeDegrees>
              <LongitudeDegrees>2.91018068790435791015625</LongitudeDegrees>
            </Position>
            <AltitudeMeters>482.600006103515625</AltitudeMeters>
            <DistanceMeters>NAN</DistanceMeters>
          </Trackpoint>
          <Trackpoint>
            <Time>2020-02-15T11:00:35.000Z</Time>
            <Position>
              <LatitudeDegrees>41.9831691496074199676513671875</LatitudeDegrees>
              <LongitudeDegrees>2.91018135845661163330078125</LongitudeDegrees>
            </Position>
            <AltitudeMeters>482.79998779296875</AltitudeMeters>
            <DistanceMeters>NAN</DistanceMeters>
          </Trackpoint>
          <Trackpoint>
            <Time>2020-02-15T11:00:36.000Z</Time>
            <Position>
              <LatitudeDegrees>41.98318784125149250030517578125</LatitudeDegrees>
              <LongitudeDegrees>2.91017909534275531768798828125</LongitudeDegrees>
            </Position>
            <AltitudeMeters>482.79998779296875</AltitudeMeters>
            <DistanceMeters>NAN</DistanceMeters>
          </Trackpoint>
          <Trackpoint>
            <Time>2020-02-15T11:00:37.000Z</Time>
            <Position>
              <LatitudeDegrees>41.9832063652575016021728515625</LatitudeDegrees>
              <LongitudeDegrees>2.91017356328666210174560546875</LongitudeDegrees>
            </Position>
            <AltitudeMeters>483</AltitudeMeters>
            <DistanceMeters>NAN</DistanceMeters>
          </Trackpoint>
          <Trackpoint>
            <Time>2020-02-15T11:00:38.000Z</Time>
            <Position>
              <LatitudeDegrees>41.98322304524481296539306640625</LatitudeDegrees>
              <LongitudeDegrees>2.91016819886863231658935546875</LongitudeDegrees>
            </Position>
            <AltitudeMeters>483.399993896484375</AltitudeMeters>
            <DistanceMeters>NAN</DistanceMeters>
          </Trackpoint>
          <Trackpoint>
            <Time>2020-02-15T11:00:39.000Z</Time>
            <Position>
              <LatitudeDegrees>41.98323813267052173614501953125</LatitudeDegrees>
              <LongitudeDegrees>2.91016551665961742401123046875</LongitudeDegrees>
            </Position>
            <AltitudeMeters>483.600006103515625</AltitudeMeters>
            <DistanceMeters>NAN</DistanceMeters>
          </Trackpoint>
          <Trackpoint>
            <Time>2020-02-15T11:00:40.000Z</Time>
            <Position>
              <LatitudeDegrees>41.9832506217062473297119140625</LatitudeDegrees>
              <LongitudeDegrees>2.91016333736479282379150390625</LongitudeDegrees>
            </Position>
            <AltitudeMeters>483.79998779296875</AltitudeMeters>
            <DistanceMeters>NAN</DistanceMeters>
          </Trackpoint>
          <Trackpoint>
            <Time>2020-02-15T11:00:41.000Z</Time>
            <Position>
              <LatitudeDegrees>41.9832576625049114227294921875</LatitudeDegrees>
              <LongitudeDegrees>2.9101617448031902313232421875</LongitudeDegrees>
            </Position>
            <AltitudeMeters>484</AltitudeMeters>
            <DistanceMeters>NAN</DistanceMeters>
          </Trackpoint>
          <Trackpoint>
            <Time>2020-02-15T11:00:42.000Z</Time>
            <Position>
              <LatitudeDegrees>41.983270905911922454833984375</LatitudeDegrees>
              <LongitudeDegrees>2.910157553851604461669921875</LongitudeDegrees>
            </Position>
            <AltitudeMeters>484.20001220703125</AltitudeMeters>
            <DistanceMeters>NAN</DistanceMeters>
          </Trackpoint>
          <Trackpoint>
            <Time>2020-02-15T11:00:43.000Z</Time>
            <Position>
              <LatitudeDegrees>41.98328624479472637176513671875</LatitudeDegrees>
              <LongitudeDegrees>2.91015529073774814605712890625</LongitudeDegrees>
            </Position>
            <AltitudeMeters>484.399993896484375</AltitudeMeters>
            <DistanceMeters>NAN</DistanceMeters>
          </Trackpoint>
          <Trackpoint>
            <Time>2020-02-15T11:00:44.000Z</Time>
            <Position>
              <LatitudeDegrees>41.9832980632781982421875</LatitudeDegrees>
              <LongitudeDegrees>2.910156212747097015380859375</LongitudeDegrees>
            </Position>
            <AltitudeMeters>484.399993896484375</AltitudeMeters>
            <DistanceMeters>NAN</DistanceMeters>
          </Trackpoint>
          <Trackpoint>
            <Time>2020-02-15T11:00:45.000Z</Time>
            <Position>
              <LatitudeDegrees>41.9833109714090824127197265625</LatitudeDegrees>
              <LongitudeDegrees>2.91015512309968471527099609375</LongitudeDegrees>
            </Position>
            <AltitudeMeters>484.600006103515625</AltitudeMeters>
            <DistanceMeters>NAN</DistanceMeters>
          </Trackpoint>
          <Trackpoint>
            <Time>2020-02-15T11:00:46.000Z</Time>
            <Position>
              <LatitudeDegrees>41.983333937823772430419921875</LatitudeDegrees>
              <LongitudeDegrees>2.91015361435711383819580078125</LongitudeDegrees>
            </Position>
            <AltitudeMeters>484.600006103515625</AltitudeMeters>
            <DistanceMeters>NAN</DistanceMeters>
          </Trackpoint>
          <Trackpoint>
            <Time>2020-02-15T11:00:47.000Z</Time>
            <Position>
              <LatitudeDegrees>41.9833530485630035400390625</LatitudeDegrees>
              <LongitudeDegrees>2.9101525247097015380859375</LongitudeDegrees>
            </Position>
            <AltitudeMeters>485</AltitudeMeters>
            <DistanceMeters>NAN</DistanceMeters>
          </Trackpoint>
          <Trackpoint>
            <Time>2020-02-15T11:00:48.000Z</Time>
            <Position>
              <LatitudeDegrees>41.98337174020707607269287109375</LatitudeDegrees>
              <LongitudeDegrees>2.91014405898749828338623046875</LongitudeDegrees>
            </Position>
            <AltitudeMeters>485</AltitudeMeters>
            <DistanceMeters>NAN</DistanceMeters>
          </Trackpoint>
          <Trackpoint>
            <Time>2020-02-15T11:00:49.000Z</Time>
            <Position>
              <LatitudeDegrees>41.98338598944246768951416015625</LatitudeDegrees>
              <LongitudeDegrees>2.91013383306562900543212890625</LongitudeDegrees>
            </Position>
            <AltitudeMeters>485.20001220703125</AltitudeMeters>
            <DistanceMeters>NAN</DistanceMeters>
          </Trackpoint>
          <Trackpoint>
            <Time>2020-02-15T11:00:50.000Z</Time>
            <Position>
              <LatitudeDegrees>41.9834013283252716064453125</LatitudeDegrees>
              <LongitudeDegrees>2.91012503206729888916015625</LongitudeDegrees>
            </Position>
            <AltitudeMeters>485.20001220703125</AltitudeMeters>
            <DistanceMeters>NAN</DistanceMeters>
          </Trackpoint>
          <Trackpoint>
            <Time>2020-02-15T11:00:51.000Z</Time>
            <Position>
              <LatitudeDegrees>41.98341934941709041595458984375</LatitudeDegrees>
              <LongitudeDegrees>2.910115979611873626708984375</LongitudeDegrees>
            </Position>
            <AltitudeMeters>485.20001220703125</AltitudeMeters>
            <DistanceMeters>NAN</DistanceMeters>
          </Trackpoint>
          <Trackpoint>
            <Time>2020-02-15T11:00:52.000Z</Time>
            <Position>
              <LatitudeDegrees>41.9834343530237674713134765625</LatitudeDegrees>
              <LongitudeDegrees>2.91010868735611438751220703125</LongitudeDegrees>
            </Position>
            <AltitudeMeters>485.399993896484375</AltitudeMeters>
            <DistanceMeters>NAN</DistanceMeters>
          </Trackpoint>
          <Trackpoint>
            <Time>2020-02-15T11:00:53.000Z</Time>
            <Position>
              <LatitudeDegrees>41.98345136828720569610595703125</LatitudeDegrees>
              <LongitudeDegrees>2.91009929962456226348876953125</LongitudeDegrees>
            </Position>
            <AltitudeMeters>485.20001220703125</AltitudeMeters>
            <DistanceMeters>NAN</DistanceMeters>
          </Trackpoint>
          <Trackpoint>
            <Time>2020-02-15T11:00:54.000Z</Time>
            <Position>
              <LatitudeDegrees>41.98346880264580249786376953125</LatitudeDegrees>
              <LongitudeDegrees>2.910088486969470977783203125</LongitudeDegrees>
            </Position>
            <AltitudeMeters>485.399993896484375</AltitudeMeters>
            <DistanceMeters>NAN</DistanceMeters>
          </Trackpoint>
          <Trackpoint>
            <Time>2020-02-15T11:00:55.000Z</Time>
            <Position>
              <LatitudeDegrees>41.9834869913756847381591796875</LatitudeDegrees>
              <LongitudeDegrees>2.9100787639617919921875</LongitudeDegrees>
            </Position>
            <AltitudeMeters>485.600006103515625</AltitudeMeters>
            <DistanceMeters>NAN</DistanceMeters>
          </Trackpoint>
          <Trackpoint>
            <Time>2020-02-15T11:00:56.000Z</Time>
            <Position>
              <LatitudeDegrees>41.98350920341908931732177734375</LatitudeDegrees>
              <LongitudeDegrees>2.91007046587765216827392578125</LongitudeDegrees>
            </Position>
            <AltitudeMeters>485.79998779296875</AltitudeMeters>
            <DistanceMeters>NAN</DistanceMeters>
          </Trackpoint>
          <Trackpoint>
            <Time>2020-02-15T11:00:57.000Z</Time>
            <Position>
              <LatitudeDegrees>41.98353351093828678131103515625</LatitudeDegrees>
              <LongitudeDegrees>2.91006191633641719818115234375</LongitudeDegrees>
            </Position>
            <AltitudeMeters>486</AltitudeMeters>
            <DistanceMeters>NAN</DistanceMeters>
          </Trackpoint>
          <Trackpoint>
            <Time>2020-02-15T11:00:59.000Z</Time>
            <Position>
              <LatitudeDegrees>41.98358229361474514007568359375</LatitudeDegrees>
              <LongitudeDegrees>2.9100447334349155426025390625</LongitudeDegrees>
            </Position>
            <AltitudeMeters>486.399993896484375</AltitudeMeters>
            <DistanceMeters>NAN</DistanceMeters>
          </Trackpoint>
          <Trackpoint>
            <Time>2020-02-15T11:01:01.000Z</Time>
            <Position>
              <LatitudeDegrees>41.983635686337947845458984375</LatitudeDegrees>
              <LongitudeDegrees>2.9100135527551174163818359375</LongitudeDegrees>
            </Position>
            <AltitudeMeters>486.600006103515625</AltitudeMeters>
            <DistanceMeters>NAN</DistanceMeters>
          </Trackpoint>
          <Trackpoint>
            <Time>2020-02-15T11:01:03.000Z</Time>
            <Position>
              <LatitudeDegrees>41.9836884923279285430908203125</LatitudeDegrees>
              <LongitudeDegrees>2.90997273288667201995849609375</LongitudeDegrees>
            </Position>
            <AltitudeMeters>486.79998779296875</AltitudeMeters>
            <DistanceMeters>NAN</DistanceMeters>
          </Trackpoint>
          <Trackpoint>
            <Time>2020-02-15T11:01:09.000Z</Time>
            <Position>
              <LatitudeDegrees>41.98385872878134250640869140625</LatitudeDegrees>
              <LongitudeDegrees>2.90986326523125171661376953125</LongitudeDegrees>
            </Position>
            <AltitudeMeters>487</AltitudeMeters>
            <DistanceMeters>NAN</DistanceMeters>
          </Trackpoint>
          <Trackpoint>
            <Time>2020-02-15T11:01:10.000Z</Time>
            <Position>
              <LatitudeDegrees>41.98388705961406230926513671875</LatitudeDegrees>
              <LongitudeDegrees>2.909847088158130645751953125</LongitudeDegrees>
            </Position>
            <AltitudeMeters>487</AltitudeMeters>
            <DistanceMeters>NAN</DistanceMeters>
          </Trackpoint>
          <Trackpoint>
            <Time>2020-02-15T11:01:11.000Z</Time>
            <Position>
              <LatitudeDegrees>41.98391455225646495819091796875</LatitudeDegrees>
              <LongitudeDegrees>2.90982940234243869781494140625</LongitudeDegrees>
            </Position>
            <AltitudeMeters>487</AltitudeMeters>
            <DistanceMeters>NAN</DistanceMeters>
          </Trackpoint>
          <Trackpoint>
            <Time>2020-02-15T11:01:12.000Z</Time>
            <Position>
              <LatitudeDegrees>41.9839416258037090301513671875</LatitudeDegrees>
              <LongitudeDegrees>2.90980827994644641876220703125</LongitudeDegrees>
            </Position>
            <AltitudeMeters>487</AltitudeMeters>
            <DistanceMeters>NAN</DistanceMeters>
          </Trackpoint>
          <Trackpoint>
            <Time>2020-02-15T11:01:13.000Z</Time>
            <Position>
              <LatitudeDegrees>41.9839667715132236480712890625</LatitudeDegrees>
              <LongitudeDegrees>2.90978078730404376983642578125</LongitudeDegrees>
            </Position>
            <AltitudeMeters>487</AltitudeMeters>
            <DistanceMeters>NAN</DistanceMeters>
          </Trackpoint>
          <Trackpoint>
            <Time>2020-02-15T11:01:14.000Z</Time>
            <Position>
              <LatitudeDegrees>41.98398806154727935791015625</LatitudeDegrees>
              <LongitudeDegrees>2.90975010953843593597412109375</LongitudeDegrees>
            </Position>
            <AltitudeMeters>487.20001220703125</AltitudeMeters>
            <DistanceMeters>NAN</DistanceMeters>
          </Trackpoint>
          <Trackpoint>
            <Time>2020-02-15T11:01:15.000Z</Time>
            <Position>
              <LatitudeDegrees>41.98401194997131824493408203125</LatitudeDegrees>
              <LongitudeDegrees>2.9097233712673187255859375</LongitudeDegrees>
            </Position>
            <AltitudeMeters>487.20001220703125</AltitudeMeters>
            <DistanceMeters>NAN</DistanceMeters>
          </Trackpoint>
          <Trackpoint>
            <Time>2020-02-15T11:01:16.000Z</Time>
            <Position>
              <LatitudeDegrees>41.98403340764343738555908203125</LatitudeDegrees>
              <LongitudeDegrees>2.90969680063426494598388671875</LongitudeDegrees>
            </Position>
            <AltitudeMeters>487</AltitudeMeters>
            <DistanceMeters>NAN</DistanceMeters>
          </Trackpoint>
          <Trackpoint>
            <Time>2020-02-15T11:01:17.000Z</Time>
            <Position>
              <LatitudeDegrees>41.9840532727539539337158203125</LatitudeDegrees>
              <LongitudeDegrees>2.9096688888967037200927734375</LongitudeDegrees>
            </Position>
            <AltitudeMeters>487.20001220703125</AltitudeMeters>
            <DistanceMeters>NAN</DistanceMeters>
          </Trackpoint>
          <Trackpoint>
            <Time>2020-02-15T11:01:18.000Z</Time>
            <Position>
              <LatitudeDegrees>41.98407347314059734344482421875</LatitudeDegrees>
              <LongitudeDegrees>2.9096402227878570556640625</LongitudeDegrees>
            </Position>
            <AltitudeMeters>487.399993896484375</AltitudeMeters>
            <DistanceMeters>NAN</DistanceMeters>
          </Trackpoint>
          <Trackpoint>
            <Time>2020-02-15T11:01:20.000Z</Time>
            <Position>
              <LatitudeDegrees>41.98411278426647186279296875</LatitudeDegrees>
              <LongitudeDegrees>2.9095852375030517578125</LongitudeDegrees>
            </Position>
            <AltitudeMeters>487.399993896484375</AltitudeMeters>
            <DistanceMeters>NAN</DistanceMeters>
          </Trackpoint>
          <Trackpoint>
            <Time>2020-02-15T11:01:21.000Z</Time>
            <Position>
              <LatitudeDegrees>41.98412954807281494140625</LatitudeDegrees>
              <LongitudeDegrees>2.90955883450806140899658203125</LongitudeDegrees>
            </Position>
            <AltitudeMeters>487.399993896484375</AltitudeMeters>
            <DistanceMeters>NAN</DistanceMeters>
          </Trackpoint>
          <Trackpoint>
            <Time>2020-02-15T11:01:22.000Z</Time>
            <Position>
              <LatitudeDegrees>41.98414555750787258148193359375</LatitudeDegrees>
              <LongitudeDegrees>2.90953201241791248321533203125</LongitudeDegrees>
            </Position>
            <AltitudeMeters>487.399993896484375</AltitudeMeters>
            <DistanceMeters>NAN</DistanceMeters>
          </Trackpoint>
          <Trackpoint>
            <Time>2020-02-15T11:01:23.000Z</Time>
            <Position>
              <LatitudeDegrees>41.98416299186646938323974609375</LatitudeDegrees>
              <LongitudeDegrees>2.9095072858035564422607421875</LongitudeDegrees>
            </Position>
            <AltitudeMeters>487.399993896484375</AltitudeMeters>
            <DistanceMeters>NAN</DistanceMeters>
          </Trackpoint>
          <Trackpoint>
            <Time>2020-02-15T11:01:24.000Z</Time>
            <Position>
              <LatitudeDegrees>41.98418159969151020050048828125</LatitudeDegrees>
              <LongitudeDegrees>2.90948540903627872467041015625</LongitudeDegrees>
            </Position>
            <AltitudeMeters>487.600006103515625</AltitudeMeters>
            <DistanceMeters>NAN</DistanceMeters>
          </Trackpoint>
          <Trackpoint>
            <Time>2020-02-15T11:01:25.000Z</Time>
            <Position>
              <LatitudeDegrees>41.9841984473168849945068359375</LatitudeDegrees>
              <LongitudeDegrees>2.909464873373508453369140625</LongitudeDegrees>
            </Position>
            <AltitudeMeters>487.600006103515625</AltitudeMeters>
            <DistanceMeters>NAN</DistanceMeters>
          </Trackpoint>
          <Trackpoint>
            <Time>2020-02-15T11:01:26.000Z</Time>
            <Position>
              <LatitudeDegrees>41.98421177454292774200439453125</LatitudeDegrees>
              <LongitudeDegrees>2.90944182313978672027587890625</LongitudeDegrees>
            </Position>
            <AltitudeMeters>487.600006103515625</AltitudeMeters>
            <DistanceMeters>NAN</DistanceMeters>
          </Trackpoint>
          <Trackpoint>
            <Time>2020-02-15T11:01:27.000Z</Time>
            <Position>
              <LatitudeDegrees>41.98422007262706756591796875</LatitudeDegrees>
              <LongitudeDegrees>2.9094204492866992950439453125</LongitudeDegrees>
            </Position>
            <AltitudeMeters>487.600006103515625</AltitudeMeters>
            <DistanceMeters>NAN</DistanceMeters>
          </Trackpoint>
          <Trackpoint>
            <Time>2020-02-15T11:01:28.000Z</Time>
            <Position>
              <LatitudeDegrees>41.98422350920736789703369140625</LatitudeDegrees>
              <LongitudeDegrees>2.9094016738235950469970703125</LongitudeDegrees>
            </Position>
            <AltitudeMeters>487.79998779296875</AltitudeMeters>
            <DistanceMeters>NAN</DistanceMeters>
          </Trackpoint>
          <Trackpoint>
            <Time>2020-02-15T11:01:29.000Z</Time>
            <Position>
              <LatitudeDegrees>41.984229125082492828369140625</LatitudeDegrees>
              <LongitudeDegrees>2.9093854129314422607421875</LongitudeDegrees>
            </Position>
            <AltitudeMeters>488</AltitudeMeters>
            <DistanceMeters>NAN</DistanceMeters>
          </Trackpoint>
          <Trackpoint>
            <Time>2020-02-15T11:01:30.000Z</Time>
            <Position>
              <LatitudeDegrees>41.98423842899501323699951171875</LatitudeDegrees>
              <LongitudeDegrees>2.9093738459050655364990234375</LongitudeDegrees>
            </Position>
            <AltitudeMeters>488.20001220703125</AltitudeMeters>
            <DistanceMeters>NAN</DistanceMeters>
          </Trackpoint>
          <Trackpoint>
            <Time>2020-02-15T11:01:31.000Z</Time>
            <Position>
              <LatitudeDegrees>41.98424312286078929901123046875</LatitudeDegrees>
              <LongitudeDegrees>2.9093647934496402740478515625</LongitudeDegrees>
            </Position>
            <AltitudeMeters>488.399993896484375</AltitudeMeters>
            <DistanceMeters>NAN</DistanceMeters>
          </Trackpoint>
          <Trackpoint>
            <Time>2020-02-15T11:01:32.000Z</Time>
            <Position>
              <LatitudeDegrees>41.98425133712589740753173828125</LatitudeDegrees>
              <LongitudeDegrees>2.90936621837317943572998046875</LongitudeDegrees>
            </Position>
            <AltitudeMeters>488.600006103515625</AltitudeMeters>
            <DistanceMeters>NAN</DistanceMeters>
          </Trackpoint>
          <Trackpoint>
            <Time>2020-02-15T11:01:33.000Z</Time>
            <Position>
              <LatitudeDegrees>41.98425821028649806976318359375</LatitudeDegrees>
              <LongitudeDegrees>2.9093661345541477203369140625</LongitudeDegrees>
            </Position>
            <AltitudeMeters>488.600006103515625</AltitudeMeters>
            <DistanceMeters>NAN</DistanceMeters>
          </Trackpoint>
          <Trackpoint>
            <Time>2020-02-15T11:01:34.000Z</Time>
            <Position>
              <LatitudeDegrees>41.98426860384643077850341796875</LatitudeDegrees>
              <LongitudeDegrees>2.90937141515314579010009765625</LongitudeDegrees>
            </Position>
            <AltitudeMeters>488.600006103515625</AltitudeMeters>
            <DistanceMeters>NAN</DistanceMeters>
          </Trackpoint>
          <Trackpoint>
            <Time>2020-02-15T11:01:35.000Z</Time>
            <Position>
              <LatitudeDegrees>41.98427933268249034881591796875</LatitudeDegrees>
              <LongitudeDegrees>2.9093694873154163360595703125</LongitudeDegrees>
            </Position>
            <AltitudeMeters>488.79998779296875</AltitudeMeters>
            <DistanceMeters>NAN</DistanceMeters>
          </Trackpoint>
          <Trackpoint>
            <Time>2020-02-15T11:01:36.000Z</Time>
            <Position>
              <LatitudeDegrees>41.98428578674793243408203125</LatitudeDegrees>
              <LongitudeDegrees>2.9093621112406253814697265625</LongitudeDegrees>
            </Position>
            <AltitudeMeters>489</AltitudeMeters>
            <DistanceMeters>NAN</DistanceMeters>
          </Trackpoint>
          <Trackpoint>
            <Time>2020-02-15T11:01:37.000Z</Time>
            <Position>
              <LatitudeDegrees>41.98429073207080364227294921875</LatitudeDegrees>
              <LongitudeDegrees>2.909354232251644134521484375</LongitudeDegrees>
            </Position>
            <AltitudeMeters>489.20001220703125</AltitudeMeters>
            <DistanceMeters>NAN</DistanceMeters>
          </Trackpoint>
          <Trackpoint>
            <Time>2020-02-15T11:01:38.000Z</Time>
            <Position>
              <LatitudeDegrees>41.984296180307865142822265625</LatitudeDegrees>
              <LongitudeDegrees>2.90934375487267971038818359375</LongitudeDegrees>
            </Position>
            <AltitudeMeters>489.600006103515625</AltitudeMeters>
            <DistanceMeters>NAN</DistanceMeters>
          </Trackpoint>
          <Trackpoint>
            <Time>2020-02-15T11:01:39.000Z</Time>
            <Position>
              <LatitudeDegrees>41.9842986948788166046142578125</LatitudeDegrees>
              <LongitudeDegrees>2.90933453477919101715087890625</LongitudeDegrees>
            </Position>
            <AltitudeMeters>489.600006103515625</AltitudeMeters>
            <DistanceMeters>NAN</DistanceMeters>
          </Trackpoint>
          <Trackpoint>
            <Time>2020-02-15T11:01:40.000Z</Time>
            <Position>
              <LatitudeDegrees>41.9843030534684658050537109375</LatitudeDegrees>
              <LongitudeDegrees>2.909325398504734039306640625</LongitudeDegrees>
            </Position>
            <AltitudeMeters>489.600006103515625</AltitudeMeters>
            <DistanceMeters>NAN</DistanceMeters>
          </Trackpoint>
          <Trackpoint>
            <Time>2020-02-15T11:01:41.000Z</Time>
            <Position>
              <LatitudeDegrees>41.9843030534684658050537109375</LatitudeDegrees>
              <LongitudeDegrees>2.90931492112576961517333984375</LongitudeDegrees>
            </Position>
            <AltitudeMeters>490</AltitudeMeters>
            <DistanceMeters>NAN</DistanceMeters>
          </Trackpoint>
          <Trackpoint>
            <Time>2020-02-15T11:01:42.000Z</Time>
            <Position>
              <LatitudeDegrees>41.984304226934909820556640625</LatitudeDegrees>
              <LongitudeDegrees>2.9092990793287754058837890625</LongitudeDegrees>
            </Position>
            <AltitudeMeters>490.20001220703125</AltitudeMeters>
            <DistanceMeters>NAN</DistanceMeters>
          </Trackpoint>
          <Trackpoint>
            <Time>2020-02-15T11:01:43.000Z</Time>
            <Position>
              <LatitudeDegrees>41.98431001044809818267822265625</LatitudeDegrees>
              <LongitudeDegrees>2.90928323753178119659423828125</LongitudeDegrees>
            </Position>
            <AltitudeMeters>490</AltitudeMeters>
            <DistanceMeters>NAN</DistanceMeters>
          </Trackpoint>
          <Trackpoint>
            <Time>2020-02-15T11:01:44.000Z</Time>
            <Position>
              <LatitudeDegrees>41.98431101627647876739501953125</LatitudeDegrees>
              <LongitudeDegrees>2.90926479734480381011962890625</LongitudeDegrees>
            </Position>
            <AltitudeMeters>490.399993896484375</AltitudeMeters>
            <DistanceMeters>NAN</DistanceMeters>
          </Trackpoint>
          <Trackpoint>
            <Time>2020-02-15T11:01:45.000Z</Time>
            <Position>
              <LatitudeDegrees>41.98431017808616161346435546875</LatitudeDegrees>
              <LongitudeDegrees>2.9092486202716827392578125</LongitudeDegrees>
            </Position>
            <AltitudeMeters>490.600006103515625</AltitudeMeters>
            <DistanceMeters>NAN</DistanceMeters>
          </Trackpoint>
          <Trackpoint>
            <Time>2020-02-15T11:01:46.000Z</Time>
            <Position>
              <LatitudeDegrees>41.984309256076812744140625</LatitudeDegrees>
              <LongitudeDegrees>2.90923856198787689208984375</LongitudeDegrees>
            </Position>
            <AltitudeMeters>490.600006103515625</AltitudeMeters>
            <DistanceMeters>NAN</DistanceMeters>
          </Trackpoint>
          <Trackpoint>
            <Time>2020-02-15T11:01:47.000Z</Time>
            <Position>
              <LatitudeDegrees>41.984306909143924713134765625</LatitudeDegrees>
              <LongitudeDegrees>2.90923227556049823760986328125</LongitudeDegrees>
            </Position>
            <AltitudeMeters>490.79998779296875</AltitudeMeters>
            <DistanceMeters>NAN</DistanceMeters>
          </Trackpoint>
          <Trackpoint>
            <Time>2020-02-15T11:01:48.000Z</Time>
            <Position>
              <LatitudeDegrees>41.9843124412000179290771484375</LatitudeDegrees>
              <LongitudeDegrees>2.9092313535511493682861328125</LongitudeDegrees>
            </Position>
            <AltitudeMeters>491</AltitudeMeters>
            <DistanceMeters>NAN</DistanceMeters>
          </Trackpoint>
          <Trackpoint>
            <Time>2020-02-15T11:01:49.000Z</Time>
            <Position>
              <LatitudeDegrees>41.98431386612355709075927734375</LatitudeDegrees>
              <LongitudeDegrees>2.9092316888272762298583984375</LongitudeDegrees>
            </Position>
            <AltitudeMeters>491.20001220703125</AltitudeMeters>
            <DistanceMeters>NAN</DistanceMeters>
          </Trackpoint>
          <Trackpoint>
            <Time>2020-02-15T11:02:00.000Z</Time>
            <Position>
              <LatitudeDegrees>41.984333731234073638916015625</LatitudeDegrees>
              <LongitudeDegrees>2.90922154672443866729736328125</LongitudeDegrees>
            </Position>
            <AltitudeMeters>491.79998779296875</AltitudeMeters>
            <DistanceMeters>NAN</DistanceMeters>
          </Trackpoint>
          <Trackpoint>
            <Time>2020-02-15T11:02:10.000Z</Time>
            <Position>
              <LatitudeDegrees>41.9843503274023532867431640625</LatitudeDegrees>
              <LongitudeDegrees>2.90922372601926326751708984375</LongitudeDegrees>
            </Position>
            <AltitudeMeters>491.79998779296875</AltitudeMeters>
            <DistanceMeters>NAN</DistanceMeters>
          </Trackpoint>
          <Trackpoint>
            <Time>2020-02-15T11:02:11.000Z</Time>
            <Position>
              <LatitudeDegrees>41.98435225524008274078369140625</LatitudeDegrees>
              <LongitudeDegrees>2.90922422893345355987548828125</LongitudeDegrees>
            </Position>
            <AltitudeMeters>491.79998779296875</AltitudeMeters>
            <DistanceMeters>NAN</DistanceMeters>
          </Trackpoint>
          <Trackpoint>
            <Time>2020-02-15T11:02:20.000Z</Time>
            <Position>
              <LatitudeDegrees>41.98435979895293712615966796875</LatitudeDegrees>
              <LongitudeDegrees>2.90921978652477264404296875</LongitudeDegrees>
            </Position>
            <AltitudeMeters>491.399993896484375</AltitudeMeters>
            <DistanceMeters>NAN</DistanceMeters>
          </Trackpoint>
          <Trackpoint>
            <Time>2020-02-15T11:02:23.000Z</Time>
            <Position>
              <LatitudeDegrees>41.98436264880001544952392578125</LatitudeDegrees>
              <LongitudeDegrees>2.90921500883996486663818359375</LongitudeDegrees>
            </Position>
            <AltitudeMeters>491.399993896484375</AltitudeMeters>
            <DistanceMeters>NAN</DistanceMeters>
          </Trackpoint>
          <Trackpoint>
            <Time>2020-02-15T11:02:30.000Z</Time>
            <Position>
              <LatitudeDegrees>41.98436298407614231109619140625</LatitudeDegrees>
              <LongitudeDegrees>2.90921467356383800506591796875</LongitudeDegrees>
            </Position>
            <AltitudeMeters>491.399993896484375</AltitudeMeters>
            <DistanceMeters>NAN</DistanceMeters>
          </Trackpoint>
          <Trackpoint>
            <Time>2020-02-15T11:02:43.000Z</Time>
            <Position>
              <LatitudeDegrees>41.98446373455226421356201171875</LatitudeDegrees>
              <LongitudeDegrees>2.9092092253267765045166015625</LongitudeDegrees>
            </Position>
            <AltitudeMeters>491.600006103515625</AltitudeMeters>
            <DistanceMeters>NAN</DistanceMeters>
          </Trackpoint>
          <Trackpoint>
            <Time>2020-02-15T11:02:46.000Z</Time>
            <Position>
              <LatitudeDegrees>41.9844851084053516387939453125</LatitudeDegrees>
              <LongitudeDegrees>2.90920545347034931182861328125</LongitudeDegrees>
            </Position>
            <AltitudeMeters>491.600006103515625</AltitudeMeters>
            <DistanceMeters>NAN</DistanceMeters>
          </Trackpoint>
          <Trackpoint>
            <Time>2020-02-15T11:02:59.000Z</Time>
            <Position>
              <LatitudeDegrees>41.9845090806484222412109375</LatitudeDegrees>
              <LongitudeDegrees>2.90919505991041660308837890625</LongitudeDegrees>
            </Position>
            <AltitudeMeters>491.79998779296875</AltitudeMeters>
            <DistanceMeters>NAN</DistanceMeters>
          </Trackpoint>
          <Trackpoint>
            <Time>2020-02-15T11:03:03.000Z</Time>
            <Position>
              <LatitudeDegrees>41.98451377451419830322265625</LatitudeDegrees>
              <LongitudeDegrees>2.90919757448136806488037109375</LongitudeDegrees>
            </Position>
            <AltitudeMeters>491.79998779296875</AltitudeMeters>
            <DistanceMeters>NAN</DistanceMeters>
          </Trackpoint>
          <Trackpoint>
            <Time>2020-02-15T11:03:11.000Z</Time>
            <Position>
              <LatitudeDegrees>41.98452643118798732757568359375</LatitudeDegrees>
              <LongitudeDegrees>2.90920159779489040374755859375</LongitudeDegrees>
            </Position>
            <AltitudeMeters>491.79998779296875</AltitudeMeters>
            <DistanceMeters>NAN</DistanceMeters>
          </Trackpoint>
          <Trackpoint>
            <Time>2020-02-15T11:03:15.000Z</Time>
            <Position>
              <LatitudeDegrees>41.984522826969623565673828125</LatitudeDegrees>
              <LongitudeDegrees>2.909209392964839935302734375</LongitudeDegrees>
            </Position>
            <AltitudeMeters>491.79998779296875</AltitudeMeters>
            <DistanceMeters>NAN</DistanceMeters>
          </Trackpoint>
          <Trackpoint>
            <Time>2020-02-15T11:03:18.000Z</Time>
            <Position>
              <LatitudeDegrees>41.984510086476802825927734375</LatitudeDegrees>
              <LongitudeDegrees>2.90921450592577457427978515625</LongitudeDegrees>
            </Position>
            <AltitudeMeters>491.79998779296875</AltitudeMeters>
            <DistanceMeters>NAN</DistanceMeters>
          </Trackpoint>
          <Trackpoint>
            <Time>2020-02-15T11:03:27.000Z</Time>
            <Position>
              <LatitudeDegrees>41.9844784028828144073486328125</LatitudeDegrees>
              <LongitudeDegrees>2.90922489948570728302001953125</LongitudeDegrees>
            </Position>
            <AltitudeMeters>491.79998779296875</AltitudeMeters>
            <DistanceMeters>NAN</DistanceMeters>
          </Trackpoint>
          <Trackpoint>
            <Time>2020-02-15T11:03:33.000Z</Time>
            <Position>
              <LatitudeDegrees>41.98447898961603641510009765625</LatitudeDegrees>
              <LongitudeDegrees>2.9092326946556568145751953125</LongitudeDegrees>
            </Position>
            <AltitudeMeters>492</AltitudeMeters>
            <DistanceMeters>NAN</DistanceMeters>
          </Trackpoint>
          <Trackpoint>
            <Time>2020-02-15T11:03:47.000Z</Time>
            <Position>
              <LatitudeDegrees>41.98444110341370105743408203125</LatitudeDegrees>
              <LongitudeDegrees>2.9092263244092464447021484375</LongitudeDegrees>
            </Position>
            <AltitudeMeters>491.79998779296875</AltitudeMeters>
            <DistanceMeters>NAN</DistanceMeters>
          </Trackpoint>
          <Trackpoint>
            <Time>2020-02-15T11:03:50.000Z</Time>
            <Position>
              <LatitudeDegrees>41.9844388402998447418212890625</LatitudeDegrees>
              <LongitudeDegrees>2.90926136076450347900390625</LongitudeDegrees>
            </Position>
            <AltitudeMeters>491.600006103515625</AltitudeMeters>
            <DistanceMeters>NAN</DistanceMeters>
          </Trackpoint>
          <Trackpoint>
            <Time>2020-02-15T11:03:51.000Z</Time>
            <Position>
              <LatitudeDegrees>41.984437666833400726318359375</LatitudeDegrees>
              <LongitudeDegrees>2.9092829860746860504150390625</LongitudeDegrees>
            </Position>
            <AltitudeMeters>491.79998779296875</AltitudeMeters>
            <DistanceMeters>NAN</DistanceMeters>
          </Trackpoint>
          <Trackpoint>
            <Time>2020-02-15T11:03:52.000Z</Time>
            <Position>
              <LatitudeDegrees>41.98442568071186542510986328125</LatitudeDegrees>
              <LongitudeDegrees>2.9093156754970550537109375</LongitudeDegrees>
            </Position>
            <AltitudeMeters>491.79998779296875</AltitudeMeters>
            <DistanceMeters>NAN</DistanceMeters>
          </Trackpoint>
          <Trackpoint>
            <Time>2020-02-15T11:03:53.000Z</Time>
            <Position>
              <LatitudeDegrees>41.98440522886812686920166015625</LatitudeDegrees>
              <LongitudeDegrees>2.9093403182923793792724609375</LongitudeDegrees>
            </Position>
            <AltitudeMeters>491.79998779296875</AltitudeMeters>
            <DistanceMeters>NAN</DistanceMeters>
          </Trackpoint>
          <Trackpoint>
            <Time>2020-02-15T11:03:54.000Z</Time>
            <Position>
              <LatitudeDegrees>41.9843778200447559356689453125</LatitudeDegrees>
              <LongitudeDegrees>2.90936722420156002044677734375</LongitudeDegrees>
            </Position>
            <AltitudeMeters>491.79998779296875</AltitudeMeters>
            <DistanceMeters>NAN</DistanceMeters>
          </Trackpoint>
          <Trackpoint>
            <Time>2020-02-15T11:03:55.000Z</Time>
            <Position>
              <LatitudeDegrees>41.98435896076261997222900390625</LatitudeDegrees>
              <LongitudeDegrees>2.9093949683010578155517578125</LongitudeDegrees>
            </Position>
            <AltitudeMeters>491.79998779296875</AltitudeMeters>
            <DistanceMeters>NAN</DistanceMeters>
          </Trackpoint>
          <Trackpoint>
            <Time>2020-02-15T11:03:56.000Z</Time>
            <Position>
              <LatitudeDegrees>41.98433800600469112396240234375</LatitudeDegrees>
              <LongitudeDegrees>2.90942229330539703369140625</LongitudeDegrees>
            </Position>
            <AltitudeMeters>491.600006103515625</AltitudeMeters>
            <DistanceMeters>NAN</DistanceMeters>
          </Trackpoint>
          <Trackpoint>
            <Time>2020-02-15T11:03:57.000Z</Time>
            <Position>
              <LatitudeDegrees>41.9843198172748088836669921875</LatitudeDegrees>
              <LongitudeDegrees>2.9094499535858631134033203125</LongitudeDegrees>
            </Position>
            <AltitudeMeters>491.79998779296875</AltitudeMeters>
            <DistanceMeters>NAN</DistanceMeters>
          </Trackpoint>
          <Trackpoint>
            <Time>2020-02-15T11:03:58.000Z</Time>
            <Position>
              <LatitudeDegrees>41.9842919893562793731689453125</LatitudeDegrees>
              <LongitudeDegrees>2.9094737581908702850341796875</LongitudeDegrees>
            </Position>
            <AltitudeMeters>491.79998779296875</AltitudeMeters>
            <DistanceMeters>NAN</DistanceMeters>
          </Trackpoint>
          <Trackpoint>
            <Time>2020-02-15T11:03:59.000Z</Time>
            <Position>
              <LatitudeDegrees>41.98426189832389354705810546875</LatitudeDegrees>
              <LongitudeDegrees>2.909499742090702056884765625</LongitudeDegrees>
            </Position>
            <AltitudeMeters>491.79998779296875</AltitudeMeters>
            <DistanceMeters>NAN</DistanceMeters>
          </Trackpoint>
          <Trackpoint>
            <Time>2020-02-15T11:04:00.000Z</Time>
            <Position>
              <LatitudeDegrees>41.98423859663307666778564453125</LatitudeDegrees>
              <LongitudeDegrees>2.90953184477984905242919921875</LongitudeDegrees>
            </Position>
            <AltitudeMeters>491.600006103515625</AltitudeMeters>
            <DistanceMeters>NAN</DistanceMeters>
          </Trackpoint>
          <Trackpoint>
            <Time>2020-02-15T11:04:01.000Z</Time>
            <Position>
              <LatitudeDegrees>41.98420758359134197235107421875</LatitudeDegrees>
              <LongitudeDegrees>2.9095646180212497711181640625</LongitudeDegrees>
            </Position>
            <AltitudeMeters>491.600006103515625</AltitudeMeters>
            <DistanceMeters>NAN</DistanceMeters>
          </Trackpoint>
          <Trackpoint>
            <Time>2020-02-15T11:04:02.000Z</Time>
            <Position>
              <LatitudeDegrees>41.9841836951673030853271484375</LatitudeDegrees>
              <LongitudeDegrees>2.90960694663226604461669921875</LongitudeDegrees>
            </Position>
            <AltitudeMeters>491.20001220703125</AltitudeMeters>
            <DistanceMeters>NAN</DistanceMeters>
          </Trackpoint>
          <Trackpoint>
            <Time>2020-02-15T11:04:03.000Z</Time>
            <Position>
              <LatitudeDegrees>41.98414622806012630462646484375</LatitudeDegrees>
              <LongitudeDegrees>2.9096487723290920257568359375</LongitudeDegrees>
            </Position>
            <AltitudeMeters>491.20001220703125</AltitudeMeters>
            <DistanceMeters>NAN</DistanceMeters>
          </Trackpoint>
          <Trackpoint>
            <Time>2020-02-15T11:04:04.000Z</Time>
            <Position>
              <LatitudeDegrees>41.98410431854426860809326171875</LatitudeDegrees>
              <LongitudeDegrees>2.90969076566398143768310546875</LongitudeDegrees>
            </Position>
            <AltitudeMeters>490.79998779296875</AltitudeMeters>
            <DistanceMeters>NAN</DistanceMeters>
          </Trackpoint>
          <Trackpoint>
            <Time>2020-02-15T11:04:06.000Z</Time>
            <Position>
              <LatitudeDegrees>41.98403525166213512420654296875</LatitudeDegrees>
              <LongitudeDegrees>2.9097667895257472991943359375</LongitudeDegrees>
            </Position>
            <AltitudeMeters>490.20001220703125</AltitudeMeters>
            <DistanceMeters>NAN</DistanceMeters>
          </Trackpoint>
          <Trackpoint>
            <Time>2020-02-15T11:04:07.000Z</Time>
            <Position>
              <LatitudeDegrees>41.98399786837399005889892578125</LatitudeDegrees>
              <LongitudeDegrees>2.909801490604877471923828125</LongitudeDegrees>
            </Position>
            <AltitudeMeters>490</AltitudeMeters>
            <DistanceMeters>NAN</DistanceMeters>
          </Trackpoint>
          <Trackpoint>
            <Time>2020-02-15T11:04:09.000Z</Time>
            <Position>
              <LatitudeDegrees>41.983914636075496673583984375</LatitudeDegrees>
              <LongitudeDegrees>2.90986360050737857818603515625</LongitudeDegrees>
            </Position>
            <AltitudeMeters>489.600006103515625</AltitudeMeters>
            <DistanceMeters>NAN</DistanceMeters>
          </Trackpoint>
          <Trackpoint>
            <Time>2020-02-15T11:04:11.000Z</Time>
            <Position>
              <LatitudeDegrees>41.98384515009820461273193359375</LatitudeDegrees>
              <LongitudeDegrees>2.9099146462976932525634765625</LongitudeDegrees>
            </Position>
            <AltitudeMeters>489.399993896484375</AltitudeMeters>
            <DistanceMeters>NAN</DistanceMeters>
          </Trackpoint>
          <Trackpoint>
            <Time>2020-02-15T11:04:12.000Z</Time>
            <Position>
              <LatitudeDegrees>41.983810029923915863037109375</LatitudeDegrees>
              <LongitudeDegrees>2.9099387861788272857666015625</LongitudeDegrees>
            </Position>
            <AltitudeMeters>489.399993896484375</AltitudeMeters>
            <DistanceMeters>NAN</DistanceMeters>
          </Trackpoint>
          <Trackpoint>
            <Time>2020-02-15T11:04:13.000Z</Time>
            <Position>
              <LatitudeDegrees>41.9837713055312633514404296875</LatitudeDegrees>
              <LongitudeDegrees>2.90996250696480274200439453125</LongitudeDegrees>
            </Position>
            <AltitudeMeters>489</AltitudeMeters>
            <DistanceMeters>NAN</DistanceMeters>
          </Trackpoint>
          <Trackpoint>
            <Time>2020-02-15T11:04:15.000Z</Time>
            <Position>
              <LatitudeDegrees>41.983703412115573883056640625</LatitudeDegrees>
              <LongitudeDegrees>2.91001229546964168548583984375</LongitudeDegrees>
            </Position>
            <AltitudeMeters>488.79998779296875</AltitudeMeters>
            <DistanceMeters>NAN</DistanceMeters>
          </Trackpoint>
          <Trackpoint>
            <Time>2020-02-15T11:04:16.000Z</Time>
            <Position>
              <LatitudeDegrees>41.98366946540772914886474609375</LatitudeDegrees>
              <LongitudeDegrees>2.91003308258950710296630859375</LongitudeDegrees>
            </Position>
            <AltitudeMeters>488.79998779296875</AltitudeMeters>
            <DistanceMeters>NAN</DistanceMeters>
          </Trackpoint>
          <Trackpoint>
            <Time>2020-02-15T11:04:17.000Z</Time>
            <Position>
              <LatitudeDegrees>41.98363669216632843017578125</LatitudeDegrees>
              <LongitudeDegrees>2.91004967875778675079345703125</LongitudeDegrees>
            </Position>
            <AltitudeMeters>488.600006103515625</AltitudeMeters>
            <DistanceMeters>NAN</DistanceMeters>
          </Trackpoint>
          <Trackpoint>
            <Time>2020-02-15T11:04:18.000Z</Time>
            <Position>
              <LatitudeDegrees>41.98360475711524486541748046875</LatitudeDegrees>
              <LongitudeDegrees>2.91006560437381267547607421875</LongitudeDegrees>
            </Position>
            <AltitudeMeters>488.399993896484375</AltitudeMeters>
            <DistanceMeters>NAN</DistanceMeters>
          </Trackpoint>
          <Trackpoint>
            <Time>2020-02-15T11:04:19.000Z</Time>
            <Position>
              <LatitudeDegrees>41.98357407934963703155517578125</LatitudeDegrees>
              <LongitudeDegrees>2.91008119471371173858642578125</LongitudeDegrees>
            </Position>
            <AltitudeMeters>488.399993896484375</AltitudeMeters>
            <DistanceMeters>NAN</DistanceMeters>
          </Trackpoint>
          <Trackpoint>
            <Time>2020-02-15T11:04:20.000Z</Time>
            <Position>
              <LatitudeDegrees>41.9835392944514751434326171875</LatitudeDegrees>
              <LongitudeDegrees>2.910095863044261932373046875</LongitudeDegrees>
            </Position>
            <AltitudeMeters>488.399993896484375</AltitudeMeters>
            <DistanceMeters>NAN</DistanceMeters>
          </Trackpoint>
          <Trackpoint>
            <Time>2020-02-15T11:04:23.000Z</Time>
            <Position>
              <LatitudeDegrees>41.98343443684279918670654296875</LatitudeDegrees>
              <LongitudeDegrees>2.91012880392372608184814453125</LongitudeDegrees>
            </Position>
            <AltitudeMeters>488.399993896484375</AltitudeMeters>
            <DistanceMeters>NAN</DistanceMeters>
          </Trackpoint>
          <Trackpoint>
            <Time>2020-02-15T11:04:24.000Z</Time>
            <Position>
              <LatitudeDegrees>41.9833917729556560516357421875</LatitudeDegrees>
              <LongitudeDegrees>2.91013467125594615936279296875</LongitudeDegrees>
            </Position>
            <AltitudeMeters>488.399993896484375</AltitudeMeters>
            <DistanceMeters>NAN</DistanceMeters>
          </Trackpoint>
          <Trackpoint>
            <Time>2020-02-15T11:04:25.000Z</Time>
            <Position>
              <LatitudeDegrees>41.98334709741175174713134765625</LatitudeDegrees>
              <LongitudeDegrees>2.91014154441654682159423828125</LongitudeDegrees>
            </Position>
            <AltitudeMeters>488.399993896484375</AltitudeMeters>
            <DistanceMeters>NAN</DistanceMeters>
          </Trackpoint>
          <Trackpoint>
            <Time>2020-02-15T11:04:27.000Z</Time>
            <Position>
              <LatitudeDegrees>41.98323913849890232086181640625</LatitudeDegrees>
              <LongitudeDegrees>2.9101486690342426300048828125</LongitudeDegrees>
            </Position>
            <AltitudeMeters>488.20001220703125</AltitudeMeters>
            <DistanceMeters>NAN</DistanceMeters>
          </Trackpoint>
          <Trackpoint>
            <Time>2020-02-15T11:04:28.000Z</Time>
            <Position>
              <LatitudeDegrees>41.9831906072795391082763671875</LatitudeDegrees>
              <LongitudeDegrees>2.9101496748626232147216796875</LongitudeDegrees>
            </Position>
            <AltitudeMeters>488.20001220703125</AltitudeMeters>
            <DistanceMeters>NAN</DistanceMeters>
          </Trackpoint>
          <Trackpoint>
            <Time>2020-02-15T11:04:30.000Z</Time>
            <Position>
              <LatitudeDegrees>41.98309664614498615264892578125</LatitudeDegrees>
              <LongitudeDegrees>2.91015596129000186920166015625</LongitudeDegrees>
            </Position>
            <AltitudeMeters>488</AltitudeMeters>
            <DistanceMeters>NAN</DistanceMeters>
          </Trackpoint>
          <Trackpoint>
            <Time>2020-02-15T11:04:31.000Z</Time>
            <Position>
              <LatitudeDegrees>41.98304769583046436309814453125</LatitudeDegrees>
              <LongitudeDegrees>2.91015445254743099212646484375</LongitudeDegrees>
            </Position>
            <AltitudeMeters>488</AltitudeMeters>
            <DistanceMeters>NAN</DistanceMeters>
          </Trackpoint>
          <Trackpoint>
            <Time>2020-02-15T11:04:32.000Z</Time>
            <Position>
              <LatitudeDegrees>41.98299857787787914276123046875</LatitudeDegrees>
              <LongitudeDegrees>2.91014472953975200653076171875</LongitudeDegrees>
            </Position>
            <AltitudeMeters>487.79998779296875</AltitudeMeters>
            <DistanceMeters>NAN</DistanceMeters>
          </Trackpoint>
          <Trackpoint>
            <Time>2020-02-15T11:04:33.000Z</Time>
            <Position>
              <LatitudeDegrees>41.98294661007821559906005859375</LatitudeDegrees>
              <LongitudeDegrees>2.910129390656948089599609375</LongitudeDegrees>
            </Position>
            <AltitudeMeters>487.399993896484375</AltitudeMeters>
            <DistanceMeters>NAN</DistanceMeters>
          </Trackpoint>
          <Trackpoint>
            <Time>2020-02-15T11:04:35.000Z</Time>
            <Position>
              <LatitudeDegrees>41.982852481305599212646484375</LatitudeDegrees>
              <LongitudeDegrees>2.91008655913174152374267578125</LongitudeDegrees>
            </Position>
            <AltitudeMeters>486.79998779296875</AltitudeMeters>
            <DistanceMeters>NAN</DistanceMeters>
          </Trackpoint>
          <Trackpoint>
            <Time>2020-02-15T11:04:36.000Z</Time>
            <Position>
              <LatitudeDegrees>41.982816271483898162841796875</LatitudeDegrees>
              <LongitudeDegrees>2.9100559651851654052734375</LongitudeDegrees>
            </Position>
            <AltitudeMeters>486.399993896484375</AltitudeMeters>
            <DistanceMeters>NAN</DistanceMeters>
          </Trackpoint>
          <Trackpoint>
            <Time>2020-02-15T11:04:37.000Z</Time>
            <Position>
              <LatitudeDegrees>41.982785761356353759765625</LatitudeDegrees>
              <LongitudeDegrees>2.91001648642122745513916015625</LongitudeDegrees>
            </Position>
            <AltitudeMeters>486.399993896484375</AltitudeMeters>
            <DistanceMeters>NAN</DistanceMeters>
          </Trackpoint>
          <Trackpoint>
            <Time>2020-02-15T11:04:38.000Z</Time>
            <Position>
              <LatitudeDegrees>41.9827617891132831573486328125</LatitudeDegrees>
              <LongitudeDegrees>2.90997139178216457366943359375</LongitudeDegrees>
            </Position>
            <AltitudeMeters>486</AltitudeMeters>
            <DistanceMeters>NAN</DistanceMeters>
          </Trackpoint>
          <Trackpoint>
            <Time>2020-02-15T11:04:39.000Z</Time>
            <Position>
              <LatitudeDegrees>41.9827413372695446014404296875</LatitudeDegrees>
              <LongitudeDegrees>2.9099220223724842071533203125</LongitudeDegrees>
            </Position>
            <AltitudeMeters>485.399993896484375</AltitudeMeters>
            <DistanceMeters>NAN</DistanceMeters>
          </Trackpoint>
          <Trackpoint>
            <Time>2020-02-15T11:04:40.000Z</Time>
            <Position>
              <LatitudeDegrees>41.9827249087393283843994140625</LatitudeDegrees>
              <LongitudeDegrees>2.9098693840205669403076171875</LongitudeDegrees>
            </Position>
            <AltitudeMeters>484.79998779296875</AltitudeMeters>
            <DistanceMeters>NAN</DistanceMeters>
          </Trackpoint>
          <Trackpoint>
            <Time>2020-02-15T11:04:41.000Z</Time>
            <Position>
              <LatitudeDegrees>41.9827121682465076446533203125</LatitudeDegrees>
              <LongitudeDegrees>2.90981498546898365020751953125</LongitudeDegrees>
            </Position>
            <AltitudeMeters>484</AltitudeMeters>
            <DistanceMeters>NAN</DistanceMeters>
          </Trackpoint>
          <Trackpoint>
            <Time>2020-02-15T11:04:43.000Z</Time>
            <Position>
              <LatitudeDegrees>41.98269699700176715850830078125</LatitudeDegrees>
              <LongitudeDegrees>2.9096950404345989227294921875</LongitudeDegrees>
            </Position>
            <AltitudeMeters>483.20001220703125</AltitudeMeters>
            <DistanceMeters>NAN</DistanceMeters>
          </Trackpoint>
          <Trackpoint>
            <Time>2020-02-15T11:04:44.000Z</Time>
            <Position>
              <LatitudeDegrees>41.9826907105743885040283203125</LatitudeDegrees>
              <LongitudeDegrees>2.9096246324479579925537109375</LongitudeDegrees>
            </Position>
            <AltitudeMeters>483.20001220703125</AltitudeMeters>
            <DistanceMeters>NAN</DistanceMeters>
          </Trackpoint>
          <Trackpoint>
            <Time>2020-02-15T11:04:45.000Z</Time>
            <Position>
              <LatitudeDegrees>41.98268190957605838775634765625</LatitudeDegrees>
              <LongitudeDegrees>2.90954994969069957733154296875</LongitudeDegrees>
            </Position>
            <AltitudeMeters>482.600006103515625</AltitudeMeters>
            <DistanceMeters>NAN</DistanceMeters>
          </Trackpoint>
          <Trackpoint>
            <Time>2020-02-15T11:04:49.000Z</Time>
            <Position>
              <LatitudeDegrees>41.98262927122414112091064453125</LatitudeDegrees>
              <LongitudeDegrees>2.90922909043729305267333984375</LongitudeDegrees>
            </Position>
            <AltitudeMeters>481</AltitudeMeters>
            <DistanceMeters>NAN</DistanceMeters>
          </Trackpoint>
          <Trackpoint>
            <Time>2020-02-15T11:04:50.000Z</Time>
            <Position>
              <LatitudeDegrees>41.98261803947389125823974609375</LatitudeDegrees>
              <LongitudeDegrees>2.90914711542427539825439453125</LongitudeDegrees>
            </Position>
            <AltitudeMeters>480.600006103515625</AltitudeMeters>
            <DistanceMeters>NAN</DistanceMeters>
          </Trackpoint>
          <Trackpoint>
            <Time>2020-02-15T11:04:52.000Z</Time>
            <Position>
              <LatitudeDegrees>41.9826032035052776336669921875</LatitudeDegrees>
              <LongitudeDegrees>2.9089688323438167572021484375</LongitudeDegrees>
            </Position>
            <AltitudeMeters>479.79998779296875</AltitudeMeters>
            <DistanceMeters>NAN</DistanceMeters>
          </Trackpoint>
          <Trackpoint>
            <Time>2020-02-15T11:04:53.000Z</Time>
            <Position>
              <LatitudeDegrees>41.98260228149592876434326171875</LatitudeDegrees>
              <LongitudeDegrees>2.90887822397053241729736328125</LongitudeDegrees>
            </Position>
            <AltitudeMeters>479.399993896484375</AltitudeMeters>
            <DistanceMeters>NAN</DistanceMeters>
          </Trackpoint>
          <Trackpoint>
            <Time>2020-02-15T11:04:54.000Z</Time>
            <Position>
              <LatitudeDegrees>41.98260814882814884185791015625</LatitudeDegrees>
              <LongitudeDegrees>2.90879842825233936309814453125</LongitudeDegrees>
            </Position>
            <AltitudeMeters>478.600006103515625</AltitudeMeters>
            <DistanceMeters>NAN</DistanceMeters>
          </Trackpoint>
          <Trackpoint>
            <Time>2020-02-15T11:04:55.000Z</Time>
            <Position>
              <LatitudeDegrees>41.98261971585452556610107421875</LatitudeDegrees>
              <LongitudeDegrees>2.90874025784432888031005859375</LongitudeDegrees>
            </Position>
            <AltitudeMeters>478.399993896484375</AltitudeMeters>
            <DistanceMeters>NAN</DistanceMeters>
          </Trackpoint>
          <Trackpoint>
            <Time>2020-02-15T11:04:56.000Z</Time>
            <Position>
              <LatitudeDegrees>41.98263547383248805999755859375</LatitudeDegrees>
              <LongitudeDegrees>2.9086972586810588836669921875</LongitudeDegrees>
            </Position>
            <AltitudeMeters>478</AltitudeMeters>
            <DistanceMeters>NAN</DistanceMeters>
          </Trackpoint>
          <Trackpoint>
            <Time>2020-02-15T11:04:57.000Z</Time>
            <Position>
              <LatitudeDegrees>41.98266095481812953948974609375</LatitudeDegrees>
              <LongitudeDegrees>2.90866817347705364227294921875</LongitudeDegrees>
            </Position>
            <AltitudeMeters>477.79998779296875</AltitudeMeters>
            <DistanceMeters>NAN</DistanceMeters>
          </Trackpoint>
          <Trackpoint>
            <Time>2020-02-15T11:04:58.000Z</Time>
            <Position>
              <LatitudeDegrees>41.982688196003437042236328125</LatitudeDegrees>
              <LongitudeDegrees>2.90863883681595325469970703125</LongitudeDegrees>
            </Position>
            <AltitudeMeters>477.600006103515625</AltitudeMeters>
            <DistanceMeters>NAN</DistanceMeters>
          </Trackpoint>
          <Trackpoint>
            <Time>2020-02-15T11:04:59.000Z</Time>
            <Position>
              <LatitudeDegrees>41.98271443136036396026611328125</LatitudeDegrees>
              <LongitudeDegrees>2.90861134417355060577392578125</LongitudeDegrees>
            </Position>
            <AltitudeMeters>477.20001220703125</AltitudeMeters>
            <DistanceMeters>NAN</DistanceMeters>
          </Trackpoint>
          <Trackpoint>
            <Time>2020-02-15T11:05:00.000Z</Time>
            <Position>
              <LatitudeDegrees>41.98273739777505397796630859375</LatitudeDegrees>
              <LongitudeDegrees>2.9085802473127841949462890625</LongitudeDegrees>
            </Position>
            <AltitudeMeters>476.79998779296875</AltitudeMeters>
            <DistanceMeters>NAN</DistanceMeters>
          </Trackpoint>
          <Trackpoint>
            <Time>2020-02-15T11:05:01.000Z</Time>
            <Position>
              <LatitudeDegrees>41.982755921781063079833984375</LatitudeDegrees>
              <LongitudeDegrees>2.908547222614288330078125</LongitudeDegrees>
            </Position>
            <AltitudeMeters>476.20001220703125</AltitudeMeters>
            <DistanceMeters>NAN</DistanceMeters>
          </Trackpoint>
          <Trackpoint>
            <Time>2020-02-15T11:05:02.000Z</Time>
            <Position>
              <LatitudeDegrees>41.98277176357805728912353515625</LatitudeDegrees>
              <LongitudeDegrees>2.90850874967873096466064453125</LongitudeDegrees>
            </Position>
            <AltitudeMeters>476</AltitudeMeters>
            <DistanceMeters>NAN</DistanceMeters>
          </Trackpoint>
          <Trackpoint>
            <Time>2020-02-15T11:05:03.000Z</Time>
            <Position>
              <LatitudeDegrees>41.98278685100376605987548828125</LatitudeDegrees>
              <LongitudeDegrees>2.90845778770744800567626953125</LongitudeDegrees>
            </Position>
            <AltitudeMeters>475.600006103515625</AltitudeMeters>
            <DistanceMeters>NAN</DistanceMeters>
          </Trackpoint>
          <Trackpoint>
            <Time>2020-02-15T11:05:04.000Z</Time>
            <Position>
              <LatitudeDegrees>41.9827959872782230377197265625</LatitudeDegrees>
              <LongitudeDegrees>2.908394336700439453125</LongitudeDegrees>
            </Position>
            <AltitudeMeters>475</AltitudeMeters>
            <DistanceMeters>NAN</DistanceMeters>
          </Trackpoint>
          <Trackpoint>
            <Time>2020-02-15T11:05:05.000Z</Time>
            <Position>
              <LatitudeDegrees>41.98279858566820621490478515625</LatitudeDegrees>
              <LongitudeDegrees>2.90832200087606906890869140625</LongitudeDegrees>
            </Position>
            <AltitudeMeters>474.600006103515625</AltitudeMeters>
            <DistanceMeters>NAN</DistanceMeters>
          </Trackpoint>
          <Trackpoint>
            <Time>2020-02-15T11:05:06.000Z</Time>
            <Position>
              <LatitudeDegrees>41.982798166573047637939453125</LatitudeDegrees>
              <LongitudeDegrees>2.90823818184435367584228515625</LongitudeDegrees>
            </Position>
            <AltitudeMeters>474.600006103515625</AltitudeMeters>
            <DistanceMeters>NAN</DistanceMeters>
          </Trackpoint>
          <Trackpoint>
            <Time>2020-02-15T11:05:07.000Z</Time>
            <Position>
              <LatitudeDegrees>41.98279925622045993804931640625</LatitudeDegrees>
              <LongitudeDegrees>2.908166013658046722412109375</LongitudeDegrees>
            </Position>
            <AltitudeMeters>474.20001220703125</AltitudeMeters>
            <DistanceMeters>NAN</DistanceMeters>
          </Trackpoint>
          <Trackpoint>
            <Time>2020-02-15T11:05:08.000Z</Time>
            <Position>
              <LatitudeDegrees>41.98280344717204570770263671875</LatitudeDegrees>
              <LongitudeDegrees>2.90810943581163883209228515625</LongitudeDegrees>
            </Position>
            <AltitudeMeters>473</AltitudeMeters>
            <DistanceMeters>NAN</DistanceMeters>
          </Trackpoint>
          <Trackpoint>
            <Time>2020-02-15T11:05:09.000Z</Time>
            <Position>
              <LatitudeDegrees>41.98281082324683666229248046875</LatitudeDegrees>
              <LongitudeDegrees>2.90806702338159084320068359375</LongitudeDegrees>
            </Position>
            <AltitudeMeters>472</AltitudeMeters>
            <DistanceMeters>NAN</DistanceMeters>
          </Trackpoint>
          <Trackpoint>
            <Time>2020-02-15T11:05:10.000Z</Time>
            <Position>
              <LatitudeDegrees>41.98281903751194477081298828125</LatitudeDegrees>
              <LongitudeDegrees>2.90803567506372928619384765625</LongitudeDegrees>
            </Position>
            <AltitudeMeters>471.399993896484375</AltitudeMeters>
            <DistanceMeters>NAN</DistanceMeters>
          </Trackpoint>
          <Trackpoint>
            <Time>2020-02-15T11:05:11.000Z</Time>
            <Position>
              <LatitudeDegrees>41.9828254915773868560791015625</LatitudeDegrees>
              <LongitudeDegrees>2.9080119542777538299560546875</LongitudeDegrees>
            </Position>
            <AltitudeMeters>470.600006103515625</AltitudeMeters>
            <DistanceMeters>NAN</DistanceMeters>
          </Trackpoint>
          <Trackpoint>
            <Time>2020-02-15T11:05:12.000Z</Time>
            <Position>
              <LatitudeDegrees>41.98282892815768718719482421875</LatitudeDegrees>
              <LongitudeDegrees>2.9079955257475376129150390625</LongitudeDegrees>
            </Position>
            <AltitudeMeters>469.20001220703125</AltitudeMeters>
            <DistanceMeters>NAN</DistanceMeters>
          </Trackpoint>
          <Trackpoint>
            <Time>2020-02-15T11:05:13.000Z</Time>
            <Position>
              <LatitudeDegrees>41.98283714242279529571533203125</LatitudeDegrees>
              <LongitudeDegrees>2.90797532536089420318603515625</LongitudeDegrees>
            </Position>
            <AltitudeMeters>467.399993896484375</AltitudeMeters>
            <DistanceMeters>NAN</DistanceMeters>
          </Trackpoint>
          <Trackpoint>
            <Time>2020-02-15T11:05:14.000Z</Time>
            <Position>
              <LatitudeDegrees>41.982848457992076873779296875</LatitudeDegrees>
              <LongitudeDegrees>2.9079519398510456085205078125</LongitudeDegrees>
            </Position>
            <AltitudeMeters>466.20001220703125</AltitudeMeters>
            <DistanceMeters>NAN</DistanceMeters>
          </Trackpoint>
          <Trackpoint>
            <Time>2020-02-15T11:05:15.000Z</Time>
            <Position>
              <LatitudeDegrees>41.98285751044750213623046875</LatitudeDegrees>
              <LongitudeDegrees>2.90792805142700672149658203125</LongitudeDegrees>
            </Position>
            <AltitudeMeters>465</AltitudeMeters>
            <DistanceMeters>NAN</DistanceMeters>
          </Trackpoint>
          <Trackpoint>
            <Time>2020-02-15T11:05:16.000Z</Time>
            <Position>
              <LatitudeDegrees>41.98286497034132480621337890625</LatitudeDegrees>
              <LongitudeDegrees>2.90789687074720859527587890625</LongitudeDegrees>
            </Position>
            <AltitudeMeters>463.600006103515625</AltitudeMeters>
            <DistanceMeters>NAN</DistanceMeters>
          </Trackpoint>
          <Trackpoint>
            <Time>2020-02-15T11:05:17.000Z</Time>
            <Position>
              <LatitudeDegrees>41.98286966420710086822509765625</LatitudeDegrees>
              <LongitudeDegrees>2.907863594591617584228515625</LongitudeDegrees>
            </Position>
            <AltitudeMeters>462.79998779296875</AltitudeMeters>
            <DistanceMeters>NAN</DistanceMeters>
          </Trackpoint>
          <Trackpoint>
            <Time>2020-02-15T11:05:18.000Z</Time>
            <Position>
              <LatitudeDegrees>41.98287519626319408416748046875</LatitudeDegrees>
              <LongitudeDegrees>2.907829396426677703857421875</LongitudeDegrees>
            </Position>
            <AltitudeMeters>462.399993896484375</AltitudeMeters>
            <DistanceMeters>NAN</DistanceMeters>
          </Trackpoint>
          <Trackpoint>
            <Time>2020-02-15T11:05:19.000Z</Time>
            <Position>
              <LatitudeDegrees>41.98287184350192546844482421875</LatitudeDegrees>
              <LongitudeDegrees>2.907793857157230377197265625</LongitudeDegrees>
            </Position>
            <AltitudeMeters>462</AltitudeMeters>
            <DistanceMeters>NAN</DistanceMeters>
          </Trackpoint>
          <Trackpoint>
            <Time>2020-02-15T11:05:20.000Z</Time>
            <Position>
              <LatitudeDegrees>41.98286798782646656036376953125</LatitudeDegrees>
              <LongitudeDegrees>2.9077594913542270660400390625</LongitudeDegrees>
            </Position>
            <AltitudeMeters>462</AltitudeMeters>
            <DistanceMeters>NAN</DistanceMeters>
          </Trackpoint>
          <Trackpoint>
            <Time>2020-02-15T11:05:21.000Z</Time>
            <Position>
              <LatitudeDegrees>41.98286379687488079071044921875</LatitudeDegrees>
              <LongitudeDegrees>2.90772386826574802398681640625</LongitudeDegrees>
            </Position>
            <AltitudeMeters>461.600006103515625</AltitudeMeters>
            <DistanceMeters>NAN</DistanceMeters>
          </Trackpoint>
          <Trackpoint>
            <Time>2020-02-15T11:05:23.000Z</Time>
            <Position>
              <LatitudeDegrees>41.982859857380390167236328125</LatitudeDegrees>
              <LongitudeDegrees>2.9076397977769374847412109375</LongitudeDegrees>
            </Position>
            <AltitudeMeters>461.600006103515625</AltitudeMeters>
            <DistanceMeters>NAN</DistanceMeters>
          </Trackpoint>
          <Trackpoint>
            <Time>2020-02-15T11:05:24.000Z</Time>
            <Position>
              <LatitudeDegrees>41.9828560017049312591552734375</LatitudeDegrees>
              <LongitudeDegrees>2.90758975781500339508056640625</LongitudeDegrees>
            </Position>
            <AltitudeMeters>461.399993896484375</AltitudeMeters>
            <DistanceMeters>NAN</DistanceMeters>
          </Trackpoint>
          <Trackpoint>
            <Time>2020-02-15T11:05:25.000Z</Time>
            <Position>
              <LatitudeDegrees>41.9828546606004238128662109375</LatitudeDegrees>
              <LongitudeDegrees>2.90753401815891265869140625</LongitudeDegrees>
            </Position>
            <AltitudeMeters>461.399993896484375</AltitudeMeters>
            <DistanceMeters>NAN</DistanceMeters>
          </Trackpoint>
          <Trackpoint>
            <Time>2020-02-15T11:05:26.000Z</Time>
            <Position>
              <LatitudeDegrees>41.982845775783061981201171875</LatitudeDegrees>
              <LongitudeDegrees>2.90747500956058502197265625</LongitudeDegrees>
            </Position>
            <AltitudeMeters>461.399993896484375</AltitudeMeters>
            <DistanceMeters>NAN</DistanceMeters>
          </Trackpoint>
          <Trackpoint>
            <Time>2020-02-15T11:05:27.000Z</Time>
            <Position>
              <LatitudeDegrees>41.9828368909657001495361328125</LatitudeDegrees>
              <LongitudeDegrees>2.9074148274958133697509765625</LongitudeDegrees>
            </Position>
            <AltitudeMeters>461.399993896484375</AltitudeMeters>
            <DistanceMeters>NAN</DistanceMeters>
          </Trackpoint>
          <Trackpoint>
            <Time>2020-02-15T11:05:29.000Z</Time>
            <Position>
              <LatitudeDegrees>41.98281551711261272430419921875</LatitudeDegrees>
              <LongitudeDegrees>2.90731751359999179840087890625</LongitudeDegrees>
            </Position>
            <AltitudeMeters>461</AltitudeMeters>
            <DistanceMeters>NAN</DistanceMeters>
          </Trackpoint>
          <Trackpoint>
            <Time>2020-02-15T11:05:30.000Z</Time>
            <Position>
              <LatitudeDegrees>41.982792802155017852783203125</LatitudeDegrees>
              <LongitudeDegrees>2.90728725492954254150390625</LongitudeDegrees>
            </Position>
            <AltitudeMeters>460.79998779296875</AltitudeMeters>
            <DistanceMeters>NAN</DistanceMeters>
          </Trackpoint>
          <Trackpoint>
            <Time>2020-02-15T11:05:31.000Z</Time>
            <Position>
              <LatitudeDegrees>41.982778050005435943603515625</LatitudeDegrees>
              <LongitudeDegrees>2.90726588107645511627197265625</LongitudeDegrees>
            </Position>
            <AltitudeMeters>460.600006103515625</AltitudeMeters>
            <DistanceMeters>NAN</DistanceMeters>
          </Trackpoint>
          <Trackpoint>
            <Time>2020-02-15T11:05:32.000Z</Time>
            <Position>
              <LatitudeDegrees>41.9827715121209621429443359375</LatitudeDegrees>
              <LongitudeDegrees>2.90724492631852626800537109375</LongitudeDegrees>
            </Position>
            <AltitudeMeters>460</AltitudeMeters>
            <DistanceMeters>NAN</DistanceMeters>
          </Trackpoint>
          <Trackpoint>
            <Time>2020-02-15T11:05:33.000Z</Time>
            <Position>
              <LatitudeDegrees>41.9827661477029323577880859375</LatitudeDegrees>
              <LongitudeDegrees>2.90721994824707508087158203125</LongitudeDegrees>
            </Position>
            <AltitudeMeters>459.79998779296875</AltitudeMeters>
            <DistanceMeters>NAN</DistanceMeters>
          </Trackpoint>
          <Trackpoint>
            <Time>2020-02-15T11:05:34.000Z</Time>
            <Position>
              <LatitudeDegrees>41.982756592333316802978515625</LatitudeDegrees>
              <LongitudeDegrees>2.9071922041475772857666015625</LongitudeDegrees>
            </Position>
            <AltitudeMeters>459.79998779296875</AltitudeMeters>
            <DistanceMeters>NAN</DistanceMeters>
          </Trackpoint>
          <Trackpoint>
            <Time>2020-02-15T11:05:35.000Z</Time>
            <Position>
              <LatitudeDegrees>41.98274209164083003997802734375</LatitudeDegrees>
              <LongitudeDegrees>2.9071620292961597442626953125</LongitudeDegrees>
            </Position>
            <AltitudeMeters>459.600006103515625</AltitudeMeters>
            <DistanceMeters>NAN</DistanceMeters>
          </Trackpoint>
          <Trackpoint>
            <Time>2020-02-15T11:05:36.000Z</Time>
            <Position>
              <LatitudeDegrees>41.98272599838674068450927734375</LatitudeDegrees>
              <LongitudeDegrees>2.9071278311312198638916015625</LongitudeDegrees>
            </Position>
            <AltitudeMeters>459.600006103515625</AltitudeMeters>
            <DistanceMeters>NAN</DistanceMeters>
          </Trackpoint>
          <Trackpoint>
            <Time>2020-02-15T11:05:37.000Z</Time>
            <Position>
              <LatitudeDegrees>41.9827054627239704132080078125</LatitudeDegrees>
              <LongitudeDegrees>2.90708734653890132904052734375</LongitudeDegrees>
            </Position>
            <AltitudeMeters>459.600006103515625</AltitudeMeters>
            <DistanceMeters>NAN</DistanceMeters>
          </Trackpoint>
          <Trackpoint>
            <Time>2020-02-15T11:05:39.000Z</Time>
            <Position>
              <LatitudeDegrees>41.982678137719631195068359375</LatitudeDegrees>
              <LongitudeDegrees>2.90699615143239498138427734375</LongitudeDegrees>
            </Position>
            <AltitudeMeters>459.399993896484375</AltitudeMeters>
            <DistanceMeters>NAN</DistanceMeters>
          </Trackpoint>
          <Trackpoint>
            <Time>2020-02-15T11:05:41.000Z</Time>
            <Position>
              <LatitudeDegrees>41.9826568476855754852294921875</LatitudeDegrees>
              <LongitudeDegrees>2.90687897242605686187744140625</LongitudeDegrees>
            </Position>
            <AltitudeMeters>459.399993896484375</AltitudeMeters>
            <DistanceMeters>NAN</DistanceMeters>
          </Trackpoint>
          <Trackpoint>
            <Time>2020-02-15T11:05:42.000Z</Time>
            <Position>
              <LatitudeDegrees>41.9826454482972621917724609375</LatitudeDegrees>
              <LongitudeDegrees>2.9068109951913356781005859375</LongitudeDegrees>
            </Position>
            <AltitudeMeters>459.399993896484375</AltitudeMeters>
            <DistanceMeters>NAN</DistanceMeters>
          </Trackpoint>
          <Trackpoint>
            <Time>2020-02-15T11:05:43.000Z</Time>
            <Position>
              <LatitudeDegrees>41.98264201171696186065673828125</LatitudeDegrees>
              <LongitudeDegrees>2.90673413313925266265869140625</LongitudeDegrees>
            </Position>
            <AltitudeMeters>459.399993896484375</AltitudeMeters>
            <DistanceMeters>NAN</DistanceMeters>
          </Trackpoint>
          <Trackpoint>
            <Time>2020-02-15T11:05:44.000Z</Time>
            <Position>
              <LatitudeDegrees>41.9826514832675457000732421875</LatitudeDegrees>
              <LongitudeDegrees>2.906649895012378692626953125</LongitudeDegrees>
            </Position>
            <AltitudeMeters>459.399993896484375</AltitudeMeters>
            <DistanceMeters>NAN</DistanceMeters>
          </Trackpoint>
          <Trackpoint>
            <Time>2020-02-15T11:05:45.000Z</Time>
            <Position>
              <LatitudeDegrees>41.98264234699308872222900390625</LatitudeDegrees>
              <LongitudeDegrees>2.90654830634593963623046875</LongitudeDegrees>
            </Position>
            <AltitudeMeters>459</AltitudeMeters>
            <DistanceMeters>NAN</DistanceMeters>
          </Trackpoint>
          <Trackpoint>
            <Time>2020-02-15T11:05:46.000Z</Time>
            <Position>
              <LatitudeDegrees>41.9826387427747249603271484375</LatitudeDegrees>
              <LongitudeDegrees>2.906448058784008026123046875</LongitudeDegrees>
            </Position>
            <AltitudeMeters>458.600006103515625</AltitudeMeters>
            <DistanceMeters>NAN</DistanceMeters>
          </Trackpoint>
          <Trackpoint>
            <Time>2020-02-15T11:05:48.000Z</Time>
            <Position>
              <LatitudeDegrees>41.98259155265986919403076171875</LatitudeDegrees>
              <LongitudeDegrees>2.90625502355396747589111328125</LongitudeDegrees>
            </Position>
            <AltitudeMeters>458.399993896484375</AltitudeMeters>
            <DistanceMeters>NAN</DistanceMeters>
          </Trackpoint>
          <Trackpoint>
            <Time>2020-02-15T11:05:49.000Z</Time>
            <Position>
              <LatitudeDegrees>41.98256783187389373779296875</LatitudeDegrees>
              <LongitudeDegrees>2.906160056591033935546875</LongitudeDegrees>
            </Position>
            <AltitudeMeters>457.79998779296875</AltitudeMeters>
            <DistanceMeters>NAN</DistanceMeters>
          </Trackpoint>
          <Trackpoint>
            <Time>2020-02-15T11:05:50.000Z</Time>
            <Position>
              <LatitudeDegrees>41.98254427872598171234130859375</LatitudeDegrees>
              <LongitudeDegrees>2.9060753993690013885498046875</LongitudeDegrees>
            </Position>
            <AltitudeMeters>457.600006103515625</AltitudeMeters>
            <DistanceMeters>NAN</DistanceMeters>
          </Trackpoint>
          <Trackpoint>
            <Time>2020-02-15T11:05:51.000Z</Time>
            <Position>
              <LatitudeDegrees>41.9825160317122936248779296875</LatitudeDegrees>
              <LongitudeDegrees>2.905997447669506072998046875</LongitudeDegrees>
            </Position>
            <AltitudeMeters>456.79998779296875</AltitudeMeters>
            <DistanceMeters>NAN</DistanceMeters>
          </Trackpoint>
          <Trackpoint>
            <Time>2020-02-15T11:05:52.000Z</Time>
            <Position>
              <LatitudeDegrees>41.982485353946685791015625</LatitudeDegrees>
              <LongitudeDegrees>2.905921004712581634521484375</LongitudeDegrees>
            </Position>
            <AltitudeMeters>456.20001220703125</AltitudeMeters>
            <DistanceMeters>NAN</DistanceMeters>
          </Trackpoint>
          <Trackpoint>
            <Time>2020-02-15T11:05:53.000Z</Time>
            <Position>
              <LatitudeDegrees>41.9824533350765705108642578125</LatitudeDegrees>
              <LongitudeDegrees>2.90583374910056591033935546875</LongitudeDegrees>
            </Position>
            <AltitudeMeters>455.600006103515625</AltitudeMeters>
            <DistanceMeters>NAN</DistanceMeters>
          </Trackpoint>
          <Trackpoint>
            <Time>2020-02-15T11:05:55.000Z</Time>
            <Position>
              <LatitudeDegrees>41.98241117410361766815185546875</LatitudeDegrees>
              <LongitudeDegrees>2.90565873496234416961669921875</LongitudeDegrees>
            </Position>
            <AltitudeMeters>453.79998779296875</AltitudeMeters>
            <DistanceMeters>NAN</DistanceMeters>
          </Trackpoint>
          <Trackpoint>
            <Time>2020-02-15T11:05:56.000Z</Time>
            <Position>
              <LatitudeDegrees>41.98239558376371860504150390625</LatitudeDegrees>
              <LongitudeDegrees>2.90556435473263263702392578125</LongitudeDegrees>
            </Position>
            <AltitudeMeters>452.600006103515625</AltitudeMeters>
            <DistanceMeters>NAN</DistanceMeters>
          </Trackpoint>
          <Trackpoint>
            <Time>2020-02-15T11:05:57.000Z</Time>
            <Position>
              <LatitudeDegrees>41.98237865231931209564208984375</LatitudeDegrees>
              <LongitudeDegrees>2.90546528063714504241943359375</LongitudeDegrees>
            </Position>
            <AltitudeMeters>452</AltitudeMeters>
            <DistanceMeters>NAN</DistanceMeters>
          </Trackpoint>
          <Trackpoint>
            <Time>2020-02-15T11:06:00.000Z</Time>
            <Position>
              <LatitudeDegrees>41.9823507405817508697509765625</LatitudeDegrees>
              <LongitudeDegrees>2.90512011386454105377197265625</LongitudeDegrees>
            </Position>
            <AltitudeMeters>451</AltitudeMeters>
            <DistanceMeters>NAN</DistanceMeters>
          </Trackpoint>
          <Trackpoint>
            <Time>2020-02-15T11:06:01.000Z</Time>
            <Position>
              <LatitudeDegrees>41.9823416881263256072998046875</LatitudeDegrees>
              <LongitudeDegrees>2.90499354712665081024169921875</LongitudeDegrees>
            </Position>
            <AltitudeMeters>451</AltitudeMeters>
            <DistanceMeters>NAN</DistanceMeters>
          </Trackpoint>
          <Trackpoint>
            <Time>2020-02-15T11:06:02.000Z</Time>
            <Position>
              <LatitudeDegrees>41.98232106864452362060546875</LatitudeDegrees>
              <LongitudeDegrees>2.9048570059239864349365234375</LongitudeDegrees>
            </Position>
            <AltitudeMeters>450.600006103515625</AltitudeMeters>
            <DistanceMeters>NAN</DistanceMeters>
          </Trackpoint>
          <Trackpoint>
            <Time>2020-02-15T11:06:03.000Z</Time>
            <Position>
              <LatitudeDegrees>41.98230673559010028839111328125</LatitudeDegrees>
              <LongitudeDegrees>2.9047242365777492523193359375</LongitudeDegrees>
            </Position>
            <AltitudeMeters>450.399993896484375</AltitudeMeters>
            <DistanceMeters>NAN</DistanceMeters>
          </Trackpoint>
          <Trackpoint>
            <Time>2020-02-15T11:06:04.000Z</Time>
            <Position>
              <LatitudeDegrees>41.98229332454502582550048828125</LatitudeDegrees>
              <LongitudeDegrees>2.904587946832180023193359375</LongitudeDegrees>
            </Position>
            <AltitudeMeters>450</AltitudeMeters>
            <DistanceMeters>NAN</DistanceMeters>
          </Trackpoint>
          <Trackpoint>
            <Time>2020-02-15T11:06:05.000Z</Time>
            <Position>
              <LatitudeDegrees>41.98227538727223873138427734375</LatitudeDegrees>
              <LongitudeDegrees>2.9044432751834392547607421875</LongitudeDegrees>
            </Position>
            <AltitudeMeters>448.600006103515625</AltitudeMeters>
            <DistanceMeters>NAN</DistanceMeters>
          </Trackpoint>
          <Trackpoint>
            <Time>2020-02-15T11:06:08.000Z</Time>
            <Position>
              <LatitudeDegrees>41.98221436701714992523193359375</LatitudeDegrees>
              <LongitudeDegrees>2.9040235094726085662841796875</LongitudeDegrees>
            </Position>
            <AltitudeMeters>446.79998779296875</AltitudeMeters>
            <DistanceMeters>NAN</DistanceMeters>
          </Trackpoint>
          <Trackpoint>
            <Time>2020-02-15T11:06:09.000Z</Time>
            <Position>
              <LatitudeDegrees>41.98219927959144115447998046875</LatitudeDegrees>
              <LongitudeDegrees>2.903890572488307952880859375</LongitudeDegrees>
            </Position>
            <AltitudeMeters>446.79998779296875</AltitudeMeters>
            <DistanceMeters>NAN</DistanceMeters>
          </Trackpoint>
          <Trackpoint>
            <Time>2020-02-15T11:06:10.000Z</Time>
            <Position>
              <LatitudeDegrees>41.982189975678920745849609375</LatitudeDegrees>
              <LongitudeDegrees>2.9037619940936565399169921875</LongitudeDegrees>
            </Position>
            <AltitudeMeters>445.399993896484375</AltitudeMeters>
            <DistanceMeters>NAN</DistanceMeters>
          </Trackpoint>
          <Trackpoint>
            <Time>2020-02-15T11:06:11.000Z</Time>
            <Position>
              <LatitudeDegrees>41.9821854494512081146240234375</LatitudeDegrees>
              <LongitudeDegrees>2.9036369360983371734619140625</LongitudeDegrees>
            </Position>
            <AltitudeMeters>444.20001220703125</AltitudeMeters>
            <DistanceMeters>NAN</DistanceMeters>
          </Trackpoint>
          <Trackpoint>
            <Time>2020-02-15T11:06:12.000Z</Time>
            <Position>
              <LatitudeDegrees>41.98218922130763530731201171875</LatitudeDegrees>
              <LongitudeDegrees>2.903520762920379638671875</LongitudeDegrees>
            </Position>
            <AltitudeMeters>442.79998779296875</AltitudeMeters>
            <DistanceMeters>NAN</DistanceMeters>
          </Trackpoint>
          <Trackpoint>
            <Time>2020-02-15T11:06:13.000Z</Time>
            <Position>
              <LatitudeDegrees>41.9822012074291706085205078125</LatitudeDegrees>
              <LongitudeDegrees>2.90341054089367389678955078125</LongitudeDegrees>
            </Position>
            <AltitudeMeters>442.399993896484375</AltitudeMeters>
            <DistanceMeters>NAN</DistanceMeters>
          </Trackpoint>
          <Trackpoint>
            <Time>2020-02-15T11:06:14.000Z</Time>
            <Position>
              <LatitudeDegrees>41.9822283647954463958740234375</LatitudeDegrees>
              <LongitudeDegrees>2.903301157057285308837890625</LongitudeDegrees>
            </Position>
            <AltitudeMeters>441.399993896484375</AltitudeMeters>
            <DistanceMeters>NAN</DistanceMeters>
          </Trackpoint>
          <Trackpoint>
            <Time>2020-02-15T11:06:15.000Z</Time>
            <Position>
              <LatitudeDegrees>41.98224789462983608245849609375</LatitudeDegrees>
              <LongitudeDegrees>2.903201244771480560302734375</LongitudeDegrees>
            </Position>
            <AltitudeMeters>440.20001220703125</AltitudeMeters>
            <DistanceMeters>NAN</DistanceMeters>
          </Trackpoint>
          <Trackpoint>
            <Time>2020-02-15T11:06:16.000Z</Time>
            <Position>
              <LatitudeDegrees>41.9822786562144756317138671875</LatitudeDegrees>
              <LongitudeDegrees>2.9031095467507839202880859375</LongitudeDegrees>
            </Position>
            <AltitudeMeters>439.600006103515625</AltitudeMeters>
            <DistanceMeters>NAN</DistanceMeters>
          </Trackpoint>
          <Trackpoint>
            <Time>2020-02-15T11:06:17.000Z</Time>
            <Position>
              <LatitudeDegrees>41.9822984375059604644775390625</LatitudeDegrees>
              <LongitudeDegrees>2.90302312932908535003662109375</LongitudeDegrees>
            </Position>
            <AltitudeMeters>439.20001220703125</AltitudeMeters>
            <DistanceMeters>NAN</DistanceMeters>
          </Trackpoint>
          <Trackpoint>
            <Time>2020-02-15T11:06:18.000Z</Time>
            <Position>
              <LatitudeDegrees>41.98231344111263751983642578125</LatitudeDegrees>
              <LongitudeDegrees>2.90294467471539974212646484375</LongitudeDegrees>
            </Position>
            <AltitudeMeters>438.399993896484375</AltitudeMeters>
            <DistanceMeters>NAN</DistanceMeters>
          </Trackpoint>
          <Trackpoint>
            <Time>2020-02-15T11:06:19.000Z</Time>
            <Position>
              <LatitudeDegrees>41.982322074472904205322265625</LatitudeDegrees>
              <LongitudeDegrees>2.902869321405887603759765625</LongitudeDegrees>
            </Position>
            <AltitudeMeters>438</AltitudeMeters>
            <DistanceMeters>NAN</DistanceMeters>
          </Trackpoint>
          <Trackpoint>
            <Time>2020-02-15T11:06:20.000Z</Time>
            <Position>
              <LatitudeDegrees>41.98233288712799549102783203125</LatitudeDegrees>
              <LongitudeDegrees>2.90280000306665897369384765625</LongitudeDegrees>
            </Position>
            <AltitudeMeters>437.399993896484375</AltitudeMeters>
            <DistanceMeters>NAN</DistanceMeters>
          </Trackpoint>
          <Trackpoint>
            <Time>2020-02-15T11:06:21.000Z</Time>
            <Position>
              <LatitudeDegrees>41.98233372531831264495849609375</LatitudeDegrees>
              <LongitudeDegrees>2.90273780934512615203857421875</LongitudeDegrees>
            </Position>
            <AltitudeMeters>437.20001220703125</AltitudeMeters>
            <DistanceMeters>NAN</DistanceMeters>
          </Trackpoint>
          <Trackpoint>
            <Time>2020-02-15T11:06:22.000Z</Time>
            <Position>
              <LatitudeDegrees>41.98233707807958126068115234375</LatitudeDegrees>
              <LongitudeDegrees>2.902680896222591400146484375</LongitudeDegrees>
            </Position>
            <AltitudeMeters>437</AltitudeMeters>
            <DistanceMeters>NAN</DistanceMeters>
          </Trackpoint>
          <Trackpoint>
            <Time>2020-02-15T11:06:23.000Z</Time>
            <Position>
              <LatitudeDegrees>41.982344873249530792236328125</LatitudeDegrees>
              <LongitudeDegrees>2.9026227258145809173583984375</LongitudeDegrees>
            </Position>
            <AltitudeMeters>436.600006103515625</AltitudeMeters>
            <DistanceMeters>NAN</DistanceMeters>
          </Trackpoint>
          <Trackpoint>
            <Time>2020-02-15T11:06:24.000Z</Time>
            <Position>
              <LatitudeDegrees>41.98234914802014827728271484375</LatitudeDegrees>
              <LongitudeDegrees>2.902565561234951019287109375</LongitudeDegrees>
            </Position>
            <AltitudeMeters>436.600006103515625</AltitudeMeters>
            <DistanceMeters>NAN</DistanceMeters>
          </Trackpoint>
          <Trackpoint>
            <Time>2020-02-15T11:06:25.000Z</Time>
            <Position>
              <LatitudeDegrees>41.9823453761637210845947265625</LatitudeDegrees>
              <LongitudeDegrees>2.902503199875354766845703125</LongitudeDegrees>
            </Position>
            <AltitudeMeters>436.600006103515625</AltitudeMeters>
            <DistanceMeters>NAN</DistanceMeters>
          </Trackpoint>
          <Trackpoint>
            <Time>2020-02-15T11:06:26.000Z</Time>
            <Position>
              <LatitudeDegrees>41.9823403470218181610107421875</LatitudeDegrees>
              <LongitudeDegrees>2.90243824012577533721923828125</LongitudeDegrees>
            </Position>
            <AltitudeMeters>436.600006103515625</AltitudeMeters>
            <DistanceMeters>NAN</DistanceMeters>
          </Trackpoint>
          <Trackpoint>
            <Time>2020-02-15T11:06:29.000Z</Time>
            <Position>
              <LatitudeDegrees>41.98232299648225307464599609375</LatitudeDegrees>
              <LongitudeDegrees>2.902229614555835723876953125</LongitudeDegrees>
            </Position>
            <AltitudeMeters>436.20001220703125</AltitudeMeters>
            <DistanceMeters>NAN</DistanceMeters>
          </Trackpoint>
          <Trackpoint>
            <Time>2020-02-15T11:06:30.000Z</Time>
            <Position>
              <LatitudeDegrees>41.98230992071330547332763671875</LatitudeDegrees>
              <LongitudeDegrees>2.9021595418453216552734375</LongitudeDegrees>
            </Position>
            <AltitudeMeters>436.20001220703125</AltitudeMeters>
            <DistanceMeters>NAN</DistanceMeters>
          </Trackpoint>
          <Trackpoint>
            <Time>2020-02-15T11:06:31.000Z</Time>
            <Position>
              <LatitudeDegrees>41.98230086825788021087646484375</LatitudeDegrees>
              <LongitudeDegrees>2.9020869545638561248779296875</LongitudeDegrees>
            </Position>
            <AltitudeMeters>436</AltitudeMeters>
            <DistanceMeters>NAN</DistanceMeters>
          </Trackpoint>
          <Trackpoint>
            <Time>2020-02-15T11:06:32.000Z</Time>
            <Position>
              <LatitudeDegrees>41.98229684494435787200927734375</LatitudeDegrees>
              <LongitudeDegrees>2.90200841613113880157470703125</LongitudeDegrees>
            </Position>
            <AltitudeMeters>436.20001220703125</AltitudeMeters>
            <DistanceMeters>NAN</DistanceMeters>
          </Trackpoint>
          <Trackpoint>
            <Time>2020-02-15T11:06:33.000Z</Time>
            <Position>
              <LatitudeDegrees>41.9823011197149753570556640625</LatitudeDegrees>
              <LongitudeDegrees>2.90192845277488231658935546875</LongitudeDegrees>
            </Position>
            <AltitudeMeters>436</AltitudeMeters>
            <DistanceMeters>NAN</DistanceMeters>
          </Trackpoint>
          <Trackpoint>
            <Time>2020-02-15T11:06:34.000Z</Time>
            <Position>
              <LatitudeDegrees>41.98231126181781291961669921875</LatitudeDegrees>
              <LongitudeDegrees>2.90184496901929378509521484375</LongitudeDegrees>
            </Position>
            <AltitudeMeters>436</AltitudeMeters>
            <DistanceMeters>NAN</DistanceMeters>
          </Trackpoint>
          <Trackpoint>
            <Time>2020-02-15T11:06:36.000Z</Time>
            <Position>
              <LatitudeDegrees>41.982352919876575469970703125</LatitudeDegrees>
              <LongitudeDegrees>2.901676408946514129638671875</LongitudeDegrees>
            </Position>
            <AltitudeMeters>435.399993896484375</AltitudeMeters>
            <DistanceMeters>NAN</DistanceMeters>
          </Trackpoint>
          <Trackpoint>
            <Time>2020-02-15T11:06:37.000Z</Time>
            <Position>
              <LatitudeDegrees>41.98238317854702472686767578125</LatitudeDegrees>
              <LongitudeDegrees>2.90159317664802074432373046875</LongitudeDegrees>
            </Position>
            <AltitudeMeters>435.20001220703125</AltitudeMeters>
            <DistanceMeters>NAN</DistanceMeters>
          </Trackpoint>
          <Trackpoint>
            <Time>2020-02-15T11:06:40.000Z</Time>
            <Position>
              <LatitudeDegrees>41.98248803615570068359375</LatitudeDegrees>
              <LongitudeDegrees>2.90132311172783374786376953125</LongitudeDegrees>
            </Position>
            <AltitudeMeters>434.20001220703125</AltitudeMeters>
            <DistanceMeters>NAN</DistanceMeters>
          </Trackpoint>
          <Trackpoint>
            <Time>2020-02-15T11:06:41.000Z</Time>
            <Position>
              <LatitudeDegrees>41.98252164758741855621337890625</LatitudeDegrees>
              <LongitudeDegrees>2.90123392827808856964111328125</LongitudeDegrees>
            </Position>
            <AltitudeMeters>434</AltitudeMeters>
            <DistanceMeters>NAN</DistanceMeters>
          </Trackpoint>
          <Trackpoint>
            <Time>2020-02-15T11:06:42.000Z</Time>
            <Position>
              <LatitudeDegrees>41.9825505651533603668212890625</LatitudeDegrees>
              <LongitudeDegrees>2.90114767849445343017578125</LongitudeDegrees>
            </Position>
            <AltitudeMeters>433.600006103515625</AltitudeMeters>
            <DistanceMeters>NAN</DistanceMeters>
          </Trackpoint>
          <Trackpoint>
            <Time>2020-02-15T11:06:43.000Z</Time>
            <Position>
              <LatitudeDegrees>41.9825747050344944000244140625</LatitudeDegrees>
              <LongitudeDegrees>2.9010626859962940216064453125</LongitudeDegrees>
            </Position>
            <AltitudeMeters>433.20001220703125</AltitudeMeters>
            <DistanceMeters>NAN</DistanceMeters>
          </Trackpoint>
          <Trackpoint>
            <Time>2020-02-15T11:06:44.000Z</Time>
            <Position>
              <LatitudeDegrees>41.98259054683148860931396484375</LatitudeDegrees>
              <LongitudeDegrees>2.90097660385072231292724609375</LongitudeDegrees>
            </Position>
            <AltitudeMeters>433</AltitudeMeters>
            <DistanceMeters>NAN</DistanceMeters>
          </Trackpoint>
          <Trackpoint>
            <Time>2020-02-15T11:06:45.000Z</Time>
            <Position>
              <LatitudeDegrees>41.98259809054434299468994140625</LatitudeDegrees>
              <LongitudeDegrees>2.9008908569812774658203125</LongitudeDegrees>
            </Position>
            <AltitudeMeters>432.600006103515625</AltitudeMeters>
            <DistanceMeters>NAN</DistanceMeters>
          </Trackpoint>
          <Trackpoint>
            <Time>2020-02-15T11:06:46.000Z</Time>
            <Position>
              <LatitudeDegrees>41.98259373195469379425048828125</LatitudeDegrees>
              <LongitudeDegrees>2.9008058644831180572509765625</LongitudeDegrees>
            </Position>
            <AltitudeMeters>431.600006103515625</AltitudeMeters>
            <DistanceMeters>NAN</DistanceMeters>
          </Trackpoint>
          <Trackpoint>
            <Time>2020-02-15T11:06:47.000Z</Time>
            <Position>
              <LatitudeDegrees>41.98257428593933582305908203125</LatitudeDegrees>
              <LongitudeDegrees>2.9007233865559101104736328125</LongitudeDegrees>
            </Position>
            <AltitudeMeters>431</AltitudeMeters>
            <DistanceMeters>NAN</DistanceMeters>
          </Trackpoint>
          <Trackpoint>
            <Time>2020-02-15T11:06:48.000Z</Time>
            <Position>
              <LatitudeDegrees>41.9825482182204723358154296875</LatitudeDegrees>
              <LongitudeDegrees>2.90064350701868534088134765625</LongitudeDegrees>
            </Position>
            <AltitudeMeters>430.79998779296875</AltitudeMeters>
            <DistanceMeters>NAN</DistanceMeters>
          </Trackpoint>
          <Trackpoint>
            <Time>2020-02-15T11:06:49.000Z</Time>
            <Position>
              <LatitudeDegrees>41.9825026206672191619873046875</LatitudeDegrees>
              <LongitudeDegrees>2.90057041682302951812744140625</LongitudeDegrees>
            </Position>
            <AltitudeMeters>430.399993896484375</AltitudeMeters>
            <DistanceMeters>NAN</DistanceMeters>
          </Trackpoint>
          <Trackpoint>
            <Time>2020-02-15T11:06:50.000Z</Time>
            <Position>
              <LatitudeDegrees>41.98247303254902362823486328125</LatitudeDegrees>
              <LongitudeDegrees>2.9005071334540843963623046875</LongitudeDegrees>
            </Position>
            <AltitudeMeters>430.20001220703125</AltitudeMeters>
            <DistanceMeters>NAN</DistanceMeters>
          </Trackpoint>
          <Trackpoint>
            <Time>2020-02-15T11:06:51.000Z</Time>
            <Position>
              <LatitudeDegrees>41.98246045969426631927490234375</LatitudeDegrees>
              <LongitudeDegrees>2.90045659057796001434326171875</LongitudeDegrees>
            </Position>
            <AltitudeMeters>430.20001220703125</AltitudeMeters>
            <DistanceMeters>NAN</DistanceMeters>
          </Trackpoint>
          <Trackpoint>
            <Time>2020-02-15T11:06:52.000Z</Time>
            <Position>
              <LatitudeDegrees>41.98246465064585208892822265625</LatitudeDegrees>
              <LongitudeDegrees>2.90042926557362079620361328125</LongitudeDegrees>
            </Position>
            <AltitudeMeters>429.79998779296875</AltitudeMeters>
            <DistanceMeters>NAN</DistanceMeters>
          </Trackpoint>
          <Trackpoint>
            <Time>2020-02-15T11:06:53.000Z</Time>
            <Position>
              <LatitudeDegrees>41.98246733285486698150634765625</LatitudeDegrees>
              <LongitudeDegrees>2.900417782366275787353515625</LongitudeDegrees>
            </Position>
            <AltitudeMeters>429.20001220703125</AltitudeMeters>
            <DistanceMeters>NAN</DistanceMeters>
          </Trackpoint>
          <Trackpoint>
            <Time>2020-02-15T11:06:54.000Z</Time>
            <Position>
              <LatitudeDegrees>41.9824677519500255584716796875</LatitudeDegrees>
              <LongitudeDegrees>2.90041350759565830230712890625</LongitudeDegrees>
            </Position>
            <AltitudeMeters>429</AltitudeMeters>
            <DistanceMeters>NAN</DistanceMeters>
          </Trackpoint>
          <Trackpoint>
            <Time>2020-02-15T11:06:55.000Z</Time>
            <Position>
              <LatitudeDegrees>41.98246934451162815093994140625</LatitudeDegrees>
              <LongitudeDegrees>2.9004105739295482635498046875</LongitudeDegrees>
            </Position>
            <AltitudeMeters>428.600006103515625</AltitudeMeters>
            <DistanceMeters>NAN</DistanceMeters>
          </Trackpoint>
          <Trackpoint>
            <Time>2020-02-15T11:06:57.000Z</Time>
            <Position>
              <LatitudeDegrees>41.9824679195880889892578125</LatitudeDegrees>
              <LongitudeDegrees>2.900409065186977386474609375</LongitudeDegrees>
            </Position>
            <AltitudeMeters>428</AltitudeMeters>
            <DistanceMeters>NAN</DistanceMeters>
          </Trackpoint>
          <Trackpoint>
            <Time>2020-02-15T11:07:00.000Z</Time>
            <Position>
              <LatitudeDegrees>41.98247521184384822845458984375</LatitudeDegrees>
              <LongitudeDegrees>2.90039020590484142303466796875</LongitudeDegrees>
            </Position>
            <AltitudeMeters>425.600006103515625</AltitudeMeters>
            <DistanceMeters>NAN</DistanceMeters>
          </Trackpoint>
          <Trackpoint>
            <Time>2020-02-15T11:07:01.000Z</Time>
            <Position>
              <LatitudeDegrees>41.9824851863086223602294921875</LatitudeDegrees>
              <LongitudeDegrees>2.9003643058240413665771484375</LongitudeDegrees>
            </Position>
            <AltitudeMeters>425.20001220703125</AltitudeMeters>
            <DistanceMeters>NAN</DistanceMeters>
          </Trackpoint>
          <Trackpoint>
            <Time>2020-02-15T11:07:02.000Z</Time>
            <Position>
              <LatitudeDegrees>41.98249449022114276885986328125</LatitudeDegrees>
              <LongitudeDegrees>2.90033706463873386383056640625</LongitudeDegrees>
            </Position>
            <AltitudeMeters>424.79998779296875</AltitudeMeters>
            <DistanceMeters>NAN</DistanceMeters>
          </Trackpoint>
          <Trackpoint>
            <Time>2020-02-15T11:07:03.000Z</Time>
            <Position>
              <LatitudeDegrees>41.9825083203613758087158203125</LatitudeDegrees>
              <LongitudeDegrees>2.9003088176250457763671875</LongitudeDegrees>
            </Position>
            <AltitudeMeters>424.79998779296875</AltitudeMeters>
            <DistanceMeters>NAN</DistanceMeters>
          </Trackpoint>
          <Trackpoint>
            <Time>2020-02-15T11:07:04.000Z</Time>
            <Position>
              <LatitudeDegrees>41.98252835310995578765869140625</LatitudeDegrees>
              <LongitudeDegrees>2.900280654430389404296875</LongitudeDegrees>
            </Position>
            <AltitudeMeters>424.600006103515625</AltitudeMeters>
            <DistanceMeters>NAN</DistanceMeters>
          </Trackpoint>
          <Trackpoint>
            <Time>2020-02-15T11:07:05.000Z</Time>
            <Position>
              <LatitudeDegrees>41.98255710303783416748046875</LatitudeDegrees>
              <LongitudeDegrees>2.90024511516094207763671875</LongitudeDegrees>
            </Position>
            <AltitudeMeters>424.600006103515625</AltitudeMeters>
            <DistanceMeters>NAN</DistanceMeters>
          </Trackpoint>
          <Trackpoint>
            <Time>2020-02-15T11:07:06.000Z</Time>
            <Position>
              <LatitudeDegrees>41.98257931508123874664306640625</LatitudeDegrees>
              <LongitudeDegrees>2.90021133609116077423095703125</LongitudeDegrees>
            </Position>
            <AltitudeMeters>424.600006103515625</AltitudeMeters>
            <DistanceMeters>NAN</DistanceMeters>
          </Trackpoint>
          <Trackpoint>
            <Time>2020-02-15T11:07:07.000Z</Time>
            <Position>
              <LatitudeDegrees>41.98260672390460968017578125</LatitudeDegrees>
              <LongitudeDegrees>2.90016925893723964691162109375</LongitudeDegrees>
            </Position>
            <AltitudeMeters>424.600006103515625</AltitudeMeters>
            <DistanceMeters>NAN</DistanceMeters>
          </Trackpoint>
          <Trackpoint>
            <Time>2020-02-15T11:07:08.000Z</Time>
            <Position>
              <LatitudeDegrees>41.9826422631740570068359375</LatitudeDegrees>
              <LongitudeDegrees>2.90011762641370296478271484375</LongitudeDegrees>
            </Position>
            <AltitudeMeters>424.399993896484375</AltitudeMeters>
            <DistanceMeters>NAN</DistanceMeters>
          </Trackpoint>
          <Trackpoint>
            <Time>2020-02-15T11:07:10.000Z</Time>
            <Position>
              <LatitudeDegrees>41.98270554654300212860107421875</LatitudeDegrees>
              <LongitudeDegrees>2.9000112600624561309814453125</LongitudeDegrees>
            </Position>
            <AltitudeMeters>424.20001220703125</AltitudeMeters>
            <DistanceMeters>NAN</DistanceMeters>
          </Trackpoint>
          <Trackpoint>
            <Time>2020-02-15T11:07:11.000Z</Time>
            <Position>
              <LatitudeDegrees>41.9827215559780597686767578125</LatitudeDegrees>
              <LongitudeDegrees>2.89996507577598094940185546875</LongitudeDegrees>
            </Position>
            <AltitudeMeters>423.79998779296875</AltitudeMeters>
            <DistanceMeters>NAN</DistanceMeters>
          </Trackpoint>
          <Trackpoint>
            <Time>2020-02-15T11:07:12.000Z</Time>
            <Position>
              <LatitudeDegrees>41.98273505084216594696044921875</LatitudeDegrees>
              <LongitudeDegrees>2.89992752484977245330810546875</LongitudeDegrees>
            </Position>
            <AltitudeMeters>423.79998779296875</AltitudeMeters>
            <DistanceMeters>NAN</DistanceMeters>
          </Trackpoint>
          <Trackpoint>
            <Time>2020-02-15T11:07:13.000Z</Time>
            <Position>
              <LatitudeDegrees>41.98274192400276660919189453125</LatitudeDegrees>
              <LongitudeDegrees>2.89989416487514972686767578125</LongitudeDegrees>
            </Position>
            <AltitudeMeters>423.399993896484375</AltitudeMeters>
            <DistanceMeters>NAN</DistanceMeters>
          </Trackpoint>
          <Trackpoint>
            <Time>2020-02-15T11:07:14.000Z</Time>
            <Position>
              <LatitudeDegrees>41.98275416158139705657958984375</LatitudeDegrees>
              <LongitudeDegrees>2.89986700750887393951416015625</LongitudeDegrees>
            </Position>
            <AltitudeMeters>422.20001220703125</AltitudeMeters>
            <DistanceMeters>NAN</DistanceMeters>
          </Trackpoint>
          <Trackpoint>
            <Time>2020-02-15T11:07:15.000Z</Time>
            <Position>
              <LatitudeDegrees>41.982770673930644989013671875</LatitudeDegrees>
              <LongitudeDegrees>2.89984521456062793731689453125</LongitudeDegrees>
            </Position>
            <AltitudeMeters>421.20001220703125</AltitudeMeters>
            <DistanceMeters>NAN</DistanceMeters>
          </Trackpoint>
          <Trackpoint>
            <Time>2020-02-15T11:07:16.000Z</Time>
            <Position>
              <LatitudeDegrees>41.98278701864182949066162109375</LatitudeDegrees>
              <LongitudeDegrees>2.8998325578868389129638671875</LongitudeDegrees>
            </Position>
            <AltitudeMeters>419.600006103515625</AltitudeMeters>
            <DistanceMeters>NAN</DistanceMeters>
          </Trackpoint>
          <Trackpoint>
            <Time>2020-02-15T11:07:17.000Z</Time>
            <Position>
              <LatitudeDegrees>41.98280562646687030792236328125</LatitudeDegrees>
              <LongitudeDegrees>2.89981956593692302703857421875</LongitudeDegrees>
            </Position>
            <AltitudeMeters>418.79998779296875</AltitudeMeters>
            <DistanceMeters>NAN</DistanceMeters>
          </Trackpoint>
          <Trackpoint>
            <Time>2020-02-15T11:07:18.000Z</Time>
            <Position>
              <LatitudeDegrees>41.98282440192997455596923828125</LatitudeDegrees>
              <LongitudeDegrees>2.8998104296624660491943359375</LongitudeDegrees>
            </Position>
            <AltitudeMeters>417.79998779296875</AltitudeMeters>
            <DistanceMeters>NAN</DistanceMeters>
          </Trackpoint>
          <Trackpoint>
            <Time>2020-02-15T11:07:19.000Z</Time>
            <Position>
              <LatitudeDegrees>41.98284368030726909637451171875</LatitudeDegrees>
              <LongitudeDegrees>2.89980682544410228729248046875</LongitudeDegrees>
            </Position>
            <AltitudeMeters>416.79998779296875</AltitudeMeters>
            <DistanceMeters>NAN</DistanceMeters>
          </Trackpoint>
          <Trackpoint>
            <Time>2020-02-15T11:07:20.000Z</Time>
            <Position>
              <LatitudeDegrees>41.98286782018840312957763671875</LatitudeDegrees>
              <LongitudeDegrees>2.89980079047381877899169921875</LongitudeDegrees>
            </Position>
            <AltitudeMeters>416</AltitudeMeters>
            <DistanceMeters>NAN</DistanceMeters>
          </Trackpoint>
          <Trackpoint>
            <Time>2020-02-15T11:07:21.000Z</Time>
            <Position>
              <LatitudeDegrees>41.98289581574499607086181640625</LatitudeDegrees>
              <LongitudeDegrees>2.899792492389678955078125</LongitudeDegrees>
            </Position>
            <AltitudeMeters>415.600006103515625</AltitudeMeters>
            <DistanceMeters>NAN</DistanceMeters>
          </Trackpoint>
          <Trackpoint>
            <Time>2020-02-15T11:07:23.000Z</Time>
            <Position>
              <LatitudeDegrees>41.9829555787146091461181640625</LatitudeDegrees>
              <LongitudeDegrees>2.89977438747882843017578125</LongitudeDegrees>
            </Position>
            <AltitudeMeters>415</AltitudeMeters>
            <DistanceMeters>NAN</DistanceMeters>
          </Trackpoint>
          <Trackpoint>
            <Time>2020-02-15T11:07:24.000Z</Time>
            <Position>
              <LatitudeDegrees>41.98297997005283832550048828125</LatitudeDegrees>
              <LongitudeDegrees>2.89976810105144977569580078125</LongitudeDegrees>
            </Position>
            <AltitudeMeters>414.399993896484375</AltitudeMeters>
            <DistanceMeters>NAN</DistanceMeters>
          </Trackpoint>
          <Trackpoint>
            <Time>2020-02-15T11:07:25.000Z</Time>
            <Position>
              <LatitudeDegrees>41.98300008662045001983642578125</LatitudeDegrees>
              <LongitudeDegrees>2.8997621499001979827880859375</LongitudeDegrees>
            </Position>
            <AltitudeMeters>413.79998779296875</AltitudeMeters>
            <DistanceMeters>NAN</DistanceMeters>
          </Trackpoint>
          <Trackpoint>
            <Time>2020-02-15T11:07:26.000Z</Time>
            <Position>
              <LatitudeDegrees>41.9830165989696979522705078125</LatitudeDegrees>
              <LongitudeDegrees>2.8997561149299144744873046875</LongitudeDegrees>
            </Position>
            <AltitudeMeters>413.399993896484375</AltitudeMeters>
            <DistanceMeters>NAN</DistanceMeters>
          </Trackpoint>
          <Trackpoint>
            <Time>2020-02-15T11:07:27.000Z</Time>
            <Position>
              <LatitudeDegrees>41.983027495443820953369140625</LatitudeDegrees>
              <LongitudeDegrees>2.89974932558834552764892578125</LongitudeDegrees>
            </Position>
            <AltitudeMeters>412.79998779296875</AltitudeMeters>
            <DistanceMeters>NAN</DistanceMeters>
          </Trackpoint>
          <Trackpoint>
            <Time>2020-02-15T11:07:28.000Z</Time>
            <Position>
              <LatitudeDegrees>41.98303394950926303863525390625</LatitudeDegrees>
              <LongitudeDegrees>2.89974488317966461181640625</LongitudeDegrees>
            </Position>
            <AltitudeMeters>412.20001220703125</AltitudeMeters>
            <DistanceMeters>NAN</DistanceMeters>
          </Trackpoint>
          <Trackpoint>
            <Time>2020-02-15T11:07:30.000Z</Time>
            <Position>
              <LatitudeDegrees>41.98304350487887859344482421875</LatitudeDegrees>
              <LongitudeDegrees>2.8997390158474445343017578125</LongitudeDegrees>
            </Position>
            <AltitudeMeters>410.399993896484375</AltitudeMeters>
            <DistanceMeters>NAN</DistanceMeters>
          </Trackpoint>
          <Trackpoint>
            <Time>2020-02-15T11:07:38.000Z</Time>
            <Position>
              <LatitudeDegrees>41.9830544851720333099365234375</LatitudeDegrees>
              <LongitudeDegrees>2.89973692037165164947509765625</LongitudeDegrees>
            </Position>
            <AltitudeMeters>407.399993896484375</AltitudeMeters>
            <DistanceMeters>NAN</DistanceMeters>
          </Trackpoint>
          <Trackpoint>
            <Time>2020-02-15T11:07:41.000Z</Time>
            <Position>
              <LatitudeDegrees>41.98306093923747539520263671875</LatitudeDegrees>
              <LongitudeDegrees>2.899735160171985626220703125</LongitudeDegrees>
            </Position>
            <AltitudeMeters>407.20001220703125</AltitudeMeters>
            <DistanceMeters>NAN</DistanceMeters>
          </Trackpoint>
          <Trackpoint>
            <Time>2020-02-15T11:07:46.000Z</Time>
            <Position>
              <LatitudeDegrees>41.9830638729035854339599609375</LatitudeDegrees>
              <LongitudeDegrees>2.89973390288650989532470703125</LongitudeDegrees>
            </Position>
            <AltitudeMeters>407.20001220703125</AltitudeMeters>
            <DistanceMeters>NAN</DistanceMeters>
          </Trackpoint>
          <Trackpoint>
            <Time>2020-02-15T11:07:50.000Z</Time>
            <Position>
              <LatitudeDegrees>41.98306328617036342620849609375</LatitudeDegrees>
              <LongitudeDegrees>2.89973306469619274139404296875</LongitudeDegrees>
            </Position>
            <AltitudeMeters>407.20001220703125</AltitudeMeters>
            <DistanceMeters>NAN</DistanceMeters>
          </Trackpoint>
          <Trackpoint>
            <Time>2020-02-15T11:08:04.000Z</Time>
            <Position>
              <LatitudeDegrees>41.9830642081797122955322265625</LatitudeDegrees>
              <LongitudeDegrees>2.8997319750487804412841796875</LongitudeDegrees>
            </Position>
            <AltitudeMeters>407.399993896484375</AltitudeMeters>
            <DistanceMeters>NAN</DistanceMeters>
          </Trackpoint>
          <Trackpoint>
            <Time>2020-02-15T11:08:09.000Z</Time>
            <Position>
              <LatitudeDegrees>41.9830642081797122955322265625</LatitudeDegrees>
              <LongitudeDegrees>2.899731807410717010498046875</LongitudeDegrees>
            </Position>
            <AltitudeMeters>407.399993896484375</AltitudeMeters>
            <DistanceMeters>NAN</DistanceMeters>
          </Trackpoint>
          <Trackpoint>
            <Time>2020-02-15T11:08:17.000Z</Time>
            <Position>
              <LatitudeDegrees>41.9830642081797122955322265625</LatitudeDegrees>
              <LongitudeDegrees>2.89973205886781215667724609375</LongitudeDegrees>
            </Position>
            <AltitudeMeters>407.20001220703125</AltitudeMeters>
            <DistanceMeters>NAN</DistanceMeters>
          </Trackpoint>
          <Trackpoint>
            <Time>2020-02-15T11:08:19.000Z</Time>
            <Position>
              <LatitudeDegrees>41.983064375817775726318359375</LatitudeDegrees>
              <LongitudeDegrees>2.89973172359168529510498046875</LongitudeDegrees>
            </Position>
            <AltitudeMeters>407.20001220703125</AltitudeMeters>
            <DistanceMeters>NAN</DistanceMeters>
          </Trackpoint>
          <Trackpoint>
            <Time>2020-02-15T11:08:32.000Z</Time>
            <Position>
              <LatitudeDegrees>41.9830642081797122955322265625</LatitudeDegrees>
              <LongitudeDegrees>2.89973122067749500274658203125</LongitudeDegrees>
            </Position>
            <AltitudeMeters>407.399993896484375</AltitudeMeters>
            <DistanceMeters>NAN</DistanceMeters>
          </Trackpoint>
          <Trackpoint>
            <Time>2020-02-15T11:08:35.000Z</Time>
            <Position>
              <LatitudeDegrees>41.98306429199874401092529296875</LatitudeDegrees>
              <LongitudeDegrees>2.89973147213459014892578125</LongitudeDegrees>
            </Position>
            <AltitudeMeters>407.20001220703125</AltitudeMeters>
            <DistanceMeters>NAN</DistanceMeters>
          </Trackpoint>
          <Trackpoint>
            <Time>2020-02-15T11:08:41.000Z</Time>
            <Position>
              <LatitudeDegrees>41.9830709137022495269775390625</LatitudeDegrees>
              <LongitudeDegrees>2.89973323233425617218017578125</LongitudeDegrees>
            </Position>
            <AltitudeMeters>407</AltitudeMeters>
            <DistanceMeters>NAN</DistanceMeters>
          </Trackpoint>
          <Trackpoint>
            <Time>2020-02-15T11:08:42.000Z</Time>
            <Position>
              <LatitudeDegrees>41.98308524675667285919189453125</LatitudeDegrees>
              <LongitudeDegrees>2.89973440580070018768310546875</LongitudeDegrees>
            </Position>
            <AltitudeMeters>407.20001220703125</AltitudeMeters>
            <DistanceMeters>NAN</DistanceMeters>
          </Trackpoint>
          <Trackpoint>
            <Time>2020-02-15T11:08:43.000Z</Time>
            <Position>
              <LatitudeDegrees>41.9831034354865550994873046875</LatitudeDegrees>
              <LongitudeDegrees>2.899731807410717010498046875</LongitudeDegrees>
            </Position>
            <AltitudeMeters>407.20001220703125</AltitudeMeters>
            <DistanceMeters>NAN</DistanceMeters>
          </Trackpoint>
          <Trackpoint>
            <Time>2020-02-15T11:08:44.000Z</Time>
            <Position>
              <LatitudeDegrees>41.9831248931586742401123046875</LatitudeDegrees>
              <LongitudeDegrees>2.89972367696464061737060546875</LongitudeDegrees>
            </Position>
            <AltitudeMeters>407</AltitudeMeters>
            <DistanceMeters>NAN</DistanceMeters>
          </Trackpoint>
          <Trackpoint>
            <Time>2020-02-15T11:08:45.000Z</Time>
            <Position>
              <LatitudeDegrees>41.98314676992595195770263671875</LatitudeDegrees>
              <LongitudeDegrees>2.8997131995856761932373046875</LongitudeDegrees>
            </Position>
            <AltitudeMeters>407</AltitudeMeters>
            <DistanceMeters>NAN</DistanceMeters>
          </Trackpoint>
          <Trackpoint>
            <Time>2020-02-15T11:08:46.000Z</Time>
            <Position>
              <LatitudeDegrees>41.98317476548254489898681640625</LatitudeDegrees>
              <LongitudeDegrees>2.899701297283172607421875</LongitudeDegrees>
            </Position>
            <AltitudeMeters>407</AltitudeMeters>
            <DistanceMeters>NAN</DistanceMeters>
          </Trackpoint>
          <Trackpoint>
            <Time>2020-02-15T11:08:47.000Z</Time>
            <Position>
              <LatitudeDegrees>41.983211226761341094970703125</LatitudeDegrees>
              <LongitudeDegrees>2.89969258010387420654296875</LongitudeDegrees>
            </Position>
            <AltitudeMeters>407</AltitudeMeters>
            <DistanceMeters>NAN</DistanceMeters>
          </Trackpoint>
          <Trackpoint>
            <Time>2020-02-15T11:08:48.000Z</Time>
            <Position>
              <LatitudeDegrees>41.98325606994330883026123046875</LatitudeDegrees>
              <LongitudeDegrees>2.899687550961971282958984375</LongitudeDegrees>
            </Position>
            <AltitudeMeters>407</AltitudeMeters>
            <DistanceMeters>NAN</DistanceMeters>
          </Trackpoint>
          <Trackpoint>
            <Time>2020-02-15T11:08:50.000Z</Time>
            <Position>
              <LatitudeDegrees>41.9833569042384624481201171875</LatitudeDegrees>
              <LongitudeDegrees>2.89967824704945087432861328125</LongitudeDegrees>
            </Position>
            <AltitudeMeters>407</AltitudeMeters>
            <DistanceMeters>NAN</DistanceMeters>
          </Trackpoint>
          <Trackpoint>
            <Time>2020-02-15T11:08:52.000Z</Time>
            <Position>
              <LatitudeDegrees>41.98345589451491832733154296875</LatitudeDegrees>
              <LongitudeDegrees>2.89967522956430912017822265625</LongitudeDegrees>
            </Position>
            <AltitudeMeters>407</AltitudeMeters>
            <DistanceMeters>NAN</DistanceMeters>
          </Trackpoint>
          <Trackpoint>
            <Time>2020-02-15T11:08:53.000Z</Time>
            <Position>
              <LatitudeDegrees>41.983501911163330078125</LatitudeDegrees>
              <LongitudeDegrees>2.899664081633090972900390625</LongitudeDegrees>
            </Position>
            <AltitudeMeters>406.79998779296875</AltitudeMeters>
            <DistanceMeters>NAN</DistanceMeters>
          </Trackpoint>
          <Trackpoint>
            <Time>2020-02-15T11:08:54.000Z</Time>
            <Position>
              <LatitudeDegrees>41.9835436530411243438720703125</LatitudeDegrees>
              <LongitudeDegrees>2.899645976722240447998046875</LongitudeDegrees>
            </Position>
            <AltitudeMeters>406.79998779296875</AltitudeMeters>
            <DistanceMeters>NAN</DistanceMeters>
          </Trackpoint>
          <Trackpoint>
            <Time>2020-02-15T11:08:55.000Z</Time>
            <Position>
              <LatitudeDegrees>41.9835783541202545166015625</LatitudeDegrees>
              <LongitudeDegrees>2.8996243514120578765869140625</LongitudeDegrees>
            </Position>
            <AltitudeMeters>406.79998779296875</AltitudeMeters>
            <DistanceMeters>NAN</DistanceMeters>
          </Trackpoint>
          <Trackpoint>
            <Time>2020-02-15T11:08:56.000Z</Time>
            <Position>
              <LatitudeDegrees>41.98359780013561248779296875</LatitudeDegrees>
              <LongitudeDegrees>2.8995995409786701202392578125</LongitudeDegrees>
            </Position>
            <AltitudeMeters>406.79998779296875</AltitudeMeters>
            <DistanceMeters>NAN</DistanceMeters>
          </Trackpoint>
          <Trackpoint>
            <Time>2020-02-15T11:08:57.000Z</Time>
            <Position>
              <LatitudeDegrees>41.98361028917133808135986328125</LatitudeDegrees>
              <LongitudeDegrees>2.8995733894407749176025390625</LongitudeDegrees>
            </Position>
            <AltitudeMeters>406.79998779296875</AltitudeMeters>
            <DistanceMeters>NAN</DistanceMeters>
          </Trackpoint>
          <Trackpoint>
            <Time>2020-02-15T11:08:58.000Z</Time>
            <Position>
              <LatitudeDegrees>41.9836194254457950592041015625</LatitudeDegrees>
              <LongitudeDegrees>2.89954799227416515350341796875</LongitudeDegrees>
            </Position>
            <AltitudeMeters>406.79998779296875</AltitudeMeters>
            <DistanceMeters>NAN</DistanceMeters>
          </Trackpoint>
          <Trackpoint>
            <Time>2020-02-15T11:08:59.000Z</Time>
            <Position>
              <LatitudeDegrees>41.983627639710903167724609375</LatitudeDegrees>
              <LongitudeDegrees>2.8995229303836822509765625</LongitudeDegrees>
            </Position>
            <AltitudeMeters>406.79998779296875</AltitudeMeters>
            <DistanceMeters>NAN</DistanceMeters>
          </Trackpoint>
          <Trackpoint>
            <Time>2020-02-15T11:09:00.000Z</Time>
            <Position>
              <LatitudeDegrees>41.98363778181374073028564453125</LatitudeDegrees>
              <LongitudeDegrees>2.89949719794094562530517578125</LongitudeDegrees>
            </Position>
            <AltitudeMeters>406.79998779296875</AltitudeMeters>
            <DistanceMeters>NAN</DistanceMeters>
          </Trackpoint>
          <Trackpoint>
            <Time>2020-02-15T11:09:01.000Z</Time>
            <Position>
              <LatitudeDegrees>41.98364566080272197723388671875</LatitudeDegrees>
              <LongitudeDegrees>2.8994748182594776153564453125</LongitudeDegrees>
            </Position>
            <AltitudeMeters>406.79998779296875</AltitudeMeters>
            <DistanceMeters>NAN</DistanceMeters>
          </Trackpoint>
          <Trackpoint>
            <Time>2020-02-15T11:09:02.000Z</Time>
            <Position>
              <LatitudeDegrees>41.98365454562008380889892578125</LatitudeDegrees>
              <LongitudeDegrees>2.8994536958634853363037109375</LongitudeDegrees>
            </Position>
            <AltitudeMeters>406.79998779296875</AltitudeMeters>
            <DistanceMeters>NAN</DistanceMeters>
          </Trackpoint>
          <Trackpoint>
            <Time>2020-02-15T11:09:03.000Z</Time>
            <Position>
              <LatitudeDegrees>41.9836656935513019561767578125</LatitudeDegrees>
              <LongitudeDegrees>2.899434082210063934326171875</LongitudeDegrees>
            </Position>
            <AltitudeMeters>406.79998779296875</AltitudeMeters>
            <DistanceMeters>NAN</DistanceMeters>
          </Trackpoint>
          <Trackpoint>
            <Time>2020-02-15T11:09:04.000Z</Time>
            <Position>
              <LatitudeDegrees>41.98367516510188579559326171875</LatitudeDegrees>
              <LongitudeDegrees>2.89941522292792797088623046875</LongitudeDegrees>
            </Position>
            <AltitudeMeters>406.79998779296875</AltitudeMeters>
            <DistanceMeters>NAN</DistanceMeters>
          </Trackpoint>
          <Trackpoint>
            <Time>2020-02-15T11:09:05.000Z</Time>
            <Position>
              <LatitudeDegrees>41.98368488810956478118896484375</LatitudeDegrees>
              <LongitudeDegrees>2.89939619600772857666015625</LongitudeDegrees>
            </Position>
            <AltitudeMeters>406.79998779296875</AltitudeMeters>
            <DistanceMeters>NAN</DistanceMeters>
          </Trackpoint>
          <Trackpoint>
            <Time>2020-02-15T11:09:06.000Z</Time>
            <Position>
              <LatitudeDegrees>41.98369570076465606689453125</LatitudeDegrees>
              <LongitudeDegrees>2.899376414716243743896484375</LongitudeDegrees>
            </Position>
            <AltitudeMeters>406.79998779296875</AltitudeMeters>
            <DistanceMeters>NAN</DistanceMeters>
          </Trackpoint>
          <Trackpoint>
            <Time>2020-02-15T11:09:07.000Z</Time>
            <Position>
              <LatitudeDegrees>41.983710117638111114501953125</LatitudeDegrees>
              <LongitudeDegrees>2.89935235865414142608642578125</LongitudeDegrees>
            </Position>
            <AltitudeMeters>406.79998779296875</AltitudeMeters>
            <DistanceMeters>NAN</DistanceMeters>
          </Trackpoint>
          <Trackpoint>
            <Time>2020-02-15T11:09:08.000Z</Time>
            <Position>
              <LatitudeDegrees>41.9837236963212490081787109375</LatitudeDegrees>
              <LongitudeDegrees>2.899328805506229400634765625</LongitudeDegrees>
            </Position>
            <AltitudeMeters>407</AltitudeMeters>
            <DistanceMeters>NAN</DistanceMeters>
          </Trackpoint>
          <Trackpoint>
            <Time>2020-02-15T11:09:09.000Z</Time>
            <Position>
              <LatitudeDegrees>41.983736269176006317138671875</LatitudeDegrees>
              <LongitudeDegrees>2.89930324070155620574951171875</LongitudeDegrees>
            </Position>
            <AltitudeMeters>407.20001220703125</AltitudeMeters>
            <DistanceMeters>NAN</DistanceMeters>
          </Trackpoint>
          <Trackpoint>
            <Time>2020-02-15T11:09:10.000Z</Time>
            <Position>
              <LatitudeDegrees>41.98374741710722446441650390625</LatitudeDegrees>
              <LongitudeDegrees>2.8992803581058979034423828125</LongitudeDegrees>
            </Position>
            <AltitudeMeters>407.399993896484375</AltitudeMeters>
            <DistanceMeters>NAN</DistanceMeters>
          </Trackpoint>
          <Trackpoint>
            <Time>2020-02-15T11:09:11.000Z</Time>
            <Position>
              <LatitudeDegrees>41.98376141488552093505859375</LatitudeDegrees>
              <LongitudeDegrees>2.89925931952893733978271484375</LongitudeDegrees>
            </Position>
            <AltitudeMeters>407.600006103515625</AltitudeMeters>
            <DistanceMeters>NAN</DistanceMeters>
          </Trackpoint>
          <Trackpoint>
            <Time>2020-02-15T11:09:12.000Z</Time>
            <Position>
              <LatitudeDegrees>41.98378077708184719085693359375</LatitudeDegrees>
              <LongitudeDegrees>2.89923928678035736083984375</LongitudeDegrees>
            </Position>
            <AltitudeMeters>407.79998779296875</AltitudeMeters>
            <DistanceMeters>NAN</DistanceMeters>
          </Trackpoint>
          <Trackpoint>
            <Time>2020-02-15T11:09:13.000Z</Time>
            <Position>
              <LatitudeDegrees>41.98380273766815662384033203125</LatitudeDegrees>
              <LongitudeDegrees>2.8992200084030628204345703125</LongitudeDegrees>
            </Position>
            <AltitudeMeters>408.399993896484375</AltitudeMeters>
            <DistanceMeters>NAN</DistanceMeters>
          </Trackpoint>
          <Trackpoint>
            <Time>2020-02-15T11:09:14.000Z</Time>
            <Position>
              <LatitudeDegrees>41.98382578790187835693359375</LatitudeDegrees>
              <LongitudeDegrees>2.8992010653018951416015625</LongitudeDegrees>
            </Position>
            <AltitudeMeters>408.399993896484375</AltitudeMeters>
            <DistanceMeters>NAN</DistanceMeters>
          </Trackpoint>
          <Trackpoint>
            <Time>2020-02-15T11:09:15.000Z</Time>
            <Position>
              <LatitudeDegrees>41.98384984396398067474365234375</LatitudeDegrees>
              <LongitudeDegrees>2.89918430149555206298828125</LongitudeDegrees>
            </Position>
            <AltitudeMeters>408.600006103515625</AltitudeMeters>
            <DistanceMeters>NAN</DistanceMeters>
          </Trackpoint>
          <Trackpoint>
            <Time>2020-02-15T11:09:16.000Z</Time>
            <Position>
              <LatitudeDegrees>41.98387415148317813873291015625</LatitudeDegrees>
              <LongitudeDegrees>2.89916795678436756134033203125</LongitudeDegrees>
            </Position>
            <AltitudeMeters>409</AltitudeMeters>
            <DistanceMeters>NAN</DistanceMeters>
          </Trackpoint>
          <Trackpoint>
            <Time>2020-02-15T11:09:17.000Z</Time>
            <Position>
              <LatitudeDegrees>41.983899213373661041259765625</LatitudeDegrees>
              <LongitudeDegrees>2.89914716966450214385986328125</LongitudeDegrees>
            </Position>
            <AltitudeMeters>409.20001220703125</AltitudeMeters>
            <DistanceMeters>NAN</DistanceMeters>
          </Trackpoint>
          <Trackpoint>
            <Time>2020-02-15T11:09:18.000Z</Time>
            <Position>
              <LatitudeDegrees>41.98392259888350963592529296875</LatitudeDegrees>
              <LongitudeDegrees>2.89912571199238300323486328125</LongitudeDegrees>
            </Position>
            <AltitudeMeters>409.399993896484375</AltitudeMeters>
            <DistanceMeters>NAN</DistanceMeters>
          </Trackpoint>
          <Trackpoint>
            <Time>2020-02-15T11:09:19.000Z</Time>
            <Position>
              <LatitudeDegrees>41.98394715785980224609375</LatitudeDegrees>
              <LongitudeDegrees>2.89910559542477130889892578125</LongitudeDegrees>
            </Position>
            <AltitudeMeters>409.600006103515625</AltitudeMeters>
            <DistanceMeters>NAN</DistanceMeters>
          </Trackpoint>
          <Trackpoint>
            <Time>2020-02-15T11:09:20.000Z</Time>
            <Position>
              <LatitudeDegrees>41.98397339321672916412353515625</LatitudeDegrees>
              <LongitudeDegrees>2.89908681996166706085205078125</LongitudeDegrees>
            </Position>
            <AltitudeMeters>409.79998779296875</AltitudeMeters>
            <DistanceMeters>NAN</DistanceMeters>
          </Trackpoint>
          <Trackpoint>
            <Time>2020-02-15T11:09:21.000Z</Time>
            <Position>
              <LatitudeDegrees>41.98399837128818035125732421875</LatitudeDegrees>
              <LongitudeDegrees>2.8990634344518184661865234375</LongitudeDegrees>
            </Position>
            <AltitudeMeters>409.79998779296875</AltitudeMeters>
            <DistanceMeters>NAN</DistanceMeters>
          </Trackpoint>
          <Trackpoint>
            <Time>2020-02-15T11:09:22.000Z</Time>
            <Position>
              <LatitudeDegrees>41.98401890695095062255859375</LatitudeDegrees>
              <LongitudeDegrees>2.89904373697936534881591796875</LongitudeDegrees>
            </Position>
            <AltitudeMeters>409.79998779296875</AltitudeMeters>
            <DistanceMeters>NAN</DistanceMeters>
          </Trackpoint>
          <Trackpoint>
            <Time>2020-02-15T11:09:23.000Z</Time>
            <Position>
              <LatitudeDegrees>41.98403357528150081634521484375</LatitudeDegrees>
              <LongitudeDegrees>2.89902278222143650054931640625</LongitudeDegrees>
            </Position>
            <AltitudeMeters>410</AltitudeMeters>
            <DistanceMeters>NAN</DistanceMeters>
          </Trackpoint>
          <Trackpoint>
            <Time>2020-02-15T11:09:24.000Z</Time>
            <Position>
              <LatitudeDegrees>41.9840482436120510101318359375</LatitudeDegrees>
              <LongitudeDegrees>2.899000234901905059814453125</LongitudeDegrees>
            </Position>
            <AltitudeMeters>410.399993896484375</AltitudeMeters>
            <DistanceMeters>NAN</DistanceMeters>
          </Trackpoint>
          <Trackpoint>
            <Time>2020-02-15T11:09:25.000Z</Time>
            <Position>
              <LatitudeDegrees>41.9840609841048717498779296875</LatitudeDegrees>
              <LongitudeDegrees>2.89897567592561244964599609375</LongitudeDegrees>
            </Position>
            <AltitudeMeters>410.79998779296875</AltitudeMeters>
            <DistanceMeters>NAN</DistanceMeters>
          </Trackpoint>
          <Trackpoint>
            <Time>2020-02-15T11:09:26.000Z</Time>
            <Position>
              <LatitudeDegrees>41.98407129384577274322509765625</LatitudeDegrees>
              <LongitudeDegrees>2.8989487700164318084716796875</LongitudeDegrees>
            </Position>
            <AltitudeMeters>411</AltitudeMeters>
            <DistanceMeters>NAN</DistanceMeters>
          </Trackpoint>
          <Trackpoint>
            <Time>2020-02-15T11:09:27.000Z</Time>
            <Position>
              <LatitudeDegrees>41.984079591929912567138671875</LatitudeDegrees>
              <LongitudeDegrees>2.898919098079204559326171875</LongitudeDegrees>
            </Position>
            <AltitudeMeters>411</AltitudeMeters>
            <DistanceMeters>NAN</DistanceMeters>
          </Trackpoint>
          <Trackpoint>
            <Time>2020-02-15T11:09:28.000Z</Time>
            <Position>
              <LatitudeDegrees>41.98408738709986209869384765625</LatitudeDegrees>
              <LongitudeDegrees>2.8988884203135967254638671875</LongitudeDegrees>
            </Position>
            <AltitudeMeters>411.20001220703125</AltitudeMeters>
            <DistanceMeters>NAN</DistanceMeters>
          </Trackpoint>
          <Trackpoint>
            <Time>2020-02-15T11:09:30.000Z</Time>
            <Position>
              <LatitudeDegrees>41.98410297743976116180419921875</LatitudeDegrees>
              <LongitudeDegrees>2.89882228709757328033447265625</LongitudeDegrees>
            </Position>
            <AltitudeMeters>411.79998779296875</AltitudeMeters>
            <DistanceMeters>NAN</DistanceMeters>
          </Trackpoint>
          <Trackpoint>
            <Time>2020-02-15T11:09:34.000Z</Time>
            <Position>
              <LatitudeDegrees>41.9841313920915126800537109375</LatitudeDegrees>
              <LongitudeDegrees>2.8986869193613529205322265625</LongitudeDegrees>
            </Position>
            <AltitudeMeters>412.399993896484375</AltitudeMeters>
            <DistanceMeters>NAN</DistanceMeters>
          </Trackpoint>
          <Trackpoint>
            <Time>2020-02-15T11:09:35.000Z</Time>
            <Position>
              <LatitudeDegrees>41.98413633741438388824462890625</LatitudeDegrees>
              <LongitudeDegrees>2.89865515194833278656005859375</LongitudeDegrees>
            </Position>
            <AltitudeMeters>412.600006103515625</AltitudeMeters>
            <DistanceMeters>NAN</DistanceMeters>
          </Trackpoint>
          <Trackpoint>
            <Time>2020-02-15T11:09:37.000Z</Time>
            <Position>
              <LatitudeDegrees>41.98414471931755542755126953125</LatitudeDegrees>
              <LongitudeDegrees>2.898597232997417449951171875</LongitudeDegrees>
            </Position>
            <AltitudeMeters>412.600006103515625</AltitudeMeters>
            <DistanceMeters>NAN</DistanceMeters>
          </Trackpoint>
          <Trackpoint>
            <Time>2020-02-15T11:09:38.000Z</Time>
            <Position>
              <LatitudeDegrees>41.98414790444076061248779296875</LatitudeDegrees>
              <LongitudeDegrees>2.89857208728790283203125</LongitudeDegrees>
            </Position>
            <AltitudeMeters>412.600006103515625</AltitudeMeters>
            <DistanceMeters>NAN</DistanceMeters>
          </Trackpoint>
          <Trackpoint>
            <Time>2020-02-15T11:09:39.000Z</Time>
            <Position>
              <LatitudeDegrees>41.98415108956396579742431640625</LatitudeDegrees>
              <LongitudeDegrees>2.8985466063022613525390625</LongitudeDegrees>
            </Position>
            <AltitudeMeters>412.79998779296875</AltitudeMeters>
            <DistanceMeters>NAN</DistanceMeters>
          </Trackpoint>
          <Trackpoint>
            <Time>2020-02-15T11:09:40.000Z</Time>
            <Position>
              <LatitudeDegrees>41.9841555319726467132568359375</LatitudeDegrees>
              <LongitudeDegrees>2.89851970039308071136474609375</LongitudeDegrees>
            </Position>
            <AltitudeMeters>412.79998779296875</AltitudeMeters>
            <DistanceMeters>NAN</DistanceMeters>
          </Trackpoint>
          <Trackpoint>
            <Time>2020-02-15T11:09:41.000Z</Time>
            <Position>
              <LatitudeDegrees>41.984164081513881683349609375</LatitudeDegrees>
              <LongitudeDegrees>2.89849120192229747772216796875</LongitudeDegrees>
            </Position>
            <AltitudeMeters>413</AltitudeMeters>
            <DistanceMeters>NAN</DistanceMeters>
          </Trackpoint>
          <Trackpoint>
            <Time>2020-02-15T11:09:42.000Z</Time>
            <Position>
              <LatitudeDegrees>41.98417154140770435333251953125</LatitudeDegrees>
              <LongitudeDegrees>2.89846119470894336700439453125</LongitudeDegrees>
            </Position>
            <AltitudeMeters>413</AltitudeMeters>
            <DistanceMeters>NAN</DistanceMeters>
          </Trackpoint>
          <Trackpoint>
            <Time>2020-02-15T11:09:43.000Z</Time>
            <Position>
              <LatitudeDegrees>41.98417874984443187713623046875</LatitudeDegrees>
              <LongitudeDegrees>2.898430265486240386962890625</LongitudeDegrees>
            </Position>
            <AltitudeMeters>413.20001220703125</AltitudeMeters>
            <DistanceMeters>NAN</DistanceMeters>
          </Trackpoint>
          <Trackpoint>
            <Time>2020-02-15T11:09:44.000Z</Time>
            <Position>
              <LatitudeDegrees>41.9841880537569522857666015625</LatitudeDegrees>
              <LongitudeDegrees>2.89839900098741054534912109375</LongitudeDegrees>
            </Position>
            <AltitudeMeters>413.20001220703125</AltitudeMeters>
            <DistanceMeters>NAN</DistanceMeters>
          </Trackpoint>
          <Trackpoint>
            <Time>2020-02-15T11:09:45.000Z</Time>
            <Position>
              <LatitudeDegrees>41.984198950231075286865234375</LatitudeDegrees>
              <LongitudeDegrees>2.8983670659363269805908203125</LongitudeDegrees>
            </Position>
            <AltitudeMeters>413.20001220703125</AltitudeMeters>
            <DistanceMeters>NAN</DistanceMeters>
          </Trackpoint>
          <Trackpoint>
            <Time>2020-02-15T11:09:46.000Z</Time>
            <Position>
              <LatitudeDegrees>41.98420925997197628021240234375</LatitudeDegrees>
              <LongitudeDegrees>2.89833513088524341583251953125</LongitudeDegrees>
            </Position>
            <AltitudeMeters>413.399993896484375</AltitudeMeters>
            <DistanceMeters>NAN</DistanceMeters>
          </Trackpoint>
          <Trackpoint>
            <Time>2020-02-15T11:09:47.000Z</Time>
            <Position>
              <LatitudeDegrees>41.98422099463641643524169921875</LatitudeDegrees>
              <LongitudeDegrees>2.89830244146287441253662109375</LongitudeDegrees>
            </Position>
            <AltitudeMeters>413.399993896484375</AltitudeMeters>
            <DistanceMeters>NAN</DistanceMeters>
          </Trackpoint>
          <Trackpoint>
            <Time>2020-02-15T11:09:48.000Z</Time>
            <Position>
              <LatitudeDegrees>41.9842323102056980133056640625</LatitudeDegrees>
              <LongitudeDegrees>2.8982715122401714324951171875</LongitudeDegrees>
            </Position>
            <AltitudeMeters>413.79998779296875</AltitudeMeters>
            <DistanceMeters>NAN</DistanceMeters>
          </Trackpoint>
          <Trackpoint>
            <Time>2020-02-15T11:09:49.000Z</Time>
            <Position>
              <LatitudeDegrees>41.9842462241649627685546875</LatitudeDegrees>
              <LongitudeDegrees>2.89824276231229305267333984375</LongitudeDegrees>
            </Position>
            <AltitudeMeters>413.79998779296875</AltitudeMeters>
            <DistanceMeters>NAN</DistanceMeters>
          </Trackpoint>
          <Trackpoint>
            <Time>2020-02-15T11:09:50.000Z</Time>
            <Position>
              <LatitudeDegrees>41.98426407761871814727783203125</LatitudeDegrees>
              <LongitudeDegrees>2.89821627549827098846435546875</LongitudeDegrees>
            </Position>
            <AltitudeMeters>414.20001220703125</AltitudeMeters>
            <DistanceMeters>NAN</DistanceMeters>
          </Trackpoint>
          <Trackpoint>
            <Time>2020-02-15T11:09:51.000Z</Time>
            <Position>
              <LatitudeDegrees>41.984282098710536956787109375</LatitudeDegrees>
              <LongitudeDegrees>2.8981898725032806396484375</LongitudeDegrees>
            </Position>
            <AltitudeMeters>414.399993896484375</AltitudeMeters>
            <DistanceMeters>NAN</DistanceMeters>
          </Trackpoint>
          <Trackpoint>
            <Time>2020-02-15T11:09:52.000Z</Time>
            <Position>
              <LatitudeDegrees>41.9843013770878314971923828125</LatitudeDegrees>
              <LongitudeDegrees>2.89816414006054401397705078125</LongitudeDegrees>
            </Position>
            <AltitudeMeters>414.600006103515625</AltitudeMeters>
            <DistanceMeters>NAN</DistanceMeters>
          </Trackpoint>
          <Trackpoint>
            <Time>2020-02-15T11:09:53.000Z</Time>
            <Position>
              <LatitudeDegrees>41.98432157747447490692138671875</LatitudeDegrees>
              <LongitudeDegrees>2.89814092218875885009765625</LongitudeDegrees>
            </Position>
            <AltitudeMeters>414.600006103515625</AltitudeMeters>
            <DistanceMeters>NAN</DistanceMeters>
          </Trackpoint>
          <Trackpoint>
            <Time>2020-02-15T11:09:54.000Z</Time>
            <Position>
              <LatitudeDegrees>41.98434454388916492462158203125</LatitudeDegrees>
              <LongitudeDegrees>2.89812072180211544036865234375</LongitudeDegrees>
            </Position>
            <AltitudeMeters>414.79998779296875</AltitudeMeters>
            <DistanceMeters>NAN</DistanceMeters>
          </Trackpoint>
          <Trackpoint>
            <Time>2020-02-15T11:09:55.000Z</Time>
            <Position>
              <LatitudeDegrees>41.984365247189998626708984375</LatitudeDegrees>
              <LongitudeDegrees>2.89810647256672382354736328125</LongitudeDegrees>
            </Position>
            <AltitudeMeters>414.79998779296875</AltitudeMeters>
            <DistanceMeters>NAN</DistanceMeters>
          </Trackpoint>
          <Trackpoint>
            <Time>2020-02-15T11:09:56.000Z</Time>
            <Position>
              <LatitudeDegrees>41.98438427411019802093505859375</LatitudeDegrees>
              <LongitudeDegrees>2.89809398353099822998046875</LongitudeDegrees>
            </Position>
            <AltitudeMeters>415.20001220703125</AltitudeMeters>
            <DistanceMeters>NAN</DistanceMeters>
          </Trackpoint>
          <Trackpoint>
            <Time>2020-02-15T11:09:57.000Z</Time>
            <Position>
              <LatitudeDegrees>41.98440388776361942291259765625</LatitudeDegrees>
              <LongitudeDegrees>2.89807923138141632080078125</LongitudeDegrees>
            </Position>
            <AltitudeMeters>415.20001220703125</AltitudeMeters>
            <DistanceMeters>NAN</DistanceMeters>
          </Trackpoint>
          <Trackpoint>
            <Time>2020-02-15T11:09:58.000Z</Time>
            <Position>
              <LatitudeDegrees>41.984426937997341156005859375</LatitudeDegrees>
              <LongitudeDegrees>2.89806238375604152679443359375</LongitudeDegrees>
            </Position>
            <AltitudeMeters>415.399993896484375</AltitudeMeters>
            <DistanceMeters>NAN</DistanceMeters>
          </Trackpoint>
          <Trackpoint>
            <Time>2020-02-15T11:09:59.000Z</Time>
            <Position>
              <LatitudeDegrees>41.98444697074592113494873046875</LatitudeDegrees>
              <LongitudeDegrees>2.8980455361306667327880859375</LongitudeDegrees>
            </Position>
            <AltitudeMeters>415.600006103515625</AltitudeMeters>
            <DistanceMeters>NAN</DistanceMeters>
          </Trackpoint>
          <Trackpoint>
            <Time>2020-02-15T11:10:00.000Z</Time>
            <Position>
              <LatitudeDegrees>41.98446725495159626007080078125</LatitudeDegrees>
              <LongitudeDegrees>2.8980281017720699310302734375</LongitudeDegrees>
            </Position>
            <AltitudeMeters>415.79998779296875</AltitudeMeters>
            <DistanceMeters>NAN</DistanceMeters>
          </Trackpoint>
          <Trackpoint>
            <Time>2020-02-15T11:10:01.000Z</Time>
            <Position>
              <LatitudeDegrees>41.9844876229763031005859375</LatitudeDegrees>
              <LongitudeDegrees>2.898009829223155975341796875</LongitudeDegrees>
            </Position>
            <AltitudeMeters>416</AltitudeMeters>
            <DistanceMeters>NAN</DistanceMeters>
          </Trackpoint>
          <Trackpoint>
            <Time>2020-02-15T11:10:02.000Z</Time>
            <Position>
              <LatitudeDegrees>41.9845112599432468414306640625</LatitudeDegrees>
              <LongitudeDegrees>2.897989712655544281005859375</LongitudeDegrees>
            </Position>
            <AltitudeMeters>416.20001220703125</AltitudeMeters>
            <DistanceMeters>NAN</DistanceMeters>
          </Trackpoint>
          <Trackpoint>
            <Time>2020-02-15T11:10:03.000Z</Time>
            <Position>
              <LatitudeDegrees>41.984533555805683135986328125</LatitudeDegrees>
              <LongitudeDegrees>2.89796548895537853240966796875</LongitudeDegrees>
            </Position>
            <AltitudeMeters>416.20001220703125</AltitudeMeters>
            <DistanceMeters>NAN</DistanceMeters>
          </Trackpoint>
          <Trackpoint>
            <Time>2020-02-15T11:10:04.000Z</Time>
            <Position>
              <LatitudeDegrees>41.98455275036394596099853515625</LatitudeDegrees>
              <LongitudeDegrees>2.89793841540813446044921875</LongitudeDegrees>
            </Position>
            <AltitudeMeters>416.20001220703125</AltitudeMeters>
            <DistanceMeters>NAN</DistanceMeters>
          </Trackpoint>
          <Trackpoint>
            <Time>2020-02-15T11:10:05.000Z</Time>
            <Position>
              <LatitudeDegrees>41.98456984944641590118408203125</LatitudeDegrees>
              <LongitudeDegrees>2.89791268296539783477783203125</LongitudeDegrees>
            </Position>
            <AltitudeMeters>416.399993896484375</AltitudeMeters>
            <DistanceMeters>NAN</DistanceMeters>
          </Trackpoint>
          <Trackpoint>
            <Time>2020-02-15T11:10:06.000Z</Time>
            <Position>
              <LatitudeDegrees>41.9845887087285518646240234375</LatitudeDegrees>
              <LongitudeDegrees>2.89788502268493175506591796875</LongitudeDegrees>
            </Position>
            <AltitudeMeters>416.79998779296875</AltitudeMeters>
            <DistanceMeters>NAN</DistanceMeters>
          </Trackpoint>
          <Trackpoint>
            <Time>2020-02-15T11:10:10.000Z</Time>
            <Position>
              <LatitudeDegrees>41.98466858826577663421630859375</LatitudeDegrees>
              <LongitudeDegrees>2.897761724889278411865234375</LongitudeDegrees>
            </Position>
            <AltitudeMeters>417.20001220703125</AltitudeMeters>
            <DistanceMeters>NAN</DistanceMeters>
          </Trackpoint>
          <Trackpoint>
            <Time>2020-02-15T11:10:11.000Z</Time>
            <Position>
              <LatitudeDegrees>41.9846882857382297515869140625</LatitudeDegrees>
              <LongitudeDegrees>2.89773196913301944732666015625</LongitudeDegrees>
            </Position>
            <AltitudeMeters>417</AltitudeMeters>
            <DistanceMeters>NAN</DistanceMeters>
          </Trackpoint>
          <Trackpoint>
            <Time>2020-02-15T11:10:12.000Z</Time>
            <Position>
              <LatitudeDegrees>41.984709240496158599853515625</LatitudeDegrees>
              <LongitudeDegrees>2.89770430885255336761474609375</LongitudeDegrees>
            </Position>
            <AltitudeMeters>417.20001220703125</AltitudeMeters>
            <DistanceMeters>NAN</DistanceMeters>
          </Trackpoint>
          <Trackpoint>
            <Time>2020-02-15T11:10:14.000Z</Time>
            <Position>
              <LatitudeDegrees>41.98475928045809268951416015625</LatitudeDegrees>
              <LongitudeDegrees>2.8976509161293506622314453125</LongitudeDegrees>
            </Position>
            <AltitudeMeters>417.20001220703125</AltitudeMeters>
            <DistanceMeters>NAN</DistanceMeters>
          </Trackpoint>
          <Trackpoint>
            <Time>2020-02-15T11:10:16.000Z</Time>
            <Position>
              <LatitudeDegrees>41.9848257489502429962158203125</LatitudeDegrees>
              <LongitudeDegrees>2.89760272018611431121826171875</LongitudeDegrees>
            </Position>
            <AltitudeMeters>417.20001220703125</AltitudeMeters>
            <DistanceMeters>NAN</DistanceMeters>
          </Trackpoint>
          <Trackpoint>
            <Time>2020-02-15T11:10:17.000Z</Time>
            <Position>
              <LatitudeDegrees>41.98487243615090847015380859375</LatitudeDegrees>
              <LongitudeDegrees>2.89758042432367801666259765625</LongitudeDegrees>
            </Position>
            <AltitudeMeters>417.20001220703125</AltitudeMeters>
            <DistanceMeters>NAN</DistanceMeters>
          </Trackpoint>
          <Trackpoint>
            <Time>2020-02-15T11:10:18.000Z</Time>
            <Position>
              <LatitudeDegrees>41.984930522739887237548828125</LatitudeDegrees>
              <LongitudeDegrees>2.8975583799183368682861328125</LongitudeDegrees>
            </Position>
            <AltitudeMeters>417.20001220703125</AltitudeMeters>
            <DistanceMeters>NAN</DistanceMeters>
          </Trackpoint>
          <Trackpoint>
            <Time>2020-02-15T11:10:19.000Z</Time>
            <Position>
              <LatitudeDegrees>41.98499933816492557525634765625</LatitudeDegrees>
              <LongitudeDegrees>2.89753415621817111968994140625</LongitudeDegrees>
            </Position>
            <AltitudeMeters>417.20001220703125</AltitudeMeters>
            <DistanceMeters>NAN</DistanceMeters>
          </Trackpoint>
          <Trackpoint>
            <Time>2020-02-15T11:10:21.000Z</Time>
            <Position>
              <LatitudeDegrees>41.98514635674655437469482421875</LatitudeDegrees>
              <LongitudeDegrees>2.89747900329530239105224609375</LongitudeDegrees>
            </Position>
            <AltitudeMeters>417</AltitudeMeters>
            <DistanceMeters>NAN</DistanceMeters>
          </Trackpoint>
          <Trackpoint>
            <Time>2020-02-15T11:10:23.000Z</Time>
            <Position>
              <LatitudeDegrees>41.98529337532818317413330078125</LatitudeDegrees>
              <LongitudeDegrees>2.8974158875644207000732421875</LongitudeDegrees>
            </Position>
            <AltitudeMeters>417</AltitudeMeters>
            <DistanceMeters>NAN</DistanceMeters>
          </Trackpoint>
          <Trackpoint>
            <Time>2020-02-15T11:10:24.000Z</Time>
            <Position>
              <LatitudeDegrees>41.98536948300898075103759765625</LatitudeDegrees>
              <LongitudeDegrees>2.89738629944622516632080078125</LongitudeDegrees>
            </Position>
            <AltitudeMeters>417</AltitudeMeters>
            <DistanceMeters>NAN</DistanceMeters>
          </Trackpoint>
          <Trackpoint>
            <Time>2020-02-15T11:10:28.000Z</Time>
            <Position>
              <LatitudeDegrees>41.9856974668800830841064453125</LatitudeDegrees>
              <LongitudeDegrees>2.8972868062555789947509765625</LongitudeDegrees>
            </Position>
            <AltitudeMeters>416.399993896484375</AltitudeMeters>
            <DistanceMeters>NAN</DistanceMeters>
          </Trackpoint>
          <Trackpoint>
            <Time>2020-02-15T11:10:29.000Z</Time>
            <Position>
              <LatitudeDegrees>41.98577684350311756134033203125</LatitudeDegrees>
              <LongitudeDegrees>2.8972764126956462860107421875</LongitudeDegrees>
            </Position>
            <AltitudeMeters>416.20001220703125</AltitudeMeters>
            <DistanceMeters>NAN</DistanceMeters>
          </Trackpoint>
          <Trackpoint>
            <Time>2020-02-15T11:10:30.000Z</Time>
            <Position>
              <LatitudeDegrees>41.985859908163547515869140625</LatitudeDegrees>
              <LongitudeDegrees>2.89726995863020420074462890625</LongitudeDegrees>
            </Position>
            <AltitudeMeters>416</AltitudeMeters>
            <DistanceMeters>NAN</DistanceMeters>
          </Trackpoint>
          <Trackpoint>
            <Time>2020-02-15T11:10:32.000Z</Time>
            <Position>
              <LatitudeDegrees>41.98599745519459247589111328125</LatitudeDegrees>
              <LongitudeDegrees>2.89723777212202548980712890625</LongitudeDegrees>
            </Position>
            <AltitudeMeters>414.399993896484375</AltitudeMeters>
            <DistanceMeters>NAN</DistanceMeters>
          </Trackpoint>
          <Trackpoint>
            <Time>2020-02-15T11:10:33.000Z</Time>
            <Position>
              <LatitudeDegrees>41.98604104109108448028564453125</LatitudeDegrees>
              <LongitudeDegrees>2.8972187452018260955810546875</LongitudeDegrees>
            </Position>
            <AltitudeMeters>414</AltitudeMeters>
            <DistanceMeters>NAN</DistanceMeters>
          </Trackpoint>
          <Trackpoint>
            <Time>2020-02-15T11:10:34.000Z</Time>
            <Position>
              <LatitudeDegrees>41.9860645942389965057373046875</LatitudeDegrees>
              <LongitudeDegrees>2.89719871245324611663818359375</LongitudeDegrees>
            </Position>
            <AltitudeMeters>413.399993896484375</AltitudeMeters>
            <DistanceMeters>NAN</DistanceMeters>
          </Trackpoint>
          <Trackpoint>
            <Time>2020-02-15T11:10:35.000Z</Time>
            <Position>
              <LatitudeDegrees>41.98607641272246837615966796875</LatitudeDegrees>
              <LongitudeDegrees>2.8971798531711101531982421875</LongitudeDegrees>
            </Position>
            <AltitudeMeters>412.79998779296875</AltitudeMeters>
            <DistanceMeters>NAN</DistanceMeters>
          </Trackpoint>
          <Trackpoint>
            <Time>2020-02-15T11:10:36.000Z</Time>
            <Position>
              <LatitudeDegrees>41.98608689010143280029296875</LatitudeDegrees>
              <LongitudeDegrees>2.89715898223221302032470703125</LongitudeDegrees>
            </Position>
            <AltitudeMeters>412.399993896484375</AltitudeMeters>
            <DistanceMeters>NAN</DistanceMeters>
          </Trackpoint>
          <Trackpoint>
            <Time>2020-02-15T11:10:37.000Z</Time>
            <Position>
              <LatitudeDegrees>41.98609401471912860870361328125</LatitudeDegrees>
              <LongitudeDegrees>2.8971339203417301177978515625</LongitudeDegrees>
            </Position>
            <AltitudeMeters>411.79998779296875</AltitudeMeters>
            <DistanceMeters>NAN</DistanceMeters>
          </Trackpoint>
          <Trackpoint>
            <Time>2020-02-15T11:10:38.000Z</Time>
            <Position>
              <LatitudeDegrees>41.98609761893749237060546875</LatitudeDegrees>
              <LongitudeDegrees>2.8971060924232006072998046875</LongitudeDegrees>
            </Position>
            <AltitudeMeters>411.399993896484375</AltitudeMeters>
            <DistanceMeters>NAN</DistanceMeters>
          </Trackpoint>
          <Trackpoint>
            <Time>2020-02-15T11:10:39.000Z</Time>
            <Position>
              <LatitudeDegrees>41.98610055260360240936279296875</LatitudeDegrees>
              <LongitudeDegrees>2.89707683958113193511962890625</LongitudeDegrees>
            </Position>
            <AltitudeMeters>411</AltitudeMeters>
            <DistanceMeters>NAN</DistanceMeters>
          </Trackpoint>
          <Trackpoint>
            <Time>2020-02-15T11:10:41.000Z</Time>
            <Position>
              <LatitudeDegrees>41.98609636165201663970947265625</LatitudeDegrees>
              <LongitudeDegrees>2.89700944907963275909423828125</LongitudeDegrees>
            </Position>
            <AltitudeMeters>410.20001220703125</AltitudeMeters>
            <DistanceMeters>NAN</DistanceMeters>
          </Trackpoint>
          <Trackpoint>
            <Time>2020-02-15T11:10:42.000Z</Time>
            <Position>
              <LatitudeDegrees>41.9860920868813991546630859375</LatitudeDegrees>
              <LongitudeDegrees>2.8969560563564300537109375</LongitudeDegrees>
            </Position>
            <AltitudeMeters>409.600006103515625</AltitudeMeters>
            <DistanceMeters>NAN</DistanceMeters>
          </Trackpoint>
          <Trackpoint>
            <Time>2020-02-15T11:10:43.000Z</Time>
            <Position>
              <LatitudeDegrees>41.9860843755304813385009765625</LatitudeDegrees>
              <LongitudeDegrees>2.8968965448439121246337890625</LongitudeDegrees>
            </Position>
            <AltitudeMeters>409.399993896484375</AltitudeMeters>
            <DistanceMeters>NAN</DistanceMeters>
          </Trackpoint>
          <Trackpoint>
            <Time>2020-02-15T11:10:44.000Z</Time>
            <Position>
              <LatitudeDegrees>41.98607909493148326873779296875</LatitudeDegrees>
              <LongitudeDegrees>2.8968291543424129486083984375</LongitudeDegrees>
            </Position>
            <AltitudeMeters>409</AltitudeMeters>
            <DistanceMeters>NAN</DistanceMeters>
          </Trackpoint>
          <Trackpoint>
            <Time>2020-02-15T11:10:45.000Z</Time>
            <Position>
              <LatitudeDegrees>41.986081190407276153564453125</LatitudeDegrees>
              <LongitudeDegrees>2.8967563994228839874267578125</LongitudeDegrees>
            </Position>
            <AltitudeMeters>408.399993896484375</AltitudeMeters>
            <DistanceMeters>NAN</DistanceMeters>
          </Trackpoint>
          <Trackpoint>
            <Time>2020-02-15T11:10:46.000Z</Time>
            <Position>
              <LatitudeDegrees>41.98608194477856159210205078125</LatitudeDegrees>
              <LongitudeDegrees>2.89668037556111812591552734375</LongitudeDegrees>
            </Position>
            <AltitudeMeters>408.399993896484375</AltitudeMeters>
            <DistanceMeters>NAN</DistanceMeters>
          </Trackpoint>
          <Trackpoint>
            <Time>2020-02-15T11:10:48.000Z</Time>
            <Position>
              <LatitudeDegrees>41.9860830344259738922119140625</LatitudeDegrees>
              <LongitudeDegrees>2.89653302170336246490478515625</LongitudeDegrees>
            </Position>
            <AltitudeMeters>408</AltitudeMeters>
            <DistanceMeters>NAN</DistanceMeters>
          </Trackpoint>
          <Trackpoint>
            <Time>2020-02-15T11:10:49.000Z</Time>
            <Position>
              <LatitudeDegrees>41.9860806874930858612060546875</LatitudeDegrees>
              <LongitudeDegrees>2.89646831341087818145751953125</LongitudeDegrees>
            </Position>
            <AltitudeMeters>407.79998779296875</AltitudeMeters>
            <DistanceMeters>NAN</DistanceMeters>
          </Trackpoint>
          <Trackpoint>
            <Time>2020-02-15T11:10:50.000Z</Time>
            <Position>
              <LatitudeDegrees>41.98608077131211757659912109375</LatitudeDegrees>
              <LongitudeDegrees>2.8964062035083770751953125</LongitudeDegrees>
            </Position>
            <AltitudeMeters>407.399993896484375</AltitudeMeters>
            <DistanceMeters>NAN</DistanceMeters>
          </Trackpoint>
          <Trackpoint>
            <Time>2020-02-15T11:10:51.000Z</Time>
            <Position>
              <LatitudeDegrees>41.98607993312180042266845703125</LatitudeDegrees>
              <LongitudeDegrees>2.89634945802390575408935546875</LongitudeDegrees>
            </Position>
            <AltitudeMeters>406.79998779296875</AltitudeMeters>
            <DistanceMeters>NAN</DistanceMeters>
          </Trackpoint>
          <Trackpoint>
            <Time>2020-02-15T11:10:52.000Z</Time>
            <Position>
              <LatitudeDegrees>41.98607758618891239166259765625</LatitudeDegrees>
              <LongitudeDegrees>2.89628961123526096343994140625</LongitudeDegrees>
            </Position>
            <AltitudeMeters>406.399993896484375</AltitudeMeters>
            <DistanceMeters>NAN</DistanceMeters>
          </Trackpoint>
          <Trackpoint>
            <Time>2020-02-15T11:10:53.000Z</Time>
            <Position>
              <LatitudeDegrees>41.98607825674116611480712890625</LatitudeDegrees>
              <LongitudeDegrees>2.896230854094028472900390625</LongitudeDegrees>
            </Position>
            <AltitudeMeters>406.20001220703125</AltitudeMeters>
            <DistanceMeters>NAN</DistanceMeters>
          </Trackpoint>
          <Trackpoint>
            <Time>2020-02-15T11:10:54.000Z</Time>
            <Position>
              <LatitudeDegrees>41.98607959784567356109619140625</LatitudeDegrees>
              <LongitudeDegrees>2.8961753658950328826904296875</LongitudeDegrees>
            </Position>
            <AltitudeMeters>405.79998779296875</AltitudeMeters>
            <DistanceMeters>NAN</DistanceMeters>
          </Trackpoint>
          <Trackpoint>
            <Time>2020-02-15T11:10:55.000Z</Time>
            <Position>
              <LatitudeDegrees>41.986079849302768707275390625</LatitudeDegrees>
              <LongitudeDegrees>2.8961200453341007232666015625</LongitudeDegrees>
            </Position>
            <AltitudeMeters>405.79998779296875</AltitudeMeters>
            <DistanceMeters>NAN</DistanceMeters>
          </Trackpoint>
          <Trackpoint>
            <Time>2020-02-15T11:10:56.000Z</Time>
            <Position>
              <LatitudeDegrees>41.9860813580453395843505859375</LatitudeDegrees>
              <LongitudeDegrees>2.89606212638318538665771484375</LongitudeDegrees>
            </Position>
            <AltitudeMeters>405.600006103515625</AltitudeMeters>
            <DistanceMeters>NAN</DistanceMeters>
          </Trackpoint>
          <Trackpoint>
            <Time>2020-02-15T11:10:57.000Z</Time>
            <Position>
              <LatitudeDegrees>41.98608026839792728424072265625</LatitudeDegrees>
              <LongitudeDegrees>2.8960003517568111419677734375</LongitudeDegrees>
            </Position>
            <AltitudeMeters>405</AltitudeMeters>
            <DistanceMeters>NAN</DistanceMeters>
          </Trackpoint>
          <Trackpoint>
            <Time>2020-02-15T11:10:59.000Z</Time>
            <Position>
              <LatitudeDegrees>41.9860756583511829376220703125</LatitudeDegrees>
              <LongitudeDegrees>2.89586414583027362823486328125</LongitudeDegrees>
            </Position>
            <AltitudeMeters>403.79998779296875</AltitudeMeters>
            <DistanceMeters>NAN</DistanceMeters>
          </Trackpoint>
          <Trackpoint>
            <Time>2020-02-15T11:11:00.000Z</Time>
            <Position>
              <LatitudeDegrees>41.98607339523732662200927734375</LatitudeDegrees>
              <LongitudeDegrees>2.8957948274910449981689453125</LongitudeDegrees>
            </Position>
            <AltitudeMeters>403</AltitudeMeters>
            <DistanceMeters>NAN</DistanceMeters>
          </Trackpoint>
          <Trackpoint>
            <Time>2020-02-15T11:11:01.000Z</Time>
            <Position>
              <LatitudeDegrees>41.98607658036053180694580078125</LatitudeDegrees>
              <LongitudeDegrees>2.89573037065565586090087890625</LongitudeDegrees>
            </Position>
            <AltitudeMeters>401.600006103515625</AltitudeMeters>
            <DistanceMeters>NAN</DistanceMeters>
          </Trackpoint>
          <Trackpoint>
            <Time>2020-02-15T11:11:02.000Z</Time>
            <Position>
              <LatitudeDegrees>41.9860780052840709686279296875</LatitudeDegrees>
              <LongitudeDegrees>2.8956768102943897247314453125</LongitudeDegrees>
            </Position>
            <AltitudeMeters>400.79998779296875</AltitudeMeters>
            <DistanceMeters>NAN</DistanceMeters>
          </Trackpoint>
          <Trackpoint>
            <Time>2020-02-15T11:11:03.000Z</Time>
            <Position>
              <LatitudeDegrees>41.98607523925602436065673828125</LatitudeDegrees>
              <LongitudeDegrees>2.895618975162506103515625</LongitudeDegrees>
            </Position>
            <AltitudeMeters>400</AltitudeMeters>
            <DistanceMeters>NAN</DistanceMeters>
          </Trackpoint>
          <Trackpoint>
            <Time>2020-02-15T11:11:04.000Z</Time>
            <Position>
              <LatitudeDegrees>41.986074149608612060546875</LatitudeDegrees>
              <LongitudeDegrees>2.89555954746901988983154296875</LongitudeDegrees>
            </Position>
            <AltitudeMeters>399.399993896484375</AltitudeMeters>
            <DistanceMeters>NAN</DistanceMeters>
          </Trackpoint>
          <Trackpoint>
            <Time>2020-02-15T11:11:05.000Z</Time>
            <Position>
              <LatitudeDegrees>41.986067779362201690673828125</LatitudeDegrees>
              <LongitudeDegrees>2.8954967670142650604248046875</LongitudeDegrees>
            </Position>
            <AltitudeMeters>398.399993896484375</AltitudeMeters>
            <DistanceMeters>NAN</DistanceMeters>
          </Trackpoint>
          <Trackpoint>
            <Time>2020-02-15T11:11:06.000Z</Time>
            <Position>
              <LatitudeDegrees>41.98605897836387157440185546875</LatitudeDegrees>
              <LongitudeDegrees>2.8954360820353031158447265625</LongitudeDegrees>
            </Position>
            <AltitudeMeters>397.79998779296875</AltitudeMeters>
            <DistanceMeters>NAN</DistanceMeters>
          </Trackpoint>
          <Trackpoint>
            <Time>2020-02-15T11:11:07.000Z</Time>
            <Position>
              <LatitudeDegrees>41.98605294339358806610107421875</LatitudeDegrees>
              <LongitudeDegrees>2.89537950418889522552490234375</LongitudeDegrees>
            </Position>
            <AltitudeMeters>397.79998779296875</AltitudeMeters>
            <DistanceMeters>NAN</DistanceMeters>
          </Trackpoint>
          <Trackpoint>
            <Time>2020-02-15T11:11:08.000Z</Time>
            <Position>
              <LatitudeDegrees>41.98604808188974857330322265625</LatitudeDegrees>
              <LongitudeDegrees>2.8953304700553417205810546875</LongitudeDegrees>
            </Position>
            <AltitudeMeters>397.399993896484375</AltitudeMeters>
            <DistanceMeters>NAN</DistanceMeters>
          </Trackpoint>
          <Trackpoint>
            <Time>2020-02-15T11:11:09.000Z</Time>
            <Position>
              <LatitudeDegrees>41.98604087345302104949951171875</LatitudeDegrees>
              <LongitudeDegrees>2.89528814144432544708251953125</LongitudeDegrees>
            </Position>
            <AltitudeMeters>397</AltitudeMeters>
            <DistanceMeters>NAN</DistanceMeters>
          </Trackpoint>
          <Trackpoint>
            <Time>2020-02-15T11:11:10.000Z</Time>
            <Position>
              <LatitudeDegrees>41.98603701777756214141845703125</LatitudeDegrees>
              <LongitudeDegrees>2.8952448070049285888671875</LongitudeDegrees>
            </Position>
            <AltitudeMeters>396.600006103515625</AltitudeMeters>
            <DistanceMeters>NAN</DistanceMeters>
          </Trackpoint>
          <Trackpoint>
            <Time>2020-02-15T11:11:11.000Z</Time>
            <Position>
              <LatitudeDegrees>41.9860334135591983795166015625</LatitudeDegrees>
              <LongitudeDegrees>2.89519250392913818359375</LongitudeDegrees>
            </Position>
            <AltitudeMeters>396.399993896484375</AltitudeMeters>
            <DistanceMeters>NAN</DistanceMeters>
          </Trackpoint>
          <Trackpoint>
            <Time>2020-02-15T11:11:12.000Z</Time>
            <Position>
              <LatitudeDegrees>41.98603265918791294097900390625</LatitudeDegrees>
              <LongitudeDegrees>2.89514028467237949371337890625</LongitudeDegrees>
            </Position>
            <AltitudeMeters>395.600006103515625</AltitudeMeters>
            <DistanceMeters>NAN</DistanceMeters>
          </Trackpoint>
          <Trackpoint>
            <Time>2020-02-15T11:11:13.000Z</Time>
            <Position>
              <LatitudeDegrees>41.986027546226978302001953125</LatitudeDegrees>
              <LongitudeDegrees>2.895095609128475189208984375</LongitudeDegrees>
            </Position>
            <AltitudeMeters>395</AltitudeMeters>
            <DistanceMeters>NAN</DistanceMeters>
          </Trackpoint>
          <Trackpoint>
            <Time>2020-02-15T11:11:14.000Z</Time>
            <Position>
              <LatitudeDegrees>41.98601690120995044708251953125</LatitudeDegrees>
              <LongitudeDegrees>2.895054034888744354248046875</LongitudeDegrees>
            </Position>
            <AltitudeMeters>394.600006103515625</AltitudeMeters>
            <DistanceMeters>NAN</DistanceMeters>
          </Trackpoint>
          <Trackpoint>
            <Time>2020-02-15T11:11:15.000Z</Time>
            <Position>
              <LatitudeDegrees>41.98601019568741321563720703125</LatitudeDegrees>
              <LongitudeDegrees>2.89502059109508991241455078125</LongitudeDegrees>
            </Position>
            <AltitudeMeters>393.600006103515625</AltitudeMeters>
            <DistanceMeters>NAN</DistanceMeters>
          </Trackpoint>
          <Trackpoint>
            <Time>2020-02-15T11:11:16.000Z</Time>
            <Position>
              <LatitudeDegrees>41.98600198142230510711669921875</LatitudeDegrees>
              <LongitudeDegrees>2.8949931822717189788818359375</LongitudeDegrees>
            </Position>
            <AltitudeMeters>392.79998779296875</AltitudeMeters>
            <DistanceMeters>NAN</DistanceMeters>
          </Trackpoint>
          <Trackpoint>
            <Time>2020-02-15T11:11:17.000Z</Time>
            <Position>
              <LatitudeDegrees>41.9859904982149600982666015625</LatitudeDegrees>
              <LongitudeDegrees>2.894962169229984283447265625</LongitudeDegrees>
            </Position>
            <AltitudeMeters>392.20001220703125</AltitudeMeters>
            <DistanceMeters>NAN</DistanceMeters>
          </Trackpoint>
          <Trackpoint>
            <Time>2020-02-15T11:11:18.000Z</Time>
            <Position>
              <LatitudeDegrees>41.985979266464710235595703125</LatitudeDegrees>
              <LongitudeDegrees>2.89493526332080364227294921875</LongitudeDegrees>
            </Position>
            <AltitudeMeters>392</AltitudeMeters>
            <DistanceMeters>NAN</DistanceMeters>
          </Trackpoint>
          <Trackpoint>
            <Time>2020-02-15T11:11:19.000Z</Time>
            <Position>
              <LatitudeDegrees>41.9859670288860797882080078125</LatitudeDegrees>
              <LongitudeDegrees>2.89490844123065471649169921875</LongitudeDegrees>
            </Position>
            <AltitudeMeters>391</AltitudeMeters>
            <DistanceMeters>NAN</DistanceMeters>
          </Trackpoint>
          <Trackpoint>
            <Time>2020-02-15T11:11:20.000Z</Time>
            <Position>
              <LatitudeDegrees>41.98594582267105579376220703125</LatitudeDegrees>
              <LongitudeDegrees>2.89487759582698345184326171875</LongitudeDegrees>
            </Position>
            <AltitudeMeters>390.399993896484375</AltitudeMeters>
            <DistanceMeters>NAN</DistanceMeters>
          </Trackpoint>
          <Trackpoint>
            <Time>2020-02-15T11:11:21.000Z</Time>
            <Position>
              <LatitudeDegrees>41.98592134751379489898681640625</LatitudeDegrees>
              <LongitudeDegrees>2.894841134548187255859375</LongitudeDegrees>
            </Position>
            <AltitudeMeters>390</AltitudeMeters>
            <DistanceMeters>NAN</DistanceMeters>
          </Trackpoint>
          <Trackpoint>
            <Time>2020-02-15T11:11:22.000Z</Time>
            <Position>
              <LatitudeDegrees>41.985900141298770904541015625</LatitudeDegrees>
              <LongitudeDegrees>2.8948064334690570831298828125</LongitudeDegrees>
            </Position>
            <AltitudeMeters>389.600006103515625</AltitudeMeters>
            <DistanceMeters>NAN</DistanceMeters>
          </Trackpoint>
          <Trackpoint>
            <Time>2020-02-15T11:11:23.000Z</Time>
            <Position>
              <LatitudeDegrees>41.9858838804066181182861328125</LatitudeDegrees>
              <LongitudeDegrees>2.8947742469608783721923828125</LongitudeDegrees>
            </Position>
            <AltitudeMeters>388.79998779296875</AltitudeMeters>
            <DistanceMeters>NAN</DistanceMeters>
          </Trackpoint>
          <Trackpoint>
            <Time>2020-02-15T11:11:24.000Z</Time>
            <Position>
              <LatitudeDegrees>41.98587021790444850921630859375</LatitudeDegrees>
              <LongitudeDegrees>2.8947410546243190765380859375</LongitudeDegrees>
            </Position>
            <AltitudeMeters>387.79998779296875</AltitudeMeters>
            <DistanceMeters>NAN</DistanceMeters>
          </Trackpoint>
          <Trackpoint>
            <Time>2020-02-15T11:11:25.000Z</Time>
            <Position>
              <LatitudeDegrees>41.985854208469390869140625</LatitudeDegrees>
              <LongitudeDegrees>2.89471146650612354278564453125</LongitudeDegrees>
            </Position>
            <AltitudeMeters>387.20001220703125</AltitudeMeters>
            <DistanceMeters>NAN</DistanceMeters>
          </Trackpoint>
          <Trackpoint>
            <Time>2020-02-15T11:11:26.000Z</Time>
            <Position>
              <LatitudeDegrees>41.98583149351179599761962890625</LatitudeDegrees>
              <LongitudeDegrees>2.894674837589263916015625</LongitudeDegrees>
            </Position>
            <AltitudeMeters>386.399993896484375</AltitudeMeters>
            <DistanceMeters>NAN</DistanceMeters>
          </Trackpoint>
          <Trackpoint>
            <Time>2020-02-15T11:11:27.000Z</Time>
            <Position>
              <LatitudeDegrees>41.98581171222031116485595703125</LatitudeDegrees>
              <LongitudeDegrees>2.8946257196366786956787109375</LongitudeDegrees>
            </Position>
            <AltitudeMeters>385.79998779296875</AltitudeMeters>
            <DistanceMeters>NAN</DistanceMeters>
          </Trackpoint>
          <Trackpoint>
            <Time>2020-02-15T11:11:28.000Z</Time>
            <Position>
              <LatitudeDegrees>41.985790170729160308837890625</LatitudeDegrees>
              <LongitudeDegrees>2.8945650346577167510986328125</LongitudeDegrees>
            </Position>
            <AltitudeMeters>385.79998779296875</AltitudeMeters>
            <DistanceMeters>NAN</DistanceMeters>
          </Trackpoint>
          <Trackpoint>
            <Time>2020-02-15T11:11:29.000Z</Time>
            <Position>
              <LatitudeDegrees>41.9857712276279926300048828125</LatitudeDegrees>
              <LongitudeDegrees>2.894502170383930206298828125</LongitudeDegrees>
            </Position>
            <AltitudeMeters>385.399993896484375</AltitudeMeters>
            <DistanceMeters>NAN</DistanceMeters>
          </Trackpoint>
          <Trackpoint>
            <Time>2020-02-15T11:11:30.000Z</Time>
            <Position>
              <LatitudeDegrees>41.985749267041683197021484375</LatitudeDegrees>
              <LongitudeDegrees>2.89443972520530223846435546875</LongitudeDegrees>
            </Position>
            <AltitudeMeters>384.79998779296875</AltitudeMeters>
            <DistanceMeters>NAN</DistanceMeters>
          </Trackpoint>
          <Trackpoint>
            <Time>2020-02-15T11:11:31.000Z</Time>
            <Position>
              <LatitudeDegrees>41.9857346825301647186279296875</LatitudeDegrees>
              <LongitudeDegrees>2.89438608102500438690185546875</LongitudeDegrees>
            </Position>
            <AltitudeMeters>384.600006103515625</AltitudeMeters>
            <DistanceMeters>NAN</DistanceMeters>
          </Trackpoint>
          <Trackpoint>
            <Time>2020-02-15T11:11:32.000Z</Time>
            <Position>
              <LatitudeDegrees>41.98572789318859577178955078125</LatitudeDegrees>
              <LongitudeDegrees>2.89433889091014862060546875</LongitudeDegrees>
            </Position>
            <AltitudeMeters>383.20001220703125</AltitudeMeters>
            <DistanceMeters>NAN</DistanceMeters>
          </Trackpoint>
          <Trackpoint>
            <Time>2020-02-15T11:11:33.000Z</Time>
            <Position>
              <LatitudeDegrees>41.98571951128542423248291015625</LatitudeDegrees>
              <LongitudeDegrees>2.894296310842037200927734375</LongitudeDegrees>
            </Position>
            <AltitudeMeters>382.399993896484375</AltitudeMeters>
            <DistanceMeters>NAN</DistanceMeters>
          </Trackpoint>
          <Trackpoint>
            <Time>2020-02-15T11:11:34.000Z</Time>
            <Position>
              <LatitudeDegrees>41.98571347631514072418212890625</LatitudeDegrees>
              <LongitudeDegrees>2.894258759915828704833984375</LongitudeDegrees>
            </Position>
            <AltitudeMeters>381.79998779296875</AltitudeMeters>
            <DistanceMeters>NAN</DistanceMeters>
          </Trackpoint>
          <Trackpoint>
            <Time>2020-02-15T11:11:35.000Z</Time>
            <Position>
              <LatitudeDegrees>41.98569637723267078399658203125</LatitudeDegrees>
              <LongitudeDegrees>2.89422062225639820098876953125</LongitudeDegrees>
            </Position>
            <AltitudeMeters>381</AltitudeMeters>
            <DistanceMeters>NAN</DistanceMeters>
          </Trackpoint>
          <Trackpoint>
            <Time>2020-02-15T11:11:36.000Z</Time>
            <Position>
              <LatitudeDegrees>41.9856756739318370819091796875</LatitudeDegrees>
              <LongitudeDegrees>2.89417921565473079681396484375</LongitudeDegrees>
            </Position>
            <AltitudeMeters>380.79998779296875</AltitudeMeters>
            <DistanceMeters>NAN</DistanceMeters>
          </Trackpoint>
          <Trackpoint>
            <Time>2020-02-15T11:11:37.000Z</Time>
            <Position>
              <LatitudeDegrees>41.98565379716455936431884765625</LatitudeDegrees>
              <LongitudeDegrees>2.89412833750247955322265625</LongitudeDegrees>
            </Position>
            <AltitudeMeters>380.399993896484375</AltitudeMeters>
            <DistanceMeters>NAN</DistanceMeters>
          </Trackpoint>
          <Trackpoint>
            <Time>2020-02-15T11:11:39.000Z</Time>
            <Position>
              <LatitudeDegrees>41.98561205528676509857177734375</LatitudeDegrees>
              <LongitudeDegrees>2.894022725522518157958984375</LongitudeDegrees>
            </Position>
            <AltitudeMeters>378.79998779296875</AltitudeMeters>
            <DistanceMeters>NAN</DistanceMeters>
          </Trackpoint>
          <Trackpoint>
            <Time>2020-02-15T11:11:40.000Z</Time>
            <Position>
              <LatitudeDegrees>41.98559009470045566558837890625</LatitudeDegrees>
              <LongitudeDegrees>2.89397142827510833740234375</LongitudeDegrees>
            </Position>
            <AltitudeMeters>378</AltitudeMeters>
            <DistanceMeters>NAN</DistanceMeters>
          </Trackpoint>
          <Trackpoint>
            <Time>2020-02-15T11:11:41.000Z</Time>
            <Position>
              <LatitudeDegrees>41.9855643622577190399169921875</LatitudeDegrees>
              <LongitudeDegrees>2.8939251601696014404296875</LongitudeDegrees>
            </Position>
            <AltitudeMeters>377.600006103515625</AltitudeMeters>
            <DistanceMeters>NAN</DistanceMeters>
          </Trackpoint>
          <Trackpoint>
            <Time>2020-02-15T11:11:42.000Z</Time>
            <Position>
              <LatitudeDegrees>41.98553494177758693695068359375</LatitudeDegrees>
              <LongitudeDegrees>2.89388568140566349029541015625</LongitudeDegrees>
            </Position>
            <AltitudeMeters>376.79998779296875</AltitudeMeters>
            <DistanceMeters>NAN</DistanceMeters>
          </Trackpoint>
          <Trackpoint>
            <Time>2020-02-15T11:11:43.000Z</Time>
            <Position>
              <LatitudeDegrees>41.9855087064206600189208984375</LatitudeDegrees>
              <LongitudeDegrees>2.89385198615491390228271484375</LongitudeDegrees>
            </Position>
            <AltitudeMeters>376.20001220703125</AltitudeMeters>
            <DistanceMeters>NAN</DistanceMeters>
          </Trackpoint>
          <Trackpoint>
            <Time>2020-02-15T11:11:44.000Z</Time>
            <Position>
              <LatitudeDegrees>41.9854771904647350311279296875</LatitudeDegrees>
              <LongitudeDegrees>2.89382332004606723785400390625</LongitudeDegrees>
            </Position>
            <AltitudeMeters>375.79998779296875</AltitudeMeters>
            <DistanceMeters>NAN</DistanceMeters>
          </Trackpoint>
          <Trackpoint>
            <Time>2020-02-15T11:11:45.000Z</Time>
            <Position>
              <LatitudeDegrees>41.98544357903301715850830078125</LatitudeDegrees>
              <LongitudeDegrees>2.8937868587672710418701171875</LongitudeDegrees>
            </Position>
            <AltitudeMeters>375.600006103515625</AltitudeMeters>
            <DistanceMeters>NAN</DistanceMeters>
          </Trackpoint>
          <Trackpoint>
            <Time>2020-02-15T11:11:46.000Z</Time>
            <Position>
              <LatitudeDegrees>41.98540871031582355499267578125</LatitudeDegrees>
              <LongitudeDegrees>2.8937586955726146697998046875</LongitudeDegrees>
            </Position>
            <AltitudeMeters>375.20001220703125</AltitudeMeters>
            <DistanceMeters>NAN</DistanceMeters>
          </Trackpoint>
          <Trackpoint>
            <Time>2020-02-15T11:11:47.000Z</Time>
            <Position>
              <LatitudeDegrees>41.98537618853151798248291015625</LatitudeDegrees>
              <LongitudeDegrees>2.89373983629047870635986328125</LongitudeDegrees>
            </Position>
            <AltitudeMeters>375</AltitudeMeters>
            <DistanceMeters>NAN</DistanceMeters>
          </Trackpoint>
          <Trackpoint>
            <Time>2020-02-15T11:11:48.000Z</Time>
            <Position>
              <LatitudeDegrees>41.98534567840397357940673828125</LatitudeDegrees>
              <LongitudeDegrees>2.8937298618257045745849609375</LongitudeDegrees>
            </Position>
            <AltitudeMeters>373.79998779296875</AltitudeMeters>
            <DistanceMeters>NAN</DistanceMeters>
          </Trackpoint>
          <Trackpoint>
            <Time>2020-02-15T11:11:49.000Z</Time>
            <Position>
              <LatitudeDegrees>41.9853186048567295074462890625</LatitudeDegrees>
              <LongitudeDegrees>2.893723659217357635498046875</LongitudeDegrees>
            </Position>
            <AltitudeMeters>373.79998779296875</AltitudeMeters>
            <DistanceMeters>NAN</DistanceMeters>
          </Trackpoint>
          <Trackpoint>
            <Time>2020-02-15T11:11:50.000Z</Time>
            <Position>
              <LatitudeDegrees>41.98529572226107120513916015625</LatitudeDegrees>
              <LongitudeDegrees>2.893714606761932373046875</LongitudeDegrees>
            </Position>
            <AltitudeMeters>373.20001220703125</AltitudeMeters>
            <DistanceMeters>NAN</DistanceMeters>
          </Trackpoint>
          <Trackpoint>
            <Time>2020-02-15T11:11:51.000Z</Time>
            <Position>
              <LatitudeDegrees>41.9852708280086517333984375</LatitudeDegrees>
              <LongitudeDegrees>2.8937027044594287872314453125</LongitudeDegrees>
            </Position>
            <AltitudeMeters>372.399993896484375</AltitudeMeters>
            <DistanceMeters>NAN</DistanceMeters>
          </Trackpoint>
          <Trackpoint>
            <Time>2020-02-15T11:11:52.000Z</Time>
            <Position>
              <LatitudeDegrees>41.9852401502430438995361328125</LatitudeDegrees>
              <LongitudeDegrees>2.8936892934143543243408203125</LongitudeDegrees>
            </Position>
            <AltitudeMeters>372</AltitudeMeters>
            <DistanceMeters>NAN</DistanceMeters>
          </Trackpoint>
          <Trackpoint>
            <Time>2020-02-15T11:11:56.000Z</Time>
            <Position>
              <LatitudeDegrees>41.98512665927410125732421875</LatitudeDegrees>
              <LongitudeDegrees>2.89361947216093540191650390625</LongitudeDegrees>
            </Position>
            <AltitudeMeters>369.20001220703125</AltitudeMeters>
            <DistanceMeters>NAN</DistanceMeters>
          </Trackpoint>
          <Trackpoint>
            <Time>2020-02-15T11:11:57.000Z</Time>
            <Position>
              <LatitudeDegrees>41.98509673587977886199951171875</LatitudeDegrees>
              <LongitudeDegrees>2.893588207662105560302734375</LongitudeDegrees>
            </Position>
            <AltitudeMeters>368.399993896484375</AltitudeMeters>
            <DistanceMeters>NAN</DistanceMeters>
          </Trackpoint>
          <Trackpoint>
            <Time>2020-02-15T11:11:58.000Z</Time>
            <Position>
              <LatitudeDegrees>41.985065303742885589599609375</LatitudeDegrees>
              <LongitudeDegrees>2.89355258457362651824951171875</LongitudeDegrees>
            </Position>
            <AltitudeMeters>367.79998779296875</AltitudeMeters>
            <DistanceMeters>NAN</DistanceMeters>
          </Trackpoint>
          <Trackpoint>
            <Time>2020-02-15T11:12:00.000Z</Time>
            <Position>
              <LatitudeDegrees>41.985004954040050506591796875</LatitudeDegrees>
              <LongitudeDegrees>2.89348318241536617279052734375</LongitudeDegrees>
            </Position>
            <AltitudeMeters>367.399993896484375</AltitudeMeters>
            <DistanceMeters>NAN</DistanceMeters>
          </Trackpoint>
          <Trackpoint>
            <Time>2020-02-15T11:12:01.000Z</Time>
            <Position>
              <LatitudeDegrees>41.98497100733220577239990234375</LatitudeDegrees>
              <LongitudeDegrees>2.89345250464975833892822265625</LongitudeDegrees>
            </Position>
            <AltitudeMeters>367</AltitudeMeters>
            <DistanceMeters>NAN</DistanceMeters>
          </Trackpoint>
          <Trackpoint>
            <Time>2020-02-15T11:12:02.000Z</Time>
            <Position>
              <LatitudeDegrees>41.984938569366931915283203125</LatitudeDegrees>
              <LongitudeDegrees>2.8934277780354022979736328125</LongitudeDegrees>
            </Position>
            <AltitudeMeters>366.399993896484375</AltitudeMeters>
            <DistanceMeters>NAN</DistanceMeters>
          </Trackpoint>
          <Trackpoint>
            <Time>2020-02-15T11:12:03.000Z</Time>
            <Position>
              <LatitudeDegrees>41.98490814305841922760009765625</LatitudeDegrees>
              <LongitudeDegrees>2.89339869283139705657958984375</LongitudeDegrees>
            </Position>
            <AltitudeMeters>366</AltitudeMeters>
            <DistanceMeters>NAN</DistanceMeters>
          </Trackpoint>
          <Trackpoint>
            <Time>2020-02-15T11:12:04.000Z</Time>
            <Position>
              <LatitudeDegrees>41.984874196350574493408203125</LatitudeDegrees>
              <LongitudeDegrees>2.89336482994258403778076171875</LongitudeDegrees>
            </Position>
            <AltitudeMeters>365.600006103515625</AltitudeMeters>
            <DistanceMeters>NAN</DistanceMeters>
          </Trackpoint>
          <Trackpoint>
            <Time>2020-02-15T11:12:06.000Z</Time>
            <Position>
              <LatitudeDegrees>41.98479599319398403167724609375</LatitudeDegrees>
              <LongitudeDegrees>2.8932988643646240234375</LongitudeDegrees>
            </Position>
            <AltitudeMeters>364</AltitudeMeters>
            <DistanceMeters>NAN</DistanceMeters>
          </Trackpoint>
          <Trackpoint>
            <Time>2020-02-15T11:12:08.000Z</Time>
            <Position>
              <LatitudeDegrees>41.98471896350383758544921875</LatitudeDegrees>
              <LongitudeDegrees>2.89324932731688022613525390625</LongitudeDegrees>
            </Position>
            <AltitudeMeters>363.20001220703125</AltitudeMeters>
            <DistanceMeters>NAN</DistanceMeters>
          </Trackpoint>
          <Trackpoint>
            <Time>2020-02-15T11:12:09.000Z</Time>
            <Position>
              <LatitudeDegrees>41.9846913032233715057373046875</LatitudeDegrees>
              <LongitudeDegrees>2.8932276181876659393310546875</LongitudeDegrees>
            </Position>
            <AltitudeMeters>362.399993896484375</AltitudeMeters>
            <DistanceMeters>NAN</DistanceMeters>
          </Trackpoint>
          <Trackpoint>
            <Time>2020-02-15T11:12:10.000Z</Time>
            <Position>
              <LatitudeDegrees>41.9846631400287151336669921875</LatitudeDegrees>
              <LongitudeDegrees>2.89320490323007106781005859375</LongitudeDegrees>
            </Position>
            <AltitudeMeters>362.399993896484375</AltitudeMeters>
            <DistanceMeters>NAN</DistanceMeters>
          </Trackpoint>
          <Trackpoint>
            <Time>2020-02-15T11:12:11.000Z</Time>
            <Position>
              <LatitudeDegrees>41.984628103673458099365234375</LatitudeDegrees>
              <LongitudeDegrees>2.89317958988249301910400390625</LongitudeDegrees>
            </Position>
            <AltitudeMeters>361.79998779296875</AltitudeMeters>
            <DistanceMeters>NAN</DistanceMeters>
          </Trackpoint>
          <Trackpoint>
            <Time>2020-02-15T11:12:13.000Z</Time>
            <Position>
              <LatitudeDegrees>41.98454118333756923675537109375</LatitudeDegrees>
              <LongitudeDegrees>2.89311538450419902801513671875</LongitudeDegrees>
            </Position>
            <AltitudeMeters>361</AltitudeMeters>
            <DistanceMeters>NAN</DistanceMeters>
          </Trackpoint>
          <Trackpoint>
            <Time>2020-02-15T11:12:14.000Z</Time>
            <Position>
              <LatitudeDegrees>41.98449927382171154022216796875</LatitudeDegrees>
              <LongitudeDegrees>2.8930814377963542938232421875</LongitudeDegrees>
            </Position>
            <AltitudeMeters>360.20001220703125</AltitudeMeters>
            <DistanceMeters>NAN</DistanceMeters>
          </Trackpoint>
          <Trackpoint>
            <Time>2020-02-15T11:12:15.000Z</Time>
            <Position>
              <LatitudeDegrees>41.98446147143840789794921875</LatitudeDegrees>
              <LongitudeDegrees>2.89304413832724094390869140625</LongitudeDegrees>
            </Position>
            <AltitudeMeters>360.20001220703125</AltitudeMeters>
            <DistanceMeters>NAN</DistanceMeters>
          </Trackpoint>
          <Trackpoint>
            <Time>2020-02-15T11:12:16.000Z</Time>
            <Position>
              <LatitudeDegrees>41.9844291172921657562255859375</LatitudeDegrees>
              <LongitudeDegrees>2.89301262237131595611572265625</LongitudeDegrees>
            </Position>
            <AltitudeMeters>359.600006103515625</AltitudeMeters>
            <DistanceMeters>NAN</DistanceMeters>
          </Trackpoint>
          <Trackpoint>
            <Time>2020-02-15T11:12:17.000Z</Time>
            <Position>
              <LatitudeDegrees>41.9843976013362407684326171875</LatitudeDegrees>
              <LongitudeDegrees>2.89297808893024921417236328125</LongitudeDegrees>
            </Position>
            <AltitudeMeters>358.600006103515625</AltitudeMeters>
            <DistanceMeters>NAN</DistanceMeters>
          </Trackpoint>
          <Trackpoint>
            <Time>2020-02-15T11:12:18.000Z</Time>
            <Position>
              <LatitudeDegrees>41.9843647442758083343505859375</LatitudeDegrees>
              <LongitudeDegrees>2.8929396159946918487548828125</LongitudeDegrees>
            </Position>
            <AltitudeMeters>358</AltitudeMeters>
            <DistanceMeters>NAN</DistanceMeters>
          </Trackpoint>
          <Trackpoint>
            <Time>2020-02-15T11:12:19.000Z</Time>
            <Position>
              <LatitudeDegrees>41.98434437625110149383544921875</LatitudeDegrees>
              <LongitudeDegrees>2.89289963431656360626220703125</LongitudeDegrees>
            </Position>
            <AltitudeMeters>357.399993896484375</AltitudeMeters>
            <DistanceMeters>NAN</DistanceMeters>
          </Trackpoint>
          <Trackpoint>
            <Time>2020-02-15T11:12:20.000Z</Time>
            <Position>
              <LatitudeDegrees>41.98431286029517650604248046875</LatitudeDegrees>
              <LongitudeDegrees>2.8928611613810062408447265625</LongitudeDegrees>
            </Position>
            <AltitudeMeters>356.79998779296875</AltitudeMeters>
            <DistanceMeters>NAN</DistanceMeters>
          </Trackpoint>
          <Trackpoint>
            <Time>2020-02-15T11:12:21.000Z</Time>
            <Position>
              <LatitudeDegrees>41.98427631519734859466552734375</LatitudeDegrees>
              <LongitudeDegrees>2.89283157326281070709228515625</LongitudeDegrees>
            </Position>
            <AltitudeMeters>356.399993896484375</AltitudeMeters>
            <DistanceMeters>NAN</DistanceMeters>
          </Trackpoint>
          <Trackpoint>
            <Time>2020-02-15T11:12:22.000Z</Time>
            <Position>
              <LatitudeDegrees>41.98423214256763458251953125</LatitudeDegrees>
              <LongitudeDegrees>2.8928041644394397735595703125</LongitudeDegrees>
            </Position>
            <AltitudeMeters>355.600006103515625</AltitudeMeters>
            <DistanceMeters>NAN</DistanceMeters>
          </Trackpoint>
          <Trackpoint>
            <Time>2020-02-15T11:12:23.000Z</Time>
            <Position>
              <LatitudeDegrees>41.984192915260791778564453125</LatitudeDegrees>
              <LongitudeDegrees>2.89278061129152774810791015625</LongitudeDegrees>
            </Position>
            <AltitudeMeters>355.20001220703125</AltitudeMeters>
            <DistanceMeters>NAN</DistanceMeters>
          </Trackpoint>
          <Trackpoint>
            <Time>2020-02-15T11:12:24.000Z</Time>
            <Position>
              <LatitudeDegrees>41.9841523468494415283203125</LatitudeDegrees>
              <LongitudeDegrees>2.8927458263933658599853515625</LongitudeDegrees>
            </Position>
            <AltitudeMeters>354.20001220703125</AltitudeMeters>
            <DistanceMeters>NAN</DistanceMeters>
          </Trackpoint>
          <Trackpoint>
            <Time>2020-02-15T11:12:25.000Z</Time>
            <Position>
              <LatitudeDegrees>41.9841129519045352935791015625</LatitudeDegrees>
              <LongitudeDegrees>2.89270366542041301727294921875</LongitudeDegrees>
            </Position>
            <AltitudeMeters>353.399993896484375</AltitudeMeters>
            <DistanceMeters>NAN</DistanceMeters>
          </Trackpoint>
          <Trackpoint>
            <Time>2020-02-15T11:12:27.000Z</Time>
            <Position>
              <LatitudeDegrees>41.9840388558804988861083984375</LatitudeDegrees>
              <LongitudeDegrees>2.89262772537767887115478515625</LongitudeDegrees>
            </Position>
            <AltitudeMeters>352</AltitudeMeters>
            <DistanceMeters>NAN</DistanceMeters>
          </Trackpoint>
          <Trackpoint>
            <Time>2020-02-15T11:12:28.000Z</Time>
            <Position>
              <LatitudeDegrees>41.9840101897716522216796875</LatitudeDegrees>
              <LongitudeDegrees>2.89259788580238819122314453125</LongitudeDegrees>
            </Position>
            <AltitudeMeters>351.399993896484375</AltitudeMeters>
            <DistanceMeters>NAN</DistanceMeters>
          </Trackpoint>
          <Trackpoint>
            <Time>2020-02-15T11:12:29.000Z</Time>
            <Position>
              <LatitudeDegrees>41.98399418033659458160400390625</LatitudeDegrees>
              <LongitudeDegrees>2.89258204400539398193359375</LongitudeDegrees>
            </Position>
            <AltitudeMeters>351</AltitudeMeters>
            <DistanceMeters>NAN</DistanceMeters>
          </Trackpoint>
          <Trackpoint>
            <Time>2020-02-15T11:12:30.000Z</Time>
            <Position>
              <LatitudeDegrees>41.98398663662374019622802734375</LatitudeDegrees>
              <LongitudeDegrees>2.89257542230188846588134765625</LongitudeDegrees>
            </Position>
            <AltitudeMeters>351</AltitudeMeters>
            <DistanceMeters>NAN</DistanceMeters>
          </Trackpoint>
          <Trackpoint>
            <Time>2020-02-15T11:12:31.000Z</Time>
            <Position>
              <LatitudeDegrees>41.9839845411479473114013671875</LatitudeDegrees>
              <LongitudeDegrees>2.8925731591880321502685546875</LongitudeDegrees>
            </Position>
            <AltitudeMeters>350.399993896484375</AltitudeMeters>
            <DistanceMeters>NAN</DistanceMeters>
          </Trackpoint>
          <Trackpoint>
            <Time>2020-02-15T11:12:40.000Z</Time>
            <Position>
              <LatitudeDegrees>41.9839761592447757720947265625</LatitudeDegrees>
              <LongitudeDegrees>2.8925631009042263031005859375</LongitudeDegrees>
            </Position>
            <AltitudeMeters>348.20001220703125</AltitudeMeters>
            <DistanceMeters>NAN</DistanceMeters>
          </Trackpoint>
          <Trackpoint>
            <Time>2020-02-15T11:12:48.000Z</Time>
            <Position>
              <LatitudeDegrees>41.98397406376898288726806640625</LatitudeDegrees>
              <LongitudeDegrees>2.89255865849554538726806640625</LongitudeDegrees>
            </Position>
            <AltitudeMeters>348</AltitudeMeters>
            <DistanceMeters>NAN</DistanceMeters>
          </Trackpoint>
          <Trackpoint>
            <Time>2020-02-15T11:12:58.000Z</Time>
            <Position>
              <LatitudeDegrees>41.98395721614360809326171875</LatitudeDegrees>
              <LongitudeDegrees>2.8925423137843608856201171875</LongitudeDegrees>
            </Position>
            <AltitudeMeters>348</AltitudeMeters>
            <DistanceMeters>NAN</DistanceMeters>
          </Trackpoint>
          <Trackpoint>
            <Time>2020-02-15T11:12:59.000Z</Time>
            <Position>
              <LatitudeDegrees>41.98394573293626308441162109375</LatitudeDegrees>
              <LongitudeDegrees>2.892530746757984161376953125</LongitudeDegrees>
            </Position>
            <AltitudeMeters>347.79998779296875</AltitudeMeters>
            <DistanceMeters>NAN</DistanceMeters>
          </Trackpoint>
          <Trackpoint>
            <Time>2020-02-15T11:13:01.000Z</Time>
            <Position>
              <LatitudeDegrees>41.9839060865342617034912109375</LatitudeDegrees>
              <LongitudeDegrees>2.89249445311725139617919921875</LongitudeDegrees>
            </Position>
            <AltitudeMeters>348</AltitudeMeters>
            <DistanceMeters>NAN</DistanceMeters>
          </Trackpoint>
          <Trackpoint>
            <Time>2020-02-15T11:13:02.000Z</Time>
            <Position>
              <LatitudeDegrees>41.98388278484344482421875</LatitudeDegrees>
              <LongitudeDegrees>2.89246779866516590118408203125</LongitudeDegrees>
            </Position>
            <AltitudeMeters>347.79998779296875</AltitudeMeters>
            <DistanceMeters>NAN</DistanceMeters>
          </Trackpoint>
          <Trackpoint>
            <Time>2020-02-15T11:13:03.000Z</Time>
            <Position>
              <LatitudeDegrees>41.983854286372661590576171875</LatitudeDegrees>
              <LongitudeDegrees>2.89243343286216259002685546875</LongitudeDegrees>
            </Position>
            <AltitudeMeters>347.79998779296875</AltitudeMeters>
            <DistanceMeters>NAN</DistanceMeters>
          </Trackpoint>
          <Trackpoint>
            <Time>2020-02-15T11:13:07.000Z</Time>
            <Position>
              <LatitudeDegrees>41.9837139733135700225830078125</LatitudeDegrees>
              <LongitudeDegrees>2.89225238375365734100341796875</LongitudeDegrees>
            </Position>
            <AltitudeMeters>347.79998779296875</AltitudeMeters>
            <DistanceMeters>NAN</DistanceMeters>
          </Trackpoint>
          <Trackpoint>
            <Time>2020-02-15T11:13:08.000Z</Time>
            <Position>
              <LatitudeDegrees>41.98367667384445667266845703125</LatitudeDegrees>
              <LongitudeDegrees>2.89219974540174007415771484375</LongitudeDegrees>
            </Position>
            <AltitudeMeters>347.79998779296875</AltitudeMeters>
            <DistanceMeters>NAN</DistanceMeters>
          </Trackpoint>
          <Trackpoint>
            <Time>2020-02-15T11:13:10.000Z</Time>
            <Position>
              <LatitudeDegrees>41.983612887561321258544921875</LatitudeDegrees>
              <LongitudeDegrees>2.8920843265950679779052734375</LongitudeDegrees>
            </Position>
            <AltitudeMeters>347.79998779296875</AltitudeMeters>
            <DistanceMeters>NAN</DistanceMeters>
          </Trackpoint>
          <Trackpoint>
            <Time>2020-02-15T11:13:11.000Z</Time>
            <Position>
              <LatitudeDegrees>41.983585059642791748046875</LatitudeDegrees>
              <LongitudeDegrees>2.89202414453029632568359375</LongitudeDegrees>
            </Position>
            <AltitudeMeters>347.79998779296875</AltitudeMeters>
            <DistanceMeters>NAN</DistanceMeters>
          </Trackpoint>
          <Trackpoint>
            <Time>2020-02-15T11:13:12.000Z</Time>
            <Position>
              <LatitudeDegrees>41.98355848900973796844482421875</LatitudeDegrees>
              <LongitudeDegrees>2.89196421392261981964111328125</LongitudeDegrees>
            </Position>
            <AltitudeMeters>348</AltitudeMeters>
            <DistanceMeters>NAN</DistanceMeters>
          </Trackpoint>
          <Trackpoint>
            <Time>2020-02-15T11:13:13.000Z</Time>
            <Position>
              <LatitudeDegrees>41.98353610932826995849609375</LatitudeDegrees>
              <LongitudeDegrees>2.8919049538671970367431640625</LongitudeDegrees>
            </Position>
            <AltitudeMeters>348</AltitudeMeters>
            <DistanceMeters>NAN</DistanceMeters>
          </Trackpoint>
          <Trackpoint>
            <Time>2020-02-15T11:13:14.000Z</Time>
            <Position>
              <LatitudeDegrees>41.9835139811038970947265625</LatitudeDegrees>
              <LongitudeDegrees>2.89184686727821826934814453125</LongitudeDegrees>
            </Position>
            <AltitudeMeters>347.79998779296875</AltitudeMeters>
            <DistanceMeters>NAN</DistanceMeters>
          </Trackpoint>
          <Trackpoint>
            <Time>2020-02-15T11:13:15.000Z</Time>
            <Position>
              <LatitudeDegrees>41.98349361307919025421142578125</LatitudeDegrees>
              <LongitudeDegrees>2.89179213345050811767578125</LongitudeDegrees>
            </Position>
            <AltitudeMeters>347.79998779296875</AltitudeMeters>
            <DistanceMeters>NAN</DistanceMeters>
          </Trackpoint>
          <Trackpoint>
            <Time>2020-02-15T11:13:16.000Z</Time>
            <Position>
              <LatitudeDegrees>41.98347182013094425201416015625</LatitudeDegrees>
              <LongitudeDegrees>2.89174242876470088958740234375</LongitudeDegrees>
            </Position>
            <AltitudeMeters>347.79998779296875</AltitudeMeters>
            <DistanceMeters>NAN</DistanceMeters>
          </Trackpoint>
          <Trackpoint>
            <Time>2020-02-15T11:13:17.000Z</Time>
            <Position>
              <LatitudeDegrees>41.9834522902965545654296875</LatitudeDegrees>
              <LongitudeDegrees>2.8916967473924160003662109375</LongitudeDegrees>
            </Position>
            <AltitudeMeters>347.600006103515625</AltitudeMeters>
            <DistanceMeters>NAN</DistanceMeters>
          </Trackpoint>
          <Trackpoint>
            <Time>2020-02-15T11:13:18.000Z</Time>
            <Position>
              <LatitudeDegrees>41.983439885079860687255859375</LatitudeDegrees>
              <LongitudeDegrees>2.891654334962368011474609375</LongitudeDegrees>
            </Position>
            <AltitudeMeters>347.399993896484375</AltitudeMeters>
            <DistanceMeters>NAN</DistanceMeters>
          </Trackpoint>
          <Trackpoint>
            <Time>2020-02-15T11:13:19.000Z</Time>
            <Position>
              <LatitudeDegrees>41.983429156243801116943359375</LatitudeDegrees>
              <LongitudeDegrees>2.89161418564617633819580078125</LongitudeDegrees>
            </Position>
            <AltitudeMeters>347.20001220703125</AltitudeMeters>
            <DistanceMeters>NAN</DistanceMeters>
          </Trackpoint>
          <Trackpoint>
            <Time>2020-02-15T11:13:20.000Z</Time>
            <Position>
              <LatitudeDegrees>41.98341675102710723876953125</LatitudeDegrees>
              <LongitudeDegrees>2.8915804065763950347900390625</LongitudeDegrees>
            </Position>
            <AltitudeMeters>347.20001220703125</AltitudeMeters>
            <DistanceMeters>NAN</DistanceMeters>
          </Trackpoint>
          <Trackpoint>
            <Time>2020-02-15T11:13:21.000Z</Time>
            <Position>
              <LatitudeDegrees>41.9834051840007305145263671875</LatitudeDegrees>
              <LongitudeDegrees>2.89155031554400920867919921875</LongitudeDegrees>
            </Position>
            <AltitudeMeters>347</AltitudeMeters>
            <DistanceMeters>NAN</DistanceMeters>
          </Trackpoint>
          <Trackpoint>
            <Time>2020-02-15T11:13:22.000Z</Time>
            <Position>
              <LatitudeDegrees>41.9833944551646709442138671875</LatitudeDegrees>
              <LongitudeDegrees>2.8915210627019405364990234375</LongitudeDegrees>
            </Position>
            <AltitudeMeters>347</AltitudeMeters>
            <DistanceMeters>NAN</DistanceMeters>
          </Trackpoint>
          <Trackpoint>
            <Time>2020-02-15T11:13:23.000Z</Time>
            <Position>
              <LatitudeDegrees>41.98338590562343597412109375</LatitudeDegrees>
              <LongitudeDegrees>2.89148770272731781005859375</LongitudeDegrees>
            </Position>
            <AltitudeMeters>347</AltitudeMeters>
            <DistanceMeters>NAN</DistanceMeters>
          </Trackpoint>
          <Trackpoint>
            <Time>2020-02-15T11:13:24.000Z</Time>
            <Position>
              <LatitudeDegrees>41.98337760753929615020751953125</LatitudeDegrees>
              <LongitudeDegrees>2.891450487077236175537109375</LongitudeDegrees>
            </Position>
            <AltitudeMeters>347</AltitudeMeters>
            <DistanceMeters>NAN</DistanceMeters>
          </Trackpoint>
          <Trackpoint>
            <Time>2020-02-15T11:13:26.000Z</Time>
            <Position>
              <LatitudeDegrees>41.98335246182978153228759765625</LatitudeDegrees>
              <LongitudeDegrees>2.8913715295493602752685546875</LongitudeDegrees>
            </Position>
            <AltitudeMeters>347</AltitudeMeters>
            <DistanceMeters>NAN</DistanceMeters>
          </Trackpoint>
          <Trackpoint>
            <Time>2020-02-15T11:13:28.000Z</Time>
            <Position>
              <LatitudeDegrees>41.98332681320607662200927734375</LatitudeDegrees>
              <LongitudeDegrees>2.89129919372498989105224609375</LongitudeDegrees>
            </Position>
            <AltitudeMeters>347.20001220703125</AltitudeMeters>
            <DistanceMeters>NAN</DistanceMeters>
          </Trackpoint>
          <Trackpoint>
            <Time>2020-02-15T11:13:29.000Z</Time>
            <Position>
              <LatitudeDegrees>41.983315162360668182373046875</LatitudeDegrees>
              <LongitudeDegrees>2.891263402998447418212890625</LongitudeDegrees>
            </Position>
            <AltitudeMeters>347.20001220703125</AltitudeMeters>
            <DistanceMeters>NAN</DistanceMeters>
          </Trackpoint>
          <Trackpoint>
            <Time>2020-02-15T11:13:30.000Z</Time>
            <Position>
              <LatitudeDegrees>41.98330275714397430419921875</LatitudeDegrees>
              <LongitudeDegrees>2.89122618734836578369140625</LongitudeDegrees>
            </Position>
            <AltitudeMeters>347.20001220703125</AltitudeMeters>
            <DistanceMeters>NAN</DistanceMeters>
          </Trackpoint>
          <Trackpoint>
            <Time>2020-02-15T11:13:31.000Z</Time>
            <Position>
              <LatitudeDegrees>41.98328708298504352569580078125</LatitudeDegrees>
              <LongitudeDegrees>2.89118804968893527984619140625</LongitudeDegrees>
            </Position>
            <AltitudeMeters>347.20001220703125</AltitudeMeters>
            <DistanceMeters>NAN</DistanceMeters>
          </Trackpoint>
          <Trackpoint>
            <Time>2020-02-15T11:13:32.000Z</Time>
            <Position>
              <LatitudeDegrees>41.98326797224581241607666015625</LatitudeDegrees>
              <LongitudeDegrees>2.89115100167691707611083984375</LongitudeDegrees>
            </Position>
            <AltitudeMeters>347.20001220703125</AltitudeMeters>
            <DistanceMeters>NAN</DistanceMeters>
          </Trackpoint>
          <Trackpoint>
            <Time>2020-02-15T11:13:33.000Z</Time>
            <Position>
              <LatitudeDegrees>41.9832476042211055755615234375</LatitudeDegrees>
              <LongitudeDegrees>2.8911190666258335113525390625</LongitudeDegrees>
            </Position>
            <AltitudeMeters>347.20001220703125</AltitudeMeters>
            <DistanceMeters>NAN</DistanceMeters>
          </Trackpoint>
          <Trackpoint>
            <Time>2020-02-15T11:13:34.000Z</Time>
            <Position>
              <LatitudeDegrees>41.98322924785315990447998046875</LatitudeDegrees>
              <LongitudeDegrees>2.8910898976027965545654296875</LongitudeDegrees>
            </Position>
            <AltitudeMeters>347.20001220703125</AltitudeMeters>
            <DistanceMeters>NAN</DistanceMeters>
          </Trackpoint>
          <Trackpoint>
            <Time>2020-02-15T11:13:35.000Z</Time>
            <Position>
              <LatitudeDegrees>41.98321013711392879486083984375</LatitudeDegrees>
              <LongitudeDegrees>2.89106030948460102081298828125</LongitudeDegrees>
            </Position>
            <AltitudeMeters>347.399993896484375</AltitudeMeters>
            <DistanceMeters>NAN</DistanceMeters>
          </Trackpoint>
          <Trackpoint>
            <Time>2020-02-15T11:13:36.000Z</Time>
            <Position>
              <LatitudeDegrees>41.98319010436534881591796875</LatitudeDegrees>
              <LongitudeDegrees>2.89103466086089611053466796875</LongitudeDegrees>
            </Position>
            <AltitudeMeters>347.399993896484375</AltitudeMeters>
            <DistanceMeters>NAN</DistanceMeters>
          </Trackpoint>
          <Trackpoint>
            <Time>2020-02-15T11:13:37.000Z</Time>
            <Position>
              <LatitudeDegrees>41.98316923342645168304443359375</LatitudeDegrees>
              <LongitudeDegrees>2.89101001806557178497314453125</LongitudeDegrees>
            </Position>
            <AltitudeMeters>347.600006103515625</AltitudeMeters>
            <DistanceMeters>NAN</DistanceMeters>
          </Trackpoint>
          <Trackpoint>
            <Time>2020-02-15T11:13:38.000Z</Time>
            <Position>
              <LatitudeDegrees>41.98314811103045940399169921875</LatitudeDegrees>
              <LongitudeDegrees>2.890982441604137420654296875</LongitudeDegrees>
            </Position>
            <AltitudeMeters>347.79998779296875</AltitudeMeters>
            <DistanceMeters>NAN</DistanceMeters>
          </Trackpoint>
          <Trackpoint>
            <Time>2020-02-15T11:13:39.000Z</Time>
            <Position>
              <LatitudeDegrees>41.98312573134899139404296875</LatitudeDegrees>
              <LongitudeDegrees>2.8909520991146564483642578125</LongitudeDegrees>
            </Position>
            <AltitudeMeters>347.79998779296875</AltitudeMeters>
            <DistanceMeters>NAN</DistanceMeters>
          </Trackpoint>
          <Trackpoint>
            <Time>2020-02-15T11:13:40.000Z</Time>
            <Position>
              <LatitudeDegrees>41.9831041060388088226318359375</LatitudeDegrees>
              <LongitudeDegrees>2.8909239359200000762939453125</LongitudeDegrees>
            </Position>
            <AltitudeMeters>348</AltitudeMeters>
            <DistanceMeters>NAN</DistanceMeters>
          </Trackpoint>
          <Trackpoint>
            <Time>2020-02-15T11:13:41.000Z</Time>
            <Position>
              <LatitudeDegrees>41.98308155871927738189697265625</LatitudeDegrees>
              <LongitudeDegrees>2.89089627563953399658203125</LongitudeDegrees>
            </Position>
            <AltitudeMeters>348</AltitudeMeters>
            <DistanceMeters>NAN</DistanceMeters>
          </Trackpoint>
          <Trackpoint>
            <Time>2020-02-15T11:13:42.000Z</Time>
            <Position>
              <LatitudeDegrees>41.98306244798004627227783203125</LatitudeDegrees>
              <LongitudeDegrees>2.8908692859113216400146484375</LongitudeDegrees>
            </Position>
            <AltitudeMeters>348.20001220703125</AltitudeMeters>
            <DistanceMeters>NAN</DistanceMeters>
          </Trackpoint>
          <Trackpoint>
            <Time>2020-02-15T11:13:43.000Z</Time>
            <Position>
              <LatitudeDegrees>41.98304316960275173187255859375</LatitudeDegrees>
              <LongitudeDegrees>2.8908411227166652679443359375</LongitudeDegrees>
            </Position>
            <AltitudeMeters>348.20001220703125</AltitudeMeters>
            <DistanceMeters>NAN</DistanceMeters>
          </Trackpoint>
          <Trackpoint>
            <Time>2020-02-15T11:13:44.000Z</Time>
            <Position>
              <LatitudeDegrees>41.98302372358739376068115234375</LatitudeDegrees>
              <LongitudeDegrees>2.89081304334104061126708984375</LongitudeDegrees>
            </Position>
            <AltitudeMeters>348.399993896484375</AltitudeMeters>
            <DistanceMeters>NAN</DistanceMeters>
          </Trackpoint>
          <Trackpoint>
            <Time>2020-02-15T11:13:45.000Z</Time>
            <Position>
              <LatitudeDegrees>41.98300637304782867431640625</LatitudeDegrees>
              <LongitudeDegrees>2.89078772999346256256103515625</LongitudeDegrees>
            </Position>
            <AltitudeMeters>348.399993896484375</AltitudeMeters>
            <DistanceMeters>NAN</DistanceMeters>
          </Trackpoint>
          <Trackpoint>
            <Time>2020-02-15T11:13:46.000Z</Time>
            <Position>
              <LatitudeDegrees>41.982992626726627349853515625</LatitudeDegrees>
              <LongitudeDegrees>2.89076484739780426025390625</LongitudeDegrees>
            </Position>
            <AltitudeMeters>348.600006103515625</AltitudeMeters>
            <DistanceMeters>NAN</DistanceMeters>
          </Trackpoint>
          <Trackpoint>
            <Time>2020-02-15T11:13:47.000Z</Time>
            <Position>
              <LatitudeDegrees>41.98297192342579364776611328125</LatitudeDegrees>
              <LongitudeDegrees>2.890739031136035919189453125</LongitudeDegrees>
            </Position>
            <AltitudeMeters>348.79998779296875</AltitudeMeters>
            <DistanceMeters>NAN</DistanceMeters>
          </Trackpoint>
          <Trackpoint>
            <Time>2020-02-15T11:13:48.000Z</Time>
            <Position>
              <LatitudeDegrees>41.9829528965055942535400390625</LatitudeDegrees>
              <LongitudeDegrees>2.890712879598140716552734375</LongitudeDegrees>
            </Position>
            <AltitudeMeters>348.79998779296875</AltitudeMeters>
            <DistanceMeters>NAN</DistanceMeters>
          </Trackpoint>
          <Trackpoint>
            <Time>2020-02-15T11:13:49.000Z</Time>
            <Position>
              <LatitudeDegrees>41.9829368032515048980712890625</LatitudeDegrees>
              <LongitudeDegrees>2.89068580605089664459228515625</LongitudeDegrees>
            </Position>
            <AltitudeMeters>349</AltitudeMeters>
            <DistanceMeters>NAN</DistanceMeters>
          </Trackpoint>
          <Trackpoint>
            <Time>2020-02-15T11:13:50.000Z</Time>
            <Position>
              <LatitudeDegrees>41.98291978798806667327880859375</LatitudeDegrees>
              <LongitudeDegrees>2.89065848104655742645263671875</LongitudeDegrees>
            </Position>
            <AltitudeMeters>349.399993896484375</AltitudeMeters>
            <DistanceMeters>NAN</DistanceMeters>
          </Trackpoint>
          <Trackpoint>
            <Time>2020-02-15T11:13:51.000Z</Time>
            <Position>
              <LatitudeDegrees>41.982906796038150787353515625</LatitudeDegrees>
              <LongitudeDegrees>2.89063098840415477752685546875</LongitudeDegrees>
            </Position>
            <AltitudeMeters>349.399993896484375</AltitudeMeters>
            <DistanceMeters>NAN</DistanceMeters>
          </Trackpoint>
          <Trackpoint>
            <Time>2020-02-15T11:13:52.000Z</Time>
            <Position>
              <LatitudeDegrees>41.9828922115266323089599609375</LatitudeDegrees>
              <LongitudeDegrees>2.8905970416963100433349609375</LongitudeDegrees>
            </Position>
            <AltitudeMeters>349.399993896484375</AltitudeMeters>
            <DistanceMeters>NAN</DistanceMeters>
          </Trackpoint>
          <Trackpoint>
            <Time>2020-02-15T11:13:54.000Z</Time>
            <Position>
              <LatitudeDegrees>41.982870586216449737548828125</LatitudeDegrees>
              <LongitudeDegrees>2.89053015410900115966796875</LongitudeDegrees>
            </Position>
            <AltitudeMeters>349.600006103515625</AltitudeMeters>
            <DistanceMeters>NAN</DistanceMeters>
          </Trackpoint>
          <Trackpoint>
            <Time>2020-02-15T11:13:56.000Z</Time>
            <Position>
              <LatitudeDegrees>41.9828529842197895050048828125</LatitudeDegrees>
              <LongitudeDegrees>2.8904485143721103668212890625</LongitudeDegrees>
            </Position>
            <AltitudeMeters>349.79998779296875</AltitudeMeters>
            <DistanceMeters>NAN</DistanceMeters>
          </Trackpoint>
          <Trackpoint>
            <Time>2020-02-15T11:13:57.000Z</Time>
            <Position>
              <LatitudeDegrees>41.98284686543047428131103515625</LatitudeDegrees>
              <LongitudeDegrees>2.890403755009174346923828125</LongitudeDegrees>
            </Position>
            <AltitudeMeters>349.79998779296875</AltitudeMeters>
            <DistanceMeters>NAN</DistanceMeters>
          </Trackpoint>
          <Trackpoint>
            <Time>2020-02-15T11:13:59.000Z</Time>
            <Position>
              <LatitudeDegrees>41.982844434678554534912109375</LatitudeDegrees>
              <LongitudeDegrees>2.89031750522553920745849609375</LongitudeDegrees>
            </Position>
            <AltitudeMeters>350</AltitudeMeters>
            <DistanceMeters>NAN</DistanceMeters>
          </Trackpoint>
          <Trackpoint>
            <Time>2020-02-15T11:14:01.000Z</Time>
            <Position>
              <LatitudeDegrees>41.982841081917285919189453125</LatitudeDegrees>
              <LongitudeDegrees>2.890223376452922821044921875</LongitudeDegrees>
            </Position>
            <AltitudeMeters>350</AltitudeMeters>
            <DistanceMeters>NAN</DistanceMeters>
          </Trackpoint>
          <Trackpoint>
            <Time>2020-02-15T11:14:02.000Z</Time>
            <Position>
              <LatitudeDegrees>41.98282993398606777191162109375</LatitudeDegrees>
              <LongitudeDegrees>2.8901772759854793548583984375</LongitudeDegrees>
            </Position>
            <AltitudeMeters>350.20001220703125</AltitudeMeters>
            <DistanceMeters>NAN</DistanceMeters>
          </Trackpoint>
          <Trackpoint>
            <Time>2020-02-15T11:14:03.000Z</Time>
            <Position>
              <LatitudeDegrees>41.98281182907521724700927734375</LatitudeDegrees>
              <LongitudeDegrees>2.890134193003177642822265625</LongitudeDegrees>
            </Position>
            <AltitudeMeters>350.20001220703125</AltitudeMeters>
            <DistanceMeters>NAN</DistanceMeters>
          </Trackpoint>
          <Trackpoint>
            <Time>2020-02-15T11:14:04.000Z</Time>
            <Position>
              <LatitudeDegrees>41.9827855937182903289794921875</LatitudeDegrees>
              <LongitudeDegrees>2.8900951333343982696533203125</LongitudeDegrees>
            </Position>
            <AltitudeMeters>350</AltitudeMeters>
            <DistanceMeters>NAN</DistanceMeters>
          </Trackpoint>
          <Trackpoint>
            <Time>2020-02-15T11:14:05.000Z</Time>
            <Position>
              <LatitudeDegrees>41.98275751434266567230224609375</LatitudeDegrees>
              <LongitudeDegrees>2.89005749858915805816650390625</LongitudeDegrees>
            </Position>
            <AltitudeMeters>350</AltitudeMeters>
            <DistanceMeters>NAN</DistanceMeters>
          </Trackpoint>
          <Trackpoint>
            <Time>2020-02-15T11:14:07.000Z</Time>
            <Position>
              <LatitudeDegrees>41.98270261287689208984375</LatitudeDegrees>
              <LongitudeDegrees>2.88999496959149837493896484375</LongitudeDegrees>
            </Position>
            <AltitudeMeters>350</AltitudeMeters>
            <DistanceMeters>NAN</DistanceMeters>
          </Trackpoint>
          <Trackpoint>
            <Time>2020-02-15T11:14:08.000Z</Time>
            <Position>
              <LatitudeDegrees>41.98267017491161823272705078125</LatitudeDegrees>
              <LongitudeDegrees>2.88996429182589054107666015625</LongitudeDegrees>
            </Position>
            <AltitudeMeters>350.399993896484375</AltitudeMeters>
            <DistanceMeters>NAN</DistanceMeters>
          </Trackpoint>
          <Trackpoint>
            <Time>2020-02-15T11:14:09.000Z</Time>
            <Position>
              <LatitudeDegrees>41.98263430036604404449462890625</LatitudeDegrees>
              <LongitudeDegrees>2.889930345118045806884765625</LongitudeDegrees>
            </Position>
            <AltitudeMeters>350.20001220703125</AltitudeMeters>
            <DistanceMeters>NAN</DistanceMeters>
          </Trackpoint>
          <Trackpoint>
            <Time>2020-02-15T11:14:11.000Z</Time>
            <Position>
              <LatitudeDegrees>41.98257143609225749969482421875</LatitudeDegrees>
              <LongitudeDegrees>2.88984660990536212921142578125</LongitudeDegrees>
            </Position>
            <AltitudeMeters>350.399993896484375</AltitudeMeters>
            <DistanceMeters>NAN</DistanceMeters>
          </Trackpoint>
          <Trackpoint>
            <Time>2020-02-15T11:14:12.000Z</Time>
            <Position>
              <LatitudeDegrees>41.98254377581179141998291015625</LatitudeDegrees>
              <LongitudeDegrees>2.88978827185928821563720703125</LongitudeDegrees>
            </Position>
            <AltitudeMeters>350.399993896484375</AltitudeMeters>
            <DistanceMeters>NAN</DistanceMeters>
          </Trackpoint>
          <Trackpoint>
            <Time>2020-02-15T11:14:13.000Z</Time>
            <Position>
              <LatitudeDegrees>41.9825234077870845794677734375</LatitudeDegrees>
              <LongitudeDegrees>2.88972523994743824005126953125</LongitudeDegrees>
            </Position>
            <AltitudeMeters>350.399993896484375</AltitudeMeters>
            <DistanceMeters>NAN</DistanceMeters>
          </Trackpoint>
          <Trackpoint>
            <Time>2020-02-15T11:14:14.000Z</Time>
            <Position>
              <LatitudeDegrees>41.9825140200555324554443359375</LatitudeDegrees>
              <LongitudeDegrees>2.88965483196079730987548828125</LongitudeDegrees>
            </Position>
            <AltitudeMeters>350.399993896484375</AltitudeMeters>
            <DistanceMeters>NAN</DistanceMeters>
          </Trackpoint>
          <Trackpoint>
            <Time>2020-02-15T11:14:15.000Z</Time>
            <Position>
              <LatitudeDegrees>41.98250756599009037017822265625</LatitudeDegrees>
              <LongitudeDegrees>2.8895784728229045867919921875</LongitudeDegrees>
            </Position>
            <AltitudeMeters>350.399993896484375</AltitudeMeters>
            <DistanceMeters>NAN</DistanceMeters>
          </Trackpoint>
          <Trackpoint>
            <Time>2020-02-15T11:14:16.000Z</Time>
            <Position>
              <LatitudeDegrees>41.98251242749392986297607421875</LatitudeDegrees>
              <LongitudeDegrees>2.88950412534177303314208984375</LongitudeDegrees>
            </Position>
            <AltitudeMeters>350.399993896484375</AltitudeMeters>
            <DistanceMeters>NAN</DistanceMeters>
          </Trackpoint>
          <Trackpoint>
            <Time>2020-02-15T11:14:17.000Z</Time>
            <Position>
              <LatitudeDegrees>41.9825307838618755340576171875</LatitudeDegrees>
              <LongitudeDegrees>2.88943287916481494903564453125</LongitudeDegrees>
            </Position>
            <AltitudeMeters>350.399993896484375</AltitudeMeters>
            <DistanceMeters>NAN</DistanceMeters>
          </Trackpoint>
          <Trackpoint>
            <Time>2020-02-15T11:14:18.000Z</Time>
            <Position>
              <LatitudeDegrees>41.98255249299108982086181640625</LatitudeDegrees>
              <LongitudeDegrees>2.88936297409236431121826171875</LongitudeDegrees>
            </Position>
            <AltitudeMeters>350.399993896484375</AltitudeMeters>
            <DistanceMeters>NAN</DistanceMeters>
          </Trackpoint>
          <Trackpoint>
            <Time>2020-02-15T11:14:19.000Z</Time>
            <Position>
              <LatitudeDegrees>41.98256925679743289947509765625</LatitudeDegrees>
              <LongitudeDegrees>2.88929122500121593475341796875</LongitudeDegrees>
            </Position>
            <AltitudeMeters>350.399993896484375</AltitudeMeters>
            <DistanceMeters>NAN</DistanceMeters>
          </Trackpoint>
          <Trackpoint>
            <Time>2020-02-15T11:14:20.000Z</Time>
            <Position>
              <LatitudeDegrees>41.98259021155536174774169921875</LatitudeDegrees>
              <LongitudeDegrees>2.88921595551073551177978515625</LongitudeDegrees>
            </Position>
            <AltitudeMeters>350.399993896484375</AltitudeMeters>
            <DistanceMeters>NAN</DistanceMeters>
          </Trackpoint>
          <Trackpoint>
            <Time>2020-02-15T11:14:21.000Z</Time>
            <Position>
              <LatitudeDegrees>41.982621140778064727783203125</LatitudeDegrees>
              <LongitudeDegrees>2.88913783617317676544189453125</LongitudeDegrees>
            </Position>
            <AltitudeMeters>350.20001220703125</AltitudeMeters>
            <DistanceMeters>NAN</DistanceMeters>
          </Trackpoint>
          <Trackpoint>
            <Time>2020-02-15T11:14:22.000Z</Time>
            <Position>
              <LatitudeDegrees>41.98264905251562595367431640625</LatitudeDegrees>
              <LongitudeDegrees>2.88905669935047626495361328125</LongitudeDegrees>
            </Position>
            <AltitudeMeters>350.399993896484375</AltitudeMeters>
            <DistanceMeters>NAN</DistanceMeters>
          </Trackpoint>
          <Trackpoint>
            <Time>2020-02-15T11:14:23.000Z</Time>
            <Position>
              <LatitudeDegrees>41.98268123902380466461181640625</LatitudeDegrees>
              <LongitudeDegrees>2.88897824473679065704345703125</LongitudeDegrees>
            </Position>
            <AltitudeMeters>350.399993896484375</AltitudeMeters>
            <DistanceMeters>NAN</DistanceMeters>
          </Trackpoint>
          <Trackpoint>
            <Time>2020-02-15T11:14:24.000Z</Time>
            <Position>
              <LatitudeDegrees>41.98271359317004680633544921875</LatitudeDegrees>
              <LongitudeDegrees>2.88890465162694454193115234375</LongitudeDegrees>
            </Position>
            <AltitudeMeters>350.20001220703125</AltitudeMeters>
            <DistanceMeters>NAN</DistanceMeters>
          </Trackpoint>
          <Trackpoint>
            <Time>2020-02-15T11:14:25.000Z</Time>
            <Position>
              <LatitudeDegrees>41.98275248520076274871826171875</LatitudeDegrees>
              <LongitudeDegrees>2.88884078152477741241455078125</LongitudeDegrees>
            </Position>
            <AltitudeMeters>350.399993896484375</AltitudeMeters>
            <DistanceMeters>NAN</DistanceMeters>
          </Trackpoint>
          <Trackpoint>
            <Time>2020-02-15T11:14:26.000Z</Time>
            <Position>
              <LatitudeDegrees>41.98278777301311492919921875</LatitudeDegrees>
              <LongitudeDegrees>2.8887748159468173980712890625</LongitudeDegrees>
            </Position>
            <AltitudeMeters>350.20001220703125</AltitudeMeters>
            <DistanceMeters>NAN</DistanceMeters>
          </Trackpoint>
          <Trackpoint>
            <Time>2020-02-15T11:14:27.000Z</Time>
            <Position>
              <LatitudeDegrees>41.98282188735902309417724609375</LatitudeDegrees>
              <LongitudeDegrees>2.8887121193110942840576171875</LongitudeDegrees>
            </Position>
            <AltitudeMeters>350.20001220703125</AltitudeMeters>
            <DistanceMeters>NAN</DistanceMeters>
          </Trackpoint>
          <Trackpoint>
            <Time>2020-02-15T11:14:28.000Z</Time>
            <Position>
              <LatitudeDegrees>41.982853151857852935791015625</LatitudeDegrees>
              <LongitudeDegrees>2.88865369744598865509033203125</LongitudeDegrees>
            </Position>
            <AltitudeMeters>350.20001220703125</AltitudeMeters>
            <DistanceMeters>NAN</DistanceMeters>
          </Trackpoint>
          <Trackpoint>
            <Time>2020-02-15T11:14:29.000Z</Time>
            <Position>
              <LatitudeDegrees>41.98288273997604846954345703125</LatitudeDegrees>
              <LongitudeDegrees>2.8885981254279613494873046875</LongitudeDegrees>
            </Position>
            <AltitudeMeters>350.20001220703125</AltitudeMeters>
            <DistanceMeters>NAN</DistanceMeters>
          </Trackpoint>
          <Trackpoint>
            <Time>2020-02-15T11:14:30.000Z</Time>
            <Position>
              <LatitudeDegrees>41.9829126633703708648681640625</LatitudeDegrees>
              <LongitudeDegrees>2.88854573853313922882080078125</LongitudeDegrees>
            </Position>
            <AltitudeMeters>350.20001220703125</AltitudeMeters>
            <DistanceMeters>NAN</DistanceMeters>
          </Trackpoint>
          <Trackpoint>
            <Time>2020-02-15T11:14:31.000Z</Time>
            <Position>
              <LatitudeDegrees>41.9829425029456615447998046875</LatitudeDegrees>
              <LongitudeDegrees>2.888492010533809661865234375</LongitudeDegrees>
            </Position>
            <AltitudeMeters>350.20001220703125</AltitudeMeters>
            <DistanceMeters>NAN</DistanceMeters>
          </Trackpoint>
          <Trackpoint>
            <Time>2020-02-15T11:14:32.000Z</Time>
            <Position>
              <LatitudeDegrees>41.982967816293239593505859375</LatitudeDegrees>
              <LongitudeDegrees>2.88843895308673381805419921875</LongitudeDegrees>
            </Position>
            <AltitudeMeters>350.20001220703125</AltitudeMeters>
            <DistanceMeters>NAN</DistanceMeters>
          </Trackpoint>
          <Trackpoint>
            <Time>2020-02-15T11:14:33.000Z</Time>
            <Position>
              <LatitudeDegrees>41.9829854182898998260498046875</LatitudeDegrees>
              <LongitudeDegrees>2.88838447071611881256103515625</LongitudeDegrees>
            </Position>
            <AltitudeMeters>350</AltitudeMeters>
            <DistanceMeters>NAN</DistanceMeters>
          </Trackpoint>
          <Trackpoint>
            <Time>2020-02-15T11:14:34.000Z</Time>
            <Position>
              <LatitudeDegrees>41.9829971529543399810791015625</LatitudeDegrees>
              <LongitudeDegrees>2.88832747377455234527587890625</LongitudeDegrees>
            </Position>
            <AltitudeMeters>350</AltitudeMeters>
            <DistanceMeters>NAN</DistanceMeters>
          </Trackpoint>
          <Trackpoint>
            <Time>2020-02-15T11:14:35.000Z</Time>
            <Position>
              <LatitudeDegrees>41.983003355562686920166015625</LatitudeDegrees>
              <LongitudeDegrees>2.88827307522296905517578125</LongitudeDegrees>
            </Position>
            <AltitudeMeters>349.79998779296875</AltitudeMeters>
            <DistanceMeters>NAN</DistanceMeters>
          </Trackpoint>
          <Trackpoint>
            <Time>2020-02-15T11:14:36.000Z</Time>
            <Position>
              <LatitudeDegrees>41.98300947435200214385986328125</LatitudeDegrees>
              <LongitudeDegrees>2.88822018541395664215087890625</LongitudeDegrees>
            </Position>
            <AltitudeMeters>349.79998779296875</AltitudeMeters>
            <DistanceMeters>NAN</DistanceMeters>
          </Trackpoint>
          <Trackpoint>
            <Time>2020-02-15T11:14:37.000Z</Time>
            <Position>
              <LatitudeDegrees>41.98301710188388824462890625</LatitudeDegrees>
              <LongitudeDegrees>2.88816821761429309844970703125</LongitudeDegrees>
            </Position>
            <AltitudeMeters>349.79998779296875</AltitudeMeters>
            <DistanceMeters>NAN</DistanceMeters>
          </Trackpoint>
          <Trackpoint>
            <Time>2020-02-15T11:14:38.000Z</Time>
            <Position>
              <LatitudeDegrees>41.9830285012722015380859375</LatitudeDegrees>
              <LongitudeDegrees>2.88811608217656612396240234375</LongitudeDegrees>
            </Position>
            <AltitudeMeters>349.79998779296875</AltitudeMeters>
            <DistanceMeters>NAN</DistanceMeters>
          </Trackpoint>
          <Trackpoint>
            <Time>2020-02-15T11:14:39.000Z</Time>
            <Position>
              <LatitudeDegrees>41.983039565384387969970703125</LatitudeDegrees>
              <LongitudeDegrees>2.88806377910077571868896484375</LongitudeDegrees>
            </Position>
            <AltitudeMeters>349.79998779296875</AltitudeMeters>
            <DistanceMeters>NAN</DistanceMeters>
          </Trackpoint>
          <Trackpoint>
            <Time>2020-02-15T11:14:40.000Z</Time>
            <Position>
              <LatitudeDegrees>41.98304392397403717041015625</LatitudeDegrees>
              <LongitudeDegrees>2.8880127333104610443115234375</LongitudeDegrees>
            </Position>
            <AltitudeMeters>349.79998779296875</AltitudeMeters>
            <DistanceMeters>NAN</DistanceMeters>
          </Trackpoint>
          <Trackpoint>
            <Time>2020-02-15T11:14:41.000Z</Time>
            <Position>
              <LatitudeDegrees>41.983043588697910308837890625</LatitudeDegrees>
              <LongitudeDegrees>2.887963615357875823974609375</LongitudeDegrees>
            </Position>
            <AltitudeMeters>349.79998779296875</AltitudeMeters>
            <DistanceMeters>NAN</DistanceMeters>
          </Trackpoint>
          <Trackpoint>
            <Time>2020-02-15T11:14:42.000Z</Time>
            <Position>
              <LatitudeDegrees>41.983038894832134246826171875</LatitudeDegrees>
              <LongitudeDegrees>2.88791676051914691925048828125</LongitudeDegrees>
            </Position>
            <AltitudeMeters>349.600006103515625</AltitudeMeters>
            <DistanceMeters>NAN</DistanceMeters>
          </Trackpoint>
          <Trackpoint>
            <Time>2020-02-15T11:14:43.000Z</Time>
            <Position>
              <LatitudeDegrees>41.98303177021443843841552734375</LatitudeDegrees>
              <LongitudeDegrees>2.8878712467849254608154296875</LongitudeDegrees>
            </Position>
            <AltitudeMeters>349.399993896484375</AltitudeMeters>
            <DistanceMeters>NAN</DistanceMeters>
          </Trackpoint>
          <Trackpoint>
            <Time>2020-02-15T11:14:44.000Z</Time>
            <Position>
              <LatitudeDegrees>41.98301886208355426788330078125</LatitudeDegrees>
              <LongitudeDegrees>2.8878284990787506103515625</LongitudeDegrees>
            </Position>
            <AltitudeMeters>349.600006103515625</AltitudeMeters>
            <DistanceMeters>NAN</DistanceMeters>
          </Trackpoint>
          <Trackpoint>
            <Time>2020-02-15T11:14:45.000Z</Time>
            <Position>
              <LatitudeDegrees>41.98300243355333805084228515625</LatitudeDegrees>
              <LongitudeDegrees>2.88779002614319324493408203125</LongitudeDegrees>
            </Position>
            <AltitudeMeters>349.600006103515625</AltitudeMeters>
            <DistanceMeters>NAN</DistanceMeters>
          </Trackpoint>
          <Trackpoint>
            <Time>2020-02-15T11:14:46.000Z</Time>
            <Position>
              <LatitudeDegrees>41.98298181407153606414794921875</LatitudeDegrees>
              <LongitudeDegrees>2.88775532506406307220458984375</LongitudeDegrees>
            </Position>
            <AltitudeMeters>349.399993896484375</AltitudeMeters>
            <DistanceMeters>NAN</DistanceMeters>
          </Trackpoint>
          <Trackpoint>
            <Time>2020-02-15T11:14:47.000Z</Time>
            <Position>
              <LatitudeDegrees>41.9829585961997509002685546875</LatitudeDegrees>
              <LongitudeDegrees>2.8877185285091400146484375</LongitudeDegrees>
            </Position>
            <AltitudeMeters>349.600006103515625</AltitudeMeters>
            <DistanceMeters>NAN</DistanceMeters>
          </Trackpoint>
          <Trackpoint>
            <Time>2020-02-15T11:14:49.000Z</Time>
            <Position>
              <LatitudeDegrees>41.98290017433464527130126953125</LatitudeDegrees>
              <LongitudeDegrees>2.88765080273151397705078125</LongitudeDegrees>
            </Position>
            <AltitudeMeters>349.399993896484375</AltitudeMeters>
            <DistanceMeters>NAN</DistanceMeters>
          </Trackpoint>
          <Trackpoint>
            <Time>2020-02-15T11:14:50.000Z</Time>
            <Position>
              <LatitudeDegrees>41.9828627072274684906005859375</LatitudeDegrees>
              <LongitudeDegrees>2.88762263953685760498046875</LongitudeDegrees>
            </Position>
            <AltitudeMeters>349.399993896484375</AltitudeMeters>
            <DistanceMeters>NAN</DistanceMeters>
          </Trackpoint>
          <Trackpoint>
            <Time>2020-02-15T11:14:52.000Z</Time>
            <Position>
              <LatitudeDegrees>41.982779391109943389892578125</LatitudeDegrees>
              <LongitudeDegrees>2.88756572641432285308837890625</LongitudeDegrees>
            </Position>
            <AltitudeMeters>349.20001220703125</AltitudeMeters>
            <DistanceMeters>NAN</DistanceMeters>
          </Trackpoint>
          <Trackpoint>
            <Time>2020-02-15T11:14:53.000Z</Time>
            <Position>
              <LatitudeDegrees>41.98273605667054653167724609375</LatitudeDegrees>
              <LongitudeDegrees>2.88752901367843151092529296875</LongitudeDegrees>
            </Position>
            <AltitudeMeters>349.20001220703125</AltitudeMeters>
            <DistanceMeters>NAN</DistanceMeters>
          </Trackpoint>
          <Trackpoint>
            <Time>2020-02-15T11:14:54.000Z</Time>
            <Position>
              <LatitudeDegrees>41.98269431479275226593017578125</LatitudeDegrees>
              <LongitudeDegrees>2.8874833323061466217041015625</LongitudeDegrees>
            </Position>
            <AltitudeMeters>349.20001220703125</AltitudeMeters>
            <DistanceMeters>NAN</DistanceMeters>
          </Trackpoint>
          <Trackpoint>
            <Time>2020-02-15T11:14:55.000Z</Time>
            <Position>
              <LatitudeDegrees>41.98264938779175281524658203125</LatitudeDegrees>
              <LongitudeDegrees>2.88742876611649990081787109375</LongitudeDegrees>
            </Position>
            <AltitudeMeters>349.20001220703125</AltitudeMeters>
            <DistanceMeters>NAN</DistanceMeters>
          </Trackpoint>
          <Trackpoint>
            <Time>2020-02-15T11:14:56.000Z</Time>
            <Position>
              <LatitudeDegrees>41.98260848410427570343017578125</LatitudeDegrees>
              <LongitudeDegrees>2.8873710148036479949951171875</LongitudeDegrees>
            </Position>
            <AltitudeMeters>349</AltitudeMeters>
            <DistanceMeters>NAN</DistanceMeters>
          </Trackpoint>
          <Trackpoint>
            <Time>2020-02-15T11:14:57.000Z</Time>
            <Position>
              <LatitudeDegrees>41.9825646467506885528564453125</LatitudeDegrees>
              <LongitudeDegrees>2.8873089887201786041259765625</LongitudeDegrees>
            </Position>
            <AltitudeMeters>348.79998779296875</AltitudeMeters>
            <DistanceMeters>NAN</DistanceMeters>
          </Trackpoint>
          <Trackpoint>
            <Time>2020-02-15T11:14:59.000Z</Time>
            <Position>
              <LatitudeDegrees>41.98248979635536670684814453125</LatitudeDegrees>
              <LongitudeDegrees>2.8871685080230236053466796875</LongitudeDegrees>
            </Position>
            <AltitudeMeters>348.79998779296875</AltitudeMeters>
            <DistanceMeters>NAN</DistanceMeters>
          </Trackpoint>
          <Trackpoint>
            <Time>2020-02-15T11:15:00.000Z</Time>
            <Position>
              <LatitudeDegrees>41.98246599175035953521728515625</LatitudeDegrees>
              <LongitudeDegrees>2.8870882093906402587890625</LongitudeDegrees>
            </Position>
            <AltitudeMeters>348.399993896484375</AltitudeMeters>
            <DistanceMeters>NAN</DistanceMeters>
          </Trackpoint>
          <Trackpoint>
            <Time>2020-02-15T11:15:01.000Z</Time>
            <Position>
              <LatitudeDegrees>41.98245543055236339569091796875</LatitudeDegrees>
              <LongitudeDegrees>2.8870028816163539886474609375</LongitudeDegrees>
            </Position>
            <AltitudeMeters>348.399993896484375</AltitudeMeters>
            <DistanceMeters>NAN</DistanceMeters>
          </Trackpoint>
          <Trackpoint>
            <Time>2020-02-15T11:15:02.000Z</Time>
            <Position>
              <LatitudeDegrees>41.98245274834334850311279296875</LatitudeDegrees>
              <LongitudeDegrees>2.88691763766109943389892578125</LongitudeDegrees>
            </Position>
            <AltitudeMeters>348.20001220703125</AltitudeMeters>
            <DistanceMeters>NAN</DistanceMeters>
          </Trackpoint>
          <Trackpoint>
            <Time>2020-02-15T11:15:03.000Z</Time>
            <Position>
              <LatitudeDegrees>41.98246113024652004241943359375</LatitudeDegrees>
              <LongitudeDegrees>2.88683851249516010284423828125</LongitudeDegrees>
            </Position>
            <AltitudeMeters>348</AltitudeMeters>
            <DistanceMeters>NAN</DistanceMeters>
          </Trackpoint>
          <Trackpoint>
            <Time>2020-02-15T11:15:04.000Z</Time>
            <Position>
              <LatitudeDegrees>41.98248091153800487518310546875</LatitudeDegrees>
              <LongitudeDegrees>2.88676626048982143402099609375</LongitudeDegrees>
            </Position>
            <AltitudeMeters>347</AltitudeMeters>
            <DistanceMeters>NAN</DistanceMeters>
          </Trackpoint>
          <Trackpoint>
            <Time>2020-02-15T11:15:05.000Z</Time>
            <Position>
              <LatitudeDegrees>41.98250454850494861602783203125</LatitudeDegrees>
              <LongitudeDegrees>2.88669400848448276519775390625</LongitudeDegrees>
            </Position>
            <AltitudeMeters>346.600006103515625</AltitudeMeters>
            <DistanceMeters>NAN</DistanceMeters>
          </Trackpoint>
          <Trackpoint>
            <Time>2020-02-15T11:15:06.000Z</Time>
            <Position>
              <LatitudeDegrees>41.98252416215837001800537109375</LatitudeDegrees>
              <LongitudeDegrees>2.88662108592689037322998046875</LongitudeDegrees>
            </Position>
            <AltitudeMeters>346.20001220703125</AltitudeMeters>
            <DistanceMeters>NAN</DistanceMeters>
          </Trackpoint>
          <Trackpoint>
            <Time>2020-02-15T11:15:07.000Z</Time>
            <Position>
              <LatitudeDegrees>41.9825462065637111663818359375</LatitudeDegrees>
              <LongitudeDegrees>2.8865532763302326202392578125</LongitudeDegrees>
            </Position>
            <AltitudeMeters>344.600006103515625</AltitudeMeters>
            <DistanceMeters>NAN</DistanceMeters>
          </Trackpoint>
          <Trackpoint>
            <Time>2020-02-15T11:15:08.000Z</Time>
            <Position>
              <LatitudeDegrees>41.98256975971162319183349609375</LatitudeDegrees>
              <LongitudeDegrees>2.88649074733257293701171875</LongitudeDegrees>
            </Position>
            <AltitudeMeters>343.600006103515625</AltitudeMeters>
            <DistanceMeters>NAN</DistanceMeters>
          </Trackpoint>
          <Trackpoint>
            <Time>2020-02-15T11:15:09.000Z</Time>
            <Position>
              <LatitudeDegrees>41.9825951568782329559326171875</LatitudeDegrees>
              <LongitudeDegrees>2.886430732905864715576171875</LongitudeDegrees>
            </Position>
            <AltitudeMeters>342.79998779296875</AltitudeMeters>
            <DistanceMeters>NAN</DistanceMeters>
          </Trackpoint>
          <Trackpoint>
            <Time>2020-02-15T11:15:10.000Z</Time>
            <Position>
              <LatitudeDegrees>41.9826213084161281585693359375</LatitudeDegrees>
              <LongitudeDegrees>2.886375077068805694580078125</LongitudeDegrees>
            </Position>
            <AltitudeMeters>342.399993896484375</AltitudeMeters>
            <DistanceMeters>NAN</DistanceMeters>
          </Trackpoint>
          <Trackpoint>
            <Time>2020-02-15T11:15:11.000Z</Time>
            <Position>
              <LatitudeDegrees>41.98264637030661106109619140625</LatitudeDegrees>
              <LongitudeDegrees>2.88631975650787353515625</LongitudeDegrees>
            </Position>
            <AltitudeMeters>342</AltitudeMeters>
            <DistanceMeters>NAN</DistanceMeters>
          </Trackpoint>
          <Trackpoint>
            <Time>2020-02-15T11:15:12.000Z</Time>
            <Position>
              <LatitudeDegrees>41.9826699234545230865478515625</LatitudeDegrees>
              <LongitudeDegrees>2.88626552559435367584228515625</LongitudeDegrees>
            </Position>
            <AltitudeMeters>341.79998779296875</AltitudeMeters>
            <DistanceMeters>NAN</DistanceMeters>
          </Trackpoint>
          <Trackpoint>
            <Time>2020-02-15T11:15:13.000Z</Time>
            <Position>
              <LatitudeDegrees>41.9826893694698810577392578125</LatitudeDegrees>
              <LongitudeDegrees>2.88621037267148494720458984375</LongitudeDegrees>
            </Position>
            <AltitudeMeters>341.600006103515625</AltitudeMeters>
            <DistanceMeters>NAN</DistanceMeters>
          </Trackpoint>
          <Trackpoint>
            <Time>2020-02-15T11:15:14.000Z</Time>
            <Position>
              <LatitudeDegrees>41.98271225206553936004638671875</LatitudeDegrees>
              <LongitudeDegrees>2.886161170899868011474609375</LongitudeDegrees>
            </Position>
            <AltitudeMeters>341.600006103515625</AltitudeMeters>
            <DistanceMeters>NAN</DistanceMeters>
          </Trackpoint>
          <Trackpoint>
            <Time>2020-02-15T11:15:15.000Z</Time>
            <Position>
              <LatitudeDegrees>41.98273337446153163909912109375</LatitudeDegrees>
              <LongitudeDegrees>2.88611314259469509124755859375</LongitudeDegrees>
            </Position>
            <AltitudeMeters>341.399993896484375</AltitudeMeters>
            <DistanceMeters>NAN</DistanceMeters>
          </Trackpoint>
          <Trackpoint>
            <Time>2020-02-15T11:15:16.000Z</Time>
            <Position>
              <LatitudeDegrees>41.98275424540042877197265625</LatitudeDegrees>
              <LongitudeDegrees>2.88606888614594936370849609375</LongitudeDegrees>
            </Position>
            <AltitudeMeters>341.399993896484375</AltitudeMeters>
            <DistanceMeters>NAN</DistanceMeters>
          </Trackpoint>
          <Trackpoint>
            <Time>2020-02-15T11:15:17.000Z</Time>
            <Position>
              <LatitudeDegrees>41.9827792234718799591064453125</LatitudeDegrees>
              <LongitudeDegrees>2.886029072105884552001953125</LongitudeDegrees>
            </Position>
            <AltitudeMeters>341.20001220703125</AltitudeMeters>
            <DistanceMeters>NAN</DistanceMeters>
          </Trackpoint>
          <Trackpoint>
            <Time>2020-02-15T11:15:18.000Z</Time>
            <Position>
              <LatitudeDegrees>41.98280260898172855377197265625</LatitudeDegrees>
              <LongitudeDegrees>2.8859943710267543792724609375</LongitudeDegrees>
            </Position>
            <AltitudeMeters>341.399993896484375</AltitudeMeters>
            <DistanceMeters>NAN</DistanceMeters>
          </Trackpoint>
          <Trackpoint>
            <Time>2020-02-15T11:15:19.000Z</Time>
            <Position>
              <LatitudeDegrees>41.982826329767704010009765625</LatitudeDegrees>
              <LongitudeDegrees>2.8859615139663219451904296875</LongitudeDegrees>
            </Position>
            <AltitudeMeters>341.399993896484375</AltitudeMeters>
            <DistanceMeters>NAN</DistanceMeters>
          </Trackpoint>
          <Trackpoint>
            <Time>2020-02-15T11:15:20.000Z</Time>
            <Position>
              <LatitudeDegrees>41.98284753598272800445556640625</LatitudeDegrees>
              <LongitudeDegrees>2.8859310038387775421142578125</LongitudeDegrees>
            </Position>
            <AltitudeMeters>341.20001220703125</AltitudeMeters>
            <DistanceMeters>NAN</DistanceMeters>
          </Trackpoint>
          <Trackpoint>
            <Time>2020-02-15T11:15:21.000Z</Time>
            <Position>
              <LatitudeDegrees>41.98286698199808597564697265625</LatitudeDegrees>
              <LongitudeDegrees>2.88590594194829463958740234375</LongitudeDegrees>
            </Position>
            <AltitudeMeters>341.20001220703125</AltitudeMeters>
            <DistanceMeters>NAN</DistanceMeters>
          </Trackpoint>
          <Trackpoint>
            <Time>2020-02-15T11:15:22.000Z</Time>
            <Position>
              <LatitudeDegrees>41.98287871666252613067626953125</LatitudeDegrees>
              <LongitudeDegrees>2.88588196970522403717041015625</LongitudeDegrees>
            </Position>
            <AltitudeMeters>341</AltitudeMeters>
            <DistanceMeters>NAN</DistanceMeters>
          </Trackpoint>
          <Trackpoint>
            <Time>2020-02-15T11:15:23.000Z</Time>
            <Position>
              <LatitudeDegrees>41.982892043888568878173828125</LatitudeDegrees>
              <LongitudeDegrees>2.88585715927183628082275390625</LongitudeDegrees>
            </Position>
            <AltitudeMeters>341.20001220703125</AltitudeMeters>
            <DistanceMeters>NAN</DistanceMeters>
          </Trackpoint>
          <Trackpoint>
            <Time>2020-02-15T11:15:24.000Z</Time>
            <Position>
              <LatitudeDegrees>41.98290444910526275634765625</LatitudeDegrees>
              <LongitudeDegrees>2.88583368994295597076416015625</LongitudeDegrees>
            </Position>
            <AltitudeMeters>341</AltitudeMeters>
            <DistanceMeters>NAN</DistanceMeters>
          </Trackpoint>
          <Trackpoint>
            <Time>2020-02-15T11:15:25.000Z</Time>
            <Position>
              <LatitudeDegrees>41.98291677050292491912841796875</LatitudeDegrees>
              <LongitudeDegrees>2.885811813175678253173828125</LongitudeDegrees>
            </Position>
            <AltitudeMeters>341</AltitudeMeters>
            <DistanceMeters>NAN</DistanceMeters>
          </Trackpoint>
          <Trackpoint>
            <Time>2020-02-15T11:15:26.000Z</Time>
            <Position>
              <LatitudeDegrees>41.98293185792863368988037109375</LatitudeDegrees>
              <LongitudeDegrees>2.8857927024364471435546875</LongitudeDegrees>
            </Position>
            <AltitudeMeters>341</AltitudeMeters>
            <DistanceMeters>NAN</DistanceMeters>
          </Trackpoint>
          <Trackpoint>
            <Time>2020-02-15T11:15:27.000Z</Time>
            <Position>
              <LatitudeDegrees>41.98294543661177158355712890625</LatitudeDegrees>
              <LongitudeDegrees>2.88577216677367687225341796875</LongitudeDegrees>
            </Position>
            <AltitudeMeters>340.79998779296875</AltitudeMeters>
            <DistanceMeters>NAN</DistanceMeters>
          </Trackpoint>
          <Trackpoint>
            <Time>2020-02-15T11:15:28.000Z</Time>
            <Position>
              <LatitudeDegrees>41.98295180685818195343017578125</LatitudeDegrees>
              <LongitudeDegrees>2.8857529722154140472412109375</LongitudeDegrees>
            </Position>
            <AltitudeMeters>340.79998779296875</AltitudeMeters>
            <DistanceMeters>NAN</DistanceMeters>
          </Trackpoint>
          <Trackpoint>
            <Time>2020-02-15T11:15:29.000Z</Time>
            <Position>
              <LatitudeDegrees>41.98296220041811466217041015625</LatitudeDegrees>
              <LongitudeDegrees>2.88573226891458034515380859375</LongitudeDegrees>
            </Position>
            <AltitudeMeters>340.79998779296875</AltitudeMeters>
            <DistanceMeters>NAN</DistanceMeters>
          </Trackpoint>
          <Trackpoint>
            <Time>2020-02-15T11:15:30.000Z</Time>
            <Position>
              <LatitudeDegrees>41.98296873830258846282958984375</LatitudeDegrees>
              <LongitudeDegrees>2.88571148179471492767333984375</LongitudeDegrees>
            </Position>
            <AltitudeMeters>340.79998779296875</AltitudeMeters>
            <DistanceMeters>NAN</DistanceMeters>
          </Trackpoint>
          <Trackpoint>
            <Time>2020-02-15T11:15:31.000Z</Time>
            <Position>
              <LatitudeDegrees>41.98297929950058460235595703125</LatitudeDegrees>
              <LongitudeDegrees>2.88568935357034206390380859375</LongitudeDegrees>
            </Position>
            <AltitudeMeters>340.600006103515625</AltitudeMeters>
            <DistanceMeters>NAN</DistanceMeters>
          </Trackpoint>
          <Trackpoint>
            <Time>2020-02-15T11:15:32.000Z</Time>
            <Position>
              <LatitudeDegrees>41.9829944707453250885009765625</LatitudeDegrees>
              <LongitudeDegrees>2.8856671415269374847412109375</LongitudeDegrees>
            </Position>
            <AltitudeMeters>340.600006103515625</AltitudeMeters>
            <DistanceMeters>NAN</DistanceMeters>
          </Trackpoint>
          <Trackpoint>
            <Time>2020-02-15T11:15:33.000Z</Time>
            <Position>
              <LatitudeDegrees>41.98301031254231929779052734375</LatitudeDegrees>
              <LongitudeDegrees>2.88563922978937625885009765625</LongitudeDegrees>
            </Position>
            <AltitudeMeters>340.600006103515625</AltitudeMeters>
            <DistanceMeters>NAN</DistanceMeters>
          </Trackpoint>
          <Trackpoint>
            <Time>2020-02-15T11:15:34.000Z</Time>
            <Position>
              <LatitudeDegrees>41.9830231368541717529296875</LatitudeDegrees>
              <LongitudeDegrees>2.885615341365337371826171875</LongitudeDegrees>
            </Position>
            <AltitudeMeters>340.600006103515625</AltitudeMeters>
            <DistanceMeters>NAN</DistanceMeters>
          </Trackpoint>
          <Trackpoint>
            <Time>2020-02-15T11:15:36.000Z</Time>
            <Position>
              <LatitudeDegrees>41.98303495533764362335205078125</LatitudeDegrees>
              <LongitudeDegrees>2.88556429557502269744873046875</LongitudeDegrees>
            </Position>
            <AltitudeMeters>340.79998779296875</AltitudeMeters>
            <DistanceMeters>NAN</DistanceMeters>
          </Trackpoint>
          <Trackpoint>
            <Time>2020-02-15T11:15:37.000Z</Time>
            <Position>
              <LatitudeDegrees>41.9830507971346378326416015625</LatitudeDegrees>
              <LongitudeDegrees>2.88553722202777862548828125</LongitudeDegrees>
            </Position>
            <AltitudeMeters>340.600006103515625</AltitudeMeters>
            <DistanceMeters>NAN</DistanceMeters>
          </Trackpoint>
          <Trackpoint>
            <Time>2020-02-15T11:15:38.000Z</Time>
            <Position>
              <LatitudeDegrees>41.98307015933096408843994140625</LatitudeDegrees>
              <LongitudeDegrees>2.88550914265215396881103515625</LongitudeDegrees>
            </Position>
            <AltitudeMeters>340.600006103515625</AltitudeMeters>
            <DistanceMeters>NAN</DistanceMeters>
          </Trackpoint>
          <Trackpoint>
            <Time>2020-02-15T11:15:39.000Z</Time>
            <Position>
              <LatitudeDegrees>41.98310033418238162994384765625</LatitudeDegrees>
              <LongitudeDegrees>2.88548223674297332763671875</LongitudeDegrees>
            </Position>
            <AltitudeMeters>340.600006103515625</AltitudeMeters>
            <DistanceMeters>NAN</DistanceMeters>
          </Trackpoint>
          <Trackpoint>
            <Time>2020-02-15T11:15:40.000Z</Time>
            <Position>
              <LatitudeDegrees>41.9831312634050846099853515625</LatitudeDegrees>
              <LongitudeDegrees>2.88545130752027034759521484375</LongitudeDegrees>
            </Position>
            <AltitudeMeters>340.600006103515625</AltitudeMeters>
            <DistanceMeters>NAN</DistanceMeters>
          </Trackpoint>
          <Trackpoint>
            <Time>2020-02-15T11:15:41.000Z</Time>
            <Position>
              <LatitudeDegrees>41.9831537269055843353271484375</LatitudeDegrees>
              <LongitudeDegrees>2.88541828282177448272705078125</LongitudeDegrees>
            </Position>
            <AltitudeMeters>340.79998779296875</AltitudeMeters>
            <DistanceMeters>NAN</DistanceMeters>
          </Trackpoint>
          <Trackpoint>
            <Time>2020-02-15T11:15:42.000Z</Time>
            <Position>
              <LatitudeDegrees>41.983181722462177276611328125</LatitudeDegrees>
              <LongitudeDegrees>2.885390035808086395263671875</LongitudeDegrees>
            </Position>
            <AltitudeMeters>340.600006103515625</AltitudeMeters>
            <DistanceMeters>NAN</DistanceMeters>
          </Trackpoint>
          <Trackpoint>
            <Time>2020-02-15T11:15:43.000Z</Time>
            <Position>
              <LatitudeDegrees>41.98320477269589900970458984375</LatitudeDegrees>
              <LongitudeDegrees>2.8853474557399749755859375</LongitudeDegrees>
            </Position>
            <AltitudeMeters>340.600006103515625</AltitudeMeters>
            <DistanceMeters>NAN</DistanceMeters>
          </Trackpoint>
          <Trackpoint>
            <Time>2020-02-15T11:15:44.000Z</Time>
            <Position>
              <LatitudeDegrees>41.98321692645549774169921875</LatitudeDegrees>
              <LongitudeDegrees>2.88530060090124607086181640625</LongitudeDegrees>
            </Position>
            <AltitudeMeters>340.79998779296875</AltitudeMeters>
            <DistanceMeters>NAN</DistanceMeters>
          </Trackpoint>
          <Trackpoint>
            <Time>2020-02-15T11:15:45.000Z</Time>
            <Position>
              <LatitudeDegrees>41.98322136886417865753173828125</LatitudeDegrees>
              <LongitudeDegrees>2.88524779491126537322998046875</LongitudeDegrees>
            </Position>
            <AltitudeMeters>341</AltitudeMeters>
            <DistanceMeters>NAN</DistanceMeters>
          </Trackpoint>
          <Trackpoint>
            <Time>2020-02-15T11:15:46.000Z</Time>
            <Position>
              <LatitudeDegrees>41.983229331672191619873046875</LatitudeDegrees>
              <LongitudeDegrees>2.8852017782628536224365234375</LongitudeDegrees>
            </Position>
            <AltitudeMeters>341.20001220703125</AltitudeMeters>
            <DistanceMeters>NAN</DistanceMeters>
          </Trackpoint>
          <Trackpoint>
            <Time>2020-02-15T11:15:47.000Z</Time>
            <Position>
              <LatitudeDegrees>41.9832355342805385589599609375</LatitudeDegrees>
              <LongitudeDegrees>2.88515458814799785614013671875</LongitudeDegrees>
            </Position>
            <AltitudeMeters>341.399993896484375</AltitudeMeters>
            <DistanceMeters>NAN</DistanceMeters>
          </Trackpoint>
          <Trackpoint>
            <Time>2020-02-15T11:15:48.000Z</Time>
            <Position>
              <LatitudeDegrees>41.98324232362210750579833984375</LatitudeDegrees>
              <LongitudeDegrees>2.88510672748088836669921875</LongitudeDegrees>
            </Position>
            <AltitudeMeters>341.399993896484375</AltitudeMeters>
            <DistanceMeters>NAN</DistanceMeters>
          </Trackpoint>
          <Trackpoint>
            <Time>2020-02-15T11:15:49.000Z</Time>
            <Position>
              <LatitudeDegrees>41.9832526333630084991455078125</LatitudeDegrees>
              <LongitudeDegrees>2.88506087847054004669189453125</LongitudeDegrees>
            </Position>
            <AltitudeMeters>341.79998779296875</AltitudeMeters>
            <DistanceMeters>NAN</DistanceMeters>
          </Trackpoint>
          <Trackpoint>
            <Time>2020-02-15T11:15:50.000Z</Time>
            <Position>
              <LatitudeDegrees>41.98326386511325836181640625</LatitudeDegrees>
              <LongitudeDegrees>2.88501821458339691162109375</LongitudeDegrees>
            </Position>
            <AltitudeMeters>342</AltitudeMeters>
            <DistanceMeters>NAN</DistanceMeters>
          </Trackpoint>
          <Trackpoint>
            <Time>2020-02-15T11:15:51.000Z</Time>
            <Position>
              <LatitudeDegrees>41.98327283374965190887451171875</LatitudeDegrees>
              <LongitudeDegrees>2.8849831782281398773193359375</LongitudeDegrees>
            </Position>
            <AltitudeMeters>342.20001220703125</AltitudeMeters>
            <DistanceMeters>NAN</DistanceMeters>
          </Trackpoint>
          <Trackpoint>
            <Time>2020-02-15T11:15:52.000Z</Time>
            <Position>
              <LatitudeDegrees>41.983280293643474578857421875</LatitudeDegrees>
              <LongitudeDegrees>2.8849519975483417510986328125</LongitudeDegrees>
            </Position>
            <AltitudeMeters>342.600006103515625</AltitudeMeters>
            <DistanceMeters>NAN</DistanceMeters>
          </Trackpoint>
          <Trackpoint>
            <Time>2020-02-15T11:15:53.000Z</Time>
            <Position>
              <LatitudeDegrees>41.98328658007085323333740234375</LatitudeDegrees>
              <LongitudeDegrees>2.88491821847856044769287109375</LongitudeDegrees>
            </Position>
            <AltitudeMeters>343</AltitudeMeters>
            <DistanceMeters>NAN</DistanceMeters>
          </Trackpoint>
          <Trackpoint>
            <Time>2020-02-15T11:15:54.000Z</Time>
            <Position>
              <LatitudeDegrees>41.98329043574631214141845703125</LatitudeDegrees>
              <LongitudeDegrees>2.884886451065540313720703125</LongitudeDegrees>
            </Position>
            <AltitudeMeters>343.399993896484375</AltitudeMeters>
            <DistanceMeters>NAN</DistanceMeters>
          </Trackpoint>
          <Trackpoint>
            <Time>2020-02-15T11:15:55.000Z</Time>
            <Position>
              <LatitudeDegrees>41.98329127393662929534912109375</LatitudeDegrees>
              <LongitudeDegrees>2.88485904224216938018798828125</LongitudeDegrees>
            </Position>
            <AltitudeMeters>343.399993896484375</AltitudeMeters>
            <DistanceMeters>NAN</DistanceMeters>
          </Trackpoint>
          <Trackpoint>
            <Time>2020-02-15T11:15:56.000Z</Time>
            <Position>
              <LatitudeDegrees>41.98328666388988494873046875</LatitudeDegrees>
              <LongitudeDegrees>2.88483473472297191619873046875</LongitudeDegrees>
            </Position>
            <AltitudeMeters>343.600006103515625</AltitudeMeters>
            <DistanceMeters>NAN</DistanceMeters>
          </Trackpoint>
          <Trackpoint>
            <Time>2020-02-15T11:15:57.000Z</Time>
            <Position>
              <LatitudeDegrees>41.98328842408955097198486328125</LatitudeDegrees>
              <LongitudeDegrees>2.8848084993660449981689453125</LongitudeDegrees>
            </Position>
            <AltitudeMeters>344.399993896484375</AltitudeMeters>
            <DistanceMeters>NAN</DistanceMeters>
          </Trackpoint>
          <Trackpoint>
            <Time>2020-02-15T11:15:58.000Z</Time>
            <Position>
              <LatitudeDegrees>41.9832938723266124725341796875</LatitudeDegrees>
              <LongitudeDegrees>2.884781844913959503173828125</LongitudeDegrees>
            </Position>
            <AltitudeMeters>344.600006103515625</AltitudeMeters>
            <DistanceMeters>NAN</DistanceMeters>
          </Trackpoint>
          <Trackpoint>
            <Time>2020-02-15T11:15:59.000Z</Time>
            <Position>
              <LatitudeDegrees>41.9832925312221050262451171875</LatitudeDegrees>
              <LongitudeDegrees>2.88475493900477886199951171875</LongitudeDegrees>
            </Position>
            <AltitudeMeters>345</AltitudeMeters>
            <DistanceMeters>NAN</DistanceMeters>
          </Trackpoint>
          <Trackpoint>
            <Time>2020-02-15T11:16:00.000Z</Time>
            <Position>
              <LatitudeDegrees>41.9832905195653438568115234375</LatitudeDegrees>
              <LongitudeDegrees>2.8847300447523593902587890625</LongitudeDegrees>
            </Position>
            <AltitudeMeters>345</AltitudeMeters>
            <DistanceMeters>NAN</DistanceMeters>
          </Trackpoint>
          <Trackpoint>
            <Time>2020-02-15T11:16:01.000Z</Time>
            <Position>
              <LatitudeDegrees>41.98328356258571147918701171875</LatitudeDegrees>
              <LongitudeDegrees>2.8847032226622104644775390625</LongitudeDegrees>
            </Position>
            <AltitudeMeters>345</AltitudeMeters>
            <DistanceMeters>NAN</DistanceMeters>
          </Trackpoint>
          <Trackpoint>
            <Time>2020-02-15T11:16:02.000Z</Time>
            <Position>
              <LatitudeDegrees>41.98327886871993541717529296875</LatitudeDegrees>
              <LongitudeDegrees>2.88467229343950748443603515625</LongitudeDegrees>
            </Position>
            <AltitudeMeters>345.20001220703125</AltitudeMeters>
            <DistanceMeters>NAN</DistanceMeters>
          </Trackpoint>
          <Trackpoint>
            <Time>2020-02-15T11:16:03.000Z</Time>
            <Position>
              <LatitudeDegrees>41.98327182792127132415771484375</LatitudeDegrees>
              <LongitudeDegrees>2.8846304677426815032958984375</LongitudeDegrees>
            </Position>
            <AltitudeMeters>345.20001220703125</AltitudeMeters>
            <DistanceMeters>NAN</DistanceMeters>
          </Trackpoint>
          <Trackpoint>
            <Time>2020-02-15T11:16:04.000Z</Time>
            <Position>
              <LatitudeDegrees>41.9832653738558292388916015625</LatitudeDegrees>
              <LongitudeDegrees>2.88457439281046390533447265625</LongitudeDegrees>
            </Position>
            <AltitudeMeters>345</AltitudeMeters>
            <DistanceMeters>NAN</DistanceMeters>
          </Trackpoint>
          <Trackpoint>
            <Time>2020-02-15T11:16:05.000Z</Time>
            <Position>
              <LatitudeDegrees>41.98326327838003635406494140625</LatitudeDegrees>
              <LongitudeDegrees>2.8845060802996158599853515625</LongitudeDegrees>
            </Position>
            <AltitudeMeters>345.20001220703125</AltitudeMeters>
            <DistanceMeters>NAN</DistanceMeters>
          </Trackpoint>
          <Trackpoint>
            <Time>2020-02-15T11:16:06.000Z</Time>
            <Position>
              <LatitudeDegrees>41.9832590036094188690185546875</LatitudeDegrees>
              <LongitudeDegrees>2.8844333253800868988037109375</LongitudeDegrees>
            </Position>
            <AltitudeMeters>345.20001220703125</AltitudeMeters>
            <DistanceMeters>NAN</DistanceMeters>
          </Trackpoint>
          <Trackpoint>
            <Time>2020-02-15T11:16:08.000Z</Time>
            <Position>
              <LatitudeDegrees>41.9832479394972324371337890625</LatitudeDegrees>
              <LongitudeDegrees>2.88426451385021209716796875</LongitudeDegrees>
            </Position>
            <AltitudeMeters>345</AltitudeMeters>
            <DistanceMeters>NAN</DistanceMeters>
          </Trackpoint>
          <Trackpoint>
            <Time>2020-02-15T11:16:09.000Z</Time>
            <Position>
              <LatitudeDegrees>41.9832429103553295135498046875</LatitudeDegrees>
              <LongitudeDegrees>2.88417340256273746490478515625</LongitudeDegrees>
            </Position>
            <AltitudeMeters>344.399993896484375</AltitudeMeters>
            <DistanceMeters>NAN</DistanceMeters>
          </Trackpoint>
          <Trackpoint>
            <Time>2020-02-15T11:16:11.000Z</Time>
            <Position>
              <LatitudeDegrees>41.98324433527886867523193359375</LatitudeDegrees>
              <LongitudeDegrees>2.88401582278311252593994140625</LongitudeDegrees>
            </Position>
            <AltitudeMeters>343.79998779296875</AltitudeMeters>
            <DistanceMeters>NAN</DistanceMeters>
          </Trackpoint>
          <Trackpoint>
            <Time>2020-02-15T11:16:12.000Z</Time>
            <Position>
              <LatitudeDegrees>41.9832479394972324371337890625</LatitudeDegrees>
              <LongitudeDegrees>2.88395631127059459686279296875</LongitudeDegrees>
            </Position>
            <AltitudeMeters>343.399993896484375</AltitudeMeters>
            <DistanceMeters>NAN</DistanceMeters>
          </Trackpoint>
          <Trackpoint>
            <Time>2020-02-15T11:16:13.000Z</Time>
            <Position>
              <LatitudeDegrees>41.98324953205883502960205078125</LatitudeDegrees>
              <LongitudeDegrees>2.8839119710028171539306640625</LongitudeDegrees>
            </Position>
            <AltitudeMeters>343.399993896484375</AltitudeMeters>
            <DistanceMeters>NAN</DistanceMeters>
          </Trackpoint>
          <Trackpoint>
            <Time>2020-02-15T11:16:14.000Z</Time>
            <Position>
              <LatitudeDegrees>41.98324852623045444488525390625</LatitudeDegrees>
              <LongitudeDegrees>2.88387215696275234222412109375</LongitudeDegrees>
            </Position>
            <AltitudeMeters>341.600006103515625</AltitudeMeters>
            <DistanceMeters>NAN</DistanceMeters>
          </Trackpoint>
          <Trackpoint>
            <Time>2020-02-15T11:16:15.000Z</Time>
            <Position>
              <LatitudeDegrees>41.98324643075466156005859375</LatitudeDegrees>
              <LongitudeDegrees>2.8838338516652584075927734375</LongitudeDegrees>
            </Position>
            <AltitudeMeters>340.399993896484375</AltitudeMeters>
            <DistanceMeters>NAN</DistanceMeters>
          </Trackpoint>
          <Trackpoint>
            <Time>2020-02-15T11:16:16.000Z</Time>
            <Position>
              <LatitudeDegrees>41.9832462631165981292724609375</LatitudeDegrees>
              <LongitudeDegrees>2.88379537872970104217529296875</LongitudeDegrees>
            </Position>
            <AltitudeMeters>340</AltitudeMeters>
            <DistanceMeters>NAN</DistanceMeters>
          </Trackpoint>
          <Trackpoint>
            <Time>2020-02-15T11:16:17.000Z</Time>
            <Position>
              <LatitudeDegrees>41.98324617929756641387939453125</LatitudeDegrees>
              <LongitudeDegrees>2.88376000709831714630126953125</LongitudeDegrees>
            </Position>
            <AltitudeMeters>339.20001220703125</AltitudeMeters>
            <DistanceMeters>NAN</DistanceMeters>
          </Trackpoint>
          <Trackpoint>
            <Time>2020-02-15T11:16:18.000Z</Time>
            <Position>
              <LatitudeDegrees>41.9832435809075832366943359375</LatitudeDegrees>
              <LongitudeDegrees>2.88371524773538112640380859375</LongitudeDegrees>
            </Position>
            <AltitudeMeters>338.20001220703125</AltitudeMeters>
            <DistanceMeters>NAN</DistanceMeters>
          </Trackpoint>
          <Trackpoint>
            <Time>2020-02-15T11:16:19.000Z</Time>
            <Position>
              <LatitudeDegrees>41.9832442514598369598388671875</LatitudeDegrees>
              <LongitudeDegrees>2.8836699016392230987548828125</LongitudeDegrees>
            </Position>
            <AltitudeMeters>337.600006103515625</AltitudeMeters>
            <DistanceMeters>NAN</DistanceMeters>
          </Trackpoint>
          <Trackpoint>
            <Time>2020-02-15T11:16:20.000Z</Time>
            <Position>
              <LatitudeDegrees>41.98324383236467838287353515625</LatitudeDegrees>
              <LongitudeDegrees>2.88361852057278156280517578125</LongitudeDegrees>
            </Position>
            <AltitudeMeters>337</AltitudeMeters>
            <DistanceMeters>NAN</DistanceMeters>
          </Trackpoint>
          <Trackpoint>
            <Time>2020-02-15T11:16:22.000Z</Time>
            <Position>
              <LatitudeDegrees>41.9832576625049114227294921875</LatitudeDegrees>
              <LongitudeDegrees>2.88351751863956451416015625</LongitudeDegrees>
            </Position>
            <AltitudeMeters>336</AltitudeMeters>
            <DistanceMeters>NAN</DistanceMeters>
          </Trackpoint>
          <Trackpoint>
            <Time>2020-02-15T11:16:23.000Z</Time>
            <Position>
              <LatitudeDegrees>41.98326713405549526214599609375</LatitudeDegrees>
              <LongitudeDegrees>2.8834710828959941864013671875</LongitudeDegrees>
            </Position>
            <AltitudeMeters>336</AltitudeMeters>
            <DistanceMeters>NAN</DistanceMeters>
          </Trackpoint>
          <Trackpoint>
            <Time>2020-02-15T11:16:24.000Z</Time>
            <Position>
              <LatitudeDegrees>41.98327249847352504730224609375</LatitudeDegrees>
              <LongitudeDegrees>2.88341936655342578887939453125</LongitudeDegrees>
            </Position>
            <AltitudeMeters>335.399993896484375</AltitudeMeters>
            <DistanceMeters>NAN</DistanceMeters>
          </Trackpoint>
          <Trackpoint>
            <Time>2020-02-15T11:16:25.000Z</Time>
            <Position>
              <LatitudeDegrees>41.98327300138771533966064453125</LatitudeDegrees>
              <LongitudeDegrees>2.8833621181547641754150390625</LongitudeDegrees>
            </Position>
            <AltitudeMeters>334.79998779296875</AltitudeMeters>
            <DistanceMeters>NAN</DistanceMeters>
          </Trackpoint>
          <Trackpoint>
            <Time>2020-02-15T11:16:26.000Z</Time>
            <Position>
              <LatitudeDegrees>41.98327325284481048583984375</LatitudeDegrees>
              <LongitudeDegrees>2.88330285809934139251708984375</LongitudeDegrees>
            </Position>
            <AltitudeMeters>334.600006103515625</AltitudeMeters>
            <DistanceMeters>NAN</DistanceMeters>
          </Trackpoint>
          <Trackpoint>
            <Time>2020-02-15T11:16:28.000Z</Time>
            <Position>
              <LatitudeDegrees>41.98324978351593017578125</LatitudeDegrees>
              <LongitudeDegrees>2.88321132771670818328857421875</LongitudeDegrees>
            </Position>
            <AltitudeMeters>334</AltitudeMeters>
            <DistanceMeters>NAN</DistanceMeters>
          </Trackpoint>
          <Trackpoint>
            <Time>2020-02-15T11:16:29.000Z</Time>
            <Position>
              <LatitudeDegrees>41.98323042131960391998291015625</LatitudeDegrees>
              <LongitudeDegrees>2.8831733576953411102294921875</LongitudeDegrees>
            </Position>
            <AltitudeMeters>333.79998779296875</AltitudeMeters>
            <DistanceMeters>NAN</DistanceMeters>
          </Trackpoint>
          <Trackpoint>
            <Time>2020-02-15T11:16:30.000Z</Time>
            <Position>
              <LatitudeDegrees>41.9832003302872180938720703125</LatitudeDegrees>
              <LongitudeDegrees>2.8831361420452594757080078125</LongitudeDegrees>
            </Position>
            <AltitudeMeters>333.600006103515625</AltitudeMeters>
            <DistanceMeters>NAN</DistanceMeters>
          </Trackpoint>
          <Trackpoint>
            <Time>2020-02-15T11:16:31.000Z</Time>
            <Position>
              <LatitudeDegrees>41.98316655121743679046630859375</LatitudeDegrees>
              <LongitudeDegrees>2.88310085423290729522705078125</LongitudeDegrees>
            </Position>
            <AltitudeMeters>332.79998779296875</AltitudeMeters>
            <DistanceMeters>NAN</DistanceMeters>
          </Trackpoint>
          <Trackpoint>
            <Time>2020-02-15T11:16:33.000Z</Time>
            <Position>
              <LatitudeDegrees>41.98309983126819133758544921875</LatitudeDegrees>
              <LongitudeDegrees>2.8830291889607906341552734375</LongitudeDegrees>
            </Position>
            <AltitudeMeters>331.79998779296875</AltitudeMeters>
            <DistanceMeters>NAN</DistanceMeters>
          </Trackpoint>
          <Trackpoint>
            <Time>2020-02-15T11:16:36.000Z</Time>
            <Position>
              <LatitudeDegrees>41.98298181407153606414794921875</LatitudeDegrees>
              <LongitudeDegrees>2.8829078190028667449951171875</LongitudeDegrees>
            </Position>
            <AltitudeMeters>328.600006103515625</AltitudeMeters>
            <DistanceMeters>NAN</DistanceMeters>
          </Trackpoint>
          <Trackpoint>
            <Time>2020-02-15T11:16:37.000Z</Time>
            <Position>
              <LatitudeDegrees>41.98294065892696380615234375</LatitudeDegrees>
              <LongitudeDegrees>2.88285811431705951690673828125</LongitudeDegrees>
            </Position>
            <AltitudeMeters>328</AltitudeMeters>
            <DistanceMeters>NAN</DistanceMeters>
          </Trackpoint>
          <Trackpoint>
            <Time>2020-02-15T11:16:39.000Z</Time>
            <Position>
              <LatitudeDegrees>41.982863880693912506103515625</LatitudeDegrees>
              <LongitudeDegrees>2.882772870361804962158203125</LongitudeDegrees>
            </Position>
            <AltitudeMeters>326.399993896484375</AltitudeMeters>
            <DistanceMeters>NAN</DistanceMeters>
          </Trackpoint>
          <Trackpoint>
            <Time>2020-02-15T11:16:40.000Z</Time>
            <Position>
              <LatitudeDegrees>41.982825659215450286865234375</LatitudeDegrees>
              <LongitudeDegrees>2.882731296122074127197265625</LongitudeDegrees>
            </Position>
            <AltitudeMeters>325.600006103515625</AltitudeMeters>
            <DistanceMeters>NAN</DistanceMeters>
          </Trackpoint>
          <Trackpoint>
            <Time>2020-02-15T11:16:41.000Z</Time>
            <Position>
              <LatitudeDegrees>41.98278534226119518280029296875</LatitudeDegrees>
              <LongitudeDegrees>2.88268410600721836090087890625</LongitudeDegrees>
            </Position>
            <AltitudeMeters>325</AltitudeMeters>
            <DistanceMeters>NAN</DistanceMeters>
          </Trackpoint>
          <Trackpoint>
            <Time>2020-02-15T11:16:42.000Z</Time>
            <Position>
              <LatitudeDegrees>41.98274217545986175537109375</LatitudeDegrees>
              <LongitudeDegrees>2.882637083530426025390625</LongitudeDegrees>
            </Position>
            <AltitudeMeters>324</AltitudeMeters>
            <DistanceMeters>NAN</DistanceMeters>
          </Trackpoint>
          <Trackpoint>
            <Time>2020-02-15T11:16:43.000Z</Time>
            <Position>
              <LatitudeDegrees>41.98270739056169986724853515625</LatitudeDegrees>
              <LongitudeDegrees>2.88258989341557025909423828125</LongitudeDegrees>
            </Position>
            <AltitudeMeters>323.399993896484375</AltitudeMeters>
            <DistanceMeters>NAN</DistanceMeters>
          </Trackpoint>
          <Trackpoint>
            <Time>2020-02-15T11:16:44.000Z</Time>
            <Position>
              <LatitudeDegrees>41.9826726056635379791259765625</LatitudeDegrees>
              <LongitudeDegrees>2.88253708742558956146240234375</LongitudeDegrees>
            </Position>
            <AltitudeMeters>323.399993896484375</AltitudeMeters>
            <DistanceMeters>NAN</DistanceMeters>
          </Trackpoint>
          <Trackpoint>
            <Time>2020-02-15T11:16:45.000Z</Time>
            <Position>
              <LatitudeDegrees>41.982645280659198760986328125</LatitudeDegrees>
              <LongitudeDegrees>2.88249836303293704986572265625</LongitudeDegrees>
            </Position>
            <AltitudeMeters>322.79998779296875</AltitudeMeters>
            <DistanceMeters>NAN</DistanceMeters>
          </Trackpoint>
          <Trackpoint>
            <Time>2020-02-15T11:16:46.000Z</Time>
            <Position>
              <LatitudeDegrees>41.98262440972030162811279296875</LatitudeDegrees>
              <LongitudeDegrees>2.8824721276760101318359375</LongitudeDegrees>
            </Position>
            <AltitudeMeters>322.20001220703125</AltitudeMeters>
            <DistanceMeters>NAN</DistanceMeters>
          </Trackpoint>
          <Trackpoint>
            <Time>2020-02-15T11:16:47.000Z</Time>
            <Position>
              <LatitudeDegrees>41.98260538280010223388671875</LatitudeDegrees>
              <LongitudeDegrees>2.88245025090873241424560546875</LongitudeDegrees>
            </Position>
            <AltitudeMeters>320.399993896484375</AltitudeMeters>
            <DistanceMeters>NAN</DistanceMeters>
          </Trackpoint>
          <Trackpoint>
            <Time>2020-02-15T11:16:48.000Z</Time>
            <Position>
              <LatitudeDegrees>41.98258501477539539337158203125</LatitudeDegrees>
              <LongitudeDegrees>2.8824250213801860809326171875</LongitudeDegrees>
            </Position>
            <AltitudeMeters>319.399993896484375</AltitudeMeters>
            <DistanceMeters>NAN</DistanceMeters>
          </Trackpoint>
          <Trackpoint>
            <Time>2020-02-15T11:16:49.000Z</Time>
            <Position>
              <LatitudeDegrees>41.9825720228254795074462890625</LatitudeDegrees>
              <LongitudeDegrees>2.8824008814990520477294921875</LongitudeDegrees>
            </Position>
            <AltitudeMeters>318.600006103515625</AltitudeMeters>
            <DistanceMeters>NAN</DistanceMeters>
          </Trackpoint>
          <Trackpoint>
            <Time>2020-02-15T11:16:50.000Z</Time>
            <Position>
              <LatitudeDegrees>41.98255919851362705230712890625</LatitudeDegrees>
              <LongitudeDegrees>2.8823750652372837066650390625</LongitudeDegrees>
            </Position>
            <AltitudeMeters>318</AltitudeMeters>
            <DistanceMeters>NAN</DistanceMeters>
          </Trackpoint>
          <Trackpoint>
            <Time>2020-02-15T11:16:51.000Z</Time>
            <Position>
              <LatitudeDegrees>41.98254779912531375885009765625</LatitudeDegrees>
              <LongitudeDegrees>2.88235268555581569671630859375</LongitudeDegrees>
            </Position>
            <AltitudeMeters>317.79998779296875</AltitudeMeters>
            <DistanceMeters>NAN</DistanceMeters>
          </Trackpoint>
          <Trackpoint>
            <Time>2020-02-15T11:16:52.000Z</Time>
            <Position>
              <LatitudeDegrees>41.9825351424515247344970703125</LatitudeDegrees>
              <LongitudeDegrees>2.88232787512242794036865234375</LongitudeDegrees>
            </Position>
            <AltitudeMeters>317.399993896484375</AltitudeMeters>
            <DistanceMeters>NAN</DistanceMeters>
          </Trackpoint>
          <Trackpoint>
            <Time>2020-02-15T11:16:53.000Z</Time>
            <Position>
              <LatitudeDegrees>41.98251930065453052520751953125</LatitudeDegrees>
              <LongitudeDegrees>2.88230055011808872222900390625</LongitudeDegrees>
            </Position>
            <AltitudeMeters>316.79998779296875</AltitudeMeters>
            <DistanceMeters>NAN</DistanceMeters>
          </Trackpoint>
          <Trackpoint>
            <Time>2020-02-15T11:16:55.000Z</Time>
            <Position>
              <LatitudeDegrees>41.982505805790424346923828125</LatitudeDegrees>
              <LongitudeDegrees>2.88224472664296627044677734375</LongitudeDegrees>
            </Position>
            <AltitudeMeters>316.20001220703125</AltitudeMeters>
            <DistanceMeters>NAN</DistanceMeters>
          </Trackpoint>
          <Trackpoint>
            <Time>2020-02-15T11:16:56.000Z</Time>
            <Position>
              <LatitudeDegrees>41.98250069282948970794677734375</LatitudeDegrees>
              <LongitudeDegrees>2.88221052847802639007568359375</LongitudeDegrees>
            </Position>
            <AltitudeMeters>315.79998779296875</AltitudeMeters>
            <DistanceMeters>NAN</DistanceMeters>
          </Trackpoint>
          <Trackpoint>
            <Time>2020-02-15T11:16:58.000Z</Time>
            <Position>
              <LatitudeDegrees>41.98249817825853824615478515625</LatitudeDegrees>
              <LongitudeDegrees>2.88213576190173625946044921875</LongitudeDegrees>
            </Position>
            <AltitudeMeters>315.399993896484375</AltitudeMeters>
            <DistanceMeters>NAN</DistanceMeters>
          </Trackpoint>
          <Trackpoint>
            <Time>2020-02-15T11:16:59.000Z</Time>
            <Position>
              <LatitudeDegrees>41.98249985463917255401611328125</LatitudeDegrees>
              <LongitudeDegrees>2.88210005499422550201416015625</LongitudeDegrees>
            </Position>
            <AltitudeMeters>315.20001220703125</AltitudeMeters>
            <DistanceMeters>NAN</DistanceMeters>
          </Trackpoint>
          <Trackpoint>
            <Time>2020-02-15T11:17:01.000Z</Time>
            <Position>
              <LatitudeDegrees>41.98248862288892269134521484375</LatitudeDegrees>
              <LongitudeDegrees>2.88201590068638324737548828125</LongitudeDegrees>
            </Position>
            <AltitudeMeters>314.79998779296875</AltitudeMeters>
            <DistanceMeters>NAN</DistanceMeters>
          </Trackpoint>
          <Trackpoint>
            <Time>2020-02-15T11:17:04.000Z</Time>
            <Position>
              <LatitudeDegrees>41.98247001506388187408447265625</LatitudeDegrees>
              <LongitudeDegrees>2.8818775154650211334228515625</LongitudeDegrees>
            </Position>
            <AltitudeMeters>314.600006103515625</AltitudeMeters>
            <DistanceMeters>NAN</DistanceMeters>
          </Trackpoint>
          <Trackpoint>
            <Time>2020-02-15T11:17:06.000Z</Time>
            <Position>
              <LatitudeDegrees>41.9824526645243167877197265625</LatitudeDegrees>
              <LongitudeDegrees>2.88179528899490833282470703125</LongitudeDegrees>
            </Position>
            <AltitudeMeters>314.79998779296875</AltitudeMeters>
            <DistanceMeters>NAN</DistanceMeters>
          </Trackpoint>
          <Trackpoint>
            <Time>2020-02-15T11:17:07.000Z</Time>
            <Position>
              <LatitudeDegrees>41.98244319297373294830322265625</LatitudeDegrees>
              <LongitudeDegrees>2.88175572641193866729736328125</LongitudeDegrees>
            </Position>
            <AltitudeMeters>314.600006103515625</AltitudeMeters>
            <DistanceMeters>NAN</DistanceMeters>
          </Trackpoint>
          <Trackpoint>
            <Time>2020-02-15T11:17:08.000Z</Time>
            <Position>
              <LatitudeDegrees>41.98243447579443454742431640625</LatitudeDegrees>
              <LongitudeDegrees>2.88171834312379360198974609375</LongitudeDegrees>
            </Position>
            <AltitudeMeters>314.399993896484375</AltitudeMeters>
            <DistanceMeters>NAN</DistanceMeters>
          </Trackpoint>
          <Trackpoint>
            <Time>2020-02-15T11:17:09.000Z</Time>
            <Position>
              <LatitudeDegrees>41.98242626152932643890380859375</LatitudeDegrees>
              <LongitudeDegrees>2.88168380968272686004638671875</LongitudeDegrees>
            </Position>
            <AltitudeMeters>314.399993896484375</AltitudeMeters>
            <DistanceMeters>NAN</DistanceMeters>
          </Trackpoint>
          <Trackpoint>
            <Time>2020-02-15T11:17:10.000Z</Time>
            <Position>
              <LatitudeDegrees>41.982415616512298583984375</LatitudeDegrees>
              <LongitudeDegrees>2.8816532157361507415771484375</LongitudeDegrees>
            </Position>
            <AltitudeMeters>314.399993896484375</AltitudeMeters>
            <DistanceMeters>NAN</DistanceMeters>
          </Trackpoint>
          <Trackpoint>
            <Time>2020-02-15T11:17:11.000Z</Time>
            <Position>
              <LatitudeDegrees>41.98240287601947784423828125</LatitudeDegrees>
              <LongitudeDegrees>2.88162228651344776153564453125</LongitudeDegrees>
            </Position>
            <AltitudeMeters>314.399993896484375</AltitudeMeters>
            <DistanceMeters>NAN</DistanceMeters>
          </Trackpoint>
          <Trackpoint>
            <Time>2020-02-15T11:17:12.000Z</Time>
            <Position>
              <LatitudeDegrees>41.98238971643149852752685546875</LatitudeDegrees>
              <LongitudeDegrees>2.8815905191004276275634765625</LongitudeDegrees>
            </Position>
            <AltitudeMeters>314.20001220703125</AltitudeMeters>
            <DistanceMeters>NAN</DistanceMeters>
          </Trackpoint>
          <Trackpoint>
            <Time>2020-02-15T11:17:15.000Z</Time>
            <Position>
              <LatitudeDegrees>41.98233447968959808349609375</LatitudeDegrees>
              <LongitudeDegrees>2.88149136118590831756591796875</LongitudeDegrees>
            </Position>
            <AltitudeMeters>314</AltitudeMeters>
            <DistanceMeters>NAN</DistanceMeters>
          </Trackpoint>
          <Trackpoint>
            <Time>2020-02-15T11:17:17.000Z</Time>
            <Position>
              <LatitudeDegrees>41.9822989404201507568359375</LatitudeDegrees>
              <LongitudeDegrees>2.8814225457608699798583984375</LongitudeDegrees>
            </Position>
            <AltitudeMeters>314</AltitudeMeters>
            <DistanceMeters>NAN</DistanceMeters>
          </Trackpoint>
          <Trackpoint>
            <Time>2020-02-15T11:17:18.000Z</Time>
            <Position>
              <LatitudeDegrees>41.982288546860218048095703125</LatitudeDegrees>
              <LongitudeDegrees>2.8813886828720569610595703125</LongitudeDegrees>
            </Position>
            <AltitudeMeters>314</AltitudeMeters>
            <DistanceMeters>NAN</DistanceMeters>
          </Trackpoint>
          <Trackpoint>
            <Time>2020-02-15T11:17:19.000Z</Time>
            <Position>
              <LatitudeDegrees>41.98228108696639537811279296875</LatitudeDegrees>
              <LongitudeDegrees>2.88135959766805171966552734375</LongitudeDegrees>
            </Position>
            <AltitudeMeters>314</AltitudeMeters>
            <DistanceMeters>NAN</DistanceMeters>
          </Trackpoint>
          <Trackpoint>
            <Time>2020-02-15T11:17:20.000Z</Time>
            <Position>
              <LatitudeDegrees>41.9822721183300018310546875</LatitudeDegrees>
              <LongitudeDegrees>2.88133428432047367095947265625</LongitudeDegrees>
            </Position>
            <AltitudeMeters>314.20001220703125</AltitudeMeters>
            <DistanceMeters>NAN</DistanceMeters>
          </Trackpoint>
          <Trackpoint>
            <Time>2020-02-15T11:17:21.000Z</Time>
            <Position>
              <LatitudeDegrees>41.98226449079811573028564453125</LatitudeDegrees>
              <LongitudeDegrees>2.881312072277069091796875</LongitudeDegrees>
            </Position>
            <AltitudeMeters>314.20001220703125</AltitudeMeters>
            <DistanceMeters>NAN</DistanceMeters>
          </Trackpoint>
          <Trackpoint>
            <Time>2020-02-15T11:17:22.000Z</Time>
            <Position>
              <LatitudeDegrees>41.98225610889494419097900390625</LatitudeDegrees>
              <LongitudeDegrees>2.8812917880713939666748046875</LongitudeDegrees>
            </Position>
            <AltitudeMeters>314.20001220703125</AltitudeMeters>
            <DistanceMeters>NAN</DistanceMeters>
          </Trackpoint>
          <Trackpoint>
            <Time>2020-02-15T11:17:23.000Z</Time>
            <Position>
              <LatitudeDegrees>41.9822461344301700592041015625</LatitudeDegrees>
              <LongitudeDegrees>2.8812736831605434417724609375</LongitudeDegrees>
            </Position>
            <AltitudeMeters>314.20001220703125</AltitudeMeters>
            <DistanceMeters>NAN</DistanceMeters>
          </Trackpoint>
          <Trackpoint>
            <Time>2020-02-15T11:17:24.000Z</Time>
            <Position>
              <LatitudeDegrees>41.98223657906055450439453125</LatitudeDegrees>
              <LongitudeDegrees>2.88125641644001007080078125</LongitudeDegrees>
            </Position>
            <AltitudeMeters>314.20001220703125</AltitudeMeters>
            <DistanceMeters>NAN</DistanceMeters>
          </Trackpoint>
          <Trackpoint>
            <Time>2020-02-15T11:17:25.000Z</Time>
            <Position>
              <LatitudeDegrees>41.98222928680479526519775390625</LatitudeDegrees>
              <LongitudeDegrees>2.88123889826238155364990234375</LongitudeDegrees>
            </Position>
            <AltitudeMeters>314.20001220703125</AltitudeMeters>
            <DistanceMeters>NAN</DistanceMeters>
          </Trackpoint>
          <Trackpoint>
            <Time>2020-02-15T11:17:26.000Z</Time>
            <Position>
              <LatitudeDegrees>41.98222224600613117218017578125</LatitudeDegrees>
              <LongitudeDegrees>2.88121677003800868988037109375</LongitudeDegrees>
            </Position>
            <AltitudeMeters>314.20001220703125</AltitudeMeters>
            <DistanceMeters>NAN</DistanceMeters>
          </Trackpoint>
          <Trackpoint>
            <Time>2020-02-15T11:17:27.000Z</Time>
            <Position>
              <LatitudeDegrees>41.98221788741648197174072265625</LatitudeDegrees>
              <LongitudeDegrees>2.88119338452816009521484375</LongitudeDegrees>
            </Position>
            <AltitudeMeters>314.399993896484375</AltitudeMeters>
            <DistanceMeters>NAN</DistanceMeters>
          </Trackpoint>
          <Trackpoint>
            <Time>2020-02-15T11:17:28.000Z</Time>
            <Position>
              <LatitudeDegrees>41.98221218772232532501220703125</LatitudeDegrees>
              <LongitudeDegrees>2.88117050193250179290771484375</LongitudeDegrees>
            </Position>
            <AltitudeMeters>314.600006103515625</AltitudeMeters>
            <DistanceMeters>NAN</DistanceMeters>
          </Trackpoint>
          <Trackpoint>
            <Time>2020-02-15T11:17:29.000Z</Time>
            <Position>
              <LatitudeDegrees>41.98220305144786834716796875</LatitudeDegrees>
              <LongitudeDegrees>2.881145440042018890380859375</LongitudeDegrees>
            </Position>
            <AltitudeMeters>314.399993896484375</AltitudeMeters>
            <DistanceMeters>NAN</DistanceMeters>
          </Trackpoint>
          <Trackpoint>
            <Time>2020-02-15T11:17:30.000Z</Time>
            <Position>
              <LatitudeDegrees>41.98219659738242626190185546875</LatitudeDegrees>
              <LongitudeDegrees>2.881120629608631134033203125</LongitudeDegrees>
            </Position>
            <AltitudeMeters>314.79998779296875</AltitudeMeters>
            <DistanceMeters>NAN</DistanceMeters>
          </Trackpoint>
          <Trackpoint>
            <Time>2020-02-15T11:17:31.000Z</Time>
            <Position>
              <LatitudeDegrees>41.98219156824052333831787109375</LatitudeDegrees>
              <LongitudeDegrees>2.8810969926416873931884765625</LongitudeDegrees>
            </Position>
            <AltitudeMeters>315</AltitudeMeters>
            <DistanceMeters>NAN</DistanceMeters>
          </Trackpoint>
          <Trackpoint>
            <Time>2020-02-15T11:17:32.000Z</Time>
            <Position>
              <LatitudeDegrees>41.98218167759478092193603515625</LatitudeDegrees>
              <LongitudeDegrees>2.8810715116560459136962890625</LongitudeDegrees>
            </Position>
            <AltitudeMeters>315.399993896484375</AltitudeMeters>
            <DistanceMeters>NAN</DistanceMeters>
          </Trackpoint>
          <Trackpoint>
            <Time>2020-02-15T11:17:33.000Z</Time>
            <Position>
              <LatitudeDegrees>41.982175894081592559814453125</LatitudeDegrees>
              <LongitudeDegrees>2.88104762323200702667236328125</LongitudeDegrees>
            </Position>
            <AltitudeMeters>315.600006103515625</AltitudeMeters>
            <DistanceMeters>NAN</DistanceMeters>
          </Trackpoint>
          <Trackpoint>
            <Time>2020-02-15T11:17:34.000Z</Time>
            <Position>
              <LatitudeDegrees>41.98217027820646762847900390625</LatitudeDegrees>
              <LongitudeDegrees>2.8810264170169830322265625</LongitudeDegrees>
            </Position>
            <AltitudeMeters>315.600006103515625</AltitudeMeters>
            <DistanceMeters>NAN</DistanceMeters>
          </Trackpoint>
          <Trackpoint>
            <Time>2020-02-15T11:17:35.000Z</Time>
            <Position>
              <LatitudeDegrees>41.98216021992266178131103515625</LatitudeDegrees>
              <LongitudeDegrees>2.88100697100162506103515625</LongitudeDegrees>
            </Position>
            <AltitudeMeters>315.600006103515625</AltitudeMeters>
            <DistanceMeters>NAN</DistanceMeters>
          </Trackpoint>
          <Trackpoint>
            <Time>2020-02-15T11:17:36.000Z</Time>
            <Position>
              <LatitudeDegrees>41.982151083648204803466796875</LatitudeDegrees>
              <LongitudeDegrees>2.88099096156656742095947265625</LongitudeDegrees>
            </Position>
            <AltitudeMeters>316</AltitudeMeters>
            <DistanceMeters>NAN</DistanceMeters>
          </Trackpoint>
          <Trackpoint>
            <Time>2020-02-15T11:17:37.000Z</Time>
            <Position>
              <LatitudeDegrees>41.98214261792600154876708984375</LatitudeDegrees>
              <LongitudeDegrees>2.88098073564469814300537109375</LongitudeDegrees>
            </Position>
            <AltitudeMeters>316.20001220703125</AltitudeMeters>
            <DistanceMeters>NAN</DistanceMeters>
          </Trackpoint>
          <Trackpoint>
            <Time>2020-02-15T11:17:38.000Z</Time>
            <Position>
              <LatitudeDegrees>41.98213423602283000946044921875</LatitudeDegrees>
              <LongitudeDegrees>2.88097453303635120391845703125</LongitudeDegrees>
            </Position>
            <AltitudeMeters>316.600006103515625</AltitudeMeters>
            <DistanceMeters>NAN</DistanceMeters>
          </Trackpoint>
          <Trackpoint>
            <Time>2020-02-15T11:17:39.000Z</Time>
            <Position>
              <LatitudeDegrees>41.982127614319324493408203125</LatitudeDegrees>
              <LongitudeDegrees>2.88096950389444828033447265625</LongitudeDegrees>
            </Position>
            <AltitudeMeters>317</AltitudeMeters>
            <DistanceMeters>NAN</DistanceMeters>
          </Trackpoint>
          <Trackpoint>
            <Time>2020-02-15T11:17:40.000Z</Time>
            <Position>
              <LatitudeDegrees>41.98211856186389923095703125</LatitudeDegrees>
              <LongitudeDegrees>2.88096648640930652618408203125</LongitudeDegrees>
            </Position>
            <AltitudeMeters>317.20001220703125</AltitudeMeters>
            <DistanceMeters>NAN</DistanceMeters>
          </Trackpoint>
          <Trackpoint>
            <Time>2020-02-15T11:17:41.000Z</Time>
            <Position>
              <LatitudeDegrees>41.982109509408473968505859375</LatitudeDegrees>
              <LongitudeDegrees>2.88096782751381397247314453125</LongitudeDegrees>
            </Position>
            <AltitudeMeters>317.399993896484375</AltitudeMeters>
            <DistanceMeters>NAN</DistanceMeters>
          </Trackpoint>
          <Trackpoint>
            <Time>2020-02-15T11:17:42.000Z</Time>
            <Position>
              <LatitudeDegrees>41.9821085035800933837890625</LatitudeDegrees>
              <LongitudeDegrees>2.8809665702283382415771484375</LongitudeDegrees>
            </Position>
            <AltitudeMeters>317.79998779296875</AltitudeMeters>
            <DistanceMeters>NAN</DistanceMeters>
          </Trackpoint>
          <Trackpoint>
            <Time>2020-02-15T11:17:45.000Z</Time>
            <Position>
              <LatitudeDegrees>41.9821002893149852752685546875</LatitudeDegrees>
              <LongitudeDegrees>2.8809561766684055328369140625</LongitudeDegrees>
            </Position>
            <AltitudeMeters>318</AltitudeMeters>
            <DistanceMeters>NAN</DistanceMeters>
          </Trackpoint>
          <Trackpoint>
            <Time>2020-02-15T11:17:52.000Z</Time>
            <Position>
              <LatitudeDegrees>41.9820992834866046905517578125</LatitudeDegrees>
              <LongitudeDegrees>2.880955003201961517333984375</LongitudeDegrees>
            </Position>
            <AltitudeMeters>318.399993896484375</AltitudeMeters>
            <DistanceMeters>NAN</DistanceMeters>
          </Trackpoint>
          <Trackpoint>
            <Time>2020-02-15T11:17:56.000Z</Time>
            <Position>
              <LatitudeDegrees>41.982102133333683013916015625</LatitudeDegrees>
              <LongitudeDegrees>2.8809531591832637786865234375</LongitudeDegrees>
            </Position>
            <AltitudeMeters>318.399993896484375</AltitudeMeters>
            <DistanceMeters>NAN</DistanceMeters>
          </Trackpoint>
          <Trackpoint>
            <Time>2020-02-15T11:18:03.000Z</Time>
            <Position>
              <LatitudeDegrees>41.9821023009717464447021484375</LatitudeDegrees>
              <LongitudeDegrees>2.88095257245004177093505859375</LongitudeDegrees>
            </Position>
            <AltitudeMeters>318.399993896484375</AltitudeMeters>
            <DistanceMeters>NAN</DistanceMeters>
          </Trackpoint>
          <Trackpoint>
            <Time>2020-02-15T11:18:11.000Z</Time>
            <Position>
              <LatitudeDegrees>41.98210238479077816009521484375</LatitudeDegrees>
              <LongitudeDegrees>2.88095190189778804779052734375</LongitudeDegrees>
            </Position>
            <AltitudeMeters>318.399993896484375</AltitudeMeters>
            <DistanceMeters>NAN</DistanceMeters>
          </Trackpoint>
          <Trackpoint>
            <Time>2020-02-15T11:18:15.000Z</Time>
            <Position>
              <LatitudeDegrees>41.98210246860980987548828125</LatitudeDegrees>
              <LongitudeDegrees>2.88095190189778804779052734375</LongitudeDegrees>
            </Position>
            <AltitudeMeters>318.399993896484375</AltitudeMeters>
            <DistanceMeters>NAN</DistanceMeters>
          </Trackpoint>
          <Trackpoint>
            <Time>2020-02-15T11:18:21.000Z</Time>
            <Position>
              <LatitudeDegrees>41.98210255242884159088134765625</LatitudeDegrees>
              <LongitudeDegrees>2.88095156662166118621826171875</LongitudeDegrees>
            </Position>
            <AltitudeMeters>318.399993896484375</AltitudeMeters>
            <DistanceMeters>NAN</DistanceMeters>
          </Trackpoint>
          <Trackpoint>
            <Time>2020-02-15T11:18:31.000Z</Time>
            <Position>
              <LatitudeDegrees>41.9821023009717464447021484375</LatitudeDegrees>
              <LongitudeDegrees>2.8809511475265026092529296875</LongitudeDegrees>
            </Position>
            <AltitudeMeters>318.399993896484375</AltitudeMeters>
            <DistanceMeters>NAN</DistanceMeters>
          </Trackpoint>
          <Trackpoint>
            <Time>2020-02-15T11:18:33.000Z</Time>
            <Position>
              <LatitudeDegrees>41.98210221715271472930908203125</LatitudeDegrees>
              <LongitudeDegrees>2.8809511475265026092529296875</LongitudeDegrees>
            </Position>
            <AltitudeMeters>318.399993896484375</AltitudeMeters>
            <DistanceMeters>NAN</DistanceMeters>
          </Trackpoint>
          <Trackpoint>
            <Time>2020-02-15T11:18:35.000Z</Time>
            <Position>
              <LatitudeDegrees>41.98210221715271472930908203125</LatitudeDegrees>
              <LongitudeDegrees>2.88095106370747089385986328125</LongitudeDegrees>
            </Position>
            <AltitudeMeters>318.600006103515625</AltitudeMeters>
            <DistanceMeters>NAN</DistanceMeters>
          </Trackpoint>
          <Trackpoint>
            <Time>2020-02-15T11:18:39.000Z</Time>
            <Position>
              <LatitudeDegrees>41.9821023009717464447021484375</LatitudeDegrees>
              <LongitudeDegrees>2.88095064461231231689453125</LongitudeDegrees>
            </Position>
            <AltitudeMeters>318.399993896484375</AltitudeMeters>
            <DistanceMeters>NAN</DistanceMeters>
          </Trackpoint>
          <Trackpoint>
            <Time>2020-02-15T11:18:48.000Z</Time>
            <Position>
              <LatitudeDegrees>41.982102133333683013916015625</LatitudeDegrees>
              <LongitudeDegrees>2.88094888441264629364013671875</LongitudeDegrees>
            </Position>
            <AltitudeMeters>318.600006103515625</AltitudeMeters>
            <DistanceMeters>NAN</DistanceMeters>
          </Trackpoint>
          <Trackpoint>
            <Time>2020-02-15T11:18:51.000Z</Time>
            <Position>
              <LatitudeDegrees>41.98210154660046100616455078125</LatitudeDegrees>
              <LongitudeDegrees>2.8809441067278385162353515625</LongitudeDegrees>
            </Position>
            <AltitudeMeters>318.399993896484375</AltitudeMeters>
            <DistanceMeters>NAN</DistanceMeters>
          </Trackpoint>
          <Trackpoint>
            <Time>2020-02-15T11:18:53.000Z</Time>
            <Position>
              <LatitudeDegrees>41.98210054077208042144775390625</LatitudeDegrees>
              <LongitudeDegrees>2.8809209726750850677490234375</LongitudeDegrees>
            </Position>
            <AltitudeMeters>318.399993896484375</AltitudeMeters>
            <DistanceMeters>NAN</DistanceMeters>
          </Trackpoint>
          <Trackpoint>
            <Time>2020-02-15T11:18:54.000Z</Time>
            <Position>
              <LatitudeDegrees>41.982091404497623443603515625</LatitudeDegrees>
              <LongitudeDegrees>2.88089892826974391937255859375</LongitudeDegrees>
            </Position>
            <AltitudeMeters>318.399993896484375</AltitudeMeters>
            <DistanceMeters>NAN</DistanceMeters>
          </Trackpoint>
          <Trackpoint>
            <Time>2020-02-15T11:18:55.000Z</Time>
            <Position>
              <LatitudeDegrees>41.98207841254770755767822265625</LatitudeDegrees>
              <LongitudeDegrees>2.88087411783635616302490234375</LongitudeDegrees>
            </Position>
            <AltitudeMeters>318.399993896484375</AltitudeMeters>
            <DistanceMeters>NAN</DistanceMeters>
          </Trackpoint>
          <Trackpoint>
            <Time>2020-02-15T11:18:56.000Z</Time>
            <Position>
              <LatitudeDegrees>41.98205829598009586334228515625</LatitudeDegrees>
              <LongitudeDegrees>2.8808405064046382904052734375</LongitudeDegrees>
            </Position>
            <AltitudeMeters>318.20001220703125</AltitudeMeters>
            <DistanceMeters>NAN</DistanceMeters>
          </Trackpoint>
          <Trackpoint>
            <Time>2020-02-15T11:18:57.000Z</Time>
            <Position>
              <LatitudeDegrees>41.98203197680413722991943359375</LatitudeDegrees>
              <LongitudeDegrees>2.88080270402133464813232421875</LongitudeDegrees>
            </Position>
            <AltitudeMeters>318.600006103515625</AltitudeMeters>
            <DistanceMeters>NAN</DistanceMeters>
          </Trackpoint>
          <Trackpoint>
            <Time>2020-02-15T11:18:58.000Z</Time>
            <Position>
              <LatitudeDegrees>41.98200113140046596527099609375</LatitudeDegrees>
              <LongitudeDegrees>2.88076314143836498260498046875</LongitudeDegrees>
            </Position>
            <AltitudeMeters>318.399993896484375</AltitudeMeters>
            <DistanceMeters>NAN</DistanceMeters>
          </Trackpoint>
          <Trackpoint>
            <Time>2020-02-15T11:19:00.000Z</Time>
            <Position>
              <LatitudeDegrees>41.98194279335439205169677734375</LatitudeDegrees>
              <LongitudeDegrees>2.8806815855205059051513671875</LongitudeDegrees>
            </Position>
            <AltitudeMeters>318.399993896484375</AltitudeMeters>
            <DistanceMeters>NAN</DistanceMeters>
          </Trackpoint>
          <Trackpoint>
            <Time>2020-02-15T11:19:03.000Z</Time>
            <Position>
              <LatitudeDegrees>41.98185260407626628875732421875</LatitudeDegrees>
              <LongitudeDegrees>2.88054085336625576019287109375</LongitudeDegrees>
            </Position>
            <AltitudeMeters>318</AltitudeMeters>
            <DistanceMeters>NAN</DistanceMeters>
          </Trackpoint>
          <Trackpoint>
            <Time>2020-02-15T11:19:04.000Z</Time>
            <Position>
              <LatitudeDegrees>41.9818215072154998779296875</LatitudeDegrees>
              <LongitudeDegrees>2.88048394024372100830078125</LongitudeDegrees>
            </Position>
            <AltitudeMeters>317.79998779296875</AltitudeMeters>
            <DistanceMeters>NAN</DistanceMeters>
          </Trackpoint>
          <Trackpoint>
            <Time>2020-02-15T11:19:05.000Z</Time>
            <Position>
              <LatitudeDegrees>41.98179476894438266754150390625</LatitudeDegrees>
              <LongitudeDegrees>2.8804217465221881866455078125</LongitudeDegrees>
            </Position>
            <AltitudeMeters>317.600006103515625</AltitudeMeters>
            <DistanceMeters>NAN</DistanceMeters>
          </Trackpoint>
          <Trackpoint>
            <Time>2020-02-15T11:19:06.000Z</Time>
            <Position>
              <LatitudeDegrees>41.98176107369363307952880859375</LatitudeDegrees>
              <LongitudeDegrees>2.8803573735058307647705078125</LongitudeDegrees>
            </Position>
            <AltitudeMeters>317.399993896484375</AltitudeMeters>
            <DistanceMeters>NAN</DistanceMeters>
          </Trackpoint>
          <Trackpoint>
            <Time>2020-02-15T11:19:07.000Z</Time>
            <Position>
              <LatitudeDegrees>41.98173307813704013824462890625</LatitudeDegrees>
              <LongitudeDegrees>2.8802995383739471435546875</LongitudeDegrees>
            </Position>
            <AltitudeMeters>317.20001220703125</AltitudeMeters>
            <DistanceMeters>NAN</DistanceMeters>
          </Trackpoint>
          <Trackpoint>
            <Time>2020-02-15T11:19:08.000Z</Time>
            <Position>
              <LatitudeDegrees>41.9817100279033184051513671875</LatitudeDegrees>
              <LongitudeDegrees>2.88024296052753925323486328125</LongitudeDegrees>
            </Position>
            <AltitudeMeters>317.20001220703125</AltitudeMeters>
            <DistanceMeters>NAN</DistanceMeters>
          </Trackpoint>
          <Trackpoint>
            <Time>2020-02-15T11:19:09.000Z</Time>
            <Position>
              <LatitudeDegrees>41.9816858880221843719482421875</LatitudeDegrees>
              <LongitudeDegrees>2.88018579594790935516357421875</LongitudeDegrees>
            </Position>
            <AltitudeMeters>317</AltitudeMeters>
            <DistanceMeters>NAN</DistanceMeters>
          </Trackpoint>
          <Trackpoint>
            <Time>2020-02-15T11:19:10.000Z</Time>
            <Position>
              <LatitudeDegrees>41.98165831156075000762939453125</LatitudeDegrees>
              <LongitudeDegrees>2.88012729026377201080322265625</LongitudeDegrees>
            </Position>
            <AltitudeMeters>316.600006103515625</AltitudeMeters>
            <DistanceMeters>NAN</DistanceMeters>
          </Trackpoint>
          <Trackpoint>
            <Time>2020-02-15T11:19:12.000Z</Time>
            <Position>
              <LatitudeDegrees>41.98160332627594470977783203125</LatitudeDegrees>
              <LongitudeDegrees>2.87999938242137432098388671875</LongitudeDegrees>
            </Position>
            <AltitudeMeters>316.20001220703125</AltitudeMeters>
            <DistanceMeters>NAN</DistanceMeters>
          </Trackpoint>
          <Trackpoint>
            <Time>2020-02-15T11:19:13.000Z</Time>
            <Position>
              <LatitudeDegrees>41.9815640151500701904296875</LatitudeDegrees>
              <LongitudeDegrees>2.87992335855960845947265625</LongitudeDegrees>
            </Position>
            <AltitudeMeters>316</AltitudeMeters>
            <DistanceMeters>NAN</DistanceMeters>
          </Trackpoint>
          <Trackpoint>
            <Time>2020-02-15T11:19:14.000Z</Time>
            <Position>
              <LatitudeDegrees>41.98152487166225910186767578125</LatitudeDegrees>
              <LongitudeDegrees>2.87984414957463741302490234375</LongitudeDegrees>
            </Position>
            <AltitudeMeters>315.79998779296875</AltitudeMeters>
            <DistanceMeters>NAN</DistanceMeters>
          </Trackpoint>
          <Trackpoint>
            <Time>2020-02-15T11:19:15.000Z</Time>
            <Position>
              <LatitudeDegrees>41.9814746640622615814208984375</LatitudeDegrees>
              <LongitudeDegrees>2.8797630965709686279296875</LongitudeDegrees>
            </Position>
            <AltitudeMeters>315.600006103515625</AltitudeMeters>
            <DistanceMeters>NAN</DistanceMeters>
          </Trackpoint>
          <Trackpoint>
            <Time>2020-02-15T11:19:16.000Z</Time>
            <Position>
              <LatitudeDegrees>41.9814200140535831451416015625</LatitudeDegrees>
              <LongitudeDegrees>2.879684977233409881591796875</LongitudeDegrees>
            </Position>
            <AltitudeMeters>315.399993896484375</AltitudeMeters>
            <DistanceMeters>NAN</DistanceMeters>
          </Trackpoint>
          <Trackpoint>
            <Time>2020-02-15T11:19:17.000Z</Time>
            <Position>
              <LatitudeDegrees>41.98137349449098110198974609375</LatitudeDegrees>
              <LongitudeDegrees>2.8796155750751495361328125</LongitudeDegrees>
            </Position>
            <AltitudeMeters>315.399993896484375</AltitudeMeters>
            <DistanceMeters>NAN</DistanceMeters>
          </Trackpoint>
          <Trackpoint>
            <Time>2020-02-15T11:19:18.000Z</Time>
            <Position>
              <LatitudeDegrees>41.98132990859448909759521484375</LatitudeDegrees>
              <LongitudeDegrees>2.87955212406814098358154296875</LongitudeDegrees>
            </Position>
            <AltitudeMeters>315.20001220703125</AltitudeMeters>
            <DistanceMeters>NAN</DistanceMeters>
          </Trackpoint>
          <Trackpoint>
            <Time>2020-02-15T11:19:19.000Z</Time>
            <Position>
              <LatitudeDegrees>41.9812946207821369171142578125</LatitudeDegrees>
              <LongitudeDegrees>2.87949395366013050079345703125</LongitudeDegrees>
            </Position>
            <AltitudeMeters>314.79998779296875</AltitudeMeters>
            <DistanceMeters>NAN</DistanceMeters>
          </Trackpoint>
          <Trackpoint>
            <Time>2020-02-15T11:19:20.000Z</Time>
            <Position>
              <LatitudeDegrees>41.98126469738781452178955078125</LatitudeDegrees>
              <LongitudeDegrees>2.8794464282691478729248046875</LongitudeDegrees>
            </Position>
            <AltitudeMeters>314.79998779296875</AltitudeMeters>
            <DistanceMeters>NAN</DistanceMeters>
          </Trackpoint>
          <Trackpoint>
            <Time>2020-02-15T11:19:21.000Z</Time>
            <Position>
              <LatitudeDegrees>41.98123586364090442657470703125</LatitudeDegrees>
              <LongitudeDegrees>2.879410721361637115478515625</LongitudeDegrees>
            </Position>
            <AltitudeMeters>314.399993896484375</AltitudeMeters>
            <DistanceMeters>NAN</DistanceMeters>
          </Trackpoint>
          <Trackpoint>
            <Time>2020-02-15T11:19:22.000Z</Time>
            <Position>
              <LatitudeDegrees>41.98120853863656520843505859375</LatitudeDegrees>
              <LongitudeDegrees>2.87937794812023639678955078125</LongitudeDegrees>
            </Position>
            <AltitudeMeters>313</AltitudeMeters>
            <DistanceMeters>NAN</DistanceMeters>
          </Trackpoint>
          <Trackpoint>
            <Time>2020-02-15T11:19:23.000Z</Time>
            <Position>
              <LatitudeDegrees>41.98116880841553211212158203125</LatitudeDegrees>
              <LongitudeDegrees>2.87933553569018840789794921875</LongitudeDegrees>
            </Position>
            <AltitudeMeters>312.399993896484375</AltitudeMeters>
            <DistanceMeters>NAN</DistanceMeters>
          </Trackpoint>
          <Trackpoint>
            <Time>2020-02-15T11:19:24.000Z</Time>
            <Position>
              <LatitudeDegrees>41.98113176040351390838623046875</LatitudeDegrees>
              <LongitudeDegrees>2.879287339746952056884765625</LongitudeDegrees>
            </Position>
            <AltitudeMeters>311.79998779296875</AltitudeMeters>
            <DistanceMeters>NAN</DistanceMeters>
          </Trackpoint>
          <Trackpoint>
            <Time>2020-02-15T11:19:25.000Z</Time>
            <Position>
              <LatitudeDegrees>41.981086246669292449951171875</LatitudeDegrees>
              <LongitudeDegrees>2.87922925315797328948974609375</LongitudeDegrees>
            </Position>
            <AltitudeMeters>311</AltitudeMeters>
            <DistanceMeters>NAN</DistanceMeters>
          </Trackpoint>
          <Trackpoint>
            <Time>2020-02-15T11:19:27.000Z</Time>
            <Position>
              <LatitudeDegrees>41.98098474182188510894775390625</LatitudeDegrees>
              <LongitudeDegrees>2.87910872139036655426025390625</LongitudeDegrees>
            </Position>
            <AltitudeMeters>309.399993896484375</AltitudeMeters>
            <DistanceMeters>NAN</DistanceMeters>
          </Trackpoint>
          <Trackpoint>
            <Time>2020-02-15T11:19:28.000Z</Time>
            <Position>
              <LatitudeDegrees>41.98094777762889862060546875</LatitudeDegrees>
              <LongitudeDegrees>2.879063375294208526611328125</LongitudeDegrees>
            </Position>
            <AltitudeMeters>308.20001220703125</AltitudeMeters>
            <DistanceMeters>NAN</DistanceMeters>
          </Trackpoint>
          <Trackpoint>
            <Time>2020-02-15T11:19:29.000Z</Time>
            <Position>
              <LatitudeDegrees>41.980925314128398895263671875</LatitudeDegrees>
              <LongitudeDegrees>2.87903043441474437713623046875</LongitudeDegrees>
            </Position>
            <AltitudeMeters>307.399993896484375</AltitudeMeters>
            <DistanceMeters>NAN</DistanceMeters>
          </Trackpoint>
          <Trackpoint>
            <Time>2020-02-15T11:19:30.000Z</Time>
            <Position>
              <LatitudeDegrees>41.9809060357511043548583984375</LatitudeDegrees>
              <LongitudeDegrees>2.87900277413427829742431640625</LongitudeDegrees>
            </Position>
            <AltitudeMeters>307</AltitudeMeters>
            <DistanceMeters>NAN</DistanceMeters>
          </Trackpoint>
          <Trackpoint>
            <Time>2020-02-15T11:19:31.000Z</Time>
            <Position>
              <LatitudeDegrees>41.980891786515712738037109375</LatitudeDegrees>
              <LongitudeDegrees>2.8789783827960491180419921875</LongitudeDegrees>
            </Position>
            <AltitudeMeters>306.399993896484375</AltitudeMeters>
            <DistanceMeters>NAN</DistanceMeters>
          </Trackpoint>
          <Trackpoint>
            <Time>2020-02-15T11:19:32.000Z</Time>
            <Position>
              <LatitudeDegrees>41.98088298551738262176513671875</LatitudeDegrees>
              <LongitudeDegrees>2.87895667366683483123779296875</LongitudeDegrees>
            </Position>
            <AltitudeMeters>306.399993896484375</AltitudeMeters>
            <DistanceMeters>NAN</DistanceMeters>
          </Trackpoint>
          <Trackpoint>
            <Time>2020-02-15T11:19:33.000Z</Time>
            <Position>
              <LatitudeDegrees>41.9808735139667987823486328125</LatitudeDegrees>
              <LongitudeDegrees>2.87893571890890598297119140625</LongitudeDegrees>
            </Position>
            <AltitudeMeters>306</AltitudeMeters>
            <DistanceMeters>NAN</DistanceMeters>
          </Trackpoint>
          <Trackpoint>
            <Time>2020-02-15T11:19:34.000Z</Time>
            <Position>
              <LatitudeDegrees>41.9808624498546123504638671875</LatitudeDegrees>
              <LongitudeDegrees>2.87891895510256290435791015625</LongitudeDegrees>
            </Position>
            <AltitudeMeters>305</AltitudeMeters>
            <DistanceMeters>NAN</DistanceMeters>
          </Trackpoint>
          <Trackpoint>
            <Time>2020-02-15T11:19:35.000Z</Time>
            <Position>
              <LatitudeDegrees>41.9808517210185527801513671875</LatitudeDegrees>
              <LongitudeDegrees>2.87890437059104442596435546875</LongitudeDegrees>
            </Position>
            <AltitudeMeters>304.20001220703125</AltitudeMeters>
            <DistanceMeters>NAN</DistanceMeters>
          </Trackpoint>
          <Trackpoint>
            <Time>2020-02-15T11:19:36.000Z</Time>
            <Position>
              <LatitudeDegrees>41.9808393158018589019775390625</LatitudeDegrees>
              <LongitudeDegrees>2.87889028899371623992919921875</LongitudeDegrees>
            </Position>
            <AltitudeMeters>303.600006103515625</AltitudeMeters>
            <DistanceMeters>NAN</DistanceMeters>
          </Trackpoint>
          <Trackpoint>
            <Time>2020-02-15T11:19:37.000Z</Time>
            <Position>
              <LatitudeDegrees>41.98082515038549900054931640625</LatitudeDegrees>
              <LongitudeDegrees>2.8788751177489757537841796875</LongitudeDegrees>
            </Position>
            <AltitudeMeters>302.79998779296875</AltitudeMeters>
            <DistanceMeters>NAN</DistanceMeters>
          </Trackpoint>
          <Trackpoint>
            <Time>2020-02-15T11:19:38.000Z</Time>
            <Position>
              <LatitudeDegrees>41.98081308044493198394775390625</LatitudeDegrees>
              <LongitudeDegrees>2.8788556717336177825927734375</LongitudeDegrees>
            </Position>
            <AltitudeMeters>302.399993896484375</AltitudeMeters>
            <DistanceMeters>NAN</DistanceMeters>
          </Trackpoint>
          <Trackpoint>
            <Time>2020-02-15T11:19:39.000Z</Time>
            <Position>
              <LatitudeDegrees>41.98079623281955718994140625</LatitudeDegrees>
              <LongitudeDegrees>2.8788288496434688568115234375</LongitudeDegrees>
            </Position>
            <AltitudeMeters>302</AltitudeMeters>
            <DistanceMeters>NAN</DistanceMeters>
          </Trackpoint>
          <Trackpoint>
            <Time>2020-02-15T11:19:40.000Z</Time>
            <Position>
              <LatitudeDegrees>41.98078156448900699615478515625</LatitudeDegrees>
              <LongitudeDegrees>2.87879993207752704620361328125</LongitudeDegrees>
            </Position>
            <AltitudeMeters>301.600006103515625</AltitudeMeters>
            <DistanceMeters>NAN</DistanceMeters>
          </Trackpoint>
          <Trackpoint>
            <Time>2020-02-15T11:19:41.000Z</Time>
            <Position>
              <LatitudeDegrees>41.9807673990726470947265625</LatitudeDegrees>
              <LongitudeDegrees>2.87876732647418975830078125</LongitudeDegrees>
            </Position>
            <AltitudeMeters>301.600006103515625</AltitudeMeters>
            <DistanceMeters>NAN</DistanceMeters>
          </Trackpoint>
          <Trackpoint>
            <Time>2020-02-15T11:19:44.000Z</Time>
            <Position>
              <LatitudeDegrees>41.980727501213550567626953125</LatitudeDegrees>
              <LongitudeDegrees>2.87866272032260894775390625</LongitudeDegrees>
            </Position>
            <AltitudeMeters>301.20001220703125</AltitudeMeters>
            <DistanceMeters>NAN</DistanceMeters>
          </Trackpoint>
          <Trackpoint>
            <Time>2020-02-15T11:19:50.000Z</Time>
            <Position>
              <LatitudeDegrees>41.98061979375779628753662109375</LatitudeDegrees>
              <LongitudeDegrees>2.87844336591660976409912109375</LongitudeDegrees>
            </Position>
            <AltitudeMeters>301.20001220703125</AltitudeMeters>
            <DistanceMeters>NAN</DistanceMeters>
          </Trackpoint>
          <Trackpoint>
            <Time>2020-02-15T11:19:51.000Z</Time>
            <Position>
              <LatitudeDegrees>41.9805985875427722930908203125</LatitudeDegrees>
              <LongitudeDegrees>2.8784003667533397674560546875</LongitudeDegrees>
            </Position>
            <AltitudeMeters>301</AltitudeMeters>
            <DistanceMeters>NAN</DistanceMeters>
          </Trackpoint>
          <Trackpoint>
            <Time>2020-02-15T11:19:52.000Z</Time>
            <Position>
              <LatitudeDegrees>41.98057855479419231414794921875</LatitudeDegrees>
              <LongitudeDegrees>2.87835217081010341644287109375</LongitudeDegrees>
            </Position>
            <AltitudeMeters>301</AltitudeMeters>
            <DistanceMeters>NAN</DistanceMeters>
          </Trackpoint>
          <Trackpoint>
            <Time>2020-02-15T11:19:54.000Z</Time>
            <Position>
              <LatitudeDegrees>41.98052993975579738616943359375</LatitudeDegrees>
              <LongitudeDegrees>2.8782354108989238739013671875</LongitudeDegrees>
            </Position>
            <AltitudeMeters>300.79998779296875</AltitudeMeters>
            <DistanceMeters>NAN</DistanceMeters>
          </Trackpoint>
          <Trackpoint>
            <Time>2020-02-15T11:19:56.000Z</Time>
            <Position>
              <LatitudeDegrees>41.98047478683292865753173828125</LatitudeDegrees>
              <LongitudeDegrees>2.87808914668858051300048828125</LongitudeDegrees>
            </Position>
            <AltitudeMeters>301</AltitudeMeters>
            <DistanceMeters>NAN</DistanceMeters>
          </Trackpoint>
          <Trackpoint>
            <Time>2020-02-15T11:19:57.000Z</Time>
            <Position>
              <LatitudeDegrees>41.98045986704528331756591796875</LatitudeDegrees>
              <LongitudeDegrees>2.87801052443683147430419921875</LongitudeDegrees>
            </Position>
            <AltitudeMeters>301</AltitudeMeters>
            <DistanceMeters>NAN</DistanceMeters>
          </Trackpoint>
          <Trackpoint>
            <Time>2020-02-15T11:19:58.000Z</Time>
            <Position>
              <LatitudeDegrees>41.98044352233409881591796875</LatitudeDegrees>
              <LongitudeDegrees>2.87793475203216075897216796875</LongitudeDegrees>
            </Position>
            <AltitudeMeters>300.79998779296875</AltitudeMeters>
            <DistanceMeters>NAN</DistanceMeters>
          </Trackpoint>
          <Trackpoint>
            <Time>2020-02-15T11:19:59.000Z</Time>
            <Position>
              <LatitudeDegrees>41.98043824173510074615478515625</LatitudeDegrees>
              <LongitudeDegrees>2.877877838909626007080078125</LongitudeDegrees>
            </Position>
            <AltitudeMeters>301</AltitudeMeters>
            <DistanceMeters>NAN</DistanceMeters>
          </Trackpoint>
          <Trackpoint>
            <Time>2020-02-15T11:20:00.000Z</Time>
            <Position>
              <LatitudeDegrees>41.9804403372108936309814453125</LatitudeDegrees>
              <LongitudeDegrees>2.8778391145169734954833984375</LongitudeDegrees>
            </Position>
            <AltitudeMeters>300.79998779296875</AltitudeMeters>
            <DistanceMeters>NAN</DistanceMeters>
          </Trackpoint>
          <Trackpoint>
            <Time>2020-02-15T11:20:01.000Z</Time>
            <Position>
              <LatitudeDegrees>41.98043907992541790008544921875</LatitudeDegrees>
              <LongitudeDegrees>2.87780399434268474578857421875</LongitudeDegrees>
            </Position>
            <AltitudeMeters>300.79998779296875</AltitudeMeters>
            <DistanceMeters>NAN</DistanceMeters>
          </Trackpoint>
          <Trackpoint>
            <Time>2020-02-15T11:20:02.000Z</Time>
            <Position>
              <LatitudeDegrees>41.98043547570705413818359375</LatitudeDegrees>
              <LongitudeDegrees>2.8777703829109668731689453125</LongitudeDegrees>
            </Position>
            <AltitudeMeters>300.79998779296875</AltitudeMeters>
            <DistanceMeters>NAN</DistanceMeters>
          </Trackpoint>
          <Trackpoint>
            <Time>2020-02-15T11:20:03.000Z</Time>
            <Position>
              <LatitudeDegrees>41.9804319553077220916748046875</LatitudeDegrees>
              <LongitudeDegrees>2.877736352384090423583984375</LongitudeDegrees>
            </Position>
            <AltitudeMeters>301</AltitudeMeters>
            <DistanceMeters>NAN</DistanceMeters>
          </Trackpoint>
          <Trackpoint>
            <Time>2020-02-15T11:20:04.000Z</Time>
            <Position>
              <LatitudeDegrees>41.9804262556135654449462890625</LatitudeDegrees>
              <LongitudeDegrees>2.87769335322082042694091796875</LongitudeDegrees>
            </Position>
            <AltitudeMeters>301</AltitudeMeters>
            <DistanceMeters>NAN</DistanceMeters>
          </Trackpoint>
          <Trackpoint>
            <Time>2020-02-15T11:20:05.000Z</Time>
            <Position>
              <LatitudeDegrees>41.98041846044361591339111328125</LatitudeDegrees>
              <LongitudeDegrees>2.8776413016021251678466796875</LongitudeDegrees>
            </Position>
            <AltitudeMeters>301</AltitudeMeters>
            <DistanceMeters>NAN</DistanceMeters>
          </Trackpoint>
          <Trackpoint>
            <Time>2020-02-15T11:20:06.000Z</Time>
            <Position>
              <LatitudeDegrees>41.98040463030338287353515625</LatitudeDegrees>
              <LongitudeDegrees>2.877585478127002716064453125</LongitudeDegrees>
            </Position>
            <AltitudeMeters>300.79998779296875</AltitudeMeters>
            <DistanceMeters>NAN</DistanceMeters>
          </Trackpoint>
          <Trackpoint>
            <Time>2020-02-15T11:20:07.000Z</Time>
            <Position>
              <LatitudeDegrees>41.98038409464061260223388671875</LatitudeDegrees>
              <LongitudeDegrees>2.87753040902316570281982421875</LongitudeDegrees>
            </Position>
            <AltitudeMeters>301</AltitudeMeters>
            <DistanceMeters>NAN</DistanceMeters>
          </Trackpoint>
          <Trackpoint>
            <Time>2020-02-15T11:20:08.000Z</Time>
            <Position>
              <LatitudeDegrees>41.98035827837884426116943359375</LatitudeDegrees>
              <LongitudeDegrees>2.8774860687553882598876953125</LongitudeDegrees>
            </Position>
            <AltitudeMeters>301.20001220703125</AltitudeMeters>
            <DistanceMeters>NAN</DistanceMeters>
          </Trackpoint>
          <Trackpoint>
            <Time>2020-02-15T11:20:09.000Z</Time>
            <Position>
              <LatitudeDegrees>41.9803290255367755889892578125</LatitudeDegrees>
              <LongitudeDegrees>2.87745296023786067962646484375</LongitudeDegrees>
            </Position>
            <AltitudeMeters>301.20001220703125</AltitudeMeters>
            <DistanceMeters>NAN</DistanceMeters>
          </Trackpoint>
          <Trackpoint>
            <Time>2020-02-15T11:20:10.000Z</Time>
            <Position>
              <LatitudeDegrees>41.98029457591474056243896484375</LatitudeDegrees>
              <LongitudeDegrees>2.8774180077016353607177734375</LongitudeDegrees>
            </Position>
            <AltitudeMeters>301.399993896484375</AltitudeMeters>
            <DistanceMeters>NAN</DistanceMeters>
          </Trackpoint>
          <Trackpoint>
            <Time>2020-02-15T11:20:12.000Z</Time>
            <Position>
              <LatitudeDegrees>41.980232633650302886962890625</LatitudeDegrees>
              <LongitudeDegrees>2.87736176513135433197021484375</LongitudeDegrees>
            </Position>
            <AltitudeMeters>301.20001220703125</AltitudeMeters>
            <DistanceMeters>NAN</DistanceMeters>
          </Trackpoint>
          <Trackpoint>
            <Time>2020-02-15T11:20:13.000Z</Time>
            <Position>
              <LatitudeDegrees>41.9802046380937099456787109375</LatitudeDegrees>
              <LongitudeDegrees>2.87734307348728179931640625</LongitudeDegrees>
            </Position>
            <AltitudeMeters>301.20001220703125</AltitudeMeters>
            <DistanceMeters>NAN</DistanceMeters>
          </Trackpoint>
          <Trackpoint>
            <Time>2020-02-15T11:20:14.000Z</Time>
            <Position>
              <LatitudeDegrees>41.9801794923841953277587890625</LatitudeDegrees>
              <LongitudeDegrees>2.87732337601482868194580078125</LongitudeDegrees>
            </Position>
            <AltitudeMeters>301.20001220703125</AltitudeMeters>
            <DistanceMeters>NAN</DistanceMeters>
          </Trackpoint>
          <Trackpoint>
            <Time>2020-02-15T11:20:15.000Z</Time>
            <Position>
              <LatitudeDegrees>41.98015275411307811737060546875</LatitudeDegrees>
              <LongitudeDegrees>2.8773026727139949798583984375</LongitudeDegrees>
            </Position>
            <AltitudeMeters>301.20001220703125</AltitudeMeters>
            <DistanceMeters>NAN</DistanceMeters>
          </Trackpoint>
          <Trackpoint>
            <Time>2020-02-15T11:20:16.000Z</Time>
            <Position>
              <LatitudeDegrees>41.98012945242226123809814453125</LatitudeDegrees>
              <LongitudeDegrees>2.87728515453636646270751953125</LongitudeDegrees>
            </Position>
            <AltitudeMeters>301.399993896484375</AltitudeMeters>
            <DistanceMeters>NAN</DistanceMeters>
          </Trackpoint>
          <Trackpoint>
            <Time>2020-02-15T11:20:17.000Z</Time>
            <Position>
              <LatitudeDegrees>41.9801104255020618438720703125</LatitudeDegrees>
              <LongitudeDegrees>2.8772667981684207916259765625</LongitudeDegrees>
            </Position>
            <AltitudeMeters>301.20001220703125</AltitudeMeters>
            <DistanceMeters>NAN</DistanceMeters>
          </Trackpoint>
          <Trackpoint>
            <Time>2020-02-15T11:20:18.000Z</Time>
            <Position>
              <LatitudeDegrees>41.980092823505401611328125</LatitudeDegrees>
              <LongitudeDegrees>2.877249531447887420654296875</LongitudeDegrees>
            </Position>
            <AltitudeMeters>301.20001220703125</AltitudeMeters>
            <DistanceMeters>NAN</DistanceMeters>
          </Trackpoint>
          <Trackpoint>
            <Time>2020-02-15T11:20:19.000Z</Time>
            <Position>
              <LatitudeDegrees>41.98007983155548572540283203125</LatitudeDegrees>
              <LongitudeDegrees>2.87723436020314693450927734375</LongitudeDegrees>
            </Position>
            <AltitudeMeters>301</AltitudeMeters>
            <DistanceMeters>NAN</DistanceMeters>
          </Trackpoint>
          <Trackpoint>
            <Time>2020-02-15T11:20:20.000Z</Time>
            <Position>
              <LatitudeDegrees>41.9800718687474727630615234375</LatitudeDegrees>
              <LongitudeDegrees>2.87722296081483364105224609375</LongitudeDegrees>
            </Position>
            <AltitudeMeters>300.20001220703125</AltitudeMeters>
            <DistanceMeters>NAN</DistanceMeters>
          </Trackpoint>
          <Trackpoint>
            <Time>2020-02-15T11:20:21.000Z</Time>
            <Position>
              <LatitudeDegrees>41.9800641573965549468994140625</LatitudeDegrees>
              <LongitudeDegrees>2.877216674387454986572265625</LongitudeDegrees>
            </Position>
            <AltitudeMeters>299.79998779296875</AltitudeMeters>
            <DistanceMeters>NAN</DistanceMeters>
          </Trackpoint>
          <Trackpoint>
            <Time>2020-02-15T11:20:22.000Z</Time>
            <Position>
              <LatitudeDegrees>41.980060636997222900390625</LatitudeDegrees>
              <LongitudeDegrees>2.87721307016909122467041015625</LongitudeDegrees>
            </Position>
            <AltitudeMeters>299.20001220703125</AltitudeMeters>
            <DistanceMeters>NAN</DistanceMeters>
          </Trackpoint>
          <Trackpoint>
            <Time>2020-02-15T11:20:24.000Z</Time>
            <Position>
              <LatitudeDegrees>41.98004647158086299896240234375</LatitudeDegrees>
              <LongitudeDegrees>2.87718088366091251373291015625</LongitudeDegrees>
            </Position>
            <AltitudeMeters>298.600006103515625</AltitudeMeters>
            <DistanceMeters>NAN</DistanceMeters>
          </Trackpoint>
          <Trackpoint>
            <Time>2020-02-15T11:20:25.000Z</Time>
            <Position>
              <LatitudeDegrees>41.98002987541258335113525390625</LatitudeDegrees>
              <LongitudeDegrees>2.877156324684619903564453125</LongitudeDegrees>
            </Position>
            <AltitudeMeters>298.20001220703125</AltitudeMeters>
            <DistanceMeters>NAN</DistanceMeters>
          </Trackpoint>
          <Trackpoint>
            <Time>2020-02-15T11:20:28.000Z</Time>
            <Position>
              <LatitudeDegrees>41.9799639098346233367919921875</LatitudeDegrees>
              <LongitudeDegrees>2.877075858414173126220703125</LongitudeDegrees>
            </Position>
            <AltitudeMeters>297.600006103515625</AltitudeMeters>
            <DistanceMeters>NAN</DistanceMeters>
          </Trackpoint>
          <Trackpoint>
            <Time>2020-02-15T11:20:31.000Z</Time>
            <Position>
              <LatitudeDegrees>41.979867517948150634765625</LatitudeDegrees>
              <LongitudeDegrees>2.876981310546398162841796875</LongitudeDegrees>
            </Position>
            <AltitudeMeters>297.20001220703125</AltitudeMeters>
            <DistanceMeters>NAN</DistanceMeters>
          </Trackpoint>
          <Trackpoint>
            <Time>2020-02-15T11:20:32.000Z</Time>
            <Position>
              <LatitudeDegrees>41.979830302298069000244140625</LatitudeDegrees>
              <LongitudeDegrees>2.87694233469665050506591796875</LongitudeDegrees>
            </Position>
            <AltitudeMeters>297.20001220703125</AltitudeMeters>
            <DistanceMeters>NAN</DistanceMeters>
          </Trackpoint>
          <Trackpoint>
            <Time>2020-02-15T11:20:33.000Z</Time>
            <Position>
              <LatitudeDegrees>41.97979534976184368133544921875</LatitudeDegrees>
              <LongitudeDegrees>2.87689439021050930023193359375</LongitudeDegrees>
            </Position>
            <AltitudeMeters>297</AltitudeMeters>
            <DistanceMeters>NAN</DistanceMeters>
          </Trackpoint>
          <Trackpoint>
            <Time>2020-02-15T11:20:34.000Z</Time>
            <Position>
              <LatitudeDegrees>41.97975645773112773895263671875</LatitudeDegrees>
              <LongitudeDegrees>2.87684024311602115631103515625</LongitudeDegrees>
            </Position>
            <AltitudeMeters>297</AltitudeMeters>
            <DistanceMeters>NAN</DistanceMeters>
          </Trackpoint>
          <Trackpoint>
            <Time>2020-02-15T11:20:35.000Z</Time>
            <Position>
              <LatitudeDegrees>41.979718990623950958251953125</LatitudeDegrees>
              <LongitudeDegrees>2.87678408436477184295654296875</LongitudeDegrees>
            </Position>
            <AltitudeMeters>296.79998779296875</AltitudeMeters>
            <DistanceMeters>NAN</DistanceMeters>
          </Trackpoint>
          <Trackpoint>
            <Time>2020-02-15T11:20:38.000Z</Time>
            <Position>
              <LatitudeDegrees>41.979624442756175994873046875</LatitudeDegrees>
              <LongitudeDegrees>2.87661342881619930267333984375</LongitudeDegrees>
            </Position>
            <AltitudeMeters>296.79998779296875</AltitudeMeters>
            <DistanceMeters>NAN</DistanceMeters>
          </Trackpoint>
          <Trackpoint>
            <Time>2020-02-15T11:20:39.000Z</Time>
            <Position>
              <LatitudeDegrees>41.9796034879982471466064453125</LatitudeDegrees>
              <LongitudeDegrees>2.87655576132237911224365234375</LongitudeDegrees>
            </Position>
            <AltitudeMeters>296.600006103515625</AltitudeMeters>
            <DistanceMeters>NAN</DistanceMeters>
          </Trackpoint>
          <Trackpoint>
            <Time>2020-02-15T11:20:40.000Z</Time>
            <Position>
              <LatitudeDegrees>41.97958546690642833709716796875</LatitudeDegrees>
              <LongitudeDegrees>2.876496501266956329345703125</LongitudeDegrees>
            </Position>
            <AltitudeMeters>296.399993896484375</AltitudeMeters>
            <DistanceMeters>NAN</DistanceMeters>
          </Trackpoint>
          <Trackpoint>
            <Time>2020-02-15T11:20:43.000Z</Time>
            <Position>
              <LatitudeDegrees>41.97952888906002044677734375</LatitudeDegrees>
              <LongitudeDegrees>2.87630715407431125640869140625</LongitudeDegrees>
            </Position>
            <AltitudeMeters>296.20001220703125</AltitudeMeters>
            <DistanceMeters>NAN</DistanceMeters>
          </Trackpoint>
          <Trackpoint>
            <Time>2020-02-15T11:20:44.000Z</Time>
            <Position>
              <LatitudeDegrees>41.97951371781527996063232421875</LatitudeDegrees>
              <LongitudeDegrees>2.8762467205524444580078125</LongitudeDegrees>
            </Position>
            <AltitudeMeters>296</AltitudeMeters>
            <DistanceMeters>NAN</DistanceMeters>
          </Trackpoint>
          <Trackpoint>
            <Time>2020-02-15T11:20:45.000Z</Time>
            <Position>
              <LatitudeDegrees>41.97950131259858608245849609375</LatitudeDegrees>
              <LongitudeDegrees>2.87618435919284820556640625</LongitudeDegrees>
            </Position>
            <AltitudeMeters>296</AltitudeMeters>
            <DistanceMeters>NAN</DistanceMeters>
          </Trackpoint>
          <Trackpoint>
            <Time>2020-02-15T11:20:46.000Z</Time>
            <Position>
              <LatitudeDegrees>41.97948932647705078125</LatitudeDegrees>
              <LongitudeDegrees>2.8761282004415988922119140625</LongitudeDegrees>
            </Position>
            <AltitudeMeters>296</AltitudeMeters>
            <DistanceMeters>NAN</DistanceMeters>
          </Trackpoint>
          <Trackpoint>
            <Time>2020-02-15T11:20:47.000Z</Time>
            <Position>
              <LatitudeDegrees>41.979478932917118072509765625</LatitudeDegrees>
              <LongitudeDegrees>2.8760695271193981170654296875</LongitudeDegrees>
            </Position>
            <AltitudeMeters>296</AltitudeMeters>
            <DistanceMeters>NAN</DistanceMeters>
          </Trackpoint>
          <Trackpoint>
            <Time>2020-02-15T11:20:48.000Z</Time>
            <Position>
              <LatitudeDegrees>41.97947331704199314117431640625</LatitudeDegrees>
              <LongitudeDegrees>2.8760078363120555877685546875</LongitudeDegrees>
            </Position>
            <AltitudeMeters>295.79998779296875</AltitudeMeters>
            <DistanceMeters>NAN</DistanceMeters>
          </Trackpoint>
          <Trackpoint>
            <Time>2020-02-15T11:20:49.000Z</Time>
            <Position>
              <LatitudeDegrees>41.9794718921184539794921875</LatitudeDegrees>
              <LongitudeDegrees>2.87594589404761791229248046875</LongitudeDegrees>
            </Position>
            <AltitudeMeters>296</AltitudeMeters>
            <DistanceMeters>NAN</DistanceMeters>
          </Trackpoint>
          <Trackpoint>
            <Time>2020-02-15T11:20:50.000Z</Time>
            <Position>
              <LatitudeDegrees>41.97947499342262744903564453125</LatitudeDegrees>
              <LongitudeDegrees>2.875885628163814544677734375</LongitudeDegrees>
            </Position>
            <AltitudeMeters>295.79998779296875</AltitudeMeters>
            <DistanceMeters>NAN</DistanceMeters>
          </Trackpoint>
          <Trackpoint>
            <Time>2020-02-15T11:20:51.000Z</Time>
            <Position>
              <LatitudeDegrees>41.979478262364864349365234375</LatitudeDegrees>
              <LongitudeDegrees>2.8758277930319309234619140625</LongitudeDegrees>
            </Position>
            <AltitudeMeters>295.79998779296875</AltitudeMeters>
            <DistanceMeters>NAN</DistanceMeters>
          </Trackpoint>
          <Trackpoint>
            <Time>2020-02-15T11:20:52.000Z</Time>
            <Position>
              <LatitudeDegrees>41.9794853031635284423828125</LatitudeDegrees>
              <LongitudeDegrees>2.8757724724709987640380859375</LongitudeDegrees>
            </Position>
            <AltitudeMeters>295.79998779296875</AltitudeMeters>
            <DistanceMeters>NAN</DistanceMeters>
          </Trackpoint>
          <Trackpoint>
            <Time>2020-02-15T11:20:53.000Z</Time>
            <Position>
              <LatitudeDegrees>41.97949175722897052764892578125</LatitudeDegrees>
              <LongitudeDegrees>2.8757171519100666046142578125</LongitudeDegrees>
            </Position>
            <AltitudeMeters>296</AltitudeMeters>
            <DistanceMeters>NAN</DistanceMeters>
          </Trackpoint>
          <Trackpoint>
            <Time>2020-02-15T11:20:54.000Z</Time>
            <Position>
              <LatitudeDegrees>41.97950198315083980560302734375</LatitudeDegrees>
              <LongitudeDegrees>2.87566124461591243743896484375</LongitudeDegrees>
            </Position>
            <AltitudeMeters>295.79998779296875</AltitudeMeters>
            <DistanceMeters>NAN</DistanceMeters>
          </Trackpoint>
          <Trackpoint>
            <Time>2020-02-15T11:20:55.000Z</Time>
            <Position>
              <LatitudeDegrees>41.97951321490108966827392578125</LatitudeDegrees>
              <LongitudeDegrees>2.875613383948802947998046875</LongitudeDegrees>
            </Position>
            <AltitudeMeters>295.79998779296875</AltitudeMeters>
            <DistanceMeters>NAN</DistanceMeters>
          </Trackpoint>
          <Trackpoint>
            <Time>2020-02-15T11:20:56.000Z</Time>
            <Position>
              <LatitudeDegrees>41.97952411137521266937255859375</LatitudeDegrees>
              <LongitudeDegrees>2.875567786395549774169921875</LongitudeDegrees>
            </Position>
            <AltitudeMeters>295.79998779296875</AltitudeMeters>
            <DistanceMeters>NAN</DistanceMeters>
          </Trackpoint>
          <Trackpoint>
            <Time>2020-02-15T11:20:57.000Z</Time>
            <Position>
              <LatitudeDegrees>41.97953400202095508575439453125</LatitudeDegrees>
              <LongitudeDegrees>2.8755317442119121551513671875</LongitudeDegrees>
            </Position>
            <AltitudeMeters>295.79998779296875</AltitudeMeters>
            <DistanceMeters>NAN</DistanceMeters>
          </Trackpoint>
          <Trackpoint>
            <Time>2020-02-15T11:20:58.000Z</Time>
            <Position>
              <LatitudeDegrees>41.979542635381221771240234375</LatitudeDegrees>
              <LongitudeDegrees>2.87550249136984348297119140625</LongitudeDegrees>
            </Position>
            <AltitudeMeters>296</AltitudeMeters>
            <DistanceMeters>NAN</DistanceMeters>
          </Trackpoint>
          <Trackpoint>
            <Time>2020-02-15T11:20:59.000Z</Time>
            <Position>
              <LatitudeDegrees>41.9795511849224567413330078125</LatitudeDegrees>
              <LongitudeDegrees>2.8754750825464725494384765625</LongitudeDegrees>
            </Position>
            <AltitudeMeters>295.79998779296875</AltitudeMeters>
            <DistanceMeters>NAN</DistanceMeters>
          </Trackpoint>
          <Trackpoint>
            <Time>2020-02-15T11:21:00.000Z</Time>
            <Position>
              <LatitudeDegrees>41.97956501506268978118896484375</LatitudeDegrees>
              <LongitudeDegrees>2.87545253522694110870361328125</LongitudeDegrees>
            </Position>
            <AltitudeMeters>296</AltitudeMeters>
            <DistanceMeters>NAN</DistanceMeters>
          </Trackpoint>
          <Trackpoint>
            <Time>2020-02-15T11:21:01.000Z</Time>
            <Position>
              <LatitudeDegrees>41.979582197964191436767578125</LatitudeDegrees>
              <LongitudeDegrees>2.87543510086834430694580078125</LongitudeDegrees>
            </Position>
            <AltitudeMeters>296.20001220703125</AltitudeMeters>
            <DistanceMeters>NAN</DistanceMeters>
          </Trackpoint>
          <Trackpoint>
            <Time>2020-02-15T11:21:02.000Z</Time>
            <Position>
              <LatitudeDegrees>41.97959938086569309234619140625</LatitudeDegrees>
              <LongitudeDegrees>2.8754232823848724365234375</LongitudeDegrees>
            </Position>
            <AltitudeMeters>296.399993896484375</AltitudeMeters>
            <DistanceMeters>NAN</DistanceMeters>
          </Trackpoint>
          <Trackpoint>
            <Time>2020-02-15T11:21:03.000Z</Time>
            <Position>
              <LatitudeDegrees>41.9796195812523365020751953125</LatitudeDegrees>
              <LongitudeDegrees>2.875414229929447174072265625</LongitudeDegrees>
            </Position>
            <AltitudeMeters>296.600006103515625</AltitudeMeters>
            <DistanceMeters>NAN</DistanceMeters>
          </Trackpoint>
          <Trackpoint>
            <Time>2020-02-15T11:21:04.000Z</Time>
            <Position>
              <LatitudeDegrees>41.97964296676218509674072265625</LatitudeDegrees>
              <LongitudeDegrees>2.8754053451120853424072265625</LongitudeDegrees>
            </Position>
            <AltitudeMeters>296.79998779296875</AltitudeMeters>
            <DistanceMeters>NAN</DistanceMeters>
          </Trackpoint>
          <Trackpoint>
            <Time>2020-02-15T11:21:05.000Z</Time>
            <Position>
              <LatitudeDegrees>41.979669369757175445556640625</LatitudeDegrees>
              <LongitudeDegrees>2.8753986395895481109619140625</LongitudeDegrees>
            </Position>
            <AltitudeMeters>297</AltitudeMeters>
            <DistanceMeters>NAN</DistanceMeters>
          </Trackpoint>
          <Trackpoint>
            <Time>2020-02-15T11:21:06.000Z</Time>
            <Position>
              <LatitudeDegrees>41.97969543747603893280029296875</LatitudeDegrees>
              <LongitudeDegrees>2.8753962926566600799560546875</LongitudeDegrees>
            </Position>
            <AltitudeMeters>297.600006103515625</AltitudeMeters>
            <DistanceMeters>NAN</DistanceMeters>
          </Trackpoint>
          <Trackpoint>
            <Time>2020-02-15T11:21:07.000Z</Time>
            <Position>
              <LatitudeDegrees>41.9797168113291263580322265625</LatitudeDegrees>
              <LongitudeDegrees>2.8753976337611675262451171875</LongitudeDegrees>
            </Position>
            <AltitudeMeters>297.79998779296875</AltitudeMeters>
            <DistanceMeters>NAN</DistanceMeters>
          </Trackpoint>
          <Trackpoint>
            <Time>2020-02-15T11:21:08.000Z</Time>
            <Position>
              <LatitudeDegrees>41.979740448296070098876953125</LatitudeDegrees>
              <LongitudeDegrees>2.8753991425037384033203125</LongitudeDegrees>
            </Position>
            <AltitudeMeters>298.399993896484375</AltitudeMeters>
            <DistanceMeters>NAN</DistanceMeters>
          </Trackpoint>
          <Trackpoint>
            <Time>2020-02-15T11:21:09.000Z</Time>
            <Position>
              <LatitudeDegrees>41.97976836003363132476806640625</LatitudeDegrees>
              <LongitudeDegrees>2.8754031658172607421875</LongitudeDegrees>
            </Position>
            <AltitudeMeters>298.600006103515625</AltitudeMeters>
            <DistanceMeters>NAN</DistanceMeters>
          </Trackpoint>
          <Trackpoint>
            <Time>2020-02-15T11:21:10.000Z</Time>
            <Position>
              <LatitudeDegrees>41.97979451157152652740478515625</LatitudeDegrees>
              <LongitudeDegrees>2.875400818884372711181640625</LongitudeDegrees>
            </Position>
            <AltitudeMeters>299.20001220703125</AltitudeMeters>
            <DistanceMeters>NAN</DistanceMeters>
          </Trackpoint>
          <Trackpoint>
            <Time>2020-02-15T11:21:11.000Z</Time>
            <Position>
              <LatitudeDegrees>41.97982351295650005340576171875</LatitudeDegrees>
              <LongitudeDegrees>2.87539101205766201019287109375</LongitudeDegrees>
            </Position>
            <AltitudeMeters>299.399993896484375</AltitudeMeters>
            <DistanceMeters>NAN</DistanceMeters>
          </Trackpoint>
          <Trackpoint>
            <Time>2020-02-15T11:21:12.000Z</Time>
            <Position>
              <LatitudeDegrees>41.9798519276082515716552734375</LatitudeDegrees>
              <LongitudeDegrees>2.87538480944931507110595703125</LongitudeDegrees>
            </Position>
            <AltitudeMeters>299.600006103515625</AltitudeMeters>
            <DistanceMeters>NAN</DistanceMeters>
          </Trackpoint>
          <Trackpoint>
            <Time>2020-02-15T11:21:13.000Z</Time>
            <Position>
              <LatitudeDegrees>41.97987967170774936676025390625</LatitudeDegrees>
              <LongitudeDegrees>2.875382713973522186279296875</LongitudeDegrees>
            </Position>
            <AltitudeMeters>300</AltitudeMeters>
            <DistanceMeters>NAN</DistanceMeters>
          </Trackpoint>
          <Trackpoint>
            <Time>2020-02-15T11:21:14.000Z</Time>
            <Position>
              <LatitudeDegrees>41.97990263812243938446044921875</LatitudeDegrees>
              <LongitudeDegrees>2.87537458352744579315185546875</LongitudeDegrees>
            </Position>
            <AltitudeMeters>300</AltitudeMeters>
            <DistanceMeters>NAN</DistanceMeters>
          </Trackpoint>
          <Trackpoint>
            <Time>2020-02-15T11:21:15.000Z</Time>
            <Position>
              <LatitudeDegrees>41.97992677800357341766357421875</LatitudeDegrees>
              <LongitudeDegrees>2.87536234594881534576416015625</LongitudeDegrees>
            </Position>
            <AltitudeMeters>300</AltitudeMeters>
            <DistanceMeters>NAN</DistanceMeters>
          </Trackpoint>
          <Trackpoint>
            <Time>2020-02-15T11:21:16.000Z</Time>
            <Position>
              <LatitudeDegrees>41.979947984218597412109375</LatitudeDegrees>
              <LongitudeDegrees>2.87535111419856548309326171875</LongitudeDegrees>
            </Position>
            <AltitudeMeters>300.20001220703125</AltitudeMeters>
            <DistanceMeters>NAN</DistanceMeters>
          </Trackpoint>
          <Trackpoint>
            <Time>2020-02-15T11:21:17.000Z</Time>
            <Position>
              <LatitudeDegrees>41.9799692742526531219482421875</LatitudeDegrees>
              <LongitudeDegrees>2.87533904425799846649169921875</LongitudeDegrees>
            </Position>
            <AltitudeMeters>300.399993896484375</AltitudeMeters>
            <DistanceMeters>NAN</DistanceMeters>
          </Trackpoint>
          <Trackpoint>
            <Time>2020-02-15T11:21:18.000Z</Time>
            <Position>
              <LatitudeDegrees>41.97998763062059879302978515625</LatitudeDegrees>
              <LongitudeDegrees>2.87532881833612918853759765625</LongitudeDegrees>
            </Position>
            <AltitudeMeters>300.399993896484375</AltitudeMeters>
            <DistanceMeters>NAN</DistanceMeters>
          </Trackpoint>
          <Trackpoint>
            <Time>2020-02-15T11:21:19.000Z</Time>
            <Position>
              <LatitudeDegrees>41.98000187985599040985107421875</LatitudeDegrees>
              <LongitudeDegrees>2.8753195144236087799072265625</LongitudeDegrees>
            </Position>
            <AltitudeMeters>300.399993896484375</AltitudeMeters>
            <DistanceMeters>NAN</DistanceMeters>
          </Trackpoint>
          <Trackpoint>
            <Time>2020-02-15T11:21:20.000Z</Time>
            <Position>
              <LatitudeDegrees>41.980013363063335418701171875</LatitudeDegrees>
              <LongitudeDegrees>2.87530987523496150970458984375</LongitudeDegrees>
            </Position>
            <AltitudeMeters>300.600006103515625</AltitudeMeters>
            <DistanceMeters>NAN</DistanceMeters>
          </Trackpoint>
          <Trackpoint>
            <Time>2020-02-15T11:21:21.000Z</Time>
            <Position>
              <LatitudeDegrees>41.98002283461391925811767578125</LatitudeDegrees>
              <LongitudeDegrees>2.87529830820858478546142578125</LongitudeDegrees>
            </Position>
            <AltitudeMeters>300.79998779296875</AltitudeMeters>
            <DistanceMeters>NAN</DistanceMeters>
          </Trackpoint>
          <Trackpoint>
            <Time>2020-02-15T11:21:22.000Z</Time>
            <Position>
              <LatitudeDegrees>41.980031467974185943603515625</LatitudeDegrees>
              <LongitudeDegrees>2.87528791464865207672119140625</LongitudeDegrees>
            </Position>
            <AltitudeMeters>300.79998779296875</AltitudeMeters>
            <DistanceMeters>NAN</DistanceMeters>
          </Trackpoint>
          <Trackpoint>
            <Time>2020-02-15T11:21:23.000Z</Time>
            <Position>
              <LatitudeDegrees>41.9800416938960552215576171875</LatitudeDegrees>
              <LongitudeDegrees>2.87528255023062229156494140625</LongitudeDegrees>
            </Position>
            <AltitudeMeters>301.399993896484375</AltitudeMeters>
            <DistanceMeters>NAN</DistanceMeters>
          </Trackpoint>
          <Trackpoint>
            <Time>2020-02-15T11:21:24.000Z</Time>
            <Position>
              <LatitudeDegrees>41.980050913989543914794921875</LatitudeDegrees>
              <LongitudeDegrees>2.87528037093579769134521484375</LongitudeDegrees>
            </Position>
            <AltitudeMeters>301.600006103515625</AltitudeMeters>
            <DistanceMeters>NAN</DistanceMeters>
          </Trackpoint>
          <Trackpoint>
            <Time>2020-02-15T11:21:25.000Z</Time>
            <Position>
              <LatitudeDegrees>41.9800604693591594696044921875</LatitudeDegrees>
              <LongitudeDegrees>2.87527450360357761383056640625</LongitudeDegrees>
            </Position>
            <AltitudeMeters>302</AltitudeMeters>
            <DistanceMeters>NAN</DistanceMeters>
          </Trackpoint>
          <Trackpoint>
            <Time>2020-02-15T11:21:26.000Z</Time>
            <Position>
              <LatitudeDegrees>41.98007144965231418609619140625</LatitudeDegrees>
              <LongitudeDegrees>2.8752648644149303436279296875</LongitudeDegrees>
            </Position>
            <AltitudeMeters>302.399993896484375</AltitudeMeters>
            <DistanceMeters>NAN</DistanceMeters>
          </Trackpoint>
          <Trackpoint>
            <Time>2020-02-15T11:21:27.000Z</Time>
            <Position>
              <LatitudeDegrees>41.980083100497722625732421875</LatitudeDegrees>
              <LongitudeDegrees>2.875254638493061065673828125</LongitudeDegrees>
            </Position>
            <AltitudeMeters>302.600006103515625</AltitudeMeters>
            <DistanceMeters>NAN</DistanceMeters>
          </Trackpoint>
          <Trackpoint>
            <Time>2020-02-15T11:21:28.000Z</Time>
            <Position>
              <LatitudeDegrees>41.9800943322479724884033203125</LatitudeDegrees>
              <LongitudeDegrees>2.8752437420189380645751953125</LongitudeDegrees>
            </Position>
            <AltitudeMeters>303</AltitudeMeters>
            <DistanceMeters>NAN</DistanceMeters>
          </Trackpoint>
          <Trackpoint>
            <Time>2020-02-15T11:21:29.000Z</Time>
            <Position>
              <LatitudeDegrees>41.98010480962693691253662109375</LatitudeDegrees>
              <LongitudeDegrees>2.875230498611927032470703125</LongitudeDegrees>
            </Position>
            <AltitudeMeters>303.20001220703125</AltitudeMeters>
            <DistanceMeters>NAN</DistanceMeters>
          </Trackpoint>
          <Trackpoint>
            <Time>2020-02-15T11:21:30.000Z</Time>
            <Position>
              <LatitudeDegrees>41.98011771775782108306884765625</LatitudeDegrees>
              <LongitudeDegrees>2.87521616555750370025634765625</LongitudeDegrees>
            </Position>
            <AltitudeMeters>303.399993896484375</AltitudeMeters>
            <DistanceMeters>NAN</DistanceMeters>
          </Trackpoint>
          <Trackpoint>
            <Time>2020-02-15T11:21:31.000Z</Time>
            <Position>
              <LatitudeDegrees>41.9801275245845317840576171875</LatitudeDegrees>
              <LongitudeDegrees>2.87520023994147777557373046875</LongitudeDegrees>
            </Position>
            <AltitudeMeters>303.600006103515625</AltitudeMeters>
            <DistanceMeters>NAN</DistanceMeters>
          </Trackpoint>
          <Trackpoint>
            <Time>2020-02-15T11:21:32.000Z</Time>
            <Position>
              <LatitudeDegrees>41.980132721364498138427734375</LatitudeDegrees>
              <LongitudeDegrees>2.8751792013645172119140625</LongitudeDegrees>
            </Position>
            <AltitudeMeters>303.79998779296875</AltitudeMeters>
            <DistanceMeters>NAN</DistanceMeters>
          </Trackpoint>
          <Trackpoint>
            <Time>2020-02-15T11:21:33.000Z</Time>
            <Position>
              <LatitudeDegrees>41.98013884015381336212158203125</LatitudeDegrees>
              <LongitudeDegrees>2.8751582466065883636474609375</LongitudeDegrees>
            </Position>
            <AltitudeMeters>304</AltitudeMeters>
            <DistanceMeters>NAN</DistanceMeters>
          </Trackpoint>
          <Trackpoint>
            <Time>2020-02-15T11:21:34.000Z</Time>
            <Position>
              <LatitudeDegrees>41.9801478087902069091796875</LatitudeDegrees>
              <LongitudeDegrees>2.8751362860202789306640625</LongitudeDegrees>
            </Position>
            <AltitudeMeters>304.20001220703125</AltitudeMeters>
            <DistanceMeters>NAN</DistanceMeters>
          </Trackpoint>
          <Trackpoint>
            <Time>2020-02-15T11:21:35.000Z</Time>
            <Position>
              <LatitudeDegrees>41.980157531797885894775390625</LatitudeDegrees>
              <LongitudeDegrees>2.87511424161493778228759765625</LongitudeDegrees>
            </Position>
            <AltitudeMeters>304.399993896484375</AltitudeMeters>
            <DistanceMeters>NAN</DistanceMeters>
          </Trackpoint>
          <Trackpoint>
            <Time>2020-02-15T11:21:36.000Z</Time>
            <Position>
              <LatitudeDegrees>41.9801667518913745880126953125</LatitudeDegrees>
              <LongitudeDegrees>2.87509144283831119537353515625</LongitudeDegrees>
            </Position>
            <AltitudeMeters>304.399993896484375</AltitudeMeters>
            <DistanceMeters>NAN</DistanceMeters>
          </Trackpoint>
          <Trackpoint>
            <Time>2020-02-15T11:21:37.000Z</Time>
            <Position>
              <LatitudeDegrees>41.980173289775848388671875</LatitudeDegrees>
              <LongitudeDegrees>2.8750700689852237701416015625</LongitudeDegrees>
            </Position>
            <AltitudeMeters>304.600006103515625</AltitudeMeters>
            <DistanceMeters>NAN</DistanceMeters>
          </Trackpoint>
          <Trackpoint>
            <Time>2020-02-15T11:21:38.000Z</Time>
            <Position>
              <LatitudeDegrees>41.9801774807274341583251953125</LatitudeDegrees>
              <LongitudeDegrees>2.87504986859858036041259765625</LongitudeDegrees>
            </Position>
            <AltitudeMeters>305</AltitudeMeters>
            <DistanceMeters>NAN</DistanceMeters>
          </Trackpoint>
          <Trackpoint>
            <Time>2020-02-15T11:21:39.000Z</Time>
            <Position>
              <LatitudeDegrees>41.9801811687648296356201171875</LatitudeDegrees>
              <LongitudeDegrees>2.8750301711261272430419921875</LongitudeDegrees>
            </Position>
            <AltitudeMeters>305</AltitudeMeters>
            <DistanceMeters>NAN</DistanceMeters>
          </Trackpoint>
          <Trackpoint>
            <Time>2020-02-15T11:21:40.000Z</Time>
            <Position>
              <LatitudeDegrees>41.98018276132643222808837890625</LatitudeDegrees>
              <LongitudeDegrees>2.87501751445233821868896484375</LongitudeDegrees>
            </Position>
            <AltitudeMeters>305.20001220703125</AltitudeMeters>
            <DistanceMeters>NAN</DistanceMeters>
          </Trackpoint>
          <Trackpoint>
            <Time>2020-02-15T11:21:41.000Z</Time>
            <Position>
              <LatitudeDegrees>41.98018494062125682830810546875</LatitudeDegrees>
              <LongitudeDegrees>2.8750103898346424102783203125</LongitudeDegrees>
            </Position>
            <AltitudeMeters>305.20001220703125</AltitudeMeters>
            <DistanceMeters>NAN</DistanceMeters>
          </Trackpoint>
          <Trackpoint>
            <Time>2020-02-15T11:21:44.000Z</Time>
            <Position>
              <LatitudeDegrees>41.9801912270486354827880859375</LatitudeDegrees>
              <LongitudeDegrees>2.8750087134540081024169921875</LongitudeDegrees>
            </Position>
            <AltitudeMeters>306</AltitudeMeters>
            <DistanceMeters>NAN</DistanceMeters>
          </Trackpoint>
          <Trackpoint>
            <Time>2020-02-15T11:21:48.000Z</Time>
            <Position>
              <LatitudeDegrees>41.98020891286432743072509765625</LatitudeDegrees>
              <LongitudeDegrees>2.874996475875377655029296875</LongitudeDegrees>
            </Position>
            <AltitudeMeters>306.600006103515625</AltitudeMeters>
            <DistanceMeters>NAN</DistanceMeters>
          </Trackpoint>
          <Trackpoint>
            <Time>2020-02-15T11:21:49.000Z</Time>
            <Position>
              <LatitudeDegrees>41.98021377436816692352294921875</LatitudeDegrees>
              <LongitudeDegrees>2.87498264573514461517333984375</LongitudeDegrees>
            </Position>
            <AltitudeMeters>307</AltitudeMeters>
            <DistanceMeters>NAN</DistanceMeters>
          </Trackpoint>
          <Trackpoint>
            <Time>2020-02-15T11:21:50.000Z</Time>
            <Position>
              <LatitudeDegrees>41.980217210948467254638671875</LatitudeDegrees>
              <LongitudeDegrees>2.87496604956686496734619140625</LongitudeDegrees>
            </Position>
            <AltitudeMeters>307</AltitudeMeters>
            <DistanceMeters>NAN</DistanceMeters>
          </Trackpoint>
          <Trackpoint>
            <Time>2020-02-15T11:21:51.000Z</Time>
            <Position>
              <LatitudeDegrees>41.98022081516683101654052734375</LatitudeDegrees>
              <LongitudeDegrees>2.874948196113109588623046875</LongitudeDegrees>
            </Position>
            <AltitudeMeters>307</AltitudeMeters>
            <DistanceMeters>NAN</DistanceMeters>
          </Trackpoint>
          <Trackpoint>
            <Time>2020-02-15T11:21:52.000Z</Time>
            <Position>
              <LatitudeDegrees>41.98022617958486080169677734375</LatitudeDegrees>
              <LongitudeDegrees>2.87492774426937103271484375</LongitudeDegrees>
            </Position>
            <AltitudeMeters>307</AltitudeMeters>
            <DistanceMeters>NAN</DistanceMeters>
          </Trackpoint>
          <Trackpoint>
            <Time>2020-02-15T11:21:53.000Z</Time>
            <Position>
              <LatitudeDegrees>41.980230621993541717529296875</LatitudeDegrees>
              <LongitudeDegrees>2.8749096393585205078125</LongitudeDegrees>
            </Position>
            <AltitudeMeters>307.20001220703125</AltitudeMeters>
            <DistanceMeters>NAN</DistanceMeters>
          </Trackpoint>
          <Trackpoint>
            <Time>2020-02-15T11:21:54.000Z</Time>
            <Position>
              <LatitudeDegrees>41.98023506440222263336181640625</LatitudeDegrees>
              <LongitudeDegrees>2.8748896904289722442626953125</LongitudeDegrees>
            </Position>
            <AltitudeMeters>307.20001220703125</AltitudeMeters>
            <DistanceMeters>NAN</DistanceMeters>
          </Trackpoint>
          <Trackpoint>
            <Time>2020-02-15T11:21:55.000Z</Time>
            <Position>
              <LatitudeDegrees>41.9802391715347766876220703125</LatitudeDegrees>
              <LongitudeDegrees>2.87486932240426540374755859375</LongitudeDegrees>
            </Position>
            <AltitudeMeters>307.20001220703125</AltitudeMeters>
            <DistanceMeters>NAN</DistanceMeters>
          </Trackpoint>
          <Trackpoint>
            <Time>2020-02-15T11:21:58.000Z</Time>
            <Position>
              <LatitudeDegrees>41.9802512414753437042236328125</LatitudeDegrees>
              <LongitudeDegrees>2.8748018480837345123291015625</LongitudeDegrees>
            </Position>
            <AltitudeMeters>307.399993896484375</AltitudeMeters>
            <DistanceMeters>NAN</DistanceMeters>
          </Trackpoint>
          <Trackpoint>
            <Time>2020-02-15T11:21:59.000Z</Time>
            <Position>
              <LatitudeDegrees>41.98025736026465892791748046875</LatitudeDegrees>
              <LongitudeDegrees>2.87477980367839336395263671875</LongitudeDegrees>
            </Position>
            <AltitudeMeters>307.600006103515625</AltitudeMeters>
            <DistanceMeters>NAN</DistanceMeters>
          </Trackpoint>
          <Trackpoint>
            <Time>2020-02-15T11:22:00.000Z</Time>
            <Position>
              <LatitudeDegrees>41.980262808501720428466796875</LatitudeDegrees>
              <LongitudeDegrees>2.87475683726370334625244140625</LongitudeDegrees>
            </Position>
            <AltitudeMeters>307.600006103515625</AltitudeMeters>
            <DistanceMeters>NAN</DistanceMeters>
          </Trackpoint>
          <Trackpoint>
            <Time>2020-02-15T11:22:01.000Z</Time>
            <Position>
              <LatitudeDegrees>41.9802659936249256134033203125</LatitudeDegrees>
              <LongitudeDegrees>2.87473320029675960540771484375</LongitudeDegrees>
            </Position>
            <AltitudeMeters>307.600006103515625</AltitudeMeters>
            <DistanceMeters>NAN</DistanceMeters>
          </Trackpoint>
          <Trackpoint>
            <Time>2020-02-15T11:22:02.000Z</Time>
            <Position>
              <LatitudeDegrees>41.9802690111100673675537109375</LatitudeDegrees>
              <LongitudeDegrees>2.8747093118727207183837890625</LongitudeDegrees>
            </Position>
            <AltitudeMeters>307.600006103515625</AltitudeMeters>
            <DistanceMeters>NAN</DistanceMeters>
          </Trackpoint>
          <Trackpoint>
            <Time>2020-02-15T11:22:03.000Z</Time>
            <Position>
              <LatitudeDegrees>41.98027546517550945281982421875</LatitudeDegrees>
              <LongitudeDegrees>2.87468232214450836181640625</LongitudeDegrees>
            </Position>
            <AltitudeMeters>307.79998779296875</AltitudeMeters>
            <DistanceMeters>NAN</DistanceMeters>
          </Trackpoint>
          <Trackpoint>
            <Time>2020-02-15T11:22:04.000Z</Time>
            <Position>
              <LatitudeDegrees>41.98028183542191982269287109375</LatitudeDegrees>
              <LongitudeDegrees>2.87465306930243968963623046875</LongitudeDegrees>
            </Position>
            <AltitudeMeters>308</AltitudeMeters>
            <DistanceMeters>NAN</DistanceMeters>
          </Trackpoint>
          <Trackpoint>
            <Time>2020-02-15T11:22:05.000Z</Time>
            <Position>
              <LatitudeDegrees>41.98028887622058391571044921875</LatitudeDegrees>
              <LongitudeDegrees>2.87461954168975353240966796875</LongitudeDegrees>
            </Position>
            <AltitudeMeters>308.399993896484375</AltitudeMeters>
            <DistanceMeters>NAN</DistanceMeters>
          </Trackpoint>
          <Trackpoint>
            <Time>2020-02-15T11:22:06.000Z</Time>
            <Position>
              <LatitudeDegrees>41.98029407300055027008056640625</LatitudeDegrees>
              <LongitudeDegrees>2.8745936416089534759521484375</LongitudeDegrees>
            </Position>
            <AltitudeMeters>308.399993896484375</AltitudeMeters>
            <DistanceMeters>NAN</DistanceMeters>
          </Trackpoint>
          <Trackpoint>
            <Time>2020-02-15T11:22:07.000Z</Time>
            <Position>
              <LatitudeDegrees>41.9802998565137386322021484375</LatitudeDegrees>
              <LongitudeDegrees>2.8745778836309909820556640625</LongitudeDegrees>
            </Position>
            <AltitudeMeters>308.399993896484375</AltitudeMeters>
            <DistanceMeters>NAN</DistanceMeters>
          </Trackpoint>
          <Trackpoint>
            <Time>2020-02-15T11:22:08.000Z</Time>
            <Position>
              <LatitudeDegrees>41.98030631057918071746826171875</LatitudeDegrees>
              <LongitudeDegrees>2.87455986253917217254638671875</LongitudeDegrees>
            </Position>
            <AltitudeMeters>308.600006103515625</AltitudeMeters>
            <DistanceMeters>NAN</DistanceMeters>
          </Trackpoint>
          <Trackpoint>
            <Time>2020-02-15T11:22:09.000Z</Time>
            <Position>
              <LatitudeDegrees>41.9803139381110668182373046875</LatitudeDegrees>
              <LongitudeDegrees>2.87453924305737018585205078125</LongitudeDegrees>
            </Position>
            <AltitudeMeters>308.600006103515625</AltitudeMeters>
            <DistanceMeters>NAN</DistanceMeters>
          </Trackpoint>
          <Trackpoint>
            <Time>2020-02-15T11:22:10.000Z</Time>
            <Position>
              <LatitudeDegrees>41.9803206436336040496826171875</LatitudeDegrees>
              <LongitudeDegrees>2.87451610900461673736572265625</LongitudeDegrees>
            </Position>
            <AltitudeMeters>308.399993896484375</AltitudeMeters>
            <DistanceMeters>NAN</DistanceMeters>
          </Trackpoint>
          <Trackpoint>
            <Time>2020-02-15T11:22:11.000Z</Time>
            <Position>
              <LatitudeDegrees>41.98032525368034839630126953125</LatitudeDegrees>
              <LongitudeDegrees>2.87449129857122898101806640625</LongitudeDegrees>
            </Position>
            <AltitudeMeters>308.79998779296875</AltitudeMeters>
            <DistanceMeters>NAN</DistanceMeters>
          </Trackpoint>
          <Trackpoint>
            <Time>2020-02-15T11:22:12.000Z</Time>
            <Position>
              <LatitudeDegrees>41.980330534279346466064453125</LatitudeDegrees>
              <LongitudeDegrees>2.87446699105203151702880859375</LongitudeDegrees>
            </Position>
            <AltitudeMeters>309</AltitudeMeters>
            <DistanceMeters>NAN</DistanceMeters>
          </Trackpoint>
          <Trackpoint>
            <Time>2020-02-15T11:22:13.000Z</Time>
            <Position>
              <LatitudeDegrees>41.98033623397350311279296875</LatitudeDegrees>
              <LongitudeDegrees>2.87444251589477062225341796875</LongitudeDegrees>
            </Position>
            <AltitudeMeters>309.399993896484375</AltitudeMeters>
            <DistanceMeters>NAN</DistanceMeters>
          </Trackpoint>
          <Trackpoint>
            <Time>2020-02-15T11:22:14.000Z</Time>
            <Position>
              <LatitudeDegrees>41.9803409278392791748046875</LatitudeDegrees>
              <LongitudeDegrees>2.87441678345203399658203125</LongitudeDegrees>
            </Position>
            <AltitudeMeters>309.600006103515625</AltitudeMeters>
            <DistanceMeters>NAN</DistanceMeters>
          </Trackpoint>
          <Trackpoint>
            <Time>2020-02-15T11:22:15.000Z</Time>
            <Position>
              <LatitudeDegrees>41.980347298085689544677734375</LatitudeDegrees>
              <LongitudeDegrees>2.874390296638011932373046875</LongitudeDegrees>
            </Position>
            <AltitudeMeters>309.79998779296875</AltitudeMeters>
            <DistanceMeters>NAN</DistanceMeters>
          </Trackpoint>
          <Trackpoint>
            <Time>2020-02-15T11:22:16.000Z</Time>
            <Position>
              <LatitudeDegrees>41.98035224340856075286865234375</LatitudeDegrees>
              <LongitudeDegrees>2.874366156756877899169921875</LongitudeDegrees>
            </Position>
            <AltitudeMeters>309.79998779296875</AltitudeMeters>
            <DistanceMeters>NAN</DistanceMeters>
          </Trackpoint>
          <Trackpoint>
            <Time>2020-02-15T11:22:17.000Z</Time>
            <Position>
              <LatitudeDegrees>41.980355344712734222412109375</LatitudeDegrees>
              <LongitudeDegrees>2.87434394471347332000732421875</LongitudeDegrees>
            </Position>
            <AltitudeMeters>310</AltitudeMeters>
            <DistanceMeters>NAN</DistanceMeters>
          </Trackpoint>
          <Trackpoint>
            <Time>2020-02-15T11:22:18.000Z</Time>
            <Position>
              <LatitudeDegrees>41.980357356369495391845703125</LatitudeDegrees>
              <LongitudeDegrees>2.87432382814586162567138671875</LongitudeDegrees>
            </Position>
            <AltitudeMeters>310</AltitudeMeters>
            <DistanceMeters>NAN</DistanceMeters>
          </Trackpoint>
          <Trackpoint>
            <Time>2020-02-15T11:22:19.000Z</Time>
            <Position>
              <LatitudeDegrees>41.98035760782659053802490234375</LatitudeDegrees>
              <LongitudeDegrees>2.8743059746921062469482421875</LongitudeDegrees>
            </Position>
            <AltitudeMeters>310.20001220703125</AltitudeMeters>
            <DistanceMeters>NAN</DistanceMeters>
          </Trackpoint>
          <Trackpoint>
            <Time>2020-02-15T11:22:20.000Z</Time>
            <Position>
              <LatitudeDegrees>41.98035760782659053802490234375</LatitudeDegrees>
              <LongitudeDegrees>2.87428761832416057586669921875</LongitudeDegrees>
            </Position>
            <AltitudeMeters>310.399993896484375</AltitudeMeters>
            <DistanceMeters>NAN</DistanceMeters>
          </Trackpoint>
          <Trackpoint>
            <Time>2020-02-15T11:22:21.000Z</Time>
            <Position>
              <LatitudeDegrees>41.980358026921749114990234375</LatitudeDegrees>
              <LongitudeDegrees>2.87426657974720001220703125</LongitudeDegrees>
            </Position>
            <AltitudeMeters>310.600006103515625</AltitudeMeters>
            <DistanceMeters>NAN</DistanceMeters>
          </Trackpoint>
          <Trackpoint>
            <Time>2020-02-15T11:22:22.000Z</Time>
            <Position>
              <LatitudeDegrees>41.980360038578510284423828125</LatitudeDegrees>
              <LongitudeDegrees>2.87424512207508087158203125</LongitudeDegrees>
            </Position>
            <AltitudeMeters>310.600006103515625</AltitudeMeters>
            <DistanceMeters>NAN</DistanceMeters>
          </Trackpoint>
          <Trackpoint>
            <Time>2020-02-15T11:22:23.000Z</Time>
            <Position>
              <LatitudeDegrees>41.98035693727433681488037109375</LatitudeDegrees>
              <LongitudeDegrees>2.8742229938507080078125</LongitudeDegrees>
            </Position>
            <AltitudeMeters>310.600006103515625</AltitudeMeters>
            <DistanceMeters>NAN</DistanceMeters>
          </Trackpoint>
          <Trackpoint>
            <Time>2020-02-15T11:22:24.000Z</Time>
            <Position>
              <LatitudeDegrees>41.98035559616982936859130859375</LatitudeDegrees>
              <LongitudeDegrees>2.87420480512082576751708984375</LongitudeDegrees>
            </Position>
            <AltitudeMeters>310.79998779296875</AltitudeMeters>
            <DistanceMeters>NAN</DistanceMeters>
          </Trackpoint>
          <Trackpoint>
            <Time>2020-02-15T11:22:25.000Z</Time>
            <Position>
              <LatitudeDegrees>41.98035643436014652252197265625</LatitudeDegrees>
              <LongitudeDegrees>2.8741856105625629425048828125</LongitudeDegrees>
            </Position>
            <AltitudeMeters>311.20001220703125</AltitudeMeters>
            <DistanceMeters>NAN</DistanceMeters>
          </Trackpoint>
          <Trackpoint>
            <Time>2020-02-15T11:22:26.000Z</Time>
            <Position>
              <LatitudeDegrees>41.98035593144595623016357421875</LatitudeDegrees>
              <LongitudeDegrees>2.8741648234426975250244140625</LongitudeDegrees>
            </Position>
            <AltitudeMeters>311.399993896484375</AltitudeMeters>
            <DistanceMeters>NAN</DistanceMeters>
          </Trackpoint>
          <Trackpoint>
            <Time>2020-02-15T11:22:27.000Z</Time>
            <Position>
              <LatitudeDegrees>41.980357356369495391845703125</LatitudeDegrees>
              <LongitudeDegrees>2.874143533408641815185546875</LongitudeDegrees>
            </Position>
            <AltitudeMeters>311.399993896484375</AltitudeMeters>
            <DistanceMeters>NAN</DistanceMeters>
          </Trackpoint>
          <Trackpoint>
            <Time>2020-02-15T11:22:28.000Z</Time>
            <Position>
              <LatitudeDegrees>41.98035827837884426116943359375</LatitudeDegrees>
              <LongitudeDegrees>2.8741255961358547210693359375</LongitudeDegrees>
            </Position>
            <AltitudeMeters>311.600006103515625</AltitudeMeters>
            <DistanceMeters>NAN</DistanceMeters>
          </Trackpoint>
          <Trackpoint>
            <Time>2020-02-15T11:22:29.000Z</Time>
            <Position>
              <LatitudeDegrees>41.980362720787525177001953125</LatitudeDegrees>
              <LongitudeDegrees>2.87411243654787540435791015625</LongitudeDegrees>
            </Position>
            <AltitudeMeters>311.79998779296875</AltitudeMeters>
            <DistanceMeters>NAN</DistanceMeters>
          </Trackpoint>
          <Trackpoint>
            <Time>2020-02-15T11:22:30.000Z</Time>
            <Position>
              <LatitudeDegrees>41.9803699292242527008056640625</LatitudeDegrees>
              <LongitudeDegrees>2.8741051442921161651611328125</LongitudeDegrees>
            </Position>
            <AltitudeMeters>312</AltitudeMeters>
            <DistanceMeters>NAN</DistanceMeters>
          </Trackpoint>
          <Trackpoint>
            <Time>2020-02-15T11:22:31.000Z</Time>
            <Position>
              <LatitudeDegrees>41.980376802384853363037109375</LatitudeDegrees>
              <LongitudeDegrees>2.874103300273418426513671875</LongitudeDegrees>
            </Position>
            <AltitudeMeters>311.79998779296875</AltitudeMeters>
            <DistanceMeters>NAN</DistanceMeters>
          </Trackpoint>
          <Trackpoint>
            <Time>2020-02-15T11:22:34.000Z</Time>
            <Position>
              <LatitudeDegrees>41.980389542877674102783203125</LatitudeDegrees>
              <LongitudeDegrees>2.87410371936857700347900390625</LongitudeDegrees>
            </Position>
            <AltitudeMeters>312.399993896484375</AltitudeMeters>
            <DistanceMeters>NAN</DistanceMeters>
          </Trackpoint>
          <Trackpoint>
            <Time>2020-02-15T11:22:48.000Z</Time>
            <Position>
              <LatitudeDegrees>41.98040186427533626556396484375</LatitudeDegrees>
              <LongitudeDegrees>2.87411101162433624267578125</LongitudeDegrees>
            </Position>
            <AltitudeMeters>313.20001220703125</AltitudeMeters>
            <DistanceMeters>NAN</DistanceMeters>
          </Trackpoint>
          <Trackpoint>
            <Time>2020-02-15T11:22:51.000Z</Time>
            <Position>
              <LatitudeDegrees>41.980401612818241119384765625</LatitudeDegrees>
              <LongitudeDegrees>2.874110676348209381103515625</LongitudeDegrees>
            </Position>
            <AltitudeMeters>313.20001220703125</AltitudeMeters>
            <DistanceMeters>NAN</DistanceMeters>
          </Trackpoint>
          <Trackpoint>
            <Time>2020-02-15T11:22:55.000Z</Time>
            <Position>
              <LatitudeDegrees>41.98040169663727283477783203125</LatitudeDegrees>
              <LongitudeDegrees>2.87411042489111423492431640625</LongitudeDegrees>
            </Position>
            <AltitudeMeters>313.20001220703125</AltitudeMeters>
            <DistanceMeters>NAN</DistanceMeters>
          </Trackpoint>
          <Trackpoint>
            <Time>2020-02-15T11:22:58.000Z</Time>
            <Position>
              <LatitudeDegrees>41.98040169663727283477783203125</LatitudeDegrees>
              <LongitudeDegrees>2.87411008961498737335205078125</LongitudeDegrees>
            </Position>
            <AltitudeMeters>313.20001220703125</AltitudeMeters>
            <DistanceMeters>NAN</DistanceMeters>
          </Trackpoint>
          <Trackpoint>
            <Time>2020-02-15T11:23:02.000Z</Time>
            <Position>
              <LatitudeDegrees>41.98040152899920940399169921875</LatitudeDegrees>
              <LongitudeDegrees>2.87410975433886051177978515625</LongitudeDegrees>
            </Position>
            <AltitudeMeters>313.20001220703125</AltitudeMeters>
            <DistanceMeters>NAN</DistanceMeters>
          </Trackpoint>
          <Trackpoint>
            <Time>2020-02-15T11:23:06.000Z</Time>
            <Position>
              <LatitudeDegrees>41.98040152899920940399169921875</LatitudeDegrees>
              <LongitudeDegrees>2.87410958670079708099365234375</LongitudeDegrees>
            </Position>
            <AltitudeMeters>313</AltitudeMeters>
            <DistanceMeters>NAN</DistanceMeters>
          </Trackpoint>
          <Trackpoint>
            <Time>2020-02-15T11:23:11.000Z</Time>
            <Position>
              <LatitudeDegrees>41.980400942265987396240234375</LatitudeDegrees>
              <LongitudeDegrees>2.8741034679114818572998046875</LongitudeDegrees>
            </Position>
            <AltitudeMeters>313</AltitudeMeters>
            <DistanceMeters>NAN</DistanceMeters>
          </Trackpoint>
          <Trackpoint>
            <Time>2020-02-15T11:23:12.000Z</Time>
            <Position>
              <LatitudeDegrees>41.98039968498051166534423828125</LatitudeDegrees>
              <LongitudeDegrees>2.87409215234220027923583984375</LongitudeDegrees>
            </Position>
            <AltitudeMeters>313.20001220703125</AltitudeMeters>
            <DistanceMeters>NAN</DistanceMeters>
          </Trackpoint>
          <Trackpoint>
            <Time>2020-02-15T11:23:14.000Z</Time>
            <Position>
              <LatitudeDegrees>41.980400271713733673095703125</LatitudeDegrees>
              <LongitudeDegrees>2.87405468523502349853515625</LongitudeDegrees>
            </Position>
            <AltitudeMeters>313.20001220703125</AltitudeMeters>
            <DistanceMeters>NAN</DistanceMeters>
          </Trackpoint>
          <Trackpoint>
            <Time>2020-02-15T11:23:16.000Z</Time>
            <Position>
              <LatitudeDegrees>41.98040119372308254241943359375</LatitudeDegrees>
              <LongitudeDegrees>2.87401017732918262481689453125</LongitudeDegrees>
            </Position>
            <AltitudeMeters>313.20001220703125</AltitudeMeters>
            <DistanceMeters>NAN</DistanceMeters>
          </Trackpoint>
          <Trackpoint>
            <Time>2020-02-15T11:23:17.000Z</Time>
            <Position>
              <LatitudeDegrees>41.98040806688368320465087890625</LatitudeDegrees>
              <LongitudeDegrees>2.87398586980998516082763671875</LongitudeDegrees>
            </Position>
            <AltitudeMeters>313.20001220703125</AltitudeMeters>
            <DistanceMeters>NAN</DistanceMeters>
          </Trackpoint>
          <Trackpoint>
            <Time>2020-02-15T11:23:18.000Z</Time>
            <Position>
              <LatitudeDegrees>41.98041670024394989013671875</LatitudeDegrees>
              <LongitudeDegrees>2.87396139465272426605224609375</LongitudeDegrees>
            </Position>
            <AltitudeMeters>313.20001220703125</AltitudeMeters>
            <DistanceMeters>NAN</DistanceMeters>
          </Trackpoint>
          <Trackpoint>
            <Time>2020-02-15T11:23:20.000Z</Time>
            <Position>
              <LatitudeDegrees>41.98043120093643665313720703125</LatitudeDegrees>
              <LongitudeDegrees>2.87391294725239276885986328125</LongitudeDegrees>
            </Position>
            <AltitudeMeters>313.399993896484375</AltitudeMeters>
            <DistanceMeters>NAN</DistanceMeters>
          </Trackpoint>
          <Trackpoint>
            <Time>2020-02-15T11:23:21.000Z</Time>
            <Position>
              <LatitudeDegrees>41.98043891228735446929931640625</LatitudeDegrees>
              <LongitudeDegrees>2.873888052999973297119140625</LongitudeDegrees>
            </Position>
            <AltitudeMeters>313.399993896484375</AltitudeMeters>
            <DistanceMeters>NAN</DistanceMeters>
          </Trackpoint>
          <Trackpoint>
            <Time>2020-02-15T11:23:22.000Z</Time>
            <Position>
              <LatitudeDegrees>41.98044578544795513153076171875</LatitudeDegrees>
              <LongitudeDegrees>2.8738595545291900634765625</LongitudeDegrees>
            </Position>
            <AltitudeMeters>313.399993896484375</AltitudeMeters>
            <DistanceMeters>NAN</DistanceMeters>
          </Trackpoint>
          <Trackpoint>
            <Time>2020-02-15T11:23:23.000Z</Time>
            <Position>
              <LatitudeDegrees>41.980449222028255462646484375</LatitudeDegrees>
              <LongitudeDegrees>2.87383365444839000701904296875</LongitudeDegrees>
            </Position>
            <AltitudeMeters>313.600006103515625</AltitudeMeters>
            <DistanceMeters>NAN</DistanceMeters>
          </Trackpoint>
          <Trackpoint>
            <Time>2020-02-15T11:23:24.000Z</Time>
            <Position>
              <LatitudeDegrees>41.980454921722412109375</LatitudeDegrees>
              <LongitudeDegrees>2.8738059103488922119140625</LongitudeDegrees>
            </Position>
            <AltitudeMeters>313.79998779296875</AltitudeMeters>
            <DistanceMeters>NAN</DistanceMeters>
          </Trackpoint>
          <Trackpoint>
            <Time>2020-02-15T11:23:25.000Z</Time>
            <Position>
              <LatitudeDegrees>41.98046036995947360992431640625</LatitudeDegrees>
              <LongitudeDegrees>2.8737725503742694854736328125</LongitudeDegrees>
            </Position>
            <AltitudeMeters>313.79998779296875</AltitudeMeters>
            <DistanceMeters>NAN</DistanceMeters>
          </Trackpoint>
          <Trackpoint>
            <Time>2020-02-15T11:23:26.000Z</Time>
            <Position>
              <LatitudeDegrees>41.9804656505584716796875</LatitudeDegrees>
              <LongitudeDegrees>2.8737363405525684356689453125</LongitudeDegrees>
            </Position>
            <AltitudeMeters>313.600006103515625</AltitudeMeters>
            <DistanceMeters>NAN</DistanceMeters>
          </Trackpoint>
          <Trackpoint>
            <Time>2020-02-15T11:23:28.000Z</Time>
            <Position>
              <LatitudeDegrees>41.98048098944127559661865234375</LatitudeDegrees>
              <LongitudeDegrees>2.87367003969848155975341796875</LongitudeDegrees>
            </Position>
            <AltitudeMeters>313.79998779296875</AltitudeMeters>
            <DistanceMeters>NAN</DistanceMeters>
          </Trackpoint>
          <Trackpoint>
            <Time>2020-02-15T11:23:30.000Z</Time>
            <Position>
              <LatitudeDegrees>41.98049691505730152130126953125</LatitudeDegrees>
              <LongitudeDegrees>2.87360968999564647674560546875</LongitudeDegrees>
            </Position>
            <AltitudeMeters>314.399993896484375</AltitudeMeters>
            <DistanceMeters>NAN</DistanceMeters>
          </Trackpoint>
          <Trackpoint>
            <Time>2020-02-15T11:23:31.000Z</Time>
            <Position>
              <LatitudeDegrees>41.9805050455033779144287109375</LatitudeDegrees>
              <LongitudeDegrees>2.87357934750616550445556640625</LongitudeDegrees>
            </Position>
            <AltitudeMeters>314.20001220703125</AltitudeMeters>
            <DistanceMeters>NAN</DistanceMeters>
          </Trackpoint>
          <Trackpoint>
            <Time>2020-02-15T11:23:32.000Z</Time>
            <Position>
              <LatitudeDegrees>41.98051116429269313812255859375</LatitudeDegrees>
              <LongitudeDegrees>2.87354950793087482452392578125</LongitudeDegrees>
            </Position>
            <AltitudeMeters>314.399993896484375</AltitudeMeters>
            <DistanceMeters>NAN</DistanceMeters>
          </Trackpoint>
          <Trackpoint>
            <Time>2020-02-15T11:23:33.000Z</Time>
            <Position>
              <LatitudeDegrees>41.98051996529102325439453125</LatitudeDegrees>
              <LongitudeDegrees>2.87352117709815502166748046875</LongitudeDegrees>
            </Position>
            <AltitudeMeters>314.600006103515625</AltitudeMeters>
            <DistanceMeters>NAN</DistanceMeters>
          </Trackpoint>
          <Trackpoint>
            <Time>2020-02-15T11:23:34.000Z</Time>
            <Position>
              <LatitudeDegrees>41.980531029403209686279296875</LatitudeDegrees>
              <LongitudeDegrees>2.87349276244640350341796875</LongitudeDegrees>
            </Position>
            <AltitudeMeters>314.79998779296875</AltitudeMeters>
            <DistanceMeters>NAN</DistanceMeters>
          </Trackpoint>
          <Trackpoint>
            <Time>2020-02-15T11:23:37.000Z</Time>
            <Position>
              <LatitudeDegrees>41.9805690832436084747314453125</LatitudeDegrees>
              <LongitudeDegrees>2.87341766059398651123046875</LongitudeDegrees>
            </Position>
            <AltitudeMeters>314.79998779296875</AltitudeMeters>
            <DistanceMeters>NAN</DistanceMeters>
          </Trackpoint>
          <Trackpoint>
            <Time>2020-02-15T11:23:38.000Z</Time>
            <Position>
              <LatitudeDegrees>41.9805835001170635223388671875</LatitudeDegrees>
              <LongitudeDegrees>2.873392514884471893310546875</LongitudeDegrees>
            </Position>
            <AltitudeMeters>314.79998779296875</AltitudeMeters>
            <DistanceMeters>NAN</DistanceMeters>
          </Trackpoint>
          <Trackpoint>
            <Time>2020-02-15T11:23:40.000Z</Time>
            <Position>
              <LatitudeDegrees>41.9806126691401004791259765625</LatitudeDegrees>
              <LongitudeDegrees>2.8733460791409015655517578125</LongitudeDegrees>
            </Position>
            <AltitudeMeters>315</AltitudeMeters>
            <DistanceMeters>NAN</DistanceMeters>
          </Trackpoint>
          <Trackpoint>
            <Time>2020-02-15T11:23:41.000Z</Time>
            <Position>
              <LatitudeDegrees>41.9806225597858428955078125</LatitudeDegrees>
              <LongitudeDegrees>2.8733182512223720550537109375</LongitudeDegrees>
            </Position>
            <AltitudeMeters>315</AltitudeMeters>
            <DistanceMeters>NAN</DistanceMeters>
          </Trackpoint>
          <Trackpoint>
            <Time>2020-02-15T11:23:42.000Z</Time>
            <Position>
              <LatitudeDegrees>41.980631612241268157958984375</LatitudeDegrees>
              <LongitudeDegrees>2.87328916601836681365966796875</LongitudeDegrees>
            </Position>
            <AltitudeMeters>315</AltitudeMeters>
            <DistanceMeters>NAN</DistanceMeters>
          </Trackpoint>
          <Trackpoint>
            <Time>2020-02-15T11:23:43.000Z</Time>
            <Position>
              <LatitudeDegrees>41.98064024560153484344482421875</LatitudeDegrees>
              <LongitudeDegrees>2.87326267920434474945068359375</LongitudeDegrees>
            </Position>
            <AltitudeMeters>315.20001220703125</AltitudeMeters>
            <DistanceMeters>NAN</DistanceMeters>
          </Trackpoint>
          <Trackpoint>
            <Time>2020-02-15T11:23:44.000Z</Time>
            <Position>
              <LatitudeDegrees>41.98065013624727725982666015625</LatitudeDegrees>
              <LongitudeDegrees>2.87323501892387866973876953125</LongitudeDegrees>
            </Position>
            <AltitudeMeters>315.20001220703125</AltitudeMeters>
            <DistanceMeters>NAN</DistanceMeters>
          </Trackpoint>
          <Trackpoint>
            <Time>2020-02-15T11:23:45.000Z</Time>
            <Position>
              <LatitudeDegrees>41.98066287674009799957275390625</LatitudeDegrees>
              <LongitudeDegrees>2.87320819683372974395751953125</LongitudeDegrees>
            </Position>
            <AltitudeMeters>315.20001220703125</AltitudeMeters>
            <DistanceMeters>NAN</DistanceMeters>
          </Trackpoint>
          <Trackpoint>
            <Time>2020-02-15T11:23:46.000Z</Time>
            <Position>
              <LatitudeDegrees>41.98067494668066501617431640625</LatitudeDegrees>
              <LongitudeDegrees>2.8731848113238811492919921875</LongitudeDegrees>
            </Position>
            <AltitudeMeters>315.20001220703125</AltitudeMeters>
            <DistanceMeters>NAN</DistanceMeters>
          </Trackpoint>
          <Trackpoint>
            <Time>2020-02-15T11:23:47.000Z</Time>
            <Position>
              <LatitudeDegrees>41.98068894445896148681640625</LatitudeDegrees>
              <LongitudeDegrees>2.8731589950621128082275390625</LongitudeDegrees>
            </Position>
            <AltitudeMeters>315.20001220703125</AltitudeMeters>
            <DistanceMeters>NAN</DistanceMeters>
          </Trackpoint>
          <Trackpoint>
            <Time>2020-02-15T11:23:49.000Z</Time>
            <Position>
              <LatitudeDegrees>41.9807149283587932586669921875</LatitudeDegrees>
              <LongitudeDegrees>2.87310644052922725677490234375</LongitudeDegrees>
            </Position>
            <AltitudeMeters>315.20001220703125</AltitudeMeters>
            <DistanceMeters>NAN</DistanceMeters>
          </Trackpoint>
          <Trackpoint>
            <Time>2020-02-15T11:23:50.000Z</Time>
            <Position>
              <LatitudeDegrees>41.9807298481464385986328125</LatitudeDegrees>
              <LongitudeDegrees>2.87307727150619029998779296875</LongitudeDegrees>
            </Position>
            <AltitudeMeters>315.20001220703125</AltitudeMeters>
            <DistanceMeters>NAN</DistanceMeters>
          </Trackpoint>
          <Trackpoint>
            <Time>2020-02-15T11:23:51.000Z</Time>
            <Position>
              <LatitudeDegrees>41.9807430915534496307373046875</LatitudeDegrees>
              <LongitudeDegrees>2.87305028177797794342041015625</LongitudeDegrees>
            </Position>
            <AltitudeMeters>315.20001220703125</AltitudeMeters>
            <DistanceMeters>NAN</DistanceMeters>
          </Trackpoint>
          <Trackpoint>
            <Time>2020-02-15T11:23:54.000Z</Time>
            <Position>
              <LatitudeDegrees>41.98078743182122707366943359375</LatitudeDegrees>
              <LongitudeDegrees>2.87297517992556095123291015625</LongitudeDegrees>
            </Position>
            <AltitudeMeters>315.20001220703125</AltitudeMeters>
            <DistanceMeters>NAN</DistanceMeters>
          </Trackpoint>
          <Trackpoint>
            <Time>2020-02-15T11:23:57.000Z</Time>
            <Position>
              <LatitudeDegrees>41.9808406569063663482666015625</LatitudeDegrees>
              <LongitudeDegrees>2.87290527485311031341552734375</LongitudeDegrees>
            </Position>
            <AltitudeMeters>315</AltitudeMeters>
            <DistanceMeters>NAN</DistanceMeters>
          </Trackpoint>
          <Trackpoint>
            <Time>2020-02-15T11:23:58.000Z</Time>
            <Position>
              <LatitudeDegrees>41.9808587618172168731689453125</LatitudeDegrees>
              <LongitudeDegrees>2.87288532592356204986572265625</LongitudeDegrees>
            </Position>
            <AltitudeMeters>315</AltitudeMeters>
            <DistanceMeters>NAN</DistanceMeters>
          </Trackpoint>
          <Trackpoint>
            <Time>2020-02-15T11:23:59.000Z</Time>
            <Position>
              <LatitudeDegrees>41.98088080622255802154541015625</LatitudeDegrees>
              <LongitudeDegrees>2.87286244332790374755859375</LongitudeDegrees>
            </Position>
            <AltitudeMeters>315.20001220703125</AltitudeMeters>
            <DistanceMeters>NAN</DistanceMeters>
          </Trackpoint>
          <Trackpoint>
            <Time>2020-02-15T11:24:01.000Z</Time>
            <Position>
              <LatitudeDegrees>41.980925984680652618408203125</LatitudeDegrees>
              <LongitudeDegrees>2.8728240542113780975341796875</LongitudeDegrees>
            </Position>
            <AltitudeMeters>315.20001220703125</AltitudeMeters>
            <DistanceMeters>NAN</DistanceMeters>
          </Trackpoint>
          <Trackpoint>
            <Time>2020-02-15T11:24:02.000Z</Time>
            <Position>
              <LatitudeDegrees>41.98094643652439117431640625</LatitudeDegrees>
              <LongitudeDegrees>2.87281340919435024261474609375</LongitudeDegrees>
            </Position>
            <AltitudeMeters>315.20001220703125</AltitudeMeters>
            <DistanceMeters>NAN</DistanceMeters>
          </Trackpoint>
          <Trackpoint>
            <Time>2020-02-15T11:24:03.000Z</Time>
            <Position>
              <LatitudeDegrees>41.98096789419651031494140625</LatitudeDegrees>
              <LongitudeDegrees>2.87279882468283176422119140625</LongitudeDegrees>
            </Position>
            <AltitudeMeters>315.20001220703125</AltitudeMeters>
            <DistanceMeters>NAN</DistanceMeters>
          </Trackpoint>
          <Trackpoint>
            <Time>2020-02-15T11:24:04.000Z</Time>
            <Position>
              <LatitudeDegrees>41.9809891842305660247802734375</LatitudeDegrees>
              <LongitudeDegrees>2.872781641781330108642578125</LongitudeDegrees>
            </Position>
            <AltitudeMeters>315.399993896484375</AltitudeMeters>
            <DistanceMeters>NAN</DistanceMeters>
          </Trackpoint>
          <Trackpoint>
            <Time>2020-02-15T11:24:06.000Z</Time>
            <Position>
              <LatitudeDegrees>41.9810257293283939361572265625</LatitudeDegrees>
              <LongitudeDegrees>2.8727409057319164276123046875</LongitudeDegrees>
            </Position>
            <AltitudeMeters>315.20001220703125</AltitudeMeters>
            <DistanceMeters>NAN</DistanceMeters>
          </Trackpoint>
          <Trackpoint>
            <Time>2020-02-15T11:24:07.000Z</Time>
            <Position>
              <LatitudeDegrees>41.9810381345450878143310546875</LatitudeDegrees>
              <LongitudeDegrees>2.87271894514560699462890625</LongitudeDegrees>
            </Position>
            <AltitudeMeters>315.20001220703125</AltitudeMeters>
            <DistanceMeters>NAN</DistanceMeters>
          </Trackpoint>
          <Trackpoint>
            <Time>2020-02-15T11:24:08.000Z</Time>
            <Position>
              <LatitudeDegrees>41.98105246759951114654541015625</LatitudeDegrees>
              <LongitudeDegrees>2.872691787779331207275390625</LongitudeDegrees>
            </Position>
            <AltitudeMeters>315.399993896484375</AltitudeMeters>
            <DistanceMeters>NAN</DistanceMeters>
          </Trackpoint>
          <Trackpoint>
            <Time>2020-02-15T11:24:09.000Z</Time>
            <Position>
              <LatitudeDegrees>41.9810656271874904632568359375</LatitudeDegrees>
              <LongitudeDegrees>2.8726678155362606048583984375</LongitudeDegrees>
            </Position>
            <AltitudeMeters>315.399993896484375</AltitudeMeters>
            <DistanceMeters>NAN</DistanceMeters>
          </Trackpoint>
          <Trackpoint>
            <Time>2020-02-15T11:24:10.000Z</Time>
            <Position>
              <LatitudeDegrees>41.98107677511870861053466796875</LatitudeDegrees>
              <LongitudeDegrees>2.87264652550220489501953125</LongitudeDegrees>
            </Position>
            <AltitudeMeters>315.399993896484375</AltitudeMeters>
            <DistanceMeters>NAN</DistanceMeters>
          </Trackpoint>
          <Trackpoint>
            <Time>2020-02-15T11:24:11.000Z</Time>
            <Position>
              <LatitudeDegrees>41.98108783923089504241943359375</LatitudeDegrees>
              <LongitudeDegrees>2.8726235590875148773193359375</LongitudeDegrees>
            </Position>
            <AltitudeMeters>315.600006103515625</AltitudeMeters>
            <DistanceMeters>NAN</DistanceMeters>
          </Trackpoint>
          <Trackpoint>
            <Time>2020-02-15T11:24:12.000Z</Time>
            <Position>
              <LatitudeDegrees>41.9810984842479228973388671875</LatitudeDegrees>
              <LongitudeDegrees>2.87260520271956920623779296875</LongitudeDegrees>
            </Position>
            <AltitudeMeters>315.79998779296875</AltitudeMeters>
            <DistanceMeters>NAN</DistanceMeters>
          </Trackpoint>
          <Trackpoint>
            <Time>2020-02-15T11:24:13.000Z</Time>
            <Position>
              <LatitudeDegrees>41.98110795579850673675537109375</LatitudeDegrees>
              <LongitudeDegrees>2.87258760072290897369384765625</LongitudeDegrees>
            </Position>
            <AltitudeMeters>316</AltitudeMeters>
            <DistanceMeters>NAN</DistanceMeters>
          </Trackpoint>
          <Trackpoint>
            <Time>2020-02-15T11:24:14.000Z</Time>
            <Position>
              <LatitudeDegrees>41.98111717589199542999267578125</LatitudeDegrees>
              <LongitudeDegrees>2.87256865762174129486083984375</LongitudeDegrees>
            </Position>
            <AltitudeMeters>316</AltitudeMeters>
            <DistanceMeters>NAN</DistanceMeters>
          </Trackpoint>
          <Trackpoint>
            <Time>2020-02-15T11:24:15.000Z</Time>
            <Position>
              <LatitudeDegrees>41.98112941347062587738037109375</LatitudeDegrees>
              <LongitudeDegrees>2.87254862487316131591796875</LongitudeDegrees>
            </Position>
            <AltitudeMeters>316</AltitudeMeters>
            <DistanceMeters>NAN</DistanceMeters>
          </Trackpoint>
          <Trackpoint>
            <Time>2020-02-15T11:24:16.000Z</Time>
            <Position>
              <LatitudeDegrees>41.9811429083347320556640625</LatitudeDegrees>
              <LongitudeDegrees>2.8725266642868518829345703125</LongitudeDegrees>
            </Position>
            <AltitudeMeters>316.399993896484375</AltitudeMeters>
            <DistanceMeters>NAN</DistanceMeters>
          </Trackpoint>
          <Trackpoint>
            <Time>2020-02-15T11:24:17.000Z</Time>
            <Position>
              <LatitudeDegrees>41.98115388862788677215576171875</LatitudeDegrees>
              <LongitudeDegrees>2.87250294350087642669677734375</LongitudeDegrees>
            </Position>
            <AltitudeMeters>316.399993896484375</AltitudeMeters>
            <DistanceMeters>NAN</DistanceMeters>
          </Trackpoint>
          <Trackpoint>
            <Time>2020-02-15T11:24:18.000Z</Time>
            <Position>
              <LatitudeDegrees>41.9811635278165340423583984375</LatitudeDegrees>
              <LongitudeDegrees>2.87248559296131134033203125</LongitudeDegrees>
            </Position>
            <AltitudeMeters>316.399993896484375</AltitudeMeters>
            <DistanceMeters>NAN</DistanceMeters>
          </Trackpoint>
          <Trackpoint>
            <Time>2020-02-15T11:24:19.000Z</Time>
            <Position>
              <LatitudeDegrees>41.9811745919287204742431640625</LatitudeDegrees>
              <LongitudeDegrees>2.872470505535602569580078125</LongitudeDegrees>
            </Position>
            <AltitudeMeters>316.399993896484375</AltitudeMeters>
            <DistanceMeters>NAN</DistanceMeters>
          </Trackpoint>
          <Trackpoint>
            <Time>2020-02-15T11:24:20.000Z</Time>
            <Position>
              <LatitudeDegrees>41.98118858970701694488525390625</LatitudeDegrees>
              <LongitudeDegrees>2.8724549151957035064697265625</LongitudeDegrees>
            </Position>
            <AltitudeMeters>316.600006103515625</AltitudeMeters>
            <DistanceMeters>NAN</DistanceMeters>
          </Trackpoint>
          <Trackpoint>
            <Time>2020-02-15T11:24:21.000Z</Time>
            <Position>
              <LatitudeDegrees>41.981204934418201446533203125</LatitudeDegrees>
              <LongitudeDegrees>2.8724388219416141510009765625</LongitudeDegrees>
            </Position>
            <AltitudeMeters>317</AltitudeMeters>
            <DistanceMeters>NAN</DistanceMeters>
          </Trackpoint>
          <Trackpoint>
            <Time>2020-02-15T11:24:22.000Z</Time>
            <Position>
              <LatitudeDegrees>41.9812233746051788330078125</LatitudeDegrees>
              <LongitudeDegrees>2.87241593934595584869384765625</LongitudeDegrees>
            </Position>
            <AltitudeMeters>317.20001220703125</AltitudeMeters>
            <DistanceMeters>NAN</DistanceMeters>
          </Trackpoint>
          <Trackpoint>
            <Time>2020-02-15T11:24:23.000Z</Time>
            <Position>
              <LatitudeDegrees>41.98123921640217304229736328125</LatitudeDegrees>
              <LongitudeDegrees>2.87239129655063152313232421875</LongitudeDegrees>
            </Position>
            <AltitudeMeters>317.399993896484375</AltitudeMeters>
            <DistanceMeters>NAN</DistanceMeters>
          </Trackpoint>
          <Trackpoint>
            <Time>2020-02-15T11:24:24.000Z</Time>
            <Position>
              <LatitudeDegrees>41.98125631548464298248291015625</LatitudeDegrees>
              <LongitudeDegrees>2.8723650611937046051025390625</LongitudeDegrees>
            </Position>
            <AltitudeMeters>317.79998779296875</AltitudeMeters>
            <DistanceMeters>NAN</DistanceMeters>
          </Trackpoint>
          <Trackpoint>
            <Time>2020-02-15T11:24:26.000Z</Time>
            <Position>
              <LatitudeDegrees>41.981290765106678009033203125</LatitudeDegrees>
              <LongitudeDegrees>2.8723191283643245697021484375</LongitudeDegrees>
            </Position>
            <AltitudeMeters>317.79998779296875</AltitudeMeters>
            <DistanceMeters>NAN</DistanceMeters>
          </Trackpoint>
          <Trackpoint>
            <Time>2020-02-15T11:24:27.000Z</Time>
            <Position>
              <LatitudeDegrees>41.98130057193338871002197265625</LatitudeDegrees>
              <LongitudeDegrees>2.872292138636112213134765625</LongitudeDegrees>
            </Position>
            <AltitudeMeters>318</AltitudeMeters>
            <DistanceMeters>NAN</DistanceMeters>
          </Trackpoint>
          <Trackpoint>
            <Time>2020-02-15T11:24:28.000Z</Time>
            <Position>
              <LatitudeDegrees>41.9813087023794651031494140625</LatitudeDegrees>
              <LongitudeDegrees>2.872264645993709564208984375</LongitudeDegrees>
            </Position>
            <AltitudeMeters>318</AltitudeMeters>
            <DistanceMeters>NAN</DistanceMeters>
          </Trackpoint>
          <Trackpoint>
            <Time>2020-02-15T11:24:29.000Z</Time>
            <Position>
              <LatitudeDegrees>41.9813100434839725494384765625</LatitudeDegrees>
              <LongitudeDegrees>2.87223614752292633056640625</LongitudeDegrees>
            </Position>
            <AltitudeMeters>318</AltitudeMeters>
            <DistanceMeters>NAN</DistanceMeters>
          </Trackpoint>
          <Trackpoint>
            <Time>2020-02-15T11:24:30.000Z</Time>
            <Position>
              <LatitudeDegrees>41.9813113845884799957275390625</LatitudeDegrees>
              <LongitudeDegrees>2.87220940925180912017822265625</LongitudeDegrees>
            </Position>
            <AltitudeMeters>317.79998779296875</AltitudeMeters>
            <DistanceMeters>NAN</DistanceMeters>
          </Trackpoint>
          <Trackpoint>
            <Time>2020-02-15T11:24:31.000Z</Time>
            <Position>
              <LatitudeDegrees>41.9813140667974948883056640625</LatitudeDegrees>
              <LongitudeDegrees>2.8721836768090724945068359375</LongitudeDegrees>
            </Position>
            <AltitudeMeters>318</AltitudeMeters>
            <DistanceMeters>NAN</DistanceMeters>
          </Trackpoint>
          <Trackpoint>
            <Time>2020-02-15T11:24:32.000Z</Time>
            <Position>
              <LatitudeDegrees>41.9813197664916515350341796875</LatitudeDegrees>
              <LongitudeDegrees>2.87215626798570156097412109375</LongitudeDegrees>
            </Position>
            <AltitudeMeters>317.79998779296875</AltitudeMeters>
            <DistanceMeters>NAN</DistanceMeters>
          </Trackpoint>
          <Trackpoint>
            <Time>2020-02-15T11:24:33.000Z</Time>
            <Position>
              <LatitudeDegrees>41.98132538236677646636962890625</LatitudeDegrees>
              <LongitudeDegrees>2.87212911061942577362060546875</LongitudeDegrees>
            </Position>
            <AltitudeMeters>317.79998779296875</AltitudeMeters>
            <DistanceMeters>NAN</DistanceMeters>
          </Trackpoint>
          <Trackpoint>
            <Time>2020-02-15T11:24:34.000Z</Time>
            <Position>
              <LatitudeDegrees>41.9813351891934871673583984375</LatitudeDegrees>
              <LongitudeDegrees>2.872101701796054840087890625</LongitudeDegrees>
            </Position>
            <AltitudeMeters>317.79998779296875</AltitudeMeters>
            <DistanceMeters>NAN</DistanceMeters>
          </Trackpoint>
          <Trackpoint>
            <Time>2020-02-15T11:24:35.000Z</Time>
            <Position>
              <LatitudeDegrees>41.98134985752403736114501953125</LatitudeDegrees>
              <LongitudeDegrees>2.87207655608654022216796875</LongitudeDegrees>
            </Position>
            <AltitudeMeters>317.79998779296875</AltitudeMeters>
            <DistanceMeters>NAN</DistanceMeters>
          </Trackpoint>
          <Trackpoint>
            <Time>2020-02-15T11:24:36.000Z</Time>
            <Position>
              <LatitudeDegrees>41.9813628494739532470703125</LatitudeDegrees>
              <LongitudeDegrees>2.872048728168010711669921875</LongitudeDegrees>
            </Position>
            <AltitudeMeters>317.79998779296875</AltitudeMeters>
            <DistanceMeters>NAN</DistanceMeters>
          </Trackpoint>
          <Trackpoint>
            <Time>2020-02-15T11:24:37.000Z</Time>
            <Position>
              <LatitudeDegrees>41.9813717342913150787353515625</LatitudeDegrees>
              <LongitudeDegrees>2.87201461382210254669189453125</LongitudeDegrees>
            </Position>
            <AltitudeMeters>317.79998779296875</AltitudeMeters>
            <DistanceMeters>NAN</DistanceMeters>
          </Trackpoint>
          <Trackpoint>
            <Time>2020-02-15T11:24:38.000Z</Time>
            <Position>
              <LatitudeDegrees>41.98138405568897724151611328125</LatitudeDegrees>
              <LongitudeDegrees>2.871977984905242919921875</LongitudeDegrees>
            </Position>
            <AltitudeMeters>317.600006103515625</AltitudeMeters>
            <DistanceMeters>NAN</DistanceMeters>
          </Trackpoint>
          <Trackpoint>
            <Time>2020-02-15T11:24:39.000Z</Time>
            <Position>
              <LatitudeDegrees>41.98139780201017856597900390625</LatitudeDegrees>
              <LongitudeDegrees>2.8719429485499858856201171875</LongitudeDegrees>
            </Position>
            <AltitudeMeters>317.600006103515625</AltitudeMeters>
            <DistanceMeters>NAN</DistanceMeters>
          </Trackpoint>
          <Trackpoint>
            <Time>2020-02-15T11:24:41.000Z</Time>
            <Position>
              <LatitudeDegrees>41.981427557766437530517578125</LatitudeDegrees>
              <LongitudeDegrees>2.87187648005783557891845703125</LongitudeDegrees>
            </Position>
            <AltitudeMeters>317.600006103515625</AltitudeMeters>
            <DistanceMeters>NAN</DistanceMeters>
          </Trackpoint>
          <Trackpoint>
            <Time>2020-02-15T11:24:42.000Z</Time>
            <Position>
              <LatitudeDegrees>41.98144474066793918609619140625</LatitudeDegrees>
              <LongitudeDegrees>2.87184278480708599090576171875</LongitudeDegrees>
            </Position>
            <AltitudeMeters>317.600006103515625</AltitudeMeters>
            <DistanceMeters>NAN</DistanceMeters>
          </Trackpoint>
          <Trackpoint>
            <Time>2020-02-15T11:24:44.000Z</Time>
            <Position>
              <LatitudeDegrees>41.981480531394481658935546875</LatitudeDegrees>
              <LongitudeDegrees>2.87177614867687225341796875</LongitudeDegrees>
            </Position>
            <AltitudeMeters>317.399993896484375</AltitudeMeters>
            <DistanceMeters>NAN</DistanceMeters>
          </Trackpoint>
          <Trackpoint>
            <Time>2020-02-15T11:24:45.000Z</Time>
            <Position>
              <LatitudeDegrees>41.981498636305332183837890625</LatitudeDegrees>
              <LongitudeDegrees>2.8717464767396450042724609375</LongitudeDegrees>
            </Position>
            <AltitudeMeters>317.399993896484375</AltitudeMeters>
            <DistanceMeters>NAN</DistanceMeters>
          </Trackpoint>
          <Trackpoint>
            <Time>2020-02-15T11:24:46.000Z</Time>
            <Position>
              <LatitudeDegrees>41.98151883669197559356689453125</LatitudeDegrees>
              <LongitudeDegrees>2.8717146255075931549072265625</LongitudeDegrees>
            </Position>
            <AltitudeMeters>317.600006103515625</AltitudeMeters>
            <DistanceMeters>NAN</DistanceMeters>
          </Trackpoint>
          <Trackpoint>
            <Time>2020-02-15T11:24:48.000Z</Time>
            <Position>
              <LatitudeDegrees>41.98156963102519512176513671875</LatitudeDegrees>
              <LongitudeDegrees>2.8716547787189483642578125</LongitudeDegrees>
            </Position>
            <AltitudeMeters>317.399993896484375</AltitudeMeters>
            <DistanceMeters>NAN</DistanceMeters>
          </Trackpoint>
          <Trackpoint>
            <Time>2020-02-15T11:24:49.000Z</Time>
            <Position>
              <LatitudeDegrees>41.981601901352405548095703125</LatitudeDegrees>
              <LongitudeDegrees>2.87161680869758129119873046875</LongitudeDegrees>
            </Position>
            <AltitudeMeters>317.399993896484375</AltitudeMeters>
            <DistanceMeters>NAN</DistanceMeters>
          </Trackpoint>
          <Trackpoint>
            <Time>2020-02-15T11:24:50.000Z</Time>
            <Position>
              <LatitudeDegrees>41.98163886554539203643798828125</LatitudeDegrees>
              <LongitudeDegrees>2.8715798445045948028564453125</LongitudeDegrees>
            </Position>
            <AltitudeMeters>317.20001220703125</AltitudeMeters>
            <DistanceMeters>NAN</DistanceMeters>
          </Trackpoint>
          <Trackpoint>
            <Time>2020-02-15T11:24:51.000Z</Time>
            <Position>
              <LatitudeDegrees>41.9816778413951396942138671875</LatitudeDegrees>
              <LongitudeDegrees>2.87154204212129116058349609375</LongitudeDegrees>
            </Position>
            <AltitudeMeters>317.20001220703125</AltitudeMeters>
            <DistanceMeters>NAN</DistanceMeters>
          </Trackpoint>
          <Trackpoint>
            <Time>2020-02-15T11:24:52.000Z</Time>
            <Position>
              <LatitudeDegrees>41.981718577444553375244140625</LatitudeDegrees>
              <LongitudeDegrees>2.871499545872211456298828125</LongitudeDegrees>
            </Position>
            <AltitudeMeters>317</AltitudeMeters>
            <DistanceMeters>NAN</DistanceMeters>
          </Trackpoint>
          <Trackpoint>
            <Time>2020-02-15T11:24:53.000Z</Time>
            <Position>
              <LatitudeDegrees>41.98176844976842403411865234375</LatitudeDegrees>
              <LongitudeDegrees>2.87145964801311492919921875</LongitudeDegrees>
            </Position>
            <AltitudeMeters>317.20001220703125</AltitudeMeters>
            <DistanceMeters>NAN</DistanceMeters>
          </Trackpoint>
          <Trackpoint>
            <Time>2020-02-15T11:24:54.000Z</Time>
            <Position>
              <LatitudeDegrees>41.98181589134037494659423828125</LatitudeDegrees>
              <LongitudeDegrees>2.871427126228809356689453125</LongitudeDegrees>
            </Position>
            <AltitudeMeters>317</AltitudeMeters>
            <DistanceMeters>NAN</DistanceMeters>
          </Trackpoint>
          <Trackpoint>
            <Time>2020-02-15T11:24:57.000Z</Time>
            <Position>
              <LatitudeDegrees>41.98196508921682834625244140625</LatitudeDegrees>
              <LongitudeDegrees>2.87133132107555866241455078125</LongitudeDegrees>
            </Position>
            <AltitudeMeters>316.600006103515625</AltitudeMeters>
            <DistanceMeters>NAN</DistanceMeters>
          </Trackpoint>
          <Trackpoint>
            <Time>2020-02-15T11:24:58.000Z</Time>
            <Position>
              <LatitudeDegrees>41.98201521299779415130615234375</LatitudeDegrees>
              <LongitudeDegrees>2.87129125557839870452880859375</LongitudeDegrees>
            </Position>
            <AltitudeMeters>316.399993896484375</AltitudeMeters>
            <DistanceMeters>NAN</DistanceMeters>
          </Trackpoint>
          <Trackpoint>
            <Time>2020-02-15T11:25:00.000Z</Time>
            <Position>
              <LatitudeDegrees>41.98211965151131153106689453125</LatitudeDegrees>
              <LongitudeDegrees>2.8712137229740619659423828125</LongitudeDegrees>
            </Position>
            <AltitudeMeters>316</AltitudeMeters>
            <DistanceMeters>NAN</DistanceMeters>
          </Trackpoint>
          <Trackpoint>
            <Time>2020-02-15T11:25:01.000Z</Time>
            <Position>
              <LatitudeDegrees>41.9821683503687381744384765625</LatitudeDegrees>
              <LongitudeDegrees>2.87117541767656803131103515625</LongitudeDegrees>
            </Position>
            <AltitudeMeters>315.79998779296875</AltitudeMeters>
            <DistanceMeters>NAN</DistanceMeters>
          </Trackpoint>
          <Trackpoint>
            <Time>2020-02-15T11:25:02.000Z</Time>
            <Position>
              <LatitudeDegrees>41.982216797769069671630859375</LatitudeDegrees>
              <LongitudeDegrees>2.87113769911229610443115234375</LongitudeDegrees>
            </Position>
            <AltitudeMeters>315.600006103515625</AltitudeMeters>
            <DistanceMeters>NAN</DistanceMeters>
          </Trackpoint>
          <Trackpoint>
            <Time>2020-02-15T11:25:03.000Z</Time>
            <Position>
              <LatitudeDegrees>41.98226398788392543792724609375</LatitudeDegrees>
              <LongitudeDegrees>2.87110266275703907012939453125</LongitudeDegrees>
            </Position>
            <AltitudeMeters>315.399993896484375</AltitudeMeters>
            <DistanceMeters>NAN</DistanceMeters>
          </Trackpoint>
          <Trackpoint>
            <Time>2020-02-15T11:25:04.000Z</Time>
            <Position>
              <LatitudeDegrees>41.982310675084590911865234375</LatitudeDegrees>
              <LongitudeDegrees>2.8710700571537017822265625</LongitudeDegrees>
            </Position>
            <AltitudeMeters>315.399993896484375</AltitudeMeters>
            <DistanceMeters>NAN</DistanceMeters>
          </Trackpoint>
          <Trackpoint>
            <Time>2020-02-15T11:25:05.000Z</Time>
            <Position>
              <LatitudeDegrees>41.9823552668094635009765625</LatitudeDegrees>
              <LongitudeDegrees>2.87103812210261821746826171875</LongitudeDegrees>
            </Position>
            <AltitudeMeters>315.20001220703125</AltitudeMeters>
            <DistanceMeters>NAN</DistanceMeters>
          </Trackpoint>
          <Trackpoint>
            <Time>2020-02-15T11:25:06.000Z</Time>
            <Position>
              <LatitudeDegrees>41.982394494116306304931640625</LatitudeDegrees>
              <LongitudeDegrees>2.8710051812231540679931640625</LongitudeDegrees>
            </Position>
            <AltitudeMeters>315</AltitudeMeters>
            <DistanceMeters>NAN</DistanceMeters>
          </Trackpoint>
          <Trackpoint>
            <Time>2020-02-15T11:25:07.000Z</Time>
            <Position>
              <LatitudeDegrees>41.98242701590061187744140625</LatitudeDegrees>
              <LongitudeDegrees>2.87097441963851451873779296875</LongitudeDegrees>
            </Position>
            <AltitudeMeters>314.79998779296875</AltitudeMeters>
            <DistanceMeters>NAN</DistanceMeters>
          </Trackpoint>
          <Trackpoint>
            <Time>2020-02-15T11:25:08.000Z</Time>
            <Position>
              <LatitudeDegrees>41.98245543055236339569091796875</LatitudeDegrees>
              <LongitudeDegrees>2.87094533443450927734375</LongitudeDegrees>
            </Position>
            <AltitudeMeters>314.79998779296875</AltitudeMeters>
            <DistanceMeters>NAN</DistanceMeters>
          </Trackpoint>
          <Trackpoint>
            <Time>2020-02-15T11:25:09.000Z</Time>
            <Position>
              <LatitudeDegrees>41.9824774749577045440673828125</LatitudeDegrees>
              <LongitudeDegrees>2.87091507576406002044677734375</LongitudeDegrees>
            </Position>
            <AltitudeMeters>314.600006103515625</AltitudeMeters>
            <DistanceMeters>NAN</DistanceMeters>
          </Trackpoint>
          <Trackpoint>
            <Time>2020-02-15T11:25:10.000Z</Time>
            <Position>
              <LatitudeDegrees>41.9824955798685550689697265625</LatitudeDegrees>
              <LongitudeDegrees>2.8708821348845958709716796875</LongitudeDegrees>
            </Position>
            <AltitudeMeters>314.600006103515625</AltitudeMeters>
            <DistanceMeters>NAN</DistanceMeters>
          </Trackpoint>
          <Trackpoint>
            <Time>2020-02-15T11:25:11.000Z</Time>
            <Position>
              <LatitudeDegrees>41.98251058347523212432861328125</LatitudeDegrees>
              <LongitudeDegrees>2.870845086872577667236328125</LongitudeDegrees>
            </Position>
            <AltitudeMeters>314.600006103515625</AltitudeMeters>
            <DistanceMeters>NAN</DistanceMeters>
          </Trackpoint>
          <Trackpoint>
            <Time>2020-02-15T11:25:12.000Z</Time>
            <Position>
              <LatitudeDegrees>41.982520557940006256103515625</LatitudeDegrees>
              <LongitudeDegrees>2.8708036802709102630615234375</LongitudeDegrees>
            </Position>
            <AltitudeMeters>314.600006103515625</AltitudeMeters>
            <DistanceMeters>NAN</DistanceMeters>
          </Trackpoint>
          <Trackpoint>
            <Time>2020-02-15T11:25:13.000Z</Time>
            <Position>
              <LatitudeDegrees>41.98252432979643344879150390625</LatitudeDegrees>
              <LongitudeDegrees>2.8707637824118137359619140625</LongitudeDegrees>
            </Position>
            <AltitudeMeters>314.600006103515625</AltitudeMeters>
            <DistanceMeters>NAN</DistanceMeters>
          </Trackpoint>
          <Trackpoint>
            <Time>2020-02-15T11:25:14.000Z</Time>
            <Position>
              <LatitudeDegrees>41.9825264252722263336181640625</LatitudeDegrees>
              <LongitudeDegrees>2.8707248903810977935791015625</LongitudeDegrees>
            </Position>
            <AltitudeMeters>314.600006103515625</AltitudeMeters>
            <DistanceMeters>NAN</DistanceMeters>
          </Trackpoint>
          <Trackpoint>
            <Time>2020-02-15T11:25:15.000Z</Time>
            <Position>
              <LatitudeDegrees>41.98252818547189235687255859375</LatitudeDegrees>
              <LongitudeDegrees>2.87068490870296955108642578125</LongitudeDegrees>
            </Position>
            <AltitudeMeters>314.600006103515625</AltitudeMeters>
            <DistanceMeters>NAN</DistanceMeters>
          </Trackpoint>
          <Trackpoint>
            <Time>2020-02-15T11:25:16.000Z</Time>
            <Position>
              <LatitudeDegrees>41.98252852074801921844482421875</LatitudeDegrees>
              <LongitudeDegrees>2.87064467556774616241455078125</LongitudeDegrees>
            </Position>
            <AltitudeMeters>314.79998779296875</AltitudeMeters>
            <DistanceMeters>NAN</DistanceMeters>
          </Trackpoint>
          <Trackpoint>
            <Time>2020-02-15T11:25:17.000Z</Time>
            <Position>
              <LatitudeDegrees>41.98252835310995578765869140625</LatitudeDegrees>
              <LongitudeDegrees>2.87060410715639591217041015625</LongitudeDegrees>
            </Position>
            <AltitudeMeters>314.600006103515625</AltitudeMeters>
            <DistanceMeters>NAN</DistanceMeters>
          </Trackpoint>
          <Trackpoint>
            <Time>2020-02-15T11:25:18.000Z</Time>
            <Position>
              <LatitudeDegrees>41.98253086768090724945068359375</LatitudeDegrees>
              <LongitudeDegrees>2.8705646283924579620361328125</LongitudeDegrees>
            </Position>
            <AltitudeMeters>314.600006103515625</AltitudeMeters>
            <DistanceMeters>NAN</DistanceMeters>
          </Trackpoint>
          <Trackpoint>
            <Time>2020-02-15T11:25:19.000Z</Time>
            <Position>
              <LatitudeDegrees>41.9825322926044464111328125</LatitudeDegrees>
              <LongitudeDegrees>2.87052699364721775054931640625</LongitudeDegrees>
            </Position>
            <AltitudeMeters>314.79998779296875</AltitudeMeters>
            <DistanceMeters>NAN</DistanceMeters>
          </Trackpoint>
          <Trackpoint>
            <Time>2020-02-15T11:25:20.000Z</Time>
            <Position>
              <LatitudeDegrees>41.9825324602425098419189453125</LatitudeDegrees>
              <LongitudeDegrees>2.87048961035907268524169921875</LongitudeDegrees>
            </Position>
            <AltitudeMeters>315</AltitudeMeters>
            <DistanceMeters>NAN</DistanceMeters>
          </Trackpoint>
          <Trackpoint>
            <Time>2020-02-15T11:25:21.000Z</Time>
            <Position>
              <LatitudeDegrees>41.98253430426120758056640625</LatitudeDegrees>
              <LongitudeDegrees>2.8704516403377056121826171875</LongitudeDegrees>
            </Position>
            <AltitudeMeters>315.20001220703125</AltitudeMeters>
            <DistanceMeters>NAN</DistanceMeters>
          </Trackpoint>
          <Trackpoint>
            <Time>2020-02-15T11:25:22.000Z</Time>
            <Position>
              <LatitudeDegrees>41.9825381599366664886474609375</LatitudeDegrees>
              <LongitudeDegrees>2.87040956318378448486328125</LongitudeDegrees>
            </Position>
            <AltitudeMeters>315.20001220703125</AltitudeMeters>
            <DistanceMeters>NAN</DistanceMeters>
          </Trackpoint>
          <Trackpoint>
            <Time>2020-02-15T11:25:23.000Z</Time>
            <Position>
              <LatitudeDegrees>41.9825465418398380279541015625</LatitudeDegrees>
              <LongitudeDegrees>2.8703661449253559112548828125</LongitudeDegrees>
            </Position>
            <AltitudeMeters>315.20001220703125</AltitudeMeters>
            <DistanceMeters>NAN</DistanceMeters>
          </Trackpoint>
          <Trackpoint>
            <Time>2020-02-15T11:25:24.000Z</Time>
            <Position>
              <LatitudeDegrees>41.9825562648475170135498046875</LatitudeDegrees>
              <LongitudeDegrees>2.87032331340014934539794921875</LongitudeDegrees>
            </Position>
            <AltitudeMeters>315.399993896484375</AltitudeMeters>
            <DistanceMeters>NAN</DistanceMeters>
          </Trackpoint>
          <Trackpoint>
            <Time>2020-02-15T11:25:25.000Z</Time>
            <Position>
              <LatitudeDegrees>41.9825700111687183380126953125</LatitudeDegrees>
              <LongitudeDegrees>2.87027813494205474853515625</LongitudeDegrees>
            </Position>
            <AltitudeMeters>315.600006103515625</AltitudeMeters>
            <DistanceMeters>NAN</DistanceMeters>
          </Trackpoint>
          <Trackpoint>
            <Time>2020-02-15T11:25:26.000Z</Time>
            <Position>
              <LatitudeDegrees>41.982585601508617401123046875</LatitudeDegrees>
              <LongitudeDegrees>2.8702380694448947906494140625</LongitudeDegrees>
            </Position>
            <AltitudeMeters>315.79998779296875</AltitudeMeters>
            <DistanceMeters>NAN</DistanceMeters>
          </Trackpoint>
          <Trackpoint>
            <Time>2020-02-15T11:25:27.000Z</Time>
            <Position>
              <LatitudeDegrees>41.9826068915426731109619140625</LatitudeDegrees>
              <LongitudeDegrees>2.8702010214328765869140625</LongitudeDegrees>
            </Position>
            <AltitudeMeters>316</AltitudeMeters>
            <DistanceMeters>NAN</DistanceMeters>
          </Trackpoint>
          <Trackpoint>
            <Time>2020-02-15T11:25:28.000Z</Time>
            <Position>
              <LatitudeDegrees>41.9826306961476802825927734375</LatitudeDegrees>
              <LongitudeDegrees>2.87016707472503185272216796875</LongitudeDegrees>
            </Position>
            <AltitudeMeters>316</AltitudeMeters>
            <DistanceMeters>NAN</DistanceMeters>
          </Trackpoint>
          <Trackpoint>
            <Time>2020-02-15T11:25:30.000Z</Time>
            <Position>
              <LatitudeDegrees>41.98267805390059947967529296875</LatitudeDegrees>
              <LongitudeDegrees>2.8701039589941501617431640625</LongitudeDegrees>
            </Position>
            <AltitudeMeters>316.399993896484375</AltitudeMeters>
            <DistanceMeters>NAN</DistanceMeters>
          </Trackpoint>
          <Trackpoint>
            <Time>2020-02-15T11:25:33.000Z</Time>
            <Position>
              <LatitudeDegrees>41.98274142108857631683349609375</LatitudeDegrees>
              <LongitudeDegrees>2.87000765092670917510986328125</LongitudeDegrees>
            </Position>
            <AltitudeMeters>316.399993896484375</AltitudeMeters>
            <DistanceMeters>NAN</DistanceMeters>
          </Trackpoint>
          <Trackpoint>
            <Time>2020-02-15T11:25:34.000Z</Time>
            <Position>
              <LatitudeDegrees>41.9827574305236339569091796875</LatitudeDegrees>
              <LongitudeDegrees>2.8699735365808010101318359375</LongitudeDegrees>
            </Position>
            <AltitudeMeters>316.399993896484375</AltitudeMeters>
            <DistanceMeters>NAN</DistanceMeters>
          </Trackpoint>
          <Trackpoint>
            <Time>2020-02-15T11:25:35.000Z</Time>
            <Position>
              <LatitudeDegrees>41.9827698357403278350830078125</LatitudeDegrees>
              <LongitudeDegrees>2.869936488568782806396484375</LongitudeDegrees>
            </Position>
            <AltitudeMeters>316.399993896484375</AltitudeMeters>
            <DistanceMeters>NAN</DistanceMeters>
          </Trackpoint>
          <Trackpoint>
            <Time>2020-02-15T11:25:36.000Z</Time>
            <Position>
              <LatitudeDegrees>41.98278031311929225921630859375</LatitudeDegrees>
              <LongitudeDegrees>2.86989801563322544097900390625</LongitudeDegrees>
            </Position>
            <AltitudeMeters>316.600006103515625</AltitudeMeters>
            <DistanceMeters>NAN</DistanceMeters>
          </Trackpoint>
          <Trackpoint>
            <Time>2020-02-15T11:25:37.000Z</Time>
            <Position>
              <LatitudeDegrees>41.98278953321278095245361328125</LatitudeDegrees>
              <LongitudeDegrees>2.869859375059604644775390625</LongitudeDegrees>
            </Position>
            <AltitudeMeters>316.600006103515625</AltitudeMeters>
            <DistanceMeters>NAN</DistanceMeters>
          </Trackpoint>
          <Trackpoint>
            <Time>2020-02-15T11:25:39.000Z</Time>
            <Position>
              <LatitudeDegrees>41.98279540054500102996826171875</LatitudeDegrees>
              <LongitudeDegrees>2.86978460848331451416015625</LongitudeDegrees>
            </Position>
            <AltitudeMeters>316.600006103515625</AltitudeMeters>
            <DistanceMeters>NAN</DistanceMeters>
          </Trackpoint>
          <Trackpoint>
            <Time>2020-02-15T11:25:40.000Z</Time>
            <Position>
              <LatitudeDegrees>41.9827936403453350067138671875</LatitudeDegrees>
              <LongitudeDegrees>2.869746051728725433349609375</LongitudeDegrees>
            </Position>
            <AltitudeMeters>316.79998779296875</AltitudeMeters>
            <DistanceMeters>NAN</DistanceMeters>
          </Trackpoint>
          <Trackpoint>
            <Time>2020-02-15T11:25:41.000Z</Time>
            <Position>
              <LatitudeDegrees>41.98278777301311492919921875</LatitudeDegrees>
              <LongitudeDegrees>2.86970523186028003692626953125</LongitudeDegrees>
            </Position>
            <AltitudeMeters>316.79998779296875</AltitudeMeters>
            <DistanceMeters>NAN</DistanceMeters>
          </Trackpoint>
          <Trackpoint>
            <Time>2020-02-15T11:25:42.000Z</Time>
            <Position>
              <LatitudeDegrees>41.982782743871212005615234375</LatitudeDegrees>
              <LongitudeDegrees>2.86966390907764434814453125</LongitudeDegrees>
            </Position>
            <AltitudeMeters>316.79998779296875</AltitudeMeters>
            <DistanceMeters>NAN</DistanceMeters>
          </Trackpoint>
          <Trackpoint>
            <Time>2020-02-15T11:25:44.000Z</Time>
            <Position>
              <LatitudeDegrees>41.98276572860777378082275390625</LatitudeDegrees>
              <LongitudeDegrees>2.86957782693207263946533203125</LongitudeDegrees>
            </Position>
            <AltitudeMeters>316.79998779296875</AltitudeMeters>
            <DistanceMeters>NAN</DistanceMeters>
          </Trackpoint>
          <Trackpoint>
            <Time>2020-02-15T11:25:45.000Z</Time>
            <Position>
              <LatitudeDegrees>41.982758939266204833984375</LatitudeDegrees>
              <LongitudeDegrees>2.86953742615878582000732421875</LongitudeDegrees>
            </Position>
            <AltitudeMeters>317</AltitudeMeters>
            <DistanceMeters>NAN</DistanceMeters>
          </Trackpoint>
          <Trackpoint>
            <Time>2020-02-15T11:25:46.000Z</Time>
            <Position>
              <LatitudeDegrees>41.9827544130384922027587890625</LatitudeDegrees>
              <LongitudeDegrees>2.8694981150329113006591796875</LongitudeDegrees>
            </Position>
            <AltitudeMeters>316.79998779296875</AltitudeMeters>
            <DistanceMeters>NAN</DistanceMeters>
          </Trackpoint>
          <Trackpoint>
            <Time>2020-02-15T11:25:47.000Z</Time>
            <Position>
              <LatitudeDegrees>41.98275080882012844085693359375</LatitudeDegrees>
              <LongitudeDegrees>2.86946006119251251220703125</LongitudeDegrees>
            </Position>
            <AltitudeMeters>316.79998779296875</AltitudeMeters>
            <DistanceMeters>NAN</DistanceMeters>
          </Trackpoint>
          <Trackpoint>
            <Time>2020-02-15T11:25:48.000Z</Time>
            <Position>
              <LatitudeDegrees>41.98274678550660610198974609375</LatitudeDegrees>
              <LongitudeDegrees>2.8694243542850017547607421875</LongitudeDegrees>
            </Position>
            <AltitudeMeters>316.79998779296875</AltitudeMeters>
            <DistanceMeters>NAN</DistanceMeters>
          </Trackpoint>
          <Trackpoint>
            <Time>2020-02-15T11:25:49.000Z</Time>
            <Position>
              <LatitudeDegrees>41.9827456958591938018798828125</LatitudeDegrees>
              <LongitudeDegrees>2.86938822828233242034912109375</LongitudeDegrees>
            </Position>
            <AltitudeMeters>316.79998779296875</AltitudeMeters>
            <DistanceMeters>NAN</DistanceMeters>
          </Trackpoint>
          <Trackpoint>
            <Time>2020-02-15T11:25:50.000Z</Time>
            <Position>
              <LatitudeDegrees>41.982745863497257232666015625</LatitudeDegrees>
              <LongitudeDegrees>2.86935118027031421661376953125</LongitudeDegrees>
            </Position>
            <AltitudeMeters>316.79998779296875</AltitudeMeters>
            <DistanceMeters>NAN</DistanceMeters>
          </Trackpoint>
          <Trackpoint>
            <Time>2020-02-15T11:25:52.000Z</Time>
            <Position>
              <LatitudeDegrees>41.982741840183734893798828125</LatitudeDegrees>
              <LongitudeDegrees>2.86927775479853153228759765625</LongitudeDegrees>
            </Position>
            <AltitudeMeters>316.79998779296875</AltitudeMeters>
            <DistanceMeters>NAN</DistanceMeters>
          </Trackpoint>
          <Trackpoint>
            <Time>2020-02-15T11:25:53.000Z</Time>
            <Position>
              <LatitudeDegrees>41.982739157974720001220703125</LatitudeDegrees>
              <LongitudeDegrees>2.8692372702062129974365234375</LongitudeDegrees>
            </Position>
            <AltitudeMeters>317</AltitudeMeters>
            <DistanceMeters>NAN</DistanceMeters>
          </Trackpoint>
          <Trackpoint>
            <Time>2020-02-15T11:25:54.000Z</Time>
            <Position>
              <LatitudeDegrees>41.982738487422466278076171875</LatitudeDegrees>
              <LongitudeDegrees>2.86919586360454559326171875</LongitudeDegrees>
            </Position>
            <AltitudeMeters>317</AltitudeMeters>
            <DistanceMeters>NAN</DistanceMeters>
          </Trackpoint>
          <Trackpoint>
            <Time>2020-02-15T11:25:56.000Z</Time>
            <Position>
              <LatitudeDegrees>41.98272901587188243865966796875</LatitudeDegrees>
              <LongitudeDegrees>2.86911028437316417694091796875</LongitudeDegrees>
            </Position>
            <AltitudeMeters>317</AltitudeMeters>
            <DistanceMeters>NAN</DistanceMeters>
          </Trackpoint>
          <Trackpoint>
            <Time>2020-02-15T11:25:57.000Z</Time>
            <Position>
              <LatitudeDegrees>41.98271761648356914520263671875</LatitudeDegrees>
              <LongitudeDegrees>2.86907114088535308837890625</LongitudeDegrees>
            </Position>
            <AltitudeMeters>317</AltitudeMeters>
            <DistanceMeters>NAN</DistanceMeters>
          </Trackpoint>
          <Trackpoint>
            <Time>2020-02-15T11:25:58.000Z</Time>
            <Position>
              <LatitudeDegrees>41.9827066361904144287109375</LatitudeDegrees>
              <LongitudeDegrees>2.86903484724462032318115234375</LongitudeDegrees>
            </Position>
            <AltitudeMeters>317</AltitudeMeters>
            <DistanceMeters>NAN</DistanceMeters>
          </Trackpoint>
          <Trackpoint>
            <Time>2020-02-15T11:25:59.000Z</Time>
            <Position>
              <LatitudeDegrees>41.98269397951662540435791015625</LatitudeDegrees>
              <LongitudeDegrees>2.86900685168802738189697265625</LongitudeDegrees>
            </Position>
            <AltitudeMeters>317</AltitudeMeters>
            <DistanceMeters>NAN</DistanceMeters>
          </Trackpoint>
          <Trackpoint>
            <Time>2020-02-15T11:26:00.000Z</Time>
            <Position>
              <LatitudeDegrees>41.98267017491161823272705078125</LatitudeDegrees>
              <LongitudeDegrees>2.8689832985401153564453125</LongitudeDegrees>
            </Position>
            <AltitudeMeters>317</AltitudeMeters>
            <DistanceMeters>NAN</DistanceMeters>
          </Trackpoint>
          <Trackpoint>
            <Time>2020-02-15T11:26:01.000Z</Time>
            <Position>
              <LatitudeDegrees>41.98263932950794696807861328125</LatitudeDegrees>
              <LongitudeDegrees>2.86896779201924800872802734375</LongitudeDegrees>
            </Position>
            <AltitudeMeters>316.79998779296875</AltitudeMeters>
            <DistanceMeters>NAN</DistanceMeters>
          </Trackpoint>
          <Trackpoint>
            <Time>2020-02-15T11:26:02.000Z</Time>
            <Position>
              <LatitudeDegrees>41.9826058857142925262451171875</LatitudeDegrees>
              <LongitudeDegrees>2.8689583204686641693115234375</LongitudeDegrees>
            </Position>
            <AltitudeMeters>316.79998779296875</AltitudeMeters>
            <DistanceMeters>NAN</DistanceMeters>
          </Trackpoint>
          <Trackpoint>
            <Time>2020-02-15T11:26:03.000Z</Time>
            <Position>
              <LatitudeDegrees>41.98256724514067173004150390625</LatitudeDegrees>
              <LongitudeDegrees>2.8689511120319366455078125</LongitudeDegrees>
            </Position>
            <AltitudeMeters>317</AltitudeMeters>
            <DistanceMeters>NAN</DistanceMeters>
          </Trackpoint>
          <Trackpoint>
            <Time>2020-02-15T11:26:05.000Z</Time>
            <Position>
              <LatitudeDegrees>41.98249298147857189178466796875</LatitudeDegrees>
              <LongitudeDegrees>2.86895622499287128448486328125</LongitudeDegrees>
            </Position>
            <AltitudeMeters>316.79998779296875</AltitudeMeters>
            <DistanceMeters>NAN</DistanceMeters>
          </Trackpoint>
          <Trackpoint>
            <Time>2020-02-15T11:26:06.000Z</Time>
            <Position>
              <LatitudeDegrees>41.9824586994946002960205078125</LatitudeDegrees>
              <LongitudeDegrees>2.86896427161991596221923828125</LongitudeDegrees>
            </Position>
            <AltitudeMeters>316.79998779296875</AltitudeMeters>
            <DistanceMeters>NAN</DistanceMeters>
          </Trackpoint>
          <Trackpoint>
            <Time>2020-02-15T11:26:07.000Z</Time>
            <Position>
              <LatitudeDegrees>41.98242827318608760833740234375</LatitudeDegrees>
              <LongitudeDegrees>2.8689791075885295867919921875</LongitudeDegrees>
            </Position>
            <AltitudeMeters>316.79998779296875</AltitudeMeters>
            <DistanceMeters>NAN</DistanceMeters>
          </Trackpoint>
          <Trackpoint>
            <Time>2020-02-15T11:26:08.000Z</Time>
            <Position>
              <LatitudeDegrees>41.982399858534336090087890625</LatitudeDegrees>
              <LongitudeDegrees>2.86899729631841182708740234375</LongitudeDegrees>
            </Position>
            <AltitudeMeters>316.79998779296875</AltitudeMeters>
            <DistanceMeters>NAN</DistanceMeters>
          </Trackpoint>
          <Trackpoint>
            <Time>2020-02-15T11:26:09.000Z</Time>
            <Position>
              <LatitudeDegrees>41.98237177915871143341064453125</LatitudeDegrees>
              <LongitudeDegrees>2.86901657469570636749267578125</LongitudeDegrees>
            </Position>
            <AltitudeMeters>316.79998779296875</AltitudeMeters>
            <DistanceMeters>NAN</DistanceMeters>
          </Trackpoint>
          <Trackpoint>
            <Time>2020-02-15T11:26:10.000Z</Time>
            <Position>
              <LatitudeDegrees>41.98234730400145053863525390625</LatitudeDegrees>
              <LongitudeDegrees>2.86904004402458667755126953125</LongitudeDegrees>
            </Position>
            <AltitudeMeters>317</AltitudeMeters>
            <DistanceMeters>NAN</DistanceMeters>
          </Trackpoint>
          <Trackpoint>
            <Time>2020-02-15T11:26:11.000Z</Time>
            <Position>
              <LatitudeDegrees>41.98232383467257022857666015625</LatitudeDegrees>
              <LongitudeDegrees>2.869064100086688995361328125</LongitudeDegrees>
            </Position>
            <AltitudeMeters>316.79998779296875</AltitudeMeters>
            <DistanceMeters>NAN</DistanceMeters>
          </Trackpoint>
          <Trackpoint>
            <Time>2020-02-15T11:26:12.000Z</Time>
            <Position>
              <LatitudeDegrees>41.9823007844388484954833984375</LatitudeDegrees>
              <LongitudeDegrees>2.8690874017775058746337890625</LongitudeDegrees>
            </Position>
            <AltitudeMeters>316.79998779296875</AltitudeMeters>
            <DistanceMeters>NAN</DistanceMeters>
          </Trackpoint>
          <Trackpoint>
            <Time>2020-02-15T11:26:13.000Z</Time>
            <Position>
              <LatitudeDegrees>41.98227521963417530059814453125</LatitudeDegrees>
              <LongitudeDegrees>2.8691066801548004150390625</LongitudeDegrees>
            </Position>
            <AltitudeMeters>316.79998779296875</AltitudeMeters>
            <DistanceMeters>NAN</DistanceMeters>
          </Trackpoint>
          <Trackpoint>
            <Time>2020-02-15T11:26:14.000Z</Time>
            <Position>
              <LatitudeDegrees>41.98225024156272411346435546875</LatitudeDegrees>
              <LongitudeDegrees>2.86912604235112667083740234375</LongitudeDegrees>
            </Position>
            <AltitudeMeters>316.79998779296875</AltitudeMeters>
            <DistanceMeters>NAN</DistanceMeters>
          </Trackpoint>
          <Trackpoint>
            <Time>2020-02-15T11:26:15.000Z</Time>
            <Position>
              <LatitudeDegrees>41.982227526605129241943359375</LatitudeDegrees>
              <LongitudeDegrees>2.8691457398235797882080078125</LongitudeDegrees>
            </Position>
            <AltitudeMeters>316.79998779296875</AltitudeMeters>
            <DistanceMeters>NAN</DistanceMeters>
          </Trackpoint>
          <Trackpoint>
            <Time>2020-02-15T11:26:16.000Z</Time>
            <Position>
              <LatitudeDegrees>41.982203386723995208740234375</LatitudeDegrees>
              <LongitudeDegrees>2.8691611625254154205322265625</LongitudeDegrees>
            </Position>
            <AltitudeMeters>317</AltitudeMeters>
            <DistanceMeters>NAN</DistanceMeters>
          </Trackpoint>
          <Trackpoint>
            <Time>2020-02-15T11:26:17.000Z</Time>
            <Position>
              <LatitudeDegrees>41.98217614553868770599365234375</LatitudeDegrees>
              <LongitudeDegrees>2.8691765852272510528564453125</LongitudeDegrees>
            </Position>
            <AltitudeMeters>316.79998779296875</AltitudeMeters>
            <DistanceMeters>NAN</DistanceMeters>
          </Trackpoint>
          <Trackpoint>
            <Time>2020-02-15T11:26:18.000Z</Time>
            <Position>
              <LatitudeDegrees>41.98214898817241191864013671875</LatitudeDegrees>
              <LongitudeDegrees>2.86919125355780124664306640625</LongitudeDegrees>
            </Position>
            <AltitudeMeters>317</AltitudeMeters>
            <DistanceMeters>NAN</DistanceMeters>
          </Trackpoint>
          <Trackpoint>
            <Time>2020-02-15T11:26:19.000Z</Time>
            <Position>
              <LatitudeDegrees>41.98212233372032642364501953125</LatitudeDegrees>
              <LongitudeDegrees>2.86920550279319286346435546875</LongitudeDegrees>
            </Position>
            <AltitudeMeters>317</AltitudeMeters>
            <DistanceMeters>NAN</DistanceMeters>
          </Trackpoint>
          <Trackpoint>
            <Time>2020-02-15T11:26:20.000Z</Time>
            <Position>
              <LatitudeDegrees>41.982095427811145782470703125</LatitudeDegrees>
              <LongitudeDegrees>2.8692205063998699188232421875</LongitudeDegrees>
            </Position>
            <AltitudeMeters>317</AltitudeMeters>
            <DistanceMeters>NAN</DistanceMeters>
          </Trackpoint>
          <Trackpoint>
            <Time>2020-02-15T11:26:21.000Z</Time>
            <Position>
              <LatitudeDegrees>41.98207019828259944915771484375</LatitudeDegrees>
              <LongitudeDegrees>2.86923433654010295867919921875</LongitudeDegrees>
            </Position>
            <AltitudeMeters>317.20001220703125</AltitudeMeters>
            <DistanceMeters>NAN</DistanceMeters>
          </Trackpoint>
          <Trackpoint>
            <Time>2020-02-15T11:26:22.000Z</Time>
            <Position>
              <LatitudeDegrees>41.98204304091632366180419921875</LatitudeDegrees>
              <LongitudeDegrees>2.86924682557582855224609375</LongitudeDegrees>
            </Position>
            <AltitudeMeters>317.20001220703125</AltitudeMeters>
            <DistanceMeters>NAN</DistanceMeters>
          </Trackpoint>
          <Trackpoint>
            <Time>2020-02-15T11:26:23.000Z</Time>
            <Position>
              <LatitudeDegrees>41.982015632092952728271484375</LatitudeDegrees>
              <LongitudeDegrees>2.86925881169736385345458984375</LongitudeDegrees>
            </Position>
            <AltitudeMeters>317.399993896484375</AltitudeMeters>
            <DistanceMeters>NAN</DistanceMeters>
          </Trackpoint>
          <Trackpoint>
            <Time>2020-02-15T11:26:24.000Z</Time>
            <Position>
              <LatitudeDegrees>41.9819878041744232177734375</LatitudeDegrees>
              <LongitudeDegrees>2.869271971285343170166015625</LongitudeDegrees>
            </Position>
            <AltitudeMeters>317.600006103515625</AltitudeMeters>
            <DistanceMeters>NAN</DistanceMeters>
          </Trackpoint>
          <Trackpoint>
            <Time>2020-02-15T11:26:25.000Z</Time>
            <Position>
              <LatitudeDegrees>41.9819582998752593994140625</LatitudeDegrees>
              <LongitudeDegrees>2.86928571760654449462890625</LongitudeDegrees>
            </Position>
            <AltitudeMeters>317.79998779296875</AltitudeMeters>
            <DistanceMeters>NAN</DistanceMeters>
          </Trackpoint>
          <Trackpoint>
            <Time>2020-02-15T11:26:26.000Z</Time>
            <Position>
              <LatitudeDegrees>41.98192569427192211151123046875</LatitudeDegrees>
              <LongitudeDegrees>2.86929703317582607269287109375</LongitudeDegrees>
            </Position>
            <AltitudeMeters>317.79998779296875</AltitudeMeters>
            <DistanceMeters>NAN</DistanceMeters>
          </Trackpoint>
          <Trackpoint>
            <Time>2020-02-15T11:26:27.000Z</Time>
            <Position>
              <LatitudeDegrees>41.98189300484955310821533203125</LatitudeDegrees>
              <LongitudeDegrees>2.86930340342223644256591796875</LongitudeDegrees>
            </Position>
            <AltitudeMeters>317.79998779296875</AltitudeMeters>
            <DistanceMeters>NAN</DistanceMeters>
          </Trackpoint>
          <Trackpoint>
            <Time>2020-02-15T11:26:28.000Z</Time>
            <Position>
              <LatitudeDegrees>41.98185947723686695098876953125</LatitudeDegrees>
              <LongitudeDegrees>2.869306169450283050537109375</LongitudeDegrees>
            </Position>
            <AltitudeMeters>318</AltitudeMeters>
            <DistanceMeters>NAN</DistanceMeters>
          </Trackpoint>
          <Trackpoint>
            <Time>2020-02-15T11:26:29.000Z</Time>
            <Position>
              <LatitudeDegrees>41.98182620108127593994140625</LatitudeDegrees>
              <LongitudeDegrees>2.8693049959838390350341796875</LongitudeDegrees>
            </Position>
            <AltitudeMeters>318.399993896484375</AltitudeMeters>
            <DistanceMeters>NAN</DistanceMeters>
          </Trackpoint>
          <Trackpoint>
            <Time>2020-02-15T11:26:30.000Z</Time>
            <Position>
              <LatitudeDegrees>41.98179258964955806732177734375</LatitudeDegrees>
              <LongitudeDegrees>2.86930172704160213470458984375</LongitudeDegrees>
            </Position>
            <AltitudeMeters>318.399993896484375</AltitudeMeters>
            <DistanceMeters>NAN</DistanceMeters>
          </Trackpoint>
          <Trackpoint>
            <Time>2020-02-15T11:26:31.000Z</Time>
            <Position>
              <LatitudeDegrees>41.9817606545984745025634765625</LatitudeDegrees>
              <LongitudeDegrees>2.86929552443325519561767578125</LongitudeDegrees>
            </Position>
            <AltitudeMeters>318.600006103515625</AltitudeMeters>
            <DistanceMeters>NAN</DistanceMeters>
          </Trackpoint>
          <Trackpoint>
            <Time>2020-02-15T11:26:32.000Z</Time>
            <Position>
              <LatitudeDegrees>41.9817303121089935302734375</LatitudeDegrees>
              <LongitudeDegrees>2.86928613670170307159423828125</LongitudeDegrees>
            </Position>
            <AltitudeMeters>318.79998779296875</AltitudeMeters>
            <DistanceMeters>NAN</DistanceMeters>
          </Trackpoint>
          <Trackpoint>
            <Time>2020-02-15T11:26:33.000Z</Time>
            <Position>
              <LatitudeDegrees>41.98170189745724201202392578125</LatitudeDegrees>
              <LongitudeDegrees>2.86927121691405773162841796875</LongitudeDegrees>
            </Position>
            <AltitudeMeters>319</AltitudeMeters>
            <DistanceMeters>NAN</DistanceMeters>
          </Trackpoint>
          <Trackpoint>
            <Time>2020-02-15T11:26:34.000Z</Time>
            <Position>
              <LatitudeDegrees>41.9816754944622516632080078125</LatitudeDegrees>
              <LongitudeDegrees>2.86925193853676319122314453125</LongitudeDegrees>
            </Position>
            <AltitudeMeters>319</AltitudeMeters>
            <DistanceMeters>NAN</DistanceMeters>
          </Trackpoint>
          <Trackpoint>
            <Time>2020-02-15T11:26:35.000Z</Time>
            <Position>
              <LatitudeDegrees>41.981652863323688507080078125</LatitudeDegrees>
              <LongitudeDegrees>2.8692282177507877349853515625</LongitudeDegrees>
            </Position>
            <AltitudeMeters>319</AltitudeMeters>
            <DistanceMeters>NAN</DistanceMeters>
          </Trackpoint>
          <Trackpoint>
            <Time>2020-02-15T11:26:36.000Z</Time>
            <Position>
              <LatitudeDegrees>41.9816329143941402435302734375</LatitudeDegrees>
              <LongitudeDegrees>2.86919946782290935516357421875</LongitudeDegrees>
            </Position>
            <AltitudeMeters>319</AltitudeMeters>
            <DistanceMeters>NAN</DistanceMeters>
          </Trackpoint>
          <Trackpoint>
            <Time>2020-02-15T11:26:37.000Z</Time>
            <Position>
              <LatitudeDegrees>41.98161455802619457244873046875</LatitudeDegrees>
              <LongitudeDegrees>2.86916929297149181365966796875</LongitudeDegrees>
            </Position>
            <AltitudeMeters>319.20001220703125</AltitudeMeters>
            <DistanceMeters>NAN</DistanceMeters>
          </Trackpoint>
          <Trackpoint>
            <Time>2020-02-15T11:26:38.000Z</Time>
            <Position>
              <LatitudeDegrees>41.98159712366759777069091796875</LatitudeDegrees>
              <LongitudeDegrees>2.8691360168159008026123046875</LongitudeDegrees>
            </Position>
            <AltitudeMeters>319.399993896484375</AltitudeMeters>
            <DistanceMeters>NAN</DistanceMeters>
          </Trackpoint>
          <Trackpoint>
            <Time>2020-02-15T11:26:39.000Z</Time>
            <Position>
              <LatitudeDegrees>41.981585808098316192626953125</LatitudeDegrees>
              <LongitudeDegrees>2.86909888498485088348388671875</LongitudeDegrees>
            </Position>
            <AltitudeMeters>319.399993896484375</AltitudeMeters>
            <DistanceMeters>NAN</DistanceMeters>
          </Trackpoint>
          <Trackpoint>
            <Time>2020-02-15T11:26:40.000Z</Time>
            <Position>
              <LatitudeDegrees>41.9815755821764469146728515625</LatitudeDegrees>
              <LongitudeDegrees>2.86906166933476924896240234375</LongitudeDegrees>
            </Position>
            <AltitudeMeters>319.399993896484375</AltitudeMeters>
            <DistanceMeters>NAN</DistanceMeters>
          </Trackpoint>
          <Trackpoint>
            <Time>2020-02-15T11:26:41.000Z</Time>
            <Position>
              <LatitudeDegrees>41.9815635122358798980712890625</LatitudeDegrees>
              <LongitudeDegrees>2.86902495659887790679931640625</LongitudeDegrees>
            </Position>
            <AltitudeMeters>319.79998779296875</AltitudeMeters>
            <DistanceMeters>NAN</DistanceMeters>
          </Trackpoint>
          <Trackpoint>
            <Time>2020-02-15T11:26:42.000Z</Time>
            <Position>
              <LatitudeDegrees>41.9815541245043277740478515625</LatitudeDegrees>
              <LongitudeDegrees>2.86898790858685970306396484375</LongitudeDegrees>
            </Position>
            <AltitudeMeters>319.79998779296875</AltitudeMeters>
            <DistanceMeters>NAN</DistanceMeters>
          </Trackpoint>
          <Trackpoint>
            <Time>2020-02-15T11:26:43.000Z</Time>
            <Position>
              <LatitudeDegrees>41.98154582642018795013427734375</LatitudeDegrees>
              <LongitudeDegrees>2.868952788412570953369140625</LongitudeDegrees>
            </Position>
            <AltitudeMeters>320</AltitudeMeters>
            <DistanceMeters>NAN</DistanceMeters>
          </Trackpoint>
          <Trackpoint>
            <Time>2020-02-15T11:26:44.000Z</Time>
            <Position>
              <LatitudeDegrees>41.9815353490412235260009765625</LatitudeDegrees>
              <LongitudeDegrees>2.86892018280923366546630859375</LongitudeDegrees>
            </Position>
            <AltitudeMeters>320.20001220703125</AltitudeMeters>
            <DistanceMeters>NAN</DistanceMeters>
          </Trackpoint>
          <Trackpoint>
            <Time>2020-02-15T11:26:45.000Z</Time>
            <Position>
              <LatitudeDegrees>41.981519758701324462890625</LatitudeDegrees>
              <LongitudeDegrees>2.86888699047267436981201171875</LongitudeDegrees>
            </Position>
            <AltitudeMeters>320.20001220703125</AltitudeMeters>
            <DistanceMeters>NAN</DistanceMeters>
          </Trackpoint>
          <Trackpoint>
            <Time>2020-02-15T11:26:46.000Z</Time>
            <Position>
              <LatitudeDegrees>41.98150509037077426910400390625</LatitudeDegrees>
              <LongitudeDegrees>2.86884994246065616607666015625</LongitudeDegrees>
            </Position>
            <AltitudeMeters>320.399993896484375</AltitudeMeters>
            <DistanceMeters>NAN</DistanceMeters>
          </Trackpoint>
          <Trackpoint>
            <Time>2020-02-15T11:26:47.000Z</Time>
            <Position>
              <LatitudeDegrees>41.98148983530700206756591796875</LatitudeDegrees>
              <LongitudeDegrees>2.86881188862025737762451171875</LongitudeDegrees>
            </Position>
            <AltitudeMeters>320.399993896484375</AltitudeMeters>
            <DistanceMeters>NAN</DistanceMeters>
          </Trackpoint>
          <Trackpoint>
            <Time>2020-02-15T11:26:50.000Z</Time>
            <Position>
              <LatitudeDegrees>41.9814468361437320709228515625</LatitudeDegrees>
              <LongitudeDegrees>2.86869202740490436553955078125</LongitudeDegrees>
            </Position>
            <AltitudeMeters>320.600006103515625</AltitudeMeters>
            <DistanceMeters>NAN</DistanceMeters>
          </Trackpoint>
          <Trackpoint>
            <Time>2020-02-15T11:26:53.000Z</Time>
            <Position>
              <LatitudeDegrees>41.981406100094318389892578125</LatitudeDegrees>
              <LongitudeDegrees>2.86855909042060375213623046875</LongitudeDegrees>
            </Position>
            <AltitudeMeters>320.600006103515625</AltitudeMeters>
            <DistanceMeters>NAN</DistanceMeters>
          </Trackpoint>
          <Trackpoint>
            <Time>2020-02-15T11:26:54.000Z</Time>
            <Position>
              <LatitudeDegrees>41.9813935272395610809326171875</LatitudeDegrees>
              <LongitudeDegrees>2.86851860582828521728515625</LongitudeDegrees>
            </Position>
            <AltitudeMeters>320.600006103515625</AltitudeMeters>
            <DistanceMeters>NAN</DistanceMeters>
          </Trackpoint>
          <Trackpoint>
            <Time>2020-02-15T11:26:55.000Z</Time>
            <Position>
              <LatitudeDegrees>41.98137835599482059478759765625</LatitudeDegrees>
              <LongitudeDegrees>2.8684788756072521209716796875</LongitudeDegrees>
            </Position>
            <AltitudeMeters>320.79998779296875</AltitudeMeters>
            <DistanceMeters>NAN</DistanceMeters>
          </Trackpoint>
          <Trackpoint>
            <Time>2020-02-15T11:26:56.000Z</Time>
            <Position>
              <LatitudeDegrees>41.98136477731168270111083984375</LatitudeDegrees>
              <LongitudeDegrees>2.86844040267169475555419921875</LongitudeDegrees>
            </Position>
            <AltitudeMeters>320.79998779296875</AltitudeMeters>
            <DistanceMeters>NAN</DistanceMeters>
          </Trackpoint>
          <Trackpoint>
            <Time>2020-02-15T11:26:57.000Z</Time>
            <Position>
              <LatitudeDegrees>41.98135253973305225372314453125</LatitudeDegrees>
              <LongitudeDegrees>2.86840192973613739013671875</LongitudeDegrees>
            </Position>
            <AltitudeMeters>320.79998779296875</AltitudeMeters>
            <DistanceMeters>NAN</DistanceMeters>
          </Trackpoint>
          <Trackpoint>
            <Time>2020-02-15T11:26:58.000Z</Time>
            <Position>
              <LatitudeDegrees>41.98133493773639202117919921875</LatitudeDegrees>
              <LongitudeDegrees>2.8683678992092609405517578125</LongitudeDegrees>
            </Position>
            <AltitudeMeters>320.79998779296875</AltitudeMeters>
            <DistanceMeters>NAN</DistanceMeters>
          </Trackpoint>
          <Trackpoint>
            <Time>2020-02-15T11:26:59.000Z</Time>
            <Position>
              <LatitudeDegrees>41.9813154079020023345947265625</LatitudeDegrees>
              <LongitudeDegrees>2.8683342039585113525390625</LongitudeDegrees>
            </Position>
            <AltitudeMeters>320.79998779296875</AltitudeMeters>
            <DistanceMeters>NAN</DistanceMeters>
          </Trackpoint>
          <Trackpoint>
            <Time>2020-02-15T11:27:01.000Z</Time>
            <Position>
              <LatitudeDegrees>41.9812597520649433135986328125</LatitudeDegrees>
              <LongitudeDegrees>2.8682669810950756072998046875</LongitudeDegrees>
            </Position>
            <AltitudeMeters>321</AltitudeMeters>
            <DistanceMeters>NAN</DistanceMeters>
          </Trackpoint>
          <Trackpoint>
            <Time>2020-02-15T11:27:02.000Z</Time>
            <Position>
              <LatitudeDegrees>41.9812218658626079559326171875</LatitudeDegrees>
              <LongitudeDegrees>2.868237309157848358154296875</LongitudeDegrees>
            </Position>
            <AltitudeMeters>320.79998779296875</AltitudeMeters>
            <DistanceMeters>NAN</DistanceMeters>
          </Trackpoint>
          <Trackpoint>
            <Time>2020-02-15T11:27:03.000Z</Time>
            <Position>
              <LatitudeDegrees>41.98117786087095737457275390625</LatitudeDegrees>
              <LongitudeDegrees>2.86821283400058746337890625</LongitudeDegrees>
            </Position>
            <AltitudeMeters>320.79998779296875</AltitudeMeters>
            <DistanceMeters>NAN</DistanceMeters>
          </Trackpoint>
          <Trackpoint>
            <Time>2020-02-15T11:27:04.000Z</Time>
            <Position>
              <LatitudeDegrees>41.9811286590993404388427734375</LatitudeDegrees>
              <LongitudeDegrees>2.86819280125200748443603515625</LongitudeDegrees>
            </Position>
            <AltitudeMeters>320.79998779296875</AltitudeMeters>
            <DistanceMeters>NAN</DistanceMeters>
          </Trackpoint>
          <Trackpoint>
            <Time>2020-02-15T11:27:05.000Z</Time>
            <Position>
              <LatitudeDegrees>41.98107593692839145660400390625</LatitudeDegrees>
              <LongitudeDegrees>2.86817754618823528289794921875</LongitudeDegrees>
            </Position>
            <AltitudeMeters>320.79998779296875</AltitudeMeters>
            <DistanceMeters>NAN</DistanceMeters>
          </Trackpoint>
          <Trackpoint>
            <Time>2020-02-15T11:27:06.000Z</Time>
            <Position>
              <LatitudeDegrees>41.98101961053907871246337890625</LatitudeDegrees>
              <LongitudeDegrees>2.868174947798252105712890625</LongitudeDegrees>
            </Position>
            <AltitudeMeters>320.79998779296875</AltitudeMeters>
            <DistanceMeters>NAN</DistanceMeters>
          </Trackpoint>
          <Trackpoint>
            <Time>2020-02-15T11:27:07.000Z</Time>
            <Position>
              <LatitudeDegrees>41.98096361942589282989501953125</LatitudeDegrees>
              <LongitudeDegrees>2.86819003522396087646484375</LongitudeDegrees>
            </Position>
            <AltitudeMeters>320.79998779296875</AltitudeMeters>
            <DistanceMeters>NAN</DistanceMeters>
          </Trackpoint>
          <Trackpoint>
            <Time>2020-02-15T11:27:08.000Z</Time>
            <Position>
              <LatitudeDegrees>41.98091290891170501708984375</LatitudeDegrees>
              <LongitudeDegrees>2.86821819841861724853515625</LongitudeDegrees>
            </Position>
            <AltitudeMeters>320.79998779296875</AltitudeMeters>
            <DistanceMeters>NAN</DistanceMeters>
          </Trackpoint>
          <Trackpoint>
            <Time>2020-02-15T11:27:09.000Z</Time>
            <Position>
              <LatitudeDegrees>41.98086957447230815887451171875</LatitudeDegrees>
              <LongitudeDegrees>2.86825801245868206024169921875</LongitudeDegrees>
            </Position>
            <AltitudeMeters>320.79998779296875</AltitudeMeters>
            <DistanceMeters>NAN</DistanceMeters>
          </Trackpoint>
          <Trackpoint>
            <Time>2020-02-15T11:27:10.000Z</Time>
            <Position>
              <LatitudeDegrees>41.98083235882222652435302734375</LatitudeDegrees>
              <LongitudeDegrees>2.868307046592235565185546875</LongitudeDegrees>
            </Position>
            <AltitudeMeters>320.600006103515625</AltitudeMeters>
            <DistanceMeters>NAN</DistanceMeters>
          </Trackpoint>
          <Trackpoint>
            <Time>2020-02-15T11:27:11.000Z</Time>
            <Position>
              <LatitudeDegrees>41.98079514317214488983154296875</LatitudeDegrees>
              <LongitudeDegrees>2.86836169660091400146484375</LongitudeDegrees>
            </Position>
            <AltitudeMeters>320.600006103515625</AltitudeMeters>
            <DistanceMeters>NAN</DistanceMeters>
          </Trackpoint>
          <Trackpoint>
            <Time>2020-02-15T11:27:13.000Z</Time>
            <Position>
              <LatitudeDegrees>41.98072490282356739044189453125</LatitudeDegrees>
              <LongitudeDegrees>2.86848516203463077545166015625</LongitudeDegrees>
            </Position>
            <AltitudeMeters>320.20001220703125</AltitudeMeters>
            <DistanceMeters>NAN</DistanceMeters>
          </Trackpoint>
          <Trackpoint>
            <Time>2020-02-15T11:27:14.000Z</Time>
            <Position>
              <LatitudeDegrees>41.9806964881718158721923828125</LatitudeDegrees>
              <LongitudeDegrees>2.86855456419289112091064453125</LongitudeDegrees>
            </Position>
            <AltitudeMeters>320.20001220703125</AltitudeMeters>
            <DistanceMeters>NAN</DistanceMeters>
          </Trackpoint>
          <Trackpoint>
            <Time>2020-02-15T11:27:15.000Z</Time>
            <Position>
              <LatitudeDegrees>41.98067645542323589324951171875</LatitudeDegrees>
              <LongitudeDegrees>2.86862899549305438995361328125</LongitudeDegrees>
            </Position>
            <AltitudeMeters>319.79998779296875</AltitudeMeters>
            <DistanceMeters>NAN</DistanceMeters>
          </Trackpoint>
          <Trackpoint>
            <Time>2020-02-15T11:27:16.000Z</Time>
            <Position>
              <LatitudeDegrees>41.9806569255888462066650390625</LatitudeDegrees>
              <LongitudeDegrees>2.86870543844997882843017578125</LongitudeDegrees>
            </Position>
            <AltitudeMeters>319.600006103515625</AltitudeMeters>
            <DistanceMeters>NAN</DistanceMeters>
          </Trackpoint>
          <Trackpoint>
            <Time>2020-02-15T11:27:18.000Z</Time>
            <Position>
              <LatitudeDegrees>41.9806103222072124481201171875</LatitudeDegrees>
              <LongitudeDegrees>2.86885798908770084381103515625</LongitudeDegrees>
            </Position>
            <AltitudeMeters>319.399993896484375</AltitudeMeters>
            <DistanceMeters>NAN</DistanceMeters>
          </Trackpoint>
          <Trackpoint>
            <Time>2020-02-15T11:27:19.000Z</Time>
            <Position>
              <LatitudeDegrees>41.98057386092841625213623046875</LatitudeDegrees>
              <LongitudeDegrees>2.868921272456645965576171875</LongitudeDegrees>
            </Position>
            <AltitudeMeters>319</AltitudeMeters>
            <DistanceMeters>NAN</DistanceMeters>
          </Trackpoint>
          <Trackpoint>
            <Time>2020-02-15T11:27:20.000Z</Time>
            <Position>
              <LatitudeDegrees>41.98052641935646533966064453125</LatitudeDegrees>
              <LongitudeDegrees>2.868966199457645416259765625</LongitudeDegrees>
            </Position>
            <AltitudeMeters>318.79998779296875</AltitudeMeters>
            <DistanceMeters>NAN</DistanceMeters>
          </Trackpoint>
          <Trackpoint>
            <Time>2020-02-15T11:27:21.000Z</Time>
            <Position>
              <LatitudeDegrees>41.980468332767486572265625</LatitudeDegrees>
              <LongitudeDegrees>2.86898908205330371856689453125</LongitudeDegrees>
            </Position>
            <AltitudeMeters>318.600006103515625</AltitudeMeters>
            <DistanceMeters>NAN</DistanceMeters>
          </Trackpoint>
          <Trackpoint>
            <Time>2020-02-15T11:27:22.000Z</Time>
            <Position>
              <LatitudeDegrees>41.98040421120822429656982421875</LatitudeDegrees>
              <LongitudeDegrees>2.8689911775290966033935546875</LongitudeDegrees>
            </Position>
            <AltitudeMeters>318.79998779296875</AltitudeMeters>
            <DistanceMeters>NAN</DistanceMeters>
          </Trackpoint>
          <Trackpoint>
            <Time>2020-02-15T11:27:23.000Z</Time>
            <Position>
              <LatitudeDegrees>41.9803384132683277130126953125</LatitudeDegrees>
              <LongitudeDegrees>2.86897818557918071746826171875</LongitudeDegrees>
            </Position>
            <AltitudeMeters>318.399993896484375</AltitudeMeters>
            <DistanceMeters>NAN</DistanceMeters>
          </Trackpoint>
          <Trackpoint>
            <Time>2020-02-15T11:27:24.000Z</Time>
            <Position>
              <LatitudeDegrees>41.98027144186198711395263671875</LatitudeDegrees>
              <LongitudeDegrees>2.8689613379538059234619140625</LongitudeDegrees>
            </Position>
            <AltitudeMeters>318</AltitudeMeters>
            <DistanceMeters>NAN</DistanceMeters>
          </Trackpoint>
          <Trackpoint>
            <Time>2020-02-15T11:27:25.000Z</Time>
            <Position>
              <LatitudeDegrees>41.98020480573177337646484375</LatitudeDegrees>
              <LongitudeDegrees>2.8689371980726718902587890625</LongitudeDegrees>
            </Position>
            <AltitudeMeters>317.600006103515625</AltitudeMeters>
            <DistanceMeters>NAN</DistanceMeters>
          </Trackpoint>
          <Trackpoint>
            <Time>2020-02-15T11:27:26.000Z</Time>
            <Position>
              <LatitudeDegrees>41.98014470748603343963623046875</LatitudeDegrees>
              <LongitudeDegrees>2.86890090443193912506103515625</LongitudeDegrees>
            </Position>
            <AltitudeMeters>317.600006103515625</AltitudeMeters>
            <DistanceMeters>NAN</DistanceMeters>
          </Trackpoint>
          <Trackpoint>
            <Time>2020-02-15T11:27:27.000Z</Time>
            <Position>
              <LatitudeDegrees>41.98009508661925792694091796875</LatitudeDegrees>
              <LongitudeDegrees>2.86884642206132411956787109375</LongitudeDegrees>
            </Position>
            <AltitudeMeters>317.20001220703125</AltitudeMeters>
            <DistanceMeters>NAN</DistanceMeters>
          </Trackpoint>
          <Trackpoint>
            <Time>2020-02-15T11:27:28.000Z</Time>
            <Position>
              <LatitudeDegrees>41.980058290064334869384765625</LatitudeDegrees>
              <LongitudeDegrees>2.86878003738820552825927734375</LongitudeDegrees>
            </Position>
            <AltitudeMeters>317</AltitudeMeters>
            <DistanceMeters>NAN</DistanceMeters>
          </Trackpoint>
          <Trackpoint>
            <Time>2020-02-15T11:27:29.000Z</Time>
            <Position>
              <LatitudeDegrees>41.98003272525966167449951171875</LatitudeDegrees>
              <LongitudeDegrees>2.86871113814413547515869140625</LongitudeDegrees>
            </Position>
            <AltitudeMeters>316.79998779296875</AltitudeMeters>
            <DistanceMeters>NAN</DistanceMeters>
          </Trackpoint>
          <Trackpoint>
            <Time>2020-02-15T11:27:30.000Z</Time>
            <Position>
              <LatitudeDegrees>41.9800054840743541717529296875</LatitudeDegrees>
              <LongitudeDegrees>2.86864408291876316070556640625</LongitudeDegrees>
            </Position>
            <AltitudeMeters>316.600006103515625</AltitudeMeters>
            <DistanceMeters>NAN</DistanceMeters>
          </Trackpoint>
          <Trackpoint>
            <Time>2020-02-15T11:27:31.000Z</Time>
            <Position>
              <LatitudeDegrees>41.97997623123228549957275390625</LatitudeDegrees>
              <LongitudeDegrees>2.8685794584453105926513671875</LongitudeDegrees>
            </Position>
            <AltitudeMeters>316.20001220703125</AltitudeMeters>
            <DistanceMeters>NAN</DistanceMeters>
          </Trackpoint>
          <Trackpoint>
            <Time>2020-02-15T11:27:32.000Z</Time>
            <Position>
              <LatitudeDegrees>41.97994454763829708099365234375</LatitudeDegrees>
              <LongitudeDegrees>2.86852103658020496368408203125</LongitudeDegrees>
            </Position>
            <AltitudeMeters>316</AltitudeMeters>
            <DistanceMeters>NAN</DistanceMeters>
          </Trackpoint>
          <Trackpoint>
            <Time>2020-02-15T11:27:33.000Z</Time>
            <Position>
              <LatitudeDegrees>41.9799079187214374542236328125</LatitudeDegrees>
              <LongitudeDegrees>2.86847242154181003570556640625</LongitudeDegrees>
            </Position>
            <AltitudeMeters>315.600006103515625</AltitudeMeters>
            <DistanceMeters>NAN</DistanceMeters>
          </Trackpoint>
          <Trackpoint>
            <Time>2020-02-15T11:27:34.000Z</Time>
            <Position>
              <LatitudeDegrees>41.9798661768436431884765625</LatitudeDegrees>
              <LongitudeDegrees>2.868430428206920623779296875</LongitudeDegrees>
            </Position>
            <AltitudeMeters>315.399993896484375</AltitudeMeters>
            <DistanceMeters>NAN</DistanceMeters>
          </Trackpoint>
          <Trackpoint>
            <Time>2020-02-15T11:27:35.000Z</Time>
            <Position>
              <LatitudeDegrees>41.9798257760703563690185546875</LatitudeDegrees>
              <LongitudeDegrees>2.86839027889072895050048828125</LongitudeDegrees>
            </Position>
            <AltitudeMeters>315.20001220703125</AltitudeMeters>
            <DistanceMeters>NAN</DistanceMeters>
          </Trackpoint>
          <Trackpoint>
            <Time>2020-02-15T11:27:36.000Z</Time>
            <Position>
              <LatitudeDegrees>41.97978504002094268798828125</LatitudeDegrees>
              <LongitudeDegrees>2.8683538176119327545166015625</LongitudeDegrees>
            </Position>
            <AltitudeMeters>315.20001220703125</AltitudeMeters>
            <DistanceMeters>NAN</DistanceMeters>
          </Trackpoint>
          <Trackpoint>
            <Time>2020-02-15T11:27:37.000Z</Time>
            <Position>
              <LatitudeDegrees>41.97974438779056072235107421875</LatitudeDegrees>
              <LongitudeDegrees>2.8683216311037540435791015625</LongitudeDegrees>
            </Position>
            <AltitudeMeters>315</AltitudeMeters>
            <DistanceMeters>NAN</DistanceMeters>
          </Trackpoint>
          <Trackpoint>
            <Time>2020-02-15T11:27:38.000Z</Time>
            <Position>
              <LatitudeDegrees>41.9797037355601787567138671875</LatitudeDegrees>
              <LongitudeDegrees>2.8682904504239559173583984375</LongitudeDegrees>
            </Position>
            <AltitudeMeters>315</AltitudeMeters>
            <DistanceMeters>NAN</DistanceMeters>
          </Trackpoint>
          <Trackpoint>
            <Time>2020-02-15T11:27:39.000Z</Time>
            <Position>
              <LatitudeDegrees>41.9796601496636867523193359375</LatitudeDegrees>
              <LongitudeDegrees>2.8682644665241241455078125</LongitudeDegrees>
            </Position>
            <AltitudeMeters>315</AltitudeMeters>
            <DistanceMeters>NAN</DistanceMeters>
          </Trackpoint>
          <Trackpoint>
            <Time>2020-02-15T11:27:40.000Z</Time>
            <Position>
              <LatitudeDegrees>41.9796152226626873016357421875</LatitudeDegrees>
              <LongitudeDegrees>2.8682403266429901123046875</LongitudeDegrees>
            </Position>
            <AltitudeMeters>314.79998779296875</AltitudeMeters>
            <DistanceMeters>NAN</DistanceMeters>
          </Trackpoint>
          <Trackpoint>
            <Time>2020-02-15T11:27:41.000Z</Time>
            <Position>
              <LatitudeDegrees>41.979569457471370697021484375</LatitudeDegrees>
              <LongitudeDegrees>2.868217863142490386962890625</LongitudeDegrees>
            </Position>
            <AltitudeMeters>314.79998779296875</AltitudeMeters>
            <DistanceMeters>NAN</DistanceMeters>
          </Trackpoint>
          <Trackpoint>
            <Time>2020-02-15T11:27:44.000Z</Time>
            <Position>
              <LatitudeDegrees>41.979426629841327667236328125</LatitudeDegrees>
              <LongitudeDegrees>2.8681653924286365509033203125</LongitudeDegrees>
            </Position>
            <AltitudeMeters>314.79998779296875</AltitudeMeters>
            <DistanceMeters>NAN</DistanceMeters>
          </Trackpoint>
          <Trackpoint>
            <Time>2020-02-15T11:27:46.000Z</Time>
            <Position>
              <LatitudeDegrees>41.97933250106871128082275390625</LatitudeDegrees>
              <LongitudeDegrees>2.8681687451899051666259765625</LongitudeDegrees>
            </Position>
            <AltitudeMeters>314.600006103515625</AltitudeMeters>
            <DistanceMeters>NAN</DistanceMeters>
          </Trackpoint>
          <Trackpoint>
            <Time>2020-02-15T11:27:47.000Z</Time>
            <Position>
              <LatitudeDegrees>41.97928723879158496856689453125</LatitudeDegrees>
              <LongitudeDegrees>2.86818726919591426849365234375</LongitudeDegrees>
            </Position>
            <AltitudeMeters>314.600006103515625</AltitudeMeters>
            <DistanceMeters>NAN</DistanceMeters>
          </Trackpoint>
          <Trackpoint>
            <Time>2020-02-15T11:27:48.000Z</Time>
            <Position>
              <LatitudeDegrees>41.97924549691379070281982421875</LatitudeDegrees>
              <LongitudeDegrees>2.86821878515183925628662109375</LongitudeDegrees>
            </Position>
            <AltitudeMeters>314.600006103515625</AltitudeMeters>
            <DistanceMeters>NAN</DistanceMeters>
          </Trackpoint>
          <Trackpoint>
            <Time>2020-02-15T11:27:49.000Z</Time>
            <Position>
              <LatitudeDegrees>41.979207694530487060546875</LatitudeDegrees>
              <LongitudeDegrees>2.86825818009674549102783203125</LongitudeDegrees>
            </Position>
            <AltitudeMeters>314.600006103515625</AltitudeMeters>
            <DistanceMeters>NAN</DistanceMeters>
          </Trackpoint>
          <Trackpoint>
            <Time>2020-02-15T11:27:50.000Z</Time>
            <Position>
              <LatitudeDegrees>41.97916938923299312591552734375</LatitudeDegrees>
              <LongitudeDegrees>2.86829774267971515655517578125</LongitudeDegrees>
            </Position>
            <AltitudeMeters>314.600006103515625</AltitudeMeters>
            <DistanceMeters>NAN</DistanceMeters>
          </Trackpoint>
          <Trackpoint>
            <Time>2020-02-15T11:27:51.000Z</Time>
            <Position>
              <LatitudeDegrees>41.979128234088420867919921875</LatitudeDegrees>
              <LongitudeDegrees>2.86832816898822784423828125</LongitudeDegrees>
            </Position>
            <AltitudeMeters>314.600006103515625</AltitudeMeters>
            <DistanceMeters>NAN</DistanceMeters>
          </Trackpoint>
          <Trackpoint>
            <Time>2020-02-15T11:27:52.000Z</Time>
            <Position>
              <LatitudeDegrees>41.979084312915802001953125</LatitudeDegrees>
              <LongitudeDegrees>2.86834669299423694610595703125</LongitudeDegrees>
            </Position>
            <AltitudeMeters>314.399993896484375</AltitudeMeters>
            <DistanceMeters>NAN</DistanceMeters>
          </Trackpoint>
          <Trackpoint>
            <Time>2020-02-15T11:27:53.000Z</Time>
            <Position>
              <LatitudeDegrees>41.979039050638675689697265625</LatitudeDegrees>
              <LongitudeDegrees>2.868353985249996185302734375</LongitudeDegrees>
            </Position>
            <AltitudeMeters>314.399993896484375</AltitudeMeters>
            <DistanceMeters>NAN</DistanceMeters>
          </Trackpoint>
          <Trackpoint>
            <Time>2020-02-15T11:27:54.000Z</Time>
            <Position>
              <LatitudeDegrees>41.97899378836154937744140625</LatitudeDegrees>
              <LongitudeDegrees>2.8683598525822162628173828125</LongitudeDegrees>
            </Position>
            <AltitudeMeters>314.20001220703125</AltitudeMeters>
            <DistanceMeters>NAN</DistanceMeters>
          </Trackpoint>
          <Trackpoint>
            <Time>2020-02-15T11:27:55.000Z</Time>
            <Position>
              <LatitudeDegrees>41.97894961573183536529541015625</LatitudeDegrees>
              <LongitudeDegrees>2.86835893057286739349365234375</LongitudeDegrees>
            </Position>
            <AltitudeMeters>314.20001220703125</AltitudeMeters>
            <DistanceMeters>NAN</DistanceMeters>
          </Trackpoint>
          <Trackpoint>
            <Time>2020-02-15T11:27:56.000Z</Time>
            <Position>
              <LatitudeDegrees>41.97890552692115306854248046875</LatitudeDegrees>
              <LongitudeDegrees>2.8683434240520000457763671875</LongitudeDegrees>
            </Position>
            <AltitudeMeters>314.20001220703125</AltitudeMeters>
            <DistanceMeters>NAN</DistanceMeters>
          </Trackpoint>
          <Trackpoint>
            <Time>2020-02-15T11:27:57.000Z</Time>
            <Position>
              <LatitudeDegrees>41.97886361740529537200927734375</LatitudeDegrees>
              <LongitudeDegrees>2.86831266246736049652099609375</LongitudeDegrees>
            </Position>
            <AltitudeMeters>314.20001220703125</AltitudeMeters>
            <DistanceMeters>NAN</DistanceMeters>
          </Trackpoint>
          <Trackpoint>
            <Time>2020-02-15T11:27:58.000Z</Time>
            <Position>
              <LatitudeDegrees>41.978826820850372314453125</LatitudeDegrees>
              <LongitudeDegrees>2.86827175877988338470458984375</LongitudeDegrees>
            </Position>
            <AltitudeMeters>314.20001220703125</AltitudeMeters>
            <DistanceMeters>NAN</DistanceMeters>
          </Trackpoint>
          <Trackpoint>
            <Time>2020-02-15T11:27:59.000Z</Time>
            <Position>
              <LatitudeDegrees>41.9787954725325107574462890625</LatitudeDegrees>
              <LongitudeDegrees>2.86822398193180561065673828125</LongitudeDegrees>
            </Position>
            <AltitudeMeters>314.20001220703125</AltitudeMeters>
            <DistanceMeters>NAN</DistanceMeters>
          </Trackpoint>
          <Trackpoint>
            <Time>2020-02-15T11:28:00.000Z</Time>
            <Position>
              <LatitudeDegrees>41.97876957245171070098876953125</LatitudeDegrees>
              <LongitudeDegrees>2.86817117594182491302490234375</LongitudeDegrees>
            </Position>
            <AltitudeMeters>314.20001220703125</AltitudeMeters>
            <DistanceMeters>NAN</DistanceMeters>
          </Trackpoint>
          <Trackpoint>
            <Time>2020-02-15T11:28:01.000Z</Time>
            <Position>
              <LatitudeDegrees>41.978750713169574737548828125</LatitudeDegrees>
              <LongitudeDegrees>2.86811334080994129180908203125</LongitudeDegrees>
            </Position>
            <AltitudeMeters>314.20001220703125</AltitudeMeters>
            <DistanceMeters>NAN</DistanceMeters>
          </Trackpoint>
          <Trackpoint>
            <Time>2020-02-15T11:28:02.000Z</Time>
            <Position>
              <LatitudeDegrees>41.97873554192483425140380859375</LatitudeDegrees>
              <LongitudeDegrees>2.868053913116455078125</LongitudeDegrees>
            </Position>
            <AltitudeMeters>314.20001220703125</AltitudeMeters>
            <DistanceMeters>NAN</DistanceMeters>
          </Trackpoint>
          <Trackpoint>
            <Time>2020-02-15T11:28:03.000Z</Time>
            <Position>
              <LatitudeDegrees>41.97872028686106204986572265625</LatitudeDegrees>
              <LongitudeDegrees>2.86799532361328601837158203125</LongitudeDegrees>
            </Position>
            <AltitudeMeters>314</AltitudeMeters>
            <DistanceMeters>NAN</DistanceMeters>
          </Trackpoint>
          <Trackpoint>
            <Time>2020-02-15T11:28:04.000Z</Time>
            <Position>
              <LatitudeDegrees>41.978705786168575286865234375</LatitudeDegrees>
              <LongitudeDegrees>2.86793698556721210479736328125</LongitudeDegrees>
            </Position>
            <AltitudeMeters>314</AltitudeMeters>
            <DistanceMeters>NAN</DistanceMeters>
          </Trackpoint>
          <Trackpoint>
            <Time>2020-02-15T11:28:05.000Z</Time>
            <Position>
              <LatitudeDegrees>41.97868960909545421600341796875</LatitudeDegrees>
              <LongitudeDegrees>2.86788032390177249908447265625</LongitudeDegrees>
            </Position>
            <AltitudeMeters>313.79998779296875</AltitudeMeters>
            <DistanceMeters>NAN</DistanceMeters>
          </Trackpoint>
          <Trackpoint>
            <Time>2020-02-15T11:28:06.000Z</Time>
            <Position>
              <LatitudeDegrees>41.9786663912236690521240234375</LatitudeDegrees>
              <LongitudeDegrees>2.86782701499760150909423828125</LongitudeDegrees>
            </Position>
            <AltitudeMeters>313.79998779296875</AltitudeMeters>
            <DistanceMeters>NAN</DistanceMeters>
          </Trackpoint>
          <Trackpoint>
            <Time>2020-02-15T11:28:07.000Z</Time>
            <Position>
              <LatitudeDegrees>41.97863915003836154937744140625</LatitudeDegrees>
              <LongitudeDegrees>2.867777310311794281005859375</LongitudeDegrees>
            </Position>
            <AltitudeMeters>313.79998779296875</AltitudeMeters>
            <DistanceMeters>NAN</DistanceMeters>
          </Trackpoint>
          <Trackpoint>
            <Time>2020-02-15T11:28:08.000Z</Time>
            <Position>
              <LatitudeDegrees>41.978607214987277984619140625</LatitudeDegrees>
              <LongitudeDegrees>2.86773405969142913818359375</LongitudeDegrees>
            </Position>
            <AltitudeMeters>313.79998779296875</AltitudeMeters>
            <DistanceMeters>NAN</DistanceMeters>
          </Trackpoint>
          <Trackpoint>
            <Time>2020-02-15T11:28:09.000Z</Time>
            <Position>
              <LatitudeDegrees>41.97857041843235492706298828125</LatitudeDegrees>
              <LongitudeDegrees>2.86769676022231578826904296875</LongitudeDegrees>
            </Position>
            <AltitudeMeters>313.79998779296875</AltitudeMeters>
            <DistanceMeters>NAN</DistanceMeters>
          </Trackpoint>
          <Trackpoint>
            <Time>2020-02-15T11:28:10.000Z</Time>
            <Position>
              <LatitudeDegrees>41.97852934710681438446044921875</LatitudeDegrees>
              <LongitudeDegrees>2.86766926757991313934326171875</LongitudeDegrees>
            </Position>
            <AltitudeMeters>313.79998779296875</AltitudeMeters>
            <DistanceMeters>NAN</DistanceMeters>
          </Trackpoint>
          <Trackpoint>
            <Time>2020-02-15T11:28:11.000Z</Time>
            <Position>
              <LatitudeDegrees>41.97848509065806865692138671875</LatitudeDegrees>
              <LongitudeDegrees>2.86764998920261859893798828125</LongitudeDegrees>
            </Position>
            <AltitudeMeters>313.79998779296875</AltitudeMeters>
            <DistanceMeters>NAN</DistanceMeters>
          </Trackpoint>
          <Trackpoint>
            <Time>2020-02-15T11:28:12.000Z</Time>
            <Position>
              <LatitudeDegrees>41.97843882255256175994873046875</LatitudeDegrees>
              <LongitudeDegrees>2.86763724870979785919189453125</LongitudeDegrees>
            </Position>
            <AltitudeMeters>313.600006103515625</AltitudeMeters>
            <DistanceMeters>NAN</DistanceMeters>
          </Trackpoint>
          <Trackpoint>
            <Time>2020-02-15T11:28:13.000Z</Time>
            <Position>
              <LatitudeDegrees>41.97839205153286457061767578125</LatitudeDegrees>
              <LongitudeDegrees>2.8676336444914340972900390625</LongitudeDegrees>
            </Position>
            <AltitudeMeters>313.600006103515625</AltitudeMeters>
            <DistanceMeters>NAN</DistanceMeters>
          </Trackpoint>
          <Trackpoint>
            <Time>2020-02-15T11:28:14.000Z</Time>
            <Position>
              <LatitudeDegrees>41.978345029056072235107421875</LatitudeDegrees>
              <LongitudeDegrees>2.8676410205662250518798828125</LongitudeDegrees>
            </Position>
            <AltitudeMeters>313.600006103515625</AltitudeMeters>
            <DistanceMeters>NAN</DistanceMeters>
          </Trackpoint>
          <Trackpoint>
            <Time>2020-02-15T11:28:15.000Z</Time>
            <Position>
              <LatitudeDegrees>41.97829834185540676116943359375</LatitudeDegrees>
              <LongitudeDegrees>2.86765669472515583038330078125</LongitudeDegrees>
            </Position>
            <AltitudeMeters>313.600006103515625</AltitudeMeters>
            <DistanceMeters>NAN</DistanceMeters>
          </Trackpoint>
          <Trackpoint>
            <Time>2020-02-15T11:28:16.000Z</Time>
            <Position>
              <LatitudeDegrees>41.9782499782741069793701171875</LatitudeDegrees>
              <LongitudeDegrees>2.8676743805408477783203125</LongitudeDegrees>
            </Position>
            <AltitudeMeters>313.600006103515625</AltitudeMeters>
            <DistanceMeters>NAN</DistanceMeters>
          </Trackpoint>
          <Trackpoint>
            <Time>2020-02-15T11:28:18.000Z</Time>
            <Position>
              <LatitudeDegrees>41.97815400548279285430908203125</LatitudeDegrees>
              <LongitudeDegrees>2.86770866252481937408447265625</LongitudeDegrees>
            </Position>
            <AltitudeMeters>313.600006103515625</AltitudeMeters>
            <DistanceMeters>NAN</DistanceMeters>
          </Trackpoint>
          <Trackpoint>
            <Time>2020-02-15T11:28:22.000Z</Time>
            <Position>
              <LatitudeDegrees>41.97794965468347072601318359375</LatitudeDegrees>
              <LongitudeDegrees>2.8677831776440143585205078125</LongitudeDegrees>
            </Position>
            <AltitudeMeters>313.20001220703125</AltitudeMeters>
            <DistanceMeters>NAN</DistanceMeters>
          </Trackpoint>
          <Trackpoint>
            <Time>2020-02-15T11:28:23.000Z</Time>
            <Position>
              <LatitudeDegrees>41.97789550758898258209228515625</LatitudeDegrees>
              <LongitudeDegrees>2.86780606023967266082763671875</LongitudeDegrees>
            </Position>
            <AltitudeMeters>313.600006103515625</AltitudeMeters>
            <DistanceMeters>NAN</DistanceMeters>
          </Trackpoint>
          <Trackpoint>
            <Time>2020-02-15T11:28:24.000Z</Time>
            <Position>
              <LatitudeDegrees>41.97783934883773326873779296875</LatitudeDegrees>
              <LongitudeDegrees>2.86782114766538143157958984375</LongitudeDegrees>
            </Position>
            <AltitudeMeters>313.399993896484375</AltitudeMeters>
            <DistanceMeters>NAN</DistanceMeters>
          </Trackpoint>
          <Trackpoint>
            <Time>2020-02-15T11:28:25.000Z</Time>
            <Position>
              <LatitudeDegrees>41.977780759334564208984375</LatitudeDegrees>
              <LongitudeDegrees>2.8678227402269840240478515625</LongitudeDegrees>
            </Position>
            <AltitudeMeters>313.399993896484375</AltitudeMeters>
            <DistanceMeters>NAN</DistanceMeters>
          </Trackpoint>
          <Trackpoint>
            <Time>2020-02-15T11:28:26.000Z</Time>
            <Position>
              <LatitudeDegrees>41.977721750736236572265625</LatitudeDegrees>
              <LongitudeDegrees>2.86780522204935550689697265625</LongitudeDegrees>
            </Position>
            <AltitudeMeters>313.399993896484375</AltitudeMeters>
            <DistanceMeters>NAN</DistanceMeters>
          </Trackpoint>
          <Trackpoint>
            <Time>2020-02-15T11:28:27.000Z</Time>
            <Position>
              <LatitudeDegrees>41.9776659272611141204833984375</LatitudeDegrees>
              <LongitudeDegrees>2.86776733584702014923095703125</LongitudeDegrees>
            </Position>
            <AltitudeMeters>313.20001220703125</AltitudeMeters>
            <DistanceMeters>NAN</DistanceMeters>
          </Trackpoint>
          <Trackpoint>
            <Time>2020-02-15T11:28:28.000Z</Time>
            <Position>
              <LatitudeDegrees>41.97761337272822856903076171875</LatitudeDegrees>
              <LongitudeDegrees>2.86771955899894237518310546875</LongitudeDegrees>
            </Position>
            <AltitudeMeters>313.20001220703125</AltitudeMeters>
            <DistanceMeters>NAN</DistanceMeters>
          </Trackpoint>
          <Trackpoint>
            <Time>2020-02-15T11:28:30.000Z</Time>
            <Position>
              <LatitudeDegrees>41.97750038467347621917724609375</LatitudeDegrees>
              <LongitudeDegrees>2.86763213574886322021484375</LongitudeDegrees>
            </Position>
            <AltitudeMeters>312.79998779296875</AltitudeMeters>
            <DistanceMeters>NAN</DistanceMeters>
          </Trackpoint>
          <Trackpoint>
            <Time>2020-02-15T11:28:31.000Z</Time>
            <Position>
              <LatitudeDegrees>41.977438442409038543701171875</LatitudeDegrees>
              <LongitudeDegrees>2.8676011227071285247802734375</LongitudeDegrees>
            </Position>
            <AltitudeMeters>312.600006103515625</AltitudeMeters>
            <DistanceMeters>NAN</DistanceMeters>
          </Trackpoint>
          <Trackpoint>
            <Time>2020-02-15T11:28:32.000Z</Time>
            <Position>
              <LatitudeDegrees>41.97737482376396656036376953125</LatitudeDegrees>
              <LongitudeDegrees>2.86758142523467540740966796875</LongitudeDegrees>
            </Position>
            <AltitudeMeters>312.399993896484375</AltitudeMeters>
            <DistanceMeters>NAN</DistanceMeters>
          </Trackpoint>
          <Trackpoint>
            <Time>2020-02-15T11:28:33.000Z</Time>
            <Position>
              <LatitudeDegrees>41.97730978019535541534423828125</LatitudeDegrees>
              <LongitudeDegrees>2.86757572554051876068115234375</LongitudeDegrees>
            </Position>
            <AltitudeMeters>312.20001220703125</AltitudeMeters>
            <DistanceMeters>NAN</DistanceMeters>
          </Trackpoint>
          <Trackpoint>
            <Time>2020-02-15T11:28:34.000Z</Time>
            <Position>
              <LatitudeDegrees>41.977244652807712554931640625</LatitudeDegrees>
              <LongitudeDegrees>2.86758108995854854583740234375</LongitudeDegrees>
            </Position>
            <AltitudeMeters>311.79998779296875</AltitudeMeters>
            <DistanceMeters>NAN</DistanceMeters>
          </Trackpoint>
          <Trackpoint>
            <Time>2020-02-15T11:28:35.000Z</Time>
            <Position>
              <LatitudeDegrees>41.9771807827055454254150390625</LatitudeDegrees>
              <LongitudeDegrees>2.86759550683200359344482421875</LongitudeDegrees>
            </Position>
            <AltitudeMeters>311.399993896484375</AltitudeMeters>
            <DistanceMeters>NAN</DistanceMeters>
          </Trackpoint>
          <Trackpoint>
            <Time>2020-02-15T11:28:36.000Z</Time>
            <Position>
              <LatitudeDegrees>41.9771194271743297576904296875</LatitudeDegrees>
              <LongitudeDegrees>2.86761193536221981048583984375</LongitudeDegrees>
            </Position>
            <AltitudeMeters>311</AltitudeMeters>
            <DistanceMeters>NAN</DistanceMeters>
          </Trackpoint>
          <Trackpoint>
            <Time>2020-02-15T11:28:37.000Z</Time>
            <Position>
              <LatitudeDegrees>41.977060921490192413330078125</LatitudeDegrees>
              <LongitudeDegrees>2.86762702278792858123779296875</LongitudeDegrees>
            </Position>
            <AltitudeMeters>310.79998779296875</AltitudeMeters>
            <DistanceMeters>NAN</DistanceMeters>
          </Trackpoint>
          <Trackpoint>
            <Time>2020-02-15T11:28:38.000Z</Time>
            <Position>
              <LatitudeDegrees>41.97700560092926025390625</LatitudeDegrees>
              <LongitudeDegrees>2.86764177493751049041748046875</LongitudeDegrees>
            </Position>
            <AltitudeMeters>310.600006103515625</AltitudeMeters>
            <DistanceMeters>NAN</DistanceMeters>
          </Trackpoint>
          <Trackpoint>
            <Time>2020-02-15T11:28:39.000Z</Time>
            <Position>
              <LatitudeDegrees>41.9769524596631526947021484375</LatitudeDegrees>
              <LongitudeDegrees>2.867657281458377838134765625</LongitudeDegrees>
            </Position>
            <AltitudeMeters>310.20001220703125</AltitudeMeters>
            <DistanceMeters>NAN</DistanceMeters>
          </Trackpoint>
          <Trackpoint>
            <Time>2020-02-15T11:28:40.000Z</Time>
            <Position>
              <LatitudeDegrees>41.97690225206315517425537109375</LatitudeDegrees>
              <LongitudeDegrees>2.8676701895892620086669921875</LongitudeDegrees>
            </Position>
            <AltitudeMeters>310</AltitudeMeters>
            <DistanceMeters>NAN</DistanceMeters>
          </Trackpoint>
          <Trackpoint>
            <Time>2020-02-15T11:28:41.000Z</Time>
            <Position>
              <LatitudeDegrees>41.97685397230088710784912109375</LatitudeDegrees>
              <LongitudeDegrees>2.86767982877790927886962890625</LongitudeDegrees>
            </Position>
            <AltitudeMeters>310</AltitudeMeters>
            <DistanceMeters>NAN</DistanceMeters>
          </Trackpoint>
          <Trackpoint>
            <Time>2020-02-15T11:28:42.000Z</Time>
            <Position>
              <LatitudeDegrees>41.97680753655731678009033203125</LatitudeDegrees>
              <LongitudeDegrees>2.86768971942365169525146484375</LongitudeDegrees>
            </Position>
            <AltitudeMeters>309.79998779296875</AltitudeMeters>
            <DistanceMeters>NAN</DistanceMeters>
          </Trackpoint>
          <Trackpoint>
            <Time>2020-02-15T11:28:43.000Z</Time>
            <Position>
              <LatitudeDegrees>41.9767640344798564910888671875</LatitudeDegrees>
              <LongitudeDegrees>2.86769843660295009613037109375</LongitudeDegrees>
            </Position>
            <AltitudeMeters>309.79998779296875</AltitudeMeters>
            <DistanceMeters>NAN</DistanceMeters>
          </Trackpoint>
          <Trackpoint>
            <Time>2020-02-15T11:28:44.000Z</Time>
            <Position>
              <LatitudeDegrees>41.97672170586884021759033203125</LatitudeDegrees>
              <LongitudeDegrees>2.86770396865904331207275390625</LongitudeDegrees>
            </Position>
            <AltitudeMeters>309.79998779296875</AltitudeMeters>
            <DistanceMeters>NAN</DistanceMeters>
          </Trackpoint>
          <Trackpoint>
            <Time>2020-02-15T11:28:45.000Z</Time>
            <Position>
              <LatitudeDegrees>41.976681388914585113525390625</LatitudeDegrees>
              <LongitudeDegrees>2.8677043877542018890380859375</LongitudeDegrees>
            </Position>
            <AltitudeMeters>309.600006103515625</AltitudeMeters>
            <DistanceMeters>NAN</DistanceMeters>
          </Trackpoint>
          <Trackpoint>
            <Time>2020-02-15T11:28:46.000Z</Time>
            <Position>
              <LatitudeDegrees>41.9766421616077423095703125</LatitudeDegrees>
              <LongitudeDegrees>2.86770346574485301971435546875</LongitudeDegrees>
            </Position>
            <AltitudeMeters>309.600006103515625</AltitudeMeters>
            <DistanceMeters>NAN</DistanceMeters>
          </Trackpoint>
          <Trackpoint>
            <Time>2020-02-15T11:28:47.000Z</Time>
            <Position>
              <LatitudeDegrees>41.9766051135957241058349609375</LatitudeDegrees>
              <LongitudeDegrees>2.867702879011631011962890625</LongitudeDegrees>
            </Position>
            <AltitudeMeters>309.600006103515625</AltitudeMeters>
            <DistanceMeters>NAN</DistanceMeters>
          </Trackpoint>
          <Trackpoint>
            <Time>2020-02-15T11:28:48.000Z</Time>
            <Position>
              <LatitudeDegrees>41.976570747792720794677734375</LatitudeDegrees>
              <LongitudeDegrees>2.86770212464034557342529296875</LongitudeDegrees>
            </Position>
            <AltitudeMeters>309.600006103515625</AltitudeMeters>
            <DistanceMeters>NAN</DistanceMeters>
          </Trackpoint>
          <Trackpoint>
            <Time>2020-02-15T11:28:49.000Z</Time>
            <Position>
              <LatitudeDegrees>41.97653822600841522216796875</LatitudeDegrees>
              <LongitudeDegrees>2.867702208459377288818359375</LongitudeDegrees>
            </Position>
            <AltitudeMeters>309.600006103515625</AltitudeMeters>
            <DistanceMeters>NAN</DistanceMeters>
          </Trackpoint>
          <Trackpoint>
            <Time>2020-02-15T11:28:50.000Z</Time>
            <Position>
              <LatitudeDegrees>41.97650813497602939605712890625</LatitudeDegrees>
              <LongitudeDegrees>2.86770262755453586578369140625</LongitudeDegrees>
            </Position>
            <AltitudeMeters>309.600006103515625</AltitudeMeters>
            <DistanceMeters>NAN</DistanceMeters>
          </Trackpoint>
          <Trackpoint>
            <Time>2020-02-15T11:28:51.000Z</Time>
            <Position>
              <LatitudeDegrees>41.97648013941943645477294921875</LatitudeDegrees>
              <LongitudeDegrees>2.867702543735504150390625</LongitudeDegrees>
            </Position>
            <AltitudeMeters>309.79998779296875</AltitudeMeters>
            <DistanceMeters>NAN</DistanceMeters>
          </Trackpoint>
          <Trackpoint>
            <Time>2020-02-15T11:28:52.000Z</Time>
            <Position>
              <LatitudeDegrees>41.9764545746147632598876953125</LatitudeDegrees>
              <LongitudeDegrees>2.8677000291645526885986328125</LongitudeDegrees>
            </Position>
            <AltitudeMeters>309.79998779296875</AltitudeMeters>
            <DistanceMeters>NAN</DistanceMeters>
          </Trackpoint>
          <Trackpoint>
            <Time>2020-02-15T11:28:53.000Z</Time>
            <Position>
              <LatitudeDegrees>41.97643051855266094207763671875</LatitudeDegrees>
              <LongitudeDegrees>2.8676950000226497650146484375</LongitudeDegrees>
            </Position>
            <AltitudeMeters>310</AltitudeMeters>
            <DistanceMeters>NAN</DistanceMeters>
          </Trackpoint>
          <Trackpoint>
            <Time>2020-02-15T11:28:54.000Z</Time>
            <Position>
              <LatitudeDegrees>41.9764073006808757781982421875</LatitudeDegrees>
              <LongitudeDegrees>2.86769290454685688018798828125</LongitudeDegrees>
            </Position>
            <AltitudeMeters>310.20001220703125</AltitudeMeters>
            <DistanceMeters>NAN</DistanceMeters>
          </Trackpoint>
          <Trackpoint>
            <Time>2020-02-15T11:28:55.000Z</Time>
            <Position>
              <LatitudeDegrees>41.97638508863747119903564453125</LatitudeDegrees>
              <LongitudeDegrees>2.86769374273717403411865234375</LongitudeDegrees>
            </Position>
            <AltitudeMeters>310.399993896484375</AltitudeMeters>
            <DistanceMeters>NAN</DistanceMeters>
          </Trackpoint>
          <Trackpoint>
            <Time>2020-02-15T11:28:56.000Z</Time>
            <Position>
              <LatitudeDegrees>41.9763633795082569122314453125</LatitudeDegrees>
              <LongitudeDegrees>2.8676950000226497650146484375</LongitudeDegrees>
            </Position>
            <AltitudeMeters>310.79998779296875</AltitudeMeters>
            <DistanceMeters>NAN</DistanceMeters>
          </Trackpoint>
          <Trackpoint>
            <Time>2020-02-15T11:28:57.000Z</Time>
            <Position>
              <LatitudeDegrees>41.9763405807316303253173828125</LatitudeDegrees>
              <LongitudeDegrees>2.867696173489093780517578125</LongitudeDegrees>
            </Position>
            <AltitudeMeters>310.79998779296875</AltitudeMeters>
            <DistanceMeters>NAN</DistanceMeters>
          </Trackpoint>
          <Trackpoint>
            <Time>2020-02-15T11:28:58.000Z</Time>
            <Position>
              <LatitudeDegrees>41.97631702758371829986572265625</LatitudeDegrees>
              <LongitudeDegrees>2.86769877187907695770263671875</LongitudeDegrees>
            </Position>
            <AltitudeMeters>311.20001220703125</AltitudeMeters>
            <DistanceMeters>NAN</DistanceMeters>
          </Trackpoint>
          <Trackpoint>
            <Time>2020-02-15T11:28:59.000Z</Time>
            <Position>
              <LatitudeDegrees>41.97629355825483798980712890625</LatitudeDegrees>
              <LongitudeDegrees>2.86770111881196498870849609375</LongitudeDegrees>
            </Position>
            <AltitudeMeters>311.20001220703125</AltitudeMeters>
            <DistanceMeters>NAN</DistanceMeters>
          </Trackpoint>
          <Trackpoint>
            <Time>2020-02-15T11:29:00.000Z</Time>
            <Position>
              <LatitudeDegrees>41.97626925073564052581787109375</LatitudeDegrees>
              <LongitudeDegrees>2.86770212464034557342529296875</LongitudeDegrees>
            </Position>
            <AltitudeMeters>311.399993896484375</AltitudeMeters>
            <DistanceMeters>NAN</DistanceMeters>
          </Trackpoint>
          <Trackpoint>
            <Time>2020-02-15T11:29:01.000Z</Time>
            <Position>
              <LatitudeDegrees>41.9762443564832210540771484375</LatitudeDegrees>
              <LongitudeDegrees>2.8677050583064556121826171875</LongitudeDegrees>
            </Position>
            <AltitudeMeters>311.600006103515625</AltitudeMeters>
            <DistanceMeters>NAN</DistanceMeters>
          </Trackpoint>
          <Trackpoint>
            <Time>2020-02-15T11:29:02.000Z</Time>
            <Position>
              <LatitudeDegrees>41.97621904313564300537109375</LatitudeDegrees>
              <LongitudeDegrees>2.8677110932767391204833984375</LongitudeDegrees>
            </Position>
            <AltitudeMeters>311.600006103515625</AltitudeMeters>
            <DistanceMeters>NAN</DistanceMeters>
          </Trackpoint>
          <Trackpoint>
            <Time>2020-02-15T11:29:03.000Z</Time>
            <Position>
              <LatitudeDegrees>41.9761927239596843719482421875</LatitudeDegrees>
              <LongitudeDegrees>2.86771721206605434417724609375</LongitudeDegrees>
            </Position>
            <AltitudeMeters>311.79998779296875</AltitudeMeters>
            <DistanceMeters>NAN</DistanceMeters>
          </Trackpoint>
          <Trackpoint>
            <Time>2020-02-15T11:29:07.000Z</Time>
            <Position>
              <LatitudeDegrees>41.976077891886234283447265625</LatitudeDegrees>
              <LongitudeDegrees>2.86774788983166217803955078125</LongitudeDegrees>
            </Position>
            <AltitudeMeters>312.20001220703125</AltitudeMeters>
            <DistanceMeters>NAN</DistanceMeters>
          </Trackpoint>
          <Trackpoint>
            <Time>2020-02-15T11:29:09.000Z</Time>
            <Position>
              <LatitudeDegrees>41.976022236049175262451171875</LatitudeDegrees>
              <LongitudeDegrees>2.867776639759540557861328125</LongitudeDegrees>
            </Position>
            <AltitudeMeters>312.399993896484375</AltitudeMeters>
            <DistanceMeters>NAN</DistanceMeters>
          </Trackpoint>
          <Trackpoint>
            <Time>2020-02-15T11:29:11.000Z</Time>
            <Position>
              <LatitudeDegrees>41.97595945559442043304443359375</LatitudeDegrees>
              <LongitudeDegrees>2.86780119873583316802978515625</LongitudeDegrees>
            </Position>
            <AltitudeMeters>312.399993896484375</AltitudeMeters>
            <DistanceMeters>NAN</DistanceMeters>
          </Trackpoint>
          <Trackpoint>
            <Time>2020-02-15T11:29:14.000Z</Time>
            <Position>
              <LatitudeDegrees>41.97586239315569400787353515625</LatitudeDegrees>
              <LongitudeDegrees>2.86784109659492969512939453125</LongitudeDegrees>
            </Position>
            <AltitudeMeters>312.79998779296875</AltitudeMeters>
            <DistanceMeters>NAN</DistanceMeters>
          </Trackpoint>
          <Trackpoint>
            <Time>2020-02-15T11:29:15.000Z</Time>
            <Position>
              <LatitudeDegrees>41.9758319668471813201904296875</LatitudeDegrees>
              <LongitudeDegrees>2.8678539209067821502685546875</LongitudeDegrees>
            </Position>
            <AltitudeMeters>312.79998779296875</AltitudeMeters>
            <DistanceMeters>NAN</DistanceMeters>
          </Trackpoint>
          <Trackpoint>
            <Time>2020-02-15T11:29:16.000Z</Time>
            <Position>
              <LatitudeDegrees>41.97580271400511264801025390625</LatitudeDegrees>
              <LongitudeDegrees>2.86786356009542942047119140625</LongitudeDegrees>
            </Position>
            <AltitudeMeters>312.79998779296875</AltitudeMeters>
            <DistanceMeters>NAN</DistanceMeters>
          </Trackpoint>
          <Trackpoint>
            <Time>2020-02-15T11:29:17.000Z</Time>
            <Position>
              <LatitudeDegrees>41.97577287442982196807861328125</LatitudeDegrees>
              <LongitudeDegrees>2.8678757138550281524658203125</LongitudeDegrees>
            </Position>
            <AltitudeMeters>312.79998779296875</AltitudeMeters>
            <DistanceMeters>NAN</DistanceMeters>
          </Trackpoint>
          <Trackpoint>
            <Time>2020-02-15T11:29:18.000Z</Time>
            <Position>
              <LatitudeDegrees>41.9757427833974361419677734375</LatitudeDegrees>
              <LongitudeDegrees>2.867889963090419769287109375</LongitudeDegrees>
            </Position>
            <AltitudeMeters>313</AltitudeMeters>
            <DistanceMeters>NAN</DistanceMeters>
          </Trackpoint>
          <Trackpoint>
            <Time>2020-02-15T11:29:19.000Z</Time>
            <Position>
              <LatitudeDegrees>41.975712440907955169677734375</LatitudeDegrees>
              <LongitudeDegrees>2.86790211685001850128173828125</LongitudeDegrees>
            </Position>
            <AltitudeMeters>312.79998779296875</AltitudeMeters>
            <DistanceMeters>NAN</DistanceMeters>
          </Trackpoint>
          <Trackpoint>
            <Time>2020-02-15T11:29:21.000Z</Time>
            <Position>
              <LatitudeDegrees>41.97565041482448577880859375</LatitudeDegrees>
              <LongitudeDegrees>2.8679270111024379730224609375</LongitudeDegrees>
            </Position>
            <AltitudeMeters>312.79998779296875</AltitudeMeters>
            <DistanceMeters>NAN</DistanceMeters>
          </Trackpoint>
          <Trackpoint>
            <Time>2020-02-15T11:29:24.000Z</Time>
            <Position>
              <LatitudeDegrees>41.975556872785091400146484375</LatitudeDegrees>
              <LongitudeDegrees>2.86796799860894680023193359375</LongitudeDegrees>
            </Position>
            <AltitudeMeters>312.79998779296875</AltitudeMeters>
            <DistanceMeters>NAN</DistanceMeters>
          </Trackpoint>
          <Trackpoint>
            <Time>2020-02-15T11:29:28.000Z</Time>
            <Position>
              <LatitudeDegrees>41.97542636655271053314208984375</LatitudeDegrees>
              <LongitudeDegrees>2.86802264861762523651123046875</LongitudeDegrees>
            </Position>
            <AltitudeMeters>312.79998779296875</AltitudeMeters>
            <DistanceMeters>NAN</DistanceMeters>
          </Trackpoint>
          <Trackpoint>
            <Time>2020-02-15T11:29:29.000Z</Time>
            <Position>
              <LatitudeDegrees>41.97539535351097583770751953125</LatitudeDegrees>
              <LongitudeDegrees>2.86803404800593852996826171875</LongitudeDegrees>
            </Position>
            <AltitudeMeters>313</AltitudeMeters>
            <DistanceMeters>NAN</DistanceMeters>
          </Trackpoint>
          <Trackpoint>
            <Time>2020-02-15T11:29:30.000Z</Time>
            <Position>
              <LatitudeDegrees>41.97536651976406574249267578125</LatitudeDegrees>
              <LongitudeDegrees>2.86804645322263240814208984375</LongitudeDegrees>
            </Position>
            <AltitudeMeters>312.79998779296875</AltitudeMeters>
            <DistanceMeters>NAN</DistanceMeters>
          </Trackpoint>
          <Trackpoint>
            <Time>2020-02-15T11:29:31.000Z</Time>
            <Position>
              <LatitudeDegrees>41.97533751837909221649169921875</LatitudeDegrees>
              <LongitudeDegrees>2.86805952899158000946044921875</LongitudeDegrees>
            </Position>
            <AltitudeMeters>312.79998779296875</AltitudeMeters>
            <DistanceMeters>NAN</DistanceMeters>
          </Trackpoint>
          <Trackpoint>
            <Time>2020-02-15T11:29:33.000Z</Time>
            <Position>
              <LatitudeDegrees>41.97527230717241764068603515625</LatitudeDegrees>
              <LongitudeDegrees>2.86808081902563571929931640625</LongitudeDegrees>
            </Position>
            <AltitudeMeters>312.79998779296875</AltitudeMeters>
            <DistanceMeters>NAN</DistanceMeters>
          </Trackpoint>
          <Trackpoint>
            <Time>2020-02-15T11:29:34.000Z</Time>
            <Position>
              <LatitudeDegrees>41.975235007703304290771484375</LatitudeDegrees>
              <LongitudeDegrees>2.8680892847478389739990234375</LongitudeDegrees>
            </Position>
            <AltitudeMeters>312.79998779296875</AltitudeMeters>
            <DistanceMeters>NAN</DistanceMeters>
          </Trackpoint>
          <Trackpoint>
            <Time>2020-02-15T11:29:36.000Z</Time>
            <Position>
              <LatitudeDegrees>41.9751570560038089752197265625</LatitudeDegrees>
              <LongitudeDegrees>2.86809724755585193634033203125</LongitudeDegrees>
            </Position>
            <AltitudeMeters>312.79998779296875</AltitudeMeters>
            <DistanceMeters>NAN</DistanceMeters>
          </Trackpoint>
          <Trackpoint>
            <Time>2020-02-15T11:29:38.000Z</Time>
            <Position>
              <LatitudeDegrees>41.97507885284721851348876953125</LatitudeDegrees>
              <LongitudeDegrees>2.8680919669568538665771484375</LongitudeDegrees>
            </Position>
            <AltitudeMeters>312.79998779296875</AltitudeMeters>
            <DistanceMeters>NAN</DistanceMeters>
          </Trackpoint>
          <Trackpoint>
            <Time>2020-02-15T11:29:40.000Z</Time>
            <Position>
              <LatitudeDegrees>41.97499821893870830535888671875</LatitudeDegrees>
              <LongitudeDegrees>2.868099175393581390380859375</LongitudeDegrees>
            </Position>
            <AltitudeMeters>312.600006103515625</AltitudeMeters>
            <DistanceMeters>NAN</DistanceMeters>
          </Trackpoint>
          <Trackpoint>
            <Time>2020-02-15T11:29:41.000Z</Time>
            <Position>
              <LatitudeDegrees>41.97495832107961177825927734375</LatitudeDegrees>
              <LongitudeDegrees>2.8681073896586894989013671875</LongitudeDegrees>
            </Position>
            <AltitudeMeters>312.600006103515625</AltitudeMeters>
            <DistanceMeters>NAN</DistanceMeters>
          </Trackpoint>
          <Trackpoint>
            <Time>2020-02-15T11:29:42.000Z</Time>
            <Position>
              <LatitudeDegrees>41.97491724975407123565673828125</LatitudeDegrees>
              <LongitudeDegrees>2.8681182861328125</LongitudeDegrees>
            </Position>
            <AltitudeMeters>312.600006103515625</AltitudeMeters>
            <DistanceMeters>NAN</DistanceMeters>
          </Trackpoint>
          <Trackpoint>
            <Time>2020-02-15T11:29:43.000Z</Time>
            <Position>
              <LatitudeDegrees>41.97487953118979930877685546875</LatitudeDegrees>
              <LongitudeDegrees>2.86813764832913875579833984375</LongitudeDegrees>
            </Position>
            <AltitudeMeters>312.600006103515625</AltitudeMeters>
            <DistanceMeters>NAN</DistanceMeters>
          </Trackpoint>
          <Trackpoint>
            <Time>2020-02-15T11:29:44.000Z</Time>
            <Position>
              <LatitudeDegrees>41.9748412258923053741455078125</LatitudeDegrees>
              <LongitudeDegrees>2.86816120147705078125</LongitudeDegrees>
            </Position>
            <AltitudeMeters>312.399993896484375</AltitudeMeters>
            <DistanceMeters>NAN</DistanceMeters>
          </Trackpoint>
          <Trackpoint>
            <Time>2020-02-15T11:29:45.000Z</Time>
            <Position>
              <LatitudeDegrees>41.9747986458241939544677734375</LatitudeDegrees>
              <LongitudeDegrees>2.868180982768535614013671875</LongitudeDegrees>
            </Position>
            <AltitudeMeters>312.399993896484375</AltitudeMeters>
            <DistanceMeters>NAN</DistanceMeters>
          </Trackpoint>
          <Trackpoint>
            <Time>2020-02-15T11:29:46.000Z</Time>
            <Position>
              <LatitudeDegrees>41.9747527129948139190673828125</LatitudeDegrees>
              <LongitudeDegrees>2.86819514818489551544189453125</LongitudeDegrees>
            </Position>
            <AltitudeMeters>312.399993896484375</AltitudeMeters>
            <DistanceMeters>NAN</DistanceMeters>
          </Trackpoint>
          <Trackpoint>
            <Time>2020-02-15T11:29:47.000Z</Time>
            <Position>
              <LatitudeDegrees>41.9747064448893070220947265625</LatitudeDegrees>
              <LongitudeDegrees>2.86820478737354278564453125</LongitudeDegrees>
            </Position>
            <AltitudeMeters>312.20001220703125</AltitudeMeters>
            <DistanceMeters>NAN</DistanceMeters>
          </Trackpoint>
          <Trackpoint>
            <Time>2020-02-15T11:29:48.000Z</Time>
            <Position>
              <LatitudeDegrees>41.97465824894607067108154296875</LatitudeDegrees>
              <LongitudeDegrees>2.86820805631577968597412109375</LongitudeDegrees>
            </Position>
            <AltitudeMeters>312.20001220703125</AltitudeMeters>
            <DistanceMeters>NAN</DistanceMeters>
          </Trackpoint>
          <Trackpoint>
            <Time>2020-02-15T11:29:49.000Z</Time>
            <Position>
              <LatitudeDegrees>41.974610388278961181640625</LatitudeDegrees>
              <LongitudeDegrees>2.86820755340158939361572265625</LongitudeDegrees>
            </Position>
            <AltitudeMeters>312</AltitudeMeters>
            <DistanceMeters>NAN</DistanceMeters>
          </Trackpoint>
          <Trackpoint>
            <Time>2020-02-15T11:29:50.000Z</Time>
            <Position>
              <LatitudeDegrees>41.9745619408786296844482421875</LatitudeDegrees>
              <LongitudeDegrees>2.86819866858422756195068359375</LongitudeDegrees>
            </Position>
            <AltitudeMeters>312</AltitudeMeters>
            <DistanceMeters>NAN</DistanceMeters>
          </Trackpoint>
          <Trackpoint>
            <Time>2020-02-15T11:29:51.000Z</Time>
            <Position>
              <LatitudeDegrees>41.97451315820217132568359375</LatitudeDegrees>
              <LongitudeDegrees>2.86818508990108966827392578125</LongitudeDegrees>
            </Position>
            <AltitudeMeters>312</AltitudeMeters>
            <DistanceMeters>NAN</DistanceMeters>
          </Trackpoint>
          <Trackpoint>
            <Time>2020-02-15T11:29:55.000Z</Time>
            <Position>
              <LatitudeDegrees>41.97432129643857479095458984375</LatitudeDegrees>
              <LongitudeDegrees>2.868091128766536712646484375</LongitudeDegrees>
            </Position>
            <AltitudeMeters>311.399993896484375</AltitudeMeters>
            <DistanceMeters>NAN</DistanceMeters>
          </Trackpoint>
          <Trackpoint>
            <Time>2020-02-15T11:29:56.000Z</Time>
            <Position>
              <LatitudeDegrees>41.9742769561707973480224609375</LatitudeDegrees>
              <LongitudeDegrees>2.868051230907440185546875</LongitudeDegrees>
            </Position>
            <AltitudeMeters>311</AltitudeMeters>
            <DistanceMeters>NAN</DistanceMeters>
          </Trackpoint>
          <Trackpoint>
            <Time>2020-02-15T11:29:57.000Z</Time>
            <Position>
              <LatitudeDegrees>41.9742357172071933746337890625</LatitudeDegrees>
              <LongitudeDegrees>2.868005298078060150146484375</LongitudeDegrees>
            </Position>
            <AltitudeMeters>310.79998779296875</AltitudeMeters>
            <DistanceMeters>NAN</DistanceMeters>
          </Trackpoint>
          <Trackpoint>
            <Time>2020-02-15T11:29:58.000Z</Time>
            <Position>
              <LatitudeDegrees>41.97419540025293827056884765625</LatitudeDegrees>
              <LongitudeDegrees>2.867957018315792083740234375</LongitudeDegrees>
            </Position>
            <AltitudeMeters>310.79998779296875</AltitudeMeters>
            <DistanceMeters>NAN</DistanceMeters>
          </Trackpoint>
          <Trackpoint>
            <Time>2020-02-15T11:29:59.000Z</Time>
            <Position>
              <LatitudeDegrees>41.9741559214890003204345703125</LatitudeDegrees>
              <LongitudeDegrees>2.8679062239825725555419921875</LongitudeDegrees>
            </Position>
            <AltitudeMeters>310.600006103515625</AltitudeMeters>
            <DistanceMeters>NAN</DistanceMeters>
          </Trackpoint>
          <Trackpoint>
            <Time>2020-02-15T11:30:01.000Z</Time>
            <Position>
              <LatitudeDegrees>41.97407864034175872802734375</LatitudeDegrees>
              <LongitudeDegrees>2.86781251430511474609375</LongitudeDegrees>
            </Position>
            <AltitudeMeters>310.399993896484375</AltitudeMeters>
            <DistanceMeters>NAN</DistanceMeters>
          </Trackpoint>
          <Trackpoint>
            <Time>2020-02-15T11:30:02.000Z</Time>
            <Position>
              <LatitudeDegrees>41.97404335252940654754638671875</LatitudeDegrees>
              <LongitudeDegrees>2.867781333625316619873046875</LongitudeDegrees>
            </Position>
            <AltitudeMeters>310.20001220703125</AltitudeMeters>
            <DistanceMeters>NAN</DistanceMeters>
          </Trackpoint>
          <Trackpoint>
            <Time>2020-02-15T11:30:03.000Z</Time>
            <Position>
              <LatitudeDegrees>41.974017620086669921875</LatitudeDegrees>
              <LongitudeDegrees>2.86776381544768810272216796875</LongitudeDegrees>
            </Position>
            <AltitudeMeters>310</AltitudeMeters>
            <DistanceMeters>NAN</DistanceMeters>
          </Trackpoint>
          <Trackpoint>
            <Time>2020-02-15T11:30:04.000Z</Time>
            <Position>
              <LatitudeDegrees>41.97399758733808994293212890625</LatitudeDegrees>
              <LongitudeDegrees>2.867752499878406524658203125</LongitudeDegrees>
            </Position>
            <AltitudeMeters>309.79998779296875</AltitudeMeters>
            <DistanceMeters>NAN</DistanceMeters>
          </Trackpoint>
          <Trackpoint>
            <Time>2020-02-15T11:30:05.000Z</Time>
            <Position>
              <LatitudeDegrees>41.97398233227431774139404296875</LatitudeDegrees>
              <LongitudeDegrees>2.86774269305169582366943359375</LongitudeDegrees>
            </Position>
            <AltitudeMeters>309.600006103515625</AltitudeMeters>
            <DistanceMeters>NAN</DistanceMeters>
          </Trackpoint>
          <Trackpoint>
            <Time>2020-02-15T11:30:06.000Z</Time>
            <Position>
              <LatitudeDegrees>41.97396640665829181671142578125</LatitudeDegrees>
              <LongitudeDegrees>2.8677335567772388458251953125</LongitudeDegrees>
            </Position>
            <AltitudeMeters>309.600006103515625</AltitudeMeters>
            <DistanceMeters>NAN</DistanceMeters>
          </Trackpoint>
          <Trackpoint>
            <Time>2020-02-15T11:30:07.000Z</Time>
            <Position>
              <LatitudeDegrees>41.9739493913948535919189453125</LatitudeDegrees>
              <LongitudeDegrees>2.8677231632173061370849609375</LongitudeDegrees>
            </Position>
            <AltitudeMeters>309.20001220703125</AltitudeMeters>
            <DistanceMeters>NAN</DistanceMeters>
          </Trackpoint>
          <Trackpoint>
            <Time>2020-02-15T11:30:08.000Z</Time>
            <Position>
              <LatitudeDegrees>41.97393380105495452880859375</LatitudeDegrees>
              <LongitudeDegrees>2.867713272571563720703125</LongitudeDegrees>
            </Position>
            <AltitudeMeters>309</AltitudeMeters>
            <DistanceMeters>NAN</DistanceMeters>
          </Trackpoint>
          <Trackpoint>
            <Time>2020-02-15T11:30:09.000Z</Time>
            <Position>
              <LatitudeDegrees>41.973916031420230865478515625</LatitudeDegrees>
              <LongitudeDegrees>2.86770480684936046600341796875</LongitudeDegrees>
            </Position>
            <AltitudeMeters>308.600006103515625</AltitudeMeters>
            <DistanceMeters>NAN</DistanceMeters>
          </Trackpoint>
          <Trackpoint>
            <Time>2020-02-15T11:30:10.000Z</Time>
            <Position>
              <LatitudeDegrees>41.97389893233776092529296875</LatitudeDegrees>
              <LongitudeDegrees>2.86769650876522064208984375</LongitudeDegrees>
            </Position>
            <AltitudeMeters>308.399993896484375</AltitudeMeters>
            <DistanceMeters>NAN</DistanceMeters>
          </Trackpoint>
          <Trackpoint>
            <Time>2020-02-15T11:30:11.000Z</Time>
            <Position>
              <LatitudeDegrees>41.97388342581689357757568359375</LatitudeDegrees>
              <LongitudeDegrees>2.86768653430044651031494140625</LongitudeDegrees>
            </Position>
            <AltitudeMeters>308</AltitudeMeters>
            <DistanceMeters>NAN</DistanceMeters>
          </Trackpoint>
          <Trackpoint>
            <Time>2020-02-15T11:30:12.000Z</Time>
            <Position>
              <LatitudeDegrees>41.97386833839118480682373046875</LatitudeDegrees>
              <LongitudeDegrees>2.8676772303879261016845703125</LongitudeDegrees>
            </Position>
            <AltitudeMeters>308</AltitudeMeters>
            <DistanceMeters>NAN</DistanceMeters>
          </Trackpoint>
          <Trackpoint>
            <Time>2020-02-15T11:30:13.000Z</Time>
            <Position>
              <LatitudeDegrees>41.97385140694677829742431640625</LatitudeDegrees>
              <LongitudeDegrees>2.86767127923667430877685546875</LongitudeDegrees>
            </Position>
            <AltitudeMeters>307.79998779296875</AltitudeMeters>
            <DistanceMeters>NAN</DistanceMeters>
          </Trackpoint>
          <Trackpoint>
            <Time>2020-02-15T11:30:14.000Z</Time>
            <Position>
              <LatitudeDegrees>41.97383514605462551116943359375</LatitudeDegrees>
              <LongitudeDegrees>2.8676628135144710540771484375</LongitudeDegrees>
            </Position>
            <AltitudeMeters>307.600006103515625</AltitudeMeters>
            <DistanceMeters>NAN</DistanceMeters>
          </Trackpoint>
          <Trackpoint>
            <Time>2020-02-15T11:30:15.000Z</Time>
            <Position>
              <LatitudeDegrees>41.97382123209536075592041015625</LatitudeDegrees>
              <LongitudeDegrees>2.86765233613550662994384765625</LongitudeDegrees>
            </Position>
            <AltitudeMeters>307.600006103515625</AltitudeMeters>
            <DistanceMeters>NAN</DistanceMeters>
          </Trackpoint>
          <Trackpoint>
            <Time>2020-02-15T11:30:16.000Z</Time>
            <Position>
              <LatitudeDegrees>41.97380664758384227752685546875</LatitudeDegrees>
              <LongitudeDegrees>2.8676423616707324981689453125</LongitudeDegrees>
            </Position>
            <AltitudeMeters>307.399993896484375</AltitudeMeters>
            <DistanceMeters>NAN</DistanceMeters>
          </Trackpoint>
          <Trackpoint>
            <Time>2020-02-15T11:30:17.000Z</Time>
            <Position>
              <LatitudeDegrees>41.973793320357799530029296875</LatitudeDegrees>
              <LongitudeDegrees>2.86763356067240238189697265625</LongitudeDegrees>
            </Position>
            <AltitudeMeters>307.399993896484375</AltitudeMeters>
            <DistanceMeters>NAN</DistanceMeters>
          </Trackpoint>
          <Trackpoint>
            <Time>2020-02-15T11:30:18.000Z</Time>
            <Position>
              <LatitudeDegrees>41.97378133423626422882080078125</LatitudeDegrees>
              <LongitudeDegrees>2.8676289506256580352783203125</LongitudeDegrees>
            </Position>
            <AltitudeMeters>307.399993896484375</AltitudeMeters>
            <DistanceMeters>NAN</DistanceMeters>
          </Trackpoint>
          <Trackpoint>
            <Time>2020-02-15T11:30:19.000Z</Time>
            <Position>
              <LatitudeDegrees>41.97376725263893604278564453125</LatitudeDegrees>
              <LongitudeDegrees>2.8676314651966094970703125</LongitudeDegrees>
            </Position>
            <AltitudeMeters>307.399993896484375</AltitudeMeters>
            <DistanceMeters>NAN</DistanceMeters>
          </Trackpoint>
          <Trackpoint>
            <Time>2020-02-15T11:30:20.000Z</Time>
            <Position>
              <LatitudeDegrees>41.97375484742224216461181640625</LatitudeDegrees>
              <LongitudeDegrees>2.8676396794617176055908203125</LongitudeDegrees>
            </Position>
            <AltitudeMeters>307.20001220703125</AltitudeMeters>
            <DistanceMeters>NAN</DistanceMeters>
          </Trackpoint>
          <Trackpoint>
            <Time>2020-02-15T11:30:21.000Z</Time>
            <Position>
              <LatitudeDegrees>41.97375115938484668731689453125</LatitudeDegrees>
              <LongitudeDegrees>2.86765216849744319915771484375</LongitudeDegrees>
            </Position>
            <AltitudeMeters>307.20001220703125</AltitudeMeters>
            <DistanceMeters>NAN</DistanceMeters>
          </Trackpoint>
          <Trackpoint>
            <Time>2020-02-15T11:30:22.000Z</Time>
            <Position>
              <LatitudeDegrees>41.9737587869167327880859375</LatitudeDegrees>
              <LongitudeDegrees>2.86766289733350276947021484375</LongitudeDegrees>
            </Position>
            <AltitudeMeters>307.20001220703125</AltitudeMeters>
            <DistanceMeters>NAN</DistanceMeters>
          </Trackpoint>
          <Trackpoint>
            <Time>2020-02-15T11:30:24.000Z</Time>
            <Position>
              <LatitudeDegrees>41.97379474528133869171142578125</LatitudeDegrees>
              <LongitudeDegrees>2.86766960285604000091552734375</LongitudeDegrees>
            </Position>
            <AltitudeMeters>307.20001220703125</AltitudeMeters>
            <DistanceMeters>NAN</DistanceMeters>
          </Trackpoint>
          <Trackpoint>
            <Time>2020-02-15T11:30:25.000Z</Time>
            <Position>
              <LatitudeDegrees>41.97381402365863323211669921875</LatitudeDegrees>
              <LongitudeDegrees>2.867680750787258148193359375</LongitudeDegrees>
            </Position>
            <AltitudeMeters>307.20001220703125</AltitudeMeters>
            <DistanceMeters>NAN</DistanceMeters>
          </Trackpoint>
          <Trackpoint>
            <Time>2020-02-15T11:30:26.000Z</Time>
            <Position>
              <LatitudeDegrees>41.97383455932140350341796875</LatitudeDegrees>
              <LongitudeDegrees>2.867695502936840057373046875</LongitudeDegrees>
            </Position>
            <AltitudeMeters>307.20001220703125</AltitudeMeters>
            <DistanceMeters>NAN</DistanceMeters>
          </Trackpoint>
          <Trackpoint>
            <Time>2020-02-15T11:30:28.000Z</Time>
            <Position>
              <LatitudeDegrees>41.973883844912052154541015625</LatitudeDegrees>
              <LongitudeDegrees>2.86772374995052814483642578125</LongitudeDegrees>
            </Position>
            <AltitudeMeters>307.20001220703125</AltitudeMeters>
            <DistanceMeters>NAN</DistanceMeters>
          </Trackpoint>
          <Trackpoint>
            <Time>2020-02-15T11:30:29.000Z</Time>
            <Position>
              <LatitudeDegrees>41.97390823625028133392333984375</LatitudeDegrees>
              <LongitudeDegrees>2.86773540079593658447265625</LongitudeDegrees>
            </Position>
            <AltitudeMeters>307.20001220703125</AltitudeMeters>
            <DistanceMeters>NAN</DistanceMeters>
          </Trackpoint>
          <Trackpoint>
            <Time>2020-02-15T11:30:30.000Z</Time>
            <Position>
              <LatitudeDegrees>41.97392902337014675140380859375</LatitudeDegrees>
              <LongitudeDegrees>2.86775006912648677825927734375</LongitudeDegrees>
            </Position>
            <AltitudeMeters>307.20001220703125</AltitudeMeters>
            <DistanceMeters>NAN</DistanceMeters>
          </Trackpoint>
          <Trackpoint>
            <Time>2020-02-15T11:30:31.000Z</Time>
            <Position>
              <LatitudeDegrees>41.97394788265228271484375</LatitudeDegrees>
              <LongitudeDegrees>2.8677674196660518646240234375</LongitudeDegrees>
            </Position>
            <AltitudeMeters>307.20001220703125</AltitudeMeters>
            <DistanceMeters>NAN</DistanceMeters>
          </Trackpoint>
          <Trackpoint>
            <Time>2020-02-15T11:30:32.000Z</Time>
            <Position>
              <LatitudeDegrees>41.9739679992198944091796875</LatitudeDegrees>
              <LongitudeDegrees>2.86778208799660205841064453125</LongitudeDegrees>
            </Position>
            <AltitudeMeters>307.20001220703125</AltitudeMeters>
            <DistanceMeters>NAN</DistanceMeters>
          </Trackpoint>
          <Trackpoint>
            <Time>2020-02-15T11:30:33.000Z</Time>
            <Position>
              <LatitudeDegrees>41.97398803196847438812255859375</LatitudeDegrees>
              <LongitudeDegrees>2.86778912879526615142822265625</LongitudeDegrees>
            </Position>
            <AltitudeMeters>307.20001220703125</AltitudeMeters>
            <DistanceMeters>NAN</DistanceMeters>
          </Trackpoint>
          <Trackpoint>
            <Time>2020-02-15T11:30:34.000Z</Time>
            <Position>
              <LatitudeDegrees>41.97400546632707118988037109375</LatitudeDegrees>
              <LongitudeDegrees>2.86778946407139301300048828125</LongitudeDegrees>
            </Position>
            <AltitudeMeters>307.20001220703125</AltitudeMeters>
            <DistanceMeters>NAN</DistanceMeters>
          </Trackpoint>
          <Trackpoint>
            <Time>2020-02-15T11:30:35.000Z</Time>
            <Position>
              <LatitudeDegrees>41.97401954792439937591552734375</LatitudeDegrees>
              <LongitudeDegrees>2.8677845187485218048095703125</LongitudeDegrees>
            </Position>
            <AltitudeMeters>307.20001220703125</AltitudeMeters>
            <DistanceMeters>NAN</DistanceMeters>
          </Trackpoint>
          <Trackpoint>
            <Time>2020-02-15T11:30:36.000Z</Time>
            <Position>
              <LatitudeDegrees>41.974030025303363800048828125</LatitudeDegrees>
              <LongitudeDegrees>2.86777521483600139617919921875</LongitudeDegrees>
            </Position>
            <AltitudeMeters>307.20001220703125</AltitudeMeters>
            <DistanceMeters>NAN</DistanceMeters>
          </Trackpoint>
          <Trackpoint>
            <Time>2020-02-15T11:30:37.000Z</Time>
            <Position>
              <LatitudeDegrees>41.97403798811137676239013671875</LatitudeDegrees>
              <LongitudeDegrees>2.86776079796254634857177734375</LongitudeDegrees>
            </Position>
            <AltitudeMeters>307.20001220703125</AltitudeMeters>
            <DistanceMeters>NAN</DistanceMeters>
          </Trackpoint>
          <Trackpoint>
            <Time>2020-02-15T11:30:38.000Z</Time>
            <Position>
              <LatitudeDegrees>41.97405022569000720977783203125</LatitudeDegrees>
              <LongitudeDegrees>2.8677382506430149078369140625</LongitudeDegrees>
            </Position>
            <AltitudeMeters>307.399993896484375</AltitudeMeters>
            <DistanceMeters>NAN</DistanceMeters>
          </Trackpoint>
          <Trackpoint>
            <Time>2020-02-15T11:30:39.000Z</Time>
            <Position>
              <LatitudeDegrees>41.9740610383450984954833984375</LatitudeDegrees>
              <LongitudeDegrees>2.8677100874483585357666015625</LongitudeDegrees>
            </Position>
            <AltitudeMeters>307.399993896484375</AltitudeMeters>
            <DistanceMeters>NAN</DistanceMeters>
          </Trackpoint>
          <Trackpoint>
            <Time>2020-02-15T11:30:40.000Z</Time>
            <Position>
              <LatitudeDegrees>41.97406254708766937255859375</LatitudeDegrees>
              <LongitudeDegrees>2.86768452264368534088134765625</LongitudeDegrees>
            </Position>
            <AltitudeMeters>307.20001220703125</AltitudeMeters>
            <DistanceMeters>NAN</DistanceMeters>
          </Trackpoint>
          <Trackpoint>
            <Time>2020-02-15T11:30:41.000Z</Time>
            <Position>
              <LatitudeDegrees>41.97405408136546611785888671875</LatitudeDegrees>
              <LongitudeDegrees>2.86766943521797657012939453125</LongitudeDegrees>
            </Position>
            <AltitudeMeters>307.20001220703125</AltitudeMeters>
            <DistanceMeters>NAN</DistanceMeters>
          </Trackpoint>
          <Trackpoint>
            <Time>2020-02-15T11:30:42.000Z</Time>
            <Position>
              <LatitudeDegrees>41.9740422628819942474365234375</LatitudeDegrees>
              <LongitudeDegrees>2.86765971221029758453369140625</LongitudeDegrees>
            </Position>
            <AltitudeMeters>307.20001220703125</AltitudeMeters>
            <DistanceMeters>NAN</DistanceMeters>
          </Trackpoint>
          <Trackpoint>
            <Time>2020-02-15T11:30:43.000Z</Time>
            <Position>
              <LatitudeDegrees>41.97402658872306346893310546875</LatitudeDegrees>
              <LongitudeDegrees>2.86764780990779399871826171875</LongitudeDegrees>
            </Position>
            <AltitudeMeters>307.20001220703125</AltitudeMeters>
            <DistanceMeters>NAN</DistanceMeters>
          </Trackpoint>
          <Trackpoint>
            <Time>2020-02-15T11:30:44.000Z</Time>
            <Position>
              <LatitudeDegrees>41.97400630451738834381103515625</LatitudeDegrees>
              <LongitudeDegrees>2.86763615906238555908203125</LongitudeDegrees>
            </Position>
            <AltitudeMeters>307.20001220703125</AltitudeMeters>
            <DistanceMeters>NAN</DistanceMeters>
          </Trackpoint>
          <Trackpoint>
            <Time>2020-02-15T11:30:45.000Z</Time>
            <Position>
              <LatitudeDegrees>41.97398568503558635711669921875</LatitudeDegrees>
              <LongitudeDegrees>2.86762987263500690460205078125</LongitudeDegrees>
            </Position>
            <AltitudeMeters>307.20001220703125</AltitudeMeters>
            <DistanceMeters>NAN</DistanceMeters>
          </Trackpoint>
          <Trackpoint>
            <Time>2020-02-15T11:30:46.000Z</Time>
            <Position>
              <LatitudeDegrees>41.97396640665829181671142578125</LatitudeDegrees>
              <LongitudeDegrees>2.8676262684166431427001953125</LongitudeDegrees>
            </Position>
            <AltitudeMeters>307.399993896484375</AltitudeMeters>
            <DistanceMeters>NAN</DistanceMeters>
          </Trackpoint>
          <Trackpoint>
            <Time>2020-02-15T11:30:47.000Z</Time>
            <Position>
              <LatitudeDegrees>41.9739467091858386993408203125</LatitudeDegrees>
              <LongitudeDegrees>2.86761763505637645721435546875</LongitudeDegrees>
            </Position>
            <AltitudeMeters>307.20001220703125</AltitudeMeters>
            <DistanceMeters>NAN</DistanceMeters>
          </Trackpoint>
          <Trackpoint>
            <Time>2020-02-15T11:30:48.000Z</Time>
            <Position>
              <LatitudeDegrees>41.97392818517982959747314453125</LatitudeDegrees>
              <LongitudeDegrees>2.867604978382587432861328125</LongitudeDegrees>
            </Position>
            <AltitudeMeters>307.20001220703125</AltitudeMeters>
            <DistanceMeters>NAN</DistanceMeters>
          </Trackpoint>
          <Trackpoint>
            <Time>2020-02-15T11:30:49.000Z</Time>
            <Position>
              <LatitudeDegrees>41.97390739805996417999267578125</LatitudeDegrees>
              <LongitudeDegrees>2.86759248934686183929443359375</LongitudeDegrees>
            </Position>
            <AltitudeMeters>306.79998779296875</AltitudeMeters>
            <DistanceMeters>NAN</DistanceMeters>
          </Trackpoint>
          <Trackpoint>
            <Time>2020-02-15T11:30:50.000Z</Time>
            <Position>
              <LatitudeDegrees>41.973887197673320770263671875</LatitudeDegrees>
              <LongitudeDegrees>2.86757287569344043731689453125</LongitudeDegrees>
            </Position>
            <AltitudeMeters>306.600006103515625</AltitudeMeters>
            <DistanceMeters>NAN</DistanceMeters>
          </Trackpoint>
          <Trackpoint>
            <Time>2020-02-15T11:30:51.000Z</Time>
            <Position>
              <LatitudeDegrees>41.9738685898482799530029296875</LatitudeDegrees>
              <LongitudeDegrees>2.8675429522991180419921875</LongitudeDegrees>
            </Position>
            <AltitudeMeters>306.399993896484375</AltitudeMeters>
            <DistanceMeters>NAN</DistanceMeters>
          </Trackpoint>
          <Trackpoint>
            <Time>2020-02-15T11:30:52.000Z</Time>
            <Position>
              <LatitudeDegrees>41.97384797036647796630859375</LatitudeDegrees>
              <LongitudeDegrees>2.86750665865838527679443359375</LongitudeDegrees>
            </Position>
            <AltitudeMeters>306</AltitudeMeters>
            <DistanceMeters>NAN</DistanceMeters>
          </Trackpoint>
          <Trackpoint>
            <Time>2020-02-15T11:30:53.000Z</Time>
            <Position>
              <LatitudeDegrees>41.97382659651339054107666015625</LatitudeDegrees>
              <LongitudeDegrees>2.86746055819094181060791015625</LongitudeDegrees>
            </Position>
            <AltitudeMeters>305.79998779296875</AltitudeMeters>
            <DistanceMeters>NAN</DistanceMeters>
          </Trackpoint>
          <Trackpoint>
            <Time>2020-02-15T11:30:54.000Z</Time>
            <Position>
              <LatitudeDegrees>41.9738058932125568389892578125</LatitudeDegrees>
              <LongitudeDegrees>2.86740683019161224365234375</LongitudeDegrees>
            </Position>
            <AltitudeMeters>305.600006103515625</AltitudeMeters>
            <DistanceMeters>NAN</DistanceMeters>
          </Trackpoint>
          <Trackpoint>
            <Time>2020-02-15T11:30:55.000Z</Time>
            <Position>
              <LatitudeDegrees>41.9737841002643108367919921875</LatitudeDegrees>
              <LongitudeDegrees>2.86735318601131439208984375</LongitudeDegrees>
            </Position>
            <AltitudeMeters>305.20001220703125</AltitudeMeters>
            <DistanceMeters>NAN</DistanceMeters>
          </Trackpoint>
          <Trackpoint>
            <Time>2020-02-15T11:30:56.000Z</Time>
            <Position>
              <LatitudeDegrees>41.97375870309770107269287109375</LatitudeDegrees>
              <LongitudeDegrees>2.86730398423969745635986328125</LongitudeDegrees>
            </Position>
            <AltitudeMeters>305.20001220703125</AltitudeMeters>
            <DistanceMeters>NAN</DistanceMeters>
          </Trackpoint>
          <Trackpoint>
            <Time>2020-02-15T11:30:57.000Z</Time>
            <Position>
              <LatitudeDegrees>41.9737264327704906463623046875</LatitudeDegrees>
              <LongitudeDegrees>2.867259643971920013427734375</LongitudeDegrees>
            </Position>
            <AltitudeMeters>305</AltitudeMeters>
            <DistanceMeters>NAN</DistanceMeters>
          </Trackpoint>
          <Trackpoint>
            <Time>2020-02-15T11:30:58.000Z</Time>
            <Position>
              <LatitudeDegrees>41.97369097732007503509521484375</LatitudeDegrees>
              <LongitudeDegrees>2.86722167395055294036865234375</LongitudeDegrees>
            </Position>
            <AltitudeMeters>304.79998779296875</AltitudeMeters>
            <DistanceMeters>NAN</DistanceMeters>
          </Trackpoint>
          <Trackpoint>
            <Time>2020-02-15T11:30:59.000Z</Time>
            <Position>
              <LatitudeDegrees>41.973647810518741607666015625</LatitudeDegrees>
              <LongitudeDegrees>2.86718714050948619842529296875</LongitudeDegrees>
            </Position>
            <AltitudeMeters>304.79998779296875</AltitudeMeters>
            <DistanceMeters>NAN</DistanceMeters>
          </Trackpoint>
          <Trackpoint>
            <Time>2020-02-15T11:31:00.000Z</Time>
            <Position>
              <LatitudeDegrees>41.973600871860980987548828125</LatitudeDegrees>
              <LongitudeDegrees>2.86715470254421234130859375</LongitudeDegrees>
            </Position>
            <AltitudeMeters>304.600006103515625</AltitudeMeters>
            <DistanceMeters>NAN</DistanceMeters>
          </Trackpoint>
          <Trackpoint>
            <Time>2020-02-15T11:31:02.000Z</Time>
            <Position>
              <LatitudeDegrees>41.97350942529737949371337890625</LatitudeDegrees>
              <LongitudeDegrees>2.86708764731884002685546875</LongitudeDegrees>
            </Position>
            <AltitudeMeters>303.79998779296875</AltitudeMeters>
            <DistanceMeters>NAN</DistanceMeters>
          </Trackpoint>
          <Trackpoint>
            <Time>2020-02-15T11:31:03.000Z</Time>
            <Position>
              <LatitudeDegrees>41.97346885688602924346923828125</LatitudeDegrees>
              <LongitudeDegrees>2.86704665981233119964599609375</LongitudeDegrees>
            </Position>
            <AltitudeMeters>303.600006103515625</AltitudeMeters>
            <DistanceMeters>NAN</DistanceMeters>
          </Trackpoint>
          <Trackpoint>
            <Time>2020-02-15T11:31:04.000Z</Time>
            <Position>
              <LatitudeDegrees>41.97343599982559680938720703125</LatitudeDegrees>
              <LongitudeDegrees>2.8669986315071582794189453125</LongitudeDegrees>
            </Position>
            <AltitudeMeters>303.20001220703125</AltitudeMeters>
            <DistanceMeters>NAN</DistanceMeters>
          </Trackpoint>
          <Trackpoint>
            <Time>2020-02-15T11:31:05.000Z</Time>
            <Position>
              <LatitudeDegrees>41.97340649552643299102783203125</LatitudeDegrees>
              <LongitudeDegrees>2.86694607697427272796630859375</LongitudeDegrees>
            </Position>
            <AltitudeMeters>303.20001220703125</AltitudeMeters>
            <DistanceMeters>NAN</DistanceMeters>
          </Trackpoint>
          <Trackpoint>
            <Time>2020-02-15T11:31:06.000Z</Time>
            <Position>
              <LatitudeDegrees>41.97338805533945560455322265625</LatitudeDegrees>
              <LongitudeDegrees>2.86688924767076969146728515625</LongitudeDegrees>
            </Position>
            <AltitudeMeters>302.600006103515625</AltitudeMeters>
            <DistanceMeters>NAN</DistanceMeters>
          </Trackpoint>
          <Trackpoint>
            <Time>2020-02-15T11:31:07.000Z</Time>
            <Position>
              <LatitudeDegrees>41.9733804278075695037841796875</LatitudeDegrees>
              <LongitudeDegrees>2.8668269701302051544189453125</LongitudeDegrees>
            </Position>
            <AltitudeMeters>302.399993896484375</AltitudeMeters>
            <DistanceMeters>NAN</DistanceMeters>
          </Trackpoint>
          <Trackpoint>
            <Time>2020-02-15T11:31:08.000Z</Time>
            <Position>
              <LatitudeDegrees>41.97338260710239410400390625</LatitudeDegrees>
              <LongitudeDegrees>2.86676435731351375579833984375</LongitudeDegrees>
            </Position>
            <AltitudeMeters>302.20001220703125</AltitudeMeters>
            <DistanceMeters>NAN</DistanceMeters>
          </Trackpoint>
          <Trackpoint>
            <Time>2020-02-15T11:31:09.000Z</Time>
            <Position>
              <LatitudeDegrees>41.973392330110073089599609375</LatitudeDegrees>
              <LongitudeDegrees>2.86670316942036151885986328125</LongitudeDegrees>
            </Position>
            <AltitudeMeters>302.20001220703125</AltitudeMeters>
            <DistanceMeters>NAN</DistanceMeters>
          </Trackpoint>
          <Trackpoint>
            <Time>2020-02-15T11:31:10.000Z</Time>
            <Position>
              <LatitudeDegrees>41.9734089262783527374267578125</LatitudeDegrees>
              <LongitudeDegrees>2.86664483137428760528564453125</LongitudeDegrees>
            </Position>
            <AltitudeMeters>301.600006103515625</AltitudeMeters>
            <DistanceMeters>NAN</DistanceMeters>
          </Trackpoint>
          <Trackpoint>
            <Time>2020-02-15T11:31:11.000Z</Time>
            <Position>
              <LatitudeDegrees>41.9734342396259307861328125</LatitudeDegrees>
              <LongitudeDegrees>2.86658951081335544586181640625</LongitudeDegrees>
            </Position>
            <AltitudeMeters>301.600006103515625</AltitudeMeters>
            <DistanceMeters>NAN</DistanceMeters>
          </Trackpoint>
          <Trackpoint>
            <Time>2020-02-15T11:31:12.000Z</Time>
            <Position>
              <LatitudeDegrees>41.9734686054289340972900390625</LatitudeDegrees>
              <LongitudeDegrees>2.86653536371886730194091796875</LongitudeDegrees>
            </Position>
            <AltitudeMeters>301.20001220703125</AltitudeMeters>
            <DistanceMeters>NAN</DistanceMeters>
          </Trackpoint>
          <Trackpoint>
            <Time>2020-02-15T11:31:13.000Z</Time>
            <Position>
              <LatitudeDegrees>41.97351009584963321685791015625</LatitudeDegrees>
              <LongitudeDegrees>2.866480462253093719482421875</LongitudeDegrees>
            </Position>
            <AltitudeMeters>301.20001220703125</AltitudeMeters>
            <DistanceMeters>NAN</DistanceMeters>
          </Trackpoint>
          <Trackpoint>
            <Time>2020-02-15T11:31:15.000Z</Time>
            <Position>
              <LatitudeDegrees>41.97360145859420299530029296875</LatitudeDegrees>
              <LongitudeDegrees>2.86636889912188053131103515625</LongitudeDegrees>
            </Position>
            <AltitudeMeters>301.20001220703125</AltitudeMeters>
            <DistanceMeters>NAN</DistanceMeters>
          </Trackpoint>
          <Trackpoint>
            <Time>2020-02-15T11:31:16.000Z</Time>
            <Position>
              <LatitudeDegrees>41.97363741695880889892578125</LatitudeDegrees>
              <LongitudeDegrees>2.86629966460168361663818359375</LongitudeDegrees>
            </Position>
            <AltitudeMeters>301</AltitudeMeters>
            <DistanceMeters>NAN</DistanceMeters>
          </Trackpoint>
          <Trackpoint>
            <Time>2020-02-15T11:31:17.000Z</Time>
            <Position>
              <LatitudeDegrees>41.9736610539257526397705078125</LatitudeDegrees>
              <LongitudeDegrees>2.86621249280869960784912109375</LongitudeDegrees>
            </Position>
            <AltitudeMeters>301</AltitudeMeters>
            <DistanceMeters>NAN</DistanceMeters>
          </Trackpoint>
          <Trackpoint>
            <Time>2020-02-15T11:31:18.000Z</Time>
            <Position>
              <LatitudeDegrees>41.97368226014077663421630859375</LatitudeDegrees>
              <LongitudeDegrees>2.8661202080547809600830078125</LongitudeDegrees>
            </Position>
            <AltitudeMeters>301</AltitudeMeters>
            <DistanceMeters>NAN</DistanceMeters>
          </Trackpoint>
          <Trackpoint>
            <Time>2020-02-15T11:31:20.000Z</Time>
            <Position>
              <LatitudeDegrees>41.97371629066765308380126953125</LatitudeDegrees>
              <LongitudeDegrees>2.86590571515262126922607421875</LongitudeDegrees>
            </Position>
            <AltitudeMeters>300.79998779296875</AltitudeMeters>
            <DistanceMeters>NAN</DistanceMeters>
          </Trackpoint>
          <Trackpoint>
            <Time>2020-02-15T11:31:21.000Z</Time>
            <Position>
              <LatitudeDegrees>41.973733641207218170166015625</LatitudeDegrees>
              <LongitudeDegrees>2.86578811705112457275390625</LongitudeDegrees>
            </Position>
            <AltitudeMeters>300.79998779296875</AltitudeMeters>
            <DistanceMeters>NAN</DistanceMeters>
          </Trackpoint>
          <Trackpoint>
            <Time>2020-02-15T11:31:22.000Z</Time>
            <Position>
              <LatitudeDegrees>41.9737639836966991424560546875</LatitudeDegrees>
              <LongitudeDegrees>2.8656699322164058685302734375</LongitudeDegrees>
            </Position>
            <AltitudeMeters>300.79998779296875</AltitudeMeters>
            <DistanceMeters>NAN</DistanceMeters>
          </Trackpoint>
          <Trackpoint>
            <Time>2020-02-15T11:31:23.000Z</Time>
            <Position>
              <LatitudeDegrees>41.9737936556339263916015625</LatitudeDegrees>
              <LongitudeDegrees>2.8655455447733402252197265625</LongitudeDegrees>
            </Position>
            <AltitudeMeters>300.79998779296875</AltitudeMeters>
            <DistanceMeters>NAN</DistanceMeters>
          </Trackpoint>
          <Trackpoint>
            <Time>2020-02-15T11:31:24.000Z</Time>
            <Position>
              <LatitudeDegrees>41.973817460238933563232421875</LatitudeDegrees>
              <LongitudeDegrees>2.86542476154863834381103515625</LongitudeDegrees>
            </Position>
            <AltitudeMeters>300.399993896484375</AltitudeMeters>
            <DistanceMeters>NAN</DistanceMeters>
          </Trackpoint>
          <Trackpoint>
            <Time>2020-02-15T11:31:25.000Z</Time>
            <Position>
              <LatitudeDegrees>41.9738276861608028411865234375</LatitudeDegrees>
              <LongitudeDegrees>2.8653061576187610626220703125</LongitudeDegrees>
            </Position>
            <AltitudeMeters>300</AltitudeMeters>
            <DistanceMeters>NAN</DistanceMeters>
          </Trackpoint>
          <Trackpoint>
            <Time>2020-02-15T11:31:26.000Z</Time>
            <Position>
              <LatitudeDegrees>41.97382391430437564849853515625</LatitudeDegrees>
              <LongitudeDegrees>2.86519258283078670501708984375</LongitudeDegrees>
            </Position>
            <AltitudeMeters>299.20001220703125</AltitudeMeters>
            <DistanceMeters>NAN</DistanceMeters>
          </Trackpoint>
          <Trackpoint>
            <Time>2020-02-15T11:31:27.000Z</Time>
            <Position>
              <LatitudeDegrees>41.9738043844699859619140625</LatitudeDegrees>
              <LongitudeDegrees>2.865087054669857025146484375</LongitudeDegrees>
            </Position>
            <AltitudeMeters>298</AltitudeMeters>
            <DistanceMeters>NAN</DistanceMeters>
          </Trackpoint>
          <Trackpoint>
            <Time>2020-02-15T11:31:28.000Z</Time>
            <Position>
              <LatitudeDegrees>41.97377261705696582794189453125</LatitudeDegrees>
              <LongitudeDegrees>2.86498454399406909942626953125</LongitudeDegrees>
            </Position>
            <AltitudeMeters>297</AltitudeMeters>
            <DistanceMeters>NAN</DistanceMeters>
          </Trackpoint>
          <Trackpoint>
            <Time>2020-02-15T11:31:29.000Z</Time>
            <Position>
              <LatitudeDegrees>41.97374512441456317901611328125</LatitudeDegrees>
              <LongitudeDegrees>2.864882536232471466064453125</LongitudeDegrees>
            </Position>
            <AltitudeMeters>295.600006103515625</AltitudeMeters>
            <DistanceMeters>NAN</DistanceMeters>
          </Trackpoint>
          <Trackpoint>
            <Time>2020-02-15T11:31:30.000Z</Time>
            <Position>
              <LatitudeDegrees>41.9737190566956996917724609375</LatitudeDegrees>
              <LongitudeDegrees>2.864780612289905548095703125</LongitudeDegrees>
            </Position>
            <AltitudeMeters>295.600006103515625</AltitudeMeters>
            <DistanceMeters>NAN</DistanceMeters>
          </Trackpoint>
          <Trackpoint>
            <Time>2020-02-15T11:31:31.000Z</Time>
            <Position>
              <LatitudeDegrees>41.97370321489870548248291015625</LatitudeDegrees>
              <LongitudeDegrees>2.86467592231929302215576171875</LongitudeDegrees>
            </Position>
            <AltitudeMeters>294.399993896484375</AltitudeMeters>
            <DistanceMeters>NAN</DistanceMeters>
          </Trackpoint>
          <Trackpoint>
            <Time>2020-02-15T11:31:32.000Z</Time>
            <Position>
              <LatitudeDegrees>41.97370958514511585235595703125</LatitudeDegrees>
              <LongitudeDegrees>2.864576764404773712158203125</LongitudeDegrees>
            </Position>
            <AltitudeMeters>293.20001220703125</AltitudeMeters>
            <DistanceMeters>NAN</DistanceMeters>
          </Trackpoint>
          <Trackpoint>
            <Time>2020-02-15T11:31:33.000Z</Time>
            <Position>
              <LatitudeDegrees>41.973741687834262847900390625</LatitudeDegrees>
              <LongitudeDegrees>2.86448850296437740325927734375</LongitudeDegrees>
            </Position>
            <AltitudeMeters>292.399993896484375</AltitudeMeters>
            <DistanceMeters>NAN</DistanceMeters>
          </Trackpoint>
          <Trackpoint>
            <Time>2020-02-15T11:31:34.000Z</Time>
            <Position>
              <LatitudeDegrees>41.97378904558718204498291015625</LatitudeDegrees>
              <LongitudeDegrees>2.864408455789089202880859375</LongitudeDegrees>
            </Position>
            <AltitudeMeters>291.79998779296875</AltitudeMeters>
            <DistanceMeters>NAN</DistanceMeters>
          </Trackpoint>
          <Trackpoint>
            <Time>2020-02-15T11:31:35.000Z</Time>
            <Position>
              <LatitudeDegrees>41.9738352298736572265625</LatitudeDegrees>
              <LongitudeDegrees>2.86432824097573757171630859375</LongitudeDegrees>
            </Position>
            <AltitudeMeters>291.399993896484375</AltitudeMeters>
            <DistanceMeters>NAN</DistanceMeters>
          </Trackpoint>
          <Trackpoint>
            <Time>2020-02-15T11:31:36.000Z</Time>
            <Position>
              <LatitudeDegrees>41.97387822903692722320556640625</LatitudeDegrees>
              <LongitudeDegrees>2.864246852695941925048828125</LongitudeDegrees>
            </Position>
            <AltitudeMeters>290.79998779296875</AltitudeMeters>
            <DistanceMeters>NAN</DistanceMeters>
          </Trackpoint>
          <Trackpoint>
            <Time>2020-02-15T11:31:38.000Z</Time>
            <Position>
              <LatitudeDegrees>41.97395215742290019989013671875</LatitudeDegrees>
              <LongitudeDegrees>2.86408382467925548553466796875</LongitudeDegrees>
            </Position>
            <AltitudeMeters>289.20001220703125</AltitudeMeters>
            <DistanceMeters>NAN</DistanceMeters>
          </Trackpoint>
          <Trackpoint>
            <Time>2020-02-15T11:31:39.000Z</Time>
            <Position>
              <LatitudeDegrees>41.97397948242723941802978515625</LatitudeDegrees>
              <LongitudeDegrees>2.8639969043433666229248046875</LongitudeDegrees>
            </Position>
            <AltitudeMeters>288.600006103515625</AltitudeMeters>
            <DistanceMeters>NAN</DistanceMeters>
          </Trackpoint>
          <Trackpoint>
            <Time>2020-02-15T11:31:40.000Z</Time>
            <Position>
              <LatitudeDegrees>41.9739990122616291046142578125</LatitudeDegrees>
              <LongitudeDegrees>2.863908894360065460205078125</LongitudeDegrees>
            </Position>
            <AltitudeMeters>288.399993896484375</AltitudeMeters>
            <DistanceMeters>NAN</DistanceMeters>
          </Trackpoint>
          <Trackpoint>
            <Time>2020-02-15T11:31:41.000Z</Time>
            <Position>
              <LatitudeDegrees>41.97400596924126148223876953125</LatitudeDegrees>
              <LongitudeDegrees>2.8638173639774322509765625</LongitudeDegrees>
            </Position>
            <AltitudeMeters>287.79998779296875</AltitudeMeters>
            <DistanceMeters>NAN</DistanceMeters>
          </Trackpoint>
          <Trackpoint>
            <Time>2020-02-15T11:31:42.000Z</Time>
            <Position>
              <LatitudeDegrees>41.97399976663291454315185546875</LatitudeDegrees>
              <LongitudeDegrees>2.86372189410030841827392578125</LongitudeDegrees>
            </Position>
            <AltitudeMeters>287.399993896484375</AltitudeMeters>
            <DistanceMeters>NAN</DistanceMeters>
          </Trackpoint>
          <Trackpoint>
            <Time>2020-02-15T11:31:43.000Z</Time>
            <Position>
              <LatitudeDegrees>41.97398300282657146453857421875</LatitudeDegrees>
              <LongitudeDegrees>2.86362449638545513153076171875</LongitudeDegrees>
            </Position>
            <AltitudeMeters>287</AltitudeMeters>
            <DistanceMeters>NAN</DistanceMeters>
          </Trackpoint>
          <Trackpoint>
            <Time>2020-02-15T11:31:44.000Z</Time>
            <Position>
              <LatitudeDegrees>41.9739611260592937469482421875</LatitudeDegrees>
              <LongitudeDegrees>2.86352542228996753692626953125</LongitudeDegrees>
            </Position>
            <AltitudeMeters>287</AltitudeMeters>
            <DistanceMeters>NAN</DistanceMeters>
          </Trackpoint>
          <Trackpoint>
            <Time>2020-02-15T11:31:45.000Z</Time>
            <Position>
              <LatitudeDegrees>41.97394142858684062957763671875</LatitudeDegrees>
              <LongitudeDegrees>2.863423414528369903564453125</LongitudeDegrees>
            </Position>
            <AltitudeMeters>286.79998779296875</AltitudeMeters>
            <DistanceMeters>NAN</DistanceMeters>
          </Trackpoint>
          <Trackpoint>
            <Time>2020-02-15T11:31:48.000Z</Time>
            <Position>
              <LatitudeDegrees>41.97389616630971431732177734375</LatitudeDegrees>
              <LongitudeDegrees>2.863112278282642364501953125</LongitudeDegrees>
            </Position>
            <AltitudeMeters>286.399993896484375</AltitudeMeters>
            <DistanceMeters>NAN</DistanceMeters>
          </Trackpoint>
          <Trackpoint>
            <Time>2020-02-15T11:31:49.000Z</Time>
            <Position>
              <LatitudeDegrees>41.9738907180726528167724609375</LatitudeDegrees>
              <LongitudeDegrees>2.863012365996837615966796875</LongitudeDegrees>
            </Position>
            <AltitudeMeters>286.20001220703125</AltitudeMeters>
            <DistanceMeters>NAN</DistanceMeters>
          </Trackpoint>
          <Trackpoint>
            <Time>2020-02-15T11:31:50.000Z</Time>
            <Position>
              <LatitudeDegrees>41.973895244300365447998046875</LatitudeDegrees>
              <LongitudeDegrees>2.86291547119617462158203125</LongitudeDegrees>
            </Position>
            <AltitudeMeters>285.79998779296875</AltitudeMeters>
            <DistanceMeters>NAN</DistanceMeters>
          </Trackpoint>
          <Trackpoint>
            <Time>2020-02-15T11:31:51.000Z</Time>
            <Position>
              <LatitudeDegrees>41.97391125373542308807373046875</LatitudeDegrees>
              <LongitudeDegrees>2.8628281317651271820068359375</LongitudeDegrees>
            </Position>
            <AltitudeMeters>285.79998779296875</AltitudeMeters>
            <DistanceMeters>NAN</DistanceMeters>
          </Trackpoint>
          <Trackpoint>
            <Time>2020-02-15T11:31:52.000Z</Time>
            <Position>
              <LatitudeDegrees>41.97393371723592281341552734375</LatitudeDegrees>
              <LongitudeDegrees>2.862751521170139312744140625</LongitudeDegrees>
            </Position>
            <AltitudeMeters>285.600006103515625</AltitudeMeters>
            <DistanceMeters>NAN</DistanceMeters>
          </Trackpoint>
          <Trackpoint>
            <Time>2020-02-15T11:31:53.000Z</Time>
            <Position>
              <LatitudeDegrees>41.97395450435578823089599609375</LatitudeDegrees>
              <LongitudeDegrees>2.8626819513738155364990234375</LongitudeDegrees>
            </Position>
            <AltitudeMeters>284.79998779296875</AltitudeMeters>
            <DistanceMeters>NAN</DistanceMeters>
          </Trackpoint>
          <Trackpoint>
            <Time>2020-02-15T11:31:54.000Z</Time>
            <Position>
              <LatitudeDegrees>41.9739706814289093017578125</LatitudeDegrees>
              <LongitudeDegrees>2.8626175783574581146240234375</LongitudeDegrees>
            </Position>
            <AltitudeMeters>284.20001220703125</AltitudeMeters>
            <DistanceMeters>NAN</DistanceMeters>
          </Trackpoint>
          <Trackpoint>
            <Time>2020-02-15T11:31:55.000Z</Time>
            <Position>
              <LatitudeDegrees>41.97397914715111255645751953125</LatitudeDegrees>
              <LongitudeDegrees>2.86255831830203533172607421875</LongitudeDegrees>
            </Position>
            <AltitudeMeters>283.600006103515625</AltitudeMeters>
            <DistanceMeters>NAN</DistanceMeters>
          </Trackpoint>
          <Trackpoint>
            <Time>2020-02-15T11:31:56.000Z</Time>
            <Position>
              <LatitudeDegrees>41.97398434393107891082763671875</LatitudeDegrees>
              <LongitudeDegrees>2.8625042550265789031982421875</LongitudeDegrees>
            </Position>
            <AltitudeMeters>283.20001220703125</AltitudeMeters>
            <DistanceMeters>NAN</DistanceMeters>
          </Trackpoint>
          <Trackpoint>
            <Time>2020-02-15T11:31:57.000Z</Time>
            <Position>
              <LatitudeDegrees>41.9739866070449352264404296875</LatitudeDegrees>
              <LongitudeDegrees>2.86245740018784999847412109375</LongitudeDegrees>
            </Position>
            <AltitudeMeters>283</AltitudeMeters>
            <DistanceMeters>NAN</DistanceMeters>
          </Trackpoint>
          <Trackpoint>
            <Time>2020-02-15T11:31:58.000Z</Time>
            <Position>
              <LatitudeDegrees>41.97398635558784008026123046875</LatitudeDegrees>
              <LongitudeDegrees>2.86242169328033924102783203125</LongitudeDegrees>
            </Position>
            <AltitudeMeters>283</AltitudeMeters>
            <DistanceMeters>NAN</DistanceMeters>
          </Trackpoint>
          <Trackpoint>
            <Time>2020-02-15T11:31:59.000Z</Time>
            <Position>
              <LatitudeDegrees>41.9739852659404277801513671875</LatitudeDegrees>
              <LongitudeDegrees>2.8623926080763339996337890625</LongitudeDegrees>
            </Position>
            <AltitudeMeters>283</AltitudeMeters>
            <DistanceMeters>NAN</DistanceMeters>
          </Trackpoint>
          <Trackpoint>
            <Time>2020-02-15T11:32:00.000Z</Time>
            <Position>
              <LatitudeDegrees>41.97398417629301548004150390625</LatitudeDegrees>
              <LongitudeDegrees>2.86236989311873912811279296875</LongitudeDegrees>
            </Position>
            <AltitudeMeters>283</AltitudeMeters>
            <DistanceMeters>NAN</DistanceMeters>
          </Trackpoint>
          <Trackpoint>
            <Time>2020-02-15T11:32:01.000Z</Time>
            <Position>
              <LatitudeDegrees>41.973988451063632965087890625</LatitudeDegrees>
              <LongitudeDegrees>2.86235078237950801849365234375</LongitudeDegrees>
            </Position>
            <AltitudeMeters>282.79998779296875</AltitudeMeters>
            <DistanceMeters>NAN</DistanceMeters>
          </Trackpoint>
          <Trackpoint>
            <Time>2020-02-15T11:32:02.000Z</Time>
            <Position>
              <LatitudeDegrees>41.9739946536719799041748046875</LatitudeDegrees>
              <LongitudeDegrees>2.8623341023921966552734375</LongitudeDegrees>
            </Position>
            <AltitudeMeters>282.79998779296875</AltitudeMeters>
            <DistanceMeters>NAN</DistanceMeters>
          </Trackpoint>
          <Trackpoint>
            <Time>2020-02-15T11:32:03.000Z</Time>
            <Position>
              <LatitudeDegrees>41.974002532660961151123046875</LatitudeDegrees>
              <LongitudeDegrees>2.8623154945671558380126953125</LongitudeDegrees>
            </Position>
            <AltitudeMeters>282.79998779296875</AltitudeMeters>
            <DistanceMeters>NAN</DistanceMeters>
          </Trackpoint>
          <Trackpoint>
            <Time>2020-02-15T11:32:06.000Z</Time>
            <Position>
              <LatitudeDegrees>41.974036730825901031494140625</LatitudeDegrees>
              <LongitudeDegrees>2.862251289188861846923828125</LongitudeDegrees>
            </Position>
            <AltitudeMeters>282.79998779296875</AltitudeMeters>
            <DistanceMeters>NAN</DistanceMeters>
          </Trackpoint>
          <Trackpoint>
            <Time>2020-02-15T11:32:08.000Z</Time>
            <Position>
              <LatitudeDegrees>41.97406925261020660400390625</LatitudeDegrees>
              <LongitudeDegrees>2.86220259033143520355224609375</LongitudeDegrees>
            </Position>
            <AltitudeMeters>283</AltitudeMeters>
            <DistanceMeters>NAN</DistanceMeters>
          </Trackpoint>
          <Trackpoint>
            <Time>2020-02-15T11:32:09.000Z</Time>
            <Position>
              <LatitudeDegrees>41.9740922190248966217041015625</LatitudeDegrees>
              <LongitudeDegrees>2.86217861808836460113525390625</LongitudeDegrees>
            </Position>
            <AltitudeMeters>283</AltitudeMeters>
            <DistanceMeters>NAN</DistanceMeters>
          </Trackpoint>
          <Trackpoint>
            <Time>2020-02-15T11:32:10.000Z</Time>
            <Position>
              <LatitudeDegrees>41.9741182029247283935546875</LatitudeDegrees>
              <LongitudeDegrees>2.86215615458786487579345703125</LongitudeDegrees>
            </Position>
            <AltitudeMeters>283</AltitudeMeters>
            <DistanceMeters>NAN</DistanceMeters>
          </Trackpoint>
          <Trackpoint>
            <Time>2020-02-15T11:32:11.000Z</Time>
            <Position>
              <LatitudeDegrees>41.97414628230035305023193359375</LatitudeDegrees>
              <LongitudeDegrees>2.86213897168636322021484375</LongitudeDegrees>
            </Position>
            <AltitudeMeters>283.20001220703125</AltitudeMeters>
            <DistanceMeters>NAN</DistanceMeters>
          </Trackpoint>
          <Trackpoint>
            <Time>2020-02-15T11:32:12.000Z</Time>
            <Position>
              <LatitudeDegrees>41.9741745293140411376953125</LatitudeDegrees>
              <LongitudeDegrees>2.8621227107942104339599609375</LongitudeDegrees>
            </Position>
            <AltitudeMeters>283.20001220703125</AltitudeMeters>
            <DistanceMeters>NAN</DistanceMeters>
          </Trackpoint>
          <Trackpoint>
            <Time>2020-02-15T11:32:13.000Z</Time>
            <Position>
              <LatitudeDegrees>41.97419825010001659393310546875</LatitudeDegrees>
              <LongitudeDegrees>2.86210401915013790130615234375</LongitudeDegrees>
            </Position>
            <AltitudeMeters>283.20001220703125</AltitudeMeters>
            <DistanceMeters>NAN</DistanceMeters>
          </Trackpoint>
          <Trackpoint>
            <Time>2020-02-15T11:32:14.000Z</Time>
            <Position>
              <LatitudeDegrees>41.97422121651470661163330078125</LatitudeDegrees>
              <LongitudeDegrees>2.8620814718306064605712890625</LongitudeDegrees>
            </Position>
            <AltitudeMeters>283.20001220703125</AltitudeMeters>
            <DistanceMeters>NAN</DistanceMeters>
          </Trackpoint>
          <Trackpoint>
            <Time>2020-02-15T11:32:15.000Z</Time>
            <Position>
              <LatitudeDegrees>41.97424267418682575225830078125</LatitudeDegrees>
              <LongitudeDegrees>2.86205825395882129669189453125</LongitudeDegrees>
            </Position>
            <AltitudeMeters>283.399993896484375</AltitudeMeters>
            <DistanceMeters>NAN</DistanceMeters>
          </Trackpoint>
          <Trackpoint>
            <Time>2020-02-15T11:32:16.000Z</Time>
            <Position>
              <LatitudeDegrees>41.97426413185894489288330078125</LatitudeDegrees>
              <LongitudeDegrees>2.86203662864863872528076171875</LongitudeDegrees>
            </Position>
            <AltitudeMeters>283.20001220703125</AltitudeMeters>
            <DistanceMeters>NAN</DistanceMeters>
          </Trackpoint>
          <Trackpoint>
            <Time>2020-02-15T11:32:17.000Z</Time>
            <Position>
              <LatitudeDegrees>41.97428382933139801025390625</LatitudeDegrees>
              <LongitudeDegrees>2.86201701499521732330322265625</LongitudeDegrees>
            </Position>
            <AltitudeMeters>283.600006103515625</AltitudeMeters>
            <DistanceMeters>NAN</DistanceMeters>
          </Trackpoint>
          <Trackpoint>
            <Time>2020-02-15T11:32:18.000Z</Time>
            <Position>
              <LatitudeDegrees>41.97430151514708995819091796875</LatitudeDegrees>
              <LongitudeDegrees>2.8619983233511447906494140625</LongitudeDegrees>
            </Position>
            <AltitudeMeters>283.600006103515625</AltitudeMeters>
            <DistanceMeters>NAN</DistanceMeters>
          </Trackpoint>
          <Trackpoint>
            <Time>2020-02-15T11:32:19.000Z</Time>
            <Position>
              <LatitudeDegrees>41.9743188656866550445556640625</LatitudeDegrees>
              <LongitudeDegrees>2.86197669804096221923828125</LongitudeDegrees>
            </Position>
            <AltitudeMeters>283.600006103515625</AltitudeMeters>
            <DistanceMeters>NAN</DistanceMeters>
          </Trackpoint>
          <Trackpoint>
            <Time>2020-02-15T11:32:20.000Z</Time>
            <Position>
              <LatitudeDegrees>41.9743346236646175384521484375</LatitudeDegrees>
              <LongitudeDegrees>2.8619510494172573089599609375</LongitudeDegrees>
            </Position>
            <AltitudeMeters>283.79998779296875</AltitudeMeters>
            <DistanceMeters>NAN</DistanceMeters>
          </Trackpoint>
          <Trackpoint>
            <Time>2020-02-15T11:32:21.000Z</Time>
            <Position>
              <LatitudeDegrees>41.97434979490935802459716796875</LatitudeDegrees>
              <LongitudeDegrees>2.86192431114614009857177734375</LongitudeDegrees>
            </Position>
            <AltitudeMeters>284.20001220703125</AltitudeMeters>
            <DistanceMeters>NAN</DistanceMeters>
          </Trackpoint>
          <Trackpoint>
            <Time>2020-02-15T11:32:22.000Z</Time>
            <Position>
              <LatitudeDegrees>41.97436253540217876434326171875</LatitudeDegrees>
              <LongitudeDegrees>2.86189933307468891143798828125</LongitudeDegrees>
            </Position>
            <AltitudeMeters>284.20001220703125</AltitudeMeters>
            <DistanceMeters>NAN</DistanceMeters>
          </Trackpoint>
          <Trackpoint>
            <Time>2020-02-15T11:32:23.000Z</Time>
            <Position>
              <LatitudeDegrees>41.97437292896211147308349609375</LatitudeDegrees>
              <LongitudeDegrees>2.86187603138387203216552734375</LongitudeDegrees>
            </Position>
            <AltitudeMeters>284.399993896484375</AltitudeMeters>
            <DistanceMeters>NAN</DistanceMeters>
          </Trackpoint>
          <Trackpoint>
            <Time>2020-02-15T11:32:24.000Z</Time>
            <Position>
              <LatitudeDegrees>41.974379383027553558349609375</LatitudeDegrees>
              <LongitudeDegrees>2.8618539869785308837890625</LongitudeDegrees>
            </Position>
            <AltitudeMeters>284.79998779296875</AltitudeMeters>
            <DistanceMeters>NAN</DistanceMeters>
          </Trackpoint>
          <Trackpoint>
            <Time>2020-02-15T11:32:25.000Z</Time>
            <Position>
              <LatitudeDegrees>41.97438382543623447418212890625</LatitudeDegrees>
              <LongitudeDegrees>2.86183043383061885833740234375</LongitudeDegrees>
            </Position>
            <AltitudeMeters>285</AltitudeMeters>
            <DistanceMeters>NAN</DistanceMeters>
          </Trackpoint>
          <Trackpoint>
            <Time>2020-02-15T11:32:26.000Z</Time>
            <Position>
              <LatitudeDegrees>41.97438935749232769012451171875</LatitudeDegrees>
              <LongitudeDegrees>2.86180428229272365570068359375</LongitudeDegrees>
            </Position>
            <AltitudeMeters>285.399993896484375</AltitudeMeters>
            <DistanceMeters>NAN</DistanceMeters>
          </Trackpoint>
          <Trackpoint>
            <Time>2020-02-15T11:32:27.000Z</Time>
            <Position>
              <LatitudeDegrees>41.97439790703356266021728515625</LatitudeDegrees>
              <LongitudeDegrees>2.86177662201225757598876953125</LongitudeDegrees>
            </Position>
            <AltitudeMeters>285.399993896484375</AltitudeMeters>
            <DistanceMeters>NAN</DistanceMeters>
          </Trackpoint>
          <Trackpoint>
            <Time>2020-02-15T11:32:28.000Z</Time>
            <Position>
              <LatitudeDegrees>41.97440394200384616851806640625</LatitudeDegrees>
              <LongitudeDegrees>2.861745692789554595947265625</LongitudeDegrees>
            </Position>
            <AltitudeMeters>285.600006103515625</AltitudeMeters>
            <DistanceMeters>NAN</DistanceMeters>
          </Trackpoint>
          <Trackpoint>
            <Time>2020-02-15T11:32:29.000Z</Time>
            <Position>
              <LatitudeDegrees>41.97440712712705135345458984375</LatitudeDegrees>
              <LongitudeDegrees>2.861712835729122161865234375</LongitudeDegrees>
            </Position>
            <AltitudeMeters>285.79998779296875</AltitudeMeters>
            <DistanceMeters>NAN</DistanceMeters>
          </Trackpoint>
          <Trackpoint>
            <Time>2020-02-15T11:32:30.000Z</Time>
            <Position>
              <LatitudeDegrees>41.974410898983478546142578125</LatitudeDegrees>
              <LongitudeDegrees>2.86168073303997516632080078125</LongitudeDegrees>
            </Position>
            <AltitudeMeters>286</AltitudeMeters>
            <DistanceMeters>NAN</DistanceMeters>
          </Trackpoint>
          <Trackpoint>
            <Time>2020-02-15T11:32:31.000Z</Time>
            <Position>
              <LatitudeDegrees>41.97441316209733486175537109375</LatitudeDegrees>
              <LongitudeDegrees>2.86165005527436733245849609375</LongitudeDegrees>
            </Position>
            <AltitudeMeters>286.20001220703125</AltitudeMeters>
            <DistanceMeters>NAN</DistanceMeters>
          </Trackpoint>
          <Trackpoint>
            <Time>2020-02-15T11:32:32.000Z</Time>
            <Position>
              <LatitudeDegrees>41.97441668249666690826416015625</LatitudeDegrees>
              <LongitudeDegrees>2.8616179525852203369140625</LongitudeDegrees>
            </Position>
            <AltitudeMeters>286.399993896484375</AltitudeMeters>
            <DistanceMeters>NAN</DistanceMeters>
          </Trackpoint>
          <Trackpoint>
            <Time>2020-02-15T11:32:33.000Z</Time>
            <Position>
              <LatitudeDegrees>41.97442355565726757049560546875</LatitudeDegrees>
              <LongitudeDegrees>2.8615822456777095794677734375</LongitudeDegrees>
            </Position>
            <AltitudeMeters>286.600006103515625</AltitudeMeters>
            <DistanceMeters>NAN</DistanceMeters>
          </Trackpoint>
          <Trackpoint>
            <Time>2020-02-15T11:32:34.000Z</Time>
            <Position>
              <LatitudeDegrees>41.97443143464624881744384765625</LatitudeDegrees>
              <LongitudeDegrees>2.86154544912278652191162109375</LongitudeDegrees>
            </Position>
            <AltitudeMeters>286.600006103515625</AltitudeMeters>
            <DistanceMeters>NAN</DistanceMeters>
          </Trackpoint>
          <Trackpoint>
            <Time>2020-02-15T11:32:37.000Z</Time>
            <Position>
              <LatitudeDegrees>41.9744642078876495361328125</LatitudeDegrees>
              <LongitudeDegrees>2.86143866367638111114501953125</LongitudeDegrees>
            </Position>
            <AltitudeMeters>287</AltitudeMeters>
            <DistanceMeters>NAN</DistanceMeters>
          </Trackpoint>
          <Trackpoint>
            <Time>2020-02-15T11:32:38.000Z</Time>
            <Position>
              <LatitudeDegrees>41.9744757749140262603759765625</LatitudeDegrees>
              <LongitudeDegrees>2.86140949465334415435791015625</LongitudeDegrees>
            </Position>
            <AltitudeMeters>287</AltitudeMeters>
            <DistanceMeters>NAN</DistanceMeters>
          </Trackpoint>
          <Trackpoint>
            <Time>2020-02-15T11:32:39.000Z</Time>
            <Position>
              <LatitudeDegrees>41.97448826394975185394287109375</LatitudeDegrees>
              <LongitudeDegrees>2.86138183437287807464599609375</LongitudeDegrees>
            </Position>
            <AltitudeMeters>287.399993896484375</AltitudeMeters>
            <DistanceMeters>NAN</DistanceMeters>
          </Trackpoint>
          <Trackpoint>
            <Time>2020-02-15T11:32:40.000Z</Time>
            <Position>
              <LatitudeDegrees>41.9745022617280483245849609375</LatitudeDegrees>
              <LongitudeDegrees>2.8613505698740482330322265625</LongitudeDegrees>
            </Position>
            <AltitudeMeters>287.399993896484375</AltitudeMeters>
            <DistanceMeters>NAN</DistanceMeters>
          </Trackpoint>
          <Trackpoint>
            <Time>2020-02-15T11:32:44.000Z</Time>
            <Position>
              <LatitudeDegrees>41.97457744739949703216552734375</LatitudeDegrees>
              <LongitudeDegrees>2.86116692237555980682373046875</LongitudeDegrees>
            </Position>
            <AltitudeMeters>287.399993896484375</AltitudeMeters>
            <DistanceMeters>NAN</DistanceMeters>
          </Trackpoint>
          <Trackpoint>
            <Time>2020-02-15T11:32:45.000Z</Time>
            <Position>
              <LatitudeDegrees>41.97459169663488864898681640625</LatitudeDegrees>
              <LongitudeDegrees>2.86110229790210723876953125</LongitudeDegrees>
            </Position>
            <AltitudeMeters>287.600006103515625</AltitudeMeters>
            <DistanceMeters>NAN</DistanceMeters>
          </Trackpoint>
          <Trackpoint>
            <Time>2020-02-15T11:32:49.000Z</Time>
            <Position>
              <LatitudeDegrees>41.97463545016944408416748046875</LatitudeDegrees>
              <LongitudeDegrees>2.86082477308809757232666015625</LongitudeDegrees>
            </Position>
            <AltitudeMeters>287.600006103515625</AltitudeMeters>
            <DistanceMeters>NAN</DistanceMeters>
          </Trackpoint>
          <Trackpoint>
            <Time>2020-02-15T11:32:50.000Z</Time>
            <Position>
              <LatitudeDegrees>41.97464995086193084716796875</LatitudeDegrees>
              <LongitudeDegrees>2.86075637675821781158447265625</LongitudeDegrees>
            </Position>
            <AltitudeMeters>287.600006103515625</AltitudeMeters>
            <DistanceMeters>NAN</DistanceMeters>
          </Trackpoint>
          <Trackpoint>
            <Time>2020-02-15T11:32:51.000Z</Time>
            <Position>
              <LatitudeDegrees>41.97466763667762279510498046875</LatitudeDegrees>
              <LongitudeDegrees>2.860691584646701812744140625</LongitudeDegrees>
            </Position>
            <AltitudeMeters>287.600006103515625</AltitudeMeters>
            <DistanceMeters>NAN</DistanceMeters>
          </Trackpoint>
          <Trackpoint>
            <Time>2020-02-15T11:32:52.000Z</Time>
            <Position>
              <LatitudeDegrees>41.9746896810829639434814453125</LatitudeDegrees>
              <LongitudeDegrees>2.86063249222934246063232421875</LongitudeDegrees>
            </Position>
            <AltitudeMeters>287.399993896484375</AltitudeMeters>
            <DistanceMeters>NAN</DistanceMeters>
          </Trackpoint>
          <Trackpoint>
            <Time>2020-02-15T11:32:53.000Z</Time>
            <Position>
              <LatitudeDegrees>41.97471507824957370758056640625</LatitudeDegrees>
              <LongitudeDegrees>2.860578261315822601318359375</LongitudeDegrees>
            </Position>
            <AltitudeMeters>287.20001220703125</AltitudeMeters>
            <DistanceMeters>NAN</DistanceMeters>
          </Trackpoint>
          <Trackpoint>
            <Time>2020-02-15T11:32:54.000Z</Time>
            <Position>
              <LatitudeDegrees>41.9747426547110080718994140625</LatitudeDegrees>
              <LongitudeDegrees>2.8605288080871105194091796875</LongitudeDegrees>
            </Position>
            <AltitudeMeters>286.79998779296875</AltitudeMeters>
            <DistanceMeters>NAN</DistanceMeters>
          </Trackpoint>
          <Trackpoint>
            <Time>2020-02-15T11:32:55.000Z</Time>
            <Position>
              <LatitudeDegrees>41.97477199137210845947265625</LatitudeDegrees>
              <LongitudeDegrees>2.86048580892384052276611328125</LongitudeDegrees>
            </Position>
            <AltitudeMeters>286.600006103515625</AltitudeMeters>
            <DistanceMeters>NAN</DistanceMeters>
          </Trackpoint>
          <Trackpoint>
            <Time>2020-02-15T11:32:56.000Z</Time>
            <Position>
              <LatitudeDegrees>41.97480409406125545501708984375</LatitudeDegrees>
              <LongitudeDegrees>2.8604456596076488494873046875</LongitudeDegrees>
            </Position>
            <AltitudeMeters>286.600006103515625</AltitudeMeters>
            <DistanceMeters>NAN</DistanceMeters>
          </Trackpoint>
          <Trackpoint>
            <Time>2020-02-15T11:32:57.000Z</Time>
            <Position>
              <LatitudeDegrees>41.9748351909220218658447265625</LatitudeDegrees>
              <LongitudeDegrees>2.8604091145098209381103515625</LongitudeDegrees>
            </Position>
            <AltitudeMeters>286.600006103515625</AltitudeMeters>
            <DistanceMeters>NAN</DistanceMeters>
          </Trackpoint>
          <Trackpoint>
            <Time>2020-02-15T11:32:58.000Z</Time>
            <Position>
              <LatitudeDegrees>41.9748651981353759765625</LatitudeDegrees>
              <LongitudeDegrees>2.8603765927255153656005859375</LongitudeDegrees>
            </Position>
            <AltitudeMeters>286.399993896484375</AltitudeMeters>
            <DistanceMeters>NAN</DistanceMeters>
          </Trackpoint>
          <Trackpoint>
            <Time>2020-02-15T11:32:59.000Z</Time>
            <Position>
              <LatitudeDegrees>41.97489562444388866424560546875</LatitudeDegrees>
              <LongitudeDegrees>2.86035119555890560150146484375</LongitudeDegrees>
            </Position>
            <AltitudeMeters>286.399993896484375</AltitudeMeters>
            <DistanceMeters>NAN</DistanceMeters>
          </Trackpoint>
          <Trackpoint>
            <Time>2020-02-15T11:33:00.000Z</Time>
            <Position>
              <LatitudeDegrees>41.97492462582886219024658203125</LatitudeDegrees>
              <LongitudeDegrees>2.8603251278400421142578125</LongitudeDegrees>
            </Position>
            <AltitudeMeters>286.20001220703125</AltitudeMeters>
            <DistanceMeters>NAN</DistanceMeters>
          </Trackpoint>
          <Trackpoint>
            <Time>2020-02-15T11:33:01.000Z</Time>
            <Position>
              <LatitudeDegrees>41.97495060972869396209716796875</LatitudeDegrees>
              <LongitudeDegrees>2.8602988086640834808349609375</LongitudeDegrees>
            </Position>
            <AltitudeMeters>286.399993896484375</AltitudeMeters>
            <DistanceMeters>NAN</DistanceMeters>
          </Trackpoint>
          <Trackpoint>
            <Time>2020-02-15T11:33:02.000Z</Time>
            <Position>
              <LatitudeDegrees>41.9749765098094940185546875</LatitudeDegrees>
              <LongitudeDegrees>2.8602746687829494476318359375</LongitudeDegrees>
            </Position>
            <AltitudeMeters>286.20001220703125</AltitudeMeters>
            <DistanceMeters>NAN</DistanceMeters>
          </Trackpoint>
          <Trackpoint>
            <Time>2020-02-15T11:33:03.000Z</Time>
            <Position>
              <LatitudeDegrees>41.9750018231570720672607421875</LatitudeDegrees>
              <LongitudeDegrees>2.86025413312017917633056640625</LongitudeDegrees>
            </Position>
            <AltitudeMeters>286.20001220703125</AltitudeMeters>
            <DistanceMeters>NAN</DistanceMeters>
          </Trackpoint>
          <Trackpoint>
            <Time>2020-02-15T11:33:04.000Z</Time>
            <Position>
              <LatitudeDegrees>41.97502613067626953125</LatitudeDegrees>
              <LongitudeDegrees>2.86023418419063091278076171875</LongitudeDegrees>
            </Position>
            <AltitudeMeters>286.20001220703125</AltitudeMeters>
            <DistanceMeters>NAN</DistanceMeters>
          </Trackpoint>
          <Trackpoint>
            <Time>2020-02-15T11:33:05.000Z</Time>
            <Position>
              <LatitudeDegrees>41.97504867799580097198486328125</LatitudeDegrees>
              <LongitudeDegrees>2.860220186412334442138671875</LongitudeDegrees>
            </Position>
            <AltitudeMeters>286</AltitudeMeters>
            <DistanceMeters>NAN</DistanceMeters>
          </Trackpoint>
          <Trackpoint>
            <Time>2020-02-15T11:33:06.000Z</Time>
            <Position>
              <LatitudeDegrees>41.97507097385823726654052734375</LatitudeDegrees>
              <LongitudeDegrees>2.86020970903337001800537109375</LongitudeDegrees>
            </Position>
            <AltitudeMeters>286</AltitudeMeters>
            <DistanceMeters>NAN</DistanceMeters>
          </Trackpoint>
          <Trackpoint>
            <Time>2020-02-15T11:33:07.000Z</Time>
            <Position>
              <LatitudeDegrees>41.975091509521007537841796875</LatitudeDegrees>
              <LongitudeDegrees>2.86020283587276935577392578125</LongitudeDegrees>
            </Position>
            <AltitudeMeters>285.79998779296875</AltitudeMeters>
            <DistanceMeters>NAN</DistanceMeters>
          </Trackpoint>
          <Trackpoint>
            <Time>2020-02-15T11:33:08.000Z</Time>
            <Position>
              <LatitudeDegrees>41.97511087171733379364013671875</LatitudeDegrees>
              <LongitudeDegrees>2.8601958788931369781494140625</LongitudeDegrees>
            </Position>
            <AltitudeMeters>285.79998779296875</AltitudeMeters>
            <DistanceMeters>NAN</DistanceMeters>
          </Trackpoint>
          <Trackpoint>
            <Time>2020-02-15T11:33:09.000Z</Time>
            <Position>
              <LatitudeDegrees>41.975128389894962310791015625</LatitudeDegrees>
              <LongitudeDegrees>2.8601858206093311309814453125</LongitudeDegrees>
            </Position>
            <AltitudeMeters>285.79998779296875</AltitudeMeters>
            <DistanceMeters>NAN</DistanceMeters>
          </Trackpoint>
          <Trackpoint>
            <Time>2020-02-15T11:33:10.000Z</Time>
            <Position>
              <LatitudeDegrees>41.975145824253559112548828125</LatitudeDegrees>
              <LongitudeDegrees>2.86017165519297122955322265625</LongitudeDegrees>
            </Position>
            <AltitudeMeters>285.600006103515625</AltitudeMeters>
            <DistanceMeters>NAN</DistanceMeters>
          </Trackpoint>
          <Trackpoint>
            <Time>2020-02-15T11:33:11.000Z</Time>
            <Position>
              <LatitudeDegrees>41.9751644320785999298095703125</LatitudeDegrees>
              <LongitudeDegrees>2.86015924997627735137939453125</LongitudeDegrees>
            </Position>
            <AltitudeMeters>285.79998779296875</AltitudeMeters>
            <DistanceMeters>NAN</DistanceMeters>
          </Trackpoint>
          <Trackpoint>
            <Time>2020-02-15T11:33:12.000Z</Time>
            <Position>
              <LatitudeDegrees>41.97518236935138702392578125</LatitudeDegrees>
              <LongitudeDegrees>2.86014986224472522735595703125</LongitudeDegrees>
            </Position>
            <AltitudeMeters>285.79998779296875</AltitudeMeters>
            <DistanceMeters>NAN</DistanceMeters>
          </Trackpoint>
          <Trackpoint>
            <Time>2020-02-15T11:33:13.000Z</Time>
            <Position>
              <LatitudeDegrees>41.97520273737609386444091796875</LatitudeDegrees>
              <LongitudeDegrees>2.86014206707477569580078125</LongitudeDegrees>
            </Position>
            <AltitudeMeters>285.79998779296875</AltitudeMeters>
            <DistanceMeters>NAN</DistanceMeters>
          </Trackpoint>
          <Trackpoint>
            <Time>2020-02-15T11:33:14.000Z</Time>
            <Position>
              <LatitudeDegrees>41.97522318921983242034912109375</LatitudeDegrees>
              <LongitudeDegrees>2.86013460718095302581787109375</LongitudeDegrees>
            </Position>
            <AltitudeMeters>285.79998779296875</AltitudeMeters>
            <DistanceMeters>NAN</DistanceMeters>
          </Trackpoint>
          <Trackpoint>
            <Time>2020-02-15T11:33:17.000Z</Time>
            <Position>
              <LatitudeDegrees>41.9753015600144863128662109375</LatitudeDegrees>
              <LongitudeDegrees>2.8601080365478992462158203125</LongitudeDegrees>
            </Position>
            <AltitudeMeters>285.79998779296875</AltitudeMeters>
            <DistanceMeters>NAN</DistanceMeters>
          </Trackpoint>
          <Trackpoint>
            <Time>2020-02-15T11:33:20.000Z</Time>
            <Position>
              <LatitudeDegrees>41.97539116255939006805419921875</LatitudeDegrees>
              <LongitudeDegrees>2.860082723200321197509765625</LongitudeDegrees>
            </Position>
            <AltitudeMeters>285.600006103515625</AltitudeMeters>
            <DistanceMeters>NAN</DistanceMeters>
          </Trackpoint>
          <Trackpoint>
            <Time>2020-02-15T11:33:21.000Z</Time>
            <Position>
              <LatitudeDegrees>41.975422091782093048095703125</LatitudeDegrees>
              <LongitudeDegrees>2.86006436683237552642822265625</LongitudeDegrees>
            </Position>
            <AltitudeMeters>285.600006103515625</AltitudeMeters>
            <DistanceMeters>NAN</DistanceMeters>
          </Trackpoint>
          <Trackpoint>
            <Time>2020-02-15T11:33:22.000Z</Time>
            <Position>
              <LatitudeDegrees>41.9754551164805889129638671875</LatitudeDegrees>
              <LongitudeDegrees>2.86003989167511463165283203125</LongitudeDegrees>
            </Position>
            <AltitudeMeters>285.600006103515625</AltitudeMeters>
            <DistanceMeters>NAN</DistanceMeters>
          </Trackpoint>
          <Trackpoint>
            <Time>2020-02-15T11:33:23.000Z</Time>
            <Position>
              <LatitudeDegrees>41.9754919968545436859130859375</LatitudeDegrees>
              <LongitudeDegrees>2.8600059449672698974609375</LongitudeDegrees>
            </Position>
            <AltitudeMeters>285.79998779296875</AltitudeMeters>
            <DistanceMeters>NAN</DistanceMeters>
          </Trackpoint>
          <Trackpoint>
            <Time>2020-02-15T11:33:24.000Z</Time>
            <Position>
              <LatitudeDegrees>41.97552971541881561279296875</LatitudeDegrees>
              <LongitudeDegrees>2.85996411927044391632080078125</LongitudeDegrees>
            </Position>
            <AltitudeMeters>285.600006103515625</AltitudeMeters>
            <DistanceMeters>NAN</DistanceMeters>
          </Trackpoint>
          <Trackpoint>
            <Time>2020-02-15T11:33:25.000Z</Time>
            <Position>
              <LatitudeDegrees>41.97556282393634319305419921875</LatitudeDegrees>
              <LongitudeDegrees>2.859911061823368072509765625</LongitudeDegrees>
            </Position>
            <AltitudeMeters>285.600006103515625</AltitudeMeters>
            <DistanceMeters>NAN</DistanceMeters>
          </Trackpoint>
          <Trackpoint>
            <Time>2020-02-15T11:33:26.000Z</Time>
            <Position>
              <LatitudeDegrees>41.97558872401714324951171875</LatitudeDegrees>
              <LongitudeDegrees>2.85985297523438930511474609375</LongitudeDegrees>
            </Position>
            <AltitudeMeters>285.600006103515625</AltitudeMeters>
            <DistanceMeters>NAN</DistanceMeters>
          </Trackpoint>
          <Trackpoint>
            <Time>2020-02-15T11:33:27.000Z</Time>
            <Position>
              <LatitudeDegrees>41.97560640983283519744873046875</LatitudeDegrees>
              <LongitudeDegrees>2.85979363135993480682373046875</LongitudeDegrees>
            </Position>
            <AltitudeMeters>285.600006103515625</AltitudeMeters>
            <DistanceMeters>NAN</DistanceMeters>
          </Trackpoint>
          <Trackpoint>
            <Time>2020-02-15T11:33:28.000Z</Time>
            <Position>
              <LatitudeDegrees>41.97561864741146564483642578125</LatitudeDegrees>
              <LongitudeDegrees>2.85973428748548030853271484375</LongitudeDegrees>
            </Position>
            <AltitudeMeters>285.600006103515625</AltitudeMeters>
            <DistanceMeters>NAN</DistanceMeters>
          </Trackpoint>
          <Trackpoint>
            <Time>2020-02-15T11:33:29.000Z</Time>
            <Position>
              <LatitudeDegrees>41.9756234250962734222412109375</LatitudeDegrees>
              <LongitudeDegrees>2.859675697982311248779296875</LongitudeDegrees>
            </Position>
            <AltitudeMeters>285.399993896484375</AltitudeMeters>
            <DistanceMeters>NAN</DistanceMeters>
          </Trackpoint>
          <Trackpoint>
            <Time>2020-02-15T11:33:30.000Z</Time>
            <Position>
              <LatitudeDegrees>41.97562116198241710662841796875</LatitudeDegrees>
              <LongitudeDegrees>2.8596155159175395965576171875</LongitudeDegrees>
            </Position>
            <AltitudeMeters>285.399993896484375</AltitudeMeters>
            <DistanceMeters>NAN</DistanceMeters>
          </Trackpoint>
          <Trackpoint>
            <Time>2020-02-15T11:33:31.000Z</Time>
            <Position>
              <LatitudeDegrees>41.97560791857540607452392578125</LatitudeDegrees>
              <LongitudeDegrees>2.85955726169049739837646484375</LongitudeDegrees>
            </Position>
            <AltitudeMeters>285.20001220703125</AltitudeMeters>
            <DistanceMeters>NAN</DistanceMeters>
          </Trackpoint>
          <Trackpoint>
            <Time>2020-02-15T11:33:32.000Z</Time>
            <Position>
              <LatitudeDegrees>41.97558545507490634918212890625</LatitudeDegrees>
              <LongitudeDegrees>2.85949842073023319244384765625</LongitudeDegrees>
            </Position>
            <AltitudeMeters>285.20001220703125</AltitudeMeters>
            <DistanceMeters>NAN</DistanceMeters>
          </Trackpoint>
          <Trackpoint>
            <Time>2020-02-15T11:33:33.000Z</Time>
            <Position>
              <LatitudeDegrees>41.97555963881313800811767578125</LatitudeDegrees>
              <LongitudeDegrees>2.85943723283708095550537109375</LongitudeDegrees>
            </Position>
            <AltitudeMeters>284.20001220703125</AltitudeMeters>
            <DistanceMeters>NAN</DistanceMeters>
          </Trackpoint>
          <Trackpoint>
            <Time>2020-02-15T11:33:34.000Z</Time>
            <Position>
              <LatitudeDegrees>41.975533068180084228515625</LatitudeDegrees>
              <LongitudeDegrees>2.8593729436397552490234375</LongitudeDegrees>
            </Position>
            <AltitudeMeters>283.600006103515625</AltitudeMeters>
            <DistanceMeters>NAN</DistanceMeters>
          </Trackpoint>
          <Trackpoint>
            <Time>2020-02-15T11:33:35.000Z</Time>
            <Position>
              <LatitudeDegrees>41.9755090959370136260986328125</LatitudeDegrees>
              <LongitudeDegrees>2.8593030385673046112060546875</LongitudeDegrees>
            </Position>
            <AltitudeMeters>283.399993896484375</AltitudeMeters>
            <DistanceMeters>NAN</DistanceMeters>
          </Trackpoint>
          <Trackpoint>
            <Time>2020-02-15T11:33:36.000Z</Time>
            <Position>
              <LatitudeDegrees>41.9754923321306705474853515625</LatitudeDegrees>
              <LongitudeDegrees>2.85922667942941188812255859375</LongitudeDegrees>
            </Position>
            <AltitudeMeters>283</AltitudeMeters>
            <DistanceMeters>NAN</DistanceMeters>
          </Trackpoint>
          <Trackpoint>
            <Time>2020-02-15T11:33:37.000Z</Time>
            <Position>
              <LatitudeDegrees>41.9754862971603870391845703125</LatitudeDegrees>
              <LongitudeDegrees>2.8591498173773288726806640625</LongitudeDegrees>
            </Position>
            <AltitudeMeters>282.600006103515625</AltitudeMeters>
            <DistanceMeters>NAN</DistanceMeters>
          </Trackpoint>
          <Trackpoint>
            <Time>2020-02-15T11:33:38.000Z</Time>
            <Position>
              <LatitudeDegrees>41.975487805902957916259765625</LatitudeDegrees>
              <LongitudeDegrees>2.8590797446668148040771484375</LongitudeDegrees>
            </Position>
            <AltitudeMeters>282.600006103515625</AltitudeMeters>
            <DistanceMeters>NAN</DistanceMeters>
          </Trackpoint>
          <Trackpoint>
            <Time>2020-02-15T11:33:39.000Z</Time>
            <Position>
              <LatitudeDegrees>41.975491829216480255126953125</LatitudeDegrees>
              <LongitudeDegrees>2.8590140305459499359130859375</LongitudeDegrees>
            </Position>
            <AltitudeMeters>282.20001220703125</AltitudeMeters>
            <DistanceMeters>NAN</DistanceMeters>
          </Trackpoint>
          <Trackpoint>
            <Time>2020-02-15T11:33:40.000Z</Time>
            <Position>
              <LatitudeDegrees>41.97549878619611263275146484375</LatitudeDegrees>
              <LongitudeDegrees>2.85895426757633686065673828125</LongitudeDegrees>
            </Position>
            <AltitudeMeters>281.79998779296875</AltitudeMeters>
            <DistanceMeters>NAN</DistanceMeters>
          </Trackpoint>
          <Trackpoint>
            <Time>2020-02-15T11:33:41.000Z</Time>
            <Position>
              <LatitudeDegrees>41.9755075871944427490234375</LatitudeDegrees>
              <LongitudeDegrees>2.858896516263484954833984375</LongitudeDegrees>
            </Position>
            <AltitudeMeters>281.600006103515625</AltitudeMeters>
            <DistanceMeters>NAN</DistanceMeters>
          </Trackpoint>
          <Trackpoint>
            <Time>2020-02-15T11:33:42.000Z</Time>
            <Position>
              <LatitudeDegrees>41.97551655583083629608154296875</LatitudeDegrees>
              <LongitudeDegrees>2.85884387791156768798828125</LongitudeDegrees>
            </Position>
            <AltitudeMeters>281.399993896484375</AltitudeMeters>
            <DistanceMeters>NAN</DistanceMeters>
          </Trackpoint>
          <Trackpoint>
            <Time>2020-02-15T11:33:43.000Z</Time>
            <Position>
              <LatitudeDegrees>41.9755245186388492584228515625</LatitudeDegrees>
              <LongitudeDegrees>2.85880037583410739898681640625</LongitudeDegrees>
            </Position>
            <AltitudeMeters>281.20001220703125</AltitudeMeters>
            <DistanceMeters>NAN</DistanceMeters>
          </Trackpoint>
          <Trackpoint>
            <Time>2020-02-15T11:33:44.000Z</Time>
            <Position>
              <LatitudeDegrees>41.975532732903957366943359375</LatitudeDegrees>
              <LongitudeDegrees>2.8587595559656620025634765625</LongitudeDegrees>
            </Position>
            <AltitudeMeters>280.79998779296875</AltitudeMeters>
            <DistanceMeters>NAN</DistanceMeters>
          </Trackpoint>
          <Trackpoint>
            <Time>2020-02-15T11:33:45.000Z</Time>
            <Position>
              <LatitudeDegrees>41.9755399413406848907470703125</LatitudeDegrees>
              <LongitudeDegrees>2.8587196581065654754638671875</LongitudeDegrees>
            </Position>
            <AltitudeMeters>281</AltitudeMeters>
            <DistanceMeters>NAN</DistanceMeters>
          </Trackpoint>
          <Trackpoint>
            <Time>2020-02-15T11:33:46.000Z</Time>
            <Position>
              <LatitudeDegrees>41.97554983198642730712890625</LatitudeDegrees>
              <LongitudeDegrees>2.85868235863745212554931640625</LongitudeDegrees>
            </Position>
            <AltitudeMeters>280.79998779296875</AltitudeMeters>
            <DistanceMeters>NAN</DistanceMeters>
          </Trackpoint>
          <Trackpoint>
            <Time>2020-02-15T11:33:47.000Z</Time>
            <Position>
              <LatitudeDegrees>41.9755603931844234466552734375</LatitudeDegrees>
              <LongitudeDegrees>2.85864782519638538360595703125</LongitudeDegrees>
            </Position>
            <AltitudeMeters>280.600006103515625</AltitudeMeters>
            <DistanceMeters>NAN</DistanceMeters>
          </Trackpoint>
          <Trackpoint>
            <Time>2020-02-15T11:33:48.000Z</Time>
            <Position>
              <LatitudeDegrees>41.97556986473500728607177734375</LatitudeDegrees>
              <LongitudeDegrees>2.85861396230757236480712890625</LongitudeDegrees>
            </Position>
            <AltitudeMeters>280.79998779296875</AltitudeMeters>
            <DistanceMeters>NAN</DistanceMeters>
          </Trackpoint>
          <Trackpoint>
            <Time>2020-02-15T11:33:49.000Z</Time>
            <Position>
              <LatitudeDegrees>41.9755791686475276947021484375</LatitudeDegrees>
              <LongitudeDegrees>2.85858102142810821533203125</LongitudeDegrees>
            </Position>
            <AltitudeMeters>280.79998779296875</AltitudeMeters>
            <DistanceMeters>NAN</DistanceMeters>
          </Trackpoint>
          <Trackpoint>
            <Time>2020-02-15T11:33:50.000Z</Time>
            <Position>
              <LatitudeDegrees>41.9755862094461917877197265625</LatitudeDegrees>
              <LongitudeDegrees>2.85854791291058063507080078125</LongitudeDegrees>
            </Position>
            <AltitudeMeters>280.79998779296875</AltitudeMeters>
            <DistanceMeters>NAN</DistanceMeters>
          </Trackpoint>
          <Trackpoint>
            <Time>2020-02-15T11:33:51.000Z</Time>
            <Position>
              <LatitudeDegrees>41.97559534572064876556396484375</LatitudeDegrees>
              <LongitudeDegrees>2.85851606167852878570556640625</LongitudeDegrees>
            </Position>
            <AltitudeMeters>280.79998779296875</AltitudeMeters>
            <DistanceMeters>NAN</DistanceMeters>
          </Trackpoint>
          <Trackpoint>
            <Time>2020-02-15T11:33:52.000Z</Time>
            <Position>
              <LatitudeDegrees>41.9756033085286617279052734375</LatitudeDegrees>
              <LongitudeDegrees>2.85848446190357208251953125</LongitudeDegrees>
            </Position>
            <AltitudeMeters>280.79998779296875</AltitudeMeters>
            <DistanceMeters>NAN</DistanceMeters>
          </Trackpoint>
          <Trackpoint>
            <Time>2020-02-15T11:33:53.000Z</Time>
            <Position>
              <LatitudeDegrees>41.9756110198795795440673828125</LatitudeDegrees>
              <LongitudeDegrees>2.858454287052154541015625</LongitudeDegrees>
            </Position>
            <AltitudeMeters>280.79998779296875</AltitudeMeters>
            <DistanceMeters>NAN</DistanceMeters>
          </Trackpoint>
          <Trackpoint>
            <Time>2020-02-15T11:33:54.000Z</Time>
            <Position>
              <LatitudeDegrees>41.9756183959543704986572265625</LatitudeDegrees>
              <LongitudeDegrees>2.858424447476863861083984375</LongitudeDegrees>
            </Position>
            <AltitudeMeters>280.79998779296875</AltitudeMeters>
            <DistanceMeters>NAN</DistanceMeters>
          </Trackpoint>
          <Trackpoint>
            <Time>2020-02-15T11:33:55.000Z</Time>
            <Position>
              <LatitudeDegrees>41.9756244309246540069580078125</LatitudeDegrees>
              <LongitudeDegrees>2.85839552991092205047607421875</LongitudeDegrees>
            </Position>
            <AltitudeMeters>281</AltitudeMeters>
            <DistanceMeters>NAN</DistanceMeters>
          </Trackpoint>
          <Trackpoint>
            <Time>2020-02-15T11:33:56.000Z</Time>
            <Position>
              <LatitudeDegrees>41.97563029825687408447265625</LatitudeDegrees>
              <LongitudeDegrees>2.85836552269756793975830078125</LongitudeDegrees>
            </Position>
            <AltitudeMeters>281.20001220703125</AltitudeMeters>
            <DistanceMeters>NAN</DistanceMeters>
          </Trackpoint>
          <Trackpoint>
            <Time>2020-02-15T11:33:57.000Z</Time>
            <Position>
              <LatitudeDegrees>41.975636668503284454345703125</LatitudeDegrees>
              <LongitudeDegrees>2.85833518020808696746826171875</LongitudeDegrees>
            </Position>
            <AltitudeMeters>281</AltitudeMeters>
            <DistanceMeters>NAN</DistanceMeters>
          </Trackpoint>
          <Trackpoint>
            <Time>2020-02-15T11:33:58.000Z</Time>
            <Position>
              <LatitudeDegrees>41.9756432063877582550048828125</LatitudeDegrees>
              <LongitudeDegrees>2.85830500535666942596435546875</LongitudeDegrees>
            </Position>
            <AltitudeMeters>281.399993896484375</AltitudeMeters>
            <DistanceMeters>NAN</DistanceMeters>
          </Trackpoint>
          <Trackpoint>
            <Time>2020-02-15T11:33:59.000Z</Time>
            <Position>
              <LatitudeDegrees>41.9756499119102954864501953125</LatitudeDegrees>
              <LongitudeDegrees>2.85827432759106159210205078125</LongitudeDegrees>
            </Position>
            <AltitudeMeters>281.399993896484375</AltitudeMeters>
            <DistanceMeters>NAN</DistanceMeters>
          </Trackpoint>
          <Trackpoint>
            <Time>2020-02-15T11:34:00.000Z</Time>
            <Position>
              <LatitudeDegrees>41.9756562821567058563232421875</LatitudeDegrees>
              <LongitudeDegrees>2.8582449071109294891357421875</LongitudeDegrees>
            </Position>
            <AltitudeMeters>281.399993896484375</AltitudeMeters>
            <DistanceMeters>NAN</DistanceMeters>
          </Trackpoint>
          <Trackpoint>
            <Time>2020-02-15T11:34:01.000Z</Time>
            <Position>
              <LatitudeDegrees>41.9756633229553699493408203125</LatitudeDegrees>
              <LongitudeDegrees>2.858215905725955963134765625</LongitudeDegrees>
            </Position>
            <AltitudeMeters>281.79998779296875</AltitudeMeters>
            <DistanceMeters>NAN</DistanceMeters>
          </Trackpoint>
          <Trackpoint>
            <Time>2020-02-15T11:34:02.000Z</Time>
            <Position>
              <LatitudeDegrees>41.9756712019443511962890625</LatitudeDegrees>
              <LongitudeDegrees>2.85818899981677532196044921875</LongitudeDegrees>
            </Position>
            <AltitudeMeters>282.399993896484375</AltitudeMeters>
            <DistanceMeters>NAN</DistanceMeters>
          </Trackpoint>
          <Trackpoint>
            <Time>2020-02-15T11:34:03.000Z</Time>
            <Position>
              <LatitudeDegrees>41.97568126022815704345703125</LatitudeDegrees>
              <LongitudeDegrees>2.8581605851650238037109375</LongitudeDegrees>
            </Position>
            <AltitudeMeters>282.399993896484375</AltitudeMeters>
            <DistanceMeters>NAN</DistanceMeters>
          </Trackpoint>
          <Trackpoint>
            <Time>2020-02-15T11:34:04.000Z</Time>
            <Position>
              <LatitudeDegrees>41.975691653788089752197265625</LatitudeDegrees>
              <LongitudeDegrees>2.8581335954368114471435546875</LongitudeDegrees>
            </Position>
            <AltitudeMeters>282.600006103515625</AltitudeMeters>
            <DistanceMeters>NAN</DistanceMeters>
          </Trackpoint>
          <Trackpoint>
            <Time>2020-02-15T11:34:05.000Z</Time>
            <Position>
              <LatitudeDegrees>41.97570280171930789947509765625</LatitudeDegrees>
              <LongitudeDegrees>2.8581104613840579986572265625</LongitudeDegrees>
            </Position>
            <AltitudeMeters>282.79998779296875</AltitudeMeters>
            <DistanceMeters>NAN</DistanceMeters>
          </Trackpoint>
          <Trackpoint>
            <Time>2020-02-15T11:34:06.000Z</Time>
            <Position>
              <LatitudeDegrees>41.9757159613072872161865234375</LatitudeDegrees>
              <LongitudeDegrees>2.8580849803984165191650390625</LongitudeDegrees>
            </Position>
            <AltitudeMeters>283</AltitudeMeters>
            <DistanceMeters>NAN</DistanceMeters>
          </Trackpoint>
          <Trackpoint>
            <Time>2020-02-15T11:34:07.000Z</Time>
            <Position>
              <LatitudeDegrees>41.975728534162044525146484375</LatitudeDegrees>
              <LongitudeDegrees>2.85805824212729930877685546875</LongitudeDegrees>
            </Position>
            <AltitudeMeters>283.20001220703125</AltitudeMeters>
            <DistanceMeters>NAN</DistanceMeters>
          </Trackpoint>
          <Trackpoint>
            <Time>2020-02-15T11:34:08.000Z</Time>
            <Position>
              <LatitudeDegrees>41.97574102319777011871337890625</LatitudeDegrees>
              <LongitudeDegrees>2.8580296598374843597412109375</LongitudeDegrees>
            </Position>
            <AltitudeMeters>283.399993896484375</AltitudeMeters>
            <DistanceMeters>NAN</DistanceMeters>
          </Trackpoint>
          <Trackpoint>
            <Time>2020-02-15T11:34:09.000Z</Time>
            <Position>
              <LatitudeDegrees>41.975753344595432281494140625</LatitudeDegrees>
              <LongitudeDegrees>2.85799990408122539520263671875</LongitudeDegrees>
            </Position>
            <AltitudeMeters>283.600006103515625</AltitudeMeters>
            <DistanceMeters>NAN</DistanceMeters>
          </Trackpoint>
          <Trackpoint>
            <Time>2020-02-15T11:34:10.000Z</Time>
            <Position>
              <LatitudeDegrees>41.97576633654534816741943359375</LatitudeDegrees>
              <LongitudeDegrees>2.8579699806869029998779296875</LongitudeDegrees>
            </Position>
            <AltitudeMeters>284</AltitudeMeters>
            <DistanceMeters>NAN</DistanceMeters>
          </Trackpoint>
          <Trackpoint>
            <Time>2020-02-15T11:34:11.000Z</Time>
            <Position>
              <LatitudeDegrees>41.97577957995235919952392578125</LatitudeDegrees>
              <LongitudeDegrees>2.85794089548289775848388671875</LongitudeDegrees>
            </Position>
            <AltitudeMeters>284.20001220703125</AltitudeMeters>
            <DistanceMeters>NAN</DistanceMeters>
          </Trackpoint>
          <Trackpoint>
            <Time>2020-02-15T11:34:12.000Z</Time>
            <Position>
              <LatitudeDegrees>41.9757944159209728240966796875</LatitudeDegrees>
              <LongitudeDegrees>2.8579092957079410552978515625</LongitudeDegrees>
            </Position>
            <AltitudeMeters>284.20001220703125</AltitudeMeters>
            <DistanceMeters>NAN</DistanceMeters>
          </Trackpoint>
          <Trackpoint>
            <Time>2020-02-15T11:34:13.000Z</Time>
            <Position>
              <LatitudeDegrees>41.9758079946041107177734375</LatitudeDegrees>
              <LongitudeDegrees>2.85788096487522125244140625</LongitudeDegrees>
            </Position>
            <AltitudeMeters>284.79998779296875</AltitudeMeters>
            <DistanceMeters>NAN</DistanceMeters>
          </Trackpoint>
          <Trackpoint>
            <Time>2020-02-15T11:34:14.000Z</Time>
            <Position>
              <LatitudeDegrees>41.97581830434501171112060546875</LatitudeDegrees>
              <LongitudeDegrees>2.85785707645118236541748046875</LongitudeDegrees>
            </Position>
            <AltitudeMeters>285</AltitudeMeters>
            <DistanceMeters>NAN</DistanceMeters>
          </Trackpoint>
          <Trackpoint>
            <Time>2020-02-15T11:34:15.000Z</Time>
            <Position>
              <LatitudeDegrees>41.9758269377052783966064453125</LatitudeDegrees>
              <LongitudeDegrees>2.85783494822680950164794921875</LongitudeDegrees>
            </Position>
            <AltitudeMeters>285.399993896484375</AltitudeMeters>
            <DistanceMeters>NAN</DistanceMeters>
          </Trackpoint>
          <Trackpoint>
            <Time>2020-02-15T11:34:16.000Z</Time>
            <Position>
              <LatitudeDegrees>41.97583548724651336669921875</LatitudeDegrees>
              <LongitudeDegrees>2.85781349055469036102294921875</LongitudeDegrees>
            </Position>
            <AltitudeMeters>285.399993896484375</AltitudeMeters>
            <DistanceMeters>NAN</DistanceMeters>
          </Trackpoint>
          <Trackpoint>
            <Time>2020-02-15T11:34:17.000Z</Time>
            <Position>
              <LatitudeDegrees>41.97584395296871662139892578125</LatitudeDegrees>
              <LongitudeDegrees>2.85778901539742946624755859375</LongitudeDegrees>
            </Position>
            <AltitudeMeters>285.399993896484375</AltitudeMeters>
            <DistanceMeters>NAN</DistanceMeters>
          </Trackpoint>
          <Trackpoint>
            <Time>2020-02-15T11:34:18.000Z</Time>
            <Position>
              <LatitudeDegrees>41.97585023939609527587890625</LatitudeDegrees>
              <LongitudeDegrees>2.857762277126312255859375</LongitudeDegrees>
            </Position>
            <AltitudeMeters>285.79998779296875</AltitudeMeters>
            <DistanceMeters>NAN</DistanceMeters>
          </Trackpoint>
          <Trackpoint>
            <Time>2020-02-15T11:34:19.000Z</Time>
            <Position>
              <LatitudeDegrees>41.97585560381412506103515625</LatitudeDegrees>
              <LongitudeDegrees>2.8577366285026073455810546875</LongitudeDegrees>
            </Position>
            <AltitudeMeters>285.79998779296875</AltitudeMeters>
            <DistanceMeters>NAN</DistanceMeters>
          </Trackpoint>
          <Trackpoint>
            <Time>2020-02-15T11:34:20.000Z</Time>
            <Position>
              <LatitudeDegrees>41.97586105205118656158447265625</LatitudeDegrees>
              <LongitudeDegrees>2.85771072842180728912353515625</LongitudeDegrees>
            </Position>
            <AltitudeMeters>285.79998779296875</AltitudeMeters>
            <DistanceMeters>NAN</DistanceMeters>
          </Trackpoint>
          <Trackpoint>
            <Time>2020-02-15T11:34:22.000Z</Time>
            <Position>
              <LatitudeDegrees>41.975875385105609893798828125</LatitudeDegrees>
              <LongitudeDegrees>2.857649289071559906005859375</LongitudeDegrees>
            </Position>
            <AltitudeMeters>286</AltitudeMeters>
            <DistanceMeters>NAN</DistanceMeters>
          </Trackpoint>
          <Trackpoint>
            <Time>2020-02-15T11:34:23.000Z</Time>
            <Position>
              <LatitudeDegrees>41.9758835993707180023193359375</LatitudeDegrees>
              <LongitudeDegrees>2.857611067593097686767578125</LongitudeDegrees>
            </Position>
            <AltitudeMeters>285.79998779296875</AltitudeMeters>
            <DistanceMeters>NAN</DistanceMeters>
          </Trackpoint>
          <Trackpoint>
            <Time>2020-02-15T11:34:28.000Z</Time>
            <Position>
              <LatitudeDegrees>41.97594436816871166229248046875</LatitudeDegrees>
              <LongitudeDegrees>2.85740193910896778106689453125</LongitudeDegrees>
            </Position>
            <AltitudeMeters>286.20001220703125</AltitudeMeters>
            <DistanceMeters>NAN</DistanceMeters>
          </Trackpoint>
          <Trackpoint>
            <Time>2020-02-15T11:34:29.000Z</Time>
            <Position>
              <LatitudeDegrees>41.975957192480564117431640625</LatitudeDegrees>
              <LongitudeDegrees>2.8573550842702388763427734375</LongitudeDegrees>
            </Position>
            <AltitudeMeters>286.20001220703125</AltitudeMeters>
            <DistanceMeters>NAN</DistanceMeters>
          </Trackpoint>
          <Trackpoint>
            <Time>2020-02-15T11:34:30.000Z</Time>
            <Position>
              <LatitudeDegrees>41.97597119025886058807373046875</LatitudeDegrees>
              <LongitudeDegrees>2.85731074400246143341064453125</LongitudeDegrees>
            </Position>
            <AltitudeMeters>286.20001220703125</AltitudeMeters>
            <DistanceMeters>NAN</DistanceMeters>
          </Trackpoint>
          <Trackpoint>
            <Time>2020-02-15T11:34:31.000Z</Time>
            <Position>
              <LatitudeDegrees>41.9759871996939182281494140625</LatitudeDegrees>
              <LongitudeDegrees>2.85726564936339855194091796875</LongitudeDegrees>
            </Position>
            <AltitudeMeters>286.20001220703125</AltitudeMeters>
            <DistanceMeters>NAN</DistanceMeters>
          </Trackpoint>
          <Trackpoint>
            <Time>2020-02-15T11:34:34.000Z</Time>
            <Position>
              <LatitudeDegrees>41.9760327972471714019775390625</LatitudeDegrees>
              <LongitudeDegrees>2.85712433047592639923095703125</LongitudeDegrees>
            </Position>
            <AltitudeMeters>286.20001220703125</AltitudeMeters>
            <DistanceMeters>NAN</DistanceMeters>
          </Trackpoint>
          <Trackpoint>
            <Time>2020-02-15T11:34:35.000Z</Time>
            <Position>
              <LatitudeDegrees>41.9760452024638652801513671875</LatitudeDegrees>
              <LongitudeDegrees>2.85707454197108745574951171875</LongitudeDegrees>
            </Position>
            <AltitudeMeters>286.20001220703125</AltitudeMeters>
            <DistanceMeters>NAN</DistanceMeters>
          </Trackpoint>
          <Trackpoint>
            <Time>2020-02-15T11:34:37.000Z</Time>
            <Position>
              <LatitudeDegrees>41.97606322355568408966064453125</LatitudeDegrees>
              <LongitudeDegrees>2.85697446204721927642822265625</LongitudeDegrees>
            </Position>
            <AltitudeMeters>286</AltitudeMeters>
            <DistanceMeters>NAN</DistanceMeters>
          </Trackpoint>
          <Trackpoint>
            <Time>2020-02-15T11:34:38.000Z</Time>
            <Position>
              <LatitudeDegrees>41.97606892324984073638916015625</LatitudeDegrees>
              <LongitudeDegrees>2.856928445398807525634765625</LongitudeDegrees>
            </Position>
            <AltitudeMeters>285.79998779296875</AltitudeMeters>
            <DistanceMeters>NAN</DistanceMeters>
          </Trackpoint>
          <Trackpoint>
            <Time>2020-02-15T11:34:39.000Z</Time>
            <Position>
              <LatitudeDegrees>41.9760810770094394683837890625</LatitudeDegrees>
              <LongitudeDegrees>2.85688175819814205169677734375</LongitudeDegrees>
            </Position>
            <AltitudeMeters>285.79998779296875</AltitudeMeters>
            <DistanceMeters>NAN</DistanceMeters>
          </Trackpoint>
          <Trackpoint>
            <Time>2020-02-15T11:34:40.000Z</Time>
            <Position>
              <LatitudeDegrees>41.97609364986419677734375</LatitudeDegrees>
              <LongitudeDegrees>2.85682861693203449249267578125</LongitudeDegrees>
            </Position>
            <AltitudeMeters>285.600006103515625</AltitudeMeters>
            <DistanceMeters>NAN</DistanceMeters>
          </Trackpoint>
          <Trackpoint>
            <Time>2020-02-15T11:34:41.000Z</Time>
            <Position>
              <LatitudeDegrees>41.9761089049279689788818359375</LatitudeDegrees>
              <LongitudeDegrees>2.85677262581884860992431640625</LongitudeDegrees>
            </Position>
            <AltitudeMeters>285.20001220703125</AltitudeMeters>
            <DistanceMeters>NAN</DistanceMeters>
          </Trackpoint>
          <Trackpoint>
            <Time>2020-02-15T11:34:42.000Z</Time>
            <Position>
              <LatitudeDegrees>41.9761293567717075347900390625</LatitudeDegrees>
              <LongitudeDegrees>2.85671764053404331207275390625</LongitudeDegrees>
            </Position>
            <AltitudeMeters>285.20001220703125</AltitudeMeters>
            <DistanceMeters>NAN</DistanceMeters>
          </Trackpoint>
          <Trackpoint>
            <Time>2020-02-15T11:34:43.000Z</Time>
            <Position>
              <LatitudeDegrees>41.97615332901477813720703125</LatitudeDegrees>
              <LongitudeDegrees>2.8566612303256988525390625</LongitudeDegrees>
            </Position>
            <AltitudeMeters>285</AltitudeMeters>
            <DistanceMeters>NAN</DistanceMeters>
          </Trackpoint>
          <Trackpoint>
            <Time>2020-02-15T11:34:45.000Z</Time>
            <Position>
              <LatitudeDegrees>41.9762128405272960662841796875</LatitudeDegrees>
              <LongitudeDegrees>2.8565531037747859954833984375</LongitudeDegrees>
            </Position>
            <AltitudeMeters>284.79998779296875</AltitudeMeters>
            <DistanceMeters>NAN</DistanceMeters>
          </Trackpoint>
          <Trackpoint>
            <Time>2020-02-15T11:34:46.000Z</Time>
            <Position>
              <LatitudeDegrees>41.9762497209012508392333984375</LatitudeDegrees>
              <LongitudeDegrees>2.856504656374454498291015625</LongitudeDegrees>
            </Position>
            <AltitudeMeters>284.79998779296875</AltitudeMeters>
            <DistanceMeters>NAN</DistanceMeters>
          </Trackpoint>
          <Trackpoint>
            <Time>2020-02-15T11:34:47.000Z</Time>
            <Position>
              <LatitudeDegrees>41.9762889482080936431884765625</LatitudeDegrees>
              <LongitudeDegrees>2.856457717716693878173828125</LongitudeDegrees>
            </Position>
            <AltitudeMeters>284.79998779296875</AltitudeMeters>
            <DistanceMeters>NAN</DistanceMeters>
          </Trackpoint>
          <Trackpoint>
            <Time>2020-02-15T11:34:48.000Z</Time>
            <Position>
              <LatitudeDegrees>41.97632641531527042388916015625</LatitudeDegrees>
              <LongitudeDegrees>2.85641136579215526580810546875</LongitudeDegrees>
            </Position>
            <AltitudeMeters>284.600006103515625</AltitudeMeters>
            <DistanceMeters>NAN</DistanceMeters>
          </Trackpoint>
          <Trackpoint>
            <Time>2020-02-15T11:34:49.000Z</Time>
            <Position>
              <LatitudeDegrees>41.97635960765182971954345703125</LatitudeDegrees>
              <LongitudeDegrees>2.8563619963824748992919921875</LongitudeDegrees>
            </Position>
            <AltitudeMeters>284.399993896484375</AltitudeMeters>
            <DistanceMeters>NAN</DistanceMeters>
          </Trackpoint>
          <Trackpoint>
            <Time>2020-02-15T11:34:50.000Z</Time>
            <Position>
              <LatitudeDegrees>41.97638760320842266082763671875</LatitudeDegrees>
              <LongitudeDegrees>2.8563080169260501861572265625</LongitudeDegrees>
            </Position>
            <AltitudeMeters>284.20001220703125</AltitudeMeters>
            <DistanceMeters>NAN</DistanceMeters>
          </Trackpoint>
          <Trackpoint>
            <Time>2020-02-15T11:34:51.000Z</Time>
            <Position>
              <LatitudeDegrees>41.9764126650989055633544921875</LatitudeDegrees>
              <LongitudeDegrees>2.8562493436038494110107421875</LongitudeDegrees>
            </Position>
            <AltitudeMeters>283.79998779296875</AltitudeMeters>
            <DistanceMeters>NAN</DistanceMeters>
          </Trackpoint>
          <Trackpoint>
            <Time>2020-02-15T11:34:52.000Z</Time>
            <Position>
              <LatitudeDegrees>41.97642515413463115692138671875</LatitudeDegrees>
              <LongitudeDegrees>2.85618471913039684295654296875</LongitudeDegrees>
            </Position>
            <AltitudeMeters>283.600006103515625</AltitudeMeters>
            <DistanceMeters>NAN</DistanceMeters>
          </Trackpoint>
          <Trackpoint>
            <Time>2020-02-15T11:34:53.000Z</Time>
            <Position>
              <LatitudeDegrees>41.97642448358237743377685546875</LatitudeDegrees>
              <LongitudeDegrees>2.85611548461019992828369140625</LongitudeDegrees>
            </Position>
            <AltitudeMeters>283.20001220703125</AltitudeMeters>
            <DistanceMeters>NAN</DistanceMeters>
          </Trackpoint>
          <Trackpoint>
            <Time>2020-02-15T11:34:54.000Z</Time>
            <Position>
              <LatitudeDegrees>41.97641610167920589447021484375</LatitudeDegrees>
              <LongitudeDegrees>2.85604901611804962158203125</LongitudeDegrees>
            </Position>
            <AltitudeMeters>283</AltitudeMeters>
            <DistanceMeters>NAN</DistanceMeters>
          </Trackpoint>
          <Trackpoint>
            <Time>2020-02-15T11:34:55.000Z</Time>
            <Position>
              <LatitudeDegrees>41.976405791938304901123046875</LatitudeDegrees>
              <LongitudeDegrees>2.85598573274910449981689453125</LongitudeDegrees>
            </Position>
            <AltitudeMeters>282.600006103515625</AltitudeMeters>
            <DistanceMeters>NAN</DistanceMeters>
          </Trackpoint>
          <Trackpoint>
            <Time>2020-02-15T11:34:56.000Z</Time>
            <Position>
              <LatitudeDegrees>41.97639632038772106170654296875</LatitudeDegrees>
              <LongitudeDegrees>2.855919264256954193115234375</LongitudeDegrees>
            </Position>
            <AltitudeMeters>282.399993896484375</AltitudeMeters>
            <DistanceMeters>NAN</DistanceMeters>
          </Trackpoint>
          <Trackpoint>
            <Time>2020-02-15T11:34:57.000Z</Time>
            <Position>
              <LatitudeDegrees>41.97638492099940776824951171875</LatitudeDegrees>
              <LongitudeDegrees>2.855846174061298370361328125</LongitudeDegrees>
            </Position>
            <AltitudeMeters>282.20001220703125</AltitudeMeters>
            <DistanceMeters>NAN</DistanceMeters>
          </Trackpoint>
          <Trackpoint>
            <Time>2020-02-15T11:34:58.000Z</Time>
            <Position>
              <LatitudeDegrees>41.97637570090591907501220703125</LatitudeDegrees>
              <LongitudeDegrees>2.8557680547237396240234375</LongitudeDegrees>
            </Position>
            <AltitudeMeters>281.600006103515625</AltitudeMeters>
            <DistanceMeters>NAN</DistanceMeters>
          </Trackpoint>
          <Trackpoint>
            <Time>2020-02-15T11:34:59.000Z</Time>
            <Position>
              <LatitudeDegrees>41.97637167759239673614501953125</LatitudeDegrees>
              <LongitudeDegrees>2.85568549297749996185302734375</LongitudeDegrees>
            </Position>
            <AltitudeMeters>281</AltitudeMeters>
            <DistanceMeters>NAN</DistanceMeters>
          </Trackpoint>
          <Trackpoint>
            <Time>2020-02-15T11:35:00.000Z</Time>
            <Position>
              <LatitudeDegrees>41.976380646228790283203125</LatitudeDegrees>
              <LongitudeDegrees>2.85560016520321369171142578125</LongitudeDegrees>
            </Position>
            <AltitudeMeters>280.600006103515625</AltitudeMeters>
            <DistanceMeters>NAN</DistanceMeters>
          </Trackpoint>
          <Trackpoint>
            <Time>2020-02-15T11:35:01.000Z</Time>
            <Position>
              <LatitudeDegrees>41.9763912074267864227294921875</LatitudeDegrees>
              <LongitudeDegrees>2.85551114939153194427490234375</LongitudeDegrees>
            </Position>
            <AltitudeMeters>280.399993896484375</AltitudeMeters>
            <DistanceMeters>NAN</DistanceMeters>
          </Trackpoint>
          <Trackpoint>
            <Time>2020-02-15T11:35:03.000Z</Time>
            <Position>
              <LatitudeDegrees>41.97641174308955669403076171875</LatitudeDegrees>
              <LongitudeDegrees>2.855325154960155487060546875</LongitudeDegrees>
            </Position>
            <AltitudeMeters>280.20001220703125</AltitudeMeters>
            <DistanceMeters>NAN</DistanceMeters>
          </Trackpoint>
          <Trackpoint>
            <Time>2020-02-15T11:35:04.000Z</Time>
            <Position>
              <LatitudeDegrees>41.97641207836568355560302734375</LatitudeDegrees>
              <LongitudeDegrees>2.85523354075849056243896484375</LongitudeDegrees>
            </Position>
            <AltitudeMeters>279.79998779296875</AltitudeMeters>
            <DistanceMeters>NAN</DistanceMeters>
          </Trackpoint>
          <Trackpoint>
            <Time>2020-02-15T11:35:05.000Z</Time>
            <Position>
              <LatitudeDegrees>41.97640252299606800079345703125</LatitudeDegrees>
              <LongitudeDegrees>2.85514402203261852264404296875</LongitudeDegrees>
            </Position>
            <AltitudeMeters>279.20001220703125</AltitudeMeters>
            <DistanceMeters>NAN</DistanceMeters>
          </Trackpoint>
          <Trackpoint>
            <Time>2020-02-15T11:35:06.000Z</Time>
            <Position>
              <LatitudeDegrees>41.97638089768588542938232421875</LatitudeDegrees>
              <LongitudeDegrees>2.85504980944097042083740234375</LongitudeDegrees>
            </Position>
            <AltitudeMeters>277.79998779296875</AltitudeMeters>
            <DistanceMeters>NAN</DistanceMeters>
          </Trackpoint>
          <Trackpoint>
            <Time>2020-02-15T11:35:07.000Z</Time>
            <Position>
              <LatitudeDegrees>41.976354159414768218994140625</LatitudeDegrees>
              <LongitudeDegrees>2.85495827905833721160888671875</LongitudeDegrees>
            </Position>
            <AltitudeMeters>276.600006103515625</AltitudeMeters>
            <DistanceMeters>NAN</DistanceMeters>
          </Trackpoint>
          <Trackpoint>
            <Time>2020-02-15T11:35:09.000Z</Time>
            <Position>
              <LatitudeDegrees>41.976269669830799102783203125</LatitudeDegrees>
              <LongitudeDegrees>2.8547986038029193878173828125</LongitudeDegrees>
            </Position>
            <AltitudeMeters>275</AltitudeMeters>
            <DistanceMeters>NAN</DistanceMeters>
          </Trackpoint>
          <Trackpoint>
            <Time>2020-02-15T11:35:10.000Z</Time>
            <Position>
              <LatitudeDegrees>41.97620688937604427337646484375</LatitudeDegrees>
              <LongitudeDegrees>2.85473984666168689727783203125</LongitudeDegrees>
            </Position>
            <AltitudeMeters>274.600006103515625</AltitudeMeters>
            <DistanceMeters>NAN</DistanceMeters>
          </Trackpoint>
          <Trackpoint>
            <Time>2020-02-15T11:35:11.000Z</Time>
            <Position>
              <LatitudeDegrees>41.9761400856077671051025390625</LatitudeDegrees>
              <LongitudeDegrees>2.854693830013275146484375</LongitudeDegrees>
            </Position>
            <AltitudeMeters>274.399993896484375</AltitudeMeters>
            <DistanceMeters>NAN</DistanceMeters>
          </Trackpoint>
          <Trackpoint>
            <Time>2020-02-15T11:35:12.000Z</Time>
            <Position>
              <LatitudeDegrees>41.9760869443416595458984375</LatitudeDegrees>
              <LongitudeDegrees>2.854651920497417449951171875</LongitudeDegrees>
            </Position>
            <AltitudeMeters>273.79998779296875</AltitudeMeters>
            <DistanceMeters>NAN</DistanceMeters>
          </Trackpoint>
          <Trackpoint>
            <Time>2020-02-15T11:35:13.000Z</Time>
            <Position>
              <LatitudeDegrees>41.97605785913765430450439453125</LatitudeDegrees>
              <LongitudeDegrees>2.8546142019331455230712890625</LongitudeDegrees>
            </Position>
            <AltitudeMeters>273.600006103515625</AltitudeMeters>
            <DistanceMeters>NAN</DistanceMeters>
          </Trackpoint>
          <Trackpoint>
            <Time>2020-02-15T11:35:14.000Z</Time>
            <Position>
              <LatitudeDegrees>41.9760522432625293731689453125</LatitudeDegrees>
              <LongitudeDegrees>2.85458126105368137359619140625</LongitudeDegrees>
            </Position>
            <AltitudeMeters>273.20001220703125</AltitudeMeters>
            <DistanceMeters>NAN</DistanceMeters>
          </Trackpoint>
          <Trackpoint>
            <Time>2020-02-15T11:35:15.000Z</Time>
            <Position>
              <LatitudeDegrees>41.97606272064149379730224609375</LatitudeDegrees>
              <LongitudeDegrees>2.8545531816780567169189453125</LongitudeDegrees>
            </Position>
            <AltitudeMeters>272.399993896484375</AltitudeMeters>
            <DistanceMeters>NAN</DistanceMeters>
          </Trackpoint>
          <Trackpoint>
            <Time>2020-02-15T11:35:16.000Z</Time>
            <Position>
              <LatitudeDegrees>41.97608283720910549163818359375</LatitudeDegrees>
              <LongitudeDegrees>2.8545263595879077911376953125</LongitudeDegrees>
            </Position>
            <AltitudeMeters>271.600006103515625</AltitudeMeters>
            <DistanceMeters>NAN</DistanceMeters>
          </Trackpoint>
          <Trackpoint>
            <Time>2020-02-15T11:35:17.000Z</Time>
            <Position>
              <LatitudeDegrees>41.97611435316503047943115234375</LatitudeDegrees>
              <LongitudeDegrees>2.85449693910777568817138671875</LongitudeDegrees>
            </Position>
            <AltitudeMeters>271.600006103515625</AltitudeMeters>
            <DistanceMeters>NAN</DistanceMeters>
          </Trackpoint>
          <Trackpoint>
            <Time>2020-02-15T11:35:18.000Z</Time>
            <Position>
              <LatitudeDegrees>41.976157017052173614501953125</LatitudeDegrees>
              <LongitudeDegrees>2.8544626571238040924072265625</LongitudeDegrees>
            </Position>
            <AltitudeMeters>271.20001220703125</AltitudeMeters>
            <DistanceMeters>NAN</DistanceMeters>
          </Trackpoint>
          <Trackpoint>
            <Time>2020-02-15T11:35:19.000Z</Time>
            <Position>
              <LatitudeDegrees>41.97619599290192127227783203125</LatitudeDegrees>
              <LongitudeDegrees>2.854425609111785888671875</LongitudeDegrees>
            </Position>
            <AltitudeMeters>269.79998779296875</AltitudeMeters>
            <DistanceMeters>NAN</DistanceMeters>
          </Trackpoint>
          <Trackpoint>
            <Time>2020-02-15T11:35:20.000Z</Time>
            <Position>
              <LatitudeDegrees>41.97622817941009998321533203125</LatitudeDegrees>
              <LongitudeDegrees>2.8543840348720550537109375</LongitudeDegrees>
            </Position>
            <AltitudeMeters>268.399993896484375</AltitudeMeters>
            <DistanceMeters>NAN</DistanceMeters>
          </Trackpoint>
          <Trackpoint>
            <Time>2020-02-15T11:35:21.000Z</Time>
            <Position>
              <LatitudeDegrees>41.9762540794909000396728515625</LatitudeDegrees>
              <LongitudeDegrees>2.85432703793048858642578125</LongitudeDegrees>
            </Position>
            <AltitudeMeters>266.79998779296875</AltitudeMeters>
            <DistanceMeters>NAN</DistanceMeters>
          </Trackpoint>
          <Trackpoint>
            <Time>2020-02-15T11:35:22.000Z</Time>
            <Position>
              <LatitudeDegrees>41.97627763263881206512451171875</LatitudeDegrees>
              <LongitudeDegrees>2.85424766130745410919189453125</LongitudeDegrees>
            </Position>
            <AltitudeMeters>265.600006103515625</AltitudeMeters>
            <DistanceMeters>NAN</DistanceMeters>
          </Trackpoint>
          <Trackpoint>
            <Time>2020-02-15T11:35:23.000Z</Time>
            <Position>
              <LatitudeDegrees>41.97630328126251697540283203125</LatitudeDegrees>
              <LongitudeDegrees>2.85414942540228366851806640625</LongitudeDegrees>
            </Position>
            <AltitudeMeters>264.79998779296875</AltitudeMeters>
            <DistanceMeters>NAN</DistanceMeters>
          </Trackpoint>
          <Trackpoint>
            <Time>2020-02-15T11:35:24.000Z</Time>
            <Position>
              <LatitudeDegrees>41.976332366466522216796875</LatitudeDegrees>
              <LongitudeDegrees>2.85403895191848278045654296875</LongitudeDegrees>
            </Position>
            <AltitudeMeters>264.399993896484375</AltitudeMeters>
            <DistanceMeters>NAN</DistanceMeters>
          </Trackpoint>
          <Trackpoint>
            <Time>2020-02-15T11:35:27.000Z</Time>
            <Position>
              <LatitudeDegrees>41.97643772698938846588134765625</LatitudeDegrees>
              <LongitudeDegrees>2.8536861576139926910400390625</LongitudeDegrees>
            </Position>
            <AltitudeMeters>263.399993896484375</AltitudeMeters>
            <DistanceMeters>NAN</DistanceMeters>
          </Trackpoint>
          <Trackpoint>
            <Time>2020-02-15T11:35:29.000Z</Time>
            <Position>
              <LatitudeDegrees>41.97649262845516204833984375</LatitudeDegrees>
              <LongitudeDegrees>2.8534477762877941131591796875</LongitudeDegrees>
            </Position>
            <AltitudeMeters>261.600006103515625</AltitudeMeters>
            <DistanceMeters>NAN</DistanceMeters>
          </Trackpoint>
          <Trackpoint>
            <Time>2020-02-15T11:35:30.000Z</Time>
            <Position>
              <LatitudeDegrees>41.97649472393095493316650390625</LatitudeDegrees>
              <LongitudeDegrees>2.8533290885388851165771484375</LongitudeDegrees>
            </Position>
            <AltitudeMeters>260</AltitudeMeters>
            <DistanceMeters>NAN</DistanceMeters>
          </Trackpoint>
          <Trackpoint>
            <Time>2020-02-15T11:35:31.000Z</Time>
            <Position>
              <LatitudeDegrees>41.9764827378094196319580078125</LatitudeDegrees>
              <LongitudeDegrees>2.853213585913181304931640625</LongitudeDegrees>
            </Position>
            <AltitudeMeters>258.399993896484375</AltitudeMeters>
            <DistanceMeters>NAN</DistanceMeters>
          </Trackpoint>
          <Trackpoint>
            <Time>2020-02-15T11:35:32.000Z</Time>
            <Position>
              <LatitudeDegrees>41.97645373642444610595703125</LatitudeDegrees>
              <LongitudeDegrees>2.85309783183038234710693359375</LongitudeDegrees>
            </Position>
            <AltitudeMeters>256.399993896484375</AltitudeMeters>
            <DistanceMeters>NAN</DistanceMeters>
          </Trackpoint>
          <Trackpoint>
            <Time>2020-02-15T11:35:33.000Z</Time>
            <Position>
              <LatitudeDegrees>41.976421885192394256591796875</LatitudeDegrees>
              <LongitudeDegrees>2.852980904281139373779296875</LongitudeDegrees>
            </Position>
            <AltitudeMeters>255.1999969482421875</AltitudeMeters>
            <DistanceMeters>NAN</DistanceMeters>
          </Trackpoint>
          <Trackpoint>
            <Time>2020-02-15T11:35:34.000Z</Time>
            <Position>
              <LatitudeDegrees>41.97639380581676959991455078125</LatitudeDegrees>
              <LongitudeDegrees>2.8528617136180400848388671875</LongitudeDegrees>
            </Position>
            <AltitudeMeters>254.1999969482421875</AltitudeMeters>
            <DistanceMeters>NAN</DistanceMeters>
          </Trackpoint>
          <Trackpoint>
            <Time>2020-02-15T11:35:35.000Z</Time>
            <Position>
              <LatitudeDegrees>41.97636849246919155120849609375</LatitudeDegrees>
              <LongitudeDegrees>2.85273917019367218017578125</LongitudeDegrees>
            </Position>
            <AltitudeMeters>253.399993896484375</AltitudeMeters>
            <DistanceMeters>NAN</DistanceMeters>
          </Trackpoint>
          <Trackpoint>
            <Time>2020-02-15T11:35:36.000Z</Time>
            <Position>
              <LatitudeDegrees>41.97634049691259860992431640625</LatitudeDegrees>
              <LongitudeDegrees>2.852608747780323028564453125</LongitudeDegrees>
            </Position>
            <AltitudeMeters>252.1999969482421875</AltitudeMeters>
            <DistanceMeters>NAN</DistanceMeters>
          </Trackpoint>
          <Trackpoint>
            <Time>2020-02-15T11:35:37.000Z</Time>
            <Position>
              <LatitudeDegrees>41.976313255727291107177734375</LatitudeDegrees>
              <LongitudeDegrees>2.85247203893959522247314453125</LongitudeDegrees>
            </Position>
            <AltitudeMeters>251.600006103515625</AltitudeMeters>
            <DistanceMeters>NAN</DistanceMeters>
          </Trackpoint>
          <Trackpoint>
            <Time>2020-02-15T11:35:38.000Z</Time>
            <Position>
              <LatitudeDegrees>41.97629012167453765869140625</LatitudeDegrees>
              <LongitudeDegrees>2.85234496928751468658447265625</LongitudeDegrees>
            </Position>
            <AltitudeMeters>251.399993896484375</AltitudeMeters>
            <DistanceMeters>NAN</DistanceMeters>
          </Trackpoint>
          <Trackpoint>
            <Time>2020-02-15T11:35:39.000Z</Time>
            <Position>
              <LatitudeDegrees>41.97628341615200042724609375</LatitudeDegrees>
              <LongitudeDegrees>2.8522463142871856689453125</LongitudeDegrees>
            </Position>
            <AltitudeMeters>251.1999969482421875</AltitudeMeters>
            <DistanceMeters>NAN</DistanceMeters>
          </Trackpoint>
          <Trackpoint>
            <Time>2020-02-15T11:35:40.000Z</Time>
            <Position>
              <LatitudeDegrees>41.9762872718274593353271484375</LatitudeDegrees>
              <LongitudeDegrees>2.8521804325282573699951171875</LongitudeDegrees>
            </Position>
            <AltitudeMeters>250.600006103515625</AltitudeMeters>
            <DistanceMeters>NAN</DistanceMeters>
          </Trackpoint>
          <Trackpoint>
            <Time>2020-02-15T11:35:41.000Z</Time>
            <Position>
              <LatitudeDegrees>41.9762946479022502899169921875</LatitudeDegrees>
              <LongitudeDegrees>2.85214514471590518951416015625</LongitudeDegrees>
            </Position>
            <AltitudeMeters>250</AltitudeMeters>
            <DistanceMeters>NAN</DistanceMeters>
          </Trackpoint>
          <Trackpoint>
            <Time>2020-02-15T11:35:42.000Z</Time>
            <Position>
              <LatitudeDegrees>41.9763033650815486907958984375</LatitudeDegrees>
              <LongitudeDegrees>2.85212603397667407989501953125</LongitudeDegrees>
            </Position>
            <AltitudeMeters>248.600006103515625</AltitudeMeters>
            <DistanceMeters>NAN</DistanceMeters>
          </Trackpoint>
          <Trackpoint>
            <Time>2020-02-15T11:35:43.000Z</Time>
            <Position>
              <LatitudeDegrees>41.97631266899406909942626953125</LatitudeDegrees>
              <LongitudeDegrees>2.8521096892654895782470703125</LongitudeDegrees>
            </Position>
            <AltitudeMeters>247.399993896484375</AltitudeMeters>
            <DistanceMeters>NAN</DistanceMeters>
          </Trackpoint>
          <Trackpoint>
            <Time>2020-02-15T11:35:44.000Z</Time>
            <Position>
              <LatitudeDegrees>41.97632138617336750030517578125</LatitudeDegrees>
              <LongitudeDegrees>2.85209535621106624603271484375</LongitudeDegrees>
            </Position>
            <AltitudeMeters>246</AltitudeMeters>
            <DistanceMeters>NAN</DistanceMeters>
          </Trackpoint>
          <Trackpoint>
            <Time>2020-02-15T11:35:45.000Z</Time>
            <Position>
              <LatitudeDegrees>41.97633278556168079376220703125</LatitudeDegrees>
              <LongitudeDegrees>2.85207926295697689056396484375</LongitudeDegrees>
            </Position>
            <AltitudeMeters>243.600006103515625</AltitudeMeters>
            <DistanceMeters>NAN</DistanceMeters>
          </Trackpoint>
          <Trackpoint>
            <Time>2020-02-15T11:35:46.000Z</Time>
            <Position>
              <LatitudeDegrees>41.976348794996738433837890625</LatitudeDegrees>
              <LongitudeDegrees>2.8520570509135723114013671875</LongitudeDegrees>
            </Position>
            <AltitudeMeters>243.600006103515625</AltitudeMeters>
            <DistanceMeters>NAN</DistanceMeters>
          </Trackpoint>
          <Trackpoint>
            <Time>2020-02-15T11:35:48.000Z</Time>
            <Position>
              <LatitudeDegrees>41.97639204561710357666015625</LatitudeDegrees>
              <LongitudeDegrees>2.85199779085814952850341796875</LongitudeDegrees>
            </Position>
            <AltitudeMeters>241</AltitudeMeters>
            <DistanceMeters>NAN</DistanceMeters>
          </Trackpoint>
          <Trackpoint>
            <Time>2020-02-15T11:35:50.000Z</Time>
            <Position>
              <LatitudeDegrees>41.97645281441509723663330078125</LatitudeDegrees>
              <LongitudeDegrees>2.85190902650356292724609375</LongitudeDegrees>
            </Position>
            <AltitudeMeters>239.1999969482421875</AltitudeMeters>
            <DistanceMeters>NAN</DistanceMeters>
          </Trackpoint>
          <Trackpoint>
            <Time>2020-02-15T11:35:52.000Z</Time>
            <Position>
              <LatitudeDegrees>41.97652540169656276702880859375</LatitudeDegrees>
              <LongitudeDegrees>2.85180148668587207794189453125</LongitudeDegrees>
            </Position>
            <AltitudeMeters>238</AltitudeMeters>
            <DistanceMeters>NAN</DistanceMeters>
          </Trackpoint>
          <Trackpoint>
            <Time>2020-02-15T11:35:56.000Z</Time>
            <Position>
              <LatitudeDegrees>41.97667099535465240478515625</LatitudeDegrees>
              <LongitudeDegrees>2.85157852806150913238525390625</LongitudeDegrees>
            </Position>
            <AltitudeMeters>237</AltitudeMeters>
            <DistanceMeters>NAN</DistanceMeters>
          </Trackpoint>
          <Trackpoint>
            <Time>2020-02-15T11:35:57.000Z</Time>
            <Position>
              <LatitudeDegrees>41.97670896537601947784423828125</LatitudeDegrees>
              <LongitudeDegrees>2.85152756609022617340087890625</LongitudeDegrees>
            </Position>
            <AltitudeMeters>236.399993896484375</AltitudeMeters>
            <DistanceMeters>NAN</DistanceMeters>
          </Trackpoint>
          <Trackpoint>
            <Time>2020-02-15T11:35:58.000Z</Time>
            <Position>
              <LatitudeDegrees>41.97675037197768688201904296875</LatitudeDegrees>
              <LongitudeDegrees>2.8514894284307956695556640625</LongitudeDegrees>
            </Position>
            <AltitudeMeters>236.1999969482421875</AltitudeMeters>
            <DistanceMeters>NAN</DistanceMeters>
          </Trackpoint>
          <Trackpoint>
            <Time>2020-02-15T11:35:59.000Z</Time>
            <Position>
              <LatitudeDegrees>41.9767908565700054168701171875</LatitudeDegrees>
              <LongitudeDegrees>2.85145950503647327423095703125</LongitudeDegrees>
            </Position>
            <AltitudeMeters>235.399993896484375</AltitudeMeters>
            <DistanceMeters>NAN</DistanceMeters>
          </Trackpoint>
          <Trackpoint>
            <Time>2020-02-15T11:36:00.000Z</Time>
            <Position>
              <LatitudeDegrees>41.97683033533394336700439453125</LatitudeDegrees>
              <LongitudeDegrees>2.85143570043146610260009765625</LongitudeDegrees>
            </Position>
            <AltitudeMeters>234.8000030517578125</AltitudeMeters>
            <DistanceMeters>NAN</DistanceMeters>
          </Trackpoint>
          <Trackpoint>
            <Time>2020-02-15T11:36:01.000Z</Time>
            <Position>
              <LatitudeDegrees>41.97686855681240558624267578125</LatitudeDegrees>
              <LongitudeDegrees>2.85141809843480587005615234375</LongitudeDegrees>
            </Position>
            <AltitudeMeters>234.600006103515625</AltitudeMeters>
            <DistanceMeters>NAN</DistanceMeters>
          </Trackpoint>
          <Trackpoint>
            <Time>2020-02-15T11:36:02.000Z</Time>
            <Position>
              <LatitudeDegrees>41.97690526954829692840576171875</LatitudeDegrees>
              <LongitudeDegrees>2.8514032624661922454833984375</LongitudeDegrees>
            </Position>
            <AltitudeMeters>234.1999969482421875</AltitudeMeters>
            <DistanceMeters>NAN</DistanceMeters>
          </Trackpoint>
          <Trackpoint>
            <Time>2020-02-15T11:36:03.000Z</Time>
            <Position>
              <LatitudeDegrees>41.97694382630288600921630859375</LatitudeDegrees>
              <LongitudeDegrees>2.85138591192662715911865234375</LongitudeDegrees>
            </Position>
            <AltitudeMeters>234.1999969482421875</AltitudeMeters>
            <DistanceMeters>NAN</DistanceMeters>
          </Trackpoint>
          <Trackpoint>
            <Time>2020-02-15T11:36:04.000Z</Time>
            <Position>
              <LatitudeDegrees>41.97698422707617282867431640625</LatitudeDegrees>
              <LongitudeDegrees>2.8513590060174465179443359375</LongitudeDegrees>
            </Position>
            <AltitudeMeters>234</AltitudeMeters>
            <DistanceMeters>NAN</DistanceMeters>
          </Trackpoint>
          <Trackpoint>
            <Time>2020-02-15T11:36:05.000Z</Time>
            <Position>
              <LatitudeDegrees>41.977024376392364501953125</LatitudeDegrees>
              <LongitudeDegrees>2.8513184376060962677001953125</LongitudeDegrees>
            </Position>
            <AltitudeMeters>233.8000030517578125</AltitudeMeters>
            <DistanceMeters>NAN</DistanceMeters>
          </Trackpoint>
          <Trackpoint>
            <Time>2020-02-15T11:36:06.000Z</Time>
            <Position>
              <LatitudeDegrees>41.97706569917500019073486328125</LatitudeDegrees>
              <LongitudeDegrees>2.85126521252095699310302734375</LongitudeDegrees>
            </Position>
            <AltitudeMeters>234</AltitudeMeters>
            <DistanceMeters>NAN</DistanceMeters>
          </Trackpoint>
          <Trackpoint>
            <Time>2020-02-15T11:36:08.000Z</Time>
            <Position>
              <LatitudeDegrees>41.977153457701206207275390625</LatitudeDegrees>
              <LongitudeDegrees>2.851118780672550201416015625</LongitudeDegrees>
            </Position>
            <AltitudeMeters>233.8000030517578125</AltitudeMeters>
            <DistanceMeters>NAN</DistanceMeters>
          </Trackpoint>
          <Trackpoint>
            <Time>2020-02-15T11:36:09.000Z</Time>
            <Position>
              <LatitudeDegrees>41.9771973788738250732421875</LatitudeDegrees>
              <LongitudeDegrees>2.8510285913944244384765625</LongitudeDegrees>
            </Position>
            <AltitudeMeters>233.8000030517578125</AltitudeMeters>
            <DistanceMeters>NAN</DistanceMeters>
          </Trackpoint>
          <Trackpoint>
            <Time>2020-02-15T11:36:10.000Z</Time>
            <Position>
              <LatitudeDegrees>41.97724364697933197021484375</LatitudeDegrees>
              <LongitudeDegrees>2.85093027167022228240966796875</LongitudeDegrees>
            </Position>
            <AltitudeMeters>233.600006103515625</AltitudeMeters>
            <DistanceMeters>NAN</DistanceMeters>
          </Trackpoint>
          <Trackpoint>
            <Time>2020-02-15T11:36:11.000Z</Time>
            <Position>
              <LatitudeDegrees>41.97729150764644145965576171875</LatitudeDegrees>
              <LongitudeDegrees>2.8508255816996097564697265625</LongitudeDegrees>
            </Position>
            <AltitudeMeters>233.600006103515625</AltitudeMeters>
            <DistanceMeters>NAN</DistanceMeters>
          </Trackpoint>
          <Trackpoint>
            <Time>2020-02-15T11:36:12.000Z</Time>
            <Position>
              <LatitudeDegrees>41.9773390330374240875244140625</LatitudeDegrees>
              <LongitudeDegrees>2.85072340629994869232177734375</LongitudeDegrees>
            </Position>
            <AltitudeMeters>233.399993896484375</AltitudeMeters>
            <DistanceMeters>NAN</DistanceMeters>
          </Trackpoint>
          <Trackpoint>
            <Time>2020-02-15T11:36:13.000Z</Time>
            <Position>
              <LatitudeDegrees>41.9773757457733154296875</LatitudeDegrees>
              <LongitudeDegrees>2.85061729140579700469970703125</LongitudeDegrees>
            </Position>
            <AltitudeMeters>233.1999969482421875</AltitudeMeters>
            <DistanceMeters>NAN</DistanceMeters>
          </Trackpoint>
          <Trackpoint>
            <Time>2020-02-15T11:36:14.000Z</Time>
            <Position>
              <LatitudeDegrees>41.97740332223474979400634765625</LatitudeDegrees>
              <LongitudeDegrees>2.85050648264586925506591796875</LongitudeDegrees>
            </Position>
            <AltitudeMeters>233.399993896484375</AltitudeMeters>
            <DistanceMeters>NAN</DistanceMeters>
          </Trackpoint>
          <Trackpoint>
            <Time>2020-02-15T11:36:15.000Z</Time>
            <Position>
              <LatitudeDegrees>41.97742327116429805755615234375</LatitudeDegrees>
              <LongitudeDegrees>2.850386537611484527587890625</LongitudeDegrees>
            </Position>
            <AltitudeMeters>232.8000030517578125</AltitudeMeters>
            <DistanceMeters>NAN</DistanceMeters>
          </Trackpoint>
          <Trackpoint>
            <Time>2020-02-15T11:36:17.000Z</Time>
            <Position>
              <LatitudeDegrees>41.977447830140590667724609375</LatitudeDegrees>
              <LongitudeDegrees>2.85012711770832538604736328125</LongitudeDegrees>
            </Position>
            <AltitudeMeters>231.8000030517578125</AltitudeMeters>
            <DistanceMeters>NAN</DistanceMeters>
          </Trackpoint>
          <Trackpoint>
            <Time>2020-02-15T11:36:18.000Z</Time>
            <Position>
              <LatitudeDegrees>41.9774543680250644683837890625</LatitudeDegrees>
              <LongitudeDegrees>2.84999149851500988006591796875</LongitudeDegrees>
            </Position>
            <AltitudeMeters>230.600006103515625</AltitudeMeters>
            <DistanceMeters>NAN</DistanceMeters>
          </Trackpoint>
          <Trackpoint>
            <Time>2020-02-15T11:36:19.000Z</Time>
            <Position>
              <LatitudeDegrees>41.97746534831821918487548828125</LatitudeDegrees>
              <LongitudeDegrees>2.8498593159019947052001953125</LongitudeDegrees>
            </Position>
            <AltitudeMeters>229.1999969482421875</AltitudeMeters>
            <DistanceMeters>NAN</DistanceMeters>
          </Trackpoint>
          <Trackpoint>
            <Time>2020-02-15T11:36:20.000Z</Time>
            <Position>
              <LatitudeDegrees>41.9774845428764820098876953125</LatitudeDegrees>
              <LongitudeDegrees>2.8497265465557575225830078125</LongitudeDegrees>
            </Position>
            <AltitudeMeters>227.8000030517578125</AltitudeMeters>
            <DistanceMeters>NAN</DistanceMeters>
          </Trackpoint>
          <Trackpoint>
            <Time>2020-02-15T11:36:21.000Z</Time>
            <Position>
              <LatitudeDegrees>41.9775080122053623199462890625</LatitudeDegrees>
              <LongitudeDegrees>2.84959268756210803985595703125</LongitudeDegrees>
            </Position>
            <AltitudeMeters>227.1999969482421875</AltitudeMeters>
            <DistanceMeters>NAN</DistanceMeters>
          </Trackpoint>
          <Trackpoint>
            <Time>2020-02-15T11:36:23.000Z</Time>
            <Position>
              <LatitudeDegrees>41.977560818195343017578125</LatitudeDegrees>
              <LongitudeDegrees>2.8493510372936725616455078125</LongitudeDegrees>
            </Position>
            <AltitudeMeters>224.8000030517578125</AltitudeMeters>
            <DistanceMeters>NAN</DistanceMeters>
          </Trackpoint>
          <Trackpoint>
            <Time>2020-02-15T11:36:24.000Z</Time>
            <Position>
              <LatitudeDegrees>41.9775894843041896820068359375</LatitudeDegrees>
              <LongitudeDegrees>2.84924827516078948974609375</LongitudeDegrees>
            </Position>
            <AltitudeMeters>223.1999969482421875</AltitudeMeters>
            <DistanceMeters>NAN</DistanceMeters>
          </Trackpoint>
          <Trackpoint>
            <Time>2020-02-15T11:36:25.000Z</Time>
            <Position>
              <LatitudeDegrees>41.9776059128344058990478515625</LatitudeDegrees>
              <LongitudeDegrees>2.84914542920887470245361328125</LongitudeDegrees>
            </Position>
            <AltitudeMeters>222.1999969482421875</AltitudeMeters>
            <DistanceMeters>NAN</DistanceMeters>
          </Trackpoint>
          <Trackpoint>
            <Time>2020-02-15T11:36:26.000Z</Time>
            <Position>
              <LatitudeDegrees>41.9776132889091968536376953125</LatitudeDegrees>
              <LongitudeDegrees>2.8490388952195644378662109375</LongitudeDegrees>
            </Position>
            <AltitudeMeters>221</AltitudeMeters>
            <DistanceMeters>NAN</DistanceMeters>
          </Trackpoint>
          <Trackpoint>
            <Time>2020-02-15T11:36:27.000Z</Time>
            <Position>
              <LatitudeDegrees>41.97761219926178455352783203125</LatitudeDegrees>
              <LongitudeDegrees>2.8489292599260807037353515625</LongitudeDegrees>
            </Position>
            <AltitudeMeters>220.399993896484375</AltitudeMeters>
            <DistanceMeters>NAN</DistanceMeters>
          </Trackpoint>
          <Trackpoint>
            <Time>2020-02-15T11:36:28.000Z</Time>
            <Position>
              <LatitudeDegrees>41.97760549373924732208251953125</LatitudeDegrees>
              <LongitudeDegrees>2.84882037900388240814208984375</LongitudeDegrees>
            </Position>
            <AltitudeMeters>220.399993896484375</AltitudeMeters>
            <DistanceMeters>NAN</DistanceMeters>
          </Trackpoint>
          <Trackpoint>
            <Time>2020-02-15T11:36:29.000Z</Time>
            <Position>
              <LatitudeDegrees>41.97759342379868030548095703125</LatitudeDegrees>
              <LongitudeDegrees>2.8487150184810161590576171875</LongitudeDegrees>
            </Position>
            <AltitudeMeters>219.399993896484375</AltitudeMeters>
            <DistanceMeters>NAN</DistanceMeters>
          </Trackpoint>
          <Trackpoint>
            <Time>2020-02-15T11:36:30.000Z</Time>
            <Position>
              <LatitudeDegrees>41.97757481597363948822021484375</LatitudeDegrees>
              <LongitudeDegrees>2.84862457774579524993896484375</LongitudeDegrees>
            </Position>
            <AltitudeMeters>217.8000030517578125</AltitudeMeters>
            <DistanceMeters>NAN</DistanceMeters>
          </Trackpoint>
          <Trackpoint>
            <Time>2020-02-15T11:36:31.000Z</Time>
            <Position>
              <LatitudeDegrees>41.97755746543407440185546875</LatitudeDegrees>
              <LongitudeDegrees>2.8485624678432941436767578125</LongitudeDegrees>
            </Position>
            <AltitudeMeters>216.399993896484375</AltitudeMeters>
            <DistanceMeters>NAN</DistanceMeters>
          </Trackpoint>
          <Trackpoint>
            <Time>2020-02-15T11:36:32.000Z</Time>
            <Position>
              <LatitudeDegrees>41.97754782624542713165283203125</LatitudeDegrees>
              <LongitudeDegrees>2.84852248616516590118408203125</LongitudeDegrees>
            </Position>
            <AltitudeMeters>215.399993896484375</AltitudeMeters>
            <DistanceMeters>NAN</DistanceMeters>
          </Trackpoint>
          <Trackpoint>
            <Time>2020-02-15T11:36:33.000Z</Time>
            <Position>
              <LatitudeDegrees>41.9775479100644588470458984375</LatitudeDegrees>
              <LongitudeDegrees>2.84849985502660274505615234375</LongitudeDegrees>
            </Position>
            <AltitudeMeters>214.600006103515625</AltitudeMeters>
            <DistanceMeters>NAN</DistanceMeters>
          </Trackpoint>
          <Trackpoint>
            <Time>2020-02-15T11:36:34.000Z</Time>
            <Position>
              <LatitudeDegrees>41.9775515981018543243408203125</LatitudeDegrees>
              <LongitudeDegrees>2.84848225302994251251220703125</LongitudeDegrees>
            </Position>
            <AltitudeMeters>213</AltitudeMeters>
            <DistanceMeters>NAN</DistanceMeters>
          </Trackpoint>
          <Trackpoint>
            <Time>2020-02-15T11:36:35.000Z</Time>
            <Position>
              <LatitudeDegrees>41.97755872271955013275146484375</LatitudeDegrees>
              <LongitudeDegrees>2.84846314229071140289306640625</LongitudeDegrees>
            </Position>
            <AltitudeMeters>211.8000030517578125</AltitudeMeters>
            <DistanceMeters>NAN</DistanceMeters>
          </Trackpoint>
          <Trackpoint>
            <Time>2020-02-15T11:36:36.000Z</Time>
            <Position>
              <LatitudeDegrees>41.97756324894726276397705078125</LatitudeDegrees>
              <LongitudeDegrees>2.84844101406633853912353515625</LongitudeDegrees>
            </Position>
            <AltitudeMeters>211</AltitudeMeters>
            <DistanceMeters>NAN</DistanceMeters>
          </Trackpoint>
          <Trackpoint>
            <Time>2020-02-15T11:36:37.000Z</Time>
            <Position>
              <LatitudeDegrees>41.97756911627948284149169921875</LatitudeDegrees>
              <LongitudeDegrees>2.8484129346907138824462890625</LongitudeDegrees>
            </Position>
            <AltitudeMeters>209.8000030517578125</AltitudeMeters>
            <DistanceMeters>NAN</DistanceMeters>
          </Trackpoint>
          <Trackpoint>
            <Time>2020-02-15T11:36:40.000Z</Time>
            <Position>
              <LatitudeDegrees>41.97757624089717864990234375</LatitudeDegrees>
              <LongitudeDegrees>2.84829701296985149383544921875</LongitudeDegrees>
            </Position>
            <AltitudeMeters>207.8000030517578125</AltitudeMeters>
            <DistanceMeters>NAN</DistanceMeters>
          </Trackpoint>
          <Trackpoint>
            <Time>2020-02-15T11:36:41.000Z</Time>
            <Position>
              <LatitudeDegrees>41.9775693677365779876708984375</LatitudeDegrees>
              <LongitudeDegrees>2.84824437461793422698974609375</LongitudeDegrees>
            </Position>
            <AltitudeMeters>207.399993896484375</AltitudeMeters>
            <DistanceMeters>NAN</DistanceMeters>
          </Trackpoint>
          <Trackpoint>
            <Time>2020-02-15T11:36:42.000Z</Time>
            <Position>
              <LatitudeDegrees>41.97756023146212100982666015625</LatitudeDegrees>
              <LongitudeDegrees>2.84818452782928943634033203125</LongitudeDegrees>
            </Position>
            <AltitudeMeters>207.1999969482421875</AltitudeMeters>
            <DistanceMeters>NAN</DistanceMeters>
          </Trackpoint>
          <Trackpoint>
            <Time>2020-02-15T11:36:43.000Z</Time>
            <Position>
              <LatitudeDegrees>41.97755386121571063995361328125</LatitudeDegrees>
              <LongitudeDegrees>2.848113365471363067626953125</LongitudeDegrees>
            </Position>
            <AltitudeMeters>207</AltitudeMeters>
            <DistanceMeters>NAN</DistanceMeters>
          </Trackpoint>
          <Trackpoint>
            <Time>2020-02-15T11:36:44.000Z</Time>
            <Position>
              <LatitudeDegrees>41.97755604051053524017333984375</LatitudeDegrees>
              <LongitudeDegrees>2.8480344079434871673583984375</LongitudeDegrees>
            </Position>
            <AltitudeMeters>206.8000030517578125</AltitudeMeters>
            <DistanceMeters>NAN</DistanceMeters>
          </Trackpoint>
          <Trackpoint>
            <Time>2020-02-15T11:36:45.000Z</Time>
            <Position>
              <LatitudeDegrees>41.9775648415088653564453125</LatitudeDegrees>
              <LongitudeDegrees>2.84795947372913360595703125</LongitudeDegrees>
            </Position>
            <AltitudeMeters>206.600006103515625</AltitudeMeters>
            <DistanceMeters>NAN</DistanceMeters>
          </Trackpoint>
          <Trackpoint>
            <Time>2020-02-15T11:36:46.000Z</Time>
            <Position>
              <LatitudeDegrees>41.977579258382320404052734375</LatitudeDegrees>
              <LongitudeDegrees>2.8478992916643619537353515625</LongitudeDegrees>
            </Position>
            <AltitudeMeters>206.399993896484375</AltitudeMeters>
            <DistanceMeters>NAN</DistanceMeters>
          </Trackpoint>
          <Trackpoint>
            <Time>2020-02-15T11:36:47.000Z</Time>
            <Position>
              <LatitudeDegrees>41.97760038077831268310546875</LatitudeDegrees>
              <LongitudeDegrees>2.8478624112904071807861328125</LongitudeDegrees>
            </Position>
            <AltitudeMeters>206.1999969482421875</AltitudeMeters>
            <DistanceMeters>NAN</DistanceMeters>
          </Trackpoint>
          <Trackpoint>
            <Time>2020-02-15T11:36:48.000Z</Time>
            <Position>
              <LatitudeDegrees>41.9776310585439205169677734375</LatitudeDegrees>
              <LongitudeDegrees>2.84783902578055858612060546875</LongitudeDegrees>
            </Position>
            <AltitudeMeters>206.1999969482421875</AltitudeMeters>
            <DistanceMeters>NAN</DistanceMeters>
          </Trackpoint>
          <Trackpoint>
            <Time>2020-02-15T11:36:49.000Z</Time>
            <Position>
              <LatitudeDegrees>41.97767338715493679046630859375</LatitudeDegrees>
              <LongitudeDegrees>2.8478153049945831298828125</LongitudeDegrees>
            </Position>
            <AltitudeMeters>206.1999969482421875</AltitudeMeters>
            <DistanceMeters>NAN</DistanceMeters>
          </Trackpoint>
          <Trackpoint>
            <Time>2020-02-15T11:36:50.000Z</Time>
            <Position>
              <LatitudeDegrees>41.977723427116870880126953125</LatitudeDegrees>
              <LongitudeDegrees>2.84778244793415069580078125</LongitudeDegrees>
            </Position>
            <AltitudeMeters>206</AltitudeMeters>
            <DistanceMeters>NAN</DistanceMeters>
          </Trackpoint>
          <Trackpoint>
            <Time>2020-02-15T11:36:51.000Z</Time>
            <Position>
              <LatitudeDegrees>41.977774389088153839111328125</LatitudeDegrees>
              <LongitudeDegrees>2.8477383591234683990478515625</LongitudeDegrees>
            </Position>
            <AltitudeMeters>205.600006103515625</AltitudeMeters>
            <DistanceMeters>NAN</DistanceMeters>
          </Trackpoint>
          <Trackpoint>
            <Time>2020-02-15T11:36:52.000Z</Time>
            <Position>
              <LatitudeDegrees>41.97781805880367755889892578125</LatitudeDegrees>
              <LongitudeDegrees>2.847677506506443023681640625</LongitudeDegrees>
            </Position>
            <AltitudeMeters>205.399993896484375</AltitudeMeters>
            <DistanceMeters>NAN</DistanceMeters>
          </Trackpoint>
          <Trackpoint>
            <Time>2020-02-15T11:36:53.000Z</Time>
            <Position>
              <LatitudeDegrees>41.9778476469218730926513671875</LatitudeDegrees>
              <LongitudeDegrees>2.847601734101772308349609375</LongitudeDegrees>
            </Position>
            <AltitudeMeters>204.600006103515625</AltitudeMeters>
            <DistanceMeters>NAN</DistanceMeters>
          </Trackpoint>
          <Trackpoint>
            <Time>2020-02-15T11:36:54.000Z</Time>
            <Position>
              <LatitudeDegrees>41.9778732955455780029296875</LatitudeDegrees>
              <LongitudeDegrees>2.847517915070056915283203125</LongitudeDegrees>
            </Position>
            <AltitudeMeters>203.600006103515625</AltitudeMeters>
            <DistanceMeters>NAN</DistanceMeters>
          </Trackpoint>
          <Trackpoint>
            <Time>2020-02-15T11:36:55.000Z</Time>
            <Position>
              <LatitudeDegrees>41.97790673933923244476318359375</LatitudeDegrees>
              <LongitudeDegrees>2.84743133001029491424560546875</LongitudeDegrees>
            </Position>
            <AltitudeMeters>202.8000030517578125</AltitudeMeters>
            <DistanceMeters>NAN</DistanceMeters>
          </Trackpoint>
          <Trackpoint>
            <Time>2020-02-15T11:36:56.000Z</Time>
            <Position>
              <LatitudeDegrees>41.97795401327311992645263671875</LatitudeDegrees>
              <LongitudeDegrees>2.8473531268537044525146484375</LongitudeDegrees>
            </Position>
            <AltitudeMeters>201.399993896484375</AltitudeMeters>
            <DistanceMeters>NAN</DistanceMeters>
          </Trackpoint>
          <Trackpoint>
            <Time>2020-02-15T11:36:57.000Z</Time>
            <Position>
              <LatitudeDegrees>41.97800916619598865509033203125</LatitudeDegrees>
              <LongitudeDegrees>2.84728397615253925323486328125</LongitudeDegrees>
            </Position>
            <AltitudeMeters>200.399993896484375</AltitudeMeters>
            <DistanceMeters>NAN</DistanceMeters>
          </Trackpoint>
          <Trackpoint>
            <Time>2020-02-15T11:36:58.000Z</Time>
            <Position>
              <LatitudeDegrees>41.97806281037628650665283203125</LatitudeDegrees>
              <LongitudeDegrees>2.84721038304269313812255859375</LongitudeDegrees>
            </Position>
            <AltitudeMeters>199.8000030517578125</AltitudeMeters>
            <DistanceMeters>NAN</DistanceMeters>
          </Trackpoint>
          <Trackpoint>
            <Time>2020-02-15T11:36:59.000Z</Time>
            <Position>
              <LatitudeDegrees>41.97811142541468143463134765625</LatitudeDegrees>
              <LongitudeDegrees>2.84713377244770526885986328125</LongitudeDegrees>
            </Position>
            <AltitudeMeters>199</AltitudeMeters>
            <DistanceMeters>NAN</DistanceMeters>
          </Trackpoint>
          <Trackpoint>
            <Time>2020-02-15T11:37:00.000Z</Time>
            <Position>
              <LatitudeDegrees>41.9781597889959812164306640625</LatitudeDegrees>
              <LongitudeDegrees>2.8470589220523834228515625</LongitudeDegrees>
            </Position>
            <AltitudeMeters>198</AltitudeMeters>
            <DistanceMeters>NAN</DistanceMeters>
          </Trackpoint>
          <Trackpoint>
            <Time>2020-02-15T11:37:01.000Z</Time>
            <Position>
              <LatitudeDegrees>41.97820790112018585205078125</LatitudeDegrees>
              <LongitudeDegrees>2.84698340110480785369873046875</LongitudeDegrees>
            </Position>
            <AltitudeMeters>197.1999969482421875</AltitudeMeters>
            <DistanceMeters>NAN</DistanceMeters>
          </Trackpoint>
          <Trackpoint>
            <Time>2020-02-15T11:37:02.000Z</Time>
            <Position>
              <LatitudeDegrees>41.97824704460799694061279296875</LatitudeDegrees>
              <LongitudeDegrees>2.84690042026340961456298828125</LongitudeDegrees>
            </Position>
            <AltitudeMeters>195.1999969482421875</AltitudeMeters>
            <DistanceMeters>NAN</DistanceMeters>
          </Trackpoint>
          <Trackpoint>
            <Time>2020-02-15T11:37:03.000Z</Time>
            <Position>
              <LatitudeDegrees>41.97827453725039958953857421875</LatitudeDegrees>
              <LongitudeDegrees>2.84680855460464954376220703125</LongitudeDegrees>
            </Position>
            <AltitudeMeters>194.1999969482421875</AltitudeMeters>
            <DistanceMeters>NAN</DistanceMeters>
          </Trackpoint>
          <Trackpoint>
            <Time>2020-02-15T11:37:04.000Z</Time>
            <Position>
              <LatitudeDegrees>41.97828476317226886749267578125</LatitudeDegrees>
              <LongitudeDegrees>2.8467264957726001739501953125</LongitudeDegrees>
            </Position>
            <AltitudeMeters>192.600006103515625</AltitudeMeters>
            <DistanceMeters>NAN</DistanceMeters>
          </Trackpoint>
          <Trackpoint>
            <Time>2020-02-15T11:37:05.000Z</Time>
            <Position>
              <LatitudeDegrees>41.97828727774322032928466796875</LatitudeDegrees>
              <LongitudeDegrees>2.8466641344130039215087890625</LongitudeDegrees>
            </Position>
            <AltitudeMeters>191.8000030517578125</AltitudeMeters>
            <DistanceMeters>NAN</DistanceMeters>
          </Trackpoint>
          <Trackpoint>
            <Time>2020-02-15T11:37:06.000Z</Time>
            <Position>
              <LatitudeDegrees>41.97828677482903003692626953125</LatitudeDegrees>
              <LongitudeDegrees>2.84661577083170413970947265625</LongitudeDegrees>
            </Position>
            <AltitudeMeters>190.399993896484375</AltitudeMeters>
            <DistanceMeters>NAN</DistanceMeters>
          </Trackpoint>
          <Trackpoint>
            <Time>2020-02-15T11:37:07.000Z</Time>
            <Position>
              <LatitudeDegrees>41.9782841764390468597412109375</LatitudeDegrees>
              <LongitudeDegrees>2.846574448049068450927734375</LongitudeDegrees>
            </Position>
            <AltitudeMeters>189.8000030517578125</AltitudeMeters>
            <DistanceMeters>NAN</DistanceMeters>
          </Trackpoint>
          <Trackpoint>
            <Time>2020-02-15T11:37:08.000Z</Time>
            <Position>
              <LatitudeDegrees>41.9782808236777782440185546875</LatitudeDegrees>
              <LongitudeDegrees>2.84653924405574798583984375</LongitudeDegrees>
            </Position>
            <AltitudeMeters>189.399993896484375</AltitudeMeters>
            <DistanceMeters>NAN</DistanceMeters>
          </Trackpoint>
          <Trackpoint>
            <Time>2020-02-15T11:37:09.000Z</Time>
            <Position>
              <LatitudeDegrees>41.97827822528779506683349609375</LatitudeDegrees>
              <LongitudeDegrees>2.84650563262403011322021484375</LongitudeDegrees>
            </Position>
            <AltitudeMeters>188.8000030517578125</AltitudeMeters>
            <DistanceMeters>NAN</DistanceMeters>
          </Trackpoint>
          <Trackpoint>
            <Time>2020-02-15T11:37:10.000Z</Time>
            <Position>
              <LatitudeDegrees>41.97827571071684360504150390625</LatitudeDegrees>
              <LongitudeDegrees>2.84647277556359767913818359375</LongitudeDegrees>
            </Position>
            <AltitudeMeters>188.8000030517578125</AltitudeMeters>
            <DistanceMeters>NAN</DistanceMeters>
          </Trackpoint>
          <Trackpoint>
            <Time>2020-02-15T11:37:11.000Z</Time>
            <Position>
              <LatitudeDegrees>41.9782724417746067047119140625</LatitudeDegrees>
              <LongitudeDegrees>2.84644193015992641448974609375</LongitudeDegrees>
            </Position>
            <AltitudeMeters>188.1999969482421875</AltitudeMeters>
            <DistanceMeters>NAN</DistanceMeters>
          </Trackpoint>
          <Trackpoint>
            <Time>2020-02-15T11:37:12.000Z</Time>
            <Position>
              <LatitudeDegrees>41.9782680831849575042724609375</LatitudeDegrees>
              <LongitudeDegrees>2.8464133478701114654541015625</LongitudeDegrees>
            </Position>
            <AltitudeMeters>187.8000030517578125</AltitudeMeters>
            <DistanceMeters>NAN</DistanceMeters>
          </Trackpoint>
          <Trackpoint>
            <Time>2020-02-15T11:37:13.000Z</Time>
            <Position>
              <LatitudeDegrees>41.97826582007110118865966796875</LatitudeDegrees>
              <LongitudeDegrees>2.84638443030416965484619140625</LongitudeDegrees>
            </Position>
            <AltitudeMeters>187.399993896484375</AltitudeMeters>
            <DistanceMeters>NAN</DistanceMeters>
          </Trackpoint>
          <Trackpoint>
            <Time>2020-02-15T11:37:14.000Z</Time>
            <Position>
              <LatitudeDegrees>41.9782637245953083038330078125</LatitudeDegrees>
              <LongitudeDegrees>2.8463561832904815673828125</LongitudeDegrees>
            </Position>
            <AltitudeMeters>186.8000030517578125</AltitudeMeters>
            <DistanceMeters>NAN</DistanceMeters>
          </Trackpoint>
          <Trackpoint>
            <Time>2020-02-15T11:37:15.000Z</Time>
            <Position>
              <LatitudeDegrees>41.978261210024356842041015625</LatitudeDegrees>
              <LongitudeDegrees>2.84632793627679347991943359375</LongitudeDegrees>
            </Position>
            <AltitudeMeters>186.1999969482421875</AltitudeMeters>
            <DistanceMeters>NAN</DistanceMeters>
          </Trackpoint>
          <Trackpoint>
            <Time>2020-02-15T11:37:16.000Z</Time>
            <Position>
              <LatitudeDegrees>41.9782580249011516571044921875</LatitudeDegrees>
              <LongitudeDegrees>2.8462971746921539306640625</LongitudeDegrees>
            </Position>
            <AltitudeMeters>186</AltitudeMeters>
            <DistanceMeters>NAN</DistanceMeters>
          </Trackpoint>
          <Trackpoint>
            <Time>2020-02-15T11:37:17.000Z</Time>
            <Position>
              <LatitudeDegrees>41.97825324721634387969970703125</LatitudeDegrees>
              <LongitudeDegrees>2.846263982355594635009765625</LongitudeDegrees>
            </Position>
            <AltitudeMeters>185.600006103515625</AltitudeMeters>
            <DistanceMeters>NAN</DistanceMeters>
          </Trackpoint>
          <Trackpoint>
            <Time>2020-02-15T11:37:18.000Z</Time>
            <Position>
              <LatitudeDegrees>41.97824922390282154083251953125</LatitudeDegrees>
              <LongitudeDegrees>2.8462289460003376007080078125</LongitudeDegrees>
            </Position>
            <AltitudeMeters>185.399993896484375</AltitudeMeters>
            <DistanceMeters>NAN</DistanceMeters>
          </Trackpoint>
          <Trackpoint>
            <Time>2020-02-15T11:37:19.000Z</Time>
            <Position>
              <LatitudeDegrees>41.97824637405574321746826171875</LatitudeDegrees>
              <LongitudeDegrees>2.84619080834090709686279296875</LongitudeDegrees>
            </Position>
            <AltitudeMeters>185</AltitudeMeters>
            <DistanceMeters>NAN</DistanceMeters>
          </Trackpoint>
          <Trackpoint>
            <Time>2020-02-15T11:37:23.000Z</Time>
            <Position>
              <LatitudeDegrees>41.97823380120098590850830078125</LatitudeDegrees>
              <LongitudeDegrees>2.84599685110151767730712890625</LongitudeDegrees>
            </Position>
            <AltitudeMeters>183.600006103515625</AltitudeMeters>
            <DistanceMeters>NAN</DistanceMeters>
          </Trackpoint>
          <Trackpoint>
            <Time>2020-02-15T11:37:24.000Z</Time>
            <Position>
              <LatitudeDegrees>41.978235058486461639404296875</LatitudeDegrees>
              <LongitudeDegrees>2.8459442965686321258544921875</LongitudeDegrees>
            </Position>
            <AltitudeMeters>183.1999969482421875</AltitudeMeters>
            <DistanceMeters>NAN</DistanceMeters>
          </Trackpoint>
          <Trackpoint>
            <Time>2020-02-15T11:37:25.000Z</Time>
            <Position>
              <LatitudeDegrees>41.9782405905425548553466796875</LatitudeDegrees>
              <LongitudeDegrees>2.8458919934928417205810546875</LongitudeDegrees>
            </Position>
            <AltitudeMeters>182.600006103515625</AltitudeMeters>
            <DistanceMeters>NAN</DistanceMeters>
          </Trackpoint>
          <Trackpoint>
            <Time>2020-02-15T11:37:26.000Z</Time>
            <Position>
              <LatitudeDegrees>41.978251822292804718017578125</LatitudeDegrees>
              <LongitudeDegrees>2.84583809785544872283935546875</LongitudeDegrees>
            </Position>
            <AltitudeMeters>182.1999969482421875</AltitudeMeters>
            <DistanceMeters>NAN</DistanceMeters>
          </Trackpoint>
          <Trackpoint>
            <Time>2020-02-15T11:37:27.000Z</Time>
            <Position>
              <LatitudeDegrees>41.9782694242894649505615234375</LatitudeDegrees>
              <LongitudeDegrees>2.8457810170948505401611328125</LongitudeDegrees>
            </Position>
            <AltitudeMeters>181.600006103515625</AltitudeMeters>
            <DistanceMeters>NAN</DistanceMeters>
          </Trackpoint>
          <Trackpoint>
            <Time>2020-02-15T11:37:28.000Z</Time>
            <Position>
              <LatitudeDegrees>41.97828878648579120635986328125</LatitudeDegrees>
              <LongitudeDegrees>2.84572192467749118804931640625</LongitudeDegrees>
            </Position>
            <AltitudeMeters>180.8000030517578125</AltitudeMeters>
            <DistanceMeters>NAN</DistanceMeters>
          </Trackpoint>
          <Trackpoint>
            <Time>2020-02-15T11:37:29.000Z</Time>
            <Position>
              <LatitudeDegrees>41.97830454446375370025634765625</LatitudeDegrees>
              <LongitudeDegrees>2.84565688110888004302978515625</LongitudeDegrees>
            </Position>
            <AltitudeMeters>180.399993896484375</AltitudeMeters>
            <DistanceMeters>NAN</DistanceMeters>
          </Trackpoint>
          <Trackpoint>
            <Time>2020-02-15T11:37:30.000Z</Time>
            <Position>
              <LatitudeDegrees>41.97831644676625728607177734375</LatitudeDegrees>
              <LongitudeDegrees>2.84558060579001903533935546875</LongitudeDegrees>
            </Position>
            <AltitudeMeters>180</AltitudeMeters>
            <DistanceMeters>NAN</DistanceMeters>
          </Trackpoint>
          <Trackpoint>
            <Time>2020-02-15T11:37:32.000Z</Time>
            <Position>
              <LatitudeDegrees>41.97834259830415248870849609375</LatitudeDegrees>
              <LongitudeDegrees>2.84541497938334941864013671875</LongitudeDegrees>
            </Position>
            <AltitudeMeters>179.600006103515625</AltitudeMeters>
            <DistanceMeters>NAN</DistanceMeters>
          </Trackpoint>
          <Trackpoint>
            <Time>2020-02-15T11:37:33.000Z</Time>
            <Position>
              <LatitudeDegrees>41.97835684753954410552978515625</LatitudeDegrees>
              <LongitudeDegrees>2.8453397937119007110595703125</LongitudeDegrees>
            </Position>
            <AltitudeMeters>179</AltitudeMeters>
            <DistanceMeters>NAN</DistanceMeters>
          </Trackpoint>
          <Trackpoint>
            <Time>2020-02-15T11:37:34.000Z</Time>
            <Position>
              <LatitudeDegrees>41.97837260551750659942626953125</LatitudeDegrees>
              <LongitudeDegrees>2.8452801145613193511962890625</LongitudeDegrees>
            </Position>
            <AltitudeMeters>178.1999969482421875</AltitudeMeters>
            <DistanceMeters>NAN</DistanceMeters>
          </Trackpoint>
          <Trackpoint>
            <Time>2020-02-15T11:37:35.000Z</Time>
            <Position>
              <LatitudeDegrees>41.9783894531428813934326171875</LatitudeDegrees>
              <LongitudeDegrees>2.84523912705481052398681640625</LongitudeDegrees>
            </Position>
            <AltitudeMeters>177.600006103515625</AltitudeMeters>
            <DistanceMeters>NAN</DistanceMeters>
          </Trackpoint>
          <Trackpoint>
            <Time>2020-02-15T11:37:36.000Z</Time>
            <Position>
              <LatitudeDegrees>41.97841568849980831146240234375</LatitudeDegrees>
              <LongitudeDegrees>2.8452110476791858673095703125</LongitudeDegrees>
            </Position>
            <AltitudeMeters>176.8000030517578125</AltitudeMeters>
            <DistanceMeters>NAN</DistanceMeters>
          </Trackpoint>
          <Trackpoint>
            <Time>2020-02-15T11:37:37.000Z</Time>
            <Position>
              <LatitudeDegrees>41.9784531556069850921630859375</LatitudeDegrees>
              <LongitudeDegrees>2.845189757645130157470703125</LongitudeDegrees>
            </Position>
            <AltitudeMeters>176</AltitudeMeters>
            <DistanceMeters>NAN</DistanceMeters>
          </Trackpoint>
          <Trackpoint>
            <Time>2020-02-15T11:37:38.000Z</Time>
            <Position>
              <LatitudeDegrees>41.97849716059863567352294921875</LatitudeDegrees>
              <LongitudeDegrees>2.845178358256816864013671875</LongitudeDegrees>
            </Position>
            <AltitudeMeters>175.1999969482421875</AltitudeMeters>
            <DistanceMeters>NAN</DistanceMeters>
          </Trackpoint>
          <Trackpoint>
            <Time>2020-02-15T11:37:39.000Z</Time>
            <Position>
              <LatitudeDegrees>41.97854585945606231689453125</LatitudeDegrees>
              <LongitudeDegrees>2.84517467021942138671875</LongitudeDegrees>
            </Position>
            <AltitudeMeters>174.399993896484375</AltitudeMeters>
            <DistanceMeters>NAN</DistanceMeters>
          </Trackpoint>
          <Trackpoint>
            <Time>2020-02-15T11:37:40.000Z</Time>
            <Position>
              <LatitudeDegrees>41.978603191673755645751953125</LatitudeDegrees>
              <LongitudeDegrees>2.84516938962042331695556640625</LongitudeDegrees>
            </Position>
            <AltitudeMeters>173.399993896484375</AltitudeMeters>
            <DistanceMeters>NAN</DistanceMeters>
          </Trackpoint>
          <Trackpoint>
            <Time>2020-02-15T11:37:42.000Z</Time>
            <Position>
              <LatitudeDegrees>41.97873973287642002105712890625</LatitudeDegrees>
              <LongitudeDegrees>2.84513569436967372894287109375</LongitudeDegrees>
            </Position>
            <AltitudeMeters>171.600006103515625</AltitudeMeters>
            <DistanceMeters>NAN</DistanceMeters>
          </Trackpoint>
          <Trackpoint>
            <Time>2020-02-15T11:37:43.000Z</Time>
            <Position>
              <LatitudeDegrees>41.97880268096923828125</LatitudeDegrees>
              <LongitudeDegrees>2.845081128180027008056640625</LongitudeDegrees>
            </Position>
            <AltitudeMeters>171.1999969482421875</AltitudeMeters>
            <DistanceMeters>NAN</DistanceMeters>
          </Trackpoint>
          <Trackpoint>
            <Time>2020-02-15T11:37:44.000Z</Time>
            <Position>
              <LatitudeDegrees>41.9788469374179840087890625</LatitudeDegrees>
              <LongitudeDegrees>2.8450061939656734466552734375</LongitudeDegrees>
            </Position>
            <AltitudeMeters>170.8000030517578125</AltitudeMeters>
            <DistanceMeters>NAN</DistanceMeters>
          </Trackpoint>
          <Trackpoint>
            <Time>2020-02-15T11:37:45.000Z</Time>
            <Position>
              <LatitudeDegrees>41.9788672216236591339111328125</LatitudeDegrees>
              <LongitudeDegrees>2.8449230454862117767333984375</LongitudeDegrees>
            </Position>
            <AltitudeMeters>170</AltitudeMeters>
            <DistanceMeters>NAN</DistanceMeters>
          </Trackpoint>
          <Trackpoint>
            <Time>2020-02-15T11:37:46.000Z</Time>
            <Position>
              <LatitudeDegrees>41.97887334041297435760498046875</LatitudeDegrees>
              <LongitudeDegrees>2.844845093786716461181640625</LongitudeDegrees>
            </Position>
            <AltitudeMeters>169.399993896484375</AltitudeMeters>
            <DistanceMeters>NAN</DistanceMeters>
          </Trackpoint>
          <Trackpoint>
            <Time>2020-02-15T11:37:47.000Z</Time>
            <Position>
              <LatitudeDegrees>41.9788735918700695037841796875</LatitudeDegrees>
              <LongitudeDegrees>2.84477678127586841583251953125</LongitudeDegrees>
            </Position>
            <AltitudeMeters>168.600006103515625</AltitudeMeters>
            <DistanceMeters>NAN</DistanceMeters>
          </Trackpoint>
          <Trackpoint>
            <Time>2020-02-15T11:37:48.000Z</Time>
            <Position>
              <LatitudeDegrees>41.97886898182332515716552734375</LatitudeDegrees>
              <LongitudeDegrees>2.84471827559173107147216796875</LongitudeDegrees>
            </Position>
            <AltitudeMeters>167.8000030517578125</AltitudeMeters>
            <DistanceMeters>NAN</DistanceMeters>
          </Trackpoint>
          <Trackpoint>
            <Time>2020-02-15T11:37:49.000Z</Time>
            <Position>
              <LatitudeDegrees>41.97885699570178985595703125</LatitudeDegrees>
              <LongitudeDegrees>2.84466261975467205047607421875</LongitudeDegrees>
            </Position>
            <AltitudeMeters>167</AltitudeMeters>
            <DistanceMeters>NAN</DistanceMeters>
          </Trackpoint>
          <Trackpoint>
            <Time>2020-02-15T11:37:50.000Z</Time>
            <Position>
              <LatitudeDegrees>41.978842914104461669921875</LatitudeDegrees>
              <LongitudeDegrees>2.844609729945659637451171875</LongitudeDegrees>
            </Position>
            <AltitudeMeters>166.399993896484375</AltitudeMeters>
            <DistanceMeters>NAN</DistanceMeters>
          </Trackpoint>
          <Trackpoint>
            <Time>2020-02-15T11:37:51.000Z</Time>
            <Position>
              <LatitudeDegrees>41.9788323529064655303955078125</LatitudeDegrees>
              <LongitudeDegrees>2.844556085765361785888671875</LongitudeDegrees>
            </Position>
            <AltitudeMeters>166</AltitudeMeters>
            <DistanceMeters>NAN</DistanceMeters>
          </Trackpoint>
          <Trackpoint>
            <Time>2020-02-15T11:37:52.000Z</Time>
            <Position>
              <LatitudeDegrees>41.9788243062794208526611328125</LatitudeDegrees>
              <LongitudeDegrees>2.84450269304215908050537109375</LongitudeDegrees>
            </Position>
            <AltitudeMeters>166</AltitudeMeters>
            <DistanceMeters>NAN</DistanceMeters>
          </Trackpoint>
          <Trackpoint>
            <Time>2020-02-15T11:37:53.000Z</Time>
            <Position>
              <LatitudeDegrees>41.9788155891001224517822265625</LatitudeDegrees>
              <LongitudeDegrees>2.84445189870893955230712890625</LongitudeDegrees>
            </Position>
            <AltitudeMeters>165.600006103515625</AltitudeMeters>
            <DistanceMeters>NAN</DistanceMeters>
          </Trackpoint>
          <Trackpoint>
            <Time>2020-02-15T11:37:54.000Z</Time>
            <Position>
              <LatitudeDegrees>41.9788048602640628814697265625</LatitudeDegrees>
              <LongitudeDegrees>2.84440596587955951690673828125</LongitudeDegrees>
            </Position>
            <AltitudeMeters>165.600006103515625</AltitudeMeters>
            <DistanceMeters>NAN</DistanceMeters>
          </Trackpoint>
          <Trackpoint>
            <Time>2020-02-15T11:37:55.000Z</Time>
            <Position>
              <LatitudeDegrees>41.9787927903234958648681640625</LatitudeDegrees>
              <LongitudeDegrees>2.8443624638020992279052734375</LongitudeDegrees>
            </Position>
            <AltitudeMeters>165.600006103515625</AltitudeMeters>
            <DistanceMeters>NAN</DistanceMeters>
          </Trackpoint>
          <Trackpoint>
            <Time>2020-02-15T11:37:56.000Z</Time>
            <Position>
              <LatitudeDegrees>41.97878113947808742523193359375</LatitudeDegrees>
              <LongitudeDegrees>2.84432114101946353912353515625</LongitudeDegrees>
            </Position>
            <AltitudeMeters>165.399993896484375</AltitudeMeters>
            <DistanceMeters>NAN</DistanceMeters>
          </Trackpoint>
          <Trackpoint>
            <Time>2020-02-15T11:37:57.000Z</Time>
            <Position>
              <LatitudeDegrees>41.978767812252044677734375</LatitudeDegrees>
              <LongitudeDegrees>2.84428442828357219696044921875</LongitudeDegrees>
            </Position>
            <AltitudeMeters>165.600006103515625</AltitudeMeters>
            <DistanceMeters>NAN</DistanceMeters>
          </Trackpoint>
          <Trackpoint>
            <Time>2020-02-15T11:37:58.000Z</Time>
            <Position>
              <LatitudeDegrees>41.9787545688450336456298828125</LatitudeDegrees>
              <LongitudeDegrees>2.84425207413733005523681640625</LongitudeDegrees>
            </Position>
            <AltitudeMeters>165.399993896484375</AltitudeMeters>
            <DistanceMeters>NAN</DistanceMeters>
          </Trackpoint>
          <Trackpoint>
            <Time>2020-02-15T11:37:59.000Z</Time>
            <Position>
              <LatitudeDegrees>41.97874409146606922149658203125</LatitudeDegrees>
              <LongitudeDegrees>2.8442239947617053985595703125</LongitudeDegrees>
            </Position>
            <AltitudeMeters>165.1999969482421875</AltitudeMeters>
            <DistanceMeters>NAN</DistanceMeters>
          </Trackpoint>
          <Trackpoint>
            <Time>2020-02-15T11:38:00.000Z</Time>
            <Position>
              <LatitudeDegrees>41.97873017750680446624755859375</LatitudeDegrees>
              <LongitudeDegrees>2.84420035779476165771484375</LongitudeDegrees>
            </Position>
            <AltitudeMeters>165.1999969482421875</AltitudeMeters>
            <DistanceMeters>NAN</DistanceMeters>
          </Trackpoint>
          <Trackpoint>
            <Time>2020-02-15T11:38:01.000Z</Time>
            <Position>
              <LatitudeDegrees>41.9787160120904445648193359375</LatitudeDegrees>
              <LongitudeDegrees>2.84418133087456226348876953125</LongitudeDegrees>
            </Position>
            <AltitudeMeters>165</AltitudeMeters>
            <DistanceMeters>NAN</DistanceMeters>
          </Trackpoint>
          <Trackpoint>
            <Time>2020-02-15T11:38:02.000Z</Time>
            <Position>
              <LatitudeDegrees>41.9787039421498775482177734375</LatitudeDegrees>
              <LongitudeDegrees>2.84416607581079006195068359375</LongitudeDegrees>
            </Position>
            <AltitudeMeters>165.1999969482421875</AltitudeMeters>
            <DistanceMeters>NAN</DistanceMeters>
          </Trackpoint>
          <Trackpoint>
            <Time>2020-02-15T11:38:03.000Z</Time>
            <Position>
              <LatitudeDegrees>41.9786913692951202392578125</LatitudeDegrees>
              <LongitudeDegrees>2.84415316767990589141845703125</LongitudeDegrees>
            </Position>
            <AltitudeMeters>165.1999969482421875</AltitudeMeters>
            <DistanceMeters>NAN</DistanceMeters>
          </Trackpoint>
          <Trackpoint>
            <Time>2020-02-15T11:38:04.000Z</Time>
            <Position>
              <LatitudeDegrees>41.97867519222199916839599609375</LatitudeDegrees>
              <LongitudeDegrees>2.84413774497807025909423828125</LongitudeDegrees>
            </Position>
            <AltitudeMeters>165.1999969482421875</AltitudeMeters>
            <DistanceMeters>NAN</DistanceMeters>
          </Trackpoint>
          <Trackpoint>
            <Time>2020-02-15T11:38:05.000Z</Time>
            <Position>
              <LatitudeDegrees>41.97865155525505542755126953125</LatitudeDegrees>
              <LongitudeDegrees>2.84411997534334659576416015625</LongitudeDegrees>
            </Position>
            <AltitudeMeters>165.1999969482421875</AltitudeMeters>
            <DistanceMeters>NAN</DistanceMeters>
          </Trackpoint>
          <Trackpoint>
            <Time>2020-02-15T11:38:06.000Z</Time>
            <Position>
              <LatitudeDegrees>41.97861936874687671661376953125</LatitudeDegrees>
              <LongitudeDegrees>2.8441039659082889556884765625</LongitudeDegrees>
            </Position>
            <AltitudeMeters>165.1999969482421875</AltitudeMeters>
            <DistanceMeters>NAN</DistanceMeters>
          </Trackpoint>
          <Trackpoint>
            <Time>2020-02-15T11:38:07.000Z</Time>
            <Position>
              <LatitudeDegrees>41.97857997380197048187255859375</LatitudeDegrees>
              <LongitudeDegrees>2.8440912254154682159423828125</LongitudeDegrees>
            </Position>
            <AltitudeMeters>164.8000030517578125</AltitudeMeters>
            <DistanceMeters>NAN</DistanceMeters>
          </Trackpoint>
          <Trackpoint>
            <Time>2020-02-15T11:38:08.000Z</Time>
            <Position>
              <LatitudeDegrees>41.97853789664804935455322265625</LatitudeDegrees>
              <LongitudeDegrees>2.84408393315970897674560546875</LongitudeDegrees>
            </Position>
            <AltitudeMeters>164.1999969482421875</AltitudeMeters>
            <DistanceMeters>NAN</DistanceMeters>
          </Trackpoint>
          <Trackpoint>
            <Time>2020-02-15T11:38:09.000Z</Time>
            <Position>
              <LatitudeDegrees>41.97849464602768421173095703125</LatitudeDegrees>
              <LongitudeDegrees>2.8440798260271549224853515625</LongitudeDegrees>
            </Position>
            <AltitudeMeters>163.600006103515625</AltitudeMeters>
            <DistanceMeters>NAN</DistanceMeters>
          </Trackpoint>
          <Trackpoint>
            <Time>2020-02-15T11:38:10.000Z</Time>
            <Position>
              <LatitudeDegrees>41.97844804264605045318603515625</LatitudeDegrees>
              <LongitudeDegrees>2.8440794907510280609130859375</LongitudeDegrees>
            </Position>
            <AltitudeMeters>163.1999969482421875</AltitudeMeters>
            <DistanceMeters>NAN</DistanceMeters>
          </Trackpoint>
          <Trackpoint>
            <Time>2020-02-15T11:38:11.000Z</Time>
            <Position>
              <LatitudeDegrees>41.978393979370594024658203125</LatitudeDegrees>
              <LongitudeDegrees>2.84408510662615299224853515625</LongitudeDegrees>
            </Position>
            <AltitudeMeters>162.8000030517578125</AltitudeMeters>
            <DistanceMeters>NAN</DistanceMeters>
          </Trackpoint>
          <Trackpoint>
            <Time>2020-02-15T11:38:12.000Z</Time>
            <Position>
              <LatitudeDegrees>41.97834176011383533477783203125</LatitudeDegrees>
              <LongitudeDegrees>2.844096086919307708740234375</LongitudeDegrees>
            </Position>
            <AltitudeMeters>162.1999969482421875</AltitudeMeters>
            <DistanceMeters>NAN</DistanceMeters>
          </Trackpoint>
          <Trackpoint>
            <Time>2020-02-15T11:38:13.000Z</Time>
            <Position>
              <LatitudeDegrees>41.978297419846057891845703125</LatitudeDegrees>
              <LongitudeDegrees>2.8441110067069530487060546875</LongitudeDegrees>
            </Position>
            <AltitudeMeters>162.1999969482421875</AltitudeMeters>
            <DistanceMeters>NAN</DistanceMeters>
          </Trackpoint>
          <Trackpoint>
            <Time>2020-02-15T11:38:14.000Z</Time>
            <Position>
              <LatitudeDegrees>41.9782546721398830413818359375</LatitudeDegrees>
              <LongitudeDegrees>2.84412718378007411956787109375</LongitudeDegrees>
            </Position>
            <AltitudeMeters>161.8000030517578125</AltitudeMeters>
            <DistanceMeters>NAN</DistanceMeters>
          </Trackpoint>
          <Trackpoint>
            <Time>2020-02-15T11:38:15.000Z</Time>
            <Position>
              <LatitudeDegrees>41.97821251116693019866943359375</LatitudeDegrees>
              <LongitudeDegrees>2.844141684472560882568359375</LongitudeDegrees>
            </Position>
            <AltitudeMeters>161.399993896484375</AltitudeMeters>
            <DistanceMeters>NAN</DistanceMeters>
          </Trackpoint>
          <Trackpoint>
            <Time>2020-02-15T11:38:16.000Z</Time>
            <Position>
              <LatitudeDegrees>41.97817026637494564056396484375</LatitudeDegrees>
              <LongitudeDegrees>2.84414914436638355255126953125</LongitudeDegrees>
            </Position>
            <AltitudeMeters>160.8000030517578125</AltitudeMeters>
            <DistanceMeters>NAN</DistanceMeters>
          </Trackpoint>
          <Trackpoint>
            <Time>2020-02-15T11:38:17.000Z</Time>
            <Position>
              <LatitudeDegrees>41.97813305072486400604248046875</LatitudeDegrees>
              <LongitudeDegrees>2.84414612688124179840087890625</LongitudeDegrees>
            </Position>
            <AltitudeMeters>160</AltitudeMeters>
            <DistanceMeters>NAN</DistanceMeters>
          </Trackpoint>
          <Trackpoint>
            <Time>2020-02-15T11:38:18.000Z</Time>
            <Position>
              <LatitudeDegrees>41.97810354642570018768310546875</LatitudeDegrees>
              <LongitudeDegrees>2.8441361524164676666259765625</LongitudeDegrees>
            </Position>
            <AltitudeMeters>159.1999969482421875</AltitudeMeters>
            <DistanceMeters>NAN</DistanceMeters>
          </Trackpoint>
          <Trackpoint>
            <Time>2020-02-15T11:38:19.000Z</Time>
            <Position>
              <LatitudeDegrees>41.9780813343822956085205078125</LatitudeDegrees>
              <LongitudeDegrees>2.84412634558975696563720703125</LongitudeDegrees>
            </Position>
            <AltitudeMeters>158.600006103515625</AltitudeMeters>
            <DistanceMeters>NAN</DistanceMeters>
          </Trackpoint>
          <Trackpoint>
            <Time>2020-02-15T11:38:20.000Z</Time>
            <Position>
              <LatitudeDegrees>41.97806599549949169158935546875</LatitudeDegrees>
              <LongitudeDegrees>2.8441177122294902801513671875</LongitudeDegrees>
            </Position>
            <AltitudeMeters>157.600006103515625</AltitudeMeters>
            <DistanceMeters>NAN</DistanceMeters>
          </Trackpoint>
          <Trackpoint>
            <Time>2020-02-15T11:38:21.000Z</Time>
            <Position>
              <LatitudeDegrees>41.97805359028279781341552734375</LatitudeDegrees>
              <LongitudeDegrees>2.84411142580211162567138671875</LongitudeDegrees>
            </Position>
            <AltitudeMeters>156.600006103515625</AltitudeMeters>
            <DistanceMeters>NAN</DistanceMeters>
          </Trackpoint>
          <Trackpoint>
            <Time>2020-02-15T11:38:22.000Z</Time>
            <Position>
              <LatitudeDegrees>41.978038586676120758056640625</LatitudeDegrees>
              <LongitudeDegrees>2.8441086597740650177001953125</LongitudeDegrees>
            </Position>
            <AltitudeMeters>156</AltitudeMeters>
            <DistanceMeters>NAN</DistanceMeters>
          </Trackpoint>
          <Trackpoint>
            <Time>2020-02-15T11:38:23.000Z</Time>
            <Position>
              <LatitudeDegrees>41.978019811213016510009765625</LatitudeDegrees>
              <LongitudeDegrees>2.84411192871630191802978515625</LongitudeDegrees>
            </Position>
            <AltitudeMeters>155.399993896484375</AltitudeMeters>
            <DistanceMeters>NAN</DistanceMeters>
          </Trackpoint>
          <Trackpoint>
            <Time>2020-02-15T11:38:24.000Z</Time>
            <Position>
              <LatitudeDegrees>41.97799877263605594635009765625</LatitudeDegrees>
              <LongitudeDegrees>2.8441220708191394805908203125</LongitudeDegrees>
            </Position>
            <AltitudeMeters>154.399993896484375</AltitudeMeters>
            <DistanceMeters>NAN</DistanceMeters>
          </Trackpoint>
          <Trackpoint>
            <Time>2020-02-15T11:38:25.000Z</Time>
            <Position>
              <LatitudeDegrees>41.97797530330717563629150390625</LatitudeDegrees>
              <LongitudeDegrees>2.84413506276905536651611328125</LongitudeDegrees>
            </Position>
            <AltitudeMeters>153.600006103515625</AltitudeMeters>
            <DistanceMeters>NAN</DistanceMeters>
          </Trackpoint>
          <Trackpoint>
            <Time>2020-02-15T11:38:26.000Z</Time>
            <Position>
              <LatitudeDegrees>41.977947391569614410400390625</LatitudeDegrees>
              <LongitudeDegrees>2.84414528869092464447021484375</LongitudeDegrees>
            </Position>
            <AltitudeMeters>152.8000030517578125</AltitudeMeters>
            <DistanceMeters>NAN</DistanceMeters>
          </Trackpoint>
          <Trackpoint>
            <Time>2020-02-15T11:38:27.000Z</Time>
            <Position>
              <LatitudeDegrees>41.9779153726994991302490234375</LatitudeDegrees>
              <LongitudeDegrees>2.84415652044117450714111328125</LongitudeDegrees>
            </Position>
            <AltitudeMeters>152</AltitudeMeters>
            <DistanceMeters>NAN</DistanceMeters>
          </Trackpoint>
          <Trackpoint>
            <Time>2020-02-15T11:38:30.000Z</Time>
            <Position>
              <LatitudeDegrees>41.9777876324951648712158203125</LatitudeDegrees>
              <LongitudeDegrees>2.8441991843283176422119140625</LongitudeDegrees>
            </Position>
            <AltitudeMeters>150.399993896484375</AltitudeMeters>
            <DistanceMeters>NAN</DistanceMeters>
          </Trackpoint>
          <Trackpoint>
            <Time>2020-02-15T11:38:32.000Z</Time>
            <Position>
              <LatitudeDegrees>41.977677829563617706298828125</LatitudeDegrees>
              <LongitudeDegrees>2.84422944299876689910888671875</LongitudeDegrees>
            </Position>
            <AltitudeMeters>150.1999969482421875</AltitudeMeters>
            <DistanceMeters>NAN</DistanceMeters>
          </Trackpoint>
          <Trackpoint>
            <Time>2020-02-15T11:38:33.000Z</Time>
            <Position>
              <LatitudeDegrees>41.97761806659400463104248046875</LatitudeDegrees>
              <LongitudeDegrees>2.84423631615936756134033203125</LongitudeDegrees>
            </Position>
            <AltitudeMeters>150</AltitudeMeters>
            <DistanceMeters>NAN</DistanceMeters>
          </Trackpoint>
          <Trackpoint>
            <Time>2020-02-15T11:38:36.000Z</Time>
            <Position>
              <LatitudeDegrees>41.97743500582873821258544921875</LatitudeDegrees>
              <LongitudeDegrees>2.84424134530127048492431640625</LongitudeDegrees>
            </Position>
            <AltitudeMeters>149.8000030517578125</AltitudeMeters>
            <DistanceMeters>NAN</DistanceMeters>
          </Trackpoint>
          <Trackpoint>
            <Time>2020-02-15T11:38:37.000Z</Time>
            <Position>
              <LatitudeDegrees>41.97737373411655426025390625</LatitudeDegrees>
              <LongitudeDegrees>2.84425576217472553253173828125</LongitudeDegrees>
            </Position>
            <AltitudeMeters>149.399993896484375</AltitudeMeters>
            <DistanceMeters>NAN</DistanceMeters>
          </Trackpoint>
          <Trackpoint>
            <Time>2020-02-15T11:38:38.000Z</Time>
            <Position>
              <LatitudeDegrees>41.97731346823275089263916015625</LatitudeDegrees>
              <LongitudeDegrees>2.8442774713039398193359375</LongitudeDegrees>
            </Position>
            <AltitudeMeters>149</AltitudeMeters>
            <DistanceMeters>NAN</DistanceMeters>
          </Trackpoint>
          <Trackpoint>
            <Time>2020-02-15T11:38:39.000Z</Time>
            <Position>
              <LatitudeDegrees>41.97725680656731128692626953125</LatitudeDegrees>
              <LongitudeDegrees>2.844296582043170928955078125</LongitudeDegrees>
            </Position>
            <AltitudeMeters>148.8000030517578125</AltitudeMeters>
            <DistanceMeters>NAN</DistanceMeters>
          </Trackpoint>
          <Trackpoint>
            <Time>2020-02-15T11:38:40.000Z</Time>
            <Position>
              <LatitudeDegrees>41.97720701806247234344482421875</LatitudeDegrees>
              <LongitudeDegrees>2.84430990926921367645263671875</LongitudeDegrees>
            </Position>
            <AltitudeMeters>148.1999969482421875</AltitudeMeters>
            <DistanceMeters>NAN</DistanceMeters>
          </Trackpoint>
          <Trackpoint>
            <Time>2020-02-15T11:38:41.000Z</Time>
            <Position>
              <LatitudeDegrees>41.9771646894514560699462890625</LatitudeDegrees>
              <LongitudeDegrees>2.844322063028812408447265625</LongitudeDegrees>
            </Position>
            <AltitudeMeters>147.600006103515625</AltitudeMeters>
            <DistanceMeters>NAN</DistanceMeters>
          </Trackpoint>
          <Trackpoint>
            <Time>2020-02-15T11:38:42.000Z</Time>
            <Position>
              <LatitudeDegrees>41.9771304912865161895751953125</LatitudeDegrees>
              <LongitudeDegrees>2.84433371387422084808349609375</LongitudeDegrees>
            </Position>
            <AltitudeMeters>147.399993896484375</AltitudeMeters>
            <DistanceMeters>NAN</DistanceMeters>
          </Trackpoint>
          <Trackpoint>
            <Time>2020-02-15T11:38:43.000Z</Time>
            <Position>
              <LatitudeDegrees>41.9771016575396060943603515625</LatitudeDegrees>
              <LongitudeDegrees>2.84434477798640727996826171875</LongitudeDegrees>
            </Position>
            <AltitudeMeters>147</AltitudeMeters>
            <DistanceMeters>NAN</DistanceMeters>
          </Trackpoint>
          <Trackpoint>
            <Time>2020-02-15T11:38:44.000Z</Time>
            <Position>
              <LatitudeDegrees>41.9770755060017108917236328125</LatitudeDegrees>
              <LongitudeDegrees>2.84435986541211605072021484375</LongitudeDegrees>
            </Position>
            <AltitudeMeters>146.600006103515625</AltitudeMeters>
            <DistanceMeters>NAN</DistanceMeters>
          </Trackpoint>
          <Trackpoint>
            <Time>2020-02-15T11:38:45.000Z</Time>
            <Position>
              <LatitudeDegrees>41.97705077938735485076904296875</LatitudeDegrees>
              <LongitudeDegrees>2.84438199363648891448974609375</LongitudeDegrees>
            </Position>
            <AltitudeMeters>146.399993896484375</AltitudeMeters>
            <DistanceMeters>NAN</DistanceMeters>
          </Trackpoint>
          <Trackpoint>
            <Time>2020-02-15T11:38:46.000Z</Time>
            <Position>
              <LatitudeDegrees>41.9770282320678234100341796875</LatitudeDegrees>
              <LongitudeDegrees>2.84440957009792327880859375</LongitudeDegrees>
            </Position>
            <AltitudeMeters>146</AltitudeMeters>
            <DistanceMeters>NAN</DistanceMeters>
          </Trackpoint>
          <Trackpoint>
            <Time>2020-02-15T11:38:47.000Z</Time>
            <Position>
              <LatitudeDegrees>41.9770101271569728851318359375</LatitudeDegrees>
              <LongitudeDegrees>2.8444437682628631591796875</LongitudeDegrees>
            </Position>
            <AltitudeMeters>145.399993896484375</AltitudeMeters>
            <DistanceMeters>NAN</DistanceMeters>
          </Trackpoint>
          <Trackpoint>
            <Time>2020-02-15T11:38:48.000Z</Time>
            <Position>
              <LatitudeDegrees>41.9769940339028835296630859375</LatitudeDegrees>
              <LongitudeDegrees>2.8444858454167842864990234375</LongitudeDegrees>
            </Position>
            <AltitudeMeters>145</AltitudeMeters>
            <DistanceMeters>NAN</DistanceMeters>
          </Trackpoint>
          <Trackpoint>
            <Time>2020-02-15T11:38:50.000Z</Time>
            <Position>
              <LatitudeDegrees>41.97695405222475528717041015625</LatitudeDegrees>
              <LongitudeDegrees>2.84456916153430938720703125</LongitudeDegrees>
            </Position>
            <AltitudeMeters>143.600006103515625</AltitudeMeters>
            <DistanceMeters>NAN</DistanceMeters>
          </Trackpoint>
          <Trackpoint>
            <Time>2020-02-15T11:38:51.000Z</Time>
            <Position>
              <LatitudeDegrees>41.97692320682108402252197265625</LatitudeDegrees>
              <LongitudeDegrees>2.84460679627954959869384765625</LongitudeDegrees>
            </Position>
            <AltitudeMeters>143.1999969482421875</AltitudeMeters>
            <DistanceMeters>NAN</DistanceMeters>
          </Trackpoint>
          <Trackpoint>
            <Time>2020-02-15T11:38:52.000Z</Time>
            <Position>
              <LatitudeDegrees>41.9768887571990489959716796875</LatitudeDegrees>
              <LongitudeDegrees>2.84464518539607524871826171875</LongitudeDegrees>
            </Position>
            <AltitudeMeters>142.8000030517578125</AltitudeMeters>
            <DistanceMeters>NAN</DistanceMeters>
          </Trackpoint>
          <Trackpoint>
            <Time>2020-02-15T11:38:54.000Z</Time>
            <Position>
              <LatitudeDegrees>41.97680334560573101043701171875</LatitudeDegrees>
              <LongitudeDegrees>2.84472648985683917999267578125</LongitudeDegrees>
            </Position>
            <AltitudeMeters>142.399993896484375</AltitudeMeters>
            <DistanceMeters>NAN</DistanceMeters>
          </Trackpoint>
          <Trackpoint>
            <Time>2020-02-15T11:38:55.000Z</Time>
            <Position>
              <LatitudeDegrees>41.97675489820539951324462890625</LatitudeDegrees>
              <LongitudeDegrees>2.8447597660124301910400390625</LongitudeDegrees>
            </Position>
            <AltitudeMeters>142.1999969482421875</AltitudeMeters>
            <DistanceMeters>NAN</DistanceMeters>
          </Trackpoint>
          <Trackpoint>
            <Time>2020-02-15T11:38:56.000Z</Time>
            <Position>
              <LatitudeDegrees>41.9767033495008945465087890625</LatitudeDegrees>
              <LongitudeDegrees>2.844787426292896270751953125</LongitudeDegrees>
            </Position>
            <AltitudeMeters>142.1999969482421875</AltitudeMeters>
            <DistanceMeters>NAN</DistanceMeters>
          </Trackpoint>
          <Trackpoint>
            <Time>2020-02-15T11:38:57.000Z</Time>
            <Position>
              <LatitudeDegrees>41.9766460172832012176513671875</LatitudeDegrees>
              <LongitudeDegrees>2.8448127396404743194580078125</LongitudeDegrees>
            </Position>
            <AltitudeMeters>141.8000030517578125</AltitudeMeters>
            <DistanceMeters>NAN</DistanceMeters>
          </Trackpoint>
          <Trackpoint>
            <Time>2020-02-15T11:39:00.000Z</Time>
            <Position>
              <LatitudeDegrees>41.976458095014095306396484375</LatitudeDegrees>
              <LongitudeDegrees>2.844888679683208465576171875</LongitudeDegrees>
            </Position>
            <AltitudeMeters>140.399993896484375</AltitudeMeters>
            <DistanceMeters>NAN</DistanceMeters>
          </Trackpoint>
          <Trackpoint>
            <Time>2020-02-15T11:39:01.000Z</Time>
            <Position>
              <LatitudeDegrees>41.97638743557035923004150390625</LatitudeDegrees>
              <LongitudeDegrees>2.84490980207920074462890625</LongitudeDegrees>
            </Position>
            <AltitudeMeters>140</AltitudeMeters>
            <DistanceMeters>NAN</DistanceMeters>
          </Trackpoint>
          <Trackpoint>
            <Time>2020-02-15T11:39:03.000Z</Time>
            <Position>
              <LatitudeDegrees>41.97623941116034984588623046875</LatitudeDegrees>
              <LongitudeDegrees>2.84493369050323963165283203125</LongitudeDegrees>
            </Position>
            <AltitudeMeters>139</AltitudeMeters>
            <DistanceMeters>NAN</DistanceMeters>
          </Trackpoint>
          <Trackpoint>
            <Time>2020-02-15T11:39:04.000Z</Time>
            <Position>
              <LatitudeDegrees>41.9761628843843936920166015625</LatitudeDegrees>
              <LongitudeDegrees>2.844929583370685577392578125</LongitudeDegrees>
            </Position>
            <AltitudeMeters>138.8000030517578125</AltitudeMeters>
            <DistanceMeters>NAN</DistanceMeters>
          </Trackpoint>
          <Trackpoint>
            <Time>2020-02-15T11:39:05.000Z</Time>
            <Position>
              <LatitudeDegrees>41.976086609065532684326171875</LatitudeDegrees>
              <LongitudeDegrees>2.84491726197302341461181640625</LongitudeDegrees>
            </Position>
            <AltitudeMeters>138.1999969482421875</AltitudeMeters>
            <DistanceMeters>NAN</DistanceMeters>
          </Trackpoint>
          <Trackpoint>
            <Time>2020-02-15T11:39:06.000Z</Time>
            <Position>
              <LatitudeDegrees>41.97601041756570339202880859375</LatitudeDegrees>
              <LongitudeDegrees>2.84491055645048618316650390625</LongitudeDegrees>
            </Position>
            <AltitudeMeters>137.8000030517578125</AltitudeMeters>
            <DistanceMeters>NAN</DistanceMeters>
          </Trackpoint>
          <Trackpoint>
            <Time>2020-02-15T11:39:07.000Z</Time>
            <Position>
              <LatitudeDegrees>41.97593816556036472320556640625</LatitudeDegrees>
              <LongitudeDegrees>2.84491960890591144561767578125</LongitudeDegrees>
            </Position>
            <AltitudeMeters>137.399993896484375</AltitudeMeters>
            <DistanceMeters>NAN</DistanceMeters>
          </Trackpoint>
          <Trackpoint>
            <Time>2020-02-15T11:39:08.000Z</Time>
            <Position>
              <LatitudeDegrees>41.9758789055049419403076171875</LatitudeDegrees>
              <LongitudeDegrees>2.8449480235576629638671875</LongitudeDegrees>
            </Position>
            <AltitudeMeters>137</AltitudeMeters>
            <DistanceMeters>NAN</DistanceMeters>
          </Trackpoint>
          <Trackpoint>
            <Time>2020-02-15T11:39:09.000Z</Time>
            <Position>
              <LatitudeDegrees>41.97582987137138843536376953125</LatitudeDegrees>
              <LongitudeDegrees>2.8449911065399646759033203125</LongitudeDegrees>
            </Position>
            <AltitudeMeters>136.399993896484375</AltitudeMeters>
            <DistanceMeters>NAN</DistanceMeters>
          </Trackpoint>
          <Trackpoint>
            <Time>2020-02-15T11:39:10.000Z</Time>
            <Position>
              <LatitudeDegrees>41.97578695602715015411376953125</LatitudeDegrees>
              <LongitudeDegrees>2.845044247806072235107421875</LongitudeDegrees>
            </Position>
            <AltitudeMeters>136</AltitudeMeters>
            <DistanceMeters>NAN</DistanceMeters>
          </Trackpoint>
          <Trackpoint>
            <Time>2020-02-15T11:39:11.000Z</Time>
            <Position>
              <LatitudeDegrees>41.97574756108224391937255859375</LatitudeDegrees>
              <LongitudeDegrees>2.84510334022343158721923828125</LongitudeDegrees>
            </Position>
            <AltitudeMeters>135.399993896484375</AltitudeMeters>
            <DistanceMeters>NAN</DistanceMeters>
          </Trackpoint>
          <Trackpoint>
            <Time>2020-02-15T11:39:12.000Z</Time>
            <Position>
              <LatitudeDegrees>41.97570716030895709991455078125</LatitudeDegrees>
              <LongitudeDegrees>2.84516461193561553955078125</LongitudeDegrees>
            </Position>
            <AltitudeMeters>135</AltitudeMeters>
            <DistanceMeters>NAN</DistanceMeters>
          </Trackpoint>
          <Trackpoint>
            <Time>2020-02-15T11:39:13.000Z</Time>
            <Position>
              <LatitudeDegrees>41.9756631553173065185546875</LatitudeDegrees>
              <LongitudeDegrees>2.8452190943062305450439453125</LongitudeDegrees>
            </Position>
            <AltitudeMeters>134.8000030517578125</AltitudeMeters>
            <DistanceMeters>NAN</DistanceMeters>
          </Trackpoint>
          <Trackpoint>
            <Time>2020-02-15T11:39:14.000Z</Time>
            <Position>
              <LatitudeDegrees>41.975619234144687652587890625</LatitudeDegrees>
              <LongitudeDegrees>2.8452506102621555328369140625</LongitudeDegrees>
            </Position>
            <AltitudeMeters>134.399993896484375</AltitudeMeters>
            <DistanceMeters>NAN</DistanceMeters>
          </Trackpoint>
          <Trackpoint>
            <Time>2020-02-15T11:39:15.000Z</Time>
            <Position>
              <LatitudeDegrees>41.97557606734335422515869140625</LatitudeDegrees>
              <LongitudeDegrees>2.8452633507549762725830078125</LongitudeDegrees>
            </Position>
            <AltitudeMeters>134</AltitudeMeters>
            <DistanceMeters>NAN</DistanceMeters>
          </Trackpoint>
          <Trackpoint>
            <Time>2020-02-15T11:39:16.000Z</Time>
            <Position>
              <LatitudeDegrees>41.9755345769226551055908203125</LatitudeDegrees>
              <LongitudeDegrees>2.845260165631771087646484375</LongitudeDegrees>
            </Position>
            <AltitudeMeters>133.1999969482421875</AltitudeMeters>
            <DistanceMeters>NAN</DistanceMeters>
          </Trackpoint>
          <Trackpoint>
            <Time>2020-02-15T11:39:17.000Z</Time>
            <Position>
              <LatitudeDegrees>41.97549425996840000152587890625</LatitudeDegrees>
              <LongitudeDegrees>2.8452475927770137786865234375</LongitudeDegrees>
            </Position>
            <AltitudeMeters>133.1999969482421875</AltitudeMeters>
            <DistanceMeters>NAN</DistanceMeters>
          </Trackpoint>
          <Trackpoint>
            <Time>2020-02-15T11:39:18.000Z</Time>
            <Position>
              <LatitudeDegrees>41.9754524342715740203857421875</LatitudeDegrees>
              <LongitudeDegrees>2.8452284820377826690673828125</LongitudeDegrees>
            </Position>
            <AltitudeMeters>132.8000030517578125</AltitudeMeters>
            <DistanceMeters>NAN</DistanceMeters>
          </Trackpoint>
          <Trackpoint>
            <Time>2020-02-15T11:39:19.000Z</Time>
            <Position>
              <LatitudeDegrees>41.97540767490863800048828125</LatitudeDegrees>
              <LongitudeDegrees>2.84520442597568035125732421875</LongitudeDegrees>
            </Position>
            <AltitudeMeters>132.399993896484375</AltitudeMeters>
            <DistanceMeters>NAN</DistanceMeters>
          </Trackpoint>
          <Trackpoint>
            <Time>2020-02-15T11:39:22.000Z</Time>
            <Position>
              <LatitudeDegrees>41.975264847278594970703125</LatitudeDegrees>
              <LongitudeDegrees>2.845132760703563690185546875</LongitudeDegrees>
            </Position>
            <AltitudeMeters>130.1999969482421875</AltitudeMeters>
            <DistanceMeters>NAN</DistanceMeters>
          </Trackpoint>
          <Trackpoint>
            <Time>2020-02-15T11:39:23.000Z</Time>
            <Position>
              <LatitudeDegrees>41.9752070121467113494873046875</LatitudeDegrees>
              <LongitudeDegrees>2.84512395970523357391357421875</LongitudeDegrees>
            </Position>
            <AltitudeMeters>129.600006103515625</AltitudeMeters>
            <DistanceMeters>NAN</DistanceMeters>
          </Trackpoint>
          <Trackpoint>
            <Time>2020-02-15T11:39:24.000Z</Time>
            <Position>
              <LatitudeDegrees>41.97514490224421024322509765625</LatitudeDegrees>
              <LongitudeDegrees>2.84512748010456562042236328125</LongitudeDegrees>
            </Position>
            <AltitudeMeters>129.1999969482421875</AltitudeMeters>
            <DistanceMeters>NAN</DistanceMeters>
          </Trackpoint>
          <Trackpoint>
            <Time>2020-02-15T11:39:25.000Z</Time>
            <Position>
              <LatitudeDegrees>41.97508237324655055999755859375</LatitudeDegrees>
              <LongitudeDegrees>2.84513837657868862152099609375</LongitudeDegrees>
            </Position>
            <AltitudeMeters>128.600006103515625</AltitudeMeters>
            <DistanceMeters>NAN</DistanceMeters>
          </Trackpoint>
          <Trackpoint>
            <Time>2020-02-15T11:39:26.000Z</Time>
            <Position>
              <LatitudeDegrees>41.975022442638874053955078125</LatitudeDegrees>
              <LongitudeDegrees>2.84515715204179286956787109375</LongitudeDegrees>
            </Position>
            <AltitudeMeters>128.1999969482421875</AltitudeMeters>
            <DistanceMeters>NAN</DistanceMeters>
          </Trackpoint>
          <Trackpoint>
            <Time>2020-02-15T11:39:27.000Z</Time>
            <Position>
              <LatitudeDegrees>41.974963434040546417236328125</LatitudeDegrees>
              <LongitudeDegrees>2.84518196247518062591552734375</LongitudeDegrees>
            </Position>
            <AltitudeMeters>128</AltitudeMeters>
            <DistanceMeters>NAN</DistanceMeters>
          </Trackpoint>
          <Trackpoint>
            <Time>2020-02-15T11:39:29.000Z</Time>
            <Position>
              <LatitudeDegrees>41.97484717704355716705322265625</LatitudeDegrees>
              <LongitudeDegrees>2.8452412225306034088134765625</LongitudeDegrees>
            </Position>
            <AltitudeMeters>127.40000152587890625</AltitudeMeters>
            <DistanceMeters>NAN</DistanceMeters>
          </Trackpoint>
          <Trackpoint>
            <Time>2020-02-15T11:39:30.000Z</Time>
            <Position>
              <LatitudeDegrees>41.97479152120649814605712890625</LatitudeDegrees>
              <LongitudeDegrees>2.84527190029621124267578125</LongitudeDegrees>
            </Position>
            <AltitudeMeters>127</AltitudeMeters>
            <DistanceMeters>NAN</DistanceMeters>
          </Trackpoint>
          <Trackpoint>
            <Time>2020-02-15T11:39:31.000Z</Time>
            <Position>
              <LatitudeDegrees>41.97473921813070774078369140625</LatitudeDegrees>
              <LongitudeDegrees>2.84530366770923137664794921875</LongitudeDegrees>
            </Position>
            <AltitudeMeters>126.8000030517578125</AltitudeMeters>
            <DistanceMeters>NAN</DistanceMeters>
          </Trackpoint>
          <Trackpoint>
            <Time>2020-02-15T11:39:32.000Z</Time>
            <Position>
              <LatitudeDegrees>41.974689848721027374267578125</LatitudeDegrees>
              <LongitudeDegrees>2.84533132798969745635986328125</LongitudeDegrees>
            </Position>
            <AltitudeMeters>126.40000152587890625</AltitudeMeters>
            <DistanceMeters>NAN</DistanceMeters>
          </Trackpoint>
          <Trackpoint>
            <Time>2020-02-15T11:39:33.000Z</Time>
            <Position>
              <LatitudeDegrees>41.97464433498680591583251953125</LatitudeDegrees>
              <LongitudeDegrees>2.8453552164137363433837890625</LongitudeDegrees>
            </Position>
            <AltitudeMeters>126</AltitudeMeters>
            <DistanceMeters>NAN</DistanceMeters>
          </Trackpoint>
          <Trackpoint>
            <Time>2020-02-15T11:39:34.000Z</Time>
            <Position>
              <LatitudeDegrees>41.97460032999515533447265625</LatitudeDegrees>
              <LongitudeDegrees>2.84537625499069690704345703125</LongitudeDegrees>
            </Position>
            <AltitudeMeters>125.40000152587890625</AltitudeMeters>
            <DistanceMeters>NAN</DistanceMeters>
          </Trackpoint>
          <Trackpoint>
            <Time>2020-02-15T11:39:35.000Z</Time>
            <Position>
              <LatitudeDegrees>41.97455733083188533782958984375</LatitudeDegrees>
              <LongitudeDegrees>2.84539402462542057037353515625</LongitudeDegrees>
            </Position>
            <AltitudeMeters>125.1999969482421875</AltitudeMeters>
            <DistanceMeters>NAN</DistanceMeters>
          </Trackpoint>
          <Trackpoint>
            <Time>2020-02-15T11:39:36.000Z</Time>
            <Position>
              <LatitudeDegrees>41.9745113141834735870361328125</LatitudeDegrees>
              <LongitudeDegrees>2.84541011787950992584228515625</LongitudeDegrees>
            </Position>
            <AltitudeMeters>125</AltitudeMeters>
            <DistanceMeters>NAN</DistanceMeters>
          </Trackpoint>
          <Trackpoint>
            <Time>2020-02-15T11:39:37.000Z</Time>
            <Position>
              <LatitudeDegrees>41.9744626991450786590576171875</LatitudeDegrees>
              <LongitudeDegrees>2.8454172424972057342529296875</LongitudeDegrees>
            </Position>
            <AltitudeMeters>124.8000030517578125</AltitudeMeters>
            <DistanceMeters>NAN</DistanceMeters>
          </Trackpoint>
          <Trackpoint>
            <Time>2020-02-15T11:39:38.000Z</Time>
            <Position>
              <LatitudeDegrees>41.97441433556377887725830078125</LatitudeDegrees>
              <LongitudeDegrees>2.84541766159236431121826171875</LongitudeDegrees>
            </Position>
            <AltitudeMeters>124.59999847412109375</AltitudeMeters>
            <DistanceMeters>NAN</DistanceMeters>
          </Trackpoint>
          <Trackpoint>
            <Time>2020-02-15T11:39:39.000Z</Time>
            <Position>
              <LatitudeDegrees>41.974358260631561279296875</LatitudeDegrees>
              <LongitudeDegrees>2.84541581757366657257080078125</LongitudeDegrees>
            </Position>
            <AltitudeMeters>124.59999847412109375</AltitudeMeters>
            <DistanceMeters>NAN</DistanceMeters>
          </Trackpoint>
          <Trackpoint>
            <Time>2020-02-15T11:39:40.000Z</Time>
            <Position>
              <LatitudeDegrees>41.9743101485073566436767578125</LatitudeDegrees>
              <LongitudeDegrees>2.845397628843784332275390625</LongitudeDegrees>
            </Position>
            <AltitudeMeters>124.8000030517578125</AltitudeMeters>
            <DistanceMeters>NAN</DistanceMeters>
          </Trackpoint>
          <Trackpoint>
            <Time>2020-02-15T11:39:41.000Z</Time>
            <Position>
              <LatitudeDegrees>41.9742658920586109161376953125</LatitudeDegrees>
              <LongitudeDegrees>2.8453637659549713134765625</LongitudeDegrees>
            </Position>
            <AltitudeMeters>124.59999847412109375</AltitudeMeters>
            <DistanceMeters>NAN</DistanceMeters>
          </Trackpoint>
          <Trackpoint>
            <Time>2020-02-15T11:39:42.000Z</Time>
            <Position>
              <LatitudeDegrees>41.97422440163791179656982421875</LatitudeDegrees>
              <LongitudeDegrees>2.8453257121145725250244140625</LongitudeDegrees>
            </Position>
            <AltitudeMeters>124.59999847412109375</AltitudeMeters>
            <DistanceMeters>NAN</DistanceMeters>
          </Trackpoint>
          <Trackpoint>
            <Time>2020-02-15T11:39:43.000Z</Time>
            <Position>
              <LatitudeDegrees>41.97417997755110263824462890625</LatitudeDegrees>
              <LongitudeDegrees>2.845298387110233306884765625</LongitudeDegrees>
            </Position>
            <AltitudeMeters>124.59999847412109375</AltitudeMeters>
            <DistanceMeters>NAN</DistanceMeters>
          </Trackpoint>
          <Trackpoint>
            <Time>2020-02-15T11:39:44.000Z</Time>
            <Position>
              <LatitudeDegrees>41.9741347990930080413818359375</LatitudeDegrees>
              <LongitudeDegrees>2.845273576676845550537109375</LongitudeDegrees>
            </Position>
            <AltitudeMeters>124.59999847412109375</AltitudeMeters>
            <DistanceMeters>NAN</DistanceMeters>
          </Trackpoint>
          <Trackpoint>
            <Time>2020-02-15T11:39:45.000Z</Time>
            <Position>
              <LatitudeDegrees>41.97409062646329402923583984375</LatitudeDegrees>
              <LongitudeDegrees>2.84524650312960147857666015625</LongitudeDegrees>
            </Position>
            <AltitudeMeters>124.59999847412109375</AltitudeMeters>
            <DistanceMeters>NAN</DistanceMeters>
          </Trackpoint>
          <Trackpoint>
            <Time>2020-02-15T11:39:46.000Z</Time>
            <Position>
              <LatitudeDegrees>41.97404385544359683990478515625</LatitudeDegrees>
              <LongitudeDegrees>2.84522236324846744537353515625</LongitudeDegrees>
            </Position>
            <AltitudeMeters>124.59999847412109375</AltitudeMeters>
            <DistanceMeters>NAN</DistanceMeters>
          </Trackpoint>
          <Trackpoint>
            <Time>2020-02-15T11:39:47.000Z</Time>
            <Position>
              <LatitudeDegrees>41.97399490512907505035400390625</LatitudeDegrees>
              <LongitudeDegrees>2.845197804272174835205078125</LongitudeDegrees>
            </Position>
            <AltitudeMeters>124.59999847412109375</AltitudeMeters>
            <DistanceMeters>NAN</DistanceMeters>
          </Trackpoint>
          <Trackpoint>
            <Time>2020-02-15T11:39:49.000Z</Time>
            <Position>
              <LatitudeDegrees>41.9738893769681453704833984375</LatitudeDegrees>
              <LongitudeDegrees>2.84515815787017345428466796875</LongitudeDegrees>
            </Position>
            <AltitudeMeters>124.59999847412109375</AltitudeMeters>
            <DistanceMeters>NAN</DistanceMeters>
          </Trackpoint>
          <Trackpoint>
            <Time>2020-02-15T11:39:50.000Z</Time>
            <Position>
              <LatitudeDegrees>41.97382978163659572601318359375</LatitudeDegrees>
              <LongitudeDegrees>2.84513787366449832916259765625</LongitudeDegrees>
            </Position>
            <AltitudeMeters>124.59999847412109375</AltitudeMeters>
            <DistanceMeters>NAN</DistanceMeters>
          </Trackpoint>
          <Trackpoint>
            <Time>2020-02-15T11:39:51.000Z</Time>
            <Position>
              <LatitudeDegrees>41.97376490570604801177978515625</LatitudeDegrees>
              <LongitudeDegrees>2.84511188976466655731201171875</LongitudeDegrees>
            </Position>
            <AltitudeMeters>124.59999847412109375</AltitudeMeters>
            <DistanceMeters>NAN</DistanceMeters>
          </Trackpoint>
          <Trackpoint>
            <Time>2020-02-15T11:39:52.000Z</Time>
            <Position>
              <LatitudeDegrees>41.9736952520906925201416015625</LatitudeDegrees>
              <LongitudeDegrees>2.84508707933127880096435546875</LongitudeDegrees>
            </Position>
            <AltitudeMeters>124.40000152587890625</AltitudeMeters>
            <DistanceMeters>NAN</DistanceMeters>
          </Trackpoint>
          <Trackpoint>
            <Time>2020-02-15T11:39:53.000Z</Time>
            <Position>
              <LatitudeDegrees>41.97362023405730724334716796875</LatitudeDegrees>
              <LongitudeDegrees>2.84507350064814090728759765625</LongitudeDegrees>
            </Position>
            <AltitudeMeters>124.59999847412109375</AltitudeMeters>
            <DistanceMeters>NAN</DistanceMeters>
          </Trackpoint>
          <Trackpoint>
            <Time>2020-02-15T11:39:54.000Z</Time>
            <Position>
              <LatitudeDegrees>41.97354085743427276611328125</LatitudeDegrees>
              <LongitudeDegrees>2.8450740873813629150390625</LongitudeDegrees>
            </Position>
            <AltitudeMeters>124.59999847412109375</AltitudeMeters>
            <DistanceMeters>NAN</DistanceMeters>
          </Trackpoint>
          <Trackpoint>
            <Time>2020-02-15T11:39:55.000Z</Time>
            <Position>
              <LatitudeDegrees>41.97346231900155544281005859375</LatitudeDegrees>
              <LongitudeDegrees>2.84508992917835712432861328125</LongitudeDegrees>
            </Position>
            <AltitudeMeters>124.40000152587890625</AltitudeMeters>
            <DistanceMeters>NAN</DistanceMeters>
          </Trackpoint>
          <Trackpoint>
            <Time>2020-02-15T11:39:56.000Z</Time>
            <Position>
              <LatitudeDegrees>41.9733878038823604583740234375</LatitudeDegrees>
              <LongitudeDegrees>2.8451158292591571807861328125</LongitudeDegrees>
            </Position>
            <AltitudeMeters>124.40000152587890625</AltitudeMeters>
            <DistanceMeters>NAN</DistanceMeters>
          </Trackpoint>
          <Trackpoint>
            <Time>2020-02-15T11:39:57.000Z</Time>
            <Position>
              <LatitudeDegrees>41.97332535870373249053955078125</LatitudeDegrees>
              <LongitudeDegrees>2.8451500274240970611572265625</LongitudeDegrees>
            </Position>
            <AltitudeMeters>124.40000152587890625</AltitudeMeters>
            <DistanceMeters>NAN</DistanceMeters>
          </Trackpoint>
          <Trackpoint>
            <Time>2020-02-15T11:39:58.000Z</Time>
            <Position>
              <LatitudeDegrees>41.97327540256083011627197265625</LatitudeDegrees>
              <LongitudeDegrees>2.84518472850322723388671875</LongitudeDegrees>
            </Position>
            <AltitudeMeters>124.1999969482421875</AltitudeMeters>
            <DistanceMeters>NAN</DistanceMeters>
          </Trackpoint>
          <Trackpoint>
            <Time>2020-02-15T11:39:59.000Z</Time>
            <Position>
              <LatitudeDegrees>41.9732439704239368438720703125</LatitudeDegrees>
              <LongitudeDegrees>2.84521264024078845977783203125</LongitudeDegrees>
            </Position>
            <AltitudeMeters>123.8000030517578125</AltitudeMeters>
            <DistanceMeters>NAN</DistanceMeters>
          </Trackpoint>
          <Trackpoint>
            <Time>2020-02-15T11:40:00.000Z</Time>
            <Position>
              <LatitudeDegrees>41.97321874089539051055908203125</LatitudeDegrees>
              <LongitudeDegrees>2.845223285257816314697265625</LongitudeDegrees>
            </Position>
            <AltitudeMeters>123.8000030517578125</AltitudeMeters>
            <DistanceMeters>NAN</DistanceMeters>
          </Trackpoint>
          <Trackpoint>
            <Time>2020-02-15T11:40:01.000Z</Time>
            <Position>
              <LatitudeDegrees>41.97320063598453998565673828125</LatitudeDegrees>
              <LongitudeDegrees>2.8452157415449619293212890625</LongitudeDegrees>
            </Position>
            <AltitudeMeters>123</AltitudeMeters>
            <DistanceMeters>NAN</DistanceMeters>
          </Trackpoint>
          <Trackpoint>
            <Time>2020-02-15T11:40:02.000Z</Time>
            <Position>
              <LatitudeDegrees>41.9731866382062435150146484375</LatitudeDegrees>
              <LongitudeDegrees>2.84519403241574764251708984375</LongitudeDegrees>
            </Position>
            <AltitudeMeters>121.8000030517578125</AltitudeMeters>
            <DistanceMeters>NAN</DistanceMeters>
          </Trackpoint>
          <Trackpoint>
            <Time>2020-02-15T11:40:03.000Z</Time>
            <Position>
              <LatitudeDegrees>41.97317649610340595245361328125</LatitudeDegrees>
              <LongitudeDegrees>2.84515413455665111541748046875</LongitudeDegrees>
            </Position>
            <AltitudeMeters>121.1999969482421875</AltitudeMeters>
            <DistanceMeters>NAN</DistanceMeters>
          </Trackpoint>
          <Trackpoint>
            <Time>2020-02-15T11:40:04.000Z</Time>
            <Position>
              <LatitudeDegrees>41.97316861711442470550537109375</LatitudeDegrees>
              <LongitudeDegrees>2.84510199911892414093017578125</LongitudeDegrees>
            </Position>
            <AltitudeMeters>120.59999847412109375</AltitudeMeters>
            <DistanceMeters>NAN</DistanceMeters>
          </Trackpoint>
          <Trackpoint>
            <Time>2020-02-15T11:40:05.000Z</Time>
            <Position>
              <LatitudeDegrees>41.9731645099818706512451171875</LatitudeDegrees>
              <LongitudeDegrees>2.84503854811191558837890625</LongitudeDegrees>
            </Position>
            <AltitudeMeters>120</AltitudeMeters>
            <DistanceMeters>NAN</DistanceMeters>
          </Trackpoint>
          <Trackpoint>
            <Time>2020-02-15T11:40:06.000Z</Time>
            <Position>
              <LatitudeDegrees>41.97316174395382404327392578125</LatitudeDegrees>
              <LongitudeDegrees>2.84496587701141834259033203125</LongitudeDegrees>
            </Position>
            <AltitudeMeters>119.40000152587890625</AltitudeMeters>
            <DistanceMeters>NAN</DistanceMeters>
          </Trackpoint>
          <Trackpoint>
            <Time>2020-02-15T11:40:07.000Z</Time>
            <Position>
              <LatitudeDegrees>41.97315654717385768890380859375</LatitudeDegrees>
              <LongitudeDegrees>2.8448854945600032806396484375</LongitudeDegrees>
            </Position>
            <AltitudeMeters>118.8000030517578125</AltitudeMeters>
            <DistanceMeters>NAN</DistanceMeters>
          </Trackpoint>
          <Trackpoint>
            <Time>2020-02-15T11:40:08.000Z</Time>
            <Position>
              <LatitudeDegrees>41.97314615361392498016357421875</LatitudeDegrees>
              <LongitudeDegrees>2.84479974769055843353271484375</LongitudeDegrees>
            </Position>
            <AltitudeMeters>118.1999969482421875</AltitudeMeters>
            <DistanceMeters>NAN</DistanceMeters>
          </Trackpoint>
          <Trackpoint>
            <Time>2020-02-15T11:40:09.000Z</Time>
            <Position>
              <LatitudeDegrees>41.973132826387882232666015625</LatitudeDegrees>
              <LongitudeDegrees>2.8447119891643524169921875</LongitudeDegrees>
            </Position>
            <AltitudeMeters>117.59999847412109375</AltitudeMeters>
            <DistanceMeters>NAN</DistanceMeters>
          </Trackpoint>
          <Trackpoint>
            <Time>2020-02-15T11:40:10.000Z</Time>
            <Position>
              <LatitudeDegrees>41.9731145538389682769775390625</LatitudeDegrees>
              <LongitudeDegrees>2.84462456591427326202392578125</LongitudeDegrees>
            </Position>
            <AltitudeMeters>117</AltitudeMeters>
            <DistanceMeters>NAN</DistanceMeters>
          </Trackpoint>
          <Trackpoint>
            <Time>2020-02-15T11:40:11.000Z</Time>
            <Position>
              <LatitudeDegrees>41.9730877317488193511962890625</LatitudeDegrees>
              <LongitudeDegrees>2.844535298645496368408203125</LongitudeDegrees>
            </Position>
            <AltitudeMeters>116.8000030517578125</AltitudeMeters>
            <DistanceMeters>NAN</DistanceMeters>
          </Trackpoint>
          <Trackpoint>
            <Time>2020-02-15T11:40:12.000Z</Time>
            <Position>
              <LatitudeDegrees>41.97304842062294483184814453125</LatitudeDegrees>
              <LongitudeDegrees>2.8444464504718780517578125</LongitudeDegrees>
            </Position>
            <AltitudeMeters>116.40000152587890625</AltitudeMeters>
            <DistanceMeters>NAN</DistanceMeters>
          </Trackpoint>
          <Trackpoint>
            <Time>2020-02-15T11:40:13.000Z</Time>
            <Position>
              <LatitudeDegrees>41.97300584055483341217041015625</LatitudeDegrees>
              <LongitudeDegrees>2.84435768611729145050048828125</LongitudeDegrees>
            </Position>
            <AltitudeMeters>116.1999969482421875</AltitudeMeters>
            <DistanceMeters>NAN</DistanceMeters>
          </Trackpoint>
          <Trackpoint>
            <Time>2020-02-15T11:40:14.000Z</Time>
            <Position>
              <LatitudeDegrees>41.9729589857161045074462890625</LatitudeDegrees>
              <LongitudeDegrees>2.8442756272852420806884765625</LongitudeDegrees>
            </Position>
            <AltitudeMeters>115.8000030517578125</AltitudeMeters>
            <DistanceMeters>NAN</DistanceMeters>
          </Trackpoint>
          <Trackpoint>
            <Time>2020-02-15T11:40:15.000Z</Time>
            <Position>
              <LatitudeDegrees>41.97290525771677494049072265625</LatitudeDegrees>
              <LongitudeDegrees>2.844202704727649688720703125</LongitudeDegrees>
            </Position>
            <AltitudeMeters>115.40000152587890625</AltitudeMeters>
            <DistanceMeters>NAN</DistanceMeters>
          </Trackpoint>
          <Trackpoint>
            <Time>2020-02-15T11:40:16.000Z</Time>
            <Position>
              <LatitudeDegrees>41.97284759022295475006103515625</LatitudeDegrees>
              <LongitudeDegrees>2.84413405694067478179931640625</LongitudeDegrees>
            </Position>
            <AltitudeMeters>115.1999969482421875</AltitudeMeters>
            <DistanceMeters>NAN</DistanceMeters>
          </Trackpoint>
          <Trackpoint>
            <Time>2020-02-15T11:40:18.000Z</Time>
            <Position>
              <LatitudeDegrees>41.97273476980626583099365234375</LatitudeDegrees>
              <LongitudeDegrees>2.84398536197841167449951171875</LongitudeDegrees>
            </Position>
            <AltitudeMeters>114.1999969482421875</AltitudeMeters>
            <DistanceMeters>NAN</DistanceMeters>
          </Trackpoint>
          <Trackpoint>
            <Time>2020-02-15T11:40:20.000Z</Time>
            <Position>
              <LatitudeDegrees>41.972629241645336151123046875</LatitudeDegrees>
              <LongitudeDegrees>2.84381940029561519622802734375</LongitudeDegrees>
            </Position>
            <AltitudeMeters>113</AltitudeMeters>
            <DistanceMeters>NAN</DistanceMeters>
          </Trackpoint>
          <Trackpoint>
            <Time>2020-02-15T11:40:23.000Z</Time>
            <Position>
              <LatitudeDegrees>41.9724647887051105499267578125</LatitudeDegrees>
              <LongitudeDegrees>2.843576408922672271728515625</LongitudeDegrees>
            </Position>
            <AltitudeMeters>112</AltitudeMeters>
            <DistanceMeters>NAN</DistanceMeters>
          </Trackpoint>
          <Trackpoint>
            <Time>2020-02-15T11:40:24.000Z</Time>
            <Position>
              <LatitudeDegrees>41.97240619920194149017333984375</LatitudeDegrees>
              <LongitudeDegrees>2.8435051627457141876220703125</LongitudeDegrees>
            </Position>
            <AltitudeMeters>111.8000030517578125</AltitudeMeters>
            <DistanceMeters>NAN</DistanceMeters>
          </Trackpoint>
          <Trackpoint>
            <Time>2020-02-15T11:40:25.000Z</Time>
            <Position>
              <LatitudeDegrees>41.97234920226037502288818359375</LatitudeDegrees>
              <LongitudeDegrees>2.84343592822551727294921875</LongitudeDegrees>
            </Position>
            <AltitudeMeters>111.1999969482421875</AltitudeMeters>
            <DistanceMeters>NAN</DistanceMeters>
          </Trackpoint>
          <Trackpoint>
            <Time>2020-02-15T11:40:26.000Z</Time>
            <Position>
              <LatitudeDegrees>41.9722943007946014404296875</LatitudeDegrees>
              <LongitudeDegrees>2.84336660988628864288330078125</LongitudeDegrees>
            </Position>
            <AltitudeMeters>110.40000152587890625</AltitudeMeters>
            <DistanceMeters>NAN</DistanceMeters>
          </Trackpoint>
          <Trackpoint>
            <Time>2020-02-15T11:40:27.000Z</Time>
            <Position>
              <LatitudeDegrees>41.9722364656627178192138671875</LatitudeDegrees>
              <LongitudeDegrees>2.84329653717577457427978515625</LongitudeDegrees>
            </Position>
            <AltitudeMeters>110</AltitudeMeters>
            <DistanceMeters>NAN</DistanceMeters>
          </Trackpoint>
          <Trackpoint>
            <Time>2020-02-15T11:40:29.000Z</Time>
            <Position>
              <LatitudeDegrees>41.972124986350536346435546875</LatitudeDegrees>
              <LongitudeDegrees>2.84316645003855228424072265625</LongitudeDegrees>
            </Position>
            <AltitudeMeters>109</AltitudeMeters>
            <DistanceMeters>NAN</DistanceMeters>
          </Trackpoint>
          <Trackpoint>
            <Time>2020-02-15T11:40:30.000Z</Time>
            <Position>
              <LatitudeDegrees>41.97207477875053882598876953125</LatitudeDegrees>
              <LongitudeDegrees>2.84309570677578449249267578125</LongitudeDegrees>
            </Position>
            <AltitudeMeters>108.59999847412109375</AltitudeMeters>
            <DistanceMeters>NAN</DistanceMeters>
          </Trackpoint>
          <Trackpoint>
            <Time>2020-02-15T11:40:31.000Z</Time>
            <Position>
              <LatitudeDegrees>41.972027756273746490478515625</LatitudeDegrees>
              <LongitudeDegrees>2.8430206887423992156982421875</LongitudeDegrees>
            </Position>
            <AltitudeMeters>108.1999969482421875</AltitudeMeters>
            <DistanceMeters>NAN</DistanceMeters>
          </Trackpoint>
          <Trackpoint>
            <Time>2020-02-15T11:40:33.000Z</Time>
            <Position>
              <LatitudeDegrees>41.971937231719493865966796875</LatitudeDegrees>
              <LongitudeDegrees>2.84284609369933605194091796875</LongitudeDegrees>
            </Position>
            <AltitudeMeters>107.59999847412109375</AltitudeMeters>
            <DistanceMeters>NAN</DistanceMeters>
          </Trackpoint>
          <Trackpoint>
            <Time>2020-02-15T11:40:35.000Z</Time>
            <Position>
              <LatitudeDegrees>41.971850059926509857177734375</LatitudeDegrees>
              <LongitudeDegrees>2.84265364520251750946044921875</LongitudeDegrees>
            </Position>
            <AltitudeMeters>106.40000152587890625</AltitudeMeters>
            <DistanceMeters>NAN</DistanceMeters>
          </Trackpoint>
          <Trackpoint>
            <Time>2020-02-15T11:40:36.000Z</Time>
            <Position>
              <LatitudeDegrees>41.97181141935288906097412109375</LatitudeDegrees>
              <LongitudeDegrees>2.8425657190382480621337890625</LongitudeDegrees>
            </Position>
            <AltitudeMeters>106.1999969482421875</AltitudeMeters>
            <DistanceMeters>NAN</DistanceMeters>
          </Trackpoint>
          <Trackpoint>
            <Time>2020-02-15T11:40:37.000Z</Time>
            <Position>
              <LatitudeDegrees>41.97177638299763202667236328125</LatitudeDegrees>
              <LongitudeDegrees>2.84248013980686664581298828125</LongitudeDegrees>
            </Position>
            <AltitudeMeters>106</AltitudeMeters>
            <DistanceMeters>NAN</DistanceMeters>
          </Trackpoint>
          <Trackpoint>
            <Time>2020-02-15T11:40:38.000Z</Time>
            <Position>
              <LatitudeDegrees>41.9717399217188358306884765625</LatitudeDegrees>
              <LongitudeDegrees>2.84239967353641986846923828125</LongitudeDegrees>
            </Position>
            <AltitudeMeters>105.8000030517578125</AltitudeMeters>
            <DistanceMeters>NAN</DistanceMeters>
          </Trackpoint>
          <Trackpoint>
            <Time>2020-02-15T11:40:39.000Z</Time>
            <Position>
              <LatitudeDegrees>41.97170245461165904998779296875</LatitudeDegrees>
              <LongitudeDegrees>2.842329852283000946044921875</LongitudeDegrees>
            </Position>
            <AltitudeMeters>105.40000152587890625</AltitudeMeters>
            <DistanceMeters>NAN</DistanceMeters>
          </Trackpoint>
          <Trackpoint>
            <Time>2020-02-15T11:40:40.000Z</Time>
            <Position>
              <LatitudeDegrees>41.97167144156992435455322265625</LatitudeDegrees>
              <LongitudeDegrees>2.84226271323859691619873046875</LongitudeDegrees>
            </Position>
            <AltitudeMeters>105.1999969482421875</AltitudeMeters>
            <DistanceMeters>NAN</DistanceMeters>
          </Trackpoint>
          <Trackpoint>
            <Time>2020-02-15T11:40:41.000Z</Time>
            <Position>
              <LatitudeDegrees>41.9716363213956356048583984375</LatitudeDegrees>
              <LongitudeDegrees>2.84220135770738124847412109375</LongitudeDegrees>
            </Position>
            <AltitudeMeters>104.8000030517578125</AltitudeMeters>
            <DistanceMeters>NAN</DistanceMeters>
          </Trackpoint>
          <Trackpoint>
            <Time>2020-02-15T11:40:42.000Z</Time>
            <Position>
              <LatitudeDegrees>41.97159533388912677764892578125</LatitudeDegrees>
              <LongitudeDegrees>2.8421462886035442352294921875</LongitudeDegrees>
            </Position>
            <AltitudeMeters>104.1999969482421875</AltitudeMeters>
            <DistanceMeters>NAN</DistanceMeters>
          </Trackpoint>
          <Trackpoint>
            <Time>2020-02-15T11:40:43.000Z</Time>
            <Position>
              <LatitudeDegrees>41.9715478084981441497802734375</LatitudeDegrees>
              <LongitudeDegrees>2.8420968353748321533203125</LongitudeDegrees>
            </Position>
            <AltitudeMeters>104.1999969482421875</AltitudeMeters>
            <DistanceMeters>NAN</DistanceMeters>
          </Trackpoint>
          <Trackpoint>
            <Time>2020-02-15T11:40:44.000Z</Time>
            <Position>
              <LatitudeDegrees>41.9714985229074954986572265625</LatitudeDegrees>
              <LongitudeDegrees>2.84204411320388317108154296875</LongitudeDegrees>
            </Position>
            <AltitudeMeters>103.40000152587890625</AltitudeMeters>
            <DistanceMeters>NAN</DistanceMeters>
          </Trackpoint>
          <Trackpoint>
            <Time>2020-02-15T11:40:47.000Z</Time>
            <Position>
              <LatitudeDegrees>41.97133063338696956634521484375</LatitudeDegrees>
              <LongitudeDegrees>2.84186993725597858428955078125</LongitudeDegrees>
            </Position>
            <AltitudeMeters>101.8000030517578125</AltitudeMeters>
            <DistanceMeters>NAN</DistanceMeters>
          </Trackpoint>
          <Trackpoint>
            <Time>2020-02-15T11:40:48.000Z</Time>
            <Position>
              <LatitudeDegrees>41.971276067197322845458984375</LatitudeDegrees>
              <LongitudeDegrees>2.84179852344095706939697265625</LongitudeDegrees>
            </Position>
            <AltitudeMeters>101.59999847412109375</AltitudeMeters>
            <DistanceMeters>NAN</DistanceMeters>
          </Trackpoint>
          <Trackpoint>
            <Time>2020-02-15T11:40:49.000Z</Time>
            <Position>
              <LatitudeDegrees>41.971220411360263824462890625</LatitudeDegrees>
              <LongitudeDegrees>2.841718308627605438232421875</LongitudeDegrees>
            </Position>
            <AltitudeMeters>101.59999847412109375</AltitudeMeters>
            <DistanceMeters>NAN</DistanceMeters>
          </Trackpoint>
          <Trackpoint>
            <Time>2020-02-15T11:40:51.000Z</Time>
            <Position>
              <LatitudeDegrees>41.97110113687813282012939453125</LatitudeDegrees>
              <LongitudeDegrees>2.841549329459667205810546875</LongitudeDegrees>
            </Position>
            <AltitudeMeters>101</AltitudeMeters>
            <DistanceMeters>NAN</DistanceMeters>
          </Trackpoint>
          <Trackpoint>
            <Time>2020-02-15T11:40:53.000Z</Time>
            <Position>
              <LatitudeDegrees>41.97096702642738819122314453125</LatitudeDegrees>
              <LongitudeDegrees>2.8413972817361354827880859375</LongitudeDegrees>
            </Position>
            <AltitudeMeters>100.1999969482421875</AltitudeMeters>
            <DistanceMeters>NAN</DistanceMeters>
          </Trackpoint>
          <Trackpoint>
            <Time>2020-02-15T11:40:54.000Z</Time>
            <Position>
              <LatitudeDegrees>41.97088840417563915252685546875</LatitudeDegrees>
              <LongitudeDegrees>2.84134514629840850830078125</LongitudeDegrees>
            </Position>
            <AltitudeMeters>99.8000030517578125</AltitudeMeters>
            <DistanceMeters>NAN</DistanceMeters>
          </Trackpoint>
          <Trackpoint>
            <Time>2020-02-15T11:40:55.000Z</Time>
            <Position>
              <LatitudeDegrees>41.97080894373357295989990234375</LatitudeDegrees>
              <LongitudeDegrees>2.84130382351577281951904296875</LongitudeDegrees>
            </Position>
            <AltitudeMeters>99.40000152587890625</AltitudeMeters>
            <DistanceMeters>NAN</DistanceMeters>
          </Trackpoint>
          <Trackpoint>
            <Time>2020-02-15T11:40:56.000Z</Time>
            <Position>
              <LatitudeDegrees>41.97073124349117279052734375</LatitudeDegrees>
              <LongitudeDegrees>2.84126878716051578521728515625</LongitudeDegrees>
            </Position>
            <AltitudeMeters>98.8000030517578125</AltitudeMeters>
            <DistanceMeters>NAN</DistanceMeters>
          </Trackpoint>
          <Trackpoint>
            <Time>2020-02-15T11:40:57.000Z</Time>
            <Position>
              <LatitudeDegrees>41.97065589018166065216064453125</LatitudeDegrees>
              <LongitudeDegrees>2.84123643301427364349365234375</LongitudeDegrees>
            </Position>
            <AltitudeMeters>98.1999969482421875</AltitudeMeters>
            <DistanceMeters>NAN</DistanceMeters>
          </Trackpoint>
          <Trackpoint>
            <Time>2020-02-15T11:40:58.000Z</Time>
            <Position>
              <LatitudeDegrees>41.97058196179568767547607421875</LatitudeDegrees>
              <LongitudeDegrees>2.84120324067771434783935546875</LongitudeDegrees>
            </Position>
            <AltitudeMeters>97.59999847412109375</AltitudeMeters>
            <DistanceMeters>NAN</DistanceMeters>
          </Trackpoint>
          <Trackpoint>
            <Time>2020-02-15T11:40:59.000Z</Time>
            <Position>
              <LatitudeDegrees>41.9705138169229030609130859375</LatitudeDegrees>
              <LongitudeDegrees>2.84116149879992008209228515625</LongitudeDegrees>
            </Position>
            <AltitudeMeters>96.8000030517578125</AltitudeMeters>
            <DistanceMeters>NAN</DistanceMeters>
          </Trackpoint>
          <Trackpoint>
            <Time>2020-02-15T11:41:00.000Z</Time>
            <Position>
              <LatitudeDegrees>41.9704440794885158538818359375</LatitudeDegrees>
              <LongitudeDegrees>2.84112277440726757049560546875</LongitudeDegrees>
            </Position>
            <AltitudeMeters>96.1999969482421875</AltitudeMeters>
            <DistanceMeters>NAN</DistanceMeters>
          </Trackpoint>
          <Trackpoint>
            <Time>2020-02-15T11:41:01.000Z</Time>
            <Position>
              <LatitudeDegrees>41.9703770242631435394287109375</LatitudeDegrees>
              <LongitudeDegrees>2.8410851396620273590087890625</LongitudeDegrees>
            </Position>
            <AltitudeMeters>95.40000152587890625</AltitudeMeters>
            <DistanceMeters>NAN</DistanceMeters>
          </Trackpoint>
          <Trackpoint>
            <Time>2020-02-15T11:41:02.000Z</Time>
            <Position>
              <LatitudeDegrees>41.97031089104712009429931640625</LatitudeDegrees>
              <LongitudeDegrees>2.84104851074516773223876953125</LongitudeDegrees>
            </Position>
            <AltitudeMeters>95</AltitudeMeters>
            <DistanceMeters>NAN</DistanceMeters>
          </Trackpoint>
          <Trackpoint>
            <Time>2020-02-15T11:41:03.000Z</Time>
            <Position>
              <LatitudeDegrees>41.97024953551590442657470703125</LatitudeDegrees>
              <LongitudeDegrees>2.841008193790912628173828125</LongitudeDegrees>
            </Position>
            <AltitudeMeters>94.59999847412109375</AltitudeMeters>
            <DistanceMeters>NAN</DistanceMeters>
          </Trackpoint>
          <Trackpoint>
            <Time>2020-02-15T11:41:04.000Z</Time>
            <Position>
              <LatitudeDegrees>41.97019035927951335906982421875</LatitudeDegrees>
              <LongitudeDegrees>2.8409667871892452239990234375</LongitudeDegrees>
            </Position>
            <AltitudeMeters>94.59999847412109375</AltitudeMeters>
            <DistanceMeters>NAN</DistanceMeters>
          </Trackpoint>
          <Trackpoint>
            <Time>2020-02-15T11:41:05.000Z</Time>
            <Position>
              <LatitudeDegrees>41.97013403289020061492919921875</LatitudeDegrees>
              <LongitudeDegrees>2.84092345274984836578369140625</LongitudeDegrees>
            </Position>
            <AltitudeMeters>94.1999969482421875</AltitudeMeters>
            <DistanceMeters>NAN</DistanceMeters>
          </Trackpoint>
          <Trackpoint>
            <Time>2020-02-15T11:41:06.000Z</Time>
            <Position>
              <LatitudeDegrees>41.9700883515179157257080078125</LatitudeDegrees>
              <LongitudeDegrees>2.84086511470377445220947265625</LongitudeDegrees>
            </Position>
            <AltitudeMeters>93.8000030517578125</AltitudeMeters>
            <DistanceMeters>NAN</DistanceMeters>
          </Trackpoint>
          <Trackpoint>
            <Time>2020-02-15T11:41:07.000Z</Time>
            <Position>
              <LatitudeDegrees>41.9700561650097370147705078125</LatitudeDegrees>
              <LongitudeDegrees>2.84079269506037235260009765625</LongitudeDegrees>
            </Position>
            <AltitudeMeters>93.8000030517578125</AltitudeMeters>
            <DistanceMeters>NAN</DistanceMeters>
          </Trackpoint>
          <Trackpoint>
            <Time>2020-02-15T11:41:08.000Z</Time>
            <Position>
              <LatitudeDegrees>41.97004149667918682098388671875</LatitudeDegrees>
              <LongitudeDegrees>2.84071289934217929840087890625</LongitudeDegrees>
            </Position>
            <AltitudeMeters>93.59999847412109375</AltitudeMeters>
            <DistanceMeters>NAN</DistanceMeters>
          </Trackpoint>
          <Trackpoint>
            <Time>2020-02-15T11:41:09.000Z</Time>
            <Position>
              <LatitudeDegrees>41.9700363837182521820068359375</LatitudeDegrees>
              <LongitudeDegrees>2.84063947387039661407470703125</LongitudeDegrees>
            </Position>
            <AltitudeMeters>93.40000152587890625</AltitudeMeters>
            <DistanceMeters>NAN</DistanceMeters>
          </Trackpoint>
          <Trackpoint>
            <Time>2020-02-15T11:41:10.000Z</Time>
            <Position>
              <LatitudeDegrees>41.9700350426137447357177734375</LatitudeDegrees>
              <LongitudeDegrees>2.8405813872814178466796875</LongitudeDegrees>
            </Position>
            <AltitudeMeters>93.1999969482421875</AltitudeMeters>
            <DistanceMeters>NAN</DistanceMeters>
          </Trackpoint>
          <Trackpoint>
            <Time>2020-02-15T11:41:11.000Z</Time>
            <Position>
              <LatitudeDegrees>41.97003361769020557403564453125</LatitudeDegrees>
              <LongitudeDegrees>2.8405366279184818267822265625</LongitudeDegrees>
            </Position>
            <AltitudeMeters>93.1999969482421875</AltitudeMeters>
            <DistanceMeters>NAN</DistanceMeters>
          </Trackpoint>
          <Trackpoint>
            <Time>2020-02-15T11:41:12.000Z</Time>
            <Position>
              <LatitudeDegrees>41.97003252804279327392578125</LatitudeDegrees>
              <LongitudeDegrees>2.840501926839351654052734375</LongitudeDegrees>
            </Position>
            <AltitudeMeters>93</AltitudeMeters>
            <DistanceMeters>NAN</DistanceMeters>
          </Trackpoint>
          <Trackpoint>
            <Time>2020-02-15T11:41:13.000Z</Time>
            <Position>
              <LatitudeDegrees>41.97003680281341075897216796875</LatitudeDegrees>
              <LongitudeDegrees>2.84047133289277553558349609375</LongitudeDegrees>
            </Position>
            <AltitudeMeters>92.8000030517578125</AltitudeMeters>
            <DistanceMeters>NAN</DistanceMeters>
          </Trackpoint>
          <Trackpoint>
            <Time>2020-02-15T11:41:14.000Z</Time>
            <Position>
              <LatitudeDegrees>41.97004501707851886749267578125</LatitudeDegrees>
              <LongitudeDegrees>2.84043445251882076263427734375</LongitudeDegrees>
            </Position>
            <AltitudeMeters>92.59999847412109375</AltitudeMeters>
            <DistanceMeters>NAN</DistanceMeters>
          </Trackpoint>
          <Trackpoint>
            <Time>2020-02-15T11:41:15.000Z</Time>
            <Position>
              <LatitudeDegrees>41.97005406953394412994384765625</LatitudeDegrees>
              <LongitudeDegrees>2.84039296209812164306640625</LongitudeDegrees>
            </Position>
            <AltitudeMeters>92.40000152587890625</AltitudeMeters>
            <DistanceMeters>NAN</DistanceMeters>
          </Trackpoint>
          <Trackpoint>
            <Time>2020-02-15T11:41:18.000Z</Time>
            <Position>
              <LatitudeDegrees>41.9700792990624904632568359375</LatitudeDegrees>
              <LongitudeDegrees>2.8402536548674106597900390625</LongitudeDegrees>
            </Position>
            <AltitudeMeters>91.40000152587890625</AltitudeMeters>
            <DistanceMeters>NAN</DistanceMeters>
          </Trackpoint>
          <Trackpoint>
            <Time>2020-02-15T11:41:19.000Z</Time>
            <Position>
              <LatitudeDegrees>41.970081813633441925048828125</LatitudeDegrees>
              <LongitudeDegrees>2.84020931459963321685791015625</LongitudeDegrees>
            </Position>
            <AltitudeMeters>91</AltitudeMeters>
            <DistanceMeters>NAN</DistanceMeters>
          </Trackpoint>
          <Trackpoint>
            <Time>2020-02-15T11:41:20.000Z</Time>
            <Position>
              <LatitudeDegrees>41.97008675895631313323974609375</LatitudeDegrees>
              <LongitudeDegrees>2.8401705063879489898681640625</LongitudeDegrees>
            </Position>
            <AltitudeMeters>90.8000030517578125</AltitudeMeters>
            <DistanceMeters>NAN</DistanceMeters>
          </Trackpoint>
          <Trackpoint>
            <Time>2020-02-15T11:41:21.000Z</Time>
            <Position>
              <LatitudeDegrees>41.9700906984508037567138671875</LatitudeDegrees>
              <LongitudeDegrees>2.84013572148978710174560546875</LongitudeDegrees>
            </Position>
            <AltitudeMeters>90.1999969482421875</AltitudeMeters>
            <DistanceMeters>NAN</DistanceMeters>
          </Trackpoint>
          <Trackpoint>
            <Time>2020-02-15T11:41:22.000Z</Time>
            <Position>
              <LatitudeDegrees>41.97009623050689697265625</LatitudeDegrees>
              <LongitudeDegrees>2.84010319970548152923583984375</LongitudeDegrees>
            </Position>
            <AltitudeMeters>90</AltitudeMeters>
            <DistanceMeters>NAN</DistanceMeters>
          </Trackpoint>
          <Trackpoint>
            <Time>2020-02-15T11:41:23.000Z</Time>
            <Position>
              <LatitudeDegrees>41.9701037742197513580322265625</LatitudeDegrees>
              <LongitudeDegrees>2.84007118083536624908447265625</LongitudeDegrees>
            </Position>
            <AltitudeMeters>89.59999847412109375</AltitudeMeters>
            <DistanceMeters>NAN</DistanceMeters>
          </Trackpoint>
          <Trackpoint>
            <Time>2020-02-15T11:41:24.000Z</Time>
            <Position>
              <LatitudeDegrees>41.97011056356132030487060546875</LatitudeDegrees>
              <LongitudeDegrees>2.84003815613687038421630859375</LongitudeDegrees>
            </Position>
            <AltitudeMeters>89.40000152587890625</AltitudeMeters>
            <DistanceMeters>NAN</DistanceMeters>
          </Trackpoint>
          <Trackpoint>
            <Time>2020-02-15T11:41:25.000Z</Time>
            <Position>
              <LatitudeDegrees>41.97011877782642841339111328125</LatitudeDegrees>
              <LongitudeDegrees>2.84000731073319911956787109375</LongitudeDegrees>
            </Position>
            <AltitudeMeters>89.40000152587890625</AltitudeMeters>
            <DistanceMeters>NAN</DistanceMeters>
          </Trackpoint>
          <Trackpoint>
            <Time>2020-02-15T11:41:26.000Z</Time>
            <Position>
              <LatitudeDegrees>41.97012397460639476776123046875</LatitudeDegrees>
              <LongitudeDegrees>2.83997478894889354705810546875</LongitudeDegrees>
            </Position>
            <AltitudeMeters>89.40000152587890625</AltitudeMeters>
            <DistanceMeters>NAN</DistanceMeters>
          </Trackpoint>
          <Trackpoint>
            <Time>2020-02-15T11:41:27.000Z</Time>
            <Position>
              <LatitudeDegrees>41.9701292552053928375244140625</LatitudeDegrees>
              <LongitudeDegrees>2.83993941731750965118408203125</LongitudeDegrees>
            </Position>
            <AltitudeMeters>89.1999969482421875</AltitudeMeters>
            <DistanceMeters>NAN</DistanceMeters>
          </Trackpoint>
          <Trackpoint>
            <Time>2020-02-15T11:41:28.000Z</Time>
            <Position>
              <LatitudeDegrees>41.97013671509921550750732421875</LatitudeDegrees>
              <LongitudeDegrees>2.83990211784839630126953125</LongitudeDegrees>
            </Position>
            <AltitudeMeters>89.1999969482421875</AltitudeMeters>
            <DistanceMeters>NAN</DistanceMeters>
          </Trackpoint>
          <Trackpoint>
            <Time>2020-02-15T11:41:33.000Z</Time>
            <Position>
              <LatitudeDegrees>41.97017661295831203460693359375</LatitudeDegrees>
              <LongitudeDegrees>2.8397158719599246978759765625</LongitudeDegrees>
            </Position>
            <AltitudeMeters>88.40000152587890625</AltitudeMeters>
            <DistanceMeters>NAN</DistanceMeters>
          </Trackpoint>
          <Trackpoint>
            <Time>2020-02-15T11:41:34.000Z</Time>
            <Position>
              <LatitudeDegrees>41.97018734179437160491943359375</LatitudeDegrees>
              <LongitudeDegrees>2.83968008123338222503662109375</LongitudeDegrees>
            </Position>
            <AltitudeMeters>88.40000152587890625</AltitudeMeters>
            <DistanceMeters>NAN</DistanceMeters>
          </Trackpoint>
          <Trackpoint>
            <Time>2020-02-15T11:41:35.000Z</Time>
            <Position>
              <LatitudeDegrees>41.9701986573636531829833984375</LatitudeDegrees>
              <LongitudeDegrees>2.83964571543037891387939453125</LongitudeDegrees>
            </Position>
            <AltitudeMeters>88.40000152587890625</AltitudeMeters>
            <DistanceMeters>NAN</DistanceMeters>
          </Trackpoint>
          <Trackpoint>
            <Time>2020-02-15T11:41:36.000Z</Time>
            <Position>
              <LatitudeDegrees>41.97021014057099819183349609375</LatitudeDegrees>
              <LongitudeDegrees>2.83960933797061443328857421875</LongitudeDegrees>
            </Position>
            <AltitudeMeters>88.1999969482421875</AltitudeMeters>
            <DistanceMeters>NAN</DistanceMeters>
          </Trackpoint>
          <Trackpoint>
            <Time>2020-02-15T11:41:37.000Z</Time>
            <Position>
              <LatitudeDegrees>41.97022237814962863922119140625</LatitudeDegrees>
              <LongitudeDegrees>2.83957111649215221405029296875</LongitudeDegrees>
            </Position>
            <AltitudeMeters>88.1999969482421875</AltitudeMeters>
            <DistanceMeters>NAN</DistanceMeters>
          </Trackpoint>
          <Trackpoint>
            <Time>2020-02-15T11:41:41.000Z</Time>
            <Position>
              <LatitudeDegrees>41.9702784530818462371826171875</LatitudeDegrees>
              <LongitudeDegrees>2.83941085450351238250732421875</LongitudeDegrees>
            </Position>
            <AltitudeMeters>88.1999969482421875</AltitudeMeters>
            <DistanceMeters>NAN</DistanceMeters>
          </Trackpoint>
          <Trackpoint>
            <Time>2020-02-15T11:41:43.000Z</Time>
            <Position>
              <LatitudeDegrees>41.97031424380838871002197265625</LatitudeDegrees>
              <LongitudeDegrees>2.83932544291019439697265625</LongitudeDegrees>
            </Position>
            <AltitudeMeters>88</AltitudeMeters>
            <DistanceMeters>NAN</DistanceMeters>
          </Trackpoint>
          <Trackpoint>
            <Time>2020-02-15T11:41:45.000Z</Time>
            <Position>
              <LatitudeDegrees>41.97035665623843669891357421875</LatitudeDegrees>
              <LongitudeDegrees>2.83923382870852947235107421875</LongitudeDegrees>
            </Position>
            <AltitudeMeters>88</AltitudeMeters>
            <DistanceMeters>NAN</DistanceMeters>
          </Trackpoint>
          <Trackpoint>
            <Time>2020-02-15T11:41:47.000Z</Time>
            <Position>
              <LatitudeDegrees>41.970398314297199249267578125</LatitudeDegrees>
              <LongitudeDegrees>2.83914011903107166290283203125</LongitudeDegrees>
            </Position>
            <AltitudeMeters>87.8000030517578125</AltitudeMeters>
            <DistanceMeters>NAN</DistanceMeters>
          </Trackpoint>
          <Trackpoint>
            <Time>2020-02-15T11:41:50.000Z</Time>
            <Position>
              <LatitudeDegrees>41.970467381179332733154296875</LatitudeDegrees>
              <LongitudeDegrees>2.8389936871826648712158203125</LongitudeDegrees>
            </Position>
            <AltitudeMeters>87.8000030517578125</AltitudeMeters>
            <DistanceMeters>NAN</DistanceMeters>
          </Trackpoint>
          <Trackpoint>
            <Time>2020-02-15T11:41:53.000Z</Time>
            <Position>
              <LatitudeDegrees>41.9705282337963581085205078125</LatitudeDegrees>
              <LongitudeDegrees>2.83885228447616100311279296875</LongitudeDegrees>
            </Position>
            <AltitudeMeters>87.40000152587890625</AltitudeMeters>
            <DistanceMeters>NAN</DistanceMeters>
          </Trackpoint>
          <Trackpoint>
            <Time>2020-02-15T11:41:54.000Z</Time>
            <Position>
              <LatitudeDegrees>41.970541477203369140625</LatitudeDegrees>
              <LongitudeDegrees>2.8388186730444431304931640625</LongitudeDegrees>
            </Position>
            <AltitudeMeters>87.1999969482421875</AltitudeMeters>
            <DistanceMeters>NAN</DistanceMeters>
          </Trackpoint>
          <Trackpoint>
            <Time>2020-02-15T11:41:55.000Z</Time>
            <Position>
              <LatitudeDegrees>41.9705362804234027862548828125</LatitudeDegrees>
              <LongitudeDegrees>2.83877952955663204193115234375</LongitudeDegrees>
            </Position>
            <AltitudeMeters>87.40000152587890625</AltitudeMeters>
            <DistanceMeters>NAN</DistanceMeters>
          </Trackpoint>
          <Trackpoint>
            <Time>2020-02-15T11:41:57.000Z</Time>
            <Position>
              <LatitudeDegrees>41.970555223524570465087890625</LatitudeDegrees>
              <LongitudeDegrees>2.83871700055897235870361328125</LongitudeDegrees>
            </Position>
            <AltitudeMeters>87</AltitudeMeters>
            <DistanceMeters>NAN</DistanceMeters>
          </Trackpoint>
          <Trackpoint>
            <Time>2020-02-15T11:41:58.000Z</Time>
            <Position>
              <LatitudeDegrees>41.9705795310437679290771484375</LatitudeDegrees>
              <LongitudeDegrees>2.83869822509586811065673828125</LongitudeDegrees>
            </Position>
            <AltitudeMeters>87</AltitudeMeters>
            <DistanceMeters>NAN</DistanceMeters>
          </Trackpoint>
          <Trackpoint>
            <Time>2020-02-15T11:41:59.000Z</Time>
            <Position>
              <LatitudeDegrees>41.97060341946780681610107421875</LatitudeDegrees>
              <LongitudeDegrees>2.83866754733026027679443359375</LongitudeDegrees>
            </Position>
            <AltitudeMeters>86.8000030517578125</AltitudeMeters>
            <DistanceMeters>NAN</DistanceMeters>
          </Trackpoint>
          <Trackpoint>
            <Time>2020-02-15T11:42:00.000Z</Time>
            <Position>
              <LatitudeDegrees>41.970619261264801025390625</LatitudeDegrees>
              <LongitudeDegrees>2.83862262032926082611083984375</LongitudeDegrees>
            </Position>
            <AltitudeMeters>86.59999847412109375</AltitudeMeters>
            <DistanceMeters>NAN</DistanceMeters>
          </Trackpoint>
          <Trackpoint>
            <Time>2020-02-15T11:42:01.000Z</Time>
            <Position>
              <LatitudeDegrees>41.9706313312053680419921875</LatitudeDegrees>
              <LongitudeDegrees>2.83856998197734355926513671875</LongitudeDegrees>
            </Position>
            <AltitudeMeters>86.40000152587890625</AltitudeMeters>
            <DistanceMeters>NAN</DistanceMeters>
          </Trackpoint>
          <Trackpoint>
            <Time>2020-02-15T11:42:02.000Z</Time>
            <Position>
              <LatitudeDegrees>41.9706439040601253509521484375</LatitudeDegrees>
              <LongitudeDegrees>2.83851667307317256927490234375</LongitudeDegrees>
            </Position>
            <AltitudeMeters>86.1999969482421875</AltitudeMeters>
            <DistanceMeters>NAN</DistanceMeters>
          </Trackpoint>
          <Trackpoint>
            <Time>2020-02-15T11:42:03.000Z</Time>
            <Position>
              <LatitudeDegrees>41.970659829676151275634765625</LatitudeDegrees>
              <LongitudeDegrees>2.8384639509022235870361328125</LongitudeDegrees>
            </Position>
            <AltitudeMeters>86.1999969482421875</AltitudeMeters>
            <DistanceMeters>NAN</DistanceMeters>
          </Trackpoint>
          <Trackpoint>
            <Time>2020-02-15T11:42:04.000Z</Time>
            <Position>
              <LatitudeDegrees>41.970680616796016693115234375</LatitudeDegrees>
              <LongitudeDegrees>2.83841072581708431243896484375</LongitudeDegrees>
            </Position>
            <AltitudeMeters>86.1999969482421875</AltitudeMeters>
            <DistanceMeters>NAN</DistanceMeters>
          </Trackpoint>
          <Trackpoint>
            <Time>2020-02-15T11:42:05.000Z</Time>
            <Position>
              <LatitudeDegrees>41.97070433758199214935302734375</LatitudeDegrees>
              <LongitudeDegrees>2.83835724927484989166259765625</LongitudeDegrees>
            </Position>
            <AltitudeMeters>86</AltitudeMeters>
            <DistanceMeters>NAN</DistanceMeters>
          </Trackpoint>
          <Trackpoint>
            <Time>2020-02-15T11:42:06.000Z</Time>
            <Position>
              <LatitudeDegrees>41.9707297347486019134521484375</LatitudeDegrees>
              <LongitudeDegrees>2.83830427564680576324462890625</LongitudeDegrees>
            </Position>
            <AltitudeMeters>86</AltitudeMeters>
            <DistanceMeters>NAN</DistanceMeters>
          </Trackpoint>
          <Trackpoint>
            <Time>2020-02-15T11:42:09.000Z</Time>
            <Position>
              <LatitudeDegrees>41.970818750560283660888671875</LatitudeDegrees>
              <LongitudeDegrees>2.8381497971713542938232421875</LongitudeDegrees>
            </Position>
            <AltitudeMeters>86</AltitudeMeters>
            <DistanceMeters>NAN</DistanceMeters>
          </Trackpoint>
          <Trackpoint>
            <Time>2020-02-15T11:42:11.000Z</Time>
            <Position>
              <LatitudeDegrees>41.970882453024387359619140625</LatitudeDegrees>
              <LongitudeDegrees>2.83805013634264469146728515625</LongitudeDegrees>
            </Position>
            <AltitudeMeters>85.8000030517578125</AltitudeMeters>
            <DistanceMeters>NAN</DistanceMeters>
          </Trackpoint>
          <Trackpoint>
            <Time>2020-02-15T11:42:12.000Z</Time>
            <Position>
              <LatitudeDegrees>41.97091422043740749359130859375</LatitudeDegrees>
              <LongitudeDegrees>2.837997414171695709228515625</LongitudeDegrees>
            </Position>
            <AltitudeMeters>85.8000030517578125</AltitudeMeters>
            <DistanceMeters>NAN</DistanceMeters>
          </Trackpoint>
          <Trackpoint>
            <Time>2020-02-15T11:42:13.000Z</Time>
            <Position>
              <LatitudeDegrees>41.97094389237463474273681640625</LatitudeDegrees>
              <LongitudeDegrees>2.83794368617236614227294921875</LongitudeDegrees>
            </Position>
            <AltitudeMeters>85.59999847412109375</AltitudeMeters>
            <DistanceMeters>NAN</DistanceMeters>
          </Trackpoint>
          <Trackpoint>
            <Time>2020-02-15T11:42:16.000Z</Time>
            <Position>
              <LatitudeDegrees>41.971027962863445281982421875</LatitudeDegrees>
              <LongitudeDegrees>2.837779484689235687255859375</LongitudeDegrees>
            </Position>
            <AltitudeMeters>85.1999969482421875</AltitudeMeters>
            <DistanceMeters>NAN</DistanceMeters>
          </Trackpoint>
          <Trackpoint>
            <Time>2020-02-15T11:42:17.000Z</Time>
            <Position>
              <LatitudeDegrees>41.9710556231439113616943359375</LatitudeDegrees>
              <LongitudeDegrees>2.8377199731767177581787109375</LongitudeDegrees>
            </Position>
            <AltitudeMeters>85</AltitudeMeters>
            <DistanceMeters>NAN</DistanceMeters>
          </Trackpoint>
          <Trackpoint>
            <Time>2020-02-15T11:42:19.000Z</Time>
            <Position>
              <LatitudeDegrees>41.971116475760936737060546875</LatitudeDegrees>
              <LongitudeDegrees>2.83759801648557186126708984375</LongitudeDegrees>
            </Position>
            <AltitudeMeters>84.59999847412109375</AltitudeMeters>
            <DistanceMeters>NAN</DistanceMeters>
          </Trackpoint>
          <Trackpoint>
            <Time>2020-02-15T11:42:20.000Z</Time>
            <Position>
              <LatitudeDegrees>41.9711478240787982940673828125</LatitudeDegrees>
              <LongitudeDegrees>2.83754118718206882476806640625</LongitudeDegrees>
            </Position>
            <AltitudeMeters>84.40000152587890625</AltitudeMeters>
            <DistanceMeters>NAN</DistanceMeters>
          </Trackpoint>
          <Trackpoint>
            <Time>2020-02-15T11:42:21.000Z</Time>
            <Position>
              <LatitudeDegrees>41.9711811840534210205078125</LatitudeDegrees>
              <LongitudeDegrees>2.83748276531696319580078125</LongitudeDegrees>
            </Position>
            <AltitudeMeters>84.59999847412109375</AltitudeMeters>
            <DistanceMeters>NAN</DistanceMeters>
          </Trackpoint>
          <Trackpoint>
            <Time>2020-02-15T11:42:23.000Z</Time>
            <Position>
              <LatitudeDegrees>41.971244551241397857666015625</LatitudeDegrees>
              <LongitudeDegrees>2.837375141680240631103515625</LongitudeDegrees>
            </Position>
            <AltitudeMeters>84.1999969482421875</AltitudeMeters>
            <DistanceMeters>NAN</DistanceMeters>
          </Trackpoint>
          <Trackpoint>
            <Time>2020-02-15T11:42:24.000Z</Time>
            <Position>
              <LatitudeDegrees>41.9712762348353862762451171875</LatitudeDegrees>
              <LongitudeDegrees>2.83732946030795574188232421875</LongitudeDegrees>
            </Position>
            <AltitudeMeters>84</AltitudeMeters>
            <DistanceMeters>NAN</DistanceMeters>
          </Trackpoint>
          <Trackpoint>
            <Time>2020-02-15T11:42:25.000Z</Time>
            <Position>
              <LatitudeDegrees>41.9713037274777889251708984375</LatitudeDegrees>
              <LongitudeDegrees>2.8372844494879245758056640625</LongitudeDegrees>
            </Position>
            <AltitudeMeters>84</AltitudeMeters>
            <DistanceMeters>NAN</DistanceMeters>
          </Trackpoint>
          <Trackpoint>
            <Time>2020-02-15T11:42:26.000Z</Time>
            <Position>
              <LatitudeDegrees>41.9713287055492401123046875</LatitudeDegrees>
              <LongitudeDegrees>2.83723742701113224029541015625</LongitudeDegrees>
            </Position>
            <AltitudeMeters>83.8000030517578125</AltitudeMeters>
            <DistanceMeters>NAN</DistanceMeters>
          </Trackpoint>
          <Trackpoint>
            <Time>2020-02-15T11:42:27.000Z</Time>
            <Position>
              <LatitudeDegrees>41.97135125286877155303955078125</LatitudeDegrees>
              <LongitudeDegrees>2.8371883928775787353515625</LongitudeDegrees>
            </Position>
            <AltitudeMeters>83.8000030517578125</AltitudeMeters>
            <DistanceMeters>NAN</DistanceMeters>
          </Trackpoint>
          <Trackpoint>
            <Time>2020-02-15T11:42:28.000Z</Time>
            <Position>
              <LatitudeDegrees>41.9713754765689373016357421875</LatitudeDegrees>
              <LongitudeDegrees>2.83713650889694690704345703125</LongitudeDegrees>
            </Position>
            <AltitudeMeters>83.8000030517578125</AltitudeMeters>
            <DistanceMeters>NAN</DistanceMeters>
          </Trackpoint>
          <Trackpoint>
            <Time>2020-02-15T11:42:31.000Z</Time>
            <Position>
              <LatitudeDegrees>41.97145217098295688629150390625</LatitudeDegrees>
              <LongitudeDegrees>2.83697607927024364471435546875</LongitudeDegrees>
            </Position>
            <AltitudeMeters>83.8000030517578125</AltitudeMeters>
            <DistanceMeters>NAN</DistanceMeters>
          </Trackpoint>
          <Trackpoint>
            <Time>2020-02-15T11:42:32.000Z</Time>
            <Position>
              <LatitudeDegrees>41.97147748433053493499755859375</LatitudeDegrees>
              <LongitudeDegrees>2.8369176574051380157470703125</LongitudeDegrees>
            </Position>
            <AltitudeMeters>83.59999847412109375</AltitudeMeters>
            <DistanceMeters>NAN</DistanceMeters>
          </Trackpoint>
          <Trackpoint>
            <Time>2020-02-15T11:42:33.000Z</Time>
            <Position>
              <LatitudeDegrees>41.9715099222958087921142578125</LatitudeDegrees>
              <LongitudeDegrees>2.8368611633777618408203125</LongitudeDegrees>
            </Position>
            <AltitudeMeters>83.59999847412109375</AltitudeMeters>
            <DistanceMeters>NAN</DistanceMeters>
          </Trackpoint>
          <Trackpoint>
            <Time>2020-02-15T11:42:34.000Z</Time>
            <Position>
              <LatitudeDegrees>41.971546299755573272705078125</LatitudeDegrees>
              <LongitudeDegrees>2.836808525025844573974609375</LongitudeDegrees>
            </Position>
            <AltitudeMeters>83.59999847412109375</AltitudeMeters>
            <DistanceMeters>NAN</DistanceMeters>
          </Trackpoint>
          <Trackpoint>
            <Time>2020-02-15T11:42:35.000Z</Time>
            <Position>
              <LatitudeDegrees>41.9715840183198451995849609375</LatitudeDegrees>
              <LongitudeDegrees>2.836756892502307891845703125</LongitudeDegrees>
            </Position>
            <AltitudeMeters>83.40000152587890625</AltitudeMeters>
            <DistanceMeters>NAN</DistanceMeters>
          </Trackpoint>
          <Trackpoint>
            <Time>2020-02-15T11:42:36.000Z</Time>
            <Position>
              <LatitudeDegrees>41.9716250896453857421875</LatitudeDegrees>
              <LongitudeDegrees>2.8367107920348644256591796875</LongitudeDegrees>
            </Position>
            <AltitudeMeters>83.59999847412109375</AltitudeMeters>
            <DistanceMeters>NAN</DistanceMeters>
          </Trackpoint>
          <Trackpoint>
            <Time>2020-02-15T11:42:37.000Z</Time>
            <Position>
              <LatitudeDegrees>41.9716721959412097930908203125</LatitudeDegrees>
              <LongitudeDegrees>2.83666444011032581329345703125</LongitudeDegrees>
            </Position>
            <AltitudeMeters>83.59999847412109375</AltitudeMeters>
            <DistanceMeters>NAN</DistanceMeters>
          </Trackpoint>
          <Trackpoint>
            <Time>2020-02-15T11:42:40.000Z</Time>
            <Position>
              <LatitudeDegrees>41.97181410156190395355224609375</LatitudeDegrees>
              <LongitudeDegrees>2.8365277312695980072021484375</LongitudeDegrees>
            </Position>
            <AltitudeMeters>83.40000152587890625</AltitudeMeters>
            <DistanceMeters>NAN</DistanceMeters>
          </Trackpoint>
          <Trackpoint>
            <Time>2020-02-15T11:42:41.000Z</Time>
            <Position>
              <LatitudeDegrees>41.9718649797141551971435546875</LatitudeDegrees>
              <LongitudeDegrees>2.8364841453731060028076171875</LongitudeDegrees>
            </Position>
            <AltitudeMeters>83.59999847412109375</AltitudeMeters>
            <DistanceMeters>NAN</DistanceMeters>
          </Trackpoint>
          <Trackpoint>
            <Time>2020-02-15T11:42:42.000Z</Time>
            <Position>
              <LatitudeDegrees>41.97191854007542133331298828125</LatitudeDegrees>
              <LongitudeDegrees>2.8364422358572483062744140625</LongitudeDegrees>
            </Position>
            <AltitudeMeters>83.40000152587890625</AltitudeMeters>
            <DistanceMeters>NAN</DistanceMeters>
          </Trackpoint>
          <Trackpoint>
            <Time>2020-02-15T11:42:47.000Z</Time>
            <Position>
              <LatitudeDegrees>41.97217586450278759002685546875</LatitudeDegrees>
              <LongitudeDegrees>2.8362152539193630218505859375</LongitudeDegrees>
            </Position>
            <AltitudeMeters>83.40000152587890625</AltitudeMeters>
            <DistanceMeters>NAN</DistanceMeters>
          </Trackpoint>
          <Trackpoint>
            <Time>2020-02-15T11:42:48.000Z</Time>
            <Position>
              <LatitudeDegrees>41.972222886979579925537109375</LatitudeDegrees>
              <LongitudeDegrees>2.83617225475609302520751953125</LongitudeDegrees>
            </Position>
            <AltitudeMeters>83.1999969482421875</AltitudeMeters>
            <DistanceMeters>NAN</DistanceMeters>
          </Trackpoint>
          <Trackpoint>
            <Time>2020-02-15T11:42:49.000Z</Time>
            <Position>
              <LatitudeDegrees>41.972270496189594268798828125</LatitudeDegrees>
              <LongitudeDegrees>2.836130596697330474853515625</LongitudeDegrees>
            </Position>
            <AltitudeMeters>83.1999969482421875</AltitudeMeters>
            <DistanceMeters>NAN</DistanceMeters>
          </Trackpoint>
          <Trackpoint>
            <Time>2020-02-15T11:42:50.000Z</Time>
            <Position>
              <LatitudeDegrees>41.97231642901897430419921875</LatitudeDegrees>
              <LongitudeDegrees>2.83608944155275821685791015625</LongitudeDegrees>
            </Position>
            <AltitudeMeters>83.40000152587890625</AltitudeMeters>
            <DistanceMeters>NAN</DistanceMeters>
          </Trackpoint>
          <Trackpoint>
            <Time>2020-02-15T11:42:51.000Z</Time>
            <Position>
              <LatitudeDegrees>41.97236110456287860870361328125</LatitudeDegrees>
              <LongitudeDegrees>2.8360489569604396820068359375</LongitudeDegrees>
            </Position>
            <AltitudeMeters>83.40000152587890625</AltitudeMeters>
            <DistanceMeters>NAN</DistanceMeters>
          </Trackpoint>
          <Trackpoint>
            <Time>2020-02-15T11:42:52.000Z</Time>
            <Position>
              <LatitudeDegrees>41.9724057801067829132080078125</LatitudeDegrees>
              <LongitudeDegrees>2.8360068798065185546875</LongitudeDegrees>
            </Position>
            <AltitudeMeters>83.40000152587890625</AltitudeMeters>
            <DistanceMeters>NAN</DistanceMeters>
          </Trackpoint>
          <Trackpoint>
            <Time>2020-02-15T11:42:53.000Z</Time>
            <Position>
              <LatitudeDegrees>41.9724530540406703948974609375</LatitudeDegrees>
              <LongitudeDegrees>2.83596488647162914276123046875</LongitudeDegrees>
            </Position>
            <AltitudeMeters>83.40000152587890625</AltitudeMeters>
            <DistanceMeters>NAN</DistanceMeters>
          </Trackpoint>
          <Trackpoint>
            <Time>2020-02-15T11:42:56.000Z</Time>
            <Position>
              <LatitudeDegrees>41.972595043480396270751953125</LatitudeDegrees>
              <LongitudeDegrees>2.83583060838282108306884765625</LongitudeDegrees>
            </Position>
            <AltitudeMeters>83.1999969482421875</AltitudeMeters>
            <DistanceMeters>NAN</DistanceMeters>
          </Trackpoint>
          <Trackpoint>
            <Time>2020-02-15T11:42:57.000Z</Time>
            <Position>
              <LatitudeDegrees>41.9726391322910785675048828125</LatitudeDegrees>
              <LongitudeDegrees>2.8357817418873310089111328125</LongitudeDegrees>
            </Position>
            <AltitudeMeters>83</AltitudeMeters>
            <DistanceMeters>NAN</DistanceMeters>
          </Trackpoint>
          <Trackpoint>
            <Time>2020-02-15T11:42:58.000Z</Time>
            <Position>
              <LatitudeDegrees>41.97268187999725341796875</LatitudeDegrees>
              <LongitudeDegrees>2.8357223980128765106201171875</LongitudeDegrees>
            </Position>
            <AltitudeMeters>83</AltitudeMeters>
            <DistanceMeters>NAN</DistanceMeters>
          </Trackpoint>
          <Trackpoint>
            <Time>2020-02-15T11:42:59.000Z</Time>
            <Position>
              <LatitudeDegrees>41.97272303514182567596435546875</LatitudeDegrees>
              <LongitudeDegrees>2.83565777353942394256591796875</LongitudeDegrees>
            </Position>
            <AltitudeMeters>83.1999969482421875</AltitudeMeters>
            <DistanceMeters>NAN</DistanceMeters>
          </Trackpoint>
          <Trackpoint>
            <Time>2020-02-15T11:43:00.000Z</Time>
            <Position>
              <LatitudeDegrees>41.97276025079190731048583984375</LatitudeDegrees>
              <LongitudeDegrees>2.8355896286666393280029296875</LongitudeDegrees>
            </Position>
            <AltitudeMeters>83</AltitudeMeters>
            <DistanceMeters>NAN</DistanceMeters>
          </Trackpoint>
          <Trackpoint>
            <Time>2020-02-15T11:43:01.000Z</Time>
            <Position>
              <LatitudeDegrees>41.97279461659491062164306640625</LatitudeDegrees>
              <LongitudeDegrees>2.8355165384709835052490234375</LongitudeDegrees>
            </Position>
            <AltitudeMeters>82.8000030517578125</AltitudeMeters>
            <DistanceMeters>NAN</DistanceMeters>
          </Trackpoint>
          <Trackpoint>
            <Time>2020-02-15T11:43:02.000Z</Time>
            <Position>
              <LatitudeDegrees>41.9728245399892330169677734375</LatitudeDegrees>
              <LongitudeDegrees>2.83544336445629596710205078125</LongitudeDegrees>
            </Position>
            <AltitudeMeters>83</AltitudeMeters>
            <DistanceMeters>NAN</DistanceMeters>
          </Trackpoint>
          <Trackpoint>
            <Time>2020-02-15T11:43:03.000Z</Time>
            <Position>
              <LatitudeDegrees>41.972851194441318511962890625</LatitudeDegrees>
              <LongitudeDegrees>2.835365831851959228515625</LongitudeDegrees>
            </Position>
            <AltitudeMeters>82.8000030517578125</AltitudeMeters>
            <DistanceMeters>NAN</DistanceMeters>
          </Trackpoint>
          <Trackpoint>
            <Time>2020-02-15T11:43:04.000Z</Time>
            <Position>
              <LatitudeDegrees>41.97287122718989849090576171875</LatitudeDegrees>
              <LongitudeDegrees>2.835286371409893035888671875</LongitudeDegrees>
            </Position>
            <AltitudeMeters>82.8000030517578125</AltitudeMeters>
            <DistanceMeters>NAN</DistanceMeters>
          </Trackpoint>
          <Trackpoint>
            <Time>2020-02-15T11:43:05.000Z</Time>
            <Position>
              <LatitudeDegrees>41.972883380949497222900390625</LatitudeDegrees>
              <LongitudeDegrees>2.83520950935781002044677734375</LongitudeDegrees>
            </Position>
            <AltitudeMeters>82.8000030517578125</AltitudeMeters>
            <DistanceMeters>NAN</DistanceMeters>
          </Trackpoint>
          <Trackpoint>
            <Time>2020-02-15T11:43:06.000Z</Time>
            <Position>
              <LatitudeDegrees>41.9728910923004150390625</LatitudeDegrees>
              <LongitudeDegrees>2.8351289592683315277099609375</LongitudeDegrees>
            </Position>
            <AltitudeMeters>82.8000030517578125</AltitudeMeters>
            <DistanceMeters>NAN</DistanceMeters>
          </Trackpoint>
          <Trackpoint>
            <Time>2020-02-15T11:43:07.000Z</Time>
            <Position>
              <LatitudeDegrees>41.97290173731744289398193359375</LatitudeDegrees>
              <LongitudeDegrees>2.8350437991321086883544921875</LongitudeDegrees>
            </Position>
            <AltitudeMeters>82.8000030517578125</AltitudeMeters>
            <DistanceMeters>NAN</DistanceMeters>
          </Trackpoint>
          <Trackpoint>
            <Time>2020-02-15T11:43:10.000Z</Time>
            <Position>
              <LatitudeDegrees>41.97294331155717372894287109375</LatitudeDegrees>
              <LongitudeDegrees>2.83478454686701297760009765625</LongitudeDegrees>
            </Position>
            <AltitudeMeters>82.59999847412109375</AltitudeMeters>
            <DistanceMeters>NAN</DistanceMeters>
          </Trackpoint>
          <Trackpoint>
            <Time>2020-02-15T11:43:11.000Z</Time>
            <Position>
              <LatitudeDegrees>41.97295588441193103790283203125</LatitudeDegrees>
              <LongitudeDegrees>2.834700979292392730712890625</LongitudeDegrees>
            </Position>
            <AltitudeMeters>82.40000152587890625</AltitudeMeters>
            <DistanceMeters>NAN</DistanceMeters>
          </Trackpoint>
          <Trackpoint>
            <Time>2020-02-15T11:43:12.000Z</Time>
            <Position>
              <LatitudeDegrees>41.97296644560992717742919921875</LatitudeDegrees>
              <LongitudeDegrees>2.83461757935583591461181640625</LongitudeDegrees>
            </Position>
            <AltitudeMeters>82.40000152587890625</AltitudeMeters>
            <DistanceMeters>NAN</DistanceMeters>
          </Trackpoint>
          <Trackpoint>
            <Time>2020-02-15T11:43:13.000Z</Time>
            <Position>
              <LatitudeDegrees>41.97297700680792331695556640625</LatitudeDegrees>
              <LongitudeDegrees>2.83453644253313541412353515625</LongitudeDegrees>
            </Position>
            <AltitudeMeters>82.1999969482421875</AltitudeMeters>
            <DistanceMeters>NAN</DistanceMeters>
          </Trackpoint>
          <Trackpoint>
            <Time>2020-02-15T11:43:14.000Z</Time>
            <Position>
              <LatitudeDegrees>41.97298639453947544097900390625</LatitudeDegrees>
              <LongitudeDegrees>2.83445681445300579071044921875</LongitudeDegrees>
            </Position>
            <AltitudeMeters>82.1999969482421875</AltitudeMeters>
            <DistanceMeters>NAN</DistanceMeters>
          </Trackpoint>
          <Trackpoint>
            <Time>2020-02-15T11:43:15.000Z</Time>
            <Position>
              <LatitudeDegrees>41.97299125604331493377685546875</LatitudeDegrees>
              <LongitudeDegrees>2.83437651582062244415283203125</LongitudeDegrees>
            </Position>
            <AltitudeMeters>82.1999969482421875</AltitudeMeters>
            <DistanceMeters>NAN</DistanceMeters>
          </Trackpoint>
          <Trackpoint>
            <Time>2020-02-15T11:43:16.000Z</Time>
            <Position>
              <LatitudeDegrees>41.972996704280376434326171875</LatitudeDegrees>
              <LongitudeDegrees>2.83429638482630252838134765625</LongitudeDegrees>
            </Position>
            <AltitudeMeters>82.1999969482421875</AltitudeMeters>
            <DistanceMeters>NAN</DistanceMeters>
          </Trackpoint>
          <Trackpoint>
            <Time>2020-02-15T11:43:17.000Z</Time>
            <Position>
              <LatitudeDegrees>41.9730062596499919891357421875</LatitudeDegrees>
              <LongitudeDegrees>2.83421608619391918182373046875</LongitudeDegrees>
            </Position>
            <AltitudeMeters>82.1999969482421875</AltitudeMeters>
            <DistanceMeters>NAN</DistanceMeters>
          </Trackpoint>
          <Trackpoint>
            <Time>2020-02-15T11:43:18.000Z</Time>
            <Position>
              <LatitudeDegrees>41.97302008979022502899169921875</LatitudeDegrees>
              <LongitudeDegrees>2.8341348655521869659423828125</LongitudeDegrees>
            </Position>
            <AltitudeMeters>82</AltitudeMeters>
            <DistanceMeters>NAN</DistanceMeters>
          </Trackpoint>
          <Trackpoint>
            <Time>2020-02-15T11:43:19.000Z</Time>
            <Position>
              <LatitudeDegrees>41.97302947752177715301513671875</LatitudeDegrees>
              <LongitudeDegrees>2.83405012451112270355224609375</LongitudeDegrees>
            </Position>
            <AltitudeMeters>82.1999969482421875</AltitudeMeters>
            <DistanceMeters>NAN</DistanceMeters>
          </Trackpoint>
          <Trackpoint>
            <Time>2020-02-15T11:43:20.000Z</Time>
            <Position>
              <LatitudeDegrees>41.973034925758838653564453125</LatitudeDegrees>
              <LongitudeDegrees>2.83396412618458271026611328125</LongitudeDegrees>
            </Position>
            <AltitudeMeters>82.1999969482421875</AltitudeMeters>
            <DistanceMeters>NAN</DistanceMeters>
          </Trackpoint>
          <Trackpoint>
            <Time>2020-02-15T11:43:22.000Z</Time>
            <Position>
              <LatitudeDegrees>41.973056383430957794189453125</LatitudeDegrees>
              <LongitudeDegrees>2.833807133138179779052734375</LongitudeDegrees>
            </Position>
            <AltitudeMeters>82.1999969482421875</AltitudeMeters>
            <DistanceMeters>NAN</DistanceMeters>
          </Trackpoint>
          <Trackpoint>
            <Time>2020-02-15T11:43:23.000Z</Time>
            <Position>
              <LatitudeDegrees>41.9730565510690212249755859375</LatitudeDegrees>
              <LongitudeDegrees>2.83372633159160614013671875</LongitudeDegrees>
            </Position>
            <AltitudeMeters>82.1999969482421875</AltitudeMeters>
            <DistanceMeters>NAN</DistanceMeters>
          </Trackpoint>
          <Trackpoint>
            <Time>2020-02-15T11:43:24.000Z</Time>
            <Position>
              <LatitudeDegrees>41.973060071468353271484375</LatitudeDegrees>
              <LongitudeDegrees>2.8336477093398571014404296875</LongitudeDegrees>
            </Position>
            <AltitudeMeters>82</AltitudeMeters>
            <DistanceMeters>NAN</DistanceMeters>
          </Trackpoint>
          <Trackpoint>
            <Time>2020-02-15T11:43:25.000Z</Time>
            <Position>
              <LatitudeDegrees>41.97306451387703418731689453125</LatitudeDegrees>
              <LongitudeDegrees>2.833565734326839447021484375</LongitudeDegrees>
            </Position>
            <AltitudeMeters>82</AltitudeMeters>
            <DistanceMeters>NAN</DistanceMeters>
          </Trackpoint>
          <Trackpoint>
            <Time>2020-02-15T11:43:28.000Z</Time>
            <Position>
              <LatitudeDegrees>41.97309468872845172882080078125</LatitudeDegrees>
              <LongitudeDegrees>2.8333080746233463287353515625</LongitudeDegrees>
            </Position>
            <AltitudeMeters>82</AltitudeMeters>
            <DistanceMeters>NAN</DistanceMeters>
          </Trackpoint>
          <Trackpoint>
            <Time>2020-02-15T11:43:29.000Z</Time>
            <Position>
              <LatitudeDegrees>41.973113715648651123046875</LatitudeDegrees>
              <LongitudeDegrees>2.833223752677440643310546875</LongitudeDegrees>
            </Position>
            <AltitudeMeters>82</AltitudeMeters>
            <DistanceMeters>NAN</DistanceMeters>
          </Trackpoint>
          <Trackpoint>
            <Time>2020-02-15T11:43:31.000Z</Time>
            <Position>
              <LatitudeDegrees>41.97315319441258907318115234375</LatitudeDegrees>
              <LongitudeDegrees>2.8330472297966480255126953125</LongitudeDegrees>
            </Position>
            <AltitudeMeters>82</AltitudeMeters>
            <DistanceMeters>NAN</DistanceMeters>
          </Trackpoint>
          <Trackpoint>
            <Time>2020-02-15T11:43:33.000Z</Time>
            <Position>
              <LatitudeDegrees>41.97321094572544097900390625</LatitudeDegrees>
              <LongitudeDegrees>2.83289057202637195587158203125</LongitudeDegrees>
            </Position>
            <AltitudeMeters>82</AltitudeMeters>
            <DistanceMeters>NAN</DistanceMeters>
          </Trackpoint>
          <Trackpoint>
            <Time>2020-02-15T11:43:34.000Z</Time>
            <Position>
              <LatitudeDegrees>41.97324455715715885162353515625</LatitudeDegrees>
              <LongitudeDegrees>2.83281731419265270233154296875</LongitudeDegrees>
            </Position>
            <AltitudeMeters>81.8000030517578125</AltitudeMeters>
            <DistanceMeters>NAN</DistanceMeters>
          </Trackpoint>
          <Trackpoint>
            <Time>2020-02-15T11:43:35.000Z</Time>
            <Position>
              <LatitudeDegrees>41.9732828624546527862548828125</LatitudeDegrees>
              <LongitudeDegrees>2.8327448107302188873291015625</LongitudeDegrees>
            </Position>
            <AltitudeMeters>82</AltitudeMeters>
            <DistanceMeters>NAN</DistanceMeters>
          </Trackpoint>
          <Trackpoint>
            <Time>2020-02-15T11:43:36.000Z</Time>
            <Position>
              <LatitudeDegrees>41.97331613861024379730224609375</LatitudeDegrees>
              <LongitudeDegrees>2.832672558724880218505859375</LongitudeDegrees>
            </Position>
            <AltitudeMeters>81.8000030517578125</AltitudeMeters>
            <DistanceMeters>NAN</DistanceMeters>
          </Trackpoint>
          <Trackpoint>
            <Time>2020-02-15T11:43:37.000Z</Time>
            <Position>
              <LatitudeDegrees>41.97334698401391506195068359375</LatitudeDegrees>
              <LongitudeDegrees>2.83260290510952472686767578125</LongitudeDegrees>
            </Position>
            <AltitudeMeters>82</AltitudeMeters>
            <DistanceMeters>NAN</DistanceMeters>
          </Trackpoint>
          <Trackpoint>
            <Time>2020-02-15T11:43:39.000Z</Time>
            <Position>
              <LatitudeDegrees>41.9734022207558155059814453125</LatitudeDegrees>
              <LongitudeDegrees>2.83246560953557491302490234375</LongitudeDegrees>
            </Position>
            <AltitudeMeters>82</AltitudeMeters>
            <DistanceMeters>NAN</DistanceMeters>
          </Trackpoint>
          <Trackpoint>
            <Time>2020-02-15T11:43:40.000Z</Time>
            <Position>
              <LatitudeDegrees>41.9734337367117404937744140625</LatitudeDegrees>
              <LongitudeDegrees>2.8323934413492679595947265625</LongitudeDegrees>
            </Position>
            <AltitudeMeters>82</AltitudeMeters>
            <DistanceMeters>NAN</DistanceMeters>
          </Trackpoint>
          <Trackpoint>
            <Time>2020-02-15T11:43:41.000Z</Time>
            <Position>
              <LatitudeDegrees>41.97346684522926807403564453125</LatitudeDegrees>
              <LongitudeDegrees>2.83233133144676685333251953125</LongitudeDegrees>
            </Position>
            <AltitudeMeters>81.8000030517578125</AltitudeMeters>
            <DistanceMeters>NAN</DistanceMeters>
          </Trackpoint>
          <Trackpoint>
            <Time>2020-02-15T11:43:42.000Z</Time>
            <Position>
              <LatitudeDegrees>41.973494254052639007568359375</LatitudeDegrees>
              <LongitudeDegrees>2.832268886268138885498046875</LongitudeDegrees>
            </Position>
            <AltitudeMeters>82</AltitudeMeters>
            <DistanceMeters>NAN</DistanceMeters>
          </Trackpoint>
          <Trackpoint>
            <Time>2020-02-15T11:43:43.000Z</Time>
            <Position>
              <LatitudeDegrees>41.9735279493033885955810546875</LatitudeDegrees>
              <LongitudeDegrees>2.832207195460796356201171875</LongitudeDegrees>
            </Position>
            <AltitudeMeters>81.8000030517578125</AltitudeMeters>
            <DistanceMeters>NAN</DistanceMeters>
          </Trackpoint>
          <Trackpoint>
            <Time>2020-02-15T11:43:44.000Z</Time>
            <Position>
              <LatitudeDegrees>41.9735567830502986907958984375</LatitudeDegrees>
              <LongitudeDegrees>2.8321423195302486419677734375</LongitudeDegrees>
            </Position>
            <AltitudeMeters>82</AltitudeMeters>
            <DistanceMeters>NAN</DistanceMeters>
          </Trackpoint>
          <Trackpoint>
            <Time>2020-02-15T11:43:45.000Z</Time>
            <Position>
              <LatitudeDegrees>41.973584778606891632080078125</LatitudeDegrees>
              <LongitudeDegrees>2.832077778875827789306640625</LongitudeDegrees>
            </Position>
            <AltitudeMeters>81.8000030517578125</AltitudeMeters>
            <DistanceMeters>NAN</DistanceMeters>
          </Trackpoint>
          <Trackpoint>
            <Time>2020-02-15T11:43:48.000Z</Time>
            <Position>
              <LatitudeDegrees>41.973678655922412872314453125</LatitudeDegrees>
              <LongitudeDegrees>2.83187552355229854583740234375</LongitudeDegrees>
            </Position>
            <AltitudeMeters>81.8000030517578125</AltitudeMeters>
            <DistanceMeters>NAN</DistanceMeters>
          </Trackpoint>
          <Trackpoint>
            <Time>2020-02-15T11:43:50.000Z</Time>
            <Position>
              <LatitudeDegrees>41.97374403476715087890625</LatitudeDegrees>
              <LongitudeDegrees>2.83173973672091960906982421875</LongitudeDegrees>
            </Position>
            <AltitudeMeters>82</AltitudeMeters>
            <DistanceMeters>NAN</DistanceMeters>
          </Trackpoint>
          <Trackpoint>
            <Time>2020-02-15T11:43:51.000Z</Time>
            <Position>
              <LatitudeDegrees>41.97377060540020465850830078125</LatitudeDegrees>
              <LongitudeDegrees>2.831673435866832733154296875</LongitudeDegrees>
            </Position>
            <AltitudeMeters>82</AltitudeMeters>
            <DistanceMeters>NAN</DistanceMeters>
          </Trackpoint>
          <Trackpoint>
            <Time>2020-02-15T11:43:52.000Z</Time>
            <Position>
              <LatitudeDegrees>41.9737936556339263916015625</LatitudeDegrees>
              <LongitudeDegrees>2.83160780556499958038330078125</LongitudeDegrees>
            </Position>
            <AltitudeMeters>82</AltitudeMeters>
            <DistanceMeters>NAN</DistanceMeters>
          </Trackpoint>
          <Trackpoint>
            <Time>2020-02-15T11:43:53.000Z</Time>
            <Position>
              <LatitudeDegrees>41.9738139398396015167236328125</LatitudeDegrees>
              <LongitudeDegrees>2.8315384872257709503173828125</LongitudeDegrees>
            </Position>
            <AltitudeMeters>82</AltitudeMeters>
            <DistanceMeters>NAN</DistanceMeters>
          </Trackpoint>
          <Trackpoint>
            <Time>2020-02-15T11:43:54.000Z</Time>
            <Position>
              <LatitudeDegrees>41.97383849881589412689208984375</LatitudeDegrees>
              <LongitudeDegrees>2.8314687497913837432861328125</LongitudeDegrees>
            </Position>
            <AltitudeMeters>82</AltitudeMeters>
            <DistanceMeters>NAN</DistanceMeters>
          </Trackpoint>
          <Trackpoint>
            <Time>2020-02-15T11:43:55.000Z</Time>
            <Position>
              <LatitudeDegrees>41.9738607108592987060546875</LatitudeDegrees>
              <LongitudeDegrees>2.8314010240137577056884765625</LongitudeDegrees>
            </Position>
            <AltitudeMeters>82</AltitudeMeters>
            <DistanceMeters>NAN</DistanceMeters>
          </Trackpoint>
          <Trackpoint>
            <Time>2020-02-15T11:43:56.000Z</Time>
            <Position>
              <LatitudeDegrees>41.97387638501822948455810546875</LatitudeDegrees>
              <LongitudeDegrees>2.83133539371192455291748046875</LongitudeDegrees>
            </Position>
            <AltitudeMeters>82</AltitudeMeters>
            <DistanceMeters>NAN</DistanceMeters>
          </Trackpoint>
          <Trackpoint>
            <Time>2020-02-15T11:43:58.000Z</Time>
            <Position>
              <LatitudeDegrees>41.9738947413861751556396484375</LatitudeDegrees>
              <LongitudeDegrees>2.83127236180007457733154296875</LongitudeDegrees>
            </Position>
            <AltitudeMeters>82</AltitudeMeters>
            <DistanceMeters>NAN</DistanceMeters>
          </Trackpoint>
          <Trackpoint>
            <Time>2020-02-15T11:43:59.000Z</Time>
            <Position>
              <LatitudeDegrees>41.97391410358250141143798828125</LatitudeDegrees>
              <LongitudeDegrees>2.8312075696885585784912109375</LongitudeDegrees>
            </Position>
            <AltitudeMeters>82</AltitudeMeters>
            <DistanceMeters>NAN</DistanceMeters>
          </Trackpoint>
          <Trackpoint>
            <Time>2020-02-15T11:44:01.000Z</Time>
            <Position>
              <LatitudeDegrees>41.97394612245261669158935546875</LatitudeDegrees>
              <LongitudeDegrees>2.8310810029506683349609375</LongitudeDegrees>
            </Position>
            <AltitudeMeters>82</AltitudeMeters>
            <DistanceMeters>NAN</DistanceMeters>
          </Trackpoint>
          <Trackpoint>
            <Time>2020-02-15T11:44:02.000Z</Time>
            <Position>
              <LatitudeDegrees>41.9739560969173908233642578125</LatitudeDegrees>
              <LongitudeDegrees>2.8310184739530086517333984375</LongitudeDegrees>
            </Position>
            <AltitudeMeters>82.1999969482421875</AltitudeMeters>
            <DistanceMeters>NAN</DistanceMeters>
          </Trackpoint>
          <Trackpoint>
            <Time>2020-02-15T11:44:03.000Z</Time>
            <Position>
              <LatitudeDegrees>41.973969005048274993896484375</LatitudeDegrees>
              <LongitudeDegrees>2.83095586113631725311279296875</LongitudeDegrees>
            </Position>
            <AltitudeMeters>82.1999969482421875</AltitudeMeters>
            <DistanceMeters>NAN</DistanceMeters>
          </Trackpoint>
          <Trackpoint>
            <Time>2020-02-15T11:44:04.000Z</Time>
            <Position>
              <LatitudeDegrees>41.97398208081722259521484375</LatitudeDegrees>
              <LongitudeDegrees>2.83089366741478443145751953125</LongitudeDegrees>
            </Position>
            <AltitudeMeters>82.1999969482421875</AltitudeMeters>
            <DistanceMeters>NAN</DistanceMeters>
          </Trackpoint>
          <Trackpoint>
            <Time>2020-02-15T11:44:05.000Z</Time>
            <Position>
              <LatitudeDegrees>41.973992474377155303955078125</LatitudeDegrees>
              <LongitudeDegrees>2.83082686364650726318359375</LongitudeDegrees>
            </Position>
            <AltitudeMeters>82.1999969482421875</AltitudeMeters>
            <DistanceMeters>NAN</DistanceMeters>
          </Trackpoint>
          <Trackpoint>
            <Time>2020-02-15T11:44:06.000Z</Time>
            <Position>
              <LatitudeDegrees>41.9740043766796588897705078125</LatitudeDegrees>
              <LongitudeDegrees>2.8307576291263103485107421875</LongitudeDegrees>
            </Position>
            <AltitudeMeters>82.1999969482421875</AltitudeMeters>
            <DistanceMeters>NAN</DistanceMeters>
          </Trackpoint>
          <Trackpoint>
            <Time>2020-02-15T11:44:09.000Z</Time>
            <Position>
              <LatitudeDegrees>41.97403631173074245452880859375</LatitudeDegrees>
              <LongitudeDegrees>2.830538190901279449462890625</LongitudeDegrees>
            </Position>
            <AltitudeMeters>82</AltitudeMeters>
            <DistanceMeters>NAN</DistanceMeters>
          </Trackpoint>
          <Trackpoint>
            <Time>2020-02-15T11:44:10.000Z</Time>
            <Position>
              <LatitudeDegrees>41.97404569946229457855224609375</LatitudeDegrees>
              <LongitudeDegrees>2.830469124019145965576171875</LongitudeDegrees>
            </Position>
            <AltitudeMeters>82.1999969482421875</AltitudeMeters>
            <DistanceMeters>NAN</DistanceMeters>
          </Trackpoint>
          <Trackpoint>
            <Time>2020-02-15T11:44:11.000Z</Time>
            <Position>
              <LatitudeDegrees>41.97405843995511531829833984375</LatitudeDegrees>
              <LongitudeDegrees>2.83040332607924938201904296875</LongitudeDegrees>
            </Position>
            <AltitudeMeters>82.1999969482421875</AltitudeMeters>
            <DistanceMeters>NAN</DistanceMeters>
          </Trackpoint>
          <Trackpoint>
            <Time>2020-02-15T11:44:12.000Z</Time>
            <Position>
              <LatitudeDegrees>41.9740674085915088653564453125</LatitudeDegrees>
              <LongitudeDegrees>2.8303412161767482757568359375</LongitudeDegrees>
            </Position>
            <AltitudeMeters>82</AltitudeMeters>
            <DistanceMeters>NAN</DistanceMeters>
          </Trackpoint>
          <Trackpoint>
            <Time>2020-02-15T11:44:13.000Z</Time>
            <Position>
              <LatitudeDegrees>41.97407553903758525848388671875</LatitudeDegrees>
              <LongitudeDegrees>2.83028095029294490814208984375</LongitudeDegrees>
            </Position>
            <AltitudeMeters>82</AltitudeMeters>
            <DistanceMeters>NAN</DistanceMeters>
          </Trackpoint>
          <Trackpoint>
            <Time>2020-02-15T11:44:14.000Z</Time>
            <Position>
              <LatitudeDegrees>41.9740855135023593902587890625</LatitudeDegrees>
              <LongitudeDegrees>2.830225713551044464111328125</LongitudeDegrees>
            </Position>
            <AltitudeMeters>82</AltitudeMeters>
            <DistanceMeters>NAN</DistanceMeters>
          </Trackpoint>
          <Trackpoint>
            <Time>2020-02-15T11:44:15.000Z</Time>
            <Position>
              <LatitudeDegrees>41.97409666143357753753662109375</LatitudeDegrees>
              <LongitudeDegrees>2.83017165027558803558349609375</LongitudeDegrees>
            </Position>
            <AltitudeMeters>82</AltitudeMeters>
            <DistanceMeters>NAN</DistanceMeters>
          </Trackpoint>
          <Trackpoint>
            <Time>2020-02-15T11:44:16.000Z</Time>
            <Position>
              <LatitudeDegrees>41.97410755790770053863525390625</LatitudeDegrees>
              <LongitudeDegrees>2.83011834137141704559326171875</LongitudeDegrees>
            </Position>
            <AltitudeMeters>82</AltitudeMeters>
            <DistanceMeters>NAN</DistanceMeters>
          </Trackpoint>
          <Trackpoint>
            <Time>2020-02-15T11:44:17.000Z</Time>
            <Position>
              <LatitudeDegrees>41.97411962784826755523681640625</LatitudeDegrees>
              <LongitudeDegrees>2.8300619311630725860595703125</LongitudeDegrees>
            </Position>
            <AltitudeMeters>82</AltitudeMeters>
            <DistanceMeters>NAN</DistanceMeters>
          </Trackpoint>
          <Trackpoint>
            <Time>2020-02-15T11:44:19.000Z</Time>
            <Position>
              <LatitudeDegrees>41.9741197116672992706298828125</LatitudeDegrees>
              <LongitudeDegrees>2.82994584180414676666259765625</LongitudeDegrees>
            </Position>
            <AltitudeMeters>82</AltitudeMeters>
            <DistanceMeters>NAN</DistanceMeters>
          </Trackpoint>
          <Trackpoint>
            <Time>2020-02-15T11:44:20.000Z</Time>
            <Position>
              <LatitudeDegrees>41.9740967452526092529296875</LatitudeDegrees>
              <LongitudeDegrees>2.829897813498973846435546875</LongitudeDegrees>
            </Position>
            <AltitudeMeters>81.8000030517578125</AltitudeMeters>
            <DistanceMeters>NAN</DistanceMeters>
          </Trackpoint>
          <Trackpoint>
            <Time>2020-02-15T11:44:21.000Z</Time>
            <Position>
              <LatitudeDegrees>41.97408442385494709014892578125</LatitudeDegrees>
              <LongitudeDegrees>2.8298792056739330291748046875</LongitudeDegrees>
            </Position>
            <AltitudeMeters>82</AltitudeMeters>
            <DistanceMeters>NAN</DistanceMeters>
          </Trackpoint>
          <Trackpoint>
            <Time>2020-02-15T11:44:22.000Z</Time>
            <Position>
              <LatitudeDegrees>41.97407738305628299713134765625</LatitudeDegrees>
              <LongitudeDegrees>2.829879038035869598388671875</LongitudeDegrees>
            </Position>
            <AltitudeMeters>82</AltitudeMeters>
            <DistanceMeters>NAN</DistanceMeters>
          </Trackpoint>
          <Trackpoint>
            <Time>2020-02-15T11:44:23.000Z</Time>
            <Position>
              <LatitudeDegrees>41.97407335974276065826416015625</LatitudeDegrees>
              <LongitudeDegrees>2.8298872523009777069091796875</LongitudeDegrees>
            </Position>
            <AltitudeMeters>81.8000030517578125</AltitudeMeters>
            <DistanceMeters>NAN</DistanceMeters>
          </Trackpoint>
          <Trackpoint>
            <Time>2020-02-15T11:44:25.000Z</Time>
            <Position>
              <LatitudeDegrees>41.97406983934342861175537109375</LatitudeDegrees>
              <LongitudeDegrees>2.82991223037242889404296875</LongitudeDegrees>
            </Position>
            <AltitudeMeters>81.8000030517578125</AltitudeMeters>
            <DistanceMeters>NAN</DistanceMeters>
          </Trackpoint>
          <Trackpoint>
            <Time>2020-02-15T11:44:26.000Z</Time>
            <Position>
              <LatitudeDegrees>41.97406145744025707244873046875</LatitudeDegrees>
              <LongitudeDegrees>2.82993092201650142669677734375</LongitudeDegrees>
            </Position>
            <AltitudeMeters>81.8000030517578125</AltitudeMeters>
            <DistanceMeters>NAN</DistanceMeters>
          </Trackpoint>
          <Trackpoint>
            <Time>2020-02-15T11:44:27.000Z</Time>
            <Position>
              <LatitudeDegrees>41.9740529917180538177490234375</LatitudeDegrees>
              <LongitudeDegrees>2.829942069947719573974609375</LongitudeDegrees>
            </Position>
            <AltitudeMeters>81.8000030517578125</AltitudeMeters>
            <DistanceMeters>NAN</DistanceMeters>
          </Trackpoint>
          <Trackpoint>
            <Time>2020-02-15T11:44:28.000Z</Time>
            <Position>
              <LatitudeDegrees>41.974044777452945709228515625</LatitudeDegrees>
              <LongitudeDegrees>2.8299553133547306060791015625</LongitudeDegrees>
            </Position>
            <AltitudeMeters>81.8000030517578125</AltitudeMeters>
            <DistanceMeters>NAN</DistanceMeters>
          </Trackpoint>
          <Trackpoint>
            <Time>2020-02-15T11:44:29.000Z</Time>
            <Position>
              <LatitudeDegrees>41.97403706610202789306640625</LatitudeDegrees>
              <LongitudeDegrees>2.8299663774669170379638671875</LongitudeDegrees>
            </Position>
            <AltitudeMeters>81.59999847412109375</AltitudeMeters>
            <DistanceMeters>NAN</DistanceMeters>
          </Trackpoint>
          <Trackpoint>
            <Time>2020-02-15T11:44:30.000Z</Time>
            <Position>
              <LatitudeDegrees>41.9740308634936809539794921875</LatitudeDegrees>
              <LongitudeDegrees>2.82997584901750087738037109375</LongitudeDegrees>
            </Position>
            <AltitudeMeters>81.59999847412109375</AltitudeMeters>
            <DistanceMeters>NAN</DistanceMeters>
          </Trackpoint>
          <Trackpoint>
            <Time>2020-02-15T11:44:31.000Z</Time>
            <Position>
              <LatitudeDegrees>41.9740270078182220458984375</LatitudeDegrees>
              <LongitudeDegrees>2.8299804590642452239990234375</LongitudeDegrees>
            </Position>
            <AltitudeMeters>81.59999847412109375</AltitudeMeters>
            <DistanceMeters>NAN</DistanceMeters>
          </Trackpoint>
          <Trackpoint>
            <Time>2020-02-15T11:44:32.000Z</Time>
            <Position>
              <LatitudeDegrees>41.974027343094348907470703125</LatitudeDegrees>
              <LongitudeDegrees>2.82997886650264263153076171875</LongitudeDegrees>
            </Position>
            <AltitudeMeters>81.59999847412109375</AltitudeMeters>
            <DistanceMeters>NAN</DistanceMeters>
          </Trackpoint>
          <Trackpoint>
            <Time>2020-02-15T11:44:43.000Z</Time>
            <Position>
              <LatitudeDegrees>41.9740053825080394744873046875</LatitudeDegrees>
              <LongitudeDegrees>2.82994148321449756622314453125</LongitudeDegrees>
            </Position>
            <AltitudeMeters>80</AltitudeMeters>
            <DistanceMeters>NAN</DistanceMeters>
          </Trackpoint>
          <Trackpoint>
            <Time>2020-02-15T11:44:59.000Z</Time>
            <Position>
              <LatitudeDegrees>41.9739832542836666107177734375</LatitudeDegrees>
              <LongitudeDegrees>2.8299251385033130645751953125</LongitudeDegrees>
            </Position>
            <AltitudeMeters>79.59999847412109375</AltitudeMeters>
            <DistanceMeters>NAN</DistanceMeters>
          </Trackpoint>
          <Trackpoint>
            <Time>2020-02-15T11:45:02.000Z</Time>
            <Position>
              <LatitudeDegrees>41.97396942414343357086181640625</LatitudeDegrees>
              <LongitudeDegrees>2.82991348765790462493896484375</LongitudeDegrees>
            </Position>
            <AltitudeMeters>79.59999847412109375</AltitudeMeters>
            <DistanceMeters>NAN</DistanceMeters>
          </Trackpoint>
          <Trackpoint>
            <Time>2020-02-15T11:45:10.000Z</Time>
            <Position>
              <LatitudeDegrees>41.9739557616412639617919921875</LatitudeDegrees>
              <LongitudeDegrees>2.829887755215167999267578125</LongitudeDegrees>
            </Position>
            <AltitudeMeters>79</AltitudeMeters>
            <DistanceMeters>NAN</DistanceMeters>
          </Trackpoint>
          <Trackpoint>
            <Time>2020-02-15T11:45:11.000Z</Time>
            <Position>
              <LatitudeDegrees>41.97395618073642253875732421875</LatitudeDegrees>
              <LongitudeDegrees>2.82988415099680423736572265625</LongitudeDegrees>
            </Position>
            <AltitudeMeters>78.59999847412109375</AltitudeMeters>
            <DistanceMeters>NAN</DistanceMeters>
          </Trackpoint>
          <Trackpoint>
            <Time>2020-02-15T11:45:13.000Z</Time>
            <Position>
              <LatitudeDegrees>41.9739545881748199462890625</LatitudeDegrees>
              <LongitudeDegrees>2.8298714943230152130126953125</LongitudeDegrees>
            </Position>
            <AltitudeMeters>78</AltitudeMeters>
            <DistanceMeters>NAN</DistanceMeters>
          </Trackpoint>
          <Trackpoint>
            <Time>2020-02-15T11:45:15.000Z</Time>
            <Position>
              <LatitudeDegrees>41.9739527441561222076416015625</LatitudeDegrees>
              <LongitudeDegrees>2.82986386679112911224365234375</LongitudeDegrees>
            </Position>
            <AltitudeMeters>78</AltitudeMeters>
            <DistanceMeters>NAN</DistanceMeters>
          </Trackpoint>
          <Trackpoint>
            <Time>2020-02-15T11:45:16.000Z</Time>
            <Position>
              <LatitudeDegrees>41.97395064868032932281494140625</LatitudeDegrees>
              <LongitudeDegrees>2.8298587538301944732666015625</LongitudeDegrees>
            </Position>
            <AltitudeMeters>77.8000030517578125</AltitudeMeters>
            <DistanceMeters>NAN</DistanceMeters>
          </Trackpoint>
          <Trackpoint>
            <Time>2020-02-15T11:45:18.000Z</Time>
            <Position>
              <LatitudeDegrees>41.9739463739097118377685546875</LatitudeDegrees>
              <LongitudeDegrees>2.8298510424792766571044921875</LongitudeDegrees>
            </Position>
            <AltitudeMeters>77.8000030517578125</AltitudeMeters>
            <DistanceMeters>NAN</DistanceMeters>
          </Trackpoint>
          <Trackpoint>
            <Time>2020-02-15T11:45:19.000Z</Time>
            <Position>
              <LatitudeDegrees>41.97394327260553836822509765625</LatitudeDegrees>
              <LongitudeDegrees>2.82985213212668895721435546875</LongitudeDegrees>
            </Position>
            <AltitudeMeters>77.8000030517578125</AltitudeMeters>
            <DistanceMeters>NAN</DistanceMeters>
          </Trackpoint>
          <Trackpoint>
            <Time>2020-02-15T11:45:21.000Z</Time>
            <Position>
              <LatitudeDegrees>41.97393673472106456756591796875</LatitudeDegrees>
              <LongitudeDegrees>2.8298336081206798553466796875</LongitudeDegrees>
            </Position>
            <AltitudeMeters>77.8000030517578125</AltitudeMeters>
            <DistanceMeters>NAN</DistanceMeters>
          </Trackpoint>
          <Trackpoint>
            <Time>2020-02-15T11:45:22.000Z</Time>
            <Position>
              <LatitudeDegrees>41.97393002919852733612060546875</LatitudeDegrees>
              <LongitudeDegrees>2.82981005497276782989501953125</LongitudeDegrees>
            </Position>
            <AltitudeMeters>77.59999847412109375</AltitudeMeters>
            <DistanceMeters>NAN</DistanceMeters>
          </Trackpoint>
          <Trackpoint>
            <Time>2020-02-15T11:45:24.000Z</Time>
            <Position>
              <LatitudeDegrees>41.9739205576479434967041015625</LatitudeDegrees>
              <LongitudeDegrees>2.82974534668028354644775390625</LongitudeDegrees>
            </Position>
            <AltitudeMeters>77.59999847412109375</AltitudeMeters>
            <DistanceMeters>NAN</DistanceMeters>
          </Trackpoint>
          <Trackpoint>
            <Time>2020-02-15T11:45:26.000Z</Time>
            <Position>
              <LatitudeDegrees>41.9739141874015331268310546875</LatitudeDegrees>
              <LongitudeDegrees>2.8296606056392192840576171875</LongitudeDegrees>
            </Position>
            <AltitudeMeters>77.59999847412109375</AltitudeMeters>
            <DistanceMeters>NAN</DistanceMeters>
          </Trackpoint>
          <Trackpoint>
            <Time>2020-02-15T11:45:29.000Z</Time>
            <Position>
              <LatitudeDegrees>41.97391309775412082672119140625</LatitudeDegrees>
              <LongitudeDegrees>2.82949984073638916015625</LongitudeDegrees>
            </Position>
            <AltitudeMeters>77.59999847412109375</AltitudeMeters>
            <DistanceMeters>NAN</DistanceMeters>
          </Trackpoint>
          <Trackpoint>
            <Time>2020-02-15T11:45:30.000Z</Time>
            <Position>
              <LatitudeDegrees>41.9739104993641376495361328125</LatitudeDegrees>
              <LongitudeDegrees>2.82944460399448871612548828125</LongitudeDegrees>
            </Position>
            <AltitudeMeters>77.59999847412109375</AltitudeMeters>
            <DistanceMeters>NAN</DistanceMeters>
          </Trackpoint>
          <Trackpoint>
            <Time>2020-02-15T11:45:31.000Z</Time>
            <Position>
              <LatitudeDegrees>41.9739094935357570648193359375</LatitudeDegrees>
              <LongitudeDegrees>2.829395569860935211181640625</LongitudeDegrees>
            </Position>
            <AltitudeMeters>77.8000030517578125</AltitudeMeters>
            <DistanceMeters>NAN</DistanceMeters>
          </Trackpoint>
          <Trackpoint>
            <Time>2020-02-15T11:45:32.000Z</Time>
            <Position>
              <LatitudeDegrees>41.97391175664961338043212890625</LatitudeDegrees>
              <LongitudeDegrees>2.82934452407062053680419921875</LongitudeDegrees>
            </Position>
            <AltitudeMeters>77.8000030517578125</AltitudeMeters>
            <DistanceMeters>NAN</DistanceMeters>
          </Trackpoint>
          <Trackpoint>
            <Time>2020-02-15T11:45:33.000Z</Time>
            <Position>
              <LatitudeDegrees>41.97391024790704250335693359375</LatitudeDegrees>
              <LongitudeDegrees>2.82929557375609874725341796875</LongitudeDegrees>
            </Position>
            <AltitudeMeters>77.8000030517578125</AltitudeMeters>
            <DistanceMeters>NAN</DistanceMeters>
          </Trackpoint>
          <Trackpoint>
            <Time>2020-02-15T11:45:37.000Z</Time>
            <Position>
              <LatitudeDegrees>41.9739014469087123870849609375</LatitudeDegrees>
              <LongitudeDegrees>2.82907404005527496337890625</LongitudeDegrees>
            </Position>
            <AltitudeMeters>77.8000030517578125</AltitudeMeters>
            <DistanceMeters>NAN</DistanceMeters>
          </Trackpoint>
          <Trackpoint>
            <Time>2020-02-15T11:45:38.000Z</Time>
            <Position>
              <LatitudeDegrees>41.97389650158584117889404296875</LatitudeDegrees>
              <LongitudeDegrees>2.82902802340686321258544921875</LongitudeDegrees>
            </Position>
            <AltitudeMeters>77.8000030517578125</AltitudeMeters>
            <DistanceMeters>NAN</DistanceMeters>
          </Trackpoint>
          <Trackpoint>
            <Time>2020-02-15T11:45:39.000Z</Time>
            <Position>
              <LatitudeDegrees>41.97389625012874603271484375</LatitudeDegrees>
              <LongitudeDegrees>2.82898862846195697784423828125</LongitudeDegrees>
            </Position>
            <AltitudeMeters>77.8000030517578125</AltitudeMeters>
            <DistanceMeters>NAN</DistanceMeters>
          </Trackpoint>
          <Trackpoint>
            <Time>2020-02-15T11:45:40.000Z</Time>
            <Position>
              <LatitudeDegrees>41.97390153072774410247802734375</LatitudeDegrees>
              <LongitudeDegrees>2.82895074225962162017822265625</LongitudeDegrees>
            </Position>
            <AltitudeMeters>77.8000030517578125</AltitudeMeters>
            <DistanceMeters>NAN</DistanceMeters>
          </Trackpoint>
          <Trackpoint>
            <Time>2020-02-15T11:45:41.000Z</Time>
            <Position>
              <LatitudeDegrees>41.9738957472145557403564453125</LatitudeDegrees>
              <LongitudeDegrees>2.8289240039885044097900390625</LongitudeDegrees>
            </Position>
            <AltitudeMeters>77.8000030517578125</AltitudeMeters>
            <DistanceMeters>NAN</DistanceMeters>
          </Trackpoint>
          <Trackpoint>
            <Time>2020-02-15T11:45:42.000Z</Time>
            <Position>
              <LatitudeDegrees>41.973891891539096832275390625</LatitudeDegrees>
              <LongitudeDegrees>2.82891671173274517059326171875</LongitudeDegrees>
            </Position>
            <AltitudeMeters>77.8000030517578125</AltitudeMeters>
            <DistanceMeters>NAN</DistanceMeters>
          </Trackpoint>
          <Trackpoint>
            <Time>2020-02-15T11:45:43.000Z</Time>
            <Position>
              <LatitudeDegrees>41.973899267613887786865234375</LatitudeDegrees>
              <LongitudeDegrees>2.8289250098168849945068359375</LongitudeDegrees>
            </Position>
            <AltitudeMeters>77.8000030517578125</AltitudeMeters>
            <DistanceMeters>NAN</DistanceMeters>
          </Trackpoint>
          <Trackpoint>
            <Time>2020-02-15T11:45:44.000Z</Time>
            <Position>
              <LatitudeDegrees>41.97389985434710979461669921875</LatitudeDegrees>
              <LongitudeDegrees>2.82893666066229343414306640625</LongitudeDegrees>
            </Position>
            <AltitudeMeters>77.8000030517578125</AltitudeMeters>
            <DistanceMeters>NAN</DistanceMeters>
          </Trackpoint>
          <Trackpoint>
            <Time>2020-02-15T11:45:45.000Z</Time>
            <Position>
              <LatitudeDegrees>41.97389616630971431732177734375</LatitudeDegrees>
              <LongitudeDegrees>2.8289578668773174285888671875</LongitudeDegrees>
            </Position>
            <AltitudeMeters>77.8000030517578125</AltitudeMeters>
            <DistanceMeters>NAN</DistanceMeters>
          </Trackpoint>
          <Trackpoint>
            <Time>2020-02-15T11:45:46.000Z</Time>
            <Position>
              <LatitudeDegrees>41.9738875329494476318359375</LatitudeDegrees>
              <LongitudeDegrees>2.8289793245494365692138671875</LongitudeDegrees>
            </Position>
            <AltitudeMeters>78</AltitudeMeters>
            <DistanceMeters>NAN</DistanceMeters>
          </Trackpoint>
          <Trackpoint>
            <Time>2020-02-15T11:45:47.000Z</Time>
            <Position>
              <LatitudeDegrees>41.973880827426910400390625</LatitudeDegrees>
              <LongitudeDegrees>2.82900673337280750274658203125</LongitudeDegrees>
            </Position>
            <AltitudeMeters>77.8000030517578125</AltitudeMeters>
            <DistanceMeters>NAN</DistanceMeters>
          </Trackpoint>
          <Trackpoint>
            <Time>2020-02-15T11:45:48.000Z</Time>
            <Position>
              <LatitudeDegrees>41.97387973777949810028076171875</LatitudeDegrees>
              <LongitudeDegrees>2.82903288491070270538330078125</LongitudeDegrees>
            </Position>
            <AltitudeMeters>77.8000030517578125</AltitudeMeters>
            <DistanceMeters>NAN</DistanceMeters>
          </Trackpoint>
          <Trackpoint>
            <Time>2020-02-15T11:45:49.000Z</Time>
            <Position>
              <LatitudeDegrees>41.97387521155178546905517578125</LatitudeDegrees>
              <LongitudeDegrees>2.82906004227697849273681640625</LongitudeDegrees>
            </Position>
            <AltitudeMeters>77.8000030517578125</AltitudeMeters>
            <DistanceMeters>NAN</DistanceMeters>
          </Trackpoint>
          <Trackpoint>
            <Time>2020-02-15T11:45:50.000Z</Time>
            <Position>
              <LatitudeDegrees>41.97386967949569225311279296875</LatitudeDegrees>
              <LongitudeDegrees>2.829085104167461395263671875</LongitudeDegrees>
            </Position>
            <AltitudeMeters>77.59999847412109375</AltitudeMeters>
            <DistanceMeters>NAN</DistanceMeters>
          </Trackpoint>
          <Trackpoint>
            <Time>2020-02-15T11:45:53.000Z</Time>
            <Position>
              <LatitudeDegrees>41.9738504849374294281005859375</LatitudeDegrees>
              <LongitudeDegrees>2.8291607089340686798095703125</LongitudeDegrees>
            </Position>
            <AltitudeMeters>76.59999847412109375</AltitudeMeters>
            <DistanceMeters>NAN</DistanceMeters>
          </Trackpoint>
          <Trackpoint>
            <Time>2020-02-15T11:45:55.000Z</Time>
            <Position>
              <LatitudeDegrees>41.9738340564072132110595703125</LatitudeDegrees>
              <LongitudeDegrees>2.82920471392571926116943359375</LongitudeDegrees>
            </Position>
            <AltitudeMeters>76.1999969482421875</AltitudeMeters>
            <DistanceMeters>NAN</DistanceMeters>
          </Trackpoint>
          <Trackpoint>
            <Time>2020-02-15T11:45:56.000Z</Time>
            <Position>
              <LatitudeDegrees>41.973815448582172393798828125</LatitudeDegrees>
              <LongitudeDegrees>2.82920789904892444610595703125</LongitudeDegrees>
            </Position>
            <AltitudeMeters>76.1999969482421875</AltitudeMeters>
            <DistanceMeters>NAN</DistanceMeters>
          </Trackpoint>
          <Trackpoint>
            <Time>2020-02-15T11:45:57.000Z</Time>
            <Position>
              <LatitudeDegrees>41.97380010969936847686767578125</LatitudeDegrees>
              <LongitudeDegrees>2.82920806668698787689208984375</LongitudeDegrees>
            </Position>
            <AltitudeMeters>76.1999969482421875</AltitudeMeters>
            <DistanceMeters>NAN</DistanceMeters>
          </Trackpoint>
          <Trackpoint>
            <Time>2020-02-15T11:45:58.000Z</Time>
            <Position>
              <LatitudeDegrees>41.97379239834845066070556640625</LatitudeDegrees>
              <LongitudeDegrees>2.829209156334400177001953125</LongitudeDegrees>
            </Position>
            <AltitudeMeters>76.1999969482421875</AltitudeMeters>
            <DistanceMeters>NAN</DistanceMeters>
          </Trackpoint>
          <Trackpoint>
            <Time>2020-02-15T11:46:00.000Z</Time>
            <Position>
              <LatitudeDegrees>41.97378234006464481353759765625</LatitudeDegrees>
              <LongitudeDegrees>2.8292009420692920684814453125</LongitudeDegrees>
            </Position>
            <AltitudeMeters>76</AltitudeMeters>
            <DistanceMeters>NAN</DistanceMeters>
          </Trackpoint>
          <Trackpoint>
            <Time>2020-02-15T11:46:01.000Z</Time>
            <Position>
              <LatitudeDegrees>41.9737747125327587127685546875</LatitudeDegrees>
              <LongitudeDegrees>2.82919482327997684478759765625</LongitudeDegrees>
            </Position>
            <AltitudeMeters>76.1999969482421875</AltitudeMeters>
            <DistanceMeters>NAN</DistanceMeters>
          </Trackpoint>
          <Trackpoint>
            <Time>2020-02-15T11:46:02.000Z</Time>
            <Position>
              <LatitudeDegrees>41.97376473806798458099365234375</LatitudeDegrees>
              <LongitudeDegrees>2.82919985242187976837158203125</LongitudeDegrees>
            </Position>
            <AltitudeMeters>76</AltitudeMeters>
            <DistanceMeters>NAN</DistanceMeters>
          </Trackpoint>
          <Trackpoint>
            <Time>2020-02-15T11:46:03.000Z</Time>
            <Position>
              <LatitudeDegrees>41.973757781088352203369140625</LatitudeDegrees>
              <LongitudeDegrees>2.829212509095668792724609375</LongitudeDegrees>
            </Position>
            <AltitudeMeters>75.8000030517578125</AltitudeMeters>
            <DistanceMeters>NAN</DistanceMeters>
          </Trackpoint>
          <Trackpoint>
            <Time>2020-02-15T11:46:04.000Z</Time>
            <Position>
              <LatitudeDegrees>41.9737495668232440948486328125</LatitudeDegrees>
              <LongitudeDegrees>2.8292302787303924560546875</LongitudeDegrees>
            </Position>
            <AltitudeMeters>75.8000030517578125</AltitudeMeters>
            <DistanceMeters>NAN</DistanceMeters>
          </Trackpoint>
          <Trackpoint>
            <Time>2020-02-15T11:46:05.000Z</Time>
            <Position>
              <LatitudeDegrees>41.9737401790916919708251953125</LatitudeDegrees>
              <LongitudeDegrees>2.82925802282989025115966796875</LongitudeDegrees>
            </Position>
            <AltitudeMeters>76</AltitudeMeters>
            <DistanceMeters>NAN</DistanceMeters>
          </Trackpoint>
          <Trackpoint>
            <Time>2020-02-15T11:46:06.000Z</Time>
            <Position>
              <LatitudeDegrees>41.973734311759471893310546875</LatitudeDegrees>
              <LongitudeDegrees>2.8292871080338954925537109375</LongitudeDegrees>
            </Position>
            <AltitudeMeters>76</AltitudeMeters>
            <DistanceMeters>NAN</DistanceMeters>
          </Trackpoint>
          <Trackpoint>
            <Time>2020-02-15T11:46:07.000Z</Time>
            <Position>
              <LatitudeDegrees>41.97372861206531524658203125</LatitudeDegrees>
              <LongitudeDegrees>2.8293187916278839111328125</LongitudeDegrees>
            </Position>
            <AltitudeMeters>76</AltitudeMeters>
            <DistanceMeters>NAN</DistanceMeters>
          </Trackpoint>
          <Trackpoint>
            <Time>2020-02-15T11:46:08.000Z</Time>
            <Position>
              <LatitudeDegrees>41.97372500784695148468017578125</LatitudeDegrees>
              <LongitudeDegrees>2.8293518163263797760009765625</LongitudeDegrees>
            </Position>
            <AltitudeMeters>76</AltitudeMeters>
            <DistanceMeters>NAN</DistanceMeters>
          </Trackpoint>
          <Trackpoint>
            <Time>2020-02-15T11:46:09.000Z</Time>
            <Position>
              <LatitudeDegrees>41.97372953407466411590576171875</LatitudeDegrees>
              <LongitudeDegrees>2.82938576303422451019287109375</LongitudeDegrees>
            </Position>
            <AltitudeMeters>76</AltitudeMeters>
            <DistanceMeters>NAN</DistanceMeters>
          </Trackpoint>
          <Trackpoint>
            <Time>2020-02-15T11:46:10.000Z</Time>
            <Position>
              <LatitudeDegrees>41.97372995316982269287109375</LatitudeDegrees>
              <LongitudeDegrees>2.8294193744659423828125</LongitudeDegrees>
            </Position>
            <AltitudeMeters>76.1999969482421875</AltitudeMeters>
            <DistanceMeters>NAN</DistanceMeters>
          </Trackpoint>
          <Trackpoint>
            <Time>2020-02-15T11:46:11.000Z</Time>
            <Position>
              <LatitudeDegrees>41.97373338975012302398681640625</LatitudeDegrees>
              <LongitudeDegrees>2.82945583574473857879638671875</LongitudeDegrees>
            </Position>
            <AltitudeMeters>76.1999969482421875</AltitudeMeters>
            <DistanceMeters>NAN</DistanceMeters>
          </Trackpoint>
          <Trackpoint>
            <Time>2020-02-15T11:46:12.000Z</Time>
            <Position>
              <LatitudeDegrees>41.9737338088452816009521484375</LatitudeDegrees>
              <LongitudeDegrees>2.829486429691314697265625</LongitudeDegrees>
            </Position>
            <AltitudeMeters>76.40000152587890625</AltitudeMeters>
            <DistanceMeters>NAN</DistanceMeters>
          </Trackpoint>
          <Trackpoint>
            <Time>2020-02-15T11:46:13.000Z</Time>
            <Position>
              <LatitudeDegrees>41.973737664520740509033203125</LatitudeDegrees>
              <LongitudeDegrees>2.8295147605240345001220703125</LongitudeDegrees>
            </Position>
            <AltitudeMeters>76.59999847412109375</AltitudeMeters>
            <DistanceMeters>NAN</DistanceMeters>
          </Trackpoint>
          <Trackpoint>
            <Time>2020-02-15T11:46:14.000Z</Time>
            <Position>
              <LatitudeDegrees>41.97373908944427967071533203125</LatitudeDegrees>
              <LongitudeDegrees>2.82953806221485137939453125</LongitudeDegrees>
            </Position>
            <AltitudeMeters>76.8000030517578125</AltitudeMeters>
            <DistanceMeters>NAN</DistanceMeters>
          </Trackpoint>
          <Trackpoint>
            <Time>2020-02-15T11:46:15.000Z</Time>
            <Position>
              <LatitudeDegrees>41.97373925708234310150146484375</LatitudeDegrees>
              <LongitudeDegrees>2.829562537372112274169921875</LongitudeDegrees>
            </Position>
            <AltitudeMeters>76.8000030517578125</AltitudeMeters>
            <DistanceMeters>NAN</DistanceMeters>
          </Trackpoint>
          <Trackpoint>
            <Time>2020-02-15T11:46:16.000Z</Time>
            <Position>
              <LatitudeDegrees>41.97374068200588226318359375</LatitudeDegrees>
              <LongitudeDegrees>2.8295841626822948455810546875</LongitudeDegrees>
            </Position>
            <AltitudeMeters>77</AltitudeMeters>
            <DistanceMeters>NAN</DistanceMeters>
          </Trackpoint>
          <Trackpoint>
            <Time>2020-02-15T11:46:17.000Z</Time>
            <Position>
              <LatitudeDegrees>41.973742358386516571044921875</LatitudeDegrees>
              <LongitudeDegrees>2.82960905693471431732177734375</LongitudeDegrees>
            </Position>
            <AltitudeMeters>77.40000152587890625</AltitudeMeters>
            <DistanceMeters>NAN</DistanceMeters>
          </Trackpoint>
          <Trackpoint>
            <Time>2020-02-15T11:46:19.000Z</Time>
            <Position>
              <LatitudeDegrees>41.9737602956593036651611328125</LatitudeDegrees>
              <LongitudeDegrees>2.829666472971439361572265625</LongitudeDegrees>
            </Position>
            <AltitudeMeters>77.40000152587890625</AltitudeMeters>
            <DistanceMeters>NAN</DistanceMeters>
          </Trackpoint>
          <Trackpoint>
            <Time>2020-02-15T11:46:20.000Z</Time>
            <Position>
              <LatitudeDegrees>41.973768174648284912109375</LatitudeDegrees>
              <LongitudeDegrees>2.8296961449086666107177734375</LongitudeDegrees>
            </Position>
            <AltitudeMeters>77.40000152587890625</AltitudeMeters>
            <DistanceMeters>NAN</DistanceMeters>
          </Trackpoint>
          <Trackpoint>
            <Time>2020-02-15T11:46:21.000Z</Time>
            <Position>
              <LatitudeDegrees>41.9737733714282512664794921875</LatitudeDegrees>
              <LongitudeDegrees>2.82972992397844791412353515625</LongitudeDegrees>
            </Position>
            <AltitudeMeters>77.40000152587890625</AltitudeMeters>
            <DistanceMeters>NAN</DistanceMeters>
          </Trackpoint>
          <Trackpoint>
            <Time>2020-02-15T11:46:23.000Z</Time>
            <Position>
              <LatitudeDegrees>41.973777897655963897705078125</LatitudeDegrees>
              <LongitudeDegrees>2.82979664392769336700439453125</LongitudeDegrees>
            </Position>
            <AltitudeMeters>77.40000152587890625</AltitudeMeters>
            <DistanceMeters>NAN</DistanceMeters>
          </Trackpoint>
          <Trackpoint>
            <Time>2020-02-15T11:46:24.000Z</Time>
            <Position>
              <LatitudeDegrees>41.9737804122269153594970703125</LatitudeDegrees>
              <LongitudeDegrees>2.8298312611877918243408203125</LongitudeDegrees>
            </Position>
            <AltitudeMeters>77.59999847412109375</AltitudeMeters>
            <DistanceMeters>NAN</DistanceMeters>
          </Trackpoint>
          <Trackpoint>
            <Time>2020-02-15T11:46:26.000Z</Time>
            <Position>
              <LatitudeDegrees>41.97377630509436130523681640625</LatitudeDegrees>
              <LongitudeDegrees>2.82990342937409877777099609375</LongitudeDegrees>
            </Position>
            <AltitudeMeters>77.59999847412109375</AltitudeMeters>
            <DistanceMeters>NAN</DistanceMeters>
          </Trackpoint>
          <Trackpoint>
            <Time>2020-02-15T11:46:27.000Z</Time>
            <Position>
              <LatitudeDegrees>41.97377546690404415130615234375</LatitudeDegrees>
              <LongitudeDegrees>2.82993745990097522735595703125</LongitudeDegrees>
            </Position>
            <AltitudeMeters>77.59999847412109375</AltitudeMeters>
            <DistanceMeters>NAN</DistanceMeters>
          </Trackpoint>
          <Trackpoint>
            <Time>2020-02-15T11:46:28.000Z</Time>
            <Position>
              <LatitudeDegrees>41.97377077303826808929443359375</LatitudeDegrees>
              <LongitudeDegrees>2.8299704007804393768310546875</LongitudeDegrees>
            </Position>
            <AltitudeMeters>77.59999847412109375</AltitudeMeters>
            <DistanceMeters>NAN</DistanceMeters>
          </Trackpoint>
          <Trackpoint>
            <Time>2020-02-15T11:46:29.000Z</Time>
            <Position>
              <LatitudeDegrees>41.97376708500087261199951171875</LatitudeDegrees>
              <LongitudeDegrees>2.83000652678310871124267578125</LongitudeDegrees>
            </Position>
            <AltitudeMeters>77.8000030517578125</AltitudeMeters>
            <DistanceMeters>NAN</DistanceMeters>
          </Trackpoint>
          <Trackpoint>
            <Time>2020-02-15T11:46:30.000Z</Time>
            <Position>
              <LatitudeDegrees>41.9737616367638111114501953125</LatitudeDegrees>
              <LongitudeDegrees>2.83004340715706348419189453125</LongitudeDegrees>
            </Position>
            <AltitudeMeters>77.8000030517578125</AltitudeMeters>
            <DistanceMeters>NAN</DistanceMeters>
          </Trackpoint>
          <Trackpoint>
            <Time>2020-02-15T11:46:31.000Z</Time>
            <Position>
              <LatitudeDegrees>41.97375719435513019561767578125</LatitudeDegrees>
              <LongitudeDegrees>2.83007777296006679534912109375</LongitudeDegrees>
            </Position>
            <AltitudeMeters>77.8000030517578125</AltitudeMeters>
            <DistanceMeters>NAN</DistanceMeters>
          </Trackpoint>
          <Trackpoint>
            <Time>2020-02-15T11:46:32.000Z</Time>
            <Position>
              <LatitudeDegrees>41.97374545969069004058837890625</LatitudeDegrees>
              <LongitudeDegrees>2.8301125578582286834716796875</LongitudeDegrees>
            </Position>
            <AltitudeMeters>77.8000030517578125</AltitudeMeters>
            <DistanceMeters>NAN</DistanceMeters>
          </Trackpoint>
          <Trackpoint>
            <Time>2020-02-15T11:46:33.000Z</Time>
            <Position>
              <LatitudeDegrees>41.9737307913601398468017578125</LatitudeDegrees>
              <LongitudeDegrees>2.830149270594120025634765625</LongitudeDegrees>
            </Position>
            <AltitudeMeters>78</AltitudeMeters>
            <DistanceMeters>NAN</DistanceMeters>
          </Trackpoint>
          <Trackpoint>
            <Time>2020-02-15T11:46:34.000Z</Time>
            <Position>
              <LatitudeDegrees>41.97371662594377994537353515625</LatitudeDegrees>
              <LongitudeDegrees>2.830186821520328521728515625</LongitudeDegrees>
            </Position>
            <AltitudeMeters>78.1999969482421875</AltitudeMeters>
            <DistanceMeters>NAN</DistanceMeters>
          </Trackpoint>
          <Trackpoint>
            <Time>2020-02-15T11:46:35.000Z</Time>
            <Position>
              <LatitudeDegrees>41.973702125251293182373046875</LatitudeDegrees>
              <LongitudeDegrees>2.83022613264620304107666015625</LongitudeDegrees>
            </Position>
            <AltitudeMeters>78.1999969482421875</AltitudeMeters>
            <DistanceMeters>NAN</DistanceMeters>
          </Trackpoint>
          <Trackpoint>
            <Time>2020-02-15T11:46:36.000Z</Time>
            <Position>
              <LatitudeDegrees>41.97368829511106014251708984375</LatitudeDegrees>
              <LongitudeDegrees>2.8302630968391895294189453125</LongitudeDegrees>
            </Position>
            <AltitudeMeters>78.1999969482421875</AltitudeMeters>
            <DistanceMeters>NAN</DistanceMeters>
          </Trackpoint>
          <Trackpoint>
            <Time>2020-02-15T11:46:37.000Z</Time>
            <Position>
              <LatitudeDegrees>41.97366985492408275604248046875</LatitudeDegrees>
              <LongitudeDegrees>2.8302999772131443023681640625</LongitudeDegrees>
            </Position>
            <AltitudeMeters>78.40000152587890625</AltitudeMeters>
            <DistanceMeters>NAN</DistanceMeters>
          </Trackpoint>
          <Trackpoint>
            <Time>2020-02-15T11:46:38.000Z</Time>
            <Position>
              <LatitudeDegrees>41.97365376166999340057373046875</LatitudeDegrees>
              <LongitudeDegrees>2.83033509738743305206298828125</LongitudeDegrees>
            </Position>
            <AltitudeMeters>78.40000152587890625</AltitudeMeters>
            <DistanceMeters>NAN</DistanceMeters>
          </Trackpoint>
          <Trackpoint>
            <Time>2020-02-15T11:46:39.000Z</Time>
            <Position>
              <LatitudeDegrees>41.97363481856882572174072265625</LatitudeDegrees>
              <LongitudeDegrees>2.830367200076580047607421875</LongitudeDegrees>
            </Position>
            <AltitudeMeters>78.59999847412109375</AltitudeMeters>
            <DistanceMeters>NAN</DistanceMeters>
          </Trackpoint>
          <Trackpoint>
            <Time>2020-02-15T11:46:40.000Z</Time>
            <Position>
              <LatitudeDegrees>41.973617970943450927734375</LatitudeDegrees>
              <LongitudeDegrees>2.83039829693734645843505859375</LongitudeDegrees>
            </Position>
            <AltitudeMeters>78.8000030517578125</AltitudeMeters>
            <DistanceMeters>NAN</DistanceMeters>
          </Trackpoint>
          <Trackpoint>
            <Time>2020-02-15T11:46:41.000Z</Time>
            <Position>
              <LatitudeDegrees>41.97360464371740818023681640625</LatitudeDegrees>
              <LongitudeDegrees>2.8304263763129711151123046875</LongitudeDegrees>
            </Position>
            <AltitudeMeters>79.1999969482421875</AltitudeMeters>
            <DistanceMeters>NAN</DistanceMeters>
          </Trackpoint>
          <Trackpoint>
            <Time>2020-02-15T11:46:42.000Z</Time>
            <Position>
              <LatitudeDegrees>41.973590813577175140380859375</LatitudeDegrees>
              <LongitudeDegrees>2.83045244403183460235595703125</LongitudeDegrees>
            </Position>
            <AltitudeMeters>79.40000152587890625</AltitudeMeters>
            <DistanceMeters>NAN</DistanceMeters>
          </Trackpoint>
          <Trackpoint>
            <Time>2020-02-15T11:46:43.000Z</Time>
            <Position>
              <LatitudeDegrees>41.9735782407224178314208984375</LatitudeDegrees>
              <LongitudeDegrees>2.83047524280846118927001953125</LongitudeDegrees>
            </Position>
            <AltitudeMeters>79.59999847412109375</AltitudeMeters>
            <DistanceMeters>NAN</DistanceMeters>
          </Trackpoint>
          <Trackpoint>
            <Time>2020-02-15T11:46:44.000Z</Time>
            <Position>
              <LatitudeDegrees>41.97356608696281909942626953125</LatitudeDegrees>
              <LongitudeDegrees>2.83049535937607288360595703125</LongitudeDegrees>
            </Position>
            <AltitudeMeters>80.40000152587890625</AltitudeMeters>
            <DistanceMeters>NAN</DistanceMeters>
          </Trackpoint>
          <Trackpoint>
            <Time>2020-02-15T11:46:45.000Z</Time>
            <Position>
              <LatitudeDegrees>41.9735500775277614593505859375</LatitudeDegrees>
              <LongitudeDegrees>2.83051631413400173187255859375</LongitudeDegrees>
            </Position>
            <AltitudeMeters>81</AltitudeMeters>
            <DistanceMeters>NAN</DistanceMeters>
          </Trackpoint>
          <Trackpoint>
            <Time>2020-02-15T11:46:46.000Z</Time>
            <Position>
              <LatitudeDegrees>41.9735343195497989654541015625</LatitudeDegrees>
              <LongitudeDegrees>2.8305366821587085723876953125</LongitudeDegrees>
            </Position>
            <AltitudeMeters>81.59999847412109375</AltitudeMeters>
            <DistanceMeters>NAN</DistanceMeters>
          </Trackpoint>
          <Trackpoint>
            <Time>2020-02-15T11:46:47.000Z</Time>
            <Position>
              <LatitudeDegrees>41.97352015413343906402587890625</LatitudeDegrees>
              <LongitudeDegrees>2.83055537380278110504150390625</LongitudeDegrees>
            </Position>
            <AltitudeMeters>81.59999847412109375</AltitudeMeters>
            <DistanceMeters>NAN</DistanceMeters>
          </Trackpoint>
          <Trackpoint>
            <Time>2020-02-15T11:46:48.000Z</Time>
            <Position>
              <LatitudeDegrees>41.97350439615547657012939453125</LatitudeDegrees>
              <LongitudeDegrees>2.8305678628385066986083984375</LongitudeDegrees>
            </Position>
            <AltitudeMeters>82.1999969482421875</AltitudeMeters>
            <DistanceMeters>NAN</DistanceMeters>
          </Trackpoint>
          <Trackpoint>
            <Time>2020-02-15T11:46:49.000Z</Time>
            <Position>
              <LatitudeDegrees>41.9734954275190830230712890625</LatitudeDegrees>
              <LongitudeDegrees>2.83057917840778827667236328125</LongitudeDegrees>
            </Position>
            <AltitudeMeters>82.8000030517578125</AltitudeMeters>
            <DistanceMeters>NAN</DistanceMeters>
          </Trackpoint>
          <Trackpoint>
            <Time>2020-02-15T11:46:50.000Z</Time>
            <Position>
              <LatitudeDegrees>41.9734870456159114837646484375</LatitudeDegrees>
              <LongitudeDegrees>2.83058538101613521575927734375</LongitudeDegrees>
            </Position>
            <AltitudeMeters>83.40000152587890625</AltitudeMeters>
            <DistanceMeters>NAN</DistanceMeters>
          </Trackpoint>
          <Trackpoint>
            <Time>2020-02-15T11:46:51.000Z</Time>
            <Position>
              <LatitudeDegrees>41.97348327375948429107666015625</LatitudeDegrees>
              <LongitudeDegrees>2.83058839850127696990966796875</LongitudeDegrees>
            </Position>
            <AltitudeMeters>84.1999969482421875</AltitudeMeters>
            <DistanceMeters>NAN</DistanceMeters>
          </Trackpoint>
          <Trackpoint>
            <Time>2020-02-15T11:46:54.000Z</Time>
            <Position>
              <LatitudeDegrees>41.97347472421824932098388671875</LatitudeDegrees>
              <LongitudeDegrees>2.83059912733733654022216796875</LongitudeDegrees>
            </Position>
            <AltitudeMeters>85.8000030517578125</AltitudeMeters>
            <DistanceMeters>NAN</DistanceMeters>
          </Trackpoint>
          <Trackpoint>
            <Time>2020-02-15T11:47:00.000Z</Time>
            <Position>
              <LatitudeDegrees>41.97347455658018589019775390625</LatitudeDegrees>
              <LongitudeDegrees>2.830610610544681549072265625</LongitudeDegrees>
            </Position>
            <AltitudeMeters>87.59999847412109375</AltitudeMeters>
            <DistanceMeters>NAN</DistanceMeters>
          </Trackpoint>
          <Trackpoint>
            <Time>2020-02-15T11:47:07.000Z</Time>
            <Position>
              <LatitudeDegrees>41.9734736345708370208740234375</LatitudeDegrees>
              <LongitudeDegrees>2.83061186783015727996826171875</LongitudeDegrees>
            </Position>
            <AltitudeMeters>87.8000030517578125</AltitudeMeters>
            <DistanceMeters>NAN</DistanceMeters>
          </Trackpoint>
          <Trackpoint>
            <Time>2020-02-15T11:47:08.000Z</Time>
            <Position>
              <LatitudeDegrees>41.97347380220890045166015625</LatitudeDegrees>
              <LongitudeDegrees>2.83061203546822071075439453125</LongitudeDegrees>
            </Position>
            <AltitudeMeters>87.8000030517578125</AltitudeMeters>
            <DistanceMeters>NAN</DistanceMeters>
          </Trackpoint>
          <Trackpoint>
            <Time>2020-02-15T11:47:20.000Z</Time>
            <Position>
              <LatitudeDegrees>41.973473466932773590087890625</LatitudeDegrees>
              <LongitudeDegrees>2.8306116163730621337890625</LongitudeDegrees>
            </Position>
            <AltitudeMeters>87.59999847412109375</AltitudeMeters>
            <DistanceMeters>NAN</DistanceMeters>
          </Trackpoint>
          <Trackpoint>
            <Time>2020-02-15T11:47:31.000Z</Time>
            <Position>
              <LatitudeDegrees>41.97347338311374187469482421875</LatitudeDegrees>
              <LongitudeDegrees>2.8306104429066181182861328125</LongitudeDegrees>
            </Position>
            <AltitudeMeters>87.8000030517578125</AltitudeMeters>
            <DistanceMeters>NAN</DistanceMeters>
          </Trackpoint>
          <Trackpoint>
            <Time>2020-02-15T11:47:38.000Z</Time>
            <Position>
              <LatitudeDegrees>41.97347355075180530548095703125</LatitudeDegrees>
              <LongitudeDegrees>2.83060960471630096435546875</LongitudeDegrees>
            </Position>
            <AltitudeMeters>87.8000030517578125</AltitudeMeters>
            <DistanceMeters>NAN</DistanceMeters>
          </Trackpoint>
          <Trackpoint>
            <Time>2020-02-15T11:47:41.000Z</Time>
            <Position>
              <LatitudeDegrees>41.97347371838986873626708984375</LatitudeDegrees>
              <LongitudeDegrees>2.8306094370782375335693359375</LongitudeDegrees>
            </Position>
            <AltitudeMeters>88</AltitudeMeters>
            <DistanceMeters>NAN</DistanceMeters>
          </Trackpoint>
          <Trackpoint>
            <Time>2020-02-15T11:47:44.000Z</Time>
            <Position>
              <LatitudeDegrees>41.97347380220890045166015625</LatitudeDegrees>
              <LongitudeDegrees>2.83060935325920581817626953125</LongitudeDegrees>
            </Position>
            <AltitudeMeters>88</AltitudeMeters>
            <DistanceMeters>NAN</DistanceMeters>
          </Trackpoint>
          <Trackpoint>
            <Time>2020-02-15T11:47:53.000Z</Time>
            <Position>
              <LatitudeDegrees>41.97347380220890045166015625</LatitudeDegrees>
              <LongitudeDegrees>2.8306094370782375335693359375</LongitudeDegrees>
            </Position>
            <AltitudeMeters>87.8000030517578125</AltitudeMeters>
            <DistanceMeters>NAN</DistanceMeters>
          </Trackpoint>
          <Trackpoint>
            <Time>2020-02-15T11:47:56.000Z</Time>
            <Position>
              <LatitudeDegrees>41.97347371838986873626708984375</LatitudeDegrees>
              <LongitudeDegrees>2.830609939992427825927734375</LongitudeDegrees>
            </Position>
            <AltitudeMeters>87.8000030517578125</AltitudeMeters>
            <DistanceMeters>NAN</DistanceMeters>
          </Trackpoint>
          <Trackpoint>
            <Time>2020-02-15T11:47:59.000Z</Time>
            <Position>
              <LatitudeDegrees>41.9734736345708370208740234375</LatitudeDegrees>
              <LongitudeDegrees>2.83061019144952297210693359375</LongitudeDegrees>
            </Position>
            <AltitudeMeters>87.8000030517578125</AltitudeMeters>
            <DistanceMeters>NAN</DistanceMeters>
          </Trackpoint>
          <Trackpoint>
            <Time>2020-02-15T11:48:04.000Z</Time>
            <Position>
              <LatitudeDegrees>41.97347405366599559783935546875</LatitudeDegrees>
              <LongitudeDegrees>2.83060935325920581817626953125</LongitudeDegrees>
            </Position>
            <AltitudeMeters>88</AltitudeMeters>
            <DistanceMeters>NAN</DistanceMeters>
          </Trackpoint>
          <Trackpoint>
            <Time>2020-02-15T11:48:15.000Z</Time>
            <Position>
              <LatitudeDegrees>41.97346734814345836639404296875</LatitudeDegrees>
              <LongitudeDegrees>2.8306050784885883331298828125</LongitudeDegrees>
            </Position>
            <AltitudeMeters>87.59999847412109375</AltitudeMeters>
            <DistanceMeters>NAN</DistanceMeters>
          </Trackpoint>
          <Trackpoint>
            <Time>2020-02-15T11:48:17.000Z</Time>
            <Position>
              <LatitudeDegrees>41.97346751578152179718017578125</LatitudeDegrees>
              <LongitudeDegrees>2.83060532994568347930908203125</LongitudeDegrees>
            </Position>
            <AltitudeMeters>87.59999847412109375</AltitudeMeters>
            <DistanceMeters>NAN</DistanceMeters>
          </Trackpoint>
          <Trackpoint>
            <Time>2020-02-15T11:48:25.000Z</Time>
            <Position>
              <LatitudeDegrees>41.97346684522926807403564453125</LatitudeDegrees>
              <LongitudeDegrees>2.83060482703149318695068359375</LongitudeDegrees>
            </Position>
            <AltitudeMeters>87.59999847412109375</AltitudeMeters>
            <DistanceMeters>NAN</DistanceMeters>
          </Trackpoint>
          <Trackpoint>
            <Time>2020-02-15T11:48:30.000Z</Time>
            <Position>
              <LatitudeDegrees>41.97346751578152179718017578125</LatitudeDegrees>
              <LongitudeDegrees>2.830603234469890594482421875</LongitudeDegrees>
            </Position>
            <AltitudeMeters>87.8000030517578125</AltitudeMeters>
            <DistanceMeters>NAN</DistanceMeters>
          </Trackpoint>
          <Trackpoint>
            <Time>2020-02-15T11:48:35.000Z</Time>
            <Position>
              <LatitudeDegrees>41.97346768341958522796630859375</LatitudeDegrees>
              <LongitudeDegrees>2.830602563917636871337890625</LongitudeDegrees>
            </Position>
            <AltitudeMeters>87.8000030517578125</AltitudeMeters>
            <DistanceMeters>NAN</DistanceMeters>
          </Trackpoint>
          <Trackpoint>
            <Time>2020-02-15T11:48:36.000Z</Time>
            <Position>
              <LatitudeDegrees>41.97346768341958522796630859375</LatitudeDegrees>
              <LongitudeDegrees>2.83060248009860515594482421875</LongitudeDegrees>
            </Position>
            <AltitudeMeters>87.8000030517578125</AltitudeMeters>
            <DistanceMeters>NAN</DistanceMeters>
          </Trackpoint>
          <Trackpoint>
            <Time>2020-02-15T11:48:38.000Z</Time>
            <Position>
              <LatitudeDegrees>41.9734672643244266510009765625</LatitudeDegrees>
              <LongitudeDegrees>2.83060331828892230987548828125</LongitudeDegrees>
            </Position>
            <AltitudeMeters>88</AltitudeMeters>
            <DistanceMeters>NAN</DistanceMeters>
          </Trackpoint>
          <Trackpoint>
            <Time>2020-02-15T11:48:53.000Z</Time>
            <Position>
              <LatitudeDegrees>41.973467767238616943359375</LatitudeDegrees>
              <LongitudeDegrees>2.830601893365383148193359375</LongitudeDegrees>
            </Position>
            <AltitudeMeters>88</AltitudeMeters>
            <DistanceMeters>NAN</DistanceMeters>
          </Trackpoint>
          <Trackpoint>
            <Time>2020-02-15T11:48:55.000Z</Time>
            <Position>
              <LatitudeDegrees>41.973467767238616943359375</LatitudeDegrees>
              <LongitudeDegrees>2.8306010551750659942626953125</LongitudeDegrees>
            </Position>
            <AltitudeMeters>88</AltitudeMeters>
            <DistanceMeters>NAN</DistanceMeters>
          </Trackpoint>
          <Trackpoint>
            <Time>2020-02-15T11:48:57.000Z</Time>
            <Position>
              <LatitudeDegrees>41.973467767238616943359375</LatitudeDegrees>
              <LongitudeDegrees>2.8306007198989391326904296875</LongitudeDegrees>
            </Position>
            <AltitudeMeters>88</AltitudeMeters>
            <DistanceMeters>NAN</DistanceMeters>
          </Trackpoint>
          <Trackpoint>
            <Time>2020-02-15T11:48:58.000Z</Time>
            <Position>
              <LatitudeDegrees>41.973467767238616943359375</LatitudeDegrees>
              <LongitudeDegrees>2.830600552260875701904296875</LongitudeDegrees>
            </Position>
            <AltitudeMeters>87.8000030517578125</AltitudeMeters>
            <DistanceMeters>NAN</DistanceMeters>
          </Trackpoint>
          <Trackpoint>
            <Time>2020-02-15T11:49:00.000Z</Time>
            <Position>
              <LatitudeDegrees>41.973467767238616943359375</LatitudeDegrees>
              <LongitudeDegrees>2.8306003846228122711181640625</LongitudeDegrees>
            </Position>
            <AltitudeMeters>88</AltitudeMeters>
            <DistanceMeters>NAN</DistanceMeters>
          </Trackpoint>
          <Trackpoint>
            <Time>2020-02-15T11:49:21.000Z</Time>
            <Position>
              <LatitudeDegrees>41.973466761410236358642578125</LatitudeDegrees>
              <LongitudeDegrees>2.83059594221413135528564453125</LongitudeDegrees>
            </Position>
            <AltitudeMeters>88</AltitudeMeters>
            <DistanceMeters>NAN</DistanceMeters>
          </Trackpoint>
          <Trackpoint>
            <Time>2020-02-15T11:49:28.000Z</Time>
            <Position>
              <LatitudeDegrees>41.973466761410236358642578125</LatitudeDegrees>
              <LongitudeDegrees>2.8305963613092899322509765625</LongitudeDegrees>
            </Position>
            <AltitudeMeters>87.8000030517578125</AltitudeMeters>
            <DistanceMeters>NAN</DistanceMeters>
          </Trackpoint>
          <Trackpoint>
            <Time>2020-02-15T11:49:33.000Z</Time>
            <Position>
              <LatitudeDegrees>41.97346718050539493560791015625</LatitudeDegrees>
              <LongitudeDegrees>2.83059594221413135528564453125</LongitudeDegrees>
            </Position>
            <AltitudeMeters>87.8000030517578125</AltitudeMeters>
            <DistanceMeters>NAN</DistanceMeters>
          </Trackpoint>
          <Trackpoint>
            <Time>2020-02-15T11:49:35.000Z</Time>
            <Position>
              <LatitudeDegrees>41.9734672643244266510009765625</LatitudeDegrees>
              <LongitudeDegrees>2.830595858395099639892578125</LongitudeDegrees>
            </Position>
            <AltitudeMeters>87.8000030517578125</AltitudeMeters>
            <DistanceMeters>NAN</DistanceMeters>
          </Trackpoint>
          <Trackpoint>
            <Time>2020-02-15T11:49:41.000Z</Time>
            <Position>
              <LatitudeDegrees>41.9734675996005535125732421875</LatitudeDegrees>
              <LongitudeDegrees>2.830595187842845916748046875</LongitudeDegrees>
            </Position>
            <AltitudeMeters>88</AltitudeMeters>
            <DistanceMeters>NAN</DistanceMeters>
          </Trackpoint>
          <Trackpoint>
            <Time>2020-02-15T11:49:48.000Z</Time>
            <Position>
              <LatitudeDegrees>41.97346768341958522796630859375</LatitudeDegrees>
              <LongitudeDegrees>2.83059443347156047821044921875</LongitudeDegrees>
            </Position>
            <AltitudeMeters>88.1999969482421875</AltitudeMeters>
            <DistanceMeters>NAN</DistanceMeters>
          </Trackpoint>
          <Trackpoint>
            <Time>2020-02-15T11:49:51.000Z</Time>
            <Position>
              <LatitudeDegrees>41.9734675996005535125732421875</LatitudeDegrees>
              <LongitudeDegrees>2.83059418201446533203125</LongitudeDegrees>
            </Position>
            <AltitudeMeters>88.1999969482421875</AltitudeMeters>
            <DistanceMeters>NAN</DistanceMeters>
          </Trackpoint>
          <Trackpoint>
            <Time>2020-02-15T11:49:53.000Z</Time>
            <Position>
              <LatitudeDegrees>41.973467767238616943359375</LatitudeDegrees>
              <LongitudeDegrees>2.830593846738338470458984375</LongitudeDegrees>
            </Position>
            <AltitudeMeters>88.40000152587890625</AltitudeMeters>
            <DistanceMeters>NAN</DistanceMeters>
          </Trackpoint>
          <Trackpoint>
            <Time>2020-02-15T11:49:58.000Z</Time>
            <Position>
              <LatitudeDegrees>41.973467767238616943359375</LatitudeDegrees>
              <LongitudeDegrees>2.83059351146221160888671875</LongitudeDegrees>
            </Position>
            <AltitudeMeters>88.40000152587890625</AltitudeMeters>
            <DistanceMeters>NAN</DistanceMeters>
          </Trackpoint>
          <Trackpoint>
            <Time>2020-02-15T11:50:07.000Z</Time>
            <Position>
              <LatitudeDegrees>41.97346768341958522796630859375</LatitudeDegrees>
              <LongitudeDegrees>2.830593846738338470458984375</LongitudeDegrees>
            </Position>
            <AltitudeMeters>88.40000152587890625</AltitudeMeters>
            <DistanceMeters>NAN</DistanceMeters>
          </Trackpoint>
          <Trackpoint>
            <Time>2020-02-15T11:50:13.000Z</Time>
            <Position>
              <LatitudeDegrees>41.973467767238616943359375</LatitudeDegrees>
              <LongitudeDegrees>2.8305936791002750396728515625</LongitudeDegrees>
            </Position>
            <AltitudeMeters>88.40000152587890625</AltitudeMeters>
            <DistanceMeters>NAN</DistanceMeters>
          </Trackpoint>
          <Trackpoint>
            <Time>2020-02-15T11:50:18.000Z</Time>
            <Position>
              <LatitudeDegrees>41.9734675996005535125732421875</LatitudeDegrees>
              <LongitudeDegrees>2.83059393055737018585205078125</LongitudeDegrees>
            </Position>
            <AltitudeMeters>88.40000152587890625</AltitudeMeters>
            <DistanceMeters>NAN</DistanceMeters>
          </Trackpoint>
          <Trackpoint>
            <Time>2020-02-15T11:50:41.000Z</Time>
            <Position>
              <LatitudeDegrees>41.9734679348766803741455078125</LatitudeDegrees>
              <LongitudeDegrees>2.83059460110962390899658203125</LongitudeDegrees>
            </Position>
            <AltitudeMeters>88.40000152587890625</AltitudeMeters>
            <DistanceMeters>NAN</DistanceMeters>
          </Trackpoint>
          <Trackpoint>
            <Time>2020-02-15T11:50:57.000Z</Time>
            <Position>
              <LatitudeDegrees>41.97346785105764865875244140625</LatitudeDegrees>
              <LongitudeDegrees>2.83059476874768733978271484375</LongitudeDegrees>
            </Position>
            <AltitudeMeters>88.40000152587890625</AltitudeMeters>
            <DistanceMeters>NAN</DistanceMeters>
          </Trackpoint>
          <Trackpoint>
            <Time>2020-02-15T11:51:00.000Z</Time>
            <Position>
              <LatitudeDegrees>41.97346785105764865875244140625</LatitudeDegrees>
              <LongitudeDegrees>2.8305946849286556243896484375</LongitudeDegrees>
            </Position>
            <AltitudeMeters>88.40000152587890625</AltitudeMeters>
            <DistanceMeters>NAN</DistanceMeters>
          </Trackpoint>
          <Trackpoint>
            <Time>2020-02-15T11:51:11.000Z</Time>
            <Position>
              <LatitudeDegrees>41.9734675996005535125732421875</LatitudeDegrees>
              <LongitudeDegrees>2.8305946849286556243896484375</LongitudeDegrees>
            </Position>
            <AltitudeMeters>88.1999969482421875</AltitudeMeters>
            <DistanceMeters>NAN</DistanceMeters>
          </Trackpoint>
          <Trackpoint>
            <Time>2020-02-15T11:51:17.000Z</Time>
            <Position>
              <LatitudeDegrees>41.97346583940088748931884765625</LatitudeDegrees>
              <LongitudeDegrees>2.8305983729660511016845703125</LongitudeDegrees>
            </Position>
            <AltitudeMeters>88.40000152587890625</AltitudeMeters>
            <DistanceMeters>NAN</DistanceMeters>
          </Trackpoint>
          <Trackpoint>
            <Time>2020-02-15T11:51:36.000Z</Time>
            <Position>
              <LatitudeDegrees>41.9734679348766803741455078125</LatitudeDegrees>
              <LongitudeDegrees>2.83060097135603427886962890625</LongitudeDegrees>
            </Position>
            <AltitudeMeters>88.59999847412109375</AltitudeMeters>
            <DistanceMeters>NAN</DistanceMeters>
          </Trackpoint>
          <Trackpoint>
            <Time>2020-02-15T11:51:43.000Z</Time>
            <Position>
              <LatitudeDegrees>41.97345745749771595001220703125</LatitudeDegrees>
              <LongitudeDegrees>2.83060415647923946380615234375</LongitudeDegrees>
            </Position>
            <AltitudeMeters>88.59999847412109375</AltitudeMeters>
            <DistanceMeters>NAN</DistanceMeters>
          </Trackpoint>
          <Trackpoint>
            <Time>2020-02-15T11:51:47.000Z</Time>
            <Position>
              <LatitudeDegrees>41.97345636785030364990234375</LatitudeDegrees>
              <LongitudeDegrees>2.8306054137647151947021484375</LongitudeDegrees>
            </Position>
            <AltitudeMeters>88.40000152587890625</AltitudeMeters>
            <DistanceMeters>NAN</DistanceMeters>
          </Trackpoint>
          <Trackpoint>
            <Time>2020-02-15T11:51:49.000Z</Time>
            <Position>
              <LatitudeDegrees>41.97345393709838390350341796875</LatitudeDegrees>
              <LongitudeDegrees>2.8306080959737300872802734375</LongitudeDegrees>
            </Position>
            <AltitudeMeters>88.59999847412109375</AltitudeMeters>
            <DistanceMeters>NAN</DistanceMeters>
          </Trackpoint>
          <Trackpoint>
            <Time>2020-02-15T11:51:53.000Z</Time>
            <Position>
              <LatitudeDegrees>41.973451338708400726318359375</LatitudeDegrees>
              <LongitudeDegrees>2.83060616813600063323974609375</LongitudeDegrees>
            </Position>
            <AltitudeMeters>88.59999847412109375</AltitudeMeters>
            <DistanceMeters>NAN</DistanceMeters>
          </Trackpoint>
          <Trackpoint>
            <Time>2020-02-15T11:51:55.000Z</Time>
            <Position>
              <LatitudeDegrees>41.97345041669905185699462890625</LatitudeDegrees>
              <LongitudeDegrees>2.83060516230762004852294921875</LongitudeDegrees>
            </Position>
            <AltitudeMeters>88.59999847412109375</AltitudeMeters>
            <DistanceMeters>NAN</DistanceMeters>
          </Trackpoint>
          <Trackpoint>
            <Time>2020-02-15T11:51:59.000Z</Time>
            <Position>
              <LatitudeDegrees>41.973450668156147003173828125</LatitudeDegrees>
              <LongitudeDegrees>2.8306054137647151947021484375</LongitudeDegrees>
            </Position>
            <AltitudeMeters>88.59999847412109375</AltitudeMeters>
            <DistanceMeters>NAN</DistanceMeters>
          </Trackpoint>
          <Trackpoint>
            <Time>2020-02-15T11:52:02.000Z</Time>
            <Position>
              <LatitudeDegrees>41.97345091961324214935302734375</LatitudeDegrees>
              <LongitudeDegrees>2.83060516230762004852294921875</LongitudeDegrees>
            </Position>
            <AltitudeMeters>88.40000152587890625</AltitudeMeters>
            <DistanceMeters>NAN</DistanceMeters>
          </Trackpoint>
          <Trackpoint>
            <Time>2020-02-15T11:52:06.000Z</Time>
            <Position>
              <LatitudeDegrees>41.97345108725130558013916015625</LatitudeDegrees>
              <LongitudeDegrees>2.8306057490408420562744140625</LongitudeDegrees>
            </Position>
            <AltitudeMeters>88.59999847412109375</AltitudeMeters>
            <DistanceMeters>NAN</DistanceMeters>
          </Trackpoint>
          <Trackpoint>
            <Time>2020-02-15T11:52:13.000Z</Time>
            <Position>
              <LatitudeDegrees>41.9734508357942104339599609375</LatitudeDegrees>
              <LongitudeDegrees>2.83060633577406406402587890625</LongitudeDegrees>
            </Position>
            <AltitudeMeters>88.59999847412109375</AltitudeMeters>
            <DistanceMeters>NAN</DistanceMeters>
          </Trackpoint>
          <Trackpoint>
            <Time>2020-02-15T11:52:38.000Z</Time>
            <Position>
              <LatitudeDegrees>41.97345108725130558013916015625</LatitudeDegrees>
              <LongitudeDegrees>2.8306080959737300872802734375</LongitudeDegrees>
            </Position>
            <AltitudeMeters>88.59999847412109375</AltitudeMeters>
            <DistanceMeters>NAN</DistanceMeters>
          </Trackpoint>
          <Trackpoint>
            <Time>2020-02-15T11:52:44.000Z</Time>
            <Position>
              <LatitudeDegrees>41.97345125488936901092529296875</LatitudeDegrees>
              <LongitudeDegrees>2.83060817979276180267333984375</LongitudeDegrees>
            </Position>
            <AltitudeMeters>88.59999847412109375</AltitudeMeters>
            <DistanceMeters>NAN</DistanceMeters>
          </Trackpoint>
          <Trackpoint>
            <Time>2020-02-15T11:52:51.000Z</Time>
            <Position>
              <LatitudeDegrees>41.97345142252743244171142578125</LatitudeDegrees>
              <LongitudeDegrees>2.830608598887920379638671875</LongitudeDegrees>
            </Position>
            <AltitudeMeters>88.40000152587890625</AltitudeMeters>
            <DistanceMeters>NAN</DistanceMeters>
          </Trackpoint>
          <Trackpoint>
            <Time>2020-02-15T11:53:18.000Z</Time>
            <Position>
              <LatitudeDegrees>41.97345108725130558013916015625</LatitudeDegrees>
              <LongitudeDegrees>2.830609939992427825927734375</LongitudeDegrees>
            </Position>
            <AltitudeMeters>88.40000152587890625</AltitudeMeters>
            <DistanceMeters>NAN</DistanceMeters>
          </Trackpoint>
          <Trackpoint>
            <Time>2020-02-15T11:53:22.000Z</Time>
            <Position>
              <LatitudeDegrees>41.9734464772045612335205078125</LatitudeDegrees>
              <LongitudeDegrees>2.830612622201442718505859375</LongitudeDegrees>
            </Position>
            <AltitudeMeters>88.59999847412109375</AltitudeMeters>
            <DistanceMeters>NAN</DistanceMeters>
          </Trackpoint>
          <Trackpoint>
            <Time>2020-02-15T11:53:24.000Z</Time>
            <Position>
              <LatitudeDegrees>41.9734369218349456787109375</LatitudeDegrees>
              <LongitudeDegrees>2.83060717396438121795654296875</LongitudeDegrees>
            </Position>
            <AltitudeMeters>88.40000152587890625</AltitudeMeters>
            <DistanceMeters>NAN</DistanceMeters>
          </Trackpoint>
          <Trackpoint>
            <Time>2020-02-15T11:53:26.000Z</Time>
            <Position>
              <LatitudeDegrees>41.9734317250549793243408203125</LatitudeDegrees>
              <LongitudeDegrees>2.8305879794061183929443359375</LongitudeDegrees>
            </Position>
            <AltitudeMeters>88.40000152587890625</AltitudeMeters>
            <DistanceMeters>NAN</DistanceMeters>
          </Trackpoint>
          <Trackpoint>
            <Time>2020-02-15T11:53:27.000Z</Time>
            <Position>
              <LatitudeDegrees>41.973430551588535308837890625</LatitudeDegrees>
              <LongitudeDegrees>2.8305792622268199920654296875</LongitudeDegrees>
            </Position>
            <AltitudeMeters>88.59999847412109375</AltitudeMeters>
            <DistanceMeters>NAN</DistanceMeters>
          </Trackpoint>
          <Trackpoint>
            <Time>2020-02-15T11:53:28.000Z</Time>
            <Position>
              <LatitudeDegrees>41.9734290428459644317626953125</LatitudeDegrees>
              <LongitudeDegrees>2.83056912012398242950439453125</LongitudeDegrees>
            </Position>
            <AltitudeMeters>88.40000152587890625</AltitudeMeters>
            <DistanceMeters>NAN</DistanceMeters>
          </Trackpoint>
          <Trackpoint>
            <Time>2020-02-15T11:53:29.000Z</Time>
            <Position>
              <LatitudeDegrees>41.97342661209404468536376953125</LatitudeDegrees>
              <LongitudeDegrees>2.8305584751069545745849609375</LongitudeDegrees>
            </Position>
            <AltitudeMeters>88.40000152587890625</AltitudeMeters>
            <DistanceMeters>NAN</DistanceMeters>
          </Trackpoint>
          <Trackpoint>
            <Time>2020-02-15T11:53:32.000Z</Time>
            <Position>
              <LatitudeDegrees>41.97342418134212493896484375</LatitudeDegrees>
              <LongitudeDegrees>2.83052838407456874847412109375</LongitudeDegrees>
            </Position>
            <AltitudeMeters>88.40000152587890625</AltitudeMeters>
            <DistanceMeters>NAN</DistanceMeters>
          </Trackpoint>
          <Trackpoint>
            <Time>2020-02-15T11:53:34.000Z</Time>
            <Position>
              <LatitudeDegrees>41.97342216968536376953125</LatitudeDegrees>
              <LongitudeDegrees>2.8305257856845855712890625</LongitudeDegrees>
            </Position>
            <AltitudeMeters>88.59999847412109375</AltitudeMeters>
            <DistanceMeters>NAN</DistanceMeters>
          </Trackpoint>
          <Trackpoint>
            <Time>2020-02-15T11:53:38.000Z</Time>
            <Position>
              <LatitudeDegrees>41.9734256900846958160400390625</LatitudeDegrees>
              <LongitudeDegrees>2.83050633966922760009765625</LongitudeDegrees>
            </Position>
            <AltitudeMeters>88.40000152587890625</AltitudeMeters>
            <DistanceMeters>NAN</DistanceMeters>
          </Trackpoint>
          <Trackpoint>
            <Time>2020-02-15T11:53:39.000Z</Time>
            <Position>
              <LatitudeDegrees>41.97342895902693271636962890625</LatitudeDegrees>
              <LongitudeDegrees>2.8304867260158061981201171875</LongitudeDegrees>
            </Position>
            <AltitudeMeters>88.40000152587890625</AltitudeMeters>
            <DistanceMeters>NAN</DistanceMeters>
          </Trackpoint>
          <Trackpoint>
            <Time>2020-02-15T11:53:40.000Z</Time>
            <Position>
              <LatitudeDegrees>41.97342962957918643951416015625</LatitudeDegrees>
              <LongitudeDegrees>2.83046602271497249603271484375</LongitudeDegrees>
            </Position>
            <AltitudeMeters>88.59999847412109375</AltitudeMeters>
            <DistanceMeters>NAN</DistanceMeters>
          </Trackpoint>
          <Trackpoint>
            <Time>2020-02-15T11:53:42.000Z</Time>
            <Position>
              <LatitudeDegrees>41.97343734093010425567626953125</LatitudeDegrees>
              <LongitudeDegrees>2.830415479838848114013671875</LongitudeDegrees>
            </Position>
            <AltitudeMeters>88.59999847412109375</AltitudeMeters>
            <DistanceMeters>NAN</DistanceMeters>
          </Trackpoint>
          <Trackpoint>
            <Time>2020-02-15T11:53:43.000Z</Time>
            <Position>
              <LatitudeDegrees>41.9734397716820240020751953125</LatitudeDegrees>
              <LongitudeDegrees>2.83037985675036907196044921875</LongitudeDegrees>
            </Position>
            <AltitudeMeters>88.59999847412109375</AltitudeMeters>
            <DistanceMeters>NAN</DistanceMeters>
          </Trackpoint>
          <Trackpoint>
            <Time>2020-02-15T11:53:44.000Z</Time>
            <Position>
              <LatitudeDegrees>41.97344337590038776397705078125</LatitudeDegrees>
              <LongitudeDegrees>2.83034163527190685272216796875</LongitudeDegrees>
            </Position>
            <AltitudeMeters>88.40000152587890625</AltitudeMeters>
            <DistanceMeters>NAN</DistanceMeters>
          </Trackpoint>
          <Trackpoint>
            <Time>2020-02-15T11:53:45.000Z</Time>
            <Position>
              <LatitudeDegrees>41.97344823740422725677490234375</LatitudeDegrees>
              <LongitudeDegrees>2.8302996419370174407958984375</LongitudeDegrees>
            </Position>
            <AltitudeMeters>88.59999847412109375</AltitudeMeters>
            <DistanceMeters>NAN</DistanceMeters>
          </Trackpoint>
          <Trackpoint>
            <Time>2020-02-15T11:53:46.000Z</Time>
            <Position>
              <LatitudeDegrees>41.97345075197517871856689453125</LatitudeDegrees>
              <LongitudeDegrees>2.8302516974508762359619140625</LongitudeDegrees>
            </Position>
            <AltitudeMeters>88.59999847412109375</AltitudeMeters>
            <DistanceMeters>NAN</DistanceMeters>
          </Trackpoint>
          <Trackpoint>
            <Time>2020-02-15T11:53:47.000Z</Time>
            <Position>
              <LatitudeDegrees>41.97345142252743244171142578125</LatitudeDegrees>
              <LongitudeDegrees>2.83019880764186382293701171875</LongitudeDegrees>
            </Position>
            <AltitudeMeters>88.59999847412109375</AltitudeMeters>
            <DistanceMeters>NAN</DistanceMeters>
          </Trackpoint>
          <Trackpoint>
            <Time>2020-02-15T11:53:50.000Z</Time>
            <Position>
              <LatitudeDegrees>41.973454020917415618896484375</LatitudeDegrees>
              <LongitudeDegrees>2.830022871494293212890625</LongitudeDegrees>
            </Position>
            <AltitudeMeters>88.59999847412109375</AltitudeMeters>
            <DistanceMeters>NAN</DistanceMeters>
          </Trackpoint>
          <Trackpoint>
            <Time>2020-02-15T11:53:55.000Z</Time>
            <Position>
              <LatitudeDegrees>41.97346441447734832763671875</LatitudeDegrees>
              <LongitudeDegrees>2.82968583516776561737060546875</LongitudeDegrees>
            </Position>
            <AltitudeMeters>88.40000152587890625</AltitudeMeters>
            <DistanceMeters>NAN</DistanceMeters>
          </Trackpoint>
          <Trackpoint>
            <Time>2020-02-15T11:53:57.000Z</Time>
            <Position>
              <LatitudeDegrees>41.9734664261341094970703125</LatitudeDegrees>
              <LongitudeDegrees>2.829541079699993133544921875</LongitudeDegrees>
            </Position>
            <AltitudeMeters>88.40000152587890625</AltitudeMeters>
            <DistanceMeters>NAN</DistanceMeters>
          </Trackpoint>
          <Trackpoint>
            <Time>2020-02-15T11:54:01.000Z</Time>
            <Position>
              <LatitudeDegrees>41.973476819694042205810546875</LatitudeDegrees>
              <LongitudeDegrees>2.82924528233706951141357421875</LongitudeDegrees>
            </Position>
            <AltitudeMeters>88.1999969482421875</AltitudeMeters>
            <DistanceMeters>NAN</DistanceMeters>
          </Trackpoint>
          <Trackpoint>
            <Time>2020-02-15T11:54:02.000Z</Time>
            <Position>
              <LatitudeDegrees>41.9734798371791839599609375</LatitudeDegrees>
              <LongitudeDegrees>2.8291690908372402191162109375</LongitudeDegrees>
            </Position>
            <AltitudeMeters>88</AltitudeMeters>
            <DistanceMeters>NAN</DistanceMeters>
          </Trackpoint>
          <Trackpoint>
            <Time>2020-02-15T11:54:03.000Z</Time>
            <Position>
              <LatitudeDegrees>41.9734823517501354217529296875</LatitudeDegrees>
              <LongitudeDegrees>2.82909189350903034210205078125</LongitudeDegrees>
            </Position>
            <AltitudeMeters>87.8000030517578125</AltitudeMeters>
            <DistanceMeters>NAN</DistanceMeters>
          </Trackpoint>
          <Trackpoint>
            <Time>2020-02-15T11:54:04.000Z</Time>
            <Position>
              <LatitudeDegrees>41.97348495014011859893798828125</LatitudeDegrees>
              <LongitudeDegrees>2.829014025628566741943359375</LongitudeDegrees>
            </Position>
            <AltitudeMeters>88</AltitudeMeters>
            <DistanceMeters>NAN</DistanceMeters>
          </Trackpoint>
          <Trackpoint>
            <Time>2020-02-15T11:54:05.000Z</Time>
            <Position>
              <LatitudeDegrees>41.97348645888268947601318359375</LatitudeDegrees>
              <LongitudeDegrees>2.828934900462627410888671875</LongitudeDegrees>
            </Position>
            <AltitudeMeters>87.8000030517578125</AltitudeMeters>
            <DistanceMeters>NAN</DistanceMeters>
          </Trackpoint>
          <Trackpoint>
            <Time>2020-02-15T11:54:10.000Z</Time>
            <Position>
              <LatitudeDegrees>41.9735071621835231781005859375</LatitudeDegrees>
              <LongitudeDegrees>2.8285293839871883392333984375</LongitudeDegrees>
            </Position>
            <AltitudeMeters>87.40000152587890625</AltitudeMeters>
            <DistanceMeters>NAN</DistanceMeters>
          </Trackpoint>
          <Trackpoint>
            <Time>2020-02-15T11:54:12.000Z</Time>
            <Position>
              <LatitudeDegrees>41.9735200703144073486328125</LatitudeDegrees>
              <LongitudeDegrees>2.82836233265697956085205078125</LongitudeDegrees>
            </Position>
            <AltitudeMeters>87</AltitudeMeters>
            <DistanceMeters>NAN</DistanceMeters>
          </Trackpoint>
          <Trackpoint>
            <Time>2020-02-15T11:54:19.000Z</Time>
            <Position>
              <LatitudeDegrees>41.9736080802977085113525390625</LatitudeDegrees>
              <LongitudeDegrees>2.8278115577995777130126953125</LongitudeDegrees>
            </Position>
            <AltitudeMeters>85.8000030517578125</AltitudeMeters>
            <DistanceMeters>NAN</DistanceMeters>
          </Trackpoint>
          <Trackpoint>
            <Time>2020-02-15T11:54:20.000Z</Time>
            <Position>
              <LatitudeDegrees>41.97361201979219913482666015625</LatitudeDegrees>
              <LongitudeDegrees>2.82773000188171863555908203125</LongitudeDegrees>
            </Position>
            <AltitudeMeters>85.59999847412109375</AltitudeMeters>
            <DistanceMeters>NAN</DistanceMeters>
          </Trackpoint>
          <Trackpoint>
            <Time>2020-02-15T11:54:21.000Z</Time>
            <Position>
              <LatitudeDegrees>41.97361403144896030426025390625</LatitudeDegrees>
              <LongitudeDegrees>2.8276526369154453277587890625</LongitudeDegrees>
            </Position>
            <AltitudeMeters>85.40000152587890625</AltitudeMeters>
            <DistanceMeters>NAN</DistanceMeters>
          </Trackpoint>
          <Trackpoint>
            <Time>2020-02-15T11:54:22.000Z</Time>
            <Position>
              <LatitudeDegrees>41.973620988428592681884765625</LatitudeDegrees>
              <LongitudeDegrees>2.82758147455751895904541015625</LongitudeDegrees>
            </Position>
            <AltitudeMeters>85.40000152587890625</AltitudeMeters>
            <DistanceMeters>NAN</DistanceMeters>
          </Trackpoint>
          <Trackpoint>
            <Time>2020-02-15T11:54:23.000Z</Time>
            <Position>
              <LatitudeDegrees>41.97362258099019527435302734375</LatitudeDegrees>
              <LongitudeDegrees>2.827504612505435943603515625</LongitudeDegrees>
            </Position>
            <AltitudeMeters>85.1999969482421875</AltitudeMeters>
            <DistanceMeters>NAN</DistanceMeters>
          </Trackpoint>
          <Trackpoint>
            <Time>2020-02-15T11:54:24.000Z</Time>
            <Position>
              <LatitudeDegrees>41.973631381988525390625</LatitudeDegrees>
              <LongitudeDegrees>2.8274259902536869049072265625</LongitudeDegrees>
            </Position>
            <AltitudeMeters>85</AltitudeMeters>
            <DistanceMeters>NAN</DistanceMeters>
          </Trackpoint>
          <Trackpoint>
            <Time>2020-02-15T11:54:25.000Z</Time>
            <Position>
              <LatitudeDegrees>41.97364051826298236846923828125</LatitudeDegrees>
              <LongitudeDegrees>2.8273492120206356048583984375</LongitudeDegrees>
            </Position>
            <AltitudeMeters>84.8000030517578125</AltitudeMeters>
            <DistanceMeters>NAN</DistanceMeters>
          </Trackpoint>
          <Trackpoint>
            <Time>2020-02-15T11:54:27.000Z</Time>
            <Position>
              <LatitudeDegrees>41.97365828789770603179931640625</LatitudeDegrees>
              <LongitudeDegrees>2.82718366943299770355224609375</LongitudeDegrees>
            </Position>
            <AltitudeMeters>84.8000030517578125</AltitudeMeters>
            <DistanceMeters>NAN</DistanceMeters>
          </Trackpoint>
          <Trackpoint>
            <Time>2020-02-15T11:54:28.000Z</Time>
            <Position>
              <LatitudeDegrees>41.9736711122095584869384765625</LatitudeDegrees>
              <LongitudeDegrees>2.82709364779293537139892578125</LongitudeDegrees>
            </Position>
            <AltitudeMeters>84.59999847412109375</AltitudeMeters>
            <DistanceMeters>NAN</DistanceMeters>
          </Trackpoint>
          <Trackpoint>
            <Time>2020-02-15T11:54:29.000Z</Time>
            <Position>
              <LatitudeDegrees>41.9736855290830135345458984375</LatitudeDegrees>
              <LongitudeDegrees>2.82701200805604457855224609375</LongitudeDegrees>
            </Position>
            <AltitudeMeters>84.59999847412109375</AltitudeMeters>
            <DistanceMeters>NAN</DistanceMeters>
          </Trackpoint>
          <Trackpoint>
            <Time>2020-02-15T11:54:31.000Z</Time>
            <Position>
              <LatitudeDegrees>41.97371779941022396087646484375</LatitudeDegrees>
              <LongitudeDegrees>2.826853506267070770263671875</LongitudeDegrees>
            </Position>
            <AltitudeMeters>84.40000152587890625</AltitudeMeters>
            <DistanceMeters>NAN</DistanceMeters>
          </Trackpoint>
          <Trackpoint>
            <Time>2020-02-15T11:54:33.000Z</Time>
            <Position>
              <LatitudeDegrees>41.97373674251139163970947265625</LatitudeDegrees>
              <LongitudeDegrees>2.826685868203639984130859375</LongitudeDegrees>
            </Position>
            <AltitudeMeters>84</AltitudeMeters>
            <DistanceMeters>NAN</DistanceMeters>
          </Trackpoint>
          <Trackpoint>
            <Time>2020-02-15T11:54:36.000Z</Time>
            <Position>
              <LatitudeDegrees>41.97377957403659820556640625</LatitudeDegrees>
              <LongitudeDegrees>2.82643608748912811279296875</LongitudeDegrees>
            </Position>
            <AltitudeMeters>84</AltitudeMeters>
            <DistanceMeters>NAN</DistanceMeters>
          </Trackpoint>
          <Trackpoint>
            <Time>2020-02-15T11:54:37.000Z</Time>
            <Position>
              <LatitudeDegrees>41.97379642166197299957275390625</LatitudeDegrees>
              <LongitudeDegrees>2.82635386101901531219482421875</LongitudeDegrees>
            </Position>
            <AltitudeMeters>83.8000030517578125</AltitudeMeters>
            <DistanceMeters>NAN</DistanceMeters>
          </Trackpoint>
          <Trackpoint>
            <Time>2020-02-15T11:54:39.000Z</Time>
            <Position>
              <LatitudeDegrees>41.973828859627246856689453125</LatitudeDegrees>
              <LongitudeDegrees>2.82618890516459941864013671875</LongitudeDegrees>
            </Position>
            <AltitudeMeters>83.8000030517578125</AltitudeMeters>
            <DistanceMeters>NAN</DistanceMeters>
          </Trackpoint>
          <Trackpoint>
            <Time>2020-02-15T11:54:40.000Z</Time>
            <Position>
              <LatitudeDegrees>41.97384453378617763519287109375</LatitudeDegrees>
              <LongitudeDegrees>2.82610977999866008758544921875</LongitudeDegrees>
            </Position>
            <AltitudeMeters>83.8000030517578125</AltitudeMeters>
            <DistanceMeters>NAN</DistanceMeters>
          </Trackpoint>
          <Trackpoint>
            <Time>2020-02-15T11:54:41.000Z</Time>
            <Position>
              <LatitudeDegrees>41.97385869920253753662109375</LatitudeDegrees>
              <LongitudeDegrees>2.82603199593722820281982421875</LongitudeDegrees>
            </Position>
            <AltitudeMeters>83.59999847412109375</AltitudeMeters>
            <DistanceMeters>NAN</DistanceMeters>
          </Trackpoint>
          <Trackpoint>
            <Time>2020-02-15T11:54:42.000Z</Time>
            <Position>
              <LatitudeDegrees>41.97387211024761199951171875</LatitudeDegrees>
              <LongitudeDegrees>2.82595597207546234130859375</LongitudeDegrees>
            </Position>
            <AltitudeMeters>83.59999847412109375</AltitudeMeters>
            <DistanceMeters>NAN</DistanceMeters>
          </Trackpoint>
          <Trackpoint>
            <Time>2020-02-15T11:54:43.000Z</Time>
            <Position>
              <LatitudeDegrees>41.9738887064158916473388671875</LatitudeDegrees>
              <LongitudeDegrees>2.82588229514658451080322265625</LongitudeDegrees>
            </Position>
            <AltitudeMeters>83.59999847412109375</AltitudeMeters>
            <DistanceMeters>NAN</DistanceMeters>
          </Trackpoint>
          <Trackpoint>
            <Time>2020-02-15T11:54:44.000Z</Time>
            <Position>
              <LatitudeDegrees>41.97390706278383731842041015625</LatitudeDegrees>
              <LongitudeDegrees>2.82580987550318241119384765625</LongitudeDegrees>
            </Position>
            <AltitudeMeters>83.59999847412109375</AltitudeMeters>
            <DistanceMeters>NAN</DistanceMeters>
          </Trackpoint>
          <Trackpoint>
            <Time>2020-02-15T11:54:45.000Z</Time>
            <Position>
              <LatitudeDegrees>41.9739242456853389739990234375</LatitudeDegrees>
              <LongitudeDegrees>2.8257375396788120269775390625</LongitudeDegrees>
            </Position>
            <AltitudeMeters>83.40000152587890625</AltitudeMeters>
            <DistanceMeters>NAN</DistanceMeters>
          </Trackpoint>
          <Trackpoint>
            <Time>2020-02-15T11:54:46.000Z</Time>
            <Position>
              <LatitudeDegrees>41.9739403389394283294677734375</LatitudeDegrees>
              <LongitudeDegrees>2.82566604204475879669189453125</LongitudeDegrees>
            </Position>
            <AltitudeMeters>83.59999847412109375</AltitudeMeters>
            <DistanceMeters>NAN</DistanceMeters>
          </Trackpoint>
          <Trackpoint>
            <Time>2020-02-15T11:54:47.000Z</Time>
            <Position>
              <LatitudeDegrees>41.97395567782223224639892578125</LatitudeDegrees>
              <LongitudeDegrees>2.82559429295361042022705078125</LongitudeDegrees>
            </Position>
            <AltitudeMeters>83.59999847412109375</AltitudeMeters>
            <DistanceMeters>NAN</DistanceMeters>
          </Trackpoint>
          <Trackpoint>
            <Time>2020-02-15T11:54:48.000Z</Time>
            <Position>
              <LatitudeDegrees>41.97397126816213130950927734375</LatitudeDegrees>
              <LongitudeDegrees>2.8255229629576206207275390625</LongitudeDegrees>
            </Position>
            <AltitudeMeters>83.40000152587890625</AltitudeMeters>
            <DistanceMeters>NAN</DistanceMeters>
          </Trackpoint>
          <Trackpoint>
            <Time>2020-02-15T11:54:49.000Z</Time>
            <Position>
              <LatitudeDegrees>41.97398702614009380340576171875</LatitudeDegrees>
              <LongitudeDegrees>2.82545297406613826751708984375</LongitudeDegrees>
            </Position>
            <AltitudeMeters>83.40000152587890625</AltitudeMeters>
            <DistanceMeters>NAN</DistanceMeters>
          </Trackpoint>
          <Trackpoint>
            <Time>2020-02-15T11:54:50.000Z</Time>
            <Position>
              <LatitudeDegrees>41.97400211356580257415771484375</LatitudeDegrees>
              <LongitudeDegrees>2.825384326279163360595703125</LongitudeDegrees>
            </Position>
            <AltitudeMeters>83.59999847412109375</AltitudeMeters>
            <DistanceMeters>NAN</DistanceMeters>
          </Trackpoint>
          <Trackpoint>
            <Time>2020-02-15T11:54:51.000Z</Time>
            <Position>
              <LatitudeDegrees>41.974016614258289337158203125</LatitudeDegrees>
              <LongitudeDegrees>2.825317941606044769287109375</LongitudeDegrees>
            </Position>
            <AltitudeMeters>83.59999847412109375</AltitudeMeters>
            <DistanceMeters>NAN</DistanceMeters>
          </Trackpoint>
          <Trackpoint>
            <Time>2020-02-15T11:54:52.000Z</Time>
            <Position>
              <LatitudeDegrees>41.9740295223891735076904296875</LatitudeDegrees>
              <LongitudeDegrees>2.82525918446481227874755859375</LongitudeDegrees>
            </Position>
            <AltitudeMeters>83.8000030517578125</AltitudeMeters>
            <DistanceMeters>NAN</DistanceMeters>
          </Trackpoint>
          <Trackpoint>
            <Time>2020-02-15T11:54:53.000Z</Time>
            <Position>
              <LatitudeDegrees>41.97404318489134311676025390625</LatitudeDegrees>
              <LongitudeDegrees>2.82521073706448078155517578125</LongitudeDegrees>
            </Position>
            <AltitudeMeters>83.59999847412109375</AltitudeMeters>
            <DistanceMeters>NAN</DistanceMeters>
          </Trackpoint>
          <Trackpoint>
            <Time>2020-02-15T11:54:54.000Z</Time>
            <Position>
              <LatitudeDegrees>41.974060200154781341552734375</LatitudeDegrees>
              <LongitudeDegrees>2.8251695819199085235595703125</LongitudeDegrees>
            </Position>
            <AltitudeMeters>83.8000030517578125</AltitudeMeters>
            <DistanceMeters>NAN</DistanceMeters>
          </Trackpoint>
          <Trackpoint>
            <Time>2020-02-15T11:54:55.000Z</Time>
            <Position>
              <LatitudeDegrees>41.9740845076739788055419921875</LatitudeDegrees>
              <LongitudeDegrees>2.82513814978301525115966796875</LongitudeDegrees>
            </Position>
            <AltitudeMeters>83.59999847412109375</AltitudeMeters>
            <DistanceMeters>NAN</DistanceMeters>
          </Trackpoint>
          <Trackpoint>
            <Time>2020-02-15T11:54:56.000Z</Time>
            <Position>
              <LatitudeDegrees>41.9741160236299037933349609375</LatitudeDegrees>
              <LongitudeDegrees>2.82511652447283267974853515625</LongitudeDegrees>
            </Position>
            <AltitudeMeters>83.59999847412109375</AltitudeMeters>
            <DistanceMeters>NAN</DistanceMeters>
          </Trackpoint>
          <Trackpoint>
            <Time>2020-02-15T11:54:57.000Z</Time>
            <Position>
              <LatitudeDegrees>41.97415298782289028167724609375</LatitudeDegrees>
              <LongitudeDegrees>2.82510571181774139404296875</LongitudeDegrees>
            </Position>
            <AltitudeMeters>83.8000030517578125</AltitudeMeters>
            <DistanceMeters>NAN</DistanceMeters>
          </Trackpoint>
          <Trackpoint>
            <Time>2020-02-15T11:54:58.000Z</Time>
            <Position>
              <LatitudeDegrees>41.9741924665868282318115234375</LatitudeDegrees>
              <LongitudeDegrees>2.8251015208661556243896484375</LongitudeDegrees>
            </Position>
            <AltitudeMeters>83.59999847412109375</AltitudeMeters>
            <DistanceMeters>NAN</DistanceMeters>
          </Trackpoint>
          <Trackpoint>
            <Time>2020-02-15T11:54:59.000Z</Time>
            <Position>
              <LatitudeDegrees>41.97423328645527362823486328125</LatitudeDegrees>
              <LongitudeDegrees>2.82509255222976207733154296875</LongitudeDegrees>
            </Position>
            <AltitudeMeters>83.8000030517578125</AltitudeMeters>
            <DistanceMeters>NAN</DistanceMeters>
          </Trackpoint>
          <Trackpoint>
            <Time>2020-02-15T11:55:01.000Z</Time>
            <Position>
              <LatitudeDegrees>41.9743185304105281829833984375</LatitudeDegrees>
              <LongitudeDegrees>2.82506371848285198211669921875</LongitudeDegrees>
            </Position>
            <AltitudeMeters>83.59999847412109375</AltitudeMeters>
            <DistanceMeters>NAN</DistanceMeters>
          </Trackpoint>
          <Trackpoint>
            <Time>2020-02-15T11:55:02.000Z</Time>
            <Position>
              <LatitudeDegrees>41.97436018846929073333740234375</LatitudeDegrees>
              <LongitudeDegrees>2.82503924332559108734130859375</LongitudeDegrees>
            </Position>
            <AltitudeMeters>83.59999847412109375</AltitudeMeters>
            <DistanceMeters>NAN</DistanceMeters>
          </Trackpoint>
          <Trackpoint>
            <Time>2020-02-15T11:55:03.000Z</Time>
            <Position>
              <LatitudeDegrees>41.9744000025093555450439453125</LatitudeDegrees>
              <LongitudeDegrees>2.82501057721674442291259765625</LongitudeDegrees>
            </Position>
            <AltitudeMeters>83.8000030517578125</AltitudeMeters>
            <DistanceMeters>NAN</DistanceMeters>
          </Trackpoint>
          <Trackpoint>
            <Time>2020-02-15T11:55:04.000Z</Time>
            <Position>
              <LatitudeDegrees>41.97443612851202487945556640625</LatitudeDegrees>
              <LongitudeDegrees>2.824974954128265380859375</LongitudeDegrees>
            </Position>
            <AltitudeMeters>83.8000030517578125</AltitudeMeters>
            <DistanceMeters>NAN</DistanceMeters>
          </Trackpoint>
          <Trackpoint>
            <Time>2020-02-15T11:55:05.000Z</Time>
            <Position>
              <LatitudeDegrees>41.97446395643055438995361328125</LatitudeDegrees>
              <LongitudeDegrees>2.82493329606950283050537109375</LongitudeDegrees>
            </Position>
            <AltitudeMeters>83.8000030517578125</AltitudeMeters>
            <DistanceMeters>NAN</DistanceMeters>
          </Trackpoint>
          <Trackpoint>
            <Time>2020-02-15T11:55:06.000Z</Time>
            <Position>
              <LatitudeDegrees>41.97448231279850006103515625</LatitudeDegrees>
              <LongitudeDegrees>2.82489272765815258026123046875</LongitudeDegrees>
            </Position>
            <AltitudeMeters>83.8000030517578125</AltitudeMeters>
            <DistanceMeters>NAN</DistanceMeters>
          </Trackpoint>
          <Trackpoint>
            <Time>2020-02-15T11:55:07.000Z</Time>
            <Position>
              <LatitudeDegrees>41.974496729671955108642578125</LatitudeDegrees>
              <LongitudeDegrees>2.8248607926070690155029296875</LongitudeDegrees>
            </Position>
            <AltitudeMeters>83.8000030517578125</AltitudeMeters>
            <DistanceMeters>NAN</DistanceMeters>
          </Trackpoint>
          <Trackpoint>
            <Time>2020-02-15T11:55:08.000Z</Time>
            <Position>
              <LatitudeDegrees>41.97451190091669559478759765625</LatitudeDegrees>
              <LongitudeDegrees>2.82483422197401523590087890625</LongitudeDegrees>
            </Position>
            <AltitudeMeters>83.8000030517578125</AltitudeMeters>
            <DistanceMeters>NAN</DistanceMeters>
          </Trackpoint>
          <Trackpoint>
            <Time>2020-02-15T11:55:09.000Z</Time>
            <Position>
              <LatitudeDegrees>41.97453671135008335113525390625</LatitudeDegrees>
              <LongitudeDegrees>2.8248115070164203643798828125</LongitudeDegrees>
            </Position>
            <AltitudeMeters>83.59999847412109375</AltitudeMeters>
            <DistanceMeters>NAN</DistanceMeters>
          </Trackpoint>
          <Trackpoint>
            <Time>2020-02-15T11:55:10.000Z</Time>
            <Position>
              <LatitudeDegrees>41.97456973604857921600341796875</LatitudeDegrees>
              <LongitudeDegrees>2.824802957475185394287109375</LongitudeDegrees>
            </Position>
            <AltitudeMeters>83.8000030517578125</AltitudeMeters>
            <DistanceMeters>NAN</DistanceMeters>
          </Trackpoint>
          <Trackpoint>
            <Time>2020-02-15T11:55:11.000Z</Time>
            <Position>
              <LatitudeDegrees>41.97460544295608997344970703125</LatitudeDegrees>
              <LongitudeDegrees>2.8248165361583232879638671875</LongitudeDegrees>
            </Position>
            <AltitudeMeters>83.8000030517578125</AltitudeMeters>
            <DistanceMeters>NAN</DistanceMeters>
          </Trackpoint>
          <Trackpoint>
            <Time>2020-02-15T11:55:12.000Z</Time>
            <Position>
              <LatitudeDegrees>41.974650286138057708740234375</LatitudeDegrees>
              <LongitudeDegrees>2.82484143041074275970458984375</LongitudeDegrees>
            </Position>
            <AltitudeMeters>83.59999847412109375</AltitudeMeters>
            <DistanceMeters>NAN</DistanceMeters>
          </Trackpoint>
          <Trackpoint>
            <Time>2020-02-15T11:55:13.000Z</Time>
            <Position>
              <LatitudeDegrees>41.9747044332325458526611328125</LatitudeDegrees>
              <LongitudeDegrees>2.82487370073795318603515625</LongitudeDegrees>
            </Position>
            <AltitudeMeters>83.59999847412109375</AltitudeMeters>
            <DistanceMeters>NAN</DistanceMeters>
          </Trackpoint>
          <Trackpoint>
            <Time>2020-02-15T11:55:14.000Z</Time>
            <Position>
              <LatitudeDegrees>41.97475883178412914276123046875</LatitudeDegrees>
              <LongitudeDegrees>2.82490965910255908966064453125</LongitudeDegrees>
            </Position>
            <AltitudeMeters>83.40000152587890625</AltitudeMeters>
            <DistanceMeters>NAN</DistanceMeters>
          </Trackpoint>
          <Trackpoint>
            <Time>2020-02-15T11:55:16.000Z</Time>
            <Position>
              <LatitudeDegrees>41.9748502783477306365966796875</LatitudeDegrees>
              <LongitudeDegrees>2.82498341985046863555908203125</LongitudeDegrees>
            </Position>
            <AltitudeMeters>83.40000152587890625</AltitudeMeters>
            <DistanceMeters>NAN</DistanceMeters>
          </Trackpoint>
          <Trackpoint>
            <Time>2020-02-15T11:55:17.000Z</Time>
            <Position>
              <LatitudeDegrees>41.974891684949398040771484375</LatitudeDegrees>
              <LongitudeDegrees>2.82501912675797939300537109375</LongitudeDegrees>
            </Position>
            <AltitudeMeters>83.40000152587890625</AltitudeMeters>
            <DistanceMeters>NAN</DistanceMeters>
          </Trackpoint>
          <Trackpoint>
            <Time>2020-02-15T11:55:18.000Z</Time>
            <Position>
              <LatitudeDegrees>41.97493032552301883697509765625</LatitudeDegrees>
              <LongitudeDegrees>2.82504963688552379608154296875</LongitudeDegrees>
            </Position>
            <AltitudeMeters>83.40000152587890625</AltitudeMeters>
            <DistanceMeters>NAN</DistanceMeters>
          </Trackpoint>
          <Trackpoint>
            <Time>2020-02-15T11:55:19.000Z</Time>
            <Position>
              <LatitudeDegrees>41.9749639369547367095947265625</LatitudeDegrees>
              <LongitudeDegrees>2.82507729716598987579345703125</LongitudeDegrees>
            </Position>
            <AltitudeMeters>83.1999969482421875</AltitudeMeters>
            <DistanceMeters>NAN</DistanceMeters>
          </Trackpoint>
          <Trackpoint>
            <Time>2020-02-15T11:55:20.000Z</Time>
            <Position>
              <LatitudeDegrees>41.97499151341617107391357421875</LatitudeDegrees>
              <LongitudeDegrees>2.8251031972467899322509765625</LongitudeDegrees>
            </Position>
            <AltitudeMeters>83.1999969482421875</AltitudeMeters>
            <DistanceMeters>NAN</DistanceMeters>
          </Trackpoint>
          <Trackpoint>
            <Time>2020-02-15T11:55:21.000Z</Time>
            <Position>
              <LatitudeDegrees>41.9750138930976390838623046875</LatitudeDegrees>
              <LongitudeDegrees>2.82512373290956020355224609375</LongitudeDegrees>
            </Position>
            <AltitudeMeters>83.1999969482421875</AltitudeMeters>
            <DistanceMeters>NAN</DistanceMeters>
          </Trackpoint>
          <Trackpoint>
            <Time>2020-02-15T11:55:22.000Z</Time>
            <Position>
              <LatitudeDegrees>41.975028477609157562255859375</LatitudeDegrees>
              <LongitudeDegrees>2.8251347132027149200439453125</LongitudeDegrees>
            </Position>
            <AltitudeMeters>83.1999969482421875</AltitudeMeters>
            <DistanceMeters>NAN</DistanceMeters>
          </Trackpoint>
          <Trackpoint>
            <Time>2020-02-15T11:55:23.000Z</Time>
            <Position>
              <LatitudeDegrees>41.97503350675106048583984375</LatitudeDegrees>
              <LongitudeDegrees>2.8251372277736663818359375</LongitudeDegrees>
            </Position>
            <AltitudeMeters>83</AltitudeMeters>
            <DistanceMeters>NAN</DistanceMeters>
          </Trackpoint>
          <Trackpoint>
            <Time>2020-02-15T11:55:31.000Z</Time>
            <Position>
              <LatitudeDegrees>41.97503861971199512481689453125</LatitudeDegrees>
              <LongitudeDegrees>2.825141586363315582275390625</LongitudeDegrees>
            </Position>
            <AltitudeMeters>82.8000030517578125</AltitudeMeters>
            <DistanceMeters>NAN</DistanceMeters>
          </Trackpoint>
          <Trackpoint>
            <Time>2020-02-15T11:55:35.000Z</Time>
            <Position>
              <LatitudeDegrees>41.97503887116909027099609375</LatitudeDegrees>
              <LongitudeDegrees>2.82514200545847415924072265625</LongitudeDegrees>
            </Position>
            <AltitudeMeters>82.8000030517578125</AltitudeMeters>
            <DistanceMeters>NAN</DistanceMeters>
          </Trackpoint>
          <Trackpoint>
            <Time>2020-02-15T11:55:44.000Z</Time>
            <Position>
              <LatitudeDegrees>41.975039206445217132568359375</LatitudeDegrees>
              <LongitudeDegrees>2.8251424245536327362060546875</LongitudeDegrees>
            </Position>
            <AltitudeMeters>82.8000030517578125</AltitudeMeters>
            <DistanceMeters>NAN</DistanceMeters>
          </Trackpoint>
          <Trackpoint>
            <Time>2020-02-15T11:55:45.000Z</Time>
            <Position>
              <LatitudeDegrees>41.975039206445217132568359375</LatitudeDegrees>
              <LongitudeDegrees>2.82514250837266445159912109375</LongitudeDegrees>
            </Position>
            <AltitudeMeters>82.8000030517578125</AltitudeMeters>
            <DistanceMeters>NAN</DistanceMeters>
          </Trackpoint>
          <Trackpoint>
            <Time>2020-02-15T11:55:47.000Z</Time>
            <Position>
              <LatitudeDegrees>41.9750393740832805633544921875</LatitudeDegrees>
              <LongitudeDegrees>2.8251425921916961669921875</LongitudeDegrees>
            </Position>
            <AltitudeMeters>82.59999847412109375</AltitudeMeters>
            <DistanceMeters>NAN</DistanceMeters>
          </Trackpoint>
          <Trackpoint>
            <Time>2020-02-15T11:55:58.000Z</Time>
            <Position>
              <LatitudeDegrees>41.97503912262618541717529296875</LatitudeDegrees>
              <LongitudeDegrees>2.82514301128685474395751953125</LongitudeDegrees>
            </Position>
            <AltitudeMeters>82.8000030517578125</AltitudeMeters>
            <DistanceMeters>NAN</DistanceMeters>
          </Trackpoint>
          <Trackpoint>
            <Time>2020-02-15T11:56:03.000Z</Time>
            <Position>
              <LatitudeDegrees>41.97503878735005855560302734375</LatitudeDegrees>
              <LongitudeDegrees>2.825142927467823028564453125</LongitudeDegrees>
            </Position>
            <AltitudeMeters>83</AltitudeMeters>
            <DistanceMeters>NAN</DistanceMeters>
          </Trackpoint>
          <Trackpoint>
            <Time>2020-02-15T11:56:06.000Z</Time>
            <Position>
              <LatitudeDegrees>41.97503878735005855560302734375</LatitudeDegrees>
              <LongitudeDegrees>2.8251427598297595977783203125</LongitudeDegrees>
            </Position>
            <AltitudeMeters>82.8000030517578125</AltitudeMeters>
            <DistanceMeters>NAN</DistanceMeters>
          </Trackpoint>
          <Trackpoint>
            <Time>2020-02-15T11:56:10.000Z</Time>
            <Position>
              <LatitudeDegrees>41.9750387035310268402099609375</LatitudeDegrees>
              <LongitudeDegrees>2.82514250837266445159912109375</LongitudeDegrees>
            </Position>
            <AltitudeMeters>82.8000030517578125</AltitudeMeters>
            <DistanceMeters>NAN</DistanceMeters>
          </Trackpoint>
          <Trackpoint>
            <Time>2020-02-15T11:56:19.000Z</Time>
            <Position>
              <LatitudeDegrees>41.975038535892963409423828125</LatitudeDegrees>
              <LongitudeDegrees>2.8251417540013790130615234375</LongitudeDegrees>
            </Position>
            <AltitudeMeters>82.8000030517578125</AltitudeMeters>
            <DistanceMeters>NAN</DistanceMeters>
          </Trackpoint>
          <Trackpoint>
            <Time>2020-02-15T11:56:21.000Z</Time>
            <Position>
              <LatitudeDegrees>41.97505018673837184906005859375</LatitudeDegrees>
              <LongitudeDegrees>2.825147621333599090576171875</LongitudeDegrees>
            </Position>
            <AltitudeMeters>82.8000030517578125</AltitudeMeters>
            <DistanceMeters>NAN</DistanceMeters>
          </Trackpoint>
          <Trackpoint>
            <Time>2020-02-15T11:56:22.000Z</Time>
            <Position>
              <LatitudeDegrees>41.97507080622017383575439453125</LatitudeDegrees>
              <LongitudeDegrees>2.82515457831323146820068359375</LongitudeDegrees>
            </Position>
            <AltitudeMeters>82.8000030517578125</AltitudeMeters>
            <DistanceMeters>NAN</DistanceMeters>
          </Trackpoint>
          <Trackpoint>
            <Time>2020-02-15T11:56:23.000Z</Time>
            <Position>
              <LatitudeDegrees>41.975098215043544769287109375</LatitudeDegrees>
              <LongitudeDegrees>2.82516011036932468414306640625</LongitudeDegrees>
            </Position>
            <AltitudeMeters>82.8000030517578125</AltitudeMeters>
            <DistanceMeters>NAN</DistanceMeters>
          </Trackpoint>
          <Trackpoint>
            <Time>2020-02-15T11:56:24.000Z</Time>
            <Position>
              <LatitudeDegrees>41.97513501159846782684326171875</LatitudeDegrees>
              <LongitudeDegrees>2.82516128383576869964599609375</LongitudeDegrees>
            </Position>
            <AltitudeMeters>82.8000030517578125</AltitudeMeters>
            <DistanceMeters>NAN</DistanceMeters>
          </Trackpoint>
          <Trackpoint>
            <Time>2020-02-15T11:56:25.000Z</Time>
            <Position>
              <LatitudeDegrees>41.975178681313991546630859375</LatitudeDegrees>
              <LongitudeDegrees>2.82515474595129489898681640625</LongitudeDegrees>
            </Position>
            <AltitudeMeters>82.59999847412109375</AltitudeMeters>
            <DistanceMeters>NAN</DistanceMeters>
          </Trackpoint>
          <Trackpoint>
            <Time>2020-02-15T11:56:26.000Z</Time>
            <Position>
              <LatitudeDegrees>41.97522637434303760528564453125</LatitudeDegrees>
              <LongitudeDegrees>2.82513563521206378936767578125</LongitudeDegrees>
            </Position>
            <AltitudeMeters>82.8000030517578125</AltitudeMeters>
            <DistanceMeters>NAN</DistanceMeters>
          </Trackpoint>
          <Trackpoint>
            <Time>2020-02-15T11:56:27.000Z</Time>
            <Position>
              <LatitudeDegrees>41.97527515701949596405029296875</LatitudeDegrees>
              <LongitudeDegrees>2.825099341571331024169921875</LongitudeDegrees>
            </Position>
            <AltitudeMeters>82.8000030517578125</AltitudeMeters>
            <DistanceMeters>NAN</DistanceMeters>
          </Trackpoint>
          <Trackpoint>
            <Time>2020-02-15T11:56:28.000Z</Time>
            <Position>
              <LatitudeDegrees>41.97532854974269866943359375</LatitudeDegrees>
              <LongitudeDegrees>2.82505097799003124237060546875</LongitudeDegrees>
            </Position>
            <AltitudeMeters>82.8000030517578125</AltitudeMeters>
            <DistanceMeters>NAN</DistanceMeters>
          </Trackpoint>
          <Trackpoint>
            <Time>2020-02-15T11:56:30.000Z</Time>
            <Position>
              <LatitudeDegrees>41.975444890558719635009765625</LatitudeDegrees>
              <LongitudeDegrees>2.8249322064220905303955078125</LongitudeDegrees>
            </Position>
            <AltitudeMeters>82.59999847412109375</AltitudeMeters>
            <DistanceMeters>NAN</DistanceMeters>
          </Trackpoint>
          <Trackpoint>
            <Time>2020-02-15T11:56:32.000Z</Time>
            <Position>
              <LatitudeDegrees>41.9755744747817516326904296875</LatitudeDegrees>
              <LongitudeDegrees>2.82480974681675434112548828125</LongitudeDegrees>
            </Position>
            <AltitudeMeters>82.8000030517578125</AltitudeMeters>
            <DistanceMeters>NAN</DistanceMeters>
          </Trackpoint>
          <Trackpoint>
            <Time>2020-02-15T11:56:33.000Z</Time>
            <Position>
              <LatitudeDegrees>41.975644044578075408935546875</LatitudeDegrees>
              <LongitudeDegrees>2.82475090585649013519287109375</LongitudeDegrees>
            </Position>
            <AltitudeMeters>82.59999847412109375</AltitudeMeters>
            <DistanceMeters>NAN</DistanceMeters>
          </Trackpoint>
          <Trackpoint>
            <Time>2020-02-15T11:56:35.000Z</Time>
            <Position>
              <LatitudeDegrees>41.9757853634655475616455078125</LatitudeDegrees>
              <LongitudeDegrees>2.82464043237268924713134765625</LongitudeDegrees>
            </Position>
            <AltitudeMeters>82.40000152587890625</AltitudeMeters>
            <DistanceMeters>NAN</DistanceMeters>
          </Trackpoint>
          <Trackpoint>
            <Time>2020-02-15T11:56:36.000Z</Time>
            <Position>
              <LatitudeDegrees>41.975856609642505645751953125</LatitudeDegrees>
              <LongitudeDegrees>2.82458812929689884185791015625</LongitudeDegrees>
            </Position>
            <AltitudeMeters>82.1999969482421875</AltitudeMeters>
            <DistanceMeters>NAN</DistanceMeters>
          </Trackpoint>
          <Trackpoint>
            <Time>2020-02-15T11:56:38.000Z</Time>
            <Position>
              <LatitudeDegrees>41.976004801690578460693359375</LatitudeDegrees>
              <LongitudeDegrees>2.8244862891733646392822265625</LongitudeDegrees>
            </Position>
            <AltitudeMeters>82</AltitudeMeters>
            <DistanceMeters>NAN</DistanceMeters>
          </Trackpoint>
          <Trackpoint>
            <Time>2020-02-15T11:56:40.000Z</Time>
            <Position>
              <LatitudeDegrees>41.976157017052173614501953125</LatitudeDegrees>
              <LongitudeDegrees>2.82440037466585636138916015625</LongitudeDegrees>
            </Position>
            <AltitudeMeters>81.59999847412109375</AltitudeMeters>
            <DistanceMeters>NAN</DistanceMeters>
          </Trackpoint>
          <Trackpoint>
            <Time>2020-02-15T11:56:41.000Z</Time>
            <Position>
              <LatitudeDegrees>41.97623186744749546051025390625</LatitudeDegrees>
              <LongitudeDegrees>2.82436667941510677337646484375</LongitudeDegrees>
            </Position>
            <AltitudeMeters>81.59999847412109375</AltitudeMeters>
            <DistanceMeters>NAN</DistanceMeters>
          </Trackpoint>
          <Trackpoint>
            <Time>2020-02-15T11:56:42.000Z</Time>
            <Position>
              <LatitudeDegrees>41.97630755603313446044921875</LatitudeDegrees>
              <LongitudeDegrees>2.8243330679833889007568359375</LongitudeDegrees>
            </Position>
            <AltitudeMeters>81.59999847412109375</AltitudeMeters>
            <DistanceMeters>NAN</DistanceMeters>
          </Trackpoint>
          <Trackpoint>
            <Time>2020-02-15T11:56:43.000Z</Time>
            <Position>
              <LatitudeDegrees>41.976385675370693206787109375</LatitudeDegrees>
              <LongitudeDegrees>2.8243049047887325286865234375</LongitudeDegrees>
            </Position>
            <AltitudeMeters>81.40000152587890625</AltitudeMeters>
            <DistanceMeters>NAN</DistanceMeters>
          </Trackpoint>
          <Trackpoint>
            <Time>2020-02-15T11:56:45.000Z</Time>
            <Position>
              <LatitudeDegrees>41.97653898037970066070556640625</LatitudeDegrees>
              <LongitudeDegrees>2.82426157034933567047119140625</LongitudeDegrees>
            </Position>
            <AltitudeMeters>81.59999847412109375</AltitudeMeters>
            <DistanceMeters>NAN</DistanceMeters>
          </Trackpoint>
          <Trackpoint>
            <Time>2020-02-15T11:56:46.000Z</Time>
            <Position>
              <LatitudeDegrees>41.9766165129840373992919921875</LatitudeDegrees>
              <LongitudeDegrees>2.824253104627132415771484375</LongitudeDegrees>
            </Position>
            <AltitudeMeters>81.40000152587890625</AltitudeMeters>
            <DistanceMeters>NAN</DistanceMeters>
          </Trackpoint>
          <Trackpoint>
            <Time>2020-02-15T11:56:47.000Z</Time>
            <Position>
              <LatitudeDegrees>41.9766926206648349761962890625</LatitudeDegrees>
              <LongitudeDegrees>2.8242480754852294921875</LongitudeDegrees>
            </Position>
            <AltitudeMeters>81.40000152587890625</AltitudeMeters>
            <DistanceMeters>NAN</DistanceMeters>
          </Trackpoint>
          <Trackpoint>
            <Time>2020-02-15T11:56:48.000Z</Time>
            <Position>
              <LatitudeDegrees>41.97676512412726879119873046875</LatitudeDegrees>
              <LongitudeDegrees>2.82424815930426120758056640625</LongitudeDegrees>
            </Position>
            <AltitudeMeters>81.40000152587890625</AltitudeMeters>
            <DistanceMeters>NAN</DistanceMeters>
          </Trackpoint>
          <Trackpoint>
            <Time>2020-02-15T11:56:49.000Z</Time>
            <Position>
              <LatitudeDegrees>41.97683318518102169036865234375</LatitudeDegrees>
              <LongitudeDegrees>2.8242338262498378753662109375</LongitudeDegrees>
            </Position>
            <AltitudeMeters>81.40000152587890625</AltitudeMeters>
            <DistanceMeters>NAN</DistanceMeters>
          </Trackpoint>
          <Trackpoint>
            <Time>2020-02-15T11:56:50.000Z</Time>
            <Position>
              <LatitudeDegrees>41.97690644301474094390869140625</LatitudeDegrees>
              <LongitudeDegrees>2.8242435492575168609619140625</LongitudeDegrees>
            </Position>
            <AltitudeMeters>81.59999847412109375</AltitudeMeters>
            <DistanceMeters>NAN</DistanceMeters>
          </Trackpoint>
          <Trackpoint>
            <Time>2020-02-15T11:56:51.000Z</Time>
            <Position>
              <LatitudeDegrees>41.976977773010730743408203125</LatitudeDegrees>
              <LongitudeDegrees>2.824253775179386138916015625</LongitudeDegrees>
            </Position>
            <AltitudeMeters>81.40000152587890625</AltitudeMeters>
            <DistanceMeters>NAN</DistanceMeters>
          </Trackpoint>
          <Trackpoint>
            <Time>2020-02-15T11:56:52.000Z</Time>
            <Position>
              <LatitudeDegrees>41.9770436547696590423583984375</LatitudeDegrees>
              <LongitudeDegrees>2.8242623247206211090087890625</LongitudeDegrees>
            </Position>
            <AltitudeMeters>81.40000152587890625</AltitudeMeters>
            <DistanceMeters>NAN</DistanceMeters>
          </Trackpoint>
          <Trackpoint>
            <Time>2020-02-15T11:56:53.000Z</Time>
            <Position>
              <LatitudeDegrees>41.97711062617599964141845703125</LatitudeDegrees>
              <LongitudeDegrees>2.82426752150058746337890625</LongitudeDegrees>
            </Position>
            <AltitudeMeters>81.59999847412109375</AltitudeMeters>
            <DistanceMeters>NAN</DistanceMeters>
          </Trackpoint>
          <Trackpoint>
            <Time>2020-02-15T11:56:54.000Z</Time>
            <Position>
              <LatitudeDegrees>41.9771740771830081939697265625</LatitudeDegrees>
              <LongitudeDegrees>2.8242743946611881256103515625</LongitudeDegrees>
            </Position>
            <AltitudeMeters>81.59999847412109375</AltitudeMeters>
            <DistanceMeters>NAN</DistanceMeters>
          </Trackpoint>
          <Trackpoint>
            <Time>2020-02-15T11:56:55.000Z</Time>
            <Position>
              <LatitudeDegrees>41.977230571210384368896484375</LatitudeDegrees>
              <LongitudeDegrees>2.82428051345050334930419921875</LongitudeDegrees>
            </Position>
            <AltitudeMeters>81.59999847412109375</AltitudeMeters>
            <DistanceMeters>NAN</DistanceMeters>
          </Trackpoint>
          <Trackpoint>
            <Time>2020-02-15T11:56:56.000Z</Time>
            <Position>
              <LatitudeDegrees>41.97728027589619159698486328125</LatitudeDegrees>
              <LongitudeDegrees>2.8242857940495014190673828125</LongitudeDegrees>
            </Position>
            <AltitudeMeters>81.40000152587890625</AltitudeMeters>
            <DistanceMeters>NAN</DistanceMeters>
          </Trackpoint>
          <Trackpoint>
            <Time>2020-02-15T11:56:57.000Z</Time>
            <Position>
              <LatitudeDegrees>41.9773246161639690399169921875</LatitudeDegrees>
              <LongitudeDegrees>2.824287302792072296142578125</LongitudeDegrees>
            </Position>
            <AltitudeMeters>81.59999847412109375</AltitudeMeters>
            <DistanceMeters>NAN</DistanceMeters>
          </Trackpoint>
          <Trackpoint>
            <Time>2020-02-15T11:56:58.000Z</Time>
            <Position>
              <LatitudeDegrees>41.977361999452114105224609375</LatitudeDegrees>
              <LongitudeDegrees>2.8242891468107700347900390625</LongitudeDegrees>
            </Position>
            <AltitudeMeters>81.40000152587890625</AltitudeMeters>
            <DistanceMeters>NAN</DistanceMeters>
          </Trackpoint>
          <Trackpoint>
            <Time>2020-02-15T11:56:59.000Z</Time>
            <Position>
              <LatitudeDegrees>41.977393515408039093017578125</LatitudeDegrees>
              <LongitudeDegrees>2.82429090701043605804443359375</LongitudeDegrees>
            </Position>
            <AltitudeMeters>81.40000152587890625</AltitudeMeters>
            <DistanceMeters>NAN</DistanceMeters>
          </Trackpoint>
          <Trackpoint>
            <Time>2020-02-15T11:57:00.000Z</Time>
            <Position>
              <LatitudeDegrees>41.9774181582033634185791015625</LatitudeDegrees>
              <LongitudeDegrees>2.82429174520075321197509765625</LongitudeDegrees>
            </Position>
            <AltitudeMeters>81.59999847412109375</AltitudeMeters>
            <DistanceMeters>NAN</DistanceMeters>
          </Trackpoint>
          <Trackpoint>
            <Time>2020-02-15T11:57:01.000Z</Time>
            <Position>
              <LatitudeDegrees>41.97743768803775310516357421875</LatitudeDegrees>
              <LongitudeDegrees>2.82428990118205547332763671875</LongitudeDegrees>
            </Position>
            <AltitudeMeters>81.40000152587890625</AltitudeMeters>
            <DistanceMeters>NAN</DistanceMeters>
          </Trackpoint>
          <Trackpoint>
            <Time>2020-02-15T11:57:02.000Z</Time>
            <Position>
              <LatitudeDegrees>41.9774550385773181915283203125</LatitudeDegrees>
              <LongitudeDegrees>2.82428688369691371917724609375</LongitudeDegrees>
            </Position>
            <AltitudeMeters>81.40000152587890625</AltitudeMeters>
            <DistanceMeters>NAN</DistanceMeters>
          </Trackpoint>
          <Trackpoint>
            <Time>2020-02-15T11:57:03.000Z</Time>
            <Position>
              <LatitudeDegrees>41.97746920399367809295654296875</LatitudeDegrees>
              <LongitudeDegrees>2.8242844529449939727783203125</LongitudeDegrees>
            </Position>
            <AltitudeMeters>81.40000152587890625</AltitudeMeters>
            <DistanceMeters>NAN</DistanceMeters>
          </Trackpoint>
          <Trackpoint>
            <Time>2020-02-15T11:57:04.000Z</Time>
            <Position>
              <LatitudeDegrees>41.97748060338199138641357421875</LatitudeDegrees>
              <LongitudeDegrees>2.824282944202423095703125</LongitudeDegrees>
            </Position>
            <AltitudeMeters>81.40000152587890625</AltitudeMeters>
            <DistanceMeters>NAN</DistanceMeters>
          </Trackpoint>
          <Trackpoint>
            <Time>2020-02-15T11:57:05.000Z</Time>
            <Position>
              <LatitudeDegrees>41.9774905778467655181884765625</LatitudeDegrees>
              <LongitudeDegrees>2.82427900470793247222900390625</LongitudeDegrees>
            </Position>
            <AltitudeMeters>81.40000152587890625</AltitudeMeters>
            <DistanceMeters>NAN</DistanceMeters>
          </Trackpoint>
          <Trackpoint>
            <Time>2020-02-15T11:57:06.000Z</Time>
            <Position>
              <LatitudeDegrees>41.97750055231153964996337890625</LatitudeDegrees>
              <LongitudeDegrees>2.82427380792796611785888671875</LongitudeDegrees>
            </Position>
            <AltitudeMeters>81.40000152587890625</AltitudeMeters>
            <DistanceMeters>NAN</DistanceMeters>
          </Trackpoint>
          <Trackpoint>
            <Time>2020-02-15T11:57:07.000Z</Time>
            <Position>
              <LatitudeDegrees>41.977510191500186920166015625</LatitudeDegrees>
              <LongitudeDegrees>2.82426794059574604034423828125</LongitudeDegrees>
            </Position>
            <AltitudeMeters>81.40000152587890625</AltitudeMeters>
            <DistanceMeters>NAN</DistanceMeters>
          </Trackpoint>
          <Trackpoint>
            <Time>2020-02-15T11:57:08.000Z</Time>
            <Position>
              <LatitudeDegrees>41.977520249783992767333984375</LatitudeDegrees>
              <LongitudeDegrees>2.824263162910938262939453125</LongitudeDegrees>
            </Position>
            <AltitudeMeters>81.1999969482421875</AltitudeMeters>
            <DistanceMeters>NAN</DistanceMeters>
          </Trackpoint>
          <Trackpoint>
            <Time>2020-02-15T11:57:09.000Z</Time>
            <Position>
              <LatitudeDegrees>41.97753072716295719146728515625</LatitudeDegrees>
              <LongitudeDegrees>2.82425947487354278564453125</LongitudeDegrees>
            </Position>
            <AltitudeMeters>81</AltitudeMeters>
            <DistanceMeters>NAN</DistanceMeters>
          </Trackpoint>
          <Trackpoint>
            <Time>2020-02-15T11:57:11.000Z</Time>
            <Position>
              <LatitudeDegrees>41.9775438867509365081787109375</LatitudeDegrees>
              <LongitudeDegrees>2.824250757694244384765625</LongitudeDegrees>
            </Position>
            <AltitudeMeters>81</AltitudeMeters>
            <DistanceMeters>NAN</DistanceMeters>
          </Trackpoint>
          <Trackpoint>
            <Time>2020-02-15T11:57:12.000Z</Time>
            <Position>
              <LatitudeDegrees>41.97754539549350738525390625</LatitudeDegrees>
              <LongitudeDegrees>2.82424346543848514556884765625</LongitudeDegrees>
            </Position>
            <AltitudeMeters>81</AltitudeMeters>
            <DistanceMeters>NAN</DistanceMeters>
          </Trackpoint>
          <Trackpoint>
            <Time>2020-02-15T11:57:13.000Z</Time>
            <Position>
              <LatitudeDegrees>41.97754581458866596221923828125</LatitudeDegrees>
              <LongitudeDegrees>2.82423860393464565277099609375</LongitudeDegrees>
            </Position>
            <AltitudeMeters>81</AltitudeMeters>
            <DistanceMeters>NAN</DistanceMeters>
          </Trackpoint>
          <Trackpoint>
            <Time>2020-02-15T11:57:14.000Z</Time>
            <Position>
              <LatitudeDegrees>41.97754598222672939300537109375</LatitudeDegrees>
              <LongitudeDegrees>2.82423508353531360626220703125</LongitudeDegrees>
            </Position>
            <AltitudeMeters>81</AltitudeMeters>
            <DistanceMeters>NAN</DistanceMeters>
          </Trackpoint>
          <Trackpoint>
            <Time>2020-02-15T11:57:26.000Z</Time>
            <Position>
              <LatitudeDegrees>41.97755838744342327117919921875</LatitudeDegrees>
              <LongitudeDegrees>2.82424279488623142242431640625</LongitudeDegrees>
            </Position>
            <AltitudeMeters>80.8000030517578125</AltitudeMeters>
            <DistanceMeters>NAN</DistanceMeters>
          </Trackpoint>
          <Trackpoint>
            <Time>2020-02-15T11:57:27.000Z</Time>
            <Position>
              <LatitudeDegrees>41.97756777517497539520263671875</LatitudeDegrees>
              <LongitudeDegrees>2.82424447126686573028564453125</LongitudeDegrees>
            </Position>
            <AltitudeMeters>80.8000030517578125</AltitudeMeters>
            <DistanceMeters>NAN</DistanceMeters>
          </Trackpoint>
          <Trackpoint>
            <Time>2020-02-15T11:57:28.000Z</Time>
            <Position>
              <LatitudeDegrees>41.977581940591335296630859375</LatitudeDegrees>
              <LongitudeDegrees>2.82424530945718288421630859375</LongitudeDegrees>
            </Position>
            <AltitudeMeters>80.8000030517578125</AltitudeMeters>
            <DistanceMeters>NAN</DistanceMeters>
          </Trackpoint>
          <Trackpoint>
            <Time>2020-02-15T11:57:29.000Z</Time>
            <Position>
              <LatitudeDegrees>41.9776035659015178680419921875</LatitudeDegrees>
              <LongitudeDegrees>2.82424748875200748443603515625</LongitudeDegrees>
            </Position>
            <AltitudeMeters>80.8000030517578125</AltitudeMeters>
            <DistanceMeters>NAN</DistanceMeters>
          </Trackpoint>
          <Trackpoint>
            <Time>2020-02-15T11:57:30.000Z</Time>
            <Position>
              <LatitudeDegrees>41.9776327349245548248291015625</LatitudeDegrees>
              <LongitudeDegrees>2.82425235025584697723388671875</LongitudeDegrees>
            </Position>
            <AltitudeMeters>81</AltitudeMeters>
            <DistanceMeters>NAN</DistanceMeters>
          </Trackpoint>
          <Trackpoint>
            <Time>2020-02-15T11:57:34.000Z</Time>
            <Position>
              <LatitudeDegrees>41.97780816815793514251708984375</LatitudeDegrees>
              <LongitudeDegrees>2.82427447848021984100341796875</LongitudeDegrees>
            </Position>
            <AltitudeMeters>80.8000030517578125</AltitudeMeters>
            <DistanceMeters>NAN</DistanceMeters>
          </Trackpoint>
          <Trackpoint>
            <Time>2020-02-15T11:57:40.000Z</Time>
            <Position>
              <LatitudeDegrees>41.9781725294888019561767578125</LatitudeDegrees>
              <LongitudeDegrees>2.8243042342364788055419921875</LongitudeDegrees>
            </Position>
            <AltitudeMeters>81</AltitudeMeters>
            <DistanceMeters>NAN</DistanceMeters>
          </Trackpoint>
          <Trackpoint>
            <Time>2020-02-15T11:57:41.000Z</Time>
            <Position>
              <LatitudeDegrees>41.9782372377812862396240234375</LatitudeDegrees>
              <LongitudeDegrees>2.82430507242679595947265625</LongitudeDegrees>
            </Position>
            <AltitudeMeters>81</AltitudeMeters>
            <DistanceMeters>NAN</DistanceMeters>
          </Trackpoint>
          <Trackpoint>
            <Time>2020-02-15T11:57:43.000Z</Time>
            <Position>
              <LatitudeDegrees>41.97836623527109622955322265625</LatitudeDegrees>
              <LongitudeDegrees>2.82431052066385746002197265625</LongitudeDegrees>
            </Position>
            <AltitudeMeters>81</AltitudeMeters>
            <DistanceMeters>NAN</DistanceMeters>
          </Trackpoint>
          <Trackpoint>
            <Time>2020-02-15T11:57:46.000Z</Time>
            <Position>
              <LatitudeDegrees>41.97856287471950054168701171875</LatitudeDegrees>
              <LongitudeDegrees>2.8243191540241241455078125</LongitudeDegrees>
            </Position>
            <AltitudeMeters>81</AltitudeMeters>
            <DistanceMeters>NAN</DistanceMeters>
          </Trackpoint>
          <Trackpoint>
            <Time>2020-02-15T11:57:49.000Z</Time>
            <Position>
              <LatitudeDegrees>41.97875901125371456146240234375</LatitudeDegrees>
              <LongitudeDegrees>2.8243551962077617645263671875</LongitudeDegrees>
            </Position>
            <AltitudeMeters>81.1999969482421875</AltitudeMeters>
            <DistanceMeters>NAN</DistanceMeters>
          </Trackpoint>
          <Trackpoint>
            <Time>2020-02-15T11:57:54.000Z</Time>
            <Position>
              <LatitudeDegrees>41.97909831069409847259521484375</LatitudeDegrees>
              <LongitudeDegrees>2.8243370912969112396240234375</LongitudeDegrees>
            </Position>
            <AltitudeMeters>81</AltitudeMeters>
            <DistanceMeters>NAN</DistanceMeters>
          </Trackpoint>
          <Trackpoint>
            <Time>2020-02-15T11:57:55.000Z</Time>
            <Position>
              <LatitudeDegrees>41.97916452772915363311767578125</LatitudeDegrees>
              <LongitudeDegrees>2.82432795502245426177978515625</LongitudeDegrees>
            </Position>
            <AltitudeMeters>81</AltitudeMeters>
            <DistanceMeters>NAN</DistanceMeters>
          </Trackpoint>
          <Trackpoint>
            <Time>2020-02-15T11:57:56.000Z</Time>
            <Position>
              <LatitudeDegrees>41.97923024185001850128173828125</LatitudeDegrees>
              <LongitudeDegrees>2.8243164718151092529296875</LongitudeDegrees>
            </Position>
            <AltitudeMeters>81.1999969482421875</AltitudeMeters>
            <DistanceMeters>NAN</DistanceMeters>
          </Trackpoint>
          <Trackpoint>
            <Time>2020-02-15T11:57:57.000Z</Time>
            <Position>
              <LatitudeDegrees>41.97929729707539081573486328125</LatitudeDegrees>
              <LongitudeDegrees>2.82430968247354030609130859375</LongitudeDegrees>
            </Position>
            <AltitudeMeters>81.1999969482421875</AltitudeMeters>
            <DistanceMeters>NAN</DistanceMeters>
          </Trackpoint>
          <Trackpoint>
            <Time>2020-02-15T11:57:58.000Z</Time>
            <Position>
              <LatitudeDegrees>41.97936401702463626861572265625</LatitudeDegrees>
              <LongitudeDegrees>2.824306748807430267333984375</LongitudeDegrees>
            </Position>
            <AltitudeMeters>81.1999969482421875</AltitudeMeters>
            <DistanceMeters>NAN</DistanceMeters>
          </Trackpoint>
          <Trackpoint>
            <Time>2020-02-15T11:58:00.000Z</Time>
            <Position>
              <LatitudeDegrees>41.97949938476085662841796875</LatitudeDegrees>
              <LongitudeDegrees>2.82429224811494350433349609375</LongitudeDegrees>
            </Position>
            <AltitudeMeters>81</AltitudeMeters>
            <DistanceMeters>NAN</DistanceMeters>
          </Trackpoint>
          <Trackpoint>
            <Time>2020-02-15T11:58:03.000Z</Time>
            <Position>
              <LatitudeDegrees>41.97969778440892696380615234375</LatitudeDegrees>
              <LongitudeDegrees>2.82426727004349231719970703125</LongitudeDegrees>
            </Position>
            <AltitudeMeters>81.1999969482421875</AltitudeMeters>
            <DistanceMeters>NAN</DistanceMeters>
          </Trackpoint>
          <Trackpoint>
            <Time>2020-02-15T11:58:04.000Z</Time>
            <Position>
              <LatitudeDegrees>41.9797674380242824554443359375</LatitudeDegrees>
              <LongitudeDegrees>2.824277915060520172119140625</LongitudeDegrees>
            </Position>
            <AltitudeMeters>81.1999969482421875</AltitudeMeters>
            <DistanceMeters>NAN</DistanceMeters>
          </Trackpoint>
          <Trackpoint>
            <Time>2020-02-15T11:58:05.000Z</Time>
            <Position>
              <LatitudeDegrees>41.97983675636351108551025390625</LatitudeDegrees>
              <LongitudeDegrees>2.82428721897304058074951171875</LongitudeDegrees>
            </Position>
            <AltitudeMeters>81.1999969482421875</AltitudeMeters>
            <DistanceMeters>NAN</DistanceMeters>
          </Trackpoint>
          <Trackpoint>
            <Time>2020-02-15T11:58:06.000Z</Time>
            <Position>
              <LatitudeDegrees>41.9799059070646762847900390625</LatitudeDegrees>
              <LongitudeDegrees>2.8242797590792179107666015625</LongitudeDegrees>
            </Position>
            <AltitudeMeters>81.1999969482421875</AltitudeMeters>
            <DistanceMeters>NAN</DistanceMeters>
          </Trackpoint>
          <Trackpoint>
            <Time>2020-02-15T11:58:07.000Z</Time>
            <Position>
              <LatitudeDegrees>41.9799736328423023223876953125</LatitudeDegrees>
              <LongitudeDegrees>2.82427364028990268707275390625</LongitudeDegrees>
            </Position>
            <AltitudeMeters>81.1999969482421875</AltitudeMeters>
            <DistanceMeters>NAN</DistanceMeters>
          </Trackpoint>
          <Trackpoint>
            <Time>2020-02-15T11:58:09.000Z</Time>
            <Position>
              <LatitudeDegrees>41.9801064021885395050048828125</LatitudeDegrees>
              <LongitudeDegrees>2.82425587065517902374267578125</LongitudeDegrees>
            </Position>
            <AltitudeMeters>81.40000152587890625</AltitudeMeters>
            <DistanceMeters>NAN</DistanceMeters>
          </Trackpoint>
          <Trackpoint>
            <Time>2020-02-15T11:58:11.000Z</Time>
            <Position>
              <LatitudeDegrees>41.98023498058319091796875</LatitudeDegrees>
              <LongitudeDegrees>2.82422703690826892852783203125</LongitudeDegrees>
            </Position>
            <AltitudeMeters>81.59999847412109375</AltitudeMeters>
            <DistanceMeters>NAN</DistanceMeters>
          </Trackpoint>
          <Trackpoint>
            <Time>2020-02-15T11:58:12.000Z</Time>
            <Position>
              <LatitudeDegrees>41.9802975095808506011962890625</LatitudeDegrees>
              <LongitudeDegrees>2.82420893199741840362548828125</LongitudeDegrees>
            </Position>
            <AltitudeMeters>81.59999847412109375</AltitudeMeters>
            <DistanceMeters>NAN</DistanceMeters>
          </Trackpoint>
          <Trackpoint>
            <Time>2020-02-15T11:58:13.000Z</Time>
            <Position>
              <LatitudeDegrees>41.9803578592836856842041015625</LatitudeDegrees>
              <LongitudeDegrees>2.82420742325484752655029296875</LongitudeDegrees>
            </Position>
            <AltitudeMeters>81.40000152587890625</AltitudeMeters>
            <DistanceMeters>NAN</DistanceMeters>
          </Trackpoint>
          <Trackpoint>
            <Time>2020-02-15T11:58:14.000Z</Time>
            <Position>
              <LatitudeDegrees>41.98041862808167934417724609375</LatitudeDegrees>
              <LongitudeDegrees>2.82419535331428050994873046875</LongitudeDegrees>
            </Position>
            <AltitudeMeters>81.59999847412109375</AltitudeMeters>
            <DistanceMeters>NAN</DistanceMeters>
          </Trackpoint>
          <Trackpoint>
            <Time>2020-02-15T11:58:15.000Z</Time>
            <Position>
              <LatitudeDegrees>41.98047981597483158111572265625</LatitudeDegrees>
              <LongitudeDegrees>2.82417942769825458526611328125</LongitudeDegrees>
            </Position>
            <AltitudeMeters>81.59999847412109375</AltitudeMeters>
            <DistanceMeters>NAN</DistanceMeters>
          </Trackpoint>
          <Trackpoint>
            <Time>2020-02-15T11:58:16.000Z</Time>
            <Position>
              <LatitudeDegrees>41.98054066859185695648193359375</LatitudeDegrees>
              <LongitudeDegrees>2.82416081987321376800537109375</LongitudeDegrees>
            </Position>
            <AltitudeMeters>81.59999847412109375</AltitudeMeters>
            <DistanceMeters>NAN</DistanceMeters>
          </Trackpoint>
          <Trackpoint>
            <Time>2020-02-15T11:58:17.000Z</Time>
            <Position>
              <LatitudeDegrees>41.9806036166846752166748046875</LatitudeDegrees>
              <LongitudeDegrees>2.82414908520877361297607421875</LongitudeDegrees>
            </Position>
            <AltitudeMeters>81.59999847412109375</AltitudeMeters>
            <DistanceMeters>NAN</DistanceMeters>
          </Trackpoint>
          <Trackpoint>
            <Time>2020-02-15T11:58:18.000Z</Time>
            <Position>
              <LatitudeDegrees>41.98066438548266887664794921875</LatitudeDegrees>
              <LongitudeDegrees>2.82412880100309848785400390625</LongitudeDegrees>
            </Position>
            <AltitudeMeters>81.59999847412109375</AltitudeMeters>
            <DistanceMeters>NAN</DistanceMeters>
          </Trackpoint>
          <Trackpoint>
            <Time>2020-02-15T11:58:19.000Z</Time>
            <Position>
              <LatitudeDegrees>41.9807249866425991058349609375</LatitudeDegrees>
              <LongitudeDegrees>2.82410248182713985443115234375</LongitudeDegrees>
            </Position>
            <AltitudeMeters>81.59999847412109375</AltitudeMeters>
            <DistanceMeters>NAN</DistanceMeters>
          </Trackpoint>
          <Trackpoint>
            <Time>2020-02-15T11:58:22.000Z</Time>
            <Position>
              <LatitudeDegrees>41.98090310208499431610107421875</LatitudeDegrees>
              <LongitudeDegrees>2.824014388024806976318359375</LongitudeDegrees>
            </Position>
            <AltitudeMeters>81.59999847412109375</AltitudeMeters>
            <DistanceMeters>NAN</DistanceMeters>
          </Trackpoint>
          <Trackpoint>
            <Time>2020-02-15T11:58:23.000Z</Time>
            <Position>
              <LatitudeDegrees>41.98095875792205333709716796875</LatitudeDegrees>
              <LongitudeDegrees>2.823979854583740234375</LongitudeDegrees>
            </Position>
            <AltitudeMeters>81.59999847412109375</AltitudeMeters>
            <DistanceMeters>NAN</DistanceMeters>
          </Trackpoint>
          <Trackpoint>
            <Time>2020-02-15T11:58:24.000Z</Time>
            <Position>
              <LatitudeDegrees>41.981016509234905242919921875</LatitudeDegrees>
              <LongitudeDegrees>2.82394004054367542266845703125</LongitudeDegrees>
            </Position>
            <AltitudeMeters>81.59999847412109375</AltitudeMeters>
            <DistanceMeters>NAN</DistanceMeters>
          </Trackpoint>
          <Trackpoint>
            <Time>2020-02-15T11:58:26.000Z</Time>
            <Position>
              <LatitudeDegrees>41.98112614452838897705078125</LatitudeDegrees>
              <LongitudeDegrees>2.82385848462581634521484375</LongitudeDegrees>
            </Position>
            <AltitudeMeters>81.40000152587890625</AltitudeMeters>
            <DistanceMeters>NAN</DistanceMeters>
          </Trackpoint>
          <Trackpoint>
            <Time>2020-02-15T11:58:27.000Z</Time>
            <Position>
              <LatitudeDegrees>41.98118154890835285186767578125</LatitudeDegrees>
              <LongitudeDegrees>2.82381800003349781036376953125</LongitudeDegrees>
            </Position>
            <AltitudeMeters>81.59999847412109375</AltitudeMeters>
            <DistanceMeters>NAN</DistanceMeters>
          </Trackpoint>
          <Trackpoint>
            <Time>2020-02-15T11:58:28.000Z</Time>
            <Position>
              <LatitudeDegrees>41.98123619891703128814697265625</LatitudeDegrees>
              <LongitudeDegrees>2.82377961091697216033935546875</LongitudeDegrees>
            </Position>
            <AltitudeMeters>81.59999847412109375</AltitudeMeters>
            <DistanceMeters>NAN</DistanceMeters>
          </Trackpoint>
          <Trackpoint>
            <Time>2020-02-15T11:58:31.000Z</Time>
            <Position>
              <LatitudeDegrees>41.98141389526426792144775390625</LatitudeDegrees>
              <LongitudeDegrees>2.8236963786184787750244140625</LongitudeDegrees>
            </Position>
            <AltitudeMeters>81.40000152587890625</AltitudeMeters>
            <DistanceMeters>NAN</DistanceMeters>
          </Trackpoint>
          <Trackpoint>
            <Time>2020-02-15T11:58:32.000Z</Time>
            <Position>
              <LatitudeDegrees>41.98147608898580074310302734375</LatitudeDegrees>
              <LongitudeDegrees>2.82367785461246967315673828125</LongitudeDegrees>
            </Position>
            <AltitudeMeters>81.59999847412109375</AltitudeMeters>
            <DistanceMeters>NAN</DistanceMeters>
          </Trackpoint>
          <Trackpoint>
            <Time>2020-02-15T11:58:34.000Z</Time>
            <Position>
              <LatitudeDegrees>41.98159963823854923248291015625</LatitudeDegrees>
              <LongitudeDegrees>2.8236568160355091094970703125</LongitudeDegrees>
            </Position>
            <AltitudeMeters>81.40000152587890625</AltitudeMeters>
            <DistanceMeters>NAN</DistanceMeters>
          </Trackpoint>
          <Trackpoint>
            <Time>2020-02-15T11:58:35.000Z</Time>
            <Position>
              <LatitudeDegrees>41.981659233570098876953125</LatitudeDegrees>
              <LongitudeDegrees>2.82364935614168643951416015625</LongitudeDegrees>
            </Position>
            <AltitudeMeters>81.59999847412109375</AltitudeMeters>
            <DistanceMeters>NAN</DistanceMeters>
          </Trackpoint>
          <Trackpoint>
            <Time>2020-02-15T11:58:36.000Z</Time>
            <Position>
              <LatitudeDegrees>41.9817167334258556365966796875</LatitudeDegrees>
              <LongitudeDegrees>2.82364256680011749267578125</LongitudeDegrees>
            </Position>
            <AltitudeMeters>81.40000152587890625</AltitudeMeters>
            <DistanceMeters>NAN</DistanceMeters>
          </Trackpoint>
          <Trackpoint>
            <Time>2020-02-15T11:58:37.000Z</Time>
            <Position>
              <LatitudeDegrees>41.9817740656435489654541015625</LatitudeDegrees>
              <LongitudeDegrees>2.82363745383918285369873046875</LongitudeDegrees>
            </Position>
            <AltitudeMeters>81.40000152587890625</AltitudeMeters>
            <DistanceMeters>NAN</DistanceMeters>
          </Trackpoint>
          <Trackpoint>
            <Time>2020-02-15T11:58:38.000Z</Time>
            <Position>
              <LatitudeDegrees>41.9818327389657497406005859375</LatitudeDegrees>
              <LongitudeDegrees>2.82363745383918285369873046875</LongitudeDegrees>
            </Position>
            <AltitudeMeters>81.59999847412109375</AltitudeMeters>
            <DistanceMeters>NAN</DistanceMeters>
          </Trackpoint>
          <Trackpoint>
            <Time>2020-02-15T11:58:41.000Z</Time>
            <Position>
              <LatitudeDegrees>41.98201118968427181243896484375</LatitudeDegrees>
              <LongitudeDegrees>2.8236447460949420928955078125</LongitudeDegrees>
            </Position>
            <AltitudeMeters>81.59999847412109375</AltitudeMeters>
            <DistanceMeters>NAN</DistanceMeters>
          </Trackpoint>
          <Trackpoint>
            <Time>2020-02-15T11:58:42.000Z</Time>
            <Position>
              <LatitudeDegrees>41.98206902481615543365478515625</LatitudeDegrees>
              <LongitudeDegrees>2.8236410580575466156005859375</LongitudeDegrees>
            </Position>
            <AltitudeMeters>81.59999847412109375</AltitudeMeters>
            <DistanceMeters>NAN</DistanceMeters>
          </Trackpoint>
          <Trackpoint>
            <Time>2020-02-15T11:58:43.000Z</Time>
            <Position>
              <LatitudeDegrees>41.98212283663451671600341796875</LatitudeDegrees>
              <LongitudeDegrees>2.8236326761543750762939453125</LongitudeDegrees>
            </Position>
            <AltitudeMeters>81.59999847412109375</AltitudeMeters>
            <DistanceMeters>NAN</DistanceMeters>
          </Trackpoint>
          <Trackpoint>
            <Time>2020-02-15T11:58:44.000Z</Time>
            <Position>
              <LatitudeDegrees>41.98216860182583332061767578125</LatitudeDegrees>
              <LongitudeDegrees>2.823612391948699951171875</LongitudeDegrees>
            </Position>
            <AltitudeMeters>81.59999847412109375</AltitudeMeters>
            <DistanceMeters>NAN</DistanceMeters>
          </Trackpoint>
          <Trackpoint>
            <Time>2020-02-15T11:58:45.000Z</Time>
            <Position>
              <LatitudeDegrees>41.98220439255237579345703125</LatitudeDegrees>
              <LongitudeDegrees>2.82357551157474517822265625</LongitudeDegrees>
            </Position>
            <AltitudeMeters>81.59999847412109375</AltitudeMeters>
            <DistanceMeters>NAN</DistanceMeters>
          </Trackpoint>
          <Trackpoint>
            <Time>2020-02-15T11:58:46.000Z</Time>
            <Position>
              <LatitudeDegrees>41.9822230003774166107177734375</LatitudeDegrees>
              <LongitudeDegrees>2.82352061010897159576416015625</LongitudeDegrees>
            </Position>
            <AltitudeMeters>81.59999847412109375</AltitudeMeters>
            <DistanceMeters>NAN</DistanceMeters>
          </Trackpoint>
          <Trackpoint>
            <Time>2020-02-15T11:58:47.000Z</Time>
            <Position>
              <LatitudeDegrees>41.9822246767580509185791015625</LatitudeDegrees>
              <LongitudeDegrees>2.82345606945455074310302734375</LongitudeDegrees>
            </Position>
            <AltitudeMeters>81.59999847412109375</AltitudeMeters>
            <DistanceMeters>NAN</DistanceMeters>
          </Trackpoint>
          <Trackpoint>
            <Time>2020-02-15T11:58:48.000Z</Time>
            <Position>
              <LatitudeDegrees>41.98221956379711627960205078125</LatitudeDegrees>
              <LongitudeDegrees>2.8233885951340198516845703125</LongitudeDegrees>
            </Position>
            <AltitudeMeters>81.59999847412109375</AltitudeMeters>
            <DistanceMeters>NAN</DistanceMeters>
          </Trackpoint>
          <Trackpoint>
            <Time>2020-02-15T11:58:53.000Z</Time>
            <Position>
              <LatitudeDegrees>41.98222174309194087982177734375</LatitudeDegrees>
              <LongitudeDegrees>2.8230258263647556304931640625</LongitudeDegrees>
            </Position>
            <AltitudeMeters>81.1999969482421875</AltitudeMeters>
            <DistanceMeters>NAN</DistanceMeters>
          </Trackpoint>
          <Trackpoint>
            <Time>2020-02-15T11:58:55.000Z</Time>
            <Position>
              <LatitudeDegrees>41.98223867453634738922119140625</LatitudeDegrees>
              <LongitudeDegrees>2.822872437536716461181640625</LongitudeDegrees>
            </Position>
            <AltitudeMeters>81.1999969482421875</AltitudeMeters>
            <DistanceMeters>NAN</DistanceMeters>
          </Trackpoint>
          <Trackpoint>
            <Time>2020-02-15T11:58:58.000Z</Time>
            <Position>
              <LatitudeDegrees>41.98227806948125362396240234375</LatitudeDegrees>
              <LongitudeDegrees>2.82262709923088550567626953125</LongitudeDegrees>
            </Position>
            <AltitudeMeters>81.1999969482421875</AltitudeMeters>
            <DistanceMeters>NAN</DistanceMeters>
          </Trackpoint>
          <Trackpoint>
            <Time>2020-02-15T11:59:01.000Z</Time>
            <Position>
              <LatitudeDegrees>41.98232886381447315216064453125</LatitudeDegrees>
              <LongitudeDegrees>2.82239123247563838958740234375</LongitudeDegrees>
            </Position>
            <AltitudeMeters>81.40000152587890625</AltitudeMeters>
            <DistanceMeters>NAN</DistanceMeters>
          </Trackpoint>
          <Trackpoint>
            <Time>2020-02-15T11:59:02.000Z</Time>
            <Position>
              <LatitudeDegrees>41.98234663344919681549072265625</LatitudeDegrees>
              <LongitudeDegrees>2.8223168849945068359375</LongitudeDegrees>
            </Position>
            <AltitudeMeters>81.1999969482421875</AltitudeMeters>
            <DistanceMeters>NAN</DistanceMeters>
          </Trackpoint>
          <Trackpoint>
            <Time>2020-02-15T11:59:03.000Z</Time>
            <Position>
              <LatitudeDegrees>41.98236037977039813995361328125</LatitudeDegrees>
              <LongitudeDegrees>2.82224136404693126678466796875</LongitudeDegrees>
            </Position>
            <AltitudeMeters>81.1999969482421875</AltitudeMeters>
            <DistanceMeters>NAN</DistanceMeters>
          </Trackpoint>
          <Trackpoint>
            <Time>2020-02-15T11:59:04.000Z</Time>
            <Position>
              <LatitudeDegrees>41.9823767244815826416015625</LatitudeDegrees>
              <LongitudeDegrees>2.8221648372709751129150390625</LongitudeDegrees>
            </Position>
            <AltitudeMeters>81.40000152587890625</AltitudeMeters>
            <DistanceMeters>NAN</DistanceMeters>
          </Trackpoint>
          <Trackpoint>
            <Time>2020-02-15T11:59:05.000Z</Time>
            <Position>
              <LatitudeDegrees>41.982395835220813751220703125</LatitudeDegrees>
              <LongitudeDegrees>2.82208713702857494354248046875</LongitudeDegrees>
            </Position>
            <AltitudeMeters>81.1999969482421875</AltitudeMeters>
            <DistanceMeters>NAN</DistanceMeters>
          </Trackpoint>
          <Trackpoint>
            <Time>2020-02-15T11:59:07.000Z</Time>
            <Position>
              <LatitudeDegrees>41.98243799619376659393310546875</LatitudeDegrees>
              <LongitudeDegrees>2.821943722665309906005859375</LongitudeDegrees>
            </Position>
            <AltitudeMeters>81.1999969482421875</AltitudeMeters>
            <DistanceMeters>NAN</DistanceMeters>
          </Trackpoint>
          <Trackpoint>
            <Time>2020-02-15T11:59:08.000Z</Time>
            <Position>
              <LatitudeDegrees>41.98245509527623653411865234375</LatitudeDegrees>
              <LongitudeDegrees>2.82187230885028839111328125</LongitudeDegrees>
            </Position>
            <AltitudeMeters>81.40000152587890625</AltitudeMeters>
            <DistanceMeters>NAN</DistanceMeters>
          </Trackpoint>
          <Trackpoint>
            <Time>2020-02-15T11:59:09.000Z</Time>
            <Position>
              <LatitudeDegrees>41.982469260692596435546875</LatitudeDegrees>
              <LongitudeDegrees>2.82179913483560085296630859375</LongitudeDegrees>
            </Position>
            <AltitudeMeters>81.40000152587890625</AltitudeMeters>
            <DistanceMeters>NAN</DistanceMeters>
          </Trackpoint>
          <Trackpoint>
            <Time>2020-02-15T11:59:10.000Z</Time>
            <Position>
              <LatitudeDegrees>41.98247822932898998260498046875</LatitudeDegrees>
              <LongitudeDegrees>2.82172369770705699920654296875</LongitudeDegrees>
            </Position>
            <AltitudeMeters>81.40000152587890625</AltitudeMeters>
            <DistanceMeters>NAN</DistanceMeters>
          </Trackpoint>
          <Trackpoint>
            <Time>2020-02-15T11:59:11.000Z</Time>
            <Position>
              <LatitudeDegrees>41.982479654252529144287109375</LatitudeDegrees>
              <LongitudeDegrees>2.82164708711206912994384765625</LongitudeDegrees>
            </Position>
            <AltitudeMeters>81.59999847412109375</AltitudeMeters>
            <DistanceMeters>NAN</DistanceMeters>
          </Trackpoint>
          <Trackpoint>
            <Time>2020-02-15T11:59:12.000Z</Time>
            <Position>
              <LatitudeDegrees>41.98247437365353107452392578125</LatitudeDegrees>
              <LongitudeDegrees>2.82157433219254016876220703125</LongitudeDegrees>
            </Position>
            <AltitudeMeters>81.59999847412109375</AltitudeMeters>
            <DistanceMeters>NAN</DistanceMeters>
          </Trackpoint>
          <Trackpoint>
            <Time>2020-02-15T11:59:13.000Z</Time>
            <Position>
              <LatitudeDegrees>41.98247588239610195159912109375</LatitudeDegrees>
              <LongitudeDegrees>2.8215043433010578155517578125</LongitudeDegrees>
            </Position>
            <AltitudeMeters>81.59999847412109375</AltitudeMeters>
            <DistanceMeters>NAN</DistanceMeters>
          </Trackpoint>
          <Trackpoint>
            <Time>2020-02-15T11:59:14.000Z</Time>
            <Position>
              <LatitudeDegrees>41.98248309083282947540283203125</LatitudeDegrees>
              <LongitudeDegrees>2.82143376767635345458984375</LongitudeDegrees>
            </Position>
            <AltitudeMeters>81.8000030517578125</AltitudeMeters>
            <DistanceMeters>NAN</DistanceMeters>
          </Trackpoint>
          <Trackpoint>
            <Time>2020-02-15T11:59:15.000Z</Time>
            <Position>
              <LatitudeDegrees>41.98249080218374729156494140625</LatitudeDegrees>
              <LongitudeDegrees>2.82136277295649051666259765625</LongitudeDegrees>
            </Position>
            <AltitudeMeters>81.59999847412109375</AltitudeMeters>
            <DistanceMeters>NAN</DistanceMeters>
          </Trackpoint>
          <Trackpoint>
            <Time>2020-02-15T11:59:16.000Z</Time>
            <Position>
              <LatitudeDegrees>41.9824912212789058685302734375</LatitudeDegrees>
              <LongitudeDegrees>2.82128968276083469390869140625</LongitudeDegrees>
            </Position>
            <AltitudeMeters>81.59999847412109375</AltitudeMeters>
            <DistanceMeters>NAN</DistanceMeters>
          </Trackpoint>
          <Trackpoint>
            <Time>2020-02-15T11:59:17.000Z</Time>
            <Position>
              <LatitudeDegrees>41.9824888743460178375244140625</LatitudeDegrees>
              <LongitudeDegrees>2.82122053205966949462890625</LongitudeDegrees>
            </Position>
            <AltitudeMeters>81.8000030517578125</AltitudeMeters>
            <DistanceMeters>NAN</DistanceMeters>
          </Trackpoint>
          <Trackpoint>
            <Time>2020-02-15T11:59:18.000Z</Time>
            <Position>
              <LatitudeDegrees>41.9824838452041149139404296875</LatitudeDegrees>
              <LongitudeDegrees>2.8211529739201068878173828125</LongitudeDegrees>
            </Position>
            <AltitudeMeters>81.8000030517578125</AltitudeMeters>
            <DistanceMeters>NAN</DistanceMeters>
          </Trackpoint>
          <Trackpoint>
            <Time>2020-02-15T11:59:19.000Z</Time>
            <Position>
              <LatitudeDegrees>41.982482336461544036865234375</LatitudeDegrees>
              <LongitudeDegrees>2.821087427437305450439453125</LongitudeDegrees>
            </Position>
            <AltitudeMeters>82</AltitudeMeters>
            <DistanceMeters>NAN</DistanceMeters>
          </Trackpoint>
          <Trackpoint>
            <Time>2020-02-15T11:59:20.000Z</Time>
            <Position>
              <LatitudeDegrees>41.98248158209025859832763671875</LatitudeDegrees>
              <LongitudeDegrees>2.82102464698255062103271484375</LongitudeDegrees>
            </Position>
            <AltitudeMeters>82</AltitudeMeters>
            <DistanceMeters>NAN</DistanceMeters>
          </Trackpoint>
          <Trackpoint>
            <Time>2020-02-15T11:59:21.000Z</Time>
            <Position>
              <LatitudeDegrees>41.98248066008090972900390625</LatitudeDegrees>
              <LongitudeDegrees>2.8209648840129375457763671875</LongitudeDegrees>
            </Position>
            <AltitudeMeters>81.8000030517578125</AltitudeMeters>
            <DistanceMeters>NAN</DistanceMeters>
          </Trackpoint>
          <Trackpoint>
            <Time>2020-02-15T11:59:22.000Z</Time>
            <Position>
              <LatitudeDegrees>41.98247797787189483642578125</LatitudeDegrees>
              <LongitudeDegrees>2.82091031782329082489013671875</LongitudeDegrees>
            </Position>
            <AltitudeMeters>82</AltitudeMeters>
            <DistanceMeters>NAN</DistanceMeters>
          </Trackpoint>
          <Trackpoint>
            <Time>2020-02-15T11:59:23.000Z</Time>
            <Position>
              <LatitudeDegrees>41.98247529566287994384765625</LatitudeDegrees>
              <LongitudeDegrees>2.820858098566532135009765625</LongitudeDegrees>
            </Position>
            <AltitudeMeters>82</AltitudeMeters>
            <DistanceMeters>NAN</DistanceMeters>
          </Trackpoint>
          <Trackpoint>
            <Time>2020-02-15T11:59:24.000Z</Time>
            <Position>
              <LatitudeDegrees>41.9824764691293239593505859375</LatitudeDegrees>
              <LongitudeDegrees>2.82080688513815402984619140625</LongitudeDegrees>
            </Position>
            <AltitudeMeters>82</AltitudeMeters>
            <DistanceMeters>NAN</DistanceMeters>
          </Trackpoint>
          <Trackpoint>
            <Time>2020-02-15T11:59:25.000Z</Time>
            <Position>
              <LatitudeDegrees>41.9824788160622119903564453125</LatitudeDegrees>
              <LongitudeDegrees>2.82075994648039340972900390625</LongitudeDegrees>
            </Position>
            <AltitudeMeters>82</AltitudeMeters>
            <DistanceMeters>NAN</DistanceMeters>
          </Trackpoint>
          <Trackpoint>
            <Time>2020-02-15T11:59:26.000Z</Time>
            <Position>
              <LatitudeDegrees>41.9824840128421783447265625</LatitudeDegrees>
              <LongitudeDegrees>2.82071761786937713623046875</LongitudeDegrees>
            </Position>
            <AltitudeMeters>82</AltitudeMeters>
            <DistanceMeters>NAN</DistanceMeters>
          </Trackpoint>
          <Trackpoint>
            <Time>2020-02-15T11:59:27.000Z</Time>
            <Position>
              <LatitudeDegrees>41.982491053640842437744140625</LatitudeDegrees>
              <LongitudeDegrees>2.8206782229244709014892578125</LongitudeDegrees>
            </Position>
            <AltitudeMeters>82.1999969482421875</AltitudeMeters>
            <DistanceMeters>NAN</DistanceMeters>
          </Trackpoint>
          <Trackpoint>
            <Time>2020-02-15T11:59:28.000Z</Time>
            <Position>
              <LatitudeDegrees>41.9824969209730625152587890625</LatitudeDegrees>
              <LongitudeDegrees>2.82063974998891353607177734375</LongitudeDegrees>
            </Position>
            <AltitudeMeters>82</AltitudeMeters>
            <DistanceMeters>NAN</DistanceMeters>
          </Trackpoint>
          <Trackpoint>
            <Time>2020-02-15T11:59:29.000Z</Time>
            <Position>
              <LatitudeDegrees>41.98249532841145992279052734375</LatitudeDegrees>
              <LongitudeDegrees>2.82060085795819759368896484375</LongitudeDegrees>
            </Position>
            <AltitudeMeters>82</AltitudeMeters>
            <DistanceMeters>NAN</DistanceMeters>
          </Trackpoint>
          <Trackpoint>
            <Time>2020-02-15T11:59:30.000Z</Time>
            <Position>
              <LatitudeDegrees>41.9824912212789058685302734375</LatitudeDegrees>
              <LongitudeDegrees>2.82056062482297420501708984375</LongitudeDegrees>
            </Position>
            <AltitudeMeters>82.1999969482421875</AltitudeMeters>
            <DistanceMeters>NAN</DistanceMeters>
          </Trackpoint>
          <Trackpoint>
            <Time>2020-02-15T11:59:31.000Z</Time>
            <Position>
              <LatitudeDegrees>41.98248594067990779876708984375</LatitudeDegrees>
              <LongitudeDegrees>2.82052558846771717071533203125</LongitudeDegrees>
            </Position>
            <AltitudeMeters>82.1999969482421875</AltitudeMeters>
            <DistanceMeters>NAN</DistanceMeters>
          </Trackpoint>
          <Trackpoint>
            <Time>2020-02-15T11:59:32.000Z</Time>
            <Position>
              <LatitudeDegrees>41.9824840128421783447265625</LatitudeDegrees>
              <LongitudeDegrees>2.820496670901775360107421875</LongitudeDegrees>
            </Position>
            <AltitudeMeters>82.1999969482421875</AltitudeMeters>
            <DistanceMeters>NAN</DistanceMeters>
          </Trackpoint>
          <Trackpoint>
            <Time>2020-02-15T11:59:33.000Z</Time>
            <Position>
              <LatitudeDegrees>41.98248158209025859832763671875</LatitudeDegrees>
              <LongitudeDegrees>2.820471189916133880615234375</LongitudeDegrees>
            </Position>
            <AltitudeMeters>82.1999969482421875</AltitudeMeters>
            <DistanceMeters>NAN</DistanceMeters>
          </Trackpoint>
          <Trackpoint>
            <Time>2020-02-15T11:59:34.000Z</Time>
            <Position>
              <LatitudeDegrees>41.9824825040996074676513671875</LatitudeDegrees>
              <LongitudeDegrees>2.820455096662044525146484375</LongitudeDegrees>
            </Position>
            <AltitudeMeters>82</AltitudeMeters>
            <DistanceMeters>NAN</DistanceMeters>
          </Trackpoint>
          <Trackpoint>
            <Time>2020-02-15T11:59:35.000Z</Time>
            <Position>
              <LatitudeDegrees>41.9824841804802417755126953125</LatitudeDegrees>
              <LongitudeDegrees>2.8204445354640483856201171875</LongitudeDegrees>
            </Position>
            <AltitudeMeters>82.1999969482421875</AltitudeMeters>
            <DistanceMeters>NAN</DistanceMeters>
          </Trackpoint>
          <Trackpoint>
            <Time>2020-02-15T11:59:36.000Z</Time>
            <Position>
              <LatitudeDegrees>41.9824831746518611907958984375</LatitudeDegrees>
              <LongitudeDegrees>2.8204395063221454620361328125</LongitudeDegrees>
            </Position>
            <AltitudeMeters>82.1999969482421875</AltitudeMeters>
            <DistanceMeters>NAN</DistanceMeters>
          </Trackpoint>
          <Trackpoint>
            <Time>2020-02-15T11:59:46.000Z</Time>
            <Position>
              <LatitudeDegrees>41.982478313148021697998046875</LatitudeDegrees>
              <LongitudeDegrees>2.8204203955829143524169921875</LongitudeDegrees>
            </Position>
            <AltitudeMeters>82</AltitudeMeters>
            <DistanceMeters>NAN</DistanceMeters>
          </Trackpoint>
          <Trackpoint>
            <Time>2020-02-15T11:59:48.000Z</Time>
            <Position>
              <LatitudeDegrees>41.9824744574725627899169921875</LatitudeDegrees>
              <LongitudeDegrees>2.82042215578258037567138671875</LongitudeDegrees>
            </Position>
            <AltitudeMeters>82</AltitudeMeters>
            <DistanceMeters>NAN</DistanceMeters>
          </Trackpoint>
          <Trackpoint>
            <Time>2020-02-15T11:59:53.000Z</Time>
            <Position>
              <LatitudeDegrees>41.98247504420578479766845703125</LatitudeDegrees>
              <LongitudeDegrees>2.8204224072396755218505859375</LongitudeDegrees>
            </Position>
            <AltitudeMeters>82</AltitudeMeters>
            <DistanceMeters>NAN</DistanceMeters>
          </Trackpoint>
          <Trackpoint>
            <Time>2020-02-15T12:00:02.000Z</Time>
            <Position>
              <LatitudeDegrees>41.98247621767222881317138671875</LatitudeDegrees>
              <LongitudeDegrees>2.82041494734585285186767578125</LongitudeDegrees>
            </Position>
            <AltitudeMeters>82</AltitudeMeters>
            <DistanceMeters>NAN</DistanceMeters>
          </Trackpoint>
          <Trackpoint>
            <Time>2020-02-15T12:00:03.000Z</Time>
            <Position>
              <LatitudeDegrees>41.9824794866144657135009765625</LatitudeDegrees>
              <LongitudeDegrees>2.820399105548858642578125</LongitudeDegrees>
            </Position>
            <AltitudeMeters>82</AltitudeMeters>
            <DistanceMeters>NAN</DistanceMeters>
          </Trackpoint>
          <Trackpoint>
            <Time>2020-02-15T12:00:04.000Z</Time>
            <Position>
              <LatitudeDegrees>41.982478313148021697998046875</LatitudeDegrees>
              <LongitudeDegrees>2.82038125209510326385498046875</LongitudeDegrees>
            </Position>
            <AltitudeMeters>82</AltitudeMeters>
            <DistanceMeters>NAN</DistanceMeters>
          </Trackpoint>
          <Trackpoint>
            <Time>2020-02-15T12:00:05.000Z</Time>
            <Position>
              <LatitudeDegrees>41.982477642595767974853515625</LatitudeDegrees>
              <LongitudeDegrees>2.820361554622650146484375</LongitudeDegrees>
            </Position>
            <AltitudeMeters>82</AltitudeMeters>
            <DistanceMeters>NAN</DistanceMeters>
          </Trackpoint>
          <Trackpoint>
            <Time>2020-02-15T12:00:07.000Z</Time>
            <Position>
              <LatitudeDegrees>41.98246054351329803466796875</LatitudeDegrees>
              <LongitudeDegrees>2.8202819265425205230712890625</LongitudeDegrees>
            </Position>
            <AltitudeMeters>82.1999969482421875</AltitudeMeters>
            <DistanceMeters>NAN</DistanceMeters>
          </Trackpoint>
          <Trackpoint>
            <Time>2020-02-15T12:00:08.000Z</Time>
            <Position>
              <LatitudeDegrees>41.982461549341678619384765625</LatitudeDegrees>
              <LongitudeDegrees>2.820242531597614288330078125</LongitudeDegrees>
            </Position>
            <AltitudeMeters>82</AltitudeMeters>
            <DistanceMeters>NAN</DistanceMeters>
          </Trackpoint>
          <Trackpoint>
            <Time>2020-02-15T12:00:09.000Z</Time>
            <Position>
              <LatitudeDegrees>41.9824734516441822052001953125</LatitudeDegrees>
              <LongitudeDegrees>2.82020858488976955413818359375</LongitudeDegrees>
            </Position>
            <AltitudeMeters>82.1999969482421875</AltitudeMeters>
            <DistanceMeters>NAN</DistanceMeters>
          </Trackpoint>
          <Trackpoint>
            <Time>2020-02-15T12:00:10.000Z</Time>
            <Position>
              <LatitudeDegrees>41.9824840128421783447265625</LatitudeDegrees>
              <LongitudeDegrees>2.8201726265251636505126953125</LongitudeDegrees>
            </Position>
            <AltitudeMeters>82</AltitudeMeters>
            <DistanceMeters>NAN</DistanceMeters>
          </Trackpoint>
          <Trackpoint>
            <Time>2020-02-15T12:00:11.000Z</Time>
            <Position>
              <LatitudeDegrees>41.98249817825853824615478515625</LatitudeDegrees>
              <LongitudeDegrees>2.82013968564569950103759765625</LongitudeDegrees>
            </Position>
            <AltitudeMeters>82.1999969482421875</AltitudeMeters>
            <DistanceMeters>NAN</DistanceMeters>
          </Trackpoint>
          <Trackpoint>
            <Time>2020-02-15T12:00:12.000Z</Time>
            <Position>
              <LatitudeDegrees>41.9825177080929279327392578125</LatitudeDegrees>
              <LongitudeDegrees>2.82011680305004119873046875</LongitudeDegrees>
            </Position>
            <AltitudeMeters>82.1999969482421875</AltitudeMeters>
            <DistanceMeters>NAN</DistanceMeters>
          </Trackpoint>
          <Trackpoint>
            <Time>2020-02-15T12:00:13.000Z</Time>
            <Position>
              <LatitudeDegrees>41.98253908194601535797119140625</LatitudeDegrees>
              <LongitudeDegrees>2.8201038949191570281982421875</LongitudeDegrees>
            </Position>
            <AltitudeMeters>82.1999969482421875</AltitudeMeters>
            <DistanceMeters>NAN</DistanceMeters>
          </Trackpoint>
          <Trackpoint>
            <Time>2020-02-15T12:00:14.000Z</Time>
            <Position>
              <LatitudeDegrees>41.9825579412281513214111328125</LatitudeDegrees>
              <LongitudeDegrees>2.82009266316890716552734375</LongitudeDegrees>
            </Position>
            <AltitudeMeters>82.1999969482421875</AltitudeMeters>
            <DistanceMeters>NAN</DistanceMeters>
          </Trackpoint>
          <Trackpoint>
            <Time>2020-02-15T12:00:15.000Z</Time>
            <Position>
              <LatitudeDegrees>41.982579566538333892822265625</LatitudeDegrees>
              <LongitudeDegrees>2.82007656991481781005859375</LongitudeDegrees>
            </Position>
            <AltitudeMeters>82.1999969482421875</AltitudeMeters>
            <DistanceMeters>NAN</DistanceMeters>
          </Trackpoint>
          <Trackpoint>
            <Time>2020-02-15T12:00:16.000Z</Time>
            <Position>
              <LatitudeDegrees>41.98260261677205562591552734375</LatitudeDegrees>
              <LongitudeDegrees>2.82005838118493556976318359375</LongitudeDegrees>
            </Position>
            <AltitudeMeters>82.40000152587890625</AltitudeMeters>
            <DistanceMeters>NAN</DistanceMeters>
          </Trackpoint>
          <Trackpoint>
            <Time>2020-02-15T12:00:18.000Z</Time>
            <Position>
              <LatitudeDegrees>41.98264603503048419952392578125</LatitudeDegrees>
              <LongitudeDegrees>2.82003692351281642913818359375</LongitudeDegrees>
            </Position>
            <AltitudeMeters>82.40000152587890625</AltitudeMeters>
            <DistanceMeters>NAN</DistanceMeters>
          </Trackpoint>
          <Trackpoint>
            <Time>2020-02-15T12:00:19.000Z</Time>
            <Position>
              <LatitudeDegrees>41.982670761644840240478515625</LatitudeDegrees>
              <LongitudeDegrees>2.8200303018093109130859375</LongitudeDegrees>
            </Position>
            <AltitudeMeters>82.40000152587890625</AltitudeMeters>
            <DistanceMeters>NAN</DistanceMeters>
          </Trackpoint>
          <Trackpoint>
            <Time>2020-02-15T12:00:20.000Z</Time>
            <Position>
              <LatitudeDegrees>41.982700265944004058837890625</LatitudeDegrees>
              <LongitudeDegrees>2.8200230933725833892822265625</LongitudeDegrees>
            </Position>
            <AltitudeMeters>82.40000152587890625</AltitudeMeters>
            <DistanceMeters>NAN</DistanceMeters>
          </Trackpoint>
          <Trackpoint>
            <Time>2020-02-15T12:00:21.000Z</Time>
            <Position>
              <LatitudeDegrees>41.982732117176055908203125</LatitudeDegrees>
              <LongitudeDegrees>2.82001018524169921875</LongitudeDegrees>
            </Position>
            <AltitudeMeters>82.59999847412109375</AltitudeMeters>
            <DistanceMeters>NAN</DistanceMeters>
          </Trackpoint>
          <Trackpoint>
            <Time>2020-02-15T12:00:22.000Z</Time>
            <Position>
              <LatitudeDegrees>41.9827805645763874053955078125</LatitudeDegrees>
              <LongitudeDegrees>2.8199949301779270172119140625</LongitudeDegrees>
            </Position>
            <AltitudeMeters>82.40000152587890625</AltitudeMeters>
            <DistanceMeters>NAN</DistanceMeters>
          </Trackpoint>
          <Trackpoint>
            <Time>2020-02-15T12:00:23.000Z</Time>
            <Position>
              <LatitudeDegrees>41.98283739387989044189453125</LatitudeDegrees>
              <LongitudeDegrees>2.8199815191328525543212890625</LongitudeDegrees>
            </Position>
            <AltitudeMeters>82.59999847412109375</AltitudeMeters>
            <DistanceMeters>NAN</DistanceMeters>
          </Trackpoint>
          <Trackpoint>
            <Time>2020-02-15T12:00:24.000Z</Time>
            <Position>
              <LatitudeDegrees>41.9828809797763824462890625</LatitudeDegrees>
              <LongitudeDegrees>2.81996903009712696075439453125</LongitudeDegrees>
            </Position>
            <AltitudeMeters>82.40000152587890625</AltitudeMeters>
            <DistanceMeters>NAN</DistanceMeters>
          </Trackpoint>
          <Trackpoint>
            <Time>2020-02-15T12:00:25.000Z</Time>
            <Position>
              <LatitudeDegrees>41.9829131662845611572265625</LatitudeDegrees>
              <LongitudeDegrees>2.81995612196624279022216796875</LongitudeDegrees>
            </Position>
            <AltitudeMeters>82.40000152587890625</AltitudeMeters>
            <DistanceMeters>NAN</DistanceMeters>
          </Trackpoint>
          <Trackpoint>
            <Time>2020-02-15T12:00:26.000Z</Time>
            <Position>
              <LatitudeDegrees>41.98293856345117092132568359375</LatitudeDegrees>
              <LongitudeDegrees>2.8199443034827709197998046875</LongitudeDegrees>
            </Position>
            <AltitudeMeters>82.59999847412109375</AltitudeMeters>
            <DistanceMeters>NAN</DistanceMeters>
          </Trackpoint>
          <Trackpoint>
            <Time>2020-02-15T12:00:27.000Z</Time>
            <Position>
              <LatitudeDegrees>41.98295348323881626129150390625</LatitudeDegrees>
              <LongitudeDegrees>2.81993432901799678802490234375</LongitudeDegrees>
            </Position>
            <AltitudeMeters>82.8000030517578125</AltitudeMeters>
            <DistanceMeters>NAN</DistanceMeters>
          </Trackpoint>
          <Trackpoint>
            <Time>2020-02-15T12:00:28.000Z</Time>
            <Position>
              <LatitudeDegrees>41.9829622842371463775634765625</LatitudeDegrees>
              <LongitudeDegrees>2.81992913223803043365478515625</LongitudeDegrees>
            </Position>
            <AltitudeMeters>82.59999847412109375</AltitudeMeters>
            <DistanceMeters>NAN</DistanceMeters>
          </Trackpoint>
          <Trackpoint>
            <Time>2020-02-15T12:00:29.000Z</Time>
            <Position>
              <LatitudeDegrees>41.9829632900655269622802734375</LatitudeDegrees>
              <LongitudeDegrees>2.81992276199162006378173828125</LongitudeDegrees>
            </Position>
            <AltitudeMeters>82.8000030517578125</AltitudeMeters>
            <DistanceMeters>NAN</DistanceMeters>
          </Trackpoint>
          <Trackpoint>
            <Time>2020-02-15T12:00:32.000Z</Time>
            <Position>
              <LatitudeDegrees>41.98297041468322277069091796875</LatitudeDegrees>
              <LongitudeDegrees>2.8198973648250102996826171875</LongitudeDegrees>
            </Position>
            <AltitudeMeters>83</AltitudeMeters>
            <DistanceMeters>NAN</DistanceMeters>
          </Trackpoint>
          <Trackpoint>
            <Time>2020-02-15T12:00:35.000Z</Time>
            <Position>
              <LatitudeDegrees>41.982978880405426025390625</LatitudeDegrees>
              <LongitudeDegrees>2.81988018192350864410400390625</LongitudeDegrees>
            </Position>
            <AltitudeMeters>83.40000152587890625</AltitudeMeters>
            <DistanceMeters>NAN</DistanceMeters>
          </Trackpoint>
          <Trackpoint>
            <Time>2020-02-15T12:00:42.000Z</Time>
            <Position>
              <LatitudeDegrees>41.983004026114940643310546875</LatitudeDegrees>
              <LongitudeDegrees>2.819857634603977203369140625</LongitudeDegrees>
            </Position>
            <AltitudeMeters>83.59999847412109375</AltitudeMeters>
            <DistanceMeters>NAN</DistanceMeters>
          </Trackpoint>
          <Trackpoint>
            <Time>2020-02-15T12:00:44.000Z</Time>
            <Position>
              <LatitudeDegrees>41.9830279983580112457275390625</LatitudeDegrees>
              <LongitudeDegrees>2.819849587976932525634765625</LongitudeDegrees>
            </Position>
            <AltitudeMeters>83.8000030517578125</AltitudeMeters>
            <DistanceMeters>NAN</DistanceMeters>
          </Trackpoint>
          <Trackpoint>
            <Time>2020-02-15T12:00:46.000Z</Time>
            <Position>
              <LatitudeDegrees>41.98307988233864307403564453125</LatitudeDegrees>
              <LongitudeDegrees>2.8198524378240108489990234375</LongitudeDegrees>
            </Position>
            <AltitudeMeters>83.8000030517578125</AltitudeMeters>
            <DistanceMeters>NAN</DistanceMeters>
          </Trackpoint>
          <Trackpoint>
            <Time>2020-02-15T12:00:47.000Z</Time>
            <Position>
              <LatitudeDegrees>41.9831158407032489776611328125</LatitudeDegrees>
              <LongitudeDegrees>2.81985654495656490325927734375</LongitudeDegrees>
            </Position>
            <AltitudeMeters>83.8000030517578125</AltitudeMeters>
            <DistanceMeters>NAN</DistanceMeters>
          </Trackpoint>
          <Trackpoint>
            <Time>2020-02-15T12:00:48.000Z</Time>
            <Position>
              <LatitudeDegrees>41.98314945213496685028076171875</LatitudeDegrees>
              <LongitudeDegrees>2.81987649388611316680908203125</LongitudeDegrees>
            </Position>
            <AltitudeMeters>83.8000030517578125</AltitudeMeters>
            <DistanceMeters>NAN</DistanceMeters>
          </Trackpoint>
          <Trackpoint>
            <Time>2020-02-15T12:00:49.000Z</Time>
            <Position>
              <LatitudeDegrees>41.98318867944180965423583984375</LatitudeDegrees>
              <LongitudeDegrees>2.81987666152417659759521484375</LongitudeDegrees>
            </Position>
            <AltitudeMeters>83.8000030517578125</AltitudeMeters>
            <DistanceMeters>NAN</DistanceMeters>
          </Trackpoint>
          <Trackpoint>
            <Time>2020-02-15T12:00:50.000Z</Time>
            <Position>
              <LatitudeDegrees>41.98324450291693210601806640625</LatitudeDegrees>
              <LongitudeDegrees>2.81986844725906848907470703125</LongitudeDegrees>
            </Position>
            <AltitudeMeters>83.8000030517578125</AltitudeMeters>
            <DistanceMeters>NAN</DistanceMeters>
          </Trackpoint>
          <Trackpoint>
            <Time>2020-02-15T12:00:52.000Z</Time>
            <Position>
              <LatitudeDegrees>41.9833830557763576507568359375</LatitudeDegrees>
              <LongitudeDegrees>2.819883786141872406005859375</LongitudeDegrees>
            </Position>
            <AltitudeMeters>83.8000030517578125</AltitudeMeters>
            <DistanceMeters>NAN</DistanceMeters>
          </Trackpoint>
          <Trackpoint>
            <Time>2020-02-15T12:00:53.000Z</Time>
            <Position>
              <LatitudeDegrees>41.98344969190657138824462890625</LatitudeDegrees>
              <LongitudeDegrees>2.81991924159228801727294921875</LongitudeDegrees>
            </Position>
            <AltitudeMeters>84</AltitudeMeters>
            <DistanceMeters>NAN</DistanceMeters>
          </Trackpoint>
          <Trackpoint>
            <Time>2020-02-15T12:00:54.000Z</Time>
            <Position>
              <LatitudeDegrees>41.98351238854229450225830078125</LatitudeDegrees>
              <LongitudeDegrees>2.8199667669832706451416015625</LongitudeDegrees>
            </Position>
            <AltitudeMeters>84</AltitudeMeters>
            <DistanceMeters>NAN</DistanceMeters>
          </Trackpoint>
          <Trackpoint>
            <Time>2020-02-15T12:00:56.000Z</Time>
            <Position>
              <LatitudeDegrees>41.98363577015697956085205078125</LatitudeDegrees>
              <LongitudeDegrees>2.82007028348743915557861328125</LongitudeDegrees>
            </Position>
            <AltitudeMeters>84</AltitudeMeters>
            <DistanceMeters>NAN</DistanceMeters>
          </Trackpoint>
          <Trackpoint>
            <Time>2020-02-15T12:00:58.000Z</Time>
            <Position>
              <LatitudeDegrees>41.983756385743618011474609375</LatitudeDegrees>
              <LongitudeDegrees>2.820175476372241973876953125</LongitudeDegrees>
            </Position>
            <AltitudeMeters>84</AltitudeMeters>
            <DistanceMeters>NAN</DistanceMeters>
          </Trackpoint>
          <Trackpoint>
            <Time>2020-02-15T12:00:59.000Z</Time>
            <Position>
              <LatitudeDegrees>41.98381732217967510223388671875</LatitudeDegrees>
              <LongitudeDegrees>2.82022886909544467926025390625</LongitudeDegrees>
            </Position>
            <AltitudeMeters>84</AltitudeMeters>
            <DistanceMeters>NAN</DistanceMeters>
          </Trackpoint>
          <Trackpoint>
            <Time>2020-02-15T12:01:01.000Z</Time>
            <Position>
              <LatitudeDegrees>41.983942799270153045654296875</LatitudeDegrees>
              <LongitudeDegrees>2.82032961957156658172607421875</LongitudeDegrees>
            </Position>
            <AltitudeMeters>84</AltitudeMeters>
            <DistanceMeters>NAN</DistanceMeters>
          </Trackpoint>
          <Trackpoint>
            <Time>2020-02-15T12:01:02.000Z</Time>
            <Position>
              <LatitudeDegrees>41.984001807868480682373046875</LatitudeDegrees>
              <LongitudeDegrees>2.8203811682760715484619140625</LongitudeDegrees>
            </Position>
            <AltitudeMeters>84</AltitudeMeters>
            <DistanceMeters>NAN</DistanceMeters>
          </Trackpoint>
          <Trackpoint>
            <Time>2020-02-15T12:01:03.000Z</Time>
            <Position>
              <LatitudeDegrees>41.98406391777098178863525390625</LatitudeDegrees>
              <LongitudeDegrees>2.820434980094432830810546875</LongitudeDegrees>
            </Position>
            <AltitudeMeters>84</AltitudeMeters>
            <DistanceMeters>NAN</DistanceMeters>
          </Trackpoint>
          <Trackpoint>
            <Time>2020-02-15T12:01:04.000Z</Time>
            <Position>
              <LatitudeDegrees>41.9841223396360874176025390625</LatitudeDegrees>
              <LongitudeDegrees>2.82049055211246013641357421875</LongitudeDegrees>
            </Position>
            <AltitudeMeters>84</AltitudeMeters>
            <DistanceMeters>NAN</DistanceMeters>
          </Trackpoint>
          <Trackpoint>
            <Time>2020-02-15T12:01:05.000Z</Time>
            <Position>
              <LatitudeDegrees>41.98418042622506618499755859375</LatitudeDegrees>
              <LongitudeDegrees>2.820546291768550872802734375</LongitudeDegrees>
            </Position>
            <AltitudeMeters>83.8000030517578125</AltitudeMeters>
            <DistanceMeters>NAN</DistanceMeters>
          </Trackpoint>
          <Trackpoint>
            <Time>2020-02-15T12:01:06.000Z</Time>
            <Position>
              <LatitudeDegrees>41.984238512814044952392578125</LatitudeDegrees>
              <LongitudeDegrees>2.82059867866337299346923828125</LongitudeDegrees>
            </Position>
            <AltitudeMeters>84</AltitudeMeters>
            <DistanceMeters>NAN</DistanceMeters>
          </Trackpoint>
          <Trackpoint>
            <Time>2020-02-15T12:01:07.000Z</Time>
            <Position>
              <LatitudeDegrees>41.9842970184981822967529296875</LatitudeDegrees>
              <LongitudeDegrees>2.82065081410109996795654296875</LongitudeDegrees>
            </Position>
            <AltitudeMeters>84</AltitudeMeters>
            <DistanceMeters>NAN</DistanceMeters>
          </Trackpoint>
          <Trackpoint>
            <Time>2020-02-15T12:01:08.000Z</Time>
            <Position>
              <LatitudeDegrees>41.98435443453490734100341796875</LatitudeDegrees>
              <LongitudeDegrees>2.8207060508430004119873046875</LongitudeDegrees>
            </Position>
            <AltitudeMeters>83.8000030517578125</AltitudeMeters>
            <DistanceMeters>NAN</DistanceMeters>
          </Trackpoint>
          <Trackpoint>
            <Time>2020-02-15T12:01:09.000Z</Time>
            <Position>
              <LatitudeDegrees>41.98440782725811004638671875</LatitudeDegrees>
              <LongitudeDegrees>2.8207625448703765869140625</LongitudeDegrees>
            </Position>
            <AltitudeMeters>83.8000030517578125</AltitudeMeters>
            <DistanceMeters>NAN</DistanceMeters>
          </Trackpoint>
          <Trackpoint>
            <Time>2020-02-15T12:01:10.000Z</Time>
            <Position>
              <LatitudeDegrees>41.98445987887680530548095703125</LatitudeDegrees>
              <LongitudeDegrees>2.8208215534687042236328125</LongitudeDegrees>
            </Position>
            <AltitudeMeters>83.59999847412109375</AltitudeMeters>
            <DistanceMeters>NAN</DistanceMeters>
          </Trackpoint>
          <Trackpoint>
            <Time>2020-02-15T12:01:12.000Z</Time>
            <Position>
              <LatitudeDegrees>41.98456314392387866973876953125</LatitudeDegrees>
              <LongitudeDegrees>2.8209414146840572357177734375</LongitudeDegrees>
            </Position>
            <AltitudeMeters>83.40000152587890625</AltitudeMeters>
            <DistanceMeters>NAN</DistanceMeters>
          </Trackpoint>
          <Trackpoint>
            <Time>2020-02-15T12:01:13.000Z</Time>
            <Position>
              <LatitudeDegrees>41.98461444117128849029541015625</LatitudeDegrees>
              <LongitudeDegrees>2.821001596748828887939453125</LongitudeDegrees>
            </Position>
            <AltitudeMeters>83.1999969482421875</AltitudeMeters>
            <DistanceMeters>NAN</DistanceMeters>
          </Trackpoint>
          <Trackpoint>
            <Time>2020-02-15T12:01:14.000Z</Time>
            <Position>
              <LatitudeDegrees>41.9846661575138568878173828125</LatitudeDegrees>
              <LongitudeDegrees>2.82106035389006137847900390625</LongitudeDegrees>
            </Position>
            <AltitudeMeters>83</AltitudeMeters>
            <DistanceMeters>NAN</DistanceMeters>
          </Trackpoint>
          <Trackpoint>
            <Time>2020-02-15T12:01:15.000Z</Time>
            <Position>
              <LatitudeDegrees>41.984719298779964447021484375</LatitudeDegrees>
              <LongitudeDegrees>2.8211165964603424072265625</LongitudeDegrees>
            </Position>
            <AltitudeMeters>83</AltitudeMeters>
            <DistanceMeters>NAN</DistanceMeters>
          </Trackpoint>
          <Trackpoint>
            <Time>2020-02-15T12:01:19.000Z</Time>
            <Position>
              <LatitudeDegrees>41.98494720272719860076904296875</LatitudeDegrees>
              <LongitudeDegrees>2.82135925255715847015380859375</LongitudeDegrees>
            </Position>
            <AltitudeMeters>82.59999847412109375</AltitudeMeters>
            <DistanceMeters>NAN</DistanceMeters>
          </Trackpoint>
          <Trackpoint>
            <Time>2020-02-15T12:01:20.000Z</Time>
            <Position>
              <LatitudeDegrees>41.98499925434589385986328125</LatitudeDegrees>
              <LongitudeDegrees>2.82142572104930877685546875</LongitudeDegrees>
            </Position>
            <AltitudeMeters>82.59999847412109375</AltitudeMeters>
            <DistanceMeters>NAN</DistanceMeters>
          </Trackpoint>
          <Trackpoint>
            <Time>2020-02-15T12:01:23.000Z</Time>
            <Position>
              <LatitudeDegrees>41.98514987714588642120361328125</LatitudeDegrees>
              <LongitudeDegrees>2.8216394595801830291748046875</LongitudeDegrees>
            </Position>
            <AltitudeMeters>82</AltitudeMeters>
            <DistanceMeters>NAN</DistanceMeters>
          </Trackpoint>
          <Trackpoint>
            <Time>2020-02-15T12:01:24.000Z</Time>
            <Position>
              <LatitudeDegrees>41.9851962290704250335693359375</LatitudeDegrees>
              <LongitudeDegrees>2.8217122144997119903564453125</LongitudeDegrees>
            </Position>
            <AltitudeMeters>82</AltitudeMeters>
            <DistanceMeters>NAN</DistanceMeters>
          </Trackpoint>
          <Trackpoint>
            <Time>2020-02-15T12:01:25.000Z</Time>
            <Position>
              <LatitudeDegrees>41.9852468557655811309814453125</LatitudeDegrees>
              <LongitudeDegrees>2.82178916037082672119140625</LongitudeDegrees>
            </Position>
            <AltitudeMeters>82</AltitudeMeters>
            <DistanceMeters>NAN</DistanceMeters>
          </Trackpoint>
          <Trackpoint>
            <Time>2020-02-15T12:01:26.000Z</Time>
            <Position>
              <LatitudeDegrees>41.9852951355278491973876953125</LatitudeDegrees>
              <LongitudeDegrees>2.82186283729970455169677734375</LongitudeDegrees>
            </Position>
            <AltitudeMeters>82</AltitudeMeters>
            <DistanceMeters>NAN</DistanceMeters>
          </Trackpoint>
          <Trackpoint>
            <Time>2020-02-15T12:01:27.000Z</Time>
            <Position>
              <LatitudeDegrees>41.9853434152901172637939453125</LatitudeDegrees>
              <LongitudeDegrees>2.82193265855312347412109375</LongitudeDegrees>
            </Position>
            <AltitudeMeters>81.8000030517578125</AltitudeMeters>
            <DistanceMeters>NAN</DistanceMeters>
          </Trackpoint>
          <Trackpoint>
            <Time>2020-02-15T12:01:28.000Z</Time>
            <Position>
              <LatitudeDegrees>41.98539219796657562255859375</LatitudeDegrees>
              <LongitudeDegrees>2.822006754577159881591796875</LongitudeDegrees>
            </Position>
            <AltitudeMeters>81.59999847412109375</AltitudeMeters>
            <DistanceMeters>NAN</DistanceMeters>
          </Trackpoint>
          <Trackpoint>
            <Time>2020-02-15T12:01:29.000Z</Time>
            <Position>
              <LatitudeDegrees>41.9854359515011310577392578125</LatitudeDegrees>
              <LongitudeDegrees>2.8220733068883419036865234375</LongitudeDegrees>
            </Position>
            <AltitudeMeters>81.59999847412109375</AltitudeMeters>
            <DistanceMeters>NAN</DistanceMeters>
          </Trackpoint>
          <Trackpoint>
            <Time>2020-02-15T12:01:30.000Z</Time>
            <Position>
              <LatitudeDegrees>41.98547962121665477752685546875</LatitudeDegrees>
              <LongitudeDegrees>2.82213591970503330230712890625</LongitudeDegrees>
            </Position>
            <AltitudeMeters>81.59999847412109375</AltitudeMeters>
            <DistanceMeters>NAN</DistanceMeters>
          </Trackpoint>
          <Trackpoint>
            <Time>2020-02-15T12:01:31.000Z</Time>
            <Position>
              <LatitudeDegrees>41.98552521876990795135498046875</LatitudeDegrees>
              <LongitudeDegrees>2.82219417393207550048828125</LongitudeDegrees>
            </Position>
            <AltitudeMeters>81.59999847412109375</AltitudeMeters>
            <DistanceMeters>NAN</DistanceMeters>
          </Trackpoint>
          <Trackpoint>
            <Time>2020-02-15T12:01:32.000Z</Time>
            <Position>
              <LatitudeDegrees>41.98556981049478054046630859375</LatitudeDegrees>
              <LongitudeDegrees>2.8222536854445934295654296875</LongitudeDegrees>
            </Position>
            <AltitudeMeters>81.59999847412109375</AltitudeMeters>
            <DistanceMeters>NAN</DistanceMeters>
          </Trackpoint>
          <Trackpoint>
            <Time>2020-02-15T12:01:33.000Z</Time>
            <Position>
              <LatitudeDegrees>41.98561389930546283721923828125</LatitudeDegrees>
              <LongitudeDegrees>2.82230556942522525787353515625</LongitudeDegrees>
            </Position>
            <AltitudeMeters>81.40000152587890625</AltitudeMeters>
            <DistanceMeters>NAN</DistanceMeters>
          </Trackpoint>
          <Trackpoint>
            <Time>2020-02-15T12:01:34.000Z</Time>
            <Position>
              <LatitudeDegrees>41.9856605865061283111572265625</LatitudeDegrees>
              <LongitudeDegrees>2.82236608676612377166748046875</LongitudeDegrees>
            </Position>
            <AltitudeMeters>81.40000152587890625</AltitudeMeters>
            <DistanceMeters>NAN</DistanceMeters>
          </Trackpoint>
          <Trackpoint>
            <Time>2020-02-15T12:01:36.000Z</Time>
            <Position>
              <LatitudeDegrees>41.98575421236455440521240234375</LatitudeDegrees>
              <LongitudeDegrees>2.8224950842559337615966796875</LongitudeDegrees>
            </Position>
            <AltitudeMeters>81.40000152587890625</AltitudeMeters>
            <DistanceMeters>NAN</DistanceMeters>
          </Trackpoint>
          <Trackpoint>
            <Time>2020-02-15T12:01:37.000Z</Time>
            <Position>
              <LatitudeDegrees>41.9857923500239849090576171875</LatitudeDegrees>
              <LongitudeDegrees>2.822548560798168182373046875</LongitudeDegrees>
            </Position>
            <AltitudeMeters>81.40000152587890625</AltitudeMeters>
            <DistanceMeters>NAN</DistanceMeters>
          </Trackpoint>
          <Trackpoint>
            <Time>2020-02-15T12:01:38.000Z</Time>
            <Position>
              <LatitudeDegrees>41.98582747019827365875244140625</LatitudeDegrees>
              <LongitudeDegrees>2.82260664738714694976806640625</LongitudeDegrees>
            </Position>
            <AltitudeMeters>81.40000152587890625</AltitudeMeters>
            <DistanceMeters>NAN</DistanceMeters>
          </Trackpoint>
          <Trackpoint>
            <Time>2020-02-15T12:01:39.000Z</Time>
            <Position>
              <LatitudeDegrees>41.98585043661296367645263671875</LatitudeDegrees>
              <LongitudeDegrees>2.8226643986999988555908203125</LongitudeDegrees>
            </Position>
            <AltitudeMeters>81.1999969482421875</AltitudeMeters>
            <DistanceMeters>NAN</DistanceMeters>
          </Trackpoint>
          <Trackpoint>
            <Time>2020-02-15T12:01:40.000Z</Time>
            <Position>
              <LatitudeDegrees>41.98586761951446533203125</LatitudeDegrees>
              <LongitudeDegrees>2.82272382639348506927490234375</LongitudeDegrees>
            </Position>
            <AltitudeMeters>81.1999969482421875</AltitudeMeters>
            <DistanceMeters>NAN</DistanceMeters>
          </Trackpoint>
          <Trackpoint>
            <Time>2020-02-15T12:01:41.000Z</Time>
            <Position>
              <LatitudeDegrees>41.9858842156827449798583984375</LatitudeDegrees>
              <LongitudeDegrees>2.822787947952747344970703125</LongitudeDegrees>
            </Position>
            <AltitudeMeters>81.1999969482421875</AltitudeMeters>
            <DistanceMeters>NAN</DistanceMeters>
          </Trackpoint>
          <Trackpoint>
            <Time>2020-02-15T12:01:42.000Z</Time>
            <Position>
              <LatitudeDegrees>41.98590223677456378936767578125</LatitudeDegrees>
              <LongitudeDegrees>2.8228568471968173980712890625</LongitudeDegrees>
            </Position>
            <AltitudeMeters>81</AltitudeMeters>
            <DistanceMeters>NAN</DistanceMeters>
          </Trackpoint>
          <Trackpoint>
            <Time>2020-02-15T12:01:44.000Z</Time>
            <Position>
              <LatitudeDegrees>41.9859318248927593231201171875</LatitudeDegrees>
              <LongitudeDegrees>2.82299037091434001922607421875</LongitudeDegrees>
            </Position>
            <AltitudeMeters>80.8000030517578125</AltitudeMeters>
            <DistanceMeters>NAN</DistanceMeters>
          </Trackpoint>
          <Trackpoint>
            <Time>2020-02-15T12:01:45.000Z</Time>
            <Position>
              <LatitudeDegrees>41.98593911714851856231689453125</LatitudeDegrees>
              <LongitudeDegrees>2.8230435959994792938232421875</LongitudeDegrees>
            </Position>
            <AltitudeMeters>81</AltitudeMeters>
            <DistanceMeters>NAN</DistanceMeters>
          </Trackpoint>
          <Trackpoint>
            <Time>2020-02-15T12:01:46.000Z</Time>
            <Position>
              <LatitudeDegrees>41.98594984598457813262939453125</LatitudeDegrees>
              <LongitudeDegrees>2.82310402952134609222412109375</LongitudeDegrees>
            </Position>
            <AltitudeMeters>81</AltitudeMeters>
            <DistanceMeters>NAN</DistanceMeters>
          </Trackpoint>
          <Trackpoint>
            <Time>2020-02-15T12:01:47.000Z</Time>
            <Position>
              <LatitudeDegrees>41.98596811853349208831787109375</LatitudeDegrees>
              <LongitudeDegrees>2.82316605560481548309326171875</LongitudeDegrees>
            </Position>
            <AltitudeMeters>81</AltitudeMeters>
            <DistanceMeters>NAN</DistanceMeters>
          </Trackpoint>
          <Trackpoint>
            <Time>2020-02-15T12:01:48.000Z</Time>
            <Position>
              <LatitudeDegrees>41.9859837926924228668212890625</LatitudeDegrees>
              <LongitudeDegrees>2.823223806917667388916015625</LongitudeDegrees>
            </Position>
            <AltitudeMeters>80.8000030517578125</AltitudeMeters>
            <DistanceMeters>NAN</DistanceMeters>
          </Trackpoint>
          <Trackpoint>
            <Time>2020-02-15T12:01:52.000Z</Time>
            <Position>
              <LatitudeDegrees>41.98603919707238674163818359375</LatitudeDegrees>
              <LongitudeDegrees>2.82345908693969249725341796875</LongitudeDegrees>
            </Position>
            <AltitudeMeters>80.8000030517578125</AltitudeMeters>
            <DistanceMeters>NAN</DistanceMeters>
          </Trackpoint>
          <Trackpoint>
            <Time>2020-02-15T12:01:53.000Z</Time>
            <Position>
              <LatitudeDegrees>41.986065097153186798095703125</LatitudeDegrees>
              <LongitudeDegrees>2.823520861566066741943359375</LongitudeDegrees>
            </Position>
            <AltitudeMeters>80.8000030517578125</AltitudeMeters>
            <DistanceMeters>NAN</DistanceMeters>
          </Trackpoint>
          <Trackpoint>
            <Time>2020-02-15T12:01:54.000Z</Time>
            <Position>
              <LatitudeDegrees>41.98609292507171630859375</LatitudeDegrees>
              <LongitudeDegrees>2.8235780261456966400146484375</LongitudeDegrees>
            </Position>
            <AltitudeMeters>80.8000030517578125</AltitudeMeters>
            <DistanceMeters>NAN</DistanceMeters>
          </Trackpoint>
          <Trackpoint>
            <Time>2020-02-15T12:01:55.000Z</Time>
            <Position>
              <LatitudeDegrees>41.98612787760794162750244140625</LatitudeDegrees>
              <LongitudeDegrees>2.8236325085163116455078125</LongitudeDegrees>
            </Position>
            <AltitudeMeters>80.8000030517578125</AltitudeMeters>
            <DistanceMeters>NAN</DistanceMeters>
          </Trackpoint>
          <Trackpoint>
            <Time>2020-02-15T12:01:56.000Z</Time>
            <Position>
              <LatitudeDegrees>41.98616827838122844696044921875</LatitudeDegrees>
              <LongitudeDegrees>2.82367466948926448822021484375</LongitudeDegrees>
            </Position>
            <AltitudeMeters>80.8000030517578125</AltitudeMeters>
            <DistanceMeters>NAN</DistanceMeters>
          </Trackpoint>
          <Trackpoint>
            <Time>2020-02-15T12:01:57.000Z</Time>
            <Position>
              <LatitudeDegrees>41.98621856980025768280029296875</LatitudeDegrees>
              <LongitudeDegrees>2.82370165921747684478759765625</LongitudeDegrees>
            </Position>
            <AltitudeMeters>80.8000030517578125</AltitudeMeters>
            <DistanceMeters>NAN</DistanceMeters>
          </Trackpoint>
          <Trackpoint>
            <Time>2020-02-15T12:01:58.000Z</Time>
            <Position>
              <LatitudeDegrees>41.9862654246389865875244140625</LatitudeDegrees>
              <LongitudeDegrees>2.823714651167392730712890625</LongitudeDegrees>
            </Position>
            <AltitudeMeters>81</AltitudeMeters>
            <DistanceMeters>NAN</DistanceMeters>
          </Trackpoint>
          <Trackpoint>
            <Time>2020-02-15T12:01:59.000Z</Time>
            <Position>
              <LatitudeDegrees>41.98631814680993556976318359375</LatitudeDegrees>
              <LongitudeDegrees>2.8237087838351726531982421875</LongitudeDegrees>
            </Position>
            <AltitudeMeters>80.8000030517578125</AltitudeMeters>
            <DistanceMeters>NAN</DistanceMeters>
          </Trackpoint>
          <Trackpoint>
            <Time>2020-02-15T12:02:00.000Z</Time>
            <Position>
              <LatitudeDegrees>41.9863686896860599517822265625</LatitudeDegrees>
              <LongitudeDegrees>2.82369897700846195220947265625</LongitudeDegrees>
            </Position>
            <AltitudeMeters>80.8000030517578125</AltitudeMeters>
            <DistanceMeters>NAN</DistanceMeters>
          </Trackpoint>
          <Trackpoint>
            <Time>2020-02-15T12:02:03.000Z</Time>
            <Position>
              <LatitudeDegrees>41.98653255589306354522705078125</LatitudeDegrees>
              <LongitudeDegrees>2.82364298589527606964111328125</LongitudeDegrees>
            </Position>
            <AltitudeMeters>80.8000030517578125</AltitudeMeters>
            <DistanceMeters>NAN</DistanceMeters>
          </Trackpoint>
          <Trackpoint>
            <Time>2020-02-15T12:02:06.000Z</Time>
            <Position>
              <LatitudeDegrees>41.98669667355716228485107421875</LatitudeDegrees>
              <LongitudeDegrees>2.8235837258398532867431640625</LongitudeDegrees>
            </Position>
            <AltitudeMeters>80.8000030517578125</AltitudeMeters>
            <DistanceMeters>NAN</DistanceMeters>
          </Trackpoint>
          <Trackpoint>
            <Time>2020-02-15T12:02:08.000Z</Time>
            <Position>
              <LatitudeDegrees>41.9868062250316143035888671875</LatitudeDegrees>
              <LongitudeDegrees>2.823545001447200775146484375</LongitudeDegrees>
            </Position>
            <AltitudeMeters>81</AltitudeMeters>
            <DistanceMeters>NAN</DistanceMeters>
          </Trackpoint>
          <Trackpoint>
            <Time>2020-02-15T12:02:09.000Z</Time>
            <Position>
              <LatitudeDegrees>41.9868648983538150787353515625</LatitudeDegrees>
              <LongitudeDegrees>2.8235273994505405426025390625</LongitudeDegrees>
            </Position>
            <AltitudeMeters>80.8000030517578125</AltitudeMeters>
            <DistanceMeters>NAN</DistanceMeters>
          </Trackpoint>
          <Trackpoint>
            <Time>2020-02-15T12:02:11.000Z</Time>
            <Position>
              <LatitudeDegrees>41.98697729967534542083740234375</LatitudeDegrees>
              <LongitudeDegrees>2.82349781133234500885009765625</LongitudeDegrees>
            </Position>
            <AltitudeMeters>80.8000030517578125</AltitudeMeters>
            <DistanceMeters>NAN</DistanceMeters>
          </Trackpoint>
          <Trackpoint>
            <Time>2020-02-15T12:02:12.000Z</Time>
            <Position>
              <LatitudeDegrees>41.98703798465430736541748046875</LatitudeDegrees>
              <LongitudeDegrees>2.823482640087604522705078125</LongitudeDegrees>
            </Position>
            <AltitudeMeters>80.8000030517578125</AltitudeMeters>
            <DistanceMeters>NAN</DistanceMeters>
          </Trackpoint>
          <Trackpoint>
            <Time>2020-02-15T12:02:13.000Z</Time>
            <Position>
              <LatitudeDegrees>41.9870975799858570098876953125</LatitudeDegrees>
              <LongitudeDegrees>2.8234680555760860443115234375</LongitudeDegrees>
            </Position>
            <AltitudeMeters>81</AltitudeMeters>
            <DistanceMeters>NAN</DistanceMeters>
          </Trackpoint>
          <Trackpoint>
            <Time>2020-02-15T12:02:14.000Z</Time>
            <Position>
              <LatitudeDegrees>41.9871572591364383697509765625</LatitudeDegrees>
              <LongitudeDegrees>2.82344676554203033447265625</LongitudeDegrees>
            </Position>
            <AltitudeMeters>80.8000030517578125</AltitudeMeters>
            <DistanceMeters>NAN</DistanceMeters>
          </Trackpoint>
          <Trackpoint>
            <Time>2020-02-15T12:02:16.000Z</Time>
            <Position>
              <LatitudeDegrees>41.987283490598201751708984375</LatitudeDegrees>
              <LongitudeDegrees>2.82341784797608852386474609375</LongitudeDegrees>
            </Position>
            <AltitudeMeters>81</AltitudeMeters>
            <DistanceMeters>NAN</DistanceMeters>
          </Trackpoint>
          <Trackpoint>
            <Time>2020-02-15T12:02:18.000Z</Time>
            <Position>
              <LatitudeDegrees>41.98739572428166866302490234375</LatitudeDegrees>
              <LongitudeDegrees>2.82338147051632404327392578125</LongitudeDegrees>
            </Position>
            <AltitudeMeters>80.8000030517578125</AltitudeMeters>
            <DistanceMeters>NAN</DistanceMeters>
          </Trackpoint>
          <Trackpoint>
            <Time>2020-02-15T12:02:19.000Z</Time>
            <Position>
              <LatitudeDegrees>41.98744517751038074493408203125</LatitudeDegrees>
              <LongitudeDegrees>2.82336705364286899566650390625</LongitudeDegrees>
            </Position>
            <AltitudeMeters>80.8000030517578125</AltitudeMeters>
            <DistanceMeters>NAN</DistanceMeters>
          </Trackpoint>
          <Trackpoint>
            <Time>2020-02-15T12:02:20.000Z</Time>
            <Position>
              <LatitudeDegrees>41.987496055662631988525390625</LatitudeDegrees>
              <LongitudeDegrees>2.82335163094103336334228515625</LongitudeDegrees>
            </Position>
            <AltitudeMeters>80.8000030517578125</AltitudeMeters>
            <DistanceMeters>NAN</DistanceMeters>
          </Trackpoint>
          <Trackpoint>
            <Time>2020-02-15T12:02:21.000Z</Time>
            <Position>
              <LatitudeDegrees>41.9875525496900081634521484375</LatitudeDegrees>
              <LongitudeDegrees>2.823335789144039154052734375</LongitudeDegrees>
            </Position>
            <AltitudeMeters>80.8000030517578125</AltitudeMeters>
            <DistanceMeters>NAN</DistanceMeters>
          </Trackpoint>
          <Trackpoint>
            <Time>2020-02-15T12:02:23.000Z</Time>
            <Position>
              <LatitudeDegrees>41.9876729138195514678955078125</LatitudeDegrees>
              <LongitudeDegrees>2.82328440807759761810302734375</LongitudeDegrees>
            </Position>
            <AltitudeMeters>80.8000030517578125</AltitudeMeters>
            <DistanceMeters>NAN</DistanceMeters>
          </Trackpoint>
          <Trackpoint>
            <Time>2020-02-15T12:02:24.000Z</Time>
            <Position>
              <LatitudeDegrees>41.98773284442722797393798828125</LatitudeDegrees>
              <LongitudeDegrees>2.8232484497129917144775390625</LongitudeDegrees>
            </Position>
            <AltitudeMeters>80.59999847412109375</AltitudeMeters>
            <DistanceMeters>NAN</DistanceMeters>
          </Trackpoint>
          <Trackpoint>
            <Time>2020-02-15T12:02:26.000Z</Time>
            <Position>
              <LatitudeDegrees>41.98784013278782367706298828125</LatitudeDegrees>
              <LongitudeDegrees>2.8231738507747650146484375</LongitudeDegrees>
            </Position>
            <AltitudeMeters>80.8000030517578125</AltitudeMeters>
            <DistanceMeters>NAN</DistanceMeters>
          </Trackpoint>
          <Trackpoint>
            <Time>2020-02-15T12:02:27.000Z</Time>
            <Position>
              <LatitudeDegrees>41.9878962077200412750244140625</LatitudeDegrees>
              <LongitudeDegrees>2.8231341205537319183349609375</LongitudeDegrees>
            </Position>
            <AltitudeMeters>80.59999847412109375</AltitudeMeters>
            <DistanceMeters>NAN</DistanceMeters>
          </Trackpoint>
          <Trackpoint>
            <Time>2020-02-15T12:02:28.000Z</Time>
            <Position>
              <LatitudeDegrees>41.987955383956432342529296875</LatitudeDegrees>
              <LongitudeDegrees>2.82309539616107940673828125</LongitudeDegrees>
            </Position>
            <AltitudeMeters>80.59999847412109375</AltitudeMeters>
            <DistanceMeters>NAN</DistanceMeters>
          </Trackpoint>
          <Trackpoint>
            <Time>2020-02-15T12:02:30.000Z</Time>
            <Position>
              <LatitudeDegrees>41.9880789332091808319091796875</LatitudeDegrees>
              <LongitudeDegrees>2.82303261570632457733154296875</LongitudeDegrees>
            </Position>
            <AltitudeMeters>80.59999847412109375</AltitudeMeters>
            <DistanceMeters>NAN</DistanceMeters>
          </Trackpoint>
          <Trackpoint>
            <Time>2020-02-15T12:02:31.000Z</Time>
            <Position>
              <LatitudeDegrees>41.98814137838780879974365234375</LatitudeDegrees>
              <LongitudeDegrees>2.82300897873938083648681640625</LongitudeDegrees>
            </Position>
            <AltitudeMeters>80.59999847412109375</AltitudeMeters>
            <DistanceMeters>NAN</DistanceMeters>
          </Trackpoint>
          <Trackpoint>
            <Time>2020-02-15T12:02:32.000Z</Time>
            <Position>
              <LatitudeDegrees>41.9882024824619293212890625</LatitudeDegrees>
              <LongitudeDegrees>2.82298400066792964935302734375</LongitudeDegrees>
            </Position>
            <AltitudeMeters>80.59999847412109375</AltitudeMeters>
            <DistanceMeters>NAN</DistanceMeters>
          </Trackpoint>
          <Trackpoint>
            <Time>2020-02-15T12:02:34.000Z</Time>
            <Position>
              <LatitudeDegrees>41.9883223436772823333740234375</LatitudeDegrees>
              <LongitudeDegrees>2.82293991185724735260009765625</LongitudeDegrees>
            </Position>
            <AltitudeMeters>80.8000030517578125</AltitudeMeters>
            <DistanceMeters>NAN</DistanceMeters>
          </Trackpoint>
          <Trackpoint>
            <Time>2020-02-15T12:02:37.000Z</Time>
            <Position>
              <LatitudeDegrees>41.9885037280619144439697265625</LatitudeDegrees>
              <LongitudeDegrees>2.82289045862853527069091796875</LongitudeDegrees>
            </Position>
            <AltitudeMeters>80.8000030517578125</AltitudeMeters>
            <DistanceMeters>NAN</DistanceMeters>
          </Trackpoint>
          <Trackpoint>
            <Time>2020-02-15T12:02:39.000Z</Time>
            <Position>
              <LatitudeDegrees>41.98862266726791858673095703125</LatitudeDegrees>
              <LongitudeDegrees>2.82286363653838634490966796875</LongitudeDegrees>
            </Position>
            <AltitudeMeters>80.59999847412109375</AltitudeMeters>
            <DistanceMeters>NAN</DistanceMeters>
          </Trackpoint>
          <Trackpoint>
            <Time>2020-02-15T12:02:40.000Z</Time>
            <Position>
              <LatitudeDegrees>41.9886804185807704925537109375</LatitudeDegrees>
              <LongitudeDegrees>2.822849638760089874267578125</LongitudeDegrees>
            </Position>
            <AltitudeMeters>80.59999847412109375</AltitudeMeters>
            <DistanceMeters>NAN</DistanceMeters>
          </Trackpoint>
          <Trackpoint>
            <Time>2020-02-15T12:02:41.000Z</Time>
            <Position>
              <LatitudeDegrees>41.98873783461749553680419921875</LatitudeDegrees>
              <LongitudeDegrees>2.82283513806760311126708984375</LongitudeDegrees>
            </Position>
            <AltitudeMeters>80.59999847412109375</AltitudeMeters>
            <DistanceMeters>NAN</DistanceMeters>
          </Trackpoint>
          <Trackpoint>
            <Time>2020-02-15T12:02:42.000Z</Time>
            <Position>
              <LatitudeDegrees>41.98879332281649112701416015625</LatitudeDegrees>
              <LongitudeDegrees>2.82282105647027492523193359375</LongitudeDegrees>
            </Position>
            <AltitudeMeters>80.59999847412109375</AltitudeMeters>
            <DistanceMeters>NAN</DistanceMeters>
          </Trackpoint>
          <Trackpoint>
            <Time>2020-02-15T12:02:43.000Z</Time>
            <Position>
              <LatitudeDegrees>41.98884554207324981689453125</LatitudeDegrees>
              <LongitudeDegrees>2.82280663959681987762451171875</LongitudeDegrees>
            </Position>
            <AltitudeMeters>80.40000152587890625</AltitudeMeters>
            <DistanceMeters>NAN</DistanceMeters>
          </Trackpoint>
          <Trackpoint>
            <Time>2020-02-15T12:02:44.000Z</Time>
            <Position>
              <LatitudeDegrees>41.98889792896807193756103515625</LatitudeDegrees>
              <LongitudeDegrees>2.82279306091368198394775390625</LongitudeDegrees>
            </Position>
            <AltitudeMeters>80.59999847412109375</AltitudeMeters>
            <DistanceMeters>NAN</DistanceMeters>
          </Trackpoint>
          <Trackpoint>
            <Time>2020-02-15T12:02:45.000Z</Time>
            <Position>
              <LatitudeDegrees>41.988947801291942596435546875</LatitudeDegrees>
              <LongitudeDegrees>2.82277596183121204376220703125</LongitudeDegrees>
            </Position>
            <AltitudeMeters>80.59999847412109375</AltitudeMeters>
            <DistanceMeters>NAN</DistanceMeters>
          </Trackpoint>
          <Trackpoint>
            <Time>2020-02-15T12:02:46.000Z</Time>
            <Position>
              <LatitudeDegrees>41.9889965839684009552001953125</LatitudeDegrees>
              <LongitudeDegrees>2.82274997793138027191162109375</LongitudeDegrees>
            </Position>
            <AltitudeMeters>80.40000152587890625</AltitudeMeters>
            <DistanceMeters>NAN</DistanceMeters>
          </Trackpoint>
          <Trackpoint>
            <Time>2020-02-15T12:02:47.000Z</Time>
            <Position>
              <LatitudeDegrees>41.98904461227357387542724609375</LatitudeDegrees>
              <LongitudeDegrees>2.82272483222186565399169921875</LongitudeDegrees>
            </Position>
            <AltitudeMeters>80.40000152587890625</AltitudeMeters>
            <DistanceMeters>NAN</DistanceMeters>
          </Trackpoint>
          <Trackpoint>
            <Time>2020-02-15T12:02:48.000Z</Time>
            <Position>
              <LatitudeDegrees>41.9890929758548736572265625</LatitudeDegrees>
              <LongitudeDegrees>2.82271678559482097625732421875</LongitudeDegrees>
            </Position>
            <AltitudeMeters>80.40000152587890625</AltitudeMeters>
            <DistanceMeters>NAN</DistanceMeters>
          </Trackpoint>
          <Trackpoint>
            <Time>2020-02-15T12:02:49.000Z</Time>
            <Position>
              <LatitudeDegrees>41.98913647793233394622802734375</LatitudeDegrees>
              <LongitudeDegrees>2.822727262973785400390625</LongitudeDegrees>
            </Position>
            <AltitudeMeters>80.59999847412109375</AltitudeMeters>
            <DistanceMeters>NAN</DistanceMeters>
          </Trackpoint>
          <Trackpoint>
            <Time>2020-02-15T12:02:50.000Z</Time>
            <Position>
              <LatitudeDegrees>41.989177800714969635009765625</LatitudeDegrees>
              <LongitudeDegrees>2.8227473795413970947265625</LongitudeDegrees>
            </Position>
            <AltitudeMeters>80.40000152587890625</AltitudeMeters>
            <DistanceMeters>NAN</DistanceMeters>
          </Trackpoint>
          <Trackpoint>
            <Time>2020-02-15T12:02:51.000Z</Time>
            <Position>
              <LatitudeDegrees>41.9892185367643833160400390625</LatitudeDegrees>
              <LongitudeDegrees>2.82277059741318225860595703125</LongitudeDegrees>
            </Position>
            <AltitudeMeters>80.40000152587890625</AltitudeMeters>
            <DistanceMeters>NAN</DistanceMeters>
          </Trackpoint>
          <Trackpoint>
            <Time>2020-02-15T12:02:52.000Z</Time>
            <Position>
              <LatitudeDegrees>41.98926170356571674346923828125</LatitudeDegrees>
              <LongitudeDegrees>2.82279498875141143798828125</LongitudeDegrees>
            </Position>
            <AltitudeMeters>80.40000152587890625</AltitudeMeters>
            <DistanceMeters>NAN</DistanceMeters>
          </Trackpoint>
          <Trackpoint>
            <Time>2020-02-15T12:02:53.000Z</Time>
            <Position>
              <LatitudeDegrees>41.9893077202141284942626953125</LatitudeDegrees>
              <LongitudeDegrees>2.8228139318525791168212890625</LongitudeDegrees>
            </Position>
            <AltitudeMeters>80.40000152587890625</AltitudeMeters>
            <DistanceMeters>NAN</DistanceMeters>
          </Trackpoint>
          <Trackpoint>
            <Time>2020-02-15T12:02:54.000Z</Time>
            <Position>
              <LatitudeDegrees>41.98935323394834995269775390625</LatitudeDegrees>
              <LongitudeDegrees>2.82282583415508270263671875</LongitudeDegrees>
            </Position>
            <AltitudeMeters>80.40000152587890625</AltitudeMeters>
            <DistanceMeters>NAN</DistanceMeters>
          </Trackpoint>
          <Trackpoint>
            <Time>2020-02-15T12:02:55.000Z</Time>
            <Position>
              <LatitudeDegrees>41.9893942214548587799072265625</LatitudeDegrees>
              <LongitudeDegrees>2.82284318469464778900146484375</LongitudeDegrees>
            </Position>
            <AltitudeMeters>80.40000152587890625</AltitudeMeters>
            <DistanceMeters>NAN</DistanceMeters>
          </Trackpoint>
          <Trackpoint>
            <Time>2020-02-15T12:02:56.000Z</Time>
            <Position>
              <LatitudeDegrees>41.98942163027822971343994140625</LatitudeDegrees>
              <LongitudeDegrees>2.822881154716014862060546875</LongitudeDegrees>
            </Position>
            <AltitudeMeters>80.40000152587890625</AltitudeMeters>
            <DistanceMeters>NAN</DistanceMeters>
          </Trackpoint>
          <Trackpoint>
            <Time>2020-02-15T12:02:57.000Z</Time>
            <Position>
              <LatitudeDegrees>41.9894341193139553070068359375</LatitudeDegrees>
              <LongitudeDegrees>2.82294108532369136810302734375</LongitudeDegrees>
            </Position>
            <AltitudeMeters>80.40000152587890625</AltitudeMeters>
            <DistanceMeters>NAN</DistanceMeters>
          </Trackpoint>
          <Trackpoint>
            <Time>2020-02-15T12:02:58.000Z</Time>
            <Position>
              <LatitudeDegrees>41.98943805880844593048095703125</LatitudeDegrees>
              <LongitudeDegrees>2.823013253509998321533203125</LongitudeDegrees>
            </Position>
            <AltitudeMeters>80.40000152587890625</AltitudeMeters>
            <DistanceMeters>NAN</DistanceMeters>
          </Trackpoint>
          <Trackpoint>
            <Time>2020-02-15T12:03:02.000Z</Time>
            <Position>
              <LatitudeDegrees>41.9894559122622013092041015625</LatitudeDegrees>
              <LongitudeDegrees>2.8233074583113193511962890625</LongitudeDegrees>
            </Position>
            <AltitudeMeters>80.59999847412109375</AltitudeMeters>
            <DistanceMeters>NAN</DistanceMeters>
          </Trackpoint>
          <Trackpoint>
            <Time>2020-02-15T12:03:04.000Z</Time>
            <Position>
              <LatitudeDegrees>41.98946437798440456390380859375</LatitudeDegrees>
              <LongitudeDegrees>2.82345757819712162017822265625</LongitudeDegrees>
            </Position>
            <AltitudeMeters>80.59999847412109375</AltitudeMeters>
            <DistanceMeters>NAN</DistanceMeters>
          </Trackpoint>
          <Trackpoint>
            <Time>2020-02-15T12:03:08.000Z</Time>
            <Position>
              <LatitudeDegrees>41.98946353979408740997314453125</LatitudeDegrees>
              <LongitudeDegrees>2.8237698040902614593505859375</LongitudeDegrees>
            </Position>
            <AltitudeMeters>80.8000030517578125</AltitudeMeters>
            <DistanceMeters>NAN</DistanceMeters>
          </Trackpoint>
          <Trackpoint>
            <Time>2020-02-15T12:03:09.000Z</Time>
            <Position>
              <LatitudeDegrees>41.98944929055869579315185546875</LatitudeDegrees>
              <LongitudeDegrees>2.82384649850428104400634765625</LongitudeDegrees>
            </Position>
            <AltitudeMeters>81</AltitudeMeters>
            <DistanceMeters>NAN</DistanceMeters>
          </Trackpoint>
          <Trackpoint>
            <Time>2020-02-15T12:03:10.000Z</Time>
            <Position>
              <LatitudeDegrees>41.98942498303949832916259765625</LatitudeDegrees>
              <LongitudeDegrees>2.82392017543315887451171875</LongitudeDegrees>
            </Position>
            <AltitudeMeters>81</AltitudeMeters>
            <DistanceMeters>NAN</DistanceMeters>
          </Trackpoint>
          <Trackpoint>
            <Time>2020-02-15T12:03:11.000Z</Time>
            <Position>
              <LatitudeDegrees>41.9893895275890827178955078125</LatitudeDegrees>
              <LongitudeDegrees>2.82398547045886516571044921875</LongitudeDegrees>
            </Position>
            <AltitudeMeters>80.8000030517578125</AltitudeMeters>
            <DistanceMeters>NAN</DistanceMeters>
          </Trackpoint>
          <Trackpoint>
            <Time>2020-02-15T12:03:12.000Z</Time>
            <Position>
              <LatitudeDegrees>41.9893442653119564056396484375</LatitudeDegrees>
              <LongitudeDegrees>2.8240386955440044403076171875</LongitudeDegrees>
            </Position>
            <AltitudeMeters>80.8000030517578125</AltitudeMeters>
            <DistanceMeters>NAN</DistanceMeters>
          </Trackpoint>
          <Trackpoint>
            <Time>2020-02-15T12:03:13.000Z</Time>
            <Position>
              <LatitudeDegrees>41.98929942212998867034912109375</LatitudeDegrees>
              <LongitudeDegrees>2.82408504746854305267333984375</LongitudeDegrees>
            </Position>
            <AltitudeMeters>81</AltitudeMeters>
            <DistanceMeters>NAN</DistanceMeters>
          </Trackpoint>
          <Trackpoint>
            <Time>2020-02-15T12:03:14.000Z</Time>
            <Position>
              <LatitudeDegrees>41.989259608089923858642578125</LatitudeDegrees>
              <LongitudeDegrees>2.82412595115602016448974609375</LongitudeDegrees>
            </Position>
            <AltitudeMeters>80.8000030517578125</AltitudeMeters>
            <DistanceMeters>NAN</DistanceMeters>
          </Trackpoint>
          <Trackpoint>
            <Time>2020-02-15T12:03:15.000Z</Time>
            <Position>
              <LatitudeDegrees>41.98923236690461635589599609375</LatitudeDegrees>
              <LongitudeDegrees>2.82417104579508304595947265625</LongitudeDegrees>
            </Position>
            <AltitudeMeters>80.8000030517578125</AltitudeMeters>
            <DistanceMeters>NAN</DistanceMeters>
          </Trackpoint>
          <Trackpoint>
            <Time>2020-02-15T12:03:16.000Z</Time>
            <Position>
              <LatitudeDegrees>41.9892242364585399627685546875</LatitudeDegrees>
              <LongitudeDegrees>2.824213542044162750244140625</LongitudeDegrees>
            </Position>
            <AltitudeMeters>80.8000030517578125</AltitudeMeters>
            <DistanceMeters>NAN</DistanceMeters>
          </Trackpoint>
          <Trackpoint>
            <Time>2020-02-15T12:03:17.000Z</Time>
            <Position>
              <LatitudeDegrees>41.98923421092331409454345703125</LatitudeDegrees>
              <LongitudeDegrees>2.82425486482679843902587890625</LongitudeDegrees>
            </Position>
            <AltitudeMeters>80.8000030517578125</AltitudeMeters>
            <DistanceMeters>NAN</DistanceMeters>
          </Trackpoint>
          <Trackpoint>
            <Time>2020-02-15T12:03:18.000Z</Time>
            <Position>
              <LatitudeDegrees>41.9892570935189723968505859375</LatitudeDegrees>
              <LongitudeDegrees>2.82429425977170467376708984375</LongitudeDegrees>
            </Position>
            <AltitudeMeters>80.8000030517578125</AltitudeMeters>
            <DistanceMeters>NAN</DistanceMeters>
          </Trackpoint>
          <Trackpoint>
            <Time>2020-02-15T12:03:19.000Z</Time>
            <Position>
              <LatitudeDegrees>41.9892847537994384765625</LatitudeDegrees>
              <LongitudeDegrees>2.824336253106594085693359375</LongitudeDegrees>
            </Position>
            <AltitudeMeters>80.8000030517578125</AltitudeMeters>
            <DistanceMeters>NAN</DistanceMeters>
          </Trackpoint>
          <Trackpoint>
            <Time>2020-02-15T12:03:20.000Z</Time>
            <Position>
              <LatitudeDegrees>41.9893097318708896636962890625</LatitudeDegrees>
              <LongitudeDegrees>2.82438528724014759063720703125</LongitudeDegrees>
            </Position>
            <AltitudeMeters>81</AltitudeMeters>
            <DistanceMeters>NAN</DistanceMeters>
          </Trackpoint>
          <Trackpoint>
            <Time>2020-02-15T12:03:21.000Z</Time>
            <Position>
              <LatitudeDegrees>41.9893298484385013580322265625</LatitudeDegrees>
              <LongitudeDegrees>2.824433483183383941650390625</LongitudeDegrees>
            </Position>
            <AltitudeMeters>80.8000030517578125</AltitudeMeters>
            <DistanceMeters>NAN</DistanceMeters>
          </Trackpoint>
          <Trackpoint>
            <Time>2020-02-15T12:03:22.000Z</Time>
            <Position>
              <LatitudeDegrees>41.9893368892371654510498046875</LatitudeDegrees>
              <LongitudeDegrees>2.82448888756334781646728515625</LongitudeDegrees>
            </Position>
            <AltitudeMeters>80.8000030517578125</AltitudeMeters>
            <DistanceMeters>NAN</DistanceMeters>
          </Trackpoint>
          <Trackpoint>
            <Time>2020-02-15T12:03:23.000Z</Time>
            <Position>
              <LatitudeDegrees>41.9893254898488521575927734375</LatitudeDegrees>
              <LongitudeDegrees>2.82454906962811946868896484375</LongitudeDegrees>
            </Position>
            <AltitudeMeters>80.59999847412109375</AltitudeMeters>
            <DistanceMeters>NAN</DistanceMeters>
          </Trackpoint>
          <Trackpoint>
            <Time>2020-02-15T12:03:24.000Z</Time>
            <Position>
              <LatitudeDegrees>41.9893047027289867401123046875</LatitudeDegrees>
              <LongitudeDegrees>2.8246115148067474365234375</LongitudeDegrees>
            </Position>
            <AltitudeMeters>80.59999847412109375</AltitudeMeters>
            <DistanceMeters>NAN</DistanceMeters>
          </Trackpoint>
          <Trackpoint>
            <Time>2020-02-15T12:03:28.000Z</Time>
            <Position>
              <LatitudeDegrees>41.98921032249927520751953125</LatitudeDegrees>
              <LongitudeDegrees>2.824859954416751861572265625</LongitudeDegrees>
            </Position>
            <AltitudeMeters>80.59999847412109375</AltitudeMeters>
            <DistanceMeters>NAN</DistanceMeters>
          </Trackpoint>
          <Trackpoint>
            <Time>2020-02-15T12:03:29.000Z</Time>
            <Position>
              <LatitudeDegrees>41.989194564521312713623046875</LatitudeDegrees>
              <LongitudeDegrees>2.82492726109921932220458984375</LongitudeDegrees>
            </Position>
            <AltitudeMeters>80.59999847412109375</AltitudeMeters>
            <DistanceMeters>NAN</DistanceMeters>
          </Trackpoint>
          <Trackpoint>
            <Time>2020-02-15T12:03:30.000Z</Time>
            <Position>
              <LatitudeDegrees>41.9891903735697269439697265625</LatitudeDegrees>
              <LongitudeDegrees>2.82499565742909908294677734375</LongitudeDegrees>
            </Position>
            <AltitudeMeters>80.59999847412109375</AltitudeMeters>
            <DistanceMeters>NAN</DistanceMeters>
          </Trackpoint>
          <Trackpoint>
            <Time>2020-02-15T12:03:31.000Z</Time>
            <Position>
              <LatitudeDegrees>41.98919850401580333709716796875</LatitudeDegrees>
              <LongitudeDegrees>2.82506003044545650482177734375</LongitudeDegrees>
            </Position>
            <AltitudeMeters>80.59999847412109375</AltitudeMeters>
            <DistanceMeters>NAN</DistanceMeters>
          </Trackpoint>
          <Trackpoint>
            <Time>2020-02-15T12:03:32.000Z</Time>
            <Position>
              <LatitudeDegrees>41.9892047904431819915771484375</LatitudeDegrees>
              <LongitudeDegrees>2.82512172125279903411865234375</LongitudeDegrees>
            </Position>
            <AltitudeMeters>80.59999847412109375</AltitudeMeters>
            <DistanceMeters>NAN</DistanceMeters>
          </Trackpoint>
          <Trackpoint>
            <Time>2020-02-15T12:03:33.000Z</Time>
            <Position>
              <LatitudeDegrees>41.98919766582548618316650390625</LatitudeDegrees>
              <LongitudeDegrees>2.82518207095563411712646484375</LongitudeDegrees>
            </Position>
            <AltitudeMeters>80.59999847412109375</AltitudeMeters>
            <DistanceMeters>NAN</DistanceMeters>
          </Trackpoint>
          <Trackpoint>
            <Time>2020-02-15T12:03:34.000Z</Time>
            <Position>
              <LatitudeDegrees>41.98917134664952754974365234375</LatitudeDegrees>
              <LongitudeDegrees>2.8252409957349300384521484375</LongitudeDegrees>
            </Position>
            <AltitudeMeters>80.59999847412109375</AltitudeMeters>
            <DistanceMeters>NAN</DistanceMeters>
          </Trackpoint>
          <Trackpoint>
            <Time>2020-02-15T12:03:35.000Z</Time>
            <Position>
              <LatitudeDegrees>41.9891353882849216461181640625</LatitudeDegrees>
              <LongitudeDegrees>2.8252969868481159210205078125</LongitudeDegrees>
            </Position>
            <AltitudeMeters>80.59999847412109375</AltitudeMeters>
            <DistanceMeters>NAN</DistanceMeters>
          </Trackpoint>
          <Trackpoint>
            <Time>2020-02-15T12:03:36.000Z</Time>
            <Position>
              <LatitudeDegrees>41.9890911318361759185791015625</LatitudeDegrees>
              <LongitudeDegrees>2.82534870319068431854248046875</LongitudeDegrees>
            </Position>
            <AltitudeMeters>80.59999847412109375</AltitudeMeters>
            <DistanceMeters>NAN</DistanceMeters>
          </Trackpoint>
          <Trackpoint>
            <Time>2020-02-15T12:03:37.000Z</Time>
            <Position>
              <LatitudeDegrees>41.98904964141547679901123046875</LatitudeDegrees>
              <LongitudeDegrees>2.82540251500904560089111328125</LongitudeDegrees>
            </Position>
            <AltitudeMeters>80.59999847412109375</AltitudeMeters>
            <DistanceMeters>NAN</DistanceMeters>
          </Trackpoint>
          <Trackpoint>
            <Time>2020-02-15T12:03:38.000Z</Time>
            <Position>
              <LatitudeDegrees>41.9890125095844268798828125</LatitudeDegrees>
              <LongitudeDegrees>2.82546018250286579132080078125</LongitudeDegrees>
            </Position>
            <AltitudeMeters>80.59999847412109375</AltitudeMeters>
            <DistanceMeters>NAN</DistanceMeters>
          </Trackpoint>
          <Trackpoint>
            <Time>2020-02-15T12:03:39.000Z</Time>
            <Position>
              <LatitudeDegrees>41.98898342438042163848876953125</LatitudeDegrees>
              <LongitudeDegrees>2.82552237622439861297607421875</LongitudeDegrees>
            </Position>
            <AltitudeMeters>80.59999847412109375</AltitudeMeters>
            <DistanceMeters>NAN</DistanceMeters>
          </Trackpoint>
          <Trackpoint>
            <Time>2020-02-15T12:03:40.000Z</Time>
            <Position>
              <LatitudeDegrees>41.9889580272138118743896484375</LatitudeDegrees>
              <LongitudeDegrees>2.82558582723140716552734375</LongitudeDegrees>
            </Position>
            <AltitudeMeters>80.59999847412109375</AltitudeMeters>
            <DistanceMeters>NAN</DistanceMeters>
          </Trackpoint>
          <Trackpoint>
            <Time>2020-02-15T12:03:41.000Z</Time>
            <Position>
              <LatitudeDegrees>41.98893279768526554107666015625</LatitudeDegrees>
              <LongitudeDegrees>2.8256460092961788177490234375</LongitudeDegrees>
            </Position>
            <AltitudeMeters>80.59999847412109375</AltitudeMeters>
            <DistanceMeters>NAN</DistanceMeters>
          </Trackpoint>
          <Trackpoint>
            <Time>2020-02-15T12:03:42.000Z</Time>
            <Position>
              <LatitudeDegrees>41.98891066946089267730712890625</LatitudeDegrees>
              <LongitudeDegrees>2.8256993182003498077392578125</LongitudeDegrees>
            </Position>
            <AltitudeMeters>80.59999847412109375</AltitudeMeters>
            <DistanceMeters>NAN</DistanceMeters>
          </Trackpoint>
          <Trackpoint>
            <Time>2020-02-15T12:03:43.000Z</Time>
            <Position>
              <LatitudeDegrees>41.9888943247497081756591796875</LatitudeDegrees>
              <LongitudeDegrees>2.8257536329329013824462890625</LongitudeDegrees>
            </Position>
            <AltitudeMeters>80.8000030517578125</AltitudeMeters>
            <DistanceMeters>NAN</DistanceMeters>
          </Trackpoint>
          <Trackpoint>
            <Time>2020-02-15T12:03:44.000Z</Time>
            <Position>
              <LatitudeDegrees>41.98888175189495086669921875</LatitudeDegrees>
              <LongitudeDegrees>2.825810126960277557373046875</LongitudeDegrees>
            </Position>
            <AltitudeMeters>80.59999847412109375</AltitudeMeters>
            <DistanceMeters>NAN</DistanceMeters>
          </Trackpoint>
          <Trackpoint>
            <Time>2020-02-15T12:03:45.000Z</Time>
            <Position>
              <LatitudeDegrees>41.9888703525066375732421875</LatitudeDegrees>
              <LongitudeDegrees>2.8258662857115268707275390625</LongitudeDegrees>
            </Position>
            <AltitudeMeters>80.40000152587890625</AltitudeMeters>
            <DistanceMeters>NAN</DistanceMeters>
          </Trackpoint>
          <Trackpoint>
            <Time>2020-02-15T12:03:46.000Z</Time>
            <Position>
              <LatitudeDegrees>41.98886968195438385009765625</LatitudeDegrees>
              <LongitudeDegrees>2.82592336647212505340576171875</LongitudeDegrees>
            </Position>
            <AltitudeMeters>80.8000030517578125</AltitudeMeters>
            <DistanceMeters>NAN</DistanceMeters>
          </Trackpoint>
          <Trackpoint>
            <Time>2020-02-15T12:03:47.000Z</Time>
            <Position>
              <LatitudeDegrees>41.98887211270630359649658203125</LatitudeDegrees>
              <LongitudeDegrees>2.825980447232723236083984375</LongitudeDegrees>
            </Position>
            <AltitudeMeters>80.59999847412109375</AltitudeMeters>
            <DistanceMeters>NAN</DistanceMeters>
          </Trackpoint>
          <Trackpoint>
            <Time>2020-02-15T12:03:49.000Z</Time>
            <Position>
              <LatitudeDegrees>41.9888708554208278656005859375</LatitudeDegrees>
              <LongitudeDegrees>2.82608337700366973876953125</LongitudeDegrees>
            </Position>
            <AltitudeMeters>80.59999847412109375</AltitudeMeters>
            <DistanceMeters>NAN</DistanceMeters>
          </Trackpoint>
          <Trackpoint>
            <Time>2020-02-15T12:03:50.000Z</Time>
            <Position>
              <LatitudeDegrees>41.988871358335018157958984375</LatitudeDegrees>
              <LongitudeDegrees>2.82613190822303295135498046875</LongitudeDegrees>
            </Position>
            <AltitudeMeters>80.40000152587890625</AltitudeMeters>
            <DistanceMeters>NAN</DistanceMeters>
          </Trackpoint>
          <Trackpoint>
            <Time>2020-02-15T12:03:51.000Z</Time>
            <Position>
              <LatitudeDegrees>41.98888485319912433624267578125</LatitudeDegrees>
              <LongitudeDegrees>2.826184295117855072021484375</LongitudeDegrees>
            </Position>
            <AltitudeMeters>80.59999847412109375</AltitudeMeters>
            <DistanceMeters>NAN</DistanceMeters>
          </Trackpoint>
          <Trackpoint>
            <Time>2020-02-15T12:03:52.000Z</Time>
            <Position>
              <LatitudeDegrees>41.98890362866222858428955078125</LatitudeDegrees>
              <LongitudeDegrees>2.826230563223361968994140625</LongitudeDegrees>
            </Position>
            <AltitudeMeters>80.40000152587890625</AltitudeMeters>
            <DistanceMeters>NAN</DistanceMeters>
          </Trackpoint>
          <Trackpoint>
            <Time>2020-02-15T12:03:53.000Z</Time>
            <Position>
              <LatitudeDegrees>41.98892240412533283233642578125</LatitudeDegrees>
              <LongitudeDegrees>2.826271466910839080810546875</LongitudeDegrees>
            </Position>
            <AltitudeMeters>80.59999847412109375</AltitudeMeters>
            <DistanceMeters>NAN</DistanceMeters>
          </Trackpoint>
          <Trackpoint>
            <Time>2020-02-15T12:03:54.000Z</Time>
            <Position>
              <LatitudeDegrees>41.98894704692065715789794921875</LatitudeDegrees>
              <LongitudeDegrees>2.82631413079798221588134765625</LongitudeDegrees>
            </Position>
            <AltitudeMeters>80.59999847412109375</AltitudeMeters>
            <DistanceMeters>NAN</DistanceMeters>
          </Trackpoint>
          <Trackpoint>
            <Time>2020-02-15T12:03:55.000Z</Time>
            <Position>
              <LatitudeDegrees>41.9889677502214908599853515625</LatitudeDegrees>
              <LongitudeDegrees>2.8263537771999835968017578125</LongitudeDegrees>
            </Position>
            <AltitudeMeters>80.59999847412109375</AltitudeMeters>
            <DistanceMeters>NAN</DistanceMeters>
          </Trackpoint>
          <Trackpoint>
            <Time>2020-02-15T12:03:56.000Z</Time>
            <Position>
              <LatitudeDegrees>41.98898090980947017669677734375</LatitudeDegrees>
              <LongitudeDegrees>2.82639208249747753143310546875</LongitudeDegrees>
            </Position>
            <AltitudeMeters>80.8000030517578125</AltitudeMeters>
            <DistanceMeters>NAN</DistanceMeters>
          </Trackpoint>
          <Trackpoint>
            <Time>2020-02-15T12:03:57.000Z</Time>
            <Position>
              <LatitudeDegrees>41.98898367583751678466796875</LatitudeDegrees>
              <LongitudeDegrees>2.82643097452819347381591796875</LongitudeDegrees>
            </Position>
            <AltitudeMeters>80.8000030517578125</AltitudeMeters>
            <DistanceMeters>NAN</DistanceMeters>
          </Trackpoint>
          <Trackpoint>
            <Time>2020-02-15T12:03:58.000Z</Time>
            <Position>
              <LatitudeDegrees>41.98898409493267536163330078125</LatitudeDegrees>
              <LongitudeDegrees>2.8264729678630828857421875</LongitudeDegrees>
            </Position>
            <AltitudeMeters>80.8000030517578125</AltitudeMeters>
            <DistanceMeters>NAN</DistanceMeters>
          </Trackpoint>
          <Trackpoint>
            <Time>2020-02-15T12:03:59.000Z</Time>
            <Position>
              <LatitudeDegrees>41.9889749586582183837890625</LatitudeDegrees>
              <LongitudeDegrees>2.82651118934154510498046875</LongitudeDegrees>
            </Position>
            <AltitudeMeters>80.8000030517578125</AltitudeMeters>
            <DistanceMeters>NAN</DistanceMeters>
          </Trackpoint>
          <Trackpoint>
            <Time>2020-02-15T12:04:00.000Z</Time>
            <Position>
              <LatitudeDegrees>41.9889615476131439208984375</LatitudeDegrees>
              <LongitudeDegrees>2.82654605805873870849609375</LongitudeDegrees>
            </Position>
            <AltitudeMeters>81</AltitudeMeters>
            <DistanceMeters>NAN</DistanceMeters>
          </Trackpoint>
          <Trackpoint>
            <Time>2020-02-15T12:04:01.000Z</Time>
            <Position>
              <LatitudeDegrees>41.98894704692065715789794921875</LatitudeDegrees>
              <LongitudeDegrees>2.82657480798661708831787109375</LongitudeDegrees>
            </Position>
            <AltitudeMeters>81.40000152587890625</AltitudeMeters>
            <DistanceMeters>NAN</DistanceMeters>
          </Trackpoint>
          <Trackpoint>
            <Time>2020-02-15T12:04:02.000Z</Time>
            <Position>
              <LatitudeDegrees>41.98892542161047458648681640625</LatitudeDegrees>
              <LongitudeDegrees>2.826596684753894805908203125</LongitudeDegrees>
            </Position>
            <AltitudeMeters>81.8000030517578125</AltitudeMeters>
            <DistanceMeters>NAN</DistanceMeters>
          </Trackpoint>
          <Trackpoint>
            <Time>2020-02-15T12:04:03.000Z</Time>
            <Position>
              <LatitudeDegrees>41.988902874290943145751953125</LatitudeDegrees>
              <LongitudeDegrees>2.82661981880664825439453125</LongitudeDegrees>
            </Position>
            <AltitudeMeters>82</AltitudeMeters>
            <DistanceMeters>NAN</DistanceMeters>
          </Trackpoint>
          <Trackpoint>
            <Time>2020-02-15T12:04:04.000Z</Time>
            <Position>
              <LatitudeDegrees>41.988882087171077728271484375</LatitudeDegrees>
              <LongitudeDegrees>2.8266424499452114105224609375</LongitudeDegrees>
            </Position>
            <AltitudeMeters>82.40000152587890625</AltitudeMeters>
            <DistanceMeters>NAN</DistanceMeters>
          </Trackpoint>
          <Trackpoint>
            <Time>2020-02-15T12:04:05.000Z</Time>
            <Position>
              <LatitudeDegrees>41.9888611324131488800048828125</LatitudeDegrees>
              <LongitudeDegrees>2.826664745807647705078125</LongitudeDegrees>
            </Position>
            <AltitudeMeters>82.59999847412109375</AltitudeMeters>
            <DistanceMeters>NAN</DistanceMeters>
          </Trackpoint>
          <Trackpoint>
            <Time>2020-02-15T12:04:06.000Z</Time>
            <Position>
              <LatitudeDegrees>41.98884285986423492431640625</LatitudeDegrees>
              <LongitudeDegrees>2.82669148407876491546630859375</LongitudeDegrees>
            </Position>
            <AltitudeMeters>82.8000030517578125</AltitudeMeters>
            <DistanceMeters>NAN</DistanceMeters>
          </Trackpoint>
          <Trackpoint>
            <Time>2020-02-15T12:04:07.000Z</Time>
            <Position>
              <LatitudeDegrees>41.98882450349628925323486328125</LatitudeDegrees>
              <LongitudeDegrees>2.82671830616891384124755859375</LongitudeDegrees>
            </Position>
            <AltitudeMeters>83.1999969482421875</AltitudeMeters>
            <DistanceMeters>NAN</DistanceMeters>
          </Trackpoint>
          <Trackpoint>
            <Time>2020-02-15T12:04:08.000Z</Time>
            <Position>
              <LatitudeDegrees>41.98880757205188274383544921875</LatitudeDegrees>
              <LongitudeDegrees>2.82674781046807765960693359375</LongitudeDegrees>
            </Position>
            <AltitudeMeters>83.59999847412109375</AltitudeMeters>
            <DistanceMeters>NAN</DistanceMeters>
          </Trackpoint>
          <Trackpoint>
            <Time>2020-02-15T12:04:09.000Z</Time>
            <Position>
              <LatitudeDegrees>41.98879055678844451904296875</LatitudeDegrees>
              <LongitudeDegrees>2.8267795778810977935791015625</LongitudeDegrees>
            </Position>
            <AltitudeMeters>84</AltitudeMeters>
            <DistanceMeters>NAN</DistanceMeters>
          </Trackpoint>
          <Trackpoint>
            <Time>2020-02-15T12:04:10.000Z</Time>
            <Position>
              <LatitudeDegrees>41.988772116601467132568359375</LatitudeDegrees>
              <LongitudeDegrees>2.82681352458894252777099609375</LongitudeDegrees>
            </Position>
            <AltitudeMeters>84.1999969482421875</AltitudeMeters>
            <DistanceMeters>NAN</DistanceMeters>
          </Trackpoint>
          <Trackpoint>
            <Time>2020-02-15T12:04:11.000Z</Time>
            <Position>
              <LatitudeDegrees>41.9887514971196651458740234375</LatitudeDegrees>
              <LongitudeDegrees>2.8268493153154850006103515625</LongitudeDegrees>
            </Position>
            <AltitudeMeters>84.1999969482421875</AltitudeMeters>
            <DistanceMeters>NAN</DistanceMeters>
          </Trackpoint>
          <Trackpoint>
            <Time>2020-02-15T12:04:12.000Z</Time>
            <Position>
              <LatitudeDegrees>41.98872827924787998199462890625</LatitudeDegrees>
              <LongitudeDegrees>2.826883010566234588623046875</LongitudeDegrees>
            </Position>
            <AltitudeMeters>84.40000152587890625</AltitudeMeters>
            <DistanceMeters>NAN</DistanceMeters>
          </Trackpoint>
          <Trackpoint>
            <Time>2020-02-15T12:04:13.000Z</Time>
            <Position>
              <LatitudeDegrees>41.98870212770998477935791015625</LatitudeDegrees>
              <LongitudeDegrees>2.82691494561731815338134765625</LongitudeDegrees>
            </Position>
            <AltitudeMeters>84.59999847412109375</AltitudeMeters>
            <DistanceMeters>NAN</DistanceMeters>
          </Trackpoint>
          <Trackpoint>
            <Time>2020-02-15T12:04:14.000Z</Time>
            <Position>
              <LatitudeDegrees>41.9886770658195018768310546875</LatitudeDegrees>
              <LongitudeDegrees>2.82694797031581401824951171875</LongitudeDegrees>
            </Position>
            <AltitudeMeters>85</AltitudeMeters>
            <DistanceMeters>NAN</DistanceMeters>
          </Trackpoint>
          <Trackpoint>
            <Time>2020-02-15T12:04:15.000Z</Time>
            <Position>
              <LatitudeDegrees>41.98865368030965328216552734375</LatitudeDegrees>
              <LongitudeDegrees>2.82698770053684711456298828125</LongitudeDegrees>
            </Position>
            <AltitudeMeters>85.1999969482421875</AltitudeMeters>
            <DistanceMeters>NAN</DistanceMeters>
          </Trackpoint>
          <Trackpoint>
            <Time>2020-02-15T12:04:16.000Z</Time>
            <Position>
              <LatitudeDegrees>41.98863239027559757232666015625</LatitudeDegrees>
              <LongitudeDegrees>2.82703346572816371917724609375</LongitudeDegrees>
            </Position>
            <AltitudeMeters>85.59999847412109375</AltitudeMeters>
            <DistanceMeters>NAN</DistanceMeters>
          </Trackpoint>
          <Trackpoint>
            <Time>2020-02-15T12:04:17.000Z</Time>
            <Position>
              <LatitudeDegrees>41.98861227370798587799072265625</LatitudeDegrees>
              <LongitudeDegrees>2.8270845115184783935546875</LongitudeDegrees>
            </Position>
            <AltitudeMeters>85.8000030517578125</AltitudeMeters>
            <DistanceMeters>NAN</DistanceMeters>
          </Trackpoint>
          <Trackpoint>
            <Time>2020-02-15T12:04:18.000Z</Time>
            <Position>
              <LatitudeDegrees>41.98859266005456447601318359375</LatitudeDegrees>
              <LongitudeDegrees>2.8271327912807464599609375</LongitudeDegrees>
            </Position>
            <AltitudeMeters>86.1999969482421875</AltitudeMeters>
            <DistanceMeters>NAN</DistanceMeters>
          </Trackpoint>
          <Trackpoint>
            <Time>2020-02-15T12:04:19.000Z</Time>
            <Position>
              <LatitudeDegrees>41.98857589624822139739990234375</LatitudeDegrees>
              <LongitudeDegrees>2.82717964611947536468505859375</LongitudeDegrees>
            </Position>
            <AltitudeMeters>86.40000152587890625</AltitudeMeters>
            <DistanceMeters>NAN</DistanceMeters>
          </Trackpoint>
          <Trackpoint>
            <Time>2020-02-15T12:04:20.000Z</Time>
            <Position>
              <LatitudeDegrees>41.98856064118444919586181640625</LatitudeDegrees>
              <LongitudeDegrees>2.82722859643399715423583984375</LongitudeDegrees>
            </Position>
            <AltitudeMeters>86.40000152587890625</AltitudeMeters>
            <DistanceMeters>NAN</DistanceMeters>
          </Trackpoint>
          <Trackpoint>
            <Time>2020-02-15T12:04:21.000Z</Time>
            <Position>
              <LatitudeDegrees>41.98854622431099414825439453125</LatitudeDegrees>
              <LongitudeDegrees>2.82728006131947040557861328125</LongitudeDegrees>
            </Position>
            <AltitudeMeters>86.40000152587890625</AltitudeMeters>
            <DistanceMeters>NAN</DistanceMeters>
          </Trackpoint>
          <Trackpoint>
            <Time>2020-02-15T12:04:22.000Z</Time>
            <Position>
              <LatitudeDegrees>41.98853482492268085479736328125</LatitudeDegrees>
              <LongitudeDegrees>2.82733420841395854949951171875</LongitudeDegrees>
            </Position>
            <AltitudeMeters>86.8000030517578125</AltitudeMeters>
            <DistanceMeters>NAN</DistanceMeters>
          </Trackpoint>
          <Trackpoint>
            <Time>2020-02-15T12:04:23.000Z</Time>
            <Position>
              <LatitudeDegrees>41.98852577246725559234619140625</LatitudeDegrees>
              <LongitudeDegrees>2.8273901157081127166748046875</LongitudeDegrees>
            </Position>
            <AltitudeMeters>86.8000030517578125</AltitudeMeters>
            <DistanceMeters>NAN</DistanceMeters>
          </Trackpoint>
          <Trackpoint>
            <Time>2020-02-15T12:04:25.000Z</Time>
            <Position>
              <LatitudeDegrees>41.98849895037710666656494140625</LatitudeDegrees>
              <LongitudeDegrees>2.82750402577221393585205078125</LongitudeDegrees>
            </Position>
            <AltitudeMeters>87.40000152587890625</AltitudeMeters>
            <DistanceMeters>NAN</DistanceMeters>
          </Trackpoint>
          <Trackpoint>
            <Time>2020-02-15T12:04:26.000Z</Time>
            <Position>
              <LatitudeDegrees>41.9884849525988101959228515625</LatitudeDegrees>
              <LongitudeDegrees>2.8275617770850658416748046875</LongitudeDegrees>
            </Position>
            <AltitudeMeters>87.59999847412109375</AltitudeMeters>
            <DistanceMeters>NAN</DistanceMeters>
          </Trackpoint>
          <Trackpoint>
            <Time>2020-02-15T12:04:27.000Z</Time>
            <Position>
              <LatitudeDegrees>41.98847179301083087921142578125</LatitudeDegrees>
              <LongitudeDegrees>2.82762489281594753265380859375</LongitudeDegrees>
            </Position>
            <AltitudeMeters>87.8000030517578125</AltitudeMeters>
            <DistanceMeters>NAN</DistanceMeters>
          </Trackpoint>
          <Trackpoint>
            <Time>2020-02-15T12:04:29.000Z</Time>
            <Position>
              <LatitudeDegrees>41.9884460605680942535400390625</LatitudeDegrees>
              <LongitudeDegrees>2.82775481231510639190673828125</LongitudeDegrees>
            </Position>
            <AltitudeMeters>87.8000030517578125</AltitudeMeters>
            <DistanceMeters>NAN</DistanceMeters>
          </Trackpoint>
          <Trackpoint>
            <Time>2020-02-15T12:04:30.000Z</Time>
            <Position>
              <LatitudeDegrees>41.98843390680849552154541015625</LatitudeDegrees>
              <LongitudeDegrees>2.82782706432044506072998046875</LongitudeDegrees>
            </Position>
            <AltitudeMeters>88</AltitudeMeters>
            <DistanceMeters>NAN</DistanceMeters>
          </Trackpoint>
          <Trackpoint>
            <Time>2020-02-15T12:04:34.000Z</Time>
            <Position>
              <LatitudeDegrees>41.98837724514305591583251953125</LatitudeDegrees>
              <LongitudeDegrees>2.82813987694680690765380859375</LongitudeDegrees>
            </Position>
            <AltitudeMeters>87.8000030517578125</AltitudeMeters>
            <DistanceMeters>NAN</DistanceMeters>
          </Trackpoint>
          <Trackpoint>
            <Time>2020-02-15T12:04:36.000Z</Time>
            <Position>
              <LatitudeDegrees>41.98832812719047069549560546875</LatitudeDegrees>
              <LongitudeDegrees>2.8282953612506389617919921875</LongitudeDegrees>
            </Position>
            <AltitudeMeters>87.8000030517578125</AltitudeMeters>
            <DistanceMeters>NAN</DistanceMeters>
          </Trackpoint>
          <Trackpoint>
            <Time>2020-02-15T12:04:37.000Z</Time>
            <Position>
              <LatitudeDegrees>41.98829510249197483062744140625</LatitudeDegrees>
              <LongitudeDegrees>2.82836786471307277679443359375</LongitudeDegrees>
            </Position>
            <AltitudeMeters>88</AltitudeMeters>
            <DistanceMeters>NAN</DistanceMeters>
          </Trackpoint>
          <Trackpoint>
            <Time>2020-02-15T12:04:38.000Z</Time>
            <Position>
              <LatitudeDegrees>41.98826962150633335113525390625</LatitudeDegrees>
              <LongitudeDegrees>2.82844640314579010009765625</LongitudeDegrees>
            </Position>
            <AltitudeMeters>87.8000030517578125</AltitudeMeters>
            <DistanceMeters>NAN</DistanceMeters>
          </Trackpoint>
          <Trackpoint>
            <Time>2020-02-15T12:04:39.000Z</Time>
            <Position>
              <LatitudeDegrees>41.98825570754706859588623046875</LatitudeDegrees>
              <LongitudeDegrees>2.828536927700042724609375</LongitudeDegrees>
            </Position>
            <AltitudeMeters>87.8000030517578125</AltitudeMeters>
            <DistanceMeters>NAN</DistanceMeters>
          </Trackpoint>
          <Trackpoint>
            <Time>2020-02-15T12:04:40.000Z</Time>
            <Position>
              <LatitudeDegrees>41.988253779709339141845703125</LatitudeDegrees>
              <LongitudeDegrees>2.82862770371139049530029296875</LongitudeDegrees>
            </Position>
            <AltitudeMeters>87.59999847412109375</AltitudeMeters>
            <DistanceMeters>NAN</DistanceMeters>
          </Trackpoint>
          <Trackpoint>
            <Time>2020-02-15T12:04:41.000Z</Time>
            <Position>
              <LatitudeDegrees>41.988259144127368927001953125</LatitudeDegrees>
              <LongitudeDegrees>2.8287171386182308197021484375</LongitudeDegrees>
            </Position>
            <AltitudeMeters>87.59999847412109375</AltitudeMeters>
            <DistanceMeters>NAN</DistanceMeters>
          </Trackpoint>
          <Trackpoint>
            <Time>2020-02-15T12:04:42.000Z</Time>
            <Position>
              <LatitudeDegrees>41.98826325125992298126220703125</LatitudeDegrees>
              <LongitudeDegrees>2.8288036398589611053466796875</LongitudeDegrees>
            </Position>
            <AltitudeMeters>87.59999847412109375</AltitudeMeters>
            <DistanceMeters>NAN</DistanceMeters>
          </Trackpoint>
          <Trackpoint>
            <Time>2020-02-15T12:04:43.000Z</Time>
            <Position>
              <LatitudeDegrees>41.98826350271701812744140625</LatitudeDegrees>
              <LongitudeDegrees>2.828890979290008544921875</LongitudeDegrees>
            </Position>
            <AltitudeMeters>87.40000152587890625</AltitudeMeters>
            <DistanceMeters>NAN</DistanceMeters>
          </Trackpoint>
          <Trackpoint>
            <Time>2020-02-15T12:04:45.000Z</Time>
            <Position>
              <LatitudeDegrees>41.9882603175938129425048828125</LatitudeDegrees>
              <LongitudeDegrees>2.8290624730288982391357421875</LongitudeDegrees>
            </Position>
            <AltitudeMeters>87</AltitudeMeters>
            <DistanceMeters>NAN</DistanceMeters>
          </Trackpoint>
          <Trackpoint>
            <Time>2020-02-15T12:04:46.000Z</Time>
            <Position>
              <LatitudeDegrees>41.98825545608997344970703125</LatitudeDegrees>
              <LongitudeDegrees>2.82914989627897739410400390625</LongitudeDegrees>
            </Position>
            <AltitudeMeters>87</AltitudeMeters>
            <DistanceMeters>NAN</DistanceMeters>
          </Trackpoint>
          <Trackpoint>
            <Time>2020-02-15T12:04:47.000Z</Time>
            <Position>
              <LatitudeDegrees>41.988247074186801910400390625</LatitudeDegrees>
              <LongitudeDegrees>2.8292388282716274261474609375</LongitudeDegrees>
            </Position>
            <AltitudeMeters>86.8000030517578125</AltitudeMeters>
            <DistanceMeters>NAN</DistanceMeters>
          </Trackpoint>
          <Trackpoint>
            <Time>2020-02-15T12:04:50.000Z</Time>
            <Position>
              <LatitudeDegrees>41.98821161873638629913330078125</LatitudeDegrees>
              <LongitudeDegrees>2.82950344495475292205810546875</LongitudeDegrees>
            </Position>
            <AltitudeMeters>86.8000030517578125</AltitudeMeters>
            <DistanceMeters>NAN</DistanceMeters>
          </Trackpoint>
          <Trackpoint>
            <Time>2020-02-15T12:04:51.000Z</Time>
            <Position>
              <LatitudeDegrees>41.98819586075842380523681640625</LatitudeDegrees>
              <LongitudeDegrees>2.8295896947383880615234375</LongitudeDegrees>
            </Position>
            <AltitudeMeters>86.59999847412109375</AltitudeMeters>
            <DistanceMeters>NAN</DistanceMeters>
          </Trackpoint>
          <Trackpoint>
            <Time>2020-02-15T12:04:52.000Z</Time>
            <Position>
              <LatitudeDegrees>41.9881764985620975494384765625</LatitudeDegrees>
              <LongitudeDegrees>2.829673178493976593017578125</LongitudeDegrees>
            </Position>
            <AltitudeMeters>86.59999847412109375</AltitudeMeters>
            <DistanceMeters>NAN</DistanceMeters>
          </Trackpoint>
          <Trackpoint>
            <Time>2020-02-15T12:04:53.000Z</Time>
            <Position>
              <LatitudeDegrees>41.9881580583751201629638671875</LatitudeDegrees>
              <LongitudeDegrees>2.82975532114505767822265625</LongitudeDegrees>
            </Position>
            <AltitudeMeters>86.40000152587890625</AltitudeMeters>
            <DistanceMeters>NAN</DistanceMeters>
          </Trackpoint>
          <Trackpoint>
            <Time>2020-02-15T12:04:54.000Z</Time>
            <Position>
              <LatitudeDegrees>41.9881416298449039459228515625</LatitudeDegrees>
              <LongitudeDegrees>2.829840146005153656005859375</LongitudeDegrees>
            </Position>
            <AltitudeMeters>86.1999969482421875</AltitudeMeters>
            <DistanceMeters>NAN</DistanceMeters>
          </Trackpoint>
          <Trackpoint>
            <Time>2020-02-15T12:04:55.000Z</Time>
            <Position>
              <LatitudeDegrees>41.9881262071430683135986328125</LatitudeDegrees>
              <LongitudeDegrees>2.829923965036869049072265625</LongitudeDegrees>
            </Position>
            <AltitudeMeters>86.1999969482421875</AltitudeMeters>
            <DistanceMeters>NAN</DistanceMeters>
          </Trackpoint>
          <Trackpoint>
            <Time>2020-02-15T12:04:56.000Z</Time>
            <Position>
              <LatitudeDegrees>41.9881158135831356048583984375</LatitudeDegrees>
              <LongitudeDegrees>2.8300089575350284576416015625</LongitudeDegrees>
            </Position>
            <AltitudeMeters>86.1999969482421875</AltitudeMeters>
            <DistanceMeters>NAN</DistanceMeters>
          </Trackpoint>
          <Trackpoint>
            <Time>2020-02-15T12:04:57.000Z</Time>
            <Position>
              <LatitudeDegrees>41.98811304755508899688720703125</LatitudeDegrees>
              <LongitudeDegrees>2.83009369857609272003173828125</LongitudeDegrees>
            </Position>
            <AltitudeMeters>86.1999969482421875</AltitudeMeters>
            <DistanceMeters>NAN</DistanceMeters>
          </Trackpoint>
          <Trackpoint>
            <Time>2020-02-15T12:04:58.000Z</Time>
            <Position>
              <LatitudeDegrees>41.98811355046927928924560546875</LatitudeDegrees>
              <LongitudeDegrees>2.8301729075610637664794921875</LongitudeDegrees>
            </Position>
            <AltitudeMeters>86</AltitudeMeters>
            <DistanceMeters>NAN</DistanceMeters>
          </Trackpoint>
          <Trackpoint>
            <Time>2020-02-15T12:04:59.000Z</Time>
            <Position>
              <LatitudeDegrees>41.98812763206660747528076171875</LatitudeDegrees>
              <LongitudeDegrees>2.8302495181560516357421875</LongitudeDegrees>
            </Position>
            <AltitudeMeters>86.1999969482421875</AltitudeMeters>
            <DistanceMeters>NAN</DistanceMeters>
          </Trackpoint>
          <Trackpoint>
            <Time>2020-02-15T12:05:00.000Z</Time>
            <Position>
              <LatitudeDegrees>41.98815361596643924713134765625</LatitudeDegrees>
              <LongitudeDegrees>2.83032285980880260467529296875</LongitudeDegrees>
            </Position>
            <AltitudeMeters>86.1999969482421875</AltitudeMeters>
            <DistanceMeters>NAN</DistanceMeters>
          </Trackpoint>
          <Trackpoint>
            <Time>2020-02-15T12:05:01.000Z</Time>
            <Position>
              <LatitudeDegrees>41.9881865568459033966064453125</LatitudeDegrees>
              <LongitudeDegrees>2.830389328300952911376953125</LongitudeDegrees>
            </Position>
            <AltitudeMeters>86.1999969482421875</AltitudeMeters>
            <DistanceMeters>NAN</DistanceMeters>
          </Trackpoint>
          <Trackpoint>
            <Time>2020-02-15T12:05:02.000Z</Time>
            <Position>
              <LatitudeDegrees>41.98822335340082645416259765625</LatitudeDegrees>
              <LongitudeDegrees>2.8304518572986125946044921875</LongitudeDegrees>
            </Position>
            <AltitudeMeters>86</AltitudeMeters>
            <DistanceMeters>NAN</DistanceMeters>
          </Trackpoint>
          <Trackpoint>
            <Time>2020-02-15T12:05:03.000Z</Time>
            <Position>
              <LatitudeDegrees>41.98826107196509838104248046875</LatitudeDegrees>
              <LongitudeDegrees>2.830509357154369354248046875</LongitudeDegrees>
            </Position>
            <AltitudeMeters>86</AltitudeMeters>
            <DistanceMeters>NAN</DistanceMeters>
          </Trackpoint>
          <Trackpoint>
            <Time>2020-02-15T12:05:04.000Z</Time>
            <Position>
              <LatitudeDegrees>41.98829828761518001556396484375</LatitudeDegrees>
              <LongitudeDegrees>2.8305645100772380828857421875</LongitudeDegrees>
            </Position>
            <AltitudeMeters>86</AltitudeMeters>
            <DistanceMeters>NAN</DistanceMeters>
          </Trackpoint>
          <Trackpoint>
            <Time>2020-02-15T12:05:05.000Z</Time>
            <Position>
              <LatitudeDegrees>41.98833868838846683502197265625</LatitudeDegrees>
              <LongitudeDegrees>2.83061823807656764984130859375</LongitudeDegrees>
            </Position>
            <AltitudeMeters>86.1999969482421875</AltitudeMeters>
            <DistanceMeters>NAN</DistanceMeters>
          </Trackpoint>
          <Trackpoint>
            <Time>2020-02-15T12:05:06.000Z</Time>
            <Position>
              <LatitudeDegrees>41.9883796758949756622314453125</LatitudeDegrees>
              <LongitudeDegrees>2.83067154698073863983154296875</LongitudeDegrees>
            </Position>
            <AltitudeMeters>86.1999969482421875</AltitudeMeters>
            <DistanceMeters>NAN</DistanceMeters>
          </Trackpoint>
          <Trackpoint>
            <Time>2020-02-15T12:05:07.000Z</Time>
            <Position>
              <LatitudeDegrees>41.98842166922986507415771484375</LatitudeDegrees>
              <LongitudeDegrees>2.83072602935135364532470703125</LongitudeDegrees>
            </Position>
            <AltitudeMeters>86.40000152587890625</AltitudeMeters>
            <DistanceMeters>NAN</DistanceMeters>
          </Trackpoint>
          <Trackpoint>
            <Time>2020-02-15T12:05:08.000Z</Time>
            <Position>
              <LatitudeDegrees>41.9884628243744373321533203125</LatitudeDegrees>
              <LongitudeDegrees>2.83077866770327091217041015625</LongitudeDegrees>
            </Position>
            <AltitudeMeters>86.40000152587890625</AltitudeMeters>
            <DistanceMeters>NAN</DistanceMeters>
          </Trackpoint>
          <Trackpoint>
            <Time>2020-02-15T12:05:09.000Z</Time>
            <Position>
              <LatitudeDegrees>41.988503225147724151611328125</LatitudeDegrees>
              <LongitudeDegrees>2.83082946203649044036865234375</LongitudeDegrees>
            </Position>
            <AltitudeMeters>86.59999847412109375</AltitudeMeters>
            <DistanceMeters>NAN</DistanceMeters>
          </Trackpoint>
          <Trackpoint>
            <Time>2020-02-15T12:05:10.000Z</Time>
            <Position>
              <LatitudeDegrees>41.988541781902313232421875</LatitudeDegrees>
              <LongitudeDegrees>2.83088159747421741485595703125</LongitudeDegrees>
            </Position>
            <AltitudeMeters>86.8000030517578125</AltitudeMeters>
            <DistanceMeters>NAN</DistanceMeters>
          </Trackpoint>
          <Trackpoint>
            <Time>2020-02-15T12:05:11.000Z</Time>
            <Position>
              <LatitudeDegrees>41.988574303686618804931640625</LatitudeDegrees>
              <LongitudeDegrees>2.8309393487870693206787109375</LongitudeDegrees>
            </Position>
            <AltitudeMeters>86.8000030517578125</AltitudeMeters>
            <DistanceMeters>NAN</DistanceMeters>
          </Trackpoint>
          <Trackpoint>
            <Time>2020-02-15T12:05:12.000Z</Time>
            <Position>
              <LatitudeDegrees>41.988600455224514007568359375</LatitudeDegrees>
              <LongitudeDegrees>2.831004224717617034912109375</LongitudeDegrees>
            </Position>
            <AltitudeMeters>87</AltitudeMeters>
            <DistanceMeters>NAN</DistanceMeters>
          </Trackpoint>
          <Trackpoint>
            <Time>2020-02-15T12:05:13.000Z</Time>
            <Position>
              <LatitudeDegrees>41.98862015269696712493896484375</LatitudeDegrees>
              <LongitudeDegrees>2.8310751356184482574462890625</LongitudeDegrees>
            </Position>
            <AltitudeMeters>87.1999969482421875</AltitudeMeters>
            <DistanceMeters>NAN</DistanceMeters>
          </Trackpoint>
          <Trackpoint>
            <Time>2020-02-15T12:05:14.000Z</Time>
            <Position>
              <LatitudeDegrees>41.98862987570464611053466796875</LatitudeDegrees>
              <LongitudeDegrees>2.83114747144281864166259765625</LongitudeDegrees>
            </Position>
            <AltitudeMeters>87.40000152587890625</AltitudeMeters>
            <DistanceMeters>NAN</DistanceMeters>
          </Trackpoint>
          <Trackpoint>
            <Time>2020-02-15T12:05:15.000Z</Time>
            <Position>
              <LatitudeDegrees>41.98863289318978786468505859375</LatitudeDegrees>
              <LongitudeDegrees>2.83122039400041103363037109375</LongitudeDegrees>
            </Position>
            <AltitudeMeters>87.59999847412109375</AltitudeMeters>
            <DistanceMeters>NAN</DistanceMeters>
          </Trackpoint>
          <Trackpoint>
            <Time>2020-02-15T12:05:16.000Z</Time>
            <Position>
              <LatitudeDegrees>41.98863071389496326446533203125</LatitudeDegrees>
              <LongitudeDegrees>2.831295244395732879638671875</LongitudeDegrees>
            </Position>
            <AltitudeMeters>87.8000030517578125</AltitudeMeters>
            <DistanceMeters>NAN</DistanceMeters>
          </Trackpoint>
          <Trackpoint>
            <Time>2020-02-15T12:05:17.000Z</Time>
            <Position>
              <LatitudeDegrees>41.98862350545823574066162109375</LatitudeDegrees>
              <LongitudeDegrees>2.83136925660073757171630859375</LongitudeDegrees>
            </Position>
            <AltitudeMeters>88</AltitudeMeters>
            <DistanceMeters>NAN</DistanceMeters>
          </Trackpoint>
          <Trackpoint>
            <Time>2020-02-15T12:05:19.000Z</Time>
            <Position>
              <LatitudeDegrees>41.9886021316051483154296875</LatitudeDegrees>
              <LongitudeDegrees>2.83151325769722461700439453125</LongitudeDegrees>
            </Position>
            <AltitudeMeters>88</AltitudeMeters>
            <DistanceMeters>NAN</DistanceMeters>
          </Trackpoint>
          <Trackpoint>
            <Time>2020-02-15T12:05:20.000Z</Time>
            <Position>
              <LatitudeDegrees>41.98858964256942272186279296875</LatitudeDegrees>
              <LongitudeDegrees>2.8315830789506435394287109375</LongitudeDegrees>
            </Position>
            <AltitudeMeters>88.1999969482421875</AltitudeMeters>
            <DistanceMeters>NAN</DistanceMeters>
          </Trackpoint>
          <Trackpoint>
            <Time>2020-02-15T12:05:21.000Z</Time>
            <Position>
              <LatitudeDegrees>41.98857623152434825897216796875</LatitudeDegrees>
              <LongitudeDegrees>2.8316523134708404541015625</LongitudeDegrees>
            </Position>
            <AltitudeMeters>88.1999969482421875</AltitudeMeters>
            <DistanceMeters>NAN</DistanceMeters>
          </Trackpoint>
          <Trackpoint>
            <Time>2020-02-15T12:05:22.000Z</Time>
            <Position>
              <LatitudeDegrees>41.98856298811733722686767578125</LatitudeDegrees>
              <LongitudeDegrees>2.8317215479910373687744140625</LongitudeDegrees>
            </Position>
            <AltitudeMeters>88.40000152587890625</AltitudeMeters>
            <DistanceMeters>NAN</DistanceMeters>
          </Trackpoint>
          <Trackpoint>
            <Time>2020-02-15T12:05:23.000Z</Time>
            <Position>
              <LatitudeDegrees>41.9885526783764362335205078125</LatitudeDegrees>
              <LongitudeDegrees>2.8317922912538051605224609375</LongitudeDegrees>
            </Position>
            <AltitudeMeters>88.40000152587890625</AltitudeMeters>
            <DistanceMeters>NAN</DistanceMeters>
          </Trackpoint>
          <Trackpoint>
            <Time>2020-02-15T12:05:24.000Z</Time>
            <Position>
              <LatitudeDegrees>41.98854111135005950927734375</LatitudeDegrees>
              <LongitudeDegrees>2.83186110667884349822998046875</LongitudeDegrees>
            </Position>
            <AltitudeMeters>88.59999847412109375</AltitudeMeters>
            <DistanceMeters>NAN</DistanceMeters>
          </Trackpoint>
          <Trackpoint>
            <Time>2020-02-15T12:05:25.000Z</Time>
            <Position>
              <LatitudeDegrees>41.9885288737714290618896484375</LatitudeDegrees>
              <LongitudeDegrees>2.8319284133613109588623046875</LongitudeDegrees>
            </Position>
            <AltitudeMeters>88.59999847412109375</AltitudeMeters>
            <DistanceMeters>NAN</DistanceMeters>
          </Trackpoint>
          <Trackpoint>
            <Time>2020-02-15T12:05:26.000Z</Time>
            <Position>
              <LatitudeDegrees>41.98851638473570346832275390625</LatitudeDegrees>
              <LongitudeDegrees>2.83199362456798553466796875</LongitudeDegrees>
            </Position>
            <AltitudeMeters>88.8000030517578125</AltitudeMeters>
            <DistanceMeters>NAN</DistanceMeters>
          </Trackpoint>
          <Trackpoint>
            <Time>2020-02-15T12:05:27.000Z</Time>
            <Position>
              <LatitudeDegrees>41.98850481770932674407958984375</LatitudeDegrees>
              <LongitudeDegrees>2.83205891959369182586669921875</LongitudeDegrees>
            </Position>
            <AltitudeMeters>88.8000030517578125</AltitudeMeters>
            <DistanceMeters>NAN</DistanceMeters>
          </Trackpoint>
          <Trackpoint>
            <Time>2020-02-15T12:05:28.000Z</Time>
            <Position>
              <LatitudeDegrees>41.98848973028361797332763671875</LatitudeDegrees>
              <LongitudeDegrees>2.8321225382387638092041015625</LongitudeDegrees>
            </Position>
            <AltitudeMeters>88.8000030517578125</AltitudeMeters>
            <DistanceMeters>NAN</DistanceMeters>
          </Trackpoint>
          <Trackpoint>
            <Time>2020-02-15T12:05:29.000Z</Time>
            <Position>
              <LatitudeDegrees>41.988475732505321502685546875</LatitudeDegrees>
              <LongitudeDegrees>2.83218674361705780029296875</LongitudeDegrees>
            </Position>
            <AltitudeMeters>88.8000030517578125</AltitudeMeters>
            <DistanceMeters>NAN</DistanceMeters>
          </Trackpoint>
          <Trackpoint>
            <Time>2020-02-15T12:05:30.000Z</Time>
            <Position>
              <LatitudeDegrees>41.9884574599564075469970703125</LatitudeDegrees>
              <LongitudeDegrees>2.83224709331989288330078125</LongitudeDegrees>
            </Position>
            <AltitudeMeters>89</AltitudeMeters>
            <DistanceMeters>NAN</DistanceMeters>
          </Trackpoint>
          <Trackpoint>
            <Time>2020-02-15T12:05:31.000Z</Time>
            <Position>
              <LatitudeDegrees>41.98843516409397125244140625</LatitudeDegrees>
              <LongitudeDegrees>2.83230417408049106597900390625</LongitudeDegrees>
            </Position>
            <AltitudeMeters>89</AltitudeMeters>
            <DistanceMeters>NAN</DistanceMeters>
          </Trackpoint>
          <Trackpoint>
            <Time>2020-02-15T12:05:32.000Z</Time>
            <Position>
              <LatitudeDegrees>41.988413035869598388671875</LatitudeDegrees>
              <LongitudeDegrees>2.83236217685043811798095703125</LongitudeDegrees>
            </Position>
            <AltitudeMeters>89.1999969482421875</AltitudeMeters>
            <DistanceMeters>NAN</DistanceMeters>
          </Trackpoint>
          <Trackpoint>
            <Time>2020-02-15T12:05:33.000Z</Time>
            <Position>
              <LatitudeDegrees>41.9883927516639232635498046875</LatitudeDegrees>
              <LongitudeDegrees>2.83242286182940006256103515625</LongitudeDegrees>
            </Position>
            <AltitudeMeters>89.40000152587890625</AltitudeMeters>
            <DistanceMeters>NAN</DistanceMeters>
          </Trackpoint>
          <Trackpoint>
            <Time>2020-02-15T12:05:34.000Z</Time>
            <Position>
              <LatitudeDegrees>41.9883696176111698150634765625</LatitudeDegrees>
              <LongitudeDegrees>2.83248220570385456085205078125</LongitudeDegrees>
            </Position>
            <AltitudeMeters>89.59999847412109375</AltitudeMeters>
            <DistanceMeters>NAN</DistanceMeters>
          </Trackpoint>
          <Trackpoint>
            <Time>2020-02-15T12:05:35.000Z</Time>
            <Position>
              <LatitudeDegrees>41.98834774084389209747314453125</LatitudeDegrees>
              <LongitudeDegrees>2.832541130483150482177734375</LongitudeDegrees>
            </Position>
            <AltitudeMeters>89.59999847412109375</AltitudeMeters>
            <DistanceMeters>NAN</DistanceMeters>
          </Trackpoint>
          <Trackpoint>
            <Time>2020-02-15T12:05:36.000Z</Time>
            <Position>
              <LatitudeDegrees>41.9883256964385509490966796875</LatitudeDegrees>
              <LongitudeDegrees>2.83260022290050983428955078125</LongitudeDegrees>
            </Position>
            <AltitudeMeters>89.8000030517578125</AltitudeMeters>
            <DistanceMeters>NAN</DistanceMeters>
          </Trackpoint>
          <Trackpoint>
            <Time>2020-02-15T12:05:37.000Z</Time>
            <Position>
              <LatitudeDegrees>41.988304071128368377685546875</LatitudeDegrees>
              <LongitudeDegrees>2.83266057260334491729736328125</LongitudeDegrees>
            </Position>
            <AltitudeMeters>90.1999969482421875</AltitudeMeters>
            <DistanceMeters>NAN</DistanceMeters>
          </Trackpoint>
          <Trackpoint>
            <Time>2020-02-15T12:05:38.000Z</Time>
            <Position>
              <LatitudeDegrees>41.98828219436109066009521484375</LatitudeDegrees>
              <LongitudeDegrees>2.83272025175392627716064453125</LongitudeDegrees>
            </Position>
            <AltitudeMeters>90.40000152587890625</AltitudeMeters>
            <DistanceMeters>NAN</DistanceMeters>
          </Trackpoint>
          <Trackpoint>
            <Time>2020-02-15T12:05:39.000Z</Time>
            <Position>
              <LatitudeDegrees>41.98826191015541553497314453125</LatitudeDegrees>
              <LongitudeDegrees>2.8327806852757930755615234375</LongitudeDegrees>
            </Position>
            <AltitudeMeters>90.40000152587890625</AltitudeMeters>
            <DistanceMeters>NAN</DistanceMeters>
          </Trackpoint>
          <Trackpoint>
            <Time>2020-02-15T12:05:40.000Z</Time>
            <Position>
              <LatitudeDegrees>41.98824062012135982513427734375</LatitudeDegrees>
              <LongitudeDegrees>2.83284111879765987396240234375</LongitudeDegrees>
            </Position>
            <AltitudeMeters>90.59999847412109375</AltitudeMeters>
            <DistanceMeters>NAN</DistanceMeters>
          </Trackpoint>
          <Trackpoint>
            <Time>2020-02-15T12:05:41.000Z</Time>
            <Position>
              <LatitudeDegrees>41.9882194139063358306884765625</LatitudeDegrees>
              <LongitudeDegrees>2.83290280960500240325927734375</LongitudeDegrees>
            </Position>
            <AltitudeMeters>91</AltitudeMeters>
            <DistanceMeters>NAN</DistanceMeters>
          </Trackpoint>
          <Trackpoint>
            <Time>2020-02-15T12:05:44.000Z</Time>
            <Position>
              <LatitudeDegrees>41.98815311305224895477294921875</LatitudeDegrees>
              <LongitudeDegrees>2.83308436162769794464111328125</LongitudeDegrees>
            </Position>
            <AltitudeMeters>91.40000152587890625</AltitudeMeters>
            <DistanceMeters>NAN</DistanceMeters>
          </Trackpoint>
          <Trackpoint>
            <Time>2020-02-15T12:05:45.000Z</Time>
            <Position>
              <LatitudeDegrees>41.98813014663755893707275390625</LatitudeDegrees>
              <LongitudeDegrees>2.8331427834928035736083984375</LongitudeDegrees>
            </Position>
            <AltitudeMeters>91.59999847412109375</AltitudeMeters>
            <DistanceMeters>NAN</DistanceMeters>
          </Trackpoint>
          <Trackpoint>
            <Time>2020-02-15T12:05:46.000Z</Time>
            <Position>
              <LatitudeDegrees>41.98810801841318607330322265625</LatitudeDegrees>
              <LongitudeDegrees>2.83320053480565547943115234375</LongitudeDegrees>
            </Position>
            <AltitudeMeters>91.59999847412109375</AltitudeMeters>
            <DistanceMeters>NAN</DistanceMeters>
          </Trackpoint>
          <Trackpoint>
            <Time>2020-02-15T12:05:47.000Z</Time>
            <Position>
              <LatitudeDegrees>41.988086141645908355712890625</LatitudeDegrees>
              <LongitudeDegrees>2.83325828611850738525390625</LongitudeDegrees>
            </Position>
            <AltitudeMeters>91.59999847412109375</AltitudeMeters>
            <DistanceMeters>NAN</DistanceMeters>
          </Trackpoint>
          <Trackpoint>
            <Time>2020-02-15T12:05:48.000Z</Time>
            <Position>
              <LatitudeDegrees>41.9880665279924869537353515625</LatitudeDegrees>
              <LongitudeDegrees>2.83331503160297870635986328125</LongitudeDegrees>
            </Position>
            <AltitudeMeters>91.8000030517578125</AltitudeMeters>
            <DistanceMeters>NAN</DistanceMeters>
          </Trackpoint>
          <Trackpoint>
            <Time>2020-02-15T12:05:49.000Z</Time>
            <Position>
              <LatitudeDegrees>41.98804624378681182861328125</LatitudeDegrees>
              <LongitudeDegrees>2.83337135799229145050048828125</LongitudeDegrees>
            </Position>
            <AltitudeMeters>91.59999847412109375</AltitudeMeters>
            <DistanceMeters>NAN</DistanceMeters>
          </Trackpoint>
          <Trackpoint>
            <Time>2020-02-15T12:05:50.000Z</Time>
            <Position>
              <LatitudeDegrees>41.988025791943073272705078125</LatitudeDegrees>
              <LongitudeDegrees>2.8334279358386993408203125</LongitudeDegrees>
            </Position>
            <AltitudeMeters>91.8000030517578125</AltitudeMeters>
            <DistanceMeters>NAN</DistanceMeters>
          </Trackpoint>
          <Trackpoint>
            <Time>2020-02-15T12:05:51.000Z</Time>
            <Position>
              <LatitudeDegrees>41.988005675375461578369140625</LatitudeDegrees>
              <LongitudeDegrees>2.8334830887615680694580078125</LongitudeDegrees>
            </Position>
            <AltitudeMeters>91.8000030517578125</AltitudeMeters>
            <DistanceMeters>NAN</DistanceMeters>
          </Trackpoint>
          <Trackpoint>
            <Time>2020-02-15T12:05:52.000Z</Time>
            <Position>
              <LatitudeDegrees>41.98798631317913532257080078125</LatitudeDegrees>
              <LongitudeDegrees>2.83353731967508792877197265625</LongitudeDegrees>
            </Position>
            <AltitudeMeters>92</AltitudeMeters>
            <DistanceMeters>NAN</DistanceMeters>
          </Trackpoint>
          <Trackpoint>
            <Time>2020-02-15T12:05:53.000Z</Time>
            <Position>
              <LatitudeDegrees>41.98796711862087249755859375</LatitudeDegrees>
              <LongitudeDegrees>2.83358928747475147247314453125</LongitudeDegrees>
            </Position>
            <AltitudeMeters>92</AltitudeMeters>
            <DistanceMeters>NAN</DistanceMeters>
          </Trackpoint>
          <Trackpoint>
            <Time>2020-02-15T12:05:54.000Z</Time>
            <Position>
              <LatitudeDegrees>41.98794892989099025726318359375</LatitudeDegrees>
              <LongitudeDegrees>2.83363488502800464630126953125</LongitudeDegrees>
            </Position>
            <AltitudeMeters>92.1999969482421875</AltitudeMeters>
            <DistanceMeters>NAN</DistanceMeters>
          </Trackpoint>
          <Trackpoint>
            <Time>2020-02-15T12:05:55.000Z</Time>
            <Position>
              <LatitudeDegrees>41.98792948387563228607177734375</LatitudeDegrees>
              <LongitudeDegrees>2.83366908319294452667236328125</LongitudeDegrees>
            </Position>
            <AltitudeMeters>92.1999969482421875</AltitudeMeters>
            <DistanceMeters>NAN</DistanceMeters>
          </Trackpoint>
          <Trackpoint>
            <Time>2020-02-15T12:05:56.000Z</Time>
            <Position>
              <LatitudeDegrees>41.98793434537947177886962890625</LatitudeDegrees>
              <LongitudeDegrees>2.8337134234607219696044921875</LongitudeDegrees>
            </Position>
            <AltitudeMeters>92.40000152587890625</AltitudeMeters>
            <DistanceMeters>NAN</DistanceMeters>
          </Trackpoint>
          <Trackpoint>
            <Time>2020-02-15T12:05:57.000Z</Time>
            <Position>
              <LatitudeDegrees>41.98795882053673267364501953125</LatitudeDegrees>
              <LongitudeDegrees>2.83374619670212268829345703125</LongitudeDegrees>
            </Position>
            <AltitudeMeters>92.40000152587890625</AltitudeMeters>
            <DistanceMeters>NAN</DistanceMeters>
          </Trackpoint>
          <Trackpoint>
            <Time>2020-02-15T12:05:58.000Z</Time>
            <Position>
              <LatitudeDegrees>41.98798933066427707672119140625</LatitudeDegrees>
              <LongitudeDegrees>2.83376899547874927520751953125</LongitudeDegrees>
            </Position>
            <AltitudeMeters>92.59999847412109375</AltitudeMeters>
            <DistanceMeters>NAN</DistanceMeters>
          </Trackpoint>
          <Trackpoint>
            <Time>2020-02-15T12:05:59.000Z</Time>
            <Position>
              <LatitudeDegrees>41.988025121390819549560546875</LatitudeDegrees>
              <LongitudeDegrees>2.8337851725518703460693359375</LongitudeDegrees>
            </Position>
            <AltitudeMeters>92.59999847412109375</AltitudeMeters>
            <DistanceMeters>NAN</DistanceMeters>
          </Trackpoint>
          <Trackpoint>
            <Time>2020-02-15T12:06:00.000Z</Time>
            <Position>
              <LatitudeDegrees>41.988063342869281768798828125</LatitudeDegrees>
              <LongitudeDegrees>2.83379732631146907806396484375</LongitudeDegrees>
            </Position>
            <AltitudeMeters>92.59999847412109375</AltitudeMeters>
            <DistanceMeters>NAN</DistanceMeters>
          </Trackpoint>
          <Trackpoint>
            <Time>2020-02-15T12:06:02.000Z</Time>
            <Position>
              <LatitudeDegrees>41.988139785826206207275390625</LatitudeDegrees>
              <LongitudeDegrees>2.8338190354406833648681640625</LongitudeDegrees>
            </Position>
            <AltitudeMeters>92.8000030517578125</AltitudeMeters>
            <DistanceMeters>NAN</DistanceMeters>
          </Trackpoint>
          <Trackpoint>
            <Time>2020-02-15T12:06:04.000Z</Time>
            <Position>
              <LatitudeDegrees>41.988217569887638092041015625</LatitudeDegrees>
              <LongitudeDegrees>2.83384107984602451324462890625</LongitudeDegrees>
            </Position>
            <AltitudeMeters>93</AltitudeMeters>
            <DistanceMeters>NAN</DistanceMeters>
          </Trackpoint>
          <Trackpoint>
            <Time>2020-02-15T12:06:05.000Z</Time>
            <Position>
              <LatitudeDegrees>41.98825654573738574981689453125</LatitudeDegrees>
              <LongitudeDegrees>2.833850048482418060302734375</LongitudeDegrees>
            </Position>
            <AltitudeMeters>92.8000030517578125</AltitudeMeters>
            <DistanceMeters>NAN</DistanceMeters>
          </Trackpoint>
          <Trackpoint>
            <Time>2020-02-15T12:06:06.000Z</Time>
            <Position>
              <LatitudeDegrees>41.988295018672943115234375</LatitudeDegrees>
              <LongitudeDegrees>2.8338585980236530303955078125</LongitudeDegrees>
            </Position>
            <AltitudeMeters>93</AltitudeMeters>
            <DistanceMeters>NAN</DistanceMeters>
          </Trackpoint>
          <Trackpoint>
            <Time>2020-02-15T12:06:07.000Z</Time>
            <Position>
              <LatitudeDegrees>41.9883312284946441650390625</LatitudeDegrees>
              <LongitudeDegrees>2.83386790193617343902587890625</LongitudeDegrees>
            </Position>
            <AltitudeMeters>92.8000030517578125</AltitudeMeters>
            <DistanceMeters>NAN</DistanceMeters>
          </Trackpoint>
          <Trackpoint>
            <Time>2020-02-15T12:06:08.000Z</Time>
            <Position>
              <LatitudeDegrees>41.98836735449731349945068359375</LatitudeDegrees>
              <LongitudeDegrees>2.833877541124820709228515625</LongitudeDegrees>
            </Position>
            <AltitudeMeters>92.8000030517578125</AltitudeMeters>
            <DistanceMeters>NAN</DistanceMeters>
          </Trackpoint>
          <Trackpoint>
            <Time>2020-02-15T12:06:09.000Z</Time>
            <Position>
              <LatitudeDegrees>41.988403312861919403076171875</LatitudeDegrees>
              <LongitudeDegrees>2.833884917199611663818359375</LongitudeDegrees>
            </Position>
            <AltitudeMeters>93</AltitudeMeters>
            <DistanceMeters>NAN</DistanceMeters>
          </Trackpoint>
          <Trackpoint>
            <Time>2020-02-15T12:06:10.000Z</Time>
            <Position>
              <LatitudeDegrees>41.98843776248395442962646484375</LatitudeDegrees>
              <LongitudeDegrees>2.83388969488441944122314453125</LongitudeDegrees>
            </Position>
            <AltitudeMeters>93</AltitudeMeters>
            <DistanceMeters>NAN</DistanceMeters>
          </Trackpoint>
          <Trackpoint>
            <Time>2020-02-15T12:06:11.000Z</Time>
            <Position>
              <LatitudeDegrees>41.98847129009664058685302734375</LatitudeDegrees>
              <LongitudeDegrees>2.8338944725692272186279296875</LongitudeDegrees>
            </Position>
            <AltitudeMeters>93.1999969482421875</AltitudeMeters>
            <DistanceMeters>NAN</DistanceMeters>
          </Trackpoint>
          <Trackpoint>
            <Time>2020-02-15T12:06:12.000Z</Time>
            <Position>
              <LatitudeDegrees>41.98850347660481929779052734375</LatitudeDegrees>
              <LongitudeDegrees>2.8339021839201450347900390625</LongitudeDegrees>
            </Position>
            <AltitudeMeters>93.40000152587890625</AltitudeMeters>
            <DistanceMeters>NAN</DistanceMeters>
          </Trackpoint>
          <Trackpoint>
            <Time>2020-02-15T12:06:13.000Z</Time>
            <Position>
              <LatitudeDegrees>41.98853566311299800872802734375</LatitudeDegrees>
              <LongitudeDegrees>2.8339119069278240203857421875</LongitudeDegrees>
            </Position>
            <AltitudeMeters>93.59999847412109375</AltitudeMeters>
            <DistanceMeters>NAN</DistanceMeters>
          </Trackpoint>
          <Trackpoint>
            <Time>2020-02-15T12:06:14.000Z</Time>
            <Position>
              <LatitudeDegrees>41.9885681010782718658447265625</LatitudeDegrees>
              <LongitudeDegrees>2.83392204903066158294677734375</LongitudeDegrees>
            </Position>
            <AltitudeMeters>93.59999847412109375</AltitudeMeters>
            <DistanceMeters>NAN</DistanceMeters>
          </Trackpoint>
          <Trackpoint>
            <Time>2020-02-15T12:06:15.000Z</Time>
            <Position>
              <LatitudeDegrees>41.98859835974872112274169921875</LatitudeDegrees>
              <LongitudeDegrees>2.83393688499927520751953125</LongitudeDegrees>
            </Position>
            <AltitudeMeters>93.8000030517578125</AltitudeMeters>
            <DistanceMeters>NAN</DistanceMeters>
          </Trackpoint>
          <Trackpoint>
            <Time>2020-02-15T12:06:16.000Z</Time>
            <Position>
              <LatitudeDegrees>41.98861864395439624786376953125</LatitudeDegrees>
              <LongitudeDegrees>2.83396429382264614105224609375</LongitudeDegrees>
            </Position>
            <AltitudeMeters>94</AltitudeMeters>
            <DistanceMeters>NAN</DistanceMeters>
          </Trackpoint>
          <Trackpoint>
            <Time>2020-02-15T12:06:17.000Z</Time>
            <Position>
              <LatitudeDegrees>41.98862551711499691009521484375</LatitudeDegrees>
              <LongitudeDegrees>2.8340047784149646759033203125</LongitudeDegrees>
            </Position>
            <AltitudeMeters>94.1999969482421875</AltitudeMeters>
            <DistanceMeters>NAN</DistanceMeters>
          </Trackpoint>
          <Trackpoint>
            <Time>2020-02-15T12:06:18.000Z</Time>
            <Position>
              <LatitudeDegrees>41.98862853460013866424560546875</LatitudeDegrees>
              <LongitudeDegrees>2.834050543606281280517578125</LongitudeDegrees>
            </Position>
            <AltitudeMeters>94.40000152587890625</AltitudeMeters>
            <DistanceMeters>NAN</DistanceMeters>
          </Trackpoint>
          <Trackpoint>
            <Time>2020-02-15T12:06:19.000Z</Time>
            <Position>
              <LatitudeDegrees>41.9886277802288532257080078125</LatitudeDegrees>
              <LongitudeDegrees>2.8340979851782321929931640625</LongitudeDegrees>
            </Position>
            <AltitudeMeters>94.59999847412109375</AltitudeMeters>
            <DistanceMeters>NAN</DistanceMeters>
          </Trackpoint>
          <Trackpoint>
            <Time>2020-02-15T12:06:20.000Z</Time>
            <Position>
              <LatitudeDegrees>41.98862233199179172515869140625</LatitudeDegrees>
              <LongitudeDegrees>2.83414651639759540557861328125</LongitudeDegrees>
            </Position>
            <AltitudeMeters>94.8000030517578125</AltitudeMeters>
            <DistanceMeters>NAN</DistanceMeters>
          </Trackpoint>
          <Trackpoint>
            <Time>2020-02-15T12:06:21.000Z</Time>
            <Position>
              <LatitudeDegrees>41.9886140339076519012451171875</LatitudeDegrees>
              <LongitudeDegrees>2.8341942094266414642333984375</LongitudeDegrees>
            </Position>
            <AltitudeMeters>95</AltitudeMeters>
            <DistanceMeters>NAN</DistanceMeters>
          </Trackpoint>
          <Trackpoint>
            <Time>2020-02-15T12:06:22.000Z</Time>
            <Position>
              <LatitudeDegrees>41.9886053167283535003662109375</LatitudeDegrees>
              <LongitudeDegrees>2.83424257300794124603271484375</LongitudeDegrees>
            </Position>
            <AltitudeMeters>95.1999969482421875</AltitudeMeters>
            <DistanceMeters>NAN</DistanceMeters>
          </Trackpoint>
          <Trackpoint>
            <Time>2020-02-15T12:06:23.000Z</Time>
            <Position>
              <LatitudeDegrees>41.98859785683453083038330078125</LatitudeDegrees>
              <LongitudeDegrees>2.83429303206503391265869140625</LongitudeDegrees>
            </Position>
            <AltitudeMeters>95.40000152587890625</AltitudeMeters>
            <DistanceMeters>NAN</DistanceMeters>
          </Trackpoint>
          <Trackpoint>
            <Time>2020-02-15T12:06:24.000Z</Time>
            <Position>
              <LatitudeDegrees>41.98859266005456447601318359375</LatitudeDegrees>
              <LongitudeDegrees>2.834344245493412017822265625</LongitudeDegrees>
            </Position>
            <AltitudeMeters>95.8000030517578125</AltitudeMeters>
            <DistanceMeters>NAN</DistanceMeters>
          </Trackpoint>
          <Trackpoint>
            <Time>2020-02-15T12:06:25.000Z</Time>
            <Position>
              <LatitudeDegrees>41.9885888881981372833251953125</LatitudeDegrees>
              <LongitudeDegrees>2.834395878016948699951171875</LongitudeDegrees>
            </Position>
            <AltitudeMeters>96.1999969482421875</AltitudeMeters>
            <DistanceMeters>NAN</DistanceMeters>
          </Trackpoint>
          <Trackpoint>
            <Time>2020-02-15T12:06:26.000Z</Time>
            <Position>
              <LatitudeDegrees>41.98858536779880523681640625</LatitudeDegrees>
              <LongitudeDegrees>2.834448516368865966796875</LongitudeDegrees>
            </Position>
            <AltitudeMeters>96.1999969482421875</AltitudeMeters>
            <DistanceMeters>NAN</DistanceMeters>
          </Trackpoint>
          <Trackpoint>
            <Time>2020-02-15T12:06:27.000Z</Time>
            <Position>
              <LatitudeDegrees>41.9885831885039806365966796875</LatitudeDegrees>
              <LongitudeDegrees>2.83450241200625896453857421875</LongitudeDegrees>
            </Position>
            <AltitudeMeters>96.40000152587890625</AltitudeMeters>
            <DistanceMeters>NAN</DistanceMeters>
          </Trackpoint>
          <Trackpoint>
            <Time>2020-02-15T12:06:28.000Z</Time>
            <Position>
              <LatitudeDegrees>41.98858276940882205963134765625</LatitudeDegrees>
              <LongitudeDegrees>2.834555804729461669921875</LongitudeDegrees>
            </Position>
            <AltitudeMeters>96.59999847412109375</AltitudeMeters>
            <DistanceMeters>NAN</DistanceMeters>
          </Trackpoint>
          <Trackpoint>
            <Time>2020-02-15T12:06:29.000Z</Time>
            <Position>
              <LatitudeDegrees>41.98858360759913921356201171875</LatitudeDegrees>
              <LongitudeDegrees>2.83460835926234722137451171875</LongitudeDegrees>
            </Position>
            <AltitudeMeters>96.59999847412109375</AltitudeMeters>
            <DistanceMeters>NAN</DistanceMeters>
          </Trackpoint>
          <Trackpoint>
            <Time>2020-02-15T12:06:30.000Z</Time>
            <Position>
              <LatitudeDegrees>41.98858444578945636749267578125</LatitudeDegrees>
              <LongitudeDegrees>2.83465881831943988800048828125</LongitudeDegrees>
            </Position>
            <AltitudeMeters>96.59999847412109375</AltitudeMeters>
            <DistanceMeters>NAN</DistanceMeters>
          </Trackpoint>
          <Trackpoint>
            <Time>2020-02-15T12:06:31.000Z</Time>
            <Position>
              <LatitudeDegrees>41.98858729563653469085693359375</LatitudeDegrees>
              <LongitudeDegrees>2.834708690643310546875</LongitudeDegrees>
            </Position>
            <AltitudeMeters>97</AltitudeMeters>
            <DistanceMeters>NAN</DistanceMeters>
          </Trackpoint>
          <Trackpoint>
            <Time>2020-02-15T12:06:32.000Z</Time>
            <Position>
              <LatitudeDegrees>41.98858997784554958343505859375</LatitudeDegrees>
              <LongitudeDegrees>2.83475789241492748260498046875</LongitudeDegrees>
            </Position>
            <AltitudeMeters>97</AltitudeMeters>
            <DistanceMeters>NAN</DistanceMeters>
          </Trackpoint>
          <Trackpoint>
            <Time>2020-02-15T12:06:33.000Z</Time>
            <Position>
              <LatitudeDegrees>41.98859081603586673736572265625</LatitudeDegrees>
              <LongitudeDegrees>2.8348087705671787261962890625</LongitudeDegrees>
            </Position>
            <AltitudeMeters>97.1999969482421875</AltitudeMeters>
            <DistanceMeters>NAN</DistanceMeters>
          </Trackpoint>
          <Trackpoint>
            <Time>2020-02-15T12:06:34.000Z</Time>
            <Position>
              <LatitudeDegrees>41.98859148658812046051025390625</LatitudeDegrees>
              <LongitudeDegrees>2.834860570728778839111328125</LongitudeDegrees>
            </Position>
            <AltitudeMeters>97.1999969482421875</AltitudeMeters>
            <DistanceMeters>NAN</DistanceMeters>
          </Trackpoint>
          <Trackpoint>
            <Time>2020-02-15T12:06:35.000Z</Time>
            <Position>
              <LatitudeDegrees>41.9885939173400402069091796875</LatitudeDegrees>
              <LongitudeDegrees>2.8349130414426326751708984375</LongitudeDegrees>
            </Position>
            <AltitudeMeters>97.40000152587890625</AltitudeMeters>
            <DistanceMeters>NAN</DistanceMeters>
          </Trackpoint>
          <Trackpoint>
            <Time>2020-02-15T12:06:36.000Z</Time>
            <Position>
              <LatitudeDegrees>41.98859618045389652252197265625</LatitudeDegrees>
              <LongitudeDegrees>2.83496660180389881134033203125</LongitudeDegrees>
            </Position>
            <AltitudeMeters>97.40000152587890625</AltitudeMeters>
            <DistanceMeters>NAN</DistanceMeters>
          </Trackpoint>
          <Trackpoint>
            <Time>2020-02-15T12:06:37.000Z</Time>
            <Position>
              <LatitudeDegrees>41.988599784672260284423828125</LatitudeDegrees>
              <LongitudeDegrees>2.83502141945064067840576171875</LongitudeDegrees>
            </Position>
            <AltitudeMeters>97.8000030517578125</AltitudeMeters>
            <DistanceMeters>NAN</DistanceMeters>
          </Trackpoint>
          <Trackpoint>
            <Time>2020-02-15T12:06:38.000Z</Time>
            <Position>
              <LatitudeDegrees>41.98860489763319492340087890625</LatitudeDegrees>
              <LongitudeDegrees>2.83507422544062137603759765625</LongitudeDegrees>
            </Position>
            <AltitudeMeters>97.8000030517578125</AltitudeMeters>
            <DistanceMeters>NAN</DistanceMeters>
          </Trackpoint>
          <Trackpoint>
            <Time>2020-02-15T12:06:39.000Z</Time>
            <Position>
              <LatitudeDegrees>41.98861059732735157012939453125</LatitudeDegrees>
              <LongitudeDegrees>2.8351271152496337890625</LongitudeDegrees>
            </Position>
            <AltitudeMeters>97.8000030517578125</AltitudeMeters>
            <DistanceMeters>NAN</DistanceMeters>
          </Trackpoint>
          <Trackpoint>
            <Time>2020-02-15T12:06:40.000Z</Time>
            <Position>
              <LatitudeDegrees>41.98861512355506420135498046875</LatitudeDegrees>
              <LongitudeDegrees>2.83517950214445590972900390625</LongitudeDegrees>
            </Position>
            <AltitudeMeters>98</AltitudeMeters>
            <DistanceMeters>NAN</DistanceMeters>
          </Trackpoint>
          <Trackpoint>
            <Time>2020-02-15T12:06:41.000Z</Time>
            <Position>
              <LatitudeDegrees>41.98861931450664997100830078125</LatitudeDegrees>
              <LongitudeDegrees>2.8352318890392780303955078125</LongitudeDegrees>
            </Position>
            <AltitudeMeters>98.1999969482421875</AltitudeMeters>
            <DistanceMeters>NAN</DistanceMeters>
          </Trackpoint>
          <Trackpoint>
            <Time>2020-02-15T12:06:42.000Z</Time>
            <Position>
              <LatitudeDegrees>41.98862132616341114044189453125</LatitudeDegrees>
              <LongitudeDegrees>2.83528628759086132049560546875</LongitudeDegrees>
            </Position>
            <AltitudeMeters>98.1999969482421875</AltitudeMeters>
            <DistanceMeters>NAN</DistanceMeters>
          </Trackpoint>
          <Trackpoint>
            <Time>2020-02-15T12:06:43.000Z</Time>
            <Position>
              <LatitudeDegrees>41.9886220805346965789794921875</LatitudeDegrees>
              <LongitudeDegrees>2.8353421948850154876708984375</LongitudeDegrees>
            </Position>
            <AltitudeMeters>98.40000152587890625</AltitudeMeters>
            <DistanceMeters>NAN</DistanceMeters>
          </Trackpoint>
          <Trackpoint>
            <Time>2020-02-15T12:06:44.000Z</Time>
            <Position>
              <LatitudeDegrees>41.98862417601048946380615234375</LatitudeDegrees>
              <LongitudeDegrees>2.83540028147399425506591796875</LongitudeDegrees>
            </Position>
            <AltitudeMeters>98.40000152587890625</AltitudeMeters>
            <DistanceMeters>NAN</DistanceMeters>
          </Trackpoint>
          <Trackpoint>
            <Time>2020-02-15T12:06:45.000Z</Time>
            <Position>
              <LatitudeDegrees>41.98862694203853607177734375</LatitudeDegrees>
              <LongitudeDegrees>2.8354588709771633148193359375</LongitudeDegrees>
            </Position>
            <AltitudeMeters>98.59999847412109375</AltitudeMeters>
            <DistanceMeters>NAN</DistanceMeters>
          </Trackpoint>
          <Trackpoint>
            <Time>2020-02-15T12:06:46.000Z</Time>
            <Position>
              <LatitudeDegrees>41.98863004334270954132080078125</LatitudeDegrees>
              <LongitudeDegrees>2.8355185501277446746826171875</LongitudeDegrees>
            </Position>
            <AltitudeMeters>98.8000030517578125</AltitudeMeters>
            <DistanceMeters>NAN</DistanceMeters>
          </Trackpoint>
          <Trackpoint>
            <Time>2020-02-15T12:06:47.000Z</Time>
            <Position>
              <LatitudeDegrees>41.98863096535205841064453125</LatitudeDegrees>
              <LongitudeDegrees>2.8355790674686431884765625</LongitudeDegrees>
            </Position>
            <AltitudeMeters>98.8000030517578125</AltitudeMeters>
            <DistanceMeters>NAN</DistanceMeters>
          </Trackpoint>
          <Trackpoint>
            <Time>2020-02-15T12:06:48.000Z</Time>
            <Position>
              <LatitudeDegrees>41.98863071389496326446533203125</LatitudeDegrees>
              <LongitudeDegrees>2.83564050681889057159423828125</LongitudeDegrees>
            </Position>
            <AltitudeMeters>99</AltitudeMeters>
            <DistanceMeters>NAN</DistanceMeters>
          </Trackpoint>
          <Trackpoint>
            <Time>2020-02-15T12:06:49.000Z</Time>
            <Position>
              <LatitudeDegrees>41.98863021098077297210693359375</LatitudeDegrees>
              <LongitudeDegrees>2.83570186235010623931884765625</LongitudeDegrees>
            </Position>
            <AltitudeMeters>99.1999969482421875</AltitudeMeters>
            <DistanceMeters>NAN</DistanceMeters>
          </Trackpoint>
          <Trackpoint>
            <Time>2020-02-15T12:06:50.000Z</Time>
            <Position>
              <LatitudeDegrees>41.98862962424755096435546875</LatitudeDegrees>
              <LongitudeDegrees>2.8357602842152118682861328125</LongitudeDegrees>
            </Position>
            <AltitudeMeters>99.1999969482421875</AltitudeMeters>
            <DistanceMeters>NAN</DistanceMeters>
          </Trackpoint>
          <Trackpoint>
            <Time>2020-02-15T12:06:51.000Z</Time>
            <Position>
              <LatitudeDegrees>41.98862803168594837188720703125</LatitudeDegrees>
              <LongitudeDegrees>2.83581870608031749725341796875</LongitudeDegrees>
            </Position>
            <AltitudeMeters>99.1999969482421875</AltitudeMeters>
            <DistanceMeters>NAN</DistanceMeters>
          </Trackpoint>
          <Trackpoint>
            <Time>2020-02-15T12:06:52.000Z</Time>
            <Position>
              <LatitudeDegrees>41.98862635530531406402587890625</LatitudeDegrees>
              <LongitudeDegrees>2.83587620593607425689697265625</LongitudeDegrees>
            </Position>
            <AltitudeMeters>99.40000152587890625</AltitudeMeters>
            <DistanceMeters>NAN</DistanceMeters>
          </Trackpoint>
          <Trackpoint>
            <Time>2020-02-15T12:06:53.000Z</Time>
            <Position>
              <LatitudeDegrees>41.98862417601048946380615234375</LatitudeDegrees>
              <LongitudeDegrees>2.8359317779541015625</LongitudeDegrees>
            </Position>
            <AltitudeMeters>99.59999847412109375</AltitudeMeters>
            <DistanceMeters>NAN</DistanceMeters>
          </Trackpoint>
          <Trackpoint>
            <Time>2020-02-15T12:06:54.000Z</Time>
            <Position>
              <LatitudeDegrees>41.9886214099824428558349609375</LatitudeDegrees>
              <LongitudeDegrees>2.83598609268665313720703125</LongitudeDegrees>
            </Position>
            <AltitudeMeters>99.59999847412109375</AltitudeMeters>
            <DistanceMeters>NAN</DistanceMeters>
          </Trackpoint>
          <Trackpoint>
            <Time>2020-02-15T12:06:55.000Z</Time>
            <Position>
              <LatitudeDegrees>41.988619901239871978759765625</LatitudeDegrees>
              <LongitudeDegrees>2.8360395692288875579833984375</LongitudeDegrees>
            </Position>
            <AltitudeMeters>99.59999847412109375</AltitudeMeters>
            <DistanceMeters>NAN</DistanceMeters>
          </Trackpoint>
          <Trackpoint>
            <Time>2020-02-15T12:06:56.000Z</Time>
            <Position>
              <LatitudeDegrees>41.98861545883119106292724609375</LatitudeDegrees>
              <LongitudeDegrees>2.83609203994274139404296875</LongitudeDegrees>
            </Position>
            <AltitudeMeters>99.8000030517578125</AltitudeMeters>
            <DistanceMeters>NAN</DistanceMeters>
          </Trackpoint>
          <Trackpoint>
            <Time>2020-02-15T12:06:57.000Z</Time>
            <Position>
              <LatitudeDegrees>41.98860992677509784698486328125</LatitudeDegrees>
              <LongitudeDegrees>2.8361435048282146453857421875</LongitudeDegrees>
            </Position>
            <AltitudeMeters>99.8000030517578125</AltitudeMeters>
            <DistanceMeters>NAN</DistanceMeters>
          </Trackpoint>
          <Trackpoint>
            <Time>2020-02-15T12:06:58.000Z</Time>
            <Position>
              <LatitudeDegrees>41.98860439471900463104248046875</LatitudeDegrees>
              <LongitudeDegrees>2.83619337715208530426025390625</LongitudeDegrees>
            </Position>
            <AltitudeMeters>100</AltitudeMeters>
            <DistanceMeters>NAN</DistanceMeters>
          </Trackpoint>
          <Trackpoint>
            <Time>2020-02-15T12:06:59.000Z</Time>
            <Position>
              <LatitudeDegrees>41.98859970085322856903076171875</LatitudeDegrees>
              <LongitudeDegrees>2.83624299801886081695556640625</LongitudeDegrees>
            </Position>
            <AltitudeMeters>100</AltitudeMeters>
            <DistanceMeters>NAN</DistanceMeters>
          </Trackpoint>
          <Trackpoint>
            <Time>2020-02-15T12:07:00.000Z</Time>
            <Position>
              <LatitudeDegrees>41.9885935820639133453369140625</LatitudeDegrees>
              <LongitudeDegrees>2.83629077486693859100341796875</LongitudeDegrees>
            </Position>
            <AltitudeMeters>100</AltitudeMeters>
            <DistanceMeters>NAN</DistanceMeters>
          </Trackpoint>
          <Trackpoint>
            <Time>2020-02-15T12:07:01.000Z</Time>
            <Position>
              <LatitudeDegrees>41.98858746327459812164306640625</LatitudeDegrees>
              <LongitudeDegrees>2.83633620478212833404541015625</LongitudeDegrees>
            </Position>
            <AltitudeMeters>100.1999969482421875</AltitudeMeters>
            <DistanceMeters>NAN</DistanceMeters>
          </Trackpoint>
          <Trackpoint>
            <Time>2020-02-15T12:07:02.000Z</Time>
            <Position>
              <LatitudeDegrees>41.98858268558979034423828125</LatitudeDegrees>
              <LongitudeDegrees>2.836382053792476654052734375</LongitudeDegrees>
            </Position>
            <AltitudeMeters>100.1999969482421875</AltitudeMeters>
            <DistanceMeters>NAN</DistanceMeters>
          </Trackpoint>
          <Trackpoint>
            <Time>2020-02-15T12:07:03.000Z</Time>
            <Position>
              <LatitudeDegrees>41.9885778240859508514404296875</LatitudeDegrees>
              <LongitudeDegrees>2.83642773516476154327392578125</LongitudeDegrees>
            </Position>
            <AltitudeMeters>100.40000152587890625</AltitudeMeters>
            <DistanceMeters>NAN</DistanceMeters>
          </Trackpoint>
          <Trackpoint>
            <Time>2020-02-15T12:07:04.000Z</Time>
            <Position>
              <LatitudeDegrees>41.98857195675373077392578125</LatitudeDegrees>
              <LongitudeDegrees>2.83647282980382442474365234375</LongitudeDegrees>
            </Position>
            <AltitudeMeters>100.59999847412109375</AltitudeMeters>
            <DistanceMeters>NAN</DistanceMeters>
          </Trackpoint>
          <Trackpoint>
            <Time>2020-02-15T12:07:05.000Z</Time>
            <Position>
              <LatitudeDegrees>41.98856483213603496551513671875</LatitudeDegrees>
              <LongitudeDegrees>2.8365170024335384368896484375</LongitudeDegrees>
            </Position>
            <AltitudeMeters>101</AltitudeMeters>
            <DistanceMeters>NAN</DistanceMeters>
          </Trackpoint>
          <Trackpoint>
            <Time>2020-02-15T12:07:06.000Z</Time>
            <Position>
              <LatitudeDegrees>41.9885592162609100341796875</LatitudeDegrees>
              <LongitudeDegrees>2.8365625999867916107177734375</LongitudeDegrees>
            </Position>
            <AltitudeMeters>101</AltitudeMeters>
            <DistanceMeters>NAN</DistanceMeters>
          </Trackpoint>
          <Trackpoint>
            <Time>2020-02-15T12:07:07.000Z</Time>
            <Position>
              <LatitudeDegrees>41.9885538518428802490234375</LatitudeDegrees>
              <LongitudeDegrees>2.83660962246358394622802734375</LongitudeDegrees>
            </Position>
            <AltitudeMeters>101.40000152587890625</AltitudeMeters>
            <DistanceMeters>NAN</DistanceMeters>
          </Trackpoint>
          <Trackpoint>
            <Time>2020-02-15T12:07:08.000Z</Time>
            <Position>
              <LatitudeDegrees>41.98854790069162845611572265625</LatitudeDegrees>
              <LongitudeDegrees>2.8366581536829471588134765625</LongitudeDegrees>
            </Position>
            <AltitudeMeters>101.59999847412109375</AltitudeMeters>
            <DistanceMeters>NAN</DistanceMeters>
          </Trackpoint>
          <Trackpoint>
            <Time>2020-02-15T12:07:09.000Z</Time>
            <Position>
              <LatitudeDegrees>41.98854287154972553253173828125</LatitudeDegrees>
              <LongitudeDegrees>2.836707271635532379150390625</LongitudeDegrees>
            </Position>
            <AltitudeMeters>101.8000030517578125</AltitudeMeters>
            <DistanceMeters>NAN</DistanceMeters>
          </Trackpoint>
          <Trackpoint>
            <Time>2020-02-15T12:07:10.000Z</Time>
            <Position>
              <LatitudeDegrees>41.98853935115039348602294921875</LatitudeDegrees>
              <LongitudeDegrees>2.83675722777843475341796875</LongitudeDegrees>
            </Position>
            <AltitudeMeters>101.8000030517578125</AltitudeMeters>
            <DistanceMeters>NAN</DistanceMeters>
          </Trackpoint>
          <Trackpoint>
            <Time>2020-02-15T12:07:11.000Z</Time>
            <Position>
              <LatitudeDegrees>41.98853842914104461669921875</LatitudeDegrees>
              <LongitudeDegrees>2.8368083573877811431884765625</LongitudeDegrees>
            </Position>
            <AltitudeMeters>102</AltitudeMeters>
            <DistanceMeters>NAN</DistanceMeters>
          </Trackpoint>
          <Trackpoint>
            <Time>2020-02-15T12:07:12.000Z</Time>
            <Position>
              <LatitudeDegrees>41.9885399378836154937744140625</LatitudeDegrees>
              <LongitudeDegrees>2.8368599899113178253173828125</LongitudeDegrees>
            </Position>
            <AltitudeMeters>102</AltitudeMeters>
            <DistanceMeters>NAN</DistanceMeters>
          </Trackpoint>
          <Trackpoint>
            <Time>2020-02-15T12:07:13.000Z</Time>
            <Position>
              <LatitudeDegrees>41.98854538612067699432373046875</LatitudeDegrees>
              <LongitudeDegrees>2.83691279590129852294921875</LongitudeDegrees>
            </Position>
            <AltitudeMeters>102.40000152587890625</AltitudeMeters>
            <DistanceMeters>NAN</DistanceMeters>
          </Trackpoint>
          <Trackpoint>
            <Time>2020-02-15T12:07:14.000Z</Time>
            <Position>
              <LatitudeDegrees>41.98855494149029254913330078125</LatitudeDegrees>
              <LongitudeDegrees>2.83696602098643779754638671875</LongitudeDegrees>
            </Position>
            <AltitudeMeters>102.40000152587890625</AltitudeMeters>
            <DistanceMeters>NAN</DistanceMeters>
          </Trackpoint>
          <Trackpoint>
            <Time>2020-02-15T12:07:15.000Z</Time>
            <Position>
              <LatitudeDegrees>41.9885681010782718658447265625</LatitudeDegrees>
              <LongitudeDegrees>2.837017066776752471923828125</LongitudeDegrees>
            </Position>
            <AltitudeMeters>102.59999847412109375</AltitudeMeters>
            <DistanceMeters>NAN</DistanceMeters>
          </Trackpoint>
          <Trackpoint>
            <Time>2020-02-15T12:07:16.000Z</Time>
            <Position>
              <LatitudeDegrees>41.9885848648846149444580078125</LatitudeDegrees>
              <LongitudeDegrees>2.8370658494532108306884765625</LongitudeDegrees>
            </Position>
            <AltitudeMeters>103</AltitudeMeters>
            <DistanceMeters>NAN</DistanceMeters>
          </Trackpoint>
          <Trackpoint>
            <Time>2020-02-15T12:07:17.000Z</Time>
            <Position>
              <LatitudeDegrees>41.98860011994838714599609375</LatitudeDegrees>
              <LongitudeDegrees>2.83711371012032032012939453125</LongitudeDegrees>
            </Position>
            <AltitudeMeters>103.40000152587890625</AltitudeMeters>
            <DistanceMeters>NAN</DistanceMeters>
          </Trackpoint>
          <Trackpoint>
            <Time>2020-02-15T12:07:18.000Z</Time>
            <Position>
              <LatitudeDegrees>41.98861579410731792449951171875</LatitudeDegrees>
              <LongitudeDegrees>2.83716064877808094024658203125</LongitudeDegrees>
            </Position>
            <AltitudeMeters>103.40000152587890625</AltitudeMeters>
            <DistanceMeters>NAN</DistanceMeters>
          </Trackpoint>
          <Trackpoint>
            <Time>2020-02-15T12:07:19.000Z</Time>
            <Position>
              <LatitudeDegrees>41.98863389901816844940185546875</LatitudeDegrees>
              <LongitudeDegrees>2.8372076712548732757568359375</LongitudeDegrees>
            </Position>
            <AltitudeMeters>103.8000030517578125</AltitudeMeters>
            <DistanceMeters>NAN</DistanceMeters>
          </Trackpoint>
          <Trackpoint>
            <Time>2020-02-15T12:07:20.000Z</Time>
            <Position>
              <LatitudeDegrees>41.988650746643543243408203125</LatitudeDegrees>
              <LongitudeDegrees>2.83725611865520477294921875</LongitudeDegrees>
            </Position>
            <AltitudeMeters>104.1999969482421875</AltitudeMeters>
            <DistanceMeters>NAN</DistanceMeters>
          </Trackpoint>
          <Trackpoint>
            <Time>2020-02-15T12:07:21.000Z</Time>
            <Position>
              <LatitudeDegrees>41.988664157688617706298828125</LatitudeDegrees>
              <LongitudeDegrees>2.8373072482645511627197265625</LongitudeDegrees>
            </Position>
            <AltitudeMeters>104.40000152587890625</AltitudeMeters>
            <DistanceMeters>NAN</DistanceMeters>
          </Trackpoint>
          <Trackpoint>
            <Time>2020-02-15T12:07:22.000Z</Time>
            <Position>
              <LatitudeDegrees>41.988674215972423553466796875</LatitudeDegrees>
              <LongitudeDegrees>2.83736047334969043731689453125</LongitudeDegrees>
            </Position>
            <AltitudeMeters>104.59999847412109375</AltitudeMeters>
            <DistanceMeters>NAN</DistanceMeters>
          </Trackpoint>
          <Trackpoint>
            <Time>2020-02-15T12:07:23.000Z</Time>
            <Position>
              <LatitudeDegrees>41.98867999948561191558837890625</LatitudeDegrees>
              <LongitudeDegrees>2.83741579391062259674072265625</LongitudeDegrees>
            </Position>
            <AltitudeMeters>104.8000030517578125</AltitudeMeters>
            <DistanceMeters>NAN</DistanceMeters>
          </Trackpoint>
          <Trackpoint>
            <Time>2020-02-15T12:07:24.000Z</Time>
            <Position>
              <LatitudeDegrees>41.98868435807526111602783203125</LatitudeDegrees>
              <LongitudeDegrees>2.83747329376637935638427734375</LongitudeDegrees>
            </Position>
            <AltitudeMeters>105</AltitudeMeters>
            <DistanceMeters>NAN</DistanceMeters>
          </Trackpoint>
          <Trackpoint>
            <Time>2020-02-15T12:07:28.000Z</Time>
            <Position>
              <LatitudeDegrees>41.98868670500814914703369140625</LatitudeDegrees>
              <LongitudeDegrees>2.83771888352930545806884765625</LongitudeDegrees>
            </Position>
            <AltitudeMeters>105.1999969482421875</AltitudeMeters>
            <DistanceMeters>NAN</DistanceMeters>
          </Trackpoint>
          <Trackpoint>
            <Time>2020-02-15T12:07:30.000Z</Time>
            <Position>
              <LatitudeDegrees>41.98867044411599636077880859375</LatitudeDegrees>
              <LongitudeDegrees>2.83784612081944942474365234375</LongitudeDegrees>
            </Position>
            <AltitudeMeters>105.40000152587890625</AltitudeMeters>
            <DistanceMeters>NAN</DistanceMeters>
          </Trackpoint>
          <Trackpoint>
            <Time>2020-02-15T12:07:36.000Z</Time>
            <Position>
              <LatitudeDegrees>41.988568603992462158203125</LatitudeDegrees>
              <LongitudeDegrees>2.8382336162030696868896484375</LongitudeDegrees>
            </Position>
            <AltitudeMeters>105.59999847412109375</AltitudeMeters>
            <DistanceMeters>NAN</DistanceMeters>
          </Trackpoint>
          <Trackpoint>
            <Time>2020-02-15T12:07:37.000Z</Time>
            <Position>
              <LatitudeDegrees>41.988557539880275726318359375</LatitudeDegrees>
              <LongitudeDegrees>2.838298492133617401123046875</LongitudeDegrees>
            </Position>
            <AltitudeMeters>105.40000152587890625</AltitudeMeters>
            <DistanceMeters>NAN</DistanceMeters>
          </Trackpoint>
          <Trackpoint>
            <Time>2020-02-15T12:07:38.000Z</Time>
            <Position>
              <LatitudeDegrees>41.98855276219546794891357421875</LatitudeDegrees>
              <LongitudeDegrees>2.8383633680641651153564453125</LongitudeDegrees>
            </Position>
            <AltitudeMeters>105.40000152587890625</AltitudeMeters>
            <DistanceMeters>NAN</DistanceMeters>
          </Trackpoint>
          <Trackpoint>
            <Time>2020-02-15T12:07:39.000Z</Time>
            <Position>
              <LatitudeDegrees>41.988552175462245941162109375</LatitudeDegrees>
              <LongitudeDegrees>2.83842581324279308319091796875</LongitudeDegrees>
            </Position>
            <AltitudeMeters>105.40000152587890625</AltitudeMeters>
            <DistanceMeters>NAN</DistanceMeters>
          </Trackpoint>
          <Trackpoint>
            <Time>2020-02-15T12:07:40.000Z</Time>
            <Position>
              <LatitudeDegrees>41.98855611495673656463623046875</LatitudeDegrees>
              <LongitudeDegrees>2.8384850732982158660888671875</LongitudeDegrees>
            </Position>
            <AltitudeMeters>105.1999969482421875</AltitudeMeters>
            <DistanceMeters>NAN</DistanceMeters>
          </Trackpoint>
          <Trackpoint>
            <Time>2020-02-15T12:07:41.000Z</Time>
            <Position>
              <LatitudeDegrees>41.98856567032635211944580078125</LatitudeDegrees>
              <LongitudeDegrees>2.8385424055159091949462890625</LongitudeDegrees>
            </Position>
            <AltitudeMeters>105.40000152587890625</AltitudeMeters>
            <DistanceMeters>NAN</DistanceMeters>
          </Trackpoint>
          <Trackpoint>
            <Time>2020-02-15T12:07:42.000Z</Time>
            <Position>
              <LatitudeDegrees>41.988582350313663482666015625</LatitudeDegrees>
              <LongitudeDegrees>2.8385960496962070465087890625</LongitudeDegrees>
            </Position>
            <AltitudeMeters>105.1999969482421875</AltitudeMeters>
            <DistanceMeters>NAN</DistanceMeters>
          </Trackpoint>
          <Trackpoint>
            <Time>2020-02-15T12:07:43.000Z</Time>
            <Position>
              <LatitudeDegrees>41.9886059872806072235107421875</LatitudeDegrees>
              <LongitudeDegrees>2.83864416182041168212890625</LongitudeDegrees>
            </Position>
            <AltitudeMeters>105.1999969482421875</AltitudeMeters>
            <DistanceMeters>NAN</DistanceMeters>
          </Trackpoint>
          <Trackpoint>
            <Time>2020-02-15T12:07:44.000Z</Time>
            <Position>
              <LatitudeDegrees>41.9886348210275173187255859375</LatitudeDegrees>
              <LongitudeDegrees>2.83868364058434963226318359375</LongitudeDegrees>
            </Position>
            <AltitudeMeters>105.1999969482421875</AltitudeMeters>
            <DistanceMeters>NAN</DistanceMeters>
          </Trackpoint>
          <Trackpoint>
            <Time>2020-02-15T12:07:45.000Z</Time>
            <Position>
              <LatitudeDegrees>41.9886691868305206298828125</LatitudeDegrees>
              <LongitudeDegrees>2.83871649764478206634521484375</LongitudeDegrees>
            </Position>
            <AltitudeMeters>105.1999969482421875</AltitudeMeters>
            <DistanceMeters>NAN</DistanceMeters>
          </Trackpoint>
          <Trackpoint>
            <Time>2020-02-15T12:07:46.000Z</Time>
            <Position>
              <LatitudeDegrees>41.988708414137363433837890625</LatitudeDegrees>
              <LongitudeDegrees>2.8387439064681529998779296875</LongitudeDegrees>
            </Position>
            <AltitudeMeters>105.40000152587890625</AltitudeMeters>
            <DistanceMeters>NAN</DistanceMeters>
          </Trackpoint>
          <Trackpoint>
            <Time>2020-02-15T12:07:47.000Z</Time>
            <Position>
              <LatitudeDegrees>41.988751329481601715087890625</LatitudeDegrees>
              <LongitudeDegrees>2.838766537606716156005859375</LongitudeDegrees>
            </Position>
            <AltitudeMeters>105.40000152587890625</AltitudeMeters>
            <DistanceMeters>NAN</DistanceMeters>
          </Trackpoint>
          <Trackpoint>
            <Time>2020-02-15T12:07:48.000Z</Time>
            <Position>
              <LatitudeDegrees>41.988795585930347442626953125</LatitudeDegrees>
              <LongitudeDegrees>2.83878304995596408843994140625</LongitudeDegrees>
            </Position>
            <AltitudeMeters>105.40000152587890625</AltitudeMeters>
            <DistanceMeters>NAN</DistanceMeters>
          </Trackpoint>
          <Trackpoint>
            <Time>2020-02-15T12:07:49.000Z</Time>
            <Position>
              <LatitudeDegrees>41.9888408482074737548828125</LatitudeDegrees>
              <LongitudeDegrees>2.8387948684394359588623046875</LongitudeDegrees>
            </Position>
            <AltitudeMeters>105.1999969482421875</AltitudeMeters>
            <DistanceMeters>NAN</DistanceMeters>
          </Trackpoint>
          <Trackpoint>
            <Time>2020-02-15T12:07:50.000Z</Time>
            <Position>
              <LatitudeDegrees>41.98888652957975864410400390625</LatitudeDegrees>
              <LongitudeDegrees>2.83880333416163921356201171875</LongitudeDegrees>
            </Position>
            <AltitudeMeters>105.1999969482421875</AltitudeMeters>
            <DistanceMeters>NAN</DistanceMeters>
          </Trackpoint>
          <Trackpoint>
            <Time>2020-02-15T12:07:51.000Z</Time>
            <Position>
              <LatitudeDegrees>41.98893279768526554107666015625</LatitudeDegrees>
              <LongitudeDegrees>2.83881045877933502197265625</LongitudeDegrees>
            </Position>
            <AltitudeMeters>105.1999969482421875</AltitudeMeters>
            <DistanceMeters>NAN</DistanceMeters>
          </Trackpoint>
          <Trackpoint>
            <Time>2020-02-15T12:07:52.000Z</Time>
            <Position>
              <LatitudeDegrees>41.98897722177207469940185546875</LatitudeDegrees>
              <LongitudeDegrees>2.8388180024921894073486328125</LongitudeDegrees>
            </Position>
            <AltitudeMeters>105.40000152587890625</AltitudeMeters>
            <DistanceMeters>NAN</DistanceMeters>
          </Trackpoint>
          <Trackpoint>
            <Time>2020-02-15T12:07:53.000Z</Time>
            <Position>
              <LatitudeDegrees>41.9890220649540424346923828125</LatitudeDegrees>
              <LongitudeDegrees>2.8388267196714878082275390625</LongitudeDegrees>
            </Position>
            <AltitudeMeters>105.40000152587890625</AltitudeMeters>
            <DistanceMeters>NAN</DistanceMeters>
          </Trackpoint>
          <Trackpoint>
            <Time>2020-02-15T12:07:54.000Z</Time>
            <Position>
              <LatitudeDegrees>41.98906456120312213897705078125</LatitudeDegrees>
              <LongitudeDegrees>2.83883183263242244720458984375</LongitudeDegrees>
            </Position>
            <AltitudeMeters>105.59999847412109375</AltitudeMeters>
            <DistanceMeters>NAN</DistanceMeters>
          </Trackpoint>
          <Trackpoint>
            <Time>2020-02-15T12:07:55.000Z</Time>
            <Position>
              <LatitudeDegrees>41.98910496197640895843505859375</LatitudeDegrees>
              <LongitudeDegrees>2.83883769996464252471923828125</LongitudeDegrees>
            </Position>
            <AltitudeMeters>105.59999847412109375</AltitudeMeters>
            <DistanceMeters>NAN</DistanceMeters>
          </Trackpoint>
          <Trackpoint>
            <Time>2020-02-15T12:07:56.000Z</Time>
            <Position>
              <LatitudeDegrees>41.98914368636906147003173828125</LatitudeDegrees>
              <LongitudeDegrees>2.8388461656868457794189453125</LongitudeDegrees>
            </Position>
            <AltitudeMeters>105.59999847412109375</AltitudeMeters>
            <DistanceMeters>NAN</DistanceMeters>
          </Trackpoint>
          <Trackpoint>
            <Time>2020-02-15T12:07:57.000Z</Time>
            <Position>
              <LatitudeDegrees>41.98918140493333339691162109375</LatitudeDegrees>
              <LongitudeDegrees>2.838852368295192718505859375</LongitudeDegrees>
            </Position>
            <AltitudeMeters>105.8000030517578125</AltitudeMeters>
            <DistanceMeters>NAN</DistanceMeters>
          </Trackpoint>
          <Trackpoint>
            <Time>2020-02-15T12:07:58.000Z</Time>
            <Position>
              <LatitudeDegrees>41.989220045506954193115234375</LatitudeDegrees>
              <LongitudeDegrees>2.83885714598000049591064453125</LongitudeDegrees>
            </Position>
            <AltitudeMeters>105.8000030517578125</AltitudeMeters>
            <DistanceMeters>NAN</DistanceMeters>
          </Trackpoint>
          <Trackpoint>
            <Time>2020-02-15T12:07:59.000Z</Time>
            <Position>
              <LatitudeDegrees>41.9892584346234798431396484375</LatitudeDegrees>
              <LongitudeDegrees>2.838861756026744842529296875</LongitudeDegrees>
            </Position>
            <AltitudeMeters>106</AltitudeMeters>
            <DistanceMeters>NAN</DistanceMeters>
          </Trackpoint>
          <Trackpoint>
            <Time>2020-02-15T12:08:00.000Z</Time>
            <Position>
              <LatitudeDegrees>41.98929606936872005462646484375</LatitudeDegrees>
              <LongitudeDegrees>2.83886468969285488128662109375</LongitudeDegrees>
            </Position>
            <AltitudeMeters>106.1999969482421875</AltitudeMeters>
            <DistanceMeters>NAN</DistanceMeters>
          </Trackpoint>
          <Trackpoint>
            <Time>2020-02-15T12:08:01.000Z</Time>
            <Position>
              <LatitudeDegrees>41.989333368837833404541015625</LatitudeDegrees>
              <LongitudeDegrees>2.838870473206043243408203125</LongitudeDegrees>
            </Position>
            <AltitudeMeters>106.40000152587890625</AltitudeMeters>
            <DistanceMeters>NAN</DistanceMeters>
          </Trackpoint>
          <Trackpoint>
            <Time>2020-02-15T12:08:02.000Z</Time>
            <Position>
              <LatitudeDegrees>41.98936966247856616973876953125</LatitudeDegrees>
              <LongitudeDegrees>2.838878519833087921142578125</LongitudeDegrees>
            </Position>
            <AltitudeMeters>106.40000152587890625</AltitudeMeters>
            <DistanceMeters>NAN</DistanceMeters>
          </Trackpoint>
          <Trackpoint>
            <Time>2020-02-15T12:08:03.000Z</Time>
            <Position>
              <LatitudeDegrees>41.98940469883382320404052734375</LatitudeDegrees>
              <LongitudeDegrees>2.83888799138367176055908203125</LongitudeDegrees>
            </Position>
            <AltitudeMeters>106.8000030517578125</AltitudeMeters>
            <DistanceMeters>NAN</DistanceMeters>
          </Trackpoint>
          <Trackpoint>
            <Time>2020-02-15T12:08:04.000Z</Time>
            <Position>
              <LatitudeDegrees>41.98943889699876308441162109375</LatitudeDegrees>
              <LongitudeDegrees>2.8388967923820018768310546875</LongitudeDegrees>
            </Position>
            <AltitudeMeters>107</AltitudeMeters>
            <DistanceMeters>NAN</DistanceMeters>
          </Trackpoint>
          <Trackpoint>
            <Time>2020-02-15T12:08:05.000Z</Time>
            <Position>
              <LatitudeDegrees>41.98947208933532238006591796875</LatitudeDegrees>
              <LongitudeDegrees>2.83890341408550739288330078125</LongitudeDegrees>
            </Position>
            <AltitudeMeters>107.1999969482421875</AltitudeMeters>
            <DistanceMeters>NAN</DistanceMeters>
          </Trackpoint>
          <Trackpoint>
            <Time>2020-02-15T12:08:06.000Z</Time>
            <Position>
              <LatitudeDegrees>41.9895033538341522216796875</LatitudeDegrees>
              <LongitudeDegrees>2.8389102034270763397216796875</LongitudeDegrees>
            </Position>
            <AltitudeMeters>107.40000152587890625</AltitudeMeters>
            <DistanceMeters>NAN</DistanceMeters>
          </Trackpoint>
          <Trackpoint>
            <Time>2020-02-15T12:08:07.000Z</Time>
            <Position>
              <LatitudeDegrees>41.98953310959041118621826171875</LatitudeDegrees>
              <LongitudeDegrees>2.83892001025378704071044921875</LongitudeDegrees>
            </Position>
            <AltitudeMeters>107.59999847412109375</AltitudeMeters>
            <DistanceMeters>NAN</DistanceMeters>
          </Trackpoint>
          <Trackpoint>
            <Time>2020-02-15T12:08:08.000Z</Time>
            <Position>
              <LatitudeDegrees>41.98956294916570186614990234375</LatitudeDegrees>
              <LongitudeDegrees>2.83893023617565631866455078125</LongitudeDegrees>
            </Position>
            <AltitudeMeters>107.8000030517578125</AltitudeMeters>
            <DistanceMeters>NAN</DistanceMeters>
          </Trackpoint>
          <Trackpoint>
            <Time>2020-02-15T12:08:09.000Z</Time>
            <Position>
              <LatitudeDegrees>41.9895920343697071075439453125</LatitudeDegrees>
              <LongitudeDegrees>2.838938198983669281005859375</LongitudeDegrees>
            </Position>
            <AltitudeMeters>108.1999969482421875</AltitudeMeters>
            <DistanceMeters>NAN</DistanceMeters>
          </Trackpoint>
          <Trackpoint>
            <Time>2020-02-15T12:08:10.000Z</Time>
            <Position>
              <LatitudeDegrees>41.98961894027888774871826171875</LatitudeDegrees>
              <LongitudeDegrees>2.8389460779726505279541015625</LongitudeDegrees>
            </Position>
            <AltitudeMeters>108.40000152587890625</AltitudeMeters>
            <DistanceMeters>NAN</DistanceMeters>
          </Trackpoint>
          <Trackpoint>
            <Time>2020-02-15T12:08:11.000Z</Time>
            <Position>
              <LatitudeDegrees>41.9896450079977512359619140625</LatitudeDegrees>
              <LongitudeDegrees>2.83895404078066349029541015625</LongitudeDegrees>
            </Position>
            <AltitudeMeters>108.59999847412109375</AltitudeMeters>
            <DistanceMeters>NAN</DistanceMeters>
          </Trackpoint>
          <Trackpoint>
            <Time>2020-02-15T12:08:12.000Z</Time>
            <Position>
              <LatitudeDegrees>41.98967166244983673095703125</LatitudeDegrees>
              <LongitudeDegrees>2.838958315551280975341796875</LongitudeDegrees>
            </Position>
            <AltitudeMeters>108.59999847412109375</AltitudeMeters>
            <DistanceMeters>NAN</DistanceMeters>
          </Trackpoint>
          <Trackpoint>
            <Time>2020-02-15T12:08:13.000Z</Time>
            <Position>
              <LatitudeDegrees>41.9896999932825565338134765625</LatitudeDegrees>
              <LongitudeDegrees>2.8389613330364227294921875</LongitudeDegrees>
            </Position>
            <AltitudeMeters>108.8000030517578125</AltitudeMeters>
            <DistanceMeters>NAN</DistanceMeters>
          </Trackpoint>
          <Trackpoint>
            <Time>2020-02-15T12:08:14.000Z</Time>
            <Position>
              <LatitudeDegrees>41.989730335772037506103515625</LatitudeDegrees>
              <LongitudeDegrees>2.83896812237799167633056640625</LongitudeDegrees>
            </Position>
            <AltitudeMeters>109.1999969482421875</AltitudeMeters>
            <DistanceMeters>NAN</DistanceMeters>
          </Trackpoint>
          <Trackpoint>
            <Time>2020-02-15T12:08:15.000Z</Time>
            <Position>
              <LatitudeDegrees>41.98976327665150165557861328125</LatitudeDegrees>
              <LongitudeDegrees>2.83897667191922664642333984375</LongitudeDegrees>
            </Position>
            <AltitudeMeters>109.40000152587890625</AltitudeMeters>
            <DistanceMeters>NAN</DistanceMeters>
          </Trackpoint>
          <Trackpoint>
            <Time>2020-02-15T12:08:16.000Z</Time>
            <Position>
              <LatitudeDegrees>41.989798061549663543701171875</LatitudeDegrees>
              <LongitudeDegrees>2.83898320980370044708251953125</LongitudeDegrees>
            </Position>
            <AltitudeMeters>109.8000030517578125</AltitudeMeters>
            <DistanceMeters>NAN</DistanceMeters>
          </Trackpoint>
          <Trackpoint>
            <Time>2020-02-15T12:08:17.000Z</Time>
            <Position>
              <LatitudeDegrees>41.989834941923618316650390625</LatitudeDegrees>
              <LongitudeDegrees>2.838988490402698516845703125</LongitudeDegrees>
            </Position>
            <AltitudeMeters>109.8000030517578125</AltitudeMeters>
            <DistanceMeters>NAN</DistanceMeters>
          </Trackpoint>
          <Trackpoint>
            <Time>2020-02-15T12:08:18.000Z</Time>
            <Position>
              <LatitudeDegrees>41.9898726604878902435302734375</LatitudeDegrees>
              <LongitudeDegrees>2.83899427391588687896728515625</LongitudeDegrees>
            </Position>
            <AltitudeMeters>110</AltitudeMeters>
            <DistanceMeters>NAN</DistanceMeters>
          </Trackpoint>
          <Trackpoint>
            <Time>2020-02-15T12:08:19.000Z</Time>
            <Position>
              <LatitudeDegrees>41.98990912176668643951416015625</LatitudeDegrees>
              <LongitudeDegrees>2.839001230895519256591796875</LongitudeDegrees>
            </Position>
            <AltitudeMeters>110.1999969482421875</AltitudeMeters>
            <DistanceMeters>NAN</DistanceMeters>
          </Trackpoint>
          <Trackpoint>
            <Time>2020-02-15T12:08:20.000Z</Time>
            <Position>
              <LatitudeDegrees>41.98994566686451435089111328125</LatitudeDegrees>
              <LongitudeDegrees>2.83900734968483448028564453125</LongitudeDegrees>
            </Position>
            <AltitudeMeters>110.40000152587890625</AltitudeMeters>
            <DistanceMeters>NAN</DistanceMeters>
          </Trackpoint>
          <Trackpoint>
            <Time>2020-02-15T12:08:21.000Z</Time>
            <Position>
              <LatitudeDegrees>41.989981792867183685302734375</LatitudeDegrees>
              <LongitudeDegrees>2.83901254646480083465576171875</LongitudeDegrees>
            </Position>
            <AltitudeMeters>110.59999847412109375</AltitudeMeters>
            <DistanceMeters>NAN</DistanceMeters>
          </Trackpoint>
          <Trackpoint>
            <Time>2020-02-15T12:08:22.000Z</Time>
            <Position>
              <LatitudeDegrees>41.9900178350508213043212890625</LatitudeDegrees>
              <LongitudeDegrees>2.8390188328921794891357421875</LongitudeDegrees>
            </Position>
            <AltitudeMeters>110.59999847412109375</AltitudeMeters>
            <DistanceMeters>NAN</DistanceMeters>
          </Trackpoint>
          <Trackpoint>
            <Time>2020-02-15T12:08:23.000Z</Time>
            <Position>
              <LatitudeDegrees>41.99005278758704662322998046875</LatitudeDegrees>
              <LongitudeDegrees>2.83902578987181186676025390625</LongitudeDegrees>
            </Position>
            <AltitudeMeters>110.8000030517578125</AltitudeMeters>
            <DistanceMeters>NAN</DistanceMeters>
          </Trackpoint>
          <Trackpoint>
            <Time>2020-02-15T12:08:24.000Z</Time>
            <Position>
              <LatitudeDegrees>41.9900872372090816497802734375</LatitudeDegrees>
              <LongitudeDegrees>2.83903383649885654449462890625</LongitudeDegrees>
            </Position>
            <AltitudeMeters>111</AltitudeMeters>
            <DistanceMeters>NAN</DistanceMeters>
          </Trackpoint>
          <Trackpoint>
            <Time>2020-02-15T12:08:25.000Z</Time>
            <Position>
              <LatitudeDegrees>41.99012151919305324554443359375</LatitudeDegrees>
              <LongitudeDegrees>2.8390412963926792144775390625</LongitudeDegrees>
            </Position>
            <AltitudeMeters>111.1999969482421875</AltitudeMeters>
            <DistanceMeters>NAN</DistanceMeters>
          </Trackpoint>
          <Trackpoint>
            <Time>2020-02-15T12:08:26.000Z</Time>
            <Position>
              <LatitudeDegrees>41.9901556335389614105224609375</LatitudeDegrees>
              <LongitudeDegrees>2.8390525281429290771484375</LongitudeDegrees>
            </Position>
            <AltitudeMeters>111.1999969482421875</AltitudeMeters>
            <DistanceMeters>NAN</DistanceMeters>
          </Trackpoint>
          <Trackpoint>
            <Time>2020-02-15T12:08:27.000Z</Time>
            <Position>
              <LatitudeDegrees>41.99018756859004497528076171875</LatitudeDegrees>
              <LongitudeDegrees>2.839073650538921356201171875</LongitudeDegrees>
            </Position>
            <AltitudeMeters>111.1999969482421875</AltitudeMeters>
            <DistanceMeters>NAN</DistanceMeters>
          </Trackpoint>
          <Trackpoint>
            <Time>2020-02-15T12:08:28.000Z</Time>
            <Position>
              <LatitudeDegrees>41.9902159832417964935302734375</LatitudeDegrees>
              <LongitudeDegrees>2.83910642378032207489013671875</LongitudeDegrees>
            </Position>
            <AltitudeMeters>111.59999847412109375</AltitudeMeters>
            <DistanceMeters>NAN</DistanceMeters>
          </Trackpoint>
          <Trackpoint>
            <Time>2020-02-15T12:08:29.000Z</Time>
            <Position>
              <LatitudeDegrees>41.99023920111358165740966796875</LatitudeDegrees>
              <LongitudeDegrees>2.83915185369551181793212890625</LongitudeDegrees>
            </Position>
            <AltitudeMeters>111.59999847412109375</AltitudeMeters>
            <DistanceMeters>NAN</DistanceMeters>
          </Trackpoint>
          <Trackpoint>
            <Time>2020-02-15T12:08:30.000Z</Time>
            <Position>
              <LatitudeDegrees>41.99025445617735385894775390625</LatitudeDegrees>
              <LongitudeDegrees>2.83921102993190288543701171875</LongitudeDegrees>
            </Position>
            <AltitudeMeters>111.59999847412109375</AltitudeMeters>
            <DistanceMeters>NAN</DistanceMeters>
          </Trackpoint>
          <Trackpoint>
            <Time>2020-02-15T12:08:31.000Z</Time>
            <Position>
              <LatitudeDegrees>41.99026183225214481353759765625</LatitudeDegrees>
              <LongitudeDegrees>2.83928043209016323089599609375</LongitudeDegrees>
            </Position>
            <AltitudeMeters>111.59999847412109375</AltitudeMeters>
            <DistanceMeters>NAN</DistanceMeters>
          </Trackpoint>
          <Trackpoint>
            <Time>2020-02-15T12:08:32.000Z</Time>
            <Position>
              <LatitudeDegrees>41.99026552028954029083251953125</LatitudeDegrees>
              <LongitudeDegrees>2.83935503102838993072509765625</LongitudeDegrees>
            </Position>
            <AltitudeMeters>111.59999847412109375</AltitudeMeters>
            <DistanceMeters>NAN</DistanceMeters>
          </Trackpoint>
          <Trackpoint>
            <Time>2020-02-15T12:08:33.000Z</Time>
            <Position>
              <LatitudeDegrees>41.99026904068887233734130859375</LatitudeDegrees>
              <LongitudeDegrees>2.839433066546916961669921875</LongitudeDegrees>
            </Position>
            <AltitudeMeters>111.59999847412109375</AltitudeMeters>
            <DistanceMeters>NAN</DistanceMeters>
          </Trackpoint>
          <Trackpoint>
            <Time>2020-02-15T12:08:36.000Z</Time>
            <Position>
              <LatitudeDegrees>41.990282870829105377197265625</LatitudeDegrees>
              <LongitudeDegrees>2.83967957831919193267822265625</LongitudeDegrees>
            </Position>
            <AltitudeMeters>111.8000030517578125</AltitudeMeters>
            <DistanceMeters>NAN</DistanceMeters>
          </Trackpoint>
          <Trackpoint>
            <Time>2020-02-15T12:08:37.000Z</Time>
            <Position>
              <LatitudeDegrees>41.99028681032359600067138671875</LatitudeDegrees>
              <LongitudeDegrees>2.83976457081735134124755859375</LongitudeDegrees>
            </Position>
            <AltitudeMeters>111.59999847412109375</AltitudeMeters>
            <DistanceMeters>NAN</DistanceMeters>
          </Trackpoint>
          <Trackpoint>
            <Time>2020-02-15T12:08:38.000Z</Time>
            <Position>
              <LatitudeDegrees>41.99029971845448017120361328125</LatitudeDegrees>
              <LongitudeDegrees>2.8398459590971469879150390625</LongitudeDegrees>
            </Position>
            <AltitudeMeters>111.59999847412109375</AltitudeMeters>
            <DistanceMeters>NAN</DistanceMeters>
          </Trackpoint>
          <Trackpoint>
            <Time>2020-02-15T12:08:39.000Z</Time>
            <Position>
              <LatitudeDegrees>41.9903256185352802276611328125</LatitudeDegrees>
              <LongitudeDegrees>2.83992064185440540313720703125</LongitudeDegrees>
            </Position>
            <AltitudeMeters>111.59999847412109375</AltitudeMeters>
            <DistanceMeters>NAN</DistanceMeters>
          </Trackpoint>
          <Trackpoint>
            <Time>2020-02-15T12:08:40.000Z</Time>
            <Position>
              <LatitudeDegrees>41.99037037789821624755859375</LatitudeDegrees>
              <LongitudeDegrees>2.83997721970081329345703125</LongitudeDegrees>
            </Position>
            <AltitudeMeters>111.59999847412109375</AltitudeMeters>
            <DistanceMeters>NAN</DistanceMeters>
          </Trackpoint>
          <Trackpoint>
            <Time>2020-02-15T12:08:41.000Z</Time>
            <Position>
              <LatitudeDegrees>41.9904272072017192840576171875</LatitudeDegrees>
              <LongitudeDegrees>2.84001083113253116607666015625</LongitudeDegrees>
            </Position>
            <AltitudeMeters>111.40000152587890625</AltitudeMeters>
            <DistanceMeters>NAN</DistanceMeters>
          </Trackpoint>
          <Trackpoint>
            <Time>2020-02-15T12:08:42.000Z</Time>
            <Position>
              <LatitudeDegrees>41.99048814363777637481689453125</LatitudeDegrees>
              <LongitudeDegrees>2.84002826549112796783447265625</LongitudeDegrees>
            </Position>
            <AltitudeMeters>111.1999969482421875</AltitudeMeters>
            <DistanceMeters>NAN</DistanceMeters>
          </Trackpoint>
          <Trackpoint>
            <Time>2020-02-15T12:08:43.000Z</Time>
            <Position>
              <LatitudeDegrees>41.99054949916899204254150390625</LatitudeDegrees>
              <LongitudeDegrees>2.840045280754566192626953125</LongitudeDegrees>
            </Position>
            <AltitudeMeters>111</AltitudeMeters>
            <DistanceMeters>NAN</DistanceMeters>
          </Trackpoint>
          <Trackpoint>
            <Time>2020-02-15T12:08:44.000Z</Time>
            <Position>
              <LatitudeDegrees>41.99060951359570026397705078125</LatitudeDegrees>
              <LongitudeDegrees>2.84006514586508274078369140625</LongitudeDegrees>
            </Position>
            <AltitudeMeters>110.8000030517578125</AltitudeMeters>
            <DistanceMeters>NAN</DistanceMeters>
          </Trackpoint>
          <Trackpoint>
            <Time>2020-02-15T12:08:45.000Z</Time>
            <Position>
              <LatitudeDegrees>41.990667097270488739013671875</LatitudeDegrees>
              <LongitudeDegrees>2.84008744172751903533935546875</LongitudeDegrees>
            </Position>
            <AltitudeMeters>110.59999847412109375</AltitudeMeters>
            <DistanceMeters>NAN</DistanceMeters>
          </Trackpoint>
          <Trackpoint>
            <Time>2020-02-15T12:08:46.000Z</Time>
            <Position>
              <LatitudeDegrees>41.99071981944143772125244140625</LatitudeDegrees>
              <LongitudeDegrees>2.8401094861328601837158203125</LongitudeDegrees>
            </Position>
            <AltitudeMeters>110.1999969482421875</AltitudeMeters>
            <DistanceMeters>NAN</DistanceMeters>
          </Trackpoint>
          <Trackpoint>
            <Time>2020-02-15T12:08:47.000Z</Time>
            <Position>
              <LatitudeDegrees>41.99077094905078411102294921875</LatitudeDegrees>
              <LongitudeDegrees>2.84013102762401103973388671875</LongitudeDegrees>
            </Position>
            <AltitudeMeters>110.1999969482421875</AltitudeMeters>
            <DistanceMeters>NAN</DistanceMeters>
          </Trackpoint>
          <Trackpoint>
            <Time>2020-02-15T12:08:48.000Z</Time>
            <Position>
              <LatitudeDegrees>41.9908214919269084930419921875</LatitudeDegrees>
              <LongitudeDegrees>2.840156257152557373046875</LongitudeDegrees>
            </Position>
            <AltitudeMeters>110</AltitudeMeters>
            <DistanceMeters>NAN</DistanceMeters>
          </Trackpoint>
          <Trackpoint>
            <Time>2020-02-15T12:08:49.000Z</Time>
            <Position>
              <LatitudeDegrees>41.9908677600324153900146484375</LatitudeDegrees>
              <LongitudeDegrees>2.840194143354892730712890625</LongitudeDegrees>
            </Position>
            <AltitudeMeters>109.8000030517578125</AltitudeMeters>
            <DistanceMeters>NAN</DistanceMeters>
          </Trackpoint>
          <Trackpoint>
            <Time>2020-02-15T12:08:50.000Z</Time>
            <Position>
              <LatitudeDegrees>41.9909126870334148406982421875</LatitudeDegrees>
              <LongitudeDegrees>2.84023915417492389678955078125</LongitudeDegrees>
            </Position>
            <AltitudeMeters>109.8000030517578125</AltitudeMeters>
            <DistanceMeters>NAN</DistanceMeters>
          </Trackpoint>
          <Trackpoint>
            <Time>2020-02-15T12:08:52.000Z</Time>
            <Position>
              <LatitudeDegrees>41.9910018704831600189208984375</LatitudeDegrees>
              <LongitudeDegrees>2.8403311036527156829833984375</LongitudeDegrees>
            </Position>
            <AltitudeMeters>109.59999847412109375</AltitudeMeters>
            <DistanceMeters>NAN</DistanceMeters>
          </Trackpoint>
          <Trackpoint>
            <Time>2020-02-15T12:08:53.000Z</Time>
            <Position>
              <LatitudeDegrees>41.99104302562773227691650390625</LatitudeDegrees>
              <LongitudeDegrees>2.8403770364820957183837890625</LongitudeDegrees>
            </Position>
            <AltitudeMeters>109.59999847412109375</AltitudeMeters>
            <DistanceMeters>NAN</DistanceMeters>
          </Trackpoint>
          <Trackpoint>
            <Time>2020-02-15T12:08:54.000Z</Time>
            <Position>
              <LatitudeDegrees>41.99107713997364044189453125</LatitudeDegrees>
              <LongitudeDegrees>2.84042858518660068511962890625</LongitudeDegrees>
            </Position>
            <AltitudeMeters>109.40000152587890625</AltitudeMeters>
            <DistanceMeters>NAN</DistanceMeters>
          </Trackpoint>
          <Trackpoint>
            <Time>2020-02-15T12:08:55.000Z</Time>
            <Position>
              <LatitudeDegrees>41.9911118410527706146240234375</LatitudeDegrees>
              <LongitudeDegrees>2.84048792906105518341064453125</LongitudeDegrees>
            </Position>
            <AltitudeMeters>109.1999969482421875</AltitudeMeters>
            <DistanceMeters>NAN</DistanceMeters>
          </Trackpoint>
          <Trackpoint>
            <Time>2020-02-15T12:09:00.000Z</Time>
            <Position>
              <LatitudeDegrees>41.99131744913756847381591796875</LatitudeDegrees>
              <LongitudeDegrees>2.84078682772815227508544921875</LongitudeDegrees>
            </Position>
            <AltitudeMeters>109.1999969482421875</AltitudeMeters>
            <DistanceMeters>NAN</DistanceMeters>
          </Trackpoint>
          <Trackpoint>
            <Time>2020-02-15T12:09:02.000Z</Time>
            <Position>
              <LatitudeDegrees>41.9914031960070133209228515625</LatitudeDegrees>
              <LongitudeDegrees>2.840909622609615325927734375</LongitudeDegrees>
            </Position>
            <AltitudeMeters>109</AltitudeMeters>
            <DistanceMeters>NAN</DistanceMeters>
          </Trackpoint>
          <Trackpoint>
            <Time>2020-02-15T12:09:05.000Z</Time>
            <Position>
              <LatitudeDegrees>41.99152666144073009490966796875</LatitudeDegrees>
              <LongitudeDegrees>2.84109771251678466796875</LongitudeDegrees>
            </Position>
            <AltitudeMeters>109</AltitudeMeters>
            <DistanceMeters>NAN</DistanceMeters>
          </Trackpoint>
          <Trackpoint>
            <Time>2020-02-15T12:09:07.000Z</Time>
            <Position>
              <LatitudeDegrees>41.99160427786409854888916015625</LatitudeDegrees>
              <LongitudeDegrees>2.84122721292078495025634765625</LongitudeDegrees>
            </Position>
            <AltitudeMeters>109</AltitudeMeters>
            <DistanceMeters>NAN</DistanceMeters>
          </Trackpoint>
          <Trackpoint>
            <Time>2020-02-15T12:09:08.000Z</Time>
            <Position>
              <LatitudeDegrees>41.9916385598480701446533203125</LatitudeDegrees>
              <LongitudeDegrees>2.841294519603252410888671875</LongitudeDegrees>
            </Position>
            <AltitudeMeters>108.8000030517578125</AltitudeMeters>
            <DistanceMeters>NAN</DistanceMeters>
          </Trackpoint>
          <Trackpoint>
            <Time>2020-02-15T12:09:09.000Z</Time>
            <Position>
              <LatitudeDegrees>41.9916670583188533782958984375</LatitudeDegrees>
              <LongitudeDegrees>2.8413640893995761871337890625</LongitudeDegrees>
            </Position>
            <AltitudeMeters>108.8000030517578125</AltitudeMeters>
            <DistanceMeters>NAN</DistanceMeters>
          </Trackpoint>
          <Trackpoint>
            <Time>2020-02-15T12:09:10.000Z</Time>
            <Position>
              <LatitudeDegrees>41.991691030561923980712890625</LatitudeDegrees>
              <LongitudeDegrees>2.841437347233295440673828125</LongitudeDegrees>
            </Position>
            <AltitudeMeters>108.8000030517578125</AltitudeMeters>
            <DistanceMeters>NAN</DistanceMeters>
          </Trackpoint>
          <Trackpoint>
            <Time>2020-02-15T12:09:11.000Z</Time>
            <Position>
              <LatitudeDegrees>41.991712488234043121337890625</LatitudeDegrees>
              <LongitudeDegrees>2.84151546657085418701171875</LongitudeDegrees>
            </Position>
            <AltitudeMeters>108.8000030517578125</AltitudeMeters>
            <DistanceMeters>NAN</DistanceMeters>
          </Trackpoint>
          <Trackpoint>
            <Time>2020-02-15T12:09:14.000Z</Time>
            <Position>
              <LatitudeDegrees>41.99178281240165233612060546875</LatitudeDegrees>
              <LongitudeDegrees>2.84173716790974140167236328125</LongitudeDegrees>
            </Position>
            <AltitudeMeters>108.59999847412109375</AltitudeMeters>
            <DistanceMeters>NAN</DistanceMeters>
          </Trackpoint>
          <Trackpoint>
            <Time>2020-02-15T12:09:15.000Z</Time>
            <Position>
              <LatitudeDegrees>41.99181080795824527740478515625</LatitudeDegrees>
              <LongitudeDegrees>2.84180137328803539276123046875</LongitudeDegrees>
            </Position>
            <AltitudeMeters>108.8000030517578125</AltitudeMeters>
            <DistanceMeters>NAN</DistanceMeters>
          </Trackpoint>
          <Trackpoint>
            <Time>2020-02-15T12:09:16.000Z</Time>
            <Position>
              <LatitudeDegrees>41.991841904819011688232421875</LatitudeDegrees>
              <LongitudeDegrees>2.8418606333434581756591796875</LongitudeDegrees>
            </Position>
            <AltitudeMeters>108.8000030517578125</AltitudeMeters>
            <DistanceMeters>NAN</DistanceMeters>
          </Trackpoint>
          <Trackpoint>
            <Time>2020-02-15T12:09:17.000Z</Time>
            <Position>
              <LatitudeDegrees>41.99187350459396839141845703125</LatitudeDegrees>
              <LongitudeDegrees>2.84191285260021686553955078125</LongitudeDegrees>
            </Position>
            <AltitudeMeters>108.8000030517578125</AltitudeMeters>
            <DistanceMeters>NAN</DistanceMeters>
          </Trackpoint>
          <Trackpoint>
            <Time>2020-02-15T12:09:18.000Z</Time>
            <Position>
              <LatitudeDegrees>41.9919017516076564788818359375</LatitudeDegrees>
              <LongitudeDegrees>2.84196230582892894744873046875</LongitudeDegrees>
            </Position>
            <AltitudeMeters>108.8000030517578125</AltitudeMeters>
            <DistanceMeters>NAN</DistanceMeters>
          </Trackpoint>
          <Trackpoint>
            <Time>2020-02-15T12:09:19.000Z</Time>
            <Position>
              <LatitudeDegrees>41.99192798696458339691162109375</LatitudeDegrees>
              <LongitudeDegrees>2.84201460890471935272216796875</LongitudeDegrees>
            </Position>
            <AltitudeMeters>108.8000030517578125</AltitudeMeters>
            <DistanceMeters>NAN</DistanceMeters>
          </Trackpoint>
          <Trackpoint>
            <Time>2020-02-15T12:09:20.000Z</Time>
            <Position>
              <LatitudeDegrees>41.9919537194073200225830078125</LatitudeDegrees>
              <LongitudeDegrees>2.84207143820822238922119140625</LongitudeDegrees>
            </Position>
            <AltitudeMeters>108.8000030517578125</AltitudeMeters>
            <DistanceMeters>NAN</DistanceMeters>
          </Trackpoint>
          <Trackpoint>
            <Time>2020-02-15T12:09:21.000Z</Time>
            <Position>
              <LatitudeDegrees>41.99197643436491489410400390625</LatitudeDegrees>
              <LongitudeDegrees>2.842129357159137725830078125</LongitudeDegrees>
            </Position>
            <AltitudeMeters>108.8000030517578125</AltitudeMeters>
            <DistanceMeters>NAN</DistanceMeters>
          </Trackpoint>
          <Trackpoint>
            <Time>2020-02-15T12:09:22.000Z</Time>
            <Position>
              <LatitudeDegrees>41.9919966347515583038330078125</LatitudeDegrees>
              <LongitudeDegrees>2.84218777902424335479736328125</LongitudeDegrees>
            </Position>
            <AltitudeMeters>108.8000030517578125</AltitudeMeters>
            <DistanceMeters>NAN</DistanceMeters>
          </Trackpoint>
          <Trackpoint>
            <Time>2020-02-15T12:09:23.000Z</Time>
            <Position>
              <LatitudeDegrees>41.99201599694788455963134765625</LatitudeDegrees>
              <LongitudeDegrees>2.84224636852741241455078125</LongitudeDegrees>
            </Position>
            <AltitudeMeters>108.8000030517578125</AltitudeMeters>
            <DistanceMeters>NAN</DistanceMeters>
          </Trackpoint>
          <Trackpoint>
            <Time>2020-02-15T12:09:24.000Z</Time>
            <Position>
              <LatitudeDegrees>41.99203468859195709228515625</LatitudeDegrees>
              <LongitudeDegrees>2.842306382954120635986328125</LongitudeDegrees>
            </Position>
            <AltitudeMeters>108.59999847412109375</AltitudeMeters>
            <DistanceMeters>NAN</DistanceMeters>
          </Trackpoint>
          <Trackpoint>
            <Time>2020-02-15T12:09:25.000Z</Time>
            <Position>
              <LatitudeDegrees>41.9920496083796024322509765625</LatitudeDegrees>
              <LongitudeDegrees>2.84236497245728969573974609375</LongitudeDegrees>
            </Position>
            <AltitudeMeters>108.8000030517578125</AltitudeMeters>
            <DistanceMeters>NAN</DistanceMeters>
          </Trackpoint>
          <Trackpoint>
            <Time>2020-02-15T12:09:26.000Z</Time>
            <Position>
              <LatitudeDegrees>41.992065869271755218505859375</LatitudeDegrees>
              <LongitudeDegrees>2.84242364577949047088623046875</LongitudeDegrees>
            </Position>
            <AltitudeMeters>109</AltitudeMeters>
            <DistanceMeters>NAN</DistanceMeters>
          </Trackpoint>
          <Trackpoint>
            <Time>2020-02-15T12:09:27.000Z</Time>
            <Position>
              <LatitudeDegrees>41.992084980010986328125</LatitudeDegrees>
              <LongitudeDegrees>2.8424815647304058074951171875</LongitudeDegrees>
            </Position>
            <AltitudeMeters>109</AltitudeMeters>
            <DistanceMeters>NAN</DistanceMeters>
          </Trackpoint>
          <Trackpoint>
            <Time>2020-02-15T12:09:28.000Z</Time>
            <Position>
              <LatitudeDegrees>41.99210534803569316864013671875</LatitudeDegrees>
              <LongitudeDegrees>2.842537052929401397705078125</LongitudeDegrees>
            </Position>
            <AltitudeMeters>109.1999969482421875</AltitudeMeters>
            <DistanceMeters>NAN</DistanceMeters>
          </Trackpoint>
          <Trackpoint>
            <Time>2020-02-15T12:09:29.000Z</Time>
            <Position>
              <LatitudeDegrees>41.99212965555489063262939453125</LatitudeDegrees>
              <LongitudeDegrees>2.84259480424225330352783203125</LongitudeDegrees>
            </Position>
            <AltitudeMeters>109.1999969482421875</AltitudeMeters>
            <DistanceMeters>NAN</DistanceMeters>
          </Trackpoint>
          <Trackpoint>
            <Time>2020-02-15T12:09:30.000Z</Time>
            <Position>
              <LatitudeDegrees>41.9921555556356906890869140625</LatitudeDegrees>
              <LongitudeDegrees>2.842651717364788055419921875</LongitudeDegrees>
            </Position>
            <AltitudeMeters>109.40000152587890625</AltitudeMeters>
            <DistanceMeters>NAN</DistanceMeters>
          </Trackpoint>
          <Trackpoint>
            <Time>2020-02-15T12:09:31.000Z</Time>
            <Position>
              <LatitudeDegrees>41.992178522050380706787109375</LatitudeDegrees>
              <LongitudeDegrees>2.842706702649593353271484375</LongitudeDegrees>
            </Position>
            <AltitudeMeters>109.59999847412109375</AltitudeMeters>
            <DistanceMeters>NAN</DistanceMeters>
          </Trackpoint>
          <Trackpoint>
            <Time>2020-02-15T12:09:32.000Z</Time>
            <Position>
              <LatitudeDegrees>41.99220492504537105560302734375</LatitudeDegrees>
              <LongitudeDegrees>2.84276294521987438201904296875</LongitudeDegrees>
            </Position>
            <AltitudeMeters>109.8000030517578125</AltitudeMeters>
            <DistanceMeters>NAN</DistanceMeters>
          </Trackpoint>
          <Trackpoint>
            <Time>2020-02-15T12:09:33.000Z</Time>
            <Position>
              <LatitudeDegrees>41.99223208241164684295654296875</LatitudeDegrees>
              <LongitudeDegrees>2.8428175114095211029052734375</LongitudeDegrees>
            </Position>
            <AltitudeMeters>109.8000030517578125</AltitudeMeters>
            <DistanceMeters>NAN</DistanceMeters>
          </Trackpoint>
          <Trackpoint>
            <Time>2020-02-15T12:09:36.000Z</Time>
            <Position>
              <LatitudeDegrees>41.99232478626072406768798828125</LatitudeDegrees>
              <LongitudeDegrees>2.8429690562188625335693359375</LongitudeDegrees>
            </Position>
            <AltitudeMeters>110.40000152587890625</AltitudeMeters>
            <DistanceMeters>NAN</DistanceMeters>
          </Trackpoint>
          <Trackpoint>
            <Time>2020-02-15T12:09:37.000Z</Time>
            <Position>
              <LatitudeDegrees>41.992363594472408294677734375</LatitudeDegrees>
              <LongitudeDegrees>2.8430153243243694305419921875</LongitudeDegrees>
            </Position>
            <AltitudeMeters>110.40000152587890625</AltitudeMeters>
            <DistanceMeters>NAN</DistanceMeters>
          </Trackpoint>
          <Trackpoint>
            <Time>2020-02-15T12:09:38.000Z</Time>
            <Position>
              <LatitudeDegrees>41.9924003072082996368408203125</LatitudeDegrees>
              <LongitudeDegrees>2.8430649451911449432373046875</LongitudeDegrees>
            </Position>
            <AltitudeMeters>110.40000152587890625</AltitudeMeters>
            <DistanceMeters>NAN</DistanceMeters>
          </Trackpoint>
          <Trackpoint>
            <Time>2020-02-15T12:09:39.000Z</Time>
            <Position>
              <LatitudeDegrees>41.9924338348209857940673828125</LatitudeDegrees>
              <LongitudeDegrees>2.84312420524656772613525390625</LongitudeDegrees>
            </Position>
            <AltitudeMeters>110.40000152587890625</AltitudeMeters>
            <DistanceMeters>NAN</DistanceMeters>
          </Trackpoint>
          <Trackpoint>
            <Time>2020-02-15T12:09:40.000Z</Time>
            <Position>
              <LatitudeDegrees>41.99246677570044994354248046875</LatitudeDegrees>
              <LongitudeDegrees>2.8431946970522403717041015625</LongitudeDegrees>
            </Position>
            <AltitudeMeters>110.40000152587890625</AltitudeMeters>
            <DistanceMeters>NAN</DistanceMeters>
          </Trackpoint>
          <Trackpoint>
            <Time>2020-02-15T12:09:41.000Z</Time>
            <Position>
              <LatitudeDegrees>41.9924961961805820465087890625</LatitudeDegrees>
              <LongitudeDegrees>2.843271307647228240966796875</LongitudeDegrees>
            </Position>
            <AltitudeMeters>110.40000152587890625</AltitudeMeters>
            <DistanceMeters>NAN</DistanceMeters>
          </Trackpoint>
          <Trackpoint>
            <Time>2020-02-15T12:09:42.000Z</Time>
            <Position>
              <LatitudeDegrees>41.99251723475754261016845703125</LatitudeDegrees>
              <LongitudeDegrees>2.84335286356508731842041015625</LongitudeDegrees>
            </Position>
            <AltitudeMeters>110.59999847412109375</AltitudeMeters>
            <DistanceMeters>NAN</DistanceMeters>
          </Trackpoint>
          <Trackpoint>
            <Time>2020-02-15T12:09:43.000Z</Time>
            <Position>
              <LatitudeDegrees>41.9925303943455219268798828125</LatitudeDegrees>
              <LongitudeDegrees>2.84344238229095935821533203125</LongitudeDegrees>
            </Position>
            <AltitudeMeters>110.59999847412109375</AltitudeMeters>
            <DistanceMeters>NAN</DistanceMeters>
          </Trackpoint>
          <Trackpoint>
            <Time>2020-02-15T12:09:44.000Z</Time>
            <Position>
              <LatitudeDegrees>41.99253718368709087371826171875</LatitudeDegrees>
              <LongitudeDegrees>2.8435289673507213592529296875</LongitudeDegrees>
            </Position>
            <AltitudeMeters>110.59999847412109375</AltitudeMeters>
            <DistanceMeters>NAN</DistanceMeters>
          </Trackpoint>
          <Trackpoint>
            <Time>2020-02-15T12:09:45.000Z</Time>
            <Position>
              <LatitudeDegrees>41.9925481639802455902099609375</LatitudeDegrees>
              <LongitudeDegrees>2.8436104394495487213134765625</LongitudeDegrees>
            </Position>
            <AltitudeMeters>110.59999847412109375</AltitudeMeters>
            <DistanceMeters>NAN</DistanceMeters>
          </Trackpoint>
          <Trackpoint>
            <Time>2020-02-15T12:09:46.000Z</Time>
            <Position>
              <LatitudeDegrees>41.992564089596271514892578125</LatitudeDegrees>
              <LongitudeDegrees>2.84368964843451976776123046875</LongitudeDegrees>
            </Position>
            <AltitudeMeters>110.1999969482421875</AltitudeMeters>
            <DistanceMeters>NAN</DistanceMeters>
          </Trackpoint>
          <Trackpoint>
            <Time>2020-02-15T12:09:47.000Z</Time>
            <Position>
              <LatitudeDegrees>41.99258177541196346282958984375</LatitudeDegrees>
              <LongitudeDegrees>2.84375586546957492828369140625</LongitudeDegrees>
            </Position>
            <AltitudeMeters>110</AltitudeMeters>
            <DistanceMeters>NAN</DistanceMeters>
          </Trackpoint>
          <Trackpoint>
            <Time>2020-02-15T12:09:48.000Z</Time>
            <Position>
              <LatitudeDegrees>41.9926054961979389190673828125</LatitudeDegrees>
              <LongitudeDegrees>2.8438092581927776336669921875</LongitudeDegrees>
            </Position>
            <AltitudeMeters>109.8000030517578125</AltitudeMeters>
            <DistanceMeters>NAN</DistanceMeters>
          </Trackpoint>
          <Trackpoint>
            <Time>2020-02-15T12:09:49.000Z</Time>
            <Position>
              <LatitudeDegrees>41.99263407848775386810302734375</LatitudeDegrees>
              <LongitudeDegrees>2.843854688107967376708984375</LongitudeDegrees>
            </Position>
            <AltitudeMeters>109.8000030517578125</AltitudeMeters>
            <DistanceMeters>NAN</DistanceMeters>
          </Trackpoint>
          <Trackpoint>
            <Time>2020-02-15T12:09:50.000Z</Time>
            <Position>
              <LatitudeDegrees>41.99266592971980571746826171875</LatitudeDegrees>
              <LongitudeDegrees>2.84389450214803218841552734375</LongitudeDegrees>
            </Position>
            <AltitudeMeters>109.8000030517578125</AltitudeMeters>
            <DistanceMeters>NAN</DistanceMeters>
          </Trackpoint>
          <Trackpoint>
            <Time>2020-02-15T12:09:51.000Z</Time>
            <Position>
              <LatitudeDegrees>41.9926990382373332977294921875</LatitudeDegrees>
              <LongitudeDegrees>2.84392702393233776092529296875</LongitudeDegrees>
            </Position>
            <AltitudeMeters>109.59999847412109375</AltitudeMeters>
            <DistanceMeters>NAN</DistanceMeters>
          </Trackpoint>
          <Trackpoint>
            <Time>2020-02-15T12:09:52.000Z</Time>
            <Position>
              <LatitudeDegrees>41.99273181147873401641845703125</LatitudeDegrees>
              <LongitudeDegrees>2.84394730813801288604736328125</LongitudeDegrees>
            </Position>
            <AltitudeMeters>109.59999847412109375</AltitudeMeters>
            <DistanceMeters>NAN</DistanceMeters>
          </Trackpoint>
          <Trackpoint>
            <Time>2020-02-15T12:09:53.000Z</Time>
            <Position>
              <LatitudeDegrees>41.992768943309783935546875</LatitudeDegrees>
              <LongitudeDegrees>2.843966670334339141845703125</LongitudeDegrees>
            </Position>
            <AltitudeMeters>109.59999847412109375</AltitudeMeters>
            <DistanceMeters>NAN</DistanceMeters>
          </Trackpoint>
          <Trackpoint>
            <Time>2020-02-15T12:09:54.000Z</Time>
            <Position>
              <LatitudeDegrees>41.99280842207372188568115234375</LatitudeDegrees>
              <LongitudeDegrees>2.843985445797443389892578125</LongitudeDegrees>
            </Position>
            <AltitudeMeters>109.59999847412109375</AltitudeMeters>
            <DistanceMeters>NAN</DistanceMeters>
          </Trackpoint>
          <Trackpoint>
            <Time>2020-02-15T12:09:55.000Z</Time>
            <Position>
              <LatitudeDegrees>41.992851756513118743896484375</LatitudeDegrees>
              <LongitudeDegrees>2.84400078468024730682373046875</LongitudeDegrees>
            </Position>
            <AltitudeMeters>109.59999847412109375</AltitudeMeters>
            <DistanceMeters>NAN</DistanceMeters>
          </Trackpoint>
          <Trackpoint>
            <Time>2020-02-15T12:09:56.000Z</Time>
            <Position>
              <LatitudeDegrees>41.99289727024734020233154296875</LatitudeDegrees>
              <LongitudeDegrees>2.8440141119062900543212890625</LongitudeDegrees>
            </Position>
            <AltitudeMeters>109.59999847412109375</AltitudeMeters>
            <DistanceMeters>NAN</DistanceMeters>
          </Trackpoint>
          <Trackpoint>
            <Time>2020-02-15T12:09:57.000Z</Time>
            <Position>
              <LatitudeDegrees>41.99294705875217914581298828125</LatitudeDegrees>
              <LongitudeDegrees>2.8440245054662227630615234375</LongitudeDegrees>
            </Position>
            <AltitudeMeters>109.8000030517578125</AltitudeMeters>
            <DistanceMeters>NAN</DistanceMeters>
          </Trackpoint>
          <Trackpoint>
            <Time>2020-02-15T12:09:59.000Z</Time>
            <Position>
              <LatitudeDegrees>41.99304630048573017120361328125</LatitudeDegrees>
              <LongitudeDegrees>2.84404051490128040313720703125</LongitudeDegrees>
            </Position>
            <AltitudeMeters>110.1999969482421875</AltitudeMeters>
            <DistanceMeters>NAN</DistanceMeters>
          </Trackpoint>
          <Trackpoint>
            <Time>2020-02-15T12:10:00.000Z</Time>
            <Position>
              <LatitudeDegrees>41.99309307150542736053466796875</LatitudeDegrees>
              <LongitudeDegrees>2.8440469689667224884033203125</LongitudeDegrees>
            </Position>
            <AltitudeMeters>110.1999969482421875</AltitudeMeters>
            <DistanceMeters>NAN</DistanceMeters>
          </Trackpoint>
          <Trackpoint>
            <Time>2020-02-15T12:10:01.000Z</Time>
            <Position>
              <LatitudeDegrees>41.99313699267804622650146484375</LatitudeDegrees>
              <LongitudeDegrees>2.84405375830829143524169921875</LongitudeDegrees>
            </Position>
            <AltitudeMeters>110.40000152587890625</AltitudeMeters>
            <DistanceMeters>NAN</DistanceMeters>
          </Trackpoint>
          <Trackpoint>
            <Time>2020-02-15T12:10:02.000Z</Time>
            <Position>
              <LatitudeDegrees>41.99317999184131622314453125</LatitudeDegrees>
              <LongitudeDegrees>2.84406666643917560577392578125</LongitudeDegrees>
            </Position>
            <AltitudeMeters>110.40000152587890625</AltitudeMeters>
            <DistanceMeters>NAN</DistanceMeters>
          </Trackpoint>
          <Trackpoint>
            <Time>2020-02-15T12:10:03.000Z</Time>
            <Position>
              <LatitudeDegrees>41.9932182133197784423828125</LatitudeDegrees>
              <LongitudeDegrees>2.8440888784825801849365234375</LongitudeDegrees>
            </Position>
            <AltitudeMeters>110.59999847412109375</AltitudeMeters>
            <DistanceMeters>NAN</DistanceMeters>
          </Trackpoint>
          <Trackpoint>
            <Time>2020-02-15T12:10:04.000Z</Time>
            <Position>
              <LatitudeDegrees>41.99324964545667171478271484375</LatitudeDegrees>
              <LongitudeDegrees>2.844110168516635894775390625</LongitudeDegrees>
            </Position>
            <AltitudeMeters>110.59999847412109375</AltitudeMeters>
            <DistanceMeters>NAN</DistanceMeters>
          </Trackpoint>
          <Trackpoint>
            <Time>2020-02-15T12:10:05.000Z</Time>
            <Position>
              <LatitudeDegrees>41.99328669346868991851806640625</LatitudeDegrees>
              <LongitudeDegrees>2.8441299498081207275390625</LongitudeDegrees>
            </Position>
            <AltitudeMeters>110.59999847412109375</AltitudeMeters>
            <DistanceMeters>NAN</DistanceMeters>
          </Trackpoint>
          <Trackpoint>
            <Time>2020-02-15T12:10:06.000Z</Time>
            <Position>
              <LatitudeDegrees>41.99332675896584987640380859375</LatitudeDegrees>
              <LongitudeDegrees>2.844148389995098114013671875</LongitudeDegrees>
            </Position>
            <AltitudeMeters>110.8000030517578125</AltitudeMeters>
            <DistanceMeters>NAN</DistanceMeters>
          </Trackpoint>
          <Trackpoint>
            <Time>2020-02-15T12:10:07.000Z</Time>
            <Position>
              <LatitudeDegrees>41.9933672435581684112548828125</LatitudeDegrees>
              <LongitudeDegrees>2.84416808746755123138427734375</LongitudeDegrees>
            </Position>
            <AltitudeMeters>110.8000030517578125</AltitudeMeters>
            <DistanceMeters>NAN</DistanceMeters>
          </Trackpoint>
          <Trackpoint>
            <Time>2020-02-15T12:10:08.000Z</Time>
            <Position>
              <LatitudeDegrees>41.99340823106467723846435546875</LatitudeDegrees>
              <LongitudeDegrees>2.8441864438354969024658203125</LongitudeDegrees>
            </Position>
            <AltitudeMeters>110.8000030517578125</AltitudeMeters>
            <DistanceMeters>NAN</DistanceMeters>
          </Trackpoint>
          <Trackpoint>
            <Time>2020-02-15T12:10:09.000Z</Time>
            <Position>
              <LatitudeDegrees>41.99345198459923267364501953125</LatitudeDegrees>
              <LongitudeDegrees>2.84419876523315906524658203125</LongitudeDegrees>
            </Position>
            <AltitudeMeters>111</AltitudeMeters>
            <DistanceMeters>NAN</DistanceMeters>
          </Trackpoint>
          <Trackpoint>
            <Time>2020-02-15T12:10:10.000Z</Time>
            <Position>
              <LatitudeDegrees>41.99349305592477321624755859375</LatitudeDegrees>
              <LongitudeDegrees>2.84420681186020374298095703125</LongitudeDegrees>
            </Position>
            <AltitudeMeters>111</AltitudeMeters>
            <DistanceMeters>NAN</DistanceMeters>
          </Trackpoint>
          <Trackpoint>
            <Time>2020-02-15T12:10:11.000Z</Time>
            <Position>
              <LatitudeDegrees>41.99353136122226715087890625</LatitudeDegrees>
              <LongitudeDegrees>2.844218127429485321044921875</LongitudeDegrees>
            </Position>
            <AltitudeMeters>111</AltitudeMeters>
            <DistanceMeters>NAN</DistanceMeters>
          </Trackpoint>
          <Trackpoint>
            <Time>2020-02-15T12:10:12.000Z</Time>
            <Position>
              <LatitudeDegrees>41.99357402510941028594970703125</LatitudeDegrees>
              <LongitudeDegrees>2.8442265093326568603515625</LongitudeDegrees>
            </Position>
            <AltitudeMeters>111.1999969482421875</AltitudeMeters>
            <DistanceMeters>NAN</DistanceMeters>
          </Trackpoint>
          <Trackpoint>
            <Time>2020-02-15T12:10:13.000Z</Time>
            <Position>
              <LatitudeDegrees>41.99362062849104404449462890625</LatitudeDegrees>
              <LongitudeDegrees>2.844236232340335845947265625</LongitudeDegrees>
            </Position>
            <AltitudeMeters>111.1999969482421875</AltitudeMeters>
            <DistanceMeters>NAN</DistanceMeters>
          </Trackpoint>
          <Trackpoint>
            <Time>2020-02-15T12:10:15.000Z</Time>
            <Position>
              <LatitudeDegrees>41.9937010109424591064453125</LatitudeDegrees>
              <LongitudeDegrees>2.84424235112965106964111328125</LongitudeDegrees>
            </Position>
            <AltitudeMeters>111.40000152587890625</AltitudeMeters>
            <DistanceMeters>NAN</DistanceMeters>
          </Trackpoint>
          <Trackpoint>
            <Time>2020-02-15T12:10:16.000Z</Time>
            <Position>
              <LatitudeDegrees>41.9937380589544773101806640625</LatitudeDegrees>
              <LongitudeDegrees>2.8442441113293170928955078125</LongitudeDegrees>
            </Position>
            <AltitudeMeters>111.59999847412109375</AltitudeMeters>
            <DistanceMeters>NAN</DistanceMeters>
          </Trackpoint>
          <Trackpoint>
            <Time>2020-02-15T12:10:17.000Z</Time>
            <Position>
              <LatitudeDegrees>41.9937769509851932525634765625</LatitudeDegrees>
              <LongitudeDegrees>2.8442488051950931549072265625</LongitudeDegrees>
            </Position>
            <AltitudeMeters>111.59999847412109375</AltitudeMeters>
            <DistanceMeters>NAN</DistanceMeters>
          </Trackpoint>
          <Trackpoint>
            <Time>2020-02-15T12:10:18.000Z</Time>
            <Position>
              <LatitudeDegrees>41.9938171841204166412353515625</LatitudeDegrees>
              <LongitudeDegrees>2.8442533314228057861328125</LongitudeDegrees>
            </Position>
            <AltitudeMeters>111.8000030517578125</AltitudeMeters>
            <DistanceMeters>NAN</DistanceMeters>
          </Trackpoint>
          <Trackpoint>
            <Time>2020-02-15T12:10:20.000Z</Time>
            <Position>
              <LatitudeDegrees>41.99389756657183170318603515625</LatitudeDegrees>
              <LongitudeDegrees>2.844258360564708709716796875</LongitudeDegrees>
            </Position>
            <AltitudeMeters>111.8000030517578125</AltitudeMeters>
            <DistanceMeters>NAN</DistanceMeters>
          </Trackpoint>
          <Trackpoint>
            <Time>2020-02-15T12:10:21.000Z</Time>
            <Position>
              <LatitudeDegrees>41.993934698402881622314453125</LatitudeDegrees>
              <LongitudeDegrees>2.84426682628691196441650390625</LongitudeDegrees>
            </Position>
            <AltitudeMeters>112</AltitudeMeters>
            <DistanceMeters>NAN</DistanceMeters>
          </Trackpoint>
          <Trackpoint>
            <Time>2020-02-15T12:10:22.000Z</Time>
            <Position>
              <LatitudeDegrees>41.9939680583775043487548828125</LatitudeDegrees>
              <LongitudeDegrees>2.844281494617462158203125</LongitudeDegrees>
            </Position>
            <AltitudeMeters>111.8000030517578125</AltitudeMeters>
            <DistanceMeters>NAN</DistanceMeters>
          </Trackpoint>
          <Trackpoint>
            <Time>2020-02-15T12:10:23.000Z</Time>
            <Position>
              <LatitudeDegrees>41.99400074779987335205078125</LatitudeDegrees>
              <LongitudeDegrees>2.8443047963082790374755859375</LongitudeDegrees>
            </Position>
            <AltitudeMeters>111.8000030517578125</AltitudeMeters>
            <DistanceMeters>NAN</DistanceMeters>
          </Trackpoint>
          <Trackpoint>
            <Time>2020-02-15T12:10:24.000Z</Time>
            <Position>
              <LatitudeDegrees>41.99402765370905399322509765625</LatitudeDegrees>
              <LongitudeDegrees>2.8443349711596965789794921875</LongitudeDegrees>
            </Position>
            <AltitudeMeters>112</AltitudeMeters>
            <DistanceMeters>NAN</DistanceMeters>
          </Trackpoint>
          <Trackpoint>
            <Time>2020-02-15T12:10:25.000Z</Time>
            <Position>
              <LatitudeDegrees>41.99404927901923656463623046875</LatitudeDegrees>
              <LongitudeDegrees>2.84436925314366817474365234375</LongitudeDegrees>
            </Position>
            <AltitudeMeters>112</AltitudeMeters>
            <DistanceMeters>NAN</DistanceMeters>
          </Trackpoint>
          <Trackpoint>
            <Time>2020-02-15T12:10:26.000Z</Time>
            <Position>
              <LatitudeDegrees>41.99406956322491168975830078125</LatitudeDegrees>
              <LongitudeDegrees>2.844406552612781524658203125</LongitudeDegrees>
            </Position>
            <AltitudeMeters>112</AltitudeMeters>
            <DistanceMeters>NAN</DistanceMeters>
          </Trackpoint>
          <Trackpoint>
            <Time>2020-02-15T12:10:27.000Z</Time>
            <Position>
              <LatitudeDegrees>41.9940887577831745147705078125</LatitudeDegrees>
              <LongitudeDegrees>2.84445055760443210601806640625</LongitudeDegrees>
            </Position>
            <AltitudeMeters>112</AltitudeMeters>
            <DistanceMeters>NAN</DistanceMeters>
          </Trackpoint>
          <Trackpoint>
            <Time>2020-02-15T12:10:28.000Z</Time>
            <Position>
              <LatitudeDegrees>41.99410644359886646270751953125</LatitudeDegrees>
              <LongitudeDegrees>2.84449682570993900299072265625</LongitudeDegrees>
            </Position>
            <AltitudeMeters>112.1999969482421875</AltitudeMeters>
            <DistanceMeters>NAN</DistanceMeters>
          </Trackpoint>
          <Trackpoint>
            <Time>2020-02-15T12:10:29.000Z</Time>
            <Position>
              <LatitudeDegrees>41.99412840418517589569091796875</LatitudeDegrees>
              <LongitudeDegrees>2.8445441834628582000732421875</LongitudeDegrees>
            </Position>
            <AltitudeMeters>112</AltitudeMeters>
            <DistanceMeters>NAN</DistanceMeters>
          </Trackpoint>
          <Trackpoint>
            <Time>2020-02-15T12:10:30.000Z</Time>
            <Position>
              <LatitudeDegrees>41.99415438808500766754150390625</LatitudeDegrees>
              <LongitudeDegrees>2.84459103830158710479736328125</LongitudeDegrees>
            </Position>
            <AltitudeMeters>112.1999969482421875</AltitudeMeters>
            <DistanceMeters>NAN</DistanceMeters>
          </Trackpoint>
          <Trackpoint>
            <Time>2020-02-15T12:10:31.000Z</Time>
            <Position>
              <LatitudeDegrees>41.9941856525838375091552734375</LatitudeDegrees>
              <LongitudeDegrees>2.8446363843977451324462890625</LongitudeDegrees>
            </Position>
            <AltitudeMeters>112.40000152587890625</AltitudeMeters>
            <DistanceMeters>NAN</DistanceMeters>
          </Trackpoint>
          <Trackpoint>
            <Time>2020-02-15T12:10:33.000Z</Time>
            <Position>
              <LatitudeDegrees>41.99424080550670623779296875</LatitudeDegrees>
              <LongitudeDegrees>2.84471936523914337158203125</LongitudeDegrees>
            </Position>
            <AltitudeMeters>112.59999847412109375</AltitudeMeters>
            <DistanceMeters>NAN</DistanceMeters>
          </Trackpoint>
          <Trackpoint>
            <Time>2020-02-15T12:10:34.000Z</Time>
            <Position>
              <LatitudeDegrees>41.99426754377782344818115234375</LatitudeDegrees>
              <LongitudeDegrees>2.84476102329790592193603515625</LongitudeDegrees>
            </Position>
            <AltitudeMeters>112.40000152587890625</AltitudeMeters>
            <DistanceMeters>NAN</DistanceMeters>
          </Trackpoint>
          <Trackpoint>
            <Time>2020-02-15T12:10:35.000Z</Time>
            <Position>
              <LatitudeDegrees>41.99429688043892383575439453125</LatitudeDegrees>
              <LongitudeDegrees>2.844801843166351318359375</LongitudeDegrees>
            </Position>
            <AltitudeMeters>112.40000152587890625</AltitudeMeters>
            <DistanceMeters>NAN</DistanceMeters>
          </Trackpoint>
          <Trackpoint>
            <Time>2020-02-15T12:10:36.000Z</Time>
            <Position>
              <LatitudeDegrees>41.9943221099674701690673828125</LatitudeDegrees>
              <LongitudeDegrees>2.8448412381112575531005859375</LongitudeDegrees>
            </Position>
            <AltitudeMeters>112.59999847412109375</AltitudeMeters>
            <DistanceMeters>NAN</DistanceMeters>
          </Trackpoint>
          <Trackpoint>
            <Time>2020-02-15T12:10:37.000Z</Time>
            <Position>
              <LatitudeDegrees>41.9943506084382534027099609375</LatitudeDegrees>
              <LongitudeDegrees>2.84488574601709842681884765625</LongitudeDegrees>
            </Position>
            <AltitudeMeters>112.59999847412109375</AltitudeMeters>
            <DistanceMeters>NAN</DistanceMeters>
          </Trackpoint>
          <Trackpoint>
            <Time>2020-02-15T12:10:38.000Z</Time>
            <Position>
              <LatitudeDegrees>41.9943754188716411590576171875</LatitudeDegrees>
              <LongitudeDegrees>2.8449300862848758697509765625</LongitudeDegrees>
            </Position>
            <AltitudeMeters>112.8000030517578125</AltitudeMeters>
            <DistanceMeters>NAN</DistanceMeters>
          </Trackpoint>
          <Trackpoint>
            <Time>2020-02-15T12:10:39.000Z</Time>
            <Position>
              <LatitudeDegrees>41.99439612217247486114501953125</LatitudeDegrees>
              <LongitudeDegrees>2.84496772103011608123779296875</LongitudeDegrees>
            </Position>
            <AltitudeMeters>112.8000030517578125</AltitudeMeters>
            <DistanceMeters>NAN</DistanceMeters>
          </Trackpoint>
          <Trackpoint>
            <Time>2020-02-15T12:10:40.000Z</Time>
            <Position>
              <LatitudeDegrees>41.9944106228649616241455078125</LatitudeDegrees>
              <LongitudeDegrees>2.84499906934797763824462890625</LongitudeDegrees>
            </Position>
            <AltitudeMeters>113</AltitudeMeters>
            <DistanceMeters>NAN</DistanceMeters>
          </Trackpoint>
          <Trackpoint>
            <Time>2020-02-15T12:10:41.000Z</Time>
            <Position>
              <LatitudeDegrees>41.99442051351070404052734375</LatitudeDegrees>
              <LongitudeDegrees>2.8450353629887104034423828125</LongitudeDegrees>
            </Position>
            <AltitudeMeters>113.1999969482421875</AltitudeMeters>
            <DistanceMeters>NAN</DistanceMeters>
          </Trackpoint>
          <Trackpoint>
            <Time>2020-02-15T12:10:42.000Z</Time>
            <Position>
              <LatitudeDegrees>41.9944304041564464569091796875</LatitudeDegrees>
              <LongitudeDegrees>2.84507073462009429931640625</LongitudeDegrees>
            </Position>
            <AltitudeMeters>113.1999969482421875</AltitudeMeters>
            <DistanceMeters>NAN</DistanceMeters>
          </Trackpoint>
          <Trackpoint>
            <Time>2020-02-15T12:10:43.000Z</Time>
            <Position>
              <LatitudeDegrees>41.994443647563457489013671875</LatitudeDegrees>
              <LongitudeDegrees>2.84510535188019275665283203125</LongitudeDegrees>
            </Position>
            <AltitudeMeters>113.40000152587890625</AltitudeMeters>
            <DistanceMeters>NAN</DistanceMeters>
          </Trackpoint>
          <Trackpoint>
            <Time>2020-02-15T12:10:44.000Z</Time>
            <Position>
              <LatitudeDegrees>41.99445948936045169830322265625</LatitudeDegrees>
              <LongitudeDegrees>2.84513720311224460601806640625</LongitudeDegrees>
            </Position>
            <AltitudeMeters>113.59999847412109375</AltitudeMeters>
            <DistanceMeters>NAN</DistanceMeters>
          </Trackpoint>
          <Trackpoint>
            <Time>2020-02-15T12:10:45.000Z</Time>
            <Position>
              <LatitudeDegrees>41.994478516280651092529296875</LatitudeDegrees>
              <LongitudeDegrees>2.845162265002727508544921875</LongitudeDegrees>
            </Position>
            <AltitudeMeters>113.59999847412109375</AltitudeMeters>
            <DistanceMeters>NAN</DistanceMeters>
          </Trackpoint>
          <Trackpoint>
            <Time>2020-02-15T12:10:46.000Z</Time>
            <Position>
              <LatitudeDegrees>41.9945001415908336639404296875</LatitudeDegrees>
              <LongitudeDegrees>2.84518196247518062591552734375</LongitudeDegrees>
            </Position>
            <AltitudeMeters>113.59999847412109375</AltitudeMeters>
            <DistanceMeters>NAN</DistanceMeters>
          </Trackpoint>
          <Trackpoint>
            <Time>2020-02-15T12:10:47.000Z</Time>
            <Position>
              <LatitudeDegrees>41.9945256225764751434326171875</LatitudeDegrees>
              <LongitudeDegrees>2.84520342014729976654052734375</LongitudeDegrees>
            </Position>
            <AltitudeMeters>113.59999847412109375</AltitudeMeters>
            <DistanceMeters>NAN</DistanceMeters>
          </Trackpoint>
          <Trackpoint>
            <Time>2020-02-15T12:10:48.000Z</Time>
            <Position>
              <LatitudeDegrees>41.99455169029533863067626953125</LatitudeDegrees>
              <LongitudeDegrees>2.84522403962910175323486328125</LongitudeDegrees>
            </Position>
            <AltitudeMeters>113.8000030517578125</AltitudeMeters>
            <DistanceMeters>NAN</DistanceMeters>
          </Trackpoint>
          <Trackpoint>
            <Time>2020-02-15T12:10:49.000Z</Time>
            <Position>
              <LatitudeDegrees>41.9945789314806461334228515625</LatitudeDegrees>
              <LongitudeDegrees>2.84524373710155487060546875</LongitudeDegrees>
            </Position>
            <AltitudeMeters>114.1999969482421875</AltitudeMeters>
            <DistanceMeters>NAN</DistanceMeters>
          </Trackpoint>
          <Trackpoint>
            <Time>2020-02-15T12:10:50.000Z</Time>
            <Position>
              <LatitudeDegrees>41.99460667558014392852783203125</LatitudeDegrees>
              <LongitudeDegrees>2.8452645242214202880859375</LongitudeDegrees>
            </Position>
            <AltitudeMeters>114.40000152587890625</AltitudeMeters>
            <DistanceMeters>NAN</DistanceMeters>
          </Trackpoint>
          <Trackpoint>
            <Time>2020-02-15T12:10:51.000Z</Time>
            <Position>
              <LatitudeDegrees>41.99463509023189544677734375</LatitudeDegrees>
              <LongitudeDegrees>2.84528522752225399017333984375</LongitudeDegrees>
            </Position>
            <AltitudeMeters>114.8000030517578125</AltitudeMeters>
            <DistanceMeters>NAN</DistanceMeters>
          </Trackpoint>
          <Trackpoint>
            <Time>2020-02-15T12:10:52.000Z</Time>
            <Position>
              <LatitudeDegrees>41.9946639239788055419921875</LatitudeDegrees>
              <LongitudeDegrees>2.84530350007116794586181640625</LongitudeDegrees>
            </Position>
            <AltitudeMeters>115</AltitudeMeters>
            <DistanceMeters>NAN</DistanceMeters>
          </Trackpoint>
          <Trackpoint>
            <Time>2020-02-15T12:10:53.000Z</Time>
            <Position>
              <LatitudeDegrees>41.99469300918281078338623046875</LatitudeDegrees>
              <LongitudeDegrees>2.8453200124204158782958984375</LongitudeDegrees>
            </Position>
            <AltitudeMeters>115.1999969482421875</AltitudeMeters>
            <DistanceMeters>NAN</DistanceMeters>
          </Trackpoint>
          <Trackpoint>
            <Time>2020-02-15T12:10:54.000Z</Time>
            <Position>
              <LatitudeDegrees>41.99471957981586456298828125</LatitudeDegrees>
              <LongitudeDegrees>2.84533434547483921051025390625</LongitudeDegrees>
            </Position>
            <AltitudeMeters>115.59999847412109375</AltitudeMeters>
            <DistanceMeters>NAN</DistanceMeters>
          </Trackpoint>
          <Trackpoint>
            <Time>2020-02-15T12:10:55.000Z</Time>
            <Position>
              <LatitudeDegrees>41.99474916793406009674072265625</LatitudeDegrees>
              <LongitudeDegrees>2.84535295329988002777099609375</LongitudeDegrees>
            </Position>
            <AltitudeMeters>116</AltitudeMeters>
            <DistanceMeters>NAN</DistanceMeters>
          </Trackpoint>
          <Trackpoint>
            <Time>2020-02-15T12:10:56.000Z</Time>
            <Position>
              <LatitudeDegrees>41.9947784207761287689208984375</LatitudeDegrees>
              <LongitudeDegrees>2.845372818410396575927734375</LongitudeDegrees>
            </Position>
            <AltitudeMeters>116.40000152587890625</AltitudeMeters>
            <DistanceMeters>NAN</DistanceMeters>
          </Trackpoint>
          <Trackpoint>
            <Time>2020-02-15T12:10:57.000Z</Time>
            <Position>
              <LatitudeDegrees>41.99480733834207057952880859375</LatitudeDegrees>
              <LongitudeDegrees>2.84539033658802509307861328125</LongitudeDegrees>
            </Position>
            <AltitudeMeters>116.8000030517578125</AltitudeMeters>
            <DistanceMeters>NAN</DistanceMeters>
          </Trackpoint>
          <Trackpoint>
            <Time>2020-02-15T12:10:58.000Z</Time>
            <Position>
              <LatitudeDegrees>41.99483382515609264373779296875</LatitudeDegrees>
              <LongitudeDegrees>2.84540927968919277191162109375</LongitudeDegrees>
            </Position>
            <AltitudeMeters>117</AltitudeMeters>
            <DistanceMeters>NAN</DistanceMeters>
          </Trackpoint>
          <Trackpoint>
            <Time>2020-02-15T12:10:59.000Z</Time>
            <Position>
              <LatitudeDegrees>41.99486081488430500030517578125</LatitudeDegrees>
              <LongitudeDegrees>2.84542771987617015838623046875</LongitudeDegrees>
            </Position>
            <AltitudeMeters>117.1999969482421875</AltitudeMeters>
            <DistanceMeters>NAN</DistanceMeters>
          </Trackpoint>
          <Trackpoint>
            <Time>2020-02-15T12:11:00.000Z</Time>
            <Position>
              <LatitudeDegrees>41.9948857091367244720458984375</LatitudeDegrees>
              <LongitudeDegrees>2.845444567501544952392578125</LongitudeDegrees>
            </Position>
            <AltitudeMeters>117.40000152587890625</AltitudeMeters>
            <DistanceMeters>NAN</DistanceMeters>
          </Trackpoint>
          <Trackpoint>
            <Time>2020-02-15T12:11:01.000Z</Time>
            <Position>
              <LatitudeDegrees>41.9949066638946533203125</LatitudeDegrees>
              <LongitudeDegrees>2.84545965492725372314453125</LongitudeDegrees>
            </Position>
            <AltitudeMeters>117.40000152587890625</AltitudeMeters>
            <DistanceMeters>NAN</DistanceMeters>
          </Trackpoint>
          <Trackpoint>
            <Time>2020-02-15T12:11:02.000Z</Time>
            <Position>
              <LatitudeDegrees>41.994929127395153045654296875</LatitudeDegrees>
              <LongitudeDegrees>2.8454749099910259246826171875</LongitudeDegrees>
            </Position>
            <AltitudeMeters>117.8000030517578125</AltitudeMeters>
            <DistanceMeters>NAN</DistanceMeters>
          </Trackpoint>
          <Trackpoint>
            <Time>2020-02-15T12:11:03.000Z</Time>
            <Position>
              <LatitudeDegrees>41.99495150707662105560302734375</LatitudeDegrees>
              <LongitudeDegrees>2.84549125470221042633056640625</LongitudeDegrees>
            </Position>
            <AltitudeMeters>118</AltitudeMeters>
            <DistanceMeters>NAN</DistanceMeters>
          </Trackpoint>
          <Trackpoint>
            <Time>2020-02-15T12:11:04.000Z</Time>
            <Position>
              <LatitudeDegrees>41.99497715570032596588134765625</LatitudeDegrees>
              <LongitudeDegrees>2.84551732242107391357421875</LongitudeDegrees>
            </Position>
            <AltitudeMeters>118.1999969482421875</AltitudeMeters>
            <DistanceMeters>NAN</DistanceMeters>
          </Trackpoint>
          <Trackpoint>
            <Time>2020-02-15T12:11:05.000Z</Time>
            <Position>
              <LatitudeDegrees>41.9949992001056671142578125</LatitudeDegrees>
              <LongitudeDegrees>2.84554255194962024688720703125</LongitudeDegrees>
            </Position>
            <AltitudeMeters>118.40000152587890625</AltitudeMeters>
            <DistanceMeters>NAN</DistanceMeters>
          </Trackpoint>
          <Trackpoint>
            <Time>2020-02-15T12:11:06.000Z</Time>
            <Position>
              <LatitudeDegrees>41.9950164668262004852294921875</LatitudeDegrees>
              <LongitudeDegrees>2.84557105042040348052978515625</LongitudeDegrees>
            </Position>
            <AltitudeMeters>118.40000152587890625</AltitudeMeters>
            <DistanceMeters>NAN</DistanceMeters>
          </Trackpoint>
          <Trackpoint>
            <Time>2020-02-15T12:11:07.000Z</Time>
            <Position>
              <LatitudeDegrees>41.99503096751868724822998046875</LatitudeDegrees>
              <LongitudeDegrees>2.84560424275696277618408203125</LongitudeDegrees>
            </Position>
            <AltitudeMeters>118.8000030517578125</AltitudeMeters>
            <DistanceMeters>NAN</DistanceMeters>
          </Trackpoint>
          <Trackpoint>
            <Time>2020-02-15T12:11:08.000Z</Time>
            <Position>
              <LatitudeDegrees>41.995047144591808319091796875</LatitudeDegrees>
              <LongitudeDegrees>2.845637686550617218017578125</LongitudeDegrees>
            </Position>
            <AltitudeMeters>118.8000030517578125</AltitudeMeters>
            <DistanceMeters>NAN</DistanceMeters>
          </Trackpoint>
          <Trackpoint>
            <Time>2020-02-15T12:11:09.000Z</Time>
            <Position>
              <LatitudeDegrees>41.9950654171407222747802734375</LatitudeDegrees>
              <LongitudeDegrees>2.8456747345626354217529296875</LongitudeDegrees>
            </Position>
            <AltitudeMeters>119</AltitudeMeters>
            <DistanceMeters>NAN</DistanceMeters>
          </Trackpoint>
          <Trackpoint>
            <Time>2020-02-15T12:11:10.000Z</Time>
            <Position>
              <LatitudeDegrees>41.99508360587060451507568359375</LatitudeDegrees>
              <LongitudeDegrees>2.845712788403034210205078125</LongitudeDegrees>
            </Position>
            <AltitudeMeters>119.1999969482421875</AltitudeMeters>
            <DistanceMeters>NAN</DistanceMeters>
          </Trackpoint>
          <Trackpoint>
            <Time>2020-02-15T12:11:11.000Z</Time>
            <Position>
              <LatitudeDegrees>41.995101459324359893798828125</LatitudeDegrees>
              <LongitudeDegrees>2.845754362642765045166015625</LongitudeDegrees>
            </Position>
            <AltitudeMeters>119.59999847412109375</AltitudeMeters>
            <DistanceMeters>NAN</DistanceMeters>
          </Trackpoint>
          <Trackpoint>
            <Time>2020-02-15T12:11:12.000Z</Time>
            <Position>
              <LatitudeDegrees>41.99511713348329067230224609375</LatitudeDegrees>
              <LongitudeDegrees>2.84579417668282985687255859375</LongitudeDegrees>
            </Position>
            <AltitudeMeters>119.8000030517578125</AltitudeMeters>
            <DistanceMeters>NAN</DistanceMeters>
          </Trackpoint>
          <Trackpoint>
            <Time>2020-02-15T12:11:13.000Z</Time>
            <Position>
              <LatitudeDegrees>41.99513171799480915069580078125</LatitudeDegrees>
              <LongitudeDegrees>2.8458323143422603607177734375</LongitudeDegrees>
            </Position>
            <AltitudeMeters>120</AltitudeMeters>
            <DistanceMeters>NAN</DistanceMeters>
          </Trackpoint>
          <Trackpoint>
            <Time>2020-02-15T12:11:14.000Z</Time>
            <Position>
              <LatitudeDegrees>41.99514697305858135223388671875</LatitudeDegrees>
              <LongitudeDegrees>2.84587162546813488006591796875</LongitudeDegrees>
            </Position>
            <AltitudeMeters>120.40000152587890625</AltitudeMeters>
            <DistanceMeters>NAN</DistanceMeters>
          </Trackpoint>
          <Trackpoint>
            <Time>2020-02-15T12:11:15.000Z</Time>
            <Position>
              <LatitudeDegrees>41.995158456265926361083984375</LatitudeDegrees>
              <LongitudeDegrees>2.84590783528983592987060546875</LongitudeDegrees>
            </Position>
            <AltitudeMeters>120.59999847412109375</AltitudeMeters>
            <DistanceMeters>NAN</DistanceMeters>
          </Trackpoint>
          <Trackpoint>
            <Time>2020-02-15T12:11:16.000Z</Time>
            <Position>
              <LatitudeDegrees>41.99516792781651020050048828125</LatitudeDegrees>
              <LongitudeDegrees>2.845944464206695556640625</LongitudeDegrees>
            </Position>
            <AltitudeMeters>120.8000030517578125</AltitudeMeters>
            <DistanceMeters>NAN</DistanceMeters>
          </Trackpoint>
          <Trackpoint>
            <Time>2020-02-15T12:11:17.000Z</Time>
            <Position>
              <LatitudeDegrees>41.99517480097711086273193359375</LatitudeDegrees>
              <LongitudeDegrees>2.84598344005644321441650390625</LongitudeDegrees>
            </Position>
            <AltitudeMeters>120.8000030517578125</AltitudeMeters>
            <DistanceMeters>NAN</DistanceMeters>
          </Trackpoint>
          <Trackpoint>
            <Time>2020-02-15T12:11:19.000Z</Time>
            <Position>
              <LatitudeDegrees>41.9951874576508998870849609375</LatitudeDegrees>
              <LongitudeDegrees>2.846064828336238861083984375</LongitudeDegrees>
            </Position>
            <AltitudeMeters>121</AltitudeMeters>
            <DistanceMeters>NAN</DistanceMeters>
          </Trackpoint>
          <Trackpoint>
            <Time>2020-02-15T12:11:20.000Z</Time>
            <Position>
              <LatitudeDegrees>41.99519340880215167999267578125</LatitudeDegrees>
              <LongitudeDegrees>2.8461012057960033416748046875</LongitudeDegrees>
            </Position>
            <AltitudeMeters>121.1999969482421875</AltitudeMeters>
            <DistanceMeters>NAN</DistanceMeters>
          </Trackpoint>
          <Trackpoint>
            <Time>2020-02-15T12:11:21.000Z</Time>
            <Position>
              <LatitudeDegrees>41.99520195834338665008544921875</LatitudeDegrees>
              <LongitudeDegrees>2.8461340628564357757568359375</LongitudeDegrees>
            </Position>
            <AltitudeMeters>121.1999969482421875</AltitudeMeters>
            <DistanceMeters>NAN</DistanceMeters>
          </Trackpoint>
          <Trackpoint>
            <Time>2020-02-15T12:11:22.000Z</Time>
            <Position>
              <LatitudeDegrees>41.9952092505991458892822265625</LatitudeDegrees>
              <LongitudeDegrees>2.84616616554558277130126953125</LongitudeDegrees>
            </Position>
            <AltitudeMeters>121.40000152587890625</AltitudeMeters>
            <DistanceMeters>NAN</DistanceMeters>
          </Trackpoint>
          <Trackpoint>
            <Time>2020-02-15T12:11:23.000Z</Time>
            <Position>
              <LatitudeDegrees>41.9952162913978099822998046875</LatitudeDegrees>
              <LongitudeDegrees>2.8462014533579349517822265625</LongitudeDegrees>
            </Position>
            <AltitudeMeters>121.59999847412109375</AltitudeMeters>
            <DistanceMeters>NAN</DistanceMeters>
          </Trackpoint>
          <Trackpoint>
            <Time>2020-02-15T12:11:24.000Z</Time>
            <Position>
              <LatitudeDegrees>41.995225511491298675537109375</LatitudeDegrees>
              <LongitudeDegrees>2.84623338840901851654052734375</LongitudeDegrees>
            </Position>
            <AltitudeMeters>121.59999847412109375</AltitudeMeters>
            <DistanceMeters>NAN</DistanceMeters>
          </Trackpoint>
          <Trackpoint>
            <Time>2020-02-15T12:11:25.000Z</Time>
            <Position>
              <LatitudeDegrees>41.99523833580315113067626953125</LatitudeDegrees>
              <LongitudeDegrees>2.84626029431819915771484375</LongitudeDegrees>
            </Position>
            <AltitudeMeters>121.59999847412109375</AltitudeMeters>
            <DistanceMeters>NAN</DistanceMeters>
          </Trackpoint>
          <Trackpoint>
            <Time>2020-02-15T12:11:26.000Z</Time>
            <Position>
              <LatitudeDegrees>41.995255686342716217041015625</LatitudeDegrees>
              <LongitudeDegrees>2.8462819196283817291259765625</LongitudeDegrees>
            </Position>
            <AltitudeMeters>121.59999847412109375</AltitudeMeters>
            <DistanceMeters>NAN</DistanceMeters>
          </Trackpoint>
          <Trackpoint>
            <Time>2020-02-15T12:11:27.000Z</Time>
            <Position>
              <LatitudeDegrees>41.99527504853904247283935546875</LatitudeDegrees>
              <LongitudeDegrees>2.846303544938564300537109375</LongitudeDegrees>
            </Position>
            <AltitudeMeters>121.8000030517578125</AltitudeMeters>
            <DistanceMeters>NAN</DistanceMeters>
          </Trackpoint>
          <Trackpoint>
            <Time>2020-02-15T12:11:28.000Z</Time>
            <Position>
              <LatitudeDegrees>41.99529550038278102874755859375</LatitudeDegrees>
              <LongitudeDegrees>2.84632944501936435699462890625</LongitudeDegrees>
            </Position>
            <AltitudeMeters>122</AltitudeMeters>
            <DistanceMeters>NAN</DistanceMeters>
          </Trackpoint>
          <Trackpoint>
            <Time>2020-02-15T12:11:29.000Z</Time>
            <Position>
              <LatitudeDegrees>41.99531511403620243072509765625</LatitudeDegrees>
              <LongitudeDegrees>2.8463486395776271820068359375</LongitudeDegrees>
            </Position>
            <AltitudeMeters>122</AltitudeMeters>
            <DistanceMeters>NAN</DistanceMeters>
          </Trackpoint>
          <Trackpoint>
            <Time>2020-02-15T12:11:30.000Z</Time>
            <Position>
              <LatitudeDegrees>41.99533523060381412506103515625</LatitudeDegrees>
              <LongitudeDegrees>2.846363224089145660400390625</LongitudeDegrees>
            </Position>
            <AltitudeMeters>122</AltitudeMeters>
            <DistanceMeters>NAN</DistanceMeters>
          </Trackpoint>
          <Trackpoint>
            <Time>2020-02-15T12:11:31.000Z</Time>
            <Position>
              <LatitudeDegrees>41.99536004103720188140869140625</LatitudeDegrees>
              <LongitudeDegrees>2.84637738950550556182861328125</LongitudeDegrees>
            </Position>
            <AltitudeMeters>122.40000152587890625</AltitudeMeters>
            <DistanceMeters>NAN</DistanceMeters>
          </Trackpoint>
          <Trackpoint>
            <Time>2020-02-15T12:11:32.000Z</Time>
            <Position>
              <LatitudeDegrees>41.99539147317409515380859375</LatitudeDegrees>
              <LongitudeDegrees>2.84638979472219944000244140625</LongitudeDegrees>
            </Position>
            <AltitudeMeters>122.59999847412109375</AltitudeMeters>
            <DistanceMeters>NAN</DistanceMeters>
          </Trackpoint>
          <Trackpoint>
            <Time>2020-02-15T12:11:33.000Z</Time>
            <Position>
              <LatitudeDegrees>41.99542860500514507293701171875</LatitudeDegrees>
              <LongitudeDegrees>2.84640387631952762603759765625</LongitudeDegrees>
            </Position>
            <AltitudeMeters>122.59999847412109375</AltitudeMeters>
            <DistanceMeters>NAN</DistanceMeters>
          </Trackpoint>
          <Trackpoint>
            <Time>2020-02-15T12:11:35.000Z</Time>
            <Position>
              <LatitudeDegrees>41.99551284313201904296875</LatitudeDegrees>
              <LongitudeDegrees>2.8464351408183574676513671875</LongitudeDegrees>
            </Position>
            <AltitudeMeters>123.1999969482421875</AltitudeMeters>
            <DistanceMeters>NAN</DistanceMeters>
          </Trackpoint>
          <Trackpoint>
            <Time>2020-02-15T12:11:38.000Z</Time>
            <Position>
              <LatitudeDegrees>41.99564670212566852569580078125</LatitudeDegrees>
              <LongitudeDegrees>2.84647679887712001800537109375</LongitudeDegrees>
            </Position>
            <AltitudeMeters>123.1999969482421875</AltitudeMeters>
            <DistanceMeters>NAN</DistanceMeters>
          </Trackpoint>
          <Trackpoint>
            <Time>2020-02-15T12:11:41.000Z</Time>
            <Position>
              <LatitudeDegrees>41.99577243067324161529541015625</LatitudeDegrees>
              <LongitudeDegrees>2.846502028405666351318359375</LongitudeDegrees>
            </Position>
            <AltitudeMeters>123.40000152587890625</AltitudeMeters>
            <DistanceMeters>NAN</DistanceMeters>
          </Trackpoint>
          <Trackpoint>
            <Time>2020-02-15T12:11:42.000Z</Time>
            <Position>
              <LatitudeDegrees>41.9958036951720714569091796875</LatitudeDegrees>
              <LongitudeDegrees>2.84650973975658416748046875</LongitudeDegrees>
            </Position>
            <AltitudeMeters>123.40000152587890625</AltitudeMeters>
            <DistanceMeters>NAN</DistanceMeters>
          </Trackpoint>
          <Trackpoint>
            <Time>2020-02-15T12:11:43.000Z</Time>
            <Position>
              <LatitudeDegrees>41.99583177454769611358642578125</LatitudeDegrees>
              <LongitudeDegrees>2.8465189598500728607177734375</LongitudeDegrees>
            </Position>
            <AltitudeMeters>123.59999847412109375</AltitudeMeters>
            <DistanceMeters>NAN</DistanceMeters>
          </Trackpoint>
          <Trackpoint>
            <Time>2020-02-15T12:11:44.000Z</Time>
            <Position>
              <LatitudeDegrees>41.9958548247814178466796875</LatitudeDegrees>
              <LongitudeDegrees>2.8465270064771175384521484375</LongitudeDegrees>
            </Position>
            <AltitudeMeters>123.59999847412109375</AltitudeMeters>
            <DistanceMeters>NAN</DistanceMeters>
          </Trackpoint>
          <Trackpoint>
            <Time>2020-02-15T12:11:45.000Z</Time>
            <Position>
              <LatitudeDegrees>41.99587485752999782562255859375</LatitudeDegrees>
              <LongitudeDegrees>2.84653396345674991607666015625</LongitudeDegrees>
            </Position>
            <AltitudeMeters>123.8000030517578125</AltitudeMeters>
            <DistanceMeters>NAN</DistanceMeters>
          </Trackpoint>
          <Trackpoint>
            <Time>2020-02-15T12:11:46.000Z</Time>
            <Position>
              <LatitudeDegrees>41.99589095078408718109130859375</LatitudeDegrees>
              <LongitudeDegrees>2.846541590988636016845703125</LongitudeDegrees>
            </Position>
            <AltitudeMeters>123.8000030517578125</AltitudeMeters>
            <DistanceMeters>NAN</DistanceMeters>
          </Trackpoint>
          <Trackpoint>
            <Time>2020-02-15T12:11:47.000Z</Time>
            <Position>
              <LatitudeDegrees>41.99590637348592281341552734375</LatitudeDegrees>
              <LongitudeDegrees>2.8465514816343784332275390625</LongitudeDegrees>
            </Position>
            <AltitudeMeters>123.8000030517578125</AltitudeMeters>
            <DistanceMeters>NAN</DistanceMeters>
          </Trackpoint>
          <Trackpoint>
            <Time>2020-02-15T12:11:48.000Z</Time>
            <Position>
              <LatitudeDegrees>41.99592682532966136932373046875</LatitudeDegrees>
              <LongitudeDegrees>2.84656262956559658050537109375</LongitudeDegrees>
            </Position>
            <AltitudeMeters>124</AltitudeMeters>
            <DistanceMeters>NAN</DistanceMeters>
          </Trackpoint>
          <Trackpoint>
            <Time>2020-02-15T12:11:49.000Z</Time>
            <Position>
              <LatitudeDegrees>41.99595465324819087982177734375</LatitudeDegrees>
              <LongitudeDegrees>2.8465759567916393280029296875</LongitudeDegrees>
            </Position>
            <AltitudeMeters>124</AltitudeMeters>
            <DistanceMeters>NAN</DistanceMeters>
          </Trackpoint>
          <Trackpoint>
            <Time>2020-02-15T12:11:50.000Z</Time>
            <Position>
              <LatitudeDegrees>41.99598566628992557525634765625</LatitudeDegrees>
              <LongitudeDegrees>2.8465937264263629913330078125</LongitudeDegrees>
            </Position>
            <AltitudeMeters>124</AltitudeMeters>
            <DistanceMeters>NAN</DistanceMeters>
          </Trackpoint>
          <Trackpoint>
            <Time>2020-02-15T12:11:51.000Z</Time>
            <Position>
              <LatitudeDegrees>41.9960209541022777557373046875</LatitudeDegrees>
              <LongitudeDegrees>2.84661644138395786285400390625</LongitudeDegrees>
            </Position>
            <AltitudeMeters>124</AltitudeMeters>
            <DistanceMeters>NAN</DistanceMeters>
          </Trackpoint>
          <Trackpoint>
            <Time>2020-02-15T12:11:53.000Z</Time>
            <Position>
              <LatitudeDegrees>41.996076107025146484375</LatitudeDegrees>
              <LongitudeDegrees>2.846681736409664154052734375</LongitudeDegrees>
            </Position>
            <AltitudeMeters>123.8000030517578125</AltitudeMeters>
            <DistanceMeters>NAN</DistanceMeters>
          </Trackpoint>
          <Trackpoint>
            <Time>2020-02-15T12:11:54.000Z</Time>
            <Position>
              <LatitudeDegrees>41.99608976952731609344482421875</LatitudeDegrees>
              <LongitudeDegrees>2.846723981201648712158203125</LongitudeDegrees>
            </Position>
            <AltitudeMeters>124</AltitudeMeters>
            <DistanceMeters>NAN</DistanceMeters>
          </Trackpoint>
          <Trackpoint>
            <Time>2020-02-15T12:11:55.000Z</Time>
            <Position>
              <LatitudeDegrees>41.9960957206785678863525390625</LatitudeDegrees>
              <LongitudeDegrees>2.84676983021199703216552734375</LongitudeDegrees>
            </Position>
            <AltitudeMeters>124</AltitudeMeters>
            <DistanceMeters>NAN</DistanceMeters>
          </Trackpoint>
          <Trackpoint>
            <Time>2020-02-15T12:11:56.000Z</Time>
            <Position>
              <LatitudeDegrees>41.9961044378578662872314453125</LatitudeDegrees>
              <LongitudeDegrees>2.84680905751883983612060546875</LongitudeDegrees>
            </Position>
            <AltitudeMeters>124.1999969482421875</AltitudeMeters>
            <DistanceMeters>NAN</DistanceMeters>
          </Trackpoint>
          <Trackpoint>
            <Time>2020-02-15T12:11:57.000Z</Time>
            <Position>
              <LatitudeDegrees>41.99611374177038669586181640625</LatitudeDegrees>
              <LongitudeDegrees>2.846841998398303985595703125</LongitudeDegrees>
            </Position>
            <AltitudeMeters>124.40000152587890625</AltitudeMeters>
            <DistanceMeters>NAN</DistanceMeters>
          </Trackpoint>
          <Trackpoint>
            <Time>2020-02-15T12:11:58.000Z</Time>
            <Position>
              <LatitudeDegrees>41.99612380005419254302978515625</LatitudeDegrees>
              <LongitudeDegrees>2.84687452018260955810546875</LongitudeDegrees>
            </Position>
            <AltitudeMeters>124.40000152587890625</AltitudeMeters>
            <DistanceMeters>NAN</DistanceMeters>
          </Trackpoint>
          <Trackpoint>
            <Time>2020-02-15T12:11:59.000Z</Time>
            <Position>
              <LatitudeDegrees>41.9961399771273136138916015625</LatitudeDegrees>
              <LongitudeDegrees>2.84690427593886852264404296875</LongitudeDegrees>
            </Position>
            <AltitudeMeters>124.40000152587890625</AltitudeMeters>
            <DistanceMeters>NAN</DistanceMeters>
          </Trackpoint>
          <Trackpoint>
            <Time>2020-02-15T12:12:00.000Z</Time>
            <Position>
              <LatitudeDegrees>41.99616068042814731597900390625</LatitudeDegrees>
              <LongitudeDegrees>2.84692908637225627899169921875</LongitudeDegrees>
            </Position>
            <AltitudeMeters>124.59999847412109375</AltitudeMeters>
            <DistanceMeters>NAN</DistanceMeters>
          </Trackpoint>
          <Trackpoint>
            <Time>2020-02-15T12:12:01.000Z</Time>
            <Position>
              <LatitudeDegrees>41.9961820542812347412109375</LatitudeDegrees>
              <LongitudeDegrees>2.846945263445377349853515625</LongitudeDegrees>
            </Position>
            <AltitudeMeters>124.59999847412109375</AltitudeMeters>
            <DistanceMeters>NAN</DistanceMeters>
          </Trackpoint>
          <Trackpoint>
            <Time>2020-02-15T12:12:02.000Z</Time>
            <Position>
              <LatitudeDegrees>41.99620577506721019744873046875</LatitudeDegrees>
              <LongitudeDegrees>2.8469474427402019500732421875</LongitudeDegrees>
            </Position>
            <AltitudeMeters>124.8000030517578125</AltitudeMeters>
            <DistanceMeters>NAN</DistanceMeters>
          </Trackpoint>
          <Trackpoint>
            <Time>2020-02-15T12:12:03.000Z</Time>
            <Position>
              <LatitudeDegrees>41.99623041786253452301025390625</LatitudeDegrees>
              <LongitudeDegrees>2.846949286758899688720703125</LongitudeDegrees>
            </Position>
            <AltitudeMeters>124.8000030517578125</AltitudeMeters>
            <DistanceMeters>NAN</DistanceMeters>
          </Trackpoint>
          <Trackpoint>
            <Time>2020-02-15T12:12:04.000Z</Time>
            <Position>
              <LatitudeDegrees>41.99625623412430286407470703125</LatitudeDegrees>
              <LongitudeDegrees>2.84694685600697994232177734375</LongitudeDegrees>
            </Position>
            <AltitudeMeters>125</AltitudeMeters>
            <DistanceMeters>NAN</DistanceMeters>
          </Trackpoint>
          <Trackpoint>
            <Time>2020-02-15T12:12:05.000Z</Time>
            <Position>
              <LatitudeDegrees>41.99628188274800777435302734375</LatitudeDegrees>
              <LongitudeDegrees>2.84694450907409191131591796875</LongitudeDegrees>
            </Position>
            <AltitudeMeters>125.1999969482421875</AltitudeMeters>
            <DistanceMeters>NAN</DistanceMeters>
          </Trackpoint>
          <Trackpoint>
            <Time>2020-02-15T12:12:06.000Z</Time>
            <Position>
              <LatitudeDegrees>41.99630702845752239227294921875</LatitudeDegrees>
              <LongitudeDegrees>2.8469409048557281494140625</LongitudeDegrees>
            </Position>
            <AltitudeMeters>125.40000152587890625</AltitudeMeters>
            <DistanceMeters>NAN</DistanceMeters>
          </Trackpoint>
          <Trackpoint>
            <Time>2020-02-15T12:12:07.000Z</Time>
            <Position>
              <LatitudeDegrees>41.9963327609002590179443359375</LatitudeDegrees>
              <LongitudeDegrees>2.8469373844563961029052734375</LongitudeDegrees>
            </Position>
            <AltitudeMeters>125.40000152587890625</AltitudeMeters>
            <DistanceMeters>NAN</DistanceMeters>
          </Trackpoint>
          <Trackpoint>
            <Time>2020-02-15T12:12:08.000Z</Time>
            <Position>
              <LatitudeDegrees>41.99635916389524936676025390625</LatitudeDegrees>
              <LongitudeDegrees>2.84693411551415920257568359375</LongitudeDegrees>
            </Position>
            <AltitudeMeters>126</AltitudeMeters>
            <DistanceMeters>NAN</DistanceMeters>
          </Trackpoint>
          <Trackpoint>
            <Time>2020-02-15T12:12:09.000Z</Time>
            <Position>
              <LatitudeDegrees>41.99638481251895427703857421875</LatitudeDegrees>
              <LongitudeDegrees>2.8469340316951274871826171875</LongitudeDegrees>
            </Position>
            <AltitudeMeters>126.1999969482421875</AltitudeMeters>
            <DistanceMeters>NAN</DistanceMeters>
          </Trackpoint>
          <Trackpoint>
            <Time>2020-02-15T12:12:10.000Z</Time>
            <Position>
              <LatitudeDegrees>41.99641071259975433349609375</LatitudeDegrees>
              <LongitudeDegrees>2.846935205161571502685546875</LongitudeDegrees>
            </Position>
            <AltitudeMeters>126.40000152587890625</AltitudeMeters>
            <DistanceMeters>NAN</DistanceMeters>
          </Trackpoint>
          <Trackpoint>
            <Time>2020-02-15T12:12:11.000Z</Time>
            <Position>
              <LatitudeDegrees>41.99643694795668125152587890625</LatitudeDegrees>
              <LongitudeDegrees>2.846939228475093841552734375</LongitudeDegrees>
            </Position>
            <AltitudeMeters>126.8000030517578125</AltitudeMeters>
            <DistanceMeters>NAN</DistanceMeters>
          </Trackpoint>
          <Trackpoint>
            <Time>2020-02-15T12:12:12.000Z</Time>
            <Position>
              <LatitudeDegrees>41.9964631833136081695556640625</LatitudeDegrees>
              <LongitudeDegrees>2.84694249741733074188232421875</LongitudeDegrees>
            </Position>
            <AltitudeMeters>126.8000030517578125</AltitudeMeters>
            <DistanceMeters>NAN</DistanceMeters>
          </Trackpoint>
          <Trackpoint>
            <Time>2020-02-15T12:12:13.000Z</Time>
            <Position>
              <LatitudeDegrees>41.996490843594074249267578125</LatitudeDegrees>
              <LongitudeDegrees>2.84694819711148738861083984375</LongitudeDegrees>
            </Position>
            <AltitudeMeters>127.40000152587890625</AltitudeMeters>
            <DistanceMeters>NAN</DistanceMeters>
          </Trackpoint>
          <Trackpoint>
            <Time>2020-02-15T12:12:14.000Z</Time>
            <Position>
              <LatitudeDegrees>41.9965174980461597442626953125</LatitudeDegrees>
              <LongitudeDegrees>2.84695289097726345062255859375</LongitudeDegrees>
            </Position>
            <AltitudeMeters>127.59999847412109375</AltitudeMeters>
            <DistanceMeters>NAN</DistanceMeters>
          </Trackpoint>
          <Trackpoint>
            <Time>2020-02-15T12:12:15.000Z</Time>
            <Position>
              <LatitudeDegrees>41.9965419732034206390380859375</LatitudeDegrees>
              <LongitudeDegrees>2.84695222042500972747802734375</LongitudeDegrees>
            </Position>
            <AltitudeMeters>127.8000030517578125</AltitudeMeters>
            <DistanceMeters>NAN</DistanceMeters>
          </Trackpoint>
          <Trackpoint>
            <Time>2020-02-15T12:12:16.000Z</Time>
            <Position>
              <LatitudeDegrees>41.99656552635133266448974609375</LatitudeDegrees>
              <LongitudeDegrees>2.84695154987275600433349609375</LongitudeDegrees>
            </Position>
            <AltitudeMeters>128</AltitudeMeters>
            <DistanceMeters>NAN</DistanceMeters>
          </Trackpoint>
          <Trackpoint>
            <Time>2020-02-15T12:12:17.000Z</Time>
            <Position>
              <LatitudeDegrees>41.996589414775371551513671875</LatitudeDegrees>
              <LongitudeDegrees>2.846952974796295166015625</LongitudeDegrees>
            </Position>
            <AltitudeMeters>128</AltitudeMeters>
            <DistanceMeters>NAN</DistanceMeters>
          </Trackpoint>
          <Trackpoint>
            <Time>2020-02-15T12:12:18.000Z</Time>
            <Position>
              <LatitudeDegrees>41.9966130517423152923583984375</LatitudeDegrees>
              <LongitudeDegrees>2.846950627863407135009765625</LongitudeDegrees>
            </Position>
            <AltitudeMeters>128.1999969482421875</AltitudeMeters>
            <DistanceMeters>NAN</DistanceMeters>
          </Trackpoint>
          <Trackpoint>
            <Time>2020-02-15T12:12:19.000Z</Time>
            <Position>
              <LatitudeDegrees>41.9966368563473224639892578125</LatitudeDegrees>
              <LongitudeDegrees>2.84694786183536052703857421875</LongitudeDegrees>
            </Position>
            <AltitudeMeters>128.399993896484375</AltitudeMeters>
            <DistanceMeters>NAN</DistanceMeters>
          </Trackpoint>
          <Trackpoint>
            <Time>2020-02-15T12:12:20.000Z</Time>
            <Position>
              <LatitudeDegrees>41.9966620020568370819091796875</LatitudeDegrees>
              <LongitudeDegrees>2.84695289097726345062255859375</LongitudeDegrees>
            </Position>
            <AltitudeMeters>128.399993896484375</AltitudeMeters>
            <DistanceMeters>NAN</DistanceMeters>
          </Trackpoint>
          <Trackpoint>
            <Time>2020-02-15T12:12:21.000Z</Time>
            <Position>
              <LatitudeDegrees>41.996687985956668853759765625</LatitudeDegrees>
              <LongitudeDegrees>2.8469544835388660430908203125</LongitudeDegrees>
            </Position>
            <AltitudeMeters>128.600006103515625</AltitudeMeters>
            <DistanceMeters>NAN</DistanceMeters>
          </Trackpoint>
          <Trackpoint>
            <Time>2020-02-15T12:12:22.000Z</Time>
            <Position>
              <LatitudeDegrees>41.99671288020908832550048828125</LatitudeDegrees>
              <LongitudeDegrees>2.84695389680564403533935546875</LongitudeDegrees>
            </Position>
            <AltitudeMeters>128.600006103515625</AltitudeMeters>
            <DistanceMeters>NAN</DistanceMeters>
          </Trackpoint>
          <Trackpoint>
            <Time>2020-02-15T12:12:23.000Z</Time>
            <Position>
              <LatitudeDegrees>41.9967374391853809356689453125</LatitudeDegrees>
              <LongitudeDegrees>2.84695255570113658905029296875</LongitudeDegrees>
            </Position>
            <AltitudeMeters>129</AltitudeMeters>
            <DistanceMeters>NAN</DistanceMeters>
          </Trackpoint>
          <Trackpoint>
            <Time>2020-02-15T12:12:24.000Z</Time>
            <Position>
              <LatitudeDegrees>41.99676166288554668426513671875</LatitudeDegrees>
              <LongitudeDegrees>2.8469544835388660430908203125</LongitudeDegrees>
            </Position>
            <AltitudeMeters>129.1999969482421875</AltitudeMeters>
            <DistanceMeters>NAN</DistanceMeters>
          </Trackpoint>
          <Trackpoint>
            <Time>2020-02-15T12:12:25.000Z</Time>
            <Position>
              <LatitudeDegrees>41.9967850483953952789306640625</LatitudeDegrees>
              <LongitudeDegrees>2.84695356152951717376708984375</LongitudeDegrees>
            </Position>
            <AltitudeMeters>129.1999969482421875</AltitudeMeters>
            <DistanceMeters>NAN</DistanceMeters>
          </Trackpoint>
          <Trackpoint>
            <Time>2020-02-15T12:12:26.000Z</Time>
            <Position>
              <LatitudeDegrees>41.9968098588287830352783203125</LatitudeDegrees>
              <LongitudeDegrees>2.84695230424404144287109375</LongitudeDegrees>
            </Position>
            <AltitudeMeters>129.600006103515625</AltitudeMeters>
            <DistanceMeters>NAN</DistanceMeters>
          </Trackpoint>
          <Trackpoint>
            <Time>2020-02-15T12:12:27.000Z</Time>
            <Position>
              <LatitudeDegrees>41.996834836900234222412109375</LatitudeDegrees>
              <LongitudeDegrees>2.84695230424404144287109375</LongitudeDegrees>
            </Position>
            <AltitudeMeters>130</AltitudeMeters>
            <DistanceMeters>NAN</DistanceMeters>
          </Trackpoint>
          <Trackpoint>
            <Time>2020-02-15T12:12:28.000Z</Time>
            <Position>
              <LatitudeDegrees>41.99685973115265369415283203125</LatitudeDegrees>
              <LongitudeDegrees>2.84695339389145374298095703125</LongitudeDegrees>
            </Position>
            <AltitudeMeters>130</AltitudeMeters>
            <DistanceMeters>NAN</DistanceMeters>
          </Trackpoint>
          <Trackpoint>
            <Time>2020-02-15T12:12:29.000Z</Time>
            <Position>
              <LatitudeDegrees>41.9968847930431365966796875</LatitudeDegrees>
              <LongitudeDegrees>2.84695423208177089691162109375</LongitudeDegrees>
            </Position>
            <AltitudeMeters>130</AltitudeMeters>
            <DistanceMeters>NAN</DistanceMeters>
          </Trackpoint>
          <Trackpoint>
            <Time>2020-02-15T12:12:30.000Z</Time>
            <Position>
              <LatitudeDegrees>41.996909938752651214599609375</LatitudeDegrees>
              <LongitudeDegrees>2.84695507027208805084228515625</LongitudeDegrees>
            </Position>
            <AltitudeMeters>130.399993896484375</AltitudeMeters>
            <DistanceMeters>NAN</DistanceMeters>
          </Trackpoint>
          <Trackpoint>
            <Time>2020-02-15T12:12:31.000Z</Time>
            <Position>
              <LatitudeDegrees>41.9969345815479755401611328125</LatitudeDegrees>
              <LongitudeDegrees>2.8469564951956272125244140625</LongitudeDegrees>
            </Position>
            <AltitudeMeters>130.399993896484375</AltitudeMeters>
            <DistanceMeters>NAN</DistanceMeters>
          </Trackpoint>
          <Trackpoint>
            <Time>2020-02-15T12:12:32.000Z</Time>
            <Position>
              <LatitudeDegrees>41.99695922434329986572265625</LatitudeDegrees>
              <LongitudeDegrees>2.8469568304717540740966796875</LongitudeDegrees>
            </Position>
            <AltitudeMeters>130.8000030517578125</AltitudeMeters>
            <DistanceMeters>NAN</DistanceMeters>
          </Trackpoint>
          <Trackpoint>
            <Time>2020-02-15T12:12:33.000Z</Time>
            <Position>
              <LatitudeDegrees>41.99698470532894134521484375</LatitudeDegrees>
              <LongitudeDegrees>2.84695708192884922027587890625</LongitudeDegrees>
            </Position>
            <AltitudeMeters>130.8000030517578125</AltitudeMeters>
            <DistanceMeters>NAN</DistanceMeters>
          </Trackpoint>
          <Trackpoint>
            <Time>2020-02-15T12:12:34.000Z</Time>
            <Position>
              <LatitudeDegrees>41.9970096834003925323486328125</LatitudeDegrees>
              <LongitudeDegrees>2.8469585068523883819580078125</LongitudeDegrees>
            </Position>
            <AltitudeMeters>130.8000030517578125</AltitudeMeters>
            <DistanceMeters>NAN</DistanceMeters>
          </Trackpoint>
          <Trackpoint>
            <Time>2020-02-15T12:12:35.000Z</Time>
            <Position>
              <LatitudeDegrees>41.99703357182443141937255859375</LatitudeDegrees>
              <LongitudeDegrees>2.84695842303335666656494140625</LongitudeDegrees>
            </Position>
            <AltitudeMeters>131</AltitudeMeters>
            <DistanceMeters>NAN</DistanceMeters>
          </Trackpoint>
          <Trackpoint>
            <Time>2020-02-15T12:12:36.000Z</Time>
            <Position>
              <LatitudeDegrees>41.99705720879137516021728515625</LatitudeDegrees>
              <LongitudeDegrees>2.8469569981098175048828125</LongitudeDegrees>
            </Position>
            <AltitudeMeters>131.1999969482421875</AltitudeMeters>
            <DistanceMeters>NAN</DistanceMeters>
          </Trackpoint>
          <Trackpoint>
            <Time>2020-02-15T12:12:37.000Z</Time>
            <Position>
              <LatitudeDegrees>41.99708126485347747802734375</LatitudeDegrees>
              <LongitudeDegrees>2.8469554893672466278076171875</LongitudeDegrees>
            </Position>
            <AltitudeMeters>131.399993896484375</AltitudeMeters>
            <DistanceMeters>NAN</DistanceMeters>
          </Trackpoint>
          <Trackpoint>
            <Time>2020-02-15T12:12:38.000Z</Time>
            <Position>
              <LatitudeDegrees>41.99710448272526264190673828125</LatitudeDegrees>
              <LongitudeDegrees>2.84695507027208805084228515625</LongitudeDegrees>
            </Position>
            <AltitudeMeters>131.399993896484375</AltitudeMeters>
            <DistanceMeters>NAN</DistanceMeters>
          </Trackpoint>
          <Trackpoint>
            <Time>2020-02-15T12:12:39.000Z</Time>
            <Position>
              <LatitudeDegrees>41.99712661094963550567626953125</LatitudeDegrees>
              <LongitudeDegrees>2.846954651176929473876953125</LongitudeDegrees>
            </Position>
            <AltitudeMeters>131.8000030517578125</AltitudeMeters>
            <DistanceMeters>NAN</DistanceMeters>
          </Trackpoint>
          <Trackpoint>
            <Time>2020-02-15T12:12:40.000Z</Time>
            <Position>
              <LatitudeDegrees>41.99714773334562778472900390625</LatitudeDegrees>
              <LongitudeDegrees>2.8469568304717540740966796875</LongitudeDegrees>
            </Position>
            <AltitudeMeters>132</AltitudeMeters>
            <DistanceMeters>NAN</DistanceMeters>
          </Trackpoint>
          <Trackpoint>
            <Time>2020-02-15T12:12:41.000Z</Time>
            <Position>
              <LatitudeDegrees>41.9971686042845249176025390625</LatitudeDegrees>
              <LongitudeDegrees>2.84696043469011783599853515625</LongitudeDegrees>
            </Position>
            <AltitudeMeters>132</AltitudeMeters>
            <DistanceMeters>NAN</DistanceMeters>
          </Trackpoint>
          <Trackpoint>
            <Time>2020-02-15T12:12:42.000Z</Time>
            <Position>
              <LatitudeDegrees>41.9971893914043903350830078125</LatitudeDegrees>
              <LongitudeDegrees>2.8469632007181644439697265625</LongitudeDegrees>
            </Position>
            <AltitudeMeters>132.399993896484375</AltitudeMeters>
            <DistanceMeters>NAN</DistanceMeters>
          </Trackpoint>
          <Trackpoint>
            <Time>2020-02-15T12:12:43.000Z</Time>
            <Position>
              <LatitudeDegrees>41.99721093289554119110107421875</LatitudeDegrees>
              <LongitudeDegrees>2.84696244634687900543212890625</LongitudeDegrees>
            </Position>
            <AltitudeMeters>132.600006103515625</AltitudeMeters>
            <DistanceMeters>NAN</DistanceMeters>
          </Trackpoint>
          <Trackpoint>
            <Time>2020-02-15T12:12:44.000Z</Time>
            <Position>
              <LatitudeDegrees>41.99723239056766033172607421875</LatitudeDegrees>
              <LongitudeDegrees>2.84696035087108612060546875</LongitudeDegrees>
            </Position>
            <AltitudeMeters>132.8000030517578125</AltitudeMeters>
            <DistanceMeters>NAN</DistanceMeters>
          </Trackpoint>
          <Trackpoint>
            <Time>2020-02-15T12:12:45.000Z</Time>
            <Position>
              <LatitudeDegrees>41.997253932058811187744140625</LatitudeDegrees>
              <LongitudeDegrees>2.84696043469011783599853515625</LongitudeDegrees>
            </Position>
            <AltitudeMeters>133</AltitudeMeters>
            <DistanceMeters>NAN</DistanceMeters>
          </Trackpoint>
          <Trackpoint>
            <Time>2020-02-15T12:12:46.000Z</Time>
            <Position>
              <LatitudeDegrees>41.99727463535964488983154296875</LatitudeDegrees>
              <LongitudeDegrees>2.84696244634687900543212890625</LongitudeDegrees>
            </Position>
            <AltitudeMeters>133.1999969482421875</AltitudeMeters>
            <DistanceMeters>NAN</DistanceMeters>
          </Trackpoint>
          <Trackpoint>
            <Time>2020-02-15T12:12:47.000Z</Time>
            <Position>
              <LatitudeDegrees>41.9972956739366054534912109375</LatitudeDegrees>
              <LongitudeDegrees>2.84696429036557674407958984375</LongitudeDegrees>
            </Position>
            <AltitudeMeters>133.1999969482421875</AltitudeMeters>
            <DistanceMeters>NAN</DistanceMeters>
          </Trackpoint>
          <Trackpoint>
            <Time>2020-02-15T12:12:48.000Z</Time>
            <Position>
              <LatitudeDegrees>41.997316293418407440185546875</LatitudeDegrees>
              <LongitudeDegrees>2.8469665534794330596923828125</LongitudeDegrees>
            </Position>
            <AltitudeMeters>133.399993896484375</AltitudeMeters>
            <DistanceMeters>NAN</DistanceMeters>
          </Trackpoint>
          <Trackpoint>
            <Time>2020-02-15T12:12:49.000Z</Time>
            <Position>
              <LatitudeDegrees>41.99733599089086055755615234375</LatitudeDegrees>
              <LongitudeDegrees>2.846969068050384521484375</LongitudeDegrees>
            </Position>
            <AltitudeMeters>133.8000030517578125</AltitudeMeters>
            <DistanceMeters>NAN</DistanceMeters>
          </Trackpoint>
          <Trackpoint>
            <Time>2020-02-15T12:12:50.000Z</Time>
            <Position>
              <LatitudeDegrees>41.997357867658138275146484375</LatitudeDegrees>
              <LongitudeDegrees>2.84697510302066802978515625</LongitudeDegrees>
            </Position>
            <AltitudeMeters>134</AltitudeMeters>
            <DistanceMeters>NAN</DistanceMeters>
          </Trackpoint>
          <Trackpoint>
            <Time>2020-02-15T12:12:51.000Z</Time>
            <Position>
              <LatitudeDegrees>41.997377313673496246337890625</LatitudeDegrees>
              <LongitudeDegrees>2.84698323346674442291259765625</LongitudeDegrees>
            </Position>
            <AltitudeMeters>134</AltitudeMeters>
            <DistanceMeters>NAN</DistanceMeters>
          </Trackpoint>
          <Trackpoint>
            <Time>2020-02-15T12:12:52.000Z</Time>
            <Position>
              <LatitudeDegrees>41.99739449657499790191650390625</LatitudeDegrees>
              <LongitudeDegrees>2.84699521958827972412109375</LongitudeDegrees>
            </Position>
            <AltitudeMeters>134.1999969482421875</AltitudeMeters>
            <DistanceMeters>NAN</DistanceMeters>
          </Trackpoint>
          <Trackpoint>
            <Time>2020-02-15T12:12:53.000Z</Time>
            <Position>
              <LatitudeDegrees>41.99740908108651638031005859375</LatitudeDegrees>
              <LongitudeDegrees>2.847007624804973602294921875</LongitudeDegrees>
            </Position>
            <AltitudeMeters>134.1999969482421875</AltitudeMeters>
            <DistanceMeters>NAN</DistanceMeters>
          </Trackpoint>
          <Trackpoint>
            <Time>2020-02-15T12:12:54.000Z</Time>
            <Position>
              <LatitudeDegrees>41.9974250905215740203857421875</LatitudeDegrees>
              <LongitudeDegrees>2.8470198623836040496826171875</LongitudeDegrees>
            </Position>
            <AltitudeMeters>134.600006103515625</AltitudeMeters>
            <DistanceMeters>NAN</DistanceMeters>
          </Trackpoint>
          <Trackpoint>
            <Time>2020-02-15T12:12:55.000Z</Time>
            <Position>
              <LatitudeDegrees>41.9974418543279170989990234375</LatitudeDegrees>
              <LongitudeDegrees>2.8470349498093128204345703125</LongitudeDegrees>
            </Position>
            <AltitudeMeters>134.600006103515625</AltitudeMeters>
            <DistanceMeters>NAN</DistanceMeters>
          </Trackpoint>
          <Trackpoint>
            <Time>2020-02-15T12:12:56.000Z</Time>
            <Position>
              <LatitudeDegrees>41.99745551683008670806884765625</LatitudeDegrees>
              <LongitudeDegrees>2.847050540149211883544921875</LongitudeDegrees>
            </Position>
            <AltitudeMeters>134.600006103515625</AltitudeMeters>
            <DistanceMeters>NAN</DistanceMeters>
          </Trackpoint>
          <Trackpoint>
            <Time>2020-02-15T12:12:57.000Z</Time>
            <Position>
              <LatitudeDegrees>41.9974683411419391632080078125</LatitudeDegrees>
              <LongitudeDegrees>2.84706361591815948486328125</LongitudeDegrees>
            </Position>
            <AltitudeMeters>134.8000030517578125</AltitudeMeters>
            <DistanceMeters>NAN</DistanceMeters>
          </Trackpoint>
          <Trackpoint>
            <Time>2020-02-15T12:12:58.000Z</Time>
            <Position>
              <LatitudeDegrees>41.997481249272823333740234375</LatitudeDegrees>
              <LongitudeDegrees>2.8470748476684093475341796875</LongitudeDegrees>
            </Position>
            <AltitudeMeters>135.1999969482421875</AltitudeMeters>
            <DistanceMeters>NAN</DistanceMeters>
          </Trackpoint>
          <Trackpoint>
            <Time>2020-02-15T12:12:59.000Z</Time>
            <Position>
              <LatitudeDegrees>41.99749591760337352752685546875</LatitudeDegrees>
              <LongitudeDegrees>2.84708775579929351806640625</LongitudeDegrees>
            </Position>
            <AltitudeMeters>135.600006103515625</AltitudeMeters>
            <DistanceMeters>NAN</DistanceMeters>
          </Trackpoint>
          <Trackpoint>
            <Time>2020-02-15T12:13:00.000Z</Time>
            <Position>
              <LatitudeDegrees>41.9975115917623043060302734375</LatitudeDegrees>
              <LongitudeDegrees>2.8471046872437000274658203125</LongitudeDegrees>
            </Position>
            <AltitudeMeters>135.600006103515625</AltitudeMeters>
            <DistanceMeters>NAN</DistanceMeters>
          </Trackpoint>
          <Trackpoint>
            <Time>2020-02-15T12:13:01.000Z</Time>
            <Position>
              <LatitudeDegrees>41.99752408079802989959716796875</LatitudeDegrees>
              <LongitudeDegrees>2.8471207804977893829345703125</LongitudeDegrees>
            </Position>
            <AltitudeMeters>135.8000030517578125</AltitudeMeters>
            <DistanceMeters>NAN</DistanceMeters>
          </Trackpoint>
          <Trackpoint>
            <Time>2020-02-15T12:13:02.000Z</Time>
            <Position>
              <LatitudeDegrees>41.9975333847105503082275390625</LatitudeDegrees>
              <LongitudeDegrees>2.8471358679234981536865234375</LongitudeDegrees>
            </Position>
            <AltitudeMeters>136</AltitudeMeters>
            <DistanceMeters>NAN</DistanceMeters>
          </Trackpoint>
          <Trackpoint>
            <Time>2020-02-15T12:13:03.000Z</Time>
            <Position>
              <LatitudeDegrees>41.99754486791789531707763671875</LatitudeDegrees>
              <LongitudeDegrees>2.84715170972049236297607421875</LongitudeDegrees>
            </Position>
            <AltitudeMeters>136.399993896484375</AltitudeMeters>
            <DistanceMeters>NAN</DistanceMeters>
          </Trackpoint>
          <Trackpoint>
            <Time>2020-02-15T12:13:04.000Z</Time>
            <Position>
              <LatitudeDegrees>41.9975566864013671875</LatitudeDegrees>
              <LongitudeDegrees>2.84716696478426456451416015625</LongitudeDegrees>
            </Position>
            <AltitudeMeters>136.8000030517578125</AltitudeMeters>
            <DistanceMeters>NAN</DistanceMeters>
          </Trackpoint>
          <Trackpoint>
            <Time>2020-02-15T12:13:05.000Z</Time>
            <Position>
              <LatitudeDegrees>41.99756867252290248870849609375</LatitudeDegrees>
              <LongitudeDegrees>2.8471838124096393585205078125</LongitudeDegrees>
            </Position>
            <AltitudeMeters>137</AltitudeMeters>
            <DistanceMeters>NAN</DistanceMeters>
          </Trackpoint>
          <Trackpoint>
            <Time>2020-02-15T12:13:06.000Z</Time>
            <Position>
              <LatitudeDegrees>41.9975809939205646514892578125</LatitudeDegrees>
              <LongitudeDegrees>2.84720242023468017578125</LongitudeDegrees>
            </Position>
            <AltitudeMeters>137.399993896484375</AltitudeMeters>
            <DistanceMeters>NAN</DistanceMeters>
          </Trackpoint>
          <Trackpoint>
            <Time>2020-02-15T12:13:07.000Z</Time>
            <Position>
              <LatitudeDegrees>41.99759163893759250640869140625</LatitudeDegrees>
              <LongitudeDegrees>2.847220860421657562255859375</LongitudeDegrees>
            </Position>
            <AltitudeMeters>137.8000030517578125</AltitudeMeters>
            <DistanceMeters>NAN</DistanceMeters>
          </Trackpoint>
          <Trackpoint>
            <Time>2020-02-15T12:13:08.000Z</Time>
            <Position>
              <LatitudeDegrees>41.99760605581104755401611328125</LatitudeDegrees>
              <LongitudeDegrees>2.84724441356956958770751953125</LongitudeDegrees>
            </Position>
            <AltitudeMeters>138</AltitudeMeters>
            <DistanceMeters>NAN</DistanceMeters>
          </Trackpoint>
          <Trackpoint>
            <Time>2020-02-15T12:13:09.000Z</Time>
            <Position>
              <LatitudeDegrees>41.99762047268450260162353515625</LatitudeDegrees>
              <LongitudeDegrees>2.84726788289844989776611328125</LongitudeDegrees>
            </Position>
            <AltitudeMeters>138.1999969482421875</AltitudeMeters>
            <DistanceMeters>NAN</DistanceMeters>
          </Trackpoint>
          <Trackpoint>
            <Time>2020-02-15T12:13:10.000Z</Time>
            <Position>
              <LatitudeDegrees>41.9976339675486087799072265625</LatitudeDegrees>
              <LongitudeDegrees>2.8472897596657276153564453125</LongitudeDegrees>
            </Position>
            <AltitudeMeters>138.600006103515625</AltitudeMeters>
            <DistanceMeters>NAN</DistanceMeters>
          </Trackpoint>
          <Trackpoint>
            <Time>2020-02-15T12:13:11.000Z</Time>
            <Position>
              <LatitudeDegrees>41.99764846824109554290771484375</LatitudeDegrees>
              <LongitudeDegrees>2.8473102115094661712646484375</LongitudeDegrees>
            </Position>
            <AltitudeMeters>139</AltitudeMeters>
            <DistanceMeters>NAN</DistanceMeters>
          </Trackpoint>
          <Trackpoint>
            <Time>2020-02-15T12:13:12.000Z</Time>
            <Position>
              <LatitudeDegrees>41.9976634718477725982666015625</LatitudeDegrees>
              <LongitudeDegrees>2.847328148782253265380859375</LongitudeDegrees>
            </Position>
            <AltitudeMeters>139</AltitudeMeters>
            <DistanceMeters>NAN</DistanceMeters>
          </Trackpoint>
          <Trackpoint>
            <Time>2020-02-15T12:13:13.000Z</Time>
            <Position>
              <LatitudeDegrees>41.99767646379768848419189453125</LatitudeDegrees>
              <LongitudeDegrees>2.84734566695988178253173828125</LongitudeDegrees>
            </Position>
            <AltitudeMeters>139.399993896484375</AltitudeMeters>
            <DistanceMeters>NAN</DistanceMeters>
          </Trackpoint>
          <Trackpoint>
            <Time>2020-02-15T12:13:14.000Z</Time>
            <Position>
              <LatitudeDegrees>41.9976929761469364166259765625</LatitudeDegrees>
              <LongitudeDegrees>2.847360670566558837890625</LongitudeDegrees>
            </Position>
            <AltitudeMeters>139.8000030517578125</AltitudeMeters>
            <DistanceMeters>NAN</DistanceMeters>
          </Trackpoint>
          <Trackpoint>
            <Time>2020-02-15T12:13:15.000Z</Time>
            <Position>
              <LatitudeDegrees>41.99770999141037464141845703125</LatitudeDegrees>
              <LongitudeDegrees>2.84737282432615756988525390625</LongitudeDegrees>
            </Position>
            <AltitudeMeters>140.399993896484375</AltitudeMeters>
            <DistanceMeters>NAN</DistanceMeters>
          </Trackpoint>
          <Trackpoint>
            <Time>2020-02-15T12:13:16.000Z</Time>
            <Position>
              <LatitudeDegrees>41.99772725813090801239013671875</LatitudeDegrees>
              <LongitudeDegrees>2.8473843075335025787353515625</LongitudeDegrees>
            </Position>
            <AltitudeMeters>140.399993896484375</AltitudeMeters>
            <DistanceMeters>NAN</DistanceMeters>
          </Trackpoint>
          <Trackpoint>
            <Time>2020-02-15T12:13:17.000Z</Time>
            <Position>
              <LatitudeDegrees>41.99774318374693393707275390625</LatitudeDegrees>
              <LongitudeDegrees>2.8473963774740695953369140625</LongitudeDegrees>
            </Position>
            <AltitudeMeters>140.399993896484375</AltitudeMeters>
            <DistanceMeters>NAN</DistanceMeters>
          </Trackpoint>
          <Trackpoint>
            <Time>2020-02-15T12:13:18.000Z</Time>
            <Position>
              <LatitudeDegrees>41.997759528458118438720703125</LatitudeDegrees>
              <LongitudeDegrees>2.8474034182727336883544921875</LongitudeDegrees>
            </Position>
            <AltitudeMeters>140.8000030517578125</AltitudeMeters>
            <DistanceMeters>NAN</DistanceMeters>
          </Trackpoint>
          <Trackpoint>
            <Time>2020-02-15T12:13:19.000Z</Time>
            <Position>
              <LatitudeDegrees>41.99777754954993724822998046875</LatitudeDegrees>
              <LongitudeDegrees>2.84740719012916088104248046875</LongitudeDegrees>
            </Position>
            <AltitudeMeters>141.1999969482421875</AltitudeMeters>
            <DistanceMeters>NAN</DistanceMeters>
          </Trackpoint>
          <Trackpoint>
            <Time>2020-02-15T12:13:20.000Z</Time>
            <Position>
              <LatitudeDegrees>41.99779632501304149627685546875</LatitudeDegrees>
              <LongitudeDegrees>2.84741054289042949676513671875</LongitudeDegrees>
            </Position>
            <AltitudeMeters>141.1999969482421875</AltitudeMeters>
            <DistanceMeters>NAN</DistanceMeters>
          </Trackpoint>
          <Trackpoint>
            <Time>2020-02-15T12:13:21.000Z</Time>
            <Position>
              <LatitudeDegrees>41.99781543575227260589599609375</LatitudeDegrees>
              <LongitudeDegrees>2.84741506911814212799072265625</LongitudeDegrees>
            </Position>
            <AltitudeMeters>141.600006103515625</AltitudeMeters>
            <DistanceMeters>NAN</DistanceMeters>
          </Trackpoint>
          <Trackpoint>
            <Time>2020-02-15T12:13:22.000Z</Time>
            <Position>
              <LatitudeDegrees>41.997834630310535430908203125</LatitudeDegrees>
              <LongitudeDegrees>2.84742026589810848236083984375</LongitudeDegrees>
            </Position>
            <AltitudeMeters>141.8000030517578125</AltitudeMeters>
            <DistanceMeters>NAN</DistanceMeters>
          </Trackpoint>
          <Trackpoint>
            <Time>2020-02-15T12:13:23.000Z</Time>
            <Position>
              <LatitudeDegrees>41.99785281904041767120361328125</LatitudeDegrees>
              <LongitudeDegrees>2.84742437303066253662109375</LongitudeDegrees>
            </Position>
            <AltitudeMeters>142</AltitudeMeters>
            <DistanceMeters>NAN</DistanceMeters>
          </Trackpoint>
          <Trackpoint>
            <Time>2020-02-15T12:13:24.000Z</Time>
            <Position>
              <LatitudeDegrees>41.99786983430385589599609375</LatitudeDegrees>
              <LongitudeDegrees>2.84742680378258228302001953125</LongitudeDegrees>
            </Position>
            <AltitudeMeters>142.1999969482421875</AltitudeMeters>
            <DistanceMeters>NAN</DistanceMeters>
          </Trackpoint>
          <Trackpoint>
            <Time>2020-02-15T12:13:25.000Z</Time>
            <Position>
              <LatitudeDegrees>41.99788550846278667449951171875</LatitudeDegrees>
              <LongitudeDegrees>2.8474288992583751678466796875</LongitudeDegrees>
            </Position>
            <AltitudeMeters>142.399993896484375</AltitudeMeters>
            <DistanceMeters>NAN</DistanceMeters>
          </Trackpoint>
          <Trackpoint>
            <Time>2020-02-15T12:13:26.000Z</Time>
            <Position>
              <LatitudeDegrees>41.9979011826217174530029296875</LatitudeDegrees>
              <LongitudeDegrees>2.84743015654385089874267578125</LongitudeDegrees>
            </Position>
            <AltitudeMeters>142.600006103515625</AltitudeMeters>
            <DistanceMeters>NAN</DistanceMeters>
          </Trackpoint>
          <Trackpoint>
            <Time>2020-02-15T12:13:27.000Z</Time>
            <Position>
              <LatitudeDegrees>41.9979166053235530853271484375</LatitudeDegrees>
              <LongitudeDegrees>2.84743133001029491424560546875</LongitudeDegrees>
            </Position>
            <AltitudeMeters>142.8000030517578125</AltitudeMeters>
            <DistanceMeters>NAN</DistanceMeters>
          </Trackpoint>
          <Trackpoint>
            <Time>2020-02-15T12:13:28.000Z</Time>
            <Position>
              <LatitudeDegrees>41.9979326985776424407958984375</LatitudeDegrees>
              <LongitudeDegrees>2.84743250347673892974853515625</LongitudeDegrees>
            </Position>
            <AltitudeMeters>143</AltitudeMeters>
            <DistanceMeters>NAN</DistanceMeters>
          </Trackpoint>
          <Trackpoint>
            <Time>2020-02-15T12:13:29.000Z</Time>
            <Position>
              <LatitudeDegrees>41.9979484565556049346923828125</LatitudeDegrees>
              <LongitudeDegrees>2.84743166528642177581787109375</LongitudeDegrees>
            </Position>
            <AltitudeMeters>143</AltitudeMeters>
            <DistanceMeters>NAN</DistanceMeters>
          </Trackpoint>
          <Trackpoint>
            <Time>2020-02-15T12:13:30.000Z</Time>
            <Position>
              <LatitudeDegrees>41.997964382171630859375</LatitudeDegrees>
              <LongitudeDegrees>2.8474299050867557525634765625</LongitudeDegrees>
            </Position>
            <AltitudeMeters>143.399993896484375</AltitudeMeters>
            <DistanceMeters>NAN</DistanceMeters>
          </Trackpoint>
          <Trackpoint>
            <Time>2020-02-15T12:13:31.000Z</Time>
            <Position>
              <LatitudeDegrees>41.9979813136160373687744140625</LatitudeDegrees>
              <LongitudeDegrees>2.8474292345345020294189453125</LongitudeDegrees>
            </Position>
            <AltitudeMeters>143.600006103515625</AltitudeMeters>
            <DistanceMeters>NAN</DistanceMeters>
          </Trackpoint>
          <Trackpoint>
            <Time>2020-02-15T12:13:32.000Z</Time>
            <Position>
              <LatitudeDegrees>41.99799916706979274749755859375</LatitudeDegrees>
              <LongitudeDegrees>2.84743049181997776031494140625</LongitudeDegrees>
            </Position>
            <AltitudeMeters>143.8000030517578125</AltitudeMeters>
            <DistanceMeters>NAN</DistanceMeters>
          </Trackpoint>
          <Trackpoint>
            <Time>2020-02-15T12:13:33.000Z</Time>
            <Position>
              <LatitudeDegrees>41.998018361628055572509765625</LatitudeDegrees>
              <LongitudeDegrees>2.8474319167435169219970703125</LongitudeDegrees>
            </Position>
            <AltitudeMeters>144</AltitudeMeters>
            <DistanceMeters>NAN</DistanceMeters>
          </Trackpoint>
          <Trackpoint>
            <Time>2020-02-15T12:13:34.000Z</Time>
            <Position>
              <LatitudeDegrees>41.99803772382438182830810546875</LatitudeDegrees>
              <LongitudeDegrees>2.84743233583867549896240234375</LongitudeDegrees>
            </Position>
            <AltitudeMeters>144.1999969482421875</AltitudeMeters>
            <DistanceMeters>NAN</DistanceMeters>
          </Trackpoint>
          <Trackpoint>
            <Time>2020-02-15T12:13:35.000Z</Time>
            <Position>
              <LatitudeDegrees>41.99805851094424724578857421875</LatitudeDegrees>
              <LongitudeDegrees>2.847430408000946044921875</LongitudeDegrees>
            </Position>
            <AltitudeMeters>144.399993896484375</AltitudeMeters>
            <DistanceMeters>NAN</DistanceMeters>
          </Trackpoint>
          <Trackpoint>
            <Time>2020-02-15T12:13:36.000Z</Time>
            <Position>
              <LatitudeDegrees>41.99807963334023952484130859375</LatitudeDegrees>
              <LongitudeDegrees>2.84742864780128002166748046875</LongitudeDegrees>
            </Position>
            <AltitudeMeters>144.600006103515625</AltitudeMeters>
            <DistanceMeters>NAN</DistanceMeters>
          </Trackpoint>
          <Trackpoint>
            <Time>2020-02-15T12:13:37.000Z</Time>
            <Position>
              <LatitudeDegrees>41.99810008518397808074951171875</LatitudeDegrees>
              <LongitudeDegrees>2.84742764197289943695068359375</LongitudeDegrees>
            </Position>
            <AltitudeMeters>144.600006103515625</AltitudeMeters>
            <DistanceMeters>NAN</DistanceMeters>
          </Trackpoint>
          <Trackpoint>
            <Time>2020-02-15T12:13:38.000Z</Time>
            <Position>
              <LatitudeDegrees>41.9981207884848117828369140625</LatitudeDegrees>
              <LongitudeDegrees>2.84742931835353374481201171875</LongitudeDegrees>
            </Position>
            <AltitudeMeters>144.600006103515625</AltitudeMeters>
            <DistanceMeters>NAN</DistanceMeters>
          </Trackpoint>
          <Trackpoint>
            <Time>2020-02-15T12:13:39.000Z</Time>
            <Position>
              <LatitudeDegrees>41.998141743242740631103515625</LatitudeDegrees>
              <LongitudeDegrees>2.847432754933834075927734375</LongitudeDegrees>
            </Position>
            <AltitudeMeters>145</AltitudeMeters>
            <DistanceMeters>NAN</DistanceMeters>
          </Trackpoint>
          <Trackpoint>
            <Time>2020-02-15T12:13:40.000Z</Time>
            <Position>
              <LatitudeDegrees>41.99816219508647918701171875</LatitudeDegrees>
              <LongitudeDegrees>2.84743652679026126861572265625</LongitudeDegrees>
            </Position>
            <AltitudeMeters>145</AltitudeMeters>
            <DistanceMeters>NAN</DistanceMeters>
          </Trackpoint>
          <Trackpoint>
            <Time>2020-02-15T12:13:41.000Z</Time>
            <Position>
              <LatitudeDegrees>41.99818306602537631988525390625</LatitudeDegrees>
              <LongitudeDegrees>2.8474416397511959075927734375</LongitudeDegrees>
            </Position>
            <AltitudeMeters>145.399993896484375</AltitudeMeters>
            <DistanceMeters>NAN</DistanceMeters>
          </Trackpoint>
          <Trackpoint>
            <Time>2020-02-15T12:13:42.000Z</Time>
            <Position>
              <LatitudeDegrees>41.998202763497829437255859375</LatitudeDegrees>
              <LongitudeDegrees>2.84744557924568653106689453125</LongitudeDegrees>
            </Position>
            <AltitudeMeters>145.399993896484375</AltitudeMeters>
            <DistanceMeters>NAN</DistanceMeters>
          </Trackpoint>
          <Trackpoint>
            <Time>2020-02-15T12:13:43.000Z</Time>
            <Position>
              <LatitudeDegrees>41.99822128750383853912353515625</LatitudeDegrees>
              <LongitudeDegrees>2.84744574688374996185302734375</LongitudeDegrees>
            </Position>
            <AltitudeMeters>145.600006103515625</AltitudeMeters>
            <DistanceMeters>NAN</DistanceMeters>
          </Trackpoint>
          <Trackpoint>
            <Time>2020-02-15T12:13:44.000Z</Time>
            <Position>
              <LatitudeDegrees>41.998238973319530487060546875</LatitudeDegrees>
              <LongitudeDegrees>2.8474453277885913848876953125</LongitudeDegrees>
            </Position>
            <AltitudeMeters>146</AltitudeMeters>
            <DistanceMeters>NAN</DistanceMeters>
          </Trackpoint>
          <Trackpoint>
            <Time>2020-02-15T12:13:45.000Z</Time>
            <Position>
              <LatitudeDegrees>41.99825867079198360443115234375</LatitudeDegrees>
              <LongitudeDegrees>2.8474470041692256927490234375</LongitudeDegrees>
            </Position>
            <AltitudeMeters>146.1999969482421875</AltitudeMeters>
            <DistanceMeters>NAN</DistanceMeters>
          </Trackpoint>
          <Trackpoint>
            <Time>2020-02-15T12:13:46.000Z</Time>
            <Position>
              <LatitudeDegrees>41.998281888663768768310546875</LatitudeDegrees>
              <LongitudeDegrees>2.847449518740177154541015625</LongitudeDegrees>
            </Position>
            <AltitudeMeters>146.600006103515625</AltitudeMeters>
            <DistanceMeters>NAN</DistanceMeters>
          </Trackpoint>
          <Trackpoint>
            <Time>2020-02-15T12:13:47.000Z</Time>
            <Position>
              <LatitudeDegrees>41.99830812402069568634033203125</LatitudeDegrees>
              <LongitudeDegrees>2.8474533744156360626220703125</LongitudeDegrees>
            </Position>
            <AltitudeMeters>146.8000030517578125</AltitudeMeters>
            <DistanceMeters>NAN</DistanceMeters>
          </Trackpoint>
          <Trackpoint>
            <Time>2020-02-15T12:13:48.000Z</Time>
            <Position>
              <LatitudeDegrees>41.99833729304373264312744140625</LatitudeDegrees>
              <LongitudeDegrees>2.8474594093859195709228515625</LongitudeDegrees>
            </Position>
            <AltitudeMeters>146.8000030517578125</AltitudeMeters>
            <DistanceMeters>NAN</DistanceMeters>
          </Trackpoint>
          <Trackpoint>
            <Time>2020-02-15T12:13:49.000Z</Time>
            <Position>
              <LatitudeDegrees>41.99836679734289646148681640625</LatitudeDegrees>
              <LongitudeDegrees>2.84746686927974224090576171875</LongitudeDegrees>
            </Position>
            <AltitudeMeters>147.1999969482421875</AltitudeMeters>
            <DistanceMeters>NAN</DistanceMeters>
          </Trackpoint>
          <Trackpoint>
            <Time>2020-02-15T12:13:50.000Z</Time>
            <Position>
              <LatitudeDegrees>41.9983963854610919952392578125</LatitudeDegrees>
              <LongitudeDegrees>2.84747709520161151885986328125</LongitudeDegrees>
            </Position>
            <AltitudeMeters>147.600006103515625</AltitudeMeters>
            <DistanceMeters>NAN</DistanceMeters>
          </Trackpoint>
          <Trackpoint>
            <Time>2020-02-15T12:13:53.000Z</Time>
            <Position>
              <LatitudeDegrees>41.99847844429314136505126953125</LatitudeDegrees>
              <LongitudeDegrees>2.84752721898257732391357421875</LongitudeDegrees>
            </Position>
            <AltitudeMeters>148.600006103515625</AltitudeMeters>
            <DistanceMeters>NAN</DistanceMeters>
          </Trackpoint>
          <Trackpoint>
            <Time>2020-02-15T12:13:54.000Z</Time>
            <Position>
              <LatitudeDegrees>41.9984993152320384979248046875</LatitudeDegrees>
              <LongitudeDegrees>2.84755504690110683441162109375</LongitudeDegrees>
            </Position>
            <AltitudeMeters>148.8000030517578125</AltitudeMeters>
            <DistanceMeters>NAN</DistanceMeters>
          </Trackpoint>
          <Trackpoint>
            <Time>2020-02-15T12:13:55.000Z</Time>
            <Position>
              <LatitudeDegrees>41.99851733632385730743408203125</LatitudeDegrees>
              <LongitudeDegrees>2.847585640847682952880859375</LongitudeDegrees>
            </Position>
            <AltitudeMeters>148.8000030517578125</AltitudeMeters>
            <DistanceMeters>NAN</DistanceMeters>
          </Trackpoint>
          <Trackpoint>
            <Time>2020-02-15T12:13:56.000Z</Time>
            <Position>
              <LatitudeDegrees>41.9985331781208515167236328125</LatitudeDegrees>
              <LongitudeDegrees>2.8476190008223056793212890625</LongitudeDegrees>
            </Position>
            <AltitudeMeters>148.8000030517578125</AltitudeMeters>
            <DistanceMeters>NAN</DistanceMeters>
          </Trackpoint>
          <Trackpoint>
            <Time>2020-02-15T12:13:57.000Z</Time>
            <Position>
              <LatitudeDegrees>41.9985486008226871490478515625</LatitudeDegrees>
              <LongitudeDegrees>2.84765345044434070587158203125</LongitudeDegrees>
            </Position>
            <AltitudeMeters>148.8000030517578125</AltitudeMeters>
            <DistanceMeters>NAN</DistanceMeters>
          </Trackpoint>
          <Trackpoint>
            <Time>2020-02-15T12:13:59.000Z</Time>
            <Position>
              <LatitudeDegrees>41.9985797815024852752685546875</LatitudeDegrees>
              <LongitudeDegrees>2.84771648235619068145751953125</LongitudeDegrees>
            </Position>
            <AltitudeMeters>148.8000030517578125</AltitudeMeters>
            <DistanceMeters>NAN</DistanceMeters>
          </Trackpoint>
          <Trackpoint>
            <Time>2020-02-15T12:14:00.000Z</Time>
            <Position>
              <LatitudeDegrees>41.9985960423946380615234375</LatitudeDegrees>
              <LongitudeDegrees>2.847748585045337677001953125</LongitudeDegrees>
            </Position>
            <AltitudeMeters>149</AltitudeMeters>
            <DistanceMeters>NAN</DistanceMeters>
          </Trackpoint>
          <Trackpoint>
            <Time>2020-02-15T12:14:01.000Z</Time>
            <Position>
              <LatitudeDegrees>41.99861138127744197845458984375</LatitudeDegrees>
              <LongitudeDegrees>2.84777632914483547210693359375</LongitudeDegrees>
            </Position>
            <AltitudeMeters>149.1999969482421875</AltitudeMeters>
            <DistanceMeters>NAN</DistanceMeters>
          </Trackpoint>
          <Trackpoint>
            <Time>2020-02-15T12:14:02.000Z</Time>
            <Position>
              <LatitudeDegrees>41.99862747453153133392333984375</LatitudeDegrees>
              <LongitudeDegrees>2.8478027321398258209228515625</LongitudeDegrees>
            </Position>
            <AltitudeMeters>149.1999969482421875</AltitudeMeters>
            <DistanceMeters>NAN</DistanceMeters>
          </Trackpoint>
          <Trackpoint>
            <Time>2020-02-15T12:14:03.000Z</Time>
            <Position>
              <LatitudeDegrees>41.99864440597593784332275390625</LatitudeDegrees>
              <LongitudeDegrees>2.8478285484015941619873046875</LongitudeDegrees>
            </Position>
            <AltitudeMeters>149.1999969482421875</AltitudeMeters>
            <DistanceMeters>NAN</DistanceMeters>
          </Trackpoint>
          <Trackpoint>
            <Time>2020-02-15T12:14:04.000Z</Time>
            <Position>
              <LatitudeDegrees>41.99866217561066150665283203125</LatitudeDegrees>
              <LongitudeDegrees>2.84785486757755279541015625</LongitudeDegrees>
            </Position>
            <AltitudeMeters>149.1999969482421875</AltitudeMeters>
            <DistanceMeters>NAN</DistanceMeters>
          </Trackpoint>
          <Trackpoint>
            <Time>2020-02-15T12:14:05.000Z</Time>
            <Position>
              <LatitudeDegrees>41.9986786879599094390869140625</LatitudeDegrees>
              <LongitudeDegrees>2.84788127057254314422607421875</LongitudeDegrees>
            </Position>
            <AltitudeMeters>149.1999969482421875</AltitudeMeters>
            <DistanceMeters>NAN</DistanceMeters>
          </Trackpoint>
          <Trackpoint>
            <Time>2020-02-15T12:14:06.000Z</Time>
            <Position>
              <LatitudeDegrees>41.99869620613753795623779296875</LatitudeDegrees>
              <LongitudeDegrees>2.84790557809174060821533203125</LongitudeDegrees>
            </Position>
            <AltitudeMeters>149.399993896484375</AltitudeMeters>
            <DistanceMeters>NAN</DistanceMeters>
          </Trackpoint>
          <Trackpoint>
            <Time>2020-02-15T12:14:07.000Z</Time>
            <Position>
              <LatitudeDegrees>41.9987152330577373504638671875</LatitudeDegrees>
              <LongitudeDegrees>2.84792753867805004119873046875</LongitudeDegrees>
            </Position>
            <AltitudeMeters>149.600006103515625</AltitudeMeters>
            <DistanceMeters>NAN</DistanceMeters>
          </Trackpoint>
          <Trackpoint>
            <Time>2020-02-15T12:14:08.000Z</Time>
            <Position>
              <LatitudeDegrees>41.9987356849014759063720703125</LatitudeDegrees>
              <LongitudeDegrees>2.8479479067027568817138671875</LongitudeDegrees>
            </Position>
            <AltitudeMeters>149.600006103515625</AltitudeMeters>
            <DistanceMeters>NAN</DistanceMeters>
          </Trackpoint>
          <Trackpoint>
            <Time>2020-02-15T12:14:09.000Z</Time>
            <Position>
              <LatitudeDegrees>41.99875764548778533935546875</LatitudeDegrees>
              <LongitudeDegrees>2.84796693362295627593994140625</LongitudeDegrees>
            </Position>
            <AltitudeMeters>149.8000030517578125</AltitudeMeters>
            <DistanceMeters>NAN</DistanceMeters>
          </Trackpoint>
          <Trackpoint>
            <Time>2020-02-15T12:14:10.000Z</Time>
            <Position>
              <LatitudeDegrees>41.9987849704921245574951171875</LatitudeDegrees>
              <LongitudeDegrees>2.84798218868672847747802734375</LongitudeDegrees>
            </Position>
            <AltitudeMeters>150</AltitudeMeters>
            <DistanceMeters>NAN</DistanceMeters>
          </Trackpoint>
          <Trackpoint>
            <Time>2020-02-15T12:14:11.000Z</Time>
            <Position>
              <LatitudeDegrees>41.99881757609546184539794921875</LatitudeDegrees>
              <LongitudeDegrees>2.847991995513439178466796875</LongitudeDegrees>
            </Position>
            <AltitudeMeters>150</AltitudeMeters>
            <DistanceMeters>NAN</DistanceMeters>
          </Trackpoint>
          <Trackpoint>
            <Time>2020-02-15T12:14:12.000Z</Time>
            <Position>
              <LatitudeDegrees>41.9988496787846088409423828125</LatitudeDegrees>
              <LongitudeDegrees>2.84800046123564243316650390625</LongitudeDegrees>
            </Position>
            <AltitudeMeters>150.600006103515625</AltitudeMeters>
            <DistanceMeters>NAN</DistanceMeters>
          </Trackpoint>
          <Trackpoint>
            <Time>2020-02-15T12:14:13.000Z</Time>
            <Position>
              <LatitudeDegrees>41.99887775816023349761962890625</LatitudeDegrees>
              <LongitudeDegrees>2.848008759319782257080078125</LongitudeDegrees>
            </Position>
            <AltitudeMeters>150.600006103515625</AltitudeMeters>
            <DistanceMeters>NAN</DistanceMeters>
          </Trackpoint>
          <Trackpoint>
            <Time>2020-02-15T12:14:14.000Z</Time>
            <Position>
              <LatitudeDegrees>41.99890525080263614654541015625</LatitudeDegrees>
              <LongitudeDegrees>2.84801621921360492706298828125</LongitudeDegrees>
            </Position>
            <AltitudeMeters>151</AltitudeMeters>
            <DistanceMeters>NAN</DistanceMeters>
          </Trackpoint>
          <Trackpoint>
            <Time>2020-02-15T12:14:15.000Z</Time>
            <Position>
              <LatitudeDegrees>41.99893073178827762603759765625</LatitudeDegrees>
              <LongitudeDegrees>2.8480218350887298583984375</LongitudeDegrees>
            </Position>
            <AltitudeMeters>151</AltitudeMeters>
            <DistanceMeters>NAN</DistanceMeters>
          </Trackpoint>
          <Trackpoint>
            <Time>2020-02-15T12:14:16.000Z</Time>
            <Position>
              <LatitudeDegrees>41.99895369820296764373779296875</LatitudeDegrees>
              <LongitudeDegrees>2.84802694804966449737548828125</LongitudeDegrees>
            </Position>
            <AltitudeMeters>151.399993896484375</AltitudeMeters>
            <DistanceMeters>NAN</DistanceMeters>
          </Trackpoint>
          <Trackpoint>
            <Time>2020-02-15T12:14:17.000Z</Time>
            <Position>
              <LatitudeDegrees>41.99897331185638904571533203125</LatitudeDegrees>
              <LongitudeDegrees>2.84802921116352081298828125</LongitudeDegrees>
            </Position>
            <AltitudeMeters>151.399993896484375</AltitudeMeters>
            <DistanceMeters>NAN</DistanceMeters>
          </Trackpoint>
          <Trackpoint>
            <Time>2020-02-15T12:14:18.000Z</Time>
            <Position>
              <LatitudeDegrees>41.9989911653101444244384765625</LatitudeDegrees>
              <LongitudeDegrees>2.848031222820281982421875</LongitudeDegrees>
            </Position>
            <AltitudeMeters>151.600006103515625</AltitudeMeters>
            <DistanceMeters>NAN</DistanceMeters>
          </Trackpoint>
          <Trackpoint>
            <Time>2020-02-15T12:14:19.000Z</Time>
            <Position>
              <LatitudeDegrees>41.9990079291164875030517578125</LatitudeDegrees>
              <LongitudeDegrees>2.8480347432196140289306640625</LongitudeDegrees>
            </Position>
            <AltitudeMeters>151.8000030517578125</AltitudeMeters>
            <DistanceMeters>NAN</DistanceMeters>
          </Trackpoint>
          <Trackpoint>
            <Time>2020-02-15T12:14:20.000Z</Time>
            <Position>
              <LatitudeDegrees>41.9990240223705768585205078125</LatitudeDegrees>
              <LongitudeDegrees>2.84803784452378749847412109375</LongitudeDegrees>
            </Position>
            <AltitudeMeters>151.8000030517578125</AltitudeMeters>
            <DistanceMeters>NAN</DistanceMeters>
          </Trackpoint>
          <Trackpoint>
            <Time>2020-02-15T12:14:21.000Z</Time>
            <Position>
              <LatitudeDegrees>41.999044306576251983642578125</LatitudeDegrees>
              <LongitudeDegrees>2.8480364196002483367919921875</LongitudeDegrees>
            </Position>
            <AltitudeMeters>151.8000030517578125</AltitudeMeters>
            <DistanceMeters>NAN</DistanceMeters>
          </Trackpoint>
          <Trackpoint>
            <Time>2020-02-15T12:14:22.000Z</Time>
            <Position>
              <LatitudeDegrees>41.99906618334352970123291015625</LatitudeDegrees>
              <LongitudeDegrees>2.84802912734448909759521484375</LongitudeDegrees>
            </Position>
            <AltitudeMeters>152</AltitudeMeters>
            <DistanceMeters>NAN</DistanceMeters>
          </Trackpoint>
          <Trackpoint>
            <Time>2020-02-15T12:14:23.000Z</Time>
            <Position>
              <LatitudeDegrees>41.9990853779017925262451171875</LatitudeDegrees>
              <LongitudeDegrees>2.84802124835550785064697265625</LongitudeDegrees>
            </Position>
            <AltitudeMeters>152</AltitudeMeters>
            <DistanceMeters>NAN</DistanceMeters>
          </Trackpoint>
          <Trackpoint>
            <Time>2020-02-15T12:14:24.000Z</Time>
            <Position>
              <LatitudeDegrees>41.999101303517818450927734375</LatitudeDegrees>
              <LongitudeDegrees>2.8480139560997486114501953125</LongitudeDegrees>
            </Position>
            <AltitudeMeters>152.1999969482421875</AltitudeMeters>
            <DistanceMeters>NAN</DistanceMeters>
          </Trackpoint>
          <Trackpoint>
            <Time>2020-02-15T12:14:25.000Z</Time>
            <Position>
              <LatitudeDegrees>41.9991148822009563446044921875</LatitudeDegrees>
              <LongitudeDegrees>2.848006077110767364501953125</LongitudeDegrees>
            </Position>
            <AltitudeMeters>152.600006103515625</AltitudeMeters>
            <DistanceMeters>NAN</DistanceMeters>
          </Trackpoint>
          <Trackpoint>
            <Time>2020-02-15T12:14:26.000Z</Time>
            <Position>
              <LatitudeDegrees>41.99912703596055507659912109375</LatitudeDegrees>
              <LongitudeDegrees>2.8479985333979129791259765625</LongitudeDegrees>
            </Position>
            <AltitudeMeters>153</AltitudeMeters>
            <DistanceMeters>NAN</DistanceMeters>
          </Trackpoint>
          <Trackpoint>
            <Time>2020-02-15T12:14:27.000Z</Time>
            <Position>
              <LatitudeDegrees>41.99913918972015380859375</LatitudeDegrees>
              <LongitudeDegrees>2.847989983856678009033203125</LongitudeDegrees>
            </Position>
            <AltitudeMeters>153</AltitudeMeters>
            <DistanceMeters>NAN</DistanceMeters>
          </Trackpoint>
          <Trackpoint>
            <Time>2020-02-15T12:14:28.000Z</Time>
            <Position>
              <LatitudeDegrees>41.9991520978510379791259765625</LatitudeDegrees>
              <LongitudeDegrees>2.847981266677379608154296875</LongitudeDegrees>
            </Position>
            <AltitudeMeters>153.1999969482421875</AltitudeMeters>
            <DistanceMeters>NAN</DistanceMeters>
          </Trackpoint>
          <Trackpoint>
            <Time>2020-02-15T12:14:29.000Z</Time>
            <Position>
              <LatitudeDegrees>41.999166347086429595947265625</LatitudeDegrees>
              <LongitudeDegrees>2.84797363914549350738525390625</LongitudeDegrees>
            </Position>
            <AltitudeMeters>153.399993896484375</AltitudeMeters>
            <DistanceMeters>NAN</DistanceMeters>
          </Trackpoint>
          <Trackpoint>
            <Time>2020-02-15T12:14:30.000Z</Time>
            <Position>
              <LatitudeDegrees>41.9991802610456943511962890625</LatitudeDegrees>
              <LongitudeDegrees>2.84796559251844882965087890625</LongitudeDegrees>
            </Position>
            <AltitudeMeters>153.8000030517578125</AltitudeMeters>
            <DistanceMeters>NAN</DistanceMeters>
          </Trackpoint>
          <Trackpoint>
            <Time>2020-02-15T12:14:31.000Z</Time>
            <Position>
              <LatitudeDegrees>41.99919509701430797576904296875</LatitudeDegrees>
              <LongitudeDegrees>2.84795721061527729034423828125</LongitudeDegrees>
            </Position>
            <AltitudeMeters>154.1999969482421875</AltitudeMeters>
            <DistanceMeters>NAN</DistanceMeters>
          </Trackpoint>
          <Trackpoint>
            <Time>2020-02-15T12:14:32.000Z</Time>
            <Position>
              <LatitudeDegrees>41.99921169318258762359619140625</LatitudeDegrees>
              <LongitudeDegrees>2.84794740378856658935546875</LongitudeDegrees>
            </Position>
            <AltitudeMeters>154.8000030517578125</AltitudeMeters>
            <DistanceMeters>NAN</DistanceMeters>
          </Trackpoint>
          <Trackpoint>
            <Time>2020-02-15T12:14:33.000Z</Time>
            <Position>
              <LatitudeDegrees>41.9992288760840892791748046875</LatitudeDegrees>
              <LongitudeDegrees>2.847937680780887603759765625</LongitudeDegrees>
            </Position>
            <AltitudeMeters>155.1999969482421875</AltitudeMeters>
            <DistanceMeters>NAN</DistanceMeters>
          </Trackpoint>
          <Trackpoint>
            <Time>2020-02-15T12:14:34.000Z</Time>
            <Position>
              <LatitudeDegrees>41.9992459751665592193603515625</LatitudeDegrees>
              <LongitudeDegrees>2.84792837686836719512939453125</LongitudeDegrees>
            </Position>
            <AltitudeMeters>155.600006103515625</AltitudeMeters>
            <DistanceMeters>NAN</DistanceMeters>
          </Trackpoint>
          <Trackpoint>
            <Time>2020-02-15T12:14:35.000Z</Time>
            <Position>
              <LatitudeDegrees>41.99926282279193401336669921875</LatitudeDegrees>
              <LongitudeDegrees>2.84792033024132251739501953125</LongitudeDegrees>
            </Position>
            <AltitudeMeters>155.8000030517578125</AltitudeMeters>
            <DistanceMeters>NAN</DistanceMeters>
          </Trackpoint>
          <Trackpoint>
            <Time>2020-02-15T12:14:36.000Z</Time>
            <Position>
              <LatitudeDegrees>41.99927925132215023040771484375</LatitudeDegrees>
              <LongitudeDegrees>2.847913540899753570556640625</LongitudeDegrees>
            </Position>
            <AltitudeMeters>156</AltitudeMeters>
            <DistanceMeters>NAN</DistanceMeters>
          </Trackpoint>
          <Trackpoint>
            <Time>2020-02-15T12:14:37.000Z</Time>
            <Position>
              <LatitudeDegrees>41.999297104775905609130859375</LatitudeDegrees>
              <LongitudeDegrees>2.84790608100593090057373046875</LongitudeDegrees>
            </Position>
            <AltitudeMeters>156.399993896484375</AltitudeMeters>
            <DistanceMeters>NAN</DistanceMeters>
          </Trackpoint>
          <Trackpoint>
            <Time>2020-02-15T12:14:38.000Z</Time>
            <Position>
              <LatitudeDegrees>41.99931596405804157257080078125</LatitudeDegrees>
              <LongitudeDegrees>2.8478992916643619537353515625</LongitudeDegrees>
            </Position>
            <AltitudeMeters>156.600006103515625</AltitudeMeters>
            <DistanceMeters>NAN</DistanceMeters>
          </Trackpoint>
          <Trackpoint>
            <Time>2020-02-15T12:14:39.000Z</Time>
            <Position>
              <LatitudeDegrees>41.99933432042598724365234375</LatitudeDegrees>
              <LongitudeDegrees>2.84789149649441242218017578125</LongitudeDegrees>
            </Position>
            <AltitudeMeters>156.8000030517578125</AltitudeMeters>
            <DistanceMeters>NAN</DistanceMeters>
          </Trackpoint>
          <Trackpoint>
            <Time>2020-02-15T12:14:40.000Z</Time>
            <Position>
              <LatitudeDegrees>41.99935217387974262237548828125</LatitudeDegrees>
              <LongitudeDegrees>2.847884707152843475341796875</LongitudeDegrees>
            </Position>
            <AltitudeMeters>157</AltitudeMeters>
            <DistanceMeters>NAN</DistanceMeters>
          </Trackpoint>
          <Trackpoint>
            <Time>2020-02-15T12:14:41.000Z</Time>
            <Position>
              <LatitudeDegrees>41.99937178753316402435302734375</LatitudeDegrees>
              <LongitudeDegrees>2.84787976182997226715087890625</LongitudeDegrees>
            </Position>
            <AltitudeMeters>157.399993896484375</AltitudeMeters>
            <DistanceMeters>NAN</DistanceMeters>
          </Trackpoint>
          <Trackpoint>
            <Time>2020-02-15T12:14:42.000Z</Time>
            <Position>
              <LatitudeDegrees>41.99939274229109287261962890625</LatitudeDegrees>
              <LongitudeDegrees>2.847875654697418212890625</LongitudeDegrees>
            </Position>
            <AltitudeMeters>157.399993896484375</AltitudeMeters>
            <DistanceMeters>NAN</DistanceMeters>
          </Trackpoint>
          <Trackpoint>
            <Time>2020-02-15T12:14:43.000Z</Time>
            <Position>
              <LatitudeDegrees>41.999415792524814605712890625</LatitudeDegrees>
              <LongitudeDegrees>2.84787305630743503570556640625</LongitudeDegrees>
            </Position>
            <AltitudeMeters>157.600006103515625</AltitudeMeters>
            <DistanceMeters>NAN</DistanceMeters>
          </Trackpoint>
          <Trackpoint>
            <Time>2020-02-15T12:14:44.000Z</Time>
            <Position>
              <LatitudeDegrees>41.999439932405948638916015625</LatitudeDegrees>
              <LongitudeDegrees>2.8478711284697055816650390625</LongitudeDegrees>
            </Position>
            <AltitudeMeters>157.600006103515625</AltitudeMeters>
            <DistanceMeters>NAN</DistanceMeters>
          </Trackpoint>
          <Trackpoint>
            <Time>2020-02-15T12:14:45.000Z</Time>
            <Position>
              <LatitudeDegrees>41.99946465902030467987060546875</LatitudeDegrees>
              <LongitudeDegrees>2.84786886535584926605224609375</LongitudeDegrees>
            </Position>
            <AltitudeMeters>158</AltitudeMeters>
            <DistanceMeters>NAN</DistanceMeters>
          </Trackpoint>
          <Trackpoint>
            <Time>2020-02-15T12:14:46.000Z</Time>
            <Position>
              <LatitudeDegrees>41.99948997236788272857666015625</LatitudeDegrees>
              <LongitudeDegrees>2.84786668606102466583251953125</LongitudeDegrees>
            </Position>
            <AltitudeMeters>158.1999969482421875</AltitudeMeters>
            <DistanceMeters>NAN</DistanceMeters>
          </Trackpoint>
          <Trackpoint>
            <Time>2020-02-15T12:14:47.000Z</Time>
            <Position>
              <LatitudeDegrees>41.99951511807739734649658203125</LatitudeDegrees>
              <LongitudeDegrees>2.847865261137485504150390625</LongitudeDegrees>
            </Position>
            <AltitudeMeters>158.1999969482421875</AltitudeMeters>
            <DistanceMeters>NAN</DistanceMeters>
          </Trackpoint>
          <Trackpoint>
            <Time>2020-02-15T12:14:48.000Z</Time>
            <Position>
              <LatitudeDegrees>41.9995401799678802490234375</LatitudeDegrees>
              <LongitudeDegrees>2.8478654287755489349365234375</LongitudeDegrees>
            </Position>
            <AltitudeMeters>158.399993896484375</AltitudeMeters>
            <DistanceMeters>NAN</DistanceMeters>
          </Trackpoint>
          <Trackpoint>
            <Time>2020-02-15T12:14:49.000Z</Time>
            <Position>
              <LatitudeDegrees>41.99956306256353855133056640625</LatitudeDegrees>
              <LongitudeDegrees>2.84786350093781948089599609375</LongitudeDegrees>
            </Position>
            <AltitudeMeters>158.8000030517578125</AltitudeMeters>
            <DistanceMeters>NAN</DistanceMeters>
          </Trackpoint>
          <Trackpoint>
            <Time>2020-02-15T12:14:50.000Z</Time>
            <Position>
              <LatitudeDegrees>41.9995844364166259765625</LatitudeDegrees>
              <LongitudeDegrees>2.84785780124366283416748046875</LongitudeDegrees>
            </Position>
            <AltitudeMeters>158.8000030517578125</AltitudeMeters>
            <DistanceMeters>NAN</DistanceMeters>
          </Trackpoint>
          <Trackpoint>
            <Time>2020-02-15T12:14:51.000Z</Time>
            <Position>
              <LatitudeDegrees>41.99960866011679172515869140625</LatitudeDegrees>
              <LongitudeDegrees>2.84785361029207706451416015625</LongitudeDegrees>
            </Position>
            <AltitudeMeters>158.8000030517578125</AltitudeMeters>
            <DistanceMeters>NAN</DistanceMeters>
          </Trackpoint>
          <Trackpoint>
            <Time>2020-02-15T12:14:52.000Z</Time>
            <Position>
              <LatitudeDegrees>41.999635733664035797119140625</LatitudeDegrees>
              <LongitudeDegrees>2.8478523530066013336181640625</LongitudeDegrees>
            </Position>
            <AltitudeMeters>159</AltitudeMeters>
            <DistanceMeters>NAN</DistanceMeters>
          </Trackpoint>
          <Trackpoint>
            <Time>2020-02-15T12:14:55.000Z</Time>
            <Position>
              <LatitudeDegrees>41.99973262846469879150390625</LatitudeDegrees>
              <LongitudeDegrees>2.84785084426403045654296875</LongitudeDegrees>
            </Position>
            <AltitudeMeters>159.1999969482421875</AltitudeMeters>
            <DistanceMeters>NAN</DistanceMeters>
          </Trackpoint>
          <Trackpoint>
            <Time>2020-02-15T12:14:57.000Z</Time>
            <Position>
              <LatitudeDegrees>41.9998075626790523529052734375</LatitudeDegrees>
              <LongitudeDegrees>2.84783701412379741668701171875</LongitudeDegrees>
            </Position>
            <AltitudeMeters>159.600006103515625</AltitudeMeters>
            <DistanceMeters>NAN</DistanceMeters>
          </Trackpoint>
          <Trackpoint>
            <Time>2020-02-15T12:14:58.000Z</Time>
            <Position>
              <LatitudeDegrees>41.9998486340045928955078125</LatitudeDegrees>
              <LongitudeDegrees>2.84782092086970806121826171875</LongitudeDegrees>
            </Position>
            <AltitudeMeters>159.600006103515625</AltitudeMeters>
            <DistanceMeters>NAN</DistanceMeters>
          </Trackpoint>
          <Trackpoint>
            <Time>2020-02-15T12:14:59.000Z</Time>
            <Position>
              <LatitudeDegrees>41.99989045970141887664794921875</LatitudeDegrees>
              <LongitudeDegrees>2.84779912792146205902099609375</LongitudeDegrees>
            </Position>
            <AltitudeMeters>159.600006103515625</AltitudeMeters>
            <DistanceMeters>NAN</DistanceMeters>
          </Trackpoint>
          <Trackpoint>
            <Time>2020-02-15T12:15:00.000Z</Time>
            <Position>
              <LatitudeDegrees>41.99993186630308628082275390625</LatitudeDegrees>
              <LongitudeDegrees>2.8477725572884082794189453125</LongitudeDegrees>
            </Position>
            <AltitudeMeters>159.600006103515625</AltitudeMeters>
            <DistanceMeters>NAN</DistanceMeters>
          </Trackpoint>
          <Trackpoint>
            <Time>2020-02-15T12:15:04.000Z</Time>
            <Position>
              <LatitudeDegrees>42.00009698979556560516357421875</LatitudeDegrees>
              <LongitudeDegrees>2.8476602397859096527099609375</LongitudeDegrees>
            </Position>
            <AltitudeMeters>159.600006103515625</AltitudeMeters>
            <DistanceMeters>NAN</DistanceMeters>
          </Trackpoint>
          <Trackpoint>
            <Time>2020-02-15T12:15:06.000Z</Time>
            <Position>
              <LatitudeDegrees>42.000178210437297821044921875</LatitudeDegrees>
              <LongitudeDegrees>2.84760919399559497833251953125</LongitudeDegrees>
            </Position>
            <AltitudeMeters>160</AltitudeMeters>
            <DistanceMeters>NAN</DistanceMeters>
          </Trackpoint>
          <Trackpoint>
            <Time>2020-02-15T12:15:07.000Z</Time>
            <Position>
              <LatitudeDegrees>42.00021810829639434814453125</LatitudeDegrees>
              <LongitudeDegrees>2.847591005265712738037109375</LongitudeDegrees>
            </Position>
            <AltitudeMeters>160</AltitudeMeters>
            <DistanceMeters>NAN</DistanceMeters>
          </Trackpoint>
          <Trackpoint>
            <Time>2020-02-15T12:15:08.000Z</Time>
            <Position>
              <LatitudeDegrees>42.000258006155490875244140625</LatitudeDegrees>
              <LongitudeDegrees>2.84757583402097225189208984375</LongitudeDegrees>
            </Position>
            <AltitudeMeters>160</AltitudeMeters>
            <DistanceMeters>NAN</DistanceMeters>
          </Trackpoint>
          <Trackpoint>
            <Time>2020-02-15T12:15:09.000Z</Time>
            <Position>
              <LatitudeDegrees>42.00029815547168254852294921875</LatitudeDegrees>
              <LongitudeDegrees>2.8475660271942615509033203125</LongitudeDegrees>
            </Position>
            <AltitudeMeters>160</AltitudeMeters>
            <DistanceMeters>NAN</DistanceMeters>
          </Trackpoint>
          <Trackpoint>
            <Time>2020-02-15T12:15:10.000Z</Time>
            <Position>
              <LatitudeDegrees>42.0003376342356204986572265625</LatitudeDegrees>
              <LongitudeDegrees>2.84756409935653209686279296875</LongitudeDegrees>
            </Position>
            <AltitudeMeters>160</AltitudeMeters>
            <DistanceMeters>NAN</DistanceMeters>
          </Trackpoint>
          <Trackpoint>
            <Time>2020-02-15T12:15:11.000Z</Time>
            <Position>
              <LatitudeDegrees>42.0003745146095752716064453125</LatitudeDegrees>
              <LongitudeDegrees>2.84756678156554698944091796875</LongitudeDegrees>
            </Position>
            <AltitudeMeters>160</AltitudeMeters>
            <DistanceMeters>NAN</DistanceMeters>
          </Trackpoint>
          <Trackpoint>
            <Time>2020-02-15T12:15:12.000Z</Time>
            <Position>
              <LatitudeDegrees>42.000407539308071136474609375</LatitudeDegrees>
              <LongitudeDegrees>2.84756912849843502044677734375</LongitudeDegrees>
            </Position>
            <AltitudeMeters>160</AltitudeMeters>
            <DistanceMeters>NAN</DistanceMeters>
          </Trackpoint>
          <Trackpoint>
            <Time>2020-02-15T12:15:13.000Z</Time>
            <Position>
              <LatitudeDegrees>42.0004388876259326934814453125</LatitudeDegrees>
              <LongitudeDegrees>2.8475631773471832275390625</LongitudeDegrees>
            </Position>
            <AltitudeMeters>160.1999969482421875</AltitudeMeters>
            <DistanceMeters>NAN</DistanceMeters>
          </Trackpoint>
          <Trackpoint>
            <Time>2020-02-15T12:15:14.000Z</Time>
            <Position>
              <LatitudeDegrees>42.00046931393444538116455078125</LatitudeDegrees>
              <LongitudeDegrees>2.84755052067339420318603515625</LongitudeDegrees>
            </Position>
            <AltitudeMeters>160.1999969482421875</AltitudeMeters>
            <DistanceMeters>NAN</DistanceMeters>
          </Trackpoint>
          <Trackpoint>
            <Time>2020-02-15T12:15:15.000Z</Time>
            <Position>
              <LatitudeDegrees>42.000499069690704345703125</LatitudeDegrees>
              <LongitudeDegrees>2.8475294820964336395263671875</LongitudeDegrees>
            </Position>
            <AltitudeMeters>160.399993896484375</AltitudeMeters>
            <DistanceMeters>NAN</DistanceMeters>
          </Trackpoint>
          <Trackpoint>
            <Time>2020-02-15T12:15:16.000Z</Time>
            <Position>
              <LatitudeDegrees>42.00053251348435878753662109375</LatitudeDegrees>
              <LongitudeDegrees>2.84750324673950672149658203125</LongitudeDegrees>
            </Position>
            <AltitudeMeters>160.600006103515625</AltitudeMeters>
            <DistanceMeters>NAN</DistanceMeters>
          </Trackpoint>
          <Trackpoint>
            <Time>2020-02-15T12:15:17.000Z</Time>
            <Position>
              <LatitudeDegrees>42.000569812953472137451171875</LatitudeDegrees>
              <LongitudeDegrees>2.84747474826872348785400390625</LongitudeDegrees>
            </Position>
            <AltitudeMeters>160.8000030517578125</AltitudeMeters>
            <DistanceMeters>NAN</DistanceMeters>
          </Trackpoint>
          <Trackpoint>
            <Time>2020-02-15T12:15:19.000Z</Time>
            <Position>
              <LatitudeDegrees>42.000654973089694976806640625</LatitudeDegrees>
              <LongitudeDegrees>2.84742160700261592864990234375</LongitudeDegrees>
            </Position>
            <AltitudeMeters>161</AltitudeMeters>
            <DistanceMeters>NAN</DistanceMeters>
          </Trackpoint>
          <Trackpoint>
            <Time>2020-02-15T12:15:21.000Z</Time>
            <Position>
              <LatitudeDegrees>42.000750862061977386474609375</LatitudeDegrees>
              <LongitudeDegrees>2.84739612601697444915771484375</LongitudeDegrees>
            </Position>
            <AltitudeMeters>161</AltitudeMeters>
            <DistanceMeters>NAN</DistanceMeters>
          </Trackpoint>
          <Trackpoint>
            <Time>2020-02-15T12:15:22.000Z</Time>
            <Position>
              <LatitudeDegrees>42.000798471271991729736328125</LatitudeDegrees>
              <LongitudeDegrees>2.8474030829966068267822265625</LongitudeDegrees>
            </Position>
            <AltitudeMeters>161</AltitudeMeters>
            <DistanceMeters>NAN</DistanceMeters>
          </Trackpoint>
          <Trackpoint>
            <Time>2020-02-15T12:15:23.000Z</Time>
            <Position>
              <LatitudeDegrees>42.00084306299686431884765625</LatitudeDegrees>
              <LongitudeDegrees>2.8474210202693939208984375</LongitudeDegrees>
            </Position>
            <AltitudeMeters>161</AltitudeMeters>
            <DistanceMeters>NAN</DistanceMeters>
          </Trackpoint>
          <Trackpoint>
            <Time>2020-02-15T12:15:24.000Z</Time>
            <Position>
              <LatitudeDegrees>42.00088287703692913055419921875</LatitudeDegrees>
              <LongitudeDegrees>2.8474493511021137237548828125</LongitudeDegrees>
            </Position>
            <AltitudeMeters>161</AltitudeMeters>
            <DistanceMeters>NAN</DistanceMeters>
          </Trackpoint>
          <Trackpoint>
            <Time>2020-02-15T12:15:25.000Z</Time>
            <Position>
              <LatitudeDegrees>42.00091590173542499542236328125</LatitudeDegrees>
              <LongitudeDegrees>2.8474835492670536041259765625</LongitudeDegrees>
            </Position>
            <AltitudeMeters>161</AltitudeMeters>
            <DistanceMeters>NAN</DistanceMeters>
          </Trackpoint>
          <Trackpoint>
            <Time>2020-02-15T12:15:26.000Z</Time>
            <Position>
              <LatitudeDegrees>42.0009438134729862213134765625</LatitudeDegrees>
              <LongitudeDegrees>2.8475177474319934844970703125</LongitudeDegrees>
            </Position>
            <AltitudeMeters>161</AltitudeMeters>
            <DistanceMeters>NAN</DistanceMeters>
          </Trackpoint>
          <Trackpoint>
            <Time>2020-02-15T12:15:27.000Z</Time>
            <Position>
              <LatitudeDegrees>42.00096686370670795440673828125</LatitudeDegrees>
              <LongitudeDegrees>2.84754817374050617218017578125</LongitudeDegrees>
            </Position>
            <AltitudeMeters>161</AltitudeMeters>
            <DistanceMeters>NAN</DistanceMeters>
          </Trackpoint>
          <Trackpoint>
            <Time>2020-02-15T12:15:28.000Z</Time>
            <Position>
              <LatitudeDegrees>42.00098245404660701751708984375</LatitudeDegrees>
              <LongitudeDegrees>2.8475765883922576904296875</LongitudeDegrees>
            </Position>
            <AltitudeMeters>161</AltitudeMeters>
            <DistanceMeters>NAN</DistanceMeters>
          </Trackpoint>
          <Trackpoint>
            <Time>2020-02-15T12:15:29.000Z</Time>
            <Position>
              <LatitudeDegrees>42.0009993016719818115234375</LatitudeDegrees>
              <LongitudeDegrees>2.84760433249175548553466796875</LongitudeDegrees>
            </Position>
            <AltitudeMeters>161.1999969482421875</AltitudeMeters>
            <DistanceMeters>NAN</DistanceMeters>
          </Trackpoint>
          <Trackpoint>
            <Time>2020-02-15T12:15:30.000Z</Time>
            <Position>
              <LatitudeDegrees>42.0010165683925151824951171875</LatitudeDegrees>
              <LongitudeDegrees>2.84762361086905002593994140625</LongitudeDegrees>
            </Position>
            <AltitudeMeters>161.1999969482421875</AltitudeMeters>
            <DistanceMeters>NAN</DistanceMeters>
          </Trackpoint>
          <Trackpoint>
            <Time>2020-02-15T12:15:31.000Z</Time>
            <Position>
              <LatitudeDegrees>42.00103308074176311492919921875</LatitudeDegrees>
              <LongitudeDegrees>2.84763936884701251983642578125</LongitudeDegrees>
            </Position>
            <AltitudeMeters>161.399993896484375</AltitudeMeters>
            <DistanceMeters>NAN</DistanceMeters>
          </Trackpoint>
          <Trackpoint>
            <Time>2020-02-15T12:15:32.000Z</Time>
            <Position>
              <LatitudeDegrees>42.001049257814884185791015625</LatitudeDegrees>
              <LongitudeDegrees>2.84765236079692840576171875</LongitudeDegrees>
            </Position>
            <AltitudeMeters>161.399993896484375</AltitudeMeters>
            <DistanceMeters>NAN</DistanceMeters>
          </Trackpoint>
          <Trackpoint>
            <Time>2020-02-15T12:15:33.000Z</Time>
            <Position>
              <LatitudeDegrees>42.0010668598115444183349609375</LatitudeDegrees>
              <LongitudeDegrees>2.84766199998557567596435546875</LongitudeDegrees>
            </Position>
            <AltitudeMeters>161.600006103515625</AltitudeMeters>
            <DistanceMeters>NAN</DistanceMeters>
          </Trackpoint>
          <Trackpoint>
            <Time>2020-02-15T12:15:34.000Z</Time>
            <Position>
              <LatitudeDegrees>42.00108035467565059661865234375</LatitudeDegrees>
              <LongitudeDegrees>2.8476677834987640380859375</LongitudeDegrees>
            </Position>
            <AltitudeMeters>161.399993896484375</AltitudeMeters>
            <DistanceMeters>NAN</DistanceMeters>
          </Trackpoint>
          <Trackpoint>
            <Time>2020-02-15T12:15:35.000Z</Time>
            <Position>
              <LatitudeDegrees>42.00109443627297878265380859375</LatitudeDegrees>
              <LongitudeDegrees>2.8476731479167938232421875</LongitudeDegrees>
            </Position>
            <AltitudeMeters>161.600006103515625</AltitudeMeters>
            <DistanceMeters>NAN</DistanceMeters>
          </Trackpoint>
          <Trackpoint>
            <Time>2020-02-15T12:15:36.000Z</Time>
            <Position>
              <LatitudeDegrees>42.0011141337454319000244140625</LatitudeDegrees>
              <LongitudeDegrees>2.84767524339258670806884765625</LongitudeDegrees>
            </Position>
            <AltitudeMeters>161.600006103515625</AltitudeMeters>
            <DistanceMeters>NAN</DistanceMeters>
          </Trackpoint>
          <Trackpoint>
            <Time>2020-02-15T12:15:37.000Z</Time>
            <Position>
              <LatitudeDegrees>42.0011349208652973175048828125</LatitudeDegrees>
              <LongitudeDegrees>2.8476753272116184234619140625</LongitudeDegrees>
            </Position>
            <AltitudeMeters>161.600006103515625</AltitudeMeters>
            <DistanceMeters>NAN</DistanceMeters>
          </Trackpoint>
          <Trackpoint>
            <Time>2020-02-15T12:15:38.000Z</Time>
            <Position>
              <LatitudeDegrees>42.0011567138135433197021484375</LatitudeDegrees>
              <LongitudeDegrees>2.84767515957355499267578125</LongitudeDegrees>
            </Position>
            <AltitudeMeters>161.8000030517578125</AltitudeMeters>
            <DistanceMeters>NAN</DistanceMeters>
          </Trackpoint>
          <Trackpoint>
            <Time>2020-02-15T12:15:39.000Z</Time>
            <Position>
              <LatitudeDegrees>42.00117875821888446807861328125</LatitudeDegrees>
              <LongitudeDegrees>2.8476719744503498077392578125</LongitudeDegrees>
            </Position>
            <AltitudeMeters>162.1999969482421875</AltitudeMeters>
            <DistanceMeters>NAN</DistanceMeters>
          </Trackpoint>
          <Trackpoint>
            <Time>2020-02-15T12:15:40.000Z</Time>
            <Position>
              <LatitudeDegrees>42.00119988061487674713134765625</LatitudeDegrees>
              <LongitudeDegrees>2.84766652621328830718994140625</LongitudeDegrees>
            </Position>
            <AltitudeMeters>162.1999969482421875</AltitudeMeters>
            <DistanceMeters>NAN</DistanceMeters>
          </Trackpoint>
          <Trackpoint>
            <Time>2020-02-15T12:15:41.000Z</Time>
            <Position>
              <LatitudeDegrees>42.00121949426829814910888671875</LatitudeDegrees>
              <LongitudeDegrees>2.84766049124300479888916015625</LongitudeDegrees>
            </Position>
            <AltitudeMeters>162.600006103515625</AltitudeMeters>
            <DistanceMeters>NAN</DistanceMeters>
          </Trackpoint>
          <Trackpoint>
            <Time>2020-02-15T12:15:42.000Z</Time>
            <Position>
              <LatitudeDegrees>42.00124195776879787445068359375</LatitudeDegrees>
              <LongitudeDegrees>2.84765747375786304473876953125</LongitudeDegrees>
            </Position>
            <AltitudeMeters>162.8000030517578125</AltitudeMeters>
            <DistanceMeters>NAN</DistanceMeters>
          </Trackpoint>
          <Trackpoint>
            <Time>2020-02-15T12:15:43.000Z</Time>
            <Position>
              <LatitudeDegrees>42.00126408599317073822021484375</LatitudeDegrees>
              <LongitudeDegrees>2.8476552106440067291259765625</LongitudeDegrees>
            </Position>
            <AltitudeMeters>162.8000030517578125</AltitudeMeters>
            <DistanceMeters>NAN</DistanceMeters>
          </Trackpoint>
          <Trackpoint>
            <Time>2020-02-15T12:15:44.000Z</Time>
            <Position>
              <LatitudeDegrees>42.00128202326595783233642578125</LatitudeDegrees>
              <LongitudeDegrees>2.84765093587338924407958984375</LongitudeDegrees>
            </Position>
            <AltitudeMeters>163</AltitudeMeters>
            <DistanceMeters>NAN</DistanceMeters>
          </Trackpoint>
          <Trackpoint>
            <Time>2020-02-15T12:15:45.000Z</Time>
            <Position>
              <LatitudeDegrees>42.00129811652004718780517578125</LatitudeDegrees>
              <LongitudeDegrees>2.84764305688440799713134765625</LongitudeDegrees>
            </Position>
            <AltitudeMeters>163.1999969482421875</AltitudeMeters>
            <DistanceMeters>NAN</DistanceMeters>
          </Trackpoint>
          <Trackpoint>
            <Time>2020-02-15T12:15:46.000Z</Time>
            <Position>
              <LatitudeDegrees>42.00131823308765888214111328125</LatitudeDegrees>
              <LongitudeDegrees>2.84763501025736331939697265625</LongitudeDegrees>
            </Position>
            <AltitudeMeters>163.1999969482421875</AltitudeMeters>
            <DistanceMeters>NAN</DistanceMeters>
          </Trackpoint>
          <Trackpoint>
            <Time>2020-02-15T12:15:47.000Z</Time>
            <Position>
              <LatitudeDegrees>42.00134254060685634613037109375</LatitudeDegrees>
              <LongitudeDegrees>2.847628891468048095703125</LongitudeDegrees>
            </Position>
            <AltitudeMeters>163.399993896484375</AltitudeMeters>
            <DistanceMeters>NAN</DistanceMeters>
          </Trackpoint>
          <Trackpoint>
            <Time>2020-02-15T12:15:48.000Z</Time>
            <Position>
              <LatitudeDegrees>42.001367099583148956298828125</LatitudeDegrees>
              <LongitudeDegrees>2.84762285649776458740234375</LongitudeDegrees>
            </Position>
            <AltitudeMeters>163.399993896484375</AltitudeMeters>
            <DistanceMeters>NAN</DistanceMeters>
          </Trackpoint>
          <Trackpoint>
            <Time>2020-02-15T12:15:49.000Z</Time>
            <Position>
              <LatitudeDegrees>42.0013927482068538665771484375</LatitudeDegrees>
              <LongitudeDegrees>2.8476190008223056793212890625</LongitudeDegrees>
            </Position>
            <AltitudeMeters>164</AltitudeMeters>
            <DistanceMeters>NAN</DistanceMeters>
          </Trackpoint>
          <Trackpoint>
            <Time>2020-02-15T12:15:50.000Z</Time>
            <Position>
              <LatitudeDegrees>42.00141839683055877685546875</LatitudeDegrees>
              <LongitudeDegrees>2.84761657007038593292236328125</LongitudeDegrees>
            </Position>
            <AltitudeMeters>164.1999969482421875</AltitudeMeters>
            <DistanceMeters>NAN</DistanceMeters>
          </Trackpoint>
          <Trackpoint>
            <Time>2020-02-15T12:15:51.000Z</Time>
            <Position>
              <LatitudeDegrees>42.001443207263946533203125</LatitudeDegrees>
              <LongitudeDegrees>2.8476109541952610015869140625</LongitudeDegrees>
            </Position>
            <AltitudeMeters>164.399993896484375</AltitudeMeters>
            <DistanceMeters>NAN</DistanceMeters>
          </Trackpoint>
          <Trackpoint>
            <Time>2020-02-15T12:15:52.000Z</Time>
            <Position>
              <LatitudeDegrees>42.00146533548831939697265625</LatitudeDegrees>
              <LongitudeDegrees>2.8476022370159626007080078125</LongitudeDegrees>
            </Position>
            <AltitudeMeters>164.399993896484375</AltitudeMeters>
            <DistanceMeters>NAN</DistanceMeters>
          </Trackpoint>
          <Trackpoint>
            <Time>2020-02-15T12:15:53.000Z</Time>
            <Position>
              <LatitudeDegrees>42.001486122608184814453125</LatitudeDegrees>
              <LongitudeDegrees>2.84759595058858394622802734375</LongitudeDegrees>
            </Position>
            <AltitudeMeters>164.8000030517578125</AltitudeMeters>
            <DistanceMeters>NAN</DistanceMeters>
          </Trackpoint>
          <Trackpoint>
            <Time>2020-02-15T12:15:54.000Z</Time>
            <Position>
              <LatitudeDegrees>42.00151026248931884765625</LatitudeDegrees>
              <LongitudeDegrees>2.84759377129375934600830078125</LongitudeDegrees>
            </Position>
            <AltitudeMeters>165</AltitudeMeters>
            <DistanceMeters>NAN</DistanceMeters>
          </Trackpoint>
          <Trackpoint>
            <Time>2020-02-15T12:15:55.000Z</Time>
            <Position>
              <LatitudeDegrees>42.00153373181819915771484375</LatitudeDegrees>
              <LongitudeDegrees>2.8475918434560298919677734375</LongitudeDegrees>
            </Position>
            <AltitudeMeters>165.600006103515625</AltitudeMeters>
            <DistanceMeters>NAN</DistanceMeters>
          </Trackpoint>
          <Trackpoint>
            <Time>2020-02-15T12:15:56.000Z</Time>
            <Position>
              <LatitudeDegrees>42.001556195318698883056640625</LatitudeDegrees>
              <LongitudeDegrees>2.84758865833282470703125</LongitudeDegrees>
            </Position>
            <AltitudeMeters>165.8000030517578125</AltitudeMeters>
            <DistanceMeters>NAN</DistanceMeters>
          </Trackpoint>
          <Trackpoint>
            <Time>2020-02-15T12:15:57.000Z</Time>
            <Position>
              <LatitudeDegrees>42.00157664716243743896484375</LatitudeDegrees>
              <LongitudeDegrees>2.8475827910006046295166015625</LongitudeDegrees>
            </Position>
            <AltitudeMeters>166.1999969482421875</AltitudeMeters>
            <DistanceMeters>NAN</DistanceMeters>
          </Trackpoint>
          <Trackpoint>
            <Time>2020-02-15T12:15:58.000Z</Time>
            <Position>
              <LatitudeDegrees>42.00159617699682712554931640625</LatitudeDegrees>
              <LongitudeDegrees>2.8475791029632091522216796875</LongitudeDegrees>
            </Position>
            <AltitudeMeters>166.600006103515625</AltitudeMeters>
            <DistanceMeters>NAN</DistanceMeters>
          </Trackpoint>
          <Trackpoint>
            <Time>2020-02-15T12:15:59.000Z</Time>
            <Position>
              <LatitudeDegrees>42.00161444954574108123779296875</LatitudeDegrees>
              <LongitudeDegrees>2.84757466055452823638916015625</LongitudeDegrees>
            </Position>
            <AltitudeMeters>167.1999969482421875</AltitudeMeters>
            <DistanceMeters>NAN</DistanceMeters>
          </Trackpoint>
          <Trackpoint>
            <Time>2020-02-15T12:16:00.000Z</Time>
            <Position>
              <LatitudeDegrees>42.0016344822943210601806640625</LatitudeDegrees>
              <LongitudeDegrees>2.8475703857839107513427734375</LongitudeDegrees>
            </Position>
            <AltitudeMeters>167.8000030517578125</AltitudeMeters>
            <DistanceMeters>NAN</DistanceMeters>
          </Trackpoint>
          <Trackpoint>
            <Time>2020-02-15T12:16:01.000Z</Time>
            <Position>
              <LatitudeDegrees>42.00165736488997936248779296875</LatitudeDegrees>
              <LongitudeDegrees>2.84756912849843502044677734375</LongitudeDegrees>
            </Position>
            <AltitudeMeters>168.1999969482421875</AltitudeMeters>
            <DistanceMeters>NAN</DistanceMeters>
          </Trackpoint>
          <Trackpoint>
            <Time>2020-02-15T12:16:02.000Z</Time>
            <Position>
              <LatitudeDegrees>42.00168217532336711883544921875</LatitudeDegrees>
              <LongitudeDegrees>2.847566194832324981689453125</LongitudeDegrees>
            </Position>
            <AltitudeMeters>168.600006103515625</AltitudeMeters>
            <DistanceMeters>NAN</DistanceMeters>
          </Trackpoint>
          <Trackpoint>
            <Time>2020-02-15T12:16:03.000Z</Time>
            <Position>
              <LatitudeDegrees>42.0017109252512454986572265625</LatitudeDegrees>
              <LongitudeDegrees>2.84755940549075603485107421875</LongitudeDegrees>
            </Position>
            <AltitudeMeters>169.1999969482421875</AltitudeMeters>
            <DistanceMeters>NAN</DistanceMeters>
          </Trackpoint>
          <Trackpoint>
            <Time>2020-02-15T12:16:04.000Z</Time>
            <Position>
              <LatitudeDegrees>42.00174160301685333251953125</LatitudeDegrees>
              <LongitudeDegrees>2.84754951484501361846923828125</LongitudeDegrees>
            </Position>
            <AltitudeMeters>169.399993896484375</AltitudeMeters>
            <DistanceMeters>NAN</DistanceMeters>
          </Trackpoint>
          <Trackpoint>
            <Time>2020-02-15T12:16:05.000Z</Time>
            <Position>
              <LatitudeDegrees>42.00177253223955631256103515625</LatitudeDegrees>
              <LongitudeDegrees>2.84753744490444660186767578125</LongitudeDegrees>
            </Position>
            <AltitudeMeters>170.1999969482421875</AltitudeMeters>
            <DistanceMeters>NAN</DistanceMeters>
          </Trackpoint>
          <Trackpoint>
            <Time>2020-02-15T12:16:06.000Z</Time>
            <Position>
              <LatitudeDegrees>42.001802958548069000244140625</LatitudeDegrees>
              <LongitudeDegrees>2.84752319566905498504638671875</LongitudeDegrees>
            </Position>
            <AltitudeMeters>170.600006103515625</AltitudeMeters>
            <DistanceMeters>NAN</DistanceMeters>
          </Trackpoint>
          <Trackpoint>
            <Time>2020-02-15T12:16:08.000Z</Time>
            <Position>
              <LatitudeDegrees>42.00187227688729763031005859375</LatitudeDegrees>
              <LongitudeDegrees>2.84749235026538372039794921875</LongitudeDegrees>
            </Position>
            <AltitudeMeters>170.600006103515625</AltitudeMeters>
            <DistanceMeters>NAN</DistanceMeters>
          </Trackpoint>
          <Trackpoint>
            <Time>2020-02-15T12:16:09.000Z</Time>
            <Position>
              <LatitudeDegrees>42.00191267766058444976806640625</LatitudeDegrees>
              <LongitudeDegrees>2.84747055731713771820068359375</LongitudeDegrees>
            </Position>
            <AltitudeMeters>170.8000030517578125</AltitudeMeters>
            <DistanceMeters>NAN</DistanceMeters>
          </Trackpoint>
          <Trackpoint>
            <Time>2020-02-15T12:16:10.000Z</Time>
            <Position>
              <LatitudeDegrees>42.00195961631834506988525390625</LatitudeDegrees>
              <LongitudeDegrees>2.847443483769893646240234375</LongitudeDegrees>
            </Position>
            <AltitudeMeters>171</AltitudeMeters>
            <DistanceMeters>NAN</DistanceMeters>
          </Trackpoint>
          <Trackpoint>
            <Time>2020-02-15T12:16:12.000Z</Time>
            <Position>
              <LatitudeDegrees>42.00207763351500034332275390625</LatitudeDegrees>
              <LongitudeDegrees>2.84738288260996341705322265625</LongitudeDegrees>
            </Position>
            <AltitudeMeters>171</AltitudeMeters>
            <DistanceMeters>NAN</DistanceMeters>
          </Trackpoint>
          <Trackpoint>
            <Time>2020-02-15T12:16:14.000Z</Time>
            <Position>
              <LatitudeDegrees>42.002207301557064056396484375</LatitudeDegrees>
              <LongitudeDegrees>2.8472817130386829376220703125</LongitudeDegrees>
            </Position>
            <AltitudeMeters>171</AltitudeMeters>
            <DistanceMeters>NAN</DistanceMeters>
          </Trackpoint>
          <Trackpoint>
            <Time>2020-02-15T12:16:15.000Z</Time>
            <Position>
              <LatitudeDegrees>42.00225650332868099212646484375</LatitudeDegrees>
              <LongitudeDegrees>2.8472072817385196685791015625</LongitudeDegrees>
            </Position>
            <AltitudeMeters>171</AltitudeMeters>
            <DistanceMeters>NAN</DistanceMeters>
          </Trackpoint>
          <Trackpoint>
            <Time>2020-02-15T12:16:16.000Z</Time>
            <Position>
              <LatitudeDegrees>42.002279721200466156005859375</LatitudeDegrees>
              <LongitudeDegrees>2.84712807275354862213134765625</LongitudeDegrees>
            </Position>
            <AltitudeMeters>171.1999969482421875</AltitudeMeters>
            <DistanceMeters>NAN</DistanceMeters>
          </Trackpoint>
          <Trackpoint>
            <Time>2020-02-15T12:16:17.000Z</Time>
            <Position>
              <LatitudeDegrees>42.00229723937809467315673828125</LatitudeDegrees>
              <LongitudeDegrees>2.84706336446106433868408203125</LongitudeDegrees>
            </Position>
            <AltitudeMeters>171.1999969482421875</AltitudeMeters>
            <DistanceMeters>NAN</DistanceMeters>
          </Trackpoint>
          <Trackpoint>
            <Time>2020-02-15T12:16:18.000Z</Time>
            <Position>
              <LatitudeDegrees>42.00231551192700862884521484375</LatitudeDegrees>
              <LongitudeDegrees>2.84701961092650890350341796875</LongitudeDegrees>
            </Position>
            <AltitudeMeters>171.1999969482421875</AltitudeMeters>
            <DistanceMeters>NAN</DistanceMeters>
          </Trackpoint>
          <Trackpoint>
            <Time>2020-02-15T12:16:19.000Z</Time>
            <Position>
              <LatitudeDegrees>42.00233311392366886138916015625</LatitudeDegrees>
              <LongitudeDegrees>2.8469920344650745391845703125</LongitudeDegrees>
            </Position>
            <AltitudeMeters>170.8000030517578125</AltitudeMeters>
            <DistanceMeters>NAN</DistanceMeters>
          </Trackpoint>
          <Trackpoint>
            <Time>2020-02-15T12:16:20.000Z</Time>
            <Position>
              <LatitudeDegrees>42.00235658325254917144775390625</LatitudeDegrees>
              <LongitudeDegrees>2.846969068050384521484375</LongitudeDegrees>
            </Position>
            <AltitudeMeters>170.399993896484375</AltitudeMeters>
            <DistanceMeters>NAN</DistanceMeters>
          </Trackpoint>
          <Trackpoint>
            <Time>2020-02-15T12:16:21.000Z</Time>
            <Position>
              <LatitudeDegrees>42.0023860037326812744140625</LatitudeDegrees>
              <LongitudeDegrees>2.84694853238761425018310546875</LongitudeDegrees>
            </Position>
            <AltitudeMeters>169.600006103515625</AltitudeMeters>
            <DistanceMeters>NAN</DistanceMeters>
          </Trackpoint>
          <Trackpoint>
            <Time>2020-02-15T12:16:22.000Z</Time>
            <Position>
              <LatitudeDegrees>42.00241793878376483917236328125</LatitudeDegrees>
              <LongitudeDegrees>2.84692816436290740966796875</LongitudeDegrees>
            </Position>
            <AltitudeMeters>169.1999969482421875</AltitudeMeters>
            <DistanceMeters>NAN</DistanceMeters>
          </Trackpoint>
          <Trackpoint>
            <Time>2020-02-15T12:16:24.000Z</Time>
            <Position>
              <LatitudeDegrees>42.0024760253727436065673828125</LatitudeDegrees>
              <LongitudeDegrees>2.84688633866608142852783203125</LongitudeDegrees>
            </Position>
            <AltitudeMeters>168.8000030517578125</AltitudeMeters>
            <DistanceMeters>NAN</DistanceMeters>
          </Trackpoint>
          <Trackpoint>
            <Time>2020-02-15T12:16:25.000Z</Time>
            <Position>
              <LatitudeDegrees>42.00250075198709964752197265625</LatitudeDegrees>
              <LongitudeDegrees>2.84687183797359466552734375</LongitudeDegrees>
            </Position>
            <AltitudeMeters>168.600006103515625</AltitudeMeters>
            <DistanceMeters>NAN</DistanceMeters>
          </Trackpoint>
          <Trackpoint>
            <Time>2020-02-15T12:16:26.000Z</Time>
            <Position>
              <LatitudeDegrees>42.00252212584018707275390625</LatitudeDegrees>
              <LongitudeDegrees>2.84685708582401275634765625</LongitudeDegrees>
            </Position>
            <AltitudeMeters>168.600006103515625</AltitudeMeters>
            <DistanceMeters>NAN</DistanceMeters>
          </Trackpoint>
          <Trackpoint>
            <Time>2020-02-15T12:16:27.000Z</Time>
            <Position>
              <LatitudeDegrees>42.00254249386489391326904296875</LatitudeDegrees>
              <LongitudeDegrees>2.846844010055065155029296875</LongitudeDegrees>
            </Position>
            <AltitudeMeters>168.600006103515625</AltitudeMeters>
            <DistanceMeters>NAN</DistanceMeters>
          </Trackpoint>
          <Trackpoint>
            <Time>2020-02-15T12:16:28.000Z</Time>
            <Position>
              <LatitudeDegrees>42.0025611855089664459228515625</LatitudeDegrees>
              <LongitudeDegrees>2.8468309342861175537109375</LongitudeDegrees>
            </Position>
            <AltitudeMeters>168.600006103515625</AltitudeMeters>
            <DistanceMeters>NAN</DistanceMeters>
          </Trackpoint>
          <Trackpoint>
            <Time>2020-02-15T12:16:29.000Z</Time>
            <Position>
              <LatitudeDegrees>42.00257920660078525543212890625</LatitudeDegrees>
              <LongitudeDegrees>2.84681961871683597564697265625</LongitudeDegrees>
            </Position>
            <AltitudeMeters>168.600006103515625</AltitudeMeters>
            <DistanceMeters>NAN</DistanceMeters>
          </Trackpoint>
          <Trackpoint>
            <Time>2020-02-15T12:16:30.000Z</Time>
            <Position>
              <LatitudeDegrees>42.0025987364351749420166015625</LatitudeDegrees>
              <LongitudeDegrees>2.84680855460464954376220703125</LongitudeDegrees>
            </Position>
            <AltitudeMeters>168.600006103515625</AltitudeMeters>
            <DistanceMeters>NAN</DistanceMeters>
          </Trackpoint>
          <Trackpoint>
            <Time>2020-02-15T12:16:31.000Z</Time>
            <Position>
              <LatitudeDegrees>42.0026188530027866363525390625</LatitudeDegrees>
              <LongitudeDegrees>2.84679883159697055816650390625</LongitudeDegrees>
            </Position>
            <AltitudeMeters>168.600006103515625</AltitudeMeters>
            <DistanceMeters>NAN</DistanceMeters>
          </Trackpoint>
          <Trackpoint>
            <Time>2020-02-15T12:16:32.000Z</Time>
            <Position>
              <LatitudeDegrees>42.00264056213200092315673828125</LatitudeDegrees>
              <LongitudeDegrees>2.846789695322513580322265625</LongitudeDegrees>
            </Position>
            <AltitudeMeters>168.8000030517578125</AltitudeMeters>
            <DistanceMeters>NAN</DistanceMeters>
          </Trackpoint>
          <Trackpoint>
            <Time>2020-02-15T12:16:33.000Z</Time>
            <Position>
              <LatitudeDegrees>42.00266428291797637939453125</LatitudeDegrees>
              <LongitudeDegrees>2.84678039140999317169189453125</LongitudeDegrees>
            </Position>
            <AltitudeMeters>168.600006103515625</AltitudeMeters>
            <DistanceMeters>NAN</DistanceMeters>
          </Trackpoint>
          <Trackpoint>
            <Time>2020-02-15T12:16:34.000Z</Time>
            <Position>
              <LatitudeDegrees>42.0026890933513641357421875</LatitudeDegrees>
              <LongitudeDegrees>2.84676748327910900115966796875</LongitudeDegrees>
            </Position>
            <AltitudeMeters>169.600006103515625</AltitudeMeters>
            <DistanceMeters>NAN</DistanceMeters>
          </Trackpoint>
          <Trackpoint>
            <Time>2020-02-15T12:16:35.000Z</Time>
            <Position>
              <LatitudeDegrees>42.00271398760378360748291015625</LatitudeDegrees>
              <LongitudeDegrees>2.8467539884150028228759765625</LongitudeDegrees>
            </Position>
            <AltitudeMeters>170.1999969482421875</AltitudeMeters>
            <DistanceMeters>NAN</DistanceMeters>
          </Trackpoint>
          <Trackpoint>
            <Time>2020-02-15T12:16:36.000Z</Time>
            <Position>
              <LatitudeDegrees>42.00273896567523479461669921875</LatitudeDegrees>
              <LongitudeDegrees>2.84674233756959438323974609375</LongitudeDegrees>
            </Position>
            <AltitudeMeters>170.399993896484375</AltitudeMeters>
            <DistanceMeters>NAN</DistanceMeters>
          </Trackpoint>
          <Trackpoint>
            <Time>2020-02-15T12:16:37.000Z</Time>
            <Position>
              <LatitudeDegrees>42.0027600042521953582763671875</LatitudeDegrees>
              <LongitudeDegrees>2.8467325307428836822509765625</LongitudeDegrees>
            </Position>
            <AltitudeMeters>170.8000030517578125</AltitudeMeters>
            <DistanceMeters>NAN</DistanceMeters>
          </Trackpoint>
          <Trackpoint>
            <Time>2020-02-15T12:16:38.000Z</Time>
            <Position>
              <LatitudeDegrees>42.00277836062014102935791015625</LatitudeDegrees>
              <LongitudeDegrees>2.8467238135635852813720703125</LongitudeDegrees>
            </Position>
            <AltitudeMeters>171</AltitudeMeters>
            <DistanceMeters>NAN</DistanceMeters>
          </Trackpoint>
          <Trackpoint>
            <Time>2020-02-15T12:16:39.000Z</Time>
            <Position>
              <LatitudeDegrees>42.0027925260365009307861328125</LatitudeDegrees>
              <LongitudeDegrees>2.8467174433171749114990234375</LongitudeDegrees>
            </Position>
            <AltitudeMeters>171.1999969482421875</AltitudeMeters>
            <DistanceMeters>NAN</DistanceMeters>
          </Trackpoint>
          <Trackpoint>
            <Time>2020-02-15T12:16:40.000Z</Time>
            <Position>
              <LatitudeDegrees>42.00280417688190937042236328125</LatitudeDegrees>
              <LongitudeDegrees>2.84671149216592311859130859375</LongitudeDegrees>
            </Position>
            <AltitudeMeters>171.8000030517578125</AltitudeMeters>
            <DistanceMeters>NAN</DistanceMeters>
          </Trackpoint>
          <Trackpoint>
            <Time>2020-02-15T12:16:41.000Z</Time>
            <Position>
              <LatitudeDegrees>42.00281716883182525634765625</LatitudeDegrees>
              <LongitudeDegrees>2.84670797176659107208251953125</LongitudeDegrees>
            </Position>
            <AltitudeMeters>172</AltitudeMeters>
            <DistanceMeters>NAN</DistanceMeters>
          </Trackpoint>
          <Trackpoint>
            <Time>2020-02-15T12:16:42.000Z</Time>
            <Position>
              <LatitudeDegrees>42.00283518992364406585693359375</LatitudeDegrees>
              <LongitudeDegrees>2.84670461900532245635986328125</LongitudeDegrees>
            </Position>
            <AltitudeMeters>172.1999969482421875</AltitudeMeters>
            <DistanceMeters>NAN</DistanceMeters>
          </Trackpoint>
          <Trackpoint>
            <Time>2020-02-15T12:16:43.000Z</Time>
            <Position>
              <LatitudeDegrees>42.00285748578608036041259765625</LatitudeDegrees>
              <LongitudeDegrees>2.84669908694922924041748046875</LongitudeDegrees>
            </Position>
            <AltitudeMeters>172.399993896484375</AltitudeMeters>
            <DistanceMeters>NAN</DistanceMeters>
          </Trackpoint>
          <Trackpoint>
            <Time>2020-02-15T12:16:44.000Z</Time>
            <Position>
              <LatitudeDegrees>42.00288288295269012451171875</LatitudeDegrees>
              <LongitudeDegrees>2.8466899506747722625732421875</LongitudeDegrees>
            </Position>
            <AltitudeMeters>172.399993896484375</AltitudeMeters>
            <DistanceMeters>NAN</DistanceMeters>
          </Trackpoint>
          <Trackpoint>
            <Time>2020-02-15T12:16:45.000Z</Time>
            <Position>
              <LatitudeDegrees>42.0029103755950927734375</LatitudeDegrees>
              <LongitudeDegrees>2.84668182022869586944580078125</LongitudeDegrees>
            </Position>
            <AltitudeMeters>173</AltitudeMeters>
            <DistanceMeters>NAN</DistanceMeters>
          </Trackpoint>
          <Trackpoint>
            <Time>2020-02-15T12:16:46.000Z</Time>
            <Position>
              <LatitudeDegrees>42.00294029898941516876220703125</LatitudeDegrees>
              <LongitudeDegrees>2.8466762043535709381103515625</LongitudeDegrees>
            </Position>
            <AltitudeMeters>173.1999969482421875</AltitudeMeters>
            <DistanceMeters>NAN</DistanceMeters>
          </Trackpoint>
          <Trackpoint>
            <Time>2020-02-15T12:16:52.000Z</Time>
            <Position>
              <LatitudeDegrees>42.00314867310225963592529296875</LatitudeDegrees>
              <LongitudeDegrees>2.8466758690774440765380859375</LongitudeDegrees>
            </Position>
            <AltitudeMeters>173.600006103515625</AltitudeMeters>
            <DistanceMeters>NAN</DistanceMeters>
          </Trackpoint>
          <Trackpoint>
            <Time>2020-02-15T12:16:57.000Z</Time>
            <Position>
              <LatitudeDegrees>42.00334648601710796356201171875</LatitudeDegrees>
              <LongitudeDegrees>2.84665516577661037445068359375</LongitudeDegrees>
            </Position>
            <AltitudeMeters>174</AltitudeMeters>
            <DistanceMeters>NAN</DistanceMeters>
          </Trackpoint>
          <Trackpoint>
            <Time>2020-02-15T12:16:58.000Z</Time>
            <Position>
              <LatitudeDegrees>42.00338579714298248291015625</LatitudeDegrees>
              <LongitudeDegrees>2.84663672558963298797607421875</LongitudeDegrees>
            </Position>
            <AltitudeMeters>174</AltitudeMeters>
            <DistanceMeters>NAN</DistanceMeters>
          </Trackpoint>
          <Trackpoint>
            <Time>2020-02-15T12:16:59.000Z</Time>
            <Position>
              <LatitudeDegrees>42.00342393480241298675537109375</LatitudeDegrees>
              <LongitudeDegrees>2.84661761485040187835693359375</LongitudeDegrees>
            </Position>
            <AltitudeMeters>174</AltitudeMeters>
            <DistanceMeters>NAN</DistanceMeters>
          </Trackpoint>
          <Trackpoint>
            <Time>2020-02-15T12:17:00.000Z</Time>
            <Position>
              <LatitudeDegrees>42.0034620724618434906005859375</LatitudeDegrees>
              <LongitudeDegrees>2.8466004319489002227783203125</LongitudeDegrees>
            </Position>
            <AltitudeMeters>174.1999969482421875</AltitudeMeters>
            <DistanceMeters>NAN</DistanceMeters>
          </Trackpoint>
          <Trackpoint>
            <Time>2020-02-15T12:17:01.000Z</Time>
            <Position>
              <LatitudeDegrees>42.00349903665482997894287109375</LatitudeDegrees>
              <LongitudeDegrees>2.846580483019351959228515625</LongitudeDegrees>
            </Position>
            <AltitudeMeters>174</AltitudeMeters>
            <DistanceMeters>NAN</DistanceMeters>
          </Trackpoint>
          <Trackpoint>
            <Time>2020-02-15T12:17:02.000Z</Time>
            <Position>
              <LatitudeDegrees>42.0035348273813724517822265625</LatitudeDegrees>
              <LongitudeDegrees>2.8465573489665985107421875</LongitudeDegrees>
            </Position>
            <AltitudeMeters>174</AltitudeMeters>
            <DistanceMeters>NAN</DistanceMeters>
          </Trackpoint>
          <Trackpoint>
            <Time>2020-02-15T12:17:03.000Z</Time>
            <Position>
              <LatitudeDegrees>42.00357061810791492462158203125</LatitudeDegrees>
              <LongitudeDegrees>2.84653530456125736236572265625</LongitudeDegrees>
            </Position>
            <AltitudeMeters>174.1999969482421875</AltitudeMeters>
            <DistanceMeters>NAN</DistanceMeters>
          </Trackpoint>
          <Trackpoint>
            <Time>2020-02-15T12:17:04.000Z</Time>
            <Position>
              <LatitudeDegrees>42.0036045648157596588134765625</LatitudeDegrees>
              <LongitudeDegrees>2.846514098346233367919921875</LongitudeDegrees>
            </Position>
            <AltitudeMeters>174.399993896484375</AltitudeMeters>
            <DistanceMeters>NAN</DistanceMeters>
          </Trackpoint>
          <Trackpoint>
            <Time>2020-02-15T12:17:05.000Z</Time>
            <Position>
              <LatitudeDegrees>42.003637254238128662109375</LatitudeDegrees>
              <LongitudeDegrees>2.84649364650249481201171875</LongitudeDegrees>
            </Position>
            <AltitudeMeters>174.399993896484375</AltitudeMeters>
            <DistanceMeters>NAN</DistanceMeters>
          </Trackpoint>
          <Trackpoint>
            <Time>2020-02-15T12:17:06.000Z</Time>
            <Position>
              <LatitudeDegrees>42.00367019511759281158447265625</LatitudeDegrees>
              <LongitudeDegrees>2.846475206315517425537109375</LongitudeDegrees>
            </Position>
            <AltitudeMeters>174.399993896484375</AltitudeMeters>
            <DistanceMeters>NAN</DistanceMeters>
          </Trackpoint>
          <Trackpoint>
            <Time>2020-02-15T12:17:07.000Z</Time>
            <Position>
              <LatitudeDegrees>42.00370321981608867645263671875</LatitudeDegrees>
              <LongitudeDegrees>2.8464602865278720855712890625</LongitudeDegrees>
            </Position>
            <AltitudeMeters>174.399993896484375</AltitudeMeters>
            <DistanceMeters>NAN</DistanceMeters>
          </Trackpoint>
          <Trackpoint>
            <Time>2020-02-15T12:17:08.000Z</Time>
            <Position>
              <LatitudeDegrees>42.00373741798102855682373046875</LatitudeDegrees>
              <LongitudeDegrees>2.84645047970116138458251953125</LongitudeDegrees>
            </Position>
            <AltitudeMeters>174.600006103515625</AltitudeMeters>
            <DistanceMeters>NAN</DistanceMeters>
          </Trackpoint>
          <Trackpoint>
            <Time>2020-02-15T12:17:09.000Z</Time>
            <Position>
              <LatitudeDegrees>42.00377337634563446044921875</LatitudeDegrees>
              <LongitudeDegrees>2.846443690359592437744140625</LongitudeDegrees>
            </Position>
            <AltitudeMeters>174.600006103515625</AltitudeMeters>
            <DistanceMeters>NAN</DistanceMeters>
          </Trackpoint>
          <Trackpoint>
            <Time>2020-02-15T12:17:10.000Z</Time>
            <Position>
              <LatitudeDegrees>42.00380799360573291778564453125</LatitudeDegrees>
              <LongitudeDegrees>2.8464438579976558685302734375</LongitudeDegrees>
            </Position>
            <AltitudeMeters>174.600006103515625</AltitudeMeters>
            <DistanceMeters>NAN</DistanceMeters>
          </Trackpoint>
          <Trackpoint>
            <Time>2020-02-15T12:17:11.000Z</Time>
            <Position>
              <LatitudeDegrees>42.0038442872464656829833984375</LatitudeDegrees>
              <LongitudeDegrees>2.8464539162814617156982421875</LongitudeDegrees>
            </Position>
            <AltitudeMeters>174.600006103515625</AltitudeMeters>
            <DistanceMeters>NAN</DistanceMeters>
          </Trackpoint>
          <Trackpoint>
            <Time>2020-02-15T12:17:12.000Z</Time>
            <Position>
              <LatitudeDegrees>42.003884017467498779296875</LatitudeDegrees>
              <LongitudeDegrees>2.84647160209715366363525390625</LongitudeDegrees>
            </Position>
            <AltitudeMeters>174.8000030517578125</AltitudeMeters>
            <DistanceMeters>NAN</DistanceMeters>
          </Trackpoint>
          <Trackpoint>
            <Time>2020-02-15T12:17:13.000Z</Time>
            <Position>
              <LatitudeDegrees>42.00392668135464191436767578125</LatitudeDegrees>
              <LongitudeDegrees>2.84648970700800418853759765625</LongitudeDegrees>
            </Position>
            <AltitudeMeters>175</AltitudeMeters>
            <DistanceMeters>NAN</DistanceMeters>
          </Trackpoint>
          <Trackpoint>
            <Time>2020-02-15T12:17:14.000Z</Time>
            <Position>
              <LatitudeDegrees>42.003968171775341033935546875</LatitudeDegrees>
              <LongitudeDegrees>2.84649842418730258941650390625</LongitudeDegrees>
            </Position>
            <AltitudeMeters>175.1999969482421875</AltitudeMeters>
            <DistanceMeters>NAN</DistanceMeters>
          </Trackpoint>
          <Trackpoint>
            <Time>2020-02-15T12:17:15.000Z</Time>
            <Position>
              <LatitudeDegrees>42.00400664471089839935302734375</LatitudeDegrees>
              <LongitudeDegrees>2.84649540670216083526611328125</LongitudeDegrees>
            </Position>
            <AltitudeMeters>175.1999969482421875</AltitudeMeters>
            <DistanceMeters>NAN</DistanceMeters>
          </Trackpoint>
          <Trackpoint>
            <Time>2020-02-15T12:17:16.000Z</Time>
            <Position>
              <LatitudeDegrees>42.0040447823703289031982421875</LatitudeDegrees>
              <LongitudeDegrees>2.84648736007511615753173828125</LongitudeDegrees>
            </Position>
            <AltitudeMeters>175.399993896484375</AltitudeMeters>
            <DistanceMeters>NAN</DistanceMeters>
          </Trackpoint>
          <Trackpoint>
            <Time>2020-02-15T12:17:17.000Z</Time>
            <Position>
              <LatitudeDegrees>42.00407914817333221435546875</LatitudeDegrees>
              <LongitudeDegrees>2.8464780561625957489013671875</LongitudeDegrees>
            </Position>
            <AltitudeMeters>175.600006103515625</AltitudeMeters>
            <DistanceMeters>NAN</DistanceMeters>
          </Trackpoint>
          <Trackpoint>
            <Time>2020-02-15T12:17:18.000Z</Time>
            <Position>
              <LatitudeDegrees>42.00410940684378147125244140625</LatitudeDegrees>
              <LongitudeDegrees>2.84646841697394847869873046875</LongitudeDegrees>
            </Position>
            <AltitudeMeters>175.8000030517578125</AltitudeMeters>
            <DistanceMeters>NAN</DistanceMeters>
          </Trackpoint>
          <Trackpoint>
            <Time>2020-02-15T12:17:19.000Z</Time>
            <Position>
              <LatitudeDegrees>42.00413639657199382781982421875</LatitudeDegrees>
              <LongitudeDegrees>2.84645886160433292388916015625</LongitudeDegrees>
            </Position>
            <AltitudeMeters>175.8000030517578125</AltitudeMeters>
            <DistanceMeters>NAN</DistanceMeters>
          </Trackpoint>
          <Trackpoint>
            <Time>2020-02-15T12:17:20.000Z</Time>
            <Position>
              <LatitudeDegrees>42.00416271574795246124267578125</LatitudeDegrees>
              <LongitudeDegrees>2.8464495576918125152587890625</LongitudeDegrees>
            </Position>
            <AltitudeMeters>176</AltitudeMeters>
            <DistanceMeters>NAN</DistanceMeters>
          </Trackpoint>
          <Trackpoint>
            <Time>2020-02-15T12:17:21.000Z</Time>
            <Position>
              <LatitudeDegrees>42.00418819673359394073486328125</LatitudeDegrees>
              <LongitudeDegrees>2.84644176252186298370361328125</LongitudeDegrees>
            </Position>
            <AltitudeMeters>176.1999969482421875</AltitudeMeters>
            <DistanceMeters>NAN</DistanceMeters>
          </Trackpoint>
          <Trackpoint>
            <Time>2020-02-15T12:17:22.000Z</Time>
            <Position>
              <LatitudeDegrees>42.0042137615382671356201171875</LatitudeDegrees>
              <LongitudeDegrees>2.84643371589481830596923828125</LongitudeDegrees>
            </Position>
            <AltitudeMeters>176.399993896484375</AltitudeMeters>
            <DistanceMeters>NAN</DistanceMeters>
          </Trackpoint>
          <Trackpoint>
            <Time>2020-02-15T12:17:23.000Z</Time>
            <Position>
              <LatitudeDegrees>42.0042395778000354766845703125</LatitudeDegrees>
              <LongitudeDegrees>2.84642332233488559722900390625</LongitudeDegrees>
            </Position>
            <AltitudeMeters>176.399993896484375</AltitudeMeters>
            <DistanceMeters>NAN</DistanceMeters>
          </Trackpoint>
          <Trackpoint>
            <Time>2020-02-15T12:17:24.000Z</Time>
            <Position>
              <LatitudeDegrees>42.00426614843308925628662109375</LatitudeDegrees>
              <LongitudeDegrees>2.84641041420400142669677734375</LongitudeDegrees>
            </Position>
            <AltitudeMeters>176.399993896484375</AltitudeMeters>
            <DistanceMeters>NAN</DistanceMeters>
          </Trackpoint>
          <Trackpoint>
            <Time>2020-02-15T12:17:25.000Z</Time>
            <Position>
              <LatitudeDegrees>42.00429263524711132049560546875</LatitudeDegrees>
              <LongitudeDegrees>2.8463972546160221099853515625</LongitudeDegrees>
            </Position>
            <AltitudeMeters>176.600006103515625</AltitudeMeters>
            <DistanceMeters>NAN</DistanceMeters>
          </Trackpoint>
          <Trackpoint>
            <Time>2020-02-15T12:17:26.000Z</Time>
            <Position>
              <LatitudeDegrees>42.00432029552757740020751953125</LatitudeDegrees>
              <LongitudeDegrees>2.846383340656757354736328125</LongitudeDegrees>
            </Position>
            <AltitudeMeters>177</AltitudeMeters>
            <DistanceMeters>NAN</DistanceMeters>
          </Trackpoint>
          <Trackpoint>
            <Time>2020-02-15T12:17:27.000Z</Time>
            <Position>
              <LatitudeDegrees>42.004348374903202056884765625</LatitudeDegrees>
              <LongitudeDegrees>2.84636967815458774566650390625</LongitudeDegrees>
            </Position>
            <AltitudeMeters>177.1999969482421875</AltitudeMeters>
            <DistanceMeters>NAN</DistanceMeters>
          </Trackpoint>
          <Trackpoint>
            <Time>2020-02-15T12:17:28.000Z</Time>
            <Position>
              <LatitudeDegrees>42.00437762774527072906494140625</LatitudeDegrees>
              <LongitudeDegrees>2.8463561832904815673828125</LongitudeDegrees>
            </Position>
            <AltitudeMeters>177.399993896484375</AltitudeMeters>
            <DistanceMeters>NAN</DistanceMeters>
          </Trackpoint>
          <Trackpoint>
            <Time>2020-02-15T12:17:29.000Z</Time>
            <Position>
              <LatitudeDegrees>42.00440637767314910888671875</LatitudeDegrees>
              <LongitudeDegrees>2.84634168259799480438232421875</LongitudeDegrees>
            </Position>
            <AltitudeMeters>177.8000030517578125</AltitudeMeters>
            <DistanceMeters>NAN</DistanceMeters>
          </Trackpoint>
          <Trackpoint>
            <Time>2020-02-15T12:17:30.000Z</Time>
            <Position>
              <LatitudeDegrees>42.00443294830620288848876953125</LatitudeDegrees>
              <LongitudeDegrees>2.846325673162937164306640625</LongitudeDegrees>
            </Position>
            <AltitudeMeters>178</AltitudeMeters>
            <DistanceMeters>NAN</DistanceMeters>
          </Trackpoint>
          <Trackpoint>
            <Time>2020-02-15T12:17:31.000Z</Time>
            <Position>
              <LatitudeDegrees>42.0044578425586223602294921875</LatitudeDegrees>
              <LongitudeDegrees>2.8463087417185306549072265625</LongitudeDegrees>
            </Position>
            <AltitudeMeters>178.600006103515625</AltitudeMeters>
            <DistanceMeters>NAN</DistanceMeters>
          </Trackpoint>
          <Trackpoint>
            <Time>2020-02-15T12:17:32.000Z</Time>
            <Position>
              <LatitudeDegrees>42.00448122806847095489501953125</LatitudeDegrees>
              <LongitudeDegrees>2.84629105590283870697021484375</LongitudeDegrees>
            </Position>
            <AltitudeMeters>178.600006103515625</AltitudeMeters>
            <DistanceMeters>NAN</DistanceMeters>
          </Trackpoint>
          <Trackpoint>
            <Time>2020-02-15T12:17:33.000Z</Time>
            <Position>
              <LatitudeDegrees>42.004503272473812103271484375</LatitudeDegrees>
              <LongitudeDegrees>2.84627043642103672027587890625</LongitudeDegrees>
            </Position>
            <AltitudeMeters>178.8000030517578125</AltitudeMeters>
            <DistanceMeters>NAN</DistanceMeters>
          </Trackpoint>
          <Trackpoint>
            <Time>2020-02-15T12:17:34.000Z</Time>
            <Position>
              <LatitudeDegrees>42.00452414341270923614501953125</LatitudeDegrees>
              <LongitudeDegrees>2.84624822437763214111328125</LongitudeDegrees>
            </Position>
            <AltitudeMeters>178.8000030517578125</AltitudeMeters>
            <DistanceMeters>NAN</DistanceMeters>
          </Trackpoint>
          <Trackpoint>
            <Time>2020-02-15T12:17:35.000Z</Time>
            <Position>
              <LatitudeDegrees>42.0045433379709720611572265625</LatitudeDegrees>
              <LongitudeDegrees>2.84622433595359325408935546875</LongitudeDegrees>
            </Position>
            <AltitudeMeters>179.1999969482421875</AltitudeMeters>
            <DistanceMeters>NAN</DistanceMeters>
          </Trackpoint>
          <Trackpoint>
            <Time>2020-02-15T12:17:36.000Z</Time>
            <Position>
              <LatitudeDegrees>42.00455934740602970123291015625</LatitudeDegrees>
              <LongitudeDegrees>2.8461991064250469207763671875</LongitudeDegrees>
            </Position>
            <AltitudeMeters>179.1999969482421875</AltitudeMeters>
            <DistanceMeters>NAN</DistanceMeters>
          </Trackpoint>
          <Trackpoint>
            <Time>2020-02-15T12:17:37.000Z</Time>
            <Position>
              <LatitudeDegrees>42.0045731775462627410888671875</LatitudeDegrees>
              <LongitudeDegrees>2.8461742959916591644287109375</LongitudeDegrees>
            </Position>
            <AltitudeMeters>179.600006103515625</AltitudeMeters>
            <DistanceMeters>NAN</DistanceMeters>
          </Trackpoint>
          <Trackpoint>
            <Time>2020-02-15T12:17:38.000Z</Time>
            <Position>
              <LatitudeDegrees>42.00458667241036891937255859375</LatitudeDegrees>
              <LongitudeDegrees>2.84615241922438144683837890625</LongitudeDegrees>
            </Position>
            <AltitudeMeters>179.8000030517578125</AltitudeMeters>
            <DistanceMeters>NAN</DistanceMeters>
          </Trackpoint>
          <Trackpoint>
            <Time>2020-02-15T12:17:39.000Z</Time>
            <Position>
              <LatitudeDegrees>42.004597485065460205078125</LatitudeDegrees>
              <LongitudeDegrees>2.84613062627613544464111328125</LongitudeDegrees>
            </Position>
            <AltitudeMeters>179.8000030517578125</AltitudeMeters>
            <DistanceMeters>NAN</DistanceMeters>
          </Trackpoint>
          <Trackpoint>
            <Time>2020-02-15T12:17:40.000Z</Time>
            <Position>
              <LatitudeDegrees>42.0046015083789825439453125</LatitudeDegrees>
              <LongitudeDegrees>2.846106402575969696044921875</LongitudeDegrees>
            </Position>
            <AltitudeMeters>180</AltitudeMeters>
            <DistanceMeters>NAN</DistanceMeters>
          </Trackpoint>
          <Trackpoint>
            <Time>2020-02-15T12:17:41.000Z</Time>
            <Position>
              <LatitudeDegrees>42.004602514207363128662109375</LatitudeDegrees>
              <LongitudeDegrees>2.8460844419896602630615234375</LongitudeDegrees>
            </Position>
            <AltitudeMeters>180.600006103515625</AltitudeMeters>
            <DistanceMeters>NAN</DistanceMeters>
          </Trackpoint>
          <Trackpoint>
            <Time>2020-02-15T12:17:42.000Z</Time>
            <Position>
              <LatitudeDegrees>42.004601843655109405517578125</LatitudeDegrees>
              <LongitudeDegrees>2.84606340341269969940185546875</LongitudeDegrees>
            </Position>
            <AltitudeMeters>180.600006103515625</AltitudeMeters>
            <DistanceMeters>NAN</DistanceMeters>
          </Trackpoint>
          <Trackpoint>
            <Time>2020-02-15T12:17:43.000Z</Time>
            <Position>
              <LatitudeDegrees>42.00459656305611133575439453125</LatitudeDegrees>
              <LongitudeDegrees>2.84604278393089771270751953125</LongitudeDegrees>
            </Position>
            <AltitudeMeters>180.8000030517578125</AltitudeMeters>
            <DistanceMeters>NAN</DistanceMeters>
          </Trackpoint>
          <Trackpoint>
            <Time>2020-02-15T12:17:44.000Z</Time>
            <Position>
              <LatitudeDegrees>42.00458667241036891937255859375</LatitudeDegrees>
              <LongitudeDegrees>2.84602501429617404937744140625</LongitudeDegrees>
            </Position>
            <AltitudeMeters>181</AltitudeMeters>
            <DistanceMeters>NAN</DistanceMeters>
          </Trackpoint>
          <Trackpoint>
            <Time>2020-02-15T12:17:45.000Z</Time>
            <Position>
              <LatitudeDegrees>42.00457292608916759490966796875</LatitudeDegrees>
              <LongitudeDegrees>2.84600925631821155548095703125</LongitudeDegrees>
            </Position>
            <AltitudeMeters>181.1999969482421875</AltitudeMeters>
            <DistanceMeters>NAN</DistanceMeters>
          </Trackpoint>
          <Trackpoint>
            <Time>2020-02-15T12:17:46.000Z</Time>
            <Position>
              <LatitudeDegrees>42.00455767102539539337158203125</LatitudeDegrees>
              <LongitudeDegrees>2.84599341452121734619140625</LongitudeDegrees>
            </Position>
            <AltitudeMeters>181.399993896484375</AltitudeMeters>
            <DistanceMeters>NAN</DistanceMeters>
          </Trackpoint>
          <Trackpoint>
            <Time>2020-02-15T12:17:47.000Z</Time>
            <Position>
              <LatitudeDegrees>42.00454124249517917633056640625</LatitudeDegrees>
              <LongitudeDegrees>2.8459744714200496673583984375</LongitudeDegrees>
            </Position>
            <AltitudeMeters>182</AltitudeMeters>
            <DistanceMeters>NAN</DistanceMeters>
          </Trackpoint>
          <Trackpoint>
            <Time>2020-02-15T12:17:48.000Z</Time>
            <Position>
              <LatitudeDegrees>42.00452280230820178985595703125</LatitudeDegrees>
              <LongitudeDegrees>2.845955528318881988525390625</LongitudeDegrees>
            </Position>
            <AltitudeMeters>182.1999969482421875</AltitudeMeters>
            <DistanceMeters>NAN</DistanceMeters>
          </Trackpoint>
          <Trackpoint>
            <Time>2020-02-15T12:17:49.000Z</Time>
            <Position>
              <LatitudeDegrees>42.004503272473812103271484375</LatitudeDegrees>
              <LongitudeDegrees>2.84593884833157062530517578125</LongitudeDegrees>
            </Position>
            <AltitudeMeters>182.600006103515625</AltitudeMeters>
            <DistanceMeters>NAN</DistanceMeters>
          </Trackpoint>
          <Trackpoint>
            <Time>2020-02-15T12:17:50.000Z</Time>
            <Position>
              <LatitudeDegrees>42.00448508374392986297607421875</LatitudeDegrees>
              <LongitudeDegrees>2.84592208452522754669189453125</LongitudeDegrees>
            </Position>
            <AltitudeMeters>182.8000030517578125</AltitudeMeters>
            <DistanceMeters>NAN</DistanceMeters>
          </Trackpoint>
          <Trackpoint>
            <Time>2020-02-15T12:17:51.000Z</Time>
            <Position>
              <LatitudeDegrees>42.00446697883307933807373046875</LatitudeDegrees>
              <LongitudeDegrees>2.84590490162372589111328125</LongitudeDegrees>
            </Position>
            <AltitudeMeters>183</AltitudeMeters>
            <DistanceMeters>NAN</DistanceMeters>
          </Trackpoint>
          <Trackpoint>
            <Time>2020-02-15T12:17:52.000Z</Time>
            <Position>
              <LatitudeDegrees>42.00444753281772136688232421875</LatitudeDegrees>
              <LongitudeDegrees>2.8458893112838268280029296875</LongitudeDegrees>
            </Position>
            <AltitudeMeters>183.1999969482421875</AltitudeMeters>
            <DistanceMeters>NAN</DistanceMeters>
          </Trackpoint>
          <Trackpoint>
            <Time>2020-02-15T12:17:53.000Z</Time>
            <Position>
              <LatitudeDegrees>42.0044280029833316802978515625</LatitudeDegrees>
              <LongitudeDegrees>2.84587447531521320343017578125</LongitudeDegrees>
            </Position>
            <AltitudeMeters>183.1999969482421875</AltitudeMeters>
            <DistanceMeters>NAN</DistanceMeters>
          </Trackpoint>
          <Trackpoint>
            <Time>2020-02-15T12:17:54.000Z</Time>
            <Position>
              <LatitudeDegrees>42.0044082216918468475341796875</LatitudeDegrees>
              <LongitudeDegrees>2.845862992107868194580078125</LongitudeDegrees>
            </Position>
            <AltitudeMeters>183.399993896484375</AltitudeMeters>
            <DistanceMeters>NAN</DistanceMeters>
          </Trackpoint>
          <Trackpoint>
            <Time>2020-02-15T12:17:55.000Z</Time>
            <Position>
              <LatitudeDegrees>42.00438718311488628387451171875</LatitudeDegrees>
              <LongitudeDegrees>2.845854274928569793701171875</LongitudeDegrees>
            </Position>
            <AltitudeMeters>183.8000030517578125</AltitudeMeters>
            <DistanceMeters>NAN</DistanceMeters>
          </Trackpoint>
          <Trackpoint>
            <Time>2020-02-15T12:17:56.000Z</Time>
            <Position>
              <LatitudeDegrees>42.004362456500530242919921875</LatitudeDegrees>
              <LongitudeDegrees>2.84584321081638336181640625</LongitudeDegrees>
            </Position>
            <AltitudeMeters>184</AltitudeMeters>
            <DistanceMeters>NAN</DistanceMeters>
          </Trackpoint>
          <Trackpoint>
            <Time>2020-02-15T12:17:57.000Z</Time>
            <Position>
              <LatitudeDegrees>42.00433990918099880218505859375</LatitudeDegrees>
              <LongitudeDegrees>2.845826111733913421630859375</LongitudeDegrees>
            </Position>
            <AltitudeMeters>184.399993896484375</AltitudeMeters>
            <DistanceMeters>NAN</DistanceMeters>
          </Trackpoint>
          <Trackpoint>
            <Time>2020-02-15T12:17:58.000Z</Time>
            <Position>
              <LatitudeDegrees>42.0043213851749897003173828125</LatitudeDegrees>
              <LongitudeDegrees>2.845804989337921142578125</LongitudeDegrees>
            </Position>
            <AltitudeMeters>184.399993896484375</AltitudeMeters>
            <DistanceMeters>NAN</DistanceMeters>
          </Trackpoint>
          <Trackpoint>
            <Time>2020-02-15T12:17:59.000Z</Time>
            <Position>
              <LatitudeDegrees>42.00430436991155147552490234375</LatitudeDegrees>
              <LongitudeDegrees>2.84578713588416576385498046875</LongitudeDegrees>
            </Position>
            <AltitudeMeters>184.600006103515625</AltitudeMeters>
            <DistanceMeters>NAN</DistanceMeters>
          </Trackpoint>
          <Trackpoint>
            <Time>2020-02-15T12:18:00.000Z</Time>
            <Position>
              <LatitudeDegrees>42.00428760610520839691162109375</LatitudeDegrees>
              <LongitudeDegrees>2.8457726351916790008544921875</LongitudeDegrees>
            </Position>
            <AltitudeMeters>184.8000030517578125</AltitudeMeters>
            <DistanceMeters>NAN</DistanceMeters>
          </Trackpoint>
          <Trackpoint>
            <Time>2020-02-15T12:18:01.000Z</Time>
            <Position>
              <LatitudeDegrees>42.00427017174661159515380859375</LatitudeDegrees>
              <LongitudeDegrees>2.84575872123241424560546875</LongitudeDegrees>
            </Position>
            <AltitudeMeters>184.8000030517578125</AltitudeMeters>
            <DistanceMeters>NAN</DistanceMeters>
          </Trackpoint>
          <Trackpoint>
            <Time>2020-02-15T12:18:02.000Z</Time>
            <Position>
              <LatitudeDegrees>42.004252485930919647216796875</LatitudeDegrees>
              <LongitudeDegrees>2.84574422053992748260498046875</LongitudeDegrees>
            </Position>
            <AltitudeMeters>185</AltitudeMeters>
            <DistanceMeters>NAN</DistanceMeters>
          </Trackpoint>
          <Trackpoint>
            <Time>2020-02-15T12:18:03.000Z</Time>
            <Position>
              <LatitudeDegrees>42.00423396192491054534912109375</LatitudeDegrees>
              <LongitudeDegrees>2.845730893313884735107421875</LongitudeDegrees>
            </Position>
            <AltitudeMeters>185.1999969482421875</AltitudeMeters>
            <DistanceMeters>NAN</DistanceMeters>
          </Trackpoint>
          <Trackpoint>
            <Time>2020-02-15T12:18:04.000Z</Time>
            <Position>
              <LatitudeDegrees>42.0042147673666477203369140625</LatitudeDegrees>
              <LongitudeDegrees>2.8457189910113811492919921875</LongitudeDegrees>
            </Position>
            <AltitudeMeters>185.399993896484375</AltitudeMeters>
            <DistanceMeters>NAN</DistanceMeters>
          </Trackpoint>
          <Trackpoint>
            <Time>2020-02-15T12:18:05.000Z</Time>
            <Position>
              <LatitudeDegrees>42.004195488989353179931640625</LatitudeDegrees>
              <LongitudeDegrees>2.84571052528917789459228515625</LongitudeDegrees>
            </Position>
            <AltitudeMeters>185.600006103515625</AltitudeMeters>
            <DistanceMeters>NAN</DistanceMeters>
          </Trackpoint>
          <Trackpoint>
            <Time>2020-02-15T12:18:06.000Z</Time>
            <Position>
              <LatitudeDegrees>42.0041755400598049163818359375</LatitudeDegrees>
              <LongitudeDegrees>2.84570365212857723236083984375</LongitudeDegrees>
            </Position>
            <AltitudeMeters>185.8000030517578125</AltitudeMeters>
            <DistanceMeters>NAN</DistanceMeters>
          </Trackpoint>
          <Trackpoint>
            <Time>2020-02-15T12:18:07.000Z</Time>
            <Position>
              <LatitudeDegrees>42.00415399856865406036376953125</LatitudeDegrees>
              <LongitudeDegrees>2.84569527022540569305419921875</LongitudeDegrees>
            </Position>
            <AltitudeMeters>186</AltitudeMeters>
            <DistanceMeters>NAN</DistanceMeters>
          </Trackpoint>
          <Trackpoint>
            <Time>2020-02-15T12:18:08.000Z</Time>
            <Position>
              <LatitudeDegrees>42.00413069687783718109130859375</LatitudeDegrees>
              <LongitudeDegrees>2.84568940289318561553955078125</LongitudeDegrees>
            </Position>
            <AltitudeMeters>186.399993896484375</AltitudeMeters>
            <DistanceMeters>NAN</DistanceMeters>
          </Trackpoint>
          <Trackpoint>
            <Time>2020-02-15T12:18:09.000Z</Time>
            <Position>
              <LatitudeDegrees>42.00410873629152774810791015625</LatitudeDegrees>
              <LongitudeDegrees>2.84568496048450469970703125</LongitudeDegrees>
            </Position>
            <AltitudeMeters>187</AltitudeMeters>
            <DistanceMeters>NAN</DistanceMeters>
          </Trackpoint>
          <Trackpoint>
            <Time>2020-02-15T12:18:10.000Z</Time>
            <Position>
              <LatitudeDegrees>42.00409063138067722320556640625</LatitudeDegrees>
              <LongitudeDegrees>2.84567398019134998321533203125</LongitudeDegrees>
            </Position>
            <AltitudeMeters>187.399993896484375</AltitudeMeters>
            <DistanceMeters>NAN</DistanceMeters>
          </Trackpoint>
          <Trackpoint>
            <Time>2020-02-15T12:18:11.000Z</Time>
            <Position>
              <LatitudeDegrees>42.0040749572217464447021484375</LatitudeDegrees>
              <LongitudeDegrees>2.8456583060324192047119140625</LongitudeDegrees>
            </Position>
            <AltitudeMeters>187.8000030517578125</AltitudeMeters>
            <DistanceMeters>NAN</DistanceMeters>
          </Trackpoint>
          <Trackpoint>
            <Time>2020-02-15T12:18:12.000Z</Time>
            <Position>
              <LatitudeDegrees>42.00406481511890888214111328125</LatitudeDegrees>
              <LongitudeDegrees>2.84564212895929813385009765625</LongitudeDegrees>
            </Position>
            <AltitudeMeters>188</AltitudeMeters>
            <DistanceMeters>NAN</DistanceMeters>
          </Trackpoint>
          <Trackpoint>
            <Time>2020-02-15T12:18:13.000Z</Time>
            <Position>
              <LatitudeDegrees>42.0040561817586421966552734375</LatitudeDegrees>
              <LongitudeDegrees>2.84562285058200359344482421875</LongitudeDegrees>
            </Position>
            <AltitudeMeters>188.1999969482421875</AltitudeMeters>
            <DistanceMeters>NAN</DistanceMeters>
          </Trackpoint>
          <Trackpoint>
            <Time>2020-02-15T12:18:14.000Z</Time>
            <Position>
              <LatitudeDegrees>42.00404805131256580352783203125</LatitudeDegrees>
              <LongitudeDegrees>2.84559988416731357574462890625</LongitudeDegrees>
            </Position>
            <AltitudeMeters>188.1999969482421875</AltitudeMeters>
            <DistanceMeters>NAN</DistanceMeters>
          </Trackpoint>
          <Trackpoint>
            <Time>2020-02-15T12:18:15.000Z</Time>
            <Position>
              <LatitudeDegrees>42.0040384121239185333251953125</LatitudeDegrees>
              <LongitudeDegrees>2.84557498991489410400390625</LongitudeDegrees>
            </Position>
            <AltitudeMeters>188.600006103515625</AltitudeMeters>
            <DistanceMeters>NAN</DistanceMeters>
          </Trackpoint>
          <Trackpoint>
            <Time>2020-02-15T12:18:16.000Z</Time>
            <Position>
              <LatitudeDegrees>42.00402910821139812469482421875</LatitudeDegrees>
              <LongitudeDegrees>2.84554875455796718597412109375</LongitudeDegrees>
            </Position>
            <AltitudeMeters>188.600006103515625</AltitudeMeters>
            <DistanceMeters>NAN</DistanceMeters>
          </Trackpoint>
          <Trackpoint>
            <Time>2020-02-15T12:18:17.000Z</Time>
            <Position>
              <LatitudeDegrees>42.0040216483175754547119140625</LatitudeDegrees>
              <LongitudeDegrees>2.84552176482975482940673828125</LongitudeDegrees>
            </Position>
            <AltitudeMeters>188.8000030517578125</AltitudeMeters>
            <DistanceMeters>NAN</DistanceMeters>
          </Trackpoint>
          <Trackpoint>
            <Time>2020-02-15T12:18:18.000Z</Time>
            <Position>
              <LatitudeDegrees>42.004014439880847930908203125</LatitudeDegrees>
              <LongitudeDegrees>2.8454910032451152801513671875</LongitudeDegrees>
            </Position>
            <AltitudeMeters>189.1999969482421875</AltitudeMeters>
            <DistanceMeters>NAN</DistanceMeters>
          </Trackpoint>
          <Trackpoint>
            <Time>2020-02-15T12:18:19.000Z</Time>
            <Position>
              <LatitudeDegrees>42.00400647707283496856689453125</LatitudeDegrees>
              <LongitudeDegrees>2.845455296337604522705078125</LongitudeDegrees>
            </Position>
            <AltitudeMeters>189.600006103515625</AltitudeMeters>
            <DistanceMeters>NAN</DistanceMeters>
          </Trackpoint>
          <Trackpoint>
            <Time>2020-02-15T12:18:20.000Z</Time>
            <Position>
              <LatitudeDegrees>42.0039985142648220062255859375</LatitudeDegrees>
              <LongitudeDegrees>2.84541673958301544189453125</LongitudeDegrees>
            </Position>
            <AltitudeMeters>189.8000030517578125</AltitudeMeters>
            <DistanceMeters>NAN</DistanceMeters>
          </Trackpoint>
          <Trackpoint>
            <Time>2020-02-15T12:18:21.000Z</Time>
            <Position>
              <LatitudeDegrees>42.00398887507617473602294921875</LatitudeDegrees>
              <LongitudeDegrees>2.84537742845714092254638671875</LongitudeDegrees>
            </Position>
            <AltitudeMeters>190</AltitudeMeters>
            <DistanceMeters>NAN</DistanceMeters>
          </Trackpoint>
          <Trackpoint>
            <Time>2020-02-15T12:18:22.000Z</Time>
            <Position>
              <LatitudeDegrees>42.003978230059146881103515625</LatitudeDegrees>
              <LongitudeDegrees>2.845337279140949249267578125</LongitudeDegrees>
            </Position>
            <AltitudeMeters>190.600006103515625</AltitudeMeters>
            <DistanceMeters>NAN</DistanceMeters>
          </Trackpoint>
          <Trackpoint>
            <Time>2020-02-15T12:18:23.000Z</Time>
            <Position>
              <LatitudeDegrees>42.00396758504211902618408203125</LatitudeDegrees>
              <LongitudeDegrees>2.8452935256063938140869140625</LongitudeDegrees>
            </Position>
            <AltitudeMeters>191</AltitudeMeters>
            <DistanceMeters>NAN</DistanceMeters>
          </Trackpoint>
          <Trackpoint>
            <Time>2020-02-15T12:18:24.000Z</Time>
            <Position>
              <LatitudeDegrees>42.0039566047489643096923828125</LatitudeDegrees>
              <LongitudeDegrees>2.84524952061474323272705078125</LongitudeDegrees>
            </Position>
            <AltitudeMeters>191.600006103515625</AltitudeMeters>
            <DistanceMeters>NAN</DistanceMeters>
          </Trackpoint>
          <Trackpoint>
            <Time>2020-02-15T12:18:25.000Z</Time>
            <Position>
              <LatitudeDegrees>42.00394327752292156219482421875</LatitudeDegrees>
              <LongitudeDegrees>2.84520459361374378204345703125</LongitudeDegrees>
            </Position>
            <AltitudeMeters>191.600006103515625</AltitudeMeters>
            <DistanceMeters>NAN</DistanceMeters>
          </Trackpoint>
          <Trackpoint>
            <Time>2020-02-15T12:18:26.000Z</Time>
            <Position>
              <LatitudeDegrees>42.00392483733594417572021484375</LatitudeDegrees>
              <LongitudeDegrees>2.84515966661274433135986328125</LongitudeDegrees>
            </Position>
            <AltitudeMeters>191.8000030517578125</AltitudeMeters>
            <DistanceMeters>NAN</DistanceMeters>
          </Trackpoint>
          <Trackpoint>
            <Time>2020-02-15T12:18:27.000Z</Time>
            <Position>
              <LatitudeDegrees>42.00390522368252277374267578125</LatitudeDegrees>
              <LongitudeDegrees>2.8451170027256011962890625</LongitudeDegrees>
            </Position>
            <AltitudeMeters>192.1999969482421875</AltitudeMeters>
            <DistanceMeters>NAN</DistanceMeters>
          </Trackpoint>
          <Trackpoint>
            <Time>2020-02-15T12:18:29.000Z</Time>
            <Position>
              <LatitudeDegrees>42.0038637332618236541748046875</LatitudeDegrees>
              <LongitudeDegrees>2.845043577253818511962890625</LongitudeDegrees>
            </Position>
            <AltitudeMeters>192.600006103515625</AltitudeMeters>
            <DistanceMeters>NAN</DistanceMeters>
          </Trackpoint>
          <Trackpoint>
            <Time>2020-02-15T12:18:30.000Z</Time>
            <Position>
              <LatitudeDegrees>42.0038395933806896209716796875</LatitudeDegrees>
              <LongitudeDegrees>2.84501398913562297821044921875</LongitudeDegrees>
            </Position>
            <AltitudeMeters>192.8000030517578125</AltitudeMeters>
            <DistanceMeters>NAN</DistanceMeters>
          </Trackpoint>
          <Trackpoint>
            <Time>2020-02-15T12:18:31.000Z</Time>
            <Position>
              <LatitudeDegrees>42.00381235219538211822509765625</LatitudeDegrees>
              <LongitudeDegrees>2.84498632885515689849853515625</LongitudeDegrees>
            </Position>
            <AltitudeMeters>192.600006103515625</AltitudeMeters>
            <DistanceMeters>NAN</DistanceMeters>
          </Trackpoint>
          <Trackpoint>
            <Time>2020-02-15T12:18:32.000Z</Time>
            <Position>
              <LatitudeDegrees>42.0037861168384552001953125</LatitudeDegrees>
              <LongitudeDegrees>2.84496118314564228057861328125</LongitudeDegrees>
            </Position>
            <AltitudeMeters>192.8000030517578125</AltitudeMeters>
            <DistanceMeters>NAN</DistanceMeters>
          </Trackpoint>
          <Trackpoint>
            <Time>2020-02-15T12:18:33.000Z</Time>
            <Position>
              <LatitudeDegrees>42.00376206077635288238525390625</LatitudeDegrees>
              <LongitudeDegrees>2.84493804909288883209228515625</LongitudeDegrees>
            </Position>
            <AltitudeMeters>193</AltitudeMeters>
            <DistanceMeters>NAN</DistanceMeters>
          </Trackpoint>
          <Trackpoint>
            <Time>2020-02-15T12:18:34.000Z</Time>
            <Position>
              <LatitudeDegrees>42.0037373341619968414306640625</LatitudeDegrees>
              <LongitudeDegrees>2.84491508267819881439208984375</LongitudeDegrees>
            </Position>
            <AltitudeMeters>193</AltitudeMeters>
            <DistanceMeters>NAN</DistanceMeters>
          </Trackpoint>
          <Trackpoint>
            <Time>2020-02-15T12:18:35.000Z</Time>
            <Position>
              <LatitudeDegrees>42.00371243990957736968994140625</LatitudeDegrees>
              <LongitudeDegrees>2.84489245153963565826416015625</LongitudeDegrees>
            </Position>
            <AltitudeMeters>193</AltitudeMeters>
            <DistanceMeters>NAN</DistanceMeters>
          </Trackpoint>
          <Trackpoint>
            <Time>2020-02-15T12:18:36.000Z</Time>
            <Position>
              <LatitudeDegrees>42.00369098223745822906494140625</LatitudeDegrees>
              <LongitudeDegrees>2.844869904220104217529296875</LongitudeDegrees>
            </Position>
            <AltitudeMeters>193</AltitudeMeters>
            <DistanceMeters>NAN</DistanceMeters>
          </Trackpoint>
          <Trackpoint>
            <Time>2020-02-15T12:18:37.000Z</Time>
            <Position>
              <LatitudeDegrees>42.00367019511759281158447265625</LatitudeDegrees>
              <LongitudeDegrees>2.84484819509088993072509765625</LongitudeDegrees>
            </Position>
            <AltitudeMeters>193</AltitudeMeters>
            <DistanceMeters>NAN</DistanceMeters>
          </Trackpoint>
          <Trackpoint>
            <Time>2020-02-15T12:18:38.000Z</Time>
            <Position>
              <LatitudeDegrees>42.0036458037793636322021484375</LatitudeDegrees>
              <LongitudeDegrees>2.84482539631426334381103515625</LongitudeDegrees>
            </Position>
            <AltitudeMeters>193.1999969482421875</AltitudeMeters>
            <DistanceMeters>NAN</DistanceMeters>
          </Trackpoint>
          <Trackpoint>
            <Time>2020-02-15T12:18:39.000Z</Time>
            <Position>
              <LatitudeDegrees>42.00361940078437328338623046875</LatitudeDegrees>
              <LongitudeDegrees>2.8447969816625118255615234375</LongitudeDegrees>
            </Position>
            <AltitudeMeters>193.399993896484375</AltitudeMeters>
            <DistanceMeters>NAN</DistanceMeters>
          </Trackpoint>
          <Trackpoint>
            <Time>2020-02-15T12:18:40.000Z</Time>
            <Position>
              <LatitudeDegrees>42.0035928301513195037841796875</LatitudeDegrees>
              <LongitudeDegrees>2.84476504661142826080322265625</LongitudeDegrees>
            </Position>
            <AltitudeMeters>193.399993896484375</AltitudeMeters>
            <DistanceMeters>NAN</DistanceMeters>
          </Trackpoint>
          <Trackpoint>
            <Time>2020-02-15T12:18:41.000Z</Time>
            <Position>
              <LatitudeDegrees>42.00356240384280681610107421875</LatitudeDegrees>
              <LongitudeDegrees>2.84472833387553691864013671875</LongitudeDegrees>
            </Position>
            <AltitudeMeters>193.600006103515625</AltitudeMeters>
            <DistanceMeters>NAN</DistanceMeters>
          </Trackpoint>
          <Trackpoint>
            <Time>2020-02-15T12:18:44.000Z</Time>
            <Position>
              <LatitudeDegrees>42.0034523494541645050048828125</LatitudeDegrees>
              <LongitudeDegrees>2.84459531307220458984375</LongitudeDegrees>
            </Position>
            <AltitudeMeters>193.8000030517578125</AltitudeMeters>
            <DistanceMeters>NAN</DistanceMeters>
          </Trackpoint>
          <Trackpoint>
            <Time>2020-02-15T12:18:46.000Z</Time>
            <Position>
              <LatitudeDegrees>42.00337816961109638214111328125</LatitudeDegrees>
              <LongitudeDegrees>2.844503782689571380615234375</LongitudeDegrees>
            </Position>
            <AltitudeMeters>194</AltitudeMeters>
            <DistanceMeters>NAN</DistanceMeters>
          </Trackpoint>
          <Trackpoint>
            <Time>2020-02-15T12:18:47.000Z</Time>
            <Position>
              <LatitudeDegrees>42.0033440552651882171630859375</LatitudeDegrees>
              <LongitudeDegrees>2.84446380101144313812255859375</LongitudeDegrees>
            </Position>
            <AltitudeMeters>194</AltitudeMeters>
            <DistanceMeters>NAN</DistanceMeters>
          </Trackpoint>
          <Trackpoint>
            <Time>2020-02-15T12:18:48.000Z</Time>
            <Position>
              <LatitudeDegrees>42.00331010855734348297119140625</LatitudeDegrees>
              <LongitudeDegrees>2.84442071802914142608642578125</LongitudeDegrees>
            </Position>
            <AltitudeMeters>194</AltitudeMeters>
            <DistanceMeters>NAN</DistanceMeters>
          </Trackpoint>
          <Trackpoint>
            <Time>2020-02-15T12:18:49.000Z</Time>
            <Position>
              <LatitudeDegrees>42.0032776705920696258544921875</LatitudeDegrees>
              <LongitudeDegrees>2.84438014961779117584228515625</LongitudeDegrees>
            </Position>
            <AltitudeMeters>194</AltitudeMeters>
            <DistanceMeters>NAN</DistanceMeters>
          </Trackpoint>
          <Trackpoint>
            <Time>2020-02-15T12:18:50.000Z</Time>
            <Position>
              <LatitudeDegrees>42.003241963684558868408203125</LatitudeDegrees>
              <LongitudeDegrees>2.84434276632964611053466796875</LongitudeDegrees>
            </Position>
            <AltitudeMeters>194</AltitudeMeters>
            <DistanceMeters>NAN</DistanceMeters>
          </Trackpoint>
          <Trackpoint>
            <Time>2020-02-15T12:18:51.000Z</Time>
            <Position>
              <LatitudeDegrees>42.00320365838706493377685546875</LatitudeDegrees>
              <LongitudeDegrees>2.8443094901740550994873046875</LongitudeDegrees>
            </Position>
            <AltitudeMeters>194</AltitudeMeters>
            <DistanceMeters>NAN</DistanceMeters>
          </Trackpoint>
          <Trackpoint>
            <Time>2020-02-15T12:18:52.000Z</Time>
            <Position>
              <LatitudeDegrees>42.00316158123314380645751953125</LatitudeDegrees>
              <LongitudeDegrees>2.84427789039909839630126953125</LongitudeDegrees>
            </Position>
            <AltitudeMeters>194</AltitudeMeters>
            <DistanceMeters>NAN</DistanceMeters>
          </Trackpoint>
          <Trackpoint>
            <Time>2020-02-15T12:18:54.000Z</Time>
            <Position>
              <LatitudeDegrees>42.0030811987817287445068359375</LatitudeDegrees>
              <LongitudeDegrees>2.844222150743007659912109375</LongitudeDegrees>
            </Position>
            <AltitudeMeters>193.8000030517578125</AltitudeMeters>
            <DistanceMeters>NAN</DistanceMeters>
          </Trackpoint>
          <Trackpoint>
            <Time>2020-02-15T12:18:55.000Z</Time>
            <Position>
              <LatitudeDegrees>42.0030456595122814178466796875</LatitudeDegrees>
              <LongitudeDegrees>2.84418988041579723358154296875</LongitudeDegrees>
            </Position>
            <AltitudeMeters>193.8000030517578125</AltitudeMeters>
            <DistanceMeters>NAN</DistanceMeters>
          </Trackpoint>
          <Trackpoint>
            <Time>2020-02-15T12:18:56.000Z</Time>
            <Position>
              <LatitudeDegrees>42.00301590375602245330810546875</LatitudeDegrees>
              <LongitudeDegrees>2.84415937028825283050537109375</LongitudeDegrees>
            </Position>
            <AltitudeMeters>193.8000030517578125</AltitudeMeters>
            <DistanceMeters>NAN</DistanceMeters>
          </Trackpoint>
          <Trackpoint>
            <Time>2020-02-15T12:18:57.000Z</Time>
            <Position>
              <LatitudeDegrees>42.0029883272945880889892578125</LatitudeDegrees>
              <LongitudeDegrees>2.84413204528391361236572265625</LongitudeDegrees>
            </Position>
            <AltitudeMeters>193.8000030517578125</AltitudeMeters>
            <DistanceMeters>NAN</DistanceMeters>
          </Trackpoint>
          <Trackpoint>
            <Time>2020-02-15T12:18:58.000Z</Time>
            <Position>
              <LatitudeDegrees>42.0029658637940883636474609375</LatitudeDegrees>
              <LongitudeDegrees>2.84410723485052585601806640625</LongitudeDegrees>
            </Position>
            <AltitudeMeters>193.8000030517578125</AltitudeMeters>
            <DistanceMeters>NAN</DistanceMeters>
          </Trackpoint>
          <Trackpoint>
            <Time>2020-02-15T12:18:59.000Z</Time>
            <Position>
              <LatitudeDegrees>42.002944238483905792236328125</LatitudeDegrees>
              <LongitudeDegrees>2.84408007748425006866455078125</LongitudeDegrees>
            </Position>
            <AltitudeMeters>193.8000030517578125</AltitudeMeters>
            <DistanceMeters>NAN</DistanceMeters>
          </Trackpoint>
          <Trackpoint>
            <Time>2020-02-15T12:19:00.000Z</Time>
            <Position>
              <LatitudeDegrees>42.00291833840310573577880859375</LatitudeDegrees>
              <LongitudeDegrees>2.84404906444251537322998046875</LongitudeDegrees>
            </Position>
            <AltitudeMeters>193.8000030517578125</AltitudeMeters>
            <DistanceMeters>NAN</DistanceMeters>
          </Trackpoint>
          <Trackpoint>
            <Time>2020-02-15T12:19:02.000Z</Time>
            <Position>
              <LatitudeDegrees>42.002853713929653167724609375</LatitudeDegrees>
              <LongitudeDegrees>2.8439732082188129425048828125</LongitudeDegrees>
            </Position>
            <AltitudeMeters>193.8000030517578125</AltitudeMeters>
            <DistanceMeters>NAN</DistanceMeters>
          </Trackpoint>
          <Trackpoint>
            <Time>2020-02-15T12:19:06.000Z</Time>
            <Position>
              <LatitudeDegrees>42.00267710722982883453369140625</LatitudeDegrees>
              <LongitudeDegrees>2.84379291348159313201904296875</LongitudeDegrees>
            </Position>
            <AltitudeMeters>193.8000030517578125</AltitudeMeters>
            <DistanceMeters>NAN</DistanceMeters>
          </Trackpoint>
          <Trackpoint>
            <Time>2020-02-15T12:19:07.000Z</Time>
            <Position>
              <LatitudeDegrees>42.00263167731463909149169921875</LatitudeDegrees>
              <LongitudeDegrees>2.84373809583485126495361328125</LongitudeDegrees>
            </Position>
            <AltitudeMeters>193.8000030517578125</AltitudeMeters>
            <DistanceMeters>NAN</DistanceMeters>
          </Trackpoint>
          <Trackpoint>
            <Time>2020-02-15T12:19:10.000Z</Time>
            <Position>
              <LatitudeDegrees>42.00249069370329380035400390625</LatitudeDegrees>
              <LongitudeDegrees>2.84355319105088710784912109375</LongitudeDegrees>
            </Position>
            <AltitudeMeters>193.8000030517578125</AltitudeMeters>
            <DistanceMeters>NAN</DistanceMeters>
          </Trackpoint>
          <Trackpoint>
            <Time>2020-02-15T12:19:11.000Z</Time>
            <Position>
              <LatitudeDegrees>42.002440989017486572265625</LatitudeDegrees>
              <LongitudeDegrees>2.8434897400438785552978515625</LongitudeDegrees>
            </Position>
            <AltitudeMeters>193.8000030517578125</AltitudeMeters>
            <DistanceMeters>NAN</DistanceMeters>
          </Trackpoint>
          <Trackpoint>
            <Time>2020-02-15T12:19:14.000Z</Time>
            <Position>
              <LatitudeDegrees>42.00229489244520664215087890625</LatitudeDegrees>
              <LongitudeDegrees>2.84329653717577457427978515625</LongitudeDegrees>
            </Position>
            <AltitudeMeters>193.600006103515625</AltitudeMeters>
            <DistanceMeters>NAN</DistanceMeters>
          </Trackpoint>
          <Trackpoint>
            <Time>2020-02-15T12:19:15.000Z</Time>
            <Position>
              <LatitudeDegrees>42.00225566513836383819580078125</LatitudeDegrees>
              <LongitudeDegrees>2.84322462044656276702880859375</LongitudeDegrees>
            </Position>
            <AltitudeMeters>193.600006103515625</AltitudeMeters>
            <DistanceMeters>NAN</DistanceMeters>
          </Trackpoint>
          <Trackpoint>
            <Time>2020-02-15T12:19:16.000Z</Time>
            <Position>
              <LatitudeDegrees>42.00222079642117023468017578125</LatitudeDegrees>
              <LongitudeDegrees>2.84315253607928752899169921875</LongitudeDegrees>
            </Position>
            <AltitudeMeters>193.1999969482421875</AltitudeMeters>
            <DistanceMeters>NAN</DistanceMeters>
          </Trackpoint>
          <Trackpoint>
            <Time>2020-02-15T12:19:17.000Z</Time>
            <Position>
              <LatitudeDegrees>42.00219464488327503204345703125</LatitudeDegrees>
              <LongitudeDegrees>2.8430770151317119598388671875</LongitudeDegrees>
            </Position>
            <AltitudeMeters>193</AltitudeMeters>
            <DistanceMeters>NAN</DistanceMeters>
          </Trackpoint>
          <Trackpoint>
            <Time>2020-02-15T12:19:18.000Z</Time>
            <Position>
              <LatitudeDegrees>42.002179138362407684326171875</LatitudeDegrees>
              <LongitudeDegrees>2.84299663268029689788818359375</LongitudeDegrees>
            </Position>
            <AltitudeMeters>193</AltitudeMeters>
            <DistanceMeters>NAN</DistanceMeters>
          </Trackpoint>
          <Trackpoint>
            <Time>2020-02-15T12:19:19.000Z</Time>
            <Position>
              <LatitudeDegrees>42.00217084027826786041259765625</LatitudeDegrees>
              <LongitudeDegrees>2.8429147414863109588623046875</LongitudeDegrees>
            </Position>
            <AltitudeMeters>192.399993896484375</AltitudeMeters>
            <DistanceMeters>NAN</DistanceMeters>
          </Trackpoint>
          <Trackpoint>
            <Time>2020-02-15T12:19:20.000Z</Time>
            <Position>
              <LatitudeDegrees>42.0021655596792697906494140625</LatitudeDegrees>
              <LongitudeDegrees>2.8428315930068492889404296875</LongitudeDegrees>
            </Position>
            <AltitudeMeters>191.8000030517578125</AltitudeMeters>
            <DistanceMeters>NAN</DistanceMeters>
          </Trackpoint>
          <Trackpoint>
            <Time>2020-02-15T12:19:21.000Z</Time>
            <Position>
              <LatitudeDegrees>42.0021628774702548980712890625</LatitudeDegrees>
              <LongitudeDegrees>2.84274919889867305755615234375</LongitudeDegrees>
            </Position>
            <AltitudeMeters>191.1999969482421875</AltitudeMeters>
            <DistanceMeters>NAN</DistanceMeters>
          </Trackpoint>
          <Trackpoint>
            <Time>2020-02-15T12:19:22.000Z</Time>
            <Position>
              <LatitudeDegrees>42.0021632127463817596435546875</LatitudeDegrees>
              <LongitudeDegrees>2.84266806207597255706787109375</LongitudeDegrees>
            </Position>
            <AltitudeMeters>190.8000030517578125</AltitudeMeters>
            <DistanceMeters>NAN</DistanceMeters>
          </Trackpoint>
          <Trackpoint>
            <Time>2020-02-15T12:19:23.000Z</Time>
            <Position>
              <LatitudeDegrees>42.00216681696474552154541015625</LatitudeDegrees>
              <LongitudeDegrees>2.84258809871971607208251953125</LongitudeDegrees>
            </Position>
            <AltitudeMeters>190.600006103515625</AltitudeMeters>
            <DistanceMeters>NAN</DistanceMeters>
          </Trackpoint>
          <Trackpoint>
            <Time>2020-02-15T12:19:24.000Z</Time>
            <Position>
              <LatitudeDegrees>42.0021742768585681915283203125</LatitudeDegrees>
              <LongitudeDegrees>2.8425114043056964874267578125</LongitudeDegrees>
            </Position>
            <AltitudeMeters>190.600006103515625</AltitudeMeters>
            <DistanceMeters>NAN</DistanceMeters>
          </Trackpoint>
          <Trackpoint>
            <Time>2020-02-15T12:19:25.000Z</Time>
            <Position>
              <LatitudeDegrees>42.0021848380565643310546875</LatitudeDegrees>
              <LongitudeDegrees>2.84243823029100894927978515625</LongitudeDegrees>
            </Position>
            <AltitudeMeters>190.399993896484375</AltitudeMeters>
            <DistanceMeters>NAN</DistanceMeters>
          </Trackpoint>
          <Trackpoint>
            <Time>2020-02-15T12:19:26.000Z</Time>
            <Position>
              <LatitudeDegrees>42.0021977461874485015869140625</LatitudeDegrees>
              <LongitudeDegrees>2.8423695825040340423583984375</LongitudeDegrees>
            </Position>
            <AltitudeMeters>190.399993896484375</AltitudeMeters>
            <DistanceMeters>NAN</DistanceMeters>
          </Trackpoint>
          <Trackpoint>
            <Time>2020-02-15T12:19:27.000Z</Time>
            <Position>
              <LatitudeDegrees>42.00221207924187183380126953125</LatitudeDegrees>
              <LongitudeDegrees>2.8423045389354228973388671875</LongitudeDegrees>
            </Position>
            <AltitudeMeters>190.399993896484375</AltitudeMeters>
            <DistanceMeters>NAN</DistanceMeters>
          </Trackpoint>
          <Trackpoint>
            <Time>2020-02-15T12:19:28.000Z</Time>
            <Position>
              <LatitudeDegrees>42.00222549028694629669189453125</LatitudeDegrees>
              <LongitudeDegrees>2.842243351042270660400390625</LongitudeDegrees>
            </Position>
            <AltitudeMeters>190.399993896484375</AltitudeMeters>
            <DistanceMeters>NAN</DistanceMeters>
          </Trackpoint>
          <Trackpoint>
            <Time>2020-02-15T12:19:29.000Z</Time>
            <Position>
              <LatitudeDegrees>42.0022349618375301361083984375</LatitudeDegrees>
              <LongitudeDegrees>2.84218627028167247772216796875</LongitudeDegrees>
            </Position>
            <AltitudeMeters>190.399993896484375</AltitudeMeters>
            <DistanceMeters>NAN</DistanceMeters>
          </Trackpoint>
          <Trackpoint>
            <Time>2020-02-15T12:19:30.000Z</Time>
            <Position>
              <LatitudeDegrees>42.00223823077976703643798828125</LatitudeDegrees>
              <LongitudeDegrees>2.84213279373943805694580078125</LongitudeDegrees>
            </Position>
            <AltitudeMeters>190.399993896484375</AltitudeMeters>
            <DistanceMeters>NAN</DistanceMeters>
          </Trackpoint>
          <Trackpoint>
            <Time>2020-02-15T12:19:31.000Z</Time>
            <Position>
              <LatitudeDegrees>42.0022349618375301361083984375</LatitudeDegrees>
              <LongitudeDegrees>2.84208334051072597503662109375</LongitudeDegrees>
            </Position>
            <AltitudeMeters>190.399993896484375</AltitudeMeters>
            <DistanceMeters>NAN</DistanceMeters>
          </Trackpoint>
          <Trackpoint>
            <Time>2020-02-15T12:19:32.000Z</Time>
            <Position>
              <LatitudeDegrees>42.00222481973469257354736328125</LatitudeDegrees>
              <LongitudeDegrees>2.84203908406198024749755859375</LongitudeDegrees>
            </Position>
            <AltitudeMeters>190.399993896484375</AltitudeMeters>
            <DistanceMeters>NAN</DistanceMeters>
          </Trackpoint>
          <Trackpoint>
            <Time>2020-02-15T12:19:33.000Z</Time>
            <Position>
              <LatitudeDegrees>42.00221174396574497222900390625</LatitudeDegrees>
              <LongitudeDegrees>2.841999270021915435791015625</LongitudeDegrees>
            </Position>
            <AltitudeMeters>190.399993896484375</AltitudeMeters>
            <DistanceMeters>NAN</DistanceMeters>
          </Trackpoint>
          <Trackpoint>
            <Time>2020-02-15T12:19:34.000Z</Time>
            <Position>
              <LatitudeDegrees>42.00219732709228992462158203125</LatitudeDegrees>
              <LongitudeDegrees>2.84196331165730953216552734375</LongitudeDegrees>
            </Position>
            <AltitudeMeters>190.399993896484375</AltitudeMeters>
            <DistanceMeters>NAN</DistanceMeters>
          </Trackpoint>
          <Trackpoint>
            <Time>2020-02-15T12:19:35.000Z</Time>
            <Position>
              <LatitudeDegrees>42.00218207202851772308349609375</LatitudeDegrees>
              <LongitudeDegrees>2.84193129278719425201416015625</LongitudeDegrees>
            </Position>
            <AltitudeMeters>190.399993896484375</AltitudeMeters>
            <DistanceMeters>NAN</DistanceMeters>
          </Trackpoint>
          <Trackpoint>
            <Time>2020-02-15T12:19:36.000Z</Time>
            <Position>
              <LatitudeDegrees>42.00216832570731639862060546875</LatitudeDegrees>
              <LongitudeDegrees>2.84190011210739612579345703125</LongitudeDegrees>
            </Position>
            <AltitudeMeters>190.600006103515625</AltitudeMeters>
            <DistanceMeters>NAN</DistanceMeters>
          </Trackpoint>
          <Trackpoint>
            <Time>2020-02-15T12:19:37.000Z</Time>
            <Position>
              <LatitudeDegrees>42.00215524993836879730224609375</LatitudeDegrees>
              <LongitudeDegrees>2.841870523989200592041015625</LongitudeDegrees>
            </Position>
            <AltitudeMeters>190.8000030517578125</AltitudeMeters>
            <DistanceMeters>NAN</DistanceMeters>
          </Trackpoint>
          <Trackpoint>
            <Time>2020-02-15T12:19:38.000Z</Time>
            <Position>
              <LatitudeDegrees>42.0021420903503894805908203125</LatitudeDegrees>
              <LongitudeDegrees>2.84183993004262447357177734375</LongitudeDegrees>
            </Position>
            <AltitudeMeters>191.1999969482421875</AltitudeMeters>
            <DistanceMeters>NAN</DistanceMeters>
          </Trackpoint>
          <Trackpoint>
            <Time>2020-02-15T12:19:39.000Z</Time>
            <Position>
              <LatitudeDegrees>42.00212792493402957916259765625</LatitudeDegrees>
              <LongitudeDegrees>2.84180916845798492431640625</LongitudeDegrees>
            </Position>
            <AltitudeMeters>191.399993896484375</AltitudeMeters>
            <DistanceMeters>NAN</DistanceMeters>
          </Trackpoint>
          <Trackpoint>
            <Time>2020-02-15T12:19:40.000Z</Time>
            <Position>
              <LatitudeDegrees>42.0021142624318599700927734375</LatitudeDegrees>
              <LongitudeDegrees>2.84177706576883792877197265625</LongitudeDegrees>
            </Position>
            <AltitudeMeters>191.399993896484375</AltitudeMeters>
            <DistanceMeters>NAN</DistanceMeters>
          </Trackpoint>
          <Trackpoint>
            <Time>2020-02-15T12:19:41.000Z</Time>
            <Position>
              <LatitudeDegrees>42.00210160575807094573974609375</LatitudeDegrees>
              <LongitudeDegrees>2.84174471162259578704833984375</LongitudeDegrees>
            </Position>
            <AltitudeMeters>191.8000030517578125</AltitudeMeters>
            <DistanceMeters>NAN</DistanceMeters>
          </Trackpoint>
          <Trackpoint>
            <Time>2020-02-15T12:19:42.000Z</Time>
            <Position>
              <LatitudeDegrees>42.002091296017169952392578125</LatitudeDegrees>
              <LongitudeDegrees>2.84171269275248050689697265625</LongitudeDegrees>
            </Position>
            <AltitudeMeters>192.1999969482421875</AltitudeMeters>
            <DistanceMeters>NAN</DistanceMeters>
          </Trackpoint>
          <Trackpoint>
            <Time>2020-02-15T12:19:43.000Z</Time>
            <Position>
              <LatitudeDegrees>42.00208316557109355926513671875</LatitudeDegrees>
              <LongitudeDegrees>2.84168117679655551910400390625</LongitudeDegrees>
            </Position>
            <AltitudeMeters>192.399993896484375</AltitudeMeters>
            <DistanceMeters>NAN</DistanceMeters>
          </Trackpoint>
          <Trackpoint>
            <Time>2020-02-15T12:19:44.000Z</Time>
            <Position>
              <LatitudeDegrees>42.00207897461950778961181640625</LatitudeDegrees>
              <LongitudeDegrees>2.841650582849979400634765625</LongitudeDegrees>
            </Position>
            <AltitudeMeters>192.8000030517578125</AltitudeMeters>
            <DistanceMeters>NAN</DistanceMeters>
          </Trackpoint>
          <Trackpoint>
            <Time>2020-02-15T12:19:45.000Z</Time>
            <Position>
              <LatitudeDegrees>42.0020757056772708892822265625</LatitudeDegrees>
              <LongitudeDegrees>2.841619737446308135986328125</LongitudeDegrees>
            </Position>
            <AltitudeMeters>193</AltitudeMeters>
            <DistanceMeters>NAN</DistanceMeters>
          </Trackpoint>
          <Trackpoint>
            <Time>2020-02-15T12:19:46.000Z</Time>
            <Position>
              <LatitudeDegrees>42.00207176618278026580810546875</LatitudeDegrees>
              <LongitudeDegrees>2.8415867127478122711181640625</LongitudeDegrees>
            </Position>
            <AltitudeMeters>193.1999969482421875</AltitudeMeters>
            <DistanceMeters>NAN</DistanceMeters>
          </Trackpoint>
          <Trackpoint>
            <Time>2020-02-15T12:19:47.000Z</Time>
            <Position>
              <LatitudeDegrees>42.002067826688289642333984375</LatitudeDegrees>
              <LongitudeDegrees>2.84155159257352352142333984375</LongitudeDegrees>
            </Position>
            <AltitudeMeters>193.399993896484375</AltitudeMeters>
            <DistanceMeters>NAN</DistanceMeters>
          </Trackpoint>
          <Trackpoint>
            <Time>2020-02-15T12:19:48.000Z</Time>
            <Position>
              <LatitudeDegrees>42.002063803374767303466796875</LatitudeDegrees>
              <LongitudeDegrees>2.84151689149439334869384765625</LongitudeDegrees>
            </Position>
            <AltitudeMeters>193.8000030517578125</AltitudeMeters>
            <DistanceMeters>NAN</DistanceMeters>
          </Trackpoint>
          <Trackpoint>
            <Time>2020-02-15T12:19:49.000Z</Time>
            <Position>
              <LatitudeDegrees>42.0020606182515621185302734375</LatitudeDegrees>
              <LongitudeDegrees>2.8414841182529926300048828125</LongitudeDegrees>
            </Position>
            <AltitudeMeters>194</AltitudeMeters>
            <DistanceMeters>NAN</DistanceMeters>
          </Trackpoint>
          <Trackpoint>
            <Time>2020-02-15T12:19:50.000Z</Time>
            <Position>
              <LatitudeDegrees>42.00205969624221324920654296875</LatitudeDegrees>
              <LongitudeDegrees>2.8414509259164333343505859375</LongitudeDegrees>
            </Position>
            <AltitudeMeters>194.399993896484375</AltitudeMeters>
            <DistanceMeters>NAN</DistanceMeters>
          </Trackpoint>
          <Trackpoint>
            <Time>2020-02-15T12:19:51.000Z</Time>
            <Position>
              <LatitudeDegrees>42.00206137262284755706787109375</LatitudeDegrees>
              <LongitudeDegrees>2.84141832031309604644775390625</LongitudeDegrees>
            </Position>
            <AltitudeMeters>194.8000030517578125</AltitudeMeters>
            <DistanceMeters>NAN</DistanceMeters>
          </Trackpoint>
          <Trackpoint>
            <Time>2020-02-15T12:19:52.000Z</Time>
            <Position>
              <LatitudeDegrees>42.00206556357443332672119140625</LatitudeDegrees>
              <LongitudeDegrees>2.84138915129005908966064453125</LongitudeDegrees>
            </Position>
            <AltitudeMeters>195</AltitudeMeters>
            <DistanceMeters>NAN</DistanceMeters>
          </Trackpoint>
          <Trackpoint>
            <Time>2020-02-15T12:19:53.000Z</Time>
            <Position>
              <LatitudeDegrees>42.0020696707069873809814453125</LatitudeDegrees>
              <LongitudeDegrees>2.84136299975216388702392578125</LongitudeDegrees>
            </Position>
            <AltitudeMeters>195.399993896484375</AltitudeMeters>
            <DistanceMeters>NAN</DistanceMeters>
          </Trackpoint>
          <Trackpoint>
            <Time>2020-02-15T12:19:54.000Z</Time>
            <Position>
              <LatitudeDegrees>42.00207310728728771209716796875</LatitudeDegrees>
              <LongitudeDegrees>2.84133919514715671539306640625</LongitudeDegrees>
            </Position>
            <AltitudeMeters>195.8000030517578125</AltitudeMeters>
            <DistanceMeters>NAN</DistanceMeters>
          </Trackpoint>
          <Trackpoint>
            <Time>2020-02-15T12:19:55.000Z</Time>
            <Position>
              <LatitudeDegrees>42.00207545422017574310302734375</LatitudeDegrees>
              <LongitudeDegrees>2.8413151390850543975830078125</LongitudeDegrees>
            </Position>
            <AltitudeMeters>195.8000030517578125</AltitudeMeters>
            <DistanceMeters>NAN</DistanceMeters>
          </Trackpoint>
          <Trackpoint>
            <Time>2020-02-15T12:19:56.000Z</Time>
            <Position>
              <LatitudeDegrees>42.0020790584385395050048828125</LatitudeDegrees>
              <LongitudeDegrees>2.84128747880458831787109375</LongitudeDegrees>
            </Position>
            <AltitudeMeters>196.1999969482421875</AltitudeMeters>
            <DistanceMeters>NAN</DistanceMeters>
          </Trackpoint>
          <Trackpoint>
            <Time>2020-02-15T12:19:57.000Z</Time>
            <Position>
              <LatitudeDegrees>42.00208232738077640533447265625</LatitudeDegrees>
              <LongitudeDegrees>2.84125956706702709197998046875</LongitudeDegrees>
            </Position>
            <AltitudeMeters>196.1999969482421875</AltitudeMeters>
            <DistanceMeters>NAN</DistanceMeters>
          </Trackpoint>
          <Trackpoint>
            <Time>2020-02-15T12:19:58.000Z</Time>
            <Position>
              <LatitudeDegrees>42.002084590494632720947265625</LatitudeDegrees>
              <LongitudeDegrees>2.84123157151043415069580078125</LongitudeDegrees>
            </Position>
            <AltitudeMeters>196.399993896484375</AltitudeMeters>
            <DistanceMeters>NAN</DistanceMeters>
          </Trackpoint>
          <Trackpoint>
            <Time>2020-02-15T12:19:59.000Z</Time>
            <Position>
              <LatitudeDegrees>42.0020864345133304595947265625</LatitudeDegrees>
              <LongitudeDegrees>2.841203995048999786376953125</LongitudeDegrees>
            </Position>
            <AltitudeMeters>196.8000030517578125</AltitudeMeters>
            <DistanceMeters>NAN</DistanceMeters>
          </Trackpoint>
          <Trackpoint>
            <Time>2020-02-15T12:20:00.000Z</Time>
            <Position>
              <LatitudeDegrees>42.00208987109363079071044921875</LatitudeDegrees>
              <LongitudeDegrees>2.84117524512112140655517578125</LongitudeDegrees>
            </Position>
            <AltitudeMeters>196.8000030517578125</AltitudeMeters>
            <DistanceMeters>NAN</DistanceMeters>
          </Trackpoint>
          <Trackpoint>
            <Time>2020-02-15T12:20:01.000Z</Time>
            <Position>
              <LatitudeDegrees>42.002092301845550537109375</LatitudeDegrees>
              <LongitudeDegrees>2.84114792011678218841552734375</LongitudeDegrees>
            </Position>
            <AltitudeMeters>196.8000030517578125</AltitudeMeters>
            <DistanceMeters>NAN</DistanceMeters>
          </Trackpoint>
          <Trackpoint>
            <Time>2020-02-15T12:20:02.000Z</Time>
            <Position>
              <LatitudeDegrees>42.00209473259747028350830078125</LatitudeDegrees>
              <LongitudeDegrees>2.84112243913114070892333984375</LongitudeDegrees>
            </Position>
            <AltitudeMeters>197</AltitudeMeters>
            <DistanceMeters>NAN</DistanceMeters>
          </Trackpoint>
          <Trackpoint>
            <Time>2020-02-15T12:20:03.000Z</Time>
            <Position>
              <LatitudeDegrees>42.00209607370197772979736328125</LatitudeDegrees>
              <LongitudeDegrees>2.84109779633581638336181640625</LongitudeDegrees>
            </Position>
            <AltitudeMeters>197.399993896484375</AltitudeMeters>
            <DistanceMeters>NAN</DistanceMeters>
          </Trackpoint>
          <Trackpoint>
            <Time>2020-02-15T12:20:04.000Z</Time>
            <Position>
              <LatitudeDegrees>42.00209624134004116058349609375</LatitudeDegrees>
              <LongitudeDegrees>2.84107332117855548858642578125</LongitudeDegrees>
            </Position>
            <AltitudeMeters>197.8000030517578125</AltitudeMeters>
            <DistanceMeters>NAN</DistanceMeters>
          </Trackpoint>
          <Trackpoint>
            <Time>2020-02-15T12:20:05.000Z</Time>
            <Position>
              <LatitudeDegrees>42.0020921342074871063232421875</LatitudeDegrees>
              <LongitudeDegrees>2.841049768030643463134765625</LongitudeDegrees>
            </Position>
            <AltitudeMeters>198.1999969482421875</AltitudeMeters>
            <DistanceMeters>NAN</DistanceMeters>
          </Trackpoint>
          <Trackpoint>
            <Time>2020-02-15T12:20:06.000Z</Time>
            <Position>
              <LatitudeDegrees>42.00208492577075958251953125</LatitudeDegrees>
              <LongitudeDegrees>2.8410291485488414764404296875</LongitudeDegrees>
            </Position>
            <AltitudeMeters>198.600006103515625</AltitudeMeters>
            <DistanceMeters>NAN</DistanceMeters>
          </Trackpoint>
          <Trackpoint>
            <Time>2020-02-15T12:20:07.000Z</Time>
            <Position>
              <LatitudeDegrees>42.0020743645727634429931640625</LatitudeDegrees>
              <LongitudeDegrees>2.841008193790912628173828125</LongitudeDegrees>
            </Position>
            <AltitudeMeters>198.8000030517578125</AltitudeMeters>
            <DistanceMeters>NAN</DistanceMeters>
          </Trackpoint>
          <Trackpoint>
            <Time>2020-02-15T12:20:08.000Z</Time>
            <Position>
              <LatitudeDegrees>42.00206556357443332672119140625</LatitudeDegrees>
              <LongitudeDegrees>2.84098665229976177215576171875</LongitudeDegrees>
            </Position>
            <AltitudeMeters>199.1999969482421875</AltitudeMeters>
            <DistanceMeters>NAN</DistanceMeters>
          </Trackpoint>
          <Trackpoint>
            <Time>2020-02-15T12:20:09.000Z</Time>
            <Position>
              <LatitudeDegrees>42.0020582713186740875244140625</LatitudeDegrees>
              <LongitudeDegrees>2.840965278446674346923828125</LongitudeDegrees>
            </Position>
            <AltitudeMeters>199.399993896484375</AltitudeMeters>
            <DistanceMeters>NAN</DistanceMeters>
          </Trackpoint>
          <Trackpoint>
            <Time>2020-02-15T12:20:10.000Z</Time>
            <Position>
              <LatitudeDegrees>42.0020498894155025482177734375</LatitudeDegrees>
              <LongitudeDegrees>2.84094507806003093719482421875</LongitudeDegrees>
            </Position>
            <AltitudeMeters>199.8000030517578125</AltitudeMeters>
            <DistanceMeters>NAN</DistanceMeters>
          </Trackpoint>
          <Trackpoint>
            <Time>2020-02-15T12:20:11.000Z</Time>
            <Position>
              <LatitudeDegrees>42.00203555636107921600341796875</LatitudeDegrees>
              <LongitudeDegrees>2.84092672169208526611328125</LongitudeDegrees>
            </Position>
            <AltitudeMeters>200</AltitudeMeters>
            <DistanceMeters>NAN</DistanceMeters>
          </Trackpoint>
          <Trackpoint>
            <Time>2020-02-15T12:20:12.000Z</Time>
            <Position>
              <LatitudeDegrees>42.0020210556685924530029296875</LatitudeDegrees>
              <LongitudeDegrees>2.8409097902476787567138671875</LongitudeDegrees>
            </Position>
            <AltitudeMeters>200.399993896484375</AltitudeMeters>
            <DistanceMeters>NAN</DistanceMeters>
          </Trackpoint>
          <Trackpoint>
            <Time>2020-02-15T12:20:13.000Z</Time>
            <Position>
              <LatitudeDegrees>42.00200739316642284393310546875</LatitudeDegrees>
              <LongitudeDegrees>2.8408898413181304931640625</LongitudeDegrees>
            </Position>
            <AltitudeMeters>200.8000030517578125</AltitudeMeters>
            <DistanceMeters>NAN</DistanceMeters>
          </Trackpoint>
          <Trackpoint>
            <Time>2020-02-15T12:20:14.000Z</Time>
            <Position>
              <LatitudeDegrees>42.00199247337877750396728515625</LatitudeDegrees>
              <LongitudeDegrees>2.840872071683406829833984375</LongitudeDegrees>
            </Position>
            <AltitudeMeters>201.1999969482421875</AltitudeMeters>
            <DistanceMeters>NAN</DistanceMeters>
          </Trackpoint>
          <Trackpoint>
            <Time>2020-02-15T12:20:15.000Z</Time>
            <Position>
              <LatitudeDegrees>42.00197822414338588714599609375</LatitudeDegrees>
              <LongitudeDegrees>2.84085539169609546661376953125</LongitudeDegrees>
            </Position>
            <AltitudeMeters>201.399993896484375</AltitudeMeters>
            <DistanceMeters>NAN</DistanceMeters>
          </Trackpoint>
          <Trackpoint>
            <Time>2020-02-15T12:20:16.000Z</Time>
            <Position>
              <LatitudeDegrees>42.00196598656475543975830078125</LatitudeDegrees>
              <LongitudeDegrees>2.8408380411565303802490234375</LongitudeDegrees>
            </Position>
            <AltitudeMeters>201.8000030517578125</AltitudeMeters>
            <DistanceMeters>NAN</DistanceMeters>
          </Trackpoint>
          <Trackpoint>
            <Time>2020-02-15T12:20:17.000Z</Time>
            <Position>
              <LatitudeDegrees>42.0019553415477275848388671875</LatitudeDegrees>
              <LongitudeDegrees>2.8408212773501873016357421875</LongitudeDegrees>
            </Position>
            <AltitudeMeters>202</AltitudeMeters>
            <DistanceMeters>NAN</DistanceMeters>
          </Trackpoint>
          <Trackpoint>
            <Time>2020-02-15T12:20:18.000Z</Time>
            <Position>
              <LatitudeDegrees>42.00194503180682659149169921875</LatitudeDegrees>
              <LongitudeDegrees>2.84080476500093936920166015625</LongitudeDegrees>
            </Position>
            <AltitudeMeters>202.399993896484375</AltitudeMeters>
            <DistanceMeters>NAN</DistanceMeters>
          </Trackpoint>
          <Trackpoint>
            <Time>2020-02-15T12:20:19.000Z</Time>
            <Position>
              <LatitudeDegrees>42.0019328780472278594970703125</LatitudeDegrees>
              <LongitudeDegrees>2.84078749828040599822998046875</LongitudeDegrees>
            </Position>
            <AltitudeMeters>202.600006103515625</AltitudeMeters>
            <DistanceMeters>NAN</DistanceMeters>
          </Trackpoint>
          <Trackpoint>
            <Time>2020-02-15T12:20:20.000Z</Time>
            <Position>
              <LatitudeDegrees>42.0019164495170116424560546875</LatitudeDegrees>
              <LongitudeDegrees>2.8407693095505237579345703125</LongitudeDegrees>
            </Position>
            <AltitudeMeters>202.8000030517578125</AltitudeMeters>
            <DistanceMeters>NAN</DistanceMeters>
          </Trackpoint>
          <Trackpoint>
            <Time>2020-02-15T12:20:21.000Z</Time>
            <Position>
              <LatitudeDegrees>42.001899182796478271484375</LatitudeDegrees>
              <LongitudeDegrees>2.8407495282590389251708984375</LongitudeDegrees>
            </Position>
            <AltitudeMeters>202.8000030517578125</AltitudeMeters>
            <DistanceMeters>NAN</DistanceMeters>
          </Trackpoint>
          <Trackpoint>
            <Time>2020-02-15T12:20:22.000Z</Time>
            <Position>
              <LatitudeDegrees>42.00188267044723033905029296875</LatitudeDegrees>
              <LongitudeDegrees>2.84073092043399810791015625</LongitudeDegrees>
            </Position>
            <AltitudeMeters>203</AltitudeMeters>
            <DistanceMeters>NAN</DistanceMeters>
          </Trackpoint>
          <Trackpoint>
            <Time>2020-02-15T12:20:23.000Z</Time>
            <Position>
              <LatitudeDegrees>42.001863978803157806396484375</LatitudeDegrees>
              <LongitudeDegrees>2.8407106362283229827880859375</LongitudeDegrees>
            </Position>
            <AltitudeMeters>203.399993896484375</AltitudeMeters>
            <DistanceMeters>NAN</DistanceMeters>
          </Trackpoint>
          <Trackpoint>
            <Time>2020-02-15T12:20:24.000Z</Time>
            <Position>
              <LatitudeDegrees>42.001845538616180419921875</LatitudeDegrees>
              <LongitudeDegrees>2.84069512970745563507080078125</LongitudeDegrees>
            </Position>
            <AltitudeMeters>203.8000030517578125</AltitudeMeters>
            <DistanceMeters>NAN</DistanceMeters>
          </Trackpoint>
          <Trackpoint>
            <Time>2020-02-15T12:20:25.000Z</Time>
            <Position>
              <LatitudeDegrees>42.001825757324695587158203125</LatitudeDegrees>
              <LongitudeDegrees>2.8406833112239837646484375</LongitudeDegrees>
            </Position>
            <AltitudeMeters>204</AltitudeMeters>
            <DistanceMeters>NAN</DistanceMeters>
          </Trackpoint>
          <Trackpoint>
            <Time>2020-02-15T12:20:26.000Z</Time>
            <Position>
              <LatitudeDegrees>42.0018058083951473236083984375</LatitudeDegrees>
              <LongitudeDegrees>2.840670906007289886474609375</LongitudeDegrees>
            </Position>
            <AltitudeMeters>204.399993896484375</AltitudeMeters>
            <DistanceMeters>NAN</DistanceMeters>
          </Trackpoint>
          <Trackpoint>
            <Time>2020-02-15T12:20:27.000Z</Time>
            <Position>
              <LatitudeDegrees>42.0017873682081699371337890625</LatitudeDegrees>
              <LongitudeDegrees>2.84065607003867626190185546875</LongitudeDegrees>
            </Position>
            <AltitudeMeters>204.600006103515625</AltitudeMeters>
            <DistanceMeters>NAN</DistanceMeters>
          </Trackpoint>
          <Trackpoint>
            <Time>2020-02-15T12:20:28.000Z</Time>
            <Position>
              <LatitudeDegrees>42.00177052058279514312744140625</LatitudeDegrees>
              <LongitudeDegrees>2.84064106643199920654296875</LongitudeDegrees>
            </Position>
            <AltitudeMeters>205</AltitudeMeters>
            <DistanceMeters>NAN</DistanceMeters>
          </Trackpoint>
          <Trackpoint>
            <Time>2020-02-15T12:20:29.000Z</Time>
            <Position>
              <LatitudeDegrees>42.00175308622419834136962890625</LatitudeDegrees>
              <LongitudeDegrees>2.840626649558544158935546875</LongitudeDegrees>
            </Position>
            <AltitudeMeters>205.399993896484375</AltitudeMeters>
            <DistanceMeters>NAN</DistanceMeters>
          </Trackpoint>
          <Trackpoint>
            <Time>2020-02-15T12:20:30.000Z</Time>
            <Position>
              <LatitudeDegrees>42.001735903322696685791015625</LatitudeDegrees>
              <LongitudeDegrees>2.84061416052281856536865234375</LongitudeDegrees>
            </Position>
            <AltitudeMeters>205.8000030517578125</AltitudeMeters>
            <DistanceMeters>NAN</DistanceMeters>
          </Trackpoint>
          <Trackpoint>
            <Time>2020-02-15T12:20:31.000Z</Time>
            <Position>
              <LatitudeDegrees>42.00172106735408306121826171875</LatitudeDegrees>
              <LongitudeDegrees>2.84060209058225154876708984375</LongitudeDegrees>
            </Position>
            <AltitudeMeters>206.1999969482421875</AltitudeMeters>
            <DistanceMeters>NAN</DistanceMeters>
          </Trackpoint>
          <Trackpoint>
            <Time>2020-02-15T12:20:32.000Z</Time>
            <Position>
              <LatitudeDegrees>42.0017028786242008209228515625</LatitudeDegrees>
              <LongitudeDegrees>2.84058717079460620880126953125</LongitudeDegrees>
            </Position>
            <AltitudeMeters>206.600006103515625</AltitudeMeters>
            <DistanceMeters>NAN</DistanceMeters>
          </Trackpoint>
          <Trackpoint>
            <Time>2020-02-15T12:20:33.000Z</Time>
            <Position>
              <LatitudeDegrees>42.00168636627495288848876953125</LatitudeDegrees>
              <LongitudeDegrees>2.84057526849210262298583984375</LongitudeDegrees>
            </Position>
            <AltitudeMeters>207</AltitudeMeters>
            <DistanceMeters>NAN</DistanceMeters>
          </Trackpoint>
          <Trackpoint>
            <Time>2020-02-15T12:20:34.000Z</Time>
            <Position>
              <LatitudeDegrees>42.00166876427829265594482421875</LatitudeDegrees>
              <LongitudeDegrees>2.84056370146572589874267578125</LongitudeDegrees>
            </Position>
            <AltitudeMeters>207.399993896484375</AltitudeMeters>
            <DistanceMeters>NAN</DistanceMeters>
          </Trackpoint>
          <Trackpoint>
            <Time>2020-02-15T12:20:35.000Z</Time>
            <Position>
              <LatitudeDegrees>42.0016495697200298309326171875</LatitudeDegrees>
              <LongitudeDegrees>2.8405518829822540283203125</LongitudeDegrees>
            </Position>
            <AltitudeMeters>207.399993896484375</AltitudeMeters>
            <DistanceMeters>NAN</DistanceMeters>
          </Trackpoint>
          <Trackpoint>
            <Time>2020-02-15T12:20:36.000Z</Time>
            <Position>
              <LatitudeDegrees>42.0016297884285449981689453125</LatitudeDegrees>
              <LongitudeDegrees>2.84053972922265529632568359375</LongitudeDegrees>
            </Position>
            <AltitudeMeters>207.8000030517578125</AltitudeMeters>
            <DistanceMeters>NAN</DistanceMeters>
          </Trackpoint>
          <Trackpoint>
            <Time>2020-02-15T12:20:37.000Z</Time>
            <Position>
              <LatitudeDegrees>42.00160824693739414215087890625</LatitudeDegrees>
              <LongitudeDegrees>2.84052707254886627197265625</LongitudeDegrees>
            </Position>
            <AltitudeMeters>207.8000030517578125</AltitudeMeters>
            <DistanceMeters>NAN</DistanceMeters>
          </Trackpoint>
          <Trackpoint>
            <Time>2020-02-15T12:20:38.000Z</Time>
            <Position>
              <LatitudeDegrees>42.0015862025320529937744140625</LatitudeDegrees>
              <LongitudeDegrees>2.84051525406539440155029296875</LongitudeDegrees>
            </Position>
            <AltitudeMeters>208</AltitudeMeters>
            <DistanceMeters>NAN</DistanceMeters>
          </Trackpoint>
          <Trackpoint>
            <Time>2020-02-15T12:20:39.000Z</Time>
            <Position>
              <LatitudeDegrees>42.00156449340283870697021484375</LatitudeDegrees>
              <LongitudeDegrees>2.8405041061341762542724609375</LongitudeDegrees>
            </Position>
            <AltitudeMeters>208.1999969482421875</AltitudeMeters>
            <DistanceMeters>NAN</DistanceMeters>
          </Trackpoint>
          <Trackpoint>
            <Time>2020-02-15T12:20:40.000Z</Time>
            <Position>
              <LatitudeDegrees>42.00154177844524383544921875</LatitudeDegrees>
              <LongitudeDegrees>2.84049329347908496856689453125</LongitudeDegrees>
            </Position>
            <AltitudeMeters>208.399993896484375</AltitudeMeters>
            <DistanceMeters>NAN</DistanceMeters>
          </Trackpoint>
          <Trackpoint>
            <Time>2020-02-15T12:20:41.000Z</Time>
            <Position>
              <LatitudeDegrees>42.0015201531350612640380859375</LatitudeDegrees>
              <LongitudeDegrees>2.8404819779098033905029296875</LongitudeDegrees>
            </Position>
            <AltitudeMeters>208.600006103515625</AltitudeMeters>
            <DistanceMeters>NAN</DistanceMeters>
          </Trackpoint>
          <Trackpoint>
            <Time>2020-02-15T12:20:42.000Z</Time>
            <Position>
              <LatitudeDegrees>42.00150012038648128509521484375</LatitudeDegrees>
              <LongitudeDegrees>2.84046999178826808929443359375</LongitudeDegrees>
            </Position>
            <AltitudeMeters>208.8000030517578125</AltitudeMeters>
            <DistanceMeters>NAN</DistanceMeters>
          </Trackpoint>
          <Trackpoint>
            <Time>2020-02-15T12:20:43.000Z</Time>
            <Position>
              <LatitudeDegrees>42.00148235075175762176513671875</LatitudeDegrees>
              <LongitudeDegrees>2.84046001732349395751953125</LongitudeDegrees>
            </Position>
            <AltitudeMeters>208.8000030517578125</AltitudeMeters>
            <DistanceMeters>NAN</DistanceMeters>
          </Trackpoint>
          <Trackpoint>
            <Time>2020-02-15T12:20:44.000Z</Time>
            <Position>
              <LatitudeDegrees>42.0014633238315582275390625</LatitudeDegrees>
              <LongitudeDegrees>2.8404487855732440948486328125</LongitudeDegrees>
            </Position>
            <AltitudeMeters>209</AltitudeMeters>
            <DistanceMeters>NAN</DistanceMeters>
          </Trackpoint>
          <Trackpoint>
            <Time>2020-02-15T12:20:45.000Z</Time>
            <Position>
              <LatitudeDegrees>42.00144178234040737152099609375</LatitudeDegrees>
              <LongitudeDegrees>2.8404370509088039398193359375</LongitudeDegrees>
            </Position>
            <AltitudeMeters>209.1999969482421875</AltitudeMeters>
            <DistanceMeters>NAN</DistanceMeters>
          </Trackpoint>
          <Trackpoint>
            <Time>2020-02-15T12:20:46.000Z</Time>
            <Position>
              <LatitudeDegrees>42.0014202408492565155029296875</LatitudeDegrees>
              <LongitudeDegrees>2.84042514860630035400390625</LongitudeDegrees>
            </Position>
            <AltitudeMeters>209.399993896484375</AltitudeMeters>
            <DistanceMeters>NAN</DistanceMeters>
          </Trackpoint>
          <Trackpoint>
            <Time>2020-02-15T12:20:47.000Z</Time>
            <Position>
              <LatitudeDegrees>42.00140071101486682891845703125</LatitudeDegrees>
              <LongitudeDegrees>2.84041433595120906829833984375</LongitudeDegrees>
            </Position>
            <AltitudeMeters>209.600006103515625</AltitudeMeters>
            <DistanceMeters>NAN</DistanceMeters>
          </Trackpoint>
          <Trackpoint>
            <Time>2020-02-15T12:20:48.000Z</Time>
            <Position>
              <LatitudeDegrees>42.0013801753520965576171875</LatitudeDegrees>
              <LongitudeDegrees>2.84040561877191066741943359375</LongitudeDegrees>
            </Position>
            <AltitudeMeters>209.8000030517578125</AltitudeMeters>
            <DistanceMeters>NAN</DistanceMeters>
          </Trackpoint>
          <Trackpoint>
            <Time>2020-02-15T12:20:49.000Z</Time>
            <Position>
              <LatitudeDegrees>42.0013582147657871246337890625</LatitudeDegrees>
              <LongitudeDegrees>2.8403978236019611358642578125</LongitudeDegrees>
            </Position>
            <AltitudeMeters>210.1999969482421875</AltitudeMeters>
            <DistanceMeters>NAN</DistanceMeters>
          </Trackpoint>
          <Trackpoint>
            <Time>2020-02-15T12:20:50.000Z</Time>
            <Position>
              <LatitudeDegrees>42.0013370923697948455810546875</LatitudeDegrees>
              <LongitudeDegrees>2.8403870947659015655517578125</LongitudeDegrees>
            </Position>
            <AltitudeMeters>210.399993896484375</AltitudeMeters>
            <DistanceMeters>NAN</DistanceMeters>
          </Trackpoint>
          <Trackpoint>
            <Time>2020-02-15T12:20:51.000Z</Time>
            <Position>
              <LatitudeDegrees>42.0013152994215488433837890625</LatitudeDegrees>
              <LongitudeDegrees>2.84037552773952484130859375</LongitudeDegrees>
            </Position>
            <AltitudeMeters>210.600006103515625</AltitudeMeters>
            <DistanceMeters>NAN</DistanceMeters>
          </Trackpoint>
          <Trackpoint>
            <Time>2020-02-15T12:20:52.000Z</Time>
            <Position>
              <LatitudeDegrees>42.00129157863557338714599609375</LatitudeDegrees>
              <LongitudeDegrees>2.84036756493151187896728515625</LongitudeDegrees>
            </Position>
            <AltitudeMeters>210.8000030517578125</AltitudeMeters>
            <DistanceMeters>NAN</DistanceMeters>
          </Trackpoint>
          <Trackpoint>
            <Time>2020-02-15T12:20:53.000Z</Time>
            <Position>
              <LatitudeDegrees>42.00126844458281993865966796875</LatitudeDegrees>
              <LongitudeDegrees>2.84035951830446720123291015625</LongitudeDegrees>
            </Position>
            <AltitudeMeters>211</AltitudeMeters>
            <DistanceMeters>NAN</DistanceMeters>
          </Trackpoint>
          <Trackpoint>
            <Time>2020-02-15T12:20:54.000Z</Time>
            <Position>
              <LatitudeDegrees>42.0012458972632884979248046875</LatitudeDegrees>
              <LongitudeDegrees>2.84034870564937591552734375</LongitudeDegrees>
            </Position>
            <AltitudeMeters>211.1999969482421875</AltitudeMeters>
            <DistanceMeters>NAN</DistanceMeters>
          </Trackpoint>
          <Trackpoint>
            <Time>2020-02-15T12:20:55.000Z</Time>
            <Position>
              <LatitudeDegrees>42.001222260296344757080078125</LatitudeDegrees>
              <LongitudeDegrees>2.8403351269662380218505859375</LongitudeDegrees>
            </Position>
            <AltitudeMeters>211.399993896484375</AltitudeMeters>
            <DistanceMeters>NAN</DistanceMeters>
          </Trackpoint>
          <Trackpoint>
            <Time>2020-02-15T12:20:56.000Z</Time>
            <Position>
              <LatitudeDegrees>42.0011969469487667083740234375</LatitudeDegrees>
              <LongitudeDegrees>2.8403217159211635589599609375</LongitudeDegrees>
            </Position>
            <AltitudeMeters>211.399993896484375</AltitudeMeters>
            <DistanceMeters>NAN</DistanceMeters>
          </Trackpoint>
          <Trackpoint>
            <Time>2020-02-15T12:20:57.000Z</Time>
            <Position>
              <LatitudeDegrees>42.00117289088666439056396484375</LatitudeDegrees>
              <LongitudeDegrees>2.84030738286674022674560546875</LongitudeDegrees>
            </Position>
            <AltitudeMeters>211.8000030517578125</AltitudeMeters>
            <DistanceMeters>NAN</DistanceMeters>
          </Trackpoint>
          <Trackpoint>
            <Time>2020-02-15T12:20:58.000Z</Time>
            <Position>
              <LatitudeDegrees>42.001148499548435211181640625</LatitudeDegrees>
              <LongitudeDegrees>2.84029028378427028656005859375</LongitudeDegrees>
            </Position>
            <AltitudeMeters>212</AltitudeMeters>
            <DistanceMeters>NAN</DistanceMeters>
          </Trackpoint>
          <Trackpoint>
            <Time>2020-02-15T12:20:59.000Z</Time>
            <Position>
              <LatitudeDegrees>42.00112561695277690887451171875</LatitudeDegrees>
              <LongitudeDegrees>2.8402756154537200927734375</LongitudeDegrees>
            </Position>
            <AltitudeMeters>212</AltitudeMeters>
            <DistanceMeters>NAN</DistanceMeters>
          </Trackpoint>
          <Trackpoint>
            <Time>2020-02-15T12:21:00.000Z</Time>
            <Position>
              <LatitudeDegrees>42.00110164470970630645751953125</LatitudeDegrees>
              <LongitudeDegrees>2.840263210237026214599609375</LongitudeDegrees>
            </Position>
            <AltitudeMeters>212.1999969482421875</AltitudeMeters>
            <DistanceMeters>NAN</DistanceMeters>
          </Trackpoint>
          <Trackpoint>
            <Time>2020-02-15T12:21:01.000Z</Time>
            <Position>
              <LatitudeDegrees>42.00107683427631855010986328125</LatitudeDegrees>
              <LongitudeDegrees>2.84025080502033233642578125</LongitudeDegrees>
            </Position>
            <AltitudeMeters>212.1999969482421875</AltitudeMeters>
            <DistanceMeters>NAN</DistanceMeters>
          </Trackpoint>
          <Trackpoint>
            <Time>2020-02-15T12:21:02.000Z</Time>
            <Position>
              <LatitudeDegrees>42.00105185620486736297607421875</LatitudeDegrees>
              <LongitudeDegrees>2.84023781307041645050048828125</LongitudeDegrees>
            </Position>
            <AltitudeMeters>212.600006103515625</AltitudeMeters>
            <DistanceMeters>NAN</DistanceMeters>
          </Trackpoint>
          <Trackpoint>
            <Time>2020-02-15T12:21:03.000Z</Time>
            <Position>
              <LatitudeDegrees>42.00102721340954303741455078125</LatitudeDegrees>
              <LongitudeDegrees>2.84022389911115169525146484375</LongitudeDegrees>
            </Position>
            <AltitudeMeters>212.8000030517578125</AltitudeMeters>
            <DistanceMeters>NAN</DistanceMeters>
          </Trackpoint>
          <Trackpoint>
            <Time>2020-02-15T12:21:04.000Z</Time>
            <Position>
              <LatitudeDegrees>42.0010018162429332733154296875</LatitudeDegrees>
              <LongitudeDegrees>2.84021015278995037078857421875</LongitudeDegrees>
            </Position>
            <AltitudeMeters>213</AltitudeMeters>
            <DistanceMeters>NAN</DistanceMeters>
          </Trackpoint>
          <Trackpoint>
            <Time>2020-02-15T12:21:05.000Z</Time>
            <Position>
              <LatitudeDegrees>42.00097742490470409393310546875</LatitudeDegrees>
              <LongitudeDegrees>2.84019908867776393890380859375</LongitudeDegrees>
            </Position>
            <AltitudeMeters>213</AltitudeMeters>
            <DistanceMeters>NAN</DistanceMeters>
          </Trackpoint>
          <Trackpoint>
            <Time>2020-02-15T12:21:06.000Z</Time>
            <Position>
              <LatitudeDegrees>42.00095328502357006072998046875</LatitudeDegrees>
              <LongitudeDegrees>2.840188443660736083984375</LongitudeDegrees>
            </Position>
            <AltitudeMeters>213.1999969482421875</AltitudeMeters>
            <DistanceMeters>NAN</DistanceMeters>
          </Trackpoint>
          <Trackpoint>
            <Time>2020-02-15T12:21:07.000Z</Time>
            <Position>
              <LatitudeDegrees>42.0009304024279117584228515625</LatitudeDegrees>
              <LongitudeDegrees>2.8401778824627399444580078125</LongitudeDegrees>
            </Position>
            <AltitudeMeters>213.600006103515625</AltitudeMeters>
            <DistanceMeters>NAN</DistanceMeters>
          </Trackpoint>
          <Trackpoint>
            <Time>2020-02-15T12:21:08.000Z</Time>
            <Position>
              <LatitudeDegrees>42.000907100737094879150390625</LatitudeDegrees>
              <LongitudeDegrees>2.84016623161733150482177734375</LongitudeDegrees>
            </Position>
            <AltitudeMeters>214</AltitudeMeters>
            <DistanceMeters>NAN</DistanceMeters>
          </Trackpoint>
          <Trackpoint>
            <Time>2020-02-15T12:21:09.000Z</Time>
            <Position>
              <LatitudeDegrees>42.0008824579417705535888671875</LatitudeDegrees>
              <LongitudeDegrees>2.84015567041933536529541015625</LongitudeDegrees>
            </Position>
            <AltitudeMeters>214.1999969482421875</AltitudeMeters>
            <DistanceMeters>NAN</DistanceMeters>
          </Trackpoint>
          <Trackpoint>
            <Time>2020-02-15T12:21:10.000Z</Time>
            <Position>
              <LatitudeDegrees>42.0008556358516216278076171875</LatitudeDegrees>
              <LongitudeDegrees>2.8401450254023075103759765625</LongitudeDegrees>
            </Position>
            <AltitudeMeters>214.600006103515625</AltitudeMeters>
            <DistanceMeters>NAN</DistanceMeters>
          </Trackpoint>
          <Trackpoint>
            <Time>2020-02-15T12:21:11.000Z</Time>
            <Position>
              <LatitudeDegrees>42.00082923285663127899169921875</LatitudeDegrees>
              <LongitudeDegrees>2.84013505093753337860107421875</LongitudeDegrees>
            </Position>
            <AltitudeMeters>214.8000030517578125</AltitudeMeters>
            <DistanceMeters>NAN</DistanceMeters>
          </Trackpoint>
          <Trackpoint>
            <Time>2020-02-15T12:21:12.000Z</Time>
            <Position>
              <LatitudeDegrees>42.00080282986164093017578125</LatitudeDegrees>
              <LongitudeDegrees>2.84012465737760066986083984375</LongitudeDegrees>
            </Position>
            <AltitudeMeters>215</AltitudeMeters>
            <DistanceMeters>NAN</DistanceMeters>
          </Trackpoint>
          <Trackpoint>
            <Time>2020-02-15T12:21:13.000Z</Time>
            <Position>
              <LatitudeDegrees>42.00077542103826999664306640625</LatitudeDegrees>
              <LongitudeDegrees>2.84011510200798511505126953125</LongitudeDegrees>
            </Position>
            <AltitudeMeters>215.399993896484375</AltitudeMeters>
            <DistanceMeters>NAN</DistanceMeters>
          </Trackpoint>
          <Trackpoint>
            <Time>2020-02-15T12:21:14.000Z</Time>
            <Position>
              <LatitudeDegrees>42.00074784457683563232421875</LatitudeDegrees>
              <LongitudeDegrees>2.8401074744760990142822265625</LongitudeDegrees>
            </Position>
            <AltitudeMeters>215.399993896484375</AltitudeMeters>
            <DistanceMeters>NAN</DistanceMeters>
          </Trackpoint>
          <Trackpoint>
            <Time>2020-02-15T12:21:15.000Z</Time>
            <Position>
              <LatitudeDegrees>42.0007218606770038604736328125</LatitudeDegrees>
              <LongitudeDegrees>2.8401007689535617828369140625</LongitudeDegrees>
            </Position>
            <AltitudeMeters>215.600006103515625</AltitudeMeters>
            <DistanceMeters>NAN</DistanceMeters>
          </Trackpoint>
          <Trackpoint>
            <Time>2020-02-15T12:21:16.000Z</Time>
            <Position>
              <LatitudeDegrees>42.00069445185363292694091796875</LatitudeDegrees>
              <LongitudeDegrees>2.84009414725005626678466796875</LongitudeDegrees>
            </Position>
            <AltitudeMeters>215.8000030517578125</AltitudeMeters>
            <DistanceMeters>NAN</DistanceMeters>
          </Trackpoint>
          <Trackpoint>
            <Time>2020-02-15T12:21:17.000Z</Time>
            <Position>
              <LatitudeDegrees>42.00066645629703998565673828125</LatitudeDegrees>
              <LongitudeDegrees>2.840087525546550750732421875</LongitudeDegrees>
            </Position>
            <AltitudeMeters>216</AltitudeMeters>
            <DistanceMeters>NAN</DistanceMeters>
          </Trackpoint>
          <Trackpoint>
            <Time>2020-02-15T12:21:18.000Z</Time>
            <Position>
              <LatitudeDegrees>42.00063728727400302886962890625</LatitudeDegrees>
              <LongitudeDegrees>2.84007805399596691131591796875</LongitudeDegrees>
            </Position>
            <AltitudeMeters>216.1999969482421875</AltitudeMeters>
            <DistanceMeters>NAN</DistanceMeters>
          </Trackpoint>
          <Trackpoint>
            <Time>2020-02-15T12:21:19.000Z</Time>
            <Position>
              <LatitudeDegrees>42.0006076991558074951171875</LatitudeDegrees>
              <LongitudeDegrees>2.84006967209279537200927734375</LongitudeDegrees>
            </Position>
            <AltitudeMeters>216.399993896484375</AltitudeMeters>
            <DistanceMeters>NAN</DistanceMeters>
          </Trackpoint>
          <Trackpoint>
            <Time>2020-02-15T12:21:20.000Z</Time>
            <Position>
              <LatitudeDegrees>42.00057626701891422271728515625</LatitudeDegrees>
              <LongitudeDegrees>2.8400622121989727020263671875</LongitudeDegrees>
            </Position>
            <AltitudeMeters>216.600006103515625</AltitudeMeters>
            <DistanceMeters>NAN</DistanceMeters>
          </Trackpoint>
          <Trackpoint>
            <Time>2020-02-15T12:21:22.000Z</Time>
            <Position>
              <LatitudeDegrees>42.00050787068903446197509765625</LatitudeDegrees>
              <LongitudeDegrees>2.84004368819296360015869140625</LongitudeDegrees>
            </Position>
            <AltitudeMeters>216.600006103515625</AltitudeMeters>
            <DistanceMeters>NAN</DistanceMeters>
          </Trackpoint>
          <Trackpoint>
            <Time>2020-02-15T12:21:23.000Z</Time>
            <Position>
              <LatitudeDegrees>42.00047316960990428924560546875</LatitudeDegrees>
              <LongitudeDegrees>2.84003044478595256805419921875</LongitudeDegrees>
            </Position>
            <AltitudeMeters>216.8000030517578125</AltitudeMeters>
            <DistanceMeters>NAN</DistanceMeters>
          </Trackpoint>
          <Trackpoint>
            <Time>2020-02-15T12:21:24.000Z</Time>
            <Position>
              <LatitudeDegrees>42.00043930672109127044677734375</LatitudeDegrees>
              <LongitudeDegrees>2.8400169499218463897705078125</LongitudeDegrees>
            </Position>
            <AltitudeMeters>216.8000030517578125</AltitudeMeters>
            <DistanceMeters>NAN</DistanceMeters>
          </Trackpoint>
          <Trackpoint>
            <Time>2020-02-15T12:21:25.000Z</Time>
            <Position>
              <LatitudeDegrees>42.00040393508970737457275390625</LatitudeDegrees>
              <LongitudeDegrees>2.83999959938228130340576171875</LongitudeDegrees>
            </Position>
            <AltitudeMeters>216.8000030517578125</AltitudeMeters>
            <DistanceMeters>NAN</DistanceMeters>
          </Trackpoint>
          <Trackpoint>
            <Time>2020-02-15T12:21:26.000Z</Time>
            <Position>
              <LatitudeDegrees>42.000370323657989501953125</LatitudeDegrees>
              <LongitudeDegrees>2.839980907738208770751953125</LongitudeDegrees>
            </Position>
            <AltitudeMeters>216.8000030517578125</AltitudeMeters>
            <DistanceMeters>NAN</DistanceMeters>
          </Trackpoint>
          <Trackpoint>
            <Time>2020-02-15T12:21:28.000Z</Time>
            <Position>
              <LatitudeDegrees>42.00030938722193241119384765625</LatitudeDegrees>
              <LongitudeDegrees>2.83994075842201709747314453125</LongitudeDegrees>
            </Position>
            <AltitudeMeters>217</AltitudeMeters>
            <DistanceMeters>NAN</DistanceMeters>
          </Trackpoint>
          <Trackpoint>
            <Time>2020-02-15T12:21:29.000Z</Time>
            <Position>
              <LatitudeDegrees>42.000281475484371185302734375</LatitudeDegrees>
              <LongitudeDegrees>2.83991821110248565673828125</LongitudeDegrees>
            </Position>
            <AltitudeMeters>217.1999969482421875</AltitudeMeters>
            <DistanceMeters>NAN</DistanceMeters>
          </Trackpoint>
          <Trackpoint>
            <Time>2020-02-15T12:21:30.000Z</Time>
            <Position>
              <LatitudeDegrees>42.00025322847068309783935546875</LatitudeDegrees>
              <LongitudeDegrees>2.83989314921200275421142578125</LongitudeDegrees>
            </Position>
            <AltitudeMeters>217.1999969482421875</AltitudeMeters>
            <DistanceMeters>NAN</DistanceMeters>
          </Trackpoint>
          <Trackpoint>
            <Time>2020-02-15T12:21:31.000Z</Time>
            <Position>
              <LatitudeDegrees>42.00022372417151927947998046875</LatitudeDegrees>
              <LongitudeDegrees>2.83986548893153667449951171875</LongitudeDegrees>
            </Position>
            <AltitudeMeters>217.399993896484375</AltitudeMeters>
            <DistanceMeters>NAN</DistanceMeters>
          </Trackpoint>
          <Trackpoint>
            <Time>2020-02-15T12:21:32.000Z</Time>
            <Position>
              <LatitudeDegrees>42.000194974243640899658203125</LatitudeDegrees>
              <LongitudeDegrees>2.8398359008133411407470703125</LongitudeDegrees>
            </Position>
            <AltitudeMeters>217.399993896484375</AltitudeMeters>
            <DistanceMeters>NAN</DistanceMeters>
          </Trackpoint>
          <Trackpoint>
            <Time>2020-02-15T12:21:33.000Z</Time>
            <Position>
              <LatitudeDegrees>42.0001659728586673736572265625</LatitudeDegrees>
              <LongitudeDegrees>2.83980245701968669891357421875</LongitudeDegrees>
            </Position>
            <AltitudeMeters>217.8000030517578125</AltitudeMeters>
            <DistanceMeters>NAN</DistanceMeters>
          </Trackpoint>
          <Trackpoint>
            <Time>2020-02-15T12:21:34.000Z</Time>
            <Position>
              <LatitudeDegrees>42.00013772584497928619384765625</LatitudeDegrees>
              <LongitudeDegrees>2.8397671692073345184326171875</LongitudeDegrees>
            </Position>
            <AltitudeMeters>217.8000030517578125</AltitudeMeters>
            <DistanceMeters>NAN</DistanceMeters>
          </Trackpoint>
          <Trackpoint>
            <Time>2020-02-15T12:21:35.000Z</Time>
            <Position>
              <LatitudeDegrees>42.00010922737419605255126953125</LatitudeDegrees>
              <LongitudeDegrees>2.83973121084272861480712890625</LongitudeDegrees>
            </Position>
            <AltitudeMeters>217.8000030517578125</AltitudeMeters>
            <DistanceMeters>NAN</DistanceMeters>
          </Trackpoint>
          <Trackpoint>
            <Time>2020-02-15T12:21:36.000Z</Time>
            <Position>
              <LatitudeDegrees>42.0000819861888885498046875</LatitudeDegrees>
              <LongitudeDegrees>2.83969734795391559600830078125</LongitudeDegrees>
            </Position>
            <AltitudeMeters>218</AltitudeMeters>
            <DistanceMeters>NAN</DistanceMeters>
          </Trackpoint>
          <Trackpoint>
            <Time>2020-02-15T12:21:37.000Z</Time>
            <Position>
              <LatitudeDegrees>42.000053487718105316162109375</LatitudeDegrees>
              <LongitudeDegrees>2.839664407074451446533203125</LongitudeDegrees>
            </Position>
            <AltitudeMeters>217.8000030517578125</AltitudeMeters>
            <DistanceMeters>NAN</DistanceMeters>
          </Trackpoint>
          <Trackpoint>
            <Time>2020-02-15T12:21:38.000Z</Time>
            <Position>
              <LatitudeDegrees>42.0000231452286243438720703125</LatitudeDegrees>
              <LongitudeDegrees>2.839634232223033905029296875</LongitudeDegrees>
            </Position>
            <AltitudeMeters>218.1999969482421875</AltitudeMeters>
            <DistanceMeters>NAN</DistanceMeters>
          </Trackpoint>
          <Trackpoint>
            <Time>2020-02-15T12:21:39.000Z</Time>
            <Position>
              <LatitudeDegrees>41.99999422766268253326416015625</LatitudeDegrees>
              <LongitudeDegrees>2.8396077454090118408203125</LongitudeDegrees>
            </Position>
            <AltitudeMeters>218.600006103515625</AltitudeMeters>
            <DistanceMeters>NAN</DistanceMeters>
          </Trackpoint>
          <Trackpoint>
            <Time>2020-02-15T12:21:40.000Z</Time>
            <Position>
              <LatitudeDegrees>41.9999624602496623992919921875</LatitudeDegrees>
              <LongitudeDegrees>2.83957832492887973785400390625</LongitudeDegrees>
            </Position>
            <AltitudeMeters>218.600006103515625</AltitudeMeters>
            <DistanceMeters>NAN</DistanceMeters>
          </Trackpoint>
          <Trackpoint>
            <Time>2020-02-15T12:21:41.000Z</Time>
            <Position>
              <LatitudeDegrees>41.9999312795698642730712890625</LatitudeDegrees>
              <LongitudeDegrees>2.83954999409615993499755859375</LongitudeDegrees>
            </Position>
            <AltitudeMeters>218.600006103515625</AltitudeMeters>
            <DistanceMeters>NAN</DistanceMeters>
          </Trackpoint>
          <Trackpoint>
            <Time>2020-02-15T12:21:42.000Z</Time>
            <Position>
              <LatitudeDegrees>41.99989892542362213134765625</LatitudeDegrees>
              <LongitudeDegrees>2.8395214118063449859619140625</LongitudeDegrees>
            </Position>
            <AltitudeMeters>219</AltitudeMeters>
            <DistanceMeters>NAN</DistanceMeters>
          </Trackpoint>
          <Trackpoint>
            <Time>2020-02-15T12:21:43.000Z</Time>
            <Position>
              <LatitudeDegrees>41.9998638890683650970458984375</LatitudeDegrees>
              <LongitudeDegrees>2.83949375152587890625</LongitudeDegrees>
            </Position>
            <AltitudeMeters>219</AltitudeMeters>
            <DistanceMeters>NAN</DistanceMeters>
          </Trackpoint>
          <Trackpoint>
            <Time>2020-02-15T12:21:44.000Z</Time>
            <Position>
              <LatitudeDegrees>41.9998276792466640472412109375</LatitudeDegrees>
              <LongitudeDegrees>2.8394674323499202728271484375</LongitudeDegrees>
            </Position>
            <AltitudeMeters>219.1999969482421875</AltitudeMeters>
            <DistanceMeters>NAN</DistanceMeters>
          </Trackpoint>
          <Trackpoint>
            <Time>2020-02-15T12:21:45.000Z</Time>
            <Position>
              <LatitudeDegrees>41.99979004450142383575439453125</LatitudeDegrees>
              <LongitudeDegrees>2.83944153226912021636962890625</LongitudeDegrees>
            </Position>
            <AltitudeMeters>219.399993896484375</AltitudeMeters>
            <DistanceMeters>NAN</DistanceMeters>
          </Trackpoint>
          <Trackpoint>
            <Time>2020-02-15T12:21:46.000Z</Time>
            <Position>
              <LatitudeDegrees>41.9997509010136127471923828125</LatitudeDegrees>
              <LongitudeDegrees>2.83941705711185932159423828125</LongitudeDegrees>
            </Position>
            <AltitudeMeters>219.600006103515625</AltitudeMeters>
            <DistanceMeters>NAN</DistanceMeters>
          </Trackpoint>
          <Trackpoint>
            <Time>2020-02-15T12:21:47.000Z</Time>
            <Position>
              <LatitudeDegrees>41.99970941059291362762451171875</LatitudeDegrees>
              <LongitudeDegrees>2.83939325250685214996337890625</LongitudeDegrees>
            </Position>
            <AltitudeMeters>219.8000030517578125</AltitudeMeters>
            <DistanceMeters>NAN</DistanceMeters>
          </Trackpoint>
          <Trackpoint>
            <Time>2020-02-15T12:21:48.000Z</Time>
            <Position>
              <LatitudeDegrees>41.9996670819818973541259765625</LatitudeDegrees>
              <LongitudeDegrees>2.8393705375492572784423828125</LongitudeDegrees>
            </Position>
            <AltitudeMeters>219.8000030517578125</AltitudeMeters>
            <DistanceMeters>NAN</DistanceMeters>
          </Trackpoint>
          <Trackpoint>
            <Time>2020-02-15T12:21:49.000Z</Time>
            <Position>
              <LatitudeDegrees>41.99962542392313480377197265625</LatitudeDegrees>
              <LongitudeDegrees>2.8393487446010112762451171875</LongitudeDegrees>
            </Position>
            <AltitudeMeters>219.8000030517578125</AltitudeMeters>
            <DistanceMeters>NAN</DistanceMeters>
          </Trackpoint>
          <Trackpoint>
            <Time>2020-02-15T12:21:50.000Z</Time>
            <Position>
              <LatitudeDegrees>41.9995842687785625457763671875</LatitudeDegrees>
              <LongitudeDegrees>2.83932871185243129730224609375</LongitudeDegrees>
            </Position>
            <AltitudeMeters>220.1999969482421875</AltitudeMeters>
            <DistanceMeters>NAN</DistanceMeters>
          </Trackpoint>
          <Trackpoint>
            <Time>2020-02-15T12:21:51.000Z</Time>
            <Position>
              <LatitudeDegrees>41.999544203281402587890625</LatitudeDegrees>
              <LongitudeDegrees>2.8393081761896610260009765625</LongitudeDegrees>
            </Position>
            <AltitudeMeters>220.399993896484375</AltitudeMeters>
            <DistanceMeters>NAN</DistanceMeters>
          </Trackpoint>
          <Trackpoint>
            <Time>2020-02-15T12:21:52.000Z</Time>
            <Position>
              <LatitudeDegrees>41.99950623326003551483154296875</LatitudeDegrees>
              <LongitudeDegrees>2.83928898163139820098876953125</LongitudeDegrees>
            </Position>
            <AltitudeMeters>220.399993896484375</AltitudeMeters>
            <DistanceMeters>NAN</DistanceMeters>
          </Trackpoint>
          <Trackpoint>
            <Time>2020-02-15T12:21:53.000Z</Time>
            <Position>
              <LatitudeDegrees>41.99946868233382701873779296875</LatitudeDegrees>
              <LongitudeDegrees>2.8392716310918331146240234375</LongitudeDegrees>
            </Position>
            <AltitudeMeters>220.399993896484375</AltitudeMeters>
            <DistanceMeters>NAN</DistanceMeters>
          </Trackpoint>
          <Trackpoint>
            <Time>2020-02-15T12:21:54.000Z</Time>
            <Position>
              <LatitudeDegrees>41.99943196959793567657470703125</LatitudeDegrees>
              <LongitudeDegrees>2.83925461582839488983154296875</LongitudeDegrees>
            </Position>
            <AltitudeMeters>220.600006103515625</AltitudeMeters>
            <DistanceMeters>NAN</DistanceMeters>
          </Trackpoint>
          <Trackpoint>
            <Time>2020-02-15T12:21:55.000Z</Time>
            <Position>
              <LatitudeDegrees>41.9993945024907588958740234375</LatitudeDegrees>
              <LongitudeDegrees>2.83923718146979808807373046875</LongitudeDegrees>
            </Position>
            <AltitudeMeters>220.8000030517578125</AltitudeMeters>
            <DistanceMeters>NAN</DistanceMeters>
          </Trackpoint>
          <Trackpoint>
            <Time>2020-02-15T12:21:56.000Z</Time>
            <Position>
              <LatitudeDegrees>41.999356783926486968994140625</LatitudeDegrees>
              <LongitudeDegrees>2.83922083675861358642578125</LongitudeDegrees>
            </Position>
            <AltitudeMeters>220.8000030517578125</AltitudeMeters>
            <DistanceMeters>NAN</DistanceMeters>
          </Trackpoint>
          <Trackpoint>
            <Time>2020-02-15T12:21:57.000Z</Time>
            <Position>
              <LatitudeDegrees>41.9993183948099613189697265625</LatitudeDegrees>
              <LongitudeDegrees>2.839203737676143646240234375</LongitudeDegrees>
            </Position>
            <AltitudeMeters>220.8000030517578125</AltitudeMeters>
            <DistanceMeters>NAN</DistanceMeters>
          </Trackpoint>
          <Trackpoint>
            <Time>2020-02-15T12:21:58.000Z</Time>
            <Position>
              <LatitudeDegrees>41.9992815144360065460205078125</LatitudeDegrees>
              <LongitudeDegrees>2.839184962213039398193359375</LongitudeDegrees>
            </Position>
            <AltitudeMeters>221.1999969482421875</AltitudeMeters>
            <DistanceMeters>NAN</DistanceMeters>
          </Trackpoint>
          <Trackpoint>
            <Time>2020-02-15T12:21:59.000Z</Time>
            <Position>
              <LatitudeDegrees>41.99924505315721035003662109375</LatitudeDegrees>
              <LongitudeDegrees>2.83916593529284000396728515625</LongitudeDegrees>
            </Position>
            <AltitudeMeters>221.399993896484375</AltitudeMeters>
            <DistanceMeters>NAN</DistanceMeters>
          </Trackpoint>
          <Trackpoint>
            <Time>2020-02-15T12:22:00.000Z</Time>
            <Position>
              <LatitudeDegrees>41.99920951388776302337646484375</LatitudeDegrees>
              <LongitudeDegrees>2.8391475789248943328857421875</LongitudeDegrees>
            </Position>
            <AltitudeMeters>221.399993896484375</AltitudeMeters>
            <DistanceMeters>NAN</DistanceMeters>
          </Trackpoint>
          <Trackpoint>
            <Time>2020-02-15T12:22:01.000Z</Time>
            <Position>
              <LatitudeDegrees>41.99917447753250598907470703125</LatitudeDegrees>
              <LongitudeDegrees>2.8391284681856632232666015625</LongitudeDegrees>
            </Position>
            <AltitudeMeters>221.8000030517578125</AltitudeMeters>
            <DistanceMeters>NAN</DistanceMeters>
          </Trackpoint>
          <Trackpoint>
            <Time>2020-02-15T12:22:02.000Z</Time>
            <Position>
              <LatitudeDegrees>41.99913851916790008544921875</LatitudeDegrees>
              <LongitudeDegrees>2.83910952508449554443359375</LongitudeDegrees>
            </Position>
            <AltitudeMeters>221.8000030517578125</AltitudeMeters>
            <DistanceMeters>NAN</DistanceMeters>
          </Trackpoint>
          <Trackpoint>
            <Time>2020-02-15T12:22:03.000Z</Time>
            <Position>
              <LatitudeDegrees>41.9991028122603893280029296875</LatitudeDegrees>
              <LongitudeDegrees>2.839091755449771881103515625</LongitudeDegrees>
            </Position>
            <AltitudeMeters>222.1999969482421875</AltitudeMeters>
            <DistanceMeters>NAN</DistanceMeters>
          </Trackpoint>
          <Trackpoint>
            <Time>2020-02-15T12:22:04.000Z</Time>
            <Position>
              <LatitudeDegrees>41.9990679435431957244873046875</LatitudeDegrees>
              <LongitudeDegrees>2.8390739858150482177734375</LongitudeDegrees>
            </Position>
            <AltitudeMeters>222.399993896484375</AltitudeMeters>
            <DistanceMeters>NAN</DistanceMeters>
          </Trackpoint>
          <Trackpoint>
            <Time>2020-02-15T12:22:05.000Z</Time>
            <Position>
              <LatitudeDegrees>41.9990337453782558441162109375</LatitudeDegrees>
              <LongitudeDegrees>2.83905663527548313140869140625</LongitudeDegrees>
            </Position>
            <AltitudeMeters>222.600006103515625</AltitudeMeters>
            <DistanceMeters>NAN</DistanceMeters>
          </Trackpoint>
          <Trackpoint>
            <Time>2020-02-15T12:22:06.000Z</Time>
            <Position>
              <LatitudeDegrees>41.99899979867041110992431640625</LatitudeDegrees>
              <LongitudeDegrees>2.839039452373981475830078125</LongitudeDegrees>
            </Position>
            <AltitudeMeters>222.8000030517578125</AltitudeMeters>
            <DistanceMeters>NAN</DistanceMeters>
          </Trackpoint>
          <Trackpoint>
            <Time>2020-02-15T12:22:07.000Z</Time>
            <Position>
              <LatitudeDegrees>41.9989661872386932373046875</LatitudeDegrees>
              <LongitudeDegrees>2.83902369439601898193359375</LongitudeDegrees>
            </Position>
            <AltitudeMeters>223</AltitudeMeters>
            <DistanceMeters>NAN</DistanceMeters>
          </Trackpoint>
          <Trackpoint>
            <Time>2020-02-15T12:22:08.000Z</Time>
            <Position>
              <LatitudeDegrees>41.99893291108310222625732421875</LatitudeDegrees>
              <LongitudeDegrees>2.83900969661772251129150390625</LongitudeDegrees>
            </Position>
            <AltitudeMeters>223.1999969482421875</AltitudeMeters>
            <DistanceMeters>NAN</DistanceMeters>
          </Trackpoint>
          <Trackpoint>
            <Time>2020-02-15T12:22:09.000Z</Time>
            <Position>
              <LatitudeDegrees>41.9988991320133209228515625</LatitudeDegrees>
              <LongitudeDegrees>2.8389967046678066253662109375</LongitudeDegrees>
            </Position>
            <AltitudeMeters>223.1999969482421875</AltitudeMeters>
            <DistanceMeters>NAN</DistanceMeters>
          </Trackpoint>
          <Trackpoint>
            <Time>2020-02-15T12:22:10.000Z</Time>
            <Position>
              <LatitudeDegrees>41.99886216782033443450927734375</LatitudeDegrees>
              <LongitudeDegrees>2.83898103050887584686279296875</LongitudeDegrees>
            </Position>
            <AltitudeMeters>223.399993896484375</AltitudeMeters>
            <DistanceMeters>NAN</DistanceMeters>
          </Trackpoint>
          <Trackpoint>
            <Time>2020-02-15T12:22:11.000Z</Time>
            <Position>
              <LatitudeDegrees>41.99882562272250652313232421875</LatitudeDegrees>
              <LongitudeDegrees>2.83896527253091335296630859375</LongitudeDegrees>
            </Position>
            <AltitudeMeters>223.600006103515625</AltitudeMeters>
            <DistanceMeters>NAN</DistanceMeters>
          </Trackpoint>
          <Trackpoint>
            <Time>2020-02-15T12:22:12.000Z</Time>
            <Position>
              <LatitudeDegrees>41.99879075400531291961669921875</LatitudeDegrees>
              <LongitudeDegrees>2.838948927819728851318359375</LongitudeDegrees>
            </Position>
            <AltitudeMeters>224</AltitudeMeters>
            <DistanceMeters>NAN</DistanceMeters>
          </Trackpoint>
          <Trackpoint>
            <Time>2020-02-15T12:22:13.000Z</Time>
            <Position>
              <LatitudeDegrees>41.998755969107151031494140625</LatitudeDegrees>
              <LongitudeDegrees>2.83893249928951263427734375</LongitudeDegrees>
            </Position>
            <AltitudeMeters>224.1999969482421875</AltitudeMeters>
            <DistanceMeters>NAN</DistanceMeters>
          </Trackpoint>
          <Trackpoint>
            <Time>2020-02-15T12:22:14.000Z</Time>
            <Position>
              <LatitudeDegrees>41.99872269295156002044677734375</LatitudeDegrees>
              <LongitudeDegrees>2.838918082416057586669921875</LongitudeDegrees>
            </Position>
            <AltitudeMeters>224.1999969482421875</AltitudeMeters>
            <DistanceMeters>NAN</DistanceMeters>
          </Trackpoint>
          <Trackpoint>
            <Time>2020-02-15T12:22:15.000Z</Time>
            <Position>
              <LatitudeDegrees>41.9986900873482227325439453125</LatitudeDegrees>
              <LongitudeDegrees>2.83890374936163425445556640625</LongitudeDegrees>
            </Position>
            <AltitudeMeters>224.600006103515625</AltitudeMeters>
            <DistanceMeters>NAN</DistanceMeters>
          </Trackpoint>
          <Trackpoint>
            <Time>2020-02-15T12:22:16.000Z</Time>
            <Position>
              <LatitudeDegrees>41.998657397925853729248046875</LatitudeDegrees>
              <LongitudeDegrees>2.8388874046504497528076171875</LongitudeDegrees>
            </Position>
            <AltitudeMeters>224.600006103515625</AltitudeMeters>
            <DistanceMeters>NAN</DistanceMeters>
          </Trackpoint>
          <Trackpoint>
            <Time>2020-02-15T12:22:17.000Z</Time>
            <Position>
              <LatitudeDegrees>41.9986240379512310028076171875</LatitudeDegrees>
              <LongitudeDegrees>2.83887022174894809722900390625</LongitudeDegrees>
            </Position>
            <AltitudeMeters>225</AltitudeMeters>
            <DistanceMeters>NAN</DistanceMeters>
          </Trackpoint>
          <Trackpoint>
            <Time>2020-02-15T12:22:19.000Z</Time>
            <Position>
              <LatitudeDegrees>41.99855388142168521881103515625</LatitudeDegrees>
              <LongitudeDegrees>2.83883468247950077056884765625</LongitudeDegrees>
            </Position>
            <AltitudeMeters>225.1999969482421875</AltitudeMeters>
            <DistanceMeters>NAN</DistanceMeters>
          </Trackpoint>
          <Trackpoint>
            <Time>2020-02-15T12:22:22.000Z</Time>
            <Position>
              <LatitudeDegrees>41.99844273738563060760498046875</LatitudeDegrees>
              <LongitudeDegrees>2.83878103829920291900634765625</LongitudeDegrees>
            </Position>
            <AltitudeMeters>225.8000030517578125</AltitudeMeters>
            <DistanceMeters>NAN</DistanceMeters>
          </Trackpoint>
          <Trackpoint>
            <Time>2020-02-15T12:22:25.000Z</Time>
            <Position>
              <LatitudeDegrees>41.99833385646343231201171875</LatitudeDegrees>
              <LongitudeDegrees>2.83871096558868885040283203125</LongitudeDegrees>
            </Position>
            <AltitudeMeters>226</AltitudeMeters>
            <DistanceMeters>NAN</DistanceMeters>
          </Trackpoint>
          <Trackpoint>
            <Time>2020-02-15T12:22:26.000Z</Time>
            <Position>
              <LatitudeDegrees>41.99830058030784130096435546875</LatitudeDegrees>
              <LongitudeDegrees>2.8386872448027133941650390625</LongitudeDegrees>
            </Position>
            <AltitudeMeters>225.8000030517578125</AltitudeMeters>
            <DistanceMeters>NAN</DistanceMeters>
          </Trackpoint>
          <Trackpoint>
            <Time>2020-02-15T12:22:27.000Z</Time>
            <Position>
              <LatitudeDegrees>41.99826872907578945159912109375</LatitudeDegrees>
              <LongitudeDegrees>2.83866100944578647613525390625</LongitudeDegrees>
            </Position>
            <AltitudeMeters>226</AltitudeMeters>
            <DistanceMeters>NAN</DistanceMeters>
          </Trackpoint>
          <Trackpoint>
            <Time>2020-02-15T12:22:28.000Z</Time>
            <Position>
              <LatitudeDegrees>41.99823997914791107177734375</LatitudeDegrees>
              <LongitudeDegrees>2.838635779917240142822265625</LongitudeDegrees>
            </Position>
            <AltitudeMeters>226</AltitudeMeters>
            <DistanceMeters>NAN</DistanceMeters>
          </Trackpoint>
          <Trackpoint>
            <Time>2020-02-15T12:22:29.000Z</Time>
            <Position>
              <LatitudeDegrees>41.99820754118263721466064453125</LatitudeDegrees>
              <LongitudeDegrees>2.83861407078802585601806640625</LongitudeDegrees>
            </Position>
            <AltitudeMeters>225.8000030517578125</AltitudeMeters>
            <DistanceMeters>NAN</DistanceMeters>
          </Trackpoint>
          <Trackpoint>
            <Time>2020-02-15T12:22:30.000Z</Time>
            <Position>
              <LatitudeDegrees>41.99817267246544361114501953125</LatitudeDegrees>
              <LongitudeDegrees>2.83859026618301868438720703125</LongitudeDegrees>
            </Position>
            <AltitudeMeters>225.8000030517578125</AltitudeMeters>
            <DistanceMeters>NAN</DistanceMeters>
          </Trackpoint>
          <Trackpoint>
            <Time>2020-02-15T12:22:31.000Z</Time>
            <Position>
              <LatitudeDegrees>41.99814098887145519256591796875</LatitudeDegrees>
              <LongitudeDegrees>2.8385603427886962890625</LongitudeDegrees>
            </Position>
            <AltitudeMeters>225.8000030517578125</AltitudeMeters>
            <DistanceMeters>NAN</DistanceMeters>
          </Trackpoint>
          <Trackpoint>
            <Time>2020-02-15T12:22:32.000Z</Time>
            <Position>
              <LatitudeDegrees>41.99811181984841823577880859375</LatitudeDegrees>
              <LongitudeDegrees>2.83852656371891498565673828125</LongitudeDegrees>
            </Position>
            <AltitudeMeters>225.8000030517578125</AltitudeMeters>
            <DistanceMeters>NAN</DistanceMeters>
          </Trackpoint>
          <Trackpoint>
            <Time>2020-02-15T12:22:33.000Z</Time>
            <Position>
              <LatitudeDegrees>41.99808047153055667877197265625</LatitudeDegrees>
              <LongitudeDegrees>2.83848716877400875091552734375</LongitudeDegrees>
            </Position>
            <AltitudeMeters>225.8000030517578125</AltitudeMeters>
            <DistanceMeters>NAN</DistanceMeters>
          </Trackpoint>
          <Trackpoint>
            <Time>2020-02-15T12:22:37.000Z</Time>
            <Position>
              <LatitudeDegrees>41.99793554842472076416015625</LatitudeDegrees>
              <LongitudeDegrees>2.838287763297557830810546875</LongitudeDegrees>
            </Position>
            <AltitudeMeters>225.600006103515625</AltitudeMeters>
            <DistanceMeters>NAN</DistanceMeters>
          </Trackpoint>
          <Trackpoint>
            <Time>2020-02-15T12:22:40.000Z</Time>
            <Position>
              <LatitudeDegrees>41.99782499112188816070556640625</LatitudeDegrees>
              <LongitudeDegrees>2.83810964785516262054443359375</LongitudeDegrees>
            </Position>
            <AltitudeMeters>225.600006103515625</AltitudeMeters>
            <DistanceMeters>NAN</DistanceMeters>
          </Trackpoint>
          <Trackpoint>
            <Time>2020-02-15T12:22:44.000Z</Time>
            <Position>
              <LatitudeDegrees>41.9976681657135486602783203125</LatitudeDegrees>
              <LongitudeDegrees>2.83786774612963199615478515625</LongitudeDegrees>
            </Position>
            <AltitudeMeters>225.399993896484375</AltitudeMeters>
            <DistanceMeters>NAN</DistanceMeters>
          </Trackpoint>
          <Trackpoint>
            <Time>2020-02-15T12:22:45.000Z</Time>
            <Position>
              <LatitudeDegrees>41.99762986041605472564697265625</LatitudeDegrees>
              <LongitudeDegrees>2.83780395984649658203125</LongitudeDegrees>
            </Position>
            <AltitudeMeters>225.1999969482421875</AltitudeMeters>
            <DistanceMeters>NAN</DistanceMeters>
          </Trackpoint>
          <Trackpoint>
            <Time>2020-02-15T12:22:49.000Z</Time>
            <Position>
              <LatitudeDegrees>41.9974716939032077789306640625</LatitudeDegrees>
              <LongitudeDegrees>2.83754521049559116363525390625</LongitudeDegrees>
            </Position>
            <AltitudeMeters>224.600006103515625</AltitudeMeters>
            <DistanceMeters>NAN</DistanceMeters>
          </Trackpoint>
          <Trackpoint>
            <Time>2020-02-15T12:22:51.000Z</Time>
            <Position>
              <LatitudeDegrees>41.997389383614063262939453125</LatitudeDegrees>
              <LongitudeDegrees>2.83741763792932033538818359375</LongitudeDegrees>
            </Position>
            <AltitudeMeters>224</AltitudeMeters>
            <DistanceMeters>NAN</DistanceMeters>
          </Trackpoint>
          <Trackpoint>
            <Time>2020-02-15T12:22:53.000Z</Time>
            <Position>
              <LatitudeDegrees>41.997307240962982177734375</LatitudeDegrees>
              <LongitudeDegrees>2.83728453330695629119873046875</LongitudeDegrees>
            </Position>
            <AltitudeMeters>223.8000030517578125</AltitudeMeters>
            <DistanceMeters>NAN</DistanceMeters>
          </Trackpoint>
          <Trackpoint>
            <Time>2020-02-15T12:22:54.000Z</Time>
            <Position>
              <LatitudeDegrees>41.9972648285329341888427734375</LatitudeDegrees>
              <LongitudeDegrees>2.83721697516739368438720703125</LongitudeDegrees>
            </Position>
            <AltitudeMeters>223.8000030517578125</AltitudeMeters>
            <DistanceMeters>NAN</DistanceMeters>
          </Trackpoint>
          <Trackpoint>
            <Time>2020-02-15T12:22:55.000Z</Time>
            <Position>
              <LatitudeDegrees>41.99722082354128360748291015625</LatitudeDegrees>
              <LongitudeDegrees>2.83715142868459224700927734375</LongitudeDegrees>
            </Position>
            <AltitudeMeters>223.600006103515625</AltitudeMeters>
            <DistanceMeters>NAN</DistanceMeters>
          </Trackpoint>
          <Trackpoint>
            <Time>2020-02-15T12:22:59.000Z</Time>
            <Position>
              <LatitudeDegrees>41.99705519713461399078369140625</LatitudeDegrees>
              <LongitudeDegrees>2.83685378730297088623046875</LongitudeDegrees>
            </Position>
            <AltitudeMeters>222.8000030517578125</AltitudeMeters>
            <DistanceMeters>NAN</DistanceMeters>
          </Trackpoint>
          <Trackpoint>
            <Time>2020-02-15T12:23:00.000Z</Time>
            <Position>
              <LatitudeDegrees>41.99701362289488315582275390625</LatitudeDegrees>
              <LongitudeDegrees>2.83677156083285808563232421875</LongitudeDegrees>
            </Position>
            <AltitudeMeters>222.399993896484375</AltitudeMeters>
            <DistanceMeters>NAN</DistanceMeters>
          </Trackpoint>
          <Trackpoint>
            <Time>2020-02-15T12:23:01.000Z</Time>
            <Position>
              <LatitudeDegrees>41.9969754852354526519775390625</LatitudeDegrees>
              <LongitudeDegrees>2.8366843052208423614501953125</LongitudeDegrees>
            </Position>
            <AltitudeMeters>222.1999969482421875</AltitudeMeters>
            <DistanceMeters>NAN</DistanceMeters>
          </Trackpoint>
          <Trackpoint>
            <Time>2020-02-15T12:23:02.000Z</Time>
            <Position>
              <LatitudeDegrees>41.996943466365337371826171875</LatitudeDegrees>
              <LongitudeDegrees>2.83659386448562145233154296875</LongitudeDegrees>
            </Position>
            <AltitudeMeters>222</AltitudeMeters>
            <DistanceMeters>NAN</DistanceMeters>
          </Trackpoint>
          <Trackpoint>
            <Time>2020-02-15T12:23:03.000Z</Time>
            <Position>
              <LatitudeDegrees>41.99691806919872760772705078125</LatitudeDegrees>
              <LongitudeDegrees>2.83650283701717853546142578125</LongitudeDegrees>
            </Position>
            <AltitudeMeters>221.8000030517578125</AltitudeMeters>
            <DistanceMeters>NAN</DistanceMeters>
          </Trackpoint>
          <Trackpoint>
            <Time>2020-02-15T12:23:04.000Z</Time>
            <Position>
              <LatitudeDegrees>41.99689812026917934417724609375</LatitudeDegrees>
              <LongitudeDegrees>2.83640317618846893310546875</LongitudeDegrees>
            </Position>
            <AltitudeMeters>221.1999969482421875</AltitudeMeters>
            <DistanceMeters>NAN</DistanceMeters>
          </Trackpoint>
          <Trackpoint>
            <Time>2020-02-15T12:23:07.000Z</Time>
            <Position>
              <LatitudeDegrees>41.99683961458504199981689453125</LatitudeDegrees>
              <LongitudeDegrees>2.8361015953123569488525390625</LongitudeDegrees>
            </Position>
            <AltitudeMeters>220.600006103515625</AltitudeMeters>
            <DistanceMeters>NAN</DistanceMeters>
          </Trackpoint>
          <Trackpoint>
            <Time>2020-02-15T12:23:10.000Z</Time>
            <Position>
              <LatitudeDegrees>41.99677993543446063995361328125</LatitudeDegrees>
              <LongitudeDegrees>2.835803367197513580322265625</LongitudeDegrees>
            </Position>
            <AltitudeMeters>219.399993896484375</AltitudeMeters>
            <DistanceMeters>NAN</DistanceMeters>
          </Trackpoint>
          <Trackpoint>
            <Time>2020-02-15T12:23:11.000Z</Time>
            <Position>
              <LatitudeDegrees>41.9967615790665149688720703125</LatitudeDegrees>
              <LongitudeDegrees>2.83570001833140850067138671875</LongitudeDegrees>
            </Position>
            <AltitudeMeters>219.1999969482421875</AltitudeMeters>
            <DistanceMeters>NAN</DistanceMeters>
          </Trackpoint>
          <Trackpoint>
            <Time>2020-02-15T12:23:12.000Z</Time>
            <Position>
              <LatitudeDegrees>41.99674288742244243621826171875</LatitudeDegrees>
              <LongitudeDegrees>2.83559717237949371337890625</LongitudeDegrees>
            </Position>
            <AltitudeMeters>219</AltitudeMeters>
            <DistanceMeters>NAN</DistanceMeters>
          </Trackpoint>
          <Trackpoint>
            <Time>2020-02-15T12:23:15.000Z</Time>
            <Position>
              <LatitudeDegrees>41.9966791011393070220947265625</LatitudeDegrees>
              <LongitudeDegrees>2.83528192900121212005615234375</LongitudeDegrees>
            </Position>
            <AltitudeMeters>218.8000030517578125</AltitudeMeters>
            <DistanceMeters>NAN</DistanceMeters>
          </Trackpoint>
          <Trackpoint>
            <Time>2020-02-15T12:23:18.000Z</Time>
            <Position>
              <LatitudeDegrees>41.99660726822912693023681640625</LatitudeDegrees>
              <LongitudeDegrees>2.83495872281491756439208984375</LongitudeDegrees>
            </Position>
            <AltitudeMeters>217.600006103515625</AltitudeMeters>
            <DistanceMeters>NAN</DistanceMeters>
          </Trackpoint>
          <Trackpoint>
            <Time>2020-02-15T12:23:20.000Z</Time>
            <Position>
              <LatitudeDegrees>41.996556557714939117431640625</LatitudeDegrees>
              <LongitudeDegrees>2.8347422182559967041015625</LongitudeDegrees>
            </Position>
            <AltitudeMeters>216.8000030517578125</AltitudeMeters>
            <DistanceMeters>NAN</DistanceMeters>
          </Trackpoint>
          <Trackpoint>
            <Time>2020-02-15T12:23:21.000Z</Time>
            <Position>
              <LatitudeDegrees>41.996526382863521575927734375</LatitudeDegrees>
              <LongitudeDegrees>2.8346364386379718780517578125</LongitudeDegrees>
            </Position>
            <AltitudeMeters>216.399993896484375</AltitudeMeters>
            <DistanceMeters>NAN</DistanceMeters>
          </Trackpoint>
          <Trackpoint>
            <Time>2020-02-15T12:23:23.000Z</Time>
            <Position>
              <LatitudeDegrees>41.99645387940108776092529296875</LatitudeDegrees>
              <LongitudeDegrees>2.834431417286396026611328125</LongitudeDegrees>
            </Position>
            <AltitudeMeters>215.600006103515625</AltitudeMeters>
            <DistanceMeters>NAN</DistanceMeters>
          </Trackpoint>
          <Trackpoint>
            <Time>2020-02-15T12:23:24.000Z</Time>
            <Position>
              <LatitudeDegrees>41.99641414918005466461181640625</LatitudeDegrees>
              <LongitudeDegrees>2.8343330137431621551513671875</LongitudeDegrees>
            </Position>
            <AltitudeMeters>215.1999969482421875</AltitudeMeters>
            <DistanceMeters>NAN</DistanceMeters>
          </Trackpoint>
          <Trackpoint>
            <Time>2020-02-15T12:23:25.000Z</Time>
            <Position>
              <LatitudeDegrees>41.9963709823787212371826171875</LatitudeDegrees>
              <LongitudeDegrees>2.83423838205635547637939453125</LongitudeDegrees>
            </Position>
            <AltitudeMeters>214.399993896484375</AltitudeMeters>
            <DistanceMeters>NAN</DistanceMeters>
          </Trackpoint>
          <Trackpoint>
            <Time>2020-02-15T12:23:26.000Z</Time>
            <Position>
              <LatitudeDegrees>41.9963233731687068939208984375</LatitudeDegrees>
              <LongitudeDegrees>2.8341476060450077056884765625</LongitudeDegrees>
            </Position>
            <AltitudeMeters>214.1999969482421875</AltitudeMeters>
            <DistanceMeters>NAN</DistanceMeters>
          </Trackpoint>
          <Trackpoint>
            <Time>2020-02-15T12:23:27.000Z</Time>
            <Position>
              <LatitudeDegrees>41.99627433903515338897705078125</LatitudeDegrees>
              <LongitudeDegrees>2.83406001515686511993408203125</LongitudeDegrees>
            </Position>
            <AltitudeMeters>213.399993896484375</AltitudeMeters>
            <DistanceMeters>NAN</DistanceMeters>
          </Trackpoint>
          <Trackpoint>
            <Time>2020-02-15T12:23:28.000Z</Time>
            <Position>
              <LatitudeDegrees>41.9962261430919170379638671875</LatitudeDegrees>
              <LongitudeDegrees>2.83397451974451541900634765625</LongitudeDegrees>
            </Position>
            <AltitudeMeters>213</AltitudeMeters>
            <DistanceMeters>NAN</DistanceMeters>
          </Trackpoint>
          <Trackpoint>
            <Time>2020-02-15T12:23:29.000Z</Time>
            <Position>
              <LatitudeDegrees>41.9961748458445072174072265625</LatitudeDegrees>
              <LongitudeDegrees>2.83389070071280002593994140625</LongitudeDegrees>
            </Position>
            <AltitudeMeters>212.399993896484375</AltitudeMeters>
            <DistanceMeters>NAN</DistanceMeters>
          </Trackpoint>
          <Trackpoint>
            <Time>2020-02-15T12:23:30.000Z</Time>
            <Position>
              <LatitudeDegrees>41.9961228780448436737060546875</LatitudeDegrees>
              <LongitudeDegrees>2.8338103182613849639892578125</LongitudeDegrees>
            </Position>
            <AltitudeMeters>211.600006103515625</AltitudeMeters>
            <DistanceMeters>NAN</DistanceMeters>
          </Trackpoint>
          <Trackpoint>
            <Time>2020-02-15T12:23:31.000Z</Time>
            <Position>
              <LatitudeDegrees>41.9960732571780681610107421875</LatitudeDegrees>
              <LongitudeDegrees>2.833730019629001617431640625</LongitudeDegrees>
            </Position>
            <AltitudeMeters>211.1999969482421875</AltitudeMeters>
            <DistanceMeters>NAN</DistanceMeters>
          </Trackpoint>
          <Trackpoint>
            <Time>2020-02-15T12:23:32.000Z</Time>
            <Position>
              <LatitudeDegrees>41.9960249774158000946044921875</LatitudeDegrees>
              <LongitudeDegrees>2.8336497209966182708740234375</LongitudeDegrees>
            </Position>
            <AltitudeMeters>210.8000030517578125</AltitudeMeters>
            <DistanceMeters>NAN</DistanceMeters>
          </Trackpoint>
          <Trackpoint>
            <Time>2020-02-15T12:23:33.000Z</Time>
            <Position>
              <LatitudeDegrees>41.99597728438675403594970703125</LatitudeDegrees>
              <LongitudeDegrees>2.833570428192615509033203125</LongitudeDegrees>
            </Position>
            <AltitudeMeters>210.399993896484375</AltitudeMeters>
            <DistanceMeters>NAN</DistanceMeters>
          </Trackpoint>
          <Trackpoint>
            <Time>2020-02-15T12:23:34.000Z</Time>
            <Position>
              <LatitudeDegrees>41.99593151919543743133544921875</LatitudeDegrees>
              <LongitudeDegrees>2.8334923088550567626953125</LongitudeDegrees>
            </Position>
            <AltitudeMeters>210</AltitudeMeters>
            <DistanceMeters>NAN</DistanceMeters>
          </Trackpoint>
          <Trackpoint>
            <Time>2020-02-15T12:23:35.000Z</Time>
            <Position>
              <LatitudeDegrees>41.9958870112895965576171875</LatitudeDegrees>
              <LongitudeDegrees>2.8334143571555614471435546875</LongitudeDegrees>
            </Position>
            <AltitudeMeters>210</AltitudeMeters>
            <DistanceMeters>NAN</DistanceMeters>
          </Trackpoint>
          <Trackpoint>
            <Time>2020-02-15T12:23:36.000Z</Time>
            <Position>
              <LatitudeDegrees>41.9958425872027873992919921875</LatitudeDegrees>
              <LongitudeDegrees>2.83333850093185901641845703125</LongitudeDegrees>
            </Position>
            <AltitudeMeters>209.399993896484375</AltitudeMeters>
            <DistanceMeters>NAN</DistanceMeters>
          </Trackpoint>
          <Trackpoint>
            <Time>2020-02-15T12:23:37.000Z</Time>
            <Position>
              <LatitudeDegrees>41.99579791165888309478759765625</LatitudeDegrees>
              <LongitudeDegrees>2.83326423726975917816162109375</LongitudeDegrees>
            </Position>
            <AltitudeMeters>209.1999969482421875</AltitudeMeters>
            <DistanceMeters>NAN</DistanceMeters>
          </Trackpoint>
          <Trackpoint>
            <Time>2020-02-15T12:23:38.000Z</Time>
            <Position>
              <LatitudeDegrees>41.99575331993401050567626953125</LatitudeDegrees>
              <LongitudeDegrees>2.83319366164505481719970703125</LongitudeDegrees>
            </Position>
            <AltitudeMeters>209</AltitudeMeters>
            <DistanceMeters>NAN</DistanceMeters>
          </Trackpoint>
          <Trackpoint>
            <Time>2020-02-15T12:23:39.000Z</Time>
            <Position>
              <LatitudeDegrees>41.99571065604686737060546875</LatitudeDegrees>
              <LongitudeDegrees>2.83312157727777957916259765625</LongitudeDegrees>
            </Position>
            <AltitudeMeters>208.8000030517578125</AltitudeMeters>
            <DistanceMeters>NAN</DistanceMeters>
          </Trackpoint>
          <Trackpoint>
            <Time>2020-02-15T12:23:40.000Z</Time>
            <Position>
              <LatitudeDegrees>41.99568475596606731414794921875</LatitudeDegrees>
              <LongitudeDegrees>2.833043374121189117431640625</LongitudeDegrees>
            </Position>
            <AltitudeMeters>208.600006103515625</AltitudeMeters>
            <DistanceMeters>NAN</DistanceMeters>
          </Trackpoint>
          <Trackpoint>
            <Time>2020-02-15T12:23:41.000Z</Time>
            <Position>
              <LatitudeDegrees>41.99569012038409709930419921875</LatitudeDegrees>
              <LongitudeDegrees>2.832964248955249786376953125</LongitudeDegrees>
            </Position>
            <AltitudeMeters>208.399993896484375</AltitudeMeters>
            <DistanceMeters>NAN</DistanceMeters>
          </Trackpoint>
          <Trackpoint>
            <Time>2020-02-15T12:23:42.000Z</Time>
            <Position>
              <LatitudeDegrees>41.9957232289016246795654296875</LatitudeDegrees>
              <LongitudeDegrees>2.832901217043399810791015625</LongitudeDegrees>
            </Position>
            <AltitudeMeters>208.1999969482421875</AltitudeMeters>
            <DistanceMeters>NAN</DistanceMeters>
          </Trackpoint>
          <Trackpoint>
            <Time>2020-02-15T12:23:43.000Z</Time>
            <Position>
              <LatitudeDegrees>41.9957698322832584381103515625</LatitudeDegrees>
              <LongitudeDegrees>2.83285620622336864471435546875</LongitudeDegrees>
            </Position>
            <AltitudeMeters>207.8000030517578125</AltitudeMeters>
            <DistanceMeters>NAN</DistanceMeters>
          </Trackpoint>
          <Trackpoint>
            <Time>2020-02-15T12:23:44.000Z</Time>
            <Position>
              <LatitudeDegrees>41.9958234764635562896728515625</LatitudeDegrees>
              <LongitudeDegrees>2.832826115190982818603515625</LongitudeDegrees>
            </Position>
            <AltitudeMeters>207.399993896484375</AltitudeMeters>
            <DistanceMeters>NAN</DistanceMeters>
          </Trackpoint>
          <Trackpoint>
            <Time>2020-02-15T12:23:45.000Z</Time>
            <Position>
              <LatitudeDegrees>41.9958762824535369873046875</LatitudeDegrees>
              <LongitudeDegrees>2.83279635943472385406494140625</LongitudeDegrees>
            </Position>
            <AltitudeMeters>207.1999969482421875</AltitudeMeters>
            <DistanceMeters>NAN</DistanceMeters>
          </Trackpoint>
          <Trackpoint>
            <Time>2020-02-15T12:23:46.000Z</Time>
            <Position>
              <LatitudeDegrees>41.9959300942718982696533203125</LatitudeDegrees>
              <LongitudeDegrees>2.83276501111686229705810546875</LongitudeDegrees>
            </Position>
            <AltitudeMeters>207</AltitudeMeters>
            <DistanceMeters>NAN</DistanceMeters>
          </Trackpoint>
          <Trackpoint>
            <Time>2020-02-15T12:23:48.000Z</Time>
            <Position>
              <LatitudeDegrees>41.996030509471893310546875</LatitudeDegrees>
              <LongitudeDegrees>2.8327029012143611907958984375</LongitudeDegrees>
            </Position>
            <AltitudeMeters>206.600006103515625</AltitudeMeters>
            <DistanceMeters>NAN</DistanceMeters>
          </Trackpoint>
          <Trackpoint>
            <Time>2020-02-15T12:23:49.000Z</Time>
            <Position>
              <LatitudeDegrees>41.99608038179576396942138671875</LatitudeDegrees>
              <LongitudeDegrees>2.83267750404775142669677734375</LongitudeDegrees>
            </Position>
            <AltitudeMeters>206.399993896484375</AltitudeMeters>
            <DistanceMeters>NAN</DistanceMeters>
          </Trackpoint>
          <Trackpoint>
            <Time>2020-02-15T12:23:50.000Z</Time>
            <Position>
              <LatitudeDegrees>41.996129415929317474365234375</LatitudeDegrees>
              <LongitudeDegrees>2.83265369944274425506591796875</LongitudeDegrees>
            </Position>
            <AltitudeMeters>206.399993896484375</AltitudeMeters>
            <DistanceMeters>NAN</DistanceMeters>
          </Trackpoint>
          <Trackpoint>
            <Time>2020-02-15T12:23:51.000Z</Time>
            <Position>
              <LatitudeDegrees>41.99617895297706127166748046875</LatitudeDegrees>
              <LongitudeDegrees>2.832630984485149383544921875</LongitudeDegrees>
            </Position>
            <AltitudeMeters>206.399993896484375</AltitudeMeters>
            <DistanceMeters>NAN</DistanceMeters>
          </Trackpoint>
          <Trackpoint>
            <Time>2020-02-15T12:23:52.000Z</Time>
            <Position>
              <LatitudeDegrees>41.9962274841964244842529296875</LatitudeDegrees>
              <LongitudeDegrees>2.8326098620891571044921875</LongitudeDegrees>
            </Position>
            <AltitudeMeters>206.1999969482421875</AltitudeMeters>
            <DistanceMeters>NAN</DistanceMeters>
          </Trackpoint>
          <Trackpoint>
            <Time>2020-02-15T12:23:53.000Z</Time>
            <Position>
              <LatitudeDegrees>41.99627517722547054290771484375</LatitudeDegrees>
              <LongitudeDegrees>2.832586728036403656005859375</LongitudeDegrees>
            </Position>
            <AltitudeMeters>206.1999969482421875</AltitudeMeters>
            <DistanceMeters>NAN</DistanceMeters>
          </Trackpoint>
          <Trackpoint>
            <Time>2020-02-15T12:23:54.000Z</Time>
            <Position>
              <LatitudeDegrees>41.99632219970226287841796875</LatitudeDegrees>
              <LongitudeDegrees>2.83256887458264827728271484375</LongitudeDegrees>
            </Position>
            <AltitudeMeters>206.1999969482421875</AltitudeMeters>
            <DistanceMeters>NAN</DistanceMeters>
          </Trackpoint>
          <Trackpoint>
            <Time>2020-02-15T12:23:55.000Z</Time>
            <Position>
              <LatitudeDegrees>41.99636913836002349853515625</LatitudeDegrees>
              <LongitudeDegrees>2.83255043439567089080810546875</LongitudeDegrees>
            </Position>
            <AltitudeMeters>206.1999969482421875</AltitudeMeters>
            <DistanceMeters>NAN</DistanceMeters>
          </Trackpoint>
          <Trackpoint>
            <Time>2020-02-15T12:23:56.000Z</Time>
            <Position>
              <LatitudeDegrees>41.99641783721745014190673828125</LatitudeDegrees>
              <LongitudeDegrees>2.83253031782805919647216796875</LongitudeDegrees>
            </Position>
            <AltitudeMeters>206.1999969482421875</AltitudeMeters>
            <DistanceMeters>NAN</DistanceMeters>
          </Trackpoint>
          <Trackpoint>
            <Time>2020-02-15T12:23:57.000Z</Time>
            <Position>
              <LatitudeDegrees>41.9964672066271305084228515625</LatitudeDegrees>
              <LongitudeDegrees>2.832504920661449432373046875</LongitudeDegrees>
            </Position>
            <AltitudeMeters>206.1999969482421875</AltitudeMeters>
            <DistanceMeters>NAN</DistanceMeters>
          </Trackpoint>
          <Trackpoint>
            <Time>2020-02-15T12:23:58.000Z</Time>
            <Position>
              <LatitudeDegrees>41.99651489965617656707763671875</LatitudeDegrees>
              <LongitudeDegrees>2.832472063601016998291015625</LongitudeDegrees>
            </Position>
            <AltitudeMeters>206.1999969482421875</AltitudeMeters>
            <DistanceMeters>NAN</DistanceMeters>
          </Trackpoint>
          <Trackpoint>
            <Time>2020-02-15T12:24:00.000Z</Time>
            <Position>
              <LatitudeDegrees>41.99661816470324993133544921875</LatitudeDegrees>
              <LongitudeDegrees>2.83241414465010166168212890625</LongitudeDegrees>
            </Position>
            <AltitudeMeters>206</AltitudeMeters>
            <DistanceMeters>NAN</DistanceMeters>
          </Trackpoint>
          <Trackpoint>
            <Time>2020-02-15T12:24:02.000Z</Time>
            <Position>
              <LatitudeDegrees>41.9967290572822093963623046875</LatitudeDegrees>
              <LongitudeDegrees>2.83236418850719928741455078125</LongitudeDegrees>
            </Position>
            <AltitudeMeters>206.1999969482421875</AltitudeMeters>
            <DistanceMeters>NAN</DistanceMeters>
          </Trackpoint>
          <Trackpoint>
            <Time>2020-02-15T12:24:03.000Z</Time>
            <Position>
              <LatitudeDegrees>41.99678915552794933319091796875</LatitudeDegrees>
              <LongitudeDegrees>2.832343317568302154541015625</LongitudeDegrees>
            </Position>
            <AltitudeMeters>206.1999969482421875</AltitudeMeters>
            <DistanceMeters>NAN</DistanceMeters>
          </Trackpoint>
          <Trackpoint>
            <Time>2020-02-15T12:24:07.000Z</Time>
            <Position>
              <LatitudeDegrees>41.99705067090690135955810546875</LatitudeDegrees>
              <LongitudeDegrees>2.83226628787815570831298828125</LongitudeDegrees>
            </Position>
            <AltitudeMeters>206</AltitudeMeters>
            <DistanceMeters>NAN</DistanceMeters>
          </Trackpoint>
          <Trackpoint>
            <Time>2020-02-15T12:24:09.000Z</Time>
            <Position>
              <LatitudeDegrees>41.9971917383372783660888671875</LatitudeDegrees>
              <LongitudeDegrees>2.83223368227481842041015625</LongitudeDegrees>
            </Position>
            <AltitudeMeters>206</AltitudeMeters>
            <DistanceMeters>NAN</DistanceMeters>
          </Trackpoint>
          <Trackpoint>
            <Time>2020-02-15T12:24:10.000Z</Time>
            <Position>
              <LatitudeDegrees>41.9972644932568073272705078125</LatitudeDegrees>
              <LongitudeDegrees>2.832217924296855926513671875</LongitudeDegrees>
            </Position>
            <AltitudeMeters>205.8000030517578125</AltitudeMeters>
            <DistanceMeters>NAN</DistanceMeters>
          </Trackpoint>
          <Trackpoint>
            <Time>2020-02-15T12:24:13.000Z</Time>
            <Position>
              <LatitudeDegrees>41.9974901340901851654052734375</LatitudeDegrees>
              <LongitudeDegrees>2.83216469921171665191650390625</LongitudeDegrees>
            </Position>
            <AltitudeMeters>205.1999969482421875</AltitudeMeters>
            <DistanceMeters>NAN</DistanceMeters>
          </Trackpoint>
          <Trackpoint>
            <Time>2020-02-15T12:24:15.000Z</Time>
            <Position>
              <LatitudeDegrees>41.99764545075595378875732421875</LatitudeDegrees>
              <LongitudeDegrees>2.83212295733392238616943359375</LongitudeDegrees>
            </Position>
            <AltitudeMeters>204.8000030517578125</AltitudeMeters>
            <DistanceMeters>NAN</DistanceMeters>
          </Trackpoint>
          <Trackpoint>
            <Time>2020-02-15T12:24:17.000Z</Time>
            <Position>
              <LatitudeDegrees>41.99780277907848358154296875</LatitudeDegrees>
              <LongitudeDegrees>2.8320814669132232666015625</LongitudeDegrees>
            </Position>
            <AltitudeMeters>204.600006103515625</AltitudeMeters>
            <DistanceMeters>NAN</DistanceMeters>
          </Trackpoint>
          <Trackpoint>
            <Time>2020-02-15T12:24:19.000Z</Time>
            <Position>
              <LatitudeDegrees>41.99795826338231563568115234375</LatitudeDegrees>
              <LongitudeDegrees>2.83203679136931896209716796875</LongitudeDegrees>
            </Position>
            <AltitudeMeters>204.1999969482421875</AltitudeMeters>
            <DistanceMeters>NAN</DistanceMeters>
          </Trackpoint>
          <Trackpoint>
            <Time>2020-02-15T12:24:20.000Z</Time>
            <Position>
              <LatitudeDegrees>41.99803604744374752044677734375</LatitudeDegrees>
              <LongitudeDegrees>2.83201650716364383697509765625</LongitudeDegrees>
            </Position>
            <AltitudeMeters>204</AltitudeMeters>
            <DistanceMeters>NAN</DistanceMeters>
          </Trackpoint>
          <Trackpoint>
            <Time>2020-02-15T12:24:23.000Z</Time>
            <Position>
              <LatitudeDegrees>41.99827350676059722900390625</LatitudeDegrees>
              <LongitudeDegrees>2.83195263706147670745849609375</LongitudeDegrees>
            </Position>
            <AltitudeMeters>203</AltitudeMeters>
            <DistanceMeters>NAN</DistanceMeters>
          </Trackpoint>
          <Trackpoint>
            <Time>2020-02-15T12:24:24.000Z</Time>
            <Position>
              <LatitudeDegrees>41.99835221283137798309326171875</LatitudeDegrees>
              <LongitudeDegrees>2.8319299221038818359375</LongitudeDegrees>
            </Position>
            <AltitudeMeters>202.600006103515625</AltitudeMeters>
            <DistanceMeters>NAN</DistanceMeters>
          </Trackpoint>
          <Trackpoint>
            <Time>2020-02-15T12:24:27.000Z</Time>
            <Position>
              <LatitudeDegrees>41.99859528802335262298583984375</LatitudeDegrees>
              <LongitudeDegrees>2.83185926266014575958251953125</LongitudeDegrees>
            </Position>
            <AltitudeMeters>201.600006103515625</AltitudeMeters>
            <DistanceMeters>NAN</DistanceMeters>
          </Trackpoint>
          <Trackpoint>
            <Time>2020-02-15T12:24:29.000Z</Time>
            <Position>
              <LatitudeDegrees>41.99875270016491413116455078125</LatitudeDegrees>
              <LongitudeDegrees>2.8317872621119022369384765625</LongitudeDegrees>
            </Position>
            <AltitudeMeters>200.8000030517578125</AltitudeMeters>
            <DistanceMeters>NAN</DistanceMeters>
          </Trackpoint>
          <Trackpoint>
            <Time>2020-02-15T12:24:30.000Z</Time>
            <Position>
              <LatitudeDegrees>41.9988245330750942230224609375</LatitudeDegrees>
              <LongitudeDegrees>2.831738479435443878173828125</LongitudeDegrees>
            </Position>
            <AltitudeMeters>200.600006103515625</AltitudeMeters>
            <DistanceMeters>NAN</DistanceMeters>
          </Trackpoint>
          <Trackpoint>
            <Time>2020-02-15T12:24:31.000Z</Time>
            <Position>
              <LatitudeDegrees>41.99889133684337139129638671875</LatitudeDegrees>
              <LongitudeDegrees>2.8316729329526424407958984375</LongitudeDegrees>
            </Position>
            <AltitudeMeters>200.1999969482421875</AltitudeMeters>
            <DistanceMeters>NAN</DistanceMeters>
          </Trackpoint>
          <Trackpoint>
            <Time>2020-02-15T12:24:32.000Z</Time>
            <Position>
              <LatitudeDegrees>41.998952440917491912841796875</LatitudeDegrees>
              <LongitudeDegrees>2.83159372396767139434814453125</LongitudeDegrees>
            </Position>
            <AltitudeMeters>199.8000030517578125</AltitudeMeters>
            <DistanceMeters>NAN</DistanceMeters>
          </Trackpoint>
          <Trackpoint>
            <Time>2020-02-15T12:24:33.000Z</Time>
            <Position>
              <LatitudeDegrees>41.99900298379361629486083984375</LatitudeDegrees>
              <LongitudeDegrees>2.83150588162243366241455078125</LongitudeDegrees>
            </Position>
            <AltitudeMeters>199.399993896484375</AltitudeMeters>
            <DistanceMeters>NAN</DistanceMeters>
          </Trackpoint>
          <Trackpoint>
            <Time>2020-02-15T12:24:34.000Z</Time>
            <Position>
              <LatitudeDegrees>41.99904070235788822174072265625</LatitudeDegrees>
              <LongitudeDegrees>2.8314104117453098297119140625</LongitudeDegrees>
            </Position>
            <AltitudeMeters>199.1999969482421875</AltitudeMeters>
            <DistanceMeters>NAN</DistanceMeters>
          </Trackpoint>
          <Trackpoint>
            <Time>2020-02-15T12:24:35.000Z</Time>
            <Position>
              <LatitudeDegrees>41.999066770076751708984375</LatitudeDegrees>
              <LongitudeDegrees>2.83130966126918792724609375</LongitudeDegrees>
            </Position>
            <AltitudeMeters>198.8000030517578125</AltitudeMeters>
            <DistanceMeters>NAN</DistanceMeters>
          </Trackpoint>
          <Trackpoint>
            <Time>2020-02-15T12:24:36.000Z</Time>
            <Position>
              <LatitudeDegrees>41.99908160604536533355712890625</LatitudeDegrees>
              <LongitudeDegrees>2.83120145089924335479736328125</LongitudeDegrees>
            </Position>
            <AltitudeMeters>198.600006103515625</AltitudeMeters>
            <DistanceMeters>NAN</DistanceMeters>
          </Trackpoint>
          <Trackpoint>
            <Time>2020-02-15T12:24:37.000Z</Time>
            <Position>
              <LatitudeDegrees>41.999083869159221649169921875</LatitudeDegrees>
              <LongitudeDegrees>2.8310890495777130126953125</LongitudeDegrees>
            </Position>
            <AltitudeMeters>198</AltitudeMeters>
            <DistanceMeters>NAN</DistanceMeters>
          </Trackpoint>
          <Trackpoint>
            <Time>2020-02-15T12:24:38.000Z</Time>
            <Position>
              <LatitudeDegrees>41.99907724745571613311767578125</LatitudeDegrees>
              <LongitudeDegrees>2.83097765408456325531005859375</LongitudeDegrees>
            </Position>
            <AltitudeMeters>197.600006103515625</AltitudeMeters>
            <DistanceMeters>NAN</DistanceMeters>
          </Trackpoint>
          <Trackpoint>
            <Time>2020-02-15T12:24:39.000Z</Time>
            <Position>
              <LatitudeDegrees>41.99905880726873874664306640625</LatitudeDegrees>
              <LongitudeDegrees>2.8308699466288089752197265625</LongitudeDegrees>
            </Position>
            <AltitudeMeters>197.600006103515625</AltitudeMeters>
            <DistanceMeters>NAN</DistanceMeters>
          </Trackpoint>
          <Trackpoint>
            <Time>2020-02-15T12:24:40.000Z</Time>
            <Position>
              <LatitudeDegrees>41.99902880005538463592529296875</LatitudeDegrees>
              <LongitudeDegrees>2.83076927997171878814697265625</LongitudeDegrees>
            </Position>
            <AltitudeMeters>197.1999969482421875</AltitudeMeters>
            <DistanceMeters>NAN</DistanceMeters>
          </Trackpoint>
          <Trackpoint>
            <Time>2020-02-15T12:24:41.000Z</Time>
            <Position>
              <LatitudeDegrees>41.9989945180714130401611328125</LatitudeDegrees>
              <LongitudeDegrees>2.83067959360778331756591796875</LongitudeDegrees>
            </Position>
            <AltitudeMeters>196.8000030517578125</AltitudeMeters>
            <DistanceMeters>NAN</DistanceMeters>
          </Trackpoint>
          <Trackpoint>
            <Time>2020-02-15T12:24:42.000Z</Time>
            <Position>
              <LatitudeDegrees>41.9989586435258388519287109375</LatitudeDegrees>
              <LongitudeDegrees>2.8305987082421779632568359375</LongitudeDegrees>
            </Position>
            <AltitudeMeters>196.399993896484375</AltitudeMeters>
            <DistanceMeters>NAN</DistanceMeters>
          </Trackpoint>
          <Trackpoint>
            <Time>2020-02-15T12:24:43.000Z</Time>
            <Position>
              <LatitudeDegrees>41.99892930686473846435546875</LatitudeDegrees>
              <LongitudeDegrees>2.83052754588425159454345703125</LongitudeDegrees>
            </Position>
            <AltitudeMeters>196.1999969482421875</AltitudeMeters>
            <DistanceMeters>NAN</DistanceMeters>
          </Trackpoint>
          <Trackpoint>
            <Time>2020-02-15T12:24:44.000Z</Time>
            <Position>
              <LatitudeDegrees>41.99891665019094944000244140625</LatitudeDegrees>
              <LongitudeDegrees>2.8304635919630527496337890625</LongitudeDegrees>
            </Position>
            <AltitudeMeters>195.8000030517578125</AltitudeMeters>
            <DistanceMeters>NAN</DistanceMeters>
          </Trackpoint>
          <Trackpoint>
            <Time>2020-02-15T12:24:45.000Z</Time>
            <Position>
              <LatitudeDegrees>41.9989244453608989715576171875</LatitudeDegrees>
              <LongitudeDegrees>2.8304077684879302978515625</LongitudeDegrees>
            </Position>
            <AltitudeMeters>195.600006103515625</AltitudeMeters>
            <DistanceMeters>NAN</DistanceMeters>
          </Trackpoint>
          <Trackpoint>
            <Time>2020-02-15T12:24:46.000Z</Time>
            <Position>
              <LatitudeDegrees>41.99895135127007961273193359375</LatitudeDegrees>
              <LongitudeDegrees>2.83037482760846614837646484375</LongitudeDegrees>
            </Position>
            <AltitudeMeters>195.1999969482421875</AltitudeMeters>
            <DistanceMeters>NAN</DistanceMeters>
          </Trackpoint>
          <Trackpoint>
            <Time>2020-02-15T12:24:47.000Z</Time>
            <Position>
              <LatitudeDegrees>41.9989951886236667633056640625</LatitudeDegrees>
              <LongitudeDegrees>2.83036594279110431671142578125</LongitudeDegrees>
            </Position>
            <AltitudeMeters>195.1999969482421875</AltitudeMeters>
            <DistanceMeters>NAN</DistanceMeters>
          </Trackpoint>
          <Trackpoint>
            <Time>2020-02-15T12:24:48.000Z</Time>
            <Position>
              <LatitudeDegrees>41.99905109591782093048095703125</LatitudeDegrees>
              <LongitudeDegrees>2.83036242239177227020263671875</LongitudeDegrees>
            </Position>
            <AltitudeMeters>194.600006103515625</AltitudeMeters>
            <DistanceMeters>NAN</DistanceMeters>
          </Trackpoint>
          <Trackpoint>
            <Time>2020-02-15T12:24:49.000Z</Time>
            <Position>
              <LatitudeDegrees>41.9991158880293369293212890625</LatitudeDegrees>
              <LongitudeDegrees>2.83035873435437679290771484375</LongitudeDegrees>
            </Position>
            <AltitudeMeters>194.1999969482421875</AltitudeMeters>
            <DistanceMeters>NAN</DistanceMeters>
          </Trackpoint>
          <Trackpoint>
            <Time>2020-02-15T12:24:50.000Z</Time>
            <Position>
              <LatitudeDegrees>41.99918688274919986724853515625</LatitudeDegrees>
              <LongitudeDegrees>2.8303539566695690155029296875</LongitudeDegrees>
            </Position>
            <AltitudeMeters>193.8000030517578125</AltitudeMeters>
            <DistanceMeters>NAN</DistanceMeters>
          </Trackpoint>
          <Trackpoint>
            <Time>2020-02-15T12:24:51.000Z</Time>
            <Position>
              <LatitudeDegrees>41.99925863184034824371337890625</LatitudeDegrees>
              <LongitudeDegrees>2.8303482569754123687744140625</LongitudeDegrees>
            </Position>
            <AltitudeMeters>193.1999969482421875</AltitudeMeters>
            <DistanceMeters>NAN</DistanceMeters>
          </Trackpoint>
          <Trackpoint>
            <Time>2020-02-15T12:24:52.000Z</Time>
            <Position>
              <LatitudeDegrees>41.99932736344635486602783203125</LatitudeDegrees>
              <LongitudeDegrees>2.830341048538684844970703125</LongitudeDegrees>
            </Position>
            <AltitudeMeters>192.8000030517578125</AltitudeMeters>
            <DistanceMeters>NAN</DistanceMeters>
          </Trackpoint>
          <Trackpoint>
            <Time>2020-02-15T12:24:53.000Z</Time>
            <Position>
              <LatitudeDegrees>41.9993867911398410797119140625</LatitudeDegrees>
              <LongitudeDegrees>2.83033107407391071319580078125</LongitudeDegrees>
            </Position>
            <AltitudeMeters>192.399993896484375</AltitudeMeters>
            <DistanceMeters>NAN</DistanceMeters>
          </Trackpoint>
          <Trackpoint>
            <Time>2020-02-15T12:24:54.000Z</Time>
            <Position>
              <LatitudeDegrees>41.99943129904568195343017578125</LatitudeDegrees>
              <LongitudeDegrees>2.83030341379344463348388671875</LongitudeDegrees>
            </Position>
            <AltitudeMeters>191.8000030517578125</AltitudeMeters>
            <DistanceMeters>NAN</DistanceMeters>
          </Trackpoint>
          <Trackpoint>
            <Time>2020-02-15T12:24:55.000Z</Time>
            <Position>
              <LatitudeDegrees>41.99945895932614803314208984375</LatitudeDegrees>
              <LongitudeDegrees>2.83024943433701992034912109375</LongitudeDegrees>
            </Position>
            <AltitudeMeters>191.399993896484375</AltitudeMeters>
            <DistanceMeters>NAN</DistanceMeters>
          </Trackpoint>
          <Trackpoint>
            <Time>2020-02-15T12:24:56.000Z</Time>
            <Position>
              <LatitudeDegrees>41.99946398846805095672607421875</LatitudeDegrees>
              <LongitudeDegrees>2.8301802836358547210693359375</LongitudeDegrees>
            </Position>
            <AltitudeMeters>191.1999969482421875</AltitudeMeters>
            <DistanceMeters>NAN</DistanceMeters>
          </Trackpoint>
          <Trackpoint>
            <Time>2020-02-15T12:24:57.000Z</Time>
            <Position>
              <LatitudeDegrees>41.99944688938558101654052734375</LatitudeDegrees>
              <LongitudeDegrees>2.83010995946824550628662109375</LongitudeDegrees>
            </Position>
            <AltitudeMeters>190.8000030517578125</AltitudeMeters>
            <DistanceMeters>NAN</DistanceMeters>
          </Trackpoint>
          <Trackpoint>
            <Time>2020-02-15T12:24:58.000Z</Time>
            <Position>
              <LatitudeDegrees>41.99941637925803661346435546875</LatitudeDegrees>
              <LongitudeDegrees>2.830037958920001983642578125</LongitudeDegrees>
            </Position>
            <AltitudeMeters>190</AltitudeMeters>
            <DistanceMeters>NAN</DistanceMeters>
          </Trackpoint>
          <Trackpoint>
            <Time>2020-02-15T12:24:59.000Z</Time>
            <Position>
              <LatitudeDegrees>41.99938335455954074859619140625</LatitudeDegrees>
              <LongitudeDegrees>2.829964198172092437744140625</LongitudeDegrees>
            </Position>
            <AltitudeMeters>189.1999969482421875</AltitudeMeters>
            <DistanceMeters>NAN</DistanceMeters>
          </Trackpoint>
          <Trackpoint>
            <Time>2020-02-15T12:25:03.000Z</Time>
            <Position>
              <LatitudeDegrees>41.99922895990312099456787109375</LatitudeDegrees>
              <LongitudeDegrees>2.82966739498078823089599609375</LongitudeDegrees>
            </Position>
            <AltitudeMeters>186.1999969482421875</AltitudeMeters>
            <DistanceMeters>NAN</DistanceMeters>
          </Trackpoint>
          <Trackpoint>
            <Time>2020-02-15T12:25:05.000Z</Time>
            <Position>
              <LatitudeDegrees>41.99913256801664829254150390625</LatitudeDegrees>
              <LongitudeDegrees>2.82953001558780670166015625</LongitudeDegrees>
            </Position>
            <AltitudeMeters>184.8000030517578125</AltitudeMeters>
            <DistanceMeters>NAN</DistanceMeters>
          </Trackpoint>
          <Trackpoint>
            <Time>2020-02-15T12:25:06.000Z</Time>
            <Position>
              <LatitudeDegrees>41.99908093549311161041259765625</LatitudeDegrees>
              <LongitudeDegrees>2.829462625086307525634765625</LongitudeDegrees>
            </Position>
            <AltitudeMeters>184.399993896484375</AltitudeMeters>
            <DistanceMeters>NAN</DistanceMeters>
          </Trackpoint>
          <Trackpoint>
            <Time>2020-02-15T12:25:09.000Z</Time>
            <Position>
              <LatitudeDegrees>41.99891882948577404022216796875</LatitudeDegrees>
              <LongitudeDegrees>2.829261459410190582275390625</LongitudeDegrees>
            </Position>
            <AltitudeMeters>183.399993896484375</AltitudeMeters>
            <DistanceMeters>NAN</DistanceMeters>
          </Trackpoint>
          <Trackpoint>
            <Time>2020-02-15T12:25:12.000Z</Time>
            <Position>
              <LatitudeDegrees>41.9987511076033115386962890625</LatitudeDegrees>
              <LongitudeDegrees>2.8290532529354095458984375</LongitudeDegrees>
            </Position>
            <AltitudeMeters>182.600006103515625</AltitudeMeters>
            <DistanceMeters>NAN</DistanceMeters>
          </Trackpoint>
          <Trackpoint>
            <Time>2020-02-15T12:25:15.000Z</Time>
            <Position>
              <LatitudeDegrees>41.9985760934650897979736328125</LatitudeDegrees>
              <LongitudeDegrees>2.8288440406322479248046875</LongitudeDegrees>
            </Position>
            <AltitudeMeters>181</AltitudeMeters>
            <DistanceMeters>NAN</DistanceMeters>
          </Trackpoint>
          <Trackpoint>
            <Time>2020-02-15T12:25:16.000Z</Time>
            <Position>
              <LatitudeDegrees>41.9985147379338741302490234375</LatitudeDegrees>
              <LongitudeDegrees>2.828782014548778533935546875</LongitudeDegrees>
            </Position>
            <AltitudeMeters>180.8000030517578125</AltitudeMeters>
            <DistanceMeters>NAN</DistanceMeters>
          </Trackpoint>
          <Trackpoint>
            <Time>2020-02-15T12:25:17.000Z</Time>
            <Position>
              <LatitudeDegrees>41.99845799244940280914306640625</LatitudeDegrees>
              <LongitudeDegrees>2.828713618218898773193359375</LongitudeDegrees>
            </Position>
            <AltitudeMeters>180.600006103515625</AltitudeMeters>
            <DistanceMeters>NAN</DistanceMeters>
          </Trackpoint>
          <Trackpoint>
            <Time>2020-02-15T12:25:18.000Z</Time>
            <Position>
              <LatitudeDegrees>41.998408623039722442626953125</LatitudeDegrees>
              <LongitudeDegrees>2.8286376781761646270751953125</LongitudeDegrees>
            </Position>
            <AltitudeMeters>179.8000030517578125</AltitudeMeters>
            <DistanceMeters>NAN</DistanceMeters>
          </Trackpoint>
          <Trackpoint>
            <Time>2020-02-15T12:25:19.000Z</Time>
            <Position>
              <LatitudeDegrees>41.99836478568613529205322265625</LatitudeDegrees>
              <LongitudeDegrees>2.8285555355250835418701171875</LongitudeDegrees>
            </Position>
            <AltitudeMeters>179.600006103515625</AltitudeMeters>
            <DistanceMeters>NAN</DistanceMeters>
          </Trackpoint>
          <Trackpoint>
            <Time>2020-02-15T12:25:20.000Z</Time>
            <Position>
              <LatitudeDegrees>41.99832354672253131866455078125</LatitudeDegrees>
              <LongitudeDegrees>2.82846744172275066375732421875</LongitudeDegrees>
            </Position>
            <AltitudeMeters>179</AltitudeMeters>
            <DistanceMeters>NAN</DistanceMeters>
          </Trackpoint>
          <Trackpoint>
            <Time>2020-02-15T12:25:21.000Z</Time>
            <Position>
              <LatitudeDegrees>41.99828465469181537628173828125</LatitudeDegrees>
              <LongitudeDegrees>2.82837398350238800048828125</LongitudeDegrees>
            </Position>
            <AltitudeMeters>178.600006103515625</AltitudeMeters>
            <DistanceMeters>NAN</DistanceMeters>
          </Trackpoint>
          <Trackpoint>
            <Time>2020-02-15T12:25:23.000Z</Time>
            <Position>
              <LatitudeDegrees>41.9982099719345569610595703125</LatitudeDegrees>
              <LongitudeDegrees>2.82817441038787364959716796875</LongitudeDegrees>
            </Position>
            <AltitudeMeters>178.399993896484375</AltitudeMeters>
            <DistanceMeters>NAN</DistanceMeters>
          </Trackpoint>
          <Trackpoint>
            <Time>2020-02-15T12:25:24.000Z</Time>
            <Position>
              <LatitudeDegrees>41.9981690682470798492431640625</LatitudeDegrees>
              <LongitudeDegrees>2.8280727379024028778076171875</LongitudeDegrees>
            </Position>
            <AltitudeMeters>177.600006103515625</AltitudeMeters>
            <DistanceMeters>NAN</DistanceMeters>
          </Trackpoint>
        </Track>
      </Lap>
    </Activity>
  </Activities>
</TrainingCenterDatabase>
